<?xml version="1.0" encoding="UTF-8"?>
<gpx version="1.1" creator="https://www.youtrack.es" xsi:schemaLocation="http://www.topografix.com/GPX/1/1 http://www.topografix.com/GPX/1/1/gpx.xsd http://www.garmin.com/xmlschemas/GpxExtensions/v3 http://www.garmin.com/xmlschemas/GpxExtensionsv3.xsd http://www.garmin.com/xmlschemas/TrackPointExtension/v1 http://www.garmin.com/xmlschemas/TrackPointExtensionv1.xsd" xmlns:gpxtpx="http://www.garmin.com/xmlschemas/TrackPointExtension/v1" xmlns:gpxx="http://www.garmin.com/xmlschemas/GpxExtensions/v3" xmlns:xsi="http://www.w3.org/2001/XMLSchema-instance">
  <metadata>
    <link href="https://www.youtrack.es">
      <text>YouTrack.es</text>
    </link>
    <time>2026-05-09T00:57:41Z</time>
  </metadata>
  <trk>
    <src>https://www.youtrack.es</src>
    <link href="https://www.youtrack.es/ruta/33951-portugues-de-la-costa-ryr">
      <text>YouTrack.es</text>
    </link>
    <trkseg>
      <trkpt lat="41.142407096922398" lon="-8.611734956502914">
        <ele>69.01171875</ele>
        <time>2019-05-28T15:10:48Z</time>
      </trkpt>
      <trkpt lat="41.142412293702364" lon="-8.611798323690891">
        <ele>68.453125</ele>
        <time>2019-05-28T15:29:07Z</time>
      </trkpt>
      <trkpt lat="41.142418496310711" lon="-8.61185004003346">
        <ele>68.0390625</ele>
        <time>2019-05-28T16:17:51Z</time>
      </trkpt>
      <trkpt lat="41.142426459118724" lon="-8.611913910135627">
        <ele>67.53125</ele>
        <time>2019-05-28T16:25:07Z</time>
      </trkpt>
      <trkpt lat="41.142432494089007" lon="-8.611970320343971">
        <ele>67.05078125</ele>
        <time>2019-06-14T17:53:02Z</time>
      </trkpt>
      <trkpt lat="41.142435930669308" lon="-8.612021533772349">
        <ele>66.4765625</ele>
        <time>2019-06-14T17:55:26Z</time>
      </trkpt>
      <trkpt lat="41.142437607049942" lon="-8.612083308398724">
        <ele>65.80078125</ele>
        <time>2019-06-14T17:57:20Z</time>
      </trkpt>
      <trkpt lat="41.14243945106864" lon="-8.612146507948637">
        <ele>65.109375</ele>
        <time>2019-06-14T18:16:07Z</time>
      </trkpt>
      <trkpt lat="41.142441462725401" lon="-8.612202163785696">
        <ele>64.5</ele>
        <time>2019-06-14T18:17:58Z</time>
      </trkpt>
      <trkpt lat="41.142443474382162" lon="-8.612264608964324">
        <ele>63.7734375</ele>
        <time>2019-06-14T18:39:51Z</time>
      </trkpt>
      <trkpt lat="41.142444480210543" lon="-8.612318253144622">
        <ele>63</ele>
        <time>2019-06-14T18:41:41Z</time>
      </trkpt>
      <trkpt lat="41.142444480210543" lon="-8.612369801849127">
        <ele>62.26171875</ele>
        <time>2019-06-14T19:40:56Z</time>
      </trkpt>
      <trkpt lat="41.142442971467972" lon="-8.612423865124583">
        <ele>61.4921875</ele>
        <time>2019-06-14T19:43:15Z</time>
      </trkpt>
      <trkpt lat="41.142441462725401" lon="-8.612477676942945">
        <ele>60.7265625</ele>
        <time>2019-06-14T20:24:03Z</time>
      </trkpt>
      <trkpt lat="41.142439199611545" lon="-8.61253215931356">
        <ele>59.94921875</ele>
        <time>2019-06-14T21:07:02Z</time>
      </trkpt>
      <trkpt lat="41.142436685040593" lon="-8.612585635855794">
        <ele>59.1875</ele>
      </trkpt>
      <trkpt lat="41.142432745546103" lon="-8.612640621140599">
        <ele>58.40625</ele>
      </trkpt>
      <trkpt lat="41.142428889870644" lon="-8.612690828740597">
        <ele>57.6171875</ele>
      </trkpt>
      <trkpt lat="41.142424950376153" lon="-8.612740868702531">
        <ele>56.81640625</ele>
      </trkpt>
      <trkpt lat="41.142418999224901" lon="-8.612794848158956">
        <ele>55.921875</ele>
      </trkpt>
      <trkpt lat="41.142412126064301" lon="-8.612849246710539">
        <ele>55.00390625</ele>
      </trkpt>
      <trkpt lat="41.142405923455954" lon="-8.612898448482156">
        <ele>54.17578125</ele>
      </trkpt>
      <trkpt lat="41.142404498532414" lon="-8.612952595576644">
        <ele>53.37109375</ele>
      </trkpt>
      <trkpt lat="41.142404498532414" lon="-8.613002467900515">
        <ele>52.65625</ele>
      </trkpt>
      <trkpt lat="41.142411706969142" lon="-8.613055692985654">
        <ele>52.03125</ele>
      </trkpt>
      <trkpt lat="41.142431404441595" lon="-8.613092908635736">
        <ele>51.9140625</ele>
      </trkpt>
      <trkpt lat="41.142449676990509" lon="-8.613133393228054">
        <ele>51.546875</ele>
      </trkpt>
      <trkpt lat="41.142470799386501" lon="-8.613175805658102">
        <ele>51.16015625</ele>
      </trkpt>
      <trkpt lat="41.142502818256617" lon="-8.613211009651423">
        <ele>50.87109375</ele>
      </trkpt>
      <trkpt lat="41.142521090805531" lon="-8.613230707123876">
        <ele>50.71484375</ele>
      </trkpt>
      <trkpt lat="41.142827533185482" lon="-8.613507393747568">
        <ele>49.390625</ele>
      </trkpt>
      <trkpt lat="41.142827533185482" lon="-8.6135074775666">
        <ele>49.390625</ele>
      </trkpt>
      <trkpt lat="41.142731979489326" lon="-8.613703278824687">
        <ele>47.66796875</ele>
      </trkpt>
      <trkpt lat="41.142732566222548" lon="-8.613702356815338">
        <ele>47.67578125</ele>
      </trkpt>
      <trkpt lat="41.142731895670295" lon="-8.614123379811645">
        <ele>46.21875</ele>
      </trkpt>
      <trkpt lat="41.142731895670295" lon="-8.614122457802296">
        <ele>46.21875</ele>
      </trkpt>
      <trkpt lat="41.14148173481226" lon="-8.613465065136552">
        <ele>31.7265625</ele>
      </trkpt>
      <trkpt lat="41.14087974652648" lon="-8.613146133720875">
        <ele>18.06640625</ele>
      </trkpt>
      <trkpt lat="41.140393260866404" lon="-8.613010514527559">
        <ele>8.7734375</ele>
      </trkpt>
      <trkpt lat="41.140392674133182" lon="-8.61300959251821">
        <ele>8.765625</ele>
      </trkpt>
      <trkpt lat="41.140259820967913" lon="-8.61443392932415">
        <ele>11.57421875</ele>
      </trkpt>
      <trkpt lat="41.140414467081428" lon="-8.614549180492759">
        <ele>14.37890625</ele>
      </trkpt>
      <trkpt lat="41.140414467081428" lon="-8.614551946520805">
        <ele>14.3828125</ele>
      </trkpt>
      <trkpt lat="41.140365600585938" lon="-8.614657055586576">
        <ele>13.66015625</ele>
      </trkpt>
      <trkpt lat="41.140345903113484" lon="-8.614710951223969">
        <ele>13.375</ele>
      </trkpt>
      <trkpt lat="41.140329474583268" lon="-8.614763841032982">
        <ele>13.1640625</ele>
      </trkpt>
      <trkpt lat="41.140314638614655" lon="-8.614822346717119">
        <ele>13.0703125</ele>
      </trkpt>
      <trkpt lat="41.140299551188946" lon="-8.614872386679053">
        <ele>12.9453125</ele>
      </trkpt>
      <trkpt lat="41.140286391600966" lon="-8.614923851564527">
        <ele>12.85546875</ele>
      </trkpt>
      <trkpt lat="41.140273567289114" lon="-8.61497581936419">
        <ele>12.76953125</ele>
      </trkpt>
      <trkpt lat="41.14026409573853" lon="-8.615026110783219">
        <ele>12.7421875</ele>
      </trkpt>
      <trkpt lat="41.140255546197295" lon="-8.61508771777153">
        <ele>12.76171875</ele>
      </trkpt>
      <trkpt lat="41.140251187607646" lon="-8.615141278132796">
        <ele>12.83203125</ele>
      </trkpt>
      <trkpt lat="41.140248170122504" lon="-8.615195173770189">
        <ele>12.9296875</ele>
      </trkpt>
      <trkpt lat="41.140248253941536" lon="-8.615239094942808">
        <ele>13.05859375</ele>
      </trkpt>
      <trkpt lat="41.140256132930517" lon="-8.615389382466674">
        <ele>13.63671875</ele>
      </trkpt>
      <trkpt lat="41.140256132930517" lon="-8.615388376638293">
        <ele>13.6328125</ele>
      </trkpt>
      <trkpt lat="41.14030173048377" lon="-8.615640755742788">
        <ele>14.7578125</ele>
      </trkpt>
      <trkpt lat="41.140302401036024" lon="-8.615640755742788">
        <ele>14.76953125</ele>
      </trkpt>
      <trkpt lat="41.140151778236032" lon="-8.615696663036942">
        <ele>11.546875</ele>
      </trkpt>
      <trkpt lat="41.140199555084109" lon="-8.615956250578165">
        <ele>11.015625</ele>
      </trkpt>
      <trkpt lat="41.14024892449379" lon="-8.616103855893016">
        <ele>11.16796875</ele>
      </trkpt>
      <trkpt lat="41.14024892449379" lon="-8.616103939712048">
        <ele>11.16796875</ele>
      </trkpt>
      <trkpt lat="41.140343220904469" lon="-8.616336369886994">
        <ele>11.79296875</ele>
      </trkpt>
      <trkpt lat="41.140343220904469" lon="-8.616335447877645">
        <ele>11.796875</ele>
      </trkpt>
      <trkpt lat="41.140421759337187" lon="-8.616441898047924">
        <ele>12.79296875</ele>
      </trkpt>
      <trkpt lat="41.140596605837345" lon="-8.616811456158757">
        <ele>13.3203125</ele>
      </trkpt>
      <trkpt lat="41.140870777890086" lon="-8.617437835782766">
        <ele>12.09765625</ele>
      </trkpt>
      <trkpt lat="41.140870777890086" lon="-8.617438757792115">
        <ele>12.0859375</ele>
      </trkpt>
      <trkpt lat="41.141451811417937" lon="-8.618697300553322">
        <ele>10.6953125</ele>
      </trkpt>
      <trkpt lat="41.141451811417937" lon="-8.618697300553322">
        <ele>10.6953125</ele>
      </trkpt>
      <trkpt lat="41.142149353399873" lon="-8.619772447273135">
        <ele>9.48828125</ele>
      </trkpt>
      <trkpt lat="41.142581105232239" lon="-8.620445933192968">
        <ele>9.1328125</ele>
      </trkpt>
      <trkpt lat="41.142581105232239" lon="-8.620446017012">
        <ele>9.1328125</ele>
      </trkpt>
      <trkpt lat="41.142870029434562" lon="-8.620730917900801">
        <ele>8.19140625</ele>
      </trkpt>
      <trkpt lat="41.142870029434562" lon="-8.620729995891452">
        <ele>8.1953125</ele>
      </trkpt>
      <trkpt lat="41.143015874549747" lon="-8.620902746915817">
        <ele>8.39453125</ele>
      </trkpt>
      <trkpt lat="41.143148811534047" lon="-8.621079856529832">
        <ele>8.95703125</ele>
      </trkpt>
      <trkpt lat="41.143285101279616" lon="-8.621228216215968">
        <ele>10.09375</ele>
      </trkpt>
      <trkpt lat="41.143306894227862" lon="-8.621273897588253">
        <ele>10.4921875</ele>
      </trkpt>
      <trkpt lat="41.143331956118345" lon="-8.621323015540838">
        <ele>10.9453125</ele>
      </trkpt>
      <trkpt lat="41.143355257809162" lon="-8.62136559560895">
        <ele>11.35546875</ele>
      </trkpt>
      <trkpt lat="41.143378056585789" lon="-8.621413875371218">
        <ele>11.765625</ele>
      </trkpt>
      <trkpt lat="41.143405381590128" lon="-8.621466178447008">
        <ele>12.1796875</ele>
      </trkpt>
      <trkpt lat="41.14342943765223" lon="-8.621515380218625">
        <ele>12.51953125</ele>
      </trkpt>
      <trkpt lat="41.143454499542713" lon="-8.621554020792246">
        <ele>12.85546875</ele>
      </trkpt>
      <trkpt lat="41.143480315804482" lon="-8.621590146794915">
        <ele>13.1875</ele>
      </trkpt>
      <trkpt lat="41.143511580303311" lon="-8.621626859530807">
        <ele>13.57421875</ele>
      </trkpt>
      <trkpt lat="41.143539324402809" lon="-8.62166122533381">
        <ele>13.89453125</ele>
      </trkpt>
      <trkpt lat="41.143562793731689" lon="-8.621706906706095">
        <ele>14.1171875</ele>
      </trkpt>
      <trkpt lat="41.143587604165077" lon="-8.621746469289064">
        <ele>14.3515625</ele>
      </trkpt>
      <trkpt lat="41.143608223646879" lon="-8.621794581413269">
        <ele>14.49609375</ele>
      </trkpt>
      <trkpt lat="41.143624819815159" lon="-8.621840430423617">
        <ele>14.578125</ele>
      </trkpt>
      <trkpt lat="41.143644684925675" lon="-8.621893655508757">
        <ele>14.6640625</ele>
      </trkpt>
      <trkpt lat="41.143667651340365" lon="-8.6219431925565">
        <ele>14.76953125</ele>
      </trkpt>
      <trkpt lat="41.143689444288611" lon="-8.621993567794561">
        <ele>14.8359375</ele>
      </trkpt>
      <trkpt lat="41.143718780949712" lon="-8.62204821780324">
        <ele>14.9375</ele>
      </trkpt>
      <trkpt lat="41.143746692687273" lon="-8.622100772336125">
        <ele>15.00390625</ele>
      </trkpt>
      <trkpt lat="41.143766893073916" lon="-8.622143603861332">
        <ele>15.01171875</ele>
      </trkpt>
      <trkpt lat="41.143787009641528" lon="-8.62219238653779">
        <ele>14.98046875</ele>
      </trkpt>
      <trkpt lat="41.14380419254303" lon="-8.622243097051978">
        <ele>14.8984375</ele>
      </trkpt>
      <trkpt lat="41.143819531425834" lon="-8.622292298823595">
        <ele>14.68359375</ele>
      </trkpt>
      <trkpt lat="41.143837636336684" lon="-8.622345020994544">
        <ele>14.4609375</ele>
      </trkpt>
      <trkpt lat="41.143853897228837" lon="-8.622392127290368">
        <ele>14.265625</ele>
      </trkpt>
      <trkpt lat="41.143871666863561" lon="-8.622451722621918">
        <ele>14.00390625</ele>
      </trkpt>
      <trkpt lat="41.14388776011765" lon="-8.622498158365488">
        <ele>13.82421875</ele>
      </trkpt>
      <trkpt lat="41.143903099000454" lon="-8.622546857222915">
        <ele>13.625</ele>
      </trkpt>
      <trkpt lat="41.143915001302958" lon="-8.622600166127086">
        <ele>13.37109375</ele>
      </trkpt>
      <trkpt lat="41.143919778987765" lon="-8.622619863599539">
        <ele>13.28515625</ele>
      </trkpt>
      <trkpt lat="41.144161010161042" lon="-8.623383119702339">
        <ele>12.9921875</ele>
      </trkpt>
      <trkpt lat="41.144161596894264" lon="-8.623383119702339">
        <ele>13.0078125</ele>
      </trkpt>
      <trkpt lat="41.14461874589324" lon="-8.624627161771059">
        <ele>14.40625</ele>
      </trkpt>
      <trkpt lat="41.144720669835806" lon="-8.625183301046491">
        <ele>14.42578125</ele>
      </trkpt>
      <trkpt lat="41.144733326509595" lon="-8.625322775915265">
        <ele>14.421875</ele>
      </trkpt>
      <trkpt lat="41.14474288187921" lon="-8.625481277704239">
        <ele>14.3359375</ele>
      </trkpt>
      <trkpt lat="41.144745396450162" lon="-8.625633409246802">
        <ele>14.26953125</ele>
      </trkpt>
      <trkpt lat="41.144750341773033" lon="-8.625805322080851">
        <ele>14.53125</ele>
      </trkpt>
      <trkpt lat="41.144743468612432" lon="-8.625951837748289">
        <ele>14.52734375</ele>
      </trkpt>
      <trkpt lat="41.144733913242817" lon="-8.626118805259466">
        <ele>14.48046875</ele>
      </trkpt>
      <trkpt lat="41.144726285710931" lon="-8.626287868246436">
        <ele>14.46875</ele>
      </trkpt>
      <trkpt lat="41.144714802503586" lon="-8.6264434363693">
        <ele>14.390625</ele>
      </trkpt>
      <trkpt lat="41.14470424130559" lon="-8.626597244292498">
        <ele>14.4296875</ele>
      </trkpt>
      <trkpt lat="41.144690494984388" lon="-8.626751890406013">
        <ele>14.390625</ele>
      </trkpt>
      <trkpt lat="41.144682783633471" lon="-8.626915756613016">
        <ele>14.4921875</ele>
      </trkpt>
      <trkpt lat="41.144673228263855" lon="-8.627058751881123">
        <ele>14.51171875</ele>
      </trkpt>
      <trkpt lat="41.144666019827127" lon="-8.627230413258076">
        <ele>14.62109375</ele>
      </trkpt>
      <trkpt lat="41.144658979028463" lon="-8.627401990815997">
        <ele>13.578125</ele>
      </trkpt>
      <trkpt lat="41.144651938229799" lon="-8.627559402957559">
        <ele>12.5390625</ele>
      </trkpt>
      <trkpt lat="41.144647244364023" lon="-8.627706170082092">
        <ele>11.62890625</ele>
      </trkpt>
      <trkpt lat="41.144642466679215" lon="-8.627878082916141">
        <ele>10.58984375</ele>
      </trkpt>
      <trkpt lat="41.144637772813439" lon="-8.62803976982832">
        <ele>9.625</ele>
      </trkpt>
      <trkpt lat="41.14463534206152" lon="-8.628192404285073">
        <ele>8.48828125</ele>
      </trkpt>
      <trkpt lat="41.144637940451503" lon="-8.628345374017954">
        <ele>7.3359375</ele>
      </trkpt>
      <trkpt lat="41.144648417830467" lon="-8.628520304337144">
        <ele>6.0703125</ele>
      </trkpt>
      <trkpt lat="41.144665516912937" lon="-8.628667071461678">
        <ele>5.02734375</ele>
      </trkpt>
      <trkpt lat="41.144699715077877" lon="-8.628801517188549">
        <ele>4.1015625</ele>
      </trkpt>
      <trkpt lat="41.144730979576707" lon="-8.628939231857657">
        <ele>3.19921875</ele>
      </trkpt>
      <trkpt lat="41.144762495532632" lon="-8.629093710333109">
        <ele>2.86328125</ele>
      </trkpt>
      <trkpt lat="41.144798286259174" lon="-8.629232849925756">
        <ele>2.54296875</ele>
      </trkpt>
      <trkpt lat="41.144835166633129" lon="-8.629381963983178">
        <ele>2.1484375</ele>
      </trkpt>
      <trkpt lat="41.144895683974028" lon="-8.629511632025242">
        <ele>1.79296875</ele>
      </trkpt>
      <trkpt lat="41.144955949857831" lon="-8.629640880972147">
        <ele>1.8125</ele>
      </trkpt>
      <trkpt lat="41.14501646719873" lon="-8.629778176546097">
        <ele>2.421875</ele>
      </trkpt>
      <trkpt lat="41.145073380321264" lon="-8.629912035539746">
        <ele>3.2578125</ele>
      </trkpt>
      <trkpt lat="41.145134316757321" lon="-8.630056120455265">
        <ele>4.0546875</ele>
      </trkpt>
      <trkpt lat="41.145189050585032" lon="-8.630182016640902">
        <ele>4.6875</ele>
      </trkpt>
      <trkpt lat="41.145253507420421" lon="-8.630317132920027">
        <ele>5.35546875</ele>
      </trkpt>
      <trkpt lat="41.145317377522588" lon="-8.630450572818518">
        <ele>5.91796875</ele>
      </trkpt>
      <trkpt lat="41.145384768024087" lon="-8.63057135604322">
        <ele>6.4609375</ele>
      </trkpt>
      <trkpt lat="41.145477723330259" lon="-8.630707142874599">
        <ele>6.8359375</ele>
      </trkpt>
      <trkpt lat="41.145554920658469" lon="-8.630823148414493">
        <ele>6.9296875</ele>
      </trkpt>
      <trkpt lat="41.145633710548282" lon="-8.630934460088611">
        <ele>6.890625</ele>
      </trkpt>
      <trkpt lat="41.145721385255456" lon="-8.631020961329341">
        <ele>6.93359375</ele>
      </trkpt>
      <trkpt lat="41.145801348611712" lon="-8.631116934120655">
        <ele>6.671875</ele>
      </trkpt>
      <trkpt lat="41.145861111581326" lon="-8.631221204996109">
        <ele>6.15234375</ele>
      </trkpt>
      <trkpt lat="41.146379699930549" lon="-8.63197666592896">
        <ele>4.1328125</ele>
      </trkpt>
      <trkpt lat="41.14672520197928" lon="-8.632631711661816">
        <ele>3.2265625</ele>
      </trkpt>
      <trkpt lat="41.146802064031363" lon="-8.632743023335934">
        <ele>3.62109375</ele>
      </trkpt>
      <trkpt lat="41.146866520866752" lon="-8.632856011390686">
        <ele>3.87890625</ele>
      </trkpt>
      <trkpt lat="41.146930558606982" lon="-8.632986349985003">
        <ele>4.05859375</ele>
      </trkpt>
      <trkpt lat="41.146994344890118" lon="-8.633098248392344">
        <ele>4.31640625</ele>
      </trkpt>
      <trkpt lat="41.147059556096792" lon="-8.633225820958614">
        <ele>4.6875</ele>
      </trkpt>
      <trkpt lat="41.147124515846372" lon="-8.63335020840168">
        <ele>5.015625</ele>
      </trkpt>
      <trkpt lat="41.14719576202333" lon="-8.633460681885481">
        <ele>5.3671875</ele>
      </trkpt>
      <trkpt lat="41.147217638790607" lon="-8.633508291095495">
        <ele>5.44140625</ele>
      </trkpt>
      <trkpt lat="41.147472113370895" lon="-8.633925626054406">
        <ele>6.6796875</ele>
      </trkpt>
      <trkpt lat="41.147535815834999" lon="-8.634088486433029">
        <ele>7.07421875</ele>
      </trkpt>
      <trkpt lat="41.147587867453694" lon="-8.634239612147212">
        <ele>7.33203125</ele>
      </trkpt>
      <trkpt lat="41.147641008719802" lon="-8.63438026048243">
        <ele>7.68359375</ele>
      </trkpt>
      <trkpt lat="41.147691635414958" lon="-8.634518645703793">
        <ele>8.015625</ele>
      </trkpt>
      <trkpt lat="41.147741004824638" lon="-8.634666837751865">
        <ele>8.3046875</ele>
      </trkpt>
      <trkpt lat="41.147782411426306" lon="-8.634811257943511">
        <ele>8.58984375</ele>
      </trkpt>
      <trkpt lat="41.147809904068708" lon="-8.634953666478395">
        <ele>8.703125</ele>
      </trkpt>
      <trkpt lat="41.147849131375551" lon="-8.635115353390574">
        <ele>8.93359375</ele>
      </trkpt>
      <trkpt lat="41.147884922102094" lon="-8.635261785238981">
        <ele>9.09765625</ele>
      </trkpt>
      <trkpt lat="41.147916689515114" lon="-8.635399919003248">
        <ele>9.1796875</ele>
      </trkpt>
      <trkpt lat="41.14795851521194" lon="-8.635550877079368">
        <ele>9.3359375</ele>
      </trkpt>
      <trkpt lat="41.148000592365861" lon="-8.635696889832616">
        <ele>9.5078125</ele>
      </trkpt>
      <trkpt lat="41.148036969825625" lon="-8.635840471833944">
        <ele>9.546875</ele>
      </trkpt>
      <trkpt lat="41.148079382255673" lon="-8.635995956137776">
        <ele>9.55859375</ele>
      </trkpt>
      <trkpt lat="41.148117939010262" lon="-8.636147333309054">
        <ele>9.46484375</ele>
      </trkpt>
      <trkpt lat="41.148146269842982" lon="-8.636309690773487">
        <ele>9.140625</ele>
      </trkpt>
      <trkpt lat="41.148174433037639" lon="-8.636462660506368">
        <ele>9.0546875</ele>
      </trkpt>
      <trkpt lat="41.148201674222946" lon="-8.636629963293672">
        <ele>9.34765625</ele>
      </trkpt>
      <trkpt lat="41.148226652294397" lon="-8.636802714318037">
        <ele>9.6171875</ele>
      </trkpt>
      <trkpt lat="41.148245427757502" lon="-8.636960126459599">
        <ele>9.8203125</ele>
      </trkpt>
      <trkpt lat="41.148259090259671" lon="-8.63712340593338">
        <ele>9.96875</ele>
      </trkpt>
      <trkpt lat="41.148276776075363" lon="-8.637284003198147">
        <ele>10.44140625</ele>
      </trkpt>
      <trkpt lat="41.148290522396564" lon="-8.637472679838538">
        <ele>10.703125</ele>
      </trkpt>
      <trkpt lat="41.148297060281038" lon="-8.637621374800801">
        <ele>10.77734375</ele>
      </trkpt>
      <trkpt lat="41.148299323394895" lon="-8.637775182723999">
        <ele>10.6953125</ele>
      </trkpt>
      <trkpt lat="41.148299323394895" lon="-8.637936869636178">
        <ele>10.52734375</ele>
      </trkpt>
      <trkpt lat="41.148305274546146" lon="-8.638085061684251">
        <ele>10.5078125</ele>
      </trkpt>
      <trkpt lat="41.148313488811255" lon="-8.638232415542006">
        <ele>9.80859375</ele>
      </trkpt>
      <trkpt lat="41.148320864886045" lon="-8.638385552912951">
        <ele>9.05078125</ele>
      </trkpt>
      <trkpt lat="41.148337377235293" lon="-8.638538187369704">
        <ele>8.6875</ele>
      </trkpt>
      <trkpt lat="41.148353638127446" lon="-8.638685960322618">
        <ele>8.3828125</ele>
      </trkpt>
      <trkpt lat="41.148370485752821" lon="-8.638832475990057">
        <ele>8.140625</ele>
      </trkpt>
      <trkpt lat="41.148387417197227" lon="-8.638988882303238">
        <ele>8.23046875</ele>
      </trkpt>
      <trkpt lat="41.148405019193888" lon="-8.639165069907904">
        <ele>8.60546875</ele>
      </trkpt>
      <trkpt lat="41.148421196267009" lon="-8.639328936114907">
        <ele>8.95703125</ele>
      </trkpt>
      <trkpt lat="41.148435026407242" lon="-8.639472266659141">
        <ele>9.25390625</ele>
      </trkpt>
      <trkpt lat="41.148446341976523" lon="-8.63961542956531">
        <ele>9.4453125</ele>
      </trkpt>
      <trkpt lat="41.148453382775187" lon="-8.639767477288842">
        <ele>9.6953125</ele>
      </trkpt>
      <trkpt lat="41.148453718051314" lon="-8.639923129230738">
        <ele>10.66015625</ele>
      </trkpt>
      <trkpt lat="41.148449694737792" lon="-8.640070986002684">
        <ele>11.390625</ele>
      </trkpt>
      <trkpt lat="41.148439636453986" lon="-8.640218256041408">
        <ele>11.87109375</ele>
      </trkpt>
      <trkpt lat="41.148420022800565" lon="-8.640366783365607">
        <ele>11.9921875</ele>
      </trkpt>
      <trkpt lat="41.148389764130116" lon="-8.640529392287135">
        <ele>11.80859375</ele>
      </trkpt>
      <trkpt lat="41.148357326164842" lon="-8.64067180082202">
        <ele>11.19140625</ele>
      </trkpt>
      <trkpt lat="41.148313991725445" lon="-8.640805995091796">
        <ele>9.96875</ele>
      </trkpt>
      <trkpt lat="41.148272752761841" lon="-8.640947816893458">
        <ele>8.80859375</ele>
      </trkpt>
      <trkpt lat="41.148224724456668" lon="-8.641089638695121">
        <ele>8.5390625</ele>
      </trkpt>
      <trkpt lat="41.148184994235635" lon="-8.641239004209638">
        <ele>8.65625</ele>
      </trkpt>
      <trkpt lat="41.148155657574534" lon="-8.641382586210966">
        <ele>8.79296875</ele>
      </trkpt>
      <trkpt lat="41.148128751665354" lon="-8.641526168212295">
        <ele>9.1875</ele>
      </trkpt>
      <trkpt lat="41.148104863241315" lon="-8.641672600060701">
        <ele>9.62109375</ele>
      </trkpt>
      <trkpt lat="41.148084746673703" lon="-8.641831772401929">
        <ele>10.1171875</ele>
      </trkpt>
      <trkpt lat="41.148066893219948" lon="-8.64199111238122">
        <ele>10.6015625</ele>
      </trkpt>
      <trkpt lat="41.148051554337144" lon="-8.64213771186769">
        <ele>11.02734375</ele>
      </trkpt>
      <trkpt lat="41.148046776652336" lon="-8.642304679378867">
        <ele>11.4453125</ele>
      </trkpt>
      <trkpt lat="41.148037137463689" lon="-8.642482459545135">
        <ele>11.4375</ele>
      </trkpt>
      <trkpt lat="41.14803034812212" lon="-8.642626544460654">
        <ele>11.4453125</ele>
      </trkpt>
      <trkpt lat="41.148034203797579" lon="-8.642653618007898">
        <ele>11.53515625</ele>
      </trkpt>
      <trkpt lat="41.148045854642987" lon="-8.643028037622571">
        <ele>12.0703125</ele>
      </trkpt>
      <trkpt lat="41.148042250424623" lon="-8.64318436011672">
        <ele>11.8359375</ele>
      </trkpt>
      <trkpt lat="41.148042250424623" lon="-8.64333825185895">
        <ele>11.5625</ele>
      </trkpt>
      <trkpt lat="41.148047195747495" lon="-8.643486192449927">
        <ele>11.3828125</ele>
      </trkpt>
      <trkpt lat="41.14805918186903" lon="-8.643648801371455">
        <ele>11.2890625</ele>
      </trkpt>
      <trkpt lat="41.148076197132468" lon="-8.643816355615854">
        <ele>11.25390625</ele>
      </trkpt>
      <trkpt lat="41.14809287711978" lon="-8.643958512693644">
        <ele>11.0234375</ele>
      </trkpt>
      <trkpt lat="41.148114586248994" lon="-8.644109973683953">
        <ele>10.453125</ele>
      </trkpt>
      <trkpt lat="41.148131685331464" lon="-8.64426176995039">
        <ele>9.765625</ele>
      </trkpt>
      <trkpt lat="41.148151466622949" lon="-8.644423456862569">
        <ele>9.00390625</ele>
      </trkpt>
      <trkpt lat="41.14817158319056" lon="-8.644565781578422">
        <ele>8.3125</ele>
      </trkpt>
      <trkpt lat="41.148191029205918" lon="-8.644717242568731">
        <ele>7.5078125</ele>
      </trkpt>
      <trkpt lat="41.148210810497403" lon="-8.644879600033164">
        <ele>6.90625</ele>
      </trkpt>
      <trkpt lat="41.148235872387886" lon="-8.645022930577397">
        <ele>6.4296875</ele>
      </trkpt>
      <trkpt lat="41.14825707860291" lon="-8.645165087655187">
        <ele>5.89453125</ele>
      </trkpt>
      <trkpt lat="41.148283649235964" lon="-8.645316548645496">
        <ele>5.9921875</ele>
      </trkpt>
      <trkpt lat="41.148310722783208" lon="-8.645478235557675">
        <ele>6.11328125</ele>
      </trkpt>
      <trkpt lat="41.148332599550486" lon="-8.645629612728953">
        <ele>6.19140625</ele>
      </trkpt>
      <trkpt lat="41.148354057222605" lon="-8.645776128396392">
        <ele>6.39453125</ele>
      </trkpt>
      <trkpt lat="41.148378197103739" lon="-8.645958937704563">
        <ele>6.37890625</ele>
      </trkpt>
      <trkpt lat="41.148398229852319" lon="-8.646129509434104">
        <ele>6.12890625</ele>
      </trkpt>
      <trkpt lat="41.148415496572852" lon="-8.64627099595964">
        <ele>5.81640625</ele>
      </trkpt>
      <trkpt lat="41.148426225408912" lon="-8.646416254341602">
        <ele>5.33984375</ele>
      </trkpt>
      <trkpt lat="41.148432763293386" lon="-8.646561847999692">
        <ele>5.21875</ele>
      </trkpt>
      <trkpt lat="41.148442821577191" lon="-8.646710375323892">
        <ele>5.1171875</ele>
      </trkpt>
      <trkpt lat="41.14844080992043" lon="-8.646856304258108">
        <ele>4.8671875</ele>
      </trkpt>
      <trkpt lat="41.148436367511749" lon="-8.647018661722541">
        <ele>4.578125</ele>
      </trkpt>
      <trkpt lat="41.148417424410582" lon="-8.64717498421669">
        <ele>4.1953125</ele>
      </trkpt>
      <trkpt lat="41.148402253165841" lon="-8.647316806018353">
        <ele>4.3359375</ele>
      </trkpt>
      <trkpt lat="41.14838071167469" lon="-8.647470278665423">
        <ele>4.7578125</ele>
      </trkpt>
      <trkpt lat="41.14836017601192" lon="-8.647628528997302">
        <ele>5.1953125</ele>
      </trkpt>
      <trkpt lat="41.14833771251142" lon="-8.647790886461735">
        <ele>5.62109375</ele>
      </trkpt>
      <trkpt lat="41.148309716954827" lon="-8.64794846624136">
        <ele>5.9765625</ele>
      </trkpt>
      <trkpt lat="41.148278368636966" lon="-8.648094730451703">
        <ele>6.28515625</ele>
      </trkpt>
      <trkpt lat="41.148236040025949" lon="-8.64824459888041">
        <ele>6.65234375</ele>
      </trkpt>
      <trkpt lat="41.148199075832963" lon="-8.648386420682073">
        <ele>6.9765625</ele>
      </trkpt>
      <trkpt lat="41.148157920688391" lon="-8.64852455444634">
        <ele>7.18359375</ele>
      </trkpt>
      <trkpt lat="41.148118190467358" lon="-8.648657742887735">
        <ele>7.32421875</ele>
      </trkpt>
      <trkpt lat="41.148074520751834" lon="-8.64880308508873">
        <ele>7.3984375</ele>
      </trkpt>
      <trkpt lat="41.148019786924124" lon="-8.648949600756168">
        <ele>7.2265625</ele>
      </trkpt>
      <trkpt lat="41.14798148162663" lon="-8.64909578114748">
        <ele>7.10546875</ele>
      </trkpt>
      <trkpt lat="41.147949378937483" lon="-8.649246068671346">
        <ele>7.03125</ele>
      </trkpt>
      <trkpt lat="41.147918365895748" lon="-8.649384202435613">
        <ele>6.90625</ele>
      </trkpt>
      <trkpt lat="41.147893639281392" lon="-8.649551756680012">
        <ele>6.890625</ele>
      </trkpt>
      <trkpt lat="41.147876791656017" lon="-8.649705313146114">
        <ele>6.9375</ele>
      </trkpt>
      <trkpt lat="41.147876959294081" lon="-8.649853589013219">
        <ele>6.91015625</ele>
      </trkpt>
      <trkpt lat="41.147890035063028" lon="-8.650001026690006">
        <ele>7.01171875</ele>
      </trkpt>
      <trkpt lat="41.147901518270373" lon="-8.650159277021885">
        <ele>7.08203125</ele>
      </trkpt>
      <trkpt lat="41.147918114438653" lon="-8.650312246754766">
        <ele>7.22265625</ele>
      </trkpt>
      <trkpt lat="41.14792725071311" lon="-8.65046052262187">
        <ele>7.25</ele>
      </trkpt>
      <trkpt lat="41.147944433614612" lon="-8.65060712210834">
        <ele>7.29296875</ele>
      </trkpt>
      <trkpt lat="41.147959940135479" lon="-8.650750620290637">
        <ele>7.0703125</ele>
      </trkpt>
      <trkpt lat="41.147975530475378" lon="-8.650897890329361">
        <ele>6.81640625</ele>
      </trkpt>
      <trkpt lat="41.147994892671704" lon="-8.651044070720673">
        <ele>6.58203125</ele>
      </trkpt>
      <trkpt lat="41.148022972047329" lon="-8.651234759017825">
        <ele>6.25390625</ele>
      </trkpt>
      <trkpt lat="41.148045854642987" lon="-8.651382699608803">
        <ele>5.96875</ele>
      </trkpt>
      <trkpt lat="41.14806454628706" lon="-8.651549331843853">
        <ele>5.8203125</ele>
      </trkpt>
      <trkpt lat="41.148092793300748" lon="-8.651711018756032">
        <ele>5.76953125</ele>
      </trkpt>
      <trkpt lat="41.148114586248994" lon="-8.651863150298595">
        <ele>5.66015625</ele>
      </trkpt>
      <trkpt lat="41.148134702816606" lon="-8.65201385691762">
        <ele>5.51953125</ele>
      </trkpt>
      <trkpt lat="41.148158255964518" lon="-8.65218048915267">
        <ele>5.3515625</ele>
      </trkpt>
      <trkpt lat="41.148181306198239" lon="-8.652349133044481">
        <ele>5.15625</ele>
      </trkpt>
      <trkpt lat="41.148192789405584" lon="-8.652492547407746">
        <ele>4.91796875</ele>
      </trkpt>
      <trkpt lat="41.148209134116769" lon="-8.652644930407405">
        <ele>4.68359375</ele>
      </trkpt>
      <trkpt lat="41.148220952600241" lon="-8.65278834477067">
        <ele>4.42578125</ele>
      </trkpt>
      <trkpt lat="41.148224892094731" lon="-8.652931423857808">
        <ele>4.12109375</ele>
      </trkpt>
      <trkpt lat="41.14821357652545" lon="-8.653075844049454">
        <ele>3.80078125</ele>
      </trkpt>
      <trkpt lat="41.148191783577204" lon="-8.653217582032084">
        <ele>4.0078125</ele>
      </trkpt>
      <trkpt lat="41.148159932345152" lon="-8.653353955596685">
        <ele>4.125</ele>
      </trkpt>
      <trkpt lat="41.14815297536552" lon="-8.653376251459122">
        <ele>4.1328125</ele>
      </trkpt>
      <trkpt lat="41.147627346217632" lon="-8.655068976804614">
        <ele>5.25</ele>
      </trkpt>
      <trkpt lat="41.146974982693791" lon="-8.657199321314692">
        <ele>5.3984375</ele>
      </trkpt>
      <trkpt lat="41.146973809227347" lon="-8.657198399305344">
        <ele>5.37890625</ele>
      </trkpt>
      <trkpt lat="41.146793095394969" lon="-8.657620176672935">
        <ele>3.05859375</ele>
      </trkpt>
      <trkpt lat="41.146778846159577" lon="-8.657681364566088">
        <ele>2.87109375</ele>
      </trkpt>
      <trkpt lat="41.146767195314169" lon="-8.657735511660576">
        <ele>2.7109375</ele>
      </trkpt>
      <trkpt lat="41.146752862259746" lon="-8.657802399247885">
        <ele>2.515625</ele>
      </trkpt>
      <trkpt lat="41.146737104281783" lon="-8.657888984307647">
        <ele>2.296875</ele>
      </trkpt>
      <trkpt lat="41.146730482578278" lon="-8.657940616831183">
        <ele>2.2109375</ele>
      </trkpt>
      <trkpt lat="41.146726626902819" lon="-8.657998451963067">
        <ele>2.16796875</ele>
      </trkpt>
      <trkpt lat="41.146724782884121" lon="-8.65806165151298">
        <ele>2.1640625</ele>
      </trkpt>
      <trkpt lat="41.146723022684455" lon="-8.658118899911642">
        <ele>2.203125</ele>
      </trkpt>
      <trkpt lat="41.146722184494138" lon="-8.658186122775078">
        <ele>2.26953125</ele>
      </trkpt>
      <trkpt lat="41.146719418466091" lon="-8.65824731066823">
        <ele>2.296875</ele>
      </trkpt>
      <trkpt lat="41.146717574447393" lon="-8.658310510218143">
        <ele>2.33984375</ele>
      </trkpt>
      <trkpt lat="41.146716568619013" lon="-8.658370608463883">
        <ele>2.39453125</ele>
      </trkpt>
      <trkpt lat="41.146716568619013" lon="-8.658443782478571">
        <ele>2.484375</ele>
      </trkpt>
      <trkpt lat="41.146716568619013" lon="-8.658501449972391">
        <ele>2.5546875</ele>
      </trkpt>
      <trkpt lat="41.146719334647059" lon="-8.658562721684575">
        <ele>2.671875</ele>
      </trkpt>
      <trkpt lat="41.146722184494138" lon="-8.658620221540332">
        <ele>2.7890625</ele>
      </trkpt>
      <trkpt lat="41.146724950522184" lon="-8.658672021701932">
        <ele>2.8984375</ele>
      </trkpt>
      <trkpt lat="41.146728219464421" lon="-8.658722396939993">
        <ele>3.015625</ele>
      </trkpt>
      <trkpt lat="41.146733164787292" lon="-8.658776711672544">
        <ele>3.1640625</ele>
      </trkpt>
      <trkpt lat="41.146736685186625" lon="-8.658828428015113">
        <ele>3.28515625</ele>
      </trkpt>
      <trkpt lat="41.146739032119513" lon="-8.65888299420476">
        <ele>3.390625</ele>
      </trkpt>
      <trkpt lat="41.14674330689013" lon="-8.658938147127628">
        <ele>3.4140625</ele>
      </trkpt>
      <trkpt lat="41.146744061261415" lon="-8.658950133249164">
        <ele>3.41015625</ele>
      </trkpt>
      <trkpt lat="41.146807344630361" lon="-8.659563353285193">
        <ele>3.73828125</ele>
      </trkpt>
      <trkpt lat="41.146807344630361" lon="-8.659616075456142">
        <ele>3.67578125</ele>
      </trkpt>
      <trkpt lat="41.14681120030582" lon="-8.659688998013735">
        <ele>3.65234375</ele>
      </trkpt>
      <trkpt lat="41.146816313266754" lon="-8.659751275554299">
        <ele>3.6640625</ele>
      </trkpt>
      <trkpt lat="41.146820336580276" lon="-8.659811289981008">
        <ele>3.65234375</ele>
      </trkpt>
      <trkpt lat="41.146827712655067" lon="-8.659876501187682">
        <ele>3.68359375</ele>
      </trkpt>
      <trkpt lat="41.146832574158907" lon="-8.659932324662805">
        <ele>3.6875</ele>
      </trkpt>
      <trkpt lat="41.146835926920176" lon="-8.659986639395356">
        <ele>3.6640625</ele>
      </trkpt>
      <trkpt lat="41.146843638271093" lon="-8.660046402364969">
        <ele>3.6953125</ele>
      </trkpt>
      <trkpt lat="41.146850176155567" lon="-8.660098118707538">
        <ele>3.71875</ele>
      </trkpt>
      <trkpt lat="41.146856630221009" lon="-8.660147739574313">
        <ele>3.73828125</ele>
      </trkpt>
      <trkpt lat="41.146863168105483" lon="-8.660224685445428">
        <ele>3.71484375</ele>
      </trkpt>
      <trkpt lat="41.146869538351893" lon="-8.660306744277477">
        <ele>3.671875</ele>
      </trkpt>
      <trkpt lat="41.146876076236367" lon="-8.660395005717874">
        <ele>3.62109375</ele>
      </trkpt>
      <trkpt lat="41.146879428997636" lon="-8.66045200265944">
        <ele>3.5703125</ele>
      </trkpt>
      <trkpt lat="41.146883033216" lon="-8.660560548305511">
        <ele>3.4375</ele>
      </trkpt>
      <trkpt lat="41.146894432604313" lon="-8.660683678463101">
        <ele>3.4140625</ele>
      </trkpt>
      <trkpt lat="41.146902395412326" lon="-8.660775208845735">
        <ele>3.38671875</ele>
      </trkpt>
      <trkpt lat="41.146907340735197" lon="-8.660851316526532">
        <ele>3.3359375</ele>
      </trkpt>
      <trkpt lat="41.146912621334195" lon="-8.660912085324526">
        <ele>3.3125</ele>
      </trkpt>
      <trkpt lat="41.146921338513494" lon="-8.660981403663754">
        <ele>3.3046875</ele>
      </trkpt>
      <trkpt lat="41.146931396797299" lon="-8.661041837185621">
        <ele>3.3203125</ele>
      </trkpt>
      <trkpt lat="41.14694070070982" lon="-8.661103192716837">
        <ele>3.3203125</ele>
      </trkpt>
      <trkpt lat="41.146952100098133" lon="-8.661170415580273">
        <ele>3.328125</ele>
      </trkpt>
      <trkpt lat="41.146962074562907" lon="-8.661224646493793">
        <ele>3.3359375</ele>
      </trkpt>
      <trkpt lat="41.146972384303808" lon="-8.661291534081101">
        <ele>3.3203125</ele>
      </trkpt>
      <trkpt lat="41.146983280777931" lon="-8.66134325042367">
        <ele>3.328125</ele>
      </trkpt>
      <trkpt lat="41.147000882774591" lon="-8.661432517692447">
        <ele>3.3515625</ele>
      </trkpt>
      <trkpt lat="41.147011024877429" lon="-8.66149228066206">
        <ele>3.36328125</ele>
      </trkpt>
      <trkpt lat="41.147022172808647" lon="-8.661567466333508">
        <ele>3.359375</ele>
      </trkpt>
      <trkpt lat="41.147032985463738" lon="-8.661635611206293">
        <ele>3.359375</ele>
      </trkpt>
      <trkpt lat="41.147046396508813" lon="-8.661708952859044">
        <ele>3.3671875</ele>
      </trkpt>
      <trkpt lat="41.147056790068746" lon="-8.661776008084416">
        <ele>3.35546875</ele>
      </trkpt>
      <trkpt lat="41.147070033475757" lon="-8.661840548738837">
        <ele>3.36328125</ele>
      </trkpt>
      <trkpt lat="41.147076487541199" lon="-8.661912214010954">
        <ele>3.3125</ele>
      </trkpt>
      <trkpt lat="41.147084282711148" lon="-8.661966109648347">
        <ele>3.2890625</ele>
      </trkpt>
      <trkpt lat="41.14709216170013" lon="-8.662018245086074">
        <ele>3.26953125</ele>
      </trkpt>
      <trkpt lat="41.14710439927876" lon="-8.662077002227306">
        <ele>3.26171875</ele>
      </trkpt>
      <trkpt lat="41.1471126973629" lon="-8.662141710519791">
        <ele>3.21875</ele>
      </trkpt>
      <trkpt lat="41.147120743989944" lon="-8.662197953090072">
        <ele>3.18359375</ele>
      </trkpt>
      <trkpt lat="41.147134155035019" lon="-8.662262912839651">
        <ele>3.1328125</ele>
      </trkpt>
      <trkpt lat="41.147150499746203" lon="-8.662327453494072">
        <ele>3.07421875</ele>
      </trkpt>
      <trkpt lat="41.147165838629007" lon="-8.66238939575851">
        <ele>3.0078125</ele>
      </trkpt>
      <trkpt lat="41.14717966876924" lon="-8.662449410185218">
        <ele>2.9296875</ele>
      </trkpt>
      <trkpt lat="41.147195091471076" lon="-8.662498444318771">
        <ele>2.87890625</ele>
      </trkpt>
      <trkpt lat="41.147209089249372" lon="-8.662555022165179">
        <ele>2.796875</ele>
      </trkpt>
      <trkpt lat="41.147227948531508" lon="-8.662619730457664">
        <ele>2.70703125</ele>
      </trkpt>
      <trkpt lat="41.147242616862059" lon="-8.662671195343137">
        <ele>2.625</ele>
      </trkpt>
      <trkpt lat="41.147258626297116" lon="-8.662718804553151">
        <ele>2.5546875</ele>
      </trkpt>
      <trkpt lat="41.147267427295446" lon="-8.662749817594886">
        <ele>2.49609375</ele>
      </trkpt>
      <trkpt lat="41.147409668192267" lon="-8.663214594125748">
        <ele>1.578125</ele>
      </trkpt>
      <trkpt lat="41.147433137521148" lon="-8.663269663229585">
        <ele>1.5546875</ele>
      </trkpt>
      <trkpt lat="41.147455098107457" lon="-8.663320373743773">
        <ele>1.828125</ele>
      </trkpt>
      <trkpt lat="41.14748015999794" lon="-8.663371670991182">
        <ele>2.15625</ele>
      </trkpt>
      <trkpt lat="41.147508239373565" lon="-8.663440654054284">
        <ele>2.49609375</ele>
      </trkpt>
      <trkpt lat="41.147530786693096" lon="-8.663487927988172">
        <ele>2.7890625</ele>
      </trkpt>
      <trkpt lat="41.147553334012628" lon="-8.663533693179488">
        <ele>3.0859375</ele>
      </trkpt>
      <trkpt lat="41.147578563541174" lon="-8.663591276854277">
        <ele>3.40234375</ele>
      </trkpt>
      <trkpt lat="41.14760379306972" lon="-8.663642825558782">
        <ele>3.734375</ele>
      </trkpt>
      <trkpt lat="41.147631201893091" lon="-8.663692697882652">
        <ele>4.10546875</ele>
      </trkpt>
      <trkpt lat="41.147653665393591" lon="-8.663737121969461">
        <ele>4.40625</ele>
      </trkpt>
      <trkpt lat="41.147676883265376" lon="-8.66377810947597">
        <ele>4.72265625</ele>
      </trkpt>
      <trkpt lat="41.147706303745508" lon="-8.663820857182145">
        <ele>5.15234375</ele>
      </trkpt>
      <trkpt lat="41.147735305130482" lon="-8.663869304582477">
        <ele>5.55859375</ele>
      </trkpt>
      <trkpt lat="41.14776061847806" lon="-8.663911130279303">
        <ele>5.9453125</ele>
      </trkpt>
      <trkpt lat="41.14778408780694" lon="-8.663954883813858">
        <ele>6.32421875</ele>
      </trkpt>
      <trkpt lat="41.147805796936154" lon="-8.663997296243906">
        <ele>6.6640625</ele>
      </trkpt>
      <trkpt lat="41.147831780835986" lon="-8.664045827463269">
        <ele>7.06640625</ele>
      </trkpt>
      <trkpt lat="41.147853657603264" lon="-8.664096118882298">
        <ele>7.390625</ele>
      </trkpt>
      <trkpt lat="41.147878719493747" lon="-8.664147332310677">
        <ele>7.76171875</ele>
      </trkpt>
      <trkpt lat="41.147904032841325" lon="-8.664200641214848">
        <ele>8.125</ele>
      </trkpt>
      <trkpt lat="41.147928507998586" lon="-8.664257051423192">
        <ele>8.4609375</ele>
      </trkpt>
      <trkpt lat="41.14794971421361" lon="-8.664299212396145">
        <ele>8.7578125</ele>
      </trkpt>
      <trkpt lat="41.147970501333475" lon="-8.664352018386126">
        <ele>9.0234375</ele>
      </trkpt>
      <trkpt lat="41.147989528253675" lon="-8.664400968700647">
        <ele>9.26171875</ele>
      </trkpt>
      <trkpt lat="41.148005621507764" lon="-8.664448577910662">
        <ele>9.44921875</ele>
      </trkpt>
      <trkpt lat="41.148015931248665" lon="-8.664506999775767">
        <ele>9.51953125</ele>
      </trkpt>
      <trkpt lat="41.148022301495075" lon="-8.664557207375765">
        <ele>9.5390625</ele>
      </trkpt>
      <trkpt lat="41.148021463304758" lon="-8.664617221802473">
        <ele>9.421875</ele>
      </trkpt>
      <trkpt lat="41.148019032552838" lon="-8.664670865982771">
        <ele>9.29296875</ele>
      </trkpt>
      <trkpt lat="41.148009477183223" lon="-8.664722666144371">
        <ele>9.05078125</ele>
      </trkpt>
      <trkpt lat="41.147990198805928" lon="-8.664767928421497">
        <ele>8.60546875</ele>
      </trkpt>
      <trkpt lat="41.147972261533141" lon="-8.664817800745368">
        <ele>8.171875</ele>
      </trkpt>
      <trkpt lat="41.147949965670705" lon="-8.664868092164397">
        <ele>7.6875</ele>
      </trkpt>
      <trkpt lat="41.147932028397918" lon="-8.664921317249537">
        <ele>7.265625</ele>
      </trkpt>
      <trkpt lat="41.147917527705431" lon="-8.664964903146029">
        <ele>6.93359375</ele>
      </trkpt>
      <trkpt lat="41.147799761965871" lon="-8.665387099608779">
        <ele>4.359375</ele>
      </trkpt>
      <trkpt lat="41.147784423083067" lon="-8.665444515645504">
        <ele>4.0625</ele>
      </trkpt>
      <trkpt lat="41.147768162190914" lon="-8.66550587117672">
        <ele>3.7578125</ele>
      </trkpt>
      <trkpt lat="41.14775232039392" lon="-8.665561275556684">
        <ele>3.5234375</ele>
      </trkpt>
      <trkpt lat="41.147732036188245" lon="-8.66563537158072">
        <ele>3.59375</ele>
      </trkpt>
      <trkpt lat="41.147717284038663" lon="-8.665684154257178">
        <ele>3.6328125</ele>
      </trkpt>
      <trkpt lat="41.147699095308781" lon="-8.665746180340648">
        <ele>3.69140625</ele>
      </trkpt>
      <trkpt lat="41.147685013711452" lon="-8.665794627740979">
        <ele>3.74609375</ele>
      </trkpt>
      <trkpt lat="41.147668501362205" lon="-8.665851373225451">
        <ele>3.8125</ele>
      </trkpt>
      <trkpt lat="41.147654838860035" lon="-8.665910633280873">
        <ele>3.921875</ele>
      </trkpt>
      <trkpt lat="41.147638326510787" lon="-8.665961846709251">
        <ele>3.9765625</ele>
      </trkpt>
      <trkpt lat="41.147621059790254" lon="-8.666016329079866">
        <ele>4.0390625</ele>
      </trkpt>
      <trkpt lat="41.147604798898101" lon="-8.666071901097894">
        <ele>4.125</ele>
      </trkpt>
      <trkpt lat="41.147583927959204" lon="-8.666129568591714">
        <ele>4.18359375</ele>
      </trkpt>
      <trkpt lat="41.147561632096767" lon="-8.666187319904566">
        <ele>4.234375</ele>
      </trkpt>
      <trkpt lat="41.147538498044014" lon="-8.666238281875849">
        <ele>4.25390625</ele>
      </trkpt>
      <trkpt lat="41.147521734237671" lon="-8.666285974904895">
        <ele>4.32421875</ele>
      </trkpt>
      <trkpt lat="41.147502288222313" lon="-8.666334338486195">
        <ele>4.375</ele>
      </trkpt>
      <trkpt lat="41.147481668740511" lon="-8.666386222466826">
        <ele>4.44140625</ele>
      </trkpt>
      <trkpt lat="41.147463815286756" lon="-8.666438441723585">
        <ele>4.35546875</ele>
      </trkpt>
      <trkpt lat="41.147447638213634" lon="-8.666485045105219">
        <ele>4.27734375</ele>
      </trkpt>
      <trkpt lat="41.14742056466639" lon="-8.6665412876755">
        <ele>4.14453125</ele>
      </trkpt>
      <trkpt lat="41.147399442270398" lon="-8.666594848036766">
        <ele>4.09765625</ele>
      </trkpt>
      <trkpt lat="41.14738292992115" lon="-8.666640780866146">
        <ele>4.06640625</ele>
      </trkpt>
      <trkpt lat="41.147369435057044" lon="-8.666690066456795">
        <ele>4.05078125</ele>
      </trkpt>
      <trkpt lat="41.147359041497111" lon="-8.666741866618395">
        <ele>4.0546875</ele>
      </trkpt>
      <trkpt lat="41.147352503612638" lon="-8.666802048683167">
        <ele>4.0859375</ele>
      </trkpt>
      <trkpt lat="41.147349234670401" lon="-8.66685695014894">
        <ele>4.125</ele>
      </trkpt>
      <trkpt lat="41.1473457980901" lon="-8.666910929605365">
        <ele>4.16796875</ele>
      </trkpt>
      <trkpt lat="41.147344037890434" lon="-8.666961388662457">
        <ele>4.2109375</ele>
      </trkpt>
      <trkpt lat="41.147344959899783" lon="-8.667021822184324">
        <ele>4.28125</ele>
      </trkpt>
      <trkpt lat="41.147349067032337" lon="-8.667079154402018">
        <ele>4.3671875</ele>
      </trkpt>
      <trkpt lat="41.147352084517479" lon="-8.667133133858442">
        <ele>4.44140625</ele>
      </trkpt>
      <trkpt lat="41.147362478077412" lon="-8.667190717533231">
        <ele>4.56640625</ele>
      </trkpt>
      <trkpt lat="41.147369518876076" lon="-8.667240422219038">
        <ele>4.59375</ele>
      </trkpt>
      <trkpt lat="41.147379325702786" lon="-8.667295658960938">
        <ele>4.52734375</ele>
      </trkpt>
      <trkpt lat="41.147392233833671" lon="-8.667352236807346">
        <ele>4.47265625</ele>
      </trkpt>
      <trkpt lat="41.147403884679079" lon="-8.667403534054756">
        <ele>4.41796875</ele>
      </trkpt>
      <trkpt lat="41.147416708990932" lon="-8.667456591501832">
        <ele>4.36328125</ele>
      </trkpt>
      <trkpt lat="41.147424839437008" lon="-8.66751316934824">
        <ele>4.26953125</ele>
      </trkpt>
      <trkpt lat="41.147434646263719" lon="-8.667567148804665">
        <ele>4.21875</ele>
      </trkpt>
      <trkpt lat="41.147445375099778" lon="-8.667637137696147">
        <ele>4.16015625</ele>
      </trkpt>
      <trkpt lat="41.147454176098108" lon="-8.667688770219684">
        <ele>4.12890625</ele>
      </trkpt>
      <trkpt lat="41.147464402019978" lon="-8.667753310874104">
        <ele>4.08203125</ele>
      </trkpt>
      <trkpt lat="41.147472029551864" lon="-8.667802764102817">
        <ele>4.046875</ele>
      </trkpt>
      <trkpt lat="41.147477896884084" lon="-8.667854564264417">
        <ele>3.98828125</ele>
      </trkpt>
      <trkpt lat="41.147478483617306" lon="-8.667866634204984">
        <ele>3.96484375</ele>
      </trkpt>
      <trkpt lat="41.147538749501109" lon="-8.670587902888656">
        <ele>3.0078125</ele>
      </trkpt>
      <trkpt lat="41.147538749501109" lon="-8.670586980879307">
        <ele>3.0078125</ele>
      </trkpt>
      <trkpt lat="41.147566493600607" lon="-8.672810699790716">
        <ele>0.75390625</ele>
      </trkpt>
      <trkpt lat="41.147567080333829" lon="-8.672809693962336">
        <ele>0.7578125</ele>
      </trkpt>
      <trkpt lat="41.14760865457356" lon="-8.673406317830086">
        <ele>1.19921875</ele>
      </trkpt>
      <trkpt lat="41.147615443915129" lon="-8.673461470752954">
        <ele>1.27734375</ele>
      </trkpt>
      <trkpt lat="41.147622484713793" lon="-8.673511678352952">
        <ele>1.35546875</ele>
      </trkpt>
      <trkpt lat="41.14763556048274" lon="-8.673570100218058">
        <ele>1.4609375</ele>
      </trkpt>
      <trkpt lat="41.147648049518466" lon="-8.673623744398355">
        <ele>1.55859375</ele>
      </trkpt>
      <trkpt lat="41.147662382572889" lon="-8.673677556216717">
        <ele>1.6640625</ele>
      </trkpt>
      <trkpt lat="41.147680571302772" lon="-8.67373488843441">
        <ele>1.78125</ele>
      </trkpt>
      <trkpt lat="41.147696161642671" lon="-8.673784844577312">
        <ele>1.8828125</ele>
      </trkpt>
      <trkpt lat="41.147718373686075" lon="-8.673848211765289">
        <ele>2.015625</ele>
      </trkpt>
      <trkpt lat="41.147734969854355" lon="-8.673897329717875">
        <ele>2.09375</ele>
      </trkpt>
      <trkpt lat="41.147751566022635" lon="-8.673948459327221">
        <ele>2.12890625</ele>
      </trkpt>
      <trkpt lat="41.14777185022831" lon="-8.674004534259439">
        <ele>2.171875</ele>
      </trkpt>
      <trkpt lat="41.147788278758526" lon="-8.674053652212024">
        <ele>2.203125</ele>
      </trkpt>
      <trkpt lat="41.147804372012615" lon="-8.674104362726212">
        <ele>2.23046875</ele>
      </trkpt>
      <trkpt lat="41.147820800542831" lon="-8.674160102382302">
        <ele>2.25390625</ele>
      </trkpt>
      <trkpt lat="41.147834295406938" lon="-8.674212656915188">
        <ele>2.265625</ele>
      </trkpt>
      <trkpt lat="41.147847874090075" lon="-8.674263618886471">
        <ele>2.27734375</ele>
      </trkpt>
      <trkpt lat="41.147866901010275" lon="-8.67431684397161">
        <ele>2.30078125</ele>
      </trkpt>
      <trkpt lat="41.147888526320457" lon="-8.674368727952242">
        <ele>2.33203125</ele>
      </trkpt>
      <trkpt lat="41.147909816354513" lon="-8.674415750429034">
        <ele>2.359375</ele>
      </trkpt>
      <trkpt lat="41.147931190207601" lon="-8.674457995221019">
        <ele>2.390625</ele>
      </trkpt>
      <trkpt lat="41.14795315079391" lon="-8.674505101516843">
        <ele>2.41796875</ele>
      </trkpt>
      <trkpt lat="41.147973602637649" lon="-8.674550615251064">
        <ele>2.4375</ele>
      </trkpt>
      <trkpt lat="41.147993803024292" lon="-8.674592273309827">
        <ele>2.45703125</ele>
      </trkpt>
      <trkpt lat="41.148017775267363" lon="-8.674631165340543">
        <ele>2.484375</ele>
      </trkpt>
      <trkpt lat="41.148044597357512" lon="-8.674673745408654">
        <ele>2.515625</ele>
      </trkpt>
      <trkpt lat="41.148070078343153" lon="-8.67471506819129">
        <ele>2.5390625</ele>
      </trkpt>
      <trkpt lat="41.148097403347492" lon="-8.674756223335862">
        <ele>2.515625</ele>
      </trkpt>
      <trkpt lat="41.148123890161514" lon="-8.674793941900134">
        <ele>2.4921875</ele>
      </trkpt>
      <trkpt lat="41.148148868232965" lon="-8.674834761768579">
        <ele>2.4609375</ele>
      </trkpt>
      <trkpt lat="41.148177785798907" lon="-8.674878012388945">
        <ele>2.42578125</ele>
      </trkpt>
      <trkpt lat="41.148216426372528" lon="-8.674946324899793">
        <ele>2.34765625</ele>
      </trkpt>
      <trkpt lat="41.148243751376867" lon="-8.674989743158221">
        <ele>2.30078125</ele>
      </trkpt>
      <trkpt lat="41.14826881326735" lon="-8.675034502521157">
        <ele>2.26953125</ele>
      </trkpt>
      <trkpt lat="41.148293036967516" lon="-8.675072975456715">
        <ele>2.3203125</ele>
      </trkpt>
      <trkpt lat="41.148313991725445" lon="-8.675114214420319">
        <ele>2.3515625</ele>
      </trkpt>
      <trkpt lat="41.148335700854659" lon="-8.675158219411969">
        <ele>2.3828125</ele>
      </trkpt>
      <trkpt lat="41.148359421640635" lon="-8.675204571336508">
        <ele>2.4296875</ele>
      </trkpt>
      <trkpt lat="41.148384315893054" lon="-8.675242625176907">
        <ele>2.50390625</ele>
      </trkpt>
      <trkpt lat="41.148414993658662" lon="-8.675285959616303">
        <ele>2.61328125</ele>
      </trkpt>
      <trkpt lat="41.148446509614587" lon="-8.675325186923146">
        <ele>2.74609375</ele>
      </trkpt>
      <trkpt lat="41.148475427180529" lon="-8.675362067297101">
        <ele>2.8671875</ele>
      </trkpt>
      <trkpt lat="41.148505266755819" lon="-8.675394589081407">
        <ele>3.01171875</ele>
      </trkpt>
      <trkpt lat="41.14853460341692" lon="-8.675417136400938">
        <ele>3.17578125</ele>
      </trkpt>
      <trkpt lat="41.149398945271969" lon="-8.675977718085051">
        <ele>7.13671875</ele>
      </trkpt>
      <trkpt lat="41.149400873109698" lon="-8.675959026440978">
        <ele>7.2890625</ele>
      </trkpt>
      <trkpt lat="41.149630704894662" lon="-8.676133705303073">
        <ele>7.91015625</ele>
      </trkpt>
      <trkpt lat="41.149630704894662" lon="-8.676133789122105">
        <ele>7.91015625</ele>
      </trkpt>
      <trkpt lat="41.149787614122033" lon="-8.676230600103736">
        <ele>8.3359375</ele>
      </trkpt>
      <trkpt lat="41.149836564436555" lon="-8.67625817656517">
        <ele>8.46875</ele>
      </trkpt>
      <trkpt lat="41.149873277172446" lon="-8.676283657550812">
        <ele>8.51171875</ele>
      </trkpt>
      <trkpt lat="41.149911750108004" lon="-8.67630704306066">
        <ele>8.58203125</ele>
      </trkpt>
      <trkpt lat="41.149945529177785" lon="-8.676329841837287">
        <ele>8.609375</ele>
      </trkpt>
      <trkpt lat="41.149979559704661" lon="-8.676351550966501">
        <ele>8.64453125</ele>
      </trkpt>
      <trkpt lat="41.150017697364092" lon="-8.676384072750807">
        <ele>8.62109375</ele>
      </trkpt>
      <trkpt lat="41.150054158642888" lon="-8.676410894840956">
        <ele>8.69140625</ele>
      </trkpt>
      <trkpt lat="41.150090284645557" lon="-8.676432268694043">
        <ele>8.796875</ele>
      </trkpt>
      <trkpt lat="41.1501226387918" lon="-8.676459090784192">
        <ele>8.8359375</ele>
      </trkpt>
      <trkpt lat="41.150162871927023" lon="-8.67648490704596">
        <ele>8.94140625</ele>
      </trkpt>
      <trkpt lat="41.150196986272931" lon="-8.676511310040951">
        <ele>8.99609375</ele>
      </trkpt>
      <trkpt lat="41.1502296756953" lon="-8.676536958664656">
        <ele>9.046875</ele>
      </trkpt>
      <trkpt lat="41.150263035669923" lon="-8.67656210437417">
        <ele>9.10546875</ele>
      </trkpt>
      <trkpt lat="41.150296730920672" lon="-8.676588758826256">
        <ele>9.15625</ele>
      </trkpt>
      <trkpt lat="41.150328833609819" lon="-8.676615413278341">
        <ele>9.1953125</ele>
      </trkpt>
      <trkpt lat="41.150364959612489" lon="-8.676650952547789">
        <ele>9.19921875</ele>
      </trkpt>
      <trkpt lat="41.150400163605809" lon="-8.676685905084014">
        <ele>9.203125</ele>
      </trkpt>
      <trkpt lat="41.150432014837861" lon="-8.676718343049288">
        <ele>9.19921875</ele>
      </trkpt>
      <trkpt lat="41.150447269901633" lon="-8.676734687760472">
        <ele>9.19140625</ele>
      </trkpt>
      <trkpt lat="41.150799477472901" lon="-8.677165266126394">
        <ele>8.58203125</ele>
      </trkpt>
      <trkpt lat="41.150800734758377" lon="-8.677166271954775">
        <ele>8.58203125</ele>
      </trkpt>
      <trkpt lat="41.150971641764045" lon="-8.677391912788153">
        <ele>7.81640625</ele>
      </trkpt>
      <trkpt lat="41.150999972596765" lon="-8.677429631352425">
        <ele>7.65234375</ele>
      </trkpt>
      <trkpt lat="41.151035260409117" lon="-8.67747682146728">
        <ele>7.4375</ele>
      </trkpt>
      <trkpt lat="41.151066021993756" lon="-8.677510600537062">
        <ele>7.296875</ele>
      </trkpt>
      <trkpt lat="41.151096615940332" lon="-8.677545133978128">
        <ele>7.14453125</ele>
      </trkpt>
      <trkpt lat="41.151126120239496" lon="-8.67758578620851">
        <ele>6.921875</ele>
      </trkpt>
      <trkpt lat="41.151154618710279" lon="-8.677627108991146">
        <ele>6.67578125</ele>
      </trkpt>
      <trkpt lat="41.151182865723968" lon="-8.677660888060927">
        <ele>6.4921875</ele>
      </trkpt>
      <trkpt lat="41.151217566803098" lon="-8.677690057083964">
        <ele>6.36328125</ele>
      </trkpt>
      <trkpt lat="41.151250004768372" lon="-8.677721740677953">
        <ele>6.1953125</ele>
      </trkpt>
      <trkpt lat="41.151280347257853" lon="-8.677753340452909">
        <ele>6.01171875</ele>
      </trkpt>
      <trkpt lat="41.151315802708268" lon="-8.677779911085963">
        <ele>5.88671875</ele>
      </trkpt>
      <trkpt lat="41.151352599263191" lon="-8.677797680720687">
        <ele>5.84375</ele>
      </trkpt>
      <trkpt lat="41.151393419131637" lon="-8.677813606336713">
        <ele>5.828125</ele>
      </trkpt>
      <trkpt lat="41.151432227343321" lon="-8.677821736782789">
        <ele>5.87890625</ele>
      </trkpt>
      <trkpt lat="41.15147371776402" lon="-8.677826514467597">
        <ele>5.96875</ele>
      </trkpt>
      <trkpt lat="41.151512023061514" lon="-8.677835315465927">
        <ele>6.0078125</ele>
      </trkpt>
      <trkpt lat="41.151552926748991" lon="-8.677844954654574">
        <ele>6.0390625</ele>
      </trkpt>
      <trkpt lat="41.151586286723614" lon="-8.677855264395475">
        <ele>6.03515625</ele>
      </trkpt>
      <trkpt lat="41.151758953928947" lon="-8.677924498915672">
        <ele>6.81640625</ele>
      </trkpt>
      <trkpt lat="41.151807904243469" lon="-8.677935814484954">
        <ele>7.1484375</ele>
      </trkpt>
      <trkpt lat="41.151844868436456" lon="-8.677953081205487">
        <ele>7.31640625</ele>
      </trkpt>
      <trkpt lat="41.151882670819759" lon="-8.67796691134572">
        <ele>7.53515625</ele>
      </trkpt>
      <trkpt lat="41.151926508173347" lon="-8.677988788112998">
        <ele>7.734375</ele>
      </trkpt>
      <trkpt lat="41.151961712166667" lon="-8.678009742870927">
        <ele>7.87109375</ele>
      </trkpt>
      <trkpt lat="41.151997502893209" lon="-8.678032206371427">
        <ele>8.0078125</ele>
      </trkpt>
      <trkpt lat="41.152031952515244" lon="-8.678062213584781">
        <ele>8.08203125</ele>
      </trkpt>
      <trkpt lat="41.152067240327597" lon="-8.678093394264579">
        <ele>8.16015625</ele>
      </trkpt>
      <trkpt lat="41.152101773768663" lon="-8.678124155849218">
        <ele>8.22265625</ele>
      </trkpt>
      <trkpt lat="41.152139576151967" lon="-8.678152654320002">
        <ele>8.3125</ele>
      </trkpt>
      <trkpt lat="41.15217050537467" lon="-8.678182745352387">
        <ele>8.31640625</ele>
      </trkpt>
      <trkpt lat="41.152207218110561" lon="-8.678210992366076">
        <ele>8.375</ele>
      </trkpt>
      <trkpt lat="41.152243427932262" lon="-8.678231108933687">
        <ele>8.48828125</ele>
      </trkpt>
      <trkpt lat="41.152264215052128" lon="-8.67823957465589">
        <ele>8.578125</ele>
      </trkpt>
      <trkpt lat="41.152633186429739" lon="-8.678463120013475">
        <ele>9.35546875</ele>
      </trkpt>
      <trkpt lat="41.152633186429739" lon="-8.678462198004127">
        <ele>9.3671875</ele>
      </trkpt>
      <trkpt lat="41.153085138648748" lon="-8.678767047822475">
        <ele>10.4296875</ele>
      </trkpt>
      <trkpt lat="41.153085138648748" lon="-8.678767969831824">
        <ele>10.421875</ele>
      </trkpt>
      <trkpt lat="41.153546646237373" lon="-8.679089918732643">
        <ele>12.421875</ele>
      </trkpt>
      <trkpt lat="41.153921484947205" lon="-8.679330311715603">
        <ele>13.6875</ele>
      </trkpt>
      <trkpt lat="41.153921484947205" lon="-8.679331233724952">
        <ele>13.67578125</ele>
      </trkpt>
      <trkpt lat="41.154793538153172" lon="-8.680007737129927">
        <ele>11.85546875</ele>
      </trkpt>
      <trkpt lat="41.154793538153172" lon="-8.680006815120578">
        <ele>11.8671875</ele>
      </trkpt>
      <trkpt lat="41.155374068766832" lon="-8.68051266297698">
        <ele>10.19140625</ele>
      </trkpt>
      <trkpt lat="41.155374068766832" lon="-8.68051266297698">
        <ele>10.19140625</ele>
      </trkpt>
      <trkpt lat="41.155881425365806" lon="-8.680965369567275">
        <ele>9.765625</ele>
      </trkpt>
      <trkpt lat="41.155882012099028" lon="-8.680964531376958">
        <ele>9.78125</ele>
      </trkpt>
      <trkpt lat="41.156179653480649" lon="-8.681196877732873">
        <ele>9.3828125</ele>
      </trkpt>
      <trkpt lat="41.156179653480649" lon="-8.681197799742222">
        <ele>9.375</ele>
      </trkpt>
      <trkpt lat="41.156573267653584" lon="-8.68154657073319">
        <ele>9.24609375</ele>
      </trkpt>
      <trkpt lat="41.157060088589787" lon="-8.681974047794938">
        <ele>9.0546875</ele>
      </trkpt>
      <trkpt lat="41.157450014725327" lon="-8.68230639025569">
        <ele>9.3984375</ele>
      </trkpt>
      <trkpt lat="41.15788503549993" lon="-8.682656921446323">
        <ele>8.63671875</ele>
      </trkpt>
      <trkpt lat="41.158218551427126" lon="-8.682945929467678">
        <ele>6.28125</ele>
      </trkpt>
      <trkpt lat="41.158432289958" lon="-8.683124966919422">
        <ele>6.79296875</ele>
      </trkpt>
      <trkpt lat="41.15861501544714" lon="-8.683287659659982">
        <ele>8.01953125</ele>
      </trkpt>
      <trkpt lat="41.159026566892862" lon="-8.683644309639931">
        <ele>10.23046875</ele>
      </trkpt>
      <trkpt lat="41.15925807505846" lon="-8.683798871934414">
        <ele>10.84765625</ele>
      </trkpt>
      <trkpt lat="41.159258745610714" lon="-8.683798871934414">
        <ele>10.8515625</ele>
      </trkpt>
      <trkpt lat="41.159501820802689" lon="-8.683942118659616">
        <ele>11.30078125</ele>
      </trkpt>
      <trkpt lat="41.159662837162614" lon="-8.684050664305687">
        <ele>11.15234375</ele>
      </trkpt>
      <trkpt lat="41.159662837162614" lon="-8.684051586315036">
        <ele>11.140625</ele>
      </trkpt>
      <trkpt lat="41.160415951162577" lon="-8.684481410309672">
        <ele>8.51171875</ele>
      </trkpt>
      <trkpt lat="41.161202257499099" lon="-8.68493964895606">
        <ele>7.11328125</ele>
      </trkpt>
      <trkpt lat="41.161202844232321" lon="-8.684940570965409">
        <ele>7.109375</ele>
      </trkpt>
      <trkpt lat="41.161938020959496" lon="-8.685345249250531">
        <ele>6.8046875</ele>
      </trkpt>
      <trkpt lat="41.161938020959496" lon="-8.685345249250531">
        <ele>6.8046875</ele>
      </trkpt>
      <trkpt lat="41.162762129679322" lon="-8.685788987204432">
        <ele>7.96875</ele>
      </trkpt>
      <trkpt lat="41.162762129679322" lon="-8.685788987204432">
        <ele>7.96875</ele>
      </trkpt>
      <trkpt lat="41.163135040551424" lon="-8.68602292612195">
        <ele>9.04296875</ele>
      </trkpt>
      <trkpt lat="41.163669051602483" lon="-8.686303636059165">
        <ele>10.046875</ele>
      </trkpt>
      <trkpt lat="41.163669135421515" lon="-8.686303636059165">
        <ele>10.05078125</ele>
      </trkpt>
      <trkpt lat="41.164147155359387" lon="-8.686578311026096">
        <ele>9.9765625</ele>
      </trkpt>
      <trkpt lat="41.164145898073912" lon="-8.686578311026096">
        <ele>9.97265625</ele>
      </trkpt>
      <trkpt lat="41.164576727896929" lon="-8.686838066205382">
        <ele>8.82421875</ele>
      </trkpt>
      <trkpt lat="41.165097746998072" lon="-8.68712866678834">
        <ele>8.6953125</ele>
      </trkpt>
      <trkpt lat="41.165465209633112" lon="-8.687345003709197">
        <ele>9.453125</ele>
      </trkpt>
      <trkpt lat="41.166440779343247" lon="-8.687904747202992">
        <ele>12.5078125</ele>
      </trkpt>
      <trkpt lat="41.166440779343247" lon="-8.687904076650739">
        <ele>12.51171875</ele>
      </trkpt>
      <trkpt lat="41.166775971651077" lon="-8.688091328367591">
        <ele>12.02734375</ele>
      </trkpt>
      <trkpt lat="41.166799943894148" lon="-8.688102476298809">
        <ele>11.88671875</ele>
      </trkpt>
      <trkpt lat="41.166830956935883" lon="-8.688124604523182">
        <ele>11.6640625</ele>
      </trkpt>
      <trkpt lat="41.166856773197651" lon="-8.688144385814667">
        <ele>11.47265625</ele>
      </trkpt>
      <trkpt lat="41.166882254183292" lon="-8.688164418563247">
        <ele>11.28515625</ele>
      </trkpt>
      <trkpt lat="41.166907818987966" lon="-8.68818361312151">
        <ele>11.10546875</ele>
      </trkpt>
      <trkpt lat="41.166933802887797" lon="-8.688199538737535">
        <ele>10.94140625</ele>
      </trkpt>
      <trkpt lat="41.166960038244724" lon="-8.688217895105481">
        <ele>10.76953125</ele>
      </trkpt>
      <trkpt lat="41.166984932497144" lon="-8.688232563436031">
        <ele>10.62109375</ele>
      </trkpt>
      <trkpt lat="41.167008485645056" lon="-8.688250249251723">
        <ele>10.46484375</ele>
      </trkpt>
      <trkpt lat="41.16703069768846" lon="-8.688271790742874">
        <ele>10.296875</ele>
      </trkpt>
      <trkpt lat="41.167050981894135" lon="-8.688296601176262">
        <ele>10.12109375</ele>
      </trkpt>
      <trkpt lat="41.167069254443049" lon="-8.688334403559566">
        <ele>9.89453125</ele>
      </trkpt>
      <trkpt lat="41.16708492860198" lon="-8.688369775190949">
        <ele>9.69140625</ele>
      </trkpt>
      <trkpt lat="41.167097082361579" lon="-8.688405146822333">
        <ele>9.5</ele>
      </trkpt>
      <trkpt lat="41.167110241949558" lon="-8.688436914235353">
        <ele>9.32421875</ele>
      </trkpt>
      <trkpt lat="41.167121389880776" lon="-8.688478823751211">
        <ele>9.109375</ele>
      </trkpt>
      <trkpt lat="41.16713278926909" lon="-8.688524588942528">
        <ele>8.87890625</ele>
      </trkpt>
      <trkpt lat="41.167141003534198" lon="-8.688561553135514">
        <ele>8.69921875</ele>
      </trkpt>
      <trkpt lat="41.167149385437369" lon="-8.688600277528167">
        <ele>8.51171875</ele>
      </trkpt>
      <trkpt lat="41.167158018797636" lon="-8.68864394724369">
        <ele>8.3046875</ele>
      </trkpt>
      <trkpt lat="41.167165981605649" lon="-8.688686527311802">
        <ele>8.10546875</ele>
      </trkpt>
      <trkpt lat="41.167171681299806" lon="-8.688723407685757">
        <ele>7.9375</ele>
      </trkpt>
      <trkpt lat="41.167176710441709" lon="-8.688758946955204">
        <ele>7.77734375</ele>
      </trkpt>
      <trkpt lat="41.167183499783278" lon="-8.688794318586588">
        <ele>7.61328125</ele>
      </trkpt>
      <trkpt lat="41.167189702391624" lon="-8.688831115141511">
        <ele>7.44921875</ele>
      </trkpt>
      <trkpt lat="41.167196491733193" lon="-8.688866402953863">
        <ele>7.29296875</ele>
      </trkpt>
      <trkpt lat="41.167202945798635" lon="-8.688909402117133">
        <ele>7.1328125</ele>
      </trkpt>
      <trkpt lat="41.167214764282107" lon="-8.688954999670386">
        <ele>6.97265625</ele>
      </trkpt>
      <trkpt lat="41.16722222417593" lon="-8.688999256119132">
        <ele>6.82421875</ele>
      </trkpt>
      <trkpt lat="41.16722859442234" lon="-8.689039824530482">
        <ele>6.6875</ele>
      </trkpt>
      <trkpt lat="41.167236473411322" lon="-8.689079973846674">
        <ele>6.55859375</ele>
      </trkpt>
      <trkpt lat="41.167244771495461" lon="-8.689116183668375">
        <ele>6.44140625</ele>
      </trkpt>
      <trkpt lat="41.16725298576057" lon="-8.689154824241996">
        <ele>6.3203125</ele>
      </trkpt>
      <trkpt lat="41.167262457311153" lon="-8.689188519492745">
        <ele>6.21484375</ele>
      </trkpt>
      <trkpt lat="41.167274862527847" lon="-8.689231183379889">
        <ele>6.08984375</ele>
      </trkpt>
      <trkpt lat="41.167288608849049" lon="-8.689268482849002">
        <ele>5.984375</ele>
      </trkpt>
      <trkpt lat="41.167302941903472" lon="-8.689304608851671">
        <ele>5.88671875</ele>
      </trkpt>
      <trkpt lat="41.167320711538196" lon="-8.689337214455009">
        <ele>5.8046875</ele>
      </trkpt>
      <trkpt lat="41.167340828105807" lon="-8.689368981868029">
        <ele>5.734375</ele>
      </trkpt>
      <trkpt lat="41.167363040149212" lon="-8.689404018223286">
        <ele>5.6640625</ele>
      </trkpt>
      <trkpt lat="41.167386844754219" lon="-8.689438719302416">
        <ele>5.6015625</ele>
      </trkpt>
      <trkpt lat="41.167409559711814" lon="-8.689469480887055">
        <ele>5.5546875</ele>
      </trkpt>
      <trkpt lat="41.167434705421329" lon="-8.689498482272029">
        <ele>5.50390625</ele>
      </trkpt>
      <trkpt lat="41.167457588016987" lon="-8.689523544162512">
        <ele>5.44921875</ele>
      </trkpt>
      <trkpt lat="41.16748072206974" lon="-8.689550030976534">
        <ele>5.38671875</ele>
      </trkpt>
      <trkpt lat="41.167502431198955" lon="-8.689573667943478">
        <ele>5.33203125</ele>
      </trkpt>
      <trkpt lat="41.167529504746199" lon="-8.689596969634295">
        <ele>5.27734375</ele>
      </trkpt>
      <trkpt lat="41.167557081207633" lon="-8.689619181677699">
        <ele>5.22265625</ele>
      </trkpt>
      <trkpt lat="41.167588094249368" lon="-8.689645919948816">
        <ele>5.15625</ele>
      </trkpt>
      <trkpt lat="41.167612988501787" lon="-8.689660923555493">
        <ele>5.12109375</ele>
      </trkpt>
      <trkpt lat="41.167639223858714" lon="-8.689669976010919">
        <ele>5.09765625</ele>
      </trkpt>
      <trkpt lat="41.167665626853704" lon="-8.68967592716217">
        <ele>5.08203125</ele>
      </trkpt>
      <trkpt lat="41.167692951858044" lon="-8.689680369570851">
        <ele>5.0703125</ele>
      </trkpt>
      <trkpt lat="41.16772404871881" lon="-8.689685901626945">
        <ele>5.0546875</ele>
      </trkpt>
      <trkpt lat="41.167757073417306" lon="-8.689690846949816">
        <ele>5.04296875</ele>
      </trkpt>
      <trkpt lat="41.167788505554199" lon="-8.689696211367846">
        <ele>5.02734375</ele>
      </trkpt>
      <trkpt lat="41.167820859700441" lon="-8.689702581614256">
        <ele>5.0078125</ele>
      </trkpt>
      <trkpt lat="41.167848352342844" lon="-8.689706353470683">
        <ele>4.99609375</ele>
      </trkpt>
      <trkpt lat="41.167877102270722" lon="-8.689706353470683">
        <ele>4.99609375</ele>
      </trkpt>
      <trkpt lat="41.167907444760203" lon="-8.689702078700066">
        <ele>5.01171875</ele>
      </trkpt>
      <trkpt lat="41.167922616004944" lon="-8.689698558300734">
        <ele>5.01953125</ele>
      </trkpt>
      <trkpt lat="41.167996292933822" lon="-8.68968615308404">
        <ele>5.0625</ele>
      </trkpt>
      <trkpt lat="41.168029569089413" lon="-8.68967886082828">
        <ele>5.0859375</ele>
      </trkpt>
      <trkpt lat="41.168057983741164" lon="-8.68967299349606">
        <ele>5.109375</ele>
      </trkpt>
      <trkpt lat="41.168089834973216" lon="-8.689665030688047">
        <ele>5.13671875</ele>
      </trkpt>
      <trkpt lat="41.168120428919792" lon="-8.689657235518098">
        <ele>5.1640625</ele>
      </trkpt>
      <trkpt lat="41.168151777237654" lon="-8.689644495025277">
        <ele>5.2109375</ele>
      </trkpt>
      <trkpt lat="41.168182203546166" lon="-8.68963192217052">
        <ele>5.2578125</ele>
      </trkpt>
      <trkpt lat="41.168209780007601" lon="-8.68961532600224">
        <ele>5.3203125</ele>
      </trkpt>
      <trkpt lat="41.168215731158853" lon="-8.689611637964845">
        <ele>5.33203125</ele>
      </trkpt>
      <trkpt lat="41.168308099731803" lon="-8.689585905522108">
        <ele>5.28125</ele>
      </trkpt>
      <trkpt lat="41.168344477191567" lon="-8.689558077603579">
        <ele>5.28515625</ele>
      </trkpt>
      <trkpt lat="41.168378507718444" lon="-8.689530165866017">
        <ele>5.2890625</ele>
      </trkpt>
      <trkpt lat="41.168417232111096" lon="-8.689500577747822">
        <ele>5.28515625</ele>
      </trkpt>
      <trkpt lat="41.168453106656671" lon="-8.689468642696738">
        <ele>5.296875</ele>
      </trkpt>
      <trkpt lat="41.168487556278706" lon="-8.689439808949828">
        <ele>5.29296875</ele>
      </trkpt>
      <trkpt lat="41.168521083891392" lon="-8.689407035708427">
        <ele>5.30859375</ele>
      </trkpt>
      <trkpt lat="41.168545559048653" lon="-8.689366215839982">
        <ele>5.3671875</ele>
      </trkpt>
      <trkpt lat="41.168568190187216" lon="-8.689322881400585">
        <ele>5.4375</ele>
      </trkpt>
      <trkpt lat="41.168589228764176" lon="-8.689276864752173">
        <ele>5.51953125</ele>
      </trkpt>
      <trkpt lat="41.168609596788883" lon="-8.689228752627969">
        <ele>5.60546875</ele>
      </trkpt>
      <trkpt lat="41.1686294618994" lon="-8.689179886132479">
        <ele>5.6953125</ele>
      </trkpt>
      <trkpt lat="41.168644465506077" lon="-8.689130181446671">
        <ele>5.796875</ele>
      </trkpt>
      <trkpt lat="41.1686622351408" lon="-8.689072262495756">
        <ele>5.9140625</ele>
      </trkpt>
      <trkpt lat="41.168678244575858" lon="-8.689022054895759">
        <ele>6.01171875</ele>
      </trkpt>
      <trkpt lat="41.168692326173186" lon="-8.688970590010285">
        <ele>6.1171875</ele>
      </trkpt>
      <trkpt lat="41.168708503246307" lon="-8.688921723514795">
        <ele>6.203125</ele>
      </trkpt>
      <trkpt lat="41.168726272881031" lon="-8.688871515914798">
        <ele>6.28515625</ele>
      </trkpt>
      <trkpt lat="41.168746389448643" lon="-8.688803957775235">
        <ele>6.2109375</ele>
      </trkpt>
      <trkpt lat="41.168757453560829" lon="-8.688754085451365">
        <ele>6.171875</ele>
      </trkpt>
      <trkpt lat="41.168772121891379" lon="-8.68870060890913">
        <ele>6.1171875</ele>
      </trkpt>
      <trkpt lat="41.168784108012915" lon="-8.688647551462054">
        <ele>6.07421875</ele>
      </trkpt>
      <trkpt lat="41.168793747201562" lon="-8.688597343862057">
        <ele>6.0390625</ele>
      </trkpt>
      <trkpt lat="41.168806068599224" lon="-8.688547890633345">
        <ele>5.99609375</ele>
      </trkpt>
      <trkpt lat="41.168816965073347" lon="-8.688492905348539">
        <ele>5.95703125</ele>
      </trkpt>
      <trkpt lat="41.168830543756485" lon="-8.688441356644034">
        <ele>5.91015625</ele>
      </trkpt>
      <trkpt lat="41.168847559019923" lon="-8.688390981405973">
        <ele>5.84765625</ele>
      </trkpt>
      <trkpt lat="41.168861640617251" lon="-8.688341695815325">
        <ele>5.796875</ele>
      </trkpt>
      <trkpt lat="41.168877901509404" lon="-8.688292410224676">
        <ele>5.73828125</ele>
      </trkpt>
      <trkpt lat="41.168897096067667" lon="-8.688239939510822">
        <ele>5.66796875</ele>
      </trkpt>
      <trkpt lat="41.168921068310738" lon="-8.688190653920174">
        <ele>5.58203125</ele>
      </trkpt>
      <trkpt lat="41.168941017240286" lon="-8.688147990033031">
        <ele>5.51171875</ele>
      </trkpt>
      <trkpt lat="41.168961469084024" lon="-8.688105409964919">
        <ele>5.4375</ele>
      </trkpt>
      <trkpt lat="41.168984267860651" lon="-8.68805855512619">
        <ele>5.35546875</ele>
      </trkpt>
      <trkpt lat="41.169009245932102" lon="-8.688016813248396">
        <ele>5.3203125</ele>
      </trkpt>
      <trkpt lat="41.16903112269938" lon="-8.687976831570268">
        <ele>5.33984375</ele>
      </trkpt>
      <trkpt lat="41.16906238719821" lon="-8.687945399433374">
        <ele>5.30078125</ele>
      </trkpt>
      <trkpt lat="41.169099854305387" lon="-8.687920421361923">
        <ele>5.24609375</ele>
      </trkpt>
      <trkpt lat="41.169138243421912" lon="-8.687902400270104">
        <ele>5.1953125</ele>
      </trkpt>
      <trkpt lat="41.169177051633596" lon="-8.687889659777284">
        <ele>5.1328125</ele>
      </trkpt>
      <trkpt lat="41.169214099645615" lon="-8.687881613150239">
        <ele>5.0625</ele>
      </trkpt>
      <trkpt lat="41.169253075495362" lon="-8.687877003103495">
        <ele>4.98046875</ele>
      </trkpt>
      <trkpt lat="41.169290626421571" lon="-8.6878801882267">
        <ele>4.8828125</ele>
      </trkpt>
      <trkpt lat="41.169328009709716" lon="-8.687884295359254">
        <ele>4.78515625</ele>
      </trkpt>
      <trkpt lat="41.169363716617227" lon="-8.687868034467101">
        <ele>4.73828125</ele>
      </trkpt>
      <trkpt lat="41.169402860105038" lon="-8.687857305631042">
        <ele>4.66796875</ele>
      </trkpt>
      <trkpt lat="41.169439656659961" lon="-8.687845906242728">
        <ele>4.609375</ele>
      </trkpt>
      <trkpt lat="41.169482320547104" lon="-8.687842637300491">
        <ele>4.515625</ele>
      </trkpt>
      <trkpt lat="41.169522637501359" lon="-8.687841463834047">
        <ele>4.41796875</ele>
      </trkpt>
      <trkpt lat="41.16955884732306" lon="-8.687825873494148">
        <ele>4.37109375</ele>
      </trkpt>
      <trkpt lat="41.169593716040254" lon="-8.687799386680126">
        <ele>4.3515625</ele>
      </trkpt>
      <trkpt lat="41.169623304158449" lon="-8.687767786905169">
        <ele>4.35546875</ele>
      </trkpt>
      <trkpt lat="41.169653059914708" lon="-8.687732834368944">
        <ele>4.3671875</ele>
      </trkpt>
      <trkpt lat="41.169677367433906" lon="-8.687689751386642">
        <ele>4.4140625</ele>
      </trkpt>
      <trkpt lat="41.1697000823915" lon="-8.687647841870785">
        <ele>4.45703125</ele>
      </trkpt>
      <trkpt lat="41.16972011514008" lon="-8.687604507431388">
        <ele>4.515625</ele>
      </trkpt>
      <trkpt lat="41.169744338840246" lon="-8.687556060031056">
        <ele>4.57421875</ele>
      </trkpt>
      <trkpt lat="41.169769568368793" lon="-8.687506858259439">
        <ele>4.62890625</ele>
      </trkpt>
      <trkpt lat="41.169797228649259" lon="-8.687458327040076">
        <ele>4.6796875</ele>
      </trkpt>
      <trkpt lat="41.169825391843915" lon="-8.687418764457107">
        <ele>4.70703125</ele>
      </trkpt>
      <trkpt lat="41.169861685484648" lon="-8.687392864376307">
        <ele>4.68359375</ele>
      </trkpt>
      <trkpt lat="41.169895967468619" lon="-8.687371322885156">
        <ele>4.65234375</ele>
      </trkpt>
      <trkpt lat="41.16993217729032" lon="-8.687352128326893">
        <ele>4.65625</ele>
      </trkpt>
      <trkpt lat="41.169967968016863" lon="-8.687331005930901">
        <ele>4.7109375</ele>
      </trkpt>
      <trkpt lat="41.170006189495325" lon="-8.687312481924891">
        <ele>4.76171875</ele>
      </trkpt>
      <trkpt lat="41.170044578611851" lon="-8.68729286827147">
        <ele>4.80859375</ele>
      </trkpt>
      <trkpt lat="41.170078106224537" lon="-8.687266632914543">
        <ele>4.87109375</ele>
      </trkpt>
      <trkpt lat="41.170105850324035" lon="-8.687230842188001">
        <ele>4.94921875</ele>
      </trkpt>
      <trkpt lat="41.170141389593482" lon="-8.687211060896516">
        <ele>4.9921875</ele>
      </trkpt>
      <trkpt lat="41.170178186148405" lon="-8.687189938500524">
        <ele>5.07421875</ele>
      </trkpt>
      <trkpt lat="41.170214479789138" lon="-8.687174348160625">
        <ele>5.14453125</ele>
      </trkpt>
      <trkpt lat="41.170235686004162" lon="-8.687165714800358">
        <ele>5.1875</ele>
      </trkpt>
      <trkpt lat="41.170309195294976" lon="-8.68716043420136">
        <ele>5.21875</ele>
      </trkpt>
      <trkpt lat="41.170357055962086" lon="-8.687158422544599">
        <ele>5.23828125</ele>
      </trkpt>
      <trkpt lat="41.170399216935039" lon="-8.687159596011043">
        <ele>5.23828125</ele>
      </trkpt>
      <trkpt lat="41.170438108965755" lon="-8.687164289876819">
        <ele>5.21875</ele>
      </trkpt>
      <trkpt lat="41.170478845015168" lon="-8.687176527455449">
        <ele>5.16015625</ele>
      </trkpt>
      <trkpt lat="41.170517653226852" lon="-8.687188597396016">
        <ele>5.09765625</ele>
      </trkpt>
      <trkpt lat="41.170559143647552" lon="-8.68720879778266">
        <ele>4.99609375</ele>
      </trkpt>
      <trkpt lat="41.170594180002809" lon="-8.687233021482825">
        <ele>4.96484375</ele>
      </trkpt>
      <trkpt lat="41.17062603123486" lon="-8.687260011211038">
        <ele>4.92578125</ele>
      </trkpt>
      <trkpt lat="41.170658636838198" lon="-8.687286246567965">
        <ele>4.89453125</ele>
      </trkpt>
      <trkpt lat="41.170692918822169" lon="-8.687310889363289">
        <ele>4.8671875</ele>
      </trkpt>
      <trkpt lat="41.170726530253887" lon="-8.687339052557945">
        <ele>4.8359375</ele>
      </trkpt>
      <trkpt lat="41.170761650428176" lon="-8.687372328713536">
        <ele>4.86328125</ele>
      </trkpt>
      <trkpt lat="41.170796183869243" lon="-8.687407113611698">
        <ele>4.9765625</ele>
      </trkpt>
      <trkpt lat="41.170826023444533" lon="-8.687442652881145">
        <ele>5.0625</ele>
      </trkpt>
      <trkpt lat="41.170853599905968" lon="-8.687481377273798">
        <ele>5.1328125</ele>
      </trkpt>
      <trkpt lat="41.170883774757385" lon="-8.687517754733562">
        <ele>5.21484375</ele>
      </trkpt>
      <trkpt lat="41.170911099761724" lon="-8.687551869079471">
        <ele>5.28515625</ele>
      </trkpt>
      <trkpt lat="41.170936832204461" lon="-8.687590174376965">
        <ele>5.33984375</ele>
      </trkpt>
      <trkpt lat="41.170961894094944" lon="-8.687629820778966">
        <ele>5.38671875</ele>
      </trkpt>
      <trkpt lat="41.170991146937013" lon="-8.687666365876794">
        <ele>5.453125</ele>
      </trkpt>
      <trkpt lat="41.171019729226828" lon="-8.687698552384973">
        <ele>5.51953125</ele>
      </trkpt>
      <trkpt lat="41.171049484983087" lon="-8.687729146331549">
        <ele>5.59375</ele>
      </trkpt>
      <trkpt lat="41.171084018424153" lon="-8.687765020877123">
        <ele>5.671875</ele>
      </trkpt>
      <trkpt lat="41.171113690361381" lon="-8.687795111909509">
        <ele>5.73828125</ele>
      </trkpt>
      <trkpt lat="41.171144619584084" lon="-8.68782595731318">
        <ele>5.8046875</ele>
      </trkpt>
      <trkpt lat="41.171174878254533" lon="-8.687858898192644">
        <ele>5.86328125</ele>
      </trkpt>
      <trkpt lat="41.171205304563046" lon="-8.687888151034713">
        <ele>5.9296875</ele>
      </trkpt>
      <trkpt lat="41.171235060319304" lon="-8.687917152419686">
        <ele>5.98828125</ele>
      </trkpt>
      <trkpt lat="41.17124704644084" lon="-8.687925869598985">
        <ele>6.015625</ele>
      </trkpt>
      <trkpt lat="41.171366069465876" lon="-8.688027039170265">
        <ele>6.25</ele>
      </trkpt>
      <trkpt lat="41.171397585421801" lon="-8.688061069697142">
        <ele>6.2265625</ele>
      </trkpt>
      <trkpt lat="41.171426167711616" lon="-8.688094094395638">
        <ele>6.15234375</ele>
      </trkpt>
      <trkpt lat="41.171456426382065" lon="-8.688134411349893">
        <ele>6.03515625</ele>
      </trkpt>
      <trkpt lat="41.171488780528307" lon="-8.688176237046719">
        <ele>5.90234375</ele>
      </trkpt>
      <trkpt lat="41.171516524627805" lon="-8.688211273401976">
        <ele>5.78515625</ele>
      </trkpt>
      <trkpt lat="41.171546448022127" lon="-8.688244968652725">
        <ele>5.67578125</ele>
      </trkpt>
      <trkpt lat="41.17157980799675" lon="-8.688276316970587">
        <ele>5.578125</ele>
      </trkpt>
      <trkpt lat="41.171612916514277" lon="-8.688309006392956">
        <ele>5.41015625</ele>
      </trkpt>
      <trkpt lat="41.171645354479551" lon="-8.68834001943469">
        <ele>5.24609375</ele>
      </trkpt>
      <trkpt lat="41.171678630635142" lon="-8.688370529562235">
        <ele>5.0859375</ele>
      </trkpt>
      <trkpt lat="41.171712661162019" lon="-8.68839961476624">
        <ele>4.9296875</ele>
      </trkpt>
      <trkpt lat="41.171748535707593" lon="-8.68843037635088">
        <ele>4.76171875</ele>
      </trkpt>
      <trkpt lat="41.171781308948994" lon="-8.688464742153883">
        <ele>4.56640625</ele>
      </trkpt>
      <trkpt lat="41.171808633953333" lon="-8.68849391117692">
        <ele>4.3984375</ele>
      </trkpt>
      <trkpt lat="41.17193846963346" lon="-8.688622238114476">
        <ele>3.6328125</ele>
      </trkpt>
      <trkpt lat="41.171974008902907" lon="-8.688654089346528">
        <ele>3.4375</ele>
      </trkpt>
      <trkpt lat="41.172008961439133" lon="-8.688685186207294">
        <ele>3.2421875</ele>
      </trkpt>
      <trkpt lat="41.172038717195392" lon="-8.688717121258378">
        <ele>3.03515625</ele>
      </trkpt>
      <trkpt lat="41.172072412446141" lon="-8.688746374100447">
        <ele>2.84765625</ele>
      </trkpt>
      <trkpt lat="41.172103928402066" lon="-8.688776716589928">
        <ele>2.6484375</ele>
      </trkpt>
      <trkpt lat="41.172134270891547" lon="-8.688812088221312">
        <ele>2.41015625</ele>
      </trkpt>
      <trkpt lat="41.172163104638457" lon="-8.688855171203613">
        <ele>2.12109375</ele>
      </trkpt>
      <trkpt lat="41.172187579795718" lon="-8.688893895596266">
        <ele>1.94921875</ele>
      </trkpt>
      <trkpt lat="41.172215323895216" lon="-8.688928093761206">
        <ele>1.8671875</ele>
      </trkpt>
      <trkpt lat="41.172245414927602" lon="-8.688965141773224">
        <ele>1.77734375</ele>
      </trkpt>
      <trkpt lat="41.1722765956074" lon="-8.689003866165876">
        <ele>1.68359375</ele>
      </trkpt>
      <trkpt lat="41.172311464324594" lon="-8.689028928056359">
        <ele>1.625</ele>
      </trkpt>
      <trkpt lat="41.172346835955977" lon="-8.689046781510115">
        <ele>1.58203125</ele>
      </trkpt>
      <trkpt lat="41.172386985272169" lon="-8.689063880592585">
        <ele>1.5390625</ele>
      </trkpt>
      <trkpt lat="41.172424955293536" lon="-8.689085673540831">
        <ele>1.51953125</ele>
      </trkpt>
      <trkpt lat="41.172467870637774" lon="-8.689100425690413">
        <ele>1.61328125</ele>
      </trkpt>
      <trkpt lat="41.172505840659142" lon="-8.689111908897758">
        <ele>1.69140625</ele>
      </trkpt>
      <trkpt lat="41.172547833994031" lon="-8.689124314114451">
        <ele>1.78125</ele>
      </trkpt>
      <trkpt lat="41.172589743509889" lon="-8.689125487580895">
        <ele>1.8984375</ele>
      </trkpt>
      <trkpt lat="41.1726288869977" lon="-8.689125487580895">
        <ele>2.01171875</ele>
      </trkpt>
      <trkpt lat="41.172670125961304" lon="-8.689125487580895">
        <ele>2.12890625</ele>
      </trkpt>
      <trkpt lat="41.172711029648781" lon="-8.689132696017623">
        <ele>2.22265625</ele>
      </trkpt>
      <trkpt lat="41.172749251127243" lon="-8.689143760129809">
        <ele>2.29296875</ele>
      </trkpt>
      <trkpt lat="41.172786047682166" lon="-8.689156332984567">
        <ele>2.35546875</ele>
      </trkpt>
      <trkpt lat="41.172824269160628" lon="-8.689173432067037">
        <ele>2.3984375</ele>
      </trkpt>
      <trkpt lat="41.172864250838757" lon="-8.689193380996585">
        <ele>2.43359375</ele>
      </trkpt>
      <trkpt lat="41.172905154526234" lon="-8.68921416811645">
        <ele>2.46484375</ele>
      </trkpt>
      <trkpt lat="41.172944465652108" lon="-8.689227579161525">
        <ele>2.515625</ele>
      </trkpt>
      <trkpt lat="41.17298268713057" lon="-8.689242247492075">
        <ele>2.5546875</ele>
      </trkpt>
      <trkpt lat="41.173026524484158" lon="-8.689260603860021">
        <ele>2.58984375</ele>
      </trkpt>
      <trkpt lat="41.173064243048429" lon="-8.689276361837983">
        <ele>2.6171875</ele>
      </trkpt>
      <trkpt lat="41.173100369051099" lon="-8.689289521425962">
        <ele>2.64453125</ele>
      </trkpt>
      <trkpt lat="41.173140183091164" lon="-8.689308883622289">
        <ele>2.65625</ele>
      </trkpt>
      <trkpt lat="41.173179745674133" lon="-8.689330089837313">
        <ele>2.6484375</ele>
      </trkpt>
      <trkpt lat="41.173218721523881" lon="-8.689350625500083">
        <ele>2.640625</ele>
      </trkpt>
      <trkpt lat="41.173256440088153" lon="-8.689364371821284">
        <ele>2.65625</ele>
      </trkpt>
      <trkpt lat="41.17329734377563" lon="-8.689374094828963">
        <ele>2.67578125</ele>
      </trkpt>
      <trkpt lat="41.173335313796997" lon="-8.689379375427961">
        <ele>2.71484375</ele>
      </trkpt>
      <trkpt lat="41.173374457284808" lon="-8.68938323110342">
        <ele>2.76171875</ele>
      </trkpt>
      <trkpt lat="41.173414355143905" lon="-8.689388176426291">
        <ele>2.80078125</ele>
      </trkpt>
      <trkpt lat="41.173455761745572" lon="-8.689389433711767">
        <ele>2.86328125</ele>
      </trkpt>
      <trkpt lat="41.17350060492754" lon="-8.689390774816275">
        <ele>2.9296875</ele>
      </trkpt>
      <trkpt lat="41.173542011529207" lon="-8.689389433711767">
        <ele>3.0078125</ele>
      </trkpt>
      <trkpt lat="41.173583334311843" lon="-8.689389433711767">
        <ele>3.07421875</ele>
      </trkpt>
      <trkpt lat="41.173622226342559" lon="-8.689394546672702">
        <ele>3.11328125</ele>
      </trkpt>
      <trkpt lat="41.173661788925529" lon="-8.689406365156174">
        <ele>3.11328125</ele>
      </trkpt>
      <trkpt lat="41.173698585480452" lon="-8.689416842535138">
        <ele>3.1171875</ele>
      </trkpt>
      <trkpt lat="41.173739153891802" lon="-8.689425978809595">
        <ele>3.1328125</ele>
      </trkpt>
      <trkpt lat="41.173780644312501" lon="-8.689433019608259">
        <ele>3.16015625</ele>
      </trkpt>
      <trkpt lat="41.173817692324519" lon="-8.689441150054336">
        <ele>3.171875</ele>
      </trkpt>
      <trkpt lat="41.173857422545552" lon="-8.689456321299076">
        <ele>3.1484375</ele>
      </trkpt>
      <trkpt lat="41.173872007057071" lon="-8.689462523907423">
        <ele>3.13671875</ele>
      </trkpt>
      <trkpt lat="41.173972254619002" lon="-8.689506612718105">
        <ele>3.03515625</ele>
      </trkpt>
      <trkpt lat="41.174015337601304" lon="-8.689528070390224">
        <ele>2.97265625</ele>
      </trkpt>
      <trkpt lat="41.174054900184274" lon="-8.689556485041976">
        <ele>2.859375</ele>
      </trkpt>
      <trkpt lat="41.174089601263404" lon="-8.689578697085381">
        <ele>2.828125</ele>
      </trkpt>
      <trkpt lat="41.174134109169245" lon="-8.689610715955496">
        <ele>2.9375</ele>
      </trkpt>
      <trkpt lat="41.174168977886438" lon="-8.689632005989552">
        <ele>3.0546875</ele>
      </trkpt>
      <trkpt lat="41.174207115545869" lon="-8.689652374014258">
        <ele>3.20703125</ele>
      </trkpt>
      <trkpt lat="41.17424139752984" lon="-8.689676430076361">
        <ele>3.3203125</ele>
      </trkpt>
      <trkpt lat="41.174276517704129" lon="-8.689708113670349">
        <ele>3.41015625</ele>
      </trkpt>
      <trkpt lat="41.174310548231006" lon="-8.689740467816591">
        <ele>3.53125</ele>
      </trkpt>
      <trkpt lat="41.174341645091772" lon="-8.689774749800563">
        <ele>3.6171875</ele>
      </trkpt>
      <trkpt lat="41.174373999238014" lon="-8.6898073554039">
        <ele>3.703125</ele>
      </trkpt>
      <trkpt lat="41.174405599012971" lon="-8.689843146130443">
        <ele>3.7578125</ele>
      </trkpt>
      <trkpt lat="41.174435690045357" lon="-8.689874829724431">
        <ele>3.8125</ele>
      </trkpt>
      <trkpt lat="41.174468798562884" lon="-8.689907267689705">
        <ele>3.8671875</ele>
      </trkpt>
      <trkpt lat="41.174507774412632" lon="-8.68993241339922">
        <ele>3.98046875</ele>
      </trkpt>
      <trkpt lat="41.174542307853699" lon="-8.689955715090036">
        <ele>4.0625</ele>
      </trkpt>
      <trkpt lat="41.174578350037336" lon="-8.689977843314409">
        <ele>4.15625</ele>
      </trkpt>
      <trkpt lat="41.17461271584034" lon="-8.690003827214241">
        <ele>4.20703125</ele>
      </trkpt>
      <trkpt lat="41.174646830186248" lon="-8.690027464181185">
        <ele>4.2578125</ele>
      </trkpt>
      <trkpt lat="41.174668204039335" lon="-8.690042719244957">
        <ele>4.28515625</ele>
      </trkpt>
      <trkpt lat="41.174938352778554" lon="-8.690240532159805">
        <ele>4.20703125</ele>
      </trkpt>
      <trkpt lat="41.17544244043529" lon="-8.690619645640254">
        <ele>2.953125</ele>
      </trkpt>
      <trkpt lat="41.175443027168512" lon="-8.690619645640254">
        <ele>2.953125</ele>
      </trkpt>
      <trkpt lat="41.175880394876003" lon="-8.690988784655929">
        <ele>2.70703125</ele>
      </trkpt>
      <trkpt lat="41.175880394876003" lon="-8.69098786264658">
        <ele>2.71484375</ele>
      </trkpt>
      <trkpt lat="41.176274176687002" lon="-8.691278714686632">
        <ele>3.1953125</ele>
      </trkpt>
      <trkpt lat="41.17650811560452" lon="-8.69143302552402">
        <ele>3.390625</ele>
      </trkpt>
      <trkpt lat="41.176724368706346" lon="-8.691615331918001">
        <ele>3.7265625</ele>
      </trkpt>
      <trkpt lat="41.176944896578789" lon="-8.691784730181098">
        <ele>4</ele>
      </trkpt>
      <trkpt lat="41.177185121923685" lon="-8.691981034353375">
        <ele>3.84375</ele>
      </trkpt>
      <trkpt lat="41.177468597888947" lon="-8.692190162837505">
        <ele>3.59375</ele>
      </trkpt>
      <trkpt lat="41.177712846547365" lon="-8.692362997680902">
        <ele>4.6875</ele>
      </trkpt>
      <trkpt lat="41.177913257852197" lon="-8.692524181678891">
        <ele>5.140625</ele>
      </trkpt>
      <trkpt lat="41.177913844585419" lon="-8.692524181678891">
        <ele>5.14453125</ele>
      </trkpt>
      <trkpt lat="41.178115848451853" lon="-8.692700956016779">
        <ele>5.11328125</ele>
      </trkpt>
      <trkpt lat="41.178621528670192" lon="-8.693061796948314">
        <ele>3.81640625</ele>
      </trkpt>
      <trkpt lat="41.178621528670192" lon="-8.693062802776694">
        <ele>3.8125</ele>
      </trkpt>
      <trkpt lat="41.178947584703565" lon="-8.693330017849803">
        <ele>3.6328125</ele>
      </trkpt>
      <trkpt lat="41.178974993526936" lon="-8.693367904052138">
        <ele>3.5625</ele>
      </trkpt>
      <trkpt lat="41.179009443148971" lon="-8.693398497998714">
        <ele>3.53515625</ele>
      </trkpt>
      <trkpt lat="41.179048167541623" lon="-8.693431774154305">
        <ele>3.5078125</ele>
      </trkpt>
      <trkpt lat="41.179080689325929" lon="-8.69346228428185">
        <ele>3.48046875</ele>
      </trkpt>
      <trkpt lat="41.179118491709232" lon="-8.693493297323585">
        <ele>3.484375</ele>
      </trkpt>
      <trkpt lat="41.179152941331267" lon="-8.693518778309226">
        <ele>3.5</ele>
      </trkpt>
      <trkpt lat="41.179190240800381" lon="-8.693545432761312">
        <ele>3.5234375</ele>
      </trkpt>
      <trkpt lat="41.179226031526923" lon="-8.693569153547287">
        <ele>3.5546875</ele>
      </trkpt>
      <trkpt lat="41.179265175014734" lon="-8.693605866283178">
        <ele>3.55859375</ele>
      </trkpt>
      <trkpt lat="41.179297361522913" lon="-8.693633191287518">
        <ele>3.5703125</ele>
      </trkpt>
      <trkpt lat="41.179328374564648" lon="-8.693663030862808">
        <ele>3.57421875</ele>
      </trkpt>
      <trkpt lat="41.179360896348953" lon="-8.693691026419401">
        <ele>3.59375</ele>
      </trkpt>
      <trkpt lat="41.179397189989686" lon="-8.693712819367647">
        <ele>3.6484375</ele>
      </trkpt>
      <trkpt lat="41.17943356744945" lon="-8.693732265383005">
        <ele>3.7109375</ele>
      </trkpt>
      <trkpt lat="41.179474471136928" lon="-8.693751627579331">
        <ele>3.7890625</ele>
      </trkpt>
      <trkpt lat="41.179511602967978" lon="-8.693768056109548">
        <ele>3.8671875</ele>
      </trkpt>
      <trkpt lat="41.179547812789679" lon="-8.693789429962635">
        <ele>3.93359375</ele>
      </trkpt>
      <trkpt lat="41.179585447534919" lon="-8.693804601207376">
        <ele>4.01953125</ele>
      </trkpt>
      <trkpt lat="41.179624255746603" lon="-8.693821365013719">
        <ele>4.109375</ele>
      </trkpt>
      <trkpt lat="41.179662896320224" lon="-8.693834189325571">
        <ele>4.2109375</ele>
      </trkpt>
      <trkpt lat="41.17969986051321" lon="-8.693845001980662">
        <ele>4.3125</ele>
      </trkpt>
      <trkpt lat="41.179738165810704" lon="-8.693857155740261">
        <ele>4.4140625</ele>
      </trkpt>
      <trkpt lat="41.179775046184659" lon="-8.693869141861796">
        <ele>4.515625</ele>
      </trkpt>
      <trkpt lat="41.1798161175102" lon="-8.693886157125235">
        <ele>4.58984375</ele>
      </trkpt>
      <trkpt lat="41.179859871044755" lon="-8.693901412189007">
        <ele>4.671875</ele>
      </trkpt>
      <trkpt lat="41.179903373122215" lon="-8.693909207358956">
        <ele>4.7890625</ele>
      </trkpt>
      <trkpt lat="41.179943354800344" lon="-8.693914404138923">
        <ele>4.91015625</ele>
      </trkpt>
      <trkpt lat="41.179986856877804" lon="-8.693919433280826">
        <ele>5.046875</ele>
      </trkpt>
      <trkpt lat="41.180024826899171" lon="-8.693926306441426">
        <ele>5.15234375</ele>
      </trkpt>
      <trkpt lat="41.180068580433726" lon="-8.693933263421059">
        <ele>5.28125</ele>
      </trkpt>
      <trkpt lat="41.180113591253757" lon="-8.69394164532423">
        <ele>5.41015625</ele>
      </trkpt>
      <trkpt lat="41.180152399465442" lon="-8.693951452150941">
        <ele>5.51171875</ele>
      </trkpt>
      <trkpt lat="41.180192213505507" lon="-8.693961510434747">
        <ele>5.61328125</ele>
      </trkpt>
      <trkpt lat="41.180233620107174" lon="-8.693976514041424">
        <ele>5.703125</ele>
      </trkpt>
      <trkpt lat="41.180271506309509" lon="-8.693987410515547">
        <ele>5.80078125</ele>
      </trkpt>
      <trkpt lat="41.180309895426035" lon="-8.694000653922558">
        <ele>5.890625</ele>
      </trkpt>
      <trkpt lat="41.180347865447402" lon="-8.69400953873992">
        <ele>5.99609375</ele>
      </trkpt>
      <trkpt lat="41.180385835468769" lon="-8.694023871794343">
        <ele>6.08203125</ele>
      </trkpt>
      <trkpt lat="41.180410142987967" lon="-8.694031331688166">
        <ele>6.14453125</ele>
      </trkpt>
      <trkpt lat="41.180551294237375" lon="-8.694082628935575">
        <ele>6.484375</ele>
      </trkpt>
      <trkpt lat="41.18058180436492" lon="-8.694108696654439">
        <ele>6.50390625</ele>
      </trkpt>
      <trkpt lat="41.180612314492464" lon="-8.694135686382651">
        <ele>6.5234375</ele>
      </trkpt>
      <trkpt lat="41.180646428838372" lon="-8.694158233702183">
        <ele>6.57421875</ele>
      </trkpt>
      <trkpt lat="41.180682554841042" lon="-8.694190755486488">
        <ele>6.6015625</ele>
      </trkpt>
      <trkpt lat="41.180716250091791" lon="-8.694214895367622">
        <ele>6.6484375</ele>
      </trkpt>
      <trkpt lat="41.180753130465746" lon="-8.694228725507855">
        <ele>6.71875</ele>
      </trkpt>
      <trkpt lat="41.18079193867743" lon="-8.694244399666786">
        <ele>6.7109375</ele>
      </trkpt>
      <trkpt lat="41.180831333622336" lon="-8.694254290312529">
        <ele>6.72265625</ele>
      </trkpt>
      <trkpt lat="41.180868968367577" lon="-8.694265019148588">
        <ele>6.7265625</ele>
      </trkpt>
      <trkpt lat="41.18090626783669" lon="-8.694269210100174">
        <ele>6.7578125</ele>
      </trkpt>
      <trkpt lat="41.180944992229342" lon="-8.694272562861443">
        <ele>6.79296875</ele>
      </trkpt>
      <trkpt lat="41.180983716621995" lon="-8.694267366081476">
        <ele>6.85546875</ele>
      </trkpt>
      <trkpt lat="41.181020932272077" lon="-8.694256637245417">
        <ele>6.94140625</ele>
      </trkpt>
      <trkpt lat="41.181056722998619" lon="-8.694240879267454">
        <ele>7.0390625</ele>
      </trkpt>
      <trkpt lat="41.181092681363225" lon="-8.694221936166286">
        <ele>7.15234375</ele>
      </trkpt>
      <trkpt lat="41.181125873699784" lon="-8.694200394675136">
        <ele>7.26953125</ele>
      </trkpt>
      <trkpt lat="41.181161245331168" lon="-8.694181870669127">
        <ele>7.37890625</ele>
      </trkpt>
      <trkpt lat="41.18119846098125" lon="-8.69416544213891">
        <ele>7.48046875</ele>
      </trkpt>
      <trkpt lat="41.181235676631331" lon="-8.694150354713202">
        <ele>7.58203125</ele>
      </trkpt>
      <trkpt lat="41.181273646652699" lon="-8.694136021658778">
        <ele>7.6796875</ele>
      </trkpt>
      <trkpt lat="41.181311449036002" lon="-8.694121353328228">
        <ele>7.77734375</ele>
      </trkpt>
      <trkpt lat="41.181347575038671" lon="-8.694106182083488">
        <ele>7.875</ele>
      </trkpt>
      <trkpt lat="41.181386634707451" lon="-8.694084556773305">
        <ele>8</ele>
      </trkpt>
      <trkpt lat="41.181419743224978" lon="-8.694058656692505">
        <ele>8.1328125</ele>
      </trkpt>
      <trkpt lat="41.181452516466379" lon="-8.694031331688166">
        <ele>8.26953125</ele>
      </trkpt>
      <trkpt lat="41.181488810107112" lon="-8.694008952006698">
        <ele>8.39453125</ele>
      </trkpt>
      <trkpt lat="41.181528372690082" lon="-8.693996462970972">
        <ele>8.48828125</ele>
      </trkpt>
      <trkpt lat="41.181565169245005" lon="-8.693979196250439">
        <ele>8.59375</ele>
      </trkpt>
      <trkpt lat="41.181601127609611" lon="-8.693958660587668">
        <ele>8.74609375</ele>
      </trkpt>
      <trkpt lat="41.181636415421963" lon="-8.693934269249439">
        <ele>8.921875</ele>
      </trkpt>
      <trkpt lat="41.181675307452679" lon="-8.693914068862796">
        <ele>9.0859375</ele>
      </trkpt>
      <trkpt lat="41.181712355464697" lon="-8.693894287571311">
        <ele>9.24609375</ele>
      </trkpt>
      <trkpt lat="41.181750157848001" lon="-8.69387811049819">
        <ele>9.390625</ele>
      </trkpt>
      <trkpt lat="41.181789133697748" lon="-8.69387174025178">
        <ele>9.5078125</ele>
      </trkpt>
      <trkpt lat="41.181827438995242" lon="-8.693868638947606">
        <ele>9.609375</ele>
      </trkpt>
      <trkpt lat="41.181865157559514" lon="-8.693877104669809">
        <ele>9.671875</ele>
      </trkpt>
      <trkpt lat="41.181897595524788" lon="-8.69390157982707">
        <ele>9.67578125</ele>
      </trkpt>
      <trkpt lat="41.181901954114437" lon="-8.693907279521227">
        <ele>9.66796875</ele>
      </trkpt>
      <trkpt lat="41.182235302403569" lon="-8.69422847405076">
        <ele>9.6328125</ele>
      </trkpt>
      <trkpt lat="41.182235302403569" lon="-8.69422847405076">
        <ele>9.6328125</ele>
      </trkpt>
      <trkpt lat="41.182555574923754" lon="-8.694473141804338">
        <ele>9.7265625</ele>
      </trkpt>
      <trkpt lat="41.182554988190532" lon="-8.694472219794989">
        <ele>9.73046875</ele>
      </trkpt>
      <trkpt lat="41.182791609317064" lon="-8.694722168147564">
        <ele>9.4140625</ele>
      </trkpt>
      <trkpt lat="41.183158317580819" lon="-8.695079488679767">
        <ele>8.99609375</ele>
      </trkpt>
      <trkpt lat="41.183162927627563" lon="-8.695079488679767">
        <ele>9</ele>
      </trkpt>
      <trkpt lat="41.183381527662277" lon="-8.695272607728839">
        <ele>8.62890625</ele>
      </trkpt>
      <trkpt lat="41.183394184336066" lon="-8.695322815328836">
        <ele>8.51171875</ele>
      </trkpt>
      <trkpt lat="41.183408433571458" lon="-8.695373274385929">
        <ele>8.390625</ele>
      </trkpt>
      <trkpt lat="41.18342905305326" lon="-8.695416273549199">
        <ele>8.28515625</ele>
      </trkpt>
      <trkpt lat="41.183454198762774" lon="-8.695453489199281">
        <ele>8.1953125</ele>
      </trkpt>
      <trkpt lat="41.183486636728048" lon="-8.695482155308127">
        <ele>8.12890625</ele>
      </trkpt>
      <trkpt lat="41.183523265644908" lon="-8.695510402321815">
        <ele>8.05859375</ele>
      </trkpt>
      <trkpt lat="41.183548495173454" lon="-8.695534374564886">
        <ele>8.00390625</ele>
      </trkpt>
      <trkpt lat="41.183928698301315" lon="-8.695875937119126">
        <ele>7.18359375</ele>
      </trkpt>
      <trkpt lat="41.184229357168078" lon="-8.69612529873848">
        <ele>6.63671875</ele>
      </trkpt>
      <trkpt lat="41.184260789304972" lon="-8.696162262931466">
        <ele>6.55078125</ele>
      </trkpt>
      <trkpt lat="41.184297921136022" lon="-8.696203250437975">
        <ele>6.44921875</ele>
      </trkpt>
      <trkpt lat="41.184337651357055" lon="-8.69624356739223">
        <ele>6.34765625</ele>
      </trkpt>
      <trkpt lat="41.184372939169407" lon="-8.69627776555717">
        <ele>6.25390625</ele>
      </trkpt>
      <trkpt lat="41.184409148991108" lon="-8.69631196372211">
        <ele>6.16015625</ele>
      </trkpt>
      <trkpt lat="41.184442425146699" lon="-8.696342976763844">
        <ele>6.07421875</ele>
      </trkpt>
      <trkpt lat="41.184478383511305" lon="-8.696379438042641">
        <ele>5.98046875</ele>
      </trkpt>
      <trkpt lat="41.184507552534342" lon="-8.696412378922105">
        <ele>5.91796875</ele>
      </trkpt>
      <trkpt lat="41.18454216979444" lon="-8.696451103314757">
        <ele>5.84375</ele>
      </trkpt>
      <trkpt lat="41.184576535597444" lon="-8.696488402783871">
        <ele>5.76953125</ele>
      </trkpt>
      <trkpt lat="41.184611907228827" lon="-8.696523942053318">
        <ele>5.69140625</ele>
      </trkpt>
      <trkpt lat="41.184649793431163" lon="-8.696556715294719">
        <ele>5.6171875</ele>
      </trkpt>
      <trkpt lat="41.184692373499274" lon="-8.6965939309448">
        <ele>5.52734375</ele>
      </trkpt>
      <trkpt lat="41.184731936082244" lon="-8.69663106277585">
        <ele>5.43359375</ele>
      </trkpt>
      <trkpt lat="41.184764206409454" lon="-8.696658136323094">
        <ele>5.36328125</ele>
      </trkpt>
      <trkpt lat="41.184801673516631" lon="-8.696688311174512">
        <ele>5.27734375</ele>
      </trkpt>
      <trkpt lat="41.184842241927981" lon="-8.696718318387866">
        <ele>5.19140625</ele>
      </trkpt>
      <trkpt lat="41.184878116473556" lon="-8.69673709385097">
        <ele>5.12890625</ele>
      </trkpt>
      <trkpt lat="41.184913907200098" lon="-8.696753354743123">
        <ele>5.078125</ele>
      </trkpt>
      <trkpt lat="41.184954727068543" lon="-8.696765508502722">
        <ele>5.07421875</ele>
      </trkpt>
      <trkpt lat="41.18499755859375" lon="-8.696781517937779">
        <ele>5.0625</ele>
      </trkpt>
      <trkpt lat="41.185036450624466" lon="-8.696793587878346">
        <ele>5.05859375</ele>
      </trkpt>
      <trkpt lat="41.185075342655182" lon="-8.696802137419581">
        <ele>5.0625</ele>
      </trkpt>
      <trkpt lat="41.185115743428469" lon="-8.696808256208897">
        <ele>5.07421875</ele>
      </trkpt>
      <trkpt lat="41.185154803097248" lon="-8.696809513494372">
        <ele>5.09765625</ele>
      </trkpt>
      <trkpt lat="41.18519545532763" lon="-8.696809597313404">
        <ele>5.125</ele>
      </trkpt>
      <trkpt lat="41.185236861929297" lon="-8.696812195703387">
        <ele>5.14453125</ele>
      </trkpt>
      <trkpt lat="41.185276508331299" lon="-8.696814626455307">
        <ele>5.1640625</ele>
      </trkpt>
      <trkpt lat="41.185314310714602" lon="-8.69681135751307">
        <ele>5.1953125</ele>
      </trkpt>
      <trkpt lat="41.185354627668858" lon="-8.696803562343121">
        <ele>5.234375</ele>
      </trkpt>
      <trkpt lat="41.185392597690225" lon="-8.696797527372837">
        <ele>5.26953125</ele>
      </trkpt>
      <trkpt lat="41.185430232435465" lon="-8.6967908218503">
        <ele>5.3046875</ele>
      </trkpt>
      <trkpt lat="41.185470297932625" lon="-8.696774477139115">
        <ele>5.35546875</ele>
      </trkpt>
      <trkpt lat="41.185506256297231" lon="-8.696756204590201">
        <ele>5.40234375</ele>
      </trkpt>
      <trkpt lat="41.185543471947312" lon="-8.69673952460289">
        <ele>5.44921875</ele>
      </trkpt>
      <trkpt lat="41.185572976246476" lon="-8.696723766624928">
        <ele>5.48828125</ele>
      </trkpt>
      <trkpt lat="41.185697950422764" lon="-8.69660415686667">
        <ele>5.703125</ele>
      </trkpt>
      <trkpt lat="41.185730220749974" lon="-8.696581525728106">
        <ele>5.7421875</ele>
      </trkpt>
      <trkpt lat="41.185764502733946" lon="-8.696554284542799">
        <ele>5.73046875</ele>
      </trkpt>
      <trkpt lat="41.185801466926932" lon="-8.696527127176523">
        <ele>5.70703125</ele>
      </trkpt>
      <trkpt lat="41.185832060873508" lon="-8.69649569503963">
        <ele>5.69921875</ele>
      </trkpt>
      <trkpt lat="41.185859218239784" lon="-8.696460071951151">
        <ele>5.71484375</ele>
      </trkpt>
      <trkpt lat="41.185887632891536" lon="-8.696424113586545">
        <ele>5.73046875</ele>
      </trkpt>
      <trkpt lat="41.185913365334272" lon="-8.696386059746146">
        <ele>5.76171875</ele>
      </trkpt>
      <trkpt lat="41.185942953452468" lon="-8.696354879066348">
        <ele>5.78515625</ele>
      </trkpt>
      <trkpt lat="41.185976648703218" lon="-8.696316322311759">
        <ele>5.83984375</ele>
      </trkpt>
      <trkpt lat="41.186005985364318" lon="-8.696279944851995">
        <ele>5.890625</ele>
      </trkpt>
      <trkpt lat="41.186036160215735" lon="-8.696243483573198">
        <ele>5.94140625</ele>
      </trkpt>
      <trkpt lat="41.186062982305884" lon="-8.69620593264699">
        <ele>6</ele>
      </trkpt>
      <trkpt lat="41.186087541282177" lon="-8.696165196597576">
        <ele>6.0703125</ele>
      </trkpt>
      <trkpt lat="41.186095084995031" lon="-8.696155808866024">
        <ele>6.08203125</ele>
      </trkpt>
      <trkpt lat="41.186471851542592" lon="-8.695583827793598">
        <ele>7.00390625</ele>
      </trkpt>
      <trkpt lat="41.186471851542592" lon="-8.695582905784249">
        <ele>7.00390625</ele>
      </trkpt>
      <trkpt lat="41.18684702552855" lon="-8.69500782340765">
        <ele>6.82421875</ele>
      </trkpt>
      <trkpt lat="41.18684702552855" lon="-8.695006901398301">
        <ele>6.828125</ele>
      </trkpt>
      <trkpt lat="41.187363602221012" lon="-8.694290164858103">
        <ele>5.71875</ele>
      </trkpt>
      <trkpt lat="41.187534173950553" lon="-8.693921277299523">
        <ele>5.31640625</ele>
      </trkpt>
      <trkpt lat="41.18771044537425" lon="-8.693620031699538">
        <ele>4.91015625</ele>
      </trkpt>
      <trkpt lat="41.187857883051038" lon="-8.693261621519923">
        <ele>4.48828125</ele>
      </trkpt>
      <trkpt lat="41.188273709267378" lon="-8.693859083577991">
        <ele>1.9140625</ele>
      </trkpt>
      <trkpt lat="41.1882742960006" lon="-8.693860005587339">
        <ele>1.91015625</ele>
      </trkpt>
      <trkpt lat="41.189074348658323" lon="-8.694733902812004">
        <ele>0.0859375</ele>
      </trkpt>
      <trkpt lat="41.189560163766146" lon="-8.695330526679754">
        <ele>2.2421875</ele>
      </trkpt>
      <trkpt lat="41.189892925322056" lon="-8.695648033171892">
        <ele>3.53125</ele>
      </trkpt>
      <trkpt lat="41.189893009141088" lon="-8.695647111162543">
        <ele>3.5234375</ele>
      </trkpt>
      <trkpt lat="41.190122254192829" lon="-8.695852300152183">
        <ele>6.1015625</ele>
      </trkpt>
      <trkpt lat="41.190159134566784" lon="-8.695890437811613">
        <ele>6.55078125</ele>
      </trkpt>
      <trkpt lat="41.190198278054595" lon="-8.6959274020046">
        <ele>7.0078125</ele>
      </trkpt>
      <trkpt lat="41.190239433199167" lon="-8.695967132225633">
        <ele>7.49609375</ele>
      </trkpt>
      <trkpt lat="41.190271703526378" lon="-8.695998815819621">
        <ele>7.87890625</ele>
      </trkpt>
      <trkpt lat="41.190306739881635" lon="-8.696021027863026">
        <ele>8.23828125</ele>
      </trkpt>
      <trkpt lat="41.190341776236892" lon="-8.696044832468033">
        <ele>8.60546875</ele>
      </trkpt>
      <trkpt lat="41.190377650782466" lon="-8.696071235463023">
        <ele>8.9921875</ele>
      </trkpt>
      <trkpt lat="41.190414279699326" lon="-8.696098309010267">
        <ele>9.38671875</ele>
      </trkpt>
      <trkpt lat="41.190446047112346" lon="-8.69612923823297">
        <ele>9.76171875</ele>
      </trkpt>
      <trkpt lat="41.190478317439556" lon="-8.696168046444654">
        <ele>10.18359375</ele>
      </trkpt>
      <trkpt lat="41.190506899729371" lon="-8.696201406419277">
        <ele>10.546875</ele>
      </trkpt>
      <trkpt lat="41.190536571666598" lon="-8.696235520765185">
        <ele>10.92578125</ele>
      </trkpt>
      <trkpt lat="41.190566830337048" lon="-8.69627189822495">
        <ele>11.3203125</ele>
      </trkpt>
      <trkpt lat="41.190596083179116" lon="-8.696308024227619">
        <ele>11.703125</ele>
      </trkpt>
      <trkpt lat="41.190622318536043" lon="-8.69635202921927">
        <ele>12.1015625</ele>
      </trkpt>
      <trkpt lat="41.190644614398479" lon="-8.696402069181204">
        <ele>12.46875</ele>
      </trkpt>
      <trkpt lat="41.190663808956742" lon="-8.696446157991886">
        <ele>12.76953125</ele>
      </trkpt>
      <trkpt lat="41.190685769543052" lon="-8.696491252630949">
        <ele>13.08984375</ele>
      </trkpt>
      <trkpt lat="41.190702952444553" lon="-8.696536514908075">
        <ele>13.375</ele>
      </trkpt>
      <trkpt lat="41.190708735957742" lon="-8.696590159088373">
        <ele>13.61328125</ele>
      </trkpt>
      <trkpt lat="41.190708065405488" lon="-8.696646904572845">
        <ele>13.8125</ele>
      </trkpt>
      <trkpt lat="41.190704293549061" lon="-8.696698034182191">
        <ele>13.97265625</ele>
      </trkpt>
      <trkpt lat="41.190697839483619" lon="-8.696747738867998">
        <ele>14.11328125</ele>
      </trkpt>
      <trkpt lat="41.190693313255906" lon="-8.696799203753471">
        <ele>14.26953125</ele>
      </trkpt>
      <trkpt lat="41.190690714865923" lon="-8.696850752457976">
        <ele>14.44140625</ele>
      </trkpt>
      <trkpt lat="41.190687445923686" lon="-8.69690221734345">
        <ele>14.609375</ele>
      </trkpt>
      <trkpt lat="41.190684176981449" lon="-8.696952341124415">
        <ele>14.7734375</ele>
      </trkpt>
      <trkpt lat="41.190681913867593" lon="-8.697008416056633">
        <ele>14.96484375</ele>
      </trkpt>
      <trkpt lat="41.190681159496307" lon="-8.697068262845278">
        <ele>15.18359375</ele>
      </trkpt>
      <trkpt lat="41.190680237486959" lon="-8.697125511243939">
        <ele>15.38671875</ele>
      </trkpt>
      <trkpt lat="41.190678812563419" lon="-8.697178484871984">
        <ele>15.57421875</ele>
      </trkpt>
      <trkpt lat="41.190674202516675" lon="-8.697229446843266">
        <ele>15.6953125</ele>
      </trkpt>
      <trkpt lat="41.190667916089296" lon="-8.697286695241928">
        <ele>15.796875</ele>
      </trkpt>
      <trkpt lat="41.190663054585457" lon="-8.697348302230239">
        <ele>15.9140625</ele>
      </trkpt>
      <trkpt lat="41.190657606348395" lon="-8.69740747846663">
        <ele>16.0234375</ele>
      </trkpt>
      <trkpt lat="41.190654085949063" lon="-8.697467660531402">
        <ele>16.1484375</ele>
      </trkpt>
      <trkpt lat="41.190647631883621" lon="-8.697520969435573">
        <ele>16.23828125</ele>
      </trkpt>
      <trkpt lat="41.190637992694974" lon="-8.697575954720378">
        <ele>16.3125</ele>
      </trkpt>
      <trkpt lat="41.19063095189631" lon="-8.697626329958439">
        <ele>16.390625</ele>
      </trkpt>
      <trkpt lat="41.190623743459582" lon="-8.697687182575464">
        <ele>16.4921875</ele>
      </trkpt>
      <trkpt lat="41.19061921723187" lon="-8.69774024002254">
        <ele>16.59375</ele>
      </trkpt>
      <trkpt lat="41.190620055422187" lon="-8.697797488421202">
        <ele>16.734375</ele>
      </trkpt>
      <trkpt lat="41.190622486174107" lon="-8.69784920476377">
        <ele>16.875</ele>
      </trkpt>
      <trkpt lat="41.190622486174107" lon="-8.697911063209176">
        <ele>17.0234375</ele>
      </trkpt>
      <trkpt lat="41.190627431496978" lon="-8.697966132313013">
        <ele>17.18359375</ele>
      </trkpt>
      <trkpt lat="41.190632293000817" lon="-8.698020027950406">
        <ele>17.34375</ele>
      </trkpt>
      <trkpt lat="41.190637908875942" lon="-8.698081383481622">
        <ele>17.47265625</ele>
      </trkpt>
      <trkpt lat="41.190641093999147" lon="-8.698132680729032">
        <ele>17.5625</ele>
      </trkpt>
      <trkpt lat="41.190642770379782" lon="-8.698197053745389">
        <ele>17.65625</ele>
      </trkpt>
      <trkpt lat="41.19064511731267" lon="-8.698248770087957">
        <ele>17.73828125</ele>
      </trkpt>
      <trkpt lat="41.190646793693304" lon="-8.698303671553731">
        <ele>17.82421875</ele>
      </trkpt>
      <trkpt lat="41.190648470073938" lon="-8.698362093418837">
        <ele>17.91015625</ele>
      </trkpt>
      <trkpt lat="41.190648470073938" lon="-8.69842579588294">
        <ele>17.9921875</ele>
      </trkpt>
      <trkpt lat="41.190646877512336" lon="-8.698488073423505">
        <ele>18.06640625</ele>
      </trkpt>
      <trkpt lat="41.190642938017845" lon="-8.698538197204471">
        <ele>18.11328125</ele>
      </trkpt>
      <trkpt lat="41.190637489780784" lon="-8.69859385304153">
        <ele>18.16015625</ele>
      </trkpt>
      <trkpt lat="41.190632293000817" lon="-8.698655627667904">
        <ele>18.21484375</ele>
      </trkpt>
      <trkpt lat="41.190623324364424" lon="-8.698711115866899">
        <ele>18.24609375</ele>
      </trkpt>
      <trkpt lat="41.190615864470601" lon="-8.698764340952039">
        <ele>18.28125</ele>
      </trkpt>
      <trkpt lat="41.190608656033874" lon="-8.69881764985621">
        <ele>18.3203125</ele>
      </trkpt>
      <trkpt lat="41.190597591921687" lon="-8.698885124176741">
        <ele>18.31640625</ele>
      </trkpt>
      <trkpt lat="41.190589712932706" lon="-8.698942456394434">
        <ele>18.22265625</ele>
      </trkpt>
      <trkpt lat="41.190581917762756" lon="-8.698995094746351">
        <ele>18.1328125</ele>
      </trkpt>
      <trkpt lat="41.190573535859585" lon="-8.699045721441507">
        <ele>18.046875</ele>
      </trkpt>
      <trkpt lat="41.19056599214673" lon="-8.699096934869885">
        <ele>17.9609375</ele>
      </trkpt>
      <trkpt lat="41.190556939691305" lon="-8.69914697483182">
        <ele>17.875</ele>
      </trkpt>
      <trkpt lat="41.190547216683626" lon="-8.699202043935657">
        <ele>17.78125</ele>
      </trkpt>
      <trkpt lat="41.190543193370104" lon="-8.699264489114285">
        <ele>17.70703125</ele>
      </trkpt>
      <trkpt lat="41.190541433170438" lon="-8.699321737512946">
        <ele>17.64453125</ele>
      </trkpt>
      <trkpt lat="41.190540678799152" lon="-8.699379153549671">
        <ele>17.58984375</ele>
      </trkpt>
      <trkpt lat="41.190548557788134" lon="-8.69943774305284">
        <ele>17.56640625</ele>
      </trkpt>
      <trkpt lat="41.190556520596147" lon="-8.699492895975709">
        <ele>17.546875</ele>
      </trkpt>
      <trkpt lat="41.190566159784794" lon="-8.699544696137309">
        <ele>17.53515625</ele>
      </trkpt>
      <trkpt lat="41.190576972439885" lon="-8.699600100517273">
        <ele>17.5234375</ele>
      </trkpt>
      <trkpt lat="41.190584683790803" lon="-8.699649637565017">
        <ele>17.50390625</ele>
      </trkpt>
      <trkpt lat="41.190587533637881" lon="-8.699654163792729">
        <ele>17.5078125</ele>
      </trkpt>
      <trkpt lat="41.1906021181494" lon="-8.69980176910758">
        <ele>17.43359375</ele>
      </trkpt>
      <trkpt lat="41.1906021181494" lon="-8.699859520420432">
        <ele>17.38671875</ele>
      </trkpt>
      <trkpt lat="41.190603040158749" lon="-8.699920708313584">
        <ele>17.33984375</ele>
      </trkpt>
      <trkpt lat="41.190599352121353" lon="-8.699983907863498">
        <ele>17.27734375</ele>
      </trkpt>
      <trkpt lat="41.190597424283624" lon="-8.700037719681859">
        <ele>17.23046875</ele>
      </trkpt>
      <trkpt lat="41.190595664083958" lon="-8.700093207880855">
        <ele>17.1796875</ele>
      </trkpt>
      <trkpt lat="41.190595664083958" lon="-8.700151545926929">
        <ele>17.1328125</ele>
      </trkpt>
      <trkpt lat="41.190595664083958" lon="-8.700203010812402">
        <ele>17.09375</ele>
      </trkpt>
      <trkpt lat="41.190596502274275" lon="-8.70026302523911">
        <ele>17.046875</ele>
      </trkpt>
      <trkpt lat="41.190596502274275" lon="-8.700318848714232">
        <ele>17.00390625</ele>
      </trkpt>
      <trkpt lat="41.190596502274275" lon="-8.700374504551291">
        <ele>16.95703125</ele>
      </trkpt>
      <trkpt lat="41.190597424283624" lon="-8.700434938073158">
        <ele>16.91015625</ele>
      </trkpt>
      <trkpt lat="41.190598430112004" lon="-8.7004931923002">
        <ele>16.8671875</ele>
      </trkpt>
      <trkpt lat="41.190598430112004" lon="-8.700551614165306">
        <ele>16.8203125</ele>
      </trkpt>
      <trkpt lat="41.190599268302321" lon="-8.70060358196497">
        <ele>16.77734375</ele>
      </trkpt>
      <trkpt lat="41.190599268302321" lon="-8.700660998001695">
        <ele>16.73046875</ele>
      </trkpt>
      <trkpt lat="41.190598513931036" lon="-8.700716570019722">
        <ele>16.6875</ele>
      </trkpt>
      <trkpt lat="41.190596921369433" lon="-8.700771722942591">
        <ele>16.640625</ele>
      </trkpt>
      <trkpt lat="41.190595496445894" lon="-8.700826792046428">
        <ele>16.59765625</ele>
      </trkpt>
      <trkpt lat="41.190592311322689" lon="-8.700880017131567">
        <ele>16.5546875</ele>
      </trkpt>
      <trkpt lat="41.19058795273304" lon="-8.700947659090161">
        <ele>16.5</ele>
      </trkpt>
      <trkpt lat="41.190584264695644" lon="-8.701017061248422">
        <ele>16.44921875</ele>
      </trkpt>
      <trkpt lat="41.190581247210503" lon="-8.701077159494162">
        <ele>16.40234375</ele>
      </trkpt>
      <trkpt lat="41.19057672098279" lon="-8.70113960467279">
        <ele>16.359375</ele>
      </trkpt>
      <trkpt lat="41.190571105107665" lon="-8.70119484141469">
        <ele>16.3203125</ele>
      </trkpt>
      <trkpt lat="41.190566830337048" lon="-8.701253095641732">
        <ele>16.28125</ele>
      </trkpt>
      <trkpt lat="41.190562471747398" lon="-8.701308500021696">
        <ele>16.25</ele>
      </trkpt>
      <trkpt lat="41.190558113157749" lon="-8.701364072039723">
        <ele>16.21484375</ele>
      </trkpt>
      <trkpt lat="41.190553084015846" lon="-8.701426768675447">
        <ele>16.16015625</ele>
      </trkpt>
      <trkpt lat="41.190549395978451" lon="-8.701491896063089">
        <ele>16.10546875</ele>
      </trkpt>
      <trkpt lat="41.190545875579119" lon="-8.701547551900148">
        <ele>16.05859375</ele>
      </trkpt>
      <trkpt lat="41.190544031560421" lon="-8.701601112261415">
        <ele>16.01171875</ele>
      </trkpt>
      <trkpt lat="41.190542103722692" lon="-8.701652577146888">
        <ele>15.96875</ele>
      </trkpt>
      <trkpt lat="41.190541181713343" lon="-8.70171376504004">
        <ele>15.9140625</ele>
      </trkpt>
      <trkpt lat="41.190541181713343" lon="-8.701771600171924">
        <ele>15.859375</ele>
      </trkpt>
      <trkpt lat="41.190540343523026" lon="-8.701827758923173">
        <ele>15.80859375</ele>
      </trkpt>
      <trkpt lat="41.190540343523026" lon="-8.701886935159564">
        <ele>15.75390625</ele>
      </trkpt>
      <trkpt lat="41.190537745133042" lon="-8.70193705894053">
        <ele>15.71484375</ele>
      </trkpt>
      <trkpt lat="41.190533051267266" lon="-8.701987434178591">
        <ele>15.6796875</ele>
      </trkpt>
      <trkpt lat="41.190529866144061" lon="-8.702045856043696">
        <ele>15.6328125</ele>
      </trkpt>
      <trkpt lat="41.190523495897651" lon="-8.702122634276748">
        <ele>15.578125</ele>
      </trkpt>
      <trkpt lat="41.190522406250238" lon="-8.702179547399282">
        <ele>15.53125</ele>
      </trkpt>
      <trkpt lat="41.190520226955414" lon="-8.702261857688427">
        <ele>15.57421875</ele>
      </trkpt>
      <trkpt lat="41.190517796203494" lon="-8.702378952875733">
        <ele>15.67578125</ele>
      </trkpt>
      <trkpt lat="41.190517796203494" lon="-8.702446427196264">
        <ele>15.73046875</ele>
      </trkpt>
      <trkpt lat="41.190515952184796" lon="-8.702505687251687">
        <ele>15.78125</ele>
      </trkpt>
      <trkpt lat="41.190513521432877" lon="-8.702560840174556">
        <ele>15.82421875</ele>
      </trkpt>
      <trkpt lat="41.190512683242559" lon="-8.702612472698092">
        <ele>15.86328125</ele>
      </trkpt>
      <trkpt lat="41.190511761233211" lon="-8.702673660591245">
        <ele>15.91015625</ele>
      </trkpt>
      <trkpt lat="41.190510923042893" lon="-8.702739626169205">
        <ele>15.9609375</ele>
      </trkpt>
      <trkpt lat="41.190509079024196" lon="-8.702803160995245">
        <ele>16.0078125</ele>
      </trkpt>
      <trkpt lat="41.190508240833879" lon="-8.702863343060017">
        <ele>16.05078125</ele>
      </trkpt>
      <trkpt lat="41.190505474805832" lon="-8.702929140999913">
        <ele>16.09375</ele>
      </trkpt>
      <trkpt lat="41.190504720434546" lon="-8.702987646684051">
        <ele>16.13671875</ele>
      </trkpt>
      <trkpt lat="41.19050002656877" lon="-8.703039446845651">
        <ele>16.109375</ele>
      </trkpt>
      <trkpt lat="41.190499104559422" lon="-8.703091582283378">
        <ele>15.875</ele>
      </trkpt>
      <trkpt lat="41.190495667979121" lon="-8.703128797933459">
        <ele>15.6953125</ele>
      </trkpt>
      <trkpt lat="41.190453674644232" lon="-8.703231643885374">
        <ele>15.09765625</ele>
      </trkpt>
      <trkpt lat="41.190441101789474" lon="-8.703279923647642">
        <ele>14.84765625</ele>
      </trkpt>
      <trkpt lat="41.190432887524366" lon="-8.703336166217923">
        <ele>14.57421875</ele>
      </trkpt>
      <trkpt lat="41.19043012149632" lon="-8.703386792913079">
        <ele>14.34375</ele>
      </trkpt>
      <trkpt lat="41.190429367125034" lon="-8.703446555882692">
        <ele>14.08203125</ele>
      </trkpt>
      <trkpt lat="41.190433809533715" lon="-8.703496092930436">
        <ele>13.87890625</ele>
      </trkpt>
      <trkpt lat="41.190439090132713" lon="-8.703547054901719">
        <ele>13.671875</ele>
      </trkpt>
      <trkpt lat="41.190443113446236" lon="-8.703606063500047">
        <ele>13.42578125</ele>
      </trkpt>
      <trkpt lat="41.190444873645902" lon="-8.703657612204552">
        <ele>13.203125</ele>
      </trkpt>
      <trkpt lat="41.190444873645902" lon="-8.703710669651628">
        <ele>12.96875</ele>
      </trkpt>
      <trkpt lat="41.190444119274616" lon="-8.703767750412226">
        <ele>12.71875</ele>
      </trkpt>
      <trkpt lat="41.190441772341728" lon="-8.703824914991856">
        <ele>12.4609375</ele>
      </trkpt>
      <trkpt lat="41.190437078475952" lon="-8.703884342685342">
        <ele>12.140625</ele>
      </trkpt>
      <trkpt lat="41.190433390438557" lon="-8.703949470072985">
        <ele>11.69140625</ele>
      </trkpt>
      <trkpt lat="41.190430037677288" lon="-8.704004790633917">
        <ele>11.30859375</ele>
      </trkpt>
      <trkpt lat="41.190426601096988" lon="-8.704068409278989">
        <ele>10.87109375</ele>
      </trkpt>
      <trkpt lat="41.190423332154751" lon="-8.704120293259621">
        <ele>10.515625</ele>
      </trkpt>
      <trkpt lat="41.190423332154751" lon="-8.704172093421221">
        <ele>10.1640625</ele>
      </trkpt>
      <trkpt lat="41.190425176173449" lon="-8.704236214980483">
        <ele>9.734375</ele>
      </trkpt>
      <trkpt lat="41.190427020192146" lon="-8.704297402873635">
        <ele>9.32421875</ele>
      </trkpt>
      <trkpt lat="41.190428948029876" lon="-8.704362949356437">
        <ele>8.88671875</ele>
      </trkpt>
      <trkpt lat="41.190429786220193" lon="-8.70442028157413">
        <ele>8.5</ele>
      </trkpt>
      <trkpt lat="41.19043255224824" lon="-8.704477781429887">
        <ele>8.11328125</ele>
      </trkpt>
      <trkpt lat="41.190435653552413" lon="-8.704530671238899">
        <ele>7.76171875</ele>
      </trkpt>
      <trkpt lat="41.190440515056252" lon="-8.704584063962102">
        <ele>7.40625</ele>
      </trkpt>
      <trkpt lat="41.190446047112346" lon="-8.704645251855254">
        <ele>6.99609375</ele>
      </trkpt>
      <trkpt lat="41.190450405701995" lon="-8.704701829701662">
        <ele>6.62109375</ele>
      </trkpt>
      <trkpt lat="41.190456608310342" lon="-8.704756563529372">
        <ele>6.25390625</ele>
      </trkpt>
      <trkpt lat="41.190461972728372" lon="-8.704808615148067">
        <ele>5.90625</ele>
      </trkpt>
      <trkpt lat="41.190467001870275" lon="-8.704860163852572">
        <ele>5.55859375</ele>
      </trkpt>
      <trkpt lat="41.190474210307002" lon="-8.704910203814507">
        <ele>5.2265625</ele>
      </trkpt>
      <trkpt lat="41.190498685464263" lon="-8.704952616244555">
        <ele>4.95703125</ele>
      </trkpt>
      <trkpt lat="41.190529698505998" lon="-8.704989748075604">
        <ele>4.7265625</ele>
      </trkpt>
      <trkpt lat="41.190561214461923" lon="-8.705022102221847">
        <ele>4.5234375</ele>
      </trkpt>
      <trkpt lat="41.190595580264926" lon="-8.705043308436871">
        <ele>4.40234375</ele>
      </trkpt>
      <trkpt lat="41.190633550286293" lon="-8.705058312043548">
        <ele>4.3203125</ele>
      </trkpt>
      <trkpt lat="41.19067152030766" lon="-8.705067113041878">
        <ele>4.28515625</ele>
      </trkpt>
      <trkpt lat="41.19071158580482" lon="-8.705073231831193">
        <ele>4.26953125</ele>
      </trkpt>
      <trkpt lat="41.190751399844885" lon="-8.70508287101984">
        <ele>4.33984375</ele>
      </trkpt>
      <trkpt lat="41.190788615494967" lon="-8.705100724473596">
        <ele>4.5234375</ele>
      </trkpt>
      <trkpt lat="41.190821221098304" lon="-8.70512587018311">
        <ele>4.625</ele>
      </trkpt>
      <trkpt lat="41.190849049016833" lon="-8.705160655081272">
        <ele>4.63671875</ele>
      </trkpt>
      <trkpt lat="41.190860196948051" lon="-8.70521379634738">
        <ele>4.38671875</ele>
      </trkpt>
      <trkpt lat="41.190865393728018" lon="-8.705267189070582">
        <ele>4.08984375</ele>
      </trkpt>
      <trkpt lat="41.190860364586115" lon="-8.70531739667058">
        <ele>3.71484375</ele>
      </trkpt>
      <trkpt lat="41.190851982682943" lon="-8.705369783565402">
        <ele>3.29296875</ele>
      </trkpt>
      <trkpt lat="41.190841002389789" lon="-8.705417392775416">
        <ele>2.87109375</ele>
      </trkpt>
      <trkpt lat="41.190836224704981" lon="-8.705470366403461">
        <ele>2.47265625</ele>
      </trkpt>
      <trkpt lat="41.190837565809488" lon="-8.705522920936346">
        <ele>2.13671875</ele>
      </trkpt>
      <trkpt lat="41.190847624093294" lon="-8.705569775775075">
        <ele>2.125</ele>
      </trkpt>
      <trkpt lat="41.190876122564077" lon="-8.705606907606125">
        <ele>2.33984375</ele>
      </trkpt>
      <trkpt lat="41.19090705178678" lon="-8.705639094114304">
        <ele>2.578125</ele>
      </trkpt>
      <trkpt lat="41.190943932160735" lon="-8.705662731081247">
        <ele>2.88671875</ele>
      </trkpt>
      <trkpt lat="41.190959941595793" lon="-8.705670945346355">
        <ele>3.01953125</ele>
      </trkpt>
      <trkpt lat="41.191195137798786" lon="-8.705837409943342">
        <ele>4.5703125</ele>
      </trkpt>
      <trkpt lat="41.191197149455547" lon="-8.705838415771723">
        <ele>4.58203125</ele>
      </trkpt>
      <trkpt lat="41.191461514681578" lon="-8.706000689417124">
        <ele>5.80859375</ele>
      </trkpt>
      <trkpt lat="41.19180173613131" lon="-8.706203112378716">
        <ele>5.25</ele>
      </trkpt>
      <trkpt lat="41.191801149398088" lon="-8.706202190369368">
        <ele>5.2578125</ele>
      </trkpt>
      <trkpt lat="41.192133827134967" lon="-8.706438979133964">
        <ele>3.62890625</ele>
      </trkpt>
      <trkpt lat="41.192132486030459" lon="-8.706444259732962">
        <ele>3.60546875</ele>
      </trkpt>
      <trkpt lat="41.192608494311571" lon="-8.706748522818089">
        <ele>3.01953125</ele>
      </trkpt>
      <trkpt lat="41.192608494311571" lon="-8.70674760080874">
        <ele>3.02734375</ele>
      </trkpt>
      <trkpt lat="41.193192880600691" lon="-8.707069382071495">
        <ele>3.59375</ele>
      </trkpt>
      <trkpt lat="41.193192293867469" lon="-8.707068460062146">
        <ele>3.59765625</ele>
      </trkpt>
      <trkpt lat="41.193701745942235" lon="-8.7074507586658">
        <ele>4.75390625</ele>
      </trkpt>
      <trkpt lat="41.193701745942235" lon="-8.707451680675149">
        <ele>4.74609375</ele>
      </trkpt>
      <trkpt lat="41.19445838034153" lon="-8.707978650927544">
        <ele>2.91015625</ele>
      </trkpt>
      <trkpt lat="41.195122729986906" lon="-8.708443008363247">
        <ele>2.3046875</ele>
      </trkpt>
      <trkpt lat="41.19512340053916" lon="-8.708443008363247">
        <ele>2.30859375</ele>
      </trkpt>
      <trkpt lat="41.195601420477033" lon="-8.70874852873385">
        <ele>2.3125</ele>
      </trkpt>
      <trkpt lat="41.195602007210255" lon="-8.70874852873385">
        <ele>2.31640625</ele>
      </trkpt>
      <trkpt lat="41.196448327973485" lon="-8.709307182580233">
        <ele>6.75</ele>
      </trkpt>
      <trkpt lat="41.196448327973485" lon="-8.709306260570884">
        <ele>6.7578125</ele>
      </trkpt>
      <trkpt lat="41.196906063705683" lon="-8.709632148966193">
        <ele>4.875</ele>
      </trkpt>
      <trkpt lat="41.196906063705683" lon="-8.709633070975542">
        <ele>4.8671875</ele>
      </trkpt>
      <trkpt lat="41.197520289570093" lon="-8.71005417779088">
        <ele>4.140625</ele>
      </trkpt>
      <trkpt lat="41.197520289570093" lon="-8.710053255781531">
        <ele>4.1484375</ele>
      </trkpt>
      <trkpt lat="41.197735201567411" lon="-8.710223576053977">
        <ele>4.875</ele>
      </trkpt>
      <trkpt lat="41.197766717523336" lon="-8.710254086181521">
        <ele>4.95703125</ele>
      </trkpt>
      <trkpt lat="41.197802340611815" lon="-8.71029214002192">
        <ele>5.03125</ele>
      </trkpt>
      <trkpt lat="41.197837879881263" lon="-8.710318878293037">
        <ele>5.16015625</ele>
      </trkpt>
      <trkpt lat="41.197871239855886" lon="-8.710345700383186">
        <ele>5.26953125</ele>
      </trkpt>
      <trkpt lat="41.197911892086267" lon="-8.710366319864988">
        <ele>5.46484375</ele>
      </trkpt>
      <trkpt lat="41.197946090251207" lon="-8.710391046479344">
        <ele>5.58984375</ele>
      </trkpt>
      <trkpt lat="41.197976181283593" lon="-8.710431363433599">
        <ele>5.61328125</ele>
      </trkpt>
      <trkpt lat="41.198002835735679" lon="-8.710478469729424">
        <ele>5.58203125</ele>
      </trkpt>
      <trkpt lat="41.198026556521654" lon="-8.710521887987852">
        <ele>5.54296875</ele>
      </trkpt>
      <trkpt lat="41.198050864040852" lon="-8.710565473884344">
        <ele>5.50390625</ele>
      </trkpt>
      <trkpt lat="41.198075171560049" lon="-8.710618196055293">
        <ele>5.40234375</ele>
      </trkpt>
      <trkpt lat="41.198099227622151" lon="-8.710657591000199">
        <ele>5.35546875</ele>
      </trkpt>
      <trkpt lat="41.198125127702951" lon="-8.710698494687676">
        <ele>5.3046875</ele>
      </trkpt>
      <trkpt lat="41.198149099946022" lon="-8.71074166148901">
        <ele>5.21484375</ele>
      </trkpt>
      <trkpt lat="41.198181202635169" lon="-8.710786001756787">
        <ele>5.15234375</ele>
      </trkpt>
      <trkpt lat="41.198209449648857" lon="-8.710820535197854">
        <ele>5.109375</ele>
      </trkpt>
      <trkpt lat="41.198240965604782" lon="-8.710851799696684">
        <ele>5.05078125</ele>
      </trkpt>
      <trkpt lat="41.198276085779071" lon="-8.710884237661958">
        <ele>4.87890625</ele>
      </trkpt>
      <trkpt lat="41.198312295600772" lon="-8.710912065580487">
        <ele>4.734375</ele>
      </trkpt>
      <trkpt lat="41.198347667232156" lon="-8.710936456918716">
        <ele>4.60546875</ele>
      </trkpt>
      <trkpt lat="41.198386643081903" lon="-8.710955819115043">
        <ele>4.51171875</ele>
      </trkpt>
      <trkpt lat="41.19842411018908" lon="-8.710970152169466">
        <ele>4.44140625</ele>
      </trkpt>
      <trkpt lat="41.198461828753352" lon="-8.710986664518714">
        <ele>4.359375</ele>
      </trkpt>
      <trkpt lat="41.198496948927641" lon="-8.711006278172135">
        <ele>4.25</ele>
      </trkpt>
      <trkpt lat="41.198532236739993" lon="-8.711023377254605">
        <ele>4.16015625</ele>
      </trkpt>
      <trkpt lat="41.198570877313614" lon="-8.711042068898678">
        <ele>4.05859375</ele>
      </trkpt>
      <trkpt lat="41.198607422411442" lon="-8.711065286770463">
        <ele>3.921875</ele>
      </trkpt>
      <trkpt lat="41.198642291128635" lon="-8.711088839918375">
        <ele>3.78125</ele>
      </trkpt>
      <trkpt lat="41.198674561455846" lon="-8.711117673665285">
        <ele>3.6015625</ele>
      </trkpt>
      <trkpt lat="41.198713034391403" lon="-8.711144495755434">
        <ele>3.4375</ele>
      </trkpt>
      <trkpt lat="41.198749160394073" lon="-8.711171066388488">
        <ele>3.26953125</ele>
      </trkpt>
      <trkpt lat="41.198786124587059" lon="-8.711193613708019">
        <ele>3.125</ele>
      </trkpt>
      <trkpt lat="41.198817137628794" lon="-8.711221860721707">
        <ele>2.9375</ele>
      </trkpt>
      <trkpt lat="41.198851084336638" lon="-8.711247425526381">
        <ele>2.76953125</ele>
      </trkpt>
      <trkpt lat="41.198887964710593" lon="-8.711270140483975">
        <ele>2.6171875</ele>
      </trkpt>
      <trkpt lat="41.198924677446485" lon="-8.711290759965777">
        <ele>2.4765625</ele>
      </trkpt>
      <trkpt lat="41.198963401839137" lon="-8.711305512115359">
        <ele>2.375</ele>
      </trkpt>
      <trkpt lat="41.198998019099236" lon="-8.711327891796827">
        <ele>2.21875</ele>
      </trkpt>
      <trkpt lat="41.199002461507916" lon="-8.711332837119699">
        <ele>2.18359375</ele>
      </trkpt>
      <trkpt lat="41.199446450918913" lon="-8.711603907868266">
        <ele>2.51953125</ele>
      </trkpt>
      <trkpt lat="41.199446450918913" lon="-8.711602985858917">
        <ele>2.51953125</ele>
      </trkpt>
      <trkpt lat="41.19975465349853" lon="-8.711810270324349">
        <ele>2.50390625</ele>
      </trkpt>
      <trkpt lat="41.20004877448082" lon="-8.712031720206141">
        <ele>2.3828125</ele>
      </trkpt>
      <trkpt lat="41.20004877448082" lon="-8.712032726034522">
        <ele>2.37890625</ele>
      </trkpt>
      <trkpt lat="41.20029604062438" lon="-8.712150324136019">
        <ele>2.68359375</ele>
      </trkpt>
      <trkpt lat="41.200334681198001" lon="-8.712144792079926">
        <ele>2.859375</ele>
      </trkpt>
      <trkpt lat="41.20037323795259" lon="-8.712140349671245">
        <ele>3.03125</ele>
      </trkpt>
      <trkpt lat="41.200410956516862" lon="-8.712136996909976">
        <ele>3.1953125</ele>
      </trkpt>
      <trkpt lat="41.200451357290149" lon="-8.712139260023832">
        <ele>3.33203125</ele>
      </trkpt>
      <trkpt lat="41.200487483292818" lon="-8.712154263630509">
        <ele>3.37109375</ele>
      </trkpt>
      <trkpt lat="41.200522687286139" lon="-8.712172787636518">
        <ele>3.37890625</ele>
      </trkpt>
      <trkpt lat="41.200559064745903" lon="-8.71218997053802">
        <ele>3.39453125</ele>
      </trkpt>
      <trkpt lat="41.200576918199658" lon="-8.712195167317986">
        <ele>3.43359375</ele>
      </trkpt>
      <trkpt lat="41.201042197644711" lon="-8.712509153410792">
        <ele>4.52734375</ele>
      </trkpt>
      <trkpt lat="41.201042784377933" lon="-8.712510159239173">
        <ele>4.5234375</ele>
      </trkpt>
      <trkpt lat="41.201477888971567" lon="-8.712802268564701">
        <ele>4.71875</ele>
      </trkpt>
      <trkpt lat="41.201477888971567" lon="-8.71280319057405">
        <ele>4.7109375</ele>
      </trkpt>
      <trkpt lat="41.202087923884392" lon="-8.713244581595063">
        <ele>2.375</ele>
      </trkpt>
      <trkpt lat="41.202087923884392" lon="-8.713242737576365">
        <ele>2.37890625</ele>
      </trkpt>
      <trkpt lat="41.202683625742793" lon="-8.713650852441788">
        <ele>3.0546875</ele>
      </trkpt>
      <trkpt lat="41.203001048415899" lon="-8.713867105543613">
        <ele>4.61328125</ele>
      </trkpt>
      <trkpt lat="41.203220151364803" lon="-8.713994594290853">
        <ele>5.62109375</ele>
      </trkpt>
      <trkpt lat="41.203259462490678" lon="-8.71401253156364">
        <ele>5.59765625</ele>
      </trkpt>
      <trkpt lat="41.203296761959791" lon="-8.714030971750617">
        <ele>5.51953125</ele>
      </trkpt>
      <trkpt lat="41.20334018021822" lon="-8.714055027812719">
        <ele>5.421875</ele>
      </trkpt>
      <trkpt lat="41.203379323706031" lon="-8.714075228199363">
        <ele>5.34375</ele>
      </trkpt>
      <trkpt lat="41.203419640660286" lon="-8.714096769690514">
        <ele>5.26171875</ele>
      </trkpt>
      <trkpt lat="41.203457610681653" lon="-8.714117053896189">
        <ele>5.1875</ele>
      </trkpt>
      <trkpt lat="41.203494491055608" lon="-8.714139433577657">
        <ele>5.11328125</ele>
      </trkpt>
      <trkpt lat="41.203533550724387" lon="-8.714171536266804">
        <ele>5.015625</ele>
      </trkpt>
      <trkpt lat="41.203568084165454" lon="-8.714193496853113">
        <ele>4.94921875</ele>
      </trkpt>
      <trkpt lat="41.203606054186821" lon="-8.714214619249105">
        <ele>4.8828125</ele>
      </trkpt>
      <trkpt lat="41.203643940389156" lon="-8.714240854606032">
        <ele>4.80859375</ele>
      </trkpt>
      <trkpt lat="41.203677132725716" lon="-8.714265832677484">
        <ele>4.74609375</ele>
      </trkpt>
      <trkpt lat="41.203716192394495" lon="-8.714287206530571">
        <ele>4.68359375</ele>
      </trkpt>
      <trkpt lat="41.203750977292657" lon="-8.714307155460119">
        <ele>4.6328125</ele>
      </trkpt>
      <trkpt lat="41.203792132437229" lon="-8.714325428009033">
        <ele>4.578125</ele>
      </trkpt>
      <trkpt lat="41.203831359744072" lon="-8.714347472414374">
        <ele>4.5234375</ele>
      </trkpt>
      <trkpt lat="41.203868156298995" lon="-8.714365158230066">
        <ele>4.48046875</ele>
      </trkpt>
      <trkpt lat="41.203913502395153" lon="-8.714378736913204">
        <ele>4.44140625</ele>
      </trkpt>
      <trkpt lat="41.203958597034216" lon="-8.714388376101851">
        <ele>4.40625</ele>
      </trkpt>
      <trkpt lat="41.203999752178788" lon="-8.714398434385657">
        <ele>4.375</ele>
      </trkpt>
      <trkpt lat="41.204041158780456" lon="-8.71440933085978">
        <ele>4.34375</ele>
      </trkpt>
      <trkpt lat="41.204080134630203" lon="-8.714420143514872">
        <ele>4.3671875</ele>
      </trkpt>
      <trkpt lat="41.204120451584458" lon="-8.71442886069417">
        <ele>4.453125</ele>
      </trkpt>
      <trkpt lat="41.204161690548062" lon="-8.714436739683151">
        <ele>4.53515625</ele>
      </trkpt>
      <trkpt lat="41.204200917854905" lon="-8.714446797966957">
        <ele>4.60546875</ele>
      </trkpt>
      <trkpt lat="41.204238720238209" lon="-8.714457023888826">
        <ele>4.671875</ele>
      </trkpt>
      <trkpt lat="41.204277025535703" lon="-8.714469261467457">
        <ele>4.73046875</ele>
      </trkpt>
      <trkpt lat="41.204318180680275" lon="-8.714482253417373">
        <ele>4.7890625</ele>
      </trkpt>
      <trkpt lat="41.204356150701642" lon="-8.714499939233065">
        <ele>4.82421875</ele>
      </trkpt>
      <trkpt lat="41.204399652779102" lon="-8.714518966153264">
        <ele>4.86328125</ele>
      </trkpt>
      <trkpt lat="41.204440724104643" lon="-8.714540926739573">
        <ele>4.87890625</ele>
      </trkpt>
      <trkpt lat="41.204480873420835" lon="-8.714558947831392">
        <ele>4.8984375</ele>
      </trkpt>
      <trkpt lat="41.204515658318996" lon="-8.714578142389655">
        <ele>4.8984375</ele>
      </trkpt>
      <trkpt lat="41.204550862312317" lon="-8.714598175138235">
        <ele>4.89453125</ele>
      </trkpt>
      <trkpt lat="41.204581707715988" lon="-8.714627176523209">
        <ele>4.84375</ele>
      </trkpt>
      <trkpt lat="41.20460576377809" lon="-8.714665565639734">
        <ele>4.7421875</ele>
      </trkpt>
      <trkpt lat="41.204629316926003" lon="-8.714705128222704">
        <ele>4.6171875</ele>
      </trkpt>
      <trkpt lat="41.204649098217487" lon="-8.714747373014688">
        <ele>4.453125</ele>
      </trkpt>
      <trkpt lat="41.204661084339023" lon="-8.714796239510179">
        <ele>4.24609375</ele>
      </trkpt>
      <trkpt lat="41.204668711870909" lon="-8.714850302785635">
        <ele>4.01171875</ele>
      </trkpt>
      <trkpt lat="41.204672483727336" lon="-8.714901264756918">
        <ele>3.7890625</ele>
      </trkpt>
      <trkpt lat="41.204669885337353" lon="-8.714958094060421">
        <ele>3.53125</ele>
      </trkpt>
      <trkpt lat="41.204663347452879" lon="-8.715010983869433">
        <ele>3.2890625</ele>
      </trkpt>
      <trkpt lat="41.204655719920993" lon="-8.715069405734539">
        <ele>3.0234375</ele>
      </trkpt>
      <trkpt lat="41.20464826002717" lon="-8.715120870620012">
        <ele>2.7890625</ele>
      </trkpt>
      <trkpt lat="41.204638704657555" lon="-8.715172586962581">
        <ele>2.5546875</ele>
      </trkpt>
      <trkpt lat="41.204634932801127" lon="-8.715223046019673">
        <ele>2.328125</ele>
      </trkpt>
      <trkpt lat="41.20463015511632" lon="-8.715281384065747">
        <ele>2.0703125</ele>
      </trkpt>
      <trkpt lat="41.20462873019278" lon="-8.715335866436362">
        <ele>1.828125</ele>
      </trkpt>
      <trkpt lat="41.20463015511632" lon="-8.715387918055058">
        <ele>1.59765625</ele>
      </trkpt>
      <trkpt lat="41.204636944457889" lon="-8.71544424444437">
        <ele>1.34765625</ele>
      </trkpt>
      <trkpt lat="41.20464826002717" lon="-8.715491015464067">
        <ele>1.140625</ele>
      </trkpt>
      <trkpt lat="41.204675668850541" lon="-8.715529069304466">
        <ele>0.9921875</ele>
      </trkpt>
      <trkpt lat="41.204710202291608" lon="-8.715550443157554">
        <ele>0.96875</ele>
      </trkpt>
      <trkpt lat="41.204748842865229" lon="-8.715559579432011">
        <ele>0.95703125</ele>
      </trkpt>
      <trkpt lat="41.204789578914642" lon="-8.715553125366569">
        <ele>0.96484375</ele>
      </trkpt>
      <trkpt lat="41.204826962202787" lon="-8.715542731806636">
        <ele>0.9765625</ele>
      </trkpt>
      <trkpt lat="41.204863926395774" lon="-8.71553217060864">
        <ele>0.98828125</ele>
      </trkpt>
      <trkpt lat="41.204902399331331" lon="-8.715524626895785">
        <ele>1.02734375</ele>
      </trkpt>
      <trkpt lat="41.20494095608592" lon="-8.715523704886436">
        <ele>1.16796875</ele>
      </trkpt>
      <trkpt lat="41.204979596659541" lon="-8.71552487835288">
        <ele>1.3046875</ele>
      </trkpt>
      <trkpt lat="41.205020751804113" lon="-8.715532254427671">
        <ele>1.44140625</ele>
      </trkpt>
      <trkpt lat="41.205059979110956" lon="-8.715554131194949">
        <ele>1.546875</ele>
      </trkpt>
      <trkpt lat="41.205100463703275" lon="-8.715592436492443">
        <ele>1.6171875</ele>
      </trkpt>
      <trkpt lat="41.205128543078899" lon="-8.715626886114478">
        <ele>1.6484375</ele>
      </trkpt>
      <trkpt lat="41.205159304663539" lon="-8.715657480061054">
        <ele>1.69140625</ele>
      </trkpt>
      <trkpt lat="41.205188976600766" lon="-8.715690756216645">
        <ele>1.71875</ele>
      </trkpt>
      <trkpt lat="41.205224599689245" lon="-8.715723026543856">
        <ele>1.7578125</ele>
      </trkpt>
      <trkpt lat="41.20526097714901" lon="-8.715748507529497">
        <ele>1.8125</ele>
      </trkpt>
      <trkpt lat="41.205298192799091" lon="-8.71576770208776">
        <ele>1.875</ele>
      </trkpt>
      <trkpt lat="41.205336917191744" lon="-8.71578429825604">
        <ele>1.94921875</ele>
      </trkpt>
      <trkpt lat="41.205372037366033" lon="-8.715800475329161">
        <ele>2.0078125</ele>
      </trkpt>
      <trkpt lat="41.205409923568368" lon="-8.71580583974719">
        <ele>2.09765625</ele>
      </trkpt>
      <trkpt lat="41.205422328785062" lon="-8.715805001556873">
        <ele>2.1328125</ele>
      </trkpt>
      <trkpt lat="41.205564569681883" lon="-8.715796200558543">
        <ele>2.55859375</ele>
      </trkpt>
      <trkpt lat="41.205601869150996" lon="-8.715787483379245">
        <ele>2.69140625</ele>
      </trkpt>
      <trkpt lat="41.205642940476537" lon="-8.715775664895773">
        <ele>2.84765625</ele>
      </trkpt>
      <trkpt lat="41.205683425068855" lon="-8.715767366811633">
        <ele>2.9921875</ele>
      </trkpt>
      <trkpt lat="41.205725837498903" lon="-8.715753704309464">
        <ele>3.1640625</ele>
      </trkpt>
      <trkpt lat="41.205765819177032" lon="-8.715742891654372">
        <ele>3.16015625</ele>
      </trkpt>
      <trkpt lat="41.205805968493223" lon="-8.71573543176055">
        <ele>3.140625</ele>
      </trkpt>
      <trkpt lat="41.205844357609749" lon="-8.715724535286427">
        <ele>3.1328125</ele>
      </trkpt>
      <trkpt lat="41.205882159993052" lon="-8.715712130069733">
        <ele>3.1328125</ele>
      </trkpt>
      <trkpt lat="41.205921052023768" lon="-8.715698048472404">
        <ele>3.13671875</ele>
      </trkpt>
      <trkpt lat="41.20596463792026" lon="-8.715686397626996">
        <ele>3.125</ele>
      </trkpt>
      <trkpt lat="41.206005206331611" lon="-8.715672651305795">
        <ele>3.12890625</ele>
      </trkpt>
      <trkpt lat="41.206046110019088" lon="-8.715656055137515">
        <ele>3.13671875</ele>
      </trkpt>
      <trkpt lat="41.206083912402391" lon="-8.71564113534987">
        <ele>3.14453125</ele>
      </trkpt>
      <trkpt lat="41.206123558804393" lon="-8.715625377371907">
        <ele>3.15625</ele>
      </trkpt>
      <trkpt lat="41.206171168014407" lon="-8.715611044317484">
        <ele>3.1484375</ele>
      </trkpt>
      <trkpt lat="41.206211401149631" lon="-8.715597717091441">
        <ele>3.1484375</ele>
      </trkpt>
      <trkpt lat="41.206252304837108" lon="-8.715589419007301">
        <ele>3.12890625</ele>
      </trkpt>
      <trkpt lat="41.206292873248458" lon="-8.71558397077024">
        <ele>3.1015625</ele>
      </trkpt>
      <trkpt lat="41.206331513822079" lon="-8.715579612180591">
        <ele>3.0703125</ele>
      </trkpt>
      <trkpt lat="41.206369986757636" lon="-8.715578522533178">
        <ele>3.02734375</ele>
      </trkpt>
      <trkpt lat="41.206409549340606" lon="-8.715578522533178">
        <ele>2.98046875</ele>
      </trkpt>
      <trkpt lat="41.206449447199702" lon="-8.715584138408303">
        <ele>2.9140625</ele>
      </trkpt>
      <trkpt lat="41.206489931792021" lon="-8.715593358501792">
        <ele>2.83203125</ele>
      </trkpt>
      <trkpt lat="41.206513568758965" lon="-8.715596543624997">
        <ele>2.7890625</ele>
      </trkpt>
      <trkpt lat="41.206743232905865" lon="-8.715659659355879">
        <ele>2.5078125</ele>
      </trkpt>
      <trkpt lat="41.206786567345262" lon="-8.715674160048366">
        <ele>2.45703125</ele>
      </trkpt>
      <trkpt lat="41.206824537366629" lon="-8.715691426768899">
        <ele>2.39453125</ele>
      </trkpt>
      <trkpt lat="41.206860244274139" lon="-8.715709028765559">
        <ele>2.328125</ele>
      </trkpt>
      <trkpt lat="41.206901650875807" lon="-8.715726379305124">
        <ele>2.265625</ele>
      </trkpt>
      <trkpt lat="41.206938028335571" lon="-8.715741131454706">
        <ele>2.21484375</ele>
      </trkpt>
      <trkpt lat="41.206976333633065" lon="-8.71575596742332">
        <ele>2.16015625</ele>
      </trkpt>
      <trkpt lat="41.207016566768289" lon="-8.715768456459045">
        <ele>2.1171875</ele>
      </trkpt>
      <trkpt lat="41.207056632265449" lon="-8.715779269114137">
        <ele>2.078125</ele>
      </trkpt>
      <trkpt lat="41.207094602286816" lon="-8.715787064284086">
        <ele>2.05078125</ele>
      </trkpt>
      <trkpt lat="41.207134667783976" lon="-8.715794775635004">
        <ele>2.01953125</ele>
      </trkpt>
      <trkpt lat="41.20717448182404" lon="-8.715799720957875">
        <ele>2.00390625</ele>
      </trkpt>
      <trkpt lat="41.207221671938896" lon="-8.715804498642683">
        <ele>1.984375</ele>
      </trkpt>
      <trkpt lat="41.207262491807342" lon="-8.715804498642683">
        <ele>1.984375</ele>
      </trkpt>
      <trkpt lat="41.207300713285804" lon="-8.715802151709795">
        <ele>1.99609375</ele>
      </trkpt>
      <trkpt lat="41.207341449335217" lon="-8.715798547491431">
        <ele>2.0078125</ele>
      </trkpt>
      <trkpt lat="41.207381263375282" lon="-8.715792847797275">
        <ele>2.02734375</ele>
      </trkpt>
      <trkpt lat="41.20742023922503" lon="-8.715777676552534">
        <ele>2.05859375</ele>
      </trkpt>
      <trkpt lat="41.207458209246397" lon="-8.715763259679079">
        <ele>2.078125</ele>
      </trkpt>
      <trkpt lat="41.20749500580132" lon="-8.715750519186258">
        <ele>2.08984375</ele>
      </trkpt>
      <trkpt lat="41.20753456838429" lon="-8.715735515579581">
        <ele>2.109375</ele>
      </trkpt>
      <trkpt lat="41.207573963329196" lon="-8.715719589963555">
        <ele>2.125</ele>
      </trkpt>
      <trkpt lat="41.207609502598643" lon="-8.715702909976244">
        <ele>2.1484375</ele>
      </trkpt>
      <trkpt lat="41.208118451759219" lon="-8.715517334640026">
        <ele>2.1640625</ele>
      </trkpt>
      <trkpt lat="41.208562776446342" lon="-8.715344332158566">
        <ele>2.08984375</ele>
      </trkpt>
      <trkpt lat="41.208562273532152" lon="-8.715344332158566">
        <ele>2.08984375</ele>
      </trkpt>
      <trkpt lat="41.209184462204576" lon="-8.715129503980279">
        <ele>1.640625</ele>
      </trkpt>
      <trkpt lat="41.209559803828597" lon="-8.714978378266096">
        <ele>2.95703125</ele>
      </trkpt>
      <trkpt lat="41.209962721914053" lon="-8.714828006923199">
        <ele>4.56640625</ele>
      </trkpt>
      <trkpt lat="41.210165815427899" lon="-8.714751396328211">
        <ele>5.6484375</ele>
      </trkpt>
      <trkpt lat="41.210327753797174" lon="-8.714712923392653">
        <ele>6.43359375</ele>
      </trkpt>
      <trkpt lat="41.210372429341078" lon="-8.714716695249081">
        <ele>6.5703125</ele>
      </trkpt>
      <trkpt lat="41.210412411019206" lon="-8.714710408821702">
        <ele>6.75</ele>
      </trkpt>
      <trkpt lat="41.210454404354095" lon="-8.714702362194657">
        <ele>6.94921875</ele>
      </trkpt>
      <trkpt lat="41.210490949451923" lon="-8.714691046625376">
        <ele>7.15625</ele>
      </trkpt>
      <trkpt lat="41.210524393245578" lon="-8.714685682207346">
        <ele>7.296875</ele>
      </trkpt>
      <trkpt lat="41.210808707401156" lon="-8.714665733277798">
        <ele>8.1875</ele>
      </trkpt>
      <trkpt lat="41.210808120667934" lon="-8.714665733277798">
        <ele>8.1875</ele>
      </trkpt>
      <trkpt lat="41.211117077618837" lon="-8.714625919237733">
        <ele>8.66796875</ele>
      </trkpt>
      <trkpt lat="41.211117664352059" lon="-8.714625919237733">
        <ele>8.66796875</ele>
      </trkpt>
      <trkpt lat="41.21143433265388" lon="-8.714600186794996">
        <ele>9.0859375</ele>
      </trkpt>
      <trkpt lat="41.211768183857203" lon="-8.714551571756601">
        <ele>9.25</ele>
      </trkpt>
      <trkpt lat="41.212053839117289" lon="-8.714554086327553">
        <ele>9.12109375</ele>
      </trkpt>
      <trkpt lat="41.212747190147638" lon="-8.714568251743913">
        <ele>9.546875</ele>
      </trkpt>
      <trkpt lat="41.212756158784032" lon="-8.714568251743913">
        <ele>9.56640625</ele>
      </trkpt>
      <trkpt lat="41.212897142395377" lon="-8.714581495150924">
        <ele>9.76171875</ele>
      </trkpt>
      <trkpt lat="41.212897812947631" lon="-8.714581495150924">
        <ele>9.765625</ele>
      </trkpt>
      <trkpt lat="41.213329816237092" lon="-8.714628098532557">
        <ele>10.06640625</ele>
      </trkpt>
      <trkpt lat="41.213502734899521" lon="-8.714625081047416">
        <ele>9.8203125</ele>
      </trkpt>
      <trkpt lat="41.213704571127892" lon="-8.714664475992322">
        <ele>9.4609375</ele>
      </trkpt>
      <trkpt lat="41.213969020172954" lon="-8.714666990563273">
        <ele>9.11328125</ele>
      </trkpt>
      <trkpt lat="41.214299099519849" lon="-8.714777464047074">
        <ele>9.48046875</ele>
      </trkpt>
      <trkpt lat="41.214809976518154" lon="-8.714909059926867">
        <ele>10.5703125</ele>
      </trkpt>
      <trkpt lat="41.215227479115129" lon="-8.71498441323638">
        <ele>9.50390625</ele>
      </trkpt>
      <trkpt lat="41.215397967025638" lon="-8.715006625279784">
        <ele>8.96875</ele>
      </trkpt>
      <trkpt lat="41.21539855375886" lon="-8.715006625279784">
        <ele>8.96875</ele>
      </trkpt>
      <trkpt lat="41.215899372473359" lon="-8.715140400454402">
        <ele>7</ele>
      </trkpt>
      <trkpt lat="41.215900629758835" lon="-8.715140400454402">
        <ele>7</ele>
      </trkpt>
      <trkpt lat="41.216064328327775" lon="-8.715163785964251">
        <ele>6.60546875</ele>
      </trkpt>
      <trkpt lat="41.216104561462998" lon="-8.715171413496137">
        <ele>6.49609375</ele>
      </trkpt>
      <trkpt lat="41.216143202036619" lon="-8.715178454294801">
        <ele>6.390625</ele>
      </trkpt>
      <trkpt lat="41.216185865923762" lon="-8.715183986350894">
        <ele>6.29296875</ele>
      </trkpt>
      <trkpt lat="41.216225596144795" lon="-8.715188261121511">
        <ele>6.20703125</ele>
      </trkpt>
      <trkpt lat="41.216269098222256" lon="-8.715190859511495">
        <ele>6.1328125</ele>
      </trkpt>
      <trkpt lat="41.216307654976845" lon="-8.715189518406987">
        <ele>6.09765625</ele>
      </trkpt>
      <trkpt lat="41.216349396854639" lon="-8.715186752378941">
        <ele>6.0703125</ele>
      </trkpt>
      <trkpt lat="41.216388707980514" lon="-8.715180801227689">
        <ele>6.07421875</ele>
      </trkpt>
      <trkpt lat="41.216426510363817" lon="-8.715170240029693">
        <ele>6.1171875</ele>
      </trkpt>
      <trkpt lat="41.216466324403882" lon="-8.715148866176605">
        <ele>6.25</ele>
      </trkpt>
      <trkpt lat="41.216500606387854" lon="-8.715124055743217">
        <ele>6.41796875</ele>
      </trkpt>
      <trkpt lat="41.216536900028586" lon="-8.71510025113821">
        <ele>6.57421875</ele>
      </trkpt>
      <trkpt lat="41.216576881706715" lon="-8.715079883113503">
        <ele>6.65234375</ele>
      </trkpt>
      <trkpt lat="41.21661527082324" lon="-8.715057922527194">
        <ele>6.7109375</ele>
      </trkpt>
      <trkpt lat="41.216650055721402" lon="-8.715037051588297">
        <ele>6.765625</ele>
      </trkpt>
      <trkpt lat="41.216690372675657" lon="-8.71501131914556">
        <ele>6.8359375</ele>
      </trkpt>
      <trkpt lat="41.216727504506707" lon="-8.714983994141221">
        <ele>6.91796875</ele>
      </trkpt>
      <trkpt lat="41.216763630509377" lon="-8.714948035776615">
        <ele>7.05859375</ele>
      </trkpt>
      <trkpt lat="41.216796990483999" lon="-8.714920207858086">
        <ele>7.140625</ele>
      </trkpt>
      <trkpt lat="41.216827584430575" lon="-8.714886764064431">
        <ele>7.265625</ele>
      </trkpt>
      <trkpt lat="41.216851724311709" lon="-8.714859941974282">
        <ele>7.359375</ele>
      </trkpt>
      <trkpt lat="41.2172148283571" lon="-8.71451728977263">
        <ele>7.40625</ele>
      </trkpt>
      <trkpt lat="41.217602742835879" lon="-8.714097524061799">
        <ele>7.24609375</ele>
      </trkpt>
      <trkpt lat="41.217603329569101" lon="-8.714098446071148">
        <ele>7.2421875</ele>
      </trkpt>
      <trkpt lat="41.217748671770096" lon="-8.713931646198034">
        <ele>7.0703125</ele>
      </trkpt>
      <trkpt lat="41.217780187726021" lon="-8.713895520195365">
        <ele>7.015625</ele>
      </trkpt>
      <trkpt lat="41.217808183282614" lon="-8.71385813690722">
        <ele>6.97265625</ele>
      </trkpt>
      <trkpt lat="41.217832993716002" lon="-8.713820083066821">
        <ele>6.96484375</ele>
      </trkpt>
      <trkpt lat="41.21785931289196" lon="-8.713781358674169">
        <ele>6.953125</ele>
      </trkpt>
      <trkpt lat="41.217882698401809" lon="-8.713738191872835">
        <ele>6.9609375</ele>
      </trkpt>
      <trkpt lat="41.217912370339036" lon="-8.713691337034106">
        <ele>6.9453125</ele>
      </trkpt>
      <trkpt lat="41.217943215742707" lon="-8.713641548529267">
        <ele>6.9296875</ele>
      </trkpt>
      <trkpt lat="41.21796584688127" lon="-8.713595699518919">
        <ele>6.94140625</ele>
      </trkpt>
      <trkpt lat="41.217997614294291" lon="-8.713543061167002">
        <ele>6.921875</ele>
      </trkpt>
      <trkpt lat="41.218018485233188" lon="-8.713500397279859">
        <ele>6.92578125</ele>
      </trkpt>
      <trkpt lat="41.218043211847544" lon="-8.713452704250813">
        <ele>6.921875</ele>
      </trkpt>
      <trkpt lat="41.218066932633519" lon="-8.713405514135957">
        <ele>6.91796875</ele>
      </trkpt>
      <trkpt lat="41.218090737238526" lon="-8.713360000401735">
        <ele>6.90625</ele>
      </trkpt>
      <trkpt lat="41.218115296214819" lon="-8.713321359828115">
        <ele>6.8671875</ele>
      </trkpt>
      <trkpt lat="41.218147985637188" lon="-8.713287832215428">
        <ele>6.76953125</ele>
      </trkpt>
      <trkpt lat="41.21818226762116" lon="-8.71325857937336">
        <ele>6.6484375</ele>
      </trkpt>
      <trkpt lat="41.218218058347702" lon="-8.713232344016433">
        <ele>6.5078125</ele>
      </trkpt>
      <trkpt lat="41.218255022540689" lon="-8.713205270469189">
        <ele>6.609375</ele>
      </trkpt>
      <trkpt lat="41.218293244019151" lon="-8.71318825520575">
        <ele>6.6953125</ele>
      </trkpt>
      <trkpt lat="41.218332890421152" lon="-8.71317601762712">
        <ele>6.7734375</ele>
      </trkpt>
      <trkpt lat="41.218372117727995" lon="-8.713166294619441">
        <ele>6.84375</ele>
      </trkpt>
      <trkpt lat="41.218411512672901" lon="-8.713163193315268">
        <ele>6.8984375</ele>
      </trkpt>
      <trkpt lat="41.218439843505621" lon="-8.713167971000075">
        <ele>6.921875</ele>
      </trkpt>
      <trkpt lat="41.21877402998507" lon="-8.71316378004849">
        <ele>7.33203125</ele>
      </trkpt>
      <trkpt lat="41.218812167644501" lon="-8.713154727593064">
        <ele>7.3984375</ele>
      </trkpt>
      <trkpt lat="41.218855921179056" lon="-8.713145842775702">
        <ele>7.47265625</ele>
      </trkpt>
      <trkpt lat="41.218899758532643" lon="-8.71313888579607">
        <ele>7.54296875</ele>
      </trkpt>
      <trkpt lat="41.218944769352674" lon="-8.713132096454501">
        <ele>7.61328125</ele>
      </trkpt>
      <trkpt lat="41.218987181782722" lon="-8.713125055655837">
        <ele>7.6796875</ele>
      </trkpt>
      <trkpt lat="41.219030851498246" lon="-8.713120697066188">
        <ele>7.7421875</ele>
      </trkpt>
      <trkpt lat="41.219069492071867" lon="-8.71311935596168">
        <ele>7.7890625</ele>
      </trkpt>
      <trkpt lat="41.219110982492566" lon="-8.713116841390729">
        <ele>7.83984375</ele>
      </trkpt>
      <trkpt lat="41.219150293618441" lon="-8.713113153353333">
        <ele>7.890625</ele>
      </trkpt>
      <trkpt lat="41.219188263639808" lon="-8.713111979886889">
        <ele>7.9375</ele>
      </trkpt>
      <trkpt lat="41.219231681898236" lon="-8.713108040392399">
        <ele>7.9921875</ele>
      </trkpt>
      <trkpt lat="41.219271747395396" lon="-8.713104352355003">
        <ele>8.046875</ele>
      </trkpt>
      <trkpt lat="41.219314076006413" lon="-8.713103095069528">
        <ele>8.09765625</ele>
      </trkpt>
      <trkpt lat="41.219351878389716" lon="-8.713101837784052">
        <ele>8.140625</ele>
      </trkpt>
      <trkpt lat="41.219395296648145" lon="-8.713101837784052">
        <ele>8.1875</ele>
      </trkpt>
      <trkpt lat="41.219438882544637" lon="-8.713103095069528">
        <ele>8.23046875</ele>
      </trkpt>
      <trkpt lat="41.219477439299226" lon="-8.713104603812099">
        <ele>8.26953125</ele>
      </trkpt>
      <trkpt lat="41.219522533938289" lon="-8.713104603812099">
        <ele>8.31640625</ele>
      </trkpt>
      <trkpt lat="41.219561342149973" lon="-8.713103346526623">
        <ele>8.36328125</ele>
      </trkpt>
      <trkpt lat="41.21960174292326" lon="-8.71310225687921">
        <ele>8.41015625</ele>
      </trkpt>
      <trkpt lat="41.219643317162991" lon="-8.713101083412766">
        <ele>8.4609375</ele>
      </trkpt>
      <trkpt lat="41.219681035727262" lon="-8.713102173060179">
        <ele>8.5</ele>
      </trkpt>
      <trkpt lat="41.21972193941474" lon="-8.713108375668526">
        <ele>8.5234375</ele>
      </trkpt>
      <trkpt lat="41.219761501997709" lon="-8.713118685409427">
        <ele>8.53125</ele>
      </trkpt>
      <trkpt lat="41.219797460362315" lon="-8.713136035948992">
        <ele>8.5078125</ele>
      </trkpt>
      <trkpt lat="41.219802405685186" lon="-8.713141735643148">
        <ele>8.4921875</ele>
      </trkpt>
      <trkpt lat="41.219849176704884" lon="-8.713189512491226">
        <ele>8.37109375</ele>
      </trkpt>
      <trkpt lat="41.219854792580009" lon="-8.713235529139638">
        <ele>8.21484375</ele>
      </trkpt>
      <trkpt lat="41.219844231382012" lon="-8.713286658748984">
        <ele>8.0234375</ele>
      </trkpt>
      <trkpt lat="41.219831742346287" lon="-8.713317336514592">
        <ele>7.90234375</ele>
      </trkpt>
      <trkpt lat="41.219570897519588" lon="-8.713836427778006">
        <ele>6.06640625</ele>
      </trkpt>
      <trkpt lat="41.219596127048135" lon="-8.713882192969322">
        <ele>5.921875</ele>
      </trkpt>
      <trkpt lat="41.219627223908901" lon="-8.713920582085848">
        <ele>5.796875</ele>
      </trkpt>
      <trkpt lat="41.219661254435778" lon="-8.713952349498868">
        <ele>5.6875</ele>
      </trkpt>
      <trkpt lat="41.219695452600718" lon="-8.713974477723241">
        <ele>5.609375</ele>
      </trkpt>
      <trkpt lat="41.219730321317911" lon="-8.713995767757297">
        <ele>5.53125</ele>
      </trkpt>
      <trkpt lat="41.219770302996039" lon="-8.714012615382671">
        <ele>5.46484375</ele>
      </trkpt>
      <trkpt lat="41.219812547788024" lon="-8.714024350047112">
        <ele>5.4140625</ele>
      </trkpt>
      <trkpt lat="41.219850517809391" lon="-8.714035665616393">
        <ele>5.3671875</ele>
      </trkpt>
      <trkpt lat="41.219891840592027" lon="-8.714045807719231">
        <ele>5.328125</ele>
      </trkpt>
      <trkpt lat="41.219931319355965" lon="-8.714059554040432">
        <ele>5.328125</ele>
      </trkpt>
      <trkpt lat="41.219969289377332" lon="-8.714074809104204">
        <ele>5.31640625</ele>
      </trkpt>
      <trkpt lat="41.220010276883841" lon="-8.714087130501866">
        <ele>5.32421875</ele>
      </trkpt>
      <trkpt lat="41.22005176730454" lon="-8.714098865166306">
        <ele>5.33203125</ele>
      </trkpt>
      <trkpt lat="41.22009577229619" lon="-8.714110096916556">
        <ele>5.34375</ele>
      </trkpt>
      <trkpt lat="41.220138352364302" lon="-8.714117892086506">
        <ele>5.3671875</ele>
      </trkpt>
      <trkpt lat="41.220178417861462" lon="-8.714119233191013">
        <ele>5.41015625</ele>
      </trkpt>
      <trkpt lat="41.220219740644097" lon="-8.714120490476489">
        <ele>5.453125</ele>
      </trkpt>
      <trkpt lat="41.220259219408035" lon="-8.714120490476489">
        <ele>5.5</ele>
      </trkpt>
      <trkpt lat="41.220296770334244" lon="-8.714121747761965">
        <ele>5.54296875</ele>
      </trkpt>
      <trkpt lat="41.220334572717547" lon="-8.714127615094185">
        <ele>5.56640625</ele>
      </trkpt>
      <trkpt lat="41.220371620729566" lon="-8.714143037796021">
        <ele>5.5546875</ele>
      </trkpt>
      <trkpt lat="41.220376901328564" lon="-8.714196849614382">
        <ele>5.3671875</ele>
      </trkpt>
      <trkpt lat="41.220376146957278" lon="-8.714264491572976">
        <ele>5.125</ele>
      </trkpt>
      <trkpt lat="41.220377571880817" lon="-8.714316878467798">
        <ele>4.9375</ele>
      </trkpt>
      <trkpt lat="41.22038260102272" lon="-8.714369935914874">
        <ele>4.75</ele>
      </trkpt>
      <trkpt lat="41.220393916592002" lon="-8.714421987533569">
        <ele>4.578125</ele>
      </trkpt>
      <trkpt lat="41.22041386552155" lon="-8.714467249810696">
        <ele>4.4375</ele>
      </trkpt>
      <trkpt lat="41.22044856660068" lon="-8.714496335014701">
        <ele>4.375</ele>
      </trkpt>
      <trkpt lat="41.220487877726555" lon="-8.714514942839742">
        <ele>4.35546875</ele>
      </trkpt>
      <trkpt lat="41.220524925738573" lon="-8.714523743838072">
        <ele>4.3671875</ele>
      </trkpt>
      <trkpt lat="41.220568679273129" lon="-8.714532544836402">
        <ele>4.390625</ele>
      </trkpt>
      <trkpt lat="41.220610504969954" lon="-8.714539501816034">
        <ele>4.4140625</ele>
      </trkpt>
      <trkpt lat="41.220655599609017" lon="-8.714543525129557">
        <ele>4.453125</ele>
      </trkpt>
      <trkpt lat="41.220700778067112" lon="-8.714549476280808">
        <ele>4.48828125</ele>
      </trkpt>
      <trkpt lat="41.220745788887143" lon="-8.714555092155933">
        <ele>4.546875</ele>
      </trkpt>
      <trkpt lat="41.220789793878794" lon="-8.714560540392995">
        <ele>4.625</ele>
      </trkpt>
      <trkpt lat="41.220807312056422" lon="-8.714562719687819">
        <ele>4.65625</ele>
      </trkpt>
      <trkpt lat="41.220959527418017" lon="-8.71461795642972">
        <ele>4.81640625</ele>
      </trkpt>
      <trkpt lat="41.220997413620353" lon="-8.714627176523209">
        <ele>4.87109375</ele>
      </trkpt>
      <trkpt lat="41.221048962324858" lon="-8.714645951986313">
        <ele>4.93359375</ele>
      </trkpt>
      <trkpt lat="41.22109011746943" lon="-8.714660117402673">
        <ele>4.984375</ele>
      </trkpt>
      <trkpt lat="41.221132529899478" lon="-8.714677635580301">
        <ele>5.03515625</ele>
      </trkpt>
      <trkpt lat="41.221175948157907" lon="-8.714692136272788">
        <ele>5.09375</ele>
      </trkpt>
      <trkpt lat="41.221214924007654" lon="-8.714705547317863">
        <ele>5.12890625</ele>
      </trkpt>
      <trkpt lat="41.221262281760573" lon="-8.714722394943237">
        <ele>5.16796875</ele>
      </trkpt>
      <trkpt lat="41.221302598714828" lon="-8.71473865583539">
        <ele>5.1875</ele>
      </trkpt>
      <trkpt lat="41.22134274803102" lon="-8.714759275317192">
        <ele>5.19140625</ele>
      </trkpt>
      <trkpt lat="41.221377952024341" lon="-8.714782074093819">
        <ele>5.16796875</ele>
      </trkpt>
      <trkpt lat="41.221412485465407" lon="-8.714808728545904">
        <ele>5.12109375</ele>
      </trkpt>
      <trkpt lat="41.221449868753552" lon="-8.714834209531546">
        <ele>5.0859375</ele>
      </trkpt>
      <trkpt lat="41.221483899280429" lon="-8.714860528707504">
        <ele>5.0390625</ele>
      </trkpt>
      <trkpt lat="41.221520360559225" lon="-8.714892463758588">
        <ele>4.96484375</ele>
      </trkpt>
      <trkpt lat="41.221554726362228" lon="-8.714923225343227">
        <ele>4.89453125</ele>
      </trkpt>
      <trkpt lat="41.221588002517819" lon="-8.714955328032374">
        <ele>4.84375</ele>
      </trkpt>
      <trkpt lat="41.221619937568903" lon="-8.71498491615057">
        <ele>4.80859375</ele>
      </trkpt>
      <trkpt lat="41.22164717875421" lon="-8.715024143457413">
        <ele>4.72265625</ele>
      </trkpt>
      <trkpt lat="41.221675761044025" lon="-8.715058425441384">
        <ele>4.6640625</ele>
      </trkpt>
      <trkpt lat="41.221710629761219" lon="-8.715088348835707">
        <ele>4.65625</ele>
      </trkpt>
      <trkpt lat="41.221744157373905" lon="-8.715117434039712">
        <ele>4.65234375</ele>
      </trkpt>
      <trkpt lat="41.221776008605957" lon="-8.715147860348225">
        <ele>4.640625</ele>
      </trkpt>
      <trkpt lat="41.221813224256039" lon="-8.715179208666086">
        <ele>4.65234375</ele>
      </trkpt>
      <trkpt lat="41.221845494583249" lon="-8.715210389345884">
        <ele>4.65234375</ele>
      </trkpt>
      <trkpt lat="41.221876926720142" lon="-8.715238803997636">
        <ele>4.6640625</ele>
      </trkpt>
      <trkpt lat="41.221910873427987" lon="-8.715271996334195">
        <ele>4.67578125</ele>
      </trkpt>
      <trkpt lat="41.22193886898458" lon="-8.715305356308818">
        <ele>4.66796875</ele>
      </trkpt>
      <trkpt lat="41.221967954188585" lon="-8.71533771045506">
        <ele>4.671875</ele>
      </trkpt>
      <trkpt lat="41.221996871754527" lon="-8.715369813144207">
        <ele>4.68359375</ele>
      </trkpt>
      <trkpt lat="41.222033081576228" lon="-8.715408705174923">
        <ele>4.70703125</ele>
      </trkpt>
      <trkpt lat="41.222065854817629" lon="-8.715441729873419">
        <ele>4.7421875</ele>
      </trkpt>
      <trkpt lat="41.222097622230649" lon="-8.715478526428342">
        <ele>4.76953125</ele>
      </trkpt>
      <trkpt lat="41.222125701606274" lon="-8.715512389317155">
        <ele>4.796875</ele>
      </trkpt>
      <trkpt lat="41.222157804295421" lon="-8.715541306883097">
        <ele>4.83984375</ele>
      </trkpt>
      <trkpt lat="41.222191667184234" lon="-8.715564105659723">
        <ele>4.90234375</ele>
      </trkpt>
      <trkpt lat="41.222228463739157" lon="-8.715579193085432">
        <ele>5.01171875</ele>
      </trkpt>
      <trkpt lat="41.222265511751175" lon="-8.715588999912143">
        <ele>5.140625</ele>
      </trkpt>
      <trkpt lat="41.222272636368871" lon="-8.715591933578253">
        <ele>5.16015625</ele>
      </trkpt>
      <trkpt lat="41.22281645424664" lon="-8.715804917737842">
        <ele>4.64453125</ele>
      </trkpt>
      <trkpt lat="41.223355745896697" lon="-8.716034581884742">
        <ele>4.01953125</ele>
      </trkpt>
      <trkpt lat="41.223364127799869" lon="-8.716034581884742">
        <ele>4.046875</ele>
      </trkpt>
      <trkpt lat="41.223811972886324" lon="-8.716244548559189">
        <ele>5.109375</ele>
      </trkpt>
      <trkpt lat="41.223811972886324" lon="-8.71624362654984">
        <ele>5.109375</ele>
      </trkpt>
      <trkpt lat="41.224214471876621" lon="-8.71642635203898">
        <ele>5.48046875</ele>
      </trkpt>
      <trkpt lat="41.224214471876621" lon="-8.716425430029631">
        <ele>5.484375</ele>
      </trkpt>
      <trkpt lat="41.224448746070266" lon="-8.71654118411243">
        <ele>4.73828125</ele>
      </trkpt>
      <trkpt lat="41.224490907043219" lon="-8.716550152748823">
        <ele>4.66015625</ele>
      </trkpt>
      <trkpt lat="41.224530804902315" lon="-8.716561552137136">
        <ele>4.578125</ele>
      </trkpt>
      <trkpt lat="41.224567350000143" lon="-8.71657395735383">
        <ele>4.4921875</ele>
      </trkpt>
      <trkpt lat="41.224604649469256" lon="-8.716587368398905">
        <ele>4.40625</ele>
      </trkpt>
      <trkpt lat="41.224648235365748" lon="-8.716602707281709">
        <ele>4.30859375</ele>
      </trkpt>
      <trkpt lat="41.224688803777099" lon="-8.716615866869688">
        <ele>4.22265625</ele>
      </trkpt>
      <trkpt lat="41.224729036912322" lon="-8.716618129983544">
        <ele>4.1796875</ele>
      </trkpt>
      <trkpt lat="41.224753512069583" lon="-8.716581417247653">
        <ele>4.30078125</ele>
      </trkpt>
      <trkpt lat="41.224769186228514" lon="-8.716530203819275">
        <ele>4.48046875</ele>
      </trkpt>
      <trkpt lat="41.224787374958396" lon="-8.716485109180212">
        <ele>4.62890625</ele>
      </trkpt>
      <trkpt lat="41.224807072430849" lon="-8.716434063389897">
        <ele>4.80078125</ele>
      </trkpt>
      <trkpt lat="41.22482568025589" lon="-8.716388717293739">
        <ele>4.9453125</ele>
      </trkpt>
      <trkpt lat="41.224844790995121" lon="-8.716343538835645">
        <ele>5.07421875</ele>
      </trkpt>
      <trkpt lat="41.224864153191447" lon="-8.71629735454917">
        <ele>5.16015625</ele>
      </trkpt>
      <trkpt lat="41.224882928654552" lon="-8.71625293046236">
        <ele>5.24609375</ele>
      </trkpt>
      <trkpt lat="41.224886029958725" lon="-8.716244632378221">
        <ele>5.26171875</ele>
      </trkpt>
      <trkpt lat="41.226004343479872" lon="-8.716776883229613">
        <ele>3.51171875</ele>
      </trkpt>
      <trkpt lat="41.226005097851157" lon="-8.716776883229613">
        <ele>3.51171875</ele>
      </trkpt>
      <trkpt lat="41.226318748667836" lon="-8.716920465230942">
        <ele>3.859375</ele>
      </trkpt>
      <trkpt lat="41.22636241838336" lon="-8.716938989236951">
        <ele>3.921875</ele>
      </trkpt>
      <trkpt lat="41.226400975137949" lon="-8.716958770528436">
        <ele>3.97265625</ele>
      </trkpt>
      <trkpt lat="41.226438861340284" lon="-8.716980312019587">
        <ele>4.0234375</ele>
      </trkpt>
      <trkpt lat="41.22647481970489" lon="-8.717015348374844">
        <ele>4.05078125</ele>
      </trkpt>
      <trkpt lat="41.226497618481517" lon="-8.717058012261987">
        <ele>4.046875</ele>
      </trkpt>
      <trkpt lat="41.226517483592033" lon="-8.717108722776175">
        <ele>4.02734375</ele>
      </trkpt>
      <trkpt lat="41.226531649008393" lon="-8.71716027148068">
        <ele>3.99609375</ele>
      </trkpt>
      <trkpt lat="41.226539695635438" lon="-8.717210395261645">
        <ele>4.03125</ele>
      </trkpt>
      <trkpt lat="41.226544640958309" lon="-8.717266721650958">
        <ele>4.1796875</ele>
      </trkpt>
      <trkpt lat="41.226548915728927" lon="-8.717320365831256">
        <ele>4.3203125</ele>
      </trkpt>
      <trkpt lat="41.226551346480846" lon="-8.717376859858632">
        <ele>4.4609375</ele>
      </trkpt>
      <trkpt lat="41.226553525775671" lon="-8.717431258410215">
        <ele>4.59765625</ele>
      </trkpt>
      <trkpt lat="41.226552771404386" lon="-8.717482974752784">
        <ele>4.71875</ele>
      </trkpt>
      <trkpt lat="41.226552771404386" lon="-8.717551538720727">
        <ele>4.8828125</ele>
      </trkpt>
      <trkpt lat="41.2265520170331" lon="-8.717620018869638">
        <ele>5.046875</ele>
      </trkpt>
      <trkpt lat="41.226550173014402" lon="-8.717675339430571">
        <ele>5.17578125</ele>
      </trkpt>
      <trkpt lat="41.226549418643117" lon="-8.717733677476645">
        <ele>5.3125</ele>
      </trkpt>
      <trkpt lat="41.226549418643117" lon="-8.71780090034008">
        <ele>5.47265625</ele>
      </trkpt>
      <trkpt lat="41.226549418643117" lon="-8.717864267528057">
        <ele>5.625</ele>
      </trkpt>
      <trkpt lat="41.226551095023751" lon="-8.717916319146752">
        <ele>5.75390625</ele>
      </trkpt>
      <trkpt lat="41.226552855223417" lon="-8.717979770153761">
        <ele>5.9140625</ele>
      </trkpt>
      <trkpt lat="41.226552855223417" lon="-8.718035090714693">
        <ele>5.96484375</ele>
      </trkpt>
      <trkpt lat="41.226555369794369" lon="-8.718097116798162">
        <ele>5.75</ele>
      </trkpt>
      <trkpt lat="41.226554615423083" lon="-8.71815268881619">
        <ele>5.546875</ele>
      </trkpt>
      <trkpt lat="41.226556962355971" lon="-8.718209350481629">
        <ele>5.3515625</ele>
      </trkpt>
      <trkpt lat="41.226559393107891" lon="-8.718261234462261">
        <ele>5.17578125</ele>
      </trkpt>
      <trkpt lat="41.226561069488525" lon="-8.71831295080483">
        <ele>5</ele>
      </trkpt>
      <trkpt lat="41.226563835516572" lon="-8.718376820906997">
        <ele>4.78515625</ele>
      </trkpt>
      <trkpt lat="41.226568277925253" lon="-8.718437254428864">
        <ele>4.58984375</ele>
      </trkpt>
      <trkpt lat="41.226573642343283" lon="-8.718492658808827">
        <ele>4.41796875</ele>
      </trkpt>
      <trkpt lat="41.226581018418074" lon="-8.71854504570365">
        <ele>4.26953125</ele>
      </trkpt>
      <trkpt lat="41.226589735597372" lon="-8.718601120635867">
        <ele>4.1171875</ele>
      </trkpt>
      <trkpt lat="41.226601554080844" lon="-8.718650490045547">
        <ele>4.01171875</ele>
      </trkpt>
      <trkpt lat="41.226604823023081" lon="-8.718666834756732">
        <ele>3.97265625</ele>
      </trkpt>
      <trkpt lat="41.226689480245113" lon="-8.718800442293286">
        <ele>4.01171875</ele>
      </trkpt>
      <trkpt lat="41.226709093898535" lon="-8.718843022361398">
        <ele>4.00390625</ele>
      </trkpt>
      <trkpt lat="41.226731222122908" lon="-8.718887530267239">
        <ele>3.9921875</ele>
      </trkpt>
      <trkpt lat="41.22675527818501" lon="-8.718926589936018">
        <ele>4.0078125</ele>
      </trkpt>
      <trkpt lat="41.226780340075493" lon="-8.718966487795115">
        <ele>4.03125</ele>
      </trkpt>
      <trkpt lat="41.226806826889515" lon="-8.719008564949036">
        <ele>4.05859375</ele>
      </trkpt>
      <trkpt lat="41.226833648979664" lon="-8.719044355675578">
        <ele>4.109375</ele>
      </trkpt>
      <trkpt lat="41.226863656193018" lon="-8.719079308211803">
        <ele>4.1875</ele>
      </trkpt>
      <trkpt lat="41.226892070844769" lon="-8.719112081453204">
        <ele>4.265625</ele>
      </trkpt>
      <trkpt lat="41.226924592629075" lon="-8.719145944342017">
        <ele>4.37109375</ele>
      </trkpt>
      <trkpt lat="41.226954348385334" lon="-8.719178130850196">
        <ele>4.46484375</ele>
      </trkpt>
      <trkpt lat="41.226988127455115" lon="-8.719207970425487">
        <ele>4.59375</ele>
      </trkpt>
      <trkpt lat="41.227021068334579" lon="-8.719239737838507">
        <ele>4.71875</ele>
      </trkpt>
      <trkpt lat="41.227057613432407" lon="-8.719279216602445">
        <ele>4.84375</ele>
      </trkpt>
      <trkpt lat="41.227088877931237" lon="-8.719320707023144">
        <ele>4.93359375</ele>
      </trkpt>
      <trkpt lat="41.227119052782655" lon="-8.719359179958701">
        <ele>5.02734375</ele>
      </trkpt>
      <trkpt lat="41.227146126329899" lon="-8.719398491084576">
        <ele>5.1015625</ele>
      </trkpt>
      <trkpt lat="41.227172361686826" lon="-8.719434197992086">
        <ele>5.18359375</ele>
      </trkpt>
      <trkpt lat="41.22720186598599" lon="-8.71947443112731">
        <ele>5.27734375</ele>
      </trkpt>
      <trkpt lat="41.227227514609694" lon="-8.719512484967709">
        <ele>5.35546875</ele>
      </trkpt>
      <trkpt lat="41.227255342528224" lon="-8.719556406140327">
        <ele>5.4375</ele>
      </trkpt>
      <trkpt lat="41.227281326428056" lon="-8.719596387818456">
        <ele>5.515625</ele>
      </trkpt>
      <trkpt lat="41.22730890288949" lon="-8.719637291505933">
        <ele>5.609375</ele>
      </trkpt>
      <trkpt lat="41.227337401360273" lon="-8.71967333368957">
        <ele>5.72265625</ele>
      </trkpt>
      <trkpt lat="41.227365648373961" lon="-8.719710046425462">
        <ele>5.78515625</ele>
      </trkpt>
      <trkpt lat="41.227395990863442" lon="-8.719742065295577">
        <ele>5.7734375</ele>
      </trkpt>
      <trkpt lat="41.227426836267114" lon="-8.719774503260851">
        <ele>5.6875</ele>
      </trkpt>
      <trkpt lat="41.227460950613022" lon="-8.719814568758011">
        <ele>5.56640625</ele>
      </trkpt>
      <trkpt lat="41.227489281445742" lon="-8.719848180189729">
        <ele>5.4609375</ele>
      </trkpt>
      <trkpt lat="41.227515181526542" lon="-8.719887910410762">
        <ele>5.3203125</ele>
      </trkpt>
      <trkpt lat="41.227537896484137" lon="-8.719928646460176">
        <ele>5.1640625</ele>
      </trkpt>
      <trkpt lat="41.227560946717858" lon="-8.719977596774697">
        <ele>4.9609375</ele>
      </trkpt>
      <trkpt lat="41.227586092427373" lon="-8.720026882365346">
        <ele>4.76171875</ele>
      </trkpt>
      <trkpt lat="41.227611741051078" lon="-8.720064098015428">
        <ele>4.62109375</ele>
      </trkpt>
      <trkpt lat="41.227633450180292" lon="-8.720109025016427">
        <ele>4.42578125</ele>
      </trkpt>
      <trkpt lat="41.227657673880458" lon="-8.720158897340298">
        <ele>4.2109375</ele>
      </trkpt>
      <trkpt lat="41.227677119895816" lon="-8.720204075798392">
        <ele>4.0078125</ele>
      </trkpt>
      <trkpt lat="41.22769488953054" lon="-8.720249086618423">
        <ele>3.80078125</ele>
      </trkpt>
      <trkpt lat="41.227715341374278" lon="-8.720296528190374">
        <ele>3.58203125</ele>
      </trkpt>
      <trkpt lat="41.227733697742224" lon="-8.720349501818419">
        <ele>3.328125</ele>
      </trkpt>
      <trkpt lat="41.227752808481455" lon="-8.72040431946516">
        <ele>3.06640625</ele>
      </trkpt>
      <trkpt lat="41.227770494297147" lon="-8.720448911190033">
        <ele>2.8515625</ele>
      </trkpt>
      <trkpt lat="41.22778968885541" lon="-8.720493000000715">
        <ele>2.63671875</ele>
      </trkpt>
      <trkpt lat="41.22780729085207" lon="-8.720537759363651">
        <ele>2.45703125</ele>
      </trkpt>
      <trkpt lat="41.227830843999982" lon="-8.720579082146287">
        <ele>2.359375</ele>
      </trkpt>
      <trkpt lat="41.227865042164922" lon="-8.720611939206719">
        <ele>2.296875</ele>
      </trkpt>
      <trkpt lat="41.227900581434369" lon="-8.720626439899206">
        <ele>2.2890625</ele>
      </trkpt>
      <trkpt lat="41.227938467636704" lon="-8.720624009147286">
        <ele>2.3359375</ele>
      </trkpt>
      <trkpt lat="41.227977024391294" lon="-8.720624009147286">
        <ele>2.37890625</ele>
      </trkpt>
      <trkpt lat="41.228014323860407" lon="-8.720630882307887">
        <ele>2.39453125</ele>
      </trkpt>
      <trkpt lat="41.228052377700806" lon="-8.720645131543279">
        <ele>2.38671875</ele>
      </trkpt>
      <trkpt lat="41.228091437369585" lon="-8.720658542588353">
        <ele>2.37890625</ele>
      </trkpt>
      <trkpt lat="41.22813519090414" lon="-8.720673713833094">
        <ele>2.37109375</ele>
      </trkpt>
      <trkpt lat="41.228177770972252" lon="-8.720686202868819">
        <ele>2.3671875</ele>
      </trkpt>
      <trkpt lat="41.228217417374253" lon="-8.720696680247784">
        <ele>2.359375</ele>
      </trkpt>
      <trkpt lat="41.228257650509477" lon="-8.720702966675162">
        <ele>2.30078125</ele>
      </trkpt>
      <trkpt lat="41.228296710178256" lon="-8.72070673853159">
        <ele>2.25</ele>
      </trkpt>
      <trkpt lat="41.228336440399289" lon="-8.720714282244444">
        <ele>2.1875</ele>
      </trkpt>
      <trkpt lat="41.22837508097291" lon="-8.720717299729586">
        <ele>2.140625</ele>
      </trkpt>
      <trkpt lat="41.2284205108881" lon="-8.720717299729586">
        <ele>2.09765625</ele>
      </trkpt>
      <trkpt lat="41.22845864854753" lon="-8.720717299729586">
        <ele>2.0625</ele>
      </trkpt>
      <trkpt lat="41.228497121483088" lon="-8.720716293901205">
        <ele>2.03125</ele>
      </trkpt>
      <trkpt lat="41.228534923866391" lon="-8.72070824727416">
        <ele>2.0234375</ele>
      </trkpt>
      <trkpt lat="41.228553196415305" lon="-8.720703218132257">
        <ele>2.0234375</ele>
      </trkpt>
      <trkpt lat="41.22894823551178" lon="-8.720526779070497">
        <ele>2.1015625</ele>
      </trkpt>
      <trkpt lat="41.229124423116446" lon="-8.720450671389699">
        <ele>2.23046875</ele>
      </trkpt>
      <trkpt lat="41.229165242984891" lon="-8.720430471003056">
        <ele>2.2734375</ele>
      </trkpt>
      <trkpt lat="41.229204218834639" lon="-8.720407756045461">
        <ele>2.32421875</ele>
      </trkpt>
      <trkpt lat="41.229243529960513" lon="-8.720389483496547">
        <ele>2.3515625</ele>
      </trkpt>
      <trkpt lat="41.229283763095737" lon="-8.720374731346965">
        <ele>2.36328125</ele>
      </trkpt>
      <trkpt lat="41.22932106256485" lon="-8.720361571758986">
        <ele>2.3671875</ele>
      </trkpt>
      <trkpt lat="41.229359367862344" lon="-8.720352267846465">
        <ele>2.35546875</ele>
      </trkpt>
      <trkpt lat="41.229397254064679" lon="-8.720351262018085">
        <ele>2.3046875</ele>
      </trkpt>
      <trkpt lat="41.229435140267015" lon="-8.72036274522543">
        <ele>2.19921875</ele>
      </trkpt>
      <trkpt lat="41.229474702849984" lon="-8.720376575365663">
        <ele>2.0859375</ele>
      </trkpt>
      <trkpt lat="41.229512756690383" lon="-8.720393422991037">
        <ele>1.9609375</ele>
      </trkpt>
      <trkpt lat="41.229547457769513" lon="-8.720415718853474">
        <ele>1.82421875</ele>
      </trkpt>
      <trkpt lat="41.229581572115421" lon="-8.720440529286861">
        <ele>1.67578125</ele>
      </trkpt>
      <trkpt lat="41.229590624570847" lon="-8.720445474609733">
        <ele>1.64453125</ele>
      </trkpt>
      <trkpt lat="41.229826407507062" lon="-8.720526611432433">
        <ele>1.0546875</ele>
      </trkpt>
      <trkpt lat="41.229870412498713" lon="-8.720525186508894">
        <ele>1.00390625</ele>
      </trkpt>
      <trkpt lat="41.229911651462317" lon="-8.720523845404387">
        <ele>0.99609375</ele>
      </trkpt>
      <trkpt lat="41.229950794950128" lon="-8.720525437965989">
        <ele>0.9921875</ele>
      </trkpt>
      <trkpt lat="41.230010222643614" lon="-8.72052694670856">
        <ele>0.9921875</ele>
      </trkpt>
      <trkpt lat="41.230055149644613" lon="-8.720529712736607">
        <ele>0.98828125</ele>
      </trkpt>
      <trkpt lat="41.2300989869982" lon="-8.720528371632099">
        <ele>0.98828125</ele>
      </trkpt>
      <trkpt lat="41.230139220133424" lon="-8.720525857061148">
        <ele>0.9921875</ele>
      </trkpt>
      <trkpt lat="41.230177693068981" lon="-8.720525857061148">
        <ele>0.9921875</ele>
      </trkpt>
      <trkpt lat="41.230216920375824" lon="-8.720530467107892">
        <ele>0.98828125</ele>
      </trkpt>
      <trkpt lat="41.230255477130413" lon="-8.72054161503911">
        <ele>0.97265625</ele>
      </trkpt>
      <trkpt lat="41.230300487950444" lon="-8.720551505684853">
        <ele>0.9609375</ele>
      </trkpt>
      <trkpt lat="41.23033988289535" lon="-8.720562737435102">
        <ele>0.94921875</ele>
      </trkpt>
      <trkpt lat="41.230372488498688" lon="-8.72057287953794">
        <ele>0.9375</ele>
      </trkpt>
      <trkpt lat="41.230432922020555" lon="-8.720623170956969">
        <ele>0.875</ele>
      </trkpt>
      <trkpt lat="41.230431916192174" lon="-8.720673797652125">
        <ele>0.81640625</ele>
      </trkpt>
      <trkpt lat="41.23044884763658" lon="-8.720715874806046">
        <ele>0.765625</ele>
      </trkpt>
      <trkpt lat="41.23049134388566" lon="-8.720729788765311">
        <ele>0.75</ele>
      </trkpt>
      <trkpt lat="41.230532163754106" lon="-8.720740601420403">
        <ele>0.734375</ele>
      </trkpt>
      <trkpt lat="41.230571558699012" lon="-8.720750492066145">
        <ele>0.72265625</ele>
      </trkpt>
      <trkpt lat="41.230610199272633" lon="-8.720759963616729">
        <ele>0.7109375</ele>
      </trkpt>
      <trkpt lat="41.230649007484317" lon="-8.72077127918601">
        <ele>0.69921875</ele>
      </trkpt>
      <trkpt lat="41.230692509561777" lon="-8.720781672745943">
        <ele>0.6875</ele>
      </trkpt>
      <trkpt lat="41.230729641392827" lon="-8.720786953344941">
        <ele>0.73828125</ele>
      </trkpt>
      <trkpt lat="41.230770628899336" lon="-8.720795251429081">
        <ele>0.859375</ele>
      </trkpt>
      <trkpt lat="41.230810526758432" lon="-8.720806986093521">
        <ele>0.96875</ele>
      </trkpt>
      <trkpt lat="41.230848329141736" lon="-8.72082157060504">
        <ele>1.0703125</ele>
      </trkpt>
      <trkpt lat="41.230884874239564" lon="-8.72083380818367">
        <ele>1.16796875</ele>
      </trkpt>
      <trkpt lat="41.230926951393485" lon="-8.720842525362968">
        <ele>1.2890625</ele>
      </trkpt>
      <trkpt lat="41.230965256690979" lon="-8.720851242542267">
        <ele>1.39453125</ele>
      </trkpt>
      <trkpt lat="41.231003059074283" lon="-8.720860881730914">
        <ele>1.49609375</ele>
      </trkpt>
      <trkpt lat="41.231048321351409" lon="-8.720873957499862">
        <ele>1.6171875</ele>
      </trkpt>
      <trkpt lat="41.231087883934379" lon="-8.720886278897524">
        <ele>1.71484375</ele>
      </trkpt>
      <trkpt lat="41.231127697974443" lon="-8.720889715477824">
        <ele>1.83203125</ele>
      </trkpt>
      <trkpt lat="41.231167260557413" lon="-8.720882507041097">
        <ele>1.96875</ele>
      </trkpt>
      <trkpt lat="41.231198608875275" lon="-8.720854679122567">
        <ele>2.1171875</ele>
      </trkpt>
      <trkpt lat="41.231221910566092" lon="-8.720814781263471">
        <ele>2.265625</ele>
      </trkpt>
      <trkpt lat="41.231241691857576" lon="-8.720768010243773">
        <ele>2.421875</ele>
      </trkpt>
      <trkpt lat="41.231273040175438" lon="-8.720754431560636">
        <ele>2.55078125</ele>
      </trkpt>
      <trkpt lat="41.231289971619844" lon="-8.720796843990684">
        <ele>2.51953125</ele>
      </trkpt>
      <trkpt lat="41.231294749304652" lon="-8.72084747068584">
        <ele>2.4296875</ele>
      </trkpt>
      <trkpt lat="41.231299778446555" lon="-8.720904216170311">
        <ele>2.33203125</ele>
      </trkpt>
      <trkpt lat="41.231305645778775" lon="-8.720955178141594">
        <ele>2.2421875</ele>
      </trkpt>
      <trkpt lat="41.2313146982342" lon="-8.721004128456116">
        <ele>2.16796875</ele>
      </trkpt>
      <trkpt lat="41.231335988268256" lon="-8.721051067113876">
        <ele>2.1328125</ele>
      </trkpt>
      <trkpt lat="41.231367671862245" lon="-8.721084930002689">
        <ele>2.1484375</ele>
      </trkpt>
      <trkpt lat="41.231401702389121" lon="-8.721105884760618">
        <ele>2.19921875</ele>
      </trkpt>
      <trkpt lat="41.231439672410488" lon="-8.721114350482821">
        <ele>2.28515625</ele>
      </trkpt>
      <trkpt lat="41.231484096497297" lon="-8.721126671880484">
        <ele>2.37890625</ele>
      </trkpt>
      <trkpt lat="41.231521060690284" lon="-8.721139747649431">
        <ele>2.44921875</ele>
      </trkpt>
      <trkpt lat="41.231560874730349" lon="-8.721152991056442">
        <ele>2.484375</ele>
      </trkpt>
      <trkpt lat="41.231599850580096" lon="-8.721167827025056">
        <ele>2.45703125</ele>
      </trkpt>
      <trkpt lat="41.231637401506305" lon="-8.72118316590786">
        <ele>2.4296875</ele>
      </trkpt>
      <trkpt lat="41.23167428188026" lon="-8.721204539760947">
        <ele>2.3828125</ele>
      </trkpt>
      <trkpt lat="41.231711162254214" lon="-8.721225997433066">
        <ele>2.3359375</ele>
      </trkpt>
      <trkpt lat="41.231746366247535" lon="-8.721244940534234">
        <ele>2.2890625</ele>
      </trkpt>
      <trkpt lat="41.231780983507633" lon="-8.721277294680476">
        <ele>2.20703125</ele>
      </trkpt>
      <trkpt lat="41.231814175844193" lon="-8.721305541694164">
        <ele>2.1328125</ele>
      </trkpt>
      <trkpt lat="41.231845524162054" lon="-8.721330519765615">
        <ele>2.0625</ele>
      </trkpt>
      <trkpt lat="41.231882739812136" lon="-8.721351558342576">
        <ele>2.00390625</ele>
      </trkpt>
      <trkpt lat="41.23192205093801" lon="-8.721369579434395">
        <ele>1.9609375</ele>
      </trkpt>
      <trkpt lat="41.231961362063885" lon="-8.721395479515195">
        <ele>1.8984375</ele>
      </trkpt>
      <trkpt lat="41.231995308771729" lon="-8.721424648538232">
        <ele>1.828125</ele>
      </trkpt>
      <trkpt lat="41.232027327641845" lon="-8.721457673236728">
        <ele>1.75</ele>
      </trkpt>
      <trkpt lat="41.23205884359777" lon="-8.72149002738297">
        <ele>1.671875</ele>
      </trkpt>
      <trkpt lat="41.232094634324312" lon="-8.721508383750916">
        <ele>1.625</ele>
      </trkpt>
      <trkpt lat="41.23213754966855" lon="-8.721530428156257">
        <ele>1.57421875</ele>
      </trkpt>
      <trkpt lat="41.232175687327981" lon="-8.721544342115521">
        <ele>1.5390625</ele>
      </trkpt>
      <trkpt lat="41.232212483882904" lon="-8.721558758988976">
        <ele>1.50390625</ele>
      </trkpt>
      <trkpt lat="41.232253639027476" lon="-8.721574265509844">
        <ele>1.46875</ele>
      </trkpt>
      <trkpt lat="41.232293285429478" lon="-8.721591867506504">
        <ele>1.42578125</ele>
      </trkpt>
      <trkpt lat="41.232333686202765" lon="-8.721606871113181">
        <ele>1.390625</ele>
      </trkpt>
      <trkpt lat="41.232376014813781" lon="-8.721621204167604">
        <ele>1.35546875</ele>
      </trkpt>
      <trkpt lat="41.23241750523448" lon="-8.721632100641727">
        <ele>1.45703125</ele>
      </trkpt>
      <trkpt lat="41.232462683692575" lon="-8.7216473557055">
        <ele>1.5625</ele>
      </trkpt>
      <trkpt lat="41.232503755018115" lon="-8.721661604940891">
        <ele>1.65625</ele>
      </trkpt>
      <trkpt lat="41.232543736696243" lon="-8.721672501415014">
        <ele>1.75390625</ele>
      </trkpt>
      <trkpt lat="41.232581119984388" lon="-8.721681134775281">
        <ele>1.84765625</ele>
      </trkpt>
      <trkpt lat="41.232622526586056" lon="-8.721691193059087">
        <ele>1.94921875</ele>
      </trkpt>
      <trkpt lat="41.232665944844484" lon="-8.721701335161924">
        <ele>2.05859375</ele>
      </trkpt>
      <trkpt lat="41.232705926522613" lon="-8.721711980178952">
        <ele>2.15234375</ele>
      </trkpt>
      <trkpt lat="41.232745656743646" lon="-8.721723966300488">
        <ele>2.23828125</ele>
      </trkpt>
      <trkpt lat="41.232783794403076" lon="-8.721735030412674">
        <ele>2.3203125</ele>
      </trkpt>
      <trkpt lat="41.232821010053158" lon="-8.721744837239385">
        <ele>2.40625</ele>
      </trkpt>
      <trkpt lat="41.232858896255493" lon="-8.721757577732205">
        <ele>2.48046875</ele>
      </trkpt>
      <trkpt lat="41.232894854620099" lon="-8.721765037626028">
        <ele>2.56640625</ele>
      </trkpt>
      <trkpt lat="41.233024941757321" lon="-8.721770402044058">
        <ele>2.94140625</ele>
      </trkpt>
      <trkpt lat="41.233066013082862" lon="-8.721767887473106">
        <ele>3.0703125</ele>
      </trkpt>
      <trkpt lat="41.233103815466166" lon="-8.721765708178282">
        <ele>3.19140625</ele>
      </trkpt>
      <trkpt lat="41.233146479353309" lon="-8.721762271597981">
        <ele>3.33203125</ele>
      </trkpt>
      <trkpt lat="41.233187802135944" lon="-8.721757493913174">
        <ele>3.47265625</ele>
      </trkpt>
      <trkpt lat="41.233227867633104" lon="-8.721753805875778">
        <ele>3.56640625</ele>
      </trkpt>
      <trkpt lat="41.23326575383544" lon="-8.721752548590302">
        <ele>3.58984375</ele>
      </trkpt>
      <trkpt lat="41.233306908980012" lon="-8.721753805875778">
        <ele>3.60546875</ele>
      </trkpt>
      <trkpt lat="41.233347142115235" lon="-8.721756488084793">
        <ele>3.62109375</ele>
      </trkpt>
      <trkpt lat="41.23338645324111" lon="-8.721758918836713">
        <ele>3.63671875</ele>
      </trkpt>
      <trkpt lat="41.233425680547953" lon="-8.721771156415343">
        <ele>3.625</ele>
      </trkpt>
      <trkpt lat="41.233469350263476" lon="-8.721792697906494">
        <ele>3.59765625</ele>
      </trkpt>
      <trkpt lat="41.233504051342607" lon="-8.721827734261751">
        <ele>3.5390625</ele>
      </trkpt>
      <trkpt lat="41.233533136546612" lon="-8.721866710111499">
        <ele>3.48046875</ele>
      </trkpt>
      <trkpt lat="41.233560629189014" lon="-8.721904009580612">
        <ele>3.4296875</ele>
      </trkpt>
      <trkpt lat="41.233588205650449" lon="-8.721956061199307">
        <ele>3.359375</ele>
      </trkpt>
      <trkpt lat="41.233612010255456" lon="-8.722002580761909">
        <ele>3.3046875</ele>
      </trkpt>
      <trkpt lat="41.233634389936924" lon="-8.722049351781607">
        <ele>3.2578125</ele>
      </trkpt>
      <trkpt lat="41.233653500676155" lon="-8.722092770040035">
        <ele>3.22265625</ele>
      </trkpt>
      <trkpt lat="41.233678143471479" lon="-8.722139121964574">
        <ele>3.1953125</ele>
      </trkpt>
      <trkpt lat="41.233698595315218" lon="-8.722182875499129">
        <ele>3.17578125</ele>
      </trkpt>
      <trkpt lat="41.233721561729908" lon="-8.722223360091448">
        <ele>3.15625</ele>
      </trkpt>
      <trkpt lat="41.233744192868471" lon="-8.722270717844367">
        <ele>3.11328125</ele>
      </trkpt>
      <trkpt lat="41.233769590035081" lon="-8.722312124446034">
        <ele>3.08984375</ele>
      </trkpt>
      <trkpt lat="41.233795573934913" lon="-8.722354536876082">
        <ele>3.05859375</ele>
      </trkpt>
      <trkpt lat="41.233821390196681" lon="-8.722395692020655">
        <ele>3.03125</ele>
      </trkpt>
      <trkpt lat="41.233848547562957" lon="-8.722439780831337">
        <ele>2.9921875</ele>
      </trkpt>
      <trkpt lat="41.233877968043089" lon="-8.722478756681085">
        <ele>2.96875</ele>
      </trkpt>
      <trkpt lat="41.23390487395227" lon="-8.722518738359213">
        <ele>2.93359375</ele>
      </trkpt>
      <trkpt lat="41.23392834328115" lon="-8.722562659531832">
        <ele>2.8828125</ele>
      </trkpt>
      <trkpt lat="41.233932198956609" lon="-8.722571544349194">
        <ele>2.8671875</ele>
      </trkpt>
      <trkpt lat="41.234022136777639" lon="-8.722700541839004">
        <ele>2.73046875</ele>
      </trkpt>
      <trkpt lat="41.234050467610359" lon="-8.722733231261373">
        <ele>2.69921875</ele>
      </trkpt>
      <trkpt lat="41.234081899747252" lon="-8.722763154655695">
        <ele>2.69140625</ele>
      </trkpt>
      <trkpt lat="41.234115175902843" lon="-8.722788132727146">
        <ele>2.703125</ele>
      </trkpt>
      <trkpt lat="41.234148954972625" lon="-8.722818307578564">
        <ele>2.703125</ele>
      </trkpt>
      <trkpt lat="41.234179968014359" lon="-8.722846303135157">
        <ele>2.70703125</ele>
      </trkpt>
      <trkpt lat="41.2342176027596" lon="-8.722862312570214">
        <ele>2.75390625</ele>
      </trkpt>
      <trkpt lat="41.234254315495491" lon="-8.722852170467377">
        <ele>2.85546875</ele>
      </trkpt>
      <trkpt lat="41.234281556680799" lon="-8.722813697531819">
        <ele>2.9921875</ele>
      </trkpt>
      <trkpt lat="41.234303768724203" lon="-8.722769357264042">
        <ele>3.12890625</ele>
      </trkpt>
      <trkpt lat="41.234320197254419" lon="-8.722721748054028">
        <ele>3.2578125</ele>
      </trkpt>
      <trkpt lat="41.234330423176289" lon="-8.722666343674064">
        <ele>3.390625</ele>
      </trkpt>
      <trkpt lat="41.234339559450746" lon="-8.722613956779242">
        <ele>3.51171875</ele>
      </trkpt>
      <trkpt lat="41.234350120648742" lon="-8.722560480237007">
        <ele>3.6328125</ele>
      </trkpt>
      <trkpt lat="41.234360095113516" lon="-8.722509518265724">
        <ele>3.75</ele>
      </trkpt>
      <trkpt lat="41.234372835606337" lon="-8.722452437505126">
        <ele>3.8828125</ele>
      </trkpt>
      <trkpt lat="41.23438666574657" lon="-8.722402062267065">
        <ele>4</ele>
      </trkpt>
      <trkpt lat="41.234403261914849" lon="-8.722346490249038">
        <ele>4.12890625</ele>
      </trkpt>
      <trkpt lat="41.234416589140892" lon="-8.722298378124833">
        <ele>4.23828125</ele>
      </trkpt>
      <trkpt lat="41.234430838376284" lon="-8.722248505800962">
        <ele>4.3515625</ele>
      </trkpt>
      <trkpt lat="41.23444827273488" lon="-8.722201231867075">
        <ele>4.45703125</ele>
      </trkpt>
      <trkpt lat="41.234466629102826" lon="-8.722156137228012">
        <ele>4.5078125</ele>
      </trkpt>
      <trkpt lat="41.234485991299152" lon="-8.722110036760569">
        <ele>4.53125</ele>
      </trkpt>
      <trkpt lat="41.234509460628033" lon="-8.722071312367916">
        <ele>4.55859375</ele>
      </trkpt>
      <trkpt lat="41.234537037089467" lon="-8.722082041203976">
        <ele>4.59375</ele>
      </trkpt>
      <trkpt lat="41.234556902199984" lon="-8.722127471119165">
        <ele>4.6171875</ele>
      </trkpt>
      <trkpt lat="41.234569307416677" lon="-8.722179187461734">
        <ele>4.6328125</ele>
      </trkpt>
      <trkpt lat="41.234578862786293" lon="-8.722229478880763">
        <ele>4.5703125</ele>
      </trkpt>
      <trkpt lat="41.234594536945224" lon="-8.722281195223331">
        <ele>4.5078125</ele>
      </trkpt>
      <trkpt lat="41.234608115628362" lon="-8.722329223528504">
        <ele>4.44921875</ele>
      </trkpt>
      <trkpt lat="41.234626136720181" lon="-8.722380436956882">
        <ele>4.39453125</ele>
      </trkpt>
      <trkpt lat="41.234641810879111" lon="-8.722429303452373">
        <ele>4.34375</ele>
      </trkpt>
      <trkpt lat="41.234662346541882" lon="-8.722478337585926">
        <ele>4.30078125</ele>
      </trkpt>
      <trkpt lat="41.234687156975269" lon="-8.72252837754786">
        <ele>4.26953125</ele>
      </trkpt>
      <trkpt lat="41.234705848619342" lon="-8.722574980929494">
        <ele>4.234375</ele>
      </trkpt>
      <trkpt lat="41.234727641567588" lon="-8.722618985921144">
        <ele>4.2109375</ele>
      </trkpt>
      <trkpt lat="41.234757648780942" lon="-8.722655195742846">
        <ele>4.21484375</ele>
      </trkpt>
      <trkpt lat="41.234786231070757" lon="-8.722691154107451">
        <ele>4.21875</ele>
      </trkpt>
      <trkpt lat="41.234815483912826" lon="-8.72272384352982">
        <ele>4.234375</ele>
      </trkpt>
      <trkpt lat="41.234849514439702" lon="-8.722757287323475">
        <ele>4.26171875</ele>
      </trkpt>
      <trkpt lat="41.234883964061737" lon="-8.722783271223307">
        <ele>4.28125</ele>
      </trkpt>
      <trkpt lat="41.234918665140867" lon="-8.722815625369549">
        <ele>4.2421875</ele>
      </trkpt>
      <trkpt lat="41.234952192753553" lon="-8.722844123840332">
        <ele>4.2109375</ele>
      </trkpt>
      <trkpt lat="41.234992174431682" lon="-8.722868682816625">
        <ele>4.1796875</ele>
      </trkpt>
      <trkpt lat="41.235029976814985" lon="-8.722885195165873">
        <ele>4.16015625</ele>
      </trkpt>
      <trkpt lat="41.23506392352283" lon="-8.722913274541497">
        <ele>4.125</ele>
      </trkpt>
      <trkpt lat="41.235096948221326" lon="-8.722945712506771">
        <ele>4.0859375</ele>
      </trkpt>
      <trkpt lat="41.235128967091441" lon="-8.722977228462696">
        <ele>4.05078125</ele>
      </trkpt>
      <trkpt lat="41.235165428370237" lon="-8.722999189049006">
        <ele>4.0234375</ele>
      </trkpt>
      <trkpt lat="41.235200380906463" lon="-8.723020730540156">
        <ele>3.9921875</ele>
      </trkpt>
      <trkpt lat="41.235239189118147" lon="-8.723051911219954">
        <ele>3.8984375</ele>
      </trkpt>
      <trkpt lat="41.235278332605958" lon="-8.723077559843659">
        <ele>3.8203125</ele>
      </trkpt>
      <trkpt lat="41.235313536599278" lon="-8.723099352791905">
        <ele>3.7578125</ele>
      </trkpt>
      <trkpt lat="41.235351171344519" lon="-8.723114775493741">
        <ele>3.71875</ele>
      </trkpt>
      <trkpt lat="41.235389225184917" lon="-8.723128018900752">
        <ele>3.6875</ele>
      </trkpt>
      <trkpt lat="41.235428117215633" lon="-8.723138915374875">
        <ele>3.66015625</ele>
      </trkpt>
      <trkpt lat="41.235466506332159" lon="-8.723142268136144">
        <ele>3.66015625</ele>
      </trkpt>
      <trkpt lat="41.235504979267716" lon="-8.723133970052004">
        <ele>3.6875</ele>
      </trkpt>
      <trkpt lat="41.235545547679067" lon="-8.723122989758849">
        <ele>3.72265625</ele>
      </trkpt>
      <trkpt lat="41.23558821156621" lon="-8.723121732473373">
        <ele>3.734375</ele>
      </trkpt>
      <trkpt lat="41.235631043091416" lon="-8.723127013072371">
        <ele>3.7265625</ele>
      </trkpt>
      <trkpt lat="41.235671946778893" lon="-8.72313673608005">
        <ele>3.7109375</ele>
      </trkpt>
      <trkpt lat="41.235715365037322" lon="-8.723147548735142">
        <ele>3.6953125</ele>
      </trkpt>
      <trkpt lat="41.235752580687404" lon="-8.723162384703755">
        <ele>3.69921875</ele>
      </trkpt>
      <trkpt lat="41.235794071108103" lon="-8.723178980872035">
        <ele>3.6953125</ele>
      </trkpt>
      <trkpt lat="41.235830280929804" lon="-8.723196247592568">
        <ele>3.6875</ele>
      </trkpt>
      <trkpt lat="41.235865987837315" lon="-8.723214436322451">
        <ele>3.671875</ele>
      </trkpt>
      <trkpt lat="41.235880488529801" lon="-8.723220806568861">
        <ele>3.671875</ele>
      </trkpt>
      <trkpt lat="41.236000768840313" lon="-8.723308481276035">
        <ele>3.53125</ele>
      </trkpt>
      <trkpt lat="41.23603873886168" lon="-8.723321724683046">
        <ele>3.5234375</ele>
      </trkpt>
      <trkpt lat="41.236078888177872" lon="-8.723339242860675">
        <ele>3.50390625</ele>
      </trkpt>
      <trkpt lat="41.236115684732795" lon="-8.723355084657669">
        <ele>3.484375</ele>
      </trkpt>
      <trkpt lat="41.236154157668352" lon="-8.723374111577868">
        <ele>3.453125</ele>
      </trkpt>
      <trkpt lat="41.236191373318434" lon="-8.723387522622943">
        <ele>3.4375</ele>
      </trkpt>
      <trkpt lat="41.236228253692389" lon="-8.723401855677366">
        <ele>3.4140625</ele>
      </trkpt>
      <trkpt lat="41.236267313361168" lon="-8.723416440188885">
        <ele>3.39453125</ele>
      </trkpt>
      <trkpt lat="41.236309641972184" lon="-8.723428091034293">
        <ele>3.3828125</ele>
      </trkpt>
      <trkpt lat="41.236347695812583" lon="-8.723437478765845">
        <ele>3.375</ele>
      </trkpt>
      <trkpt lat="41.236386839300394" lon="-8.723444854840636">
        <ele>3.375</ele>
      </trkpt>
      <trkpt lat="41.236427323892713" lon="-8.723448542878032">
        <ele>3.3828125</ele>
      </trkpt>
      <trkpt lat="41.23646822758019" lon="-8.723452147096395">
        <ele>3.39453125</ele>
      </trkpt>
      <trkpt lat="41.236508963629603" lon="-8.723449883982539">
        <ele>3.42578125</ele>
      </trkpt>
      <trkpt lat="41.236548610031605" lon="-8.72344552539289">
        <ele>3.4609375</ele>
      </trkpt>
      <trkpt lat="41.236589094623923" lon="-8.723434209823608">
        <ele>3.50390625</ele>
      </trkpt>
      <trkpt lat="41.23662605881691" lon="-8.723423816263676">
        <ele>3.5390625</ele>
      </trkpt>
      <trkpt lat="41.23666369356215" lon="-8.723413590341806">
        <ele>3.578125</ele>
      </trkpt>
      <trkpt lat="41.236706944182515" lon="-8.723410069942474">
        <ele>3.58984375</ele>
      </trkpt>
      <trkpt lat="41.236752877011895" lon="-8.723406298086047">
        <ele>3.6015625</ele>
      </trkpt>
      <trkpt lat="41.236790763214231" lon="-8.72340495698154">
        <ele>3.609375</ele>
      </trkpt>
      <trkpt lat="41.23682982288301" lon="-8.723402274772525">
        <ele>3.6171875</ele>
      </trkpt>
      <trkpt lat="41.236867876723409" lon="-8.723401101306081">
        <ele>3.62109375</ele>
      </trkpt>
      <trkpt lat="41.236908696591854" lon="-8.723399927839637">
        <ele>3.625</ele>
      </trkpt>
      <trkpt lat="41.236948007717729" lon="-8.723397497087717">
        <ele>3.6328125</ele>
      </trkpt>
      <trkpt lat="41.236990252509713" lon="-8.723386181518435">
        <ele>3.67578125</ele>
      </trkpt>
      <trkpt lat="41.237027300521731" lon="-8.723370842635632">
        <ele>3.73046875</ele>
      </trkpt>
      <trkpt lat="41.237063342705369" lon="-8.723350139334798">
        <ele>3.8046875</ele>
      </trkpt>
      <trkpt lat="41.237101480364799" lon="-8.723336309194565">
        <ele>3.85546875</ele>
      </trkpt>
      <trkpt lat="41.237142132595181" lon="-8.723324239253998">
        <ele>3.8984375</ele>
      </trkpt>
      <trkpt lat="41.237171553075314" lon="-8.723314935341477">
        <ele>3.93359375</ele>
      </trkpt>
      <trkpt lat="41.237281356006861" lon="-8.723320802673697">
        <ele>3.91015625</ele>
      </trkpt>
      <trkpt lat="41.237320080399513" lon="-8.72332289814949">
        <ele>3.90234375</ele>
      </trkpt>
      <trkpt lat="41.237363582476974" lon="-8.723326167091727">
        <ele>3.890625</ele>
      </trkpt>
      <trkpt lat="41.237404737621546" lon="-8.723329100757837">
        <ele>3.90625</ele>
      </trkpt>
      <trkpt lat="41.237446898594499" lon="-8.723334297537804">
        <ele>3.9296875</ele>
      </trkpt>
      <trkpt lat="41.237490903586149" lon="-8.723340583965182">
        <ele>3.94921875</ele>
      </trkpt>
      <trkpt lat="41.237534489482641" lon="-8.723338069394231">
        <ele>3.99609375</ele>
      </trkpt>
      <trkpt lat="41.237573381513357" lon="-8.723335554823279">
        <ele>4.0390625</ele>
      </trkpt>
      <trkpt lat="41.237613866105676" lon="-8.723335554823279">
        <ele>4.078125</ele>
      </trkpt>
      <trkpt lat="41.237666504457593" lon="-8.723344691097736">
        <ele>4.1015625</ele>
      </trkpt>
      <trkpt lat="41.237708916887641" lon="-8.723356174305081">
        <ele>4.109375</ele>
      </trkpt>
      <trkpt lat="41.237746467813849" lon="-8.723361119627953">
        <ele>4.1328125</ele>
      </trkpt>
      <trkpt lat="41.237784270197153" lon="-8.723363550379872">
        <ele>4.1640625</ele>
      </trkpt>
      <trkpt lat="41.237820480018854" lon="-8.723376793786883">
        <ele>4.171875</ele>
      </trkpt>
      <trkpt lat="41.237854342907667" lon="-8.723405124619603">
        <ele>4.140625</ele>
      </trkpt>
      <trkpt lat="41.237886697053909" lon="-8.723437562584877">
        <ele>4.109375</ele>
      </trkpt>
      <trkpt lat="41.23792290687561" lon="-8.723468659445643">
        <ele>4.08984375</ele>
      </trkpt>
      <trkpt lat="41.237956434488297" lon="-8.723499840125442">
        <ele>4.07421875</ele>
      </trkpt>
      <trkpt lat="41.237990716472268" lon="-8.723535463213921">
        <ele>4.0546875</ele>
      </trkpt>
      <trkpt lat="41.238024663180113" lon="-8.723568823188543">
        <ele>4.05078125</ele>
      </trkpt>
      <trkpt lat="41.238058358430862" lon="-8.723592795431614">
        <ele>4.0625</ele>
      </trkpt>
      <trkpt lat="41.238089874386787" lon="-8.723621712997556">
        <ele>4.0703125</ele>
      </trkpt>
      <trkpt lat="41.238094484433532" lon="-8.723625736311078">
        <ele>4.07421875</ele>
      </trkpt>
      <trkpt lat="41.238245526328683" lon="-8.723721876740456">
        <ele>4.24609375</ele>
      </trkpt>
      <trkpt lat="41.238281903788447" lon="-8.723744004964828">
        <ele>4.30859375</ele>
      </trkpt>
      <trkpt lat="41.238318867981434" lon="-8.723769234493375">
        <ele>4.3671875</ele>
      </trkpt>
      <trkpt lat="41.238355496898293" lon="-8.723794631659985">
        <ele>4.42578125</ele>
      </trkpt>
      <trkpt lat="41.238395143300295" lon="-8.723824471235275">
        <ele>4.484375</ele>
      </trkpt>
      <trkpt lat="41.238431436941028" lon="-8.723850036039948">
        <ele>4.5390625</ele>
      </trkpt>
      <trkpt lat="41.238465216010809" lon="-8.723877444863319">
        <ele>4.54296875</ele>
      </trkpt>
      <trkpt lat="41.238500839099288" lon="-8.723904937505722">
        <ele>4.55859375</ele>
      </trkpt>
      <trkpt lat="41.23853906057775" lon="-8.723925808444619">
        <ele>4.6015625</ele>
      </trkpt>
      <trkpt lat="41.238577030599117" lon="-8.723940812051296">
        <ele>4.66015625</ele>
      </trkpt>
      <trkpt lat="41.23861575499177" lon="-8.723953804001212">
        <ele>4.734375</ele>
      </trkpt>
      <trkpt lat="41.238652467727661" lon="-8.723970064893365">
        <ele>4.79296875</ele>
      </trkpt>
      <trkpt lat="41.238692197948694" lon="-8.723986577242613">
        <ele>4.8671875</ele>
      </trkpt>
      <trkpt lat="41.238734358921647" lon="-8.724002251401544">
        <ele>4.953125</ele>
      </trkpt>
      <trkpt lat="41.238776855170727" lon="-8.724017338827252">
        <ele>5.04296875</ele>
      </trkpt>
      <trkpt lat="41.238814909011126" lon="-8.724027564749122">
        <ele>5.1328125</ele>
      </trkpt>
      <trkpt lat="41.238851705566049" lon="-8.724040137603879">
        <ele>5.21875</ele>
      </trkpt>
      <trkpt lat="41.238890094682574" lon="-8.724053800106049">
        <ele>5.30859375</ele>
      </trkpt>
      <trkpt lat="41.238929154351354" lon="-8.724071234464645">
        <ele>5.3984375</ele>
      </trkpt>
      <trkpt lat="41.238966286182404" lon="-8.724083974957466">
        <ele>5.4921875</ele>
      </trkpt>
      <trkpt lat="41.239006435498595" lon="-8.72409688308835">
        <ele>5.6015625</ele>
      </trkpt>
      <trkpt lat="41.239043651148677" lon="-8.724107863381505">
        <ele>5.6953125</ele>
      </trkpt>
      <trkpt lat="41.239079693332314" lon="-8.724129572510719">
        <ele>5.71484375</ele>
      </trkpt>
      <trkpt lat="41.239110119640827" lon="-8.724159998819232">
        <ele>5.71484375</ele>
      </trkpt>
      <trkpt lat="41.239139372482896" lon="-8.724192269146442">
        <ele>5.7109375</ele>
      </trkpt>
      <trkpt lat="41.239166613668203" lon="-8.724227389320731">
        <ele>5.69921875</ele>
      </trkpt>
      <trkpt lat="41.239196117967367" lon="-8.724257228896022">
        <ele>5.69921875</ele>
      </trkpt>
      <trkpt lat="41.239229058846831" lon="-8.724286314100027">
        <ele>5.703125</ele>
      </trkpt>
      <trkpt lat="41.239261580631137" lon="-8.724319338798523">
        <ele>5.703125</ele>
      </trkpt>
      <trkpt lat="41.239288486540318" lon="-8.724360493943095">
        <ele>5.6875</ele>
      </trkpt>
      <trkpt lat="41.23931547626853" lon="-8.72440081089735">
        <ele>5.671875</ele>
      </trkpt>
      <trkpt lat="41.239346824586391" lon="-8.724431991577148">
        <ele>5.671875</ele>
      </trkpt>
      <trkpt lat="41.239375490695238" lon="-8.724464429542422">
        <ele>5.66796875</ele>
      </trkpt>
      <trkpt lat="41.239402899518609" lon="-8.724498795345426">
        <ele>5.66015625</ele>
      </trkpt>
      <trkpt lat="41.23942980542779" lon="-8.724536681547761">
        <ele>5.64453125</ele>
      </trkpt>
      <trkpt lat="41.239452436566353" lon="-8.724577333778143">
        <ele>5.625</ele>
      </trkpt>
      <trkpt lat="41.23946844600141" lon="-8.724620416760445">
        <ele>5.58984375</ele>
      </trkpt>
      <trkpt lat="41.239469200372696" lon="-8.72467347420752">
        <ele>5.52734375</ele>
      </trkpt>
      <trkpt lat="41.239464255049825" lon="-8.724725106731057">
        <ele>5.36328125</ele>
      </trkpt>
      <trkpt lat="41.239458303898573" lon="-8.724777074530721">
        <ele>5.16796875</ele>
      </trkpt>
      <trkpt lat="41.23945620842278" lon="-8.724827282130718">
        <ele>4.984375</ele>
      </trkpt>
      <trkpt lat="41.23945914208889" lon="-8.724877992644906">
        <ele>4.8046875</ele>
      </trkpt>
      <trkpt lat="41.239468278363347" lon="-8.724929457530379">
        <ele>4.62890625</ele>
      </trkpt>
      <trkpt lat="41.239490574225783" lon="-8.724970361217856">
        <ele>4.51171875</ele>
      </trkpt>
      <trkpt lat="41.239521922543645" lon="-8.725010510534048">
        <ele>4.40234375</ele>
      </trkpt>
      <trkpt lat="41.239558216184378" lon="-8.725039679557085">
        <ele>4.33984375</ele>
      </trkpt>
      <trkpt lat="41.239591995254159" lon="-8.725070608779788">
        <ele>4.26953125</ele>
      </trkpt>
      <trkpt lat="41.239633485674858" lon="-8.725085025653243">
        <ele>4.26953125</ele>
      </trkpt>
      <trkpt lat="41.239674976095557" lon="-8.72510002925992">
        <ele>4.265625</ele>
      </trkpt>
      <trkpt lat="41.239712694659829" lon="-8.725104723125696">
        <ele>4.29296875</ele>
      </trkpt>
      <trkpt lat="41.239755274727941" lon="-8.725103549659252">
        <ele>4.34765625</ele>
      </trkpt>
      <trkpt lat="41.239802716299891" lon="-8.72511176392436">
        <ele>4.375</ele>
      </trkpt>
      <trkpt lat="41.239846553653479" lon="-8.725118637084961">
        <ele>4.40234375</ele>
      </trkpt>
      <trkpt lat="41.239884523674846" lon="-8.725128779187799">
        <ele>4.4140625</ele>
      </trkpt>
      <trkpt lat="41.23992039822042" lon="-8.725143363699317">
        <ele>4.40234375</ele>
      </trkpt>
      <trkpt lat="41.239954093471169" lon="-8.72516649775207">
        <ele>4.359375</ele>
      </trkpt>
      <trkpt lat="41.239991812035441" lon="-8.725188793614507">
        <ele>4.32421875</ele>
      </trkpt>
      <trkpt lat="41.240028692409396" lon="-8.725207820534706">
        <ele>4.30078125</ele>
      </trkpt>
      <trkpt lat="41.240061214193702" lon="-8.725234558805823">
        <ele>4.2421875</ele>
      </trkpt>
      <trkpt lat="41.24009826220572" lon="-8.725257273763418">
        <ele>4.20703125</ele>
      </trkpt>
      <trkpt lat="41.240136735141277" lon="-8.72527839615941">
        <ele>4.17578125</ele>
      </trkpt>
      <trkpt lat="41.240172777324915" lon="-8.72529256157577">
        <ele>4.16796875</ele>
      </trkpt>
      <trkpt lat="41.240210076794028" lon="-8.725302536040545">
        <ele>4.17578125</ele>
      </trkpt>
      <trkpt lat="41.240247962996364" lon="-8.72531401924789">
        <ele>4.1796875</ele>
      </trkpt>
      <trkpt lat="41.240285178646445" lon="-8.725332291796803">
        <ele>4.16015625</ele>
      </trkpt>
      <trkpt lat="41.240321472287178" lon="-8.725345367565751">
        <ele>4.15625</ele>
      </trkpt>
      <trkpt lat="41.240330776199698" lon="-8.725350480526686">
        <ele>4.1484375</ele>
      </trkpt>
      <trkpt lat="41.240398921072483" lon="-8.725406136363745">
        <ele>4.03125</ele>
      </trkpt>
      <trkpt lat="41.240431107580662" lon="-8.725431365892291">
        <ele>3.98046875</ele>
      </trkpt>
      <trkpt lat="41.240461952984333" lon="-8.725459948182106">
        <ele>3.9140625</ele>
      </trkpt>
      <trkpt lat="41.240496402606368" lon="-8.725485177710652">
        <ele>3.86328125</ele>
      </trkpt>
      <trkpt lat="41.240525990724564" lon="-8.725516526028514">
        <ele>3.78515625</ele>
      </trkpt>
      <trkpt lat="41.240546191111207" lon="-8.725544353947043">
        <ele>3.7109375</ele>
      </trkpt>
      <trkpt lat="41.240586508065462" lon="-8.725647535175085">
        <ele>3.38671875</ele>
      </trkpt>
      <trkpt lat="41.240607965737581" lon="-8.725689360871911">
        <ele>3.26171875</ele>
      </trkpt>
      <trkpt lat="41.24062791466713" lon="-8.72573671862483">
        <ele>3.11328125</ele>
      </trkpt>
      <trkpt lat="41.24064601957798" lon="-8.725782902911305">
        <ele>2.96875</ele>
      </trkpt>
      <trkpt lat="41.240668231621385" lon="-8.725828919559717">
        <ele>2.83203125</ele>
      </trkpt>
      <trkpt lat="41.240697149187326" lon="-8.725867979228497">
        <ele>2.7265625</ele>
      </trkpt>
      <trkpt lat="41.240719864144921" lon="-8.725911984220147">
        <ele>2.6015625</ele>
      </trkpt>
      <trkpt lat="41.240739729255438" lon="-8.725957330316305">
        <ele>2.47265625</ele>
      </trkpt>
      <trkpt lat="41.240762276574969" lon="-8.726000832393765">
        <ele>2.3515625</ele>
      </trkpt>
      <trkpt lat="41.24079211615026" lon="-8.726034946739674">
        <ele>2.27734375</ele>
      </trkpt>
      <trkpt lat="41.240825643762946" lon="-8.726064115762711">
        <ele>2.22265625</ele>
      </trkpt>
      <trkpt lat="41.240860261023045" lon="-8.726086746901274">
        <ele>2.19140625</ele>
      </trkpt>
      <trkpt lat="41.240899153053761" lon="-8.726104097440839">
        <ele>2.1875</ele>
      </trkpt>
      <trkpt lat="41.240939972922206" lon="-8.726116167381406">
        <ele>2.203125</ele>
      </trkpt>
      <trkpt lat="41.240978529676795" lon="-8.726129997521639">
        <ele>2.20703125</ele>
      </trkpt>
      <trkpt lat="41.241014655679464" lon="-8.726146006956697">
        <ele>2.1953125</ele>
      </trkpt>
      <trkpt lat="41.241057319566607" lon="-8.726179786026478">
        <ele>2.12109375</ele>
      </trkpt>
      <trkpt lat="41.24109361320734" lon="-8.726201746612787">
        <ele>2.08203125</ele>
      </trkpt>
      <trkpt lat="41.241128565743566" lon="-8.726221276447177">
        <ele>2.05078125</ele>
      </trkpt>
      <trkpt lat="41.241166787222028" lon="-8.726259246468544">
        <ele>1.94140625</ele>
      </trkpt>
      <trkpt lat="41.241203332319856" lon="-8.726292438805103">
        <ele>1.84375</ele>
      </trkpt>
      <trkpt lat="41.241232920438051" lon="-8.726323870941997">
        <ele>1.74609375</ele>
      </trkpt>
      <trkpt lat="41.241264855489135" lon="-8.726356057450175">
        <ele>1.66015625</ele>
      </trkpt>
      <trkpt lat="41.24129737727344" lon="-8.726383466273546">
        <ele>1.640625</ele>
      </trkpt>
      <trkpt lat="41.241330988705158" lon="-8.72640467248857">
        <ele>1.63671875</ele>
      </trkpt>
      <trkpt lat="41.241367785260081" lon="-8.72642076574266">
        <ele>1.640625</ele>
      </trkpt>
      <trkpt lat="41.241404581815004" lon="-8.726439289748669">
        <ele>1.640625</ele>
      </trkpt>
      <trkpt lat="41.241443641483784" lon="-8.726450772956014">
        <ele>1.65625</ele>
      </trkpt>
      <trkpt lat="41.241481276229024" lon="-8.726464854553342">
        <ele>1.6640625</ele>
      </trkpt>
      <trkpt lat="41.241518994793296" lon="-8.726475415751338">
        <ele>1.6796875</ele>
      </trkpt>
      <trkpt lat="41.2415567971766" lon="-8.726487066596746">
        <ele>1.671875</ele>
      </trkpt>
      <trkpt lat="41.241592755541205" lon="-8.726501064375043">
        <ele>1.63671875</ele>
      </trkpt>
      <trkpt lat="41.24162963591516" lon="-8.726517409086227">
        <ele>1.59765625</ele>
      </trkpt>
      <trkpt lat="41.241668444126844" lon="-8.726531909778714">
        <ele>1.5625</ele>
      </trkpt>
      <trkpt lat="41.241710018366575" lon="-8.726545069366693">
        <ele>1.53125</ele>
      </trkpt>
      <trkpt lat="41.241747317835689" lon="-8.726557390764356">
        <ele>1.5</ele>
      </trkpt>
      <trkpt lat="41.241786545142531" lon="-8.726568454876542">
        <ele>1.4765625</ele>
      </trkpt>
      <trkpt lat="41.241823676973581" lon="-8.726580692455173">
        <ele>1.4453125</ele>
      </trkpt>
      <trkpt lat="41.241870699450374" lon="-8.726598294451833">
        <ele>1.40234375</ele>
      </trkpt>
      <trkpt lat="41.241908837109804" lon="-8.726612962782383">
        <ele>1.3671875</ele>
      </trkpt>
      <trkpt lat="41.241946136578918" lon="-8.726627714931965">
        <ele>1.33203125</ele>
      </trkpt>
      <trkpt lat="41.241985112428665" lon="-8.726640790700912">
        <ele>1.30078125</ele>
      </trkpt>
      <trkpt lat="41.242021573707461" lon="-8.726652860641479">
        <ele>1.2734375</ele>
      </trkpt>
      <trkpt lat="41.242062645033002" lon="-8.726667109876871">
        <ele>1.23828125</ele>
      </trkpt>
      <trkpt lat="41.242099441587925" lon="-8.72668026946485">
        <ele>1.20703125</ele>
      </trkpt>
      <trkpt lat="41.242137243971229" lon="-8.726693512871861">
        <ele>1.17578125</ele>
      </trkpt>
      <trkpt lat="41.242180746048689" lon="-8.726708767935634">
        <ele>1.13671875</ele>
      </trkpt>
      <trkpt lat="41.242224164307117" lon="-8.726721508428454">
        <ele>1.10546875</ele>
      </trkpt>
      <trkpt lat="41.242267666384578" lon="-8.726733326911926">
        <ele>1.078125</ele>
      </trkpt>
      <trkpt lat="41.242307731881738" lon="-8.726738439872861">
        <ele>1.06640625</ele>
      </trkpt>
      <trkpt lat="41.242348048835993" lon="-8.726742127910256">
        <ele>1.05859375</ele>
      </trkpt>
      <trkpt lat="41.242385767400265" lon="-8.726749084889889">
        <ele>1.0234375</ele>
      </trkpt>
      <trkpt lat="41.242426251992583" lon="-8.726758640259504">
        <ele>0.94921875</ele>
      </trkpt>
      <trkpt lat="41.242464808747172" lon="-8.72676333412528">
        <ele>0.89453125</ele>
      </trkpt>
      <trkpt lat="41.242503197863698" lon="-8.726767776533961">
        <ele>0.83984375</ele>
      </trkpt>
      <trkpt lat="41.242531696334481" lon="-8.726735087111592">
        <ele>0.8671875</ele>
      </trkpt>
      <trkpt lat="41.242549465969205" lon="-8.726688399910927">
        <ele>0.93359375</ele>
      </trkpt>
      <trkpt lat="41.242563128471375" lon="-8.726635007187724">
        <ele>1.01171875</ele>
      </trkpt>
      <trkpt lat="41.242578886449337" lon="-8.726584715768695">
        <ele>1.078125</ele>
      </trkpt>
      <trkpt lat="41.242597661912441" lon="-8.726534424349666">
        <ele>1.1328125</ele>
      </trkpt>
      <trkpt lat="41.242618868127465" lon="-8.726491509005427">
        <ele>1.16796875</ele>
      </trkpt>
      <trkpt lat="41.242656419053674" lon="-8.726470218971372">
        <ele>1.125</ele>
      </trkpt>
      <trkpt lat="41.242695227265358" lon="-8.726466866210103">
        <ele>1.05078125</ele>
      </trkpt>
      <trkpt lat="41.242733197286725" lon="-8.726464686915278">
        <ele>0.9765625</ele>
      </trkpt>
      <trkpt lat="41.24277401715517" lon="-8.726464686915278">
        <ele>0.890625</ele>
      </trkpt>
      <trkpt lat="41.242812993004918" lon="-8.726463429629803">
        <ele>0.8125</ele>
      </trkpt>
      <trkpt lat="41.242850795388222" lon="-8.726459909230471">
        <ele>0.73828125</ele>
      </trkpt>
      <trkpt lat="41.242888011038303" lon="-8.726439876481891">
        <ele>0.67578125</ele>
      </trkpt>
      <trkpt lat="41.24291910789907" lon="-8.726400816813111">
        <ele>0.64453125</ele>
      </trkpt>
      <trkpt lat="41.242939224466681" lon="-8.726358069106936">
        <ele>0.62890625</ele>
      </trkpt>
      <trkpt lat="41.242961604148149" lon="-8.726312220096588">
        <ele>0.6875</ele>
      </trkpt>
      <trkpt lat="41.242982223629951" lon="-8.726263521239161">
        <ele>0.76953125</ele>
      </trkpt>
      <trkpt lat="41.242997478693724" lon="-8.726217588409781">
        <ele>0.8515625</ele>
      </trkpt>
      <trkpt lat="41.243009967729449" lon="-8.726169392466545">
        <ele>0.94921875</ele>
      </trkpt>
      <trkpt lat="41.243013236671686" lon="-8.72615497559309">
        <ele>0.98046875</ele>
      </trkpt>
      <trkpt lat="41.243028659373522" lon="-8.726076269522309">
        <ele>1.1484375</ele>
      </trkpt>
      <trkpt lat="41.243035197257996" lon="-8.726026732474566">
        <ele>1.26171875</ele>
      </trkpt>
      <trkpt lat="41.243041735142469" lon="-8.725977027788758">
        <ele>1.37109375</ele>
      </trkpt>
      <trkpt lat="41.243048356845975" lon="-8.725925981998444">
        <ele>1.48828125</ele>
      </trkpt>
      <trkpt lat="41.243059001863003" lon="-8.725874936208129">
        <ele>1.58984375</ele>
      </trkpt>
      <trkpt lat="41.243067299947143" lon="-8.725823890417814">
        <ele>1.6953125</ele>
      </trkpt>
      <trkpt lat="41.24308037571609" lon="-8.725779633969069">
        <ele>1.76953125</ele>
      </trkpt>
      <trkpt lat="41.24311801046133" lon="-8.725766390562057">
        <ele>1.6796875</ele>
      </trkpt>
      <trkpt lat="41.243155058473349" lon="-8.725757505744696">
        <ele>1.58203125</ele>
      </trkpt>
      <trkpt lat="41.243192693218589" lon="-8.725749710574746">
        <ele>1.4765625</ele>
      </trkpt>
      <trkpt lat="41.243231501430273" lon="-8.725747866556048">
        <ele>1.3984375</ele>
      </trkpt>
      <trkpt lat="41.24327190220356" lon="-8.725756919011474">
        <ele>1.30859375</ele>
      </trkpt>
      <trkpt lat="41.243312135338783" lon="-8.725764714181423">
        <ele>1.22265625</ele>
      </trkpt>
      <trkpt lat="41.24335546977818" lon="-8.725777622312307">
        <ele>1.125</ele>
      </trkpt>
      <trkpt lat="41.243396373465657" lon="-8.725793296471238">
        <ele>1.02734375</ele>
      </trkpt>
      <trkpt lat="41.243434343487024" lon="-8.725803606212139">
        <ele>0.94921875</ele>
      </trkpt>
      <trkpt lat="41.243473403155804" lon="-8.725815173238516">
        <ele>0.8671875</ele>
      </trkpt>
      <trkpt lat="41.243510199710727" lon="-8.725827746093273">
        <ele>0.79296875</ele>
      </trkpt>
      <trkpt lat="41.243550097569823" lon="-8.725838558748364">
        <ele>0.71875</ele>
      </trkpt>
      <trkpt lat="41.243588989600539" lon="-8.725850125774741">
        <ele>0.64453125</ele>
      </trkpt>
      <trkpt lat="41.243617571890354" lon="-8.72582271695137">
        <ele>0.63671875</ele>
      </trkpt>
      <trkpt lat="41.243627378717065" lon="-8.725774269551039">
        <ele>0.6796875</ele>
      </trkpt>
      <trkpt lat="41.243633581325412" lon="-8.725723391398787">
        <ele>0.73046875</ele>
      </trkpt>
      <trkpt lat="41.24363643117249" lon="-8.725686008110642">
        <ele>0.765625</ele>
      </trkpt>
      <trkpt lat="41.243689572438598" lon="-8.725225422531366">
        <ele>1.828125</ele>
      </trkpt>
      <trkpt lat="41.243697702884674" lon="-8.72517135925591">
        <ele>1.984375</ele>
      </trkpt>
      <trkpt lat="41.243705749511719" lon="-8.725113943219185">
        <ele>2.1484375</ele>
      </trkpt>
      <trkpt lat="41.243712203577161" lon="-8.725056778639555">
        <ele>2.31640625</ele>
      </trkpt>
      <trkpt lat="41.243719160556793" lon="-8.725007073953748">
        <ele>2.453125</ele>
      </trkpt>
      <trkpt lat="41.243725279346108" lon="-8.724955776706338">
        <ele>2.6015625</ele>
      </trkpt>
      <trkpt lat="41.243733828887343" lon="-8.724906072020531">
        <ele>2.73046875</ele>
      </trkpt>
      <trkpt lat="41.243743635714054" lon="-8.724858211353421">
        <ele>2.84375</ele>
      </trkpt>
      <trkpt lat="41.243780348449945" lon="-8.724853685125709">
        <ele>2.69921875</ele>
      </trkpt>
      <trkpt lat="41.2437878921628" lon="-8.724853685125709">
        <ele>2.66796875</ele>
      </trkpt>
      <trkpt lat="41.244475375860929" lon="-8.724944293498993">
        <ele>0.65234375</ele>
      </trkpt>
      <trkpt lat="41.244696993380785" lon="-8.724983101710677">
        <ele>0.265625</ele>
      </trkpt>
      <trkpt lat="41.244738735258579" lon="-8.724998608231544">
        <ele>0.1953125</ele>
      </trkpt>
      <trkpt lat="41.244782153517008" lon="-8.725011264905334">
        <ele>0.12890625</ele>
      </trkpt>
      <trkpt lat="41.244819033890963" lon="-8.725021323189139">
        <ele>0.07421875</ele>
      </trkpt>
      <trkpt lat="41.244858680292964" lon="-8.725032052025199">
        <ele>0.015625</ele>
      </trkpt>
      <trkpt lat="41.244896482676268" lon="-8.7250389251858">
        <ele>0</ele>
      </trkpt>
      <trkpt lat="41.244936799630523" lon="-8.725041104480624">
        <ele>0</ele>
      </trkpt>
      <trkpt lat="41.244976278394461" lon="-8.725041104480624">
        <ele>0</ele>
      </trkpt>
      <trkpt lat="41.245014332234859" lon="-8.725041104480624">
        <ele>0</ele>
      </trkpt>
      <trkpt lat="41.24504417181015" lon="-8.725015707314014">
        <ele>0</ele>
      </trkpt>
      <trkpt lat="41.24506470747292" lon="-8.724972540512681">
        <ele>0</ele>
      </trkpt>
      <trkpt lat="41.245091361925006" lon="-8.724934402853251">
        <ele>0</ele>
      </trkpt>
      <trkpt lat="41.245120195671916" lon="-8.724903389811516">
        <ele>0</ele>
      </trkpt>
      <trkpt lat="41.24513796530664" lon="-8.724900372326374">
        <ele>0</ele>
      </trkpt>
      <trkpt lat="41.245714724063873" lon="-8.724845219403505">
        <ele>0</ele>
      </trkpt>
      <trkpt lat="41.246169861406088" lon="-8.724816972389817">
        <ele>0</ele>
      </trkpt>
      <trkpt lat="41.246669255197048" lon="-8.72477212920785">
        <ele>0</ele>
      </trkpt>
      <trkpt lat="41.246965890750289" lon="-8.724762992933393">
        <ele>0</ele>
      </trkpt>
      <trkpt lat="41.247353050857782" lon="-8.724738350138068">
        <ele>0</ele>
      </trkpt>
      <trkpt lat="41.247353637591004" lon="-8.724738350138068">
        <ele>0</ele>
      </trkpt>
      <trkpt lat="41.247690422460437" lon="-8.724738685414195">
        <ele>0</ele>
      </trkpt>
      <trkpt lat="41.247911034151912" lon="-8.724712114781141">
        <ele>0</ele>
      </trkpt>
      <trkpt lat="41.247948249801993" lon="-8.72469836845994">
        <ele>0</ele>
      </trkpt>
      <trkpt lat="41.247989991679788" lon="-8.724685292690992">
        <ele>0</ele>
      </trkpt>
      <trkpt lat="41.248029721900821" lon="-8.72467246837914">
        <ele>0.04296875</ele>
      </trkpt>
      <trkpt lat="41.248067021369934" lon="-8.724665343761444">
        <ele>0.06640625</ele>
      </trkpt>
      <trkpt lat="41.248104907572269" lon="-8.724658973515034">
        <ele>0.08984375</ele>
      </trkpt>
      <trkpt lat="41.248145895078778" lon="-8.724658973515034">
        <ele>0.08984375</ele>
      </trkpt>
      <trkpt lat="41.248185373842716" lon="-8.724664421752095">
        <ele>0.0703125</ele>
      </trkpt>
      <trkpt lat="41.24822317622602" lon="-8.724673809483647">
        <ele>0.0390625</ele>
      </trkpt>
      <trkpt lat="41.248262152075768" lon="-8.7246866337955">
        <ele>0</ele>
      </trkpt>
      <trkpt lat="41.248301798477769" lon="-8.724698452278972">
        <ele>0</ele>
      </trkpt>
      <trkpt lat="41.2483433727175" lon="-8.724712617695332">
        <ele>0</ele>
      </trkpt>
      <trkpt lat="41.248383605852723" lon="-8.724725022912025">
        <ele>0</ele>
      </trkpt>
      <trkpt lat="41.248421408236027" lon="-8.72473793104291">
        <ele>0</ele>
      </trkpt>
      <trkpt lat="41.248462898656726" lon="-8.724743127822876">
        <ele>0</ele>
      </trkpt>
      <trkpt lat="41.248504389077425" lon="-8.72475016862154">
        <ele>0</ele>
      </trkpt>
      <trkpt lat="41.24854177236557" lon="-8.724757544696331">
        <ele>0</ele>
      </trkpt>
      <trkpt lat="41.248585106804967" lon="-8.724762741476297">
        <ele>0</ele>
      </trkpt>
      <trkpt lat="41.248624250292778" lon="-8.724765256047249">
        <ele>0</ele>
      </trkpt>
      <trkpt lat="41.248665070161223" lon="-8.724764082580805">
        <ele>0</ele>
      </trkpt>
      <trkpt lat="41.248702201992273" lon="-8.724757544696331">
        <ele>0</ele>
      </trkpt>
      <trkpt lat="41.24874017201364" lon="-8.72474773786962">
        <ele>0</ele>
      </trkpt>
      <trkpt lat="41.248779818415642" lon="-8.724734159186482">
        <ele>0</ele>
      </trkpt>
      <trkpt lat="41.248816447332501" lon="-8.724714294075966">
        <ele>0</ele>
      </trkpt>
      <trkpt lat="41.248847376555204" lon="-8.724678419530392">
        <ele>0.01953125</ele>
      </trkpt>
      <trkpt lat="41.248867912217975" lon="-8.724635504186153">
        <ele>0.17578125</ele>
      </trkpt>
      <trkpt lat="41.248892471194267" lon="-8.724587224423885">
        <ele>0.34765625</ele>
      </trkpt>
      <trkpt lat="41.248918706551194" lon="-8.724543722346425">
        <ele>0.50390625</ele>
      </trkpt>
      <trkpt lat="41.248942092061043" lon="-8.724503153935075">
        <ele>0.65234375</ele>
      </trkpt>
      <trkpt lat="41.248966483399272" lon="-8.724460154771805">
        <ele>0.80859375</ele>
      </trkpt>
      <trkpt lat="41.24899523332715" lon="-8.724414305761456">
        <ele>0.97265625</ele>
      </trkpt>
      <trkpt lat="41.249022893607616" lon="-8.724380023777485">
        <ele>1.09375</ele>
      </trkpt>
      <trkpt lat="41.249053403735161" lon="-8.724344819784164">
        <ele>1.22265625</ele>
      </trkpt>
      <trkpt lat="41.24908366240561" lon="-8.724310537800193">
        <ele>1.34375</ele>
      </trkpt>
      <trkpt lat="41.249113753437996" lon="-8.72427131049335">
        <ele>1.48828125</ele>
      </trkpt>
      <trkpt lat="41.24914426356554" lon="-8.724240213632584">
        <ele>1.59765625</ele>
      </trkpt>
      <trkpt lat="41.249180221930146" lon="-8.724214565008879">
        <ele>1.69140625</ele>
      </trkpt>
      <trkpt lat="41.249219952151179" lon="-8.724192939698696">
        <ele>1.76953125</ele>
      </trkpt>
      <trkpt lat="41.249257838353515" lon="-8.7241823785007">
        <ele>1.80859375</ele>
      </trkpt>
      <trkpt lat="41.249299915507436" lon="-8.724172906950116">
        <ele>1.83984375</ele>
      </trkpt>
      <trkpt lat="41.249339981004596" lon="-8.724162681028247">
        <ele>1.87890625</ele>
      </trkpt>
      <trkpt lat="41.249380800873041" lon="-8.724148347973824">
        <ele>1.9296875</ele>
      </trkpt>
      <trkpt lat="41.249418687075377" lon="-8.724134601652622">
        <ele>1.98046875</ele>
      </trkpt>
      <trkpt lat="41.249457495287061" lon="-8.724124459549785">
        <ele>2.015625</ele>
      </trkpt>
      <trkpt lat="41.249497476965189" lon="-8.724128901958466">
        <ele>2</ele>
      </trkpt>
      <trkpt lat="41.249535363167524" lon="-8.724147090688348">
        <ele>1.93359375</ele>
      </trkpt>
      <trkpt lat="41.24956838786602" lon="-8.724178690463305">
        <ele>1.8203125</ele>
      </trkpt>
      <trkpt lat="41.249595545232296" lon="-8.724216241389513">
        <ele>1.68359375</ele>
      </trkpt>
      <trkpt lat="41.249624630436301" lon="-8.724248930811882">
        <ele>1.56640625</ele>
      </trkpt>
      <trkpt lat="41.249655811116099" lon="-8.724279357120395">
        <ele>1.45703125</ele>
      </trkpt>
      <trkpt lat="41.249691769480705" lon="-8.724299222230911">
        <ele>1.38671875</ele>
      </trkpt>
      <trkpt lat="41.249728817492723" lon="-8.724312297999859">
        <ele>1.33984375</ele>
      </trkpt>
      <trkpt lat="41.249767625704408" lon="-8.724323445931077">
        <ele>1.30078125</ele>
      </trkpt>
      <trkpt lat="41.249806098639965" lon="-8.724333336576819">
        <ele>1.26171875</ele>
      </trkpt>
      <trkpt lat="41.249844068661332" lon="-8.724329145625234">
        <ele>1.27734375</ele>
      </trkpt>
      <trkpt lat="41.249881787225604" lon="-8.724314644932747">
        <ele>1.30859375</ele>
      </trkpt>
      <trkpt lat="41.249917577952147" lon="-8.724298132583499">
        <ele>1.3046875</ele>
      </trkpt>
      <trkpt lat="41.24995437450707" lon="-8.724278854206204">
        <ele>1.3046875</ele>
      </trkpt>
      <trkpt lat="41.249991673976183" lon="-8.724262341856956">
        <ele>1.29296875</ele>
      </trkpt>
      <trkpt lat="41.250026794150472" lon="-8.724241806194186">
        <ele>1.2890625</ele>
      </trkpt>
      <trkpt lat="41.250061746686697" lon="-8.724215822294354">
        <ele>1.29296875</ele>
      </trkpt>
      <trkpt lat="41.250096196308732" lon="-8.72419117949903">
        <ele>1.28515625</ele>
      </trkpt>
      <trkpt lat="41.250118492171168" lon="-8.724173828959465">
        <ele>1.28125</ele>
      </trkpt>
      <trkpt lat="41.250212034210563" lon="-8.72414767742157">
        <ele>1.1328125</ele>
      </trkpt>
      <trkpt lat="41.250249668955803" lon="-8.724115993827581">
        <ele>1.10546875</ele>
      </trkpt>
      <trkpt lat="41.250289902091026" lon="-8.72409587725997">
        <ele>1.04296875</ele>
      </trkpt>
      <trkpt lat="41.250329799950123" lon="-8.724080706015229">
        <ele>0.96484375</ele>
      </trkpt>
      <trkpt lat="41.25037020072341" lon="-8.72407098300755">
        <ele>0.875</ele>
      </trkpt>
      <trkpt lat="41.250407164916396" lon="-8.724058913066983">
        <ele>0.7890625</ele>
      </trkpt>
      <trkpt lat="41.250439183786511" lon="-8.724028989672661">
        <ele>0.73828125</ele>
      </trkpt>
      <trkpt lat="41.250464497134089" lon="-8.723992863669991">
        <ele>0.703125</ele>
      </trkpt>
      <trkpt lat="41.250479416921735" lon="-8.723947517573833">
        <ele>0.703125</ele>
      </trkpt>
      <trkpt lat="41.250497689470649" lon="-8.723904015496373">
        <ele>0.6796875</ele>
      </trkpt>
      <trkpt lat="41.250528115779161" lon="-8.723867973312736">
        <ele>0.60546875</ele>
      </trkpt>
      <trkpt lat="41.25055979937315" lon="-8.723840313032269">
        <ele>0.55859375</ele>
      </trkpt>
      <trkpt lat="41.250597853213549" lon="-8.723837714642286">
        <ele>0.43359375</ele>
      </trkpt>
      <trkpt lat="41.250639259815216" lon="-8.723839810118079">
        <ele>0.2734375</ele>
      </trkpt>
      <trkpt lat="41.25068100169301" lon="-8.723839810118079">
        <ele>0.12109375</ele>
      </trkpt>
      <trkpt lat="41.250722911208868" lon="-8.723839810118079">
        <ele>0.0546875</ele>
      </trkpt>
      <trkpt lat="41.25076113268733" lon="-8.723838636651635">
        <ele>0.0625</ele>
      </trkpt>
      <trkpt lat="41.250803209841251" lon="-8.723835032433271">
        <ele>0.078125</ele>
      </trkpt>
      <trkpt lat="41.250842018052936" lon="-8.723833942785859">
        <ele>0.08203125</ele>
      </trkpt>
      <trkpt lat="41.250883508473635" lon="-8.723833942785859">
        <ele>0.08203125</ele>
      </trkpt>
      <trkpt lat="41.250924915075302" lon="-8.723831512033939">
        <ele>0.09375</ele>
      </trkpt>
      <trkpt lat="41.25096439383924" lon="-8.723831512033939">
        <ele>0.09375</ele>
      </trkpt>
      <trkpt lat="41.251001777127385" lon="-8.723827907815576">
        <ele>0.11328125</ele>
      </trkpt>
      <trkpt lat="41.251045279204845" lon="-8.723823968321085">
        <ele>0.1328125</ele>
      </trkpt>
      <trkpt lat="41.251087440177798" lon="-8.72381885536015">
        <ele>0.15625</ele>
      </trkpt>
      <trkpt lat="41.251126416027546" lon="-8.723812736570835">
        <ele>0.18359375</ele>
      </trkpt>
      <trkpt lat="41.251166984438896" lon="-8.723810389637947">
        <ele>0.1953125</ele>
      </trkpt>
      <trkpt lat="41.251205541193485" lon="-8.723808126524091">
        <ele>0.20703125</ele>
      </trkpt>
      <trkpt lat="41.251238482072949" lon="-8.723806031048298">
        <ele>0.21875</ele>
      </trkpt>
      <trkpt lat="41.251559257507324" lon="-8.723803935572505">
        <ele>0.2265625</ele>
      </trkpt>
      <trkpt lat="41.251559844240546" lon="-8.723803935572505">
        <ele>0.2265625</ele>
      </trkpt>
      <trkpt lat="41.251975251361728" lon="-8.723795553669333">
        <ele>0.23046875</ele>
      </trkpt>
      <trkpt lat="41.252384791150689" lon="-8.723810138180852">
        <ele>0.1484375</ele>
      </trkpt>
      <trkpt lat="41.252850322052836" lon="-8.723814832046628">
        <ele>0.1328125</ele>
      </trkpt>
      <trkpt lat="41.25285099260509" lon="-8.723814832046628">
        <ele>0.1328125</ele>
      </trkpt>
      <trkpt lat="41.253302609547973" lon="-8.723838133737445">
        <ele>0.296875</ele>
      </trkpt>
      <trkpt lat="41.253304621204734" lon="-8.723838133737445">
        <ele>0.3046875</ele>
      </trkpt>
      <trkpt lat="41.25351794064045" lon="-8.723821956664324">
        <ele>0.875</ele>
      </trkpt>
      <trkpt lat="41.253556497395039" lon="-8.723819945007563">
        <ele>0.97265625</ele>
      </trkpt>
      <trkpt lat="41.253595389425755" lon="-8.72381491586566">
        <ele>1.0859375</ele>
      </trkpt>
      <trkpt lat="41.25363570638001" lon="-8.72381491586566">
        <ele>1.18359375</ele>
      </trkpt>
      <trkpt lat="41.25367920845747" lon="-8.72381248511374">
        <ele>1.296875</ele>
      </trkpt>
      <trkpt lat="41.25372170470655" lon="-8.723811227828264">
        <ele>1.40234375</ele>
      </trkpt>
      <trkpt lat="41.253759590908885" lon="-8.72381005436182">
        <ele>1.49609375</ele>
      </trkpt>
      <trkpt lat="41.25380334444344" lon="-8.723808629438281">
        <ele>1.60546875</ele>
      </trkpt>
      <trkpt lat="41.253847349435091" lon="-8.723807288333774">
        <ele>1.71875</ele>
      </trkpt>
      <trkpt lat="41.253888756036758" lon="-8.723807288333774">
        <ele>1.81640625</ele>
      </trkpt>
      <trkpt lat="41.253932090476155" lon="-8.723807288333774">
        <ele>1.921875</ele>
      </trkpt>
      <trkpt lat="41.253977101296186" lon="-8.723807288333774">
        <ele>2.02734375</ele>
      </trkpt>
      <trkpt lat="41.25401976518333" lon="-8.723808629438281">
        <ele>2.125</ele>
      </trkpt>
      <trkpt lat="41.254059746861458" lon="-8.723808629438281">
        <ele>2.0859375</ele>
      </trkpt>
      <trkpt lat="41.254098806530237" lon="-8.723809970542789">
        <ele>1.984375</ele>
      </trkpt>
      <trkpt lat="41.254138955846429" lon="-8.723809970542789">
        <ele>1.890625</ele>
      </trkpt>
      <trkpt lat="41.254181284457445" lon="-8.723807455971837">
        <ele>1.796875</ele>
      </trkpt>
      <trkpt lat="41.254220260307193" lon="-8.723802426829934">
        <ele>1.72265625</ele>
      </trkpt>
      <trkpt lat="41.254259319975972" lon="-8.723798487335443">
        <ele>1.640625</ele>
      </trkpt>
      <trkpt lat="41.254301816225052" lon="-8.723795805126429">
        <ele>1.55078125</ele>
      </trkpt>
      <trkpt lat="41.254342049360275" lon="-8.723793206736445">
        <ele>1.4609375</ele>
      </trkpt>
      <trkpt lat="41.254384377971292" lon="-8.723786920309067">
        <ele>1.3828125</ele>
      </trkpt>
      <trkpt lat="41.254424443468451" lon="-8.72378071770072">
        <ele>1.30859375</ele>
      </trkpt>
      <trkpt lat="41.254464676603675" lon="-8.723773173987865">
        <ele>1.23828125</ele>
      </trkpt>
      <trkpt lat="41.254508094862103" lon="-8.723766803741455">
        <ele>1.16015625</ele>
      </trkpt>
      <trkpt lat="41.25455042347312" lon="-8.723759092390537">
        <ele>1.0859375</ele>
      </trkpt>
      <trkpt lat="41.254588309675455" lon="-8.72375288978219">
        <ele>1.015625</ele>
      </trkpt>
      <trkpt lat="41.254630638286471" lon="-8.723741238936782">
        <ele>0.95703125</ele>
      </trkpt>
      <trkpt lat="41.254670787602663" lon="-8.723733276128769">
        <ele>0.88671875</ele>
      </trkpt>
      <trkpt lat="41.254713200032711" lon="-8.723725564777851">
        <ele>0.8125</ele>
      </trkpt>
      <trkpt lat="41.254751170054078" lon="-8.723719194531441">
        <ele>0.74609375</ele>
      </trkpt>
      <trkpt lat="41.25478888861835" lon="-8.723715674132109">
        <ele>0.66796875</ele>
      </trkpt>
      <trkpt lat="41.254830798134208" lon="-8.723708465695381">
        <ele>0.59375</ele>
      </trkpt>
      <trkpt lat="41.254871198907495" lon="-8.723697485402226">
        <ele>0.5546875</ele>
      </trkpt>
      <trkpt lat="41.254913024604321" lon="-8.723681978881359">
        <ele>0.609375</ele>
      </trkpt>
      <trkpt lat="41.254952335730195" lon="-8.723669908940792">
        <ele>0.65234375</ele>
      </trkpt>
      <trkpt lat="41.254990054294467" lon="-8.723654234781861">
        <ele>0.7109375</ele>
      </trkpt>
      <trkpt lat="41.254997430369258" lon="-8.72365121729672">
        <ele>0.72265625</ele>
      </trkpt>
      <trkpt lat="41.255427841097116" lon="-8.723523141816258">
        <ele>1.18359375</ele>
      </trkpt>
      <trkpt lat="41.255744257941842" lon="-8.723392467945814">
        <ele>1.65234375</ele>
      </trkpt>
      <trkpt lat="41.255787927657366" lon="-8.723383080214262">
        <ele>1.6875</ele>
      </trkpt>
      <trkpt lat="41.255826987326145" lon="-8.723377799615264">
        <ele>1.70703125</ele>
      </trkpt>
      <trkpt lat="41.255869399756193" lon="-8.723367657512426">
        <ele>1.7421875</ele>
      </trkpt>
      <trkpt lat="41.255914075300097" lon="-8.723357180133462">
        <ele>1.78125</ele>
      </trkpt>
      <trkpt lat="41.255960343405604" lon="-8.723344691097736">
        <ele>1.82421875</ele>
      </trkpt>
      <trkpt lat="41.255998900160193" lon="-8.72333069331944">
        <ele>1.875</ele>
      </trkpt>
      <trkpt lat="41.256037792190909" lon="-8.723319629207253">
        <ele>1.9140625</ele>
      </trkpt>
      <trkpt lat="41.256075762212276" lon="-8.723309738561511">
        <ele>1.94921875</ele>
      </trkpt>
      <trkpt lat="41.256114738062024" lon="-8.723301608115435">
        <ele>1.98046875</ele>
      </trkpt>
      <trkpt lat="41.256152540445328" lon="-8.723294818773866">
        <ele>2.00390625</ele>
      </trkpt>
      <trkpt lat="41.256190510466695" lon="-8.723293729126453">
        <ele>2.0078125</ele>
      </trkpt>
      <trkpt lat="41.256229570135474" lon="-8.723291717469692">
        <ele>2.015625</ele>
      </trkpt>
      <trkpt lat="41.256233928725123" lon="-8.723291717469692">
        <ele>2.015625</ele>
      </trkpt>
      <trkpt lat="41.256421180441976" lon="-8.723384169861674">
        <ele>1.68359375</ele>
      </trkpt>
      <trkpt lat="41.256460323929787" lon="-8.723395317792892">
        <ele>1.640625</ele>
      </trkpt>
      <trkpt lat="41.256500137969851" lon="-8.723412165418267">
        <ele>1.58203125</ele>
      </trkpt>
      <trkpt lat="41.256539449095726" lon="-8.723430186510086">
        <ele>1.515625</ele>
      </trkpt>
      <trkpt lat="41.256578005850315" lon="-8.723449967801571">
        <ele>1.4453125</ele>
      </trkpt>
      <trkpt lat="41.256617484614253" lon="-8.723469749093056">
        <ele>1.375</ele>
      </trkpt>
      <trkpt lat="41.256656292825937" lon="-8.723492044955492">
        <ele>1.29296875</ele>
      </trkpt>
      <trkpt lat="41.256692754104733" lon="-8.723519705235958">
        <ele>1.1953125</ele>
      </trkpt>
      <trkpt lat="41.256728628650308" lon="-8.723537223413587">
        <ele>1.1328125</ele>
      </trkpt>
      <trkpt lat="41.256765844300389" lon="-8.723554322496057">
        <ele>1.0703125</ele>
      </trkpt>
      <trkpt lat="41.256803227588534" lon="-8.723566643893719">
        <ele>1.0234375</ele>
      </trkpt>
      <trkpt lat="41.256842622533441" lon="-8.723560022190213">
        <ele>1.05078125</ele>
      </trkpt>
      <trkpt lat="41.256883610039949" lon="-8.72354325838387">
        <ele>1.109375</ele>
      </trkpt>
      <trkpt lat="41.256921999156475" lon="-8.723526494577527">
        <ele>1.171875</ele>
      </trkpt>
      <trkpt lat="41.25696181319654" lon="-8.723503863438964">
        <ele>1.25</ele>
      </trkpt>
      <trkpt lat="41.257000286132097" lon="-8.723478214815259">
        <ele>1.34375</ele>
      </trkpt>
      <trkpt lat="41.257046051323414" lon="-8.723451141268015">
        <ele>1.44140625</ele>
      </trkpt>
      <trkpt lat="41.257084272801876" lon="-8.723430773243308">
        <ele>1.515625</ele>
      </trkpt>
      <trkpt lat="41.257125260308385" lon="-8.723417781293392">
        <ele>1.5625</ele>
      </trkpt>
      <trkpt lat="41.257162978872657" lon="-8.723409818485379">
        <ele>1.58984375</ele>
      </trkpt>
      <trkpt lat="41.257204636931419" lon="-8.723405208438635">
        <ele>1.60546875</ele>
      </trkpt>
      <trkpt lat="41.257242439314723" lon="-8.723404034972191">
        <ele>1.609375</ele>
      </trkpt>
      <trkpt lat="41.25728384591639" lon="-8.723404034972191">
        <ele>1.609375</ele>
      </trkpt>
      <trkpt lat="41.25732533633709" lon="-8.723404034972191">
        <ele>1.609375</ele>
      </trkpt>
      <trkpt lat="41.257363641634583" lon="-8.72340889647603">
        <ele>1.59375</ele>
      </trkpt>
      <trkpt lat="41.257404880598187" lon="-8.723418284207582">
        <ele>1.609375</ele>
      </trkpt>
      <trkpt lat="41.257442599162459" lon="-8.723433455452323">
        <ele>1.6015625</ele>
      </trkpt>
      <trkpt lat="41.257478473708034" lon="-8.723449716344476">
        <ele>1.5859375</ele>
      </trkpt>
      <trkpt lat="41.257518287748098" lon="-8.723464217036963">
        <ele>1.58203125</ele>
      </trkpt>
      <trkpt lat="41.257558269426227" lon="-8.723483411595225">
        <ele>1.5625</ele>
      </trkpt>
      <trkpt lat="41.25759607180953" lon="-8.723503779619932">
        <ele>1.53125</ele>
      </trkpt>
      <trkpt lat="41.25763270072639" lon="-8.723524818196893">
        <ele>1.5</ele>
      </trkpt>
      <trkpt lat="41.257668994367123" lon="-8.723538229241967">
        <ele>1.49609375</ele>
      </trkpt>
      <trkpt lat="41.257706880569458" lon="-8.723552562296391">
        <ele>1.48828125</ele>
      </trkpt>
      <trkpt lat="41.257747784256935" lon="-8.723567230626941">
        <ele>1.484375</ele>
      </trkpt>
      <trkpt lat="41.257785419002175" lon="-8.723580138757825">
        <ele>1.484375</ele>
      </trkpt>
      <trkpt lat="41.257824562489986" lon="-8.723588017746806">
        <ele>1.50390625</ele>
      </trkpt>
      <trkpt lat="41.257862448692322" lon="-8.723598243668675">
        <ele>1.51171875</ele>
      </trkpt>
      <trkpt lat="41.257901675999165" lon="-8.723604530096054">
        <ele>1.53515625</ele>
      </trkpt>
      <trkpt lat="41.257943082600832" lon="-8.723606960847974">
        <ele>1.578125</ele>
      </trkpt>
      <trkpt lat="41.257982226088643" lon="-8.723609643056989">
        <ele>1.61328125</ele>
      </trkpt>
      <trkpt lat="41.258027236908674" lon="-8.723609643056989">
        <ele>1.66796875</ele>
      </trkpt>
      <trkpt lat="41.258069816976786" lon="-8.723609643056989">
        <ele>1.71875</ele>
      </trkpt>
      <trkpt lat="41.258107703179121" lon="-8.723609643056989">
        <ele>1.765625</ele>
      </trkpt>
      <trkpt lat="41.258152378723025" lon="-8.723608385771513">
        <ele>1.82421875</ele>
      </trkpt>
      <trkpt lat="41.258196886628866" lon="-8.723607212305069">
        <ele>1.87890625</ele>
      </trkpt>
      <trkpt lat="41.258241394534707" lon="-8.723604613915086">
        <ele>1.90625</ele>
      </trkpt>
      <trkpt lat="41.258287662640214" lon="-8.723604613915086">
        <ele>1.921875</ele>
      </trkpt>
      <trkpt lat="41.258340552449226" lon="-8.723607296124101">
        <ele>1.9296875</ele>
      </trkpt>
      <trkpt lat="41.258386736735702" lon="-8.723611570894718">
        <ele>1.9296875</ele>
      </trkpt>
      <trkpt lat="41.25842671841383" lon="-8.723614504560828">
        <ele>1.93359375</ele>
      </trkpt>
      <trkpt lat="41.25846778973937" lon="-8.723617354407907">
        <ele>1.93359375</ele>
      </trkpt>
      <trkpt lat="41.258507687598467" lon="-8.723618863150477">
        <ele>1.94140625</ele>
      </trkpt>
      <trkpt lat="41.258550435304642" lon="-8.723622970283031">
        <ele>1.9375</ele>
      </trkpt>
      <trkpt lat="41.258589327335358" lon="-8.723625568673015">
        <ele>1.94140625</ele>
      </trkpt>
      <trkpt lat="41.258627129718661" lon="-8.723632358014584">
        <ele>1.92578125</ele>
      </trkpt>
      <trkpt lat="41.25866518355906" lon="-8.723633531481028">
        <ele>1.93359375</ele>
      </trkpt>
      <trkpt lat="41.258707763627172" lon="-8.723636297509074">
        <ele>1.93359375</ele>
      </trkpt>
      <trkpt lat="41.258747996762395" lon="-8.723640237003565">
        <ele>1.9296875</ele>
      </trkpt>
      <trkpt lat="41.258790828287601" lon="-8.723645182326436">
        <ele>1.91796875</ele>
      </trkpt>
      <trkpt lat="41.258830223232508" lon="-8.723659012466669">
        <ele>1.8671875</ele>
      </trkpt>
      <trkpt lat="41.258866852149367" lon="-8.723669992759824">
        <ele>1.828125</ele>
      </trkpt>
      <trkpt lat="41.258885711431503" lon="-8.723675440996885">
        <ele>1.80859375</ele>
      </trkpt>
      <trkpt lat="41.259009260684252" lon="-8.723740903660655">
        <ele>1.52734375</ele>
      </trkpt>
      <trkpt lat="41.259049493819475" lon="-8.723754566162825">
        <ele>1.5625</ele>
      </trkpt>
      <trkpt lat="41.259086290374398" lon="-8.723768396303058">
        <ele>1.6640625</ele>
      </trkpt>
      <trkpt lat="41.259123170748353" lon="-8.72378365136683">
        <ele>1.765625</ele>
      </trkpt>
      <trkpt lat="41.259160721674562" lon="-8.723797230049968">
        <ele>1.87890625</ele>
      </trkpt>
      <trkpt lat="41.259198943153024" lon="-8.723812736570835">
        <ele>1.98828125</ele>
      </trkpt>
      <trkpt lat="41.259236829355359" lon="-8.723828243091702">
        <ele>2.1015625</ele>
      </trkpt>
      <trkpt lat="41.259274799376726" lon="-8.723841235041618">
        <ele>2.2265625</ele>
      </trkpt>
      <trkpt lat="41.259315200150013" lon="-8.723854813724756">
        <ele>2.37109375</ele>
      </trkpt>
      <trkpt lat="41.259342692792416" lon="-8.723862776532769">
        <ele>2.484375</ele>
      </trkpt>
      <trkpt lat="41.260027997195721" lon="-8.724173493683338">
        <ele>3.65234375</ele>
      </trkpt>
      <trkpt lat="41.260439632460475" lon="-8.724348172545433">
        <ele>3.30859375</ele>
      </trkpt>
      <trkpt lat="41.260478524491191" lon="-8.7243636790663">
        <ele>3.28125</ele>
      </trkpt>
      <trkpt lat="41.260515488684177" lon="-8.724391674622893">
        <ele>3.19140625</ele>
      </trkpt>
      <trkpt lat="41.260550189763308" lon="-8.724417323246598">
        <ele>3.109375</ele>
      </trkpt>
      <trkpt lat="41.260584890842438" lon="-8.724450431764126">
        <ele>2.9921875</ele>
      </trkpt>
      <trkpt lat="41.260615065693855" lon="-8.724486054852605">
        <ele>2.85546875</ele>
      </trkpt>
      <trkpt lat="41.260642223060131" lon="-8.724523186683655">
        <ele>2.7109375</ele>
      </trkpt>
      <trkpt lat="41.260670805349946" lon="-8.724560318514705">
        <ele>2.56640625</ele>
      </trkpt>
      <trkpt lat="41.260701147839427" lon="-8.724601054564118">
        <ele>2.43359375</ele>
      </trkpt>
      <trkpt lat="41.260726628825068" lon="-8.724640533328056">
        <ele>2.36328125</ele>
      </trkpt>
      <trkpt lat="41.260748589411378" lon="-8.724682442843914">
        <ele>2.2734375</ele>
      </trkpt>
      <trkpt lat="41.260773316025734" lon="-8.724722675979137">
        <ele>2.28125</ele>
      </trkpt>
      <trkpt lat="41.2608044128865" lon="-8.724761651828885">
        <ele>2.3203125</ele>
      </trkpt>
      <trkpt lat="41.260839784517884" lon="-8.724780762568116">
        <ele>2.4296875</ele>
      </trkpt>
      <trkpt lat="41.2608786765486" lon="-8.724796017631888">
        <ele>2.5625</ele>
      </trkpt>
      <trkpt lat="41.260918909683824" lon="-8.724811440333724">
        <ele>2.6953125</ele>
      </trkpt>
      <trkpt lat="41.260955287143588" lon="-8.724826192483306">
        <ele>2.80859375</ele>
      </trkpt>
      <trkpt lat="41.260996190831065" lon="-8.724834742024541">
        <ele>2.9609375</ele>
      </trkpt>
      <trkpt lat="41.261038016527891" lon="-8.72484446503222">
        <ele>3.109375</ele>
      </trkpt>
      <trkpt lat="41.261076992377639" lon="-8.724849661812186">
        <ele>3.26171875</ele>
      </trkpt>
      <trkpt lat="41.261117225512862" lon="-8.724860809743404">
        <ele>3.39453125</ele>
      </trkpt>
      <trkpt lat="41.26115863211453" lon="-8.724873382598162">
        <ele>3.52734375</ele>
      </trkpt>
      <trkpt lat="41.261207750067115" lon="-8.724892158061266">
        <ele>3.66015625</ele>
      </trkpt>
      <trkpt lat="41.261251168325543" lon="-8.724911855533719">
        <ele>3.765625</ele>
      </trkpt>
      <trkpt lat="41.261291485279799" lon="-8.724930714815855">
        <ele>3.85546875</ele>
      </trkpt>
      <trkpt lat="41.261335322633386" lon="-8.724952759221196">
        <ele>3.94140625</ele>
      </trkpt>
      <trkpt lat="41.261373292654753" lon="-8.724968768656254">
        <ele>4.0234375</ele>
      </trkpt>
      <trkpt lat="41.261411011219025" lon="-8.724991399794817">
        <ele>4.07421875</ele>
      </trkpt>
      <trkpt lat="41.261449987068772" lon="-8.725015707314014">
        <ele>4.11328125</ele>
      </trkpt>
      <trkpt lat="41.261488795280457" lon="-8.72503356076777">
        <ele>4.1796875</ele>
      </trkpt>
      <trkpt lat="41.261526178568602" lon="-8.725045630708337">
        <ele>4.26171875</ele>
      </trkpt>
      <trkpt lat="41.261568004265428" lon="-8.725062562152743">
        <ele>4.37890625</ele>
      </trkpt>
      <trkpt lat="41.261604800820351" lon="-8.725080331787467">
        <ele>4.46875</ele>
      </trkpt>
      <trkpt lat="41.261641681194305" lon="-8.725100448355079">
        <ele>4.5546875</ele>
      </trkpt>
      <trkpt lat="41.261680657044053" lon="-8.725117044523358">
        <ele>4.66796875</ele>
      </trkpt>
      <trkpt lat="41.261717956513166" lon="-8.725135400891304">
        <ele>4.7734375</ele>
      </trkpt>
      <trkpt lat="41.261758273467422" lon="-8.725151577964425">
        <ele>4.90234375</ele>
      </trkpt>
      <trkpt lat="41.261794315651059" lon="-8.725167838856578">
        <ele>5.015625</ele>
      </trkpt>
      <trkpt lat="41.261831196025014" lon="-8.725190805271268">
        <ele>5.109375</ele>
      </trkpt>
      <trkpt lat="41.261868076398969" lon="-8.725211760029197">
        <ele>5.21484375</ele>
      </trkpt>
      <trkpt lat="41.261904705315828" lon="-8.725232547149062">
        <ele>5.328125</ele>
      </trkpt>
      <trkpt lat="41.261939909309149" lon="-8.725259201601148">
        <ele>5.4140625</ele>
      </trkpt>
      <trkpt lat="41.261969245970249" lon="-8.725290549919009">
        <ele>5.45703125</ele>
      </trkpt>
      <trkpt lat="41.26200201921165" lon="-8.725321646779776">
        <ele>5.52734375</ele>
      </trkpt>
      <trkpt lat="41.262032613158226" lon="-8.725351905450225">
        <ele>5.58984375</ele>
      </trkpt>
      <trkpt lat="41.262063207104802" lon="-8.725381074473262">
        <ele>5.6640625</ele>
      </trkpt>
      <trkpt lat="41.262094303965569" lon="-8.725414602085948">
        <ele>5.734375</ele>
      </trkpt>
      <trkpt lat="41.262116935104132" lon="-8.725453577935696">
        <ele>5.7421875</ele>
      </trkpt>
      <trkpt lat="41.262134704738855" lon="-8.725499343127012">
        <ele>5.70703125</ele>
      </trkpt>
      <trkpt lat="41.262147864326835" lon="-8.725546114146709">
        <ele>5.609375</ele>
      </trkpt>
      <trkpt lat="41.262149205431342" lon="-8.725600177422166">
        <ele>5.390625</ele>
      </trkpt>
      <trkpt lat="41.262143170461059" lon="-8.725655330345035">
        <ele>5.125</ele>
      </trkpt>
      <trkpt lat="41.262130262330174" lon="-8.725702855736017">
        <ele>4.85546875</ele>
      </trkpt>
      <trkpt lat="41.262116935104132" lon="-8.725750800222158">
        <ele>4.5859375</ele>
      </trkpt>
      <trkpt lat="41.262131938710809" lon="-8.725797152146697">
        <ele>4.47265625</ele>
      </trkpt>
      <trkpt lat="41.262157503515482" lon="-8.725834367796779">
        <ele>4.44921875</ele>
      </trkpt>
      <trkpt lat="41.262169824913144" lon="-8.72583738528192">
        <ele>4.5</ele>
      </trkpt>
      <trkpt lat="41.262750942260027" lon="-8.726157573983073">
        <ele>3.5625</ele>
      </trkpt>
      <trkpt lat="41.263204822316766" lon="-8.726383885368705">
        <ele>1.96484375</ele>
      </trkpt>
      <trkpt lat="41.263739503920078" lon="-8.726637605577707">
        <ele>3.0546875</ele>
      </trkpt>
      <trkpt lat="41.263739503920078" lon="-8.72663676738739">
        <ele>3.0546875</ele>
      </trkpt>
      <trkpt lat="41.263997163623571" lon="-8.726779678836465">
        <ele>3.3671875</ele>
      </trkpt>
      <trkpt lat="41.264036055654287" lon="-8.726795688271523">
        <ele>3.4140625</ele>
      </trkpt>
      <trkpt lat="41.264082659035921" lon="-8.726821001619101">
        <ele>3.40234375</ele>
      </trkpt>
      <trkpt lat="41.264120964333415" lon="-8.726845979690552">
        <ele>3.375</ele>
      </trkpt>
      <trkpt lat="41.264157677069306" lon="-8.726866012439132">
        <ele>3.359375</ele>
      </trkpt>
      <trkpt lat="41.264200592413545" lon="-8.726890990510583">
        <ele>3.3359375</ele>
      </trkpt>
      <trkpt lat="41.264241160824895" lon="-8.726909933611751">
        <ele>3.328125</ele>
      </trkpt>
      <trkpt lat="41.264281393960118" lon="-8.726928876712918">
        <ele>3.31640625</ele>
      </trkpt>
      <trkpt lat="41.264321794733405" lon="-8.726948741823435">
        <ele>3.30078125</ele>
      </trkpt>
      <trkpt lat="41.264357334002852" lon="-8.726971540600061">
        <ele>3.26171875</ele>
      </trkpt>
      <trkpt lat="41.264394968748093" lon="-8.726993752643466">
        <ele>3.2265625</ele>
      </trkpt>
      <trkpt lat="41.264440147206187" lon="-8.727003475651145">
        <ele>3.25</ele>
      </trkpt>
      <trkpt lat="41.264481553807855" lon="-8.727008504793048">
        <ele>3.2890625</ele>
      </trkpt>
      <trkpt lat="41.264520613476634" lon="-8.727024849504232">
        <ele>3.27734375</ele>
      </trkpt>
      <trkpt lat="41.264554057270288" lon="-8.727056784555316">
        <ele>3.18359375</ele>
      </trkpt>
      <trkpt lat="41.264585992321372" lon="-8.727089557796717">
        <ele>3.0859375</ele>
      </trkpt>
      <trkpt lat="41.26461767591536" lon="-8.727119648829103">
        <ele>2.9921875</ele>
      </trkpt>
      <trkpt lat="41.264649108052254" lon="-8.727147644385695">
        <ele>2.90625</ele>
      </trkpt>
      <trkpt lat="41.264683390036225" lon="-8.727183351293206">
        <ele>2.7890625</ele>
      </trkpt>
      <trkpt lat="41.264717252925038" lon="-8.727218387648463">
        <ele>2.7109375</ele>
      </trkpt>
      <trkpt lat="41.264745248481631" lon="-8.727254094555974">
        <ele>2.6171875</ele>
      </trkpt>
      <trkpt lat="41.264777854084969" lon="-8.727290304377675">
        <ele>2.52734375</ele>
      </trkpt>
      <trkpt lat="41.264810375869274" lon="-8.727317126467824">
        <ele>2.46875</ele>
      </trkpt>
      <trkpt lat="41.264848262071609" lon="-8.727331208065152">
        <ele>2.45703125</ele>
      </trkpt>
      <trkpt lat="41.264886315912008" lon="-8.727351576089859">
        <ele>2.390625</ele>
      </trkpt>
      <trkpt lat="41.264916406944394" lon="-8.727382589131594">
        <ele>2.28125</ele>
      </trkpt>
      <trkpt lat="41.264948844909668" lon="-8.727418296039104">
        <ele>2.15234375</ele>
      </trkpt>
      <trkpt lat="41.264984048902988" lon="-8.727451739832759">
        <ele>2.03125</ele>
      </trkpt>
      <trkpt lat="41.265021432191133" lon="-8.727477639913559">
        <ele>1.9375</ele>
      </trkpt>
      <trkpt lat="41.265060324221849" lon="-8.727494487538934">
        <ele>1.875</ele>
      </trkpt>
      <trkpt lat="41.265099551528692" lon="-8.727501109242439">
        <ele>1.8515625</ele>
      </trkpt>
      <trkpt lat="41.265137353911996" lon="-8.727497924119234">
        <ele>1.86328125</ele>
      </trkpt>
      <trkpt lat="41.265176832675934" lon="-8.72749331407249">
        <ele>1.87890625</ele>
      </trkpt>
      <trkpt lat="41.265216646715999" lon="-8.72749331407249">
        <ele>1.87890625</ele>
      </trkpt>
      <trkpt lat="41.265259813517332" lon="-8.727495577186346">
        <ele>1.87109375</ele>
      </trkpt>
      <trkpt lat="41.26530272886157" lon="-8.727496834471822">
        <ele>1.8671875</ele>
      </trkpt>
      <trkpt lat="41.265340615063906" lon="-8.727495577186346">
        <ele>1.87109375</ele>
      </trkpt>
      <trkpt lat="41.265378585085273" lon="-8.72749331407249">
        <ele>1.87890625</ele>
      </trkpt>
      <trkpt lat="41.265415968373418" lon="-8.727484848350286">
        <ele>1.91015625</ele>
      </trkpt>
      <trkpt lat="41.265452764928341" lon="-8.727471856400371">
        <ele>1.95703125</ele>
      </trkpt>
      <trkpt lat="41.265485789626837" lon="-8.727441178634763">
        <ele>2.0703125</ele>
      </trkpt>
      <trkpt lat="41.265509426593781" lon="-8.727401616051793">
        <ele>2.2109375</ele>
      </trkpt>
      <trkpt lat="41.265526190400124" lon="-8.727356940507889">
        <ele>2.37109375</ele>
      </trkpt>
      <trkpt lat="41.265538595616817" lon="-8.72730958275497">
        <ele>2.54296875</ele>
      </trkpt>
      <trkpt lat="41.265546223148704" lon="-8.727259710431099">
        <ele>2.72265625</ele>
      </trkpt>
      <trkpt lat="41.265552006661892" lon="-8.727209502831101">
        <ele>2.90234375</ele>
      </trkpt>
      <trkpt lat="41.265562148764729" lon="-8.727158037945628">
        <ele>3.16796875</ele>
      </trkpt>
      <trkpt lat="41.265584109351039" lon="-8.727112440392375">
        <ele>3.484375</ele>
      </trkpt>
      <trkpt lat="41.265619061887264" lon="-8.727083941921592">
        <ele>3.69140625</ele>
      </trkpt>
      <trkpt lat="41.265658875927329" lon="-8.727074302732944">
        <ele>3.76953125</ele>
      </trkpt>
      <trkpt lat="41.265695840120316" lon="-8.727062568068504">
        <ele>3.86328125</ele>
      </trkpt>
      <trkpt lat="41.265734983608127" lon="-8.72705502435565">
        <ele>3.91796875</ele>
      </trkpt>
      <trkpt lat="41.265772366896272" lon="-8.727044379338622">
        <ele>3.99609375</ele>
      </trkpt>
      <trkpt lat="41.265809079632163" lon="-8.727031387388706">
        <ele>4.08984375</ele>
      </trkpt>
      <trkpt lat="41.265839589759707" lon="-8.72699836269021">
        <ele>4.328125</ele>
      </trkpt>
      <trkpt lat="41.265853084623814" lon="-8.726948909461498">
        <ele>4.68359375</ele>
      </trkpt>
      <trkpt lat="41.265857610851526" lon="-8.726896774023771">
        <ele>5.05859375</ele>
      </trkpt>
      <trkpt lat="41.265882924199104" lon="-8.726865760982037">
        <ele>5.28125</ele>
      </trkpt>
      <trkpt lat="41.265921480953693" lon="-8.726855618879199">
        <ele>5.35546875</ele>
      </trkpt>
      <trkpt lat="41.265931120142341" lon="-8.726850003004074">
        <ele>5.39453125</ele>
      </trkpt>
      <trkpt lat="41.266143098473549" lon="-8.726811278611422">
        <ele>5.67578125</ele>
      </trkpt>
      <trkpt lat="41.266188025474548" lon="-8.726802226155996">
        <ele>5.7421875</ele>
      </trkpt>
      <trkpt lat="41.266228426247835" lon="-8.726794347167015">
        <ele>5.796875</ele>
      </trkpt>
      <trkpt lat="41.266272598877549" lon="-8.726787390187383">
        <ele>5.84765625</ele>
      </trkpt>
      <trkpt lat="41.266313754022121" lon="-8.726781774312258">
        <ele>5.88671875</ele>
      </trkpt>
      <trkpt lat="41.266360022127628" lon="-8.726773392409086">
        <ele>5.94921875</ele>
      </trkpt>
      <trkpt lat="41.266402015462518" lon="-8.726764004677534">
        <ele>6.015625</ele>
      </trkpt>
      <trkpt lat="41.266447193920612" lon="-8.726753862574697">
        <ele>6.08984375</ele>
      </trkpt>
      <trkpt lat="41.266491282731295" lon="-8.726745648309588">
        <ele>6.1484375</ele>
      </trkpt>
      <trkpt lat="41.266529252752662" lon="-8.726740619167686">
        <ele>6.16015625</ele>
      </trkpt>
      <trkpt lat="41.266567725688219" lon="-8.726734584197402">
        <ele>6.0390625</ele>
      </trkpt>
      <trkpt lat="41.266609048470855" lon="-8.726727291941643">
        <ele>5.9140625</ele>
      </trkpt>
      <trkpt lat="41.266652885824442" lon="-8.726720586419106">
        <ele>5.7734375</ele>
      </trkpt>
      <trkpt lat="41.266692196950316" lon="-8.7267139647156">
        <ele>5.65234375</ele>
      </trkpt>
      <trkpt lat="41.26673050224781" lon="-8.726705582812428">
        <ele>5.546875</ele>
      </trkpt>
      <trkpt lat="41.266769394278526" lon="-8.726699631661177">
        <ele>5.421875</ele>
      </trkpt>
      <trkpt lat="41.266804682090878" lon="-8.726690663024783">
        <ele>5.33203125</ele>
      </trkpt>
      <trkpt lat="41.267225621268153" lon="-8.726638611406088">
        <ele>3.83984375</ele>
      </trkpt>
      <trkpt lat="41.267351601272821" lon="-8.726584715768695">
        <ele>3.609375</ele>
      </trkpt>
      <trkpt lat="41.267392840236425" lon="-8.726583374664187">
        <ele>3.56640625</ele>
      </trkpt>
      <trkpt lat="41.267430642619729" lon="-8.726577339693904">
        <ele>3.5703125</ele>
      </trkpt>
      <trkpt lat="41.267475318163633" lon="-8.726571220904589">
        <ele>3.56640625</ele>
      </trkpt>
      <trkpt lat="41.267516640946269" lon="-8.726568706333637">
        <ele>3.54296875</ele>
      </trkpt>
      <trkpt lat="41.267555532976985" lon="-8.726558731868863">
        <ele>3.56640625</ele>
      </trkpt>
      <trkpt lat="41.267595682293177" lon="-8.726549930870533">
        <ele>3.578125</ele>
      </trkpt>
      <trkpt lat="41.267636083066463" lon="-8.726545991376042">
        <ele>3.56640625</ele>
      </trkpt>
      <trkpt lat="41.267675310373306" lon="-8.726543476805091">
        <ele>3.54296875</ele>
      </trkpt>
      <trkpt lat="41.267715208232403" lon="-8.726542219519615">
        <ele>3.51171875</ele>
      </trkpt>
      <trkpt lat="41.267754519358277" lon="-8.72653853148222">
        <ele>3.49609375</ele>
      </trkpt>
      <trkpt lat="41.267796931788325" lon="-8.726537358015776">
        <ele>3.46484375</ele>
      </trkpt>
      <trkpt lat="41.26783867366612" lon="-8.726534927263856">
        <ele>3.4375</ele>
      </trkpt>
      <trkpt lat="41.267882091924548" lon="-8.726534927263856">
        <ele>3.3984375</ele>
      </trkpt>
      <trkpt lat="41.267923749983311" lon="-8.726529562845826">
        <ele>3.38671875</ele>
      </trkpt>
      <trkpt lat="41.267966162413359" lon="-8.726522186771035">
        <ele>3.3828125</ele>
      </trkpt>
      <trkpt lat="41.268005473539233" lon="-8.726513721048832">
        <ele>3.390625</ele>
      </trkpt>
      <trkpt lat="41.26804243773222" lon="-8.726503998041153">
        <ele>3.40234375</ele>
      </trkpt>
      <trkpt lat="41.268088119104505" lon="-8.726492179557681">
        <ele>3.41796875</ele>
      </trkpt>
      <trkpt lat="41.268130699172616" lon="-8.726482708007097">
        <ele>3.421875</ele>
      </trkpt>
      <trkpt lat="41.268172105774283" lon="-8.726474745199084">
        <ele>3.41796875</ele>
      </trkpt>
      <trkpt lat="41.268217032775283" lon="-8.72646963223815">
        <ele>3.39453125</ele>
      </trkpt>
      <trkpt lat="41.268265815451741" lon="-8.726464184001088">
        <ele>3.37109375</ele>
      </trkpt>
      <trkpt lat="41.268313340842724" lon="-8.726455885916948">
        <ele>3.359375</ele>
      </trkpt>
      <trkpt lat="41.26835323870182" lon="-8.726447336375713">
        <ele>3.35546875</ele>
      </trkpt>
      <trkpt lat="41.268397159874439" lon="-8.726435098797083">
        <ele>3.3671875</ele>
      </trkpt>
      <trkpt lat="41.268435716629028" lon="-8.726428141817451">
        <ele>3.35546875</ele>
      </trkpt>
      <trkpt lat="41.268477039411664" lon="-8.726420514285564">
        <ele>3.34375</ele>
      </trkpt>
      <trkpt lat="41.26851886510849" lon="-8.726414479315281">
        <ele>3.32421875</ele>
      </trkpt>
      <trkpt lat="41.268561528995633" lon="-8.726410875096917">
        <ele>3.29296875</ele>
      </trkpt>
      <trkpt lat="41.268606120720506" lon="-8.72640710324049">
        <ele>3.2578125</ele>
      </trkpt>
      <trkpt lat="41.268646186217666" lon="-8.726400816813111">
        <ele>3.23828125</ele>
      </trkpt>
      <trkpt lat="41.268683904781938" lon="-8.726392015814781">
        <ele>3.234375</ele>
      </trkpt>
      <trkpt lat="41.268723383545876" lon="-8.726379610598087">
        <ele>3.23828125</ele>
      </trkpt>
      <trkpt lat="41.268759509548545" lon="-8.726364439353347">
        <ele>3.2578125</ele>
      </trkpt>
      <trkpt lat="41.268796641379595" lon="-8.726341305300593">
        <ele>3.31640625</ele>
      </trkpt>
      <trkpt lat="41.268814913928509" lon="-8.726296797394753">
        <ele>3.53515625</ele>
      </trkpt>
      <trkpt lat="41.268821954727173" lon="-8.72624583542347">
        <ele>3.80078125</ele>
      </trkpt>
      <trkpt lat="41.268827402964234" lon="-8.726194202899933">
        <ele>4.06640625</ele>
      </trkpt>
      <trkpt lat="41.26883746124804" lon="-8.726143576204777">
        <ele>4.3203125</ele>
      </trkpt>
      <trkpt lat="41.268853386864066" lon="-8.726099319756031">
        <ele>4.52734375</ele>
      </trkpt>
      <trkpt lat="41.268884986639023" lon="-8.72607383877039">
        <ele>4.59765625</ele>
      </trkpt>
      <trkpt lat="41.268922872841358" lon="-8.726064451038837">
        <ele>4.5703125</ele>
      </trkpt>
      <trkpt lat="41.268961513414979" lon="-8.726058835163713">
        <ele>4.51953125</ele>
      </trkpt>
      <trkpt lat="41.268999902531505" lon="-8.726056488230824">
        <ele>4.453125</ele>
      </trkpt>
      <trkpt lat="41.269041560590267" lon="-8.726053386926651">
        <ele>4.390625</ele>
      </trkpt>
      <trkpt lat="41.269079530611634" lon="-8.72604944743216">
        <ele>4.34765625</ele>
      </trkpt>
      <trkpt lat="41.269118841737509" lon="-8.726048190146685">
        <ele>4.2890625</ele>
      </trkpt>
      <trkpt lat="41.269156979396939" lon="-8.726045675575733">
        <ele>4.23828125</ele>
      </trkpt>
      <trkpt lat="41.2692004814744" lon="-8.726044502109289">
        <ele>4.171875</ele>
      </trkpt>
      <trkpt lat="41.269241636618972" lon="-8.726041987538338">
        <ele>4.1171875</ele>
      </trkpt>
      <trkpt lat="41.269287904724479" lon="-8.726040562614799">
        <ele>4.046875</ele>
      </trkpt>
      <trkpt lat="41.269327970221639" lon="-8.726039137691259">
        <ele>3.98828125</ele>
      </trkpt>
      <trkpt lat="41.26937004737556" lon="-8.726037545129657">
        <ele>3.92578125</ele>
      </trkpt>
      <trkpt lat="41.269409190863371" lon="-8.726036036387086">
        <ele>3.8671875</ele>
      </trkpt>
      <trkpt lat="41.26944724470377" lon="-8.726035030558705">
        <ele>3.80859375</ele>
      </trkpt>
      <trkpt lat="41.269490914419293" lon="-8.726034024730325">
        <ele>3.73828125</ele>
      </trkpt>
      <trkpt lat="41.269530225545168" lon="-8.726032683625817">
        <ele>3.6796875</ele>
      </trkpt>
      <trkpt lat="41.269571296870708" lon="-8.726029917597771">
        <ele>3.62109375</ele>
      </trkpt>
      <trkpt lat="41.269609685987234" lon="-8.726027570664883">
        <ele>3.5703125</ele>
      </trkpt>
      <trkpt lat="41.269649332389235" lon="-8.726024217903614">
        <ele>3.515625</ele>
      </trkpt>
      <trkpt lat="41.269687553867698" lon="-8.726019188761711">
        <ele>3.47265625</ele>
      </trkpt>
      <trkpt lat="41.269731223583221" lon="-8.726013405248523">
        <ele>3.41796875</ele>
      </trkpt>
      <trkpt lat="41.269776821136475" lon="-8.72600544244051">
        <ele>3.37109375</ele>
      </trkpt>
      <trkpt lat="41.269816467538476" lon="-8.726000916212797">
        <ele>3.3203125</ele>
      </trkpt>
      <trkpt lat="41.269853599369526" lon="-8.725990187376738">
        <ele>3.296875</ele>
      </trkpt>
      <trkpt lat="41.269895927980542" lon="-8.725982727482915">
        <ele>3.30078125</ele>
      </trkpt>
      <trkpt lat="41.269934987649322" lon="-8.725974848493934">
        <ele>3.30859375</ele>
      </trkpt>
      <trkpt lat="41.269972790032625" lon="-8.725973758846521">
        <ele>3.2890625</ele>
      </trkpt>
      <trkpt lat="41.270010760053992" lon="-8.725972753018141">
        <ele>3.2734375</ele>
      </trkpt>
      <trkpt lat="41.270054094493389" lon="-8.725972753018141">
        <ele>3.25</ele>
      </trkpt>
      <trkpt lat="41.270093405619264" lon="-8.725982559844851">
        <ele>3.1953125</ele>
      </trkpt>
      <trkpt lat="41.270132465288043" lon="-8.725992785766721">
        <ele>3.14453125</ele>
      </trkpt>
      <trkpt lat="41.27014939673245" lon="-8.725998317822814">
        <ele>3.1171875</ele>
      </trkpt>
      <trkpt lat="41.270325249060988" lon="-8.726138044148684">
        <ele>2.6171875</ele>
      </trkpt>
      <trkpt lat="41.270377216860652" lon="-8.726171404123306">
        <ele>2.5078125</ele>
      </trkpt>
      <trkpt lat="41.270415270701051" lon="-8.72619797475636">
        <ele>2.42578125</ele>
      </trkpt>
      <trkpt lat="41.270450642332435" lon="-8.726219180971384">
        <ele>2.359375</ele>
      </trkpt>
      <trkpt lat="41.270485762506723" lon="-8.726241728290915">
        <ele>2.2890625</ele>
      </trkpt>
      <trkpt lat="41.270520631223917" lon="-8.726270562037826">
        <ele>2.2109375</ele>
      </trkpt>
      <trkpt lat="41.270557595416903" lon="-8.726293025538325">
        <ele>2.1484375</ele>
      </trkpt>
      <trkpt lat="41.270593889057636" lon="-8.726309537887573">
        <ele>2.1015625</ele>
      </trkpt>
      <trkpt lat="41.270637726411223" lon="-8.726331582292914">
        <ele>2.046875</ele>
      </trkpt>
      <trkpt lat="41.270676366984844" lon="-8.72634993866086">
        <ele>2</ele>
      </trkpt>
      <trkpt lat="41.270715845748782" lon="-8.726368714123964">
        <ele>2.125</ele>
      </trkpt>
      <trkpt lat="41.270753731951118" lon="-8.72638656757772">
        <ele>2.30078125</ele>
      </trkpt>
      <trkpt lat="41.270789438858628" lon="-8.72641297057271">
        <ele>2.44140625</ele>
      </trkpt>
      <trkpt lat="41.270819865167141" lon="-8.726448593661189">
        <ele>2.51953125</ele>
      </trkpt>
      <trkpt lat="41.270854482427239" lon="-8.726485138759017">
        <ele>2.61328125</ele>
      </trkpt>
      <trkpt lat="41.270889434963465" lon="-8.726517241448164">
        <ele>2.71484375</ele>
      </trkpt>
      <trkpt lat="41.270925225690007" lon="-8.726539788767695">
        <ele>2.83984375</ele>
      </trkpt>
      <trkpt lat="41.270963279530406" lon="-8.726565940305591">
        <ele>2.96484375</ele>
      </trkpt>
      <trkpt lat="41.270994963124394" lon="-8.726594774052501">
        <ele>3.0390625</ele>
      </trkpt>
      <trkpt lat="41.271026395261288" lon="-8.726623021066189">
        <ele>3.11328125</ele>
      </trkpt>
      <trkpt lat="41.271028909832239" lon="-8.726627798750997">
        <ele>3.109375</ele>
      </trkpt>
      <trkpt lat="41.271428056061268" lon="-8.726962069049478">
        <ele>3.66796875</ele>
      </trkpt>
      <trkpt lat="41.271607177332044" lon="-8.727124929428101">
        <ele>3.28515625</ele>
      </trkpt>
      <trkpt lat="41.271639196202159" lon="-8.727155355736613">
        <ele>3.13671875</ele>
      </trkpt>
      <trkpt lat="41.271668868139386" lon="-8.727189302444458">
        <ele>2.9765625</ele>
      </trkpt>
      <trkpt lat="41.271700132638216" lon="-8.727221572771668">
        <ele>2.859375</ele>
      </trkpt>
      <trkpt lat="41.271733157336712" lon="-8.727253172546625">
        <ele>2.74609375</ele>
      </trkpt>
      <trkpt lat="41.271764254197478" lon="-8.727283095940948">
        <ele>2.63671875</ele>
      </trkpt>
      <trkpt lat="41.271796775981784" lon="-8.727311342954636">
        <ele>2.53515625</ele>
      </trkpt>
      <trkpt lat="41.271834243088961" lon="-8.727323245257139">
        <ele>2.4921875</ele>
      </trkpt>
      <trkpt lat="41.271873135119677" lon="-8.727334477007389">
        <ele>2.453125</ele>
      </trkpt>
      <trkpt lat="41.271911859512329" lon="-8.727343613281846">
        <ele>2.421875</ele>
      </trkpt>
      <trkpt lat="41.271951589733362" lon="-8.727352162823081">
        <ele>2.390625</ele>
      </trkpt>
      <trkpt lat="41.271991152316332" lon="-8.727361718192697">
        <ele>2.35546875</ele>
      </trkpt>
      <trkpt lat="41.272028451785445" lon="-8.727370351552963">
        <ele>2.32421875</ele>
      </trkpt>
      <trkpt lat="41.272066840901971" lon="-8.72737898491323">
        <ele>2.29296875</ele>
      </trkpt>
      <trkpt lat="41.272108498960733" lon="-8.727388624101877">
        <ele>2.2578125</ele>
      </trkpt>
      <trkpt lat="41.27214889973402" lon="-8.727394826710224">
        <ele>2.234375</ele>
      </trkpt>
      <trkpt lat="41.272189049050212" lon="-8.727402035146952">
        <ele>2.2109375</ele>
      </trkpt>
      <trkpt lat="41.272231545299292" lon="-8.727410333231091">
        <ele>2.1796875</ele>
      </trkpt>
      <trkpt lat="41.272271191701293" lon="-8.727415110915899">
        <ele>2.1640625</ele>
      </trkpt>
      <trkpt lat="41.272310754284263" lon="-8.727420978248119">
        <ele>2.140625</ele>
      </trkpt>
      <trkpt lat="41.272356603294611" lon="-8.727426175028086">
        <ele>2.125</ele>
      </trkpt>
      <trkpt lat="41.272404883056879" lon="-8.727435478940606">
        <ele>2.1328125</ele>
      </trkpt>
      <trkpt lat="41.272443188354373" lon="-8.727441597729921">
        <ele>2.140625</ele>
      </trkpt>
      <trkpt lat="41.272465148940682" lon="-8.727445704862475">
        <ele>2.14453125</ele>
      </trkpt>
      <trkpt lat="41.273004775866866" lon="-8.727500438690186">
        <ele>2.33984375</ele>
      </trkpt>
      <trkpt lat="41.273004775866866" lon="-8.727499516680837">
        <ele>2.34375</ele>
      </trkpt>
      <trkpt lat="41.273537194356322" lon="-8.727563386783004">
        <ele>3.89453125</ele>
      </trkpt>
      <trkpt lat="41.273973388597369" lon="-8.72758517973125">
        <ele>5.87890625</ele>
      </trkpt>
      <trkpt lat="41.274501448497176" lon="-8.727663047611713">
        <ele>6.609375</ele>
      </trkpt>
      <trkpt lat="41.274597337469459" lon="-8.727668914943933">
        <ele>6.76953125</ele>
      </trkpt>
      <trkpt lat="41.274638827890158" lon="-8.727669082581997">
        <ele>6.859375</ele>
      </trkpt>
      <trkpt lat="41.274680737406015" lon="-8.727672854438424">
        <ele>6.91796875</ele>
      </trkpt>
      <trkpt lat="41.27472055144608" lon="-8.727674027904868">
        <ele>6.9921875</ele>
      </trkpt>
      <trkpt lat="41.274761874228716" lon="-8.727671429514885">
        <ele>7.109375</ele>
      </trkpt>
      <trkpt lat="41.274801101535559" lon="-8.727670256048441">
        <ele>7.203125</ele>
      </trkpt>
      <trkpt lat="41.274880561977625" lon="-8.72766338288784">
        <ele>7.52734375</ele>
      </trkpt>
      <trkpt lat="41.274921549484134" lon="-8.727662209421396">
        <ele>7.7421875</ele>
      </trkpt>
      <trkpt lat="41.274964129552245" lon="-8.727662209421396">
        <ele>7.953125</ele>
      </trkpt>
      <trkpt lat="41.2750044465065" lon="-8.727663466706872">
        <ele>8.14453125</ele>
      </trkpt>
      <trkpt lat="41.275041662156582" lon="-8.727672938257456">
        <ele>8.2421875</ele>
      </trkpt>
      <trkpt lat="41.275078961625695" lon="-8.727684672921896">
        <ele>8.32421875</ele>
      </trkpt>
      <trkpt lat="41.275095390155911" lon="-8.727697245776653">
        <ele>8.296875</ele>
      </trkpt>
      <trkpt lat="41.275579696521163" lon="-8.728071162477136">
        <ele>7.9296875</ele>
      </trkpt>
      <trkpt lat="41.275880606845021" lon="-8.7283303309232">
        <ele>6.44140625</ele>
      </trkpt>
      <trkpt lat="41.275917822495103" lon="-8.728359416127205">
        <ele>6.22265625</ele>
      </trkpt>
      <trkpt lat="41.275950344279408" lon="-8.728387746959925">
        <ele>6.01171875</ele>
      </trkpt>
      <trkpt lat="41.275983704254031" lon="-8.728411216288805">
        <ele>5.84375</ele>
      </trkpt>
      <trkpt lat="41.276022680103779" lon="-8.72842806391418">
        <ele>5.734375</ele>
      </trkpt>
      <trkpt lat="41.276060650125146" lon="-8.728441223502159">
        <ele>5.65234375</ele>
      </trkpt>
      <trkpt lat="41.276102224364877" lon="-8.728448264300823">
        <ele>5.62109375</ele>
      </trkpt>
      <trkpt lat="41.276144217699766" lon="-8.728450778871775">
        <ele>5.62890625</ele>
      </trkpt>
      <trkpt lat="41.276182858273387" lon="-8.728448767215014">
        <ele>5.66796875</ele>
      </trkpt>
      <trkpt lat="41.276203645393252" lon="-8.728446839377284">
        <ele>5.6953125</ele>
      </trkpt>
      <trkpt lat="41.276729358360171" lon="-8.728446587920189">
        <ele>5.640625</ele>
      </trkpt>
      <trkpt lat="41.277128672227263" lon="-8.728436194360256">
        <ele>5.234375</ele>
      </trkpt>
      <trkpt lat="41.277441652491689" lon="-8.728420687839389">
        <ele>5.19140625</ele>
      </trkpt>
      <trkpt lat="41.277441652491689" lon="-8.728420687839389">
        <ele>5.19140625</ele>
      </trkpt>
      <trkpt lat="41.277594370767474" lon="-8.728409120813012">
        <ele>5.45703125</ele>
      </trkpt>
      <trkpt lat="41.277632759884" lon="-8.728397637605667">
        <ele>5.5859375</ele>
      </trkpt>
      <trkpt lat="41.277674166485667" lon="-8.728390261530876">
        <ele>5.6875</ele>
      </trkpt>
      <trkpt lat="41.277717584744096" lon="-8.728381628170609">
        <ele>5.8046875</ele>
      </trkpt>
      <trkpt lat="41.277763182297349" lon="-8.728372827172279">
        <ele>5.921875</ele>
      </trkpt>
      <trkpt lat="41.27780576236546" lon="-8.72836260125041">
        <ele>6.046875</ele>
      </trkpt>
      <trkpt lat="41.277845911681652" lon="-8.728351872414351">
        <ele>6.171875</ele>
      </trkpt>
      <trkpt lat="41.277883797883987" lon="-8.728337958455086">
        <ele>6.31640625</ele>
      </trkpt>
      <trkpt lat="41.277921935543418" lon="-8.728326391428709">
        <ele>6.4453125</ele>
      </trkpt>
      <trkpt lat="41.277958983555436" lon="-8.728309627622366">
        <ele>6.61328125</ele>
      </trkpt>
      <trkpt lat="41.277995947748423" lon="-8.728298395872116">
        <ele>6.73828125</ele>
      </trkpt>
      <trkpt lat="41.278035510331392" lon="-8.728291941806674">
        <ele>6.83203125</ele>
      </trkpt>
      <trkpt lat="41.278074150905013" lon="-8.728295546025038">
        <ele>6.8515625</ele>
      </trkpt>
      <trkpt lat="41.278113042935729" lon="-8.728303508833051">
        <ele>6.83984375</ele>
      </trkpt>
      <trkpt lat="41.278151432052255" lon="-8.728315494954586">
        <ele>6.80078125</ele>
      </trkpt>
      <trkpt lat="41.278188228607178" lon="-8.728326559066772">
        <ele>6.76953125</ele>
      </trkpt>
      <trkpt lat="41.278226198628545" lon="-8.728341730311513">
        <ele>6.75390625</ele>
      </trkpt>
      <trkpt lat="41.278262827545404" lon="-8.728356231004">
        <ele>6.73828125</ele>
      </trkpt>
      <trkpt lat="41.278303982689977" lon="-8.728369222953916">
        <ele>6.7421875</ele>
      </trkpt>
      <trkpt lat="41.27834614366293" lon="-8.728380873799324">
        <ele>6.7578125</ele>
      </trkpt>
      <trkpt lat="41.278386209160089" lon="-8.728380873799324">
        <ele>6.85546875</ele>
      </trkpt>
      <trkpt lat="41.278423676267266" lon="-8.728377856314182">
        <ele>6.96875</ele>
      </trkpt>
      <trkpt lat="41.27846441231668" lon="-8.72837919741869">
        <ele>7.0546875</ele>
      </trkpt>
      <trkpt lat="41.278505902737379" lon="-8.728380538523197">
        <ele>7.14453125</ele>
      </trkpt>
      <trkpt lat="41.278546303510666" lon="-8.728382717818022">
        <ele>7.2265625</ele>
      </trkpt>
      <trkpt lat="41.278584189713001" lon="-8.728387327864766">
        <ele>7.28515625</ele>
      </trkpt>
      <trkpt lat="41.278625093400478" lon="-8.728389674797654">
        <ele>7.3671875</ele>
      </trkpt>
      <trkpt lat="41.278662057593465" lon="-8.728404594585299">
        <ele>7.34765625</ele>
      </trkpt>
      <trkpt lat="41.27869701012969" lon="-8.728425465524197">
        <ele>7.28125</ele>
      </trkpt>
      <trkpt lat="41.278702206909657" lon="-8.728428315371275">
        <ele>7.2734375</ele>
      </trkpt>
      <trkpt lat="41.278845621272922" lon="-8.72849696315825">
        <ele>7.12109375</ele>
      </trkpt>
      <trkpt lat="41.278888620436192" lon="-8.728501824662089">
        <ele>7.19140625</ele>
      </trkpt>
      <trkpt lat="41.278929943218827" lon="-8.728505596518517">
        <ele>7.26171875</ele>
      </trkpt>
      <trkpt lat="41.278969924896955" lon="-8.7285116314888">
        <ele>7.31640625</ele>
      </trkpt>
      <trkpt lat="41.279007811099291" lon="-8.728520516306162">
        <ele>7.34375</ele>
      </trkpt>
      <trkpt lat="41.279046703130007" lon="-8.728533927351236">
        <ele>7.47265625</ele>
      </trkpt>
      <trkpt lat="41.279088947921991" lon="-8.728549601510167">
        <ele>7.6484375</ele>
      </trkpt>
      <trkpt lat="41.279125912114978" lon="-8.728562342002988">
        <ele>7.80859375</ele>
      </trkpt>
      <trkpt lat="41.279164720326662" lon="-8.728574411943555">
        <ele>7.98828125</ele>
      </trkpt>
      <trkpt lat="41.279203360900283" lon="-8.728588661178946">
        <ele>8.15234375</ele>
      </trkpt>
      <trkpt lat="41.279237559065223" lon="-8.728619087487459">
        <ele>8.17578125</ele>
      </trkpt>
      <trkpt lat="41.279268488287926" lon="-8.728655716404319">
        <ele>8.13671875</ele>
      </trkpt>
      <trkpt lat="41.279297657310963" lon="-8.728695530444384">
        <ele>8.0703125</ele>
      </trkpt>
      <trkpt lat="41.279332945123315" lon="-8.728725705295801">
        <ele>8.11328125</ele>
      </trkpt>
      <trkpt lat="41.279371418058872" lon="-8.728745235130191">
        <ele>8.25390625</ele>
      </trkpt>
      <trkpt lat="41.279411315917969" lon="-8.728771889582276">
        <ele>8.35546875</ele>
      </trkpt>
      <trkpt lat="41.279445262625813" lon="-8.72880089096725">
        <ele>8.40625</ele>
      </trkpt>
      <trkpt lat="41.279474180191755" lon="-8.72883316129446">
        <ele>8.40234375</ele>
      </trkpt>
      <trkpt lat="41.279505779966712" lon="-8.728871215134859">
        <ele>8.35546875</ele>
      </trkpt>
      <trkpt lat="41.279536793008447" lon="-8.728907341137528">
        <ele>8.29296875</ele>
      </trkpt>
      <trkpt lat="41.279566884040833" lon="-8.728942042216659">
        <ele>8.22265625</ele>
      </trkpt>
      <trkpt lat="41.279598148539662" lon="-8.728978838771582">
        <ele>8.12890625</ele>
      </trkpt>
      <trkpt lat="41.279629832133651" lon="-8.7290124502033">
        <ele>8.0546875</ele>
      </trkpt>
      <trkpt lat="41.279660174623132" lon="-8.729042457416654">
        <ele>7.98828125</ele>
      </trkpt>
      <trkpt lat="41.279699988663197" lon="-8.729052850976586">
        <ele>8.140625</ele>
      </trkpt>
      <trkpt lat="41.279737874865532" lon="-8.729057461023331">
        <ele>8.328125</ele>
      </trkpt>
      <trkpt lat="41.279780706390738" lon="-8.729051509872079">
        <ele>8.63671875</ele>
      </trkpt>
      <trkpt lat="41.279819933697581" lon="-8.72904421761632">
        <ele>8.9453125</ele>
      </trkpt>
      <trkpt lat="41.279858909547329" lon="-8.72904421761632">
        <ele>9.15234375</ele>
      </trkpt>
      <trkpt lat="41.27989805303514" lon="-8.729046983644366">
        <ele>9.25390625</ele>
      </trkpt>
      <trkpt lat="41.279939543455839" lon="-8.729060813784599">
        <ele>9.2578125</ele>
      </trkpt>
      <trkpt lat="41.279979525133967" lon="-8.729085372760892">
        <ele>9.1484375</ele>
      </trkpt>
      <trkpt lat="41.280017076060176" lon="-8.729111272841692">
        <ele>9.015625</ele>
      </trkpt>
      <trkpt lat="41.280054794624448" lon="-8.72913071885705">
        <ele>8.9453125</ele>
      </trkpt>
      <trkpt lat="41.280084298923612" lon="-8.729144800454378">
        <ele>8.8984375</ele>
      </trkpt>
      <trkpt lat="41.280169878154993" lon="-8.729208083823323">
        <ele>8.53515625</ele>
      </trkpt>
      <trkpt lat="41.280207512900233" lon="-8.729232558980584">
        <ele>8.40234375</ele>
      </trkpt>
      <trkpt lat="41.2802420463413" lon="-8.729259129613638">
        <ele>8.23828125</ele>
      </trkpt>
      <trkpt lat="41.280272724106908" lon="-8.729290477931499">
        <ele>8.0078125</ele>
      </trkpt>
      <trkpt lat="41.280300803482533" lon="-8.729326687753201">
        <ele>7.72265625</ele>
      </trkpt>
      <trkpt lat="41.280315387994051" lon="-8.729380834847689">
        <ele>7.20703125</ele>
      </trkpt>
      <trkpt lat="41.280335504561663" lon="-8.729426516219974">
        <ele>6.79296875</ele>
      </trkpt>
      <trkpt lat="41.280369032174349" lon="-8.729450153186917">
        <ele>6.640625</ele>
      </trkpt>
      <trkpt lat="41.28040473908186" lon="-8.729465240612626">
        <ele>6.58203125</ele>
      </trkpt>
      <trkpt lat="41.280451426282525" lon="-8.72947814874351">
        <ele>6.57421875</ele>
      </trkpt>
      <trkpt lat="41.28049224615097" lon="-8.729481920599937">
        <ele>6.64453125</ele>
      </trkpt>
      <trkpt lat="41.280535915866494" lon="-8.729483261704445">
        <ele>6.74609375</ele>
      </trkpt>
      <trkpt lat="41.280575729906559" lon="-8.729484686627984">
        <ele>6.83984375</ele>
      </trkpt>
      <trkpt lat="41.2806168012321" lon="-8.729487536475062">
        <ele>6.91796875</ele>
      </trkpt>
      <trkpt lat="41.280657956376672" lon="-8.729493319988251">
        <ele>6.96484375</ele>
      </trkpt>
      <trkpt lat="41.280698357149959" lon="-8.729502456262708">
        <ele>7.015625</ele>
      </trkpt>
      <trkpt lat="41.280735908076167" lon="-8.729513352736831">
        <ele>7.0859375</ele>
      </trkpt>
      <trkpt lat="41.280768094584346" lon="-8.729545790702105">
        <ele>6.9140625</ele>
      </trkpt>
      <trkpt lat="41.280787708237767" lon="-8.729588286951184">
        <ele>6.5859375</ele>
      </trkpt>
      <trkpt lat="41.280812015756965" lon="-8.72963254339993">
        <ele>6.2734375</ele>
      </trkpt>
      <trkpt lat="41.280836910009384" lon="-8.729669088497758">
        <ele>6.0546875</ele>
      </trkpt>
      <trkpt lat="41.280836910009384" lon="-8.729720637202263">
        <ele>5.6796875</ele>
      </trkpt>
      <trkpt lat="41.280836071819067" lon="-8.729778807610273">
        <ele>5.296875</ele>
      </trkpt>
      <trkpt lat="41.280834479257464" lon="-8.729830021038651">
        <ele>4.9609375</ele>
      </trkpt>
      <trkpt lat="41.280836826190352" lon="-8.729880983009934">
        <ele>4.64453125</ele>
      </trkpt>
      <trkpt lat="41.280846213921905" lon="-8.729933705180883">
        <ele>4.3515625</ele>
      </trkpt>
      <trkpt lat="41.280863396823406" lon="-8.729982571676373">
        <ele>4.125</ele>
      </trkpt>
      <trkpt lat="41.280886111781001" lon="-8.730026576668024">
        <ele>3.94921875</ele>
      </trkpt>
      <trkpt lat="41.280916118994355" lon="-8.730061193928123">
        <ele>3.87109375</ele>
      </trkpt>
      <trkpt lat="41.2809500657022" lon="-8.730076616629958">
        <ele>3.93359375</ele>
      </trkpt>
      <trkpt lat="41.280951322987676" lon="-8.730076616629958">
        <ele>3.9375</ele>
      </trkpt>
      <trkpt lat="41.281093647703528" lon="-8.730219444260001">
        <ele>3.6015625</ele>
      </trkpt>
      <trkpt lat="41.281125247478485" lon="-8.730264287441969">
        <ele>3.41796875</ele>
      </trkpt>
      <trkpt lat="41.281158607453108" lon="-8.730311142280698">
        <ele>3.21484375</ele>
      </trkpt>
      <trkpt lat="41.281194817274809" lon="-8.730361433699727">
        <ele>2.9921875</ele>
      </trkpt>
      <trkpt lat="41.281227339059114" lon="-8.730399571359158">
        <ele>2.83203125</ele>
      </trkpt>
      <trkpt lat="41.281256340444088" lon="-8.730432009324431">
        <ele>2.69921875</ele>
      </trkpt>
      <trkpt lat="41.281285425648093" lon="-8.730467716231942">
        <ele>2.53515625</ele>
      </trkpt>
      <trkpt lat="41.281315600499511" lon="-8.730502417311072">
        <ele>2.375</ele>
      </trkpt>
      <trkpt lat="41.281346781179309" lon="-8.730535693466663">
        <ele>2.3359375</ele>
      </trkpt>
      <trkpt lat="41.281381398439407" lon="-8.730569472536445">
        <ele>2.3515625</ele>
      </trkpt>
      <trkpt lat="41.281410316005349" lon="-8.730601407587528">
        <ele>2.3515625</ele>
      </trkpt>
      <trkpt lat="41.281440993770957" lon="-8.730639293789864">
        <ele>2.32421875</ele>
      </trkpt>
      <trkpt lat="41.281472593545914" lon="-8.730676341801882">
        <ele>2.29296875</ele>
      </trkpt>
      <trkpt lat="41.281502265483141" lon="-8.7307099532336">
        <ele>2.26171875</ele>
      </trkpt>
      <trkpt lat="41.281534032896161" lon="-8.730741133913398">
        <ele>2.1796875</ele>
      </trkpt>
      <trkpt lat="41.281565129756927" lon="-8.730776337906718">
        <ele>2.0546875</ele>
      </trkpt>
      <trkpt lat="41.281594969332218" lon="-8.730809865519404">
        <ele>1.93359375</ele>
      </trkpt>
      <trkpt lat="41.281630927696824" lon="-8.730832161381841">
        <ele>1.85546875</ele>
      </trkpt>
      <trkpt lat="41.281670406460762" lon="-8.730847248807549">
        <ele>1.80078125</ele>
      </trkpt>
      <trkpt lat="41.281710891053081" lon="-8.730862336233258">
        <ele>1.74609375</ele>
      </trkpt>
      <trkpt lat="41.281748861074448" lon="-8.730874322354794">
        <ele>1.703125</ele>
      </trkpt>
      <trkpt lat="41.281785825267434" lon="-8.730887314304709">
        <ele>1.65625</ele>
      </trkpt>
      <trkpt lat="41.281823124736547" lon="-8.730885470286012">
        <ele>1.66015625</ele>
      </trkpt>
      <trkpt lat="41.281847516074777" lon="-8.730844147503376">
        <ele>1.80859375</ele>
      </trkpt>
      <trkpt lat="41.281856065616012" lon="-8.730793436989188">
        <ele>1.9921875</ele>
      </trkpt>
      <trkpt lat="41.281875595450401" lon="-8.730745241045952">
        <ele>2.16796875</ele>
      </trkpt>
      <trkpt lat="41.28190535120666" lon="-8.730715485289693">
        <ele>2.2734375</ele>
      </trkpt>
      <trkpt lat="41.281946003437042" lon="-8.730705846101046">
        <ele>2.30859375</ele>
      </trkpt>
      <trkpt lat="41.281986488029361" lon="-8.730698553845286">
        <ele>2.3359375</ele>
      </trkpt>
      <trkpt lat="41.282024374231696" lon="-8.730692435055971">
        <ele>2.35546875</ele>
      </trkpt>
      <trkpt lat="41.282064272090793" lon="-8.730688914656639">
        <ele>2.37109375</ele>
      </trkpt>
      <trkpt lat="41.282102074474096" lon="-8.730691261589527">
        <ele>2.359375</ele>
      </trkpt>
      <trkpt lat="41.282141637057066" lon="-8.730710623785853">
        <ele>2.29296875</ele>
      </trkpt>
      <trkpt lat="41.282176757231355" lon="-8.730729147791862">
        <ele>2.22265625</ele>
      </trkpt>
      <trkpt lat="41.282210703939199" lon="-8.730756137520075">
        <ele>2.12890625</ele>
      </trkpt>
      <trkpt lat="41.282238364219666" lon="-8.730790168046951">
        <ele>2.00390625</ele>
      </trkpt>
      <trkpt lat="41.282263426110148" lon="-8.73082872480154">
        <ele>1.8671875</ele>
      </trkpt>
      <trkpt lat="41.282301312312484" lon="-8.730852529406548">
        <ele>1.78125</ele>
      </trkpt>
      <trkpt lat="41.282342132180929" lon="-8.730867113918066">
        <ele>1.7265625</ele>
      </trkpt>
      <trkpt lat="41.282381610944867" lon="-8.730883374810219">
        <ele>1.66796875</ele>
      </trkpt>
      <trkpt lat="41.282420083880424" lon="-8.730898210778832">
        <ele>1.6171875</ele>
      </trkpt>
      <trkpt lat="41.282458640635014" lon="-8.730913801118731">
        <ele>1.55859375</ele>
      </trkpt>
      <trkpt lat="41.282495772466063" lon="-8.730921428650618">
        <ele>1.53125</ele>
      </trkpt>
      <trkpt lat="41.282533658668399" lon="-8.730921512469649">
        <ele>1.53125</ele>
      </trkpt>
      <trkpt lat="41.282575149089098" lon="-8.730910448357463">
        <ele>1.5703125</ele>
      </trkpt>
      <trkpt lat="41.282617645338178" lon="-8.730895193293691">
        <ele>1.625</ele>
      </trkpt>
      <trkpt lat="41.282660057768226" lon="-8.730885302647948">
        <ele>1.66015625</ele>
      </trkpt>
      <trkpt lat="41.282698782160878" lon="-8.730874238535762">
        <ele>1.703125</ele>
      </trkpt>
      <trkpt lat="41.282712947577238" lon="-8.730867700651288">
        <ele>1.7265625</ele>
      </trkpt>
      <trkpt lat="41.282927105203271" lon="-8.730774074792862">
        <ele>2.0625</ele>
      </trkpt>
      <trkpt lat="41.282967505976558" lon="-8.730769967660308">
        <ele>2.078125</ele>
      </trkpt>
      <trkpt lat="41.283013857901096" lon="-8.730759657919407">
        <ele>2.11328125</ele>
      </trkpt>
      <trkpt lat="41.283053755760193" lon="-8.730749767273664">
        <ele>2.1484375</ele>
      </trkpt>
      <trkpt lat="41.283092396333814" lon="-8.730741385370493">
        <ele>2.1796875</ele>
      </trkpt>
      <trkpt lat="41.283130869269371" lon="-8.730731578543782">
        <ele>2.21484375</ele>
      </trkpt>
      <trkpt lat="41.283173533156514" lon="-8.730723280459642">
        <ele>2.24609375</ele>
      </trkpt>
      <trkpt lat="41.28321485593915" lon="-8.730714395642281">
        <ele>2.36328125</ele>
      </trkpt>
      <trkpt lat="41.283252825960517" lon="-8.730709031224251">
        <ele>2.47265625</ele>
      </trkpt>
      <trkpt lat="41.283290963619947" lon="-8.730709031224251">
        <ele>2.5625</ele>
      </trkpt>
      <trkpt lat="41.283330777660012" lon="-8.730712719261646">
        <ele>2.64453125</ele>
      </trkpt>
      <trkpt lat="41.283368747681379" lon="-8.73071632348001">
        <ele>2.72265625</ele>
      </trkpt>
      <trkpt lat="41.283416273072362" lon="-8.730722442269325">
        <ele>2.81640625</ele>
      </trkpt>
      <trkpt lat="41.283456590026617" lon="-8.730725040659308">
        <ele>2.90234375</ele>
      </trkpt>
      <trkpt lat="41.283498667180538" lon="-8.730733506381512">
        <ele>2.9765625</ele>
      </trkpt>
      <trkpt lat="41.283536804839969" lon="-8.730743145570159">
        <ele>3.03125</ele>
      </trkpt>
      <trkpt lat="41.283575613051653" lon="-8.730754964053631">
        <ele>3.08203125</ele>
      </trkpt>
      <trkpt lat="41.283613499253988" lon="-8.730767536908388">
        <ele>3.12890625</ele>
      </trkpt>
      <trkpt lat="41.283652475103736" lon="-8.730779271572828">
        <ele>3.1796875</ele>
      </trkpt>
      <trkpt lat="41.283691450953484" lon="-8.730790168046951">
        <ele>3.234375</ele>
      </trkpt>
      <trkpt lat="41.283731935545802" lon="-8.730803998187184">
        <ele>3.28125</ele>
      </trkpt>
      <trkpt lat="41.283771162852645" lon="-8.730820007622242">
        <ele>3.31640625</ele>
      </trkpt>
      <trkpt lat="41.283786417916417" lon="-8.730825372040272">
        <ele>3.3359375</ele>
      </trkpt>
      <trkpt lat="41.284102750942111" lon="-8.730972558259964">
        <ele>3.39453125</ele>
      </trkpt>
      <trkpt lat="41.284341048449278" lon="-8.731088815256953">
        <ele>3.05078125</ele>
      </trkpt>
      <trkpt lat="41.284585632383823" lon="-8.73117858543992">
        <ele>2.74609375</ele>
      </trkpt>
      <trkpt lat="41.284894589334726" lon="-8.731324598193169">
        <ele>2.10546875</ele>
      </trkpt>
      <trkpt lat="41.284969942644238" lon="-8.731349743902683">
        <ele>1.9921875</ele>
      </trkpt>
      <trkpt lat="41.284971199929714" lon="-8.731350665912032">
        <ele>1.9921875</ele>
      </trkpt>
      <trkpt lat="41.285683745518327" lon="-8.731447560712695">
        <ele>1.765625</ele>
      </trkpt>
      <trkpt lat="41.286174841225147" lon="-8.731512436643243">
        <ele>2.19921875</ele>
      </trkpt>
      <trkpt lat="41.286362679675221" lon="-8.73152744024992">
        <ele>2.38671875</ele>
      </trkpt>
      <trkpt lat="41.286403248086572" lon="-8.731539510190487">
        <ele>2.40625</ele>
      </trkpt>
      <trkpt lat="41.286441050469875" lon="-8.731547556817532">
        <ele>2.43359375</ele>
      </trkpt>
      <trkpt lat="41.28648136742413" lon="-8.731556441634893">
        <ele>2.4609375</ele>
      </trkpt>
      <trkpt lat="41.286521935835481" lon="-8.731564823538065">
        <ele>2.4765625</ele>
      </trkpt>
      <trkpt lat="41.286568203940988" lon="-8.731574378907681">
        <ele>2.453125</ele>
      </trkpt>
      <trkpt lat="41.286608604714274" lon="-8.731583096086979">
        <ele>2.43359375</ele>
      </trkpt>
      <trkpt lat="41.286645485088229" lon="-8.731593154370785">
        <ele>2.41015625</ele>
      </trkpt>
      <trkpt lat="41.286685969680548" lon="-8.731603128835559">
        <ele>2.3828125</ele>
      </trkpt>
      <trkpt lat="41.286723017692566" lon="-8.731613606214523">
        <ele>2.359375</ele>
      </trkpt>
      <trkpt lat="41.286765597760677" lon="-8.731621988117695">
        <ele>2.33984375</ele>
      </trkpt>
      <trkpt lat="41.286808094009757" lon="-8.731630956754088">
        <ele>2.31640625</ele>
      </trkpt>
      <trkpt lat="41.286855116486549" lon="-8.731636321172118">
        <ele>2.3046875</ele>
      </trkpt>
      <trkpt lat="41.286894930526614" lon="-8.731641937047243">
        <ele>2.29296875</ele>
      </trkpt>
      <trkpt lat="41.286939941346645" lon="-8.731646211817861">
        <ele>2.28125</ele>
      </trkpt>
      <trkpt lat="41.286982521414757" lon="-8.731651743873954">
        <ele>2.265625</ele>
      </trkpt>
      <trkpt lat="41.287021916359663" lon="-8.731658365577459">
        <ele>2.25</ele>
      </trkpt>
      <trkpt lat="41.287062065675855" lon="-8.731665909290314">
        <ele>2.234375</ele>
      </trkpt>
      <trkpt lat="41.287103472277522" lon="-8.731672279536724">
        <ele>2.21875</ele>
      </trkpt>
      <trkpt lat="41.287145800888538" lon="-8.731680074706674">
        <ele>2.19921875</ele>
      </trkpt>
      <trkpt lat="41.287184357643127" lon="-8.73168577440083">
        <ele>2.1875</ele>
      </trkpt>
      <trkpt lat="41.287225680425763" lon="-8.731694407761097">
        <ele>2.1640625</ele>
      </trkpt>
      <trkpt lat="41.287264237180352" lon="-8.731701448559761">
        <ele>2.1484375</ele>
      </trkpt>
      <trkpt lat="41.287306901067495" lon="-8.731709746643901">
        <ele>2.12890625</ele>
      </trkpt>
      <trkpt lat="41.287348223850131" lon="-8.731720643118024">
        <ele>2.11328125</ele>
      </trkpt>
      <trkpt lat="41.287387870252132" lon="-8.731730030849576">
        <ele>2.1875</ele>
      </trkpt>
      <trkpt lat="41.287428354844451" lon="-8.731726845726371">
        <ele>2.296875</ele>
      </trkpt>
      <trkpt lat="41.287467833608389" lon="-8.731713267043233">
        <ele>2.43359375</ele>
      </trkpt>
      <trkpt lat="41.287501193583012" lon="-8.731685439124703">
        <ele>2.59765625</ele>
      </trkpt>
      <trkpt lat="41.287537822499871" lon="-8.731659706681967">
        <ele>2.7734375</ele>
      </trkpt>
      <trkpt lat="41.287577133625746" lon="-8.731643864884973">
        <ele>2.92578125</ele>
      </trkpt>
      <trkpt lat="41.287618624046445" lon="-8.731633387506008">
        <ele>3.07421875</ele>
      </trkpt>
      <trkpt lat="41.287660365924239" lon="-8.731633387506008">
        <ele>3.19140625</ele>
      </trkpt>
      <trkpt lat="41.287701521068811" lon="-8.731643948704004">
        <ele>3.26953125</ele>
      </trkpt>
      <trkpt lat="41.287741921842098" lon="-8.731657359749079">
        <ele>3.33203125</ele>
      </trkpt>
      <trkpt lat="41.287782322615385" lon="-8.731672530993819">
        <ele>3.38671875</ele>
      </trkpt>
      <trkpt lat="41.287820292636752" lon="-8.73168770223856">
        <ele>3.4296875</ele>
      </trkpt>
      <trkpt lat="41.287861196324229" lon="-8.731709495186806">
        <ele>3.44921875</ele>
      </trkpt>
      <trkpt lat="41.287898998707533" lon="-8.731729863211513">
        <ele>3.46484375</ele>
      </trkpt>
      <trkpt lat="41.2879369687289" lon="-8.731751572340727">
        <ele>3.47265625</ele>
      </trkpt>
      <trkpt lat="41.287973765283823" lon="-8.731770515441895">
        <ele>3.48046875</ele>
      </trkpt>
      <trkpt lat="41.288012070581317" lon="-8.731787698343396">
        <ele>3.5</ele>
      </trkpt>
      <trkpt lat="41.288047861307859" lon="-8.731810245662928">
        <ele>3.48046875</ele>
      </trkpt>
      <trkpt lat="41.288080299273133" lon="-8.731845282018185">
        <ele>3.3984375</ele>
      </trkpt>
      <trkpt lat="41.288112821057439" lon="-8.731875289231539">
        <ele>3.328125</ele>
      </trkpt>
      <trkpt lat="41.28814852796495" lon="-8.73189096339047">
        <ele>3.328125</ele>
      </trkpt>
      <trkpt lat="41.288189347833395" lon="-8.731904374435544">
        <ele>3.36328125</ele>
      </trkpt>
      <trkpt lat="41.288228323683143" lon="-8.731912756338716">
        <ele>3.4453125</ele>
      </trkpt>
      <trkpt lat="41.288268305361271" lon="-8.731924407184124">
        <ele>3.51953125</ele>
      </trkpt>
      <trkpt lat="41.288309711962938" lon="-8.731929771602154">
        <ele>3.62890625</ele>
      </trkpt>
      <trkpt lat="41.288352040573955" lon="-8.731933794915676">
        <ele>3.75</ele>
      </trkpt>
      <trkpt lat="41.288395458832383" lon="-8.731935136020184">
        <ele>3.8828125</ele>
      </trkpt>
      <trkpt lat="41.288435440510511" lon="-8.731938572600484">
        <ele>4</ele>
      </trkpt>
      <trkpt lat="41.288457820191979" lon="-8.731942679733038">
        <ele>4.0546875</ele>
      </trkpt>
      <trkpt lat="41.288629565387964" lon="-8.73200437054038">
        <ele>4.359375</ele>
      </trkpt>
      <trkpt lat="41.288687651976943" lon="-8.732020547613502">
        <ele>4.48828125</ele>
      </trkpt>
      <trkpt lat="41.288745068013668" lon="-8.732034796848893">
        <ele>4.625</ele>
      </trkpt>
      <trkpt lat="41.288801981136203" lon="-8.732051476836205">
        <ele>4.75</ele>
      </trkpt>
      <trkpt lat="41.288856966421008" lon="-8.732068995013833">
        <ele>4.87109375</ele>
      </trkpt>
      <trkpt lat="41.288921423256397" lon="-8.732088943943381">
        <ele>5.01953125</ele>
      </trkpt>
      <trkpt lat="41.288973810151219" lon="-8.732108976691961">
        <ele>5.12890625</ele>
      </trkpt>
      <trkpt lat="41.289026364684105" lon="-8.732127919793129">
        <ele>5.2265625</ele>
      </trkpt>
      <trkpt lat="41.2890749797225" lon="-8.732167230919003">
        <ele>5.203125</ele>
      </trkpt>
      <trkpt lat="41.289121247828007" lon="-8.732220958918333">
        <ele>5.0625</ele>
      </trkpt>
      <trkpt lat="41.289163157343864" lon="-8.732266975566745">
        <ele>4.9296875</ele>
      </trkpt>
      <trkpt lat="41.289206240326166" lon="-8.732313411310315">
        <ele>4.79296875</ele>
      </trkpt>
      <trkpt lat="41.289250077679753" lon="-8.732360182330012">
        <ele>4.6484375</ele>
      </trkpt>
      <trkpt lat="41.289293831214309" lon="-8.732410306110978">
        <ele>4.48046875</ele>
      </trkpt>
      <trkpt lat="41.289334651082754" lon="-8.732457160949707">
        <ele>4.31640625</ele>
      </trkpt>
      <trkpt lat="41.289378991350532" lon="-8.732499405741692">
        <ele>4.1796875</ele>
      </trkpt>
      <trkpt lat="41.289431713521481" lon="-8.73252178542316">
        <ele>4.16015625</ele>
      </trkpt>
      <trkpt lat="41.289487285539508" lon="-8.73254232108593">
        <ele>4.15625</ele>
      </trkpt>
      <trkpt lat="41.289542689919472" lon="-8.732558246701956">
        <ele>4.171875</ele>
      </trkpt>
      <trkpt lat="41.28959683701396" lon="-8.732574842870235">
        <ele>4.17578125</ele>
      </trkpt>
      <trkpt lat="41.289651654660702" lon="-8.732590768486261">
        <ele>4.1875</ele>
      </trkpt>
      <trkpt lat="41.289709154516459" lon="-8.732610130682588">
        <ele>4.17578125</ele>
      </trkpt>
      <trkpt lat="41.289769420400262" lon="-8.732628738507628">
        <ele>4.17578125</ele>
      </trkpt>
      <trkpt lat="41.289828009903431" lon="-8.732644747942686">
        <ele>4.18359375</ele>
      </trkpt>
      <trkpt lat="41.2898900359869" lon="-8.732662852853537">
        <ele>4.1796875</ele>
      </trkpt>
      <trkpt lat="41.28994912840426" lon="-8.732674671337008">
        <ele>4.20703125</ele>
      </trkpt>
      <trkpt lat="41.290009897202253" lon="-8.7326923571527">
        <ele>4.19921875</ele>
      </trkpt>
      <trkpt lat="41.290071001276374" lon="-8.732710042968392">
        <ele>4.1875</ele>
      </trkpt>
      <trkpt lat="41.290130764245987" lon="-8.732725884765387">
        <ele>4.18359375</ele>
      </trkpt>
      <trkpt lat="41.290189018473029" lon="-8.732739882543683">
        <ele>4.1875</ele>
      </trkpt>
      <trkpt lat="41.290245093405247" lon="-8.732750443741679">
        <ele>4.20703125</ele>
      </trkpt>
      <trkpt lat="41.290305778384209" lon="-8.7327597476542">
        <ele>4.2421875</ele>
      </trkpt>
      <trkpt lat="41.290363362058997" lon="-8.732761591672897">
        <ele>4.3203125</ele>
      </trkpt>
      <trkpt lat="41.290420107543468" lon="-8.732761591672897">
        <ele>4.40625</ele>
      </trkpt>
      <trkpt lat="41.290480960160494" lon="-8.732761591672897">
        <ele>4.50390625</ele>
      </trkpt>
      <trkpt lat="41.290535526350141" lon="-8.732761591672897">
        <ele>4.58984375</ele>
      </trkpt>
      <trkpt lat="41.290590092539787" lon="-8.73276955448091">
        <ele>4.6171875</ele>
      </trkpt>
      <trkpt lat="41.290646670386195" lon="-8.732772991061211">
        <ele>4.6796875</ele>
      </trkpt>
      <trkpt lat="41.290702410042286" lon="-8.732778606936336">
        <ele>4.75390625</ele>
      </trkpt>
      <trkpt lat="41.290756473317742" lon="-8.732788329944015">
        <ele>4.828125</ele>
      </trkpt>
      <trkpt lat="41.290814476087689" lon="-8.732801908627152">
        <ele>4.890625</ele>
      </trkpt>
      <trkpt lat="41.290880274027586" lon="-8.732810122892261">
        <ele>5.015625</ele>
      </trkpt>
      <trkpt lat="41.290939534083009" lon="-8.732813643291593">
        <ele>5.15625</ele>
      </trkpt>
      <trkpt lat="41.290996950119734" lon="-8.732815654948354">
        <ele>5.30078125</ele>
      </trkpt>
      <trkpt lat="41.291059562936425" lon="-8.732815654948354">
        <ele>5.47265625</ele>
      </trkpt>
      <trkpt lat="41.29111647605896" lon="-8.732817666605115">
        <ele>5.62109375</ele>
      </trkpt>
      <trkpt lat="41.291172383353114" lon="-8.732823533937335">
        <ele>5.74609375</ele>
      </trkpt>
      <trkpt lat="41.291227536275983" lon="-8.732830071821809">
        <ele>5.8671875</ele>
      </trkpt>
      <trkpt lat="41.291284617036581" lon="-8.732838034629822">
        <ele>5.9921875</ele>
      </trkpt>
      <trkpt lat="41.291339015588164" lon="-8.732848428189754">
        <ele>6.1015625</ele>
      </trkpt>
      <trkpt lat="41.291396599262953" lon="-8.732854211702943">
        <ele>6.24609375</ele>
      </trkpt>
      <trkpt lat="41.291464492678642" lon="-8.732860246673226">
        <ele>6.41796875</ele>
      </trkpt>
      <trkpt lat="41.291518472135067" lon="-8.732860246673226">
        <ele>6.55078125</ele>
      </trkpt>
      <trkpt lat="41.291576391085982" lon="-8.732863515615463">
        <ele>6.55078125</ele>
      </trkpt>
      <trkpt lat="41.291631124913692" lon="-8.732878854498267">
        <ele>6.50390625</ele>
      </trkpt>
      <trkpt lat="41.291686277836561" lon="-8.732897043228149">
        <ele>6.4453125</ele>
      </trkpt>
      <trkpt lat="41.291722571477294" lon="-8.732957812026143">
        <ele>6.21484375</ele>
      </trkpt>
      <trkpt lat="41.291748136281967" lon="-8.733021933585405">
        <ele>5.95703125</ele>
      </trkpt>
      <trkpt lat="41.291757188737392" lon="-8.733041463419795">
        <ele>5.87109375</ele>
      </trkpt>
      <trkpt lat="41.291847126558423" lon="-8.733128132298589">
        <ele>5.5</ele>
      </trkpt>
      <trkpt lat="41.291895154863596" lon="-8.733163923025131">
        <ele>5.35546875</ele>
      </trkpt>
      <trkpt lat="41.291949218139052" lon="-8.733192002400756">
        <ele>5.25</ele>
      </trkpt>
      <trkpt lat="41.291993893682957" lon="-8.733232570812106">
        <ele>5.09765625</ele>
      </trkpt>
      <trkpt lat="41.292034965008497" lon="-8.733283868059516">
        <ele>4.90234375</ele>
      </trkpt>
      <trkpt lat="41.292070085182786" lon="-8.733343714848161">
        <ele>4.67578125</ele>
      </trkpt>
      <trkpt lat="41.292090704664588" lon="-8.733413200825453">
        <ele>4.41015625</ele>
      </trkpt>
      <trkpt lat="41.29211962223053" lon="-8.733473718166351">
        <ele>4.19140625</ele>
      </trkpt>
      <trkpt lat="41.292150970548391" lon="-8.733532726764679">
        <ele>3.984375</ele>
      </trkpt>
      <trkpt lat="41.292189359664917" lon="-8.733584443107247">
        <ele>3.8125</ele>
      </trkpt>
      <trkpt lat="41.29224568605423" lon="-8.733619228005409">
        <ele>3.73046875</ele>
      </trkpt>
      <trkpt lat="41.29230285063386" lon="-8.733654096722603">
        <ele>3.65234375</ele>
      </trkpt>
      <trkpt lat="41.29236051812768" lon="-8.733679074794054">
        <ele>3.625</ele>
      </trkpt>
      <trkpt lat="41.292410977184772" lon="-8.733705142512918">
        <ele>3.6171875</ele>
      </trkpt>
      <trkpt lat="41.292457412928343" lon="-8.733744202181697">
        <ele>3.57421875</ele>
      </trkpt>
      <trkpt lat="41.292504435405135" lon="-8.733783764764667">
        <ele>3.5546875</ele>
      </trkpt>
      <trkpt lat="41.292552882805467" lon="-8.733813352882862">
        <ele>3.5859375</ele>
      </trkpt>
      <trkpt lat="41.292603509500623" lon="-8.733797511085868">
        <ele>3.73046875</ele>
      </trkpt>
      <trkpt lat="41.292650364339352" lon="-8.733758702874184">
        <ele>3.8984375</ele>
      </trkpt>
      <trkpt lat="41.292708870023489" lon="-8.73374680057168">
        <ele>4.03125</ele>
      </trkpt>
      <trkpt lat="41.292764190584421" lon="-8.733760043978691">
        <ele>4.1171875</ele>
      </trkpt>
      <trkpt lat="41.292818002402782" lon="-8.733779573813081">
        <ele>4.203125</ele>
      </trkpt>
      <trkpt lat="41.292872652411461" lon="-8.733800696209073">
        <ele>4.30078125</ele>
      </trkpt>
      <trkpt lat="41.292931912466884" lon="-8.733821231871843">
        <ele>4.42578125</ele>
      </trkpt>
      <trkpt lat="41.292991172522306" lon="-8.73384646140039">
        <ele>4.55859375</ele>
      </trkpt>
      <trkpt lat="41.293048588559031" lon="-8.733879653736949">
        <ele>4.58203125</ele>
      </trkpt>
      <trkpt lat="41.293098544701934" lon="-8.733909828588367">
        <ele>4.59375</ele>
      </trkpt>
      <trkpt lat="41.293146070092916" lon="-8.733947966247797">
        <ele>4.56640625</ele>
      </trkpt>
      <trkpt lat="41.293192338198423" lon="-8.733995659276843">
        <ele>4.57421875</ele>
      </trkpt>
      <trkpt lat="41.293233158066869" lon="-8.734048800542951">
        <ele>4.640625</ele>
      </trkpt>
      <trkpt lat="41.293287556618452" lon="-8.734071431681514">
        <ele>4.90625</ele>
      </trkpt>
      <trkpt lat="41.293341452255845" lon="-8.734086351469159">
        <ele>5.1953125</ele>
      </trkpt>
      <trkpt lat="41.293396856635809" lon="-8.734101271256804">
        <ele>5.5</ele>
      </trkpt>
      <trkpt lat="41.2934525962919" lon="-8.734113173559308">
        <ele>5.81640625</ele>
      </trkpt>
      <trkpt lat="41.293490063399076" lon="-8.734125830233097">
        <ele>6.015625</ele>
      </trkpt>
      <trkpt lat="41.293747974559665" lon="-8.73422565869987">
        <ele>7.390625</ele>
      </trkpt>
      <trkpt lat="41.293886108323932" lon="-8.734264550730586">
        <ele>8.1953125</ele>
      </trkpt>
      <trkpt lat="41.293936064466834" lon="-8.734290366992354">
        <ele>8.4609375</ele>
      </trkpt>
      <trkpt lat="41.293988116085529" lon="-8.734318111091852">
        <ele>8.7421875</ele>
      </trkpt>
      <trkpt lat="41.294041592627764" lon="-8.734333785250783">
        <ele>8.9296875</ele>
      </trkpt>
      <trkpt lat="41.294094147160649" lon="-8.734349962323904">
        <ele>9.0390625</ele>
      </trkpt>
      <trkpt lat="41.294146869331598" lon="-8.734368067234755">
        <ele>9.14453125</ele>
      </trkpt>
      <trkpt lat="41.29420118406415" lon="-8.734381562098861">
        <ele>9.26171875</ele>
      </trkpt>
      <trkpt lat="41.294258264824748" lon="-8.734394805505872">
        <ele>9.38671875</ele>
      </trkpt>
      <trkpt lat="41.294323811307549" lon="-8.734408970922232">
        <ele>9.53125</ele>
      </trkpt>
      <trkpt lat="41.294386172667146" lon="-8.734421795234084">
        <ele>9.66796875</ele>
      </trkpt>
      <trkpt lat="41.294440319761634" lon="-8.734429255127907">
        <ele>9.79296875</ele>
      </trkpt>
      <trkpt lat="41.294499412178993" lon="-8.734434787184">
        <ele>9.94140625</ele>
      </trkpt>
      <trkpt lat="41.294560767710209" lon="-8.734434787184">
        <ele>10.109375</ele>
      </trkpt>
      <trkpt lat="41.294617932289839" lon="-8.734433026984334">
        <ele>10.2734375</ele>
      </trkpt>
      <trkpt lat="41.294673588126898" lon="-8.734431266784668">
        <ele>10.43359375</ele>
      </trkpt>
      <trkpt lat="41.29473427310586" lon="-8.734418023377657">
        <ele>10.64453125</ele>
      </trkpt>
      <trkpt lat="41.294787162914872" lon="-8.734402097761631">
        <ele>10.84765625</ele>
      </trkpt>
      <trkpt lat="41.294839968904853" lon="-8.734386172145605">
        <ele>11.05078125</ele>
      </trkpt>
      <trkpt lat="41.294900570064783" lon="-8.734370330348611">
        <ele>11.18359375</ele>
      </trkpt>
      <trkpt lat="41.294966200366616" lon="-8.73435121960938">
        <ele>11.328125</ele>
      </trkpt>
      <trkpt lat="41.295018754899502" lon="-8.734333449974656">
        <ele>11.45703125</ele>
      </trkpt>
      <trkpt lat="41.295071477070451" lon="-8.734317608177662">
        <ele>11.578125</ele>
      </trkpt>
      <trkpt lat="41.295123361051083" lon="-8.734298832714558">
        <ele>11.70703125</ele>
      </trkpt>
      <trkpt lat="41.295177591964602" lon="-8.734275698661804">
        <ele>11.85546875</ele>
      </trkpt>
      <trkpt lat="41.295230314135551" lon="-8.73425742611289">
        <ele>11.984375</ele>
      </trkpt>
      <trkpt lat="41.295290077105165" lon="-8.734235884621739">
        <ele>12.1328125</ele>
      </trkpt>
      <trkpt lat="41.295343302190304" lon="-8.734215348958969">
        <ele>12.2734375</ele>
      </trkpt>
      <trkpt lat="41.295396108180285" lon="-8.734197076410055">
        <ele>12.40234375</ele>
      </trkpt>
      <trkpt lat="41.295452769845724" lon="-8.734171092510223">
        <ele>12.5625</ele>
      </trkpt>
      <trkpt lat="41.295502558350563" lon="-8.73413722962141">
        <ele>12.74609375</ele>
      </trkpt>
      <trkpt lat="41.295550167560577" lon="-8.734085848554969">
        <ele>12.98828125</ele>
      </trkpt>
      <trkpt lat="41.295601800084114" lon="-8.73403362929821">
        <ele>13.23828125</ele>
      </trkpt>
      <trkpt lat="41.295647900551558" lon="-8.733988702297211">
        <ele>13.453125</ele>
      </trkpt>
      <trkpt lat="41.295697269961238" lon="-8.733941596001387">
        <ele>13.70703125</ele>
      </trkpt>
      <trkpt lat="41.295746974647045" lon="-8.733895998448133">
        <ele>13.984375</ele>
      </trkpt>
      <trkpt lat="41.295795673504472" lon="-8.733862219378352">
        <ele>14.23046875</ele>
      </trkpt>
      <trkpt lat="41.295849401503801" lon="-8.73382743448019">
        <ele>14.453125</ele>
      </trkpt>
      <trkpt lat="41.295902375131845" lon="-8.733790973201394">
        <ele>14.63671875</ele>
      </trkpt>
      <trkpt lat="41.295950571075082" lon="-8.733750404790044">
        <ele>14.8203125</ele>
      </trkpt>
      <trkpt lat="41.295999772846699" lon="-8.733709249645472">
        <ele>15.015625</ele>
      </trkpt>
      <trkpt lat="41.296051656827331" lon="-8.733667507767677">
        <ele>15.22265625</ele>
      </trkpt>
      <trkpt lat="41.296098344027996" lon="-8.73362853191793">
        <ele>15.41796875</ele>
      </trkpt>
      <trkpt lat="41.296142265200615" lon="-8.733587041497231">
        <ele>15.61328125</ele>
      </trkpt>
      <trkpt lat="41.296190042048693" lon="-8.733560806140304">
        <ele>15.796875</ele>
      </trkpt>
      <trkpt lat="41.296222060918808" lon="-8.733552759513259">
        <ele>15.90234375</ele>
      </trkpt>
      <trkpt lat="41.296953298151493" lon="-8.733890131115913">
        <ele>15.7890625</ele>
      </trkpt>
      <trkpt lat="41.296953298151493" lon="-8.733891556039453">
        <ele>15.78125</ele>
      </trkpt>
      <trkpt lat="41.297477083280683" lon="-8.734100768342614">
        <ele>15.078125</ele>
      </trkpt>
      <trkpt lat="41.298021068796515" lon="-8.734297072514892">
        <ele>14.37109375</ele>
      </trkpt>
      <trkpt lat="41.29863353446126" lon="-8.734483821317554">
        <ele>13.015625</ele>
      </trkpt>
      <trkpt lat="41.299172239378095" lon="-8.734611226245761">
        <ele>11.9921875</ele>
      </trkpt>
      <trkpt lat="41.299910433590412" lon="-8.734803842380643">
        <ele>10.73828125</ele>
      </trkpt>
      <trkpt lat="41.299910433590412" lon="-8.734803926199675">
        <ele>10.73828125</ele>
      </trkpt>
      <trkpt lat="41.300375964492559" lon="-8.734908532351255">
        <ele>11.64453125</ele>
      </trkpt>
      <trkpt lat="41.300807716324925" lon="-8.735011797398329">
        <ele>12.6328125</ele>
      </trkpt>
      <trkpt lat="41.301178531721234" lon="-8.735129060223699">
        <ele>13.421875</ele>
      </trkpt>
      <trkpt lat="41.301658982411027" lon="-8.735291417688131">
        <ele>13.7890625</ele>
      </trkpt>
      <trkpt lat="41.302129123359919" lon="-8.735486129298806">
        <ele>13.08984375</ele>
      </trkpt>
      <trkpt lat="41.302563976496458" lon="-8.735708668828011">
        <ele>12.40625</ele>
      </trkpt>
      <trkpt lat="41.302563976496458" lon="-8.735710009932518">
        <ele>12.40234375</ele>
      </trkpt>
      <trkpt lat="41.302945269271731" lon="-8.735925927758217">
        <ele>10.54296875</ele>
      </trkpt>
      <trkpt lat="41.303174514323473" lon="-8.736106976866722">
        <ele>8.296875</ele>
      </trkpt>
      <trkpt lat="41.304111024364829" lon="-8.737085647881031">
        <ele>8.21875</ele>
      </trkpt>
      <trkpt lat="41.304357368499041" lon="-8.73733676970005">
        <ele>7.0390625</ele>
      </trkpt>
      <trkpt lat="41.304357368499041" lon="-8.737338110804558">
        <ele>7.03125</ele>
      </trkpt>
      <trkpt lat="41.304504219442606" lon="-8.737511532381177">
        <ele>5.98828125</ele>
      </trkpt>
      <trkpt lat="41.304550739005208" lon="-8.73755469918251">
        <ele>5.73046875</ele>
      </trkpt>
      <trkpt lat="41.304597090929747" lon="-8.737604152411222">
        <ele>5.43359375</ele>
      </trkpt>
      <trkpt lat="41.304646711796522" lon="-8.73764555901289">
        <ele>5.18359375</ele>
      </trkpt>
      <trkpt lat="41.304698511958122" lon="-8.737669782713056">
        <ele>5.0390625</ele>
      </trkpt>
      <trkpt lat="41.304752239957452" lon="-8.737690653651953">
        <ele>4.9140625</ele>
      </trkpt>
      <trkpt lat="41.304804123938084" lon="-8.73771395534277">
        <ele>4.7734375</ele>
      </trkpt>
      <trkpt lat="41.304852738976479" lon="-8.737747985869646">
        <ele>4.4921875</ele>
      </trkpt>
      <trkpt lat="41.304901773110032" lon="-8.737778328359127">
        <ele>4.1171875</ele>
      </trkpt>
      <trkpt lat="41.304953740909696" lon="-8.737805401906371">
        <ele>3.75390625</ele>
      </trkpt>
      <trkpt lat="41.305008307099342" lon="-8.737836079671979">
        <ele>3.3671875</ele>
      </trkpt>
      <trkpt lat="41.305061532184482" lon="-8.73785519041121">
        <ele>3.05078125</ele>
      </trkpt>
      <trkpt lat="41.30511567927897" lon="-8.737866673618555">
        <ele>2.78125</ele>
      </trkpt>
      <trkpt lat="41.305169239640236" lon="-8.737853094935417">
        <ele>2.65234375</ele>
      </trkpt>
      <trkpt lat="41.305221626535058" lon="-8.737860471010208">
        <ele>2.41015625</ele>
      </trkpt>
      <trkpt lat="41.305317096412182" lon="-8.737876145169139">
        <ele>1.96484375</ele>
      </trkpt>
      <trkpt lat="41.305332770571113" lon="-8.737880419939756">
        <ele>1.8828125</ele>
      </trkpt>
      <trkpt lat="41.305348863825202" lon="-8.737885616719723">
        <ele>1.79296875</ele>
      </trkpt>
      <trkpt lat="41.305367052555084" lon="-8.737891232594848">
        <ele>1.6953125</ele>
      </trkpt>
      <trkpt lat="41.305383397266269" lon="-8.737897016108036">
        <ele>1.60546875</ele>
      </trkpt>
      <trkpt lat="41.305398736149073" lon="-8.737904643639922">
        <ele>1.5078125</ele>
      </trkpt>
      <trkpt lat="41.305414326488972" lon="-8.737913360819221">
        <ele>1.40234375</ele>
      </trkpt>
      <trkpt lat="41.305430084466934" lon="-8.737921239808202">
        <ele>1.3046875</ele>
      </trkpt>
      <trkpt lat="41.305446429178119" lon="-8.737932723015547">
        <ele>1.18359375</ele>
      </trkpt>
      <trkpt lat="41.305464617908001" lon="-8.737945295870304">
        <ele>1.05078125</ele>
      </trkpt>
      <trkpt lat="41.305481214076281" lon="-8.737958958372474">
        <ele>0.921875</ele>
      </trkpt>
      <trkpt lat="41.305497391149402" lon="-8.737973878160119">
        <ele>0.78515625</ele>
      </trkpt>
      <trkpt lat="41.305514825507998" lon="-8.737985529005527">
        <ele>0.6640625</ele>
      </trkpt>
      <trkpt lat="41.3055320084095" lon="-8.73799491673708">
        <ele>0.5546875</ele>
      </trkpt>
      <trkpt lat="41.305548520758748" lon="-8.738004975020885">
        <ele>0.4453125</ele>
      </trkpt>
      <trkpt lat="41.305565368384123" lon="-8.738014278933406">
        <ele>0.359375</ele>
      </trkpt>
      <trkpt lat="41.305580623447895" lon="-8.738025091588497">
        <ele>0.30078125</ele>
      </trkpt>
      <trkpt lat="41.305596465244889" lon="-8.738034814596176">
        <ele>0.2421875</ele>
      </trkpt>
      <trkpt lat="41.305606020614505" lon="-8.738040346652269">
        <ele>0.20703125</ele>
      </trkpt>
      <trkpt lat="41.305764941498637" lon="-8.738148640841246">
        <ele>0.296875</ele>
      </trkpt>
      <trkpt lat="41.305894944816828" lon="-8.73823631554842">
        <ele>0.6015625</ele>
      </trkpt>
      <trkpt lat="41.305907517671585" lon="-8.738251151517034">
        <ele>0.6171875</ele>
      </trkpt>
      <trkpt lat="41.305924113839865" lon="-8.738266490399837">
        <ele>0.640625</ele>
      </trkpt>
      <trkpt lat="41.305943224579096" lon="-8.738277973607183">
        <ele>0.67578125</ele>
      </trkpt>
      <trkpt lat="41.305960826575756" lon="-8.738286020234227">
        <ele>0.70703125</ele>
      </trkpt>
      <trkpt lat="41.305983290076256" lon="-8.73829934746027">
        <ele>0.74609375</ele>
      </trkpt>
      <trkpt lat="41.305999467149377" lon="-8.738313177600503">
        <ele>0.76171875</ele>
      </trkpt>
      <trkpt lat="41.306014470756054" lon="-8.738328265026212">
        <ele>0.7734375</ele>
      </trkpt>
      <trkpt lat="41.306029222905636" lon="-8.738338071852922">
        <ele>0.79296875</ele>
      </trkpt>
      <trkpt lat="41.306046573445201" lon="-8.738348800688982">
        <ele>0.8125</ele>
      </trkpt>
      <trkpt lat="41.306063756346703" lon="-8.738357601687312">
        <ele>0.83203125</ele>
      </trkpt>
      <trkpt lat="41.306081106886268" lon="-8.738364055752754">
        <ele>0.859375</ele>
      </trkpt>
      <trkpt lat="41.306096110492945" lon="-8.738372353836894">
        <ele>0.875</ele>
      </trkpt>
      <trkpt lat="41.306110946461558" lon="-8.738380903378129">
        <ele>0.88671875</ele>
      </trkpt>
      <trkpt lat="41.306127123534679" lon="-8.738386854529381">
        <ele>0.90625</ele>
      </trkpt>
      <trkpt lat="41.306142713874578" lon="-8.738391799852252">
        <ele>0.9296875</ele>
      </trkpt>
      <trkpt lat="41.3061433006078" lon="-8.738392218947411">
        <ele>0.9296875</ele>
      </trkpt>
      <trkpt lat="41.306255031377077" lon="-8.73841367661953">
        <ele>1.08984375</ele>
      </trkpt>
      <trkpt lat="41.306271543726325" lon="-8.73841124586761">
        <ele>1.12890625</ele>
      </trkpt>
      <trkpt lat="41.30641495808959" lon="-8.738423567265272">
        <ele>1.35546875</ele>
      </trkpt>
      <trkpt lat="41.306562898680568" lon="-8.738436559215188">
        <ele>1.6875</ele>
      </trkpt>
      <trkpt lat="41.306591480970383" lon="-8.738442258909345">
        <ele>1.76953125</ele>
      </trkpt>
      <trkpt lat="41.306620398536325" lon="-8.738447371870279">
        <ele>1.8515625</ele>
      </trkpt>
      <trkpt lat="41.306651746854186" lon="-8.738451227545738">
        <ele>1.94921875</ele>
      </trkpt>
      <trkpt lat="41.306684101000428" lon="-8.738459357991815">
        <ele>2.02734375</ele>
      </trkpt>
      <trkpt lat="41.306714946404099" lon="-8.738468326628208">
        <ele>2.09765625</ele>
      </trkpt>
      <trkpt lat="41.306743947789073" lon="-8.738475786522031">
        <ele>2.16796875</ele>
      </trkpt>
      <trkpt lat="41.306770266965032" lon="-8.738483162596822">
        <ele>2.2265625</ele>
      </trkpt>
      <trkpt lat="41.306797843426466" lon="-8.738493723794818">
        <ele>2.2734375</ele>
      </trkpt>
      <trkpt lat="41.306825000792742" lon="-8.738502105697989">
        <ele>2.328125</ele>
      </trkpt>
      <trkpt lat="41.306853918358684" lon="-8.738513672724366">
        <ele>2.37109375</ele>
      </trkpt>
      <trkpt lat="41.306881662458181" lon="-8.738523982465267">
        <ele>2.41796875</ele>
      </trkpt>
      <trkpt lat="41.306908652186394" lon="-8.738529682159424">
        <ele>2.48046875</ele>
      </trkpt>
      <trkpt lat="41.30693731829524" lon="-8.738538315519691">
        <ele>2.53125</ele>
      </trkpt>
      <trkpt lat="41.306965565308928" lon="-8.738547703251243">
        <ele>2.578125</ele>
      </trkpt>
      <trkpt lat="41.306995404884219" lon="-8.738556504249573">
        <ele>2.62890625</ele>
      </trkpt>
      <trkpt lat="41.307022478431463" lon="-8.738566394895315">
        <ele>2.66796875</ele>
      </trkpt>
      <trkpt lat="41.30704871378839" lon="-8.738577123731375">
        <ele>2.6953125</ele>
      </trkpt>
      <trkpt lat="41.307075703516603" lon="-8.738588020205498">
        <ele>2.72265625</ele>
      </trkpt>
      <trkpt lat="41.307103782892227" lon="-8.738600090146065">
        <ele>2.74609375</ele>
      </trkpt>
      <trkpt lat="41.307131694629788" lon="-8.738612243905663">
        <ele>2.765625</ele>
      </trkpt>
      <trkpt lat="41.307160360738635" lon="-8.738622386008501">
        <ele>2.80078125</ele>
      </trkpt>
      <trkpt lat="41.307187350466847" lon="-8.738631438463926">
        <ele>2.83203125</ele>
      </trkpt>
      <trkpt lat="41.307219369336963" lon="-8.738640155643225">
        <ele>2.87890625</ele>
      </trkpt>
      <trkpt lat="41.307246442884207" lon="-8.73864677734673">
        <ele>2.921875</ele>
      </trkpt>
      <trkpt lat="41.307274354621768" lon="-8.738654488697648">
        <ele>2.95703125</ele>
      </trkpt>
      <trkpt lat="41.307305367663503" lon="-8.738662954419851">
        <ele>3</ele>
      </trkpt>
      <trkpt lat="41.307331770658493" lon="-8.738672425970435">
        <ele>3.01953125</ele>
      </trkpt>
      <trkpt lat="41.307362783700228" lon="-8.738684663549066">
        <ele>2.98828125</ele>
      </trkpt>
      <trkpt lat="41.307392455637455" lon="-8.738697152584791">
        <ele>2.95703125</ele>
      </trkpt>
      <trkpt lat="41.307421708479524" lon="-8.738706707954407">
        <ele>2.9375</ele>
      </trkpt>
      <trkpt lat="41.307450793683529" lon="-8.738717185333371">
        <ele>2.9140625</ele>
      </trkpt>
      <trkpt lat="41.307480549439788" lon="-8.73872741125524">
        <ele>2.890625</ele>
      </trkpt>
      <trkpt lat="41.307506617158651" lon="-8.738736966624856">
        <ele>2.8671875</ele>
      </trkpt>
      <trkpt lat="41.307534361258149" lon="-8.738746521994472">
        <ele>2.84375</ele>
      </trkpt>
      <trkpt lat="41.307562189176679" lon="-8.738757083192468">
        <ele>2.81640625</ele>
      </trkpt>
      <trkpt lat="41.307588759809732" lon="-8.738765632733703">
        <ele>2.796875</ele>
      </trkpt>
      <trkpt lat="41.307616336271167" lon="-8.738774014636874">
        <ele>2.77734375</ele>
      </trkpt>
      <trkpt lat="41.307642320170999" lon="-8.738783318549395">
        <ele>2.75390625</ele>
      </trkpt>
      <trkpt lat="41.307662855833769" lon="-8.738790862262249">
        <ele>2.73046875</ele>
      </trkpt>
      <trkpt lat="41.307756900787354" lon="-8.73882707208395">
        <ele>2.609375</ele>
      </trkpt>
      <trkpt lat="41.307787746191025" lon="-8.738838639110327">
        <ele>2.5703125</ele>
      </trkpt>
      <trkpt lat="41.307820016518235" lon="-8.738853558897972">
        <ele>2.55078125</ele>
      </trkpt>
      <trkpt lat="41.307846587151289" lon="-8.738864790648222">
        <ele>2.546875</ele>
      </trkpt>
      <trkpt lat="41.307872487232089" lon="-8.738876776769757">
        <ele>2.5390625</ele>
      </trkpt>
      <trkpt lat="41.307902410626411" lon="-8.738891612738371">
        <ele>2.52734375</ele>
      </trkpt>
      <trkpt lat="41.307932669296861" lon="-8.738902844488621">
        <ele>2.5234375</ele>
      </trkpt>
      <trkpt lat="41.307959910482168" lon="-8.738912232220173">
        <ele>2.5234375</ele>
      </trkpt>
      <trkpt lat="41.307987319305539" lon="-8.738923128694296">
        <ele>2.515625</ele>
      </trkpt>
      <trkpt lat="41.308013722300529" lon="-8.738935869187117">
        <ele>2.5</ele>
      </trkpt>
      <trkpt lat="41.308039538562298" lon="-8.73894483782351">
        <ele>2.5</ele>
      </trkpt>
      <trkpt lat="41.308065857738256" lon="-8.73895313590765">
        <ele>2.49609375</ele>
      </trkpt>
      <trkpt lat="41.308093518018723" lon="-8.738964032381773">
        <ele>2.48828125</ele>
      </trkpt>
      <trkpt lat="41.308119921013713" lon="-8.738975347951055">
        <ele>2.4765625</ele>
      </trkpt>
      <trkpt lat="41.308145737275481" lon="-8.738987585529685">
        <ele>2.45703125</ele>
      </trkpt>
      <trkpt lat="41.308174654841423" lon="-8.738996554166079">
        <ele>2.48828125</ele>
      </trkpt>
      <trkpt lat="41.308202482759953" lon="-8.739000493660569">
        <ele>2.59375</ele>
      </trkpt>
      <trkpt lat="41.308232909068465" lon="-8.739005355164409">
        <ele>2.70703125</ele>
      </trkpt>
      <trkpt lat="41.308261826634407" lon="-8.73901080340147">
        <ele>2.8125</ele>
      </trkpt>
      <trkpt lat="41.308291414752603" lon="-8.739016754552722">
        <ele>2.91796875</ele>
      </trkpt>
      <trkpt lat="41.308318488299847" lon="-8.739023124799132">
        <ele>3.0078125</ele>
      </trkpt>
      <trkpt lat="41.308344891294837" lon="-8.73903033323586">
        <ele>3.08984375</ele>
      </trkpt>
      <trkpt lat="41.308372551575303" lon="-8.739037290215492">
        <ele>3.1796875</ele>
      </trkpt>
      <trkpt lat="41.308400295674801" lon="-8.739039888605475">
        <ele>3.28515625</ele>
      </trkpt>
      <trkpt lat="41.308431727811694" lon="-8.739043492823839">
        <ele>3.40234375</ele>
      </trkpt>
      <trkpt lat="41.308461232110858" lon="-8.739051036536694">
        <ele>3.4921875</ele>
      </trkpt>
      <trkpt lat="41.308489311486483" lon="-8.739059753715992">
        <ele>3.5703125</ele>
      </trkpt>
      <trkpt lat="41.308518815785646" lon="-8.739067884162068">
        <ele>3.65625</ele>
      </trkpt>
      <trkpt lat="41.3085453864187" lon="-8.739074841141701">
        <ele>3.734375</ele>
      </trkpt>
      <trkpt lat="41.308572459965944" lon="-8.739084061235189">
        <ele>3.8046875</ele>
      </trkpt>
      <trkpt lat="41.30859668366611" lon="-8.739100238308311">
        <ele>3.82421875</ele>
      </trkpt>
      <trkpt lat="41.308614872395992" lon="-8.739130832254887">
        <ele>3.74609375</ele>
      </trkpt>
      <trkpt lat="41.30863088183105" lon="-8.739159917458892">
        <ele>3.66796875</ele>
      </trkpt>
      <trkpt lat="41.308651752769947" lon="-8.739186320453882">
        <ele>3.6171875</ele>
      </trkpt>
      <trkpt lat="41.308674803003669" lon="-8.739215405657887">
        <ele>3.55859375</ele>
      </trkpt>
      <trkpt lat="41.308699864894152" lon="-8.739239545539021">
        <ele>3.52734375</ele>
      </trkpt>
      <trkpt lat="41.308721657842398" lon="-8.739264523610473">
        <ele>3.4765625</ele>
      </trkpt>
      <trkpt lat="41.308746384456754" lon="-8.73928782530129">
        <ele>3.44140625</ele>
      </trkpt>
      <trkpt lat="41.3087716139853" lon="-8.739313306286931">
        <ele>3.39453125</ele>
      </trkpt>
      <trkpt lat="41.308793071657419" lon="-8.739338871091604">
        <ele>3.328125</ele>
      </trkpt>
      <trkpt lat="41.30881511606276" lon="-8.739364687353373">
        <ele>3.26171875</ele>
      </trkpt>
      <trkpt lat="41.308835819363594" lon="-8.739386983215809">
        <ele>3.20703125</ele>
      </trkpt>
      <trkpt lat="41.30886054597795" lon="-8.739410871639848">
        <ele>3.15234375</ele>
      </trkpt>
      <trkpt lat="41.308885021135211" lon="-8.739429814741015">
        <ele>3.12109375</ele>
      </trkpt>
      <trkpt lat="41.308892816305161" lon="-8.739434089511633">
        <ele>3.12109375</ele>
      </trkpt>
      <trkpt lat="41.309064393863082" lon="-8.739515896886587">
        <ele>3.03515625</ele>
      </trkpt>
      <trkpt lat="41.309188362210989" lon="-8.739571887999773">
        <ele>2.84765625</ele>
      </trkpt>
      <trkpt lat="41.309216190129519" lon="-8.739583790302277">
        <ele>2.80859375</ele>
      </trkpt>
      <trkpt lat="41.309243263676763" lon="-8.739594519138336">
        <ele>2.77734375</ele>
      </trkpt>
      <trkpt lat="41.309268241748214" lon="-8.739608014002442">
        <ele>2.7265625</ele>
      </trkpt>
      <trkpt lat="41.309294896200299" lon="-8.739623017609119">
        <ele>2.66796875</ele>
      </trkpt>
      <trkpt lat="41.309319119900465" lon="-8.739639781415462">
        <ele>2.59765625</ele>
      </trkpt>
      <trkpt lat="41.30934284068644" lon="-8.739659478887916">
        <ele>2.5078125</ele>
      </trkpt>
      <trkpt lat="41.309369746595621" lon="-8.739674985408783">
        <ele>2.4453125</ele>
      </trkpt>
      <trkpt lat="41.309396987780929" lon="-8.739686133340001">
        <ele>2.4453125</ele>
      </trkpt>
      <trkpt lat="41.309426575899124" lon="-8.739695437252522">
        <ele>2.453125</ele>
      </trkpt>
      <trkpt lat="41.309456080198288" lon="-8.73970122076571">
        <ele>2.46875</ele>
      </trkpt>
      <trkpt lat="41.309483572840691" lon="-8.739705244079232">
        <ele>2.48828125</ele>
      </trkpt>
      <trkpt lat="41.309511568397284" lon="-8.739709099754691">
        <ele>2.51171875</ele>
      </trkpt>
      <trkpt lat="41.309538641944528" lon="-8.739713877439499">
        <ele>2.52734375</ele>
      </trkpt>
      <trkpt lat="41.309566469863057" lon="-8.73972125351429">
        <ele>2.53515625</ele>
      </trkpt>
      <trkpt lat="41.30959689617157" lon="-8.739732066169381">
        <ele>2.53515625</ele>
      </trkpt>
      <trkpt lat="41.309622460976243" lon="-8.739745477214456">
        <ele>2.51953125</ele>
      </trkpt>
      <trkpt lat="41.309650624170899" lon="-8.739763330668211">
        <ele>2.48828125</ele>
      </trkpt>
      <trkpt lat="41.309677278622985" lon="-8.739782525226474">
        <ele>2.453125</ele>
      </trkpt>
      <trkpt lat="41.309702089056373" lon="-8.739801133051515">
        <ele>2.4140625</ele>
      </trkpt>
      <trkpt lat="41.309731425717473" lon="-8.739817813038826">
        <ele>2.38671875</ele>
      </trkpt>
      <trkpt lat="41.309758834540844" lon="-8.739831810817122">
        <ele>2.3671875</ele>
      </trkpt>
      <trkpt lat="41.30978599190712" lon="-8.739847987890244">
        <ele>2.3359375</ele>
      </trkpt>
      <trkpt lat="41.309815077111125" lon="-8.739864248782396">
        <ele>2.3046875</ele>
      </trkpt>
      <trkpt lat="41.30984173156321" lon="-8.739879755303264">
        <ele>2.2734375</ele>
      </trkpt>
      <trkpt lat="41.309869727119803" lon="-8.739894004538655">
        <ele>2.24609375</ele>
      </trkpt>
      <trkpt lat="41.309896297752857" lon="-8.739906158298254">
        <ele>2.22265625</ele>
      </trkpt>
      <trkpt lat="41.309924377128482" lon="-8.739916803315282">
        <ele>2.2109375</ele>
      </trkpt>
      <trkpt lat="41.309955473989248" lon="-8.739928705617785">
        <ele>2.19140625</ele>
      </trkpt>
      <trkpt lat="41.309985816478729" lon="-8.73994261957705">
        <ele>2.1640625</ele>
      </trkpt>
      <trkpt lat="41.31001515313983" lon="-8.739951839670539">
        <ele>2.15234375</ele>
      </trkpt>
      <trkpt lat="41.310046417638659" lon="-8.739957790821791">
        <ele>2.15234375</ele>
      </trkpt>
      <trkpt lat="41.310076676309109" lon="-8.739962400868535">
        <ele>2.16015625</ele>
      </trkpt>
      <trkpt lat="41.310105426236987" lon="-8.739965669810772">
        <ele>2.16796875</ele>
      </trkpt>
      <trkpt lat="41.310134259983897" lon="-8.739972040057182">
        <ele>2.1640625</ele>
      </trkpt>
      <trkpt lat="41.310167787596583" lon="-8.739982433617115">
        <ele>2.1484375</ele>
      </trkpt>
      <trkpt lat="41.310195866972208" lon="-8.739991988986731">
        <ele>2.12890625</ele>
      </trkpt>
      <trkpt lat="41.310224113985896" lon="-8.740002131089568">
        <ele>2.109375</ele>
      </trkpt>
      <trkpt lat="41.31025311537087" lon="-8.740013111382723">
        <ele>2.08203125</ele>
      </trkpt>
      <trkpt lat="41.310260826721787" lon="-8.740016045048833">
        <ele>2.078125</ele>
      </trkpt>
      <trkpt lat="41.310310112312436" lon="-8.740015039220452">
        <ele>2.1171875</ele>
      </trkpt>
      <trkpt lat="41.310336263850331" lon="-8.740024929866195">
        <ele>2.08984375</ele>
      </trkpt>
      <trkpt lat="41.310362499207258" lon="-8.740036580711603">
        <ele>2.05859375</ele>
      </trkpt>
      <trkpt lat="41.310387058183551" lon="-8.740051165223122">
        <ele>2.01171875</ele>
      </trkpt>
      <trkpt lat="41.310413125902414" lon="-8.740059798583388">
        <ele>1.9921875</ele>
      </trkpt>
      <trkpt lat="41.3104432169348" lon="-8.74005988240242">
        <ele>2.0078125</ele>
      </trkpt>
      <trkpt lat="41.31047205068171" lon="-8.74005988240242">
        <ele>2.02734375</ele>
      </trkpt>
      <trkpt lat="41.310499710962176" lon="-8.74005988240242">
        <ele>2.046875</ele>
      </trkpt>
      <trkpt lat="41.310530053451657" lon="-8.74005988240242">
        <ele>2.06640625</ele>
      </trkpt>
      <trkpt lat="41.310565508902073" lon="-8.740060804411769">
        <ele>2.0859375</ele>
      </trkpt>
      <trkpt lat="41.310594091191888" lon="-8.740065163001418">
        <ele>2.08203125</ele>
      </trkpt>
      <trkpt lat="41.310621332377195" lon="-8.740071533247828">
        <ele>2.0703125</ele>
      </trkpt>
      <trkpt lat="41.310656368732452" lon="-8.740077232941985">
        <ele>2.0625</ele>
      </trkpt>
      <trkpt lat="41.310684867203236" lon="-8.740077987313271">
        <ele>2.05078125</ele>
      </trkpt>
      <trkpt lat="41.31071487441659" lon="-8.740077987313271">
        <ele>2.03125</ele>
      </trkpt>
      <trkpt lat="41.310741947963834" lon="-8.740075472742319">
        <ele>2.02734375</ele>
      </trkpt>
      <trkpt lat="41.310772206634283" lon="-8.740066671743989">
        <ele>2.05078125</ele>
      </trkpt>
      <trkpt lat="41.310802381485701" lon="-8.740056864917278">
        <ele>2.07421875</ele>
      </trkpt>
      <trkpt lat="41.310828700661659" lon="-8.740044124424458">
        <ele>2.1171875</ele>
      </trkpt>
      <trkpt lat="41.310853594914079" lon="-8.740027947351336">
        <ele>2.171875</ele>
      </trkpt>
      <trkpt lat="41.310877148061991" lon="-8.740008166059852">
        <ele>2.24609375</ele>
      </trkpt>
      <trkpt lat="41.31090497598052" lon="-8.739991150796413">
        <ele>2.30078125</ele>
      </trkpt>
      <trkpt lat="41.310929115861654" lon="-8.739975308999419">
        <ele>2.3515625</ele>
      </trkpt>
      <trkpt lat="41.310953758656979" lon="-8.739958377555013">
        <ele>2.41015625</ele>
      </trkpt>
      <trkpt lat="41.31096264347434" lon="-8.739953432232141">
        <ele>2.421875</ele>
      </trkpt>
      <trkpt lat="41.311104129999876" lon="-8.739909511059523">
        <ele>2.4921875</ele>
      </trkpt>
      <trkpt lat="41.311132460832596" lon="-8.739906242117286">
        <ele>2.48046875</ele>
      </trkpt>
      <trkpt lat="41.311163725331426" lon="-8.739898027852178">
        <ele>2.48828125</ele>
      </trkpt>
      <trkpt lat="41.311193397268653" lon="-8.73989031650126">
        <ele>2.4921875</ele>
      </trkpt>
      <trkpt lat="41.311221309006214" lon="-8.739880844950676">
        <ele>2.5078125</ele>
      </trkpt>
      <trkpt lat="41.311249220743775" lon="-8.739873552694917">
        <ele>2.51171875</ele>
      </trkpt>
      <trkpt lat="41.311276294291019" lon="-8.739865589886904">
        <ele>2.515625</ele>
      </trkpt>
      <trkpt lat="41.311302781105042" lon="-8.739858046174049">
        <ele>2.51953125</ele>
      </trkpt>
      <trkpt lat="41.311331950128078" lon="-8.739848658442497">
        <ele>2.53125</ele>
      </trkpt>
      <trkpt lat="41.311359778046608" lon="-8.739836839959025">
        <ele>2.546875</ele>
      </trkpt>
      <trkpt lat="41.31138970144093" lon="-8.739823177456856">
        <ele>2.5703125</ele>
      </trkpt>
      <trkpt lat="41.311415350064635" lon="-8.739812364801764">
        <ele>2.5859375</ele>
      </trkpt>
      <trkpt lat="41.311444267630577" lon="-8.739795014262199">
        <ele>2.62109375</ele>
      </trkpt>
      <trkpt lat="41.311468156054616" lon="-8.739775400608778">
        <ele>2.66796875</ele>
      </trkpt>
      <trkpt lat="41.311492463573813" lon="-8.739757714793086">
        <ele>2.70703125</ele>
      </trkpt>
      <trkpt lat="41.31151526235044" lon="-8.739737682044506">
        <ele>2.75390625</ele>
      </trkpt>
      <trkpt lat="41.311539653688669" lon="-8.739719074219465">
        <ele>2.79296875</ele>
      </trkpt>
      <trkpt lat="41.311567146331072" lon="-8.739703400060534">
        <ele>2.81640625</ele>
      </trkpt>
      <trkpt lat="41.311592711135745" lon="-8.739690072834492">
        <ele>2.83203125</ele>
      </trkpt>
      <trkpt lat="41.311619197949767" lon="-8.7396792601794">
        <ele>2.8359375</ele>
      </trkpt>
      <trkpt lat="41.311646187677979" lon="-8.739668782800436">
        <ele>2.8515625</ele>
      </trkpt>
      <trkpt lat="41.311672842130065" lon="-8.73966115526855">
        <ele>2.859375</ele>
      </trkpt>
      <trkpt lat="41.311699831858277" lon="-8.739653192460537">
        <ele>2.8671875</ele>
      </trkpt>
      <trkpt lat="41.311727156862617" lon="-8.739645397290587">
        <ele>2.875</ele>
      </trkpt>
      <trkpt lat="41.311755152419209" lon="-8.739638440310955">
        <ele>2.87890625</ele>
      </trkpt>
      <trkpt lat="41.311782896518707" lon="-8.739630058407784">
        <ele>2.890625</ele>
      </trkpt>
      <trkpt lat="41.311810556799173" lon="-8.739624442532659">
        <ele>2.88671875</ele>
      </trkpt>
      <trkpt lat="41.311838971450925" lon="-8.739622011780739">
        <ele>2.8671875</ele>
      </trkpt>
      <trkpt lat="41.311843581497669" lon="-8.739622011780739">
        <ele>2.86328125</ele>
      </trkpt>
      <trkpt lat="41.312590409070253" lon="-8.739620670676231">
        <ele>2.62109375</ele>
      </trkpt>
      <trkpt lat="41.312590409070253" lon="-8.739620000123978">
        <ele>2.625</ele>
      </trkpt>
      <trkpt lat="41.31268453784287" lon="-8.739612624049187">
        <ele>2.76953125</ele>
      </trkpt>
      <trkpt lat="41.312713623046875" lon="-8.739602146670222">
        <ele>2.859375</ele>
      </trkpt>
      <trkpt lat="41.312740528956056" lon="-8.739598207175732">
        <ele>2.91015625</ele>
      </trkpt>
      <trkpt lat="41.312769111245871" lon="-8.739598207175732">
        <ele>2.94140625</ele>
      </trkpt>
      <trkpt lat="41.312796855345368" lon="-8.739598207175732">
        <ele>2.97265625</ele>
      </trkpt>
      <trkpt lat="41.312801213935018" lon="-8.739598793908954">
        <ele>2.97265625</ele>
      </trkpt>
      <trkpt lat="41.313059292733669" lon="-8.739605331793427">
        <ele>3.22265625</ele>
      </trkpt>
      <trkpt lat="41.313244868069887" lon="-8.739590998739004">
        <ele>3.40234375</ele>
      </trkpt>
      <trkpt lat="41.313433377072215" lon="-8.739602481946349">
        <ele>3.34765625</ele>
      </trkpt>
      <trkpt lat="41.313433796167374" lon="-8.739602481946349">
        <ele>3.34765625</ele>
      </trkpt>
      <trkpt lat="41.313896477222443" lon="-8.739596446976066">
        <ele>3.37890625</ele>
      </trkpt>
      <trkpt lat="41.313896477222443" lon="-8.739596446976066">
        <ele>3.37890625</ele>
      </trkpt>
      <trkpt lat="41.314123962074518" lon="-8.739588232710958">
        <ele>3.26171875</ele>
      </trkpt>
      <trkpt lat="41.314125303179026" lon="-8.739587562158704">
        <ele>3.26171875</ele>
      </trkpt>
      <trkpt lat="41.314305011183023" lon="-8.739587226882577">
        <ele>3.046875</ele>
      </trkpt>
      <trkpt lat="41.314338454976678" lon="-8.739586640149355">
        <ele>3.01171875</ele>
      </trkpt>
      <trkpt lat="41.314366031438112" lon="-8.739586640149355">
        <ele>2.9765625</ele>
      </trkpt>
      <trkpt lat="41.314393607899547" lon="-8.739589154720306">
        <ele>2.93359375</ele>
      </trkpt>
      <trkpt lat="41.314426967874169" lon="-8.73959032818675">
        <ele>2.88671875</ele>
      </trkpt>
      <trkpt lat="41.314454628154635" lon="-8.739592423662543">
        <ele>2.84375</ele>
      </trkpt>
      <trkpt lat="41.314481869339943" lon="-8.739589909091592">
        <ele>2.82421875</ele>
      </trkpt>
      <trkpt lat="41.314510870724916" lon="-8.73958638869226">
        <ele>2.8046875</ele>
      </trkpt>
      <trkpt lat="41.314541297033429" lon="-8.739582868292928">
        <ele>2.78515625</ele>
      </trkpt>
      <trkpt lat="41.31457163952291" lon="-8.739582868292928">
        <ele>2.75</ele>
      </trkpt>
      <trkpt lat="41.31460047326982" lon="-8.739583874121308">
        <ele>2.7109375</ele>
      </trkpt>
      <trkpt lat="41.314630480483174" lon="-8.739584796130657">
        <ele>2.66796875</ele>
      </trkpt>
      <trkpt lat="41.314659230411053" lon="-8.739584796130657">
        <ele>2.63671875</ele>
      </trkpt>
      <trkpt lat="41.314687896519899" lon="-8.739584796130657">
        <ele>2.6015625</ele>
      </trkpt>
      <trkpt lat="41.314716478809714" lon="-8.739585550501943">
        <ele>2.5625</ele>
      </trkpt>
      <trkpt lat="41.314747743308544" lon="-8.739583622664213">
        <ele>2.53515625</ele>
      </trkpt>
      <trkpt lat="41.314774649217725" lon="-8.739578425884247">
        <ele>2.52734375</ele>
      </trkpt>
      <trkpt lat="41.314801890403032" lon="-8.739571217447519">
        <ele>2.52734375</ele>
      </trkpt>
      <trkpt lat="41.314832400530577" lon="-8.739564511924982">
        <ele>2.53125</ele>
      </trkpt>
      <trkpt lat="41.314862994477153" lon="-8.739556800574064">
        <ele>2.5625</ele>
      </trkpt>
      <trkpt lat="41.314896857365966" lon="-8.739543054252863">
        <ele>2.62109375</ele>
      </trkpt>
      <trkpt lat="41.314922589808702" lon="-8.739529140293598">
        <ele>2.6796875</ele>
      </trkpt>
      <trkpt lat="41.31494740024209" lon="-8.739512460306287">
        <ele>2.75390625</ele>
      </trkpt>
      <trkpt lat="41.314974389970303" lon="-8.739491337910295">
        <ele>2.84375</ele>
      </trkpt>
      <trkpt lat="41.31500163115561" lon="-8.739475831389427">
        <ele>2.90625</ele>
      </trkpt>
      <trkpt lat="41.315026273950934" lon="-8.739459067583084">
        <ele>2.9765625</ele>
      </trkpt>
      <trkpt lat="41.315052174031734" lon="-8.739440962672234">
        <ele>3.046875</ele>
      </trkpt>
      <trkpt lat="41.315069692209363" lon="-8.739412380382419">
        <ele>3.16796875</ele>
      </trkpt>
      <trkpt lat="41.315079918131232" lon="-8.739379188045859">
        <ele>3.3125</ele>
      </trkpt>
      <trkpt lat="41.315091736614704" lon="-8.73934649862349">
        <ele>3.453125</ele>
      </trkpt>
      <trkpt lat="41.315107997506857" lon="-8.739315820857882">
        <ele>3.578125</ele>
      </trkpt>
      <trkpt lat="41.315119229257107" lon="-8.739294530823827">
        <ele>3.66796875</ele>
      </trkpt>
      <trkpt lat="41.315185530111194" lon="-8.739218004047871">
        <ele>3.95703125</ele>
      </trkpt>
      <trkpt lat="41.31521319039166" lon="-8.739199228584766">
        <ele>4.01953125</ele>
      </trkpt>
      <trkpt lat="41.315237917006016" lon="-8.739179279655218">
        <ele>4.0859375</ele>
      </trkpt>
      <trkpt lat="41.315264571458101" lon="-8.739161258563399">
        <ele>4.14453125</ele>
      </trkpt>
      <trkpt lat="41.315288878977299" lon="-8.739143991842866">
        <ele>4.1953125</ele>
      </trkpt>
      <trkpt lat="41.315315617248416" lon="-8.739116750657558">
        <ele>4.2890625</ele>
      </trkpt>
      <trkpt lat="41.315339673310518" lon="-8.739094203338027">
        <ele>4.359375</ele>
      </trkpt>
      <trkpt lat="41.315363561734557" lon="-8.739069811999798">
        <ele>4.4375</ele>
      </trkpt>
      <trkpt lat="41.315387114882469" lon="-8.739047097042203">
        <ele>4.5078125</ele>
      </trkpt>
      <trkpt lat="41.31541159003973" lon="-8.739026477560401">
        <ele>4.56640625</ele>
      </trkpt>
      <trkpt lat="41.315436651930213" lon="-8.739008121192455">
        <ele>4.6171875</ele>
      </trkpt>
      <trkpt lat="41.315464479848742" lon="-8.738989094272256">
        <ele>4.6640625</ele>
      </trkpt>
      <trkpt lat="41.315490715205669" lon="-8.738977191969752">
        <ele>4.68359375</ele>
      </trkpt>
      <trkpt lat="41.315518375486135" lon="-8.738966463133693">
        <ele>4.6953125</ele>
      </trkpt>
      <trkpt lat="41.315545532852411" lon="-8.738958751782775">
        <ele>4.69921875</ele>
      </trkpt>
      <trkpt lat="41.315573025494814" lon="-8.738958751782775">
        <ele>4.66796875</ele>
      </trkpt>
      <trkpt lat="41.315601859241724" lon="-8.738963278010488">
        <ele>4.625</ele>
      </trkpt>
      <trkpt lat="41.315629268065095" lon="-8.738965876400471">
        <ele>4.5859375</ele>
      </trkpt>
      <trkpt lat="41.315657515078783" lon="-8.738967636600137">
        <ele>4.55078125</ele>
      </trkpt>
      <trkpt lat="41.315685426816344" lon="-8.738967636600137">
        <ele>4.5234375</ele>
      </trkpt>
      <trkpt lat="41.315715350210667" lon="-8.73896679840982">
        <ele>4.49609375</ele>
      </trkpt>
      <trkpt lat="41.315744938328862" lon="-8.73896679840982">
        <ele>4.46484375</ele>
      </trkpt>
      <trkpt lat="41.315772011876106" lon="-8.73896679840982">
        <ele>4.4375</ele>
      </trkpt>
      <trkpt lat="41.315788524225354" lon="-8.73896679840982">
        <ele>4.41796875</ele>
      </trkpt>
      <trkpt lat="41.315997820347548" lon="-8.738972917199135">
        <ele>4.1875</ele>
      </trkpt>
      <trkpt lat="41.315999664366245" lon="-8.738972246646881">
        <ele>4.1875</ele>
      </trkpt>
      <trkpt lat="41.31622564047575" lon="-8.73895900323987">
        <ele>3.99609375</ele>
      </trkpt>
      <trkpt lat="41.316434098407626" lon="-8.738958332687616">
        <ele>3.78125</ele>
      </trkpt>
      <trkpt lat="41.316472236067057" lon="-8.738962272182107">
        <ele>3.734375</ele>
      </trkpt>
      <trkpt lat="41.316514816135168" lon="-8.738970067352057">
        <ele>3.64453125</ele>
      </trkpt>
      <trkpt lat="41.316552786156535" lon="-8.738977275788784">
        <ele>3.54296875</ele>
      </trkpt>
      <trkpt lat="41.316593354567885" lon="-8.73897953890264">
        <ele>3.44921875</ele>
      </trkpt>
      <trkpt lat="41.316636856645346" lon="-8.738981885835528">
        <ele>3.34765625</ele>
      </trkpt>
      <trkpt lat="41.316675581037998" lon="-8.738985322415829">
        <ele>3.25390625</ele>
      </trkpt>
      <trkpt lat="41.316715395078063" lon="-8.738987753167748">
        <ele>3.1640625</ele>
      </trkpt>
      <trkpt lat="41.316753616556525" lon="-8.738989010453224">
        <ele>3.078125</ele>
      </trkpt>
      <trkpt lat="41.316791418939829" lon="-8.738990183919668">
        <ele>2.9921875</ele>
      </trkpt>
      <trkpt lat="41.316829640418291" lon="-8.73899269849062">
        <ele>2.90234375</ele>
      </trkpt>
      <trkpt lat="41.316871047019958" lon="-8.738993955776095">
        <ele>2.80859375</ele>
      </trkpt>
      <trkpt lat="41.316908933222294" lon="-8.738995213061571">
        <ele>2.7265625</ele>
      </trkpt>
      <trkpt lat="41.31694732233882" lon="-8.73898440040648">
        <ele>2.66015625</ele>
      </trkpt>
      <trkpt lat="41.316989902406931" lon="-8.738976269960403">
        <ele>2.58203125</ele>
      </trkpt>
      <trkpt lat="41.317027872428298" lon="-8.738971073180437">
        <ele>2.50390625</ele>
      </trkpt>
      <trkpt lat="41.317073637619615" lon="-8.738962020725012">
        <ele>2.41796875</ele>
      </trkpt>
      <trkpt lat="41.317112948745489" lon="-8.738952297717333">
        <ele>2.34375</ele>
      </trkpt>
      <trkpt lat="41.317149996757507" lon="-8.738940814509988">
        <ele>2.27734375</ele>
      </trkpt>
      <trkpt lat="41.317188050597906" lon="-8.738931007683277">
        <ele>2.20703125</ele>
      </trkpt>
      <trkpt lat="41.317226104438305" lon="-8.738921033218503">
        <ele>2.1328125</ele>
      </trkpt>
      <trkpt lat="41.317264074459672" lon="-8.73891357332468">
        <ele>2.0546875</ele>
      </trkpt>
      <trkpt lat="41.317306654527783" lon="-8.738912483677268">
        <ele>1.9609375</ele>
      </trkpt>
      <trkpt lat="41.317345881834626" lon="-8.738912483677268">
        <ele>1.94140625</ele>
      </trkpt>
      <trkpt lat="41.317389383912086" lon="-8.738911142572761">
        <ele>1.9921875</ele>
      </trkpt>
      <trkpt lat="41.317428611218929" lon="-8.738912399858236">
        <ele>2.0390625</ele>
      </trkpt>
      <trkpt lat="41.317466413602233" lon="-8.738923715427518">
        <ele>2.0703125</ele>
      </trkpt>
      <trkpt lat="41.317504299804568" lon="-8.738933438435197">
        <ele>2.10546875</ele>
      </trkpt>
      <trkpt lat="41.317544784396887" lon="-8.738943412899971">
        <ele>2.140625</ele>
      </trkpt>
      <trkpt lat="41.317570935934782" lon="-8.738945592194796">
        <ele>2.171875</ele>
      </trkpt>
      <trkpt lat="41.317663639783859" lon="-8.738937210291624">
        <ele>2.29296875</ele>
      </trkpt>
      <trkpt lat="41.317704375833273" lon="-8.738940730690956">
        <ele>2.3359375</ele>
      </trkpt>
      <trkpt lat="41.317749302834272" lon="-8.738943496719003">
        <ele>2.38671875</ele>
      </trkpt>
      <trkpt lat="41.317788446322083" lon="-8.738944921642542">
        <ele>2.43359375</ele>
      </trkpt>
      <trkpt lat="41.317826500162482" lon="-8.738944921642542">
        <ele>2.4765625</ele>
      </trkpt>
      <trkpt lat="41.31786840967834" lon="-8.73894969932735">
        <ele>2.5234375</ele>
      </trkpt>
      <trkpt lat="41.317906379699707" lon="-8.73895606957376">
        <ele>2.55859375</ele>
      </trkpt>
      <trkpt lat="41.317944349721074" lon="-8.73896243982017">
        <ele>2.59765625</ele>
      </trkpt>
      <trkpt lat="41.31798324175179" lon="-8.738965038210154">
        <ele>2.640625</ele>
      </trkpt>
      <trkpt lat="41.318021127954125" lon="-8.738967636600137">
        <ele>2.68359375</ele>
      </trkpt>
      <trkpt lat="41.318062283098698" lon="-8.738968893885612">
        <ele>2.73046875</ele>
      </trkpt>
      <trkpt lat="41.318102600052953" lon="-8.738966546952724">
        <ele>2.78515625</ele>
      </trkpt>
      <trkpt lat="41.318143168464303" lon="-8.738962020725012">
        <ele>2.8359375</ele>
      </trkpt>
      <trkpt lat="41.318185497075319" lon="-8.738952297717333">
        <ele>2.8671875</ele>
      </trkpt>
      <trkpt lat="41.318223383277655" lon="-8.738938551396132">
        <ele>2.8828125</ele>
      </trkpt>
      <trkpt lat="41.318263532593846" lon="-8.738921955227852">
        <ele>2.90234375</ele>
      </trkpt>
      <trkpt lat="41.318301083520055" lon="-8.738906448706985">
        <ele>2.921875</ele>
      </trkpt>
      <trkpt lat="41.318338047713041" lon="-8.738894797861576">
        <ele>2.9375</ele>
      </trkpt>
      <trkpt lat="41.318377023562789" lon="-8.73888473957777">
        <ele>2.94921875</ele>
      </trkpt>
      <trkpt lat="41.318415999412537" lon="-8.738874681293964">
        <ele>2.9609375</ele>
      </trkpt>
      <trkpt lat="41.318453885614872" lon="-8.738869735971093">
        <ele>2.96875</ele>
      </trkpt>
      <trkpt lat="41.318494034931064" lon="-8.738863365724683">
        <ele>2.97265625</ele>
      </trkpt>
      <trkpt lat="41.318538626655936" lon="-8.738854313269258">
        <ele>2.984375</ele>
      </trkpt>
      <trkpt lat="41.318579781800508" lon="-8.738841488957405">
        <ele>3</ele>
      </trkpt>
      <trkpt lat="41.318617248907685" lon="-8.73883050866425">
        <ele>3</ele>
      </trkpt>
      <trkpt lat="41.318655051290989" lon="-8.738819360733032">
        <ele>3</ele>
      </trkpt>
      <trkpt lat="41.318696541711688" lon="-8.738806871697307">
        <ele>3</ele>
      </trkpt>
      <trkpt lat="41.318739959970117" lon="-8.738793209195137">
        <ele>3</ele>
      </trkpt>
      <trkpt lat="41.318778852000833" lon="-8.738781977444887">
        <ele>3</ele>
      </trkpt>
      <trkpt lat="41.318815732374787" lon="-8.738769488409162">
        <ele>3</ele>
      </trkpt>
      <trkpt lat="41.318853702396154" lon="-8.738758256658912">
        <ele>3</ele>
      </trkpt>
      <trkpt lat="41.318896617740393" lon="-8.73874744400382">
        <ele>3</ele>
      </trkpt>
      <trkpt lat="41.318936934694648" lon="-8.738742666319013">
        <ele>3</ele>
      </trkpt>
      <trkpt lat="41.318982532247901" lon="-8.738738894462585">
        <ele>3</ele>
      </trkpt>
      <trkpt lat="41.319023855030537" lon="-8.738736463710666">
        <ele>2.97265625</ele>
      </trkpt>
      <trkpt lat="41.319066938012838" lon="-8.738736463710666">
        <ele>2.93359375</ele>
      </trkpt>
      <trkpt lat="41.319104991853237" lon="-8.738736463710666">
        <ele>2.8984375</ele>
      </trkpt>
      <trkpt lat="41.31914371624589" lon="-8.738737553358078">
        <ele>2.86328125</ele>
      </trkpt>
      <trkpt lat="41.319187134504318" lon="-8.738735290244222">
        <ele>2.82421875</ele>
      </trkpt>
      <trkpt lat="41.319220494478941" lon="-8.738723723217845">
        <ele>2.8046875</ele>
      </trkpt>
      <trkpt lat="41.319454265758395" lon="-8.738689608871937">
        <ele>2.6484375</ele>
      </trkpt>
      <trkpt lat="41.319495588541031" lon="-8.738687513396144">
        <ele>2.62109375</ele>
      </trkpt>
      <trkpt lat="41.319536073133349" lon="-8.738680137321353">
        <ele>2.6015625</ele>
      </trkpt>
      <trkpt lat="41.319575887173414" lon="-8.738675443455577">
        <ele>2.578125</ele>
      </trkpt>
      <trkpt lat="41.31961771287024" lon="-8.738670665770769">
        <ele>2.55859375</ele>
      </trkpt>
      <trkpt lat="41.319656101986766" lon="-8.738666977733374">
        <ele>2.5390625</ele>
      </trkpt>
      <trkpt lat="41.319694994017482" lon="-8.738663541153073">
        <ele>2.515625</ele>
      </trkpt>
      <trkpt lat="41.319739250466228" lon="-8.738657338544726">
        <ele>2.5</ele>
      </trkpt>
      <trkpt lat="41.319779483601451" lon="-8.738645268604159">
        <ele>2.5</ele>
      </trkpt>
      <trkpt lat="41.319820554926991" lon="-8.738635126501322">
        <ele>2.5</ele>
      </trkpt>
      <trkpt lat="41.31986053660512" lon="-8.738622134551406">
        <ele>2.55859375</ele>
      </trkpt>
      <trkpt lat="41.31990060210228" lon="-8.738609394058585">
        <ele>2.625</ele>
      </trkpt>
      <trkpt lat="41.319939410313964" lon="-8.738592797890306">
        <ele>2.6953125</ele>
      </trkpt>
      <trkpt lat="41.319977128878236" lon="-8.738569915294647">
        <ele>2.77734375</ele>
      </trkpt>
      <trkpt lat="41.320011578500271" lon="-8.738546026870608">
        <ele>2.85546875</ele>
      </trkpt>
      <trkpt lat="41.320050554350019" lon="-8.738525658845901">
        <ele>2.9296875</ele>
      </trkpt>
      <trkpt lat="41.32008827291429" lon="-8.738515768200159">
        <ele>2.9765625</ele>
      </trkpt>
      <trkpt lat="41.320131104439497" lon="-8.738509062677622">
        <ele>3.01953125</ele>
      </trkpt>
      <trkpt lat="41.320169996470213" lon="-8.738505374640226">
        <ele>3.0546875</ele>
      </trkpt>
      <trkpt lat="41.320211905986071" lon="-8.738504117354751">
        <ele>3.08984375</ele>
      </trkpt>
      <trkpt lat="41.320252809673548" lon="-8.738504117354751">
        <ele>3.1171875</ele>
      </trkpt>
      <trkpt lat="41.320291282609105" lon="-8.738507553935051">
        <ele>3.140625</ele>
      </trkpt>
      <trkpt lat="41.320331934839487" lon="-8.738515432924032">
        <ele>3.15625</ele>
      </trkpt>
      <trkpt lat="41.32037065923214" lon="-8.738525994122028">
        <ele>3.16796875</ele>
      </trkpt>
      <trkpt lat="41.320412484928966" lon="-8.738533286377788">
        <ele>3.1875</ele>
      </trkpt>
      <trkpt lat="41.320457076653838" lon="-8.738543596118689">
        <ele>3.203125</ele>
      </trkpt>
      <trkpt lat="41.32049965672195" lon="-8.73855491168797">
        <ele>3.22265625</ele>
      </trkpt>
      <trkpt lat="41.32054072804749" lon="-8.738566562533379">
        <ele>3.23828125</ele>
      </trkpt>
      <trkpt lat="41.320580709725618" lon="-8.73857687227428">
        <ele>3.2578125</ele>
      </trkpt>
      <trkpt lat="41.320623122155666" lon="-8.738586260005832">
        <ele>3.27734375</ele>
      </trkpt>
      <trkpt lat="41.320661762729287" lon="-8.738596066832542">
        <ele>3.30078125</ele>
      </trkpt>
      <trkpt lat="41.320704342797399" lon="-8.738602939993143">
        <ele>3.34375</ele>
      </trkpt>
      <trkpt lat="41.320746671408415" lon="-8.738606879487634">
        <ele>3.390625</ele>
      </trkpt>
      <trkpt lat="41.320788497105241" lon="-8.738608136773109">
        <ele>3.4375</ele>
      </trkpt>
      <trkpt lat="41.320826467126608" lon="-8.738609477877617">
        <ele>3.484375</ele>
      </trkpt>
      <trkpt lat="41.320866364985704" lon="-8.738603610545397">
        <ele>3.5390625</ele>
      </trkpt>
      <trkpt lat="41.320903077721596" lon="-8.738588858395815">
        <ele>3.6015625</ele>
      </trkpt>
      <trkpt lat="41.320939371362329" lon="-8.738564047962427">
        <ele>3.671875</ele>
      </trkpt>
      <trkpt lat="41.320963343605399" lon="-8.738551223650575">
        <ele>3.71875</ele>
      </trkpt>
      <trkpt lat="41.321285460144281" lon="-8.738446701318026">
        <ele>4.23046875</ele>
      </trkpt>
      <trkpt lat="41.321288896724582" lon="-8.738444522023201">
        <ele>4.234375</ele>
      </trkpt>
      <trkpt lat="41.321559213101864" lon="-8.738367492333055">
        <ele>4.5234375</ele>
      </trkpt>
      <trkpt lat="41.321788374334574" lon="-8.738335473462939">
        <ele>4.390625</ele>
      </trkpt>
      <trkpt lat="41.321827434003353" lon="-8.738336730748415">
        <ele>4.359375</ele>
      </trkpt>
      <trkpt lat="41.321872361004353" lon="-8.738338155671954">
        <ele>4.328125</ele>
      </trkpt>
      <trkpt lat="41.321911504492164" lon="-8.738339580595493">
        <ele>4.296875</ele>
      </trkpt>
      <trkpt lat="41.321952575817704" lon="-8.738340921700001">
        <ele>4.265625</ele>
      </trkpt>
      <trkpt lat="41.321992892771959" lon="-8.738338490948081">
        <ele>4.23828125</ele>
      </trkpt>
      <trkpt lat="41.322030695155263" lon="-8.738334802910686">
        <ele>4.21484375</ele>
      </trkpt>
      <trkpt lat="41.322077047079802" lon="-8.738330695778131">
        <ele>4.1796875</ele>
      </trkpt>
      <trkpt lat="41.322119543328881" lon="-8.738327929750085">
        <ele>4.15234375</ele>
      </trkpt>
      <trkpt lat="41.322166146710515" lon="-8.738326504826546">
        <ele>4.1171875</ele>
      </trkpt>
      <trkpt lat="41.322204619646072" lon="-8.738325163722038">
        <ele>4.08984375</ele>
      </trkpt>
      <trkpt lat="41.322245942428708" lon="-8.738321391865611">
        <ele>4.05859375</ele>
      </trkpt>
      <trkpt lat="41.322288522496819" lon="-8.738316697999835">
        <ele>4.02734375</ele>
      </trkpt>
      <trkpt lat="41.322326576337218" lon="-8.738309238106012">
        <ele>4</ele>
      </trkpt>
      <trkpt lat="41.322364211082458" lon="-8.738300101831555">
        <ele>4</ele>
      </trkpt>
      <trkpt lat="41.32240679115057" lon="-8.738291971385479">
        <ele>4</ele>
      </trkpt>
      <trkpt lat="41.322444006800652" lon="-8.738279733806849">
        <ele>4</ele>
      </trkpt>
      <trkpt lat="41.322451131418347" lon="-8.738276967778802">
        <ele>4</ele>
      </trkpt>
      <trkpt lat="41.322717675939202" lon="-8.738202201202512">
        <ele>4</ele>
      </trkpt>
      <trkpt lat="41.322762602940202" lon="-8.738201782107353">
        <ele>4</ele>
      </trkpt>
      <trkpt lat="41.322807697579265" lon="-8.738200357183814">
        <ele>4</ele>
      </trkpt>
      <trkpt lat="41.322847846895456" lon="-8.738197758793831">
        <ele>4</ele>
      </trkpt>
      <trkpt lat="41.322885733097792" lon="-8.738195244222879">
        <ele>4</ele>
      </trkpt>
      <trkpt lat="41.322933258488774" lon="-8.738193903118372">
        <ele>4</ele>
      </trkpt>
      <trkpt lat="41.322974748909473" lon="-8.738191137090325">
        <ele>4</ele>
      </trkpt>
      <trkpt lat="41.323005091398954" lon="-8.738188957795501">
        <ele>4</ele>
      </trkpt>
      <trkpt lat="41.323219249024987" lon="-8.738171355798841">
        <ele>4</ele>
      </trkpt>
      <trkpt lat="41.32326384074986" lon="-8.738172445446253">
        <ele>4</ele>
      </trkpt>
      <trkpt lat="41.323303319513798" lon="-8.738174038007855">
        <ele>4</ele>
      </trkpt>
      <trkpt lat="41.323333913460374" lon="-8.738149646669626">
        <ele>4</ele>
      </trkpt>
      <trkpt lat="41.323364172130823" lon="-8.738111844286323">
        <ele>4</ele>
      </trkpt>
      <trkpt lat="41.323390658944845" lon="-8.738074880093336">
        <ele>4</ele>
      </trkpt>
      <trkpt lat="41.323416978120804" lon="-8.738037161529064">
        <ele>4</ele>
      </trkpt>
      <trkpt lat="41.323446482419968" lon="-8.737999862059951">
        <ele>4</ele>
      </trkpt>
      <trkpt lat="41.323479088023305" lon="-8.737969771027565">
        <ele>4</ele>
      </trkpt>
      <trkpt lat="41.323511274531484" lon="-8.737939847633243">
        <ele>4</ele>
      </trkpt>
      <trkpt lat="41.32354480214417" lon="-8.737908666953444">
        <ele>4</ele>
      </trkpt>
      <trkpt lat="41.323576485738158" lon="-8.737870696932077">
        <ele>4</ele>
      </trkpt>
      <trkpt lat="41.323601379990578" lon="-8.737828535959125">
        <ele>4</ele>
      </trkpt>
      <trkpt lat="41.323621077463031" lon="-8.737785201519728">
        <ele>4</ele>
      </trkpt>
      <trkpt lat="41.32363180629909" lon="-8.737737340852618">
        <ele>4</ele>
      </trkpt>
      <trkpt lat="41.323634907603264" lon="-8.737684451043606">
        <ele>4</ele>
      </trkpt>
      <trkpt lat="41.323638511821628" lon="-8.737622844055295">
        <ele>4</ele>
      </trkpt>
      <trkpt lat="41.323640188202262" lon="-8.737568277865648">
        <ele>4</ele>
      </trkpt>
      <trkpt lat="41.32364253513515" lon="-8.737515974789858">
        <ele>4</ele>
      </trkpt>
      <trkpt lat="41.323649492114782" lon="-8.737466270104051">
        <ele>4</ele>
      </trkpt>
      <trkpt lat="41.323668519034982" lon="-8.737416230142117">
        <ele>4</ele>
      </trkpt>
      <trkpt lat="41.323690395802259" lon="-8.737371386960149">
        <ele>4</ele>
      </trkpt>
      <trkpt lat="41.323715876787901" lon="-8.737334758043289">
        <ele>4</ele>
      </trkpt>
      <trkpt lat="41.323744542896748" lon="-8.737300308421254">
        <ele>4</ele>
      </trkpt>
      <trkpt lat="41.323777483776212" lon="-8.737274408340454">
        <ele>4</ele>
      </trkpt>
      <trkpt lat="41.323815453797579" lon="-8.737263763323426">
        <ele>4</ele>
      </trkpt>
      <trkpt lat="41.323853004723787" lon="-8.737256219610572">
        <ele>4</ele>
      </trkpt>
      <trkpt lat="41.323890723288059" lon="-8.73725320212543">
        <ele>4</ele>
      </trkpt>
      <trkpt lat="41.323931375518441" lon="-8.737249849364161">
        <ele>4</ele>
      </trkpt>
      <trkpt lat="41.323969596996903" lon="-8.73724389821291">
        <ele>4</ele>
      </trkpt>
      <trkpt lat="41.323999939486384" lon="-8.73724197037518">
        <ele>4</ele>
      </trkpt>
      <trkpt lat="41.324161374941468" lon="-8.737224955111742">
        <ele>4</ele>
      </trkpt>
      <trkpt lat="41.324201105162501" lon="-8.737226212397218">
        <ele>4</ele>
      </trkpt>
      <trkpt lat="41.32424158975482" lon="-8.737228643149137">
        <ele>4</ele>
      </trkpt>
      <trkpt lat="41.324280481785536" lon="-8.737231073901057">
        <ele>4</ele>
      </trkpt>
      <trkpt lat="41.324318870902061" lon="-8.737231073901057">
        <ele>4</ele>
      </trkpt>
      <trkpt lat="41.324360696598887" lon="-8.737237192690372">
        <ele>4</ele>
      </trkpt>
      <trkpt lat="41.324403109028935" lon="-8.737246664240956">
        <ele>4</ele>
      </trkpt>
      <trkpt lat="41.324440995231271" lon="-8.737255968153477">
        <ele>4</ele>
      </trkpt>
      <trkpt lat="41.324482318013906" lon="-8.737264685332775">
        <ele>4</ele>
      </trkpt>
      <trkpt lat="41.324521545320749" lon="-8.737269546836615">
        <ele>4</ele>
      </trkpt>
      <trkpt lat="41.324566220864654" lon="-8.737278850749135">
        <ele>4</ele>
      </trkpt>
      <trkpt lat="41.324608800932765" lon="-8.737290669232607">
        <ele>4</ele>
      </trkpt>
      <trkpt lat="41.324649201706052" lon="-8.737298883497715">
        <ele>4</ele>
      </trkpt>
      <trkpt lat="41.324692787602544" lon="-8.737309360876679">
        <ele>4</ele>
      </trkpt>
      <trkpt lat="41.324733691290021" lon="-8.73731916770339">
        <ele>4</ele>
      </trkpt>
      <trkpt lat="41.324772667139769" lon="-8.737324280664325">
        <ele>4</ele>
      </trkpt>
      <trkpt lat="41.324817594140768" lon="-8.737332662567496">
        <ele>4</ele>
      </trkpt>
      <trkpt lat="41.324854893609881" lon="-8.737342469394207">
        <ele>4.0390625</ele>
      </trkpt>
      <trkpt lat="41.324898395687342" lon="-8.737353114411235">
        <ele>4.09375</ele>
      </trkpt>
      <trkpt lat="41.324940305203199" lon="-8.737362921237946">
        <ele>4.14453125</ele>
      </trkpt>
      <trkpt lat="41.324984142556787" lon="-8.737371303141117">
        <ele>4.1953125</ele>
      </trkpt>
      <trkpt lat="41.325025297701359" lon="-8.737377086654305">
        <ele>4.24609375</ele>
      </trkpt>
      <trkpt lat="41.32507030852139" lon="-8.737381277605891">
        <ele>4.30078125</ele>
      </trkpt>
      <trkpt lat="41.325114145874977" lon="-8.73738412745297">
        <ele>4.3515625</ele>
      </trkpt>
      <trkpt lat="41.325152032077312" lon="-8.737386809661984">
        <ele>4.3984375</ele>
      </trkpt>
      <trkpt lat="41.325192432850599" lon="-8.737390581518412">
        <ele>4.4453125</ele>
      </trkpt>
      <trkpt lat="41.325231995433569" lon="-8.737394185736775">
        <ele>4.4921875</ele>
      </trkpt>
      <trkpt lat="41.325269965454936" lon="-8.737401813268661">
        <ele>4.5390625</ele>
      </trkpt>
      <trkpt lat="41.325308354571462" lon="-8.73740809969604">
        <ele>4.5859375</ele>
      </trkpt>
      <trkpt lat="41.325329728424549" lon="-8.737409273162484">
        <ele>4.609375</ele>
      </trkpt>
      <trkpt lat="41.325603062286973" lon="-8.737447327002883">
        <ele>4.9375</ele>
      </trkpt>
      <trkpt lat="41.325646312907338" lon="-8.737453864887357">
        <ele>4.9921875</ele>
      </trkpt>
      <trkpt lat="41.325688725337386" lon="-8.737458223477006">
        <ele>4.95703125</ele>
      </trkpt>
      <trkpt lat="41.325728623196483" lon="-8.737461157143116">
        <ele>4.91015625</ele>
      </trkpt>
      <trkpt lat="41.325771203264594" lon="-8.737466605380177">
        <ele>4.859375</ele>
      </trkpt>
      <trkpt lat="41.325810430571437" lon="-8.737470712512732">
        <ele>4.8125</ele>
      </trkpt>
      <trkpt lat="41.325852843001485" lon="-8.737475741654634">
        <ele>4.76171875</ele>
      </trkpt>
      <trkpt lat="41.325891064479947" lon="-8.737483201548457">
        <ele>4.71484375</ele>
      </trkpt>
      <trkpt lat="41.32593029178679" lon="-8.737491918727756">
        <ele>4.66796875</ele>
      </trkpt>
      <trkpt lat="41.325971698388457" lon="-8.737498121336102">
        <ele>4.6171875</ele>
      </trkpt>
      <trkpt lat="41.326013104990125" lon="-8.737505748867989">
        <ele>4.5703125</ele>
      </trkpt>
      <trkpt lat="41.326054511591792" lon="-8.737505748867989">
        <ele>4.51953125</ele>
      </trkpt>
      <trkpt lat="41.326092733070254" lon="-8.737505748867989">
        <ele>4.47265625</ele>
      </trkpt>
      <trkpt lat="41.326132547110319" lon="-8.737499881535769">
        <ele>4.42578125</ele>
      </trkpt>
      <trkpt lat="41.326172025874257" lon="-8.737488985061646">
        <ele>4.37890625</ele>
      </trkpt>
      <trkpt lat="41.326209241524339" lon="-8.737477082759142">
        <ele>4.33203125</ele>
      </trkpt>
      <trkpt lat="41.326247630640864" lon="-8.737460067495704">
        <ele>4.2890625</ele>
      </trkpt>
      <trkpt lat="41.326285852119327" lon="-8.737441962584853">
        <ele>4.2421875</ele>
      </trkpt>
      <trkpt lat="41.326323235407472" lon="-8.737427461892366">
        <ele>4.1953125</ele>
      </trkpt>
      <trkpt lat="41.326364558190107" lon="-8.737410195171833">
        <ele>4.1484375</ele>
      </trkpt>
      <trkpt lat="41.32640135474503" lon="-8.737385384738445">
        <ele>4.1015625</ele>
      </trkpt>
      <trkpt lat="41.326434463262558" lon="-8.737357975915074">
        <ele>4.0625</ele>
      </trkpt>
      <trkpt lat="41.326466063037515" lon="-8.737327801063657">
        <ele>4.0234375</ele>
      </trkpt>
      <trkpt lat="41.326495567336679" lon="-8.737294105812907">
        <ele>4.0078125</ele>
      </trkpt>
      <trkpt lat="41.32652448490262" lon="-8.737258985638618">
        <ele>4.0390625</ele>
      </trkpt>
      <trkpt lat="41.32655331864953" lon="-8.737226547673345">
        <ele>4.07421875</ele>
      </trkpt>
      <trkpt lat="41.326587768271565" lon="-8.737209364771843">
        <ele>4.1171875</ele>
      </trkpt>
      <trkpt lat="41.326629426330328" lon="-8.737208358943462">
        <ele>4.1640625</ele>
      </trkpt>
      <trkpt lat="41.326671000570059" lon="-8.737214310094714">
        <ele>4.2109375</ele>
      </trkpt>
      <trkpt lat="41.32670184597373" lon="-8.737223194912076">
        <ele>4.2421875</ele>
      </trkpt>
      <trkpt lat="41.326831933110952" lon="-8.737299721688032">
        <ele>4.3515625</ele>
      </trkpt>
      <trkpt lat="41.326868729665875" lon="-8.737327633425593">
        <ele>4.375</ele>
      </trkpt>
      <trkpt lat="41.326907034963369" lon="-8.737353198230267">
        <ele>4.3984375</ele>
      </trkpt>
      <trkpt lat="41.326942071318626" lon="-8.737379517406225">
        <ele>4.4140625</ele>
      </trkpt>
      <trkpt lat="41.326978532597423" lon="-8.737407261505723">
        <ele>4.42578125</ele>
      </trkpt>
      <trkpt lat="41.327015161514282" lon="-8.737434502691031">
        <ele>4.4375</ele>
      </trkpt>
      <trkpt lat="41.327048940584064" lon="-8.737457050010562">
        <ele>4.44921875</ele>
      </trkpt>
      <trkpt lat="41.327086659148335" lon="-8.73748286627233">
        <ele>4.45703125</ele>
      </trkpt>
      <trkpt lat="41.327125383540988" lon="-8.737505245953798">
        <ele>4.46484375</ele>
      </trkpt>
      <trkpt lat="41.327159749343991" lon="-8.737540114670992">
        <ele>4.45703125</ele>
      </trkpt>
      <trkpt lat="41.327192690223455" lon="-8.737584371119738">
        <ele>4.43359375</ele>
      </trkpt>
      <trkpt lat="41.32722076959908" lon="-8.737618234008551">
        <ele>4.4140625</ele>
      </trkpt>
      <trkpt lat="41.327251028269529" lon="-8.737657880410552">
        <ele>4.38671875</ele>
      </trkpt>
      <trkpt lat="41.327276006340981" lon="-8.737696018069983">
        <ele>4.35546875</ele>
      </trkpt>
      <trkpt lat="41.327304001897573" lon="-8.737736502662301">
        <ele>4.3203125</ele>
      </trkpt>
      <trkpt lat="41.327340882271528" lon="-8.737775310873985">
        <ele>4.33984375</ele>
      </trkpt>
      <trkpt lat="41.327369129285216" lon="-8.737810850143433">
        <ele>4.37109375</ele>
      </trkpt>
      <trkpt lat="41.327406009659171" lon="-8.737828368321061">
        <ele>4.44921875</ele>
      </trkpt>
      <trkpt lat="41.327438447624445" lon="-8.737858794629574">
        <ele>4.4921875</ele>
      </trkpt>
      <trkpt lat="41.327474154531956" lon="-8.73788402415812">
        <ele>4.55078125</ele>
      </trkpt>
      <trkpt lat="41.327510951086879" lon="-8.737904140725732">
        <ele>4.61328125</ele>
      </trkpt>
      <trkpt lat="41.32755009457469" lon="-8.737916210666299">
        <ele>4.6953125</ele>
      </trkpt>
      <trkpt lat="41.327590998262167" lon="-8.73791872523725">
        <ele>4.796875</ele>
      </trkpt>
      <trkpt lat="41.327631063759327" lon="-8.73791872523725">
        <ele>4.8984375</ele>
      </trkpt>
      <trkpt lat="41.327670039609075" lon="-8.73791872523725">
        <ele>4.99609375</ele>
      </trkpt>
      <trkpt lat="41.327710440382361" lon="-8.73791872523725">
        <ele>5.09765625</ele>
      </trkpt>
      <trkpt lat="41.327751595526934" lon="-8.7379265204072">
        <ele>5.1875</ele>
      </trkpt>
      <trkpt lat="41.32779099047184" lon="-8.737939177080989">
        <ele>5.265625</ele>
      </trkpt>
      <trkpt lat="41.327829211950302" lon="-8.737955689430237">
        <ele>5.328125</ele>
      </trkpt>
      <trkpt lat="41.327867601066828" lon="-8.737967424094677">
        <ele>5.3984375</ele>
      </trkpt>
      <trkpt lat="41.3279053196311" lon="-8.737978907302022">
        <ele>5.46875</ele>
      </trkpt>
      <trkpt lat="41.327944966033101" lon="-8.737993240356445">
        <ele>5.53515625</ele>
      </trkpt>
      <trkpt lat="41.327986372634768" lon="-8.738020649179816">
        <ele>5.57421875</ele>
      </trkpt>
      <trkpt lat="41.328022414818406" lon="-8.738044705241919">
        <ele>5.6015625</ele>
      </trkpt>
      <trkpt lat="41.328056696802378" lon="-8.738068426027894">
        <ele>5.62890625</ele>
      </trkpt>
      <trkpt lat="41.328096510842443" lon="-8.73808728531003">
        <ele>5.6796875</ele>
      </trkpt>
      <trkpt lat="41.328133642673492" lon="-8.738107569515705">
        <ele>5.71875</ele>
      </trkpt>
      <trkpt lat="41.328168343752623" lon="-8.738130535930395">
        <ele>5.70703125</ele>
      </trkpt>
      <trkpt lat="41.328201703727245" lon="-8.738157358020544">
        <ele>5.64453125</ele>
      </trkpt>
      <trkpt lat="41.328238416463137" lon="-8.738179989159107">
        <ele>5.58984375</ele>
      </trkpt>
      <trkpt lat="41.328274039551616" lon="-8.738210080191493">
        <ele>5.51953125</ele>
      </trkpt>
      <trkpt lat="41.328309159725904" lon="-8.738231621682644">
        <ele>5.46484375</ele>
      </trkpt>
      <trkpt lat="41.328345956280828" lon="-8.738257605582476">
        <ele>5.40234375</ele>
      </trkpt>
      <trkpt lat="41.328380908817053" lon="-8.738278476521373">
        <ele>5.35546875</ele>
      </trkpt>
      <trkpt lat="41.328385351225734" lon="-8.738281326368451">
        <ele>5.34765625</ele>
      </trkpt>
      <trkpt lat="41.32851367816329" lon="-8.738355254754424">
        <ele>5.16796875</ele>
      </trkpt>
      <trkpt lat="41.328558269888163" lon="-8.738386183977127">
        <ele>5.09375</ele>
      </trkpt>
      <trkpt lat="41.32859724573791" lon="-8.738399092108011">
        <ele>5.0625</ele>
      </trkpt>
      <trkpt lat="41.328636137768626" lon="-8.738412754610181">
        <ele>5.03125</ele>
      </trkpt>
      <trkpt lat="41.328673018142581" lon="-8.738423064351082">
        <ele>5.0078125</ele>
      </trkpt>
      <trkpt lat="41.32871450856328" lon="-8.738429518416524">
        <ele>4.9921875</ele>
      </trkpt>
      <trkpt lat="41.328751808032393" lon="-8.738439325243235">
        <ele>4.96875</ele>
      </trkpt>
      <trkpt lat="41.328793298453093" lon="-8.738454496487975">
        <ele>4.9296875</ele>
      </trkpt>
      <trkpt lat="41.328830011188984" lon="-8.73847084119916">
        <ele>4.890625</ele>
      </trkpt>
      <trkpt lat="41.328870160505176" lon="-8.738481318578124">
        <ele>4.8671875</ele>
      </trkpt>
      <trkpt lat="41.328908549621701" lon="-8.738492550328374">
        <ele>4.83984375</ele>
      </trkpt>
      <trkpt lat="41.328947860747576" lon="-8.738499507308006">
        <ele>4.82421875</ele>
      </trkpt>
      <trkpt lat="41.328988932073116" lon="-8.738506631925702">
        <ele>4.80859375</ele>
      </trkpt>
      <trkpt lat="41.329027488827705" lon="-8.738513588905334">
        <ele>4.8203125</ele>
      </trkpt>
      <trkpt lat="41.329066045582294" lon="-8.738519288599491">
        <ele>4.8359375</ele>
      </trkpt>
      <trkpt lat="41.329111224040389" lon="-8.738523479551077">
        <ele>4.859375</ele>
      </trkpt>
      <trkpt lat="41.329152546823025" lon="-8.738530268892646">
        <ele>4.875</ele>
      </trkpt>
      <trkpt lat="41.329193953424692" lon="-8.738538399338722">
        <ele>4.88671875</ele>
      </trkpt>
      <trkpt lat="41.329238880425692" lon="-8.738548206165433">
        <ele>4.90234375</ele>
      </trkpt>
      <trkpt lat="41.329280035570264" lon="-8.738559689372778">
        <ele>4.9140625</ele>
      </trkpt>
      <trkpt lat="41.329331416636705" lon="-8.738576956093311">
        <ele>4.921875</ele>
      </trkpt>
      <trkpt lat="41.329371985048056" lon="-8.73859254643321">
        <ele>4.92578125</ele>
      </trkpt>
      <trkpt lat="41.329418504610658" lon="-8.738613668829203">
        <ele>4.92578125</ele>
      </trkpt>
      <trkpt lat="41.329464940354228" lon="-8.738634623587132">
        <ele>4.9296875</ele>
      </trkpt>
      <trkpt lat="41.329506011679769" lon="-8.738650381565094">
        <ele>4.94140625</ele>
      </trkpt>
      <trkpt lat="41.329543562605977" lon="-8.738665888085961">
        <ele>4.953125</ele>
      </trkpt>
      <trkpt lat="41.329580778256059" lon="-8.738677119836211">
        <ele>4.96875</ele>
      </trkpt>
      <trkpt lat="41.329618832096457" lon="-8.738691788166761">
        <ele>4.984375</ele>
      </trkpt>
      <trkpt lat="41.329659149050713" lon="-8.738701678812504">
        <ele>5.01171875</ele>
      </trkpt>
      <trkpt lat="41.329701561480761" lon="-8.738707043230534">
        <ele>5.046875</ele>
      </trkpt>
      <trkpt lat="41.329759312793612" lon="-8.738714251667261">
        <ele>5.09375</ele>
      </trkpt>
      <trkpt lat="41.329803233966231" lon="-8.738723136484623">
        <ele>5.12890625</ele>
      </trkpt>
      <trkpt lat="41.329845646396279" lon="-8.738734703511">
        <ele>5.16796875</ele>
      </trkpt>
      <trkpt lat="41.329886969178915" lon="-8.738747611641884">
        <ele>5.20703125</ele>
      </trkpt>
      <trkpt lat="41.32992728613317" lon="-8.738757586106658">
        <ele>5.24609375</ele>
      </trkpt>
      <trkpt lat="41.329943714663386" lon="-8.738758843392134">
        <ele>5.265625</ele>
      </trkpt>
      <trkpt lat="41.33001521229744" lon="-8.738757837563753">
        <ele>5.36328125</ele>
      </trkpt>
      <trkpt lat="41.330055110156536" lon="-8.738743923604488">
        <ele>5.4375</ele>
      </trkpt>
      <trkpt lat="41.330095930024981" lon="-8.738730261102319">
        <ele>5.51171875</ele>
      </trkpt>
      <trkpt lat="41.330134067684412" lon="-8.73872347176075">
        <ele>5.57421875</ele>
      </trkpt>
      <trkpt lat="41.330172289162874" lon="-8.738717520609498">
        <ele>5.63671875</ele>
      </trkpt>
      <trkpt lat="41.330210007727146" lon="-8.738720873370767">
        <ele>5.68359375</ele>
      </trkpt>
      <trkpt lat="41.330249067395926" lon="-8.738727495074272">
        <ele>5.7265625</ele>
      </trkpt>
      <trkpt lat="41.330281337723136" lon="-8.738735457882285">
        <ele>5.75390625</ele>
      </trkpt>
      <trkpt lat="41.330854743719101" lon="-8.738890774548054">
        <ele>5.53515625</ele>
      </trkpt>
      <trkpt lat="41.33086153306067" lon="-8.738891696557403">
        <ele>5.5234375</ele>
      </trkpt>
      <trkpt lat="41.331454133614898" lon="-8.739031758159399">
        <ele>4.34375</ele>
      </trkpt>
      <trkpt lat="41.332052266225219" lon="-8.73919889330864">
        <ele>3.32421875</ele>
      </trkpt>
      <trkpt lat="41.332193166017532" lon="-8.739231498911977">
        <ele>3.14453125</ele>
      </trkpt>
      <trkpt lat="41.332236081361771" lon="-8.739229068160057">
        <ele>3.12109375</ele>
      </trkpt>
      <trkpt lat="41.332269189879298" lon="-8.739204844459891">
        <ele>3.16015625</ele>
      </trkpt>
      <trkpt lat="41.332287630066276" lon="-8.739158073440194">
        <ele>3.26171875</ele>
      </trkpt>
      <trkpt lat="41.332303807139397" lon="-8.739107614383101">
        <ele>3.37109375</ele>
      </trkpt>
      <trkpt lat="41.332325180992484" lon="-8.739059502258897">
        <ele>3.46875</ele>
      </trkpt>
      <trkpt lat="41.332349823787808" lon="-8.739020610228181">
        <ele>3.53125</ele>
      </trkpt>
      <trkpt lat="41.332387290894985" lon="-8.73901566490531">
        <ele>3.5</ele>
      </trkpt>
      <trkpt lat="41.332417884841561" lon="-8.739011473953724">
        <ele>3.47265625</ele>
      </trkpt>
      <trkpt lat="41.333073936402798" lon="-8.739118343219161">
        <ele>2.42578125</ele>
      </trkpt>
      <trkpt lat="41.333377109840512" lon="-8.739138292148709">
        <ele>2.2890625</ele>
      </trkpt>
      <trkpt lat="41.333415331318974" lon="-8.739149188622832">
        <ele>2.26171875</ele>
      </trkpt>
      <trkpt lat="41.333454390987754" lon="-8.739161929115653">
        <ele>2.23046875</ele>
      </trkpt>
      <trkpt lat="41.333492025732994" lon="-8.739174753427505">
        <ele>2.203125</ele>
      </trkpt>
      <trkpt lat="41.333530833944678" lon="-8.73918866738677">
        <ele>2.16796875</ele>
      </trkpt>
      <trkpt lat="41.333568803966045" lon="-8.739204593002796">
        <ele>2.12890625</ele>
      </trkpt>
      <trkpt lat="41.333577940240502" lon="-8.73920769430697">
        <ele>2.12109375</ele>
      </trkpt>
      <trkpt lat="41.333914892747998" lon="-8.739403411746025">
        <ele>1.65234375</ele>
      </trkpt>
      <trkpt lat="41.334082446992397" lon="-8.739453954622149">
        <ele>1.73828125</ele>
      </trkpt>
      <trkpt lat="41.334119411185384" lon="-8.739479519426823">
        <ele>1.76171875</ele>
      </trkpt>
      <trkpt lat="41.334157967939973" lon="-8.73950039036572">
        <ele>1.796875</ele>
      </trkpt>
      <trkpt lat="41.334198033437133" lon="-8.739518327638507">
        <ele>1.84765625</ele>
      </trkpt>
      <trkpt lat="41.334234829992056" lon="-8.739533331245184">
        <ele>1.89453125</ele>
      </trkpt>
      <trkpt lat="41.334272045642138" lon="-8.73954682610929">
        <ele>1.94921875</ele>
      </trkpt>
      <trkpt lat="41.334310350939631" lon="-8.73956635594368">
        <ele>1.99609375</ele>
      </trkpt>
      <trkpt lat="41.334348320960999" lon="-8.739587897434831">
        <ele>2.04296875</ele>
      </trkpt>
      <trkpt lat="41.334386290982366" lon="-8.739606505259871">
        <ele>2.09375</ele>
      </trkpt>
      <trkpt lat="41.334423087537289" lon="-8.739623688161373">
        <ele>2.1484375</ele>
      </trkpt>
      <trkpt lat="41.334462063387036" lon="-8.739635171368718">
        <ele>2.21875</ele>
      </trkpt>
      <trkpt lat="41.334503386169672" lon="-8.739640200510621">
        <ele>2.30859375</ele>
      </trkpt>
      <trkpt lat="41.33454236201942" lon="-8.739644978195429">
        <ele>2.39453125</ele>
      </trkpt>
      <trkpt lat="41.334580583497882" lon="-8.73964749276638">
        <ele>2.48046875</ele>
      </trkpt>
      <trkpt lat="41.33462643250823" lon="-8.739650007337332">
        <ele>2.58203125</ele>
      </trkpt>
      <trkpt lat="41.334669850766659" lon="-8.739652773365378">
        <ele>2.68359375</ele>
      </trkpt>
      <trkpt lat="41.334711005911231" lon="-8.739654198288918">
        <ele>2.77734375</ele>
      </trkpt>
      <trkpt lat="41.334757190197706" lon="-8.739655623212457">
        <ele>2.88671875</ele>
      </trkpt>
      <trkpt lat="41.334799518808722" lon="-8.739654198288918">
        <ele>2.98828125</ele>
      </trkpt>
      <trkpt lat="41.334838327020407" lon="-8.739654198288918">
        <ele>3.02734375</ele>
      </trkpt>
      <trkpt lat="41.334879314526916" lon="-8.739654198288918">
        <ele>3.02734375</ele>
      </trkpt>
      <trkpt lat="41.334921726956964" lon="-8.739651767536998">
        <ele>3.03125</ele>
      </trkpt>
      <trkpt lat="41.334960870444775" lon="-8.739657467231154">
        <ele>3.0234375</ele>
      </trkpt>
      <trkpt lat="41.334998924285173" lon="-8.739674147218466">
        <ele>3</ele>
      </trkpt>
      <trkpt lat="41.335035720840096" lon="-8.739696694537997">
        <ele>2.953125</ele>
      </trkpt>
      <trkpt lat="41.335070002824068" lon="-8.739719409495592">
        <ele>2.91015625</ele>
      </trkpt>
      <trkpt lat="41.335107805207372" lon="-8.739748075604439">
        <ele>2.85546875</ele>
      </trkpt>
      <trkpt lat="41.335146445780993" lon="-8.739775316789746">
        <ele>2.80859375</ele>
      </trkpt>
      <trkpt lat="41.335183409973979" lon="-8.739809095859528">
        <ele>2.75</ele>
      </trkpt>
      <trkpt lat="41.335213333368301" lon="-8.739841366186738">
        <ele>2.6953125</ele>
      </trkpt>
      <trkpt lat="41.335244933143258" lon="-8.739872295409441">
        <ele>2.6484375</ele>
      </trkpt>
      <trkpt lat="41.335284244269133" lon="-8.739895345643163">
        <ele>2.62109375</ele>
      </trkpt>
      <trkpt lat="41.33531928062439" lon="-8.739923089742661">
        <ele>2.5859375</ele>
      </trkpt>
      <trkpt lat="41.335355658084154" lon="-8.739944966509938">
        <ele>2.5625</ele>
      </trkpt>
      <trkpt lat="41.335391532629728" lon="-8.739962736144662">
        <ele>2.546875</ele>
      </trkpt>
      <trkpt lat="41.335428580641747" lon="-8.739979499951005">
        <ele>2.5390625</ele>
      </trkpt>
      <trkpt lat="41.335466550663114" lon="-8.740001125261188">
        <ele>2.5234375</ele>
      </trkpt>
      <trkpt lat="41.335501419380307" lon="-8.740024762228131">
        <ele>2.5078125</ele>
      </trkpt>
      <trkpt lat="41.335538635030389" lon="-8.740046890452504">
        <ele>2.49609375</ele>
      </trkpt>
      <trkpt lat="41.335583562031388" lon="-8.74007061123848">
        <ele>2.48828125</ele>
      </trkpt>
      <trkpt lat="41.335624465718865" lon="-8.740087542682886">
        <ele>2.4921875</ele>
      </trkpt>
      <trkpt lat="41.335660591721535" lon="-8.740102462470531">
        <ele>2.515625</ele>
      </trkpt>
      <trkpt lat="41.33570141158998" lon="-8.740108497440815">
        <ele>2.609375</ele>
      </trkpt>
      <trkpt lat="41.335743237286806" lon="-8.74011218547821">
        <ele>2.703125</ele>
      </trkpt>
      <trkpt lat="41.335783721879125" lon="-8.74011998064816">
        <ele>2.79296875</ele>
      </trkpt>
      <trkpt lat="41.335821775719523" lon="-8.740132134407759">
        <ele>2.8671875</ele>
      </trkpt>
      <trkpt lat="41.335856476798654" lon="-8.740165829658508">
        <ele>2.91015625</ele>
      </trkpt>
      <trkpt lat="41.335881454870105" lon="-8.740205056965351">
        <ele>2.92578125</ele>
      </trkpt>
      <trkpt lat="41.335906013846397" lon="-8.740248391404748">
        <ele>2.9296875</ele>
      </trkpt>
      <trkpt lat="41.335917245596647" lon="-8.740296168252826">
        <ele>2.90234375</ele>
      </trkpt>
      <trkpt lat="41.335928728803992" lon="-8.740351824089885">
        <ele>2.86328125</ele>
      </trkpt>
      <trkpt lat="41.335948007181287" lon="-8.740396415814757">
        <ele>2.85546875</ele>
      </trkpt>
      <trkpt lat="41.335978852584958" lon="-8.740431535989046">
        <ele>2.88671875</ele>
      </trkpt>
      <trkpt lat="41.336010871455073" lon="-8.740455759689212">
        <ele>2.93359375</ele>
      </trkpt>
      <trkpt lat="41.336010871455073" lon="-8.740456765517592">
        <ele>2.93359375</ele>
      </trkpt>
      <trkpt lat="41.336078597232699" lon="-8.740502865985036">
        <ele>3.0390625</ele>
      </trkpt>
      <trkpt lat="41.33611623197794" lon="-8.740518037229776">
        <ele>3.09765625</ele>
      </trkpt>
      <trkpt lat="41.336153699085116" lon="-8.740528766065836">
        <ele>3.16015625</ele>
      </trkpt>
      <trkpt lat="41.336191585287452" lon="-8.740535052493215">
        <ele>3.23046875</ele>
      </trkpt>
      <trkpt lat="41.336229555308819" lon="-8.740535052493215">
        <ele>3.3203125</ele>
      </trkpt>
      <trkpt lat="41.336236679926515" lon="-8.740535052493215">
        <ele>3.3359375</ele>
      </trkpt>
      <trkpt lat="41.336623588576913" lon="-8.740569753572345">
        <ele>4.12109375</ele>
      </trkpt>
      <trkpt lat="41.336669940501451" lon="-8.740568747743964">
        <ele>4.234375</ele>
      </trkpt>
      <trkpt lat="41.336712352931499" lon="-8.740567406639457">
        <ele>4.33984375</ele>
      </trkpt>
      <trkpt lat="41.336754681542516" lon="-8.740566065534949">
        <ele>4.44921875</ele>
      </trkpt>
      <trkpt lat="41.336798602715135" lon="-8.740566065534949">
        <ele>4.5546875</ele>
      </trkpt>
      <trkpt lat="41.336841266602278" lon="-8.740566065534949">
        <ele>4.65625</ele>
      </trkpt>
      <trkpt lat="41.336885942146182" lon="-8.740564892068505">
        <ele>4.76953125</ele>
      </trkpt>
      <trkpt lat="41.336932126432657" lon="-8.740562126040459">
        <ele>4.88671875</ele>
      </trkpt>
      <trkpt lat="41.336975963786244" lon="-8.740558102726936">
        <ele>5.0078125</ele>
      </trkpt>
      <trkpt lat="41.337022567167878" lon="-8.740556677803397">
        <ele>5.125</ele>
      </trkpt>
      <trkpt lat="41.337061710655689" lon="-8.740555085241795">
        <ele>5.2265625</ele>
      </trkpt>
      <trkpt lat="41.33710278198123" lon="-8.740555085241795">
        <ele>5.32421875</ele>
      </trkpt>
      <trkpt lat="41.337142596021295" lon="-8.740555085241795">
        <ele>5.41796875</ele>
      </trkpt>
      <trkpt lat="41.337181990966201" lon="-8.740556510165334">
        <ele>5.5078125</ele>
      </trkpt>
      <trkpt lat="41.337219877168536" lon="-8.740557767450809">
        <ele>5.59375</ele>
      </trkpt>
      <trkpt lat="41.337260948494077" lon="-8.740559024736285">
        <ele>5.6875</ele>
      </trkpt>
      <trkpt lat="41.337298834696412" lon="-8.740561790764332">
        <ele>5.76953125</ele>
      </trkpt>
      <trkpt lat="41.33734124712646" lon="-8.740564472973347">
        <ele>5.796875</ele>
      </trkpt>
      <trkpt lat="41.337380977347493" lon="-8.740569585934281">
        <ele>5.78515625</ele>
      </trkpt>
      <trkpt lat="41.337410900741816" lon="-8.740574866533279">
        <ele>5.76953125</ele>
      </trkpt>
      <trkpt lat="41.337639056146145" lon="-8.74058660119772">
        <ele>5.75390625</ele>
      </trkpt>
      <trkpt lat="41.338101904839277" lon="-8.740795897319913">
        <ele>5.2890625</ele>
      </trkpt>
      <trkpt lat="41.338141299784184" lon="-8.740794640034437">
        <ele>5.30859375</ele>
      </trkpt>
      <trkpt lat="41.338181532919407" lon="-8.740794640034437">
        <ele>5.19921875</ele>
      </trkpt>
      <trkpt lat="41.338222017511725" lon="-8.740794640034437">
        <ele>5.0703125</ele>
      </trkpt>
      <trkpt lat="41.338260322809219" lon="-8.740795897319913">
        <ele>4.9453125</ele>
      </trkpt>
      <trkpt lat="41.338301980867982" lon="-8.740798495709896">
        <ele>4.8046875</ele>
      </trkpt>
      <trkpt lat="41.338343555107713" lon="-8.740806877613068">
        <ele>4.65625</ele>
      </trkpt>
      <trkpt lat="41.338381441310048" lon="-8.740817774087191">
        <ele>4.515625</ele>
      </trkpt>
      <trkpt lat="41.338417651131749" lon="-8.740832526236773">
        <ele>4.37109375</ele>
      </trkpt>
      <trkpt lat="41.338454866781831" lon="-8.740848703309894">
        <ele>4.22265625</ele>
      </trkpt>
      <trkpt lat="41.338490070775151" lon="-8.740871334448457">
        <ele>4.0703125</ele>
      </trkpt>
      <trkpt lat="41.338526196777821" lon="-8.740893043577671">
        <ele>3.91796875</ele>
      </trkpt>
      <trkpt lat="41.338563328608871" lon="-8.740901341661811">
        <ele>3.7890625</ele>
      </trkpt>
      <trkpt lat="41.338604735210538" lon="-8.740911399945617">
        <ele>3.64453125</ele>
      </trkpt>
      <trkpt lat="41.338644633069634" lon="-8.740921039134264">
        <ele>3.5078125</ele>
      </trkpt>
      <trkpt lat="41.338685285300016" lon="-8.740935288369656">
        <ele>3.36328125</ele>
      </trkpt>
      <trkpt lat="41.338724680244923" lon="-8.740948950871825">
        <ele>3.2265625</ele>
      </trkpt>
      <trkpt lat="41.338761728256941" lon="-8.740963116288185">
        <ele>3.09375</ele>
      </trkpt>
      <trkpt lat="41.338798608630896" lon="-8.740974431857467">
        <ele>2.96875</ele>
      </trkpt>
      <trkpt lat="41.338839763775468" lon="-8.740985998883843">
        <ele>2.83203125</ele>
      </trkpt>
      <trkpt lat="41.338884942233562" lon="-8.741003684699535">
        <ele>2.67578125</ele>
      </trkpt>
      <trkpt lat="41.338933808729053" lon="-8.741022124886513">
        <ele>2.51171875</ele>
      </trkpt>
      <trkpt lat="41.338970186188817" lon="-8.741035703569651">
        <ele>2.390625</ele>
      </trkpt>
      <trkpt lat="41.339007401838899" lon="-8.741044420748949">
        <ele>2.30859375</ele>
      </trkpt>
      <trkpt lat="41.3390470482409" lon="-8.741055149585009">
        <ele>2.234375</ele>
      </trkpt>
      <trkpt lat="41.339084599167109" lon="-8.741065794602036">
        <ele>2.16015625</ele>
      </trkpt>
      <trkpt lat="41.339121647179127" lon="-8.741088258102536">
        <ele>2.08203125</ele>
      </trkpt>
      <trkpt lat="41.339158359915018" lon="-8.74111826531589">
        <ele>1.99609375</ele>
      </trkpt>
      <trkpt lat="41.339187445119023" lon="-8.741153804585338">
        <ele>1.91796875</ele>
      </trkpt>
      <trkpt lat="41.33921074680984" lon="-8.741195295006037">
        <ele>1.84765625</ele>
      </trkpt>
      <trkpt lat="41.33923564106226" lon="-8.741243407130241">
        <ele>1.7734375</ele>
      </trkpt>
      <trkpt lat="41.339265815913677" lon="-8.741298727691174">
        <ele>1.6875</ele>
      </trkpt>
      <trkpt lat="41.339286519214511" lon="-8.741345917806029">
        <ele>1.6328125</ele>
      </trkpt>
      <trkpt lat="41.339309569448233" lon="-8.741396628320217">
        <ele>1.62890625</ele>
      </trkpt>
      <trkpt lat="41.339333960786462" lon="-8.741446081548929">
        <ele>1.62890625</ele>
      </trkpt>
      <trkpt lat="41.339357430115342" lon="-8.741485979408026">
        <ele>1.625</ele>
      </trkpt>
      <trkpt lat="41.339385006576777" lon="-8.741527134552598">
        <ele>1.62109375</ele>
      </trkpt>
      <trkpt lat="41.339417528361082" lon="-8.741578767076135">
        <ele>1.625</ele>
      </trkpt>
      <trkpt lat="41.339449128136039" lon="-8.741606594994664">
        <ele>1.6171875</ele>
      </trkpt>
      <trkpt lat="41.339489612728357" lon="-8.741615815088153">
        <ele>1.58984375</ele>
      </trkpt>
      <trkpt lat="41.339528504759073" lon="-8.741616904735565">
        <ele>1.55859375</ele>
      </trkpt>
      <trkpt lat="41.339567229151726" lon="-8.741613384336233">
        <ele>1.5234375</ele>
      </trkpt>
      <trkpt lat="41.3396065402776" lon="-8.741599973291159">
        <ele>1.48046875</ele>
      </trkpt>
      <trkpt lat="41.339618610218167" lon="-8.741596788167953">
        <ele>1.46875</ele>
      </trkpt>
      <trkpt lat="41.34088234975934" lon="-8.740816181525588">
        <ele>0.82421875</ele>
      </trkpt>
      <trkpt lat="41.341289710253477" lon="-8.740568328648806">
        <ele>2.9296875</ele>
      </trkpt>
      <trkpt lat="41.341357687488198" lon="-8.740531532093883">
        <ele>3.3515625</ele>
      </trkpt>
      <trkpt lat="41.341410325840116" lon="-8.740507224574685">
        <ele>3.6796875</ele>
      </trkpt>
      <trkpt lat="41.341465562582016" lon="-8.740470428019762">
        <ele>4.03125</ele>
      </trkpt>
      <trkpt lat="41.341518955305219" lon="-8.740430530160666">
        <ele>4.23828125</ele>
      </trkpt>
      <trkpt lat="41.34157033637166" lon="-8.740389375016093">
        <ele>4.41015625</ele>
      </trkpt>
      <trkpt lat="41.341620543971658" lon="-8.740345872938633">
        <ele>4.59375</ele>
      </trkpt>
      <trkpt lat="41.341668907552958" lon="-8.7402871157974">
        <ele>4.8203125</ele>
      </trkpt>
      <trkpt lat="41.341708218678832" lon="-8.740230957046151">
        <ele>5.03515625</ele>
      </trkpt>
      <trkpt lat="41.341748284175992" lon="-8.740166081115603">
        <ele>5.27734375</ele>
      </trkpt>
      <trkpt lat="41.3417823985219" lon="-8.740106066688895">
        <ele>5.5078125</ele>
      </trkpt>
      <trkpt lat="41.341814249753952" lon="-8.740043537691236">
        <ele>5.74609375</ele>
      </trkpt>
      <trkpt lat="41.341845849528909" lon="-8.73998218216002">
        <ele>5.984375</ele>
      </trkpt>
      <trkpt lat="41.341891195625067" lon="-8.739956952631474">
        <ele>6.1484375</ele>
      </trkpt>
      <trkpt lat="41.341926148161292" lon="-8.740010010078549">
        <ele>6.0546875</ele>
      </trkpt>
      <trkpt lat="41.341948695480824" lon="-8.740077149122953">
        <ele>5.890625</ele>
      </trkpt>
      <trkpt lat="41.341967638581991" lon="-8.740150574594736">
        <ele>5.69921875</ele>
      </trkpt>
      <trkpt lat="41.341991610825062" lon="-8.74021964147687">
        <ele>5.5234375</ele>
      </trkpt>
      <trkpt lat="41.342019103467464" lon="-8.740284265950322">
        <ele>5.36328125</ele>
      </trkpt>
      <trkpt lat="41.342045590281487" lon="-8.740350650623441">
        <ele>5.1875</ele>
      </trkpt>
      <trkpt lat="41.342073921114206" lon="-8.74042147770524">
        <ele>4.99609375</ele>
      </trkpt>
      <trkpt lat="41.342098144814372" lon="-8.740487191826105">
        <ele>4.8125</ele>
      </trkpt>
      <trkpt lat="41.342121614143252" lon="-8.740557683631778">
        <ele>4.640625</ele>
      </trkpt>
      <trkpt lat="41.342151034623384" lon="-8.740623649209738">
        <ele>4.50390625</ele>
      </trkpt>
      <trkpt lat="41.342188837006688" lon="-8.74068483710289">
        <ele>4.3984375</ele>
      </trkpt>
      <trkpt lat="41.342233931645751" lon="-8.74072783626616">
        <ele>4.35546875</ele>
      </trkpt>
      <trkpt lat="41.342283133417368" lon="-8.740763375535607">
        <ele>4.34375</ele>
      </trkpt>
      <trkpt lat="41.342334095388651" lon="-8.740788688883185">
        <ele>4.30859375</ele>
      </trkpt>
      <trkpt lat="41.342385811731219" lon="-8.740812493488193">
        <ele>4.2109375</ele>
      </trkpt>
      <trkpt lat="41.342445155605674" lon="-8.7408397346735">
        <ele>4.10546875</ele>
      </trkpt>
      <trkpt lat="41.342500895261765" lon="-8.740864545106888">
        <ele>4.01171875</ele>
      </trkpt>
      <trkpt lat="41.342557221651077" lon="-8.740896312519908">
        <ele>3.91015625</ele>
      </trkpt>
      <trkpt lat="41.34261354804039" lon="-8.740940485149622">
        <ele>3.78515625</ele>
      </trkpt>
      <trkpt lat="41.342665012925863" lon="-8.740985579788685">
        <ele>3.671875</ele>
      </trkpt>
      <trkpt lat="41.342712454497814" lon="-8.74102883040905">
        <ele>3.56640625</ele>
      </trkpt>
      <trkpt lat="41.342761572450399" lon="-8.741058502346277">
        <ele>3.4921875</ele>
      </trkpt>
      <trkpt lat="41.34281630627811" lon="-8.741087755188346">
        <ele>3.421875</ele>
      </trkpt>
      <trkpt lat="41.342875147238374" lon="-8.741111811250448">
        <ele>3.36328125</ele>
      </trkpt>
      <trkpt lat="41.342929378151894" lon="-8.741128155961633">
        <ele>3.3203125</ele>
      </trkpt>
      <trkpt lat="41.342984950169921" lon="-8.741139052435756">
        <ele>3.2890625</ele>
      </trkpt>
      <trkpt lat="41.343043791130185" lon="-8.741140896454453">
        <ele>3.26953125</ele>
      </trkpt>
      <trkpt lat="41.343102967366576" lon="-8.741142908111215">
        <ele>3.25</ele>
      </trkpt>
      <trkpt lat="41.343163903802633" lon="-8.741142740473151">
        <ele>3.2421875</ele>
      </trkpt>
      <trkpt lat="41.343224588781595" lon="-8.741139471530914">
        <ele>3.265625</ele>
      </trkpt>
      <trkpt lat="41.343287285417318" lon="-8.741130921989679">
        <ele>3.296875</ele>
      </trkpt>
      <trkpt lat="41.343345539644361" lon="-8.741124216467142">
        <ele>3.32421875</ele>
      </trkpt>
      <trkpt lat="41.343400608748198" lon="-8.741119438782334">
        <ele>3.34765625</ele>
      </trkpt>
      <trkpt lat="41.343462048098445" lon="-8.7411177624017">
        <ele>3.37109375</ele>
      </trkpt>
      <trkpt lat="41.343524158000946" lon="-8.741112314164639">
        <ele>3.3984375</ele>
      </trkpt>
      <trkpt lat="41.343591967597604" lon="-8.741106363013387">
        <ele>3.43359375</ele>
      </trkpt>
      <trkpt lat="41.343654496595263" lon="-8.741102507337928">
        <ele>3.4609375</ele>
      </trkpt>
      <trkpt lat="41.343731861561537" lon="-8.741092784330249">
        <ele>3.5078125</ele>
      </trkpt>
      <trkpt lat="41.343787014484406" lon="-8.741084821522236">
        <ele>3.54296875</ele>
      </trkpt>
      <trkpt lat="41.343841999769211" lon="-8.741078870370984">
        <ele>3.578125</ele>
      </trkpt>
      <trkpt lat="41.343901427462697" lon="-8.741076942533255">
        <ele>3.60546875</ele>
      </trkpt>
      <trkpt lat="41.343956831842661" lon="-8.741070237010717">
        <ele>3.640625</ele>
      </trkpt>
      <trkpt lat="41.344019612297416" lon="-8.74106545932591">
        <ele>3.6953125</ele>
      </trkpt>
      <trkpt lat="41.344085745513439" lon="-8.741063447669148">
        <ele>3.75390625</ele>
      </trkpt>
      <trkpt lat="41.344146681949496" lon="-8.741063447669148">
        <ele>3.80078125</ele>
      </trkpt>
      <trkpt lat="41.344202505424619" lon="-8.741061436012387">
        <ele>3.8515625</ele>
      </trkpt>
      <trkpt lat="41.344256987795234" lon="-8.74105816707015">
        <ele>3.90234375</ele>
      </trkpt>
      <trkpt lat="41.344313230365515" lon="-8.74104056507349">
        <ele>3.98046875</ele>
      </trkpt>
      <trkpt lat="41.344364946708083" lon="-8.741007540374994">
        <ele>4.078125</ele>
      </trkpt>
      <trkpt lat="41.344414316117764" lon="-8.740967642515898">
        <ele>4.1875</ele>
      </trkpt>
      <trkpt lat="41.344458321109414" lon="-8.740917770192027">
        <ele>4.30078125</ele>
      </trkpt>
      <trkpt lat="41.344498721882701" lon="-8.74086462892592">
        <ele>4.41015625</ele>
      </trkpt>
      <trkpt lat="41.344535937532783" lon="-8.740800675004721">
        <ele>4.53125</ele>
      </trkpt>
      <trkpt lat="41.344570387154818" lon="-8.74073127284646">
        <ele>4.65625</ele>
      </trkpt>
      <trkpt lat="41.34460081346333" lon="-8.740671426057816">
        <ele>4.75390625</ele>
      </trkpt>
      <trkpt lat="41.344636688008904" lon="-8.740603281185031">
        <ele>4.86328125</ele>
      </trkpt>
      <trkpt lat="41.344671472907066" lon="-8.740546619519591">
        <ele>4.9453125</ele>
      </trkpt>
      <trkpt lat="41.344707012176514" lon="-8.740502782166004">
        <ele>5.01171875</ele>
      </trkpt>
      <trkpt lat="41.34475520811975" lon="-8.740459866821766">
        <ele>5.1171875</ele>
      </trkpt>
      <trkpt lat="41.344796614721417" lon="-8.740411167964339">
        <ele>5.234375</ele>
      </trkpt>
      <trkpt lat="41.344840871170163" lon="-8.740361128002405">
        <ele>5.3671875</ele>
      </trkpt>
      <trkpt lat="41.344889905303717" lon="-8.740319637581706">
        <ele>5.49609375</ele>
      </trkpt>
      <trkpt lat="41.344940448179841" lon="-8.740292396396399">
        <ele>5.59765625</ele>
      </trkpt>
      <trkpt lat="41.344993002712727" lon="-8.740272112190723">
        <ele>5.69140625</ele>
      </trkpt>
      <trkpt lat="41.345038767904043" lon="-8.740296084433794">
        <ele>5.6484375</ele>
      </trkpt>
      <trkpt lat="41.345069445669651" lon="-8.740360541269183">
        <ele>5.46484375</ele>
      </trkpt>
      <trkpt lat="41.345103727653623" lon="-8.740411419421434">
        <ele>5.3125</ele>
      </trkpt>
      <trkpt lat="41.345157707110047" lon="-8.74042147770524">
        <ele>5.29296875</ele>
      </trkpt>
      <trkpt lat="41.345204561948776" lon="-8.740416867658496">
        <ele>5.3203125</ele>
      </trkpt>
      <trkpt lat="41.345995562151074" lon="-8.740445952862501">
        <ele>4.90234375</ele>
      </trkpt>
      <trkpt lat="41.347123347222805" lon="-8.740526754409075">
        <ele>2.390625</ele>
      </trkpt>
      <trkpt lat="41.347762551158667" lon="-8.740564305335283">
        <ele>1.35546875</ele>
      </trkpt>
      <trkpt lat="41.348197320476174" lon="-8.740612166002393">
        <ele>0.875</ele>
      </trkpt>
      <trkpt lat="41.348250797018409" lon="-8.740604873746634">
        <ele>0.8828125</ele>
      </trkpt>
      <trkpt lat="41.34831290692091" lon="-8.740604873746634">
        <ele>0.8828125</ele>
      </trkpt>
      <trkpt lat="41.348370490595698" lon="-8.740603113546968">
        <ele>0.88671875</ele>
      </trkpt>
      <trkpt lat="41.348426816985011" lon="-8.740603113546968">
        <ele>0.88671875</ele>
      </trkpt>
      <trkpt lat="41.348489094525576" lon="-8.740595988929272">
        <ele>0.89453125</ele>
      </trkpt>
      <trkpt lat="41.348543241620064" lon="-8.740592384710908">
        <ele>0.8984375</ele>
      </trkpt>
      <trkpt lat="41.34859973564744" lon="-8.740585427731276">
        <ele>0.90625</ele>
      </trkpt>
      <trkpt lat="41.348655475303531" lon="-8.740571178495884">
        <ele>0.92578125</ele>
      </trkpt>
      <trkpt lat="41.348707694560289" lon="-8.740545529872179">
        <ele>0.953125</ele>
      </trkpt>
      <trkpt lat="41.34876636788249" lon="-8.740523736923933">
        <ele>0.98046875</ele>
      </trkpt>
      <trkpt lat="41.348818670958281" lon="-8.74050454236567">
        <ele>1.0078125</ele>
      </trkpt>
      <trkpt lat="41.348872566595674" lon="-8.740488197654486">
        <ele>1.046875</ele>
      </trkpt>
      <trkpt lat="41.348925540223718" lon="-8.740462800487876">
        <ele>1.109375</ele>
      </trkpt>
      <trkpt lat="41.348981698974967" lon="-8.740426506847143">
        <ele>1.18359375</ele>
      </trkpt>
      <trkpt lat="41.349034924060106" lon="-8.740396751090884">
        <ele>1.18359375</ele>
      </trkpt>
      <trkpt lat="41.349089909344912" lon="-8.74036674387753">
        <ele>1.17578125</ele>
      </trkpt>
      <trkpt lat="41.349137853831053" lon="-8.740327851846814">
        <ele>1.19140625</ele>
      </trkpt>
      <trkpt lat="41.349188731983304" lon="-8.740276722237468">
        <ele>1.22265625</ele>
      </trkpt>
      <trkpt lat="41.349230306223035" lon="-8.740223161876202">
        <ele>1.26953125</ele>
      </trkpt>
      <trkpt lat="41.349280010908842" lon="-8.740171529352665">
        <ele>1.2890625</ele>
      </trkpt>
      <trkpt lat="41.349330972880125" lon="-8.740126099437475">
        <ele>1.2890625</ele>
      </trkpt>
      <trkpt lat="41.349386628717184" lon="-8.740097181871533">
        <ele>1.24609375</ele>
      </trkpt>
      <trkpt lat="41.349437590688467" lon="-8.740070778876543">
        <ele>1.19921875</ele>
      </trkpt>
      <trkpt lat="41.349489977583289" lon="-8.740039179101586">
        <ele>1.15625</ele>
      </trkpt>
      <trkpt lat="41.349548986181617" lon="-8.740002131089568">
        <ele>1.1015625</ele>
      </trkpt>
      <trkpt lat="41.34961461648345" lon="-8.739964747801423">
        <ele>1.03125</ele>
      </trkpt>
      <trkpt lat="41.349670942872763" lon="-8.739931471645832">
        <ele>0.96484375</ele>
      </trkpt>
      <trkpt lat="41.349722826853395" lon="-8.739908002316952">
        <ele>0.890625</ele>
      </trkpt>
      <trkpt lat="41.349778482690454" lon="-8.739884616807103">
        <ele>0.8046875</ele>
      </trkpt>
      <trkpt lat="41.349833132699132" lon="-8.739865757524967">
        <ele>0.74609375</ele>
      </trkpt>
      <trkpt lat="41.34988920763135" lon="-8.739839605987072">
        <ele>0.72265625</ele>
      </trkpt>
      <trkpt lat="41.349940672516823" lon="-8.739803731441498">
        <ele>0.70703125</ele>
      </trkpt>
      <trkpt lat="41.349984090775251" lon="-8.739761654287577">
        <ele>0.703125</ele>
      </trkpt>
      <trkpt lat="41.350027257576585" lon="-8.73970415443182">
        <ele>0.70703125</ele>
      </trkpt>
      <trkpt lat="41.350062880665064" lon="-8.739644642919302">
        <ele>0.8984375</ele>
      </trkpt>
      <trkpt lat="41.35009397752583" lon="-8.739581359550357">
        <ele>1.2890625</ele>
      </trkpt>
      <trkpt lat="41.350136306136847" lon="-8.739524865522981">
        <ele>1.61328125</ele>
      </trkpt>
      <trkpt lat="41.350177880376577" lon="-8.739473652094603">
        <ele>1.89453125</ele>
      </trkpt>
      <trkpt lat="41.350220460444689" lon="-8.739421935752034">
        <ele>2.17578125</ele>
      </trkpt>
      <trkpt lat="41.350256334990263" lon="-8.739364184439182">
        <ele>2.49609375</ele>
      </trkpt>
      <trkpt lat="41.350287264212966" lon="-8.739293189719319">
        <ele>2.90625</ele>
      </trkpt>
      <trkpt lat="41.350310565903783" lon="-8.739228481426835">
        <ele>3.28515625</ele>
      </trkpt>
      <trkpt lat="41.350335879251361" lon="-8.739162096753716">
        <ele>3.66796875</ele>
      </trkpt>
      <trkpt lat="41.350358258932829" lon="-8.739095544442534">
        <ele>4.05078125</ele>
      </trkpt>
      <trkpt lat="41.350384326651692" lon="-8.739028070122004">
        <ele>4.42578125</ele>
      </trkpt>
      <trkpt lat="41.350391954183578" lon="-8.739005019888282">
        <ele>4.55859375</ele>
      </trkpt>
      <trkpt lat="41.351108942180872" lon="-8.739399807527661">
        <ele>2.97265625</ele>
      </trkpt>
      <trkpt lat="41.351559553295374" lon="-8.739637602120638">
        <ele>4.08203125</ele>
      </trkpt>
      <trkpt lat="41.351559553295374" lon="-8.739638943225145">
        <ele>4.078125</ele>
      </trkpt>
      <trkpt lat="41.351966997608542" lon="-8.73984538950026">
        <ele>7.94921875</ele>
      </trkpt>
      <trkpt lat="41.352025754749775" lon="-8.739860393106937">
        <ele>8.47265625</ele>
      </trkpt>
      <trkpt lat="41.352054001763463" lon="-8.739893501624465">
        <ele>8.640625</ele>
      </trkpt>
      <trkpt lat="41.352065652608871" lon="-8.739943876862526">
        <ele>8.58984375</ele>
      </trkpt>
      <trkpt lat="41.352064814418554" lon="-8.739996515214443">
        <ele>8.421875</ele>
      </trkpt>
      <trkpt lat="41.352060288190842" lon="-8.740055691450834">
        <ele>8.203125</ele>
      </trkpt>
      <trkpt lat="41.352054504677653" lon="-8.740108665078878">
        <ele>7.99609375</ele>
      </trkpt>
      <trkpt lat="41.35204796679318" lon="-8.740156358107924">
        <ele>7.80859375</ele>
      </trkpt>
      <trkpt lat="41.351871443912387" lon="-8.740718699991703">
        <ele>5.80859375</ele>
      </trkpt>
      <trkpt lat="41.351725766435266" lon="-8.741249023005366">
        <ele>5.296875</ele>
      </trkpt>
      <trkpt lat="41.351725766435266" lon="-8.741249106824398">
        <ele>5.296875</ele>
      </trkpt>
      <trkpt lat="41.351648988202214" lon="-8.741488913074136">
        <ele>5.88671875</ele>
      </trkpt>
      <trkpt lat="41.351653262972832" lon="-8.741492265835404">
        <ele>5.90625</ele>
      </trkpt>
      <trkpt lat="41.351582854986191" lon="-8.741605840623379">
        <ele>6.36328125</ele>
      </trkpt>
      <trkpt lat="41.351349418982863" lon="-8.742250995710492">
        <ele>8.359375</ele>
      </trkpt>
      <trkpt lat="41.351902540773153" lon="-8.742439337074757">
        <ele>9.484375</ele>
      </trkpt>
      <trkpt lat="41.352231279015541" lon="-8.742543607950211">
        <ele>9.8515625</ele>
      </trkpt>
      <trkpt lat="41.352271512150764" lon="-8.742573196068406">
        <ele>9.94140625</ele>
      </trkpt>
      <trkpt lat="41.352307638153434" lon="-8.742589624598622">
        <ele>10</ele>
      </trkpt>
      <trkpt lat="41.352345775812864" lon="-8.742601862177253">
        <ele>10.03125</ele>
      </trkpt>
      <trkpt lat="41.352382740005851" lon="-8.742614602670074">
        <ele>10.06640625</ele>
      </trkpt>
      <trkpt lat="41.352387266233563" lon="-8.742616698145866">
        <ele>10.0703125</ele>
      </trkpt>
      <trkpt lat="41.352636627852917" lon="-8.742714431136847">
        <ele>10.41796875</ele>
      </trkpt>
      <trkpt lat="41.352675016969442" lon="-8.742734547704458">
        <ele>10.50390625</ele>
      </trkpt>
      <trkpt lat="41.352714914828539" lon="-8.742753239348531">
        <ele>10.5859375</ele>
      </trkpt>
      <trkpt lat="41.352753136307001" lon="-8.74276589602232">
        <ele>10.65234375</ele>
      </trkpt>
      <trkpt lat="41.352791441604495" lon="-8.74277570284903">
        <ele>10.70703125</ele>
      </trkpt>
      <trkpt lat="41.352829411625862" lon="-8.742784084752202">
        <ele>10.76171875</ele>
      </trkpt>
      <trkpt lat="41.352867716923356" lon="-8.742799088358879">
        <ele>10.84375</ele>
      </trkpt>
      <trkpt lat="41.352911051362753" lon="-8.742816103622317">
        <ele>10.9375</ele>
      </trkpt>
      <trkpt lat="41.352951200678945" lon="-8.742837645113468">
        <ele>11.05859375</ele>
      </trkpt>
      <trkpt lat="41.352994367480278" lon="-8.742865389212966">
        <ele>11.2109375</ele>
      </trkpt>
      <trkpt lat="41.353028984740376" lon="-8.742891876026988">
        <ele>11.35546875</ele>
      </trkpt>
      <trkpt lat="41.353066954761744" lon="-8.742913417518139">
        <ele>11.48828125</ele>
      </trkpt>
      <trkpt lat="41.353102158755064" lon="-8.742931522428989">
        <ele>11.60546875</ele>
      </trkpt>
      <trkpt lat="41.353140464052558" lon="-8.742952477186918">
        <ele>11.75390625</ele>
      </trkpt>
      <trkpt lat="41.35317767970264" lon="-8.742965972051024">
        <ele>11.953125</ele>
      </trkpt>
      <trkpt lat="41.353214895352721" lon="-8.742974186316133">
        <ele>12.12890625</ele>
      </trkpt>
      <trkpt lat="41.353214895352721" lon="-8.742974186316133">
        <ele>12.12890625</ele>
      </trkpt>
      <trkpt lat="41.353217493742704" lon="-8.742974186316133">
        <ele>12.140625</ele>
      </trkpt>
      <trkpt lat="41.353903971612453" lon="-8.743009557947516">
        <ele>14.76171875</ele>
      </trkpt>
      <trkpt lat="41.354235308244824" lon="-8.743039481341839">
        <ele>16.25</ele>
      </trkpt>
      <trkpt lat="41.35427369736135" lon="-8.74304099008441">
        <ele>16.4296875</ele>
      </trkpt>
      <trkpt lat="41.354315187782049" lon="-8.743050629273057">
        <ele>16.61328125</ele>
      </trkpt>
      <trkpt lat="41.354355504736304" lon="-8.743055826053023">
        <ele>16.796875</ele>
      </trkpt>
      <trkpt lat="41.35439389385283" lon="-8.743059514090419">
        <ele>16.97265625</ele>
      </trkpt>
      <trkpt lat="41.35443203151226" lon="-8.743067309260368">
        <ele>17.13671875</ele>
      </trkpt>
      <trkpt lat="41.354468408972025" lon="-8.743080887943506">
        <ele>17.28515625</ele>
      </trkpt>
      <trkpt lat="41.354508139193058" lon="-8.743093125522137">
        <ele>17.44921875</ele>
      </trkpt>
      <trkpt lat="41.354539319872856" lon="-8.743123132735491">
        <ele>17.54296875</ele>
      </trkpt>
      <trkpt lat="41.354570752009749" lon="-8.743155989795923">
        <ele>17.625</ele>
      </trkpt>
      <trkpt lat="41.354600423946977" lon="-8.743189768865705">
        <ele>17.6953125</ele>
      </trkpt>
      <trkpt lat="41.354624396190047" lon="-8.743226649239659">
        <ele>17.7265625</ele>
      </trkpt>
      <trkpt lat="41.35485514998436" lon="-8.743389006704092">
        <ele>18.109375</ele>
      </trkpt>
      <trkpt lat="41.354856407269835" lon="-8.743389006704092">
        <ele>18.109375</ele>
      </trkpt>
      <trkpt lat="41.354970568791032" lon="-8.743457738310099">
        <ele>18.0234375</ele>
      </trkpt>
      <trkpt lat="41.355100236833096" lon="-8.743573408573866">
        <ele>17.8828125</ele>
      </trkpt>
      <trkpt lat="41.355100236833096" lon="-8.743574330583215">
        <ele>17.87890625</ele>
      </trkpt>
      <trkpt lat="41.355035779997706" lon="-8.743906589224935">
        <ele>17.1171875</ele>
      </trkpt>
      <trkpt lat="41.355590410530567" lon="-8.743932405486703">
        <ele>17.72265625</ele>
      </trkpt>
      <trkpt lat="41.355590997263789" lon="-8.743932405486703">
        <ele>17.72265625</ele>
      </trkpt>
      <trkpt lat="41.355753019452095" lon="-8.743953192606568">
        <ele>18.02734375</ele>
      </trkpt>
      <trkpt lat="41.356143364682794" lon="-8.744057798758149">
        <ele>18.85546875</ele>
      </trkpt>
      <trkpt lat="41.356506133452058" lon="-8.744167098775506">
        <ele>19.703125</ele>
      </trkpt>
      <trkpt lat="41.35679698549211" lon="-8.744287546724081">
        <ele>20.4921875</ele>
      </trkpt>
      <trkpt lat="41.357105104252696" lon="-8.744510253891349">
        <ele>21.8046875</ele>
      </trkpt>
      <trkpt lat="41.357405595481396" lon="-8.744686609134078">
        <ele>23.00390625</ele>
      </trkpt>
      <trkpt lat="41.357405008748174" lon="-8.744686609134078">
        <ele>23.00390625</ele>
      </trkpt>
      <trkpt lat="41.357824690639973" lon="-8.745041666552424">
        <ele>23.27734375</ele>
      </trkpt>
      <trkpt lat="41.35817538946867" lon="-8.745396556332707">
        <ele>23.875</ele>
      </trkpt>
      <trkpt lat="41.35817538946867" lon="-8.745397562161088">
        <ele>23.87890625</ele>
      </trkpt>
      <trkpt lat="41.358681321144104" lon="-8.745858650654554">
        <ele>23.4296875</ele>
      </trkpt>
      <trkpt lat="41.358941243961453" lon="-8.746176911517978">
        <ele>23.16796875</ele>
      </trkpt>
      <trkpt lat="41.358966138213873" lon="-8.746214713901281">
        <ele>23.1484375</ele>
      </trkpt>
      <trkpt lat="41.358991283923388" lon="-8.746253438293934">
        <ele>23.12890625</ele>
      </trkpt>
      <trkpt lat="41.359020452946424" lon="-8.746294509619474">
        <ele>23.1171875</ele>
      </trkpt>
      <trkpt lat="41.359050124883652" lon="-8.746337005868554">
        <ele>23.1015625</ele>
      </trkpt>
      <trkpt lat="41.359077198430896" lon="-8.746373299509287">
        <ele>23.046875</ele>
      </trkpt>
      <trkpt lat="41.359104188159108" lon="-8.746414873749018">
        <ele>22.98046875</ele>
      </trkpt>
      <trkpt lat="41.359135033562779" lon="-8.746461225673556">
        <ele>22.90625</ele>
      </trkpt>
      <trkpt lat="41.359161185100675" lon="-8.74650246463716">
        <ele>22.8359375</ele>
      </trkpt>
      <trkpt lat="41.359190018847585" lon="-8.746544709429145">
        <ele>22.76953125</ele>
      </trkpt>
      <trkpt lat="41.359219690784812" lon="-8.74657723121345">
        <ele>22.7265625</ele>
      </trkpt>
      <trkpt lat="41.35925380513072" lon="-8.746606651693583">
        <ele>22.69921875</ele>
      </trkpt>
      <trkpt lat="41.359288338571787" lon="-8.74662752263248">
        <ele>22.69140625</ele>
      </trkpt>
      <trkpt lat="41.359324883669615" lon="-8.746627271175385">
        <ele>22.734375</ele>
      </trkpt>
      <trkpt lat="41.359367463737726" lon="-8.746625930070877">
        <ele>22.7890625</ele>
      </trkpt>
      <trkpt lat="41.359407361596823" lon="-8.746619056910276">
        <ele>22.8515625</ele>
      </trkpt>
      <trkpt lat="41.359446421265602" lon="-8.746614027768373">
        <ele>22.91015625</ele>
      </trkpt>
      <trkpt lat="41.359485229477286" lon="-8.746614279225469">
        <ele>22.95703125</ele>
      </trkpt>
      <trkpt lat="41.359523870050907" lon="-8.7466143630445">
        <ele>23.00390625</ele>
      </trkpt>
      <trkpt lat="41.359566450119019" lon="-8.746621152386069">
        <ele>23.0390625</ele>
      </trkpt>
      <trkpt lat="41.359603246673942" lon="-8.746650237590075">
        <ele>23.01171875</ele>
      </trkpt>
      <trkpt lat="41.359633421525359" lon="-8.746686279773712">
        <ele>22.9609375</ele>
      </trkpt>
      <trkpt lat="41.35965446010232" lon="-8.746730200946331">
        <ele>22.8828125</ele>
      </trkpt>
      <trkpt lat="41.359670972451568" lon="-8.746775295585394">
        <ele>22.79296875</ele>
      </trkpt>
      <trkpt lat="41.359683210030198" lon="-8.746824664995074">
        <ele>22.69140625</ele>
      </trkpt>
      <trkpt lat="41.359698045998812" lon="-8.746877387166023">
        <ele>22.58203125</ele>
      </trkpt>
      <trkpt lat="41.359716570004821" lon="-8.746922900900245">
        <ele>22.49609375</ele>
      </trkpt>
      <trkpt lat="41.359741883352399" lon="-8.746964139863849">
        <ele>22.42578125</ele>
      </trkpt>
      <trkpt lat="41.359770130366087" lon="-8.747001606971025">
        <ele>22.37109375</ele>
      </trkpt>
      <trkpt lat="41.35979569517076" lon="-8.747028764337301">
        <ele>22.3359375</ele>
      </trkpt>
      <trkpt lat="41.360157458111644" lon="-8.747257422655821">
        <ele>22.6484375</ele>
      </trkpt>
      <trkpt lat="41.360156871378422" lon="-8.747257422655821">
        <ele>22.6484375</ele>
      </trkpt>
      <trkpt lat="41.360445711761713" lon="-8.747455906122923">
        <ele>22.8671875</ele>
      </trkpt>
      <trkpt lat="41.360839074477553" lon="-8.747977511957288">
        <ele>22.796875</ele>
      </trkpt>
      <trkpt lat="41.360999587923288" lon="-8.748172726482153">
        <ele>22.7109375</ele>
      </trkpt>
      <trkpt lat="41.360999587923288" lon="-8.748173648491502">
        <ele>22.70703125</ele>
      </trkpt>
      <trkpt lat="41.361498394981027" lon="-8.748792316764593">
        <ele>22.27734375</ele>
      </trkpt>
      <trkpt lat="41.361497808247805" lon="-8.748792316764593">
        <ele>22.2734375</ele>
      </trkpt>
      <trkpt lat="41.361610041931272" lon="-8.74889868311584">
        <ele>22.35546875</ele>
      </trkpt>
      <trkpt lat="41.36184741742909" lon="-8.74908434227109">
        <ele>22.64453125</ele>
      </trkpt>
      <trkpt lat="41.361848004162312" lon="-8.74908434227109">
        <ele>22.64453125</ele>
      </trkpt>
      <trkpt lat="41.361990328878164" lon="-8.749145865440369">
        <ele>22.9140625</ele>
      </trkpt>
      <trkpt lat="41.362029975280166" lon="-8.749158103018999">
        <ele>22.99609375</ele>
      </trkpt>
      <trkpt lat="41.362067777663469" lon="-8.749171262606978">
        <ele>23.07421875</ele>
      </trkpt>
      <trkpt lat="41.362108094617724" lon="-8.749187523499131">
        <ele>23.14453125</ele>
      </trkpt>
      <trkpt lat="41.36214941740036" lon="-8.749207388609648">
        <ele>23.20703125</ele>
      </trkpt>
      <trkpt lat="41.362186465412378" lon="-8.749223900958896">
        <ele>23.26171875</ele>
      </trkpt>
      <trkpt lat="41.362216975539923" lon="-8.749243598431349">
        <ele>23.28515625</ele>
      </trkpt>
      <trkpt lat="41.362253855913877" lon="-8.749243598431349">
        <ele>23.3984375</ele>
      </trkpt>
      <trkpt lat="41.362292245030403" lon="-8.74924804084003">
        <ele>23.49609375</ele>
      </trkpt>
      <trkpt lat="41.362330298870802" lon="-8.749256674200296">
        <ele>23.54296875</ele>
      </trkpt>
      <trkpt lat="41.362358294427395" lon="-8.749289447441697">
        <ele>23.4765625</ele>
      </trkpt>
      <trkpt lat="41.362368771806359" lon="-8.749345438554883">
        <ele>23.30078125</ele>
      </trkpt>
      <trkpt lat="41.362376064062119" lon="-8.749395059421659">
        <ele>23.140625</ele>
      </trkpt>
      <trkpt lat="41.362397437915206" lon="-8.749439818784595">
        <ele>23.03125</ele>
      </trkpt>
      <trkpt lat="41.362431636080146" lon="-8.749461360275745">
        <ele>23.02734375</ele>
      </trkpt>
      <trkpt lat="41.362451920285821" lon="-8.749469825997949">
        <ele>23.04296875</ele>
      </trkpt>
      <trkpt lat="41.363028595224023" lon="-8.74986863695085">
        <ele>23.2734375</ele>
      </trkpt>
      <trkpt lat="41.363388765603304" lon="-8.750158650800586">
        <ele>23.44140625</ele>
      </trkpt>
      <trkpt lat="41.363683557137847" lon="-8.750317404046655">
        <ele>23.76953125</ele>
      </trkpt>
      <trkpt lat="41.363683557137847" lon="-8.750317404046655">
        <ele>23.76953125</ele>
      </trkpt>
      <trkpt lat="41.364502804353833" lon="-8.750936910510063">
        <ele>22.76953125</ele>
      </trkpt>
      <trkpt lat="41.364502804353833" lon="-8.750937832519412">
        <ele>22.76953125</ele>
      </trkpt>
      <trkpt lat="41.365087358281016" lon="-8.751335386186838">
        <ele>21.6484375</ele>
      </trkpt>
      <trkpt lat="41.365186935290694" lon="-8.751430185511708">
        <ele>21.35546875</ele>
      </trkpt>
      <trkpt lat="41.365187605842948" lon="-8.751428341493011">
        <ele>21.359375</ele>
      </trkpt>
      <trkpt lat="41.365247368812561" lon="-8.75145373865962">
        <ele>21.25</ele>
      </trkpt>
      <trkpt lat="41.36532892473042" lon="-8.751505706459284">
        <ele>21.08203125</ele>
      </trkpt>
      <trkpt lat="41.365349041298032" lon="-8.75155583024025">
        <ele>20.98046875</ele>
      </trkpt>
      <trkpt lat="41.365370666608214" lon="-8.751606624573469">
        <ele>20.8828125</ele>
      </trkpt>
      <trkpt lat="41.365388268604875" lon="-8.751656832173467">
        <ele>20.7890625</ele>
      </trkpt>
      <trkpt lat="41.365405954420567" lon="-8.751705279573798">
        <ele>20.703125</ele>
      </trkpt>
      <trkpt lat="41.365419616922736" lon="-8.751734867691994">
        <ele>20.6484375</ele>
      </trkpt>
      <trkpt lat="41.365585243329406" lon="-8.752132086083293">
        <ele>20.04296875</ele>
      </trkpt>
      <trkpt lat="41.365733770653605" lon="-8.752487730234861">
        <ele>19.15234375</ele>
      </trkpt>
      <trkpt lat="41.365754222497344" lon="-8.752553695812821">
        <ele>18.9921875</ele>
      </trkpt>
      <trkpt lat="41.365770567208529" lon="-8.752600802108645">
        <ele>18.87890625</ele>
      </trkpt>
      <trkpt lat="41.365794120356441" lon="-8.752665845677257">
        <ele>18.72265625</ele>
      </trkpt>
      <trkpt lat="41.365810045972466" lon="-8.752716556191444">
        <ele>18.60546875</ele>
      </trkpt>
      <trkpt lat="41.365827228873968" lon="-8.752766093239188">
        <ele>18.49609375</ele>
      </trkpt>
      <trkpt lat="41.36584441177547" lon="-8.752813450992107">
        <ele>18.390625</ele>
      </trkpt>
      <trkpt lat="41.36586545035243" lon="-8.752854270860553">
        <ele>18.30078125</ele>
      </trkpt>
      <trkpt lat="41.365890931338072" lon="-8.752895006909966">
        <ele>18.21484375</ele>
      </trkpt>
      <trkpt lat="41.365918088704348" lon="-8.752936832606792">
        <ele>18.125</ele>
      </trkpt>
      <trkpt lat="41.365948347374797" lon="-8.752971030771732">
        <ele>18.0546875</ele>
      </trkpt>
      <trkpt lat="41.365979025140405" lon="-8.752996008843184">
        <ele>18.0078125</ele>
      </trkpt>
      <trkpt lat="41.365979611873627" lon="-8.752996930852532">
        <ele>18.0078125</ele>
      </trkpt>
      <trkpt lat="41.366342380642891" lon="-8.753364142030478">
        <ele>17.0625</ele>
      </trkpt>
      <trkpt lat="41.366674387827516" lon="-8.753641750663519">
        <ele>15.890625</ele>
      </trkpt>
      <trkpt lat="41.366909416392446" lon="-8.753792960196733">
        <ele>14.99609375</ele>
      </trkpt>
      <trkpt lat="41.367816673591733" lon="-8.754346584901214">
        <ele>13.3828125</ele>
      </trkpt>
      <trkpt lat="41.368114650249481" lon="-8.754497962072492">
        <ele>13.203125</ele>
      </trkpt>
      <trkpt lat="41.368679255247116" lon="-8.754863832145929">
        <ele>12.5234375</ele>
      </trkpt>
      <trkpt lat="41.369113102555275" lon="-8.755101040005684">
        <ele>11.8671875</ele>
      </trkpt>
      <trkpt lat="41.369113102555275" lon="-8.755100117996335">
        <ele>11.87109375</ele>
      </trkpt>
      <trkpt lat="41.369583997875452" lon="-8.755369512364268">
        <ele>11.1953125</ele>
      </trkpt>
      <trkpt lat="41.369584668427706" lon="-8.755369512364268">
        <ele>11.1953125</ele>
      </trkpt>
      <trkpt lat="41.369733028113842" lon="-8.755475208163261">
        <ele>11.03125</ele>
      </trkpt>
      <trkpt lat="41.369872083887458" lon="-8.755519799888134">
        <ele>10.859375</ele>
      </trkpt>
      <trkpt lat="41.370138796046376" lon="-8.755660699680448">
        <ele>10.27734375</ele>
      </trkpt>
      <trkpt lat="41.370414895936847" lon="-8.755904948338866">
        <ele>9.640625</ele>
      </trkpt>
      <trkpt lat="41.370673226192594" lon="-8.756106868386269">
        <ele>9.28515625</ele>
      </trkpt>
      <trkpt lat="41.370898447930813" lon="-8.756280541419983">
        <ele>9.08203125</ele>
      </trkpt>
      <trkpt lat="41.371153341606259" lon="-8.756539709866047">
        <ele>8.90625</ele>
      </trkpt>
      <trkpt lat="41.371422400698066" lon="-8.756804326549172">
        <ele>8.9765625</ele>
      </trkpt>
      <trkpt lat="41.371769327670336" lon="-8.757221074774861">
        <ele>7.83984375</ele>
      </trkpt>
      <trkpt lat="41.371949287131429" lon="-8.757424084469676">
        <ele>7.10546875</ele>
      </trkpt>
      <trkpt lat="41.371949287131429" lon="-8.757424168288708">
        <ele>7.10546875</ele>
      </trkpt>
      <trkpt lat="41.372509868815541" lon="-8.757970668375492">
        <ele>5.74609375</ele>
      </trkpt>
      <trkpt lat="41.372999623417854" lon="-8.758386913686991">
        <ele>4.68359375</ele>
      </trkpt>
      <trkpt lat="41.372999623417854" lon="-8.758385991677642">
        <ele>4.68359375</ele>
      </trkpt>
      <trkpt lat="41.373283015564084" lon="-8.758636526763439">
        <ele>4.421875</ele>
      </trkpt>
      <trkpt lat="41.373282428830862" lon="-8.758636526763439">
        <ele>4.421875</ele>
      </trkpt>
      <trkpt lat="41.373903779312968" lon="-8.75915352255106">
        <ele>5.32421875</ele>
      </trkpt>
      <trkpt lat="41.373903779312968" lon="-8.75915159471333">
        <ele>5.3203125</ele>
      </trkpt>
      <trkpt lat="41.373972846195102" lon="-8.759201299399137">
        <ele>5.45703125</ele>
      </trkpt>
      <trkpt lat="41.373974606394768" lon="-8.759265672415495">
        <ele>5.53125</ele>
      </trkpt>
      <trkpt lat="41.373975528404117" lon="-8.759325686842203">
        <ele>5.60546875</ele>
      </trkpt>
      <trkpt lat="41.373974271118641" lon="-8.759371871128678">
        <ele>5.65625</ele>
      </trkpt>
      <trkpt lat="41.373956082388759" lon="-8.760023061186075">
        <ele>6.43359375</ele>
      </trkpt>
      <trkpt lat="41.373862707987428" lon="-8.760616919025779">
        <ele>6.96875</ele>
      </trkpt>
      <trkpt lat="41.373845944181085" lon="-8.760794699192047">
        <ele>6.7734375</ele>
      </trkpt>
      <trkpt lat="41.373845944181085" lon="-8.760793777182698">
        <ele>6.77734375</ele>
      </trkpt>
      <trkpt lat="41.373856840655208" lon="-8.760884134098887">
        <ele>6.65625</ele>
      </trkpt>
      <trkpt lat="41.373888775706291" lon="-8.760915985330939">
        <ele>6.578125</ele>
      </trkpt>
      <trkpt lat="41.373919118195772" lon="-8.760949680581689">
        <ele>6.5</ele>
      </trkpt>
      <trkpt lat="41.373951891437173" lon="-8.760975496843457">
        <ele>6.4296875</ele>
      </trkpt>
      <trkpt lat="41.373987933620811" lon="-8.760998882353306">
        <ele>6.4609375</ele>
      </trkpt>
      <trkpt lat="41.374020371586084" lon="-8.76103132031858">
        <ele>6.5</ele>
      </trkpt>
      <trkpt lat="41.374046355485916" lon="-8.761070212349296">
        <ele>6.53125</ele>
      </trkpt>
      <trkpt lat="41.374073009938002" lon="-8.761108936741948">
        <ele>6.5703125</ele>
      </trkpt>
      <trkpt lat="41.374094383791089" lon="-8.761152187362313">
        <ele>6.59765625</ele>
      </trkpt>
      <trkpt lat="41.374112321063876" lon="-8.761202562600374">
        <ele>6.625</ele>
      </trkpt>
      <trkpt lat="41.374127492308617" lon="-8.76124975271523">
        <ele>6.6484375</ele>
      </trkpt>
      <trkpt lat="41.374142831191421" lon="-8.761306749656796">
        <ele>6.67578125</ele>
      </trkpt>
      <trkpt lat="41.374153643846512" lon="-8.76135578379035">
        <ele>6.58203125</ele>
      </trkpt>
      <trkpt lat="41.374164205044508" lon="-8.761407164856791">
        <ele>6.390625</ele>
      </trkpt>
      <trkpt lat="41.374175436794758" lon="-8.76146231777966">
        <ele>6.18359375</ele>
      </trkpt>
      <trkpt lat="41.374185746535659" lon="-8.761515542864799">
        <ele>5.984375</ele>
      </trkpt>
      <trkpt lat="41.374201001599431" lon="-8.761574132367969">
        <ele>5.78125</ele>
      </trkpt>
      <trkpt lat="41.374219860881567" lon="-8.761623334139585">
        <ele>5.640625</ele>
      </trkpt>
      <trkpt lat="41.374239977449179" lon="-8.761672955006361">
        <ele>5.5</ele>
      </trkpt>
      <trkpt lat="41.3742595911026" lon="-8.761719726026058">
        <ele>5.37890625</ele>
      </trkpt>
      <trkpt lat="41.374281467869878" lon="-8.761763060465455">
        <ele>5.28125</ele>
      </trkpt>
      <trkpt lat="41.374309211969376" lon="-8.761804467067122">
        <ele>5.21875</ele>
      </trkpt>
      <trkpt lat="41.374339889734983" lon="-8.761838749051094">
        <ele>5.20703125</ele>
      </trkpt>
      <trkpt lat="41.374368472024798" lon="-8.76187177374959">
        <ele>5.19140625</ele>
      </trkpt>
      <trkpt lat="41.374401245266199" lon="-8.761900523677468">
        <ele>5.21484375</ele>
      </trkpt>
      <trkpt lat="41.374437371268868" lon="-8.761927345767617">
        <ele>5.265625</ele>
      </trkpt>
      <trkpt lat="41.374484896659851" lon="-8.761952994391322">
        <ele>5.375</ele>
      </trkpt>
      <trkpt lat="41.37452244758606" lon="-8.761970177292824">
        <ele>5.47265625</ele>
      </trkpt>
      <trkpt lat="41.374528482556343" lon="-8.761972188949585">
        <ele>5.4921875</ele>
      </trkpt>
      <trkpt lat="41.374902985990047" lon="-8.762206714600325">
        <ele>6.05859375</ele>
      </trkpt>
      <trkpt lat="41.375133823603392" lon="-8.762294556945562">
        <ele>6.25</ele>
      </trkpt>
      <trkpt lat="41.375308921560645" lon="-8.762415256351233">
        <ele>6.21484375</ele>
      </trkpt>
      <trkpt lat="41.375669846311212" lon="-8.762687416747212">
        <ele>6.10546875</ele>
      </trkpt>
      <trkpt lat="41.375669846311212" lon="-8.762687416747212">
        <ele>6.10546875</ele>
      </trkpt>
      <trkpt lat="41.375806219875813" lon="-8.762885062023997">
        <ele>5.39453125</ele>
      </trkpt>
      <trkpt lat="41.375838406383991" lon="-8.76291842199862">
        <ele>5.2734375</ele>
      </trkpt>
      <trkpt lat="41.375870676711202" lon="-8.762958068400621">
        <ele>5.12890625</ele>
      </trkpt>
      <trkpt lat="41.37589892372489" lon="-8.762994529679418">
        <ele>5</ele>
      </trkpt>
      <trkpt lat="41.375925997272134" lon="-8.763033337891102">
        <ele>4.828125</ele>
      </trkpt>
      <trkpt lat="41.375952651724219" lon="-8.763069380074739">
        <ele>4.67578125</ele>
      </trkpt>
      <trkpt lat="41.375980814918876" lon="-8.763108858838677">
        <ele>4.5078125</ele>
      </trkpt>
      <trkpt lat="41.376007972285151" lon="-8.763147918507457">
        <ele>4.34765625</ele>
      </trkpt>
      <trkpt lat="41.37603429146111" lon="-8.763185050338507">
        <ele>4.1953125</ele>
      </trkpt>
      <trkpt lat="41.376066310331225" lon="-8.763231569901109">
        <ele>4.01171875</ele>
      </trkpt>
      <trkpt lat="41.376098748296499" lon="-8.763281190767884">
        <ele>3.81640625</ele>
      </trkpt>
      <trkpt lat="41.376123642548919" lon="-8.763319747522473">
        <ele>3.671875</ele>
      </trkpt>
      <trkpt lat="41.37614962644875" lon="-8.763358723372221">
        <ele>3.5234375</ele>
      </trkpt>
      <trkpt lat="41.376180723309517" lon="-8.763394011184573">
        <ele>3.40234375</ele>
      </trkpt>
      <trkpt lat="41.376208383589983" lon="-8.763428879901767">
        <ele>3.27734375</ele>
      </trkpt>
      <trkpt lat="41.376237887889147" lon="-8.763468358665705">
        <ele>3.140625</ele>
      </trkpt>
      <trkpt lat="41.376266134902835" lon="-8.763516219332814">
        <ele>2.9765625</ele>
      </trkpt>
      <trkpt lat="41.376294298097491" lon="-8.763565169647336">
        <ele>2.80859375</ele>
      </trkpt>
      <trkpt lat="41.376322042196989" lon="-8.76360397785902">
        <ele>2.68359375</ele>
      </trkpt>
      <trkpt lat="41.376351127400994" lon="-8.763637924566865">
        <ele>2.58203125</ele>
      </trkpt>
      <trkpt lat="41.376379290595651" lon="-8.763671619817615">
        <ele>2.484375</ele>
      </trkpt>
      <trkpt lat="41.376408962532878" lon="-8.763706823810935">
        <ele>2.3828125</ele>
      </trkpt>
      <trkpt lat="41.376437544822693" lon="-8.763739177957177">
        <ele>2.296875</ele>
      </trkpt>
      <trkpt lat="41.376440729945898" lon="-8.763742111623287">
        <ele>2.2890625</ele>
      </trkpt>
      <trkpt lat="41.376643236726522" lon="-8.763987952843308">
        <ele>2.4375</ele>
      </trkpt>
      <trkpt lat="41.376703670248389" lon="-8.764076717197895">
        <ele>2.50390625</ele>
      </trkpt>
      <trkpt lat="41.376762678846717" lon="-8.764158356934786">
        <ele>2.55859375</ele>
      </trkpt>
      <trkpt lat="41.37681758031249" lon="-8.764235721901059">
        <ele>2.59765625</ele>
      </trkpt>
      <trkpt lat="41.376876421272755" lon="-8.764310739934444">
        <ele>2.640625</ele>
      </trkpt>
      <trkpt lat="41.376933082938194" lon="-8.764406209811568">
        <ele>2.625</ele>
      </trkpt>
      <trkpt lat="41.376989493146539" lon="-8.764505535364151">
        <ele>2.5859375</ele>
      </trkpt>
      <trkpt lat="41.377041544765234" lon="-8.764593126252294">
        <ele>2.54296875</ele>
      </trkpt>
      <trkpt lat="41.3770951051265" lon="-8.764675268903375">
        <ele>2.515625</ele>
      </trkpt>
      <trkpt lat="41.377168195322156" lon="-8.764757746830583">
        <ele>2.59375</ele>
      </trkpt>
      <trkpt lat="41.377231813967228" lon="-8.764835866168141">
        <ele>2.65234375</ele>
      </trkpt>
      <trkpt lat="41.377290152013302" lon="-8.764926139265299">
        <ele>2.68359375</ele>
      </trkpt>
      <trkpt lat="41.377351591363549" lon="-8.765008701011539">
        <ele>2.76171875</ele>
      </trkpt>
      <trkpt lat="41.377416886389256" lon="-8.765077851712704">
        <ele>2.8828125</ele>
      </trkpt>
      <trkpt lat="41.377485953271389" lon="-8.765143062919378">
        <ele>3.03125</ele>
      </trkpt>
      <trkpt lat="41.377552002668381" lon="-8.765221685171127">
        <ele>3.16796875</ele>
      </trkpt>
      <trkpt lat="41.377611849457026" lon="-8.765294859185815">
        <ele>3.30859375</ele>
      </trkpt>
      <trkpt lat="41.377665158361197" lon="-8.765375073999166">
        <ele>3.43359375</ele>
      </trkpt>
      <trkpt lat="41.377712599933147" lon="-8.765461407601833">
        <ele>3.54296875</ele>
      </trkpt>
      <trkpt lat="41.377754677087069" lon="-8.765556206926703">
        <ele>3.64453125</ele>
      </trkpt>
      <trkpt lat="41.377786444500089" lon="-8.765666764229536">
        <ele>3.70703125</ele>
      </trkpt>
      <trkpt lat="41.377810752019286" lon="-8.765766927972436">
        <ele>3.75390625</ele>
      </trkpt>
      <trkpt lat="41.377839837223291" lon="-8.765871869400144">
        <ele>3.828125</ele>
      </trkpt>
      <trkpt lat="41.37787546031177" lon="-8.765974966809154">
        <ele>3.94140625</ele>
      </trkpt>
      <trkpt lat="41.377909407019615" lon="-8.766087703406811">
        <ele>4.05078125</ele>
      </trkpt>
      <trkpt lat="41.377932038158178" lon="-8.766195243224502">
        <ele>4.125</ele>
      </trkpt>
      <trkpt lat="41.377945197746158" lon="-8.766310997307301">
        <ele>4.15625</ele>
      </trkpt>
      <trkpt lat="41.37796632014215" lon="-8.766424236819148">
        <ele>4.08203125</ele>
      </trkpt>
      <trkpt lat="41.377983586862683" lon="-8.766531776636839">
        <ele>3.96484375</ele>
      </trkpt>
      <trkpt lat="41.378001943230629" lon="-8.766647195443511">
        <ele>3.81640625</ele>
      </trkpt>
      <trkpt lat="41.378017952665687" lon="-8.766753561794758">
        <ele>3.6640625</ele>
      </trkpt>
      <trkpt lat="41.378034297376871" lon="-8.766867388039827">
        <ele>3.484375</ele>
      </trkpt>
      <trkpt lat="41.378053072839975" lon="-8.766994038596749">
        <ele>3.26171875</ele>
      </trkpt>
      <trkpt lat="41.378075117245317" lon="-8.76710501499474">
        <ele>3.0625</ele>
      </trkpt>
      <trkpt lat="41.378107722848654" lon="-8.767223032191396">
        <ele>2.828125</ele>
      </trkpt>
      <trkpt lat="41.378148794174194" lon="-8.767322776839137">
        <ele>2.79296875</ele>
      </trkpt>
      <trkpt lat="41.378194056451321" lon="-8.767420509830117">
        <ele>2.86328125</ele>
      </trkpt>
      <trkpt lat="41.378246108070016" lon="-8.767502903938293">
        <ele>3.00390625</ele>
      </trkpt>
      <trkpt lat="41.378312911838293" lon="-8.767562415450811">
        <ele>3.29296875</ele>
      </trkpt>
      <trkpt lat="41.378394803032279" lon="-8.767590411007404">
        <ele>3.7578125</ele>
      </trkpt>
      <trkpt lat="41.378434281796217" lon="-8.767586136236787">
        <ele>4.03125</ele>
      </trkpt>
      <trkpt lat="41.37870267033577" lon="-8.767694849520922">
        <ele>5.4453125</ele>
      </trkpt>
      <trkpt lat="41.378781879320741" lon="-8.767735920846462">
        <ele>5.81640625</ele>
      </trkpt>
      <trkpt lat="41.378865279257298" lon="-8.767775567248464">
        <ele>6.2109375</ele>
      </trkpt>
      <trkpt lat="41.37894406914711" lon="-8.767817225307226">
        <ele>6.55859375</ele>
      </trkpt>
      <trkpt lat="41.379022607579827" lon="-8.767859386280179">
        <ele>6.9375</ele>
      </trkpt>
      <trkpt lat="41.379101565107703" lon="-8.767897104844451">
        <ele>7.35546875</ele>
      </trkpt>
      <trkpt lat="41.379178930073977" lon="-8.767937170341611">
        <ele>7.7734375</ele>
      </trkpt>
      <trkpt lat="41.379276160150766" lon="-8.768000621348619">
        <ele>8.26953125</ele>
      </trkpt>
      <trkpt lat="41.379350675269961" lon="-8.768061054870486">
        <ele>8.515625</ele>
      </trkpt>
      <trkpt lat="41.379426950588822" lon="-8.768143281340599">
        <ele>8.671875</ele>
      </trkpt>
      <trkpt lat="41.379501465708017" lon="-8.768180664628744">
        <ele>9.02734375</ele>
      </trkpt>
      <trkpt lat="41.379582267254591" lon="-8.76820296049118">
        <ele>9.50390625</ele>
      </trkpt>
      <trkpt lat="41.379661979153752" lon="-8.768236236646771">
        <ele>9.91796875</ele>
      </trkpt>
      <trkpt lat="41.379741188138723" lon="-8.768268087878823">
        <ele>10.3359375</ele>
      </trkpt>
      <trkpt lat="41.379823079332709" lon="-8.768294071778655">
        <ele>10.671875</ele>
      </trkpt>
      <trkpt lat="41.379897762089968" lon="-8.768327096477151">
        <ele>10.78125</ele>
      </trkpt>
      <trkpt lat="41.379932882264256" lon="-8.768344195559621">
        <ele>10.828125</ele>
      </trkpt>
      <trkpt lat="41.380033968016505" lon="-8.768401527777314">
        <ele>10.9140625</ele>
      </trkpt>
      <trkpt lat="41.380714830011129" lon="-8.768901843577623">
        <ele>10.9375</ele>
      </trkpt>
      <trkpt lat="41.381246913224459" lon="-8.769409116357565">
        <ele>12.9140625</ele>
      </trkpt>
      <trkpt lat="41.38176248408854" lon="-8.769821505993605">
        <ele>12.84375</ele>
      </trkpt>
      <trkpt lat="41.38176248408854" lon="-8.769820164889097">
        <ele>12.85546875</ele>
      </trkpt>
      <trkpt lat="41.382759511470795" lon="-8.770440760999918">
        <ele>9.63671875</ele>
      </trkpt>
      <trkpt lat="41.382759595289826" lon="-8.770442102104425">
        <ele>9.6328125</ele>
      </trkpt>
      <trkpt lat="41.383738769218326" lon="-8.770974017679691">
        <ele>6.5078125</ele>
      </trkpt>
      <trkpt lat="41.384526584297419" lon="-8.771442398428917">
        <ele>7.46484375</ele>
      </trkpt>
      <trkpt lat="41.385610029101372" lon="-8.772062407806516">
        <ele>8.30859375</ele>
      </trkpt>
      <trkpt lat="41.385610029101372" lon="-8.77206115052104">
        <ele>8.3125</ele>
      </trkpt>
      <trkpt lat="41.385863833129406" lon="-8.772220993414521">
        <ele>7.40234375</ele>
      </trkpt>
      <trkpt lat="41.385908424854279" lon="-8.772254940122366">
        <ele>7.21875</ele>
      </trkpt>
      <trkpt lat="41.385948490351439" lon="-8.772304058074951">
        <ele>6.9921875</ele>
      </trkpt>
      <trkpt lat="41.385982604697347" lon="-8.772361893206835">
        <ele>6.75390625</ele>
      </trkpt>
      <trkpt lat="41.386020071804523" lon="-8.772416459396482">
        <ele>6.5546875</ele>
      </trkpt>
      <trkpt lat="41.386062568053603" lon="-8.772466499358416">
        <ele>6.39453125</ele>
      </trkpt>
      <trkpt lat="41.386116547510028" lon="-8.772488962858915">
        <ele>6.359375</ele>
      </trkpt>
      <trkpt lat="41.38617237098515" lon="-8.772495416924357">
        <ele>6.37890625</ele>
      </trkpt>
      <trkpt lat="41.386229284107685" lon="-8.772507654502988">
        <ele>6.39453125</ele>
      </trkpt>
      <trkpt lat="41.386282341554761" lon="-8.772524418309331">
        <ele>6.40234375</ele>
      </trkpt>
      <trkpt lat="41.386336656287313" lon="-8.772542523220181">
        <ele>6.41796875</ele>
      </trkpt>
      <trkpt lat="41.386371860280633" lon="-8.772558616474271">
        <ele>6.42578125</ele>
      </trkpt>
      <trkpt lat="41.386984242126346" lon="-8.772894311696291">
        <ele>6.0390625</ele>
      </trkpt>
      <trkpt lat="41.386985164135695" lon="-8.772891545668244">
        <ele>6.04296875</ele>
      </trkpt>
      <trkpt lat="41.387486150488257" lon="-8.773115258663893">
        <ele>6.4140625</ele>
      </trkpt>
      <trkpt lat="41.387487072497606" lon="-8.773121042177081">
        <ele>6.41015625</ele>
      </trkpt>
      <trkpt lat="41.38810439966619" lon="-8.773449864238501">
        <ele>6.87890625</ele>
      </trkpt>
      <trkpt lat="41.38810439966619" lon="-8.773448606953025">
        <ele>6.8828125</ele>
      </trkpt>
      <trkpt lat="41.388334818184376" lon="-8.773586824536324">
        <ele>6.7109375</ele>
      </trkpt>
      <trkpt lat="41.388343954458833" lon="-8.773591602221131">
        <ele>6.703125</ele>
      </trkpt>
      <trkpt lat="41.388603122904897" lon="-8.773744655773044">
        <ele>6.2890625</ele>
      </trkpt>
      <trkpt lat="41.388655006885529" lon="-8.773762760683894">
        <ele>6.23046875</ele>
      </trkpt>
      <trkpt lat="41.388712171465158" lon="-8.773782877251506">
        <ele>6.15625</ele>
      </trkpt>
      <trkpt lat="41.388765480369329" lon="-8.773800311610103">
        <ele>6.0859375</ele>
      </trkpt>
      <trkpt lat="41.388820633292198" lon="-8.77382218837738">
        <ele>5.9921875</ele>
      </trkpt>
      <trkpt lat="41.388885509222746" lon="-8.773848339915276">
        <ele>5.8359375</ele>
      </trkpt>
      <trkpt lat="41.388937225565314" lon="-8.773874156177044">
        <ele>5.6796875</ele>
      </trkpt>
      <trkpt lat="41.388993468135595" lon="-8.773905672132969">
        <ele>5.59765625</ele>
      </trkpt>
      <trkpt lat="41.389042166993022" lon="-8.773937774822116">
        <ele>5.5234375</ele>
      </trkpt>
      <trkpt lat="41.389093631878495" lon="-8.773984210565686">
        <ele>5.3671875</ele>
      </trkpt>
      <trkpt lat="41.389135541394353" lon="-8.774029808118939">
        <ele>5.1953125</ele>
      </trkpt>
      <trkpt lat="41.389164542779326" lon="-8.774092588573694">
        <ele>4.88671875</ele>
      </trkpt>
      <trkpt lat="41.389200752601027" lon="-8.77415344119072">
        <ele>4.609375</ele>
      </trkpt>
      <trkpt lat="41.389245260506868" lon="-8.774198535829782">
        <ele>4.4453125</ele>
      </trkpt>
      <trkpt lat="41.389293624088168" lon="-8.774227201938629">
        <ele>4.38671875</ele>
      </trkpt>
      <trkpt lat="41.389351459220052" lon="-8.774209599941969">
        <ele>4.6328125</ele>
      </trkpt>
      <trkpt lat="41.389402840286493" lon="-8.774189483374357">
        <ele>4.87890625</ele>
      </trkpt>
      <trkpt lat="41.389456652104855" lon="-8.77417154610157">
        <ele>5.11328125</ele>
      </trkpt>
      <trkpt lat="41.389513229951262" lon="-8.774156961590052">
        <ele>5.3359375</ele>
      </trkpt>
      <trkpt lat="41.389570981264114" lon="-8.774144137278199">
        <ele>5.5546875</ele>
      </trkpt>
      <trkpt lat="41.389630073681474" lon="-8.774127876386046">
        <ele>5.79296875</ele>
      </trkpt>
      <trkpt lat="41.389687908813357" lon="-8.774111866950989">
        <ele>6.02734375</ele>
      </trkpt>
      <trkpt lat="41.389744486659765" lon="-8.774099126458168">
        <ele>6.2421875</ele>
      </trkpt>
      <trkpt lat="41.389799974858761" lon="-8.774094097316265">
        <ele>6.3984375</ele>
      </trkpt>
      <trkpt lat="41.389855463057756" lon="-8.774087643250823">
        <ele>6.546875</ele>
      </trkpt>
      <trkpt lat="41.389910448342562" lon="-8.774078506976366">
        <ele>6.71484375</ele>
      </trkpt>
      <trkpt lat="41.389966271817684" lon="-8.774076579138637">
        <ele>6.83984375</ele>
      </trkpt>
      <trkpt lat="41.390027040615678" lon="-8.774072891101241">
        <ele>6.98828125</ele>
      </trkpt>
      <trkpt lat="41.390083702281117" lon="-8.774066353216767">
        <ele>7.14453125</ele>
      </trkpt>
      <trkpt lat="41.390103651210666" lon="-8.774063419550657">
        <ele>7.203125</ele>
      </trkpt>
      <trkpt lat="41.390237174928188" lon="-8.774063335731626">
        <ele>7.48046875</ele>
      </trkpt>
      <trkpt lat="41.390299368649721" lon="-8.774054786190391">
        <ele>7.6640625</ele>
      </trkpt>
      <trkpt lat="41.390358796343207" lon="-8.774044895544648">
        <ele>7.85546875</ele>
      </trkpt>
      <trkpt lat="41.390416882932186" lon="-8.774041626602411">
        <ele>7.99609375</ele>
      </trkpt>
      <trkpt lat="41.390476645901799" lon="-8.774033077061176">
        <ele>8.18359375</ele>
      </trkpt>
      <trkpt lat="41.39053288847208" lon="-8.774024527519941">
        <ele>8.359375</ele>
      </trkpt>
      <trkpt lat="41.390591897070408" lon="-8.774017486721277">
        <ele>8.53515625</ele>
      </trkpt>
      <trkpt lat="41.390646547079086" lon="-8.774013966321945">
        <ele>8.6640625</ele>
      </trkpt>
      <trkpt lat="41.390707148239017" lon="-8.774015810340643">
        <ele>8.7578125</ele>
      </trkpt>
      <trkpt lat="41.390761295333505" lon="-8.774015810340643">
        <ele>8.85546875</ele>
      </trkpt>
      <trkpt lat="41.390818627551198" lon="-8.774019498378038">
        <ele>8.9296875</ele>
      </trkpt>
      <trkpt lat="41.390872858464718" lon="-8.774023186415434">
        <ele>9.00390625</ele>
      </trkpt>
      <trkpt lat="41.39093111269176" lon="-8.774031903594732">
        <ele>9.05078125</ele>
      </trkpt>
      <trkpt lat="41.390989283099771" lon="-8.774049086496234">
        <ele>9.05078125</ele>
      </trkpt>
      <trkpt lat="41.391044603660703" lon="-8.774066269397736">
        <ele>9.0546875</ele>
      </trkpt>
      <trkpt lat="41.391105875372887" lon="-8.77408554777503">
        <ele>9.05859375</ele>
      </trkpt>
      <trkpt lat="41.391160860657692" lon="-8.774103233590722">
        <ele>9.06640625</ele>
      </trkpt>
      <trkpt lat="41.391220791265368" lon="-8.774120751768351">
        <ele>9.09375</ele>
      </trkpt>
      <trkpt lat="41.391279799863696" lon="-8.774143885821104">
        <ele>9.08984375</ele>
      </trkpt>
      <trkpt lat="41.391333946958184" lon="-8.77416810952127">
        <ele>9.08203125</ele>
      </trkpt>
      <trkpt lat="41.391379460692406" lon="-8.77420918084681">
        <ele>8.9765625</ele>
      </trkpt>
      <trkpt lat="41.391430087387562" lon="-8.774252934381366">
        <ele>8.8828125</ele>
      </trkpt>
      <trkpt lat="41.391483815386891" lon="-8.774288138374686">
        <ele>8.85546875</ele>
      </trkpt>
      <trkpt lat="41.391540728509426" lon="-8.774325354024768">
        <ele>8.84765625</ele>
      </trkpt>
      <trkpt lat="41.391597054898739" lon="-8.774357959628105">
        <ele>8.8828125</ele>
      </trkpt>
      <trkpt lat="41.391648100689054" lon="-8.774381345137954">
        <ele>8.95703125</ele>
      </trkpt>
      <trkpt lat="41.391698811203241" lon="-8.77440950833261">
        <ele>9.02734375</ele>
      </trkpt>
      <trkpt lat="41.391706019639969" lon="-8.77441780641675">
        <ele>9.0234375</ele>
      </trkpt>
      <trkpt lat="41.391837783157825" lon="-8.774492824450135">
        <ele>9.28515625</ele>
      </trkpt>
      <trkpt lat="41.391837783157825" lon="-8.774491902440786">
        <ele>9.2890625</ele>
      </trkpt>
      <trkpt lat="41.392078595235944" lon="-8.774734390899539">
        <ele>9.40234375</ele>
      </trkpt>
      <trkpt lat="41.392108518630266" lon="-8.77476816996932">
        <ele>9.26953125</ele>
      </trkpt>
      <trkpt lat="41.392138861119747" lon="-8.77480773255229">
        <ele>9.08984375</ele>
      </trkpt>
      <trkpt lat="41.392166437581182" lon="-8.774852911010385">
        <ele>8.84375</ele>
      </trkpt>
      <trkpt lat="41.39219569042325" lon="-8.774892473593354">
        <ele>8.64453125</ele>
      </trkpt>
      <trkpt lat="41.392226535826921" lon="-8.774926839396358">
        <ele>8.48828125</ele>
      </trkpt>
      <trkpt lat="41.392257800325751" lon="-8.774964977055788">
        <ele>8.296875</ele>
      </trkpt>
      <trkpt lat="41.392289903014898" lon="-8.775002444162965">
        <ele>8.07421875</ele>
      </trkpt>
      <trkpt lat="41.392323346808553" lon="-8.775030607357621">
        <ele>7.8671875</ele>
      </trkpt>
      <trkpt lat="41.392356874421239" lon="-8.775058267638087">
        <ele>7.68359375</ele>
      </trkpt>
      <trkpt lat="41.392391407862306" lon="-8.775087520480156">
        <ele>7.50390625</ele>
      </trkpt>
      <trkpt lat="41.392424264922738" lon="-8.77511409111321">
        <ele>7.359375</ele>
      </trkpt>
      <trkpt lat="41.392458714544773" lon="-8.775140661746264">
        <ele>7.23046875</ele>
      </trkpt>
      <trkpt lat="41.392495343461633" lon="-8.775163879618049">
        <ele>7.14453125</ele>
      </trkpt>
      <trkpt lat="41.392536330968142" lon="-8.775195730850101">
        <ele>7.03125</ele>
      </trkpt>
      <trkpt lat="41.39256751164794" lon="-8.775224480777979">
        <ele>6.9296875</ele>
      </trkpt>
      <trkpt lat="41.392600452527404" lon="-8.775259936228395">
        <ele>6.81640625</ele>
      </trkpt>
      <trkpt lat="41.392630962654948" lon="-8.775299331173301">
        <ele>6.69140625</ele>
      </trkpt>
      <trkpt lat="41.392660215497017" lon="-8.775340402498841">
        <ele>6.57421875</ele>
      </trkpt>
      <trkpt lat="41.392695754766464" lon="-8.775376360863447">
        <ele>6.52734375</ele>
      </trkpt>
      <trkpt lat="41.39272584579885" lon="-8.775406535714865">
        <ele>6.50390625</ele>
      </trkpt>
      <trkpt lat="41.392757361754775" lon="-8.775437045842409">
        <ele>6.50390625</ele>
      </trkpt>
      <trkpt lat="41.392788626253605" lon="-8.775472920387983">
        <ele>6.49609375</ele>
      </trkpt>
      <trkpt lat="41.392824416980147" lon="-8.775512147694826">
        <ele>6.55078125</ele>
      </trkpt>
      <trkpt lat="41.39285777695477" lon="-8.775557409971952">
        <ele>6.61328125</ele>
      </trkpt>
      <trkpt lat="41.392891807481647" lon="-8.775591440498829">
        <ele>6.7109375</ele>
      </trkpt>
      <trkpt lat="41.39292273670435" lon="-8.775627985596657">
        <ele>6.80078125</ele>
      </trkpt>
      <trkpt lat="41.392956180498004" lon="-8.775663860142231">
        <ele>6.9140625</ele>
      </trkpt>
      <trkpt lat="41.392992222681642" lon="-8.775697639212012">
        <ele>7.05859375</ele>
      </trkpt>
      <trkpt lat="41.393022648990154" lon="-8.775732424110174">
        <ele>7.17578125</ele>
      </trkpt>
      <trkpt lat="41.393056260421872" lon="-8.775771735236049">
        <ele>7.31640625</ele>
      </trkpt>
      <trkpt lat="41.393085597082973" lon="-8.77580794505775">
        <ele>7.4453125</ele>
      </trkpt>
      <trkpt lat="41.393117113038898" lon="-8.775842310860753">
        <ele>7.5859375</ele>
      </trkpt>
      <trkpt lat="41.393147371709347" lon="-8.775879442691803">
        <ele>7.6484375</ele>
      </trkpt>
      <trkpt lat="41.393182827159762" lon="-8.775916406884789">
        <ele>7.73828125</ele>
      </trkpt>
      <trkpt lat="41.393218701705337" lon="-8.775958567857742">
        <ele>7.83203125</ele>
      </trkpt>
      <trkpt lat="41.393256420269608" lon="-8.77599217928946">
        <ele>7.9453125</ele>
      </trkpt>
      <trkpt lat="41.393297994509339" lon="-8.776039620861411">
        <ele>8.07421875</ele>
      </trkpt>
      <trkpt lat="41.393331773579121" lon="-8.776070633903146">
        <ele>8.19140625</ele>
      </trkpt>
      <trkpt lat="41.393360188230872" lon="-8.776106759905815">
        <ele>8.29296875</ele>
      </trkpt>
      <trkpt lat="41.393396984785795" lon="-8.776142718270421">
        <ele>8.43359375</ele>
      </trkpt>
      <trkpt lat="41.393430344760418" lon="-8.776172054931521">
        <ele>8.56640625</ele>
      </trkpt>
      <trkpt lat="41.393469152972102" lon="-8.776215221732855">
        <ele>8.73046875</ele>
      </trkpt>
      <trkpt lat="41.393497316166759" lon="-8.776251180097461">
        <ele>8.8515625</ele>
      </trkpt>
      <trkpt lat="41.393527239561081" lon="-8.776289569213986">
        <ele>8.9921875</ele>
      </trkpt>
      <trkpt lat="41.393556240946054" lon="-8.77632393501699">
        <ele>9.09765625</ele>
      </trkpt>
      <trkpt lat="41.393585409969091" lon="-8.776361737400293">
        <ele>8.984375</ele>
      </trkpt>
      <trkpt lat="41.393614578992128" lon="-8.776399791240692">
        <ele>8.8671875</ele>
      </trkpt>
      <trkpt lat="41.393647436052561" lon="-8.776436587795615">
        <ele>8.7734375</ele>
      </trkpt>
      <trkpt lat="41.393680041655898" lon="-8.776468019932508">
        <ele>8.7109375</ele>
      </trkpt>
      <trkpt lat="41.393714072182775" lon="-8.776503978297114">
        <ele>8.6171875</ele>
      </trkpt>
      <trkpt lat="41.393751120194793" lon="-8.776540691033006">
        <ele>8.53125</ele>
      </trkpt>
      <trkpt lat="41.393785234540701" lon="-8.776560975238681">
        <ele>8.54296875</ele>
      </trkpt>
      <trkpt lat="41.394022526219487" lon="-8.776706736534834">
        <ele>8.37890625</ele>
      </trkpt>
      <trkpt lat="41.394608085975051" lon="-8.777008820325136">
        <ele>8.66796875</ele>
      </trkpt>
      <trkpt lat="41.394943781197071" lon="-8.777192216366529">
        <ele>8.91015625</ele>
      </trkpt>
      <trkpt lat="41.394943781197071" lon="-8.777193138375878">
        <ele>8.90234375</ele>
      </trkpt>
      <trkpt lat="41.395632605999708" lon="-8.777599660679698">
        <ele>6.8046875</ele>
      </trkpt>
      <trkpt lat="41.395632605999708" lon="-8.777598738670349">
        <ele>6.8125</ele>
      </trkpt>
      <trkpt lat="41.396181033924222" lon="-8.777941558510065">
        <ele>6.22265625</ele>
      </trkpt>
      <trkpt lat="41.396181033924222" lon="-8.777940720319748">
        <ele>6.2265625</ele>
      </trkpt>
      <trkpt lat="41.396514046937227" lon="-8.778117327019572">
        <ele>6.05078125</ele>
      </trkpt>
      <trkpt lat="41.396514633670449" lon="-8.778117410838604">
        <ele>6.05078125</ele>
      </trkpt>
      <trkpt lat="41.396714374423027" lon="-8.778204079717398">
        <ele>5.12109375</ele>
      </trkpt>
      <trkpt lat="41.396743878722191" lon="-8.77822277136147">
        <ele>4.95703125</ele>
      </trkpt>
      <trkpt lat="41.396775897592306" lon="-8.778244480490685">
        <ele>4.76953125</ele>
      </trkpt>
      <trkpt lat="41.396809592843056" lon="-8.778258729726076">
        <ele>4.625</ele>
      </trkpt>
      <trkpt lat="41.396839851513505" lon="-8.778286054730415">
        <ele>4.4140625</ele>
      </trkpt>
      <trkpt lat="41.396870277822018" lon="-8.778314720839262">
        <ele>4.19921875</ele>
      </trkpt>
      <trkpt lat="41.396904727444053" lon="-8.778346739709377">
        <ele>3.9609375</ele>
      </trkpt>
      <trkpt lat="41.396932890638709" lon="-8.778380183503032">
        <ele>3.73046875</ele>
      </trkpt>
      <trkpt lat="41.396961975842714" lon="-8.778411950916052">
        <ele>3.51171875</ele>
      </trkpt>
      <trkpt lat="41.396994749084115" lon="-8.778451010584831">
        <ele>3.25</ele>
      </trkpt>
      <trkpt lat="41.397025510668755" lon="-8.778480095788836">
        <ele>3.046875</ele>
      </trkpt>
      <trkpt lat="41.397061133757234" lon="-8.778507420793176">
        <ele>2.84765625</ele>
      </trkpt>
      <trkpt lat="41.397096086293459" lon="-8.778533069416881">
        <ele>2.66015625</ele>
      </trkpt>
      <trkpt lat="41.397133134305477" lon="-8.778550755232573">
        <ele>2.51171875</ele>
      </trkpt>
      <trkpt lat="41.397172110155225" lon="-8.778573554009199">
        <ele>2.3359375</ele>
      </trkpt>
      <trkpt lat="41.397209828719497" lon="-8.77860582433641">
        <ele>2.12109375</ele>
      </trkpt>
      <trkpt lat="41.397240674123168" lon="-8.778636166825891">
        <ele>1.92578125</ele>
      </trkpt>
      <trkpt lat="41.397275123745203" lon="-8.778666174039245">
        <ele>1.73046875</ele>
      </trkpt>
      <trkpt lat="41.397311082109809" lon="-8.778693247586489">
        <ele>1.55078125</ele>
      </trkpt>
      <trkpt lat="41.3973477948457" lon="-8.778716716915369">
        <ele>1.390625</ele>
      </trkpt>
      <trkpt lat="41.397387608885765" lon="-8.7787323910743">
        <ele>1.265625</ele>
      </trkpt>
      <trkpt lat="41.397426249459386" lon="-8.778728954493999">
        <ele>1.2265625</ele>
      </trkpt>
      <trkpt lat="41.397467069327831" lon="-8.778717052191496">
        <ele>1.2265625</ele>
      </trkpt>
      <trkpt lat="41.397505961358547" lon="-8.7787064909935">
        <ele>1.22265625</ele>
      </trkpt>
      <trkpt lat="41.397545523941517" lon="-8.778694253414869">
        <ele>1.22265625</ele>
      </trkpt>
      <trkpt lat="41.397588020190597" lon="-8.778682686388493">
        <ele>1.21484375</ele>
      </trkpt>
      <trkpt lat="41.39762875624001" lon="-8.778664832934737">
        <ele>1.234375</ele>
      </trkpt>
      <trkpt lat="41.397666977718472" lon="-8.778646560385823">
        <ele>1.2578125</ele>
      </trkpt>
      <trkpt lat="41.397704193368554" lon="-8.778627282008529">
        <ele>1.28515625</ele>
      </trkpt>
      <trkpt lat="41.397743169218302" lon="-8.778604483231902">
        <ele>1.3203125</ele>
      </trkpt>
      <trkpt lat="41.397777870297432" lon="-8.77857992425561">
        <ele>1.37109375</ele>
      </trkpt>
      <trkpt lat="41.397814834490418" lon="-8.778552263975143">
        <ele>1.421875</ele>
      </trkpt>
      <trkpt lat="41.397854061797261" lon="-8.77852669917047">
        <ele>1.46484375</ele>
      </trkpt>
      <trkpt lat="41.397890020161867" lon="-8.778504319489002">
        <ele>1.4921875</ele>
      </trkpt>
      <trkpt lat="41.397927654907107" lon="-8.778477245941758">
        <ele>1.53515625</ele>
      </trkpt>
      <trkpt lat="41.39796445146203" lon="-8.778454782441258">
        <ele>1.55859375</ele>
      </trkpt>
      <trkpt lat="41.398001248016953" lon="-8.778433576226234">
        <ele>1.57421875</ele>
      </trkpt>
      <trkpt lat="41.398034943267703" lon="-8.778410358354449">
        <ele>1.6015625</ele>
      </trkpt>
      <trkpt lat="41.398072242736816" lon="-8.778379764407873">
        <ele>1.6484375</ele>
      </trkpt>
      <trkpt lat="41.39811054803431" lon="-8.778348164632916">
        <ele>1.69140625</ele>
      </trkpt>
      <trkpt lat="41.398147344589233" lon="-8.778318660333753">
        <ele>1.7421875</ele>
      </trkpt>
      <trkpt lat="41.398186236619949" lon="-8.778290161862969">
        <ele>1.78515625</ele>
      </trkpt>
      <trkpt lat="41.39822093769908" lon="-8.778263004496694">
        <ele>1.8203125</ele>
      </trkpt>
      <trkpt lat="41.398259913548827" lon="-8.778237858787179">
        <ele>1.83984375</ele>
      </trkpt>
      <trkpt lat="41.398301068693399" lon="-8.778212210163474">
        <ele>1.84765625</ele>
      </trkpt>
      <trkpt lat="41.39833576977253" lon="-8.77818756736815">
        <ele>1.859375</ele>
      </trkpt>
      <trkpt lat="41.398375919088721" lon="-8.778167283162475">
        <ele>1.84375</ele>
      </trkpt>
      <trkpt lat="41.398413721472025" lon="-8.778148591518402">
        <ele>1.82421875</ele>
      </trkpt>
      <trkpt lat="41.398452697321773" lon="-8.778128391131759">
        <ele>1.80078125</ele>
      </trkpt>
      <trkpt lat="41.398489493876696" lon="-8.77811087295413">
        <ele>1.7734375</ele>
      </trkpt>
      <trkpt lat="41.398524697870016" lon="-8.778088157996535">
        <ele>1.75390625</ele>
      </trkpt>
      <trkpt lat="41.398559231311083" lon="-8.778060162439942">
        <ele>1.74609375</ele>
      </trkpt>
      <trkpt lat="41.398595944046974" lon="-8.778037112206221">
        <ele>1.71875</ele>
      </trkpt>
      <trkpt lat="41.398632740601897" lon="-8.778018336743116">
        <ele>1.67578125</ele>
      </trkpt>
      <trkpt lat="41.398667944595218" lon="-8.777990257367492">
        <ele>1.6484375</ele>
      </trkpt>
      <trkpt lat="41.39870029874146" lon="-8.77796427346766">
        <ele>1.6875</ele>
      </trkpt>
      <trkpt lat="41.398731144145131" lon="-8.777935607358813">
        <ele>1.76171875</ele>
      </trkpt>
      <trkpt lat="41.398762492462993" lon="-8.777905432507396">
        <ele>1.8359375</ele>
      </trkpt>
      <trkpt lat="41.398806413635612" lon="-8.777866624295712">
        <ele>1.91796875</ele>
      </trkpt>
      <trkpt lat="41.398842372000217" lon="-8.777833096683025">
        <ele>1.9921875</ele>
      </trkpt>
      <trkpt lat="41.39887573197484" lon="-8.77780401147902">
        <ele>2.046875</ele>
      </trkpt>
      <trkpt lat="41.398911019787192" lon="-8.777766628190875">
        <ele>2.1328125</ele>
      </trkpt>
      <trkpt lat="41.398942787200212" lon="-8.777734693139791">
        <ele>2.203125</ele>
      </trkpt>
      <trkpt lat="41.398974973708391" lon="-8.777704099193215">
        <ele>2.296875</ele>
      </trkpt>
      <trkpt lat="41.399006070569158" lon="-8.777675935998559">
        <ele>2.37890625</ele>
      </trkpt>
      <trkpt lat="41.399010010063648" lon="-8.7776720803231">
        <ele>2.390625</ele>
      </trkpt>
      <trkpt lat="41.39912978745997" lon="-8.777681048959494">
        <ele>2.15234375</ele>
      </trkpt>
      <trkpt lat="41.399164153262973" lon="-8.777702506631613">
        <ele>2</ele>
      </trkpt>
      <trkpt lat="41.399200363084674" lon="-8.77773268148303">
        <ele>1.80859375</ele>
      </trkpt>
      <trkpt lat="41.399235902354121" lon="-8.777760257944465">
        <ele>1.6328125</ele>
      </trkpt>
      <trkpt lat="41.399268172681332" lon="-8.77778590656817">
        <ele>1.47265625</ele>
      </trkpt>
      <trkpt lat="41.399308489635587" lon="-8.777801999822259">
        <ele>1.34375</ele>
      </trkpt>
      <trkpt lat="41.399350734427571" lon="-8.77782161347568">
        <ele>1.19921875</ele>
      </trkpt>
      <trkpt lat="41.399387950077653" lon="-8.777839383110404">
        <ele>1.0703125</ele>
      </trkpt>
      <trkpt lat="41.399427931755781" lon="-8.777850866317749">
        <ele>0.96875</ele>
      </trkpt>
      <trkpt lat="41.399469338357449" lon="-8.777862181887031">
        <ele>0.86328125</ele>
      </trkpt>
      <trkpt lat="41.399509906768799" lon="-8.777871821075678">
        <ele>0.76953125</ele>
      </trkpt>
      <trkpt lat="41.39954854734242" lon="-8.777882130816579">
        <ele>0.67578125</ele>
      </trkpt>
      <trkpt lat="41.399589953944087" lon="-8.777885902673006">
        <ele>0.60546875</ele>
      </trkpt>
      <trkpt lat="41.399627923965454" lon="-8.777888501062989">
        <ele>0.546875</ele>
      </trkpt>
      <trkpt lat="41.399668240919709" lon="-8.777888501062989">
        <ele>0.4921875</ele>
      </trkpt>
      <trkpt lat="41.399708557873964" lon="-8.777888501062989">
        <ele>0.4375</ele>
      </trkpt>
      <trkpt lat="41.399750802665949" lon="-8.777889758348465">
        <ele>0.375</ele>
      </trkpt>
      <trkpt lat="41.399794723838568" lon="-8.777888417243958">
        <ele>0.34765625</ele>
      </trkpt>
      <trkpt lat="41.399833280593157" lon="-8.77788414247334">
        <ele>0.36328125</ele>
      </trkpt>
      <trkpt lat="41.399873346090317" lon="-8.777877520769835">
        <ele>0.38671875</ele>
      </trkpt>
      <trkpt lat="41.39991114847362" lon="-8.777864445000887">
        <ele>0.43359375</ele>
      </trkpt>
      <trkpt lat="41.399947945028543" lon="-8.777852123603225">
        <ele>0.48046875</ele>
      </trkpt>
      <trkpt lat="41.399985160678625" lon="-8.77783770672977">
        <ele>0.53125</ele>
      </trkpt>
      <trkpt lat="41.400028746575117" lon="-8.777829995378852">
        <ele>0.55859375</ele>
      </trkpt>
      <trkpt lat="41.400070320814848" lon="-8.777829827740788">
        <ele>0.55859375</ele>
      </trkpt>
      <trkpt lat="41.400116086006165" lon="-8.777828486636281">
        <ele>0.5625</ele>
      </trkpt>
      <trkpt lat="41.40015983954072" lon="-8.777828486636281">
        <ele>0.5625</ele>
      </trkpt>
      <trkpt lat="41.400198396295309" lon="-8.777827061712742">
        <ele>0.5703125</ele>
      </trkpt>
      <trkpt lat="41.400237120687962" lon="-8.777827061712742">
        <ele>0.5703125</ele>
      </trkpt>
      <trkpt lat="41.400281377136707" lon="-8.777828402817249">
        <ele>0.5625</ele>
      </trkpt>
      <trkpt lat="41.40032253228128" lon="-8.777826055884361">
        <ele>0.57421875</ele>
      </trkpt>
      <trkpt lat="41.400360418483615" lon="-8.777820188552141">
        <ele>0.59375</ele>
      </trkpt>
      <trkpt lat="41.400395538657904" lon="-8.77780350856483">
        <ele>0.65234375</ele>
      </trkpt>
      <trkpt lat="41.400415990501642" lon="-8.777763191610575">
        <ele>0.80078125</ele>
      </trkpt>
      <trkpt lat="41.400425797328353" lon="-8.777713570743799">
        <ele>0.9765625</ele>
      </trkpt>
      <trkpt lat="41.40043786726892" lon="-8.77766327932477">
        <ele>1.16015625</ele>
      </trkpt>
      <trkpt lat="41.400453876703978" lon="-8.777615921571851">
        <ele>1.328125</ele>
      </trkpt>
      <trkpt lat="41.400477597489953" lon="-8.777578286826611">
        <ele>1.46484375</ele>
      </trkpt>
      <trkpt lat="41.400515818968415" lon="-8.777571832761168">
        <ele>1.48828125</ele>
      </trkpt>
      <trkpt lat="41.400553872808814" lon="-8.777571748942137">
        <ele>1.48828125</ele>
      </trkpt>
      <trkpt lat="41.400593603029847" lon="-8.777591278776526">
        <ele>1.41796875</ele>
      </trkpt>
      <trkpt lat="41.400630567222834" lon="-8.777612401172519">
        <ele>1.40625</ele>
      </trkpt>
      <trkpt lat="41.400671890005469" lon="-8.77762614749372">
        <ele>1.4765625</ele>
      </trkpt>
      <trkpt lat="41.40071296133101" lon="-8.777641654014587">
        <ele>1.5390625</ele>
      </trkpt>
      <trkpt lat="41.400752943009138" lon="-8.777653640136123">
        <ele>1.609375</ele>
      </trkpt>
      <trkpt lat="41.400793259963393" lon="-8.777666045352817">
        <ele>1.6796875</ele>
      </trkpt>
      <trkpt lat="41.400834415107965" lon="-8.777680294588208">
        <ele>1.73828125</ele>
      </trkpt>
      <trkpt lat="41.400871127843857" lon="-8.777694879099727">
        <ele>1.78515625</ele>
      </trkpt>
      <trkpt lat="41.400913624092937" lon="-8.777711223810911">
        <ele>1.83984375</ele>
      </trkpt>
      <trkpt lat="41.400952683761716" lon="-8.777726562693715">
        <ele>1.88671875</ele>
      </trkpt>
      <trkpt lat="41.400989396497607" lon="-8.777744248509407">
        <ele>1.9140625</ele>
      </trkpt>
      <trkpt lat="41.401027282699943" lon="-8.777759838849306">
        <ele>1.953125</ele>
      </trkpt>
      <trkpt lat="41.401064330711961" lon="-8.7777688074857">
        <ele>2.015625</ele>
      </trkpt>
      <trkpt lat="41.401086794212461" lon="-8.777775261551142">
        <ele>2.05078125</ele>
      </trkpt>
      <trkpt lat="41.401760447770357" lon="-8.7780986353755">
        <ele>2.05859375</ele>
      </trkpt>
      <trkpt lat="41.402216758579016" lon="-8.778317905962467">
        <ele>1.7578125</ele>
      </trkpt>
      <trkpt lat="41.402216758579016" lon="-8.778318911790848">
        <ele>1.7578125</ele>
      </trkpt>
      <trkpt lat="41.402709195390344" lon="-8.778521502390504">
        <ele>2.296875</ele>
      </trkpt>
      <trkpt lat="41.402709865942597" lon="-8.778521502390504">
        <ele>2.30078125</ele>
      </trkpt>
      <trkpt lat="41.403047824278474" lon="-8.77870062366128">
        <ele>2.41015625</ele>
      </trkpt>
      <trkpt lat="41.403289726004004" lon="-8.77885015681386">
        <ele>2.57421875</ele>
      </trkpt>
      <trkpt lat="41.403290312737226" lon="-8.778852084651589">
        <ele>2.5703125</ele>
      </trkpt>
      <trkpt lat="41.404021047055721" lon="-8.779354076832533">
        <ele>3.23046875</ele>
      </trkpt>
      <trkpt lat="41.404021047055721" lon="-8.779354998841882">
        <ele>3.2265625</ele>
      </trkpt>
      <trkpt lat="41.404816573485732" lon="-8.77978834323585">
        <ele>3.55859375</ele>
      </trkpt>
      <trkpt lat="41.404816573485732" lon="-8.779787421226501">
        <ele>3.55859375</ele>
      </trkpt>
      <trkpt lat="41.405561892315745" lon="-8.780143819749355">
        <ele>3.171875</ele>
      </trkpt>
      <trkpt lat="41.405599359422922" lon="-8.780132923275232">
        <ele>3.25390625</ele>
      </trkpt>
      <trkpt lat="41.405635066330433" lon="-8.780105849727988">
        <ele>3.3984375</ele>
      </trkpt>
      <trkpt lat="41.405664905905724" lon="-8.780072489753366">
        <ele>3.5546875</ele>
      </trkpt>
      <trkpt lat="41.405692650005221" lon="-8.780033430084586">
        <ele>3.71875</ele>
      </trkpt>
      <trkpt lat="41.405719220638275" lon="-8.779989928007126">
        <ele>3.890625</ele>
      </trkpt>
      <trkpt lat="41.405748557299376" lon="-8.779948772862554">
        <ele>4.05078125</ele>
      </trkpt>
      <trkpt lat="41.405779737979174" lon="-8.779921280220151">
        <ele>4.16015625</ele>
      </trkpt>
      <trkpt lat="41.405818210914731" lon="-8.779924884438515">
        <ele>4.1796875</ele>
      </trkpt>
      <trkpt lat="41.405856935307384" lon="-8.779938463121653">
        <ele>4.171875</ele>
      </trkpt>
      <trkpt lat="41.405893480405211" lon="-8.779951957985759">
        <ele>4.1640625</ele>
      </trkpt>
      <trkpt lat="41.405933042988181" lon="-8.779970649629831">
        <ele>4.1484375</ele>
      </trkpt>
      <trkpt lat="41.405973359942436" lon="-8.779986826702952">
        <ele>4.14453125</ele>
      </trkpt>
      <trkpt lat="41.406011832877994" lon="-8.780015157535672">
        <ele>4.11328125</ele>
      </trkpt>
      <trkpt lat="41.406050808727741" lon="-8.780031753703952">
        <ele>4.1171875</ele>
      </trkpt>
      <trkpt lat="41.406089784577489" lon="-8.780048349872231">
        <ele>4.12109375</ele>
      </trkpt>
      <trkpt lat="41.406129850074649" lon="-8.780066538602114">
        <ele>4.1328125</ele>
      </trkpt>
      <trkpt lat="41.406170167028904" lon="-8.78008590079844">
        <ele>4.140625</ele>
      </trkpt>
      <trkpt lat="41.406206376850605" lon="-8.780111381784081">
        <ele>4.140625</ele>
      </trkpt>
      <trkpt lat="41.406242419034243" lon="-8.780132923275232">
        <ele>4.1484375</ele>
      </trkpt>
      <trkpt lat="41.406278628855944" lon="-8.780155889689922">
        <ele>4.16015625</ele>
      </trkpt>
      <trkpt lat="41.406311402097344" lon="-8.780189165845513">
        <ele>4.15625</ele>
      </trkpt>
      <trkpt lat="41.406344594433904" lon="-8.780218083411455">
        <ele>4.1640625</ele>
      </trkpt>
      <trkpt lat="41.406383151188493" lon="-8.780257813632488">
        <ele>4.17578125</ele>
      </trkpt>
      <trkpt lat="41.406417600810528" lon="-8.780286815017462">
        <ele>4.19921875</ele>
      </trkpt>
      <trkpt lat="41.406455906108022" lon="-8.780312547460198">
        <ele>4.2265625</ele>
      </trkpt>
      <trkpt lat="41.406496055424213" lon="-8.780334424227476">
        <ele>4.25</ele>
      </trkpt>
      <trkpt lat="41.406532181426883" lon="-8.780362335965037">
        <ele>4.2578125</ele>
      </trkpt>
      <trkpt lat="41.406567301601171" lon="-8.780388822779059">
        <ele>4.26953125</ele>
      </trkpt>
      <trkpt lat="41.406605942174792" lon="-8.780418578535318">
        <ele>4.28125</ele>
      </trkpt>
      <trkpt lat="41.406649108976126" lon="-8.780459817498922">
        <ele>4.28125</ele>
      </trkpt>
      <trkpt lat="41.406685234978795" lon="-8.780496446415782">
        <ele>4.2578125</ele>
      </trkpt>
      <trkpt lat="41.406695963814855" lon="-8.780506420880556">
        <ele>4.2421875</ele>
      </trkpt>
      <trkpt lat="41.406788164749742" lon="-8.780612284317613">
        <ele>4.0859375</ele>
      </trkpt>
      <trkpt lat="41.406832588836551" lon="-8.780663078650832">
        <ele>4.03125</ele>
      </trkpt>
      <trkpt lat="41.406883466988802" lon="-8.780733151361346">
        <ele>3.95703125</ele>
      </trkpt>
      <trkpt lat="41.406931914389133" lon="-8.780794255435467">
        <ele>3.91796875</ele>
      </trkpt>
      <trkpt lat="41.40698354691267" lon="-8.780843038111925">
        <ele>3.92578125</ele>
      </trkpt>
      <trkpt lat="41.407041382044554" lon="-8.780882516875863">
        <ele>3.98046875</ele>
      </trkpt>
      <trkpt lat="41.40708957798779" lon="-8.780915876850486">
        <ele>4.03515625</ele>
      </trkpt>
      <trkpt lat="41.407136349007487" lon="-8.78095468506217">
        <ele>4.08984375</ele>
      </trkpt>
      <trkpt lat="41.407186891883612" lon="-8.780981590971351">
        <ele>4.1796875</ele>
      </trkpt>
      <trkpt lat="41.407247493043542" lon="-8.781007574871182">
        <ele>4.30859375</ele>
      </trkpt>
      <trkpt lat="41.407304992899299" lon="-8.781038587912917">
        <ele>4.34765625</ele>
      </trkpt>
      <trkpt lat="41.40735880471766" lon="-8.781067002564669">
        <ele>4.33203125</ele>
      </trkpt>
      <trkpt lat="41.407408425584435" lon="-8.781096423044801">
        <ele>4.30859375</ele>
      </trkpt>
      <trkpt lat="41.40745947137475" lon="-8.781126346439123">
        <ele>4.28125</ele>
      </trkpt>
      <trkpt lat="41.407518899068236" lon="-8.781158616766334">
        <ele>4.24609375</ele>
      </trkpt>
      <trkpt lat="41.407577320933342" lon="-8.781200358644128">
        <ele>4.19140625</ele>
      </trkpt>
      <trkpt lat="41.407627947628498" lon="-8.781240675598383">
        <ele>4.12890625</ele>
      </trkpt>
      <trkpt lat="41.407670779153705" lon="-8.781287278980017">
        <ele>4.05078125</ele>
      </trkpt>
      <trkpt lat="41.407712940126657" lon="-8.781342683359981">
        <ele>3.921875</ele>
      </trkpt>
      <trkpt lat="41.407758956775069" lon="-8.781389538198709">
        <ele>3.7890625</ele>
      </trkpt>
      <trkpt lat="41.407805643975735" lon="-8.781433207914233">
        <ele>3.66796875</ele>
      </trkpt>
      <trkpt lat="41.407849565148354" lon="-8.781476207077503">
        <ele>3.55859375</ele>
      </trkpt>
      <trkpt lat="41.40790019184351" lon="-8.781518200412393">
        <ele>3.45703125</ele>
      </trkpt>
      <trkpt lat="41.407950315624475" lon="-8.781553991138935">
        <ele>3.375</ele>
      </trkpt>
      <trkpt lat="41.40800379216671" lon="-8.781592212617397">
        <ele>3.296875</ele>
      </trkpt>
      <trkpt lat="41.408058609813452" lon="-8.781628590077162">
        <ele>3.23046875</ele>
      </trkpt>
      <trkpt lat="41.408114600926638" lon="-8.781661782413721">
        <ele>3.171875</ele>
      </trkpt>
      <trkpt lat="41.408169502392411" lon="-8.781697154045105">
        <ele>3.0859375</ele>
      </trkpt>
      <trkpt lat="41.408224320039153" lon="-8.781725317239761">
        <ele>3.01953125</ele>
      </trkpt>
      <trkpt lat="41.408274695277214" lon="-8.781752977520227">
        <ele>2.953125</ele>
      </trkpt>
      <trkpt lat="41.408327585086226" lon="-8.781771250069141">
        <ele>2.90625</ele>
      </trkpt>
      <trkpt lat="41.408386342227459" lon="-8.781795306131244">
        <ele>2.8515625</ele>
      </trkpt>
      <trkpt lat="41.408430598676205" lon="-8.781828749924898">
        <ele>2.76953125</ele>
      </trkpt>
      <trkpt lat="41.408475693315268" lon="-8.781875185668468">
        <ele>2.65625</ele>
      </trkpt>
      <trkpt lat="41.408520871773362" lon="-8.781915670260787">
        <ele>2.5625</ele>
      </trkpt>
      <trkpt lat="41.408520871773362" lon="-8.781918436288834">
        <ele>2.5546875</ele>
      </trkpt>
      <trkpt lat="41.408803341910243" lon="-8.782181711867452">
        <ele>1.953125</ele>
      </trkpt>
      <trkpt lat="41.408802503719926" lon="-8.782181711867452">
        <ele>1.953125</ele>
      </trkpt>
      <trkpt lat="41.409067455679178" lon="-8.782361000776291">
        <ele>2.17578125</ele>
      </trkpt>
      <trkpt lat="41.40906753949821" lon="-8.782358402386308">
        <ele>2.1796875</ele>
      </trkpt>
      <trkpt lat="41.409347327426076" lon="-8.782598879188299">
        <ele>2.671875</ele>
      </trkpt>
      <trkpt lat="41.409390326589346" lon="-8.782639363780618">
        <ele>2.7265625</ele>
      </trkpt>
      <trkpt lat="41.409448077902198" lon="-8.782688649371266">
        <ele>2.796875</ele>
      </trkpt>
      <trkpt lat="41.409497363492846" lon="-8.782732067629695">
        <ele>2.84765625</ele>
      </trkpt>
      <trkpt lat="41.409551091492176" lon="-8.782773558050394">
        <ele>2.91015625</ele>
      </trkpt>
      <trkpt lat="41.409597108140588" lon="-8.782811025157571">
        <ele>2.953125</ele>
      </trkpt>
      <trkpt lat="41.409646477550268" lon="-8.782844385132194">
        <ele>3.01171875</ele>
      </trkpt>
      <trkpt lat="41.409698110073805" lon="-8.782883696258068">
        <ele>3.0546875</ele>
      </trkpt>
      <trkpt lat="41.409746557474136" lon="-8.782917391508818">
        <ele>3.09765625</ele>
      </trkpt>
      <trkpt lat="41.409799614921212" lon="-8.782945554703474">
        <ele>3.1953125</ele>
      </trkpt>
      <trkpt lat="41.409848062321544" lon="-8.782985368743539">
        <ele>3.2734375</ele>
      </trkpt>
      <trkpt lat="41.409899527207017" lon="-8.783023674041033">
        <ele>3.3671875</ele>
      </trkpt>
      <trkpt lat="41.409952165558934" lon="-8.783060470595956">
        <ele>3.46875</ele>
      </trkpt>
      <trkpt lat="41.410003630444407" lon="-8.783083688467741">
        <ele>3.59765625</ele>
      </trkpt>
      <trkpt lat="41.41005308367312" lon="-8.783123502507806">
        <ele>3.68359375</ele>
      </trkpt>
      <trkpt lat="41.410098262131214" lon="-8.783165831118822">
        <ele>3.7421875</ele>
      </trkpt>
      <trkpt lat="41.410146709531546" lon="-8.78320774063468">
        <ele>3.81640625</ele>
      </trkpt>
      <trkpt lat="41.410196833312511" lon="-8.783243950456381">
        <ele>3.91015625</ele>
      </trkpt>
      <trkpt lat="41.410256093367934" lon="-8.783283261582255">
        <ele>4.03125</ele>
      </trkpt>
      <trkpt lat="41.410307055339217" lon="-8.783313184976578">
        <ele>4.140625</ele>
      </trkpt>
      <trkpt lat="41.410361789166927" lon="-8.783352160826325">
        <ele>4.24609375</ele>
      </trkpt>
      <trkpt lat="41.410413421690464" lon="-8.783410750329494">
        <ele>4.2890625</ele>
      </trkpt>
      <trkpt lat="41.410454073920846" lon="-8.783464729785919">
        <ele>4.30859375</ele>
      </trkpt>
      <trkpt lat="41.410496653988957" lon="-8.78351703286171">
        <ele>4.3359375</ele>
      </trkpt>
      <trkpt lat="41.410526661202312" lon="-8.78356103785336">
        <ele>4.3359375</ele>
      </trkpt>
      <trkpt lat="41.410659179091454" lon="-8.783725155517459">
        <ele>4.28515625</ele>
      </trkpt>
      <trkpt lat="41.41070787794888" lon="-8.783755665645003">
        <ele>4.26953125</ele>
      </trkpt>
      <trkpt lat="41.410760348662734" lon="-8.783778212964535">
        <ele>4.27734375</ele>
      </trkpt>
      <trkpt lat="41.410808879882097" lon="-8.783820373937488">
        <ele>4.23046875</ele>
      </trkpt>
      <trkpt lat="41.410863362252712" lon="-8.783856499940157">
        <ele>4.1796875</ele>
      </trkpt>
      <trkpt lat="41.410912564024329" lon="-8.78388449549675">
        <ele>4.15234375</ele>
      </trkpt>
      <trkpt lat="41.410963106900454" lon="-8.783922716975212">
        <ele>4.1015625</ele>
      </trkpt>
      <trkpt lat="41.411007195711136" lon="-8.783963788300753">
        <ele>4.03515625</ele>
      </trkpt>
      <trkpt lat="41.411058409139514" lon="-8.784006284549832">
        <ele>3.984375</ele>
      </trkpt>
      <trkpt lat="41.411113310605288" lon="-8.784046852961183">
        <ele>3.94921875</ele>
      </trkpt>
      <trkpt lat="41.411166619509459" lon="-8.784086918458343">
        <ele>3.91796875</ele>
      </trkpt>
      <trkpt lat="41.411216324195266" lon="-8.784120781347156">
        <ele>3.90625</ele>
      </trkpt>
      <trkpt lat="41.411268291994929" lon="-8.784149279817939">
        <ele>3.91796875</ele>
      </trkpt>
      <trkpt lat="41.411321517080069" lon="-8.784184735268354">
        <ele>3.9140625</ele>
      </trkpt>
      <trkpt lat="41.411374993622303" lon="-8.784228740260005">
        <ele>3.8984375</ele>
      </trkpt>
      <trkpt lat="41.411420339718461" lon="-8.784270146861672">
        <ele>3.87890625</ele>
      </trkpt>
      <trkpt lat="41.411474486812949" lon="-8.784324964508414">
        <ele>3.8515625</ele>
      </trkpt>
      <trkpt lat="41.411516647785902" lon="-8.784375758841634">
        <ele>3.81640625</ele>
      </trkpt>
      <trkpt lat="41.411557216197252" lon="-8.784431330859661">
        <ele>3.7734375</ele>
      </trkpt>
      <trkpt lat="41.411597700789571" lon="-8.784483298659325">
        <ele>3.74609375</ele>
      </trkpt>
      <trkpt lat="41.411631144583225" lon="-8.784541385248303">
        <ele>3.6953125</ele>
      </trkpt>
      <trkpt lat="41.411661403253675" lon="-8.784601567313075">
        <ele>3.640625</ele>
      </trkpt>
      <trkpt lat="41.411692583933473" lon="-8.784663593396544">
        <ele>3.57421875</ele>
      </trkpt>
      <trkpt lat="41.411732397973537" lon="-8.784733666107059">
        <ele>3.46875</ele>
      </trkpt>
      <trkpt lat="41.411770116537809" lon="-8.784795273095369">
        <ele>3.37890625</ele>
      </trkpt>
      <trkpt lat="41.41180582344532" lon="-8.784861322492361">
        <ele>3.26171875</ele>
      </trkpt>
      <trkpt lat="41.411835746839643" lon="-8.784935250878334">
        <ele>3.10546875</ele>
      </trkpt>
      <trkpt lat="41.411867346614599" lon="-8.785004233941436">
        <ele>2.9609375</ele>
      </trkpt>
      <trkpt lat="41.411899533122778" lon="-8.78506944514811">
        <ele>2.8203125</ele>
      </trkpt>
      <trkpt lat="41.411928283050656" lon="-8.78513197414577">
        <ele>2.67578125</ele>
      </trkpt>
      <trkpt lat="41.411959296092391" lon="-8.785191485658288">
        <ele>2.54296875</ele>
      </trkpt>
      <trkpt lat="41.411993913352489" lon="-8.785258876159787">
        <ele>2.3828125</ele>
      </trkpt>
      <trkpt lat="41.412030290812254" lon="-8.785337414592505">
        <ele>2.1796875</ele>
      </trkpt>
      <trkpt lat="41.412062058225274" lon="-8.785407403483987">
        <ele>1.99609375</ele>
      </trkpt>
      <trkpt lat="41.412091730162501" lon="-8.785476721823215">
        <ele>1.80078125</ele>
      </trkpt>
      <trkpt lat="41.412131879478693" lon="-8.785540340468287">
        <ele>1.703125</ele>
      </trkpt>
      <trkpt lat="41.412164987996221" lon="-8.785601109266281">
        <ele>1.60546875</ele>
      </trkpt>
      <trkpt lat="41.412198767066002" lon="-8.785662297159433">
        <ele>1.5</ele>
      </trkpt>
      <trkpt lat="41.412228941917419" lon="-8.785726921632886">
        <ele>1.375</ele>
      </trkpt>
      <trkpt lat="41.412257691845298" lon="-8.785795485600829">
        <ele>1.234375</ele>
      </trkpt>
      <trkpt lat="41.412292309105396" lon="-8.785861451178789">
        <ele>1.14453125</ele>
      </trkpt>
      <trkpt lat="41.412322567775846" lon="-8.785932110622525">
        <ele>1.046875</ele>
      </trkpt>
      <trkpt lat="41.412341259419918" lon="-8.785959435626864">
        <ele>1.02734375</ele>
      </trkpt>
      <trkpt lat="41.412387946620584" lon="-8.786055324599147">
        <ele>0.90625</ele>
      </trkpt>
      <trkpt lat="41.412428012117743" lon="-8.786106202751398">
        <ele>0.8828125</ele>
      </trkpt>
      <trkpt lat="41.412470927461982" lon="-8.786153644323349">
        <ele>0.87109375</ele>
      </trkpt>
      <trkpt lat="41.412520967423916" lon="-8.786202343180776">
        <ele>0.875</ele>
      </trkpt>
      <trkpt lat="41.412571594119072" lon="-8.786233942955732">
        <ele>0.91796875</ele>
      </trkpt>
      <trkpt lat="41.412628842517734" lon="-8.78625045530498">
        <ele>1.01953125</ele>
      </trkpt>
      <trkpt lat="41.412689359858632" lon="-8.786257579922676">
        <ele>1.14453125</ele>
      </trkpt>
      <trkpt lat="41.412751469761133" lon="-8.786257579922676">
        <ele>1.296875</ele>
      </trkpt>
      <trkpt lat="41.412810981273651" lon="-8.786261100322008">
        <ele>1.4296875</ele>
      </trkpt>
      <trkpt lat="41.412866469472647" lon="-8.78626948222518">
        <ele>1.54296875</ele>
      </trkpt>
      <trkpt lat="41.412924639880657" lon="-8.786274343729019">
        <ele>1.671875</ele>
      </trkpt>
      <trkpt lat="41.412986917421222" lon="-8.78626705147326">
        <ele>1.8359375</ele>
      </trkpt>
      <trkpt lat="41.413046093657613" lon="-8.786256741732359">
        <ele>2.00390625</ele>
      </trkpt>
      <trkpt lat="41.413100240752101" lon="-8.786246851086617">
        <ele>2.16015625</ele>
      </trkpt>
      <trkpt lat="41.413158914074302" lon="-8.786234864965081">
        <ele>2.1953125</ele>
      </trkpt>
      <trkpt lat="41.413213144987822" lon="-8.786224303767085">
        <ele>2.2265625</ele>
      </trkpt>
      <trkpt lat="41.413273410871625" lon="-8.786204103380442">
        <ele>2.2890625</ele>
      </trkpt>
      <trkpt lat="41.413329234346747" lon="-8.786187926307321">
        <ele>2.34375</ele>
      </trkpt>
      <trkpt lat="41.413389919325709" lon="-8.786173844709992">
        <ele>2.39453125</ele>
      </trkpt>
      <trkpt lat="41.413446916267276" lon="-8.786160433664918">
        <ele>2.44140625</ele>
      </trkpt>
      <trkpt lat="41.413501230999827" lon="-8.786153895780444">
        <ele>2.4765625</ele>
      </trkpt>
      <trkpt lat="41.413558311760426" lon="-8.786148950457573">
        <ele>2.50390625</ele>
      </trkpt>
      <trkpt lat="41.413614889606833" lon="-8.786145513877273">
        <ele>2.52734375</ele>
      </trkpt>
      <trkpt lat="41.413672892376781" lon="-8.786139143630862">
        <ele>2.5625</ele>
      </trkpt>
      <trkpt lat="41.413731314241886" lon="-8.786128833889961">
        <ele>2.609375</ele>
      </trkpt>
      <trkpt lat="41.413790490478277" lon="-8.786118272691965">
        <ele>2.66015625</ele>
      </trkpt>
      <trkpt lat="41.413837261497974" lon="-8.78611751832068">
        <ele>2.6796875</ele>
      </trkpt>
      <trkpt lat="41.413991320878267" lon="-8.786125229671597">
        <ele>2.69140625</ele>
      </trkpt>
      <trkpt lat="41.414048317819834" lon="-8.786125229671597">
        <ele>2.70703125</ele>
      </trkpt>
      <trkpt lat="41.414106991142035" lon="-8.786126906052232">
        <ele>2.71875</ele>
      </trkpt>
      <trkpt lat="41.414163736626506" lon="-8.786138221621513">
        <ele>2.6875</ele>
      </trkpt>
      <trkpt lat="41.414219476282597" lon="-8.786143837496638">
        <ele>2.6796875</ele>
      </trkpt>
      <trkpt lat="41.414275551214814" lon="-8.786152722314">
        <ele>2.65625</ele>
      </trkpt>
      <trkpt lat="41.414331458508968" lon="-8.786159511655569">
        <ele>2.640625</ele>
      </trkpt>
      <trkpt lat="41.414388790726662" lon="-8.786164708435535">
        <ele>2.6328125</ele>
      </trkpt>
      <trkpt lat="41.414454756304622" lon="-8.786172503605485">
        <ele>2.61328125</ele>
      </trkpt>
      <trkpt lat="41.414519045501947" lon="-8.786178454756737">
        <ele>2.59765625</ele>
      </trkpt>
      <trkpt lat="41.414578137919307" lon="-8.78618398681283">
        <ele>2.5859375</ele>
      </trkpt>
      <trkpt lat="41.414637230336666" lon="-8.786194799467921">
        <ele>2.546875</ele>
      </trkpt>
      <trkpt lat="41.414696574211121" lon="-8.786214496940374">
        <ele>2.46484375</ele>
      </trkpt>
      <trkpt lat="41.414758851751685" lon="-8.786227153614163">
        <ele>2.4140625</ele>
      </trkpt>
      <trkpt lat="41.414817608892918" lon="-8.786245845258236">
        <ele>2.55859375</ele>
      </trkpt>
      <trkpt lat="41.414870331063867" lon="-8.786265710368752">
        <ele>2.71484375</ele>
      </trkpt>
      <trkpt lat="41.414925651624799" lon="-8.786285407841206">
        <ele>2.88671875</ele>
      </trkpt>
      <trkpt lat="41.414982313290238" lon="-8.78630368039012">
        <ele>3.078125</ele>
      </trkpt>
      <trkpt lat="41.415036460384727" lon="-8.786319103091955">
        <ele>3.27734375</ele>
      </trkpt>
      <trkpt lat="41.415098570287228" lon="-8.78632815554738">
        <ele>3.546875</ele>
      </trkpt>
      <trkpt lat="41.415156070142984" lon="-8.786336956545711">
        <ele>3.7890625</ele>
      </trkpt>
      <trkpt lat="41.415218263864517" lon="-8.786338716745377">
        <ele>4.078125</ele>
      </trkpt>
      <trkpt lat="41.415280373767018" lon="-8.786338800564408">
        <ele>4.37109375</ele>
      </trkpt>
      <trkpt lat="41.415337538346648" lon="-8.786333436146379">
        <ele>4.66015625</ele>
      </trkpt>
      <trkpt lat="41.41540015116334" lon="-8.786325724795461">
        <ele>4.9921875</ele>
      </trkpt>
      <trkpt lat="41.41545781865716" lon="-8.786314157769084">
        <ele>5.31640625</ele>
      </trkpt>
      <trkpt lat="41.415518587455153" lon="-8.786304518580437">
        <ele>5.63671875</ele>
      </trkpt>
      <trkpt lat="41.415580697357655" lon="-8.786299154162407">
        <ele>5.9453125</ele>
      </trkpt>
      <trkpt lat="41.415646746754646" lon="-8.786299154162407">
        <ele>5.921875</ele>
      </trkpt>
      <trkpt lat="41.41571287997067" lon="-8.786299154162407">
        <ele>5.765625</ele>
      </trkpt>
      <trkpt lat="41.415774989873171" lon="-8.786297393962741">
        <ele>5.62890625</ele>
      </trkpt>
      <trkpt lat="41.415834249928594" lon="-8.786283982917666">
        <ele>5.53515625</ele>
      </trkpt>
      <trkpt lat="41.415893090888858" lon="-8.786263866350055">
        <ele>5.4765625</ele>
      </trkpt>
      <trkpt lat="41.415945813059807" lon="-8.786245426163077">
        <ele>5.43359375</ele>
      </trkpt>
      <trkpt lat="41.416001887992024" lon="-8.786225309595466">
        <ele>5.3984375</ele>
      </trkpt>
      <trkpt lat="41.41605444252491" lon="-8.786207791417837">
        <ele>5.3671875</ele>
      </trkpt>
      <trkpt lat="41.416108505800366" lon="-8.786192201077938">
        <ele>5.3359375</ele>
      </trkpt>
      <trkpt lat="41.41611990518868" lon="-8.78618935123086">
        <ele>5.32421875</ele>
      </trkpt>
      <trkpt lat="41.41632760874927" lon="-8.786102933809161">
        <ele>5.41796875</ele>
      </trkpt>
      <trkpt lat="41.416339091956615" lon="-8.786029927432537">
        <ele>5.80859375</ele>
      </trkpt>
      <trkpt lat="41.416338169947267" lon="-8.785955244675279">
        <ele>6.23046875</ele>
      </trkpt>
      <trkpt lat="41.416338169947267" lon="-8.785878885537386">
        <ele>6.65625</ele>
      </trkpt>
      <trkpt lat="41.416340433061123" lon="-8.785802274942398">
        <ele>7.0859375</ele>
      </trkpt>
      <trkpt lat="41.416355352848768" lon="-8.785730861127377">
        <ele>7.48828125</ele>
      </trkpt>
      <trkpt lat="41.416387874633074" lon="-8.785670259967446">
        <ele>7.84375</ele>
      </trkpt>
      <trkpt lat="41.416431963443756" lon="-8.785626003518701">
        <ele>8.125</ele>
      </trkpt>
      <trkpt lat="41.416486445814371" lon="-8.785616783425212">
        <ele>8.1171875</ele>
      </trkpt>
      <trkpt lat="41.416534893214703" lon="-8.785648047924042">
        <ele>7.87109375</ele>
      </trkpt>
      <trkpt lat="41.41658560372889" lon="-8.785680904984474">
        <ele>7.61328125</ele>
      </trkpt>
      <trkpt lat="41.416636984795332" lon="-8.78571342676878">
        <ele>7.35546875</ele>
      </trkpt>
      <trkpt lat="41.416692305356264" lon="-8.785739997401834">
        <ele>7.12890625</ele>
      </trkpt>
      <trkpt lat="41.416747123003006" lon="-8.78575935959816">
        <ele>6.9453125</ele>
      </trkpt>
      <trkpt lat="41.416802192106843" lon="-8.785777548328042">
        <ele>6.76953125</ele>
      </trkpt>
      <trkpt lat="41.416854998096824" lon="-8.785789282992482">
        <ele>6.63671875</ele>
      </trkpt>
      <trkpt lat="41.416907971724868" lon="-8.785800682380795">
        <ele>6.50390625</ele>
      </trkpt>
      <trkpt lat="41.416962286457419" lon="-8.785800682380795">
        <ele>6.44140625</ele>
      </trkpt>
      <trkpt lat="41.417021295055747" lon="-8.785799006000161">
        <ele>6.37890625</ele>
      </trkpt>
      <trkpt lat="41.41708105802536" lon="-8.785793893039227">
        <ele>6.33984375</ele>
      </trkpt>
      <trkpt lat="41.417135121300817" lon="-8.785787187516689">
        <ele>6.3125</ele>
      </trkpt>
      <trkpt lat="41.417194548994303" lon="-8.785772016271949">
        <ele>6.33203125</ele>
      </trkpt>
      <trkpt lat="41.417254311963916" lon="-8.785751396790147">
        <ele>6.38671875</ele>
      </trkpt>
      <trkpt lat="41.417307620868087" lon="-8.785732621327043">
        <ele>6.43359375</ele>
      </trkpt>
      <trkpt lat="41.417372664436698" lon="-8.785715522244573">
        <ele>6.45703125</ele>
      </trkpt>
      <trkpt lat="41.417431924492121" lon="-8.785694567486644">
        <ele>6.51171875</ele>
      </trkpt>
      <trkpt lat="41.417488250881433" lon="-8.785673109814525">
        <ele>6.57421875</ele>
      </trkpt>
      <trkpt lat="41.417543822899461" lon="-8.785647712647915">
        <ele>6.66015625</ele>
      </trkpt>
      <trkpt lat="41.417596712708473" lon="-8.785619046539068">
        <ele>6.76953125</ele>
      </trkpt>
      <trkpt lat="41.417647004127502" lon="-8.785593649372458">
        <ele>6.859375</ele>
      </trkpt>
      <trkpt lat="41.417698720470071" lon="-8.785568168386817">
        <ele>6.953125</ele>
      </trkpt>
      <trkpt lat="41.417752699926496" lon="-8.785545788705349">
        <ele>7.0234375</ele>
      </trkpt>
      <trkpt lat="41.417805589735508" lon="-8.785512093454599">
        <ele>7.16015625</ele>
      </trkpt>
      <trkpt lat="41.417856132611632" lon="-8.785471022129059">
        <ele>7.3359375</ele>
      </trkpt>
      <trkpt lat="41.417876500636339" lon="-8.785457611083984">
        <ele>7.375</ele>
      </trkpt>
      <trkpt lat="41.418119994923472" lon="-8.785387119278312">
        <ele>7.37109375</ele>
      </trkpt>
      <trkpt lat="41.418175231665373" lon="-8.785353926941752">
        <ele>7.34375</ele>
      </trkpt>
      <trkpt lat="41.418227199465036" lon="-8.785317717120051">
        <ele>7.34375</ele>
      </trkpt>
      <trkpt lat="41.418279837816954" lon="-8.785291146486998">
        <ele>7.30078125</ele>
      </trkpt>
      <trkpt lat="41.418339014053345" lon="-8.785269521176815">
        <ele>7.21484375</ele>
      </trkpt>
      <trkpt lat="41.418393328785896" lon="-8.785245129838586">
        <ele>7.1640625</ele>
      </trkpt>
      <trkpt lat="41.418444458395243" lon="-8.785220151767135">
        <ele>7.12890625</ele>
      </trkpt>
      <trkpt lat="41.418500868603587" lon="-8.785177823156118">
        <ele>7.17578125</ele>
      </trkpt>
      <trkpt lat="41.418554345145822" lon="-8.785140523687005">
        <ele>7.2109375</ele>
      </trkpt>
      <trkpt lat="41.418602457270026" lon="-8.785111773759127">
        <ele>7.21875</ele>
      </trkpt>
      <trkpt lat="41.418616538867354" lon="-8.785043377429247">
        <ele>7.55859375</ele>
      </trkpt>
      <trkpt lat="41.418619807809591" lon="-8.784971293061972">
        <ele>7.94921875</ele>
      </trkpt>
      <trkpt lat="41.418626345694065" lon="-8.784892922267318">
        <ele>8.36328125</ele>
      </trkpt>
      <trkpt lat="41.418634811416268" lon="-8.784816898405552">
        <ele>8.765625</ele>
      </trkpt>
      <trkpt lat="41.4186607953161" lon="-8.784754872322083">
        <ele>9.046875</ele>
      </trkpt>
      <trkpt lat="41.418702034279704" lon="-8.784705922007561">
        <ele>9.21875</ele>
      </trkpt>
      <trkpt lat="41.418750565499067" lon="-8.784668203443289">
        <ele>9.3125</ele>
      </trkpt>
      <trkpt lat="41.41880395822227" lon="-8.784653032198548">
        <ele>9.2734375</ele>
      </trkpt>
      <trkpt lat="41.418822649866343" lon="-8.784655714407563">
        <ele>9.2109375</ele>
      </trkpt>
      <trkpt lat="41.42005973495543" lon="-8.78438045270741">
        <ele>6.23828125</ele>
      </trkpt>
      <trkpt lat="41.42017213627696" lon="-8.784386487677693">
        <ele>5.8125</ele>
      </trkpt>
      <trkpt lat="41.420229133218527" lon="-8.784376680850983">
        <ele>5.6328125</ele>
      </trkpt>
      <trkpt lat="41.420286800712347" lon="-8.784369640052319">
        <ele>5.44921875</ele>
      </trkpt>
      <trkpt lat="41.420347318053246" lon="-8.784362683072686">
        <ele>5.2578125</ele>
      </trkpt>
      <trkpt lat="41.420403812080622" lon="-8.784347344189882">
        <ele>5.1171875</ele>
      </trkpt>
      <trkpt lat="41.42046139575541" lon="-8.784331334754825">
        <ele>4.98046875</ele>
      </trkpt>
      <trkpt lat="41.420518141239882" lon="-8.784321695566177">
        <ele>4.828125</ele>
      </trkpt>
      <trkpt lat="41.420573377981782" lon="-8.784315409138799">
        <ele>4.671875</ele>
      </trkpt>
      <trkpt lat="41.420628782361746" lon="-8.784307613968849">
        <ele>4.6484375</ele>
      </trkpt>
      <trkpt lat="41.420683935284615" lon="-8.784304596483707">
        <ele>4.69140625</ele>
      </trkpt>
      <trkpt lat="41.420740848407149" lon="-8.784304596483707">
        <ele>4.71875</ele>
      </trkpt>
      <trkpt lat="41.420794744044542" lon="-8.784307949244976">
        <ele>4.7265625</ele>
      </trkpt>
      <trkpt lat="41.420849645510316" lon="-8.784307949244976">
        <ele>4.75390625</ele>
      </trkpt>
      <trkpt lat="41.420910330489278" lon="-8.784311637282372">
        <ele>4.765625</ele>
      </trkpt>
      <trkpt lat="41.42096565105021" lon="-8.784318342804909">
        <ele>4.7578125</ele>
      </trkpt>
      <trkpt lat="41.421022647991776" lon="-8.784321779385209">
        <ele>4.765625</ele>
      </trkpt>
      <trkpt lat="41.42107998020947" lon="-8.784321779385209">
        <ele>4.79296875</ele>
      </trkpt>
      <trkpt lat="41.421135803684592" lon="-8.784325467422605">
        <ele>4.796875</ele>
      </trkpt>
      <trkpt lat="41.42118995077908" lon="-8.784330328926444">
        <ele>4.796875</ele>
      </trkpt>
      <trkpt lat="41.421243762597442" lon="-8.78433845937252">
        <ele>4.7734375</ele>
      </trkpt>
      <trkpt lat="41.421304615214467" lon="-8.784340219572186">
        <ele>4.7890625</ele>
      </trkpt>
      <trkpt lat="41.42136731185019" lon="-8.784340219572186">
        <ele>4.81640625</ele>
      </trkpt>
      <trkpt lat="41.421422464773059" lon="-8.78433552570641">
        <ele>4.87109375</ele>
      </trkpt>
      <trkpt lat="41.421488681808114" lon="-8.784323623403907">
        <ele>4.80078125</ele>
      </trkpt>
      <trkpt lat="41.421544756740332" lon="-8.78431155346334">
        <ele>4.73828125</ele>
      </trkpt>
      <trkpt lat="41.421598317101598" lon="-8.7843032553792">
        <ele>4.66015625</ele>
      </trkpt>
      <trkpt lat="41.421656236052513" lon="-8.784290011972189">
        <ele>4.6015625</ele>
      </trkpt>
      <trkpt lat="41.421711556613445" lon="-8.784282300621271">
        <ele>4.515625</ele>
      </trkpt>
      <trkpt lat="41.421765787526965" lon="-8.784267213195562">
        <ele>4.47265625</ele>
      </trkpt>
      <trkpt lat="41.421820437535644" lon="-8.784252041950822">
        <ele>4.43359375</ele>
      </trkpt>
      <trkpt lat="41.421877266839147" lon="-8.784240558743477">
        <ele>4.3671875</ele>
      </trkpt>
      <trkpt lat="41.421920517459512" lon="-8.784208875149488">
        <ele>4.453125</ele>
      </trkpt>
      <trkpt lat="41.421944489702582" lon="-8.784140646457672">
        <ele>4.8046875</ele>
      </trkpt>
      <trkpt lat="41.421998217701912" lon="-8.784121368080378">
        <ele>4.79296875</ele>
      </trkpt>
      <trkpt lat="41.422050772234797" lon="-8.784125307574868">
        <ele>4.640625</ele>
      </trkpt>
      <trkpt lat="41.422095783054829" lon="-8.784164702519774">
        <ele>4.296875</ele>
      </trkpt>
      <trkpt lat="41.422144398093224" lon="-8.784198649227619">
        <ele>3.9765625</ele>
      </trkpt>
      <trkpt lat="41.422201562672853" lon="-8.784187166020274">
        <ele>3.91015625</ele>
      </trkpt>
      <trkpt lat="41.422231821343303" lon="-8.784178616479039">
        <ele>3.88671875</ele>
      </trkpt>
      <trkpt lat="41.422506580129266" lon="-8.784093875437975">
        <ele>4.03125</ele>
      </trkpt>
      <trkpt lat="41.422506663948298" lon="-8.784092534333467">
        <ele>4.0390625</ele>
      </trkpt>
      <trkpt lat="41.422751750797033" lon="-8.784045847132802">
        <ele>4.0234375</ele>
      </trkpt>
      <trkpt lat="41.422935733571649" lon="-8.784012068063021">
        <ele>4.0078125</ele>
      </trkpt>
      <trkpt lat="41.422935985028744" lon="-8.784011732786894">
        <ele>4.0078125</ele>
      </trkpt>
      <trkpt lat="41.423104964196682" lon="-8.783971918746829">
        <ele>4.046875</ele>
      </trkpt>
      <trkpt lat="41.423104712739587" lon="-8.783972337841988">
        <ele>4.04296875</ele>
      </trkpt>
      <trkpt lat="41.423376454040408" lon="-8.783901929855347">
        <ele>4.171875</ele>
      </trkpt>
      <trkpt lat="41.423376202583313" lon="-8.783901510760188">
        <ele>4.17578125</ele>
      </trkpt>
      <trkpt lat="41.42355490475893" lon="-8.783849459141493">
        <ele>4.26171875</ele>
      </trkpt>
      <trkpt lat="41.42355490475893" lon="-8.783849040046334">
        <ele>4.265625</ele>
      </trkpt>
      <trkpt lat="41.423731260001659" lon="-8.783803358674049">
        <ele>4.31640625</ele>
      </trkpt>
      <trkpt lat="41.423749700188637" lon="-8.78379799425602">
        <ele>4.3359375</ele>
      </trkpt>
      <trkpt lat="41.423768475651741" lon="-8.7837921269238">
        <ele>4.35546875</ele>
      </trkpt>
      <trkpt lat="41.423786664381623" lon="-8.783786930143833">
        <ele>4.37109375</ele>
      </trkpt>
      <trkpt lat="41.423804936930537" lon="-8.783782906830311">
        <ele>4.375</ele>
      </trkpt>
      <trkpt lat="41.423821868374944" lon="-8.783779554069042">
        <ele>4.37890625</ele>
      </trkpt>
      <trkpt lat="41.423839554190636" lon="-8.783773519098759">
        <ele>4.40234375</ele>
      </trkpt>
      <trkpt lat="41.423857659101486" lon="-8.783768573775887">
        <ele>4.41796875</ele>
      </trkpt>
      <trkpt lat="41.423876853659749" lon="-8.783762371167541">
        <ele>4.4375</ele>
      </trkpt>
      <trkpt lat="41.423892779275775" lon="-8.783757006749511">
        <ele>4.45703125</ele>
      </trkpt>
      <trkpt lat="41.423909543082118" lon="-8.783751726150513">
        <ele>4.4765625</ele>
      </trkpt>
      <trkpt lat="41.423928486183286" lon="-8.783745858818293">
        <ele>4.49609375</ele>
      </trkpt>
      <trkpt lat="41.423944244161248" lon="-8.783740913495421">
        <ele>4.51171875</ele>
      </trkpt>
      <trkpt lat="41.42396092414856" lon="-8.783734627068043">
        <ele>4.53515625</ele>
      </trkpt>
      <trkpt lat="41.423977185040712" lon="-8.78372959792614">
        <ele>4.5546875</ele>
      </trkpt>
      <trkpt lat="41.423996798694134" lon="-8.78372423350811">
        <ele>4.5703125</ele>
      </trkpt>
      <trkpt lat="41.424012808129191" lon="-8.783720713108778">
        <ele>4.57421875</ele>
      </trkpt>
      <trkpt lat="41.424028649926186" lon="-8.783715600147843">
        <ele>4.59375</ele>
      </trkpt>
      <trkpt lat="41.424040133133531" lon="-8.783712582662702">
        <ele>4.6015625</ele>
      </trkpt>
      <trkpt lat="41.424165526404977" lon="-8.783655418083072">
        <ele>4.86328125</ele>
      </trkpt>
      <trkpt lat="41.424183128401637" lon="-8.783650305122137">
        <ele>4.87890625</ele>
      </trkpt>
      <trkpt lat="41.42419938929379" lon="-8.783644689247012">
        <ele>4.8984375</ele>
      </trkpt>
      <trkpt lat="41.424216404557228" lon="-8.783638654276729">
        <ele>4.921875</ele>
      </trkpt>
      <trkpt lat="41.424234425649047" lon="-8.783631948754191">
        <ele>4.94921875</ele>
      </trkpt>
      <trkpt lat="41.424250602722168" lon="-8.783624824136496">
        <ele>4.98046875</ele>
      </trkpt>
      <trkpt lat="41.424268372356892" lon="-8.783616777509451">
        <ele>5.015625</ele>
      </trkpt>
      <trkpt lat="41.424285974353552" lon="-8.783608814701438">
        <ele>5.0546875</ele>
      </trkpt>
      <trkpt lat="41.424301732331514" lon="-8.783599007874727">
        <ele>5.10546875</ele>
      </trkpt>
      <trkpt lat="41.424316735938191" lon="-8.783590709790587">
        <ele>5.1484375</ele>
      </trkpt>
      <trkpt lat="41.424332996830344" lon="-8.783579561859369">
        <ele>5.20703125</ele>
      </trkpt>
      <trkpt lat="41.424348754808307" lon="-8.78356983885169">
        <ele>5.2578125</ele>
      </trkpt>
      <trkpt lat="41.424365770071745" lon="-8.783560702577233">
        <ele>5.3046875</ele>
      </trkpt>
      <trkpt lat="41.42438261769712" lon="-8.783549051731825">
        <ele>5.3671875</ele>
      </trkpt>
      <trkpt lat="41.424401057884097" lon="-8.783533712849021">
        <ele>5.45703125</ele>
      </trkpt>
      <trkpt lat="41.424415810033679" lon="-8.783521139994264">
        <ele>5.52734375</ele>
      </trkpt>
      <trkpt lat="41.424430226907134" lon="-8.783507309854031">
        <ele>5.609375</ele>
      </trkpt>
      <trkpt lat="41.424446236342192" lon="-8.783493228256702">
        <ele>5.6953125</ele>
      </trkpt>
      <trkpt lat="41.424459898844361" lon="-8.783481661230326">
        <ele>5.76171875</ele>
      </trkpt>
      <trkpt lat="41.424474650993943" lon="-8.783472357317805">
        <ele>5.80859375</ele>
      </trkpt>
      <trkpt lat="41.424490157514811" lon="-8.783461041748524">
        <ele>5.87109375</ele>
      </trkpt>
      <trkpt lat="41.42450432293117" lon="-8.783449307084084">
        <ele>5.94140625</ele>
      </trkpt>
      <trkpt lat="41.424519242718816" lon="-8.783435057848692">
        <ele>6.0234375</ele>
      </trkpt>
      <trkpt lat="41.424533240497112" lon="-8.783424077555537">
        <ele>6.0859375</ele>
      </trkpt>
      <trkpt lat="41.424550088122487" lon="-8.783413600176573">
        <ele>6.140625</ele>
      </trkpt>
      <trkpt lat="41.424565007910132" lon="-8.783403038978577">
        <ele>6.19921875</ele>
      </trkpt>
      <trkpt lat="41.424581268802285" lon="-8.783393232151866">
        <ele>6.25</ele>
      </trkpt>
      <trkpt lat="41.424597278237343" lon="-8.783383928239346">
        <ele>6.30078125</ele>
      </trkpt>
      <trkpt lat="41.424614125862718" lon="-8.783375211060047">
        <ele>6.34375</ele>
      </trkpt>
      <trkpt lat="41.424629800021648" lon="-8.783367415890098">
        <ele>6.37890625</ele>
      </trkpt>
      <trkpt lat="41.42464698292315" lon="-8.783361464738846">
        <ele>6.40234375</ele>
      </trkpt>
      <trkpt lat="41.424664249643683" lon="-8.783356184139848">
        <ele>6.41796875</ele>
      </trkpt>
      <trkpt lat="41.424680510535836" lon="-8.783352160826325">
        <ele>6.4296875</ele>
      </trkpt>
      <trkpt lat="41.424683360382915" lon="-8.783351741731167">
        <ele>6.4296875</ele>
      </trkpt>
      <trkpt lat="41.424986617639661" lon="-8.783336319029331">
        <ele>6.6015625</ele>
      </trkpt>
      <trkpt lat="41.425678208470345" lon="-8.783264150843024">
        <ele>7.73046875</ele>
      </trkpt>
      <trkpt lat="41.425678208470345" lon="-8.783264569938183">
        <ele>7.7265625</ele>
      </trkpt>
      <trkpt lat="41.426254631951451" lon="-8.783210422843695">
        <ele>8.875</ele>
      </trkpt>
      <trkpt lat="41.426385138183832" lon="-8.783215284347534">
        <ele>8.98828125</ele>
      </trkpt>
      <trkpt lat="41.426666267216206" lon="-8.78327077254653">
        <ele>8.1953125</ele>
      </trkpt>
      <trkpt lat="41.42666601575911" lon="-8.78327077254653">
        <ele>8.1953125</ele>
      </trkpt>
      <trkpt lat="41.427626330405474" lon="-8.783486941829324">
        <ele>5.52734375</ele>
      </trkpt>
      <trkpt lat="41.427626330405474" lon="-8.783486941829324">
        <ele>5.52734375</ele>
      </trkpt>
      <trkpt lat="41.428157994523644" lon="-8.783610155805945">
        <ele>4.30859375</ele>
      </trkpt>
      <trkpt lat="41.428346587345004" lon="-8.783662542700768">
        <ele>4.21875</ele>
      </trkpt>
      <trkpt lat="41.428682617843151" lon="-8.78368953242898">
        <ele>4.4609375</ele>
      </trkpt>
      <trkpt lat="41.428883532062173" lon="-8.783670421689749">
        <ele>4.81640625</ele>
      </trkpt>
      <trkpt lat="41.428916892036796" lon="-8.783674277365208">
        <ele>4.8359375</ele>
      </trkpt>
      <trkpt lat="41.428949581459165" lon="-8.783674277365208">
        <ele>4.875</ele>
      </trkpt>
      <trkpt lat="41.428977241739631" lon="-8.783674277365208">
        <ele>4.90625</ele>
      </trkpt>
      <trkpt lat="41.429006075486541" lon="-8.783673103898764">
        <ele>4.94921875</ele>
      </trkpt>
      <trkpt lat="41.429043961688876" lon="-8.783670756965876">
        <ele>5.0078125</ele>
      </trkpt>
      <trkpt lat="41.429074052721262" lon="-8.783668577671051">
        <ele>5.05859375</ele>
      </trkpt>
      <trkpt lat="41.429109256714582" lon="-8.783668577671051">
        <ele>5.1015625</ele>
      </trkpt>
      <trkpt lat="41.429140605032444" lon="-8.783669583499432">
        <ele>5.1328125</ele>
      </trkpt>
      <trkpt lat="41.429173378273845" lon="-8.783677294850349">
        <ele>5.125</ele>
      </trkpt>
      <trkpt lat="41.429203636944294" lon="-8.783683916553855">
        <ele>5.12109375</ele>
      </trkpt>
      <trkpt lat="41.42924060113728" lon="-8.783686850219965">
        <ele>5.1484375</ele>
      </trkpt>
      <trkpt lat="41.429257616400719" lon="-8.783685844391584">
        <ele>5.17578125</ele>
      </trkpt>
      <trkpt lat="41.429719291627407" lon="-8.783712415024638">
        <ele>5.5703125</ele>
      </trkpt>
      <trkpt lat="41.429719710722566" lon="-8.783713085576892">
        <ele>5.56640625</ele>
      </trkpt>
      <trkpt lat="41.430301750078797" lon="-8.783742086961865">
        <ele>4.7265625</ele>
      </trkpt>
      <trkpt lat="41.430302169173956" lon="-8.783742086961865">
        <ele>4.7265625</ele>
      </trkpt>
      <trkpt lat="41.43046461045742" lon="-8.783735129982233">
        <ele>4.546875</ele>
      </trkpt>
      <trkpt lat="41.430494617670774" lon="-8.783741416409612">
        <ele>4.4765625</ele>
      </trkpt>
      <trkpt lat="41.430523116141558" lon="-8.783743511885405">
        <ele>4.4296875</ele>
      </trkpt>
      <trkpt lat="41.430554380640388" lon="-8.783744517713785">
        <ele>4.3828125</ele>
      </trkpt>
      <trkpt lat="41.430586567148566" lon="-8.783742506057024">
        <ele>4.3515625</ele>
      </trkpt>
      <trkpt lat="41.430619759485126" lon="-8.783739572390914">
        <ele>4.3203125</ele>
      </trkpt>
      <trkpt lat="41.430650101974607" lon="-8.783734794706106">
        <ele>4.3046875</ele>
      </trkpt>
      <trkpt lat="41.430679019540548" lon="-8.783727837726474">
        <ele>4.30078125</ele>
      </trkpt>
      <trkpt lat="41.430709613487124" lon="-8.783717108890414">
        <ele>4.30859375</ele>
      </trkpt>
      <trkpt lat="41.430737022310495" lon="-8.783706547692418">
        <ele>4.3203125</ele>
      </trkpt>
      <trkpt lat="41.430769292637706" lon="-8.783696824684739">
        <ele>4.3203125</ele>
      </trkpt>
      <trkpt lat="41.43080030567944" lon="-8.78368760459125">
        <ele>4.3203125</ele>
      </trkpt>
      <trkpt lat="41.430829055607319" lon="-8.783681485801935">
        <ele>4.30859375</ele>
      </trkpt>
      <trkpt lat="41.430856129154563" lon="-8.783676205202937">
        <ele>4.29296875</ele>
      </trkpt>
      <trkpt lat="41.430885214358568" lon="-8.783672014251351">
        <ele>4.26953125</ele>
      </trkpt>
      <trkpt lat="41.430913880467415" lon="-8.783671092242002">
        <ele>4.234375</ele>
      </trkpt>
      <trkpt lat="41.430941624566913" lon="-8.783671092242002">
        <ele>4.1953125</ele>
      </trkpt>
      <trkpt lat="41.430971128866076" lon="-8.783672098070383">
        <ele>4.1484375</ele>
      </trkpt>
      <trkpt lat="41.431002141907811" lon="-8.783674025908113">
        <ele>4.09765625</ele>
      </trkpt>
      <trkpt lat="41.431031562387943" lon="-8.783675953745842">
        <ele>4.046875</ele>
      </trkpt>
      <trkpt lat="41.431061066687107" lon="-8.783677965402603">
        <ele>4</ele>
      </trkpt>
      <trkpt lat="41.431090403348207" lon="-8.783681066706777">
        <ele>3.9453125</ele>
      </trkpt>
      <trkpt lat="41.43111789599061" lon="-8.783684084191918">
        <ele>3.89453125</ele>
      </trkpt>
      <trkpt lat="41.431150166317821" lon="-8.78368710167706">
        <ele>3.8359375</ele>
      </trkpt>
      <trkpt lat="41.431183274835348" lon="-8.783689113333821">
        <ele>3.78515625</ele>
      </trkpt>
      <trkpt lat="41.431212024763227" lon="-8.783692130818963">
        <ele>3.73046875</ele>
      </trkpt>
      <trkpt lat="41.431242367252707" lon="-8.783696992322803">
        <ele>3.671875</ele>
      </trkpt>
      <trkpt lat="41.431273715570569" lon="-8.783699925988913">
        <ele>3.6171875</ele>
      </trkpt>
      <trkpt lat="41.431301208212972" lon="-8.783703865483403">
        <ele>3.56640625</ele>
      </trkpt>
      <trkpt lat="41.431333478540182" lon="-8.783707972615957">
        <ele>3.50390625</ele>
      </trkpt>
      <trkpt lat="41.431365581229329" lon="-8.783711912110448">
        <ele>3.44921875</ele>
      </trkpt>
      <trkpt lat="41.431397767737508" lon="-8.783713923767209">
        <ele>3.3984375</ele>
      </trkpt>
      <trkpt lat="41.43142961896956" lon="-8.783717611804605">
        <ele>3.33203125</ele>
      </trkpt>
      <trkpt lat="41.431457446888089" lon="-8.783723143860698">
        <ele>3.2421875</ele>
      </trkpt>
      <trkpt lat="41.431499188765883" lon="-8.783734040334821">
        <ele>3.09765625</ele>
      </trkpt>
      <trkpt lat="41.431528609246016" lon="-8.783740159124136">
        <ele>3.00390625</ele>
      </trkpt>
      <trkpt lat="41.431559873744845" lon="-8.783748038113117">
        <ele>2.8984375</ele>
      </trkpt>
      <trkpt lat="41.431586947292089" lon="-8.783751726150513">
        <ele>2.81640625</ele>
      </trkpt>
      <trkpt lat="41.431615613400936" lon="-8.783753486350179">
        <ele>2.7421875</ele>
      </trkpt>
      <trkpt lat="41.431643525138497" lon="-8.783753486350179">
        <ele>2.671875</ele>
      </trkpt>
      <trkpt lat="41.431670598685741" lon="-8.783750804141164">
        <ele>2.61328125</ele>
      </trkpt>
      <trkpt lat="41.431699600070715" lon="-8.783745523542166">
        <ele>2.55859375</ele>
      </trkpt>
      <trkpt lat="41.431728769093752" lon="-8.783737644553185">
        <ele>2.5078125</ele>
      </trkpt>
      <trkpt lat="41.431755255907774" lon="-8.783731190487742">
        <ele>2.4609375</ele>
      </trkpt>
      <trkpt lat="41.431778557598591" lon="-8.783714678138494">
        <ele>2.453125</ele>
      </trkpt>
      <trkpt lat="41.431789621710777" lon="-8.783679138869047">
        <ele>2.53515625</ele>
      </trkpt>
      <trkpt lat="41.431802110746503" lon="-8.78364653326571">
        <ele>2.6015625</ele>
      </trkpt>
      <trkpt lat="41.431811833754182" lon="-8.783612251281738">
        <ele>2.68359375</ele>
      </trkpt>
      <trkpt lat="41.431817784905434" lon="-8.783576795831323">
        <ele>2.7734375</ele>
      </trkpt>
      <trkpt lat="41.431823819875717" lon="-8.783541424199939">
        <ele>2.86328125</ele>
      </trkpt>
      <trkpt lat="41.431831363588572" lon="-8.78350337035954">
        <ele>2.95703125</ele>
      </trkpt>
      <trkpt lat="41.431837985292077" lon="-8.783478392288089">
        <ele>3.01171875</ele>
      </trkpt>
      <trkpt lat="41.432081563398242" lon="-8.783218050375581">
        <ele>3</ele>
      </trkpt>
      <trkpt lat="41.432090532034636" lon="-8.783211009576917">
        <ele>2.98828125</ele>
      </trkpt>
      <trkpt lat="41.432323381304741" lon="-8.783025266602635">
        <ele>2.73828125</ele>
      </trkpt>
      <trkpt lat="41.432349281385541" lon="-8.783011436462402">
        <ele>2.70703125</ele>
      </trkpt>
      <trkpt lat="41.432374762371182" lon="-8.782994085922837">
        <ele>2.6875</ele>
      </trkpt>
      <trkpt lat="41.43240250647068" lon="-8.782978830859065">
        <ele>2.65234375</ele>
      </trkpt>
      <trkpt lat="41.432428825646639" lon="-8.782965503633022">
        <ele>2.609375</ele>
      </trkpt>
      <trkpt lat="41.432459084317088" lon="-8.78294488415122">
        <ele>2.56640625</ele>
      </trkpt>
      <trkpt lat="41.43248456530273" lon="-8.782923007383943">
        <ele>2.5390625</ele>
      </trkpt>
      <trkpt lat="41.432508369907737" lon="-8.782900627702475">
        <ele>2.51953125</ele>
      </trkpt>
      <trkpt lat="41.432531084865332" lon="-8.782878331840038">
        <ele>2.50390625</ele>
      </trkpt>
      <trkpt lat="41.432552207261324" lon="-8.782854443415999">
        <ele>2.49609375</ele>
      </trkpt>
      <trkpt lat="41.432576179504395" lon="-8.782826950773597">
        <ele>2.48828125</ele>
      </trkpt>
      <trkpt lat="41.432593865320086" lon="-8.782800296321511">
        <ele>2.49609375</ele>
      </trkpt>
      <trkpt lat="41.432599816471338" lon="-8.782765176147223">
        <ele>2.54296875</ele>
      </trkpt>
      <trkpt lat="41.432603001594543" lon="-8.782728966325521">
        <ele>2.59765625</ele>
      </trkpt>
      <trkpt lat="41.43260576762259" lon="-8.78269275650382">
        <ele>2.65234375</ele>
      </trkpt>
      <trkpt lat="41.432606354355812" lon="-8.782652942463756">
        <ele>2.71875</ele>
      </trkpt>
      <trkpt lat="41.432608282193542" lon="-8.782614888623357">
        <ele>2.78125</ele>
      </trkpt>
      <trkpt lat="41.432610712945461" lon="-8.782574152573943">
        <ele>2.84765625</ele>
      </trkpt>
      <trkpt lat="41.432622782886028" lon="-8.782536098733544">
        <ele>2.890625</ele>
      </trkpt>
      <trkpt lat="41.432634852826595" lon="-8.78251388669014">
        <ele>2.90625</ele>
      </trkpt>
      <trkpt lat="41.433030981570482" lon="-8.78235999494791">
        <ele>2.578125</ele>
      </trkpt>
      <trkpt lat="41.433034082874656" lon="-8.782358402386308">
        <ele>2.578125</ele>
      </trkpt>
      <trkpt lat="41.433372963219881" lon="-8.782280534505844">
        <ele>2.3984375</ele>
      </trkpt>
      <trkpt lat="41.433372963219881" lon="-8.782282546162605">
        <ele>2.39453125</ele>
      </trkpt>
      <trkpt lat="41.433600364252925" lon="-8.782569877803326">
        <ele>1.68359375</ele>
      </trkpt>
      <trkpt lat="41.433615703135729" lon="-8.782601477578282">
        <ele>1.625</ele>
      </trkpt>
      <trkpt lat="41.433632969856262" lon="-8.782639531418681">
        <ele>1.5546875</ele>
      </trkpt>
      <trkpt lat="41.433648392558098" lon="-8.782674735412002">
        <ele>1.48828125</ele>
      </trkpt>
      <trkpt lat="41.433659624308348" lon="-8.782707676291466">
        <ele>1.43359375</ele>
      </trkpt>
      <trkpt lat="41.43367144279182" lon="-8.782745730131865">
        <ele>1.3671875</ele>
      </trkpt>
      <trkpt lat="41.433678735047579" lon="-8.78278168849647">
        <ele>1.30859375</ele>
      </trkpt>
      <trkpt lat="41.43368611112237" lon="-8.782821418717504">
        <ele>1.24609375</ele>
      </trkpt>
      <trkpt lat="41.433693151921034" lon="-8.782862992957234">
        <ele>1.18359375</ele>
      </trkpt>
      <trkpt lat="41.433700444176793" lon="-8.782902052626014">
        <ele>1.12109375</ele>
      </trkpt>
      <trkpt lat="41.433708406984806" lon="-8.782937088981271">
        <ele>1.06640625</ele>
      </trkpt>
      <trkpt lat="41.433715699240565" lon="-8.782973298802972">
        <ele>1.01171875</ele>
      </trkpt>
      <trkpt lat="41.433722320944071" lon="-8.783011101186275">
        <ele>0.96484375</ele>
      </trkpt>
      <trkpt lat="41.433730954304338" lon="-8.783056531101465">
        <ele>0.91015625</ele>
      </trkpt>
      <trkpt lat="41.433737827464938" lon="-8.783095423132181">
        <ele>0.86328125</ele>
      </trkpt>
      <trkpt lat="41.433744616806507" lon="-8.78313004039228">
        <ele>0.8203125</ele>
      </trkpt>
      <trkpt lat="41.433746963739395" lon="-8.7831393443048">
        <ele>0.8125</ele>
      </trkpt>
      <trkpt lat="41.433755932375789" lon="-8.7831652443856">
        <ele>0.78125</ele>
      </trkpt>
      <trkpt lat="41.434069667011499" lon="-8.782969024032354">
        <ele>0.83984375</ele>
      </trkpt>
      <trkpt lat="41.434272089973092" lon="-8.782873554155231">
        <ele>0.765625</ele>
      </trkpt>
      <trkpt lat="41.434274101629853" lon="-8.782868525013328">
        <ele>0.76953125</ele>
      </trkpt>
      <trkpt lat="41.434426568448544" lon="-8.78276945091784">
        <ele>0.8046875</ele>
      </trkpt>
      <trkpt lat="41.434426568448544" lon="-8.782768780365586">
        <ele>0.8046875</ele>
      </trkpt>
      <trkpt lat="41.434580460190773" lon="-8.782552862539887">
        <ele>1.1328125</ele>
      </trkpt>
      <trkpt lat="41.434580460190773" lon="-8.782552862539887">
        <ele>1.1328125</ele>
      </trkpt>
      <trkpt lat="41.434786822646856" lon="-8.782412381842732">
        <ele>1.39453125</ele>
      </trkpt>
      <trkpt lat="41.434788079932332" lon="-8.782410454005003">
        <ele>1.3984375</ele>
      </trkpt>
      <trkpt lat="41.435030400753021" lon="-8.782209791243076">
        <ele>2.16015625</ele>
      </trkpt>
      <trkpt lat="41.435030987486243" lon="-8.782207947224379">
        <ele>2.16796875</ele>
      </trkpt>
      <trkpt lat="41.435197619721293" lon="-8.782049110159278">
        <ele>2.71484375</ele>
      </trkpt>
      <trkpt lat="41.435201140120625" lon="-8.782045757398009">
        <ele>2.7265625</ele>
      </trkpt>
      <trkpt lat="41.435398869216442" lon="-8.781902091577649">
        <ele>3.30078125</ele>
      </trkpt>
      <trkpt lat="41.435581762343645" lon="-8.78175943158567">
        <ele>3.92578125</ele>
      </trkpt>
      <trkpt lat="41.435581762343645" lon="-8.781758509576321">
        <ele>3.9296875</ele>
      </trkpt>
      <trkpt lat="41.435801200568676" lon="-8.781631356105208">
        <ele>4.5625</ele>
      </trkpt>
      <trkpt lat="41.436115019023418" lon="-8.781519457697868">
        <ele>5.47265625</ele>
      </trkpt>
      <trkpt lat="41.436339989304543" lon="-8.781455168500543">
        <ele>6.171875</ele>
      </trkpt>
      <trkpt lat="41.436340576037765" lon="-8.781454246491194">
        <ele>6.1796875</ele>
      </trkpt>
      <trkpt lat="41.436797557398677" lon="-8.781265234574676">
        <ele>5.66015625</ele>
      </trkpt>
      <trkpt lat="41.437112800776958" lon="-8.781134728342295">
        <ele>4.828125</ele>
      </trkpt>
      <trkpt lat="41.437358474358916" lon="-8.781015202403069">
        <ele>4.6875</ele>
      </trkpt>
      <trkpt lat="41.437547821551561" lon="-8.780933897942305">
        <ele>4.890625</ele>
      </trkpt>
      <trkpt lat="41.437547234818339" lon="-8.780933897942305">
        <ele>4.890625</ele>
      </trkpt>
      <trkpt lat="41.437764577567577" lon="-8.78082518465817">
        <ele>5.2890625</ele>
      </trkpt>
      <trkpt lat="41.437877900898457" lon="-8.780762990936637">
        <ele>5.57421875</ele>
      </trkpt>
      <trkpt lat="41.438166908919811" lon="-8.780570039525628">
        <ele>6.30078125</ele>
      </trkpt>
      <trkpt lat="41.438166322186589" lon="-8.780570039525628">
        <ele>6.3046875</ele>
      </trkpt>
      <trkpt lat="41.438640737906098" lon="-8.780235769227147">
        <ele>5.296875</ele>
      </trkpt>
      <trkpt lat="41.439187657088041" lon="-8.779909629374743">
        <ele>5.5</ele>
      </trkpt>
      <trkpt lat="41.439720327034593" lon="-8.779668314382434">
        <ele>6.87890625</ele>
      </trkpt>
      <trkpt lat="41.440266324207187" lon="-8.779376205056906">
        <ele>7.2890625</ele>
      </trkpt>
      <trkpt lat="41.440266324207187" lon="-8.779375283047557">
        <ele>7.2890625</ele>
      </trkpt>
      <trkpt lat="41.440849034115672" lon="-8.779133465141058">
        <ele>7.578125</ele>
      </trkpt>
      <trkpt lat="41.44157406874001" lon="-8.778826938942075">
        <ele>7.9921875</ele>
      </trkpt>
      <trkpt lat="41.44157406874001" lon="-8.778825094923377">
        <ele>7.99609375</ele>
      </trkpt>
      <trkpt lat="41.442357776686549" lon="-8.778467858210206">
        <ele>7.21484375</ele>
      </trkpt>
      <trkpt lat="41.442358363419771" lon="-8.778466936200857">
        <ele>7.2109375</ele>
      </trkpt>
      <trkpt lat="41.442874018102884" lon="-8.77824280411005">
        <ele>7.13671875</ele>
      </trkpt>
      <trkpt lat="41.443132013082504" lon="-8.778150686994195">
        <ele>7.1875</ele>
      </trkpt>
      <trkpt lat="41.443132013082504" lon="-8.778151609003544">
        <ele>7.1875</ele>
      </trkpt>
      <trkpt lat="41.443316666409373" lon="-8.778088828548789">
        <ele>7.08984375</ele>
      </trkpt>
      <trkpt lat="41.443452537059784" lon="-8.778040297329426">
        <ele>7.03515625</ele>
      </trkpt>
      <trkpt lat="41.443535098806024" lon="-8.778008613735437">
        <ele>7.01171875</ele>
      </trkpt>
      <trkpt lat="41.44356326200068" lon="-8.777912640944123">
        <ele>6.8984375</ele>
      </trkpt>
      <trkpt lat="41.443547001108527" lon="-8.777792863547802">
        <ele>6.7421875</ele>
      </trkpt>
      <trkpt lat="41.443520681932569" lon="-8.777685994282365">
        <ele>6.62109375</ele>
      </trkpt>
      <trkpt lat="41.443482879549265" lon="-8.777592200785875">
        <ele>6.546875</ele>
      </trkpt>
      <trkpt lat="41.443440383300185" lon="-8.777491450309753">
        <ele>6.4921875</ele>
      </trkpt>
      <trkpt lat="41.443398725241423" lon="-8.777390867471695">
        <ele>6.45703125</ele>
      </trkpt>
      <trkpt lat="41.443363940343261" lon="-8.777287937700748">
        <ele>6.43359375</ele>
      </trkpt>
      <trkpt lat="41.443330496549606" lon="-8.777182325720787">
        <ele>6.42578125</ele>
      </trkpt>
      <trkpt lat="41.44329403527081" lon="-8.777085179463029">
        <ele>6.41015625</ele>
      </trkpt>
      <trkpt lat="41.443257741630077" lon="-8.776990044862032">
        <ele>6.3828125</ele>
      </trkpt>
      <trkpt lat="41.443241816014051" lon="-8.776874793693423">
        <ele>6.28515625</ele>
      </trkpt>
      <trkpt lat="41.443237457424402" lon="-8.776760213077068">
        <ele>6.15625</ele>
      </trkpt>
      <trkpt lat="41.443254891782999" lon="-8.776641106233001">
        <ele>5.97265625</ele>
      </trkpt>
      <trkpt lat="41.443289425224066" lon="-8.776542618870735">
        <ele>5.76953125</ele>
      </trkpt>
      <trkpt lat="41.443311888724566" lon="-8.776442538946867">
        <ele>5.59765625</ele>
      </trkpt>
      <trkpt lat="41.443286826834083" lon="-8.776343129575253">
        <ele>5.5390625</ele>
      </trkpt>
      <trkpt lat="41.443230919539928" lon="-8.776264674961567">
        <ele>5.58984375</ele>
      </trkpt>
      <trkpt lat="41.443168977275491" lon="-8.776170881465077">
        <ele>5.6328125</ele>
      </trkpt>
      <trkpt lat="41.443123295903206" lon="-8.776079937815666">
        <ele>5.62890625</ele>
      </trkpt>
      <trkpt lat="41.443077530711889" lon="-8.775967452675104">
        <ele>5.578125</ele>
      </trkpt>
      <trkpt lat="41.443034615367651" lon="-8.775855638086796">
        <ele>5.44140625</ele>
      </trkpt>
      <trkpt lat="41.442997399717569" lon="-8.775760419666767">
        <ele>5.328125</ele>
      </trkpt>
      <trkpt lat="41.442972170189023" lon="-8.775659333914518">
        <ele>5.20703125</ele>
      </trkpt>
      <trkpt lat="41.44295196980238" lon="-8.775551039725542">
        <ele>5.078125</ele>
      </trkpt>
      <trkpt lat="41.442938977852464" lon="-8.775441907346249">
        <ele>5</ele>
      </trkpt>
      <trkpt lat="41.44294367171824" lon="-8.775329003110528">
        <ele>5</ele>
      </trkpt>
      <trkpt lat="41.442974433302879" lon="-8.775220792740583">
        <ele>5</ele>
      </trkpt>
      <trkpt lat="41.443022042512894" lon="-8.77512339502573">
        <ele>5</ele>
      </trkpt>
      <trkpt lat="41.443071914836764" lon="-8.775039073079824">
        <ele>5</ele>
      </trkpt>
      <trkpt lat="41.443138718605042" lon="-8.774939412251115">
        <ele>4.93359375</ele>
      </trkpt>
      <trkpt lat="41.443208623677492" lon="-8.774833045899868">
        <ele>4.84765625</ele>
      </trkpt>
      <trkpt lat="41.443266794085503" lon="-8.774739671498537">
        <ele>4.77734375</ele>
      </trkpt>
      <trkpt lat="41.443324629217386" lon="-8.774661216884851">
        <ele>4.7109375</ele>
      </trkpt>
      <trkpt lat="41.443390510976315" lon="-8.774582678452134">
        <ele>4.71484375</ele>
      </trkpt>
      <trkpt lat="41.443454464897513" lon="-8.774516209959984">
        <ele>4.71875</ele>
      </trkpt>
      <trkpt lat="41.443519843742251" lon="-8.774448987096548">
        <ele>4.71875</ele>
      </trkpt>
      <trkpt lat="41.44360089674592" lon="-8.774403389543295">
        <ele>4.6796875</ele>
      </trkpt>
      <trkpt lat="41.443694103509188" lon="-8.774372627958655">
        <ele>4.6015625</ele>
      </trkpt>
      <trkpt lat="41.443772809579968" lon="-8.774344800040126">
        <ele>4.54296875</ele>
      </trkpt>
      <trkpt lat="41.443860987201333" lon="-8.774323090910912">
        <ele>4.4609375</ele>
      </trkpt>
      <trkpt lat="41.443944470956922" lon="-8.77431177534163">
        <ele>4.375</ele>
      </trkpt>
      <trkpt lat="41.444031056016684" lon="-8.774290652945638">
        <ele>4.296875</ele>
      </trkpt>
      <trkpt lat="41.44411294721067" lon="-8.774267518892884">
        <ele>4.2265625</ele>
      </trkpt>
      <trkpt lat="41.444200286641717" lon="-8.774244552478194">
        <ele>4.1484375</ele>
      </trkpt>
      <trkpt lat="41.444291649386287" lon="-8.774218065664172">
        <ele>4.0703125</ele>
      </trkpt>
      <trkpt lat="41.444382425397635" lon="-8.774199541658163">
        <ele>3.984375</ele>
      </trkpt>
      <trkpt lat="41.444443697109818" lon="-8.774184789508581">
        <ele>3.9296875</ele>
      </trkpt>
      <trkpt lat="41.445774575695395" lon="-8.773942971602082">
        <ele>3.70703125</ele>
      </trkpt>
      <trkpt lat="41.446266006678343" lon="-8.773759743198752">
        <ele>4.0859375</ele>
      </trkpt>
      <trkpt lat="41.446347394958138" lon="-8.773753792047501">
        <ele>4.0859375</ele>
      </trkpt>
      <trkpt lat="41.446441104635596" lon="-8.77374155446887">
        <ele>4.09375</ele>
      </trkpt>
      <trkpt lat="41.446532048285007" lon="-8.773723114281893">
        <ele>4.1171875</ele>
      </trkpt>
      <trkpt lat="41.446623243391514" lon="-8.773696878924966">
        <ele>4.1484375</ele>
      </trkpt>
      <trkpt lat="41.446704380214214" lon="-8.773672822862864">
        <ele>4.1796875</ele>
      </trkpt>
      <trkpt lat="41.446786858141422" lon="-8.773643905296922">
        <ele>4.2109375</ele>
      </trkpt>
      <trkpt lat="41.446868162602186" lon="-8.773608952760696">
        <ele>4.25390625</ele>
      </trkpt>
      <trkpt lat="41.446950975805521" lon="-8.773569976910949">
        <ele>4.30078125</ele>
      </trkpt>
      <trkpt lat="41.44702959805727" lon="-8.773528067395091">
        <ele>4.3515625</ele>
      </trkpt>
      <trkpt lat="41.447112075984478" lon="-8.773486074060202">
        <ele>4.40234375</ele>
      </trkpt>
      <trkpt lat="41.447192626073956" lon="-8.773440895602107">
        <ele>4.45703125</ele>
      </trkpt>
      <trkpt lat="41.44726999104023" lon="-8.773405691608787">
        <ele>4.5</ele>
      </trkpt>
      <trkpt lat="41.447352552786469" lon="-8.773363698273897">
        <ele>4.55078125</ele>
      </trkpt>
      <trkpt lat="41.447431091219187" lon="-8.773330254480243">
        <ele>4.58984375</ele>
      </trkpt>
      <trkpt lat="41.447516838088632" lon="-8.773292368277907">
        <ele>4.6328125</ele>
      </trkpt>
      <trkpt lat="41.447600489482284" lon="-8.773264205083251">
        <ele>4.66796875</ele>
      </trkpt>
      <trkpt lat="41.447684392333031" lon="-8.773236041888595">
        <ele>4.703125</ele>
      </trkpt>
      <trkpt lat="41.447762930765748" lon="-8.773208297789097">
        <ele>4.734375</ele>
      </trkpt>
      <trkpt lat="41.447844067588449" lon="-8.773177368566394">
        <ele>4.7734375</ele>
      </trkpt>
      <trkpt lat="41.447935262694955" lon="-8.77315130084753">
        <ele>4.8046875</ele>
      </trkpt>
      <trkpt lat="41.448016315698624" lon="-8.773123556748033">
        <ele>4.8359375</ele>
      </trkpt>
      <trkpt lat="41.448024110868573" lon="-8.773118779063225">
        <ele>4.84375</ele>
      </trkpt>
      <trkpt lat="41.448938911780715" lon="-8.772964971140027">
        <ele>5</ele>
      </trkpt>
      <trkpt lat="41.448984509333968" lon="-8.772943764925003">
        <ele>5.00390625</ele>
      </trkpt>
      <trkpt lat="41.449415171518922" lon="-8.772886851802468">
        <ele>5.07421875</ele>
      </trkpt>
      <trkpt lat="41.449513575062156" lon="-8.772866064682603">
        <ele>5.10546875</ele>
      </trkpt>
      <trkpt lat="41.449594460427761" lon="-8.772844774648547">
        <ele>5.140625</ele>
      </trkpt>
      <trkpt lat="41.449661431834102" lon="-8.772818455472589">
        <ele>5.18359375</ele>
      </trkpt>
      <trkpt lat="41.450739596039057" lon="-8.772344291210175">
        <ele>5.921875</ele>
      </trkpt>
      <trkpt lat="41.450739596039057" lon="-8.772342279553413">
        <ele>5.92578125</ele>
      </trkpt>
      <trkpt lat="41.451517855748534" lon="-8.771985713392496">
        <ele>7.71484375</ele>
      </trkpt>
      <trkpt lat="41.451517855748534" lon="-8.771983785554767">
        <ele>7.71875</ele>
      </trkpt>
      <trkpt lat="41.452234843745828" lon="-8.771751439198852">
        <ele>8.96484375</ele>
      </trkpt>
      <trkpt lat="41.452322015538812" lon="-8.771725622937083">
        <ele>8.84375</ele>
      </trkpt>
      <trkpt lat="41.452401056885719" lon="-8.771698884665966">
        <ele>8.71875</ele>
      </trkpt>
      <trkpt lat="41.452482109889388" lon="-8.771665105596185">
        <ele>8.60546875</ele>
      </trkpt>
      <trkpt lat="41.452565845102072" lon="-8.771639624610543">
        <ele>8.46484375</ele>
      </trkpt>
      <trkpt lat="41.452649245038629" lon="-8.771608527749777">
        <ele>8.33984375</ele>
      </trkpt>
      <trkpt lat="41.452735578641295" lon="-8.771571395918727">
        <ele>8.21875</ele>
      </trkpt>
      <trkpt lat="41.452818894758821" lon="-8.771541807800531">
        <ele>8.08984375</ele>
      </trkpt>
      <trkpt lat="41.452896930277348" lon="-8.771510878577828">
        <ele>7.9765625</ele>
      </trkpt>
      <trkpt lat="41.452983766794205" lon="-8.77148212864995">
        <ele>7.83984375</ele>
      </trkpt>
      <trkpt lat="41.453089294955134" lon="-8.771440219134092">
        <ele>7.69140625</ele>
      </trkpt>
      <trkpt lat="41.453183256089687" lon="-8.771408786997199">
        <ele>7.5625</ele>
      </trkpt>
      <trkpt lat="41.45326741039753" lon="-8.771372996270657">
        <ele>7.44921875</ele>
      </trkpt>
      <trkpt lat="41.453346535563469" lon="-8.771348940208554">
        <ele>7.30859375</ele>
      </trkpt>
      <trkpt lat="41.453424319624901" lon="-8.771310299634933">
        <ele>7.171875</ele>
      </trkpt>
      <trkpt lat="41.453501516953111" lon="-8.771260511130095">
        <ele>7.015625</ele>
      </trkpt>
      <trkpt lat="41.453581312671304" lon="-8.771211141720414">
        <ele>6.8671875</ele>
      </trkpt>
      <trkpt lat="41.453651888296008" lon="-8.771158587187529">
        <ele>6.75390625</ele>
      </trkpt>
      <trkpt lat="41.453724978491664" lon="-8.771108128130436">
        <ele>6.64453125</ele>
      </trkpt>
      <trkpt lat="41.453812820836902" lon="-8.77105750143528">
        <ele>6.51171875</ele>
      </trkpt>
      <trkpt lat="41.453890018165112" lon="-8.771019531413913">
        <ele>6.40234375</ele>
      </trkpt>
      <trkpt lat="41.453971322625875" lon="-8.770987428724766">
        <ele>6.40234375</ele>
      </trkpt>
      <trkpt lat="41.454050363972783" lon="-8.770959684625268">
        <ele>6.43359375</ele>
      </trkpt>
      <trkpt lat="41.45412739366293" lon="-8.77092607319355">
        <ele>6.4765625</ele>
      </trkpt>
      <trkpt lat="41.454212218523026" lon="-8.770886175334454">
        <ele>6.5234375</ele>
      </trkpt>
      <trkpt lat="41.454291343688965" lon="-8.770848624408245">
        <ele>6.5703125</ele>
      </trkpt>
      <trkpt lat="41.454381365329027" lon="-8.770816186442971">
        <ele>6.609375</ele>
      </trkpt>
      <trkpt lat="41.454468285664916" lon="-8.770783832296729">
        <ele>6.6484375</ele>
      </trkpt>
      <trkpt lat="41.454492341727018" lon="-8.770774863660336">
        <ele>6.65625</ele>
      </trkpt>
      <trkpt lat="41.454976983368397" lon="-8.770567663013935">
        <ele>6.65234375</ele>
      </trkpt>
      <trkpt lat="41.455061305314302" lon="-8.770545953884721">
        <ele>6.57421875</ele>
      </trkpt>
      <trkpt lat="41.455149985849857" lon="-8.770508402958512">
        <ele>6.5</ele>
      </trkpt>
      <trkpt lat="41.455233721062541" lon="-8.770474372431636">
        <ele>6.41015625</ele>
      </trkpt>
      <trkpt lat="41.455317372456193" lon="-8.770438581705093">
        <ele>6.30859375</ele>
      </trkpt>
      <trkpt lat="41.455400688573718" lon="-8.770403796806931">
        <ele>6.2109375</ele>
      </trkpt>
      <trkpt lat="41.455484423786402" lon="-8.770374208688736">
        <ele>6.109375</ele>
      </trkpt>
      <trkpt lat="41.455567739903927" lon="-8.770344704389572">
        <ele>6.0078125</ele>
      </trkpt>
      <trkpt lat="41.455654073506594" lon="-8.770317044109106">
        <ele>6</ele>
      </trkpt>
      <trkpt lat="41.455739568918943" lon="-8.770296676084399">
        <ele>6</ele>
      </trkpt>
      <trkpt lat="41.455828417092562" lon="-8.770267423242331">
        <ele>6</ele>
      </trkpt>
      <trkpt lat="41.455909302458167" lon="-8.770242696627975">
        <ele>6</ele>
      </trkpt>
      <trkpt lat="41.455992367118597" lon="-8.770226435735822">
        <ele>6</ele>
      </trkpt>
      <trkpt lat="41.456076521426439" lon="-8.770228950306773">
        <ele>6</ele>
      </trkpt>
      <trkpt lat="41.456162435933948" lon="-8.770234314724803">
        <ele>6</ele>
      </trkpt>
      <trkpt lat="41.456246506422758" lon="-8.770244875922799">
        <ele>6</ele>
      </trkpt>
      <trkpt lat="41.456333929672837" lon="-8.770254766568542">
        <ele>6</ele>
      </trkpt>
      <trkpt lat="41.456419257447124" lon="-8.770262477919459">
        <ele>5.98828125</ele>
      </trkpt>
      <trkpt lat="41.456504920497537" lon="-8.770273122936487">
        <ele>5.9140625</ele>
      </trkpt>
      <trkpt lat="41.456595864146948" lon="-8.770281504839659">
        <ele>5.83203125</ele>
      </trkpt>
      <trkpt lat="41.456686640158296" lon="-8.77028695307672">
        <ele>5.74609375</ele>
      </trkpt>
      <trkpt lat="41.456779846921563" lon="-8.77029525116086">
        <ele>5.65625</ele>
      </trkpt>
      <trkpt lat="41.45686861127615" lon="-8.770297765731812">
        <ele>5.57421875</ele>
      </trkpt>
      <trkpt lat="41.456952765583992" lon="-8.770305812358856">
        <ele>5.48828125</ele>
      </trkpt>
      <trkpt lat="41.457046223804355" lon="-8.770314110442996">
        <ele>5.39453125</ele>
      </trkpt>
      <trkpt lat="41.457129959017038" lon="-8.770325509831309">
        <ele>5.3046875</ele>
      </trkpt>
      <trkpt lat="41.45721361041069" lon="-8.770336825400591">
        <ele>5.2109375</ele>
      </trkpt>
      <trkpt lat="41.45730547606945" lon="-8.770336825400591">
        <ele>5.18359375</ele>
      </trkpt>
      <trkpt lat="41.457388959825039" lon="-8.770323833450675">
        <ele>5.19921875</ele>
      </trkpt>
      <trkpt lat="41.457478478550911" lon="-8.770305896177888">
        <ele>5.21875</ele>
      </trkpt>
      <trkpt lat="41.457558525726199" lon="-8.770282762125134">
        <ele>5.25</ele>
      </trkpt>
      <trkpt lat="41.457637399435043" lon="-8.770258873701096">
        <ele>5.27734375</ele>
      </trkpt>
      <trkpt lat="41.457718620076776" lon="-8.770229201763868">
        <ele>5.3125</ele>
      </trkpt>
      <trkpt lat="41.457808390259743" lon="-8.770204391330481">
        <ele>5.34375</ele>
      </trkpt>
      <trkpt lat="41.457888102158904" lon="-8.770181341096759">
        <ele>5.37109375</ele>
      </trkpt>
      <trkpt lat="41.457971250638366" lon="-8.770156279206276">
        <ele>5.3984375</ele>
      </trkpt>
      <trkpt lat="41.458053896203637" lon="-8.770139934495091">
        <ele>5.41796875</ele>
      </trkpt>
      <trkpt lat="41.458073342218995" lon="-8.770139934495091">
        <ele>5.41796875</ele>
      </trkpt>
      <trkpt lat="41.458389842882752" lon="-8.770058546215296">
        <ele>5.515625</ele>
      </trkpt>
      <trkpt lat="41.458472572267056" lon="-8.770039603114128">
        <ele>5.5390625</ele>
      </trkpt>
      <trkpt lat="41.45855437964201" lon="-8.770024599507451">
        <ele>5.55859375</ele>
      </trkpt>
      <trkpt lat="41.458641635254025" lon="-8.770007165148854">
        <ele>5.578125</ele>
      </trkpt>
      <trkpt lat="41.458726460114121" lon="-8.769992496818304">
        <ele>5.59765625</ele>
      </trkpt>
      <trkpt lat="41.458809608593583" lon="-8.769980845972896">
        <ele>5.609375</ele>
      </trkpt>
      <trkpt lat="41.458890242502093" lon="-8.769990904256701">
        <ele>5.59765625</ele>
      </trkpt>
      <trkpt lat="41.458982024341822" lon="-8.769998950883746">
        <ele>5.625</ele>
      </trkpt>
      <trkpt lat="41.459073387086391" lon="-8.770004147663713">
        <ele>5.66796875</ele>
      </trkpt>
      <trkpt lat="41.459161480888724" lon="-8.770007248967886">
        <ele>5.70703125</ele>
      </trkpt>
      <trkpt lat="41.459242952987552" lon="-8.76998889259994">
        <ele>5.76171875</ele>
      </trkpt>
      <trkpt lat="41.459323754534125" lon="-8.769948910921812">
        <ele>5.82421875</ele>
      </trkpt>
      <trkpt lat="41.459382344037294" lon="-8.769871294498444">
        <ele>5.890625</ele>
      </trkpt>
      <trkpt lat="41.459407657384872" lon="-8.769768700003624">
        <ele>5.9453125</ele>
      </trkpt>
      <trkpt lat="41.459424337372184" lon="-8.769632829353213">
        <ele>6</ele>
      </trkpt>
      <trkpt lat="41.459441604092717" lon="-8.769527049735188">
        <ele>6</ele>
      </trkpt>
      <trkpt lat="41.459461804479361" lon="-8.76941573806107">
        <ele>6</ele>
      </trkpt>
      <trkpt lat="41.45948376506567" lon="-8.769304426386952">
        <ele>6</ele>
      </trkpt>
      <trkpt lat="41.459506815299392" lon="-8.769192025065422">
        <ele>6</ele>
      </trkpt>
      <trkpt lat="41.459534894675016" lon="-8.769091526046395">
        <ele>6</ele>
      </trkpt>
      <trkpt lat="41.459570601582527" lon="-8.768990524113178">
        <ele>6</ele>
      </trkpt>
      <trkpt lat="41.459612930193543" lon="-8.76889874227345">
        <ele>6</ele>
      </trkpt>
      <trkpt lat="41.459677470847964" lon="-8.768803691491485">
        <ele>6</ele>
      </trkpt>
      <trkpt lat="41.459734216332436" lon="-8.768714927136898">
        <ele>6</ele>
      </trkpt>
      <trkpt lat="41.459795236587524" lon="-8.768640076741576">
        <ele>6</ele>
      </trkpt>
      <trkpt lat="41.459858939051628" lon="-8.768576122820377">
        <ele>6</ele>
      </trkpt>
      <trkpt lat="41.459912750869989" lon="-8.768478892743587">
        <ele>6</ele>
      </trkpt>
      <trkpt lat="41.459954911842942" lon="-8.768379734829068">
        <ele>6</ele>
      </trkpt>
      <trkpt lat="41.4599968213588" lon="-8.768283175304532">
        <ele>6</ele>
      </trkpt>
      <trkpt lat="41.460035378113389" lon="-8.768178652971983">
        <ele>6</ele>
      </trkpt>
      <trkpt lat="41.460066055878997" lon="-8.768075555562973">
        <ele>6</ele>
      </trkpt>
      <trkpt lat="41.460100673139095" lon="-8.767960136756301">
        <ele>6.015625</ele>
      </trkpt>
      <trkpt lat="41.460138559341431" lon="-8.767859302461147">
        <ele>6.07421875</ele>
      </trkpt>
      <trkpt lat="41.460175355896354" lon="-8.76775436103344">
        <ele>6.1484375</ele>
      </trkpt>
      <trkpt lat="41.460216259583831" lon="-8.767654364928603">
        <ele>6.23046875</ele>
      </trkpt>
      <trkpt lat="41.460251295939088" lon="-8.76755453646183">
        <ele>6.32421875</ele>
      </trkpt>
      <trkpt lat="41.460265209898353" lon="-8.767523188143969">
        <ele>6.35546875</ele>
      </trkpt>
      <trkpt lat="41.460499484091997" lon="-8.767593260854483">
        <ele>6.4375</ele>
      </trkpt>
      <trkpt lat="41.46059981547296" lon="-8.767604408785701">
        <ele>6.46484375</ele>
      </trkpt>
      <trkpt lat="41.460679862648249" lon="-8.767619915306568">
        <ele>6.4453125</ele>
      </trkpt>
      <trkpt lat="41.460766699165106" lon="-8.767644893378019">
        <ele>6.4140625</ele>
      </trkpt>
      <trkpt lat="41.460854122415185" lon="-8.767668195068836">
        <ele>6.38671875</ele>
      </trkpt>
      <trkpt lat="41.460944982245564" lon="-8.767684455960989">
        <ele>6.3671875</ele>
      </trkpt>
      <trkpt lat="41.461043218150735" lon="-8.767687389627099">
        <ele>6.36328125</ele>
      </trkpt>
      <trkpt lat="41.461134664714336" lon="-8.767696358263493">
        <ele>6.35546875</ele>
      </trkpt>
      <trkpt lat="41.461227787658572" lon="-8.767715385183692">
        <ele>6.33203125</ele>
      </trkpt>
      <trkpt lat="41.461311271414161" lon="-8.767729047685862">
        <ele>6.31640625</ele>
      </trkpt>
      <trkpt lat="41.461398946121335" lon="-8.767755283042789">
        <ele>6.28125</ele>
      </trkpt>
      <trkpt lat="41.461488464847207" lon="-8.767773807048798">
        <ele>6.16015625</ele>
      </trkpt>
      <trkpt lat="41.461575049906969" lon="-8.767787469550967">
        <ele>6.0390625</ele>
      </trkpt>
      <trkpt lat="41.461659455671906" lon="-8.767798282206059">
        <ele>5.92578125</ele>
      </trkpt>
      <trkpt lat="41.461740508675575" lon="-8.767811022698879">
        <ele>5.8125</ele>
      </trkpt>
      <trkpt lat="41.461822651326656" lon="-8.767822673544288">
        <ele>5.69921875</ele>
      </trkpt>
      <trkpt lat="41.461907560005784" lon="-8.767834911122918">
        <ele>5.58203125</ele>
      </trkpt>
      <trkpt lat="41.461987355723977" lon="-8.767849244177341">
        <ele>5.46875</ele>
      </trkpt>
      <trkpt lat="41.462069246917963" lon="-8.767882436513901">
        <ele>5.33203125</ele>
      </trkpt>
      <trkpt lat="41.462140409275889" lon="-8.767937337979674">
        <ele>5.1796875</ele>
      </trkpt>
      <trkpt lat="41.462198663502932" lon="-8.768026940524578">
        <ele>5.04296875</ele>
      </trkpt>
      <trkpt lat="41.462248954921961" lon="-8.768117213621736">
        <ele>5.05078125</ele>
      </trkpt>
      <trkpt lat="41.462251553311944" lon="-8.768121236935258">
        <ele>5.0625</ele>
      </trkpt>
      <trkpt lat="41.462822612375021" lon="-8.768975352868438">
        <ele>5.96875</ele>
      </trkpt>
      <trkpt lat="41.463719140738249" lon="-8.768541505560279">
        <ele>11.05859375</ele>
      </trkpt>
      <trkpt lat="41.463720398023725" lon="-8.768541505560279">
        <ele>11.06640625</ele>
      </trkpt>
      <trkpt lat="41.464133877307177" lon="-8.768352577462792">
        <ele>13.76953125</ele>
      </trkpt>
      <trkpt lat="41.464722538366914" lon="-8.768184771761298">
        <ele>16.7109375</ele>
      </trkpt>
      <trkpt lat="41.464807279407978" lon="-8.768161134794354">
        <ele>16.5390625</ele>
      </trkpt>
      <trkpt lat="41.46489093080163" lon="-8.768136827275157">
        <ele>16.265625</ele>
      </trkpt>
      <trkpt lat="41.464970391243696" lon="-8.768121907487512">
        <ele>15.99609375</ele>
      </trkpt>
      <trkpt lat="41.46505169570446" lon="-8.768110759556293">
        <ele>15.71875</ele>
      </trkpt>
      <trkpt lat="41.46513819694519" lon="-8.768096510320902">
        <ele>15.42578125</ele>
      </trkpt>
      <trkpt lat="41.465219501405954" lon="-8.768082847818732">
        <ele>15.1484375</ele>
      </trkpt>
      <trkpt lat="41.465306002646685" lon="-8.768074885010719">
        <ele>14.84375</ele>
      </trkpt>
      <trkpt lat="41.465393342077732" lon="-8.768079997971654">
        <ele>14.5234375</ele>
      </trkpt>
      <trkpt lat="41.465474646538496" lon="-8.768085110932589">
        <ele>14.2265625</ele>
      </trkpt>
      <trkpt lat="41.465568020939827" lon="-8.768093409016728">
        <ele>13.87890625</ele>
      </trkpt>
      <trkpt lat="41.465646978467703" lon="-8.768096258863807">
        <ele>13.5546875</ele>
      </trkpt>
      <trkpt lat="41.465937830507755" lon="-8.768060300499201">
        <ele>12.4765625</ele>
      </trkpt>
      <trkpt lat="41.466022403910756" lon="-8.76804705709219">
        <ele>12.1875</ele>
      </trkpt>
      <trkpt lat="41.466112257912755" lon="-8.768042530864477">
        <ele>11.859375</ele>
      </trkpt>
      <trkpt lat="41.466208146885037" lon="-8.768032304942608">
        <ele>11.53125</ele>
      </trkpt>
      <trkpt lat="41.466296995058656" lon="-8.768020905554295">
        <ele>11.24609375</ele>
      </trkpt>
      <trkpt lat="41.466388357803226" lon="-8.768012272194028">
        <ele>10.9453125</ele>
      </trkpt>
      <trkpt lat="41.466472093015909" lon="-8.768000788986683">
        <ele>10.953125</ele>
      </trkpt>
      <trkpt lat="41.466559767723083" lon="-8.767985533922911">
        <ele>11.015625</ele>
      </trkpt>
      <trkpt lat="41.46663973107934" lon="-8.767970111221075">
        <ele>11.06640625</ele>
      </trkpt>
      <trkpt lat="41.466721538454294" lon="-8.767946977168322">
        <ele>11.1484375</ele>
      </trkpt>
      <trkpt lat="41.466806028038263" lon="-8.76791613176465">
        <ele>11.265625</ele>
      </trkpt>
      <trkpt lat="41.466893367469311" lon="-8.767886208370328">
        <ele>11.40234375</ele>
      </trkpt>
      <trkpt lat="41.466970983892679" lon="-8.767849579453468">
        <ele>11.5703125</ele>
      </trkpt>
      <trkpt lat="41.467052791267633" lon="-8.767805490642786">
        <ele>11.79296875</ele>
      </trkpt>
      <trkpt lat="41.467132000252604" lon="-8.767770538106561">
        <ele>11.9921875</ele>
      </trkpt>
      <trkpt lat="41.467213053256273" lon="-8.767723515629768">
        <ele>12.26953125</ele>
      </trkpt>
      <trkpt lat="41.467291340231895" lon="-8.767663920298219">
        <ele>12.40625</ele>
      </trkpt>
      <trkpt lat="41.467348840087652" lon="-8.767590578645468">
        <ele>12.58203125</ele>
      </trkpt>
      <trkpt lat="41.467394521459937" lon="-8.767497288063169">
        <ele>12.87109375</ele>
      </trkpt>
      <trkpt lat="41.467426959425211" lon="-8.767398800700903">
        <ele>13.21875</ele>
      </trkpt>
      <trkpt lat="41.467460067942739" lon="-8.767286567017436">
        <ele>13.61328125</ele>
      </trkpt>
      <trkpt lat="41.467503318563104" lon="-8.767118845134974">
        <ele>14.078125</ele>
      </trkpt>
      <trkpt lat="41.467521423473954" lon="-8.767005270346999">
        <ele>14.1484375</ele>
      </trkpt>
      <trkpt lat="41.467539360746741" lon="-8.766895886510611">
        <ele>14.21484375</ele>
      </trkpt>
      <trkpt lat="41.467559728771448" lon="-8.766773762181401">
        <ele>14.2890625</ele>
      </trkpt>
      <trkpt lat="41.467584539204836" lon="-8.766649710014462">
        <ele>14.34765625</ele>
      </trkpt>
      <trkpt lat="41.467621251940727" lon="-8.766543008387089">
        <ele>14.34375</ele>
      </trkpt>
      <trkpt lat="41.467662993818521" lon="-8.766440330073237">
        <ele>14.31640625</ele>
      </trkpt>
      <trkpt lat="41.467699119821191" lon="-8.766337484121323">
        <ele>14.3125</ele>
      </trkpt>
      <trkpt lat="41.467744382098317" lon="-8.76625332981348">
        <ele>14.0078125</ele>
      </trkpt>
      <trkpt lat="41.46779827773571" lon="-8.76617169007659">
        <ele>13.6640625</ele>
      </trkpt>
      <trkpt lat="41.467866925522685" lon="-8.766115196049213">
        <ele>13.34765625</ele>
      </trkpt>
      <trkpt lat="41.467942446470261" lon="-8.766070855781436">
        <ele>13.05078125</ele>
      </trkpt>
      <trkpt lat="41.468018051236868" lon="-8.76602366566658">
        <ele>12.7734375</ele>
      </trkpt>
      <trkpt lat="41.46809340454638" lon="-8.765971194952726">
        <ele>12.5078125</ele>
      </trkpt>
      <trkpt lat="41.468168925493956" lon="-8.765933057293296">
        <ele>12.27734375</ele>
      </trkpt>
      <trkpt lat="41.468246709555387" lon="-8.765894416719675">
        <ele>12.05859375</ele>
      </trkpt>
      <trkpt lat="41.468326756730676" lon="-8.765843706205487">
        <ele>11.84765625</ele>
      </trkpt>
      <trkpt lat="41.468404456973076" lon="-8.765791906043887">
        <ele>11.6640625</ele>
      </trkpt>
      <trkpt lat="41.468489114195108" lon="-8.765726024284959">
        <ele>11.48828125</ele>
      </trkpt>
      <trkpt lat="41.468563210219145" lon="-8.765657125040889">
        <ele>11.3671875</ele>
      </trkpt>
      <trkpt lat="41.468627164140344" lon="-8.765585795044899">
        <ele>11.2890625</ele>
      </trkpt>
      <trkpt lat="41.468694638460875" lon="-8.765511196106672">
        <ele>11.234375</ele>
      </trkpt>
      <trkpt lat="41.468761526048183" lon="-8.765429891645908">
        <ele>11.15234375</ele>
      </trkpt>
      <trkpt lat="41.468829838559031" lon="-8.765365686267614">
        <ele>11.0703125</ele>
      </trkpt>
      <trkpt lat="41.468895301222801" lon="-8.765302486717701">
        <ele>11.00390625</ele>
      </trkpt>
      <trkpt lat="41.468968642875552" lon="-8.765225037932396">
        <ele>11.02734375</ele>
      </trkpt>
      <trkpt lat="41.469038967043161" lon="-8.765154965221882">
        <ele>11.06640625</ele>
      </trkpt>
      <trkpt lat="41.469114823266864" lon="-8.765082294121385">
        <ele>11.12890625</ele>
      </trkpt>
      <trkpt lat="41.469188667833805" lon="-8.765016999095678">
        <ele>11.19921875</ele>
      </trkpt>
      <trkpt lat="41.469269972294569" lon="-8.764965366572142">
        <ele>11.28125</ele>
      </trkpt>
      <trkpt lat="41.469354210421443" lon="-8.764923373237252">
        <ele>11.37109375</ele>
      </trkpt>
      <trkpt lat="41.469431575387716" lon="-8.7648846488446">
        <ele>11.46484375</ele>
      </trkpt>
      <trkpt lat="41.469434257596731" lon="-8.7648846488446">
        <ele>11.46875</ele>
      </trkpt>
      <trkpt lat="41.469674315303564" lon="-8.764836536720395">
        <ele>11.73046875</ele>
      </trkpt>
      <trkpt lat="41.469754111021757" lon="-8.764818515628576">
        <ele>11.8125</ele>
      </trkpt>
      <trkpt lat="41.469837343320251" lon="-8.764791442081332">
        <ele>11.86328125</ele>
      </trkpt>
      <trkpt lat="41.469924850389361" lon="-8.76476151868701">
        <ele>11.90625</ele>
      </trkpt>
      <trkpt lat="41.470014452934265" lon="-8.764733439311385">
        <ele>11.94140625</ele>
      </trkpt>
      <trkpt lat="41.470103217288852" lon="-8.764706952497363">
        <ele>11.96875</ele>
      </trkpt>
      <trkpt lat="41.470182426273823" lon="-8.764687590301037">
        <ele>11.984375</ele>
      </trkpt>
      <trkpt lat="41.470263646915555" lon="-8.764676190912724">
        <ele>11.9921875</ele>
      </trkpt>
      <trkpt lat="41.470348555594683" lon="-8.764687338843942">
        <ele>11.9921875</ele>
      </trkpt>
      <trkpt lat="41.470414018258452" lon="-8.764703180640936">
        <ele>11.9921875</ele>
      </trkpt>
      <trkpt lat="41.471222871914506" lon="-8.764955811202526">
        <ele>11.2109375</ele>
      </trkpt>
      <trkpt lat="41.471860567107797" lon="-8.765145661309361">
        <ele>10.67578125</ele>
      </trkpt>
      <trkpt lat="41.471861908212304" lon="-8.765147672966123">
        <ele>10.67578125</ele>
      </trkpt>
      <trkpt lat="41.472652489319444" lon="-8.765394603833556">
        <ele>11.6953125</ele>
      </trkpt>
      <trkpt lat="41.472653830423951" lon="-8.765396615490317">
        <ele>11.6953125</ele>
      </trkpt>
      <trkpt lat="41.473006289452314" lon="-8.76547783613205">
        <ele>12.82421875</ele>
      </trkpt>
      <trkpt lat="41.473088432103395" lon="-8.765482194721699">
        <ele>13.11328125</ele>
      </trkpt>
      <trkpt lat="41.473179459571838" lon="-8.76549786888063">
        <ele>13.40234375</ele>
      </trkpt>
      <trkpt lat="41.473269062116742" lon="-8.765503652393818">
        <ele>13.7109375</ele>
      </trkpt>
      <trkpt lat="41.473351288586855" lon="-8.765503652393818">
        <ele>14.0078125</ele>
      </trkpt>
      <trkpt lat="41.473450614139438" lon="-8.765503652393818">
        <ele>14.3671875</ele>
      </trkpt>
      <trkpt lat="41.473531750962138" lon="-8.765503652393818">
        <ele>14.65625</ele>
      </trkpt>
      <trkpt lat="41.473622946068645" lon="-8.765503652393818">
        <ele>14.98828125</ele>
      </trkpt>
      <trkpt lat="41.473711878061295" lon="-8.765506418421865">
        <ele>15.30078125</ele>
      </trkpt>
      <trkpt lat="41.473795948550105" lon="-8.765506418421865">
        <ele>15.6015625</ele>
      </trkpt>
      <trkpt lat="41.473877253010869" lon="-8.765508849173784">
        <ele>15.890625</ele>
      </trkpt>
      <trkpt lat="41.473971465602517" lon="-8.765514297410846">
        <ele>16.04296875</ele>
      </trkpt>
      <trkpt lat="41.474056206643581" lon="-8.76552963629365">
        <ele>16.12890625</ele>
      </trkpt>
      <trkpt lat="41.474143629893661" lon="-8.765537599101663">
        <ele>16.234375</ele>
      </trkpt>
      <trkpt lat="41.474227113649249" lon="-8.765540029853582">
        <ele>16.3515625</ele>
      </trkpt>
      <trkpt lat="41.474308334290981" lon="-8.765535419806838">
        <ele>16.46875</ele>
      </trkpt>
      <trkpt lat="41.474393075332046" lon="-8.76553307287395">
        <ele>16.5859375</ele>
      </trkpt>
      <trkpt lat="41.474478067830205" lon="-8.765538269653916">
        <ele>16.703125</ele>
      </trkpt>
      <trkpt lat="41.474561132490635" lon="-8.765538269653916">
        <ele>16.8203125</ele>
      </trkpt>
      <trkpt lat="41.474644364789128" lon="-8.76553600654006">
        <ele>16.93359375</ele>
      </trkpt>
      <trkpt lat="41.474736146628857" lon="-8.765527792274952">
        <ele>17.06640625</ele>
      </trkpt>
      <trkpt lat="41.474823066964746" lon="-8.76551354303956">
        <ele>17.359375</ele>
      </trkpt>
      <trkpt lat="41.474912753328681" lon="-8.765485128387809">
        <ele>17.640625</ele>
      </trkpt>
      <trkpt lat="41.474992381408811" lon="-8.765462581068277">
        <ele>17.875</ele>
      </trkpt>
      <trkpt lat="41.475069243460894" lon="-8.765422599390149">
        <ele>18.0546875</ele>
      </trkpt>
      <trkpt lat="41.475143590942025" lon="-8.765377923846245">
        <ele>18.21484375</ele>
      </trkpt>
      <trkpt lat="41.475227409973741" lon="-8.765340121462941">
        <ele>18.42578125</ele>
      </trkpt>
      <trkpt lat="41.475312737748027" lon="-8.765309443697333">
        <ele>18.66015625</ele>
      </trkpt>
      <trkpt lat="41.475396892055869" lon="-8.765270970761776">
        <ele>18.87109375</ele>
      </trkpt>
      <trkpt lat="41.475485488772392" lon="-8.765230653807521">
        <ele>19.09375</ele>
      </trkpt>
      <trkpt lat="41.4755645301193" lon="-8.765201065689325">
        <ele>19.30078125</ele>
      </trkpt>
      <trkpt lat="41.475653126835823" lon="-8.765176506713033">
        <ele>19.3515625</ele>
      </trkpt>
      <trkpt lat="41.475742477923632" lon="-8.765159156173468">
        <ele>19.4140625</ele>
      </trkpt>
      <trkpt lat="41.475826296955347" lon="-8.765151277184486">
        <ele>19.49609375</ele>
      </trkpt>
      <trkpt lat="41.47591439075768" lon="-8.765148427337408">
        <ele>19.59765625</ele>
      </trkpt>
      <trkpt lat="41.475995359942317" lon="-8.765145828947425">
        <ele>19.6875</ele>
      </trkpt>
      <trkpt lat="41.476086219772696" lon="-8.765151109546423">
        <ele>19.80859375</ele>
      </trkpt>
      <trkpt lat="41.476174062117934" lon="-8.765161503106356">
        <ele>19.9375</ele>
      </trkpt>
      <trkpt lat="41.476256959140301" lon="-8.765185056254268">
        <ele>20.09375</ele>
      </trkpt>
      <trkpt lat="41.476343041285872" lon="-8.765202825888991">
        <ele>20.2421875</ele>
      </trkpt>
      <trkpt lat="41.476426776498556" lon="-8.765211291611195">
        <ele>20.32421875</ele>
      </trkpt>
      <trkpt lat="41.476523252204061" lon="-8.765217326581478">
        <ele>20.33984375</ele>
      </trkpt>
      <trkpt lat="41.47661461494863" lon="-8.765228474512696">
        <ele>20.37890625</ele>
      </trkpt>
      <trkpt lat="41.476702876389027" lon="-8.765247752889991">
        <ele>20.45703125</ele>
      </trkpt>
      <trkpt lat="41.476785102859139" lon="-8.765274239704013">
        <ele>20.57421875</ele>
      </trkpt>
      <trkpt lat="41.4768804050982" lon="-8.765299804508686">
        <ele>20.71484375</ele>
      </trkpt>
      <trkpt lat="41.476966319605708" lon="-8.765319501981139">
        <ele>20.84375</ele>
      </trkpt>
      <trkpt lat="41.47704653441906" lon="-8.765337858349085">
        <ele>20.97265625</ele>
      </trkpt>
      <trkpt lat="41.477132448926568" lon="-8.765346324071288">
        <ele>21.06640625</ele>
      </trkpt>
      <trkpt lat="41.477221213281155" lon="-8.7653439771384">
        <ele>21.10546875</ele>
      </trkpt>
      <trkpt lat="41.477306708693504" lon="-8.765331152826548">
        <ele>20.82421875</ele>
      </trkpt>
      <trkpt lat="41.477402010932565" lon="-8.765320088714361">
        <ele>20.50390625</ele>
      </trkpt>
      <trkpt lat="41.477501504123211" lon="-8.765314389020205">
        <ele>20.203125</ele>
      </trkpt>
      <trkpt lat="41.477588173002005" lon="-8.765311455354095">
        <ele>19.953125</ele>
      </trkpt>
      <trkpt lat="41.477670064195991" lon="-8.765314221382141">
        <ele>19.75390625</ele>
      </trkpt>
      <trkpt lat="41.477750530466437" lon="-8.76532394438982">
        <ele>19.60546875</ele>
      </trkpt>
      <trkpt lat="41.47783619351685" lon="-8.765329057350755">
        <ele>19.4140625</ele>
      </trkpt>
      <trkpt lat="41.47792755626142" lon="-8.765334421768785">
        <ele>19.2109375</ele>
      </trkpt>
      <trkpt lat="41.478008693084121" lon="-8.765340372920036">
        <ele>19.0390625</ele>
      </trkpt>
      <trkpt lat="41.478089913725853" lon="-8.76534590497613">
        <ele>18.7265625</ele>
      </trkpt>
      <trkpt lat="41.47813567891717" lon="-8.76534590497613">
        <ele>18.37890625</ele>
      </trkpt>
      <trkpt lat="41.478315638378263" lon="-8.765366105362773">
        <ele>17.13671875</ele>
      </trkpt>
      <trkpt lat="41.478397697210312" lon="-8.765368284657598">
        <ele>16.515625</ele>
      </trkpt>
      <trkpt lat="41.478481767699122" lon="-8.765394017100334">
        <ele>15.9921875</ele>
      </trkpt>
      <trkpt lat="41.478558797389269" lon="-8.765422264114022">
        <ele>15.51171875</ele>
      </trkpt>
      <trkpt lat="41.478637168183923" lon="-8.765468280762434">
        <ele>15.0625</ele>
      </trkpt>
      <trkpt lat="41.478720400482416" lon="-8.765504909679294">
        <ele>14.44140625</ele>
      </trkpt>
      <trkpt lat="41.478807320818305" lon="-8.765512369573116">
        <ele>13.703125</ele>
      </trkpt>
      <trkpt lat="41.478895582258701" lon="-8.765502143651247">
        <ele>12.984375</ele>
      </trkpt>
      <trkpt lat="41.478976383805275" lon="-8.765475824475288">
        <ele>12.66796875</ele>
      </trkpt>
      <trkpt lat="41.479048803448677" lon="-8.765424862504005">
        <ele>12.30859375</ele>
      </trkpt>
      <trkpt lat="41.479122648015618" lon="-8.765369709581137">
        <ele>11.9609375</ele>
      </trkpt>
      <trkpt lat="41.479193056002259" lon="-8.765311036258936">
        <ele>11.64453125</ele>
      </trkpt>
      <trkpt lat="41.479266984388232" lon="-8.765266947448254">
        <ele>11.35546875</ele>
      </trkpt>
      <trkpt lat="41.479343678802252" lon="-8.765228055417538">
        <ele>11.0859375</ele>
      </trkpt>
      <trkpt lat="41.479427916929126" lon="-8.765191342681646">
        <ele>10.81640625</ele>
      </trkpt>
      <trkpt lat="41.479509053751826" lon="-8.765159239992499">
        <ele>10.57421875</ele>
      </trkpt>
      <trkpt lat="41.47959035821259" lon="-8.765129651874304">
        <ele>10.34765625</ele>
      </trkpt>
      <trkpt lat="41.479668309912086" lon="-8.765098890289664">
        <ele>10.14453125</ele>
      </trkpt>
      <trkpt lat="41.479748021811247" lon="-8.765065530315042">
        <ele>9.97265625</ele>
      </trkpt>
      <trkpt lat="41.479825638234615" lon="-8.765034517273307">
        <ele>9.8828125</ele>
      </trkpt>
      <trkpt lat="41.479905936866999" lon="-8.764990177005529">
        <ele>9.78515625</ele>
      </trkpt>
      <trkpt lat="41.479981625452638" lon="-8.764933934435248">
        <ele>9.6953125</ele>
      </trkpt>
      <trkpt lat="41.480052871629596" lon="-8.764854893088341">
        <ele>9.609375</ele>
      </trkpt>
      <trkpt lat="41.48012051358819" lon="-8.764788256958127">
        <ele>9.52734375</ele>
      </trkpt>
      <trkpt lat="41.480199554935098" lon="-8.764734109863639">
        <ele>9.43359375</ele>
      </trkpt>
      <trkpt lat="41.480278596282005" lon="-8.764673508703709">
        <ele>9.3359375</ele>
      </trkpt>
      <trkpt lat="41.480349591001868" lon="-8.764622043818235">
        <ele>9.20703125</ele>
      </trkpt>
      <trkpt lat="41.480410024523735" lon="-8.764549288898706">
        <ele>9.046875</ele>
      </trkpt>
      <trkpt lat="41.480479845777154" lon="-8.764480724930763">
        <ele>8.87890625</ele>
      </trkpt>
      <trkpt lat="41.480529885739088" lon="-8.764391792938113">
        <ele>8.71484375</ele>
      </trkpt>
      <trkpt lat="41.480559473857284" lon="-8.764336472377181">
        <ele>8.61328125</ele>
      </trkpt>
      <trkpt lat="41.480695344507694" lon="-8.764203116297722">
        <ele>8.2890625</ele>
      </trkpt>
      <trkpt lat="41.480775726959109" lon="-8.76418249681592">
        <ele>8.16796875</ele>
      </trkpt>
      <trkpt lat="41.480862647294998" lon="-8.764162883162498">
        <ele>8.0390625</ele>
      </trkpt>
      <trkpt lat="41.480945879593492" lon="-8.764158021658659">
        <ele>7.93359375</ele>
      </trkpt>
      <trkpt lat="41.481028776615858" lon="-8.764158021658659">
        <ele>7.8359375</ele>
      </trkpt>
      <trkpt lat="41.481112176552415" lon="-8.764170175418258">
        <ele>7.75</ele>
      </trkpt>
      <trkpt lat="41.481203371658921" lon="-8.764180401340127">
        <ele>7.65234375</ele>
      </trkpt>
      <trkpt lat="41.481294566765428" lon="-8.76420202665031">
        <ele>7.56640625</ele>
      </trkpt>
      <trkpt lat="41.481379559263587" lon="-8.7642318662256">
        <ele>7.5</ele>
      </trkpt>
      <trkpt lat="41.481469580903649" lon="-8.764263382181525">
        <ele>7.56640625</ele>
      </trkpt>
      <trkpt lat="41.481550633907318" lon="-8.764286767691374">
        <ele>7.63671875</ele>
      </trkpt>
      <trkpt lat="41.481631016358733" lon="-8.76430856063962">
        <ele>7.69921875</ele>
      </trkpt>
      <trkpt lat="41.481714583933353" lon="-8.764331862330437">
        <ele>7.7578125</ele>
      </trkpt>
      <trkpt lat="41.48179404437542" lon="-8.76435742713511">
        <ele>7.8125</ele>
      </trkpt>
      <trkpt lat="41.481883814558387" lon="-8.764393050223589">
        <ele>7.8671875</ele>
      </trkpt>
      <trkpt lat="41.481967465952039" lon="-8.764431523159146">
        <ele>7.9140625</ele>
      </trkpt>
      <trkpt lat="41.482050949707627" lon="-8.764465218409896">
        <ele>7.94921875</ele>
      </trkpt>
      <trkpt lat="41.482134182006121" lon="-8.764498997479677">
        <ele>7.98046875</ele>
      </trkpt>
      <trkpt lat="41.482217246666551" lon="-8.764533363282681">
        <ele>8</ele>
      </trkpt>
      <trkpt lat="41.482299556955695" lon="-8.764583822339773">
        <ele>8.08203125</ele>
      </trkpt>
      <trkpt lat="41.482378765940666" lon="-8.764635873958468">
        <ele>8.1796875</ele>
      </trkpt>
      <trkpt lat="41.482468955218792" lon="-8.76469605602324">
        <ele>8.29296875</ele>
      </trkpt>
      <trkpt lat="41.482555540278554" lon="-8.764751795679331">
        <ele>8.3984375</ele>
      </trkpt>
      <trkpt lat="41.482633408159018" lon="-8.764792950823903">
        <ele>8.48828125</ele>
      </trkpt>
      <trkpt lat="41.482716556638479" lon="-8.764828154817224">
        <ele>8.58984375</ele>
      </trkpt>
      <trkpt lat="41.48280062712729" lon="-8.764870567247272">
        <ele>8.69140625</ele>
      </trkpt>
      <trkpt lat="41.482879836112261" lon="-8.764898562803864">
        <ele>8.78515625</ele>
      </trkpt>
      <trkpt lat="41.482968516647816" lon="-8.764911890029907">
        <ele>8.890625</ele>
      </trkpt>
      <trkpt lat="41.48304982110858" lon="-8.764911890029907">
        <ele>8.98828125</ele>
      </trkpt>
      <trkpt lat="41.483135567978024" lon="-8.764903675764799">
        <ele>9.06640625</ele>
      </trkpt>
      <trkpt lat="41.483223997056484" lon="-8.764887498691678">
        <ele>9.14453125</ele>
      </trkpt>
      <trkpt lat="41.483314437791705" lon="-8.7648656219244">
        <ele>9.23046875</ele>
      </trkpt>
      <trkpt lat="41.48340018466115" lon="-8.76483871601522">
        <ele>9.32421875</ele>
      </trkpt>
      <trkpt lat="41.48348375223577" lon="-8.7648103851825">
        <ele>9.41796875</ele>
      </trkpt>
      <trkpt lat="41.483569918200374" lon="-8.764780545607209">
        <ele>9.52734375</ele>
      </trkpt>
      <trkpt lat="41.483649630099535" lon="-8.764757495373487">
        <ele>9.62890625</ele>
      </trkpt>
      <trkpt lat="41.483731605112553" lon="-8.764734109863639">
        <ele>9.73828125</ele>
      </trkpt>
      <trkpt lat="41.483819698914886" lon="-8.764717932790518">
        <ele>9.8515625</ele>
      </trkpt>
      <trkpt lat="41.48390544578433" lon="-8.764701755717397">
        <ele>9.93359375</ele>
      </trkpt>
      <trkpt lat="41.483998317271471" lon="-8.764685243368149">
        <ele>9.83984375</ele>
      </trkpt>
      <trkpt lat="41.484079454094172" lon="-8.764663031324744">
        <ele>9.76953125</ele>
      </trkpt>
      <trkpt lat="41.484163105487823" lon="-8.764625228941441">
        <ele>9.64453125</ele>
      </trkpt>
      <trkpt lat="41.484252037480474" lon="-8.764584744349122">
        <ele>9.515625</ele>
      </trkpt>
      <trkpt lat="41.484330743551254" lon="-8.764537386596203">
        <ele>9.40234375</ele>
      </trkpt>
      <trkpt lat="41.484407437965274" lon="-8.764503104612231">
        <ele>9.30859375</ele>
      </trkpt>
      <trkpt lat="41.484483210369945" lon="-8.764461781829596">
        <ele>9.21875</ele>
      </trkpt>
      <trkpt lat="41.484563257545233" lon="-8.764423141255975">
        <ele>9.13671875</ele>
      </trkpt>
      <trkpt lat="41.484649004414678" lon="-8.764390368014574">
        <ele>9.0625</ele>
      </trkpt>
      <trkpt lat="41.484733242541552" lon="-8.764372011646628">
        <ele>9</ele>
      </trkpt>
      <trkpt lat="41.484818989410996" lon="-8.764349212870002">
        <ele>9</ele>
      </trkpt>
      <trkpt lat="41.484904903918505" lon="-8.764335885643959">
        <ele>9</ele>
      </trkpt>
      <trkpt lat="41.484994255006313" lon="-8.764330018311739">
        <ele>9</ele>
      </trkpt>
      <trkpt lat="41.485074805095792" lon="-8.764325072988868">
        <ele>9</ele>
      </trkpt>
      <trkpt lat="41.485094837844372" lon="-8.764333203434944">
        <ele>9</ele>
      </trkpt>
      <trkpt lat="41.485429862514138" lon="-8.764337981119752">
        <ele>9</ele>
      </trkpt>
      <trkpt lat="41.485520135611296" lon="-8.764336053282022">
        <ele>9</ele>
      </trkpt>
      <trkpt lat="41.485619712620974" lon="-8.764332868158817">
        <ele>8.92578125</ele>
      </trkpt>
      <trkpt lat="41.485704369843006" lon="-8.764332868158817">
        <ele>8.82421875</ele>
      </trkpt>
      <trkpt lat="41.485785590484738" lon="-8.764332868158817">
        <ele>8.7265625</ele>
      </trkpt>
      <trkpt lat="41.485877204686403" lon="-8.764321133494377">
        <ele>8.61328125</ele>
      </trkpt>
      <trkpt lat="41.48596839979291" lon="-8.76431250013411">
        <ele>8.50390625</ele>
      </trkpt>
      <trkpt lat="41.486054565757513" lon="-8.764301184564829">
        <ele>8.40234375</ele>
      </trkpt>
      <trkpt lat="41.486143162474036" lon="-8.764290623366833">
        <ele>8.296875</ele>
      </trkpt>
      <trkpt lat="41.486226059496403" lon="-8.764280984178185">
        <ele>8.1953125</ele>
      </trkpt>
      <trkpt lat="41.486314153298736" lon="-8.764268327504396">
        <ele>8.08984375</ele>
      </trkpt>
      <trkpt lat="41.486400989815593" lon="-8.764263382181525">
        <ele>8</ele>
      </trkpt>
      <trkpt lat="41.486484222114086" lon="-8.764252066612244">
        <ele>8</ele>
      </trkpt>
      <trkpt lat="41.486564604565501" lon="-8.764249971136451">
        <ele>8</ele>
      </trkpt>
      <trkpt lat="41.486649597063661" lon="-8.764259526506066">
        <ele>8</ele>
      </trkpt>
      <trkpt lat="41.486730985343456" lon="-8.764279810711741">
        <ele>8</ele>
      </trkpt>
      <trkpt lat="41.486813547089696" lon="-8.764304537326097">
        <ele>8</ele>
      </trkpt>
      <trkpt lat="41.486894767731428" lon="-8.764345441013575">
        <ele>8</ele>
      </trkpt>
      <trkpt lat="41.486966265365481" lon="-8.764396570622921">
        <ele>8</ele>
      </trkpt>
      <trkpt lat="41.487035248428583" lon="-8.764455495402217">
        <ele>8</ele>
      </trkpt>
      <trkpt lat="41.487087970599532" lon="-8.764534536749125">
        <ele>8</ele>
      </trkpt>
      <trkpt lat="41.487148236483335" lon="-8.764604777097702">
        <ele>8</ele>
      </trkpt>
      <trkpt lat="41.4872139506042" lon="-8.764676190912724">
        <ele>7.98046875</ele>
      </trkpt>
      <trkpt lat="41.487289136275649" lon="-8.764721620827913">
        <ele>7.92578125</ele>
      </trkpt>
      <trkpt lat="41.487371865659952" lon="-8.764772079885006">
        <ele>7.86328125</ele>
      </trkpt>
      <trkpt lat="41.487449398264289" lon="-8.764813737943769">
        <ele>7.81640625</ele>
      </trkpt>
      <trkpt lat="41.487532630562782" lon="-8.764846930280328">
        <ele>7.7734375</ele>
      </trkpt>
      <trkpt lat="41.487625502049923" lon="-8.764861347153783">
        <ele>7.7578125</ele>
      </trkpt>
      <trkpt lat="41.487702531740069" lon="-8.76483142375946">
        <ele>7.79296875</ele>
      </trkpt>
      <trkpt lat="41.487780064344406" lon="-8.764785323292017">
        <ele>7.84765625</ele>
      </trkpt>
      <trkpt lat="41.487855417653918" lon="-8.76474542543292">
        <ele>7.8984375</ele>
      </trkpt>
      <trkpt lat="41.487932363525033" lon="-8.764711730182171">
        <ele>7.9375</ele>
      </trkpt>
      <trkpt lat="41.488015595823526" lon="-8.764696642756462">
        <ele>7.95703125</ele>
      </trkpt>
      <trkpt lat="41.488096984103322" lon="-8.764696223661304">
        <ele>7.953125</ele>
      </trkpt>
      <trkpt lat="41.488096984103322" lon="-8.764700330793858">
        <ele>7.94921875</ele>
      </trkpt>
      <trkpt lat="41.488921763375401" lon="-8.764706701040268">
        <ele>7.890625</ele>
      </trkpt>
      <trkpt lat="41.489566247910261" lon="-8.76487978734076">
        <ele>7.6875</ele>
      </trkpt>
      <trkpt lat="41.489662723615766" lon="-8.764906860888004">
        <ele>7.68359375</ele>
      </trkpt>
      <trkpt lat="41.48975282907486" lon="-8.764930665493011">
        <ele>7.67578125</ele>
      </trkpt>
      <trkpt lat="41.489836480468512" lon="-8.764952626079321">
        <ele>7.6484375</ele>
      </trkpt>
      <trkpt lat="41.489924155175686" lon="-8.764974251389503">
        <ele>7.62109375</ele>
      </trkpt>
      <trkpt lat="41.490010153502226" lon="-8.764982549473643">
        <ele>7.61328125</ele>
      </trkpt>
      <trkpt lat="41.490099169313908" lon="-8.7649882491678">
        <ele>7.60546875</ele>
      </trkpt>
      <trkpt lat="41.490190532058477" lon="-8.764991266652942">
        <ele>7.6015625</ele>
      </trkpt>
      <trkpt lat="41.490286672487855" lon="-8.764993865042925">
        <ele>7.59765625</ele>
      </trkpt>
      <trkpt lat="41.490377867594361" lon="-8.764996463432908">
        <ele>7.59765625</ele>
      </trkpt>
      <trkpt lat="41.490485575050116" lon="-8.765010209754109">
        <ele>7.578125</ele>
      </trkpt>
      <trkpt lat="41.490576937794685" lon="-8.765022028237581">
        <ele>7.56640625</ele>
      </trkpt>
      <trkpt lat="41.490668635815382" lon="-8.765036026015878">
        <ele>7.546875</ele>
      </trkpt>
      <trkpt lat="41.490754801779985" lon="-8.765052789822221">
        <ele>7.52734375</ele>
      </trkpt>
      <trkpt lat="41.49084054864943" lon="-8.765063686296344">
        <ele>7.515625</ele>
      </trkpt>
      <trkpt lat="41.490936689078808" lon="-8.765087742358446">
        <ele>7.484375</ele>
      </trkpt>
      <trkpt lat="41.49102377705276" lon="-8.765102662146091">
        <ele>7.46875</ele>
      </trkpt>
      <trkpt lat="41.49111463688314" lon="-8.765100063756108">
        <ele>7.47265625</ele>
      </trkpt>
      <trkpt lat="41.491181273013353" lon="-8.765097549185157">
        <ele>7.47265625</ele>
      </trkpt>
      <trkpt lat="41.492125662043691" lon="-8.764980370178819">
        <ele>7.0703125</ele>
      </trkpt>
      <trkpt lat="41.492125662043691" lon="-8.76498045399785">
        <ele>7.0703125</ele>
      </trkpt>
      <trkpt lat="41.492653554305434" lon="-8.765116576105356">
        <ele>7</ele>
      </trkpt>
      <trkpt lat="41.493103913962841" lon="-8.76526577398181">
        <ele>7</ele>
      </trkpt>
      <trkpt lat="41.493103913962841" lon="-8.76526384614408">
        <ele>7</ele>
      </trkpt>
      <trkpt lat="41.493596937507391" lon="-8.765541790053248">
        <ele>6.98046875</ele>
      </trkpt>
      <trkpt lat="41.493668267503381" lon="-8.765580598264933">
        <ele>6.97265625</ele>
      </trkpt>
      <trkpt lat="41.493729036301374" lon="-8.765653520822525">
        <ele>6.96484375</ele>
      </trkpt>
      <trkpt lat="41.493774969130754" lon="-8.76574220135808">
        <ele>6.9609375</ele>
      </trkpt>
      <trkpt lat="41.493814531713724" lon="-8.765839599072933">
        <ele>6.96484375</ele>
      </trkpt>
      <trkpt lat="41.493860296905041" lon="-8.765933560207486">
        <ele>6.984375</ele>
      </trkpt>
      <trkpt lat="41.493866918608546" lon="-8.765941690653563">
        <ele>6.98828125</ele>
      </trkpt>
      <trkpt lat="41.494810469448566" lon="-8.766215527430177">
        <ele>9.08984375</ele>
      </trkpt>
      <trkpt lat="41.496227262541652" lon="-8.766644094139338">
        <ele>12.74609375</ele>
      </trkpt>
      <trkpt lat="41.496227262541652" lon="-8.766642166301608">
        <ele>12.75</ele>
      </trkpt>
      <trkpt lat="41.497055729851127" lon="-8.766888845711946">
        <ele>15.35546875</ele>
      </trkpt>
      <trkpt lat="41.497055729851127" lon="-8.766890857368708">
        <ele>15.35546875</ele>
      </trkpt>
      <trkpt lat="41.497721923515201" lon="-8.767076935619116">
        <ele>15.453125</ele>
      </trkpt>
      <trkpt lat="41.497820913791656" lon="-8.767085568979383">
        <ele>15.3359375</ele>
      </trkpt>
      <trkpt lat="41.497904062271118" lon="-8.767092106863856">
        <ele>15.23828125</ele>
      </trkpt>
      <trkpt lat="41.497989222407341" lon="-8.767105937004089">
        <ele>15.12890625</ele>
      </trkpt>
      <trkpt lat="41.498071700334549" lon="-8.767101326957345">
        <ele>15.04296875</ele>
      </trkpt>
      <trkpt lat="41.498144958168268" lon="-8.767051454633474">
        <ele>15.02734375</ele>
      </trkpt>
      <trkpt lat="41.498209163546562" lon="-8.766985153779387">
        <ele>15.0546875</ele>
      </trkpt>
      <trkpt lat="41.498280074447393" lon="-8.766920445486903">
        <ele>15.0859375</ele>
      </trkpt>
      <trkpt lat="41.498354421928525" lon="-8.766858503222466">
        <ele>15.125</ele>
      </trkpt>
      <trkpt lat="41.498436480760574" lon="-8.766822377219796">
        <ele>15.125</ele>
      </trkpt>
      <trkpt lat="41.498515522107482" lon="-8.766793124377728">
        <ele>15.125</ele>
      </trkpt>
      <trkpt lat="41.498601604253054" lon="-8.766765967011452">
        <ele>15.12109375</ele>
      </trkpt>
      <trkpt lat="41.498684752732515" lon="-8.766738558188081">
        <ele>15.125</ele>
      </trkpt>
      <trkpt lat="41.498764464631677" lon="-8.766698325052857">
        <ele>15.16796875</ele>
      </trkpt>
      <trkpt lat="41.498864041641355" lon="-8.766669323667884">
        <ele>15.18359375</ele>
      </trkpt>
      <trkpt lat="41.498945262283087" lon="-8.766654403880239">
        <ele>15.1171875</ele>
      </trkpt>
      <trkpt lat="41.499026147648692" lon="-8.766654403880239">
        <ele>15</ele>
      </trkpt>
      <trkpt lat="41.499117175117135" lon="-8.76666228286922">
        <ele>14.85546875</ele>
      </trkpt>
      <trkpt lat="41.499202251434326" lon="-8.766680471599102">
        <ele>14.70703125</ele>
      </trkpt>
      <trkpt lat="41.49928255006671" lon="-8.76670528203249">
        <ele>14.5625</ele>
      </trkpt>
      <trkpt lat="41.499296128749847" lon="-8.766711400821805">
        <ele>14.5390625</ele>
      </trkpt>
      <trkpt lat="41.500271782279015" lon="-8.767060087993741">
        <ele>11.8359375</ele>
      </trkpt>
      <trkpt lat="41.502108508720994" lon="-8.767803981900215">
        <ele>12.6484375</ele>
      </trkpt>
      <trkpt lat="41.502111190930009" lon="-8.767808005213737">
        <ele>12.65625</ele>
      </trkpt>
      <trkpt lat="41.503249369561672" lon="-8.768262388184667">
        <ele>9.51171875</ele>
      </trkpt>
      <trkpt lat="41.503352634608746" lon="-8.768296083435416">
        <ele>9.26171875</ele>
      </trkpt>
      <trkpt lat="41.503462940454483" lon="-8.768330030143261">
        <ele>9</ele>
      </trkpt>
      <trkpt lat="41.503572408109903" lon="-8.768367329612374">
        <ele>8.734375</ele>
      </trkpt>
      <trkpt lat="41.503677684813738" lon="-8.768401863053441">
        <ele>8.484375</ele>
      </trkpt>
      <trkpt lat="41.50378430262208" lon="-8.768432205542922">
        <ele>8.2265625</ele>
      </trkpt>
      <trkpt lat="41.503902235999703" lon="-8.768473779782653">
        <ele>8.015625</ele>
      </trkpt>
      <trkpt lat="41.504019666463137" lon="-8.768510995432734">
        <ele>8.10546875</ele>
      </trkpt>
      <trkpt lat="41.504163751378655" lon="-8.76854594796896">
        <ele>8.2265625</ele>
      </trkpt>
      <trkpt lat="41.504269698634744" lon="-8.76857134513557">
        <ele>8.328125</ele>
      </trkpt>
      <trkpt lat="41.504380842670798" lon="-8.768598586320877">
        <ele>8.44140625</ele>
      </trkpt>
      <trkpt lat="41.504487963393331" lon="-8.768633287400007">
        <ele>8.5625</ele>
      </trkpt>
      <trkpt lat="41.504604052752256" lon="-8.768668994307518">
        <ele>8.7109375</ele>
      </trkpt>
      <trkpt lat="41.504719890654087" lon="-8.768706545233727">
        <ele>8.84765625</ele>
      </trkpt>
      <trkpt lat="41.504835560917854" lon="-8.76874384470284">
        <ele>8.75390625</ele>
      </trkpt>
      <trkpt lat="41.504949638620019" lon="-8.768785418942571">
        <ele>8.66796875</ele>
      </trkpt>
      <trkpt lat="41.505063464865088" lon="-8.768829256296158">
        <ele>8.58203125</ele>
      </trkpt>
      <trkpt lat="41.505169747397304" lon="-8.768878038972616">
        <ele>8.515625</ele>
      </trkpt>
      <trkpt lat="41.5052804723382" lon="-8.768926151096821">
        <ele>8.44140625</ele>
      </trkpt>
      <trkpt lat="41.50537870824337" lon="-8.768991278484464">
        <ele>8.3984375</ele>
      </trkpt>
      <trkpt lat="41.505476273596287" lon="-8.769053304567933">
        <ele>8.35546875</ele>
      </trkpt>
      <trkpt lat="41.505577024072409" lon="-8.769118264317513">
        <ele>8.3125</ele>
      </trkpt>
      <trkpt lat="41.505679786205292" lon="-8.769165789708495">
        <ele>8.24609375</ele>
      </trkpt>
      <trkpt lat="41.505785984918475" lon="-8.769207699224353">
        <ele>8.171875</ele>
      </trkpt>
      <trkpt lat="41.505892183631659" lon="-8.769262265414">
        <ele>8.109375</ele>
      </trkpt>
      <trkpt lat="41.506007183343172" lon="-8.769297804683447">
        <ele>8.01171875</ele>
      </trkpt>
      <trkpt lat="41.506120003759861" lon="-8.76928674057126">
        <ele>7.86328125</ele>
      </trkpt>
      <trkpt lat="41.506225196644664" lon="-8.769254889339209">
        <ele>7.69921875</ele>
      </trkpt>
      <trkpt lat="41.506341034546494" lon="-8.769248183816671">
        <ele>7.5546875</ele>
      </trkpt>
      <trkpt lat="41.506460728123784" lon="-8.769241729751229">
        <ele>7.25</ele>
      </trkpt>
      <trkpt lat="41.506570028141141" lon="-8.769252458587289">
        <ele>6.93359375</ele>
      </trkpt>
      <trkpt lat="41.506679160520434" lon="-8.769263103604317">
        <ele>6.609375</ele>
      </trkpt>
      <trkpt lat="41.506792735308409" lon="-8.769276598468423">
        <ele>6.2734375</ele>
      </trkpt>
      <trkpt lat="41.506904801353812" lon="-8.769305516034365">
        <ele>5.9453125</ele>
      </trkpt>
      <trkpt lat="41.507021645084023" lon="-8.769329991191626">
        <ele>5.58984375</ele>
      </trkpt>
      <trkpt lat="41.50713237002492" lon="-8.76934046857059">
        <ele>5.24609375</ele>
      </trkpt>
      <trkpt lat="41.507240412756801" lon="-8.769340720027685">
        <ele>4.94921875</ele>
      </trkpt>
      <trkpt lat="41.507348706945777" lon="-8.769323956221342">
        <ele>4.765625</ele>
      </trkpt>
      <trkpt lat="41.507412828505039" lon="-8.769209710881114">
        <ele>4.625</ele>
      </trkpt>
      <trkpt lat="41.507438980042934" lon="-8.769055986776948">
        <ele>4.52734375</ele>
      </trkpt>
      <trkpt lat="41.507454989477992" lon="-8.768908213824034">
        <ele>4.44140625</ele>
      </trkpt>
      <trkpt lat="41.507459012791514" lon="-8.768749376758933">
        <ele>4.33984375</ele>
      </trkpt>
      <trkpt lat="41.507447864860296" lon="-8.768599340692163">
        <ele>4.234375</ele>
      </trkpt>
      <trkpt lat="41.507431017234921" lon="-8.768448634073138">
        <ele>4.13671875</ele>
      </trkpt>
      <trkpt lat="41.507422886788845" lon="-8.76830019056797">
        <ele>4.01953125</ele>
      </trkpt>
      <trkpt lat="41.507422886788845" lon="-8.768153004348278">
        <ele>3.890625</ele>
      </trkpt>
      <trkpt lat="41.507439063861966" lon="-8.768009757623076">
        <ele>3.7421875</ele>
      </trkpt>
      <trkpt lat="41.50744803249836" lon="-8.767851926386356">
        <ele>3.546875</ele>
      </trkpt>
      <trkpt lat="41.50742799974978" lon="-8.767709350213408">
        <ele>3.3984375</ele>
      </trkpt>
      <trkpt lat="41.507408050820231" lon="-8.767559230327606">
        <ele>3.2421875</ele>
      </trkpt>
      <trkpt lat="41.507386425510049" lon="-8.767418498173356">
        <ele>3.1015625</ele>
      </trkpt>
      <trkpt lat="41.507364297285676" lon="-8.767277095466852">
        <ele>2.95703125</ele>
      </trkpt>
      <trkpt lat="41.507342169061303" lon="-8.767109289765358">
        <ele>2.83984375</ele>
      </trkpt>
      <trkpt lat="41.507329428568482" lon="-8.766961852088571">
        <ele>2.85546875</ele>
      </trkpt>
      <trkpt lat="41.507340408861637" lon="-8.766818521544337">
        <ele>2.84375</ele>
      </trkpt>
      <trkpt lat="41.507378043606877" lon="-8.766681225970387">
        <ele>2.796875</ele>
      </trkpt>
      <trkpt lat="41.507436130195856" lon="-8.766566561535001">
        <ele>2.7265625</ele>
      </trkpt>
      <trkpt lat="41.507991096004844" lon="-8.766669491305947">
        <ele>2.0625</ele>
      </trkpt>
      <trkpt lat="41.508115902543068" lon="-8.766672676429152">
        <ele>2.0859375</ele>
      </trkpt>
      <trkpt lat="41.508228136226535" lon="-8.766704192385077">
        <ele>2.22265625</ele>
      </trkpt>
      <trkpt lat="41.508336430415511" lon="-8.76673654653132">
        <ele>2.3515625</ele>
      </trkpt>
      <trkpt lat="41.508451933041215" lon="-8.766752975061536">
        <ele>2.4921875</ele>
      </trkpt>
      <trkpt lat="41.508576991036534" lon="-8.76676051877439">
        <ele>2.640625</ele>
      </trkpt>
      <trkpt lat="41.508695259690285" lon="-8.766778958961368">
        <ele>2.78515625</ele>
      </trkpt>
      <trkpt lat="41.508800284937024" lon="-8.766811480745673">
        <ele>2.91015625</ele>
      </trkpt>
      <trkpt lat="41.508902460336685" lon="-8.766853054985404">
        <ele>3</ele>
      </trkpt>
      <trkpt lat="41.509006060659885" lon="-8.766899323090911">
        <ele>3</ele>
      </trkpt>
      <trkpt lat="41.509102452546358" lon="-8.766986997798085">
        <ele>3</ele>
      </trkpt>
      <trkpt lat="41.509196162223816" lon="-8.767085568979383">
        <ele>3</ele>
      </trkpt>
      <trkpt lat="41.50929263792932" lon="-8.767182044684887">
        <ele>3</ele>
      </trkpt>
      <trkpt lat="41.509375534951687" lon="-8.767276257276535">
        <ele>3</ele>
      </trkpt>
      <trkpt lat="41.509463796392083" lon="-8.767369128763676">
        <ele>3</ele>
      </trkpt>
      <trkpt lat="41.509559182450175" lon="-8.767464933916926">
        <ele>3</ele>
      </trkpt>
      <trkpt lat="41.509652975946665" lon="-8.767538610845804">
        <ele>3</ele>
      </trkpt>
      <trkpt lat="41.509752804413438" lon="-8.767597954720259">
        <ele>2.9765625</ele>
      </trkpt>
      <trkpt lat="41.509858081117272" lon="-8.767674146220088">
        <ele>2.9296875</ele>
      </trkpt>
      <trkpt lat="41.509955646470189" lon="-8.767763413488865">
        <ele>2.91796875</ele>
      </trkpt>
      <trkpt lat="41.510050110518932" lon="-8.76785553060472">
        <ele>2.93359375</ele>
      </trkpt>
      <trkpt lat="41.510141976177692" lon="-8.767937337979674">
        <ele>2.96484375</ele>
      </trkpt>
      <trkpt lat="41.51025328785181" lon="-8.76804118975997">
        <ele>3.078125</ele>
      </trkpt>
      <trkpt lat="41.51034657843411" lon="-8.768128613010049">
        <ele>3.25390625</ele>
      </trkpt>
      <trkpt lat="41.510452274233103" lon="-8.768214024603367">
        <ele>3.4765625</ele>
      </trkpt>
      <trkpt lat="41.510548833757639" lon="-8.76828845590353">
        <ele>3.70703125</ele>
      </trkpt>
      <trkpt lat="41.51065737940371" lon="-8.768366659060121">
        <ele>3.76171875</ele>
      </trkpt>
      <trkpt lat="41.510747149586678" lon="-8.768445365130901">
        <ele>3.84375</ele>
      </trkpt>
      <trkpt lat="41.510854437947273" lon="-8.768508480861783">
        <ele>3.8671875</ele>
      </trkpt>
      <trkpt lat="41.510955356061459" lon="-8.768563633784652">
        <ele>3.87890625</ele>
      </trkpt>
      <trkpt lat="41.511044623330235" lon="-8.768638148903847">
        <ele>3.94921875</ele>
      </trkpt>
      <trkpt lat="41.511140847578645" lon="-8.768703695386648">
        <ele>3.9921875</ele>
      </trkpt>
      <trkpt lat="41.511241178959608" lon="-8.768764967098832">
        <ele>4.01953125</ele>
      </trkpt>
      <trkpt lat="41.511319382116199" lon="-8.768858844414353">
        <ele>4.10546875</ele>
      </trkpt>
      <trkpt lat="41.511389203369617" lon="-8.768994463607669">
        <ele>4.19140625</ele>
      </trkpt>
      <trkpt lat="41.511422479525208" lon="-8.769043581560254">
        <ele>4.22265625</ele>
      </trkpt>
      <trkpt lat="41.511579724028707" lon="-8.769334517419338">
        <ele>4.51953125</ele>
      </trkpt>
      <trkpt lat="41.511675277724862" lon="-8.769456474110484">
        <ele>4.671875</ele>
      </trkpt>
      <trkpt lat="41.511762198060751" lon="-8.769560996443033">
        <ele>4.83203125</ele>
      </trkpt>
      <trkpt lat="41.511831851676106" lon="-8.769674487411976">
        <ele>5.01171875</ele>
      </trkpt>
      <trkpt lat="41.511909049004316" lon="-8.769803820177913">
        <ele>5.11328125</ele>
      </trkpt>
      <trkpt lat="41.511986330151558" lon="-8.769933236762881">
        <ele>5.2421875</ele>
      </trkpt>
      <trkpt lat="41.512063695117831" lon="-8.770059049129486">
        <ele>5.3984375</ele>
      </trkpt>
      <trkpt lat="41.512132845818996" lon="-8.770175809040666">
        <ele>5.56640625</ele>
      </trkpt>
      <trkpt lat="41.512216161936522" lon="-8.77028351649642">
        <ele>5.74609375</ele>
      </trkpt>
      <trkpt lat="41.512299478054047" lon="-8.770375046879053">
        <ele>5.765625</ele>
      </trkpt>
      <trkpt lat="41.512402910739183" lon="-8.770446879789233">
        <ele>5.7265625</ele>
      </trkpt>
      <trkpt lat="41.51249511167407" lon="-8.770529106259346">
        <ele>5.71875</ele>
      </trkpt>
      <trkpt lat="41.512558814138174" lon="-8.770647123456001">
        <ele>5.84765625</ele>
      </trkpt>
      <trkpt lat="41.512614721432328" lon="-8.770772768184543">
        <ele>6.015625</ele>
      </trkpt>
      <trkpt lat="41.512677669525146" lon="-8.770897071808577">
        <ele>6.19921875</ele>
      </trkpt>
      <trkpt lat="41.512752436101437" lon="-8.771006623283029">
        <ele>6.37109375</ele>
      </trkpt>
      <trkpt lat="41.512839021161199" lon="-8.771091112866998">
        <ele>6.51171875</ele>
      </trkpt>
      <trkpt lat="41.512905824929476" lon="-8.77120996825397">
        <ele>6.75</ele>
      </trkpt>
      <trkpt lat="41.512991404160857" lon="-8.771306946873665">
        <ele>6.96484375</ele>
      </trkpt>
      <trkpt lat="41.513085532933474" lon="-8.771386239677668">
        <ele>6.78515625</ele>
      </trkpt>
      <trkpt lat="41.513190725818276" lon="-8.771454468369484">
        <ele>6.3046875</ele>
      </trkpt>
      <trkpt lat="41.513292398303747" lon="-8.771540215238929">
        <ele>5.8671875</ele>
      </trkpt>
      <trkpt lat="41.513394908979535" lon="-8.771599642932415">
        <ele>5.4375</ele>
      </trkpt>
      <trkpt lat="41.513508819043636" lon="-8.771635349839926">
        <ele>4.95703125</ele>
      </trkpt>
      <trkpt lat="41.513616275042295" lon="-8.771670134738088">
        <ele>4.51953125</ele>
      </trkpt>
      <trkpt lat="41.513713337481022" lon="-8.771736184135079">
        <ele>4.16796875</ele>
      </trkpt>
      <trkpt lat="41.513816434890032" lon="-8.771769795566797">
        <ele>3.76953125</ele>
      </trkpt>
      <trkpt lat="41.513927662745118" lon="-8.771804831922054">
        <ele>3.3828125</ele>
      </trkpt>
      <trkpt lat="41.514037381857634" lon="-8.771830145269632">
        <ele>3.015625</ele>
      </trkpt>
      <trkpt lat="41.514145256951451" lon="-8.77182369120419">
        <ele>2.62109375</ele>
      </trkpt>
      <trkpt lat="41.514256820082664" lon="-8.771793181076646">
        <ele>2.1796875</ele>
      </trkpt>
      <trkpt lat="41.514295879751444" lon="-8.771774908527732">
        <ele>2.01953125</ele>
      </trkpt>
      <trkpt lat="41.514739785343409" lon="-8.772800518199801">
        <ele>0.95703125</ele>
      </trkpt>
      <trkpt lat="41.514741545543075" lon="-8.772800518199801">
        <ele>0.95703125</ele>
      </trkpt>
      <trkpt lat="41.516946908086538" lon="-8.770957672968507">
        <ele>1.12890625</ele>
      </trkpt>
      <trkpt lat="41.517046149820089" lon="-8.770912410691381">
        <ele>1.3046875</ele>
      </trkpt>
      <trkpt lat="41.517151007428765" lon="-8.770887851715088">
        <ele>1.45703125</ele>
      </trkpt>
      <trkpt lat="41.517263995483518" lon="-8.770881397649646">
        <ele>1.5234375</ele>
      </trkpt>
      <trkpt lat="41.517367428168654" lon="-8.770903861150146">
        <ele>1.5</ele>
      </trkpt>
      <trkpt lat="41.517392406240106" lon="-8.770928420126438">
        <ele>1.484375</ele>
      </trkpt>
      <trkpt lat="41.519402386620641" lon="-8.773129340261221">
        <ele>1.109375</ele>
      </trkpt>
      <trkpt lat="41.519402386620641" lon="-8.773134704679251">
        <ele>1.11328125</ele>
      </trkpt>
      <trkpt lat="41.519937571138144" lon="-8.773691765964031">
        <ele>2.12890625</ele>
      </trkpt>
      <trkpt lat="41.520014014095068" lon="-8.773806681856513">
        <ele>2.35546875</ele>
      </trkpt>
      <trkpt lat="41.520101185888052" lon="-8.773909276351333">
        <ele>2.3203125</ele>
      </trkpt>
      <trkpt lat="41.520190620794892" lon="-8.773991502821445">
        <ele>2.26171875</ele>
      </trkpt>
      <trkpt lat="41.520283995196223" lon="-8.774093929678202">
        <ele>2.140625</ele>
      </trkpt>
      <trkpt lat="41.520372088998556" lon="-8.774180598556995">
        <ele>2.0234375</ele>
      </trkpt>
      <trkpt lat="41.520472336560488" lon="-8.774247737601399">
        <ele>1.9375</ele>
      </trkpt>
      <trkpt lat="41.520564705133438" lon="-8.774286042898893">
        <ele>1.8671875</ele>
      </trkpt>
      <trkpt lat="41.522761601954699" lon="-8.775410642847419">
        <ele>2.375</ele>
      </trkpt>
      <trkpt lat="41.522761601954699" lon="-8.775410726666451">
        <ele>2.375</ele>
      </trkpt>
      <trkpt lat="41.524345362558961" lon="-8.77620474435389">
        <ele>2.7109375</ele>
      </trkpt>
      <trkpt lat="41.524344189092517" lon="-8.776205750182271">
        <ele>2.7109375</ele>
      </trkpt>
      <trkpt lat="41.52488767169416" lon="-8.776519484817982">
        <ele>2.74609375</ele>
      </trkpt>
      <trkpt lat="41.524926815181971" lon="-8.776544127613306">
        <ele>2.734375</ele>
      </trkpt>
      <trkpt lat="41.524960342794657" lon="-8.776574386283755">
        <ele>2.69921875</ele>
      </trkpt>
      <trkpt lat="41.524995043873787" lon="-8.77660883590579">
        <ele>2.66015625</ele>
      </trkpt>
      <trkpt lat="41.525026895105839" lon="-8.77664253115654">
        <ele>2.6171875</ele>
      </trkpt>
      <trkpt lat="41.525065870955586" lon="-8.776688044890761">
        <ele>2.5546875</ele>
      </trkpt>
      <trkpt lat="41.525099314749241" lon="-8.77672509290278">
        <ele>2.50390625</ele>
      </trkpt>
      <trkpt lat="41.525131752714515" lon="-8.776757614687085">
        <ele>2.46484375</ele>
      </trkpt>
      <trkpt lat="41.525164777413011" lon="-8.776785777881742">
        <ele>2.4375</ele>
      </trkpt>
      <trkpt lat="41.525195371359587" lon="-8.776815952733159">
        <ele>2.40234375</ele>
      </trkpt>
      <trkpt lat="41.525233257561922" lon="-8.776841852813959">
        <ele>2.38671875</ele>
      </trkpt>
      <trkpt lat="41.525269886478782" lon="-8.776868339627981">
        <ele>2.3671875</ele>
      </trkpt>
      <trkpt lat="41.525304839015007" lon="-8.776897760108113">
        <ele>2.33984375</ele>
      </trkpt>
      <trkpt lat="41.525336690247059" lon="-8.776933383196592">
        <ele>2.2890625</ele>
      </trkpt>
      <trkpt lat="41.525368792936206" lon="-8.776965234428644">
        <ele>2.25390625</ele>
      </trkpt>
      <trkpt lat="41.525397626683116" lon="-8.777000522240996">
        <ele>2.203125</ele>
      </trkpt>
      <trkpt lat="41.525430483743548" lon="-8.777033966034651">
        <ele>2.16015625</ele>
      </trkpt>
      <trkpt lat="41.525451689958572" lon="-8.777060620486736">
        <ele>2.125</ele>
      </trkpt>
      <trkpt lat="41.525634499266744" lon="-8.777052909135818">
        <ele>2.453125</ele>
      </trkpt>
      <trkpt lat="41.52568755671382" lon="-8.777058525010943">
        <ele>2.5546875</ele>
      </trkpt>
      <trkpt lat="41.525739608332515" lon="-8.777094148099422">
        <ele>2.6015625</ele>
      </trkpt>
      <trkpt lat="41.525781182572246" lon="-8.777142595499754">
        <ele>2.61328125</ele>
      </trkpt>
      <trkpt lat="41.525817308574915" lon="-8.777206968516111">
        <ele>2.6171875</ele>
      </trkpt>
      <trkpt lat="41.525847231969237" lon="-8.777272514998913">
        <ele>2.61328125</ele>
      </trkpt>
      <trkpt lat="41.525873048231006" lon="-8.777337390929461">
        <ele>2.59765625</ele>
      </trkpt>
      <trkpt lat="41.525917388498783" lon="-8.777372511103749">
        <ele>2.66015625</ele>
      </trkpt>
      <trkpt lat="41.525980168953538" lon="-8.777374271303415">
        <ele>2.80859375</ele>
      </trkpt>
      <trkpt lat="41.526030460372567" lon="-8.777345353737473">
        <ele>2.96484375</ele>
      </trkpt>
      <trkpt lat="41.526073291897774" lon="-8.777294391766191">
        <ele>3.12890625</ele>
      </trkpt>
      <trkpt lat="41.526111681014299" lon="-8.777243848890066">
        <ele>3.28125</ele>
      </trkpt>
      <trkpt lat="41.526153087615967" lon="-8.777197161689401">
        <ele>3.4375</ele>
      </trkpt>
      <trkpt lat="41.526208072900772" lon="-8.777169669046998">
        <ele>3.6015625</ele>
      </trkpt>
      <trkpt lat="41.526264734566212" lon="-8.777178302407265">
        <ele>3.7265625</ele>
      </trkpt>
      <trkpt lat="41.526317540556192" lon="-8.777195485308766">
        <ele>3.8359375</ele>
      </trkpt>
      <trkpt lat="41.526370346546173" lon="-8.777240160852671">
        <ele>3.90625</ele>
      </trkpt>
      <trkpt lat="41.526412423700094" lon="-8.777284920215607">
        <ele>3.953125</ele>
      </trkpt>
      <trkpt lat="41.52645324356854" lon="-8.777333116158843">
        <ele>3.99609375</ele>
      </trkpt>
      <trkpt lat="41.526494650170207" lon="-8.777383575215936">
        <ele>4.03515625</ele>
      </trkpt>
      <trkpt lat="41.526535218581557" lon="-8.777431603521109">
        <ele>4.07421875</ele>
      </trkpt>
      <trkpt lat="41.526577295735478" lon="-8.777479631826282">
        <ele>4.1171875</ele>
      </trkpt>
      <trkpt lat="41.526621719822288" lon="-8.777522211894393">
        <ele>4.171875</ele>
      </trkpt>
      <trkpt lat="41.526677962392569" lon="-8.777555907145143">
        <ele>4.265625</ele>
      </trkpt>
      <trkpt lat="41.526733366772532" lon="-8.77756068482995">
        <ele>4.39453125</ele>
      </trkpt>
      <trkpt lat="41.526785334572196" lon="-8.777544004842639">
        <ele>4.5390625</ele>
      </trkpt>
      <trkpt lat="41.526836799457669" lon="-8.777545345947146">
        <ele>4.66015625</ele>
      </trkpt>
      <trkpt lat="41.52688424102962" lon="-8.777579460293055">
        <ele>4.734375</ele>
      </trkpt>
      <trkpt lat="41.526936711743474" lon="-8.777615167200565">
        <ele>4.81640625</ele>
      </trkpt>
      <trkpt lat="41.526985578238964" lon="-8.777651963755488">
        <ele>4.890625</ele>
      </trkpt>
      <trkpt lat="41.527035450562835" lon="-8.777686413377523">
        <ele>4.96875</ele>
      </trkpt>
      <trkpt lat="41.527092531323433" lon="-8.777722371742129">
        <ele>5.0625</ele>
      </trkpt>
      <trkpt lat="41.527143744751811" lon="-8.777758916839957">
        <ele>5.140625</ele>
      </trkpt>
      <trkpt lat="41.527203507721424" lon="-8.777796551585197">
        <ele>5.2265625</ele>
      </trkpt>
      <trkpt lat="41.527249692007899" lon="-8.777835359796882">
        <ele>5.16796875</ele>
      </trkpt>
      <trkpt lat="41.527303503826261" lon="-8.777869725599885">
        <ele>5.12109375</ele>
      </trkpt>
      <trkpt lat="41.527358237653971" lon="-8.777908030897379">
        <ele>5.07421875</ele>
      </trkpt>
      <trkpt lat="41.527410456910729" lon="-8.777935858815908">
        <ele>5.04296875</ele>
      </trkpt>
      <trkpt lat="41.52746275998652" lon="-8.777975169941783">
        <ele>5.0078125</ele>
      </trkpt>
      <trkpt lat="41.527522355318069" lon="-8.778026299551129">
        <ele>4.921875</ele>
      </trkpt>
      <trkpt lat="41.527569545432925" lon="-8.778061587363482">
        <ele>4.85546875</ele>
      </trkpt>
      <trkpt lat="41.527617238461971" lon="-8.778101317584515">
        <ele>4.7890625</ele>
      </trkpt>
      <trkpt lat="41.527667948976159" lon="-8.778141466900706">
        <ele>4.73046875</ele>
      </trkpt>
      <trkpt lat="41.52771832421422" lon="-8.778170719742775">
        <ele>4.69140625</ele>
      </trkpt>
      <trkpt lat="41.52777305804193" lon="-8.778198882937431">
        <ele>4.6640625</ele>
      </trkpt>
      <trkpt lat="41.527829468250275" lon="-8.778235511854291">
        <ele>4.625</ele>
      </trkpt>
      <trkpt lat="41.527882358059287" lon="-8.778264513239264">
        <ele>4.60546875</ele>
      </trkpt>
      <trkpt lat="41.527932984754443" lon="-8.778301812708378">
        <ele>4.57421875</ele>
      </trkpt>
      <trkpt lat="41.527970116585493" lon="-8.778330059722066">
        <ele>4.5546875</ele>
      </trkpt>
      <trkpt lat="41.528535895049572" lon="-8.778804978355765">
        <ele>4.61328125</ele>
      </trkpt>
      <trkpt lat="41.528535895049572" lon="-8.778806319460273">
        <ele>4.61328125</ele>
      </trkpt>
      <trkpt lat="41.528976280242205" lon="-8.779072109609842">
        <ele>4.734375</ele>
      </trkpt>
      <trkpt lat="41.528981560841203" lon="-8.779072109609842">
        <ele>4.73828125</ele>
      </trkpt>
      <trkpt lat="41.529229581356049" lon="-8.779221810400486">
        <ele>4.7265625</ele>
      </trkpt>
      <trkpt lat="41.529622441157699" lon="-8.779595475643873">
        <ele>4.91796875</ele>
      </trkpt>
      <trkpt lat="41.529623279348016" lon="-8.779596900567412">
        <ele>4.91796875</ele>
      </trkpt>
      <trkpt lat="41.530392402783036" lon="-8.779803514480591">
        <ele>5.8359375</ele>
      </trkpt>
      <trkpt lat="41.530392486602068" lon="-8.779804855585098">
        <ele>5.8359375</ele>
      </trkpt>
      <trkpt lat="41.53107762336731" lon="-8.780235266312957">
        <ele>6.66015625</ele>
      </trkpt>
      <trkpt lat="41.531078545376658" lon="-8.780235266312957">
        <ele>6.66015625</ele>
      </trkpt>
      <trkpt lat="41.531196897849441" lon="-8.780319169163704">
        <ele>6.80078125</ele>
      </trkpt>
      <trkpt lat="41.531675420701504" lon="-8.780632903799415">
        <ele>6.33203125</ele>
      </trkpt>
      <trkpt lat="41.531676007434726" lon="-8.780632903799415">
        <ele>6.33203125</ele>
      </trkpt>
      <trkpt lat="41.532184537500143" lon="-8.780931634828448">
        <ele>5.46875</ele>
      </trkpt>
      <trkpt lat="41.532184537500143" lon="-8.780930712819099">
        <ele>5.46875</ele>
      </trkpt>
      <trkpt lat="41.532663144171238" lon="-8.781171692535281">
        <ele>5.171875</ele>
      </trkpt>
      <trkpt lat="41.53270329348743" lon="-8.781184684485197">
        <ele>5.15625</ele>
      </trkpt>
      <trkpt lat="41.532741263508797" lon="-8.781198766082525">
        <ele>5.140625</ele>
      </trkpt>
      <trkpt lat="41.532781664282084" lon="-8.781216284260154">
        <ele>5.12109375</ele>
      </trkpt>
      <trkpt lat="41.532817287370563" lon="-8.781235562637448">
        <ele>5.09765625</ele>
      </trkpt>
      <trkpt lat="41.532852659001946" lon="-8.781264815479517">
        <ele>5.0625</ele>
      </trkpt>
      <trkpt lat="41.532878559082747" lon="-8.781305970624089">
        <ele>5.01171875</ele>
      </trkpt>
      <trkpt lat="41.532900603488088" lon="-8.781347628682852">
        <ele>4.95703125</ele>
      </trkpt>
      <trkpt lat="41.532929940149188" lon="-8.781387945637107">
        <ele>4.90234375</ele>
      </trkpt>
      <trkpt lat="41.532965144142509" lon="-8.781408481299877">
        <ele>4.8828125</ele>
      </trkpt>
      <trkpt lat="41.533003952354193" lon="-8.781424826011062">
        <ele>4.8671875</ele>
      </trkpt>
      <trkpt lat="41.533021554350853" lon="-8.781428094953299">
        <ele>4.86328125</ele>
      </trkpt>
      <trkpt lat="41.533336630091071" lon="-8.78144720569253">
        <ele>5.21484375</ele>
      </trkpt>
      <trkpt lat="41.533381389454007" lon="-8.781452318653464">
        <ele>5.26171875</ele>
      </trkpt>
      <trkpt lat="41.533421622589231" lon="-8.781457683071494">
        <ele>5.3046875</ele>
      </trkpt>
      <trkpt lat="41.533464286476374" lon="-8.781460449099541">
        <ele>5.3515625</ele>
      </trkpt>
      <trkpt lat="41.533502591773868" lon="-8.781462963670492">
        <ele>5.39453125</ele>
      </trkpt>
      <trkpt lat="41.533541567623615" lon="-8.781462963670492">
        <ele>5.44140625</ele>
      </trkpt>
      <trkpt lat="41.533555900678039" lon="-8.781459527090192">
        <ele>5.4609375</ele>
      </trkpt>
      <trkpt lat="41.533927218988538" lon="-8.781478218734264">
        <ele>5.88671875</ele>
      </trkpt>
      <trkpt lat="41.533938031643629" lon="-8.781478218734264">
        <ele>5.8984375</ele>
      </trkpt>
      <trkpt lat="41.534256963059306" lon="-8.781516440212727">
        <ele>6.234375</ele>
      </trkpt>
      <trkpt lat="41.534259561449289" lon="-8.781516440212727">
        <ele>6.23828125</ele>
      </trkpt>
      <trkpt lat="41.535603767260909" lon="-8.781646359711885">
        <ele>6.60546875</ele>
      </trkpt>
      <trkpt lat="41.536725852638483" lon="-8.781752558425069">
        <ele>6.91796875</ele>
      </trkpt>
      <trkpt lat="41.53656542301178" lon="-8.784961486235261">
        <ele>2.40234375</ele>
      </trkpt>
      <trkpt lat="41.536654941737652" lon="-8.784991828724742">
        <ele>2.3828125</ele>
      </trkpt>
      <trkpt lat="41.536691067740321" lon="-8.785005826503038">
        <ele>2.3671875</ele>
      </trkpt>
      <trkpt lat="41.53672912158072" lon="-8.785024266690016">
        <ele>2.33984375</ele>
      </trkpt>
      <trkpt lat="41.53676281683147" lon="-8.785050166770816">
        <ele>2.28515625</ele>
      </trkpt>
      <trkpt lat="41.536791985854506" lon="-8.78508260473609">
        <ele>2.203125</ele>
      </trkpt>
      <trkpt lat="41.536827525123954" lon="-8.785124514251947">
        <ele>2.09375</ele>
      </trkpt>
      <trkpt lat="41.536847725510597" lon="-8.785167597234249">
        <ele>1.97265625</ele>
      </trkpt>
      <trkpt lat="41.536868680268526" lon="-8.785218056291342">
        <ele>1.82421875</ele>
      </trkpt>
      <trkpt lat="41.536892568692565" lon="-8.785259462893009">
        <ele>1.69921875</ele>
      </trkpt>
      <trkpt lat="41.53691478073597" lon="-8.785291817039251">
        <ele>1.60546875</ele>
      </trkpt>
      <trkpt lat="41.537193730473518" lon="-8.785449145361781">
        <ele>1.11328125</ele>
      </trkpt>
      <trkpt lat="41.53719431720674" lon="-8.785449145361781">
        <ele>1.1171875</ele>
      </trkpt>
      <trkpt lat="41.53833819553256" lon="-8.785947281867266">
        <ele>1.421875</ele>
      </trkpt>
      <trkpt lat="41.53833819553256" lon="-8.785945354029536">
        <ele>1.42578125</ele>
      </trkpt>
      <trkpt lat="41.539191892370582" lon="-8.78635011613369">
        <ele>1.7421875</ele>
      </trkpt>
      <trkpt lat="41.539276214316487" lon="-8.786400575190783">
        <ele>1.84765625</ele>
      </trkpt>
      <trkpt lat="41.539355339482427" lon="-8.786454051733017">
        <ele>1.92578125</ele>
      </trkpt>
      <trkpt lat="41.539429016411304" lon="-8.786512222141027">
        <ele>1.96875</ele>
      </trkpt>
      <trkpt lat="41.539493892341852" lon="-8.78658321686089">
        <ele>1.95703125</ele>
      </trkpt>
      <trkpt lat="41.539557930082083" lon="-8.786662593483925">
        <ele>1.91015625</ele>
      </trkpt>
      <trkpt lat="41.53961299918592" lon="-8.786752112209797">
        <ele>1.80859375</ele>
      </trkpt>
      <trkpt lat="41.539670331403613" lon="-8.786832578480244">
        <ele>1.71875</ele>
      </trkpt>
      <trkpt lat="41.539718192070723" lon="-8.786921929568052">
        <ele>1.58203125</ele>
      </trkpt>
      <trkpt lat="41.539770662784576" lon="-8.78702050074935">
        <ele>1.4140625</ele>
      </trkpt>
      <trkpt lat="41.539832688868046" lon="-8.787094932049513">
        <ele>1.3046875</ele>
      </trkpt>
      <trkpt lat="41.539899911731482" lon="-8.787154443562031">
        <ele>1.23828125</ele>
      </trkpt>
      <trkpt lat="41.539984736591578" lon="-8.78719350323081">
        <ele>1.27734375</ele>
      </trkpt>
      <trkpt lat="41.540059084072709" lon="-8.787232814356685">
        <ele>1.29296875</ele>
      </trkpt>
      <trkpt lat="41.540147680789232" lon="-8.78726189956069">
        <ele>1.33203125</ele>
      </trkpt>
      <trkpt lat="41.540234265848994" lon="-8.787288721650839">
        <ele>1.37109375</ele>
      </trkpt>
      <trkpt lat="41.540317917242646" lon="-8.787313448265195">
        <ele>1.40234375</ele>
      </trkpt>
      <trkpt lat="41.540401987731457" lon="-8.78734010271728">
        <ele>1.421875</ele>
      </trkpt>
      <trkpt lat="41.540489075705409" lon="-8.787353513762355">
        <ele>1.47265625</ele>
      </trkpt>
      <trkpt lat="41.540578007698059" lon="-8.787358291447163">
        <ele>1.60546875</ele>
      </trkpt>
      <trkpt lat="41.540659312158823" lon="-8.787348987534642">
        <ele>1.80078125</ele>
      </trkpt>
      <trkpt lat="41.540742376819253" lon="-8.787361979484558">
        <ele>1.94140625</ele>
      </trkpt>
      <trkpt lat="41.540827453136444" lon="-8.787374887615442">
        <ele>2.08203125</ele>
      </trkpt>
      <trkpt lat="41.540909092873335" lon="-8.787395339459181">
        <ele>2.19140625</ele>
      </trkpt>
      <trkpt lat="41.54098704457283" lon="-8.787427190691233">
        <ele>2.25</ele>
      </trkpt>
      <trkpt lat="41.540993666276336" lon="-8.787431214004755">
        <ele>2.25390625</ele>
      </trkpt>
      <trkpt lat="41.542335944250226" lon="-8.788540894165635">
        <ele>2.44921875</ele>
      </trkpt>
      <trkpt lat="41.543034324422479" lon="-8.789119916036725">
        <ele>3.28125</ele>
      </trkpt>
      <trkpt lat="41.543194754049182" lon="-8.789204992353916">
        <ele>3.36328125</ele>
      </trkpt>
      <trkpt lat="41.543466662988067" lon="-8.789410265162587">
        <ele>3.48046875</ele>
      </trkpt>
      <trkpt lat="41.54353623278439" lon="-8.789467178285122">
        <ele>3.53125</ele>
      </trkpt>
      <trkpt lat="41.543609574437141" lon="-8.789540352299809">
        <ele>3.57421875</ele>
      </trkpt>
      <trkpt lat="41.543675623834133" lon="-8.789605563506484">
        <ele>3.62890625</ele>
      </trkpt>
      <trkpt lat="41.543739661574364" lon="-8.789679408073425">
        <ele>3.7734375</ele>
      </trkpt>
      <trkpt lat="41.543813506141305" lon="-8.789734980091453">
        <ele>4.015625</ele>
      </trkpt>
      <trkpt lat="41.543889530003071" lon="-8.789786444976926">
        <ele>4.20703125</ele>
      </trkpt>
      <trkpt lat="41.543960524722934" lon="-8.789844028651714">
        <ele>4.3359375</ele>
      </trkpt>
      <trkpt lat="41.54402531683445" lon="-8.789921896532178">
        <ele>4.46875</ele>
      </trkpt>
      <trkpt lat="41.544079463928938" lon="-8.790008062496781">
        <ele>4.58984375</ele>
      </trkpt>
      <trkpt lat="41.544148614630103" lon="-8.790073189884424">
        <ele>4.6875</ele>
      </trkpt>
      <trkpt lat="41.54422715306282" lon="-8.790107639506459">
        <ele>4.75390625</ele>
      </trkpt>
      <trkpt lat="41.544308289885521" lon="-8.790167737752199">
        <ele>4.83203125</ele>
      </trkpt>
      <trkpt lat="41.544384313747287" lon="-8.790223728865385">
        <ele>4.890625</ele>
      </trkpt>
      <trkpt lat="41.544459080323577" lon="-8.7902816478163">
        <ele>4.9375</ele>
      </trkpt>
      <trkpt lat="41.544534685090184" lon="-8.790336046367884">
        <ele>4.96875</ele>
      </trkpt>
      <trkpt lat="41.544606434181333" lon="-8.790391450747848">
        <ele>4.98828125</ele>
      </trkpt>
      <trkpt lat="41.544680697843432" lon="-8.790443418547511">
        <ele>5</ele>
      </trkpt>
      <trkpt lat="41.54475437477231" lon="-8.790509216487408">
        <ele>5.078125</ele>
      </trkpt>
      <trkpt lat="41.544821262359619" lon="-8.790574679151177">
        <ele>5.234375</ele>
      </trkpt>
      <trkpt lat="41.54488530009985" lon="-8.790639135986567">
        <ele>5.38671875</ele>
      </trkpt>
      <trkpt lat="41.544962162151933" lon="-8.790685404092073">
        <ele>5.5</ele>
      </trkpt>
      <trkpt lat="41.545040281489491" lon="-8.790749525651336">
        <ele>5.65234375</ele>
      </trkpt>
      <trkpt lat="41.545117562636733" lon="-8.790801074355841">
        <ele>5.77734375</ele>
      </trkpt>
      <trkpt lat="41.545184198766947" lon="-8.79085723310709">
        <ele>5.9140625</ele>
      </trkpt>
      <trkpt lat="41.545259049162269" lon="-8.790902746841311">
        <ele>6.0234375</ele>
      </trkpt>
      <trkpt lat="41.545340521261096" lon="-8.790950439870358">
        <ele>6.13671875</ele>
      </trkpt>
      <trkpt lat="41.545416293665767" lon="-8.790994109585881">
        <ele>6.2421875</ele>
      </trkpt>
      <trkpt lat="41.545496843755245" lon="-8.79102922976017">
        <ele>6.32421875</ele>
      </trkpt>
      <trkpt lat="41.545575549826026" lon="-8.791064098477364">
        <ele>6.36328125</ele>
      </trkpt>
      <trkpt lat="41.545656519010663" lon="-8.7910863943398">
        <ele>6.34375</ele>
      </trkpt>
      <trkpt lat="41.54575509019196" lon="-8.791105253621936">
        <ele>6.296875</ele>
      </trkpt>
      <trkpt lat="41.545838825404644" lon="-8.791121849790215">
        <ele>6.25</ele>
      </trkpt>
      <trkpt lat="41.545928427949548" lon="-8.79113232716918">
        <ele>6.1875</ele>
      </trkpt>
      <trkpt lat="41.546013420447707" lon="-8.791134925559163">
        <ele>6.109375</ele>
      </trkpt>
      <trkpt lat="41.546104531735182" lon="-8.791129728779197">
        <ele>6.015625</ele>
      </trkpt>
      <trkpt lat="41.54619044624269" lon="-8.791118916124105">
        <ele>5.921875</ele>
      </trkpt>
      <trkpt lat="41.54628130607307" lon="-8.791100308299065">
        <ele>5.8125</ele>
      </trkpt>
      <trkpt lat="41.546365711838007" lon="-8.791084634140134">
        <ele>5.72265625</ele>
      </trkpt>
      <trkpt lat="41.546446429565549" lon="-8.791060829535127">
        <ele>5.65625</ele>
      </trkpt>
      <trkpt lat="41.546529326587915" lon="-8.791034677997231">
        <ele>5.59765625</ele>
      </trkpt>
      <trkpt lat="41.546610044315457" lon="-8.791005006060004">
        <ele>5.55078125</ele>
      </trkpt>
      <trkpt lat="41.546689001843333" lon="-8.790978267788887">
        <ele>5.51953125</ele>
      </trkpt>
      <trkpt lat="41.54677432961762" lon="-8.790942644700408">
        <ele>5.5</ele>
      </trkpt>
      <trkpt lat="41.54685890302062" lon="-8.790907859802246">
        <ele>5.49609375</ele>
      </trkpt>
      <trkpt lat="41.546938195824623" lon="-8.790881121531129">
        <ele>5.5078125</ele>
      </trkpt>
      <trkpt lat="41.547013968229294" lon="-8.790841978043318">
        <ele>5.53515625</ele>
      </trkpt>
      <trkpt lat="41.547092506662011" lon="-8.790792021900415">
        <ele>5.59375</ele>
      </trkpt>
      <trkpt lat="41.54716819524765" lon="-8.79075463861227">
        <ele>5.66015625</ele>
      </trkpt>
      <trkpt lat="41.547248996794224" lon="-8.790706442669034">
        <ele>5.703125</ele>
      </trkpt>
      <trkpt lat="41.547323679551482" lon="-8.790655983611941">
        <ele>5.75</ele>
      </trkpt>
      <trkpt lat="41.547400373965502" lon="-8.790621953085065">
        <ele>5.78125</ele>
      </trkpt>
      <trkpt lat="41.547478325664997" lon="-8.790584821254015">
        <ele>5.82421875</ele>
      </trkpt>
      <trkpt lat="41.547556947916746" lon="-8.790548359975219">
        <ele>5.875</ele>
      </trkpt>
      <trkpt lat="41.547629116103053" lon="-8.790494548156857">
        <ele>5.96875</ele>
      </trkpt>
      <trkpt lat="41.547696925699711" lon="-8.790426822379231">
        <ele>6</ele>
      </trkpt>
      <trkpt lat="41.547744367271662" lon="-8.790334705263376">
        <ele>6</ele>
      </trkpt>
      <trkpt lat="41.54777311719954" lon="-8.790230099111795">
        <ele>6</ele>
      </trkpt>
      <trkpt lat="41.547780493274331" lon="-8.790181651711464">
        <ele>6</ele>
      </trkpt>
      <trkpt lat="41.548070758581161" lon="-8.787813344970345">
        <ele>8.4609375</ele>
      </trkpt>
      <trkpt lat="41.54838684014976" lon="-8.784892251715064">
        <ele>8.11328125</ele>
      </trkpt>
      <trkpt lat="41.54838684014976" lon="-8.784893676638603">
        <ele>8.11328125</ele>
      </trkpt>
      <trkpt lat="41.548550873994827" lon="-8.784939777106047">
        <ele>8.16015625</ele>
      </trkpt>
      <trkpt lat="41.548616085201502" lon="-8.784965928643942">
        <ele>8.21484375</ele>
      </trkpt>
      <trkpt lat="41.548670399934053" lon="-8.78499467857182">
        <ele>8.28515625</ele>
      </trkpt>
      <trkpt lat="41.548722367733717" lon="-8.785018483176827">
        <ele>8.3515625</ele>
      </trkpt>
      <trkpt lat="41.548780119046569" lon="-8.785041701048613">
        <ele>8.42578125</ele>
      </trkpt>
      <trkpt lat="41.548839211463928" lon="-8.785063158720732">
        <ele>8.49609375</ele>
      </trkpt>
      <trkpt lat="41.54889989644289" lon="-8.78508310765028">
        <ele>8.5703125</ele>
      </trkpt>
      <trkpt lat="41.548952870070934" lon="-8.785094758495688">
        <ele>8.609375</ele>
      </trkpt>
      <trkpt lat="41.549007017165422" lon="-8.785103308036923">
        <ele>8.640625</ele>
      </trkpt>
      <trkpt lat="41.549060409888625" lon="-8.785100625827909">
        <ele>8.6328125</ele>
      </trkpt>
      <trkpt lat="41.549116149544716" lon="-8.785086292773485">
        <ele>8.58203125</ele>
      </trkpt>
      <trkpt lat="41.549170296639204" lon="-8.78506843931973">
        <ele>8.515625</ele>
      </trkpt>
      <trkpt lat="41.549224946647882" lon="-8.785047819837928">
        <ele>8.44140625</ele>
      </trkpt>
      <trkpt lat="41.54928051866591" lon="-8.785033235326409">
        <ele>8.390625</ele>
      </trkpt>
      <trkpt lat="41.549342963844538" lon="-8.785020662471652">
        <ele>8.34375</ele>
      </trkpt>
      <trkpt lat="41.549398619681597" lon="-8.785013537853956">
        <ele>8.31640625</ele>
      </trkpt>
      <trkpt lat="41.549458298832178" lon="-8.785013621672988">
        <ele>8.3203125</ele>
      </trkpt>
      <trkpt lat="41.549520660191774" lon="-8.785019153729081">
        <ele>8.33984375</ele>
      </trkpt>
      <trkpt lat="41.549582853913307" lon="-8.78502837382257">
        <ele>8.37109375</ele>
      </trkpt>
      <trkpt lat="41.549643371254206" lon="-8.785030385479331">
        <ele>8.37890625</ele>
      </trkpt>
      <trkpt lat="41.549699530005455" lon="-8.785035414621234">
        <ele>8.42578125</ele>
      </trkpt>
      <trkpt lat="41.549753928557038" lon="-8.785042958334088">
        <ele>8.546875</ele>
      </trkpt>
      <trkpt lat="41.549788294360042" lon="-8.785051591694355">
        <ele>8.640625</ele>
      </trkpt>
      <trkpt lat="41.550066908821464" lon="-8.785068690776825">
        <ele>9.2109375</ele>
      </trkpt>
      <trkpt lat="41.550138406455517" lon="-8.785087717697024">
        <ele>9.41796875</ele>
      </trkpt>
      <trkpt lat="41.550202695652843" lon="-8.785106157884002">
        <ele>9.6171875</ele>
      </trkpt>
      <trkpt lat="41.550254663452506" lon="-8.785125520080328">
        <ele>9.80078125</ele>
      </trkpt>
      <trkpt lat="41.550309648737311" lon="-8.785141613334417">
        <ele>9.9765625</ele>
      </trkpt>
      <trkpt lat="41.5503706689924" lon="-8.785161394625902">
        <ele>10.18359375</ele>
      </trkpt>
      <trkpt lat="41.550429929047823" lon="-8.785177571699023">
        <ele>10.375</ele>
      </trkpt>
      <trkpt lat="41.550485752522945" lon="-8.785196766257286">
        <ele>10.57421875</ele>
      </trkpt>
      <trkpt lat="41.550543252378702" lon="-8.785214284434915">
        <ele>10.6484375</ele>
      </trkpt>
      <trkpt lat="41.550606954842806" lon="-8.785228617489338">
        <ele>10.53125</ele>
      </trkpt>
      <trkpt lat="41.550657246261835" lon="-8.785258876159787">
        <ele>10.51953125</ele>
      </trkpt>
      <trkpt lat="41.550702759996057" lon="-8.785317130386829">
        <ele>10.6328125</ele>
      </trkpt>
      <trkpt lat="41.550742322579026" lon="-8.785377983003855">
        <ele>10.76171875</ele>
      </trkpt>
      <trkpt lat="41.55078062787652" lon="-8.785433555021882">
        <ele>10.859375</ele>
      </trkpt>
      <trkpt lat="41.550814993679523" lon="-8.785491306334734">
        <ele>10.921875</ele>
      </trkpt>
      <trkpt lat="41.550844078883529" lon="-8.785561714321375">
        <ele>10.78125</ele>
      </trkpt>
      <trkpt lat="41.550867883488536" lon="-8.785627176985145">
        <ele>10.66015625</ele>
      </trkpt>
      <trkpt lat="41.550895543769002" lon="-8.785694483667612">
        <ele>10.51953125</ele>
      </trkpt>
      <trkpt lat="41.550924964249134" lon="-8.785754246637225">
        <ele>10.3671875</ele>
      </trkpt>
      <trkpt lat="41.550960168242455" lon="-8.785808896645904">
        <ele>10.1953125</ele>
      </trkpt>
      <trkpt lat="41.551005262881517" lon="-8.785857679322362">
        <ele>9.9765625</ele>
      </trkpt>
      <trkpt lat="41.551052704453468" lon="-8.785895481705666">
        <ele>9.75</ele>
      </trkpt>
      <trkpt lat="41.551101570948958" lon="-8.785926159471273">
        <ele>9.51953125</ele>
      </trkpt>
      <trkpt lat="41.551155718043447" lon="-8.785951472818851">
        <ele>9.265625</ele>
      </trkpt>
      <trkpt lat="41.551210032775998" lon="-8.785975947976112">
        <ele>9.0078125</ele>
      </trkpt>
      <trkpt lat="41.551226042211056" lon="-8.78598609007895">
        <ele>8.9296875</ele>
      </trkpt>
      <trkpt lat="41.551779164001346" lon="-8.786270236596465">
        <ele>6.9921875</ele>
      </trkpt>
      <trkpt lat="41.551779164001346" lon="-8.786270320415497">
        <ele>6.9921875</ele>
      </trkpt>
      <trkpt lat="41.552461953833699" lon="-8.786699138581753">
        <ele>6.3359375</ele>
      </trkpt>
      <trkpt lat="41.552515514194965" lon="-8.786746663972735">
        <ele>6.3984375</ele>
      </trkpt>
      <trkpt lat="41.552573768422008" lon="-8.78679963760078">
        <ele>6.46875</ele>
      </trkpt>
      <trkpt lat="41.552620371803641" lon="-8.786840960383415">
        <ele>6.52734375</ele>
      </trkpt>
      <trkpt lat="41.552670327946544" lon="-8.78688077442348">
        <ele>6.5859375</ele>
      </trkpt>
      <trkpt lat="41.552722044289112" lon="-8.786918744444847">
        <ele>6.6484375</ele>
      </trkpt>
      <trkpt lat="41.552775437012315" lon="-8.786956965923309">
        <ele>6.7109375</ele>
      </trkpt>
      <trkpt lat="41.552828326821327" lon="-8.78699317574501">
        <ele>6.7734375</ele>
      </trkpt>
      <trkpt lat="41.552882306277752" lon="-8.787014884874225">
        <ele>6.83984375</ele>
      </trkpt>
      <trkpt lat="41.552936369553208" lon="-8.787030978128314">
        <ele>6.90625</ele>
      </trkpt>
      <trkpt lat="41.552991857752204" lon="-8.787045897915959">
        <ele>6.97265625</ele>
      </trkpt>
      <trkpt lat="41.553050866350532" lon="-8.787068277597427">
        <ele>7.0390625</ele>
      </trkpt>
      <trkpt lat="41.553118843585253" lon="-8.787096608430147">
        <ele>7.1171875</ele>
      </trkpt>
      <trkpt lat="41.553178941830993" lon="-8.787121418863535">
        <ele>7.19140625</ele>
      </trkpt>
      <trkpt lat="41.553279189392924" lon="-8.787173135206103">
        <ele>7.31640625</ele>
      </trkpt>
      <trkpt lat="41.553336018696427" lon="-8.787206578999758">
        <ele>7.38671875</ele>
      </trkpt>
      <trkpt lat="41.553390333428979" lon="-8.787239519879222">
        <ele>7.44921875</ele>
      </trkpt>
      <trkpt lat="41.553440121933818" lon="-8.787273969501257">
        <ele>7.51171875</ele>
      </trkpt>
      <trkpt lat="41.553498627617955" lon="-8.787305485457182">
        <ele>7.58203125</ele>
      </trkpt>
      <trkpt lat="41.553553612902761" lon="-8.787332391366363">
        <ele>7.64453125</ele>
      </trkpt>
      <trkpt lat="41.553608598187566" lon="-8.787354687228799">
        <ele>7.7109375</ele>
      </trkpt>
      <trkpt lat="41.55366450548172" lon="-8.787375139072537">
        <ele>7.78125</ele>
      </trkpt>
      <trkpt lat="41.553731225430965" lon="-8.787402799353004">
        <ele>7.859375</ele>
      </trkpt>
      <trkpt lat="41.553784031420946" lon="-8.787428280338645">
        <ele>7.921875</ele>
      </trkpt>
      <trkpt lat="41.553834825754166" lon="-8.787458036094904">
        <ele>7.984375</ele>
      </trkpt>
      <trkpt lat="41.553890816867352" lon="-8.787495084106922">
        <ele>8.05078125</ele>
      </trkpt>
      <trkpt lat="41.553951585665345" lon="-8.787540765479207">
        <ele>8.125</ele>
      </trkpt>
      <trkpt lat="41.553996680304408" lon="-8.787584435194731">
        <ele>8.1796875</ele>
      </trkpt>
      <trkpt lat="41.554046301171184" lon="-8.787622740492225">
        <ele>8.23828125</ele>
      </trkpt>
      <trkpt lat="41.554111512377858" lon="-8.787653753533959">
        <ele>8.31640625</ele>
      </trkpt>
      <trkpt lat="41.554165659472346" lon="-8.787675546482205">
        <ele>8.3828125</ele>
      </trkpt>
      <trkpt lat="41.554219806566834" lon="-8.787703961133957">
        <ele>8.4453125</ele>
      </trkpt>
      <trkpt lat="41.554278647527099" lon="-8.787720641121268">
        <ele>8.515625</ele>
      </trkpt>
      <trkpt lat="41.554335728287697" lon="-8.787742685526609">
        <ele>8.5859375</ele>
      </trkpt>
      <trkpt lat="41.554398173466325" lon="-8.787766406312585">
        <ele>8.66015625</ele>
      </trkpt>
      <trkpt lat="41.554456930607557" lon="-8.787791132926941">
        <ele>8.73046875</ele>
      </trkpt>
      <trkpt lat="41.55451962724328" lon="-8.78781845793128">
        <ele>8.8046875</ele>
      </trkpt>
      <trkpt lat="41.554575618356466" lon="-8.787839664146304">
        <ele>8.875</ele>
      </trkpt>
      <trkpt lat="41.554627250880003" lon="-8.78785751760006">
        <ele>8.93359375</ele>
      </trkpt>
      <trkpt lat="41.554686594754457" lon="-8.787877047434449">
        <ele>8.99609375</ele>
      </trkpt>
      <trkpt lat="41.554749039933085" lon="-8.787893811240792">
        <ele>8.92578125</ele>
      </trkpt>
      <trkpt lat="41.554806791245937" lon="-8.787917280569673">
        <ele>8.859375</ele>
      </trkpt>
      <trkpt lat="41.554865883663297" lon="-8.787934798747301">
        <ele>8.7890625</ele>
      </trkpt>
      <trkpt lat="41.554920198395848" lon="-8.787948545068502">
        <ele>8.72265625</ele>
      </trkpt>
      <trkpt lat="41.554987672716379" lon="-8.787950221449137">
        <ele>8.64453125</ele>
      </trkpt>
      <trkpt lat="41.555046094581485" lon="-8.787940079346299">
        <ele>8.58203125</ele>
      </trkpt>
      <trkpt lat="41.555092697963119" lon="-8.787882244214416">
        <ele>8.5625</ele>
      </trkpt>
      <trkpt lat="41.555124381557107" lon="-8.787797754630446">
        <ele>8.58203125</ele>
      </trkpt>
      <trkpt lat="41.555142570286989" lon="-8.787721982225776">
        <ele>8.6171875</ele>
      </trkpt>
      <trkpt lat="41.555150030180812" lon="-8.787693483754992">
        <ele>8.62890625</ele>
      </trkpt>
      <trkpt lat="41.555214319378138" lon="-8.787428447976708">
        <ele>8.78125</ele>
      </trkpt>
      <trkpt lat="41.555236363783479" lon="-8.787363572046161">
        <ele>8.82421875</ele>
      </trkpt>
      <trkpt lat="41.555263521149755" lon="-8.787295846268535">
        <ele>8.875</ele>
      </trkpt>
      <trkpt lat="41.555288750678301" lon="-8.787229377776384">
        <ele>8.92578125</ele>
      </trkpt>
      <trkpt lat="41.55531607568264" lon="-8.787151174619794">
        <ele>8.99609375</ele>
      </trkpt>
      <trkpt lat="41.555344322696328" lon="-8.78708453848958">
        <ele>8.984375</ele>
      </trkpt>
      <trkpt lat="41.555372066795826" lon="-8.787008179351687">
        <ele>8.97265625</ele>
      </trkpt>
      <trkpt lat="41.55539134517312" lon="-8.786940705031157">
        <ele>8.96484375</ele>
      </trkpt>
      <trkpt lat="41.555409198626876" lon="-8.786869626492262">
        <ele>8.95703125</ele>
      </trkpt>
      <trkpt lat="41.555432081222534" lon="-8.786802906543016">
        <ele>8.9609375</ele>
      </trkpt>
      <trkpt lat="41.555456556379795" lon="-8.786729648709297">
        <ele>8.96484375</ele>
      </trkpt>
      <trkpt lat="41.555474158376455" lon="-8.786653038114309">
        <ele>8.97265625</ele>
      </trkpt>
      <trkpt lat="41.555499639362097" lon="-8.786585060879588">
        <ele>8.98828125</ele>
      </trkpt>
      <trkpt lat="41.555526126176119" lon="-8.786518340930343">
        <ele>8.9921875</ele>
      </trkpt>
      <trkpt lat="41.555557642132044" lon="-8.786448771134019">
        <ele>8.984375</ele>
      </trkpt>
      <trkpt lat="41.55559066683054" lon="-8.786385152488947">
        <ele>8.984375</ele>
      </trkpt>
      <trkpt lat="41.555622853338718" lon="-8.786327317357063">
        <ele>8.99609375</ele>
      </trkpt>
      <trkpt lat="41.555656464770436" lon="-8.786266213282943">
        <ele>9.0546875</ele>
      </trkpt>
      <trkpt lat="41.555688483640552" lon="-8.786203097552061">
        <ele>9.1328125</ele>
      </trkpt>
      <trkpt lat="41.555721340700984" lon="-8.786138640716672">
        <ele>9.2109375</ele>
      </trkpt>
      <trkpt lat="41.555757718160748" lon="-8.7860750220716">
        <ele>9.28515625</ele>
      </trkpt>
      <trkpt lat="41.555791748687625" lon="-8.786015259101987">
        <ele>9.359375</ele>
      </trkpt>
      <trkpt lat="41.555819660425186" lon="-8.785949042066932">
        <ele>9.4375</ele>
      </trkpt>
      <trkpt lat="41.555834664031863" lon="-8.785874359309673">
        <ele>9.52734375</ele>
      </trkpt>
      <trkpt lat="41.555842040106654" lon="-8.785787355154753">
        <ele>9.6328125</ele>
      </trkpt>
      <trkpt lat="41.555843129754066" lon="-8.785706553608179">
        <ele>9.7265625</ele>
      </trkpt>
      <trkpt lat="41.555841788649559" lon="-8.785627512261271">
        <ele>9.82421875</ele>
      </trkpt>
      <trkpt lat="41.555840531364083" lon="-8.785549812018871">
        <ele>9.91796875</ele>
      </trkpt>
      <trkpt lat="41.555842626839876" lon="-8.785474542528391">
        <ele>10.0078125</ele>
      </trkpt>
      <trkpt lat="41.55585209839046" lon="-8.785371109843254">
        <ele>10.1328125</ele>
      </trkpt>
      <trkpt lat="41.555858552455902" lon="-8.785297265276313">
        <ele>10.21875</ele>
      </trkpt>
      <trkpt lat="41.555875735357404" lon="-8.78522920422256">
        <ele>10.30078125</ele>
      </trkpt>
      <trkpt lat="41.555905994027853" lon="-8.785161143168807">
        <ele>10.3828125</ele>
      </trkpt>
      <trkpt lat="41.555938012897968" lon="-8.785104313865304">
        <ele>10.453125</ele>
      </trkpt>
      <trkpt lat="41.555975815281272" lon="-8.785048155114055">
        <ele>10.51953125</ele>
      </trkpt>
      <trkpt lat="41.556012695655227" lon="-8.784989984706044">
        <ele>10.58984375</ele>
      </trkpt>
      <trkpt lat="41.556052174419165" lon="-8.78493164665997">
        <ele>10.66015625</ele>
      </trkpt>
      <trkpt lat="41.556083019822836" lon="-8.784862328320742">
        <ele>10.7421875</ele>
      </trkpt>
      <trkpt lat="41.556107830256224" lon="-8.78478555008769">
        <ele>10.8359375</ele>
      </trkpt>
      <trkpt lat="41.556122917681932" lon="-8.784714555367827">
        <ele>10.91796875</ele>
      </trkpt>
      <trkpt lat="41.556133227422833" lon="-8.784638699144125">
        <ele>11.01171875</ele>
      </trkpt>
      <trkpt lat="41.556145632639527" lon="-8.784561417996883">
        <ele>11.1015625</ele>
      </trkpt>
      <trkpt lat="41.556158205494285" lon="-8.784480029717088">
        <ele>11.203125</ele>
      </trkpt>
      <trkpt lat="41.556167677044868" lon="-8.784429235383868">
        <ele>11.26171875</ele>
      </trkpt>
      <trkpt lat="41.556218387559056" lon="-8.784281713888049">
        <ele>11.4375</ele>
      </trkpt>
      <trkpt lat="41.556234145537019" lon="-8.78420602530241">
        <ele>11.53125</ele>
      </trkpt>
      <trkpt lat="41.556246131658554" lon="-8.784129247069359">
        <ele>11.62109375</ele>
      </trkpt>
      <trkpt lat="41.556259877979755" lon="-8.784053809940815">
        <ele>11.71484375</ele>
      </trkpt>
      <trkpt lat="41.556275803595781" lon="-8.783980971202254">
        <ele>11.80078125</ele>
      </trkpt>
      <trkpt lat="41.556296506896615" lon="-8.78391089849174">
        <ele>11.8828125</ele>
      </trkpt>
      <trkpt lat="41.556318216025829" lon="-8.783835461363196">
        <ele>11.9765625</ele>
      </trkpt>
      <trkpt lat="41.556335482746363" lon="-8.783757090568542">
        <ele>12.13671875</ele>
      </trkpt>
      <trkpt lat="41.556352917104959" lon="-8.783683246001601">
        <ele>12.3203125</ele>
      </trkpt>
      <trkpt lat="41.556372866034508" lon="-8.783600516617298">
        <ele>12.5390625</ele>
      </trkpt>
      <trkpt lat="41.556387785822153" lon="-8.783529186621308">
        <ele>12.71875</ele>
      </trkpt>
      <trkpt lat="41.556403962895274" lon="-8.783453414216638">
        <ele>12.90625</ele>
      </trkpt>
      <trkpt lat="41.556419050320983" lon="-8.783381665125489">
        <ele>13.08203125</ele>
      </trkpt>
      <trkpt lat="41.55643405392766" lon="-8.783305808901787">
        <ele>13.26171875</ele>
      </trkpt>
      <trkpt lat="41.556448889896274" lon="-8.783234478905797">
        <ele>13.4296875</ele>
      </trkpt>
      <trkpt lat="41.556461546570063" lon="-8.783162981271744">
        <ele>13.59375</ele>
      </trkpt>
      <trkpt lat="41.556478645652533" lon="-8.783094668760896">
        <ele>13.75</ele>
      </trkpt>
      <trkpt lat="41.556496918201447" lon="-8.783025518059731">
        <ele>13.90625</ele>
      </trkpt>
      <trkpt lat="41.556517370045185" lon="-8.782952092587948">
        <ele>14.04296875</ele>
      </trkpt>
      <trkpt lat="41.556538157165051" lon="-8.782879672944546">
        <ele>14.15234375</ele>
      </trkpt>
      <trkpt lat="41.556558944284916" lon="-8.782813120633364">
        <ele>14.25390625</ele>
      </trkpt>
      <trkpt lat="41.556583335623145" lon="-8.782748160883784">
        <ele>14.359375</ele>
      </trkpt>
      <trkpt lat="41.556610744446516" lon="-8.782679764553905">
        <ele>14.4765625</ele>
      </trkpt>
      <trkpt lat="41.556637901812792" lon="-8.782611452043056">
        <ele>14.6015625</ele>
      </trkpt>
      <trkpt lat="41.556660532951355" lon="-8.782544480636716">
        <ele>14.72265625</ele>
      </trkpt>
      <trkpt lat="41.556679476052523" lon="-8.782469546422362">
        <ele>14.859375</ele>
      </trkpt>
      <trkpt lat="41.556704035028815" lon="-8.782398551702499">
        <ele>15</ele>
      </trkpt>
      <trkpt lat="41.55673161149025" lon="-8.782332167029381">
        <ele>15.140625</ele>
      </trkpt>
      <trkpt lat="41.556756841018796" lon="-8.782266872003675">
        <ele>15.28125</ele>
      </trkpt>
      <trkpt lat="41.556787015870214" lon="-8.782192524522543">
        <ele>15.44921875</ele>
      </trkpt>
      <trkpt lat="41.556814424693584" lon="-8.78212689422071">
        <ele>15.61328125</ele>
      </trkpt>
      <trkpt lat="41.556840911507607" lon="-8.782061683014035">
        <ele>15.8046875</ele>
      </trkpt>
      <trkpt lat="41.556865889579058" lon="-8.781997561454773">
        <ele>15.98828125</ele>
      </trkpt>
      <trkpt lat="41.556894220411777" lon="-8.781924471259117">
        <ele>16.1953125</ele>
      </trkpt>
      <trkpt lat="41.556922132149339" lon="-8.781854147091508">
        <ele>16.3984375</ele>
      </trkpt>
      <trkpt lat="41.556951468810439" lon="-8.781774854287505">
        <ele>16.625</ele>
      </trkpt>
      <trkpt lat="41.556980721652508" lon="-8.781698076054454">
        <ele>16.84375</ele>
      </trkpt>
      <trkpt lat="41.55700821429491" lon="-8.781623896211386">
        <ele>17.0546875</ele>
      </trkpt>
      <trkpt lat="41.557038389146328" lon="-8.78155181184411">
        <ele>17.265625</ele>
      </trkpt>
      <trkpt lat="41.55706487596035" lon="-8.781487857922912">
        <ele>17.44921875</ele>
      </trkpt>
      <trkpt lat="41.55709077604115" lon="-8.7814125046134">
        <ele>17.6640625</ele>
      </trkpt>
      <trkpt lat="41.557113574817777" lon="-8.781342683359981">
        <ele>17.85546875</ele>
      </trkpt>
      <trkpt lat="41.557134948670864" lon="-8.781273365020752">
        <ele>18.046875</ele>
      </trkpt>
      <trkpt lat="41.557155651971698" lon="-8.781203543767333">
        <ele>18.23828125</ele>
      </trkpt>
      <trkpt lat="41.557173673063517" lon="-8.781135734170675">
        <ele>18.42578125</ele>
      </trkpt>
      <trkpt lat="41.557210050523281" lon="-8.781093489378691">
        <ele>18.5625</ele>
      </trkpt>
      <trkpt lat="41.55726470053196" lon="-8.781099105253816">
        <ele>18.59765625</ele>
      </trkpt>
      <trkpt lat="41.557293031364679" lon="-8.781118970364332">
        <ele>18.578125</ele>
      </trkpt>
      <trkpt lat="41.557840202003717" lon="-8.781650634482503">
        <ele>17.9921875</ele>
      </trkpt>
      <trkpt lat="41.558318054303527" lon="-8.781999237835407">
        <ele>17.9609375</ele>
      </trkpt>
      <trkpt lat="41.558318054303527" lon="-8.782000578939915">
        <ele>17.9609375</ele>
      </trkpt>
      <trkpt lat="41.558904033154249" lon="-8.782487148419023">
        <ele>17.7421875</ele>
      </trkpt>
      <trkpt lat="41.558951558545232" lon="-8.782524280250072">
        <ele>17.578125</ele>
      </trkpt>
      <trkpt lat="41.559007549658418" lon="-8.782546324655414">
        <ele>17.46875</ele>
      </trkpt>
      <trkpt lat="41.559064714238048" lon="-8.782562669366598">
        <ele>17.37890625</ele>
      </trkpt>
      <trkpt lat="41.55911810696125" lon="-8.782570380717516">
        <ele>17.3203125</ele>
      </trkpt>
      <trkpt lat="41.559172170236707" lon="-8.782570548355579">
        <ele>17.2890625</ele>
      </trkpt>
      <trkpt lat="41.559222042560577" lon="-8.782527297735214">
        <ele>17.390625</ele>
      </trkpt>
      <trkpt lat="41.559258420020342" lon="-8.782472060993314">
        <ele>17.53125</ele>
      </trkpt>
      <trkpt lat="41.559285828843713" lon="-8.782398635521531">
        <ele>17.73046875</ele>
      </trkpt>
      <trkpt lat="41.559307789430022" lon="-8.78232236020267">
        <ele>17.9375</ele>
      </trkpt>
      <trkpt lat="41.559323547407985" lon="-8.782249353826046">
        <ele>18.1328125</ele>
      </trkpt>
      <trkpt lat="41.559330672025681" lon="-8.782218676060438">
        <ele>18.21484375</ele>
      </trkpt>
      <trkpt lat="41.559424130246043" lon="-8.781873676925898">
        <ele>18.53515625</ele>
      </trkpt>
      <trkpt lat="41.55946402810514" lon="-8.781821960583329">
        <ele>18.546875</ele>
      </trkpt>
      <trkpt lat="41.559501998126507" lon="-8.781769154593349">
        <ele>18.5703125</ele>
      </trkpt>
      <trkpt lat="41.559540554881096" lon="-8.781713582575321">
        <ele>18.6015625</ele>
      </trkpt>
      <trkpt lat="41.559583554044366" lon="-8.78165977075696">
        <ele>18.6328125</ele>
      </trkpt>
      <trkpt lat="41.559631666168571" lon="-8.781597074121237">
        <ele>18.6796875</ele>
      </trkpt>
      <trkpt lat="41.559672234579921" lon="-8.781546866521239">
        <ele>18.7265625</ele>
      </trkpt>
      <trkpt lat="41.55971716158092" lon="-8.781498419120908">
        <ele>18.81640625</ele>
      </trkpt>
      <trkpt lat="41.559762507677078" lon="-8.781442428007722">
        <ele>18.93359375</ele>
      </trkpt>
      <trkpt lat="41.559807518497109" lon="-8.781389705836773">
        <ele>19.0546875</ele>
      </trkpt>
      <trkpt lat="41.55985102057457" lon="-8.781341761350632">
        <ele>19.171875</ele>
      </trkpt>
      <trkpt lat="41.559893600642681" lon="-8.781295912340283">
        <ele>19.2734375</ele>
      </trkpt>
      <trkpt lat="41.559942048043013" lon="-8.781248386949301">
        <ele>19.3671875</ele>
      </trkpt>
      <trkpt lat="41.559991920366883" lon="-8.781201113015413">
        <ele>19.48046875</ele>
      </trkpt>
      <trkpt lat="41.560038607567549" lon="-8.781156605109572">
        <ele>19.59765625</ele>
      </trkpt>
      <trkpt lat="41.560081271454692" lon="-8.781109163537621">
        <ele>19.7265625</ele>
      </trkpt>
      <trkpt lat="41.560122426599264" lon="-8.781059710308909">
        <ele>19.86328125</ele>
      </trkpt>
      <trkpt lat="41.560161402449012" lon="-8.781006820499897">
        <ele>20.01171875</ele>
      </trkpt>
      <trkpt lat="41.560207838192582" lon="-8.780955439433455">
        <ele>20.1875</ele>
      </trkpt>
      <trkpt lat="41.560249915346503" lon="-8.780907997861505">
        <ele>20.359375</ele>
      </trkpt>
      <trkpt lat="41.560291908681393" lon="-8.780860556289554">
        <ele>20.54296875</ele>
      </trkpt>
      <trkpt lat="41.560335410758853" lon="-8.780817221850157">
        <ele>20.734375</ele>
      </trkpt>
      <trkpt lat="41.560379834845662" lon="-8.780771289020777">
        <ele>20.9453125</ele>
      </trkpt>
      <trkpt lat="41.56042224727571" lon="-8.780714962631464">
        <ele>21.18359375</ele>
      </trkpt>
      <trkpt lat="41.560461642220616" lon="-8.780659809708595">
        <ele>21.42578125</ele>
      </trkpt>
      <trkpt lat="41.560498187318444" lon="-8.780591413378716">
        <ele>21.69921875</ele>
      </trkpt>
      <trkpt lat="41.560533056035638" lon="-8.78052955493331">
        <ele>22.01953125</ele>
      </trkpt>
      <trkpt lat="41.5605678409338" lon="-8.78047339618206">
        <ele>22.37890625</ele>
      </trkpt>
      <trkpt lat="41.560608996078372" lon="-8.780418913811445">
        <ele>22.8203125</ele>
      </trkpt>
      <trkpt lat="41.560645960271358" lon="-8.780360911041498">
        <ele>23.25390625</ele>
      </trkpt>
      <trkpt lat="41.560679655522108" lon="-8.780301064252853">
        <ele>23.671875</ele>
      </trkpt>
      <trkpt lat="41.560714021325111" lon="-8.78024373203516">
        <ele>24.08203125</ele>
      </trkpt>
      <trkpt lat="41.560744699090719" lon="-8.780184974893928">
        <ele>24.48046875</ele>
      </trkpt>
      <trkpt lat="41.560778729617596" lon="-8.780126636847854">
        <ele>24.89453125</ele>
      </trkpt>
      <trkpt lat="41.560819465667009" lon="-8.780069639906287">
        <ele>25.34375</ele>
      </trkpt>
      <trkpt lat="41.560861123725772" lon="-8.780013481155038">
        <ele>25.796875</ele>
      </trkpt>
      <trkpt lat="41.560903117060661" lon="-8.779956232756376">
        <ele>26.25390625</ele>
      </trkpt>
      <trkpt lat="41.560954665765166" lon="-8.779881466180086">
        <ele>26.83203125</ele>
      </trkpt>
      <trkpt lat="41.560993809252977" lon="-8.779807118698955">
        <ele>27.3359375</ele>
      </trkpt>
      <trkpt lat="41.561028677970171" lon="-8.77973117865622">
        <ele>27.8203125</ele>
      </trkpt>
      <trkpt lat="41.561057595536113" lon="-8.779670409858227">
        <ele>28.2109375</ele>
      </trkpt>
      <trkpt lat="41.561089614406228" lon="-8.779607797041535">
        <ele>28.66015625</ele>
      </trkpt>
      <trkpt lat="41.561125488951802" lon="-8.779539652168751">
        <ele>29.16015625</ele>
      </trkpt>
      <trkpt lat="41.561156334355474" lon="-8.779479973018169">
        <ele>29.58203125</ele>
      </trkpt>
      <trkpt lat="41.561187682673335" lon="-8.779417360201478">
        <ele>30.0078125</ele>
      </trkpt>
      <trkpt lat="41.561219953000546" lon="-8.779355669394135">
        <ele>30.42578125</ele>
      </trkpt>
      <trkpt lat="41.56125633046031" lon="-8.779282998293638">
        <ele>30.890625</ele>
      </trkpt>
      <trkpt lat="41.561293797567487" lon="-8.779212422668934">
        <ele>31.34375</ele>
      </trkpt>
      <trkpt lat="41.561332019045949" lon="-8.779147043824196">
        <ele>31.76171875</ele>
      </trkpt>
      <trkpt lat="41.56137166544795" lon="-8.779084766283631">
        <ele>32.1171875</ele>
      </trkpt>
      <trkpt lat="41.561411563307047" lon="-8.779025673866272">
        <ele>32.43359375</ele>
      </trkpt>
      <trkpt lat="41.561442911624908" lon="-8.778961887583137">
        <ele>32.73828125</ele>
      </trkpt>
      <trkpt lat="41.561479540541768" lon="-8.778904471546412">
        <ele>33.03125</ele>
      </trkpt>
      <trkpt lat="41.561511643230915" lon="-8.778840936720371">
        <ele>33.32421875</ele>
      </trkpt>
      <trkpt lat="41.561545003205538" lon="-8.778783855959773">
        <ele>33.60546875</ele>
      </trkpt>
      <trkpt lat="41.561583476141095" lon="-8.778729708865285">
        <ele>33.89453125</ele>
      </trkpt>
      <trkpt lat="41.561633767560124" lon="-8.778700456023216">
        <ele>34.12109375</ele>
      </trkpt>
      <trkpt lat="41.561687495559454" lon="-8.778711352497339">
        <ele>34.2109375</ele>
      </trkpt>
      <trkpt lat="41.56172052025795" lon="-8.778730379417539">
        <ele>34.21875</ele>
      </trkpt>
      <trkpt lat="41.562484949827194" lon="-8.77905584871769">
        <ele>35.16796875</ele>
      </trkpt>
      <trkpt lat="41.562484949827194" lon="-8.779055932536721">
        <ele>35.16796875</ele>
      </trkpt>
      <trkpt lat="41.562833888456225" lon="-8.779179230332375">
        <ele>35.7109375</ele>
      </trkpt>
      <trkpt lat="41.562895914539695" lon="-8.77920831553638">
        <ele>35.7890625</ele>
      </trkpt>
      <trkpt lat="41.562963388860226" lon="-8.77922784537077">
        <ele>35.90625</ele>
      </trkpt>
      <trkpt lat="41.563017703592777" lon="-8.779240753501654">
        <ele>36.01953125</ele>
      </trkpt>
      <trkpt lat="41.563073778524995" lon="-8.779270676895976">
        <ele>36.1796875</ele>
      </trkpt>
      <trkpt lat="41.56312339939177" lon="-8.779299007728696">
        <ele>36.3125</ele>
      </trkpt>
      <trkpt lat="41.563174277544022" lon="-8.779330858960748">
        <ele>36.4375</ele>
      </trkpt>
      <trkpt lat="41.563229095190763" lon="-8.779351813718677">
        <ele>36.60546875</ele>
      </trkpt>
      <trkpt lat="41.563281062990427" lon="-8.779379976913333">
        <ele>36.734375</ele>
      </trkpt>
      <trkpt lat="41.563331438228488" lon="-8.77943454310298">
        <ele>36.78125</ele>
      </trkpt>
      <trkpt lat="41.563375275582075" lon="-8.7794887740165">
        <ele>36.79296875</ele>
      </trkpt>
      <trkpt lat="41.563415843993425" lon="-8.779542753472924">
        <ele>36.78515625</ele>
      </trkpt>
      <trkpt lat="41.563459429889917" lon="-8.77959773875773">
        <ele>36.78125</ele>
      </trkpt>
      <trkpt lat="41.563498405739665" lon="-8.779647443443537">
        <ele>36.7734375</ele>
      </trkpt>
      <trkpt lat="41.563536878675222" lon="-8.77969890832901">
        <ele>36.66796875</ele>
      </trkpt>
      <trkpt lat="41.563544841483235" lon="-8.779707122594118">
        <ele>36.65625</ele>
      </trkpt>
      <trkpt lat="41.563775343820453" lon="-8.779885992407799">
        <ele>36.62890625</ele>
      </trkpt>
      <trkpt lat="41.563826305791736" lon="-8.779927985742688">
        <ele>36.609375</ele>
      </trkpt>
      <trkpt lat="41.563881374895573" lon="-8.779967883601785">
        <ele>36.63671875</ele>
      </trkpt>
      <trkpt lat="41.563934097066522" lon="-8.779986994341016">
        <ele>36.76171875</ele>
      </trkpt>
      <trkpt lat="41.564000314101577" lon="-8.780002752318978">
        <ele>36.95703125</ele>
      </trkpt>
      <trkpt lat="41.564058987423778" lon="-8.780021276324987">
        <ele>37.1171875</ele>
      </trkpt>
      <trkpt lat="41.564121097326279" lon="-8.780036447569728">
        <ele>37.30859375</ele>
      </trkpt>
      <trkpt lat="41.5641925111413" lon="-8.780055223032832">
        <ele>37.5234375</ele>
      </trkpt>
      <trkpt lat="41.564251519739628" lon="-8.780064778402448">
        <ele>37.73046875</ele>
      </trkpt>
      <trkpt lat="41.564325364306569" lon="-8.780072741210461">
        <ele>38.0078125</ele>
      </trkpt>
      <trkpt lat="41.564379679039121" lon="-8.780078692361712">
        <ele>38.2109375</ele>
      </trkpt>
      <trkpt lat="41.564434412866831" lon="-8.780091013759375">
        <ele>38.39453125</ele>
      </trkpt>
      <trkpt lat="41.56448814086616" lon="-8.780115405097604">
        <ele>38.52734375</ele>
      </trkpt>
      <trkpt lat="41.564544467255473" lon="-8.780138287693262">
        <ele>38.6796875</ele>
      </trkpt>
      <trkpt lat="41.564597273245454" lon="-8.780160415917635">
        <ele>38.828125</ele>
      </trkpt>
      <trkpt lat="41.564655276015401" lon="-8.780173659324646">
        <ele>39.03125</ele>
      </trkpt>
      <trkpt lat="41.564715877175331" lon="-8.780180951580405">
        <ele>39.15625</ele>
      </trkpt>
      <trkpt lat="41.564771616831422" lon="-8.78018262796104">
        <ele>39.2421875</ele>
      </trkpt>
      <trkpt lat="41.56482576392591" lon="-8.78018262796104">
        <ele>39.33203125</ele>
      </trkpt>
      <trkpt lat="41.56488393433392" lon="-8.780174162238836">
        <ele>39.45703125</ele>
      </trkpt>
      <trkpt lat="41.564943781122565" lon="-8.780165612697601">
        <ele>39.58984375</ele>
      </trkpt>
      <trkpt lat="41.565006142482162" lon="-8.780153207480907">
        <ele>39.74609375</ele>
      </trkpt>
      <trkpt lat="41.565066911280155" lon="-8.780143735930324">
        <ele>39.88671875</ele>
      </trkpt>
      <trkpt lat="41.565133044496179" lon="-8.780137784779072">
        <ele>40.0234375</ele>
      </trkpt>
      <trkpt lat="41.565189957618713" lon="-8.780131749808788">
        <ele>40.14453125</ele>
      </trkpt>
      <trkpt lat="41.565252486616373" lon="-8.780127726495266">
        <ele>40.26953125</ele>
      </trkpt>
      <trkpt lat="41.565311159938574" lon="-8.780123703181744">
        <ele>40.390625</ele>
      </trkpt>
      <trkpt lat="41.565371761098504" lon="-8.780121691524982">
        <ele>40.50390625</ele>
      </trkpt>
      <trkpt lat="41.565432529896498" lon="-8.780117835849524">
        <ele>40.625</ele>
      </trkpt>
      <trkpt lat="41.565488185733557" lon="-8.780117835849524">
        <ele>40.72265625</ele>
      </trkpt>
      <trkpt lat="41.565548786893487" lon="-8.780116075649858">
        <ele>40.8203125</ele>
      </trkpt>
      <trkpt lat="41.565604694187641" lon="-8.780116075649858">
        <ele>40.89453125</ele>
      </trkpt>
      <trkpt lat="41.565665630623698" lon="-8.780116159468889">
        <ele>40.9765625</ele>
      </trkpt>
      <trkpt lat="41.565722040832043" lon="-8.780120685696602">
        <ele>41.03125</ele>
      </trkpt>
      <trkpt lat="41.565784402191639" lon="-8.7801225297153">
        <ele>41.109375</ele>
      </trkpt>
      <trkpt lat="41.565827568992972" lon="-8.780120769515634">
        <ele>41.17578125</ele>
      </trkpt>
      <trkpt lat="41.566580263897777" lon="-8.780067041516304">
        <ele>41.7109375</ele>
      </trkpt>
      <trkpt lat="41.566634830087423" lon="-8.780066538602114">
        <ele>41.6484375</ele>
      </trkpt>
      <trkpt lat="41.566703813150525" lon="-8.780055306851864">
        <ele>41.59375</ele>
      </trkpt>
      <trkpt lat="41.566762737929821" lon="-8.780044326558709">
        <ele>41.546875</ele>
      </trkpt>
      <trkpt lat="41.566816717386246" lon="-8.780026473104954">
        <ele>41.52734375</ele>
      </trkpt>
      <trkpt lat="41.56686776317656" lon="-8.779998309910297">
        <ele>41.53125</ele>
      </trkpt>
      <trkpt lat="41.566921323537827" lon="-8.779960004612803">
        <ele>41.55859375</ele>
      </trkpt>
      <trkpt lat="41.566967507824302" lon="-8.77992320805788">
        <ele>41.59375</ele>
      </trkpt>
      <trkpt lat="41.567011596634984" lon="-8.779875263571739">
        <ele>41.65625</ele>
      </trkpt>
      <trkpt lat="41.567060127854347" lon="-8.779831845313311">
        <ele>41.69921875</ele>
      </trkpt>
      <trkpt lat="41.567110251635313" lon="-8.779804017394781">
        <ele>41.70703125</ele>
      </trkpt>
      <trkpt lat="41.567170852795243" lon="-8.779790690168738">
        <ele>41.66796875</ele>
      </trkpt>
      <trkpt lat="41.567183677107096" lon="-8.779789349064231">
        <ele>41.7109375</ele>
      </trkpt>
      <trkpt lat="41.567428512498736" lon="-8.779798736795783">
        <ele>42.76171875</ele>
      </trkpt>
      <trkpt lat="41.567428512498736" lon="-8.77980007790029">
        <ele>42.7578125</ele>
      </trkpt>
      <trkpt lat="41.567798154428601" lon="-8.779856069013476">
        <ele>44.13671875</ele>
      </trkpt>
      <trkpt lat="41.567803435027599" lon="-8.779854727908969">
        <ele>44.1640625</ele>
      </trkpt>
      <trkpt lat="41.568432915955782" lon="-8.779950281605124">
        <ele>45.73046875</ele>
      </trkpt>
      <trkpt lat="41.568498546257615" lon="-8.779968973249197">
        <ele>45.79296875</ele>
      </trkpt>
      <trkpt lat="41.56855596229434" lon="-8.779986407607794">
        <ele>45.8359375</ele>
      </trkpt>
      <trkpt lat="41.568615222349763" lon="-8.780002500861883">
        <ele>45.88671875</ele>
      </trkpt>
      <trkpt lat="41.568670878186822" lon="-8.780016414821148">
        <ele>45.9375</ele>
      </trkpt>
      <trkpt lat="41.568726366385818" lon="-8.780034519731998">
        <ele>45.953125</ele>
      </trkpt>
      <trkpt lat="41.568782022222877" lon="-8.780057486146688">
        <ele>45.9296875</ele>
      </trkpt>
      <trkpt lat="41.568840779364109" lon="-8.780085230246186">
        <ele>45.8671875</ele>
      </trkpt>
      <trkpt lat="41.568896435201168" lon="-8.780114399269223">
        <ele>45.62109375</ele>
      </trkpt>
      <trkpt lat="41.568955024704337" lon="-8.780142143368721">
        <ele>45.375</ele>
      </trkpt>
      <trkpt lat="41.569015374407172" lon="-8.780166283249855">
        <ele>45.15234375</ele>
      </trkpt>
      <trkpt lat="41.569068096578121" lon="-8.780184388160706">
        <ele>44.9765625</ele>
      </trkpt>
      <trkpt lat="41.5691227465868" lon="-8.780200146138668">
        <ele>44.81640625</ele>
      </trkpt>
      <trkpt lat="41.56918041408062" lon="-8.78020953387022">
        <ele>44.69921875</ele>
      </trkpt>
      <trkpt lat="41.569244116544724" lon="-8.78021732904017">
        <ele>44.5859375</ele>
      </trkpt>
      <trkpt lat="41.569304633885622" lon="-8.780219173058867">
        <ele>44.5234375</ele>
      </trkpt>
      <trkpt lat="41.56935878098011" lon="-8.7802226934582">
        <ele>44.44921875</ele>
      </trkpt>
      <trkpt lat="41.56941351480782" lon="-8.780227974057198">
        <ele>44.36328125</ele>
      </trkpt>
      <trkpt lat="41.569469757378101" lon="-8.780235266312957">
        <ele>44.2578125</ele>
      </trkpt>
      <trkpt lat="41.569530274719" lon="-8.780237194150686">
        <ele>44.19140625</ele>
      </trkpt>
      <trkpt lat="41.569591043516994" lon="-8.780243145301938">
        <ele>44.08984375</ele>
      </trkpt>
      <trkpt lat="41.569650219753385" lon="-8.780246917158365">
        <ele>44.0078125</ele>
      </trkpt>
      <trkpt lat="41.569709228351712" lon="-8.780250856652856">
        <ele>44</ele>
      </trkpt>
      <trkpt lat="41.569769745692611" lon="-8.780252784490585">
        <ele>44.0546875</ele>
      </trkpt>
      <trkpt lat="41.569831604138017" lon="-8.780254628509283">
        <ele>44.11328125</ele>
      </trkpt>
      <trkpt lat="41.569893630221486" lon="-8.780256556347013">
        <ele>44.171875</ele>
      </trkpt>
      <trkpt lat="41.569949202239513" lon="-8.780263848602772">
        <ele>44.1796875</ele>
      </trkpt>
      <trkpt lat="41.570006283000112" lon="-8.780271224677563">
        <ele>44.18359375</ele>
      </trkpt>
      <trkpt lat="41.570071913301945" lon="-8.78028086386621">
        <ele>44.18359375</ele>
      </trkpt>
      <trkpt lat="41.570131089538336" lon="-8.780286479741335">
        <ele>44.20703125</ele>
      </trkpt>
      <trkpt lat="41.570187248289585" lon="-8.78029553219676">
        <ele>44.19921875</ele>
      </trkpt>
      <trkpt lat="41.570245921611786" lon="-8.780308440327644">
        <ele>44.16015625</ele>
      </trkpt>
      <trkpt lat="41.570305181667209" lon="-8.780318247154355">
        <ele>44.1484375</ele>
      </trkpt>
      <trkpt lat="41.570364776998758" lon="-8.780333837494254">
        <ele>44.08984375</ele>
      </trkpt>
      <trkpt lat="41.570417080074549" lon="-8.780350349843502">
        <ele>44.01171875</ele>
      </trkpt>
      <trkpt lat="41.570474999025464" lon="-8.780368873849511">
        <ele>43.92578125</ele>
      </trkpt>
      <trkpt lat="41.570533588528633" lon="-8.780388152226806">
        <ele>43.8984375</ele>
      </trkpt>
      <trkpt lat="41.570587735623121" lon="-8.780410196632147">
        <ele>43.8984375</ele>
      </trkpt>
      <trkpt lat="41.570640373975039" lon="-8.780437940731645">
        <ele>43.8515625</ele>
      </trkpt>
      <trkpt lat="41.570699634030461" lon="-8.780456045642495">
        <ele>43.91796875</ele>
      </trkpt>
      <trkpt lat="41.570758474990726" lon="-8.78046358935535">
        <ele>44.06640625</ele>
      </trkpt>
      <trkpt lat="41.570819159969687" lon="-8.780467277392745">
        <ele>44.25390625</ele>
      </trkpt>
      <trkpt lat="41.570879844948649" lon="-8.780467277392745">
        <ele>44.46875</ele>
      </trkpt>
      <trkpt lat="41.570933908224106" lon="-8.780463505536318">
        <ele>44.6875</ele>
      </trkpt>
      <trkpt lat="41.570990150794387" lon="-8.780454788357019">
        <ele>44.94921875</ele>
      </trkpt>
      <trkpt lat="41.57104505226016" lon="-8.780447747558355">
        <ele>45.19140625</ele>
      </trkpt>
      <trkpt lat="41.571108754724264" lon="-8.780442299321294">
        <ele>45.44921875</ele>
      </trkpt>
      <trkpt lat="41.571170864626765" lon="-8.780444143339992">
        <ele>45.65625</ele>
      </trkpt>
      <trkpt lat="41.571233058348298" lon="-8.780456800013781">
        <ele>45.79296875</ele>
      </trkpt>
      <trkpt lat="41.571289887651801" lon="-8.780469037592411">
        <ele>45.91796875</ele>
      </trkpt>
      <trkpt lat="41.57134453766048" lon="-8.780491668730974">
        <ele>46.00390625</ele>
      </trkpt>
      <trkpt lat="41.571396170184016" lon="-8.780517317354679">
        <ele>46.1640625</ele>
      </trkpt>
      <trkpt lat="41.571443444117904" lon="-8.780564423650503">
        <ele>46.2421875</ele>
      </trkpt>
      <trkpt lat="41.57148577272892" lon="-8.780611949041486">
        <ele>46.3046875</ele>
      </trkpt>
      <trkpt lat="41.571530615910888" lon="-8.780658636242151">
        <ele>46.39453125</ele>
      </trkpt>
      <trkpt lat="41.571577806025743" lon="-8.780699204653502">
        <ele>46.52734375</ele>
      </trkpt>
      <trkpt lat="41.571626085788012" lon="-8.780749412253499">
        <ele>46.6484375</ele>
      </trkpt>
      <trkpt lat="41.571671850979328" lon="-8.780789896845818">
        <ele>46.796875</ele>
      </trkpt>
      <trkpt lat="41.571728764101863" lon="-8.780817640945315">
        <ele>47.05078125</ele>
      </trkpt>
      <trkpt lat="41.571783162653446" lon="-8.780837338417768">
        <ele>47.3203125</ele>
      </trkpt>
      <trkpt lat="41.571835801005363" lon="-8.780858460813761">
        <ele>47.58203125</ele>
      </trkpt>
      <trkpt lat="41.571884080767632" lon="-8.780896011739969">
        <ele>47.7890625</ele>
      </trkpt>
      <trkpt lat="41.571911908686161" lon="-8.780930209904909">
        <ele>47.890625</ele>
      </trkpt>
      <trkpt lat="41.572013581171632" lon="-8.781024590134621">
        <ele>48.3515625</ele>
      </trkpt>
      <trkpt lat="41.572056664153934" lon="-8.781084856018424">
        <ele>48.53515625</ele>
      </trkpt>
      <trkpt lat="41.572094969451427" lon="-8.781147133558989">
        <ele>48.6953125</ele>
      </trkpt>
      <trkpt lat="41.572128497064114" lon="-8.781205639243126">
        <ele>48.84375</ele>
      </trkpt>
      <trkpt lat="41.572164874523878" lon="-8.781259870156646">
        <ele>49.02734375</ele>
      </trkpt>
      <trkpt lat="41.572206616401672" lon="-8.781315106898546">
        <ele>49.3046875</ele>
      </trkpt>
      <trkpt lat="41.572252549231052" lon="-8.781366068869829">
        <ele>49.60546875</ele>
      </trkpt>
      <trkpt lat="41.572297224774957" lon="-8.781409068033099">
        <ele>49.88671875</ele>
      </trkpt>
      <trkpt lat="41.572348102927208" lon="-8.781452905386686">
        <ele>50.19140625</ele>
      </trkpt>
      <trkpt lat="41.572399400174618" lon="-8.781478302553296">
        <ele>50.515625</ele>
      </trkpt>
      <trkpt lat="41.572452876716852" lon="-8.781496156007051">
        <ele>50.86328125</ele>
      </trkpt>
      <trkpt lat="41.572511466220021" lon="-8.781511913985014">
        <ele>51.24609375</ele>
      </trkpt>
      <trkpt lat="41.572564775124192" lon="-8.781530354171991">
        <ele>51.5703125</ele>
      </trkpt>
      <trkpt lat="41.572616575285792" lon="-8.781548794358969">
        <ele>51.87109375</ele>
      </trkpt>
      <trkpt lat="41.572672063484788" lon="-8.781569497659802">
        <ele>52.1796875</ele>
      </trkpt>
      <trkpt lat="41.572724618017673" lon="-8.781585674732924">
        <ele>52.47265625</ele>
      </trkpt>
      <trkpt lat="41.572785135358572" lon="-8.781605456024408">
        <ele>52.79296875</ele>
      </trkpt>
      <trkpt lat="41.572842802852392" lon="-8.781626494601369">
        <ele>53.07421875</ele>
      </trkpt>
      <trkpt lat="41.572899967432022" lon="-8.781646778807044">
        <ele>53.34375</ele>
      </trkpt>
      <trkpt lat="41.572955623269081" lon="-8.781668655574322">
        <ele>53.58203125</ele>
      </trkpt>
      <trkpt lat="41.57300884835422" lon="-8.781691454350948">
        <ele>53.77734375</ele>
      </trkpt>
      <trkpt lat="41.573065761476755" lon="-8.781713834032416">
        <ele>53.921875</ele>
      </trkpt>
      <trkpt lat="41.573118399828672" lon="-8.781749373301864">
        <ele>53.94140625</ele>
      </trkpt>
      <trkpt lat="41.573163159191608" lon="-8.781793965026736">
        <ele>53.84375</ele>
      </trkpt>
      <trkpt lat="41.573200961574912" lon="-8.781848950311542">
        <ele>53.6171875</ele>
      </trkpt>
      <trkpt lat="41.573250414803624" lon="-8.781904019415379">
        <ele>53.4140625</ele>
      </trkpt>
      <trkpt lat="41.573300622403622" lon="-8.781953975558281">
        <ele>53.21875</ele>
      </trkpt>
      <trkpt lat="41.573344627395272" lon="-8.781997309997678">
        <ele>53.03125</ele>
      </trkpt>
      <trkpt lat="41.573391146957874" lon="-8.78203259781003">
        <ele>52.890625</ele>
      </trkpt>
      <trkpt lat="41.573441354557872" lon="-8.782057575881481">
        <ele>52.83203125</ele>
      </trkpt>
      <trkpt lat="41.573492735624313" lon="-8.782086493447423">
        <ele>52.7265625</ele>
      </trkpt>
      <trkpt lat="41.573546966537833" lon="-8.782123290002346">
        <ele>52.54296875</ele>
      </trkpt>
      <trkpt lat="41.573593989014626" lon="-8.782166792079806">
        <ele>52.2890625</ele>
      </trkpt>
      <trkpt lat="41.57364109531045" lon="-8.782205684110522">
        <ele>52.10546875</ele>
      </trkpt>
      <trkpt lat="41.573689123615623" lon="-8.782239546999335">
        <ele>51.9453125</ele>
      </trkpt>
      <trkpt lat="41.573741845786572" lon="-8.782270308583975">
        <ele>51.8046875</ele>
      </trkpt>
      <trkpt lat="41.573798423632979" lon="-8.782292436808348">
        <ele>51.7265625</ele>
      </trkpt>
      <trkpt lat="41.573851648718119" lon="-8.782309954985976">
        <ele>51.71484375</ele>
      </trkpt>
      <trkpt lat="41.573909400030971" lon="-8.782333256676793">
        <ele>51.765625</ele>
      </trkpt>
      <trkpt lat="41.573968660086393" lon="-8.782354630529881">
        <ele>51.83203125</ele>
      </trkpt>
      <trkpt lat="41.574023561552167" lon="-8.782375752925873">
        <ele>51.87109375</ele>
      </trkpt>
      <trkpt lat="41.574074774980545" lon="-8.782399389892817">
        <ele>51.87109375</ele>
      </trkpt>
      <trkpt lat="41.574130430817604" lon="-8.78242495469749">
        <ele>51.859375</ele>
      </trkpt>
      <trkpt lat="41.574181895703077" lon="-8.782450016587973">
        <ele>51.83203125</ele>
      </trkpt>
      <trkpt lat="41.574239060282707" lon="-8.782475665211678">
        <ele>51.8125</ele>
      </trkpt>
      <trkpt lat="41.57429832033813" lon="-8.782507013529539">
        <ele>51.734375</ele>
      </trkpt>
      <trkpt lat="41.574358670040965" lon="-8.782531237229705">
        <ele>51.72265625</ele>
      </trkpt>
      <trkpt lat="41.574417762458324" lon="-8.78255981951952">
        <ele>51.65234375</ele>
      </trkpt>
      <trkpt lat="41.574475010856986" lon="-8.782587395980954">
        <ele>51.578125</ele>
      </trkpt>
      <trkpt lat="41.574529241770506" lon="-8.782616565003991">
        <ele>51.46484375</ele>
      </trkpt>
      <trkpt lat="41.574579114094377" lon="-8.782646991312504">
        <ele>51.31640625</ele>
      </trkpt>
      <trkpt lat="41.574632087722421" lon="-8.782677836716175">
        <ele>51.1640625</ele>
      </trkpt>
      <trkpt lat="41.574684055522084" lon="-8.782714046537876">
        <ele>50.9296875</ele>
      </trkpt>
      <trkpt lat="41.574736023321748" lon="-8.782750675454736">
        <ele>50.66015625</ele>
      </trkpt>
      <trkpt lat="41.574789499863982" lon="-8.782787472009659">
        <ele>50.390625</ele>
      </trkpt>
      <trkpt lat="41.574840042740107" lon="-8.782816557213664">
        <ele>50.19921875</ele>
      </trkpt>
      <trkpt lat="41.574892764911056" lon="-8.782838601619005">
        <ele>50.0859375</ele>
      </trkpt>
      <trkpt lat="41.574953952804208" lon="-8.7828613165766">
        <ele>49.98828125</ele>
      </trkpt>
      <trkpt lat="41.57500583678484" lon="-8.7828837800771">
        <ele>49.87109375</ele>
      </trkpt>
      <trkpt lat="41.575068030506372" lon="-8.78290724940598">
        <ele>49.765625</ele>
      </trkpt>
      <trkpt lat="41.575122177600861" lon="-8.782918732613325">
        <ele>49.7734375</ele>
      </trkpt>
      <trkpt lat="41.575176324695349" lon="-8.782928623259068">
        <ele>49.79296875</ele>
      </trkpt>
      <trkpt lat="41.575232483446598" lon="-8.782934071496129">
        <ele>49.87109375</ele>
      </trkpt>
      <trkpt lat="41.575295012444258" lon="-8.782934155315161">
        <ele>50.01953125</ele>
      </trkpt>
      <trkpt lat="41.575349830091" lon="-8.782929796725512">
        <ele>50.19921875</ele>
      </trkpt>
      <trkpt lat="41.575405653566122" lon="-8.782929796725512">
        <ele>50.33203125</ele>
      </trkpt>
      <trkpt lat="41.575464410707355" lon="-8.782933484762907">
        <ele>50.43359375</ele>
      </trkpt>
      <trkpt lat="41.575520066544414" lon="-8.782933568581939">
        <ele>50.54296875</ele>
      </trkpt>
      <trkpt lat="41.57557069323957" lon="-8.782930551096797">
        <ele>50.6328125</ele>
      </trkpt>
      <trkpt lat="41.576351802796125" lon="-8.783213356509805">
        <ele>49.375</ele>
      </trkpt>
      <trkpt lat="41.576749356463552" lon="-8.783324668183923">
        <ele>49.52734375</ele>
      </trkpt>
      <trkpt lat="41.576749356463552" lon="-8.78332600928843">
        <ele>49.515625</ele>
      </trkpt>
      <trkpt lat="41.577135175466537" lon="-8.783491887152195">
        <ele>49.25</ele>
      </trkpt>
      <trkpt lat="41.577186472713947" lon="-8.783508650958538">
        <ele>49.2578125</ele>
      </trkpt>
      <trkpt lat="41.577245062217116" lon="-8.783527845516801">
        <ele>49.28515625</ele>
      </trkpt>
      <trkpt lat="41.577299376949668" lon="-8.783550476655364">
        <ele>49.26953125</ele>
      </trkpt>
      <trkpt lat="41.577351093292236" lon="-8.783569755032659">
        <ele>49.26953125</ele>
      </trkpt>
      <trkpt lat="41.577399540692568" lon="-8.783602360635996">
        <ele>49.16015625</ele>
      </trkpt>
      <trkpt lat="41.577448239549994" lon="-8.783639911562204">
        <ele>49.00390625</ele>
      </trkpt>
      <trkpt lat="41.577489394694567" lon="-8.783682994544506">
        <ele>48.78515625</ele>
      </trkpt>
      <trkpt lat="41.577503643929958" lon="-8.783756671473384">
        <ele>48.25390625</ele>
      </trkpt>
      <trkpt lat="41.577511439099908" lon="-8.783840071409941">
        <ele>47.69140625</ele>
      </trkpt>
      <trkpt lat="41.57751252874732" lon="-8.783914083614945">
        <ele>47.30078125</ele>
      </trkpt>
      <trkpt lat="41.577508002519608" lon="-8.783990191295743">
        <ele>46.890625</ele>
      </trkpt>
      <trkpt lat="41.57750372774899" lon="-8.784063281491399">
        <ele>46.4921875</ele>
      </trkpt>
      <trkpt lat="41.577508002519608" lon="-8.78414005972445">
        <ele>46.09765625</ele>
      </trkpt>
      <trkpt lat="41.577524179592729" lon="-8.784219855442643">
        <ele>45.703125</ele>
      </trkpt>
      <trkpt lat="41.577539686113596" lon="-8.78429101780057">
        <ele>45.3515625</ele>
      </trkpt>
      <trkpt lat="41.577557204291224" lon="-8.784359581768513">
        <ele>45.01171875</ele>
      </trkpt>
      <trkpt lat="41.577573632821441" lon="-8.784433342516422">
        <ele>44.640625</ele>
      </trkpt>
      <trkpt lat="41.577596012502909" lon="-8.78450064919889">
        <ele>44.3125</ele>
      </trkpt>
      <trkpt lat="41.577635407447815" lon="-8.784557646140456">
        <ele>44.0546875</ele>
      </trkpt>
      <trkpt lat="41.577681005001068" lon="-8.784610871225595">
        <ele>43.8203125</ele>
      </trkpt>
      <trkpt lat="41.577726099640131" lon="-8.784656301140785">
        <ele>43.640625</ele>
      </trkpt>
      <trkpt lat="41.577771781012416" lon="-8.784704329445958">
        <ele>43.51953125</ele>
      </trkpt>
      <trkpt lat="41.577821150422096" lon="-8.78474841825664">
        <ele>43.421875</ele>
      </trkpt>
      <trkpt lat="41.577869765460491" lon="-8.784788399934769">
        <ele>43.3359375</ele>
      </trkpt>
      <trkpt lat="41.57792005687952" lon="-8.784820670261979">
        <ele>43.28125</ele>
      </trkpt>
      <trkpt lat="41.577975796535611" lon="-8.784839445725083">
        <ele>43.28125</ele>
      </trkpt>
      <trkpt lat="41.578027931973338" lon="-8.784867106005549">
        <ele>43.2578125</ele>
      </trkpt>
      <trkpt lat="41.578078474849463" lon="-8.784893006086349">
        <ele>43.25</ele>
      </trkpt>
      <trkpt lat="41.57813111320138" lon="-8.784919995814562">
        <ele>43.23046875</ele>
      </trkpt>
      <trkpt lat="41.578184338286519" lon="-8.784943129867315">
        <ele>43.21875</ele>
      </trkpt>
      <trkpt lat="41.578238904476166" lon="-8.784962994977832">
        <ele>43.21875</ele>
      </trkpt>
      <trkpt lat="41.578296152874827" lon="-8.784987051039934">
        <ele>43.19921875</ele>
      </trkpt>
      <trkpt lat="41.578348707407713" lon="-8.785010855644941">
        <ele>43.1640625</ele>
      </trkpt>
      <trkpt lat="41.57840427942574" lon="-8.78503667190671">
        <ele>43.1171875</ele>
      </trkpt>
      <trkpt lat="41.57846144400537" lon="-8.785062320530415">
        <ele>43.0625</ele>
      </trkpt>
      <trkpt lat="41.578520536422729" lon="-8.785083778202534">
        <ele>43.0234375</ele>
      </trkpt>
      <trkpt lat="41.578576443716884" lon="-8.785104984417558">
        <ele>42.9765625</ele>
      </trkpt>
      <trkpt lat="41.578637212514877" lon="-8.785132309421897">
        <ele>42.89453125</ele>
      </trkpt>
      <trkpt lat="41.578694712370634" lon="-8.785153347998857">
        <ele>42.83203125</ele>
      </trkpt>
      <trkpt lat="41.578747853636742" lon="-8.785167429596186">
        <ele>42.80078125</ele>
      </trkpt>
      <trkpt lat="41.578806610777974" lon="-8.785179750993848">
        <ele>42.78125</ele>
      </trkpt>
      <trkpt lat="41.578859919682145" lon="-8.785191820934415">
        <ele>42.765625</ele>
      </trkpt>
      <trkpt lat="41.578914066776633" lon="-8.785204980522394">
        <ele>42.75</ele>
      </trkpt>
      <trkpt lat="41.578986067324877" lon="-8.785216799005866">
        <ele>42.765625</ele>
      </trkpt>
      <trkpt lat="41.57904289662838" lon="-8.785226941108704">
        <ele>42.7734375</ele>
      </trkpt>
      <trkpt lat="41.579097881913185" lon="-8.785233059898019">
        <ele>42.8046875</ele>
      </trkpt>
      <trkpt lat="41.579157058149576" lon="-8.785246638581157">
        <ele>42.79296875</ele>
      </trkpt>
      <trkpt lat="41.579211205244064" lon="-8.78525803796947">
        <ele>42.7890625</ele>
      </trkpt>
      <trkpt lat="41.579270549118519" lon="-8.785273460671306">
        <ele>42.76953125</ele>
      </trkpt>
      <trkpt lat="41.579331317916512" lon="-8.785291146486998">
        <ele>42.734375</ele>
      </trkpt>
      <trkpt lat="41.579388901591301" lon="-8.785307658836246">
        <ele>42.703125</ele>
      </trkpt>
      <trkpt lat="41.579450760036707" lon="-8.78532450646162">
        <ele>42.6796875</ele>
      </trkpt>
      <trkpt lat="41.579508427530527" lon="-8.785340683534741">
        <ele>42.6484375</ele>
      </trkpt>
      <trkpt lat="41.579569447785616" lon="-8.785358620807528">
        <ele>42.6171875</ele>
      </trkpt>
      <trkpt lat="41.579622672870755" lon="-8.785372702404857">
        <ele>42.59375</ele>
      </trkpt>
      <trkpt lat="41.579680591821671" lon="-8.785387622192502">
        <ele>42.54296875</ele>
      </trkpt>
      <trkpt lat="41.579740606248379" lon="-8.785409582778811">
        <ele>42.34375</ele>
      </trkpt>
      <trkpt lat="41.57979927957058" lon="-8.785431794822216">
        <ele>42.140625</ele>
      </trkpt>
      <trkpt lat="41.579852001741529" lon="-8.785446882247925">
        <ele>41.98828125</ele>
      </trkpt>
      <trkpt lat="41.579904472455382" lon="-8.785462556406856">
        <ele>41.828125</ele>
      </trkpt>
      <trkpt lat="41.579908998683095" lon="-8.78546523861587">
        <ele>41.8046875</ele>
      </trkpt>
      <trkpt lat="41.580102536827326" lon="-8.785557104274631">
        <ele>41.15625</ele>
      </trkpt>
      <trkpt lat="41.58015894703567" lon="-8.78557663410902">
        <ele>41.015625</ele>
      </trkpt>
      <trkpt lat="41.580213932320476" lon="-8.785596834495664">
        <ele>40.875</ele>
      </trkpt>
      <trkpt lat="41.580265900120139" lon="-8.785614939406514">
        <ele>40.75</ele>
      </trkpt>
      <trkpt lat="41.580321388319135" lon="-8.785620722919703">
        <ele>40.671875</ele>
      </trkpt>
      <trkpt lat="41.580377295613289" lon="-8.785622650757432">
        <ele>40.609375</ele>
      </trkpt>
      <trkpt lat="41.580434124916792" lon="-8.785617705434561">
        <ele>40.5703125</ele>
      </trkpt>
      <trkpt lat="41.580493049696088" lon="-8.785589206963778">
        <ele>40.61328125</ele>
      </trkpt>
      <trkpt lat="41.580544766038656" lon="-8.785558864474297">
        <ele>40.6015625</ele>
      </trkpt>
      <trkpt lat="41.58059723675251" lon="-8.785534473136067">
        <ele>40.5625</ele>
      </trkpt>
      <trkpt lat="41.580652222037315" lon="-8.785501448437572">
        <ele>40.55078125</ele>
      </trkpt>
      <trkpt lat="41.580704273656011" lon="-8.785477224737406">
        <ele>40.53125</ele>
      </trkpt>
      <trkpt lat="41.580760264769197" lon="-8.785455264151096">
        <ele>40.5703125</ele>
      </trkpt>
      <trkpt lat="41.580814328044653" lon="-8.78543296828866">
        <ele>40.625</ele>
      </trkpt>
      <trkpt lat="41.580868391320109" lon="-8.785414109006524">
        <ele>40.66015625</ele>
      </trkpt>
      <trkpt lat="41.580923711881042" lon="-8.785401871427894">
        <ele>40.640625</ele>
      </trkpt>
      <trkpt lat="41.580961346626282" lon="-8.785403128713369">
        <ele>40.546875</ele>
      </trkpt>
      <trkpt lat="41.581452945247293" lon="-8.785677636042237">
        <ele>37.90625</ele>
      </trkpt>
      <trkpt lat="41.581811690703034" lon="-8.78586245700717">
        <ele>36.58984375</ele>
      </trkpt>
      <trkpt lat="41.581972958520055" lon="-8.785981563851237">
        <ele>35.82421875</ele>
      </trkpt>
      <trkpt lat="41.582030039280653" lon="-8.786009391769767">
        <ele>35.62109375</ele>
      </trkpt>
      <trkpt lat="41.582079660147429" lon="-8.786038812249899">
        <ele>35.41796875</ele>
      </trkpt>
      <trkpt lat="41.582129867747426" lon="-8.786074351519346">
        <ele>35.1875</ele>
      </trkpt>
      <trkpt lat="41.582191307097673" lon="-8.786093965172768">
        <ele>35.17578125</ele>
      </trkpt>
      <trkpt lat="41.582247130572796" lon="-8.786101760342717">
        <ele>35.38671875</ele>
      </trkpt>
      <trkpt lat="41.582302032038569" lon="-8.78610871732235">
        <ele>35.6015625</ele>
      </trkpt>
      <trkpt lat="41.582353245466948" lon="-8.786141155287623">
        <ele>35.6875</ele>
      </trkpt>
      <trkpt lat="41.582394232973456" lon="-8.786198738962412">
        <ele>35.6171875</ele>
      </trkpt>
      <trkpt lat="41.582425078377128" lon="-8.786259507760406">
        <ele>35.4921875</ele>
      </trkpt>
      <trkpt lat="41.582460785284638" lon="-8.786319522187114">
        <ele>35.41015625</ele>
      </trkpt>
      <trkpt lat="41.582502527162433" lon="-8.78637308254838">
        <ele>35.48046875</ele>
      </trkpt>
      <trkpt lat="41.582535970956087" lon="-8.78643368370831">
        <ele>35.49609375</ele>
      </trkpt>
      <trkpt lat="41.582570755854249" lon="-8.786493111401796">
        <ele>35.51953125</ele>
      </trkpt>
      <trkpt lat="41.582603780552745" lon="-8.786550527438521">
        <ele>35.5390625</ele>
      </trkpt>
      <trkpt lat="41.582635464146733" lon="-8.786609284579754">
        <ele>35.55078125</ele>
      </trkpt>
      <trkpt lat="41.582670668140054" lon="-8.786676591262221">
        <ele>35.55859375</ele>
      </trkpt>
      <trkpt lat="41.582702854648232" lon="-8.786740209907293">
        <ele>35.5625</ele>
      </trkpt>
      <trkpt lat="41.582727916538715" lon="-8.786804415285587">
        <ele>35.52734375</ele>
      </trkpt>
      <trkpt lat="41.58276085741818" lon="-8.786869207397103">
        <ele>35.53125</ele>
      </trkpt>
      <trkpt lat="41.582798827439547" lon="-8.786928048357368">
        <ele>35.5703125</ele>
      </trkpt>
      <trkpt lat="41.58284836448729" lon="-8.786956463009119">
        <ele>35.7421875</ele>
      </trkpt>
      <trkpt lat="41.582904607057571" lon="-8.786950428038836">
        <ele>36.02734375</ele>
      </trkpt>
      <trkpt lat="41.582951713353395" lon="-8.78691011108458">
        <ele>36.34765625</ele>
      </trkpt>
      <trkpt lat="41.582995215430856" lon="-8.786862837150693">
        <ele>36.671875</ele>
      </trkpt>
      <trkpt lat="41.58303989097476" lon="-8.786819418892264">
        <ele>36.85546875</ele>
      </trkpt>
      <trkpt lat="41.583093116059899" lon="-8.786786142736673">
        <ele>37.03125</ele>
      </trkpt>
      <trkpt lat="41.583146257326007" lon="-8.786755632609129">
        <ele>37.19921875</ele>
      </trkpt>
      <trkpt lat="41.583204595372081" lon="-8.78673518076539">
        <ele>37.359375</ele>
      </trkpt>
      <trkpt lat="41.583263771608472" lon="-8.786713471636176">
        <ele>37.5234375</ele>
      </trkpt>
      <trkpt lat="41.583319427445531" lon="-8.78668824210763">
        <ele>37.69921875</ele>
      </trkpt>
      <trkpt lat="41.583373406901956" lon="-8.786656390875578">
        <ele>37.89453125</ele>
      </trkpt>
      <trkpt lat="41.583429398015141" lon="-8.786635603755713">
        <ele>38.0625</ele>
      </trkpt>
      <trkpt lat="41.583482539281249" lon="-8.786623701453209">
        <ele>38.203125</ele>
      </trkpt>
      <trkpt lat="41.583549259230494" lon="-8.786618504673243">
        <ele>38.3515625</ele>
      </trkpt>
      <trkpt lat="41.583610447123647" lon="-8.786618588492274">
        <ele>38.46875</ele>
      </trkpt>
      <trkpt lat="41.583664761856198" lon="-8.786622108891606">
        <ele>38.5625</ele>
      </trkpt>
      <trkpt lat="41.583723938092589" lon="-8.786623869091272">
        <ele>38.67578125</ele>
      </trkpt>
      <trkpt lat="41.58377917483449" lon="-8.786623869091272">
        <ele>38.78125</ele>
      </trkpt>
      <trkpt lat="41.583847738802433" lon="-8.786618672311306">
        <ele>38.84765625</ele>
      </trkpt>
      <trkpt lat="41.583907585591078" lon="-8.786610206589103">
        <ele>38.7109375</ele>
      </trkpt>
      <trkpt lat="41.583967264741659" lon="-8.786599980667233">
        <ele>38.58203125</ele>
      </trkpt>
      <trkpt lat="41.58402543514967" lon="-8.78658514469862">
        <ele>38.47265625</ele>
      </trkpt>
      <trkpt lat="41.584079414606094" lon="-8.786562765017152">
        <ele>38.4140625</ele>
      </trkpt>
      <trkpt lat="41.584122497588396" lon="-8.78651867620647">
        <ele>38.47265625</ele>
      </trkpt>
      <trkpt lat="41.584163401275873" lon="-8.786472491919994">
        <ele>38.55078125</ele>
      </trkpt>
      <trkpt lat="41.584199024364352" lon="-8.786420021206141">
        <ele>38.671875</ele>
      </trkpt>
      <trkpt lat="41.584225762635469" lon="-8.786350786685944">
        <ele>38.89453125</ele>
      </trkpt>
      <trkpt lat="41.58424973487854" lon="-8.786286497488618">
        <ele>39.10546875</ele>
      </trkpt>
      <trkpt lat="41.584274461492896" lon="-8.786217933520675">
        <ele>39.3359375</ele>
      </trkpt>
      <trkpt lat="41.584300026297569" lon="-8.786148363724351">
        <ele>39.578125</ele>
      </trkpt>
      <trkpt lat="41.584320310503244" lon="-8.786078961566091">
        <ele>39.83203125</ele>
      </trkpt>
      <trkpt lat="41.584345204755664" lon="-8.786007883027196">
        <ele>40.08984375</ele>
      </trkpt>
      <trkpt lat="41.584374206140637" lon="-8.785948120057583">
        <ele>40.29296875</ele>
      </trkpt>
      <trkpt lat="41.584419049322605" lon="-8.785898583009839">
        <ele>40.4296875</ele>
      </trkpt>
      <trkpt lat="41.58446179702878" lon="-8.785846531391144">
        <ele>40.58984375</ele>
      </trkpt>
      <trkpt lat="41.584499096497893" lon="-8.785793641582131">
        <ele>40.765625</ele>
      </trkpt>
      <trkpt lat="41.584542011842132" lon="-8.785745278000832">
        <ele>40.91796875</ele>
      </trkpt>
      <trkpt lat="41.584589537233114" lon="-8.785706134513021">
        <ele>41.02734375</ele>
      </trkpt>
      <trkpt lat="41.584641421213746" lon="-8.785667326301336">
        <ele>41.1328125</ele>
      </trkpt>
      <trkpt lat="41.584690203890204" lon="-8.785636648535728">
        <ele>41.1171875</ele>
      </trkpt>
      <trkpt lat="41.584739070385695" lon="-8.785606306046247">
        <ele>41.02734375</ele>
      </trkpt>
      <trkpt lat="41.584793217480183" lon="-8.78557613119483">
        <ele>40.9140625</ele>
      </trkpt>
      <trkpt lat="41.584855075925589" lon="-8.78554972819984">
        <ele>40.7421875</ele>
      </trkpt>
      <trkpt lat="41.584906205534935" lon="-8.785527097061276">
        <ele>40.60546875</ele>
      </trkpt>
      <trkpt lat="41.584958005696535" lon="-8.785502035170794">
        <ele>40.4765625</ele>
      </trkpt>
      <trkpt lat="41.58501491881907" lon="-8.785475380718708">
        <ele>40.31640625</ele>
      </trkpt>
      <trkpt lat="41.58506914973259" lon="-8.785443278029561">
        <ele>40.11328125</ele>
      </trkpt>
      <trkpt lat="41.585126481950283" lon="-8.785408576950431">
        <ele>39.90625</ele>
      </trkpt>
      <trkpt lat="41.585176018998027" lon="-8.785377228632569">
        <ele>39.734375</ele>
      </trkpt>
      <trkpt lat="41.585225556045771" lon="-8.785342024639249">
        <ele>39.57421875</ele>
      </trkpt>
      <trkpt lat="41.58527048304677" lon="-8.785302964970469">
        <ele>39.44921875</ele>
      </trkpt>
      <trkpt lat="41.585314068943262" lon="-8.785258792340755">
        <ele>39.34765625</ele>
      </trkpt>
      <trkpt lat="41.585357654839754" lon="-8.785211518406868">
        <ele>39.25390625</ele>
      </trkpt>
      <trkpt lat="41.585409203544259" lon="-8.785161478444934">
        <ele>39.140625</ele>
      </trkpt>
      <trkpt lat="41.585455639287829" lon="-8.785115713253617">
        <ele>39.046875</ele>
      </trkpt>
      <trkpt lat="41.585500901564956" lon="-8.785062404349446">
        <ele>38.9765625</ele>
      </trkpt>
      <trkpt lat="41.585552031174302" lon="-8.785018818452954">
        <ele>38.8359375</ele>
      </trkpt>
      <trkpt lat="41.585591342300177" lon="-8.784967521205544">
        <ele>38.7734375</ele>
      </trkpt>
      <trkpt lat="41.585627384483814" lon="-8.784911781549454">
        <ele>38.734375</ele>
      </trkpt>
      <trkpt lat="41.585675915703177" lon="-8.784874901175499">
        <ele>38.58984375</ele>
      </trkpt>
      <trkpt lat="41.585725117474794" lon="-8.784842463210225">
        <ele>38.4296875</ele>
      </trkpt>
      <trkpt lat="41.585736097767949" lon="-8.784826118499041">
        <ele>38.41796875</ele>
      </trkpt>
      <trkpt lat="41.586149325594306" lon="-8.784688571467996">
        <ele>36.76171875</ele>
      </trkpt>
      <trkpt lat="41.586208837106824" lon="-8.784657139331102">
        <ele>36.55078125</ele>
      </trkpt>
      <trkpt lat="41.586259631440043" lon="-8.784629059955478">
        <ele>36.375</ele>
      </trkpt>
      <trkpt lat="41.586313527077436" lon="-8.784610703587532">
        <ele>36.16015625</ele>
      </trkpt>
      <trkpt lat="41.586375134065747" lon="-8.784590419381857">
        <ele>35.96875</ele>
      </trkpt>
      <trkpt lat="41.58644512295723" lon="-8.784557310864329">
        <ele>35.796875</ele>
      </trkpt>
      <trkpt lat="41.586497593671083" lon="-8.784532668069005">
        <ele>35.66796875</ele>
      </trkpt>
      <trkpt lat="41.58655266277492" lon="-8.784516407176852">
        <ele>35.5078125</ele>
      </trkpt>
      <trkpt lat="41.586618293076754" lon="-8.784501235932112">
        <ele>35.30859375</ele>
      </trkpt>
      <trkpt lat="41.586672440171242" lon="-8.78448891453445">
        <ele>35.140625</ele>
      </trkpt>
      <trkpt lat="41.586726251989603" lon="-8.784468043595552">
        <ele>35</ele>
      </trkpt>
      <trkpt lat="41.58678425475955" lon="-8.784451447427273">
        <ele>34.828125</ele>
      </trkpt>
      <trkpt lat="41.586839659139514" lon="-8.784435102716088">
        <ele>34.66796875</ele>
      </trkpt>
      <trkpt lat="41.586897578090429" lon="-8.784413812682033">
        <ele>34.51171875</ele>
      </trkpt>
      <trkpt lat="41.586951809003949" lon="-8.784395037218928">
        <ele>34.359375</ele>
      </trkpt>
      <trkpt lat="41.587005704641342" lon="-8.784378273412585">
        <ele>34.20703125</ele>
      </trkpt>
      <trkpt lat="41.587059767916799" lon="-8.784362180158496">
        <ele>34.05078125</ele>
      </trkpt>
      <trkpt lat="41.58711751922965" lon="-8.784346338361502">
        <ele>33.8828125</ele>
      </trkpt>
      <trkpt lat="41.58717317506671" lon="-8.784334603697062">
        <ele>33.73828125</ele>
      </trkpt>
      <trkpt lat="41.5872289147228" lon="-8.784318845719099">
        <ele>33.70703125</ele>
      </trkpt>
      <trkpt lat="41.587284570559859" lon="-8.784301243722439">
        <ele>33.68359375</ele>
      </trkpt>
      <trkpt lat="41.587338466197252" lon="-8.784285485744476">
        <ele>33.65625</ele>
      </trkpt>
      <trkpt lat="41.587398145347834" lon="-8.784268470481038">
        <ele>33.625</ele>
      </trkpt>
      <trkpt lat="41.587451370432973" lon="-8.784254807978868">
        <ele>33.59375</ele>
      </trkpt>
      <trkpt lat="41.587503757327795" lon="-8.784236116334796">
        <ele>33.578125</ele>
      </trkpt>
      <trkpt lat="41.587548349052668" lon="-8.784198230132461">
        <ele>33.61328125</ele>
      </trkpt>
      <trkpt lat="41.587595036253333" lon="-8.784164115786552">
        <ele>33.640625</ele>
      </trkpt>
      <trkpt lat="41.587644405663013" lon="-8.784129666164517">
        <ele>33.6640625</ele>
      </trkpt>
      <trkpt lat="41.587696457281709" lon="-8.784082727506757">
        <ele>33.71484375</ele>
      </trkpt>
      <trkpt lat="41.587750520557165" lon="-8.784034866839647">
        <ele>33.765625</ele>
      </trkpt>
      <trkpt lat="41.587799554690719" lon="-8.78399295732379">
        <ele>33.8046875</ele>
      </trkpt>
      <trkpt lat="41.58780693076551" lon="-8.783987341448665">
        <ele>33.80859375</ele>
      </trkpt>
      <trkpt lat="41.588136926293373" lon="-8.783849040046334">
        <ele>33.74609375</ele>
      </trkpt>
      <trkpt lat="41.588191157206893" lon="-8.78385666757822">
        <ele>33.6640625</ele>
      </trkpt>
      <trkpt lat="41.588245052844286" lon="-8.783847447484732">
        <ele>33.62109375</ele>
      </trkpt>
      <trkpt lat="41.588298445567489" lon="-8.783826995640993">
        <ele>33.60546875</ele>
      </trkpt>
      <trkpt lat="41.588351083919406" lon="-8.783804196864367">
        <ele>33.6015625</ele>
      </trkpt>
      <trkpt lat="41.588401459157467" lon="-8.783768573775887">
        <ele>33.6484375</ele>
      </trkpt>
      <trkpt lat="41.588454097509384" lon="-8.783718617632985">
        <ele>33.7421875</ele>
      </trkpt>
      <trkpt lat="41.588502964004874" lon="-8.783675199374557">
        <ele>33.828125</ele>
      </trkpt>
      <trkpt lat="41.588555602356791" lon="-8.783644018694758">
        <ele>33.875</ele>
      </trkpt>
      <trkpt lat="41.588612180203199" lon="-8.783631110563874">
        <ele>33.86328125</ele>
      </trkpt>
      <trkpt lat="41.588666243478656" lon="-8.783635972067714">
        <ele>33.796875</ele>
      </trkpt>
      <trkpt lat="41.588721731677651" lon="-8.783647622913122">
        <ele>33.703125</ele>
      </trkpt>
      <trkpt lat="41.588777471333742" lon="-8.783659106120467">
        <ele>33.609375</ele>
      </trkpt>
      <trkpt lat="41.588837569579482" lon="-8.783673858270049">
        <ele>33.51171875</ele>
      </trkpt>
      <trkpt lat="41.588891800493002" lon="-8.783686850219965">
        <ele>33.484375</ele>
      </trkpt>
      <trkpt lat="41.588946785777807" lon="-8.78370369784534">
        <ele>33.4375</ele>
      </trkpt>
      <trkpt lat="41.589010404422879" lon="-8.783708559349179">
        <ele>33.4375</ele>
      </trkpt>
      <trkpt lat="41.589071005582809" lon="-8.783708559349179">
        <ele>33.45703125</ele>
      </trkpt>
      <trkpt lat="41.589136635884643" lon="-8.78370663151145">
        <ele>33.484375</ele>
      </trkpt>
      <trkpt lat="41.589193549007177" lon="-8.783704619854689">
        <ele>33.51171875</ele>
      </trkpt>
      <trkpt lat="41.589260101318359" lon="-8.783698501065373">
        <ele>33.5625</ele>
      </trkpt>
      <trkpt lat="41.589324725791812" lon="-8.783690873533487">
        <ele>33.625</ele>
      </trkpt>
      <trkpt lat="41.589381974190474" lon="-8.783681988716125">
        <ele>33.69140625</ele>
      </trkpt>
      <trkpt lat="41.589444251731038" lon="-8.783669332042336">
        <ele>33.78125</ele>
      </trkpt>
      <trkpt lat="41.589508792385459" lon="-8.783659609034657">
        <ele>33.86328125</ele>
      </trkpt>
      <trkpt lat="41.58956746570766" lon="-8.783649299293756">
        <ele>33.94921875</ele>
      </trkpt>
      <trkpt lat="41.589635945856571" lon="-8.783638654276729">
        <ele>34.046875</ele>
      </trkpt>
      <trkpt lat="41.58970040269196" lon="-8.78363236784935">
        <ele>34.21484375</ele>
      </trkpt>
      <trkpt lat="41.589757231995463" lon="-8.78362650051713">
        <ele>34.41796875</ele>
      </trkpt>
      <trkpt lat="41.589823281392455" lon="-8.783618621528149">
        <ele>34.6640625</ele>
      </trkpt>
      <trkpt lat="41.589885307475924" lon="-8.78360940143466">
        <ele>34.90625</ele>
      </trkpt>
      <trkpt lat="41.589944399893284" lon="-8.783602360635996">
        <ele>35.1328125</ele>
      </trkpt>
      <trkpt lat="41.590010114014149" lon="-8.783590877428651">
        <ele>35.41015625</ele>
      </trkpt>
      <trkpt lat="41.590066943317652" lon="-8.783578807488084">
        <ele>35.671875</ele>
      </trkpt>
      <trkpt lat="41.590125700458884" lon="-8.783564642071724">
        <ele>35.95703125</ele>
      </trkpt>
      <trkpt lat="41.590180769562721" lon="-8.783556763082743">
        <ele>36.1875</ele>
      </trkpt>
      <trkpt lat="41.590237598866224" lon="-8.783546788617969">
        <ele>36.44140625</ele>
      </trkpt>
      <trkpt lat="41.590298367664218" lon="-8.783531365916133">
        <ele>36.7578125</ele>
      </trkpt>
      <trkpt lat="41.59035955555737" lon="-8.783521978184581">
        <ele>37.02734375</ele>
      </trkpt>
      <trkpt lat="41.590416384860873" lon="-8.783512003719807">
        <ele>37.296875</ele>
      </trkpt>
      <trkpt lat="41.590475142002106" lon="-8.783497754484415">
        <ele>37.60546875</ele>
      </trkpt>
      <trkpt lat="41.590537670999765" lon="-8.783484175801277">
        <ele>37.875</ele>
      </trkpt>
      <trkpt lat="41.590591734275222" lon="-8.78347110003233">
        <ele>38.10546875</ele>
      </trkpt>
      <trkpt lat="41.590653592720628" lon="-8.783461879938841">
        <ele>38.32421875</ele>
      </trkpt>
      <trkpt lat="41.59070941619575" lon="-8.783456431701779">
        <ele>38.49609375</ele>
      </trkpt>
      <trkpt lat="41.590767754241824" lon="-8.783454755321145">
        <ele>38.640625</ele>
      </trkpt>
      <trkpt lat="41.590827349573374" lon="-8.783454755321145">
        <ele>38.7734375</ele>
      </trkpt>
      <trkpt lat="41.590885352343321" lon="-8.783452827483416">
        <ele>38.921875</ele>
      </trkpt>
      <trkpt lat="41.590941175818443" lon="-8.783448385074735">
        <ele>39.09375</ele>
      </trkpt>
      <trkpt lat="41.590996999293566" lon="-8.783448385074735">
        <ele>39.21875</ele>
      </trkpt>
      <trkpt lat="41.59105097874999" lon="-8.783444194123149">
        <ele>39.3828125</ele>
      </trkpt>
      <trkpt lat="41.591117028146982" lon="-8.783444194123149">
        <ele>39.53125</ele>
      </trkpt>
      <trkpt lat="41.591174276545644" lon="-8.783444194123149">
        <ele>39.66015625</ele>
      </trkpt>
      <trkpt lat="41.591229680925608" lon="-8.783444194123149">
        <ele>39.7890625</ele>
      </trkpt>
      <trkpt lat="41.59129036590457" lon="-8.783444194123149">
        <ele>39.92578125</ele>
      </trkpt>
      <trkpt lat="41.591351218521595" lon="-8.783444194123149">
        <ele>40.0234375</ele>
      </trkpt>
      <trkpt lat="41.591408718377352" lon="-8.783444194123149">
        <ele>40.05859375</ele>
      </trkpt>
      <trkpt lat="41.591472420841455" lon="-8.783451905474067">
        <ele>40.01953125</ele>
      </trkpt>
      <trkpt lat="41.591533357277513" lon="-8.783461712300777">
        <ele>39.9609375</ele>
      </trkpt>
      <trkpt lat="41.591590773314238" lon="-8.783471435308456">
        <ele>39.8984375</ele>
      </trkpt>
      <trkpt lat="41.591651625931263" lon="-8.783483421429992">
        <ele>39.81640625</ele>
      </trkpt>
      <trkpt lat="41.591710802167654" lon="-8.783488785848022">
        <ele>39.8046875</ele>
      </trkpt>
      <trkpt lat="41.591769391670823" lon="-8.783495994284749">
        <ele>39.7734375</ele>
      </trkpt>
      <trkpt lat="41.591822952032089" lon="-8.783505884930491">
        <ele>39.71484375</ele>
      </trkpt>
      <trkpt lat="41.591898892074823" lon="-8.783522397279739">
        <ele>39.60546875</ele>
      </trkpt>
      <trkpt lat="41.591956559568644" lon="-8.783529438078403">
        <ele>39.58203125</ele>
      </trkpt>
      <trkpt lat="41.592016071081161" lon="-8.783536562696099">
        <ele>39.55859375</ele>
      </trkpt>
      <trkpt lat="41.59207021817565" lon="-8.783540250733495">
        <ele>39.56640625</ele>
      </trkpt>
      <trkpt lat="41.592129394412041" lon="-8.783542178571224">
        <ele>39.59375</ele>
      </trkpt>
      <trkpt lat="41.592186978086829" lon="-8.783544022589922">
        <ele>39.58984375</ele>
      </trkpt>
      <trkpt lat="41.592244226485491" lon="-8.783547878265381">
        <ele>39.53125</ele>
      </trkpt>
      <trkpt lat="41.592305582016706" lon="-8.783551482483745">
        <ele>39.47265625</ele>
      </trkpt>
      <trkpt lat="41.592363836243749" lon="-8.783554919064045">
        <ele>39.41796875</ele>
      </trkpt>
      <trkpt lat="41.592426281422377" lon="-8.783558774739504">
        <ele>39.359375</ele>
      </trkpt>
      <trkpt lat="41.592485457658768" lon="-8.783562462776899">
        <ele>39.3046875</ele>
      </trkpt>
      <trkpt lat="41.59254614263773" lon="-8.783564222976565">
        <ele>39.265625</ele>
      </trkpt>
      <trkpt lat="41.592603726312518" lon="-8.783564222976565">
        <ele>39.24609375</ele>
      </trkpt>
      <trkpt lat="41.592656867578626" lon="-8.783556679263711">
        <ele>39.29296875</ele>
      </trkpt>
      <trkpt lat="41.59271327778697" lon="-8.783553577959538">
        <ele>39.30078125</ele>
      </trkpt>
      <trkpt lat="41.592750828713179" lon="-8.783550225198269">
        <ele>39.31640625</ele>
      </trkpt>
      <trkpt lat="41.593059115111828" lon="-8.783552404493093">
        <ele>39.1796875</ele>
      </trkpt>
      <trkpt lat="41.593112340196967" lon="-8.783545950427651">
        <ele>39.2109375</ele>
      </trkpt>
      <trkpt lat="41.59316967241466" lon="-8.783538322895765">
        <ele>39.25390625</ele>
      </trkpt>
      <trkpt lat="41.593224406242371" lon="-8.783522816374898">
        <ele>39.35546875</ele>
      </trkpt>
      <trkpt lat="41.593282325193286" lon="-8.783503035083413">
        <ele>39.48828125</ele>
      </trkpt>
      <trkpt lat="41.593335550278425" lon="-8.783468836918473">
        <ele>39.734375</ele>
      </trkpt>
      <trkpt lat="41.593385422602296" lon="-8.783440506085753">
        <ele>39.93359375</ele>
      </trkpt>
      <trkpt lat="41.593435797840357" lon="-8.783406810835004">
        <ele>40.16796875</ele>
      </trkpt>
      <trkpt lat="41.593497069552541" lon="-8.783369427546859">
        <ele>40.41796875</ele>
      </trkpt>
      <trkpt lat="41.593541828915477" lon="-8.783328523859382">
        <ele>40.69921875</ele>
      </trkpt>
      <trkpt lat="41.593592455610633" lon="-8.783289799466729">
        <ele>40.95703125</ele>
      </trkpt>
      <trkpt lat="41.59361039288342" lon="-8.783277478069067">
        <ele>41.03515625</ele>
      </trkpt>
      <trkpt lat="41.594085479155183" lon="-8.782963743433356">
        <ele>42.8046875</ele>
      </trkpt>
      <trkpt lat="41.594413127750158" lon="-8.782772971317172">
        <ele>43.44140625</ele>
      </trkpt>
      <trkpt lat="41.594468196853995" lon="-8.78275872208178">
        <ele>43.41796875</ele>
      </trkpt>
      <trkpt lat="41.594532821327448" lon="-8.782742712646723">
        <ele>43.3828125</ele>
      </trkpt>
      <trkpt lat="41.594595015048981" lon="-8.782724523916841">
        <ele>43.35546875</ele>
      </trkpt>
      <trkpt lat="41.59464874304831" lon="-8.782709436491132">
        <ele>43.32421875</ele>
      </trkpt>
      <trkpt lat="41.594705823808908" lon="-8.78268982283771">
        <ele>43.3828125</ele>
      </trkpt>
      <trkpt lat="41.594758965075016" lon="-8.782670879736543">
        <ele>43.44921875</ele>
      </trkpt>
      <trkpt lat="41.594816967844963" lon="-8.782637352123857">
        <ele>43.57421875</ele>
      </trkpt>
      <trkpt lat="41.59487103112042" lon="-8.78261111676693">
        <ele>43.66796875</ele>
      </trkpt>
      <trkpt lat="41.59492677077651" lon="-8.782585887238383">
        <ele>43.74609375</ele>
      </trkpt>
      <trkpt lat="41.59498150460422" lon="-8.782566441223025">
        <ele>43.80078125</ele>
      </trkpt>
      <trkpt lat="41.595046631991863" lon="-8.782545402646065">
        <ele>43.8515625</ele>
      </trkpt>
      <trkpt lat="41.59510362893343" lon="-8.782535176724195">
        <ele>43.859375</ele>
      </trkpt>
      <trkpt lat="41.595161128789186" lon="-8.782526459544897">
        <ele>43.85546875</ele>
      </trkpt>
      <trkpt lat="41.595219550654292" lon="-8.782524783164263">
        <ele>43.82421875</ele>
      </trkpt>
      <trkpt lat="41.595274787396193" lon="-8.782528219744563">
        <ele>43.7734375</ele>
      </trkpt>
      <trkpt lat="41.595328850671649" lon="-8.782540960237384">
        <ele>43.69140625</ele>
      </trkpt>
      <trkpt lat="41.595374532043934" lon="-8.782586473971605">
        <ele>43.48828125</ele>
      </trkpt>
      <trkpt lat="41.59541049040854" lon="-8.782648500055075">
        <ele>43.23828125</ele>
      </trkpt>
      <trkpt lat="41.595445023849607" lon="-8.782710190862417">
        <ele>42.99609375</ele>
      </trkpt>
      <trkpt lat="41.595479473471642" lon="-8.782780347391963">
        <ele>42.73046875</ele>
      </trkpt>
      <trkpt lat="41.595509396865964" lon="-8.782842792570591">
        <ele>42.51953125</ele>
      </trkpt>
      <trkpt lat="41.595542086288333" lon="-8.782908422872424">
        <ele>42.32421875</ele>
      </trkpt>
      <trkpt lat="41.595576368272305" lon="-8.782968940213323">
        <ele>42.1484375</ele>
      </trkpt>
      <trkpt lat="41.595613416284323" lon="-8.783039096742868">
        <ele>41.93359375</ele>
      </trkpt>
      <trkpt lat="41.595658930018544" lon="-8.783095171675086">
        <ele>41.76953125</ele>
      </trkpt>
      <trkpt lat="41.595708215609193" lon="-8.783141439780593">
        <ele>41.63671875</ele>
      </trkpt>
      <trkpt lat="41.595760015770793" lon="-8.783189300447702">
        <ele>41.49609375</ele>
      </trkpt>
      <trkpt lat="41.595812486484647" lon="-8.78323364071548">
        <ele>41.36328125</ele>
      </trkpt>
      <trkpt lat="41.595864202827215" lon="-8.783274963498116">
        <ele>41.234375</ele>
      </trkpt>
      <trkpt lat="41.595915667712688" lon="-8.783312682062387">
        <ele>41.1171875</ele>
      </trkpt>
      <trkpt lat="41.595973251387477" lon="-8.78335140645504">
        <ele>40.9921875</ele>
      </trkpt>
      <trkpt lat="41.596021614968777" lon="-8.783383592963219">
        <ele>40.8828125</ele>
      </trkpt>
      <trkpt lat="41.59607307985425" lon="-8.783417958766222">
        <ele>40.76171875</ele>
      </trkpt>
      <trkpt lat="41.596122700721025" lon="-8.78345450386405">
        <ele>40.625</ele>
      </trkpt>
      <trkpt lat="41.596168214455247" lon="-8.783493395894766">
        <ele>40.47265625</ele>
      </trkpt>
      <trkpt lat="41.596224205568433" lon="-8.783536814153194">
        <ele>40.296875</ele>
      </trkpt>
      <trkpt lat="41.596276676282287" lon="-8.783577382564545">
        <ele>40.125</ele>
      </trkpt>
      <trkpt lat="41.596336020156741" lon="-8.783605629578233">
        <ele>39.97265625</ele>
      </trkpt>
      <trkpt lat="41.59639067016542" lon="-8.783610826358199">
        <ele>39.81640625</ele>
      </trkpt>
      <trkpt lat="41.596451103687286" lon="-8.783592134714127">
        <ele>39.76171875</ele>
      </trkpt>
      <trkpt lat="41.596513548865914" lon="-8.783558942377567">
        <ele>39.76953125</ele>
      </trkpt>
      <trkpt lat="41.596569372341037" lon="-8.783542681485415">
        <ele>39.71484375</ele>
      </trkpt>
      <trkpt lat="41.596627794206142" lon="-8.783525666221976">
        <ele>39.65625</ele>
      </trkpt>
      <trkpt lat="41.596685461699963" lon="-8.783501107245684">
        <ele>39.6328125</ele>
      </trkpt>
      <trkpt lat="41.596742542460561" lon="-8.78347210586071">
        <ele>39.63671875</ele>
      </trkpt>
      <trkpt lat="41.596790989860892" lon="-8.783441092818975">
        <ele>39.66796875</ele>
      </trkpt>
      <trkpt lat="41.596838850528002" lon="-8.783391723409295">
        <ele>39.79296875</ele>
      </trkpt>
      <trkpt lat="41.596881095319986" lon="-8.783347215503454">
        <ele>39.90234375</ele>
      </trkpt>
      <trkpt lat="41.596928117796779" lon="-8.783298349007964">
        <ele>40.02734375</ele>
      </trkpt>
      <trkpt lat="41.596983186900616" lon="-8.78324537537992">
        <ele>40.1484375</ele>
      </trkpt>
      <trkpt lat="41.597029035910964" lon="-8.783192988485098">
        <ele>40.2890625</ele>
      </trkpt>
      <trkpt lat="41.597073543816805" lon="-8.783152420073748">
        <ele>40.37890625</ele>
      </trkpt>
      <trkpt lat="41.597121739760041" lon="-8.783109169453382">
        <ele>40.46875</ele>
      </trkpt>
      <trkpt lat="41.597170606255531" lon="-8.78307874314487">
        <ele>40.515625</ele>
      </trkpt>
      <trkpt lat="41.597223412245512" lon="-8.783055273815989">
        <ele>40.56640625</ele>
      </trkpt>
      <trkpt lat="41.59728049300611" lon="-8.783038342371583">
        <ele>40.578125</ele>
      </trkpt>
      <trkpt lat="41.597337406128645" lon="-8.783021410927176">
        <ele>40.58984375</ele>
      </trkpt>
      <trkpt lat="41.597392642870545" lon="-8.783006742596626">
        <ele>40.59375</ele>
      </trkpt>
      <trkpt lat="41.597449304535985" lon="-8.783001713454723">
        <ele>40.55078125</ele>
      </trkpt>
      <trkpt lat="41.597503451630473" lon="-8.783001629635692">
        <ele>40.48828125</ele>
      </trkpt>
      <trkpt lat="41.597561370581388" lon="-8.783006658777595">
        <ele>40.39453125</ele>
      </trkpt>
      <trkpt lat="41.597618283703923" lon="-8.783013615757227">
        <ele>40.29296875</ele>
      </trkpt>
      <trkpt lat="41.597673604264855" lon="-8.783033648505807">
        <ele>40.12890625</ele>
      </trkpt>
      <trkpt lat="41.597718866541982" lon="-8.783080251887441">
        <ele>39.8515625</ele>
      </trkpt>
      <trkpt lat="41.597761865705252" lon="-8.783132722601295">
        <ele>39.546875</ele>
      </trkpt>
      <trkpt lat="41.597806373611093" lon="-8.783178990706801">
        <ele>39.2734375</ele>
      </trkpt>
      <trkpt lat="41.597855323925614" lon="-8.783206818625331">
        <ele>39.078125</ele>
      </trkpt>
      <trkpt lat="41.5979078784585" lon="-8.783228946849704">
        <ele>38.91015625</ele>
      </trkpt>
      <trkpt lat="41.597961941733956" lon="-8.783235903829336">
        <ele>38.8125</ele>
      </trkpt>
      <trkpt lat="41.598018519580364" lon="-8.783230874687433">
        <ele>38.8046875</ele>
      </trkpt>
      <trkpt lat="41.598076187074184" lon="-8.783216709271073">
        <ele>38.87109375</ele>
      </trkpt>
      <trkpt lat="41.598130334168673" lon="-8.783200616016984">
        <ele>38.94921875</ele>
      </trkpt>
      <trkpt lat="41.598184900358319" lon="-8.783190306276083">
        <ele>39</ele>
      </trkpt>
      <trkpt lat="41.598240304738283" lon="-8.783185360953212">
        <ele>39.0234375</ele>
      </trkpt>
      <trkpt lat="41.598295960575342" lon="-8.783183684572577">
        <ele>39.03125</ele>
      </trkpt>
      <trkpt lat="41.598353963345289" lon="-8.783183936029673">
        <ele>39.03125</ele>
      </trkpt>
      <trkpt lat="41.598408110439777" lon="-8.783183936029673">
        <ele>39.03125</ele>
      </trkpt>
      <trkpt lat="41.598462089896202" lon="-8.783183852210641">
        <ele>39.03125</ele>
      </trkpt>
      <trkpt lat="41.598523277789354" lon="-8.783183852210641">
        <ele>39.03125</ele>
      </trkpt>
      <trkpt lat="41.598577424883842" lon="-8.783176727592945">
        <ele>39.0625</ele>
      </trkpt>
      <trkpt lat="41.598631488159299" lon="-8.783158371224999">
        <ele>39.15234375</ele>
      </trkpt>
      <trkpt lat="41.598665015771985" lon="-8.783144792541862">
        <ele>39.21875</ele>
      </trkpt>
      <trkpt lat="41.599123673513532" lon="-8.782873554155231">
        <ele>40.56640625</ele>
      </trkpt>
      <trkpt lat="41.599139180034399" lon="-8.782872296869755">
        <ele>40.578125</ele>
      </trkpt>
      <trkpt lat="41.599259627982974" lon="-8.78287254832685">
        <ele>40.59375</ele>
      </trkpt>
      <trkpt lat="41.59931369125843" lon="-8.782868860289454">
        <ele>40.625</ele>
      </trkpt>
      <trkpt lat="41.599372616037726" lon="-8.782867100089788">
        <ele>40.64453125</ele>
      </trkpt>
      <trkpt lat="41.599428271874785" lon="-8.782865172252059">
        <ele>40.6640625</ele>
      </trkpt>
      <trkpt lat="41.599485436454415" lon="-8.782863412052393">
        <ele>40.68359375</ele>
      </trkpt>
      <trkpt lat="41.599544696509838" lon="-8.782861651852727">
        <ele>40.703125</ele>
      </trkpt>
      <trkpt lat="41.599598675966263" lon="-8.782858047634363">
        <ele>40.734375</ele>
      </trkpt>
      <trkpt lat="41.599660869687796" lon="-8.782858299091458">
        <ele>40.75390625</ele>
      </trkpt>
      <trkpt lat="41.59972314722836" lon="-8.782856538891792">
        <ele>40.84765625</ele>
      </trkpt>
      <trkpt lat="41.599787604063749" lon="-8.782854611054063">
        <ele>40.94921875</ele>
      </trkpt>
      <trkpt lat="41.59984678030014" lon="-8.782858550548553">
        <ele>41.0078125</ele>
      </trkpt>
      <trkpt lat="41.599909393116832" lon="-8.782860646024346">
        <ele>41.078125</ele>
      </trkpt>
      <trkpt lat="41.599972005933523" lon="-8.782862573862076">
        <ele>41.15234375</ele>
      </trkpt>
      <trkpt lat="41.600036378949881" lon="-8.782868608832359">
        <ele>41.203125</ele>
      </trkpt>
      <trkpt lat="41.600095387548208" lon="-8.782876404002309">
        <ele>41.23046875</ele>
      </trkpt>
      <trkpt lat="41.600153055042028" lon="-8.782890066504478">
        <ele>41.21875</ele>
      </trkpt>
      <trkpt lat="41.600211979821324" lon="-8.782901214435697">
        <ele>41.21875</ele>
      </trkpt>
      <trkpt lat="41.600274341180921" lon="-8.782912194728851">
        <ele>41.2265625</ele>
      </trkpt>
      <trkpt lat="41.60032857209444" lon="-8.782918062061071">
        <ele>41.2578125</ele>
      </trkpt>
      <trkpt lat="41.600388251245022" lon="-8.782925941050053">
        <ele>41.27734375</ele>
      </trkpt>
      <trkpt lat="41.600452456623316" lon="-8.782929880544543">
        <ele>41.33203125</ele>
      </trkpt>
      <trkpt lat="41.600510040298104" lon="-8.782933568581939">
        <ele>41.4296875</ele>
      </trkpt>
      <trkpt lat="41.600567372515798" lon="-8.782933568581939">
        <ele>41.6328125</ele>
      </trkpt>
      <trkpt lat="41.600632751360536" lon="-8.782928120344877">
        <ele>41.90234375</ele>
      </trkpt>
      <trkpt lat="41.600697124376893" lon="-8.782920408993959">
        <ele>42.18359375</ele>
      </trkpt>
      <trkpt lat="41.600760072469711" lon="-8.782905740663409">
        <ele>42.50390625</ele>
      </trkpt>
      <trkpt lat="41.600820841267705" lon="-8.782891323789954">
        <ele>42.8125</ele>
      </trkpt>
      <trkpt lat="41.60087775439024" lon="-8.782879253849387">
        <ele>43.08984375</ele>
      </trkpt>
      <trkpt lat="41.600943887606263" lon="-8.782869447022676">
        <ele>43.3828125</ele>
      </trkpt>
      <trkpt lat="41.601001471281052" lon="-8.782861987128854">
        <ele>43.62890625</ele>
      </trkpt>
      <trkpt lat="41.601056791841984" lon="-8.782848743721843">
        <ele>43.90625</ele>
      </trkpt>
      <trkpt lat="41.601119823753834" lon="-8.782819071784616">
        <ele>44.3046875</ele>
      </trkpt>
      <trkpt lat="41.601178161799908" lon="-8.782779509201646">
        <ele>44.74609375</ele>
      </trkpt>
      <trkpt lat="41.60123348236084" lon="-8.782736258581281">
        <ele>45.1953125</ele>
      </trkpt>
      <trkpt lat="41.601281175389886" lon="-8.782698959112167">
        <ele>45.578125</ele>
      </trkpt>
      <trkpt lat="41.60133171826601" lon="-8.782667694613338">
        <ele>45.91015625</ele>
      </trkpt>
      <trkpt lat="41.601384272798896" lon="-8.782639279961586">
        <ele>46.1796875</ele>
      </trkpt>
      <trkpt lat="41.601440263912082" lon="-8.782613966614008">
        <ele>46.43359375</ele>
      </trkpt>
      <trkpt lat="41.601495081558824" lon="-8.782594855874777">
        <ele>46.6484375</ele>
      </trkpt>
      <trkpt lat="41.601557694375515" lon="-8.782584462314844">
        <ele>46.8203125</ele>
      </trkpt>
      <trkpt lat="41.601621396839619" lon="-8.78257155418396">
        <ele>47.01171875</ele>
      </trkpt>
      <trkpt lat="41.601678561419249" lon="-8.782560741528869">
        <ele>47.171875</ele>
      </trkpt>
      <trkpt lat="41.601739330217242" lon="-8.782551186159253">
        <ele>47.33203125</ele>
      </trkpt>
      <trkpt lat="41.601793644949794" lon="-8.782536098733544">
        <ele>47.51171875</ele>
      </trkpt>
      <trkpt lat="41.601848630234599" lon="-8.782518832013011">
        <ele>47.69921875</ele>
      </trkpt>
      <trkpt lat="41.601904286071658" lon="-8.782497374340892">
        <ele>47.90625</ele>
      </trkpt>
      <trkpt lat="41.601955080404878" lon="-8.782473402097821">
        <ele>48.11328125</ele>
      </trkpt>
      <trkpt lat="41.602009059861302" lon="-8.78243962302804">
        <ele>48.37109375</ele>
      </trkpt>
      <trkpt lat="41.602057507261634" lon="-8.782407939434052">
        <ele>48.609375</ele>
      </trkpt>
      <trkpt lat="41.602111654356122" lon="-8.782376842573285">
        <ele>48.84375</ele>
      </trkpt>
      <trkpt lat="41.60216337069869" lon="-8.782342728227377">
        <ele>49.0390625</ele>
      </trkpt>
      <trkpt lat="41.602183822542429" lon="-8.782334513962269">
        <ele>49.0234375</ele>
      </trkpt>
      <trkpt lat="41.603139694780111" lon="-8.781595230102539">
        <ele>50.2890625</ele>
      </trkpt>
      <trkpt lat="41.603139694780111" lon="-8.781595313921571">
        <ele>50.2890625</ele>
      </trkpt>
      <trkpt lat="41.603916278108954" lon="-8.780974969267845">
        <ele>51.2578125</ele>
      </trkpt>
      <trkpt lat="41.603917116299272" lon="-8.780976310372353">
        <ele>51.25</ele>
      </trkpt>
      <trkpt lat="41.604257673025131" lon="-8.780736504122615">
        <ele>50.625</ele>
      </trkpt>
      <trkpt lat="41.604257673025131" lon="-8.780735246837139">
        <ele>50.62890625</ele>
      </trkpt>
      <trkpt lat="41.604360351338983" lon="-8.78056132234633">
        <ele>50.55078125</ele>
      </trkpt>
      <trkpt lat="41.604408379644156" lon="-8.780511114746332">
        <ele>50.390625</ele>
      </trkpt>
      <trkpt lat="41.604460347443819" lon="-8.780456716194749">
        <ele>50.08984375</ele>
      </trkpt>
      <trkpt lat="41.604504268616438" lon="-8.78041036427021">
        <ele>49.70703125</ele>
      </trkpt>
      <trkpt lat="41.604546764865518" lon="-8.780366275459528">
        <ele>49.30859375</ele>
      </trkpt>
      <trkpt lat="41.604599822312593" lon="-8.780337022617459">
        <ele>48.84375</ele>
      </trkpt>
      <trkpt lat="41.604657741263509" lon="-8.780333753675222">
        <ele>48.42578125</ele>
      </trkpt>
      <trkpt lat="41.604716079309583" lon="-8.780342470854521">
        <ele>48.1640625</ele>
      </trkpt>
      <trkpt lat="41.60477408207953" lon="-8.780355965718627">
        <ele>47.92578125</ele>
      </trkpt>
      <trkpt lat="41.604832671582699" lon="-8.780368790030479">
        <ele>47.68359375</ele>
      </trkpt>
      <trkpt lat="41.604890003800392" lon="-8.780390666797757">
        <ele>47.484375</ele>
      </trkpt>
      <trkpt lat="41.604942474514246" lon="-8.780407765880227">
        <ele>47.29296875</ele>
      </trkpt>
      <trkpt lat="41.604999555274844" lon="-8.78043232485652">
        <ele>47.11328125</ele>
      </trkpt>
      <trkpt lat="41.605061665177345" lon="-8.780470378696918">
        <ele>46.97265625</ele>
      </trkpt>
      <trkpt lat="41.605115476995707" lon="-8.78050466068089">
        <ele>46.76953125</ele>
      </trkpt>
      <trkpt lat="41.605171216651797" lon="-8.780532069504261">
        <ele>46.515625</ele>
      </trkpt>
      <trkpt lat="41.605225279927254" lon="-8.780552018433809">
        <ele>46.26953125</ele>
      </trkpt>
      <trkpt lat="41.605283869430423" lon="-8.780569285154343">
        <ele>46.01171875</ele>
      </trkpt>
      <trkpt lat="41.605338267982006" lon="-8.780589904636145">
        <ele>45.78125</ele>
      </trkpt>
      <trkpt lat="41.605391073971987" lon="-8.780611949041486">
        <ele>45.5625</ele>
      </trkpt>
      <trkpt lat="41.605442371219397" lon="-8.780635250732303">
        <ele>45.36328125</ele>
      </trkpt>
      <trkpt lat="41.60549433901906" lon="-8.78066735342145">
        <ele>45.18359375</ele>
      </trkpt>
      <trkpt lat="41.605548486113548" lon="-8.780717309564352">
        <ele>45.0703125</ele>
      </trkpt>
      <trkpt lat="41.605595089495182" lon="-8.780760811641812">
        <ele>44.9765625</ele>
      </trkpt>
      <trkpt lat="41.605644878000021" lon="-8.780792076140642">
        <ele>44.859375</ele>
      </trkpt>
      <trkpt lat="41.605694582685828" lon="-8.78083792515099">
        <ele>44.7734375</ele>
      </trkpt>
      <trkpt lat="41.605745460838079" lon="-8.780871201306581">
        <ele>44.66796875</ele>
      </trkpt>
      <trkpt lat="41.605796925723553" lon="-8.780899867415428">
        <ele>44.55859375</ele>
      </trkpt>
      <trkpt lat="41.605847887694836" lon="-8.780947895720601">
        <ele>44.48828125</ele>
      </trkpt>
      <trkpt lat="41.605894239619374" lon="-8.780989134684205">
        <ele>44.42578125</ele>
      </trkpt>
      <trkpt lat="41.605937490239739" lon="-8.781043449416757">
        <ele>44.40234375</ele>
      </trkpt>
      <trkpt lat="41.605977723374963" lon="-8.781091561540961">
        <ele>44.3828125</ele>
      </trkpt>
      <trkpt lat="41.606017537415028" lon="-8.781154425814748">
        <ele>44.3984375</ele>
      </trkpt>
      <trkpt lat="41.606056680902839" lon="-8.78122047521174">
        <ele>44.4296875</ele>
      </trkpt>
      <trkpt lat="41.606091633439064" lon="-8.781281327828765">
        <ele>44.46875</ele>
      </trkpt>
      <trkpt lat="41.606133626773953" lon="-8.781337067484856">
        <ele>44.4375</ele>
      </trkpt>
      <trkpt lat="41.606177883222699" lon="-8.781383838504553">
        <ele>44.33203125</ele>
      </trkpt>
      <trkpt lat="41.606223983690143" lon="-8.781433627009392">
        <ele>44.22265625</ele>
      </trkpt>
      <trkpt lat="41.606275448575616" lon="-8.781461790204048">
        <ele>44.09765625</ele>
      </trkpt>
      <trkpt lat="41.606338312849402" lon="-8.781476123258471">
        <ele>43.953125</ele>
      </trkpt>
      <trkpt lat="41.606393968686461" lon="-8.781479811295867">
        <ele>43.83203125</ele>
      </trkpt>
      <trkpt lat="41.60645155236125" lon="-8.781485091894865">
        <ele>43.70703125</ele>
      </trkpt>
      <trkpt lat="41.60650871694088" lon="-8.781486852094531">
        <ele>43.5859375</ele>
      </trkpt>
      <trkpt lat="41.606564372777939" lon="-8.781483331695199">
        <ele>43.46484375</ele>
      </trkpt>
      <trkpt lat="41.606618603691459" lon="-8.781479727476835">
        <ele>43.34375</ele>
      </trkpt>
      <trkpt lat="41.606686245650053" lon="-8.781457431614399">
        <ele>43.1875</ele>
      </trkpt>
      <trkpt lat="41.606745338067412" lon="-8.781434549018741">
        <ele>43.04296875</ele>
      </trkpt>
      <trkpt lat="41.606803089380264" lon="-8.781408397480845">
        <ele>42.89453125</ele>
      </trkpt>
      <trkpt lat="41.606857320293784" lon="-8.781388867646456">
        <ele>42.7578125</ele>
      </trkpt>
      <trkpt lat="41.606911467388272" lon="-8.781370176002383">
        <ele>42.6171875</ele>
      </trkpt>
      <trkpt lat="41.60698514431715" lon="-8.781350897625089">
        <ele>42.42578125</ele>
      </trkpt>
      <trkpt lat="41.607041470706463" lon="-8.781338911503553">
        <ele>42.28125</ele>
      </trkpt>
      <trkpt lat="41.607096791267395" lon="-8.781327093020082">
        <ele>42.13671875</ele>
      </trkpt>
      <trkpt lat="41.607153033837676" lon="-8.781316615641117">
        <ele>41.9921875</ele>
      </trkpt>
      <trkpt lat="41.607207097113132" lon="-8.781307814642787">
        <ele>41.83203125</ele>
      </trkpt>
      <trkpt lat="41.607261160388589" lon="-8.781302534043789">
        <ele>41.6796875</ele>
      </trkpt>
      <trkpt lat="41.607315139845014" lon="-8.781297253444791">
        <ele>41.53125</ele>
      </trkpt>
      <trkpt lat="41.60738043487072" lon="-8.781297253444791">
        <ele>41.375</ele>
      </trkpt>
      <trkpt lat="41.607442544773221" lon="-8.781297253444791">
        <ele>41.2265625</ele>
      </trkpt>
      <trkpt lat="41.607498787343502" lon="-8.781301025301218">
        <ele>41.10546875</ele>
      </trkpt>
      <trkpt lat="41.607556622475386" lon="-8.781320806592703">
        <ele>41.02734375</ele>
      </trkpt>
      <trkpt lat="41.607608925551176" lon="-8.781348802149296">
        <ele>40.93359375</ele>
      </trkpt>
      <trkpt lat="41.607666509225965" lon="-8.781363051384687">
        <ele>40.8125</ele>
      </trkpt>
      <trkpt lat="41.607727026566863" lon="-8.781359614804387">
        <ele>40.6640625</ele>
      </trkpt>
      <trkpt lat="41.607787627726793" lon="-8.78135290928185">
        <ele>40.51171875</ele>
      </trkpt>
      <trkpt lat="41.607843535020947" lon="-8.78133631311357">
        <ele>40.35546875</ele>
      </trkpt>
      <trkpt lat="41.607899609953165" lon="-8.781306724995375">
        <ele>40.1640625</ele>
      </trkpt>
      <trkpt lat="41.607955517247319" lon="-8.781287027522922">
        <ele>39.95703125</ele>
      </trkpt>
      <trkpt lat="41.608018968254328" lon="-8.781268503516912">
        <ele>39.703125</ele>
      </trkpt>
      <trkpt lat="41.608073702082038" lon="-8.781251152977347">
        <ele>39.4609375</ele>
      </trkpt>
      <trkpt lat="41.608142266049981" lon="-8.781231874600053">
        <ele>39.17578125</ele>
      </trkpt>
      <trkpt lat="41.60819842480123" lon="-8.781216284260154">
        <ele>38.953125</ele>
      </trkpt>
      <trkpt lat="41.608253661543131" lon="-8.781200358644128">
        <ele>38.73828125</ele>
      </trkpt>
      <trkpt lat="41.608320800587535" lon="-8.781187450513244">
        <ele>38.50390625</ele>
      </trkpt>
      <trkpt lat="41.60837528295815" lon="-8.781182253733277">
        <ele>38.328125</ele>
      </trkpt>
      <trkpt lat="41.608433621004224" lon="-8.781175632029772">
        <ele>38.140625</ele>
      </trkpt>
      <trkpt lat="41.608497323468328" lon="-8.781169848516583">
        <ele>37.94140625</ele>
      </trkpt>
      <trkpt lat="41.608552811667323" lon="-8.78116624429822">
        <ele>37.7734375</ele>
      </trkpt>
      <trkpt lat="41.608607461676002" lon="-8.781169261783361">
        <ele>37.61328125</ele>
      </trkpt>
      <trkpt lat="41.608632272109389" lon="-8.781179403886199">
        <ele>37.55078125</ele>
      </trkpt>
      <trkpt lat="41.608886914327741" lon="-8.781211255118251">
        <ele>36.73046875</ele>
      </trkpt>
      <trkpt lat="41.608979366719723" lon="-8.781224666163325">
        <ele>36.38671875</ele>
      </trkpt>
      <trkpt lat="41.609058575704694" lon="-8.781247297301888">
        <ele>36.09765625</ele>
      </trkpt>
      <trkpt lat="41.609135521575809" lon="-8.78128694370389">
        <ele>35.83203125</ele>
      </trkpt>
      <trkpt lat="41.609209449961782" lon="-8.781345533207059">
        <ele>35.69921875</ele>
      </trkpt>
      <trkpt lat="41.609277511015534" lon="-8.781415857374668">
        <ele>35.76953125</ele>
      </trkpt>
      <trkpt lat="41.609342219308019" lon="-8.781489366665483">
        <ele>35.91015625</ele>
      </trkpt>
      <trkpt lat="41.609405251219869" lon="-8.781556757166982">
        <ele>36.06640625</ele>
      </trkpt>
      <trkpt lat="41.609483538195491" lon="-8.781598582863808">
        <ele>36.0859375</ele>
      </trkpt>
      <trkpt lat="41.609566267579794" lon="-8.781628254801035">
        <ele>36.0546875</ele>
      </trkpt>
      <trkpt lat="41.609648577868938" lon="-8.781657423824072">
        <ele>36.046875</ele>
      </trkpt>
      <trkpt lat="41.609737258404493" lon="-8.781689610332251">
        <ele>36.11328125</ele>
      </trkpt>
      <trkpt lat="41.609822167083621" lon="-8.781706960871816">
        <ele>36.109375</ele>
      </trkpt>
      <trkpt lat="41.609908752143383" lon="-8.781717605888844">
        <ele>36.07421875</ele>
      </trkpt>
      <trkpt lat="41.60999215207994" lon="-8.781725568696856">
        <ele>36.03125</ele>
      </trkpt>
      <trkpt lat="41.610073372721672" lon="-8.781715761870146">
        <ele>35.84375</ele>
      </trkpt>
      <trkpt lat="41.610155934467912" lon="-8.78169346600771">
        <ele>35.5390625</ele>
      </trkpt>
      <trkpt lat="41.610237741842866" lon="-8.781653149053454">
        <ele>35.04296875</ele>
      </trkpt>
      <trkpt lat="41.610317705199122" lon="-8.781613083556294">
        <ele>34.515625</ele>
      </trkpt>
      <trkpt lat="41.610391214489937" lon="-8.781565809622407">
        <ele>33.890625</ele>
      </trkpt>
      <trkpt lat="41.610460951924324" lon="-8.781495066359639">
        <ele>32.98046875</ele>
      </trkpt>
      <trkpt lat="41.610535718500614" lon="-8.781460868194699">
        <ele>32.1953125</ele>
      </trkpt>
      <trkpt lat="41.610620459541678" lon="-8.781475871801376">
        <ele>31.7890625</ele>
      </trkpt>
      <trkpt lat="41.610711487010121" lon="-8.781496323645115">
        <ele>31.37890625</ele>
      </trkpt>
      <trkpt lat="41.61079446785152" lon="-8.781521720811725">
        <ele>31.0546875</ele>
      </trkpt>
      <trkpt lat="41.610873257741332" lon="-8.781568743288517">
        <ele>30.94140625</ele>
      </trkpt>
      <trkpt lat="41.610953221097589" lon="-8.781592715531588">
        <ele>30.58203125</ele>
      </trkpt>
      <trkpt lat="41.611035112291574" lon="-8.781613921746612">
        <ele>30.171875</ele>
      </trkpt>
      <trkpt lat="41.611110968515277" lon="-8.78164853900671">
        <ele>29.8984375</ele>
      </trkpt>
      <trkpt lat="41.611168803647161" lon="-8.781737554818392">
        <ele>30.1640625</ele>
      </trkpt>
      <trkpt lat="41.611236445605755" lon="-8.781795306131244">
        <ele>30.0703125</ele>
      </trkpt>
      <trkpt lat="41.611325377598405" lon="-8.781839981675148">
        <ele>29.625</ele>
      </trkpt>
      <trkpt lat="41.611404335126281" lon="-8.781867474317551">
        <ele>28.84375</ele>
      </trkpt>
      <trkpt lat="41.611484633758664" lon="-8.78190653398633">
        <ele>28.08203125</ele>
      </trkpt>
      <trkpt lat="41.611557975411415" lon="-8.781949868425727">
        <ele>27.390625</ele>
      </trkpt>
      <trkpt lat="41.611631903797388" lon="-8.782005524262786">
        <ele>26.703125</ele>
      </trkpt>
      <trkpt lat="41.611676411703229" lon="-8.782100742682815">
        <ele>26.546875</ele>
      </trkpt>
      <trkpt lat="41.611678004264832" lon="-8.78221632912755">
        <ele>27.0703125</ele>
      </trkpt>
      <trkpt lat="41.611663838848472" lon="-8.782356893643737">
        <ele>27.93359375</ele>
      </trkpt>
      <trkpt lat="41.611638525500894" lon="-8.782467702403665">
        <ele>28.7421875</ele>
      </trkpt>
      <trkpt lat="41.611591670662165" lon="-8.782561831176281">
        <ele>29.64453125</ele>
      </trkpt>
      <trkpt lat="41.611528722569346" lon="-8.782647829502821">
        <ele>30.578125</ele>
      </trkpt>
      <trkpt lat="41.611475078389049" lon="-8.7827386893332">
        <ele>31.33984375</ele>
      </trkpt>
      <trkpt lat="41.611439371481538" lon="-8.782862825319171">
        <ele>31.94921875</ele>
      </trkpt>
      <trkpt lat="41.611409615725279" lon="-8.782985201105475">
        <ele>32.42578125</ele>
      </trkpt>
      <trkpt lat="41.611393857747316" lon="-8.783098021522164">
        <ele>32.65234375</ele>
      </trkpt>
      <trkpt lat="41.611387571319938" lon="-8.783219726756215">
        <ele>32.80859375</ele>
      </trkpt>
      <trkpt lat="41.611385894939303" lon="-8.783342353999615">
        <ele>32.94140625</ele>
      </trkpt>
      <trkpt lat="41.611387822777033" lon="-8.783470848575234">
        <ele>33.078125</ele>
      </trkpt>
      <trkpt lat="41.611398970708251" lon="-8.783596074208617">
        <ele>33.24609375</ele>
      </trkpt>
      <trkpt lat="41.611407939344645" lon="-8.78370612859726">
        <ele>33.421875</ele>
      </trkpt>
      <trkpt lat="41.611426211893559" lon="-8.783815847709775">
        <ele>33.68359375</ele>
      </trkpt>
      <trkpt lat="41.61143702454865" lon="-8.783934032544494">
        <ele>34.2734375</ele>
      </trkpt>
      <trkpt lat="41.611445909366012" lon="-8.784044170752168">
        <ele>34.8125</ele>
      </trkpt>
      <trkpt lat="41.611445909366012" lon="-8.784169815480709">
        <ele>35.3671875</ele>
      </trkpt>
      <trkpt lat="41.611451022326946" lon="-8.784284060820937">
        <ele>35.89453125</ele>
      </trkpt>
      <trkpt lat="41.611467283219099" lon="-8.78442345187068">
        <ele>36.578125</ele>
      </trkpt>
      <trkpt lat="41.611486226320267" lon="-8.784534428268671">
        <ele>37.13671875</ele>
      </trkpt>
      <trkpt lat="41.611512796953321" lon="-8.784634675830603">
        <ele>37.6640625</ele>
      </trkpt>
      <trkpt lat="41.611549677327275" lon="-8.784732660278678">
        <ele>38.17578125</ele>
      </trkpt>
      <trkpt lat="41.61158362403512" lon="-8.784829806536436">
        <ele>38.578125</ele>
      </trkpt>
      <trkpt lat="41.611629305407405" lon="-8.784911865368485">
        <ele>38.83984375</ele>
      </trkpt>
      <trkpt lat="41.611655037850142" lon="-8.785016220062971">
        <ele>39.0703125</ele>
      </trkpt>
      <trkpt lat="41.611675657331944" lon="-8.785133231431246">
        <ele>39.265625</ele>
      </trkpt>
      <trkpt lat="41.611736174672842" lon="-8.785202633589506">
        <ele>39.13671875</ele>
      </trkpt>
      <trkpt lat="41.61179861985147" lon="-8.78527220338583">
        <ele>38.87890625</ele>
      </trkpt>
      <trkpt lat="41.61182451993227" lon="-8.785380246117711">
        <ele>38.71875</ele>
      </trkpt>
      <trkpt lat="41.611846731975675" lon="-8.785483846440911">
        <ele>38.515625</ele>
      </trkpt>
      <trkpt lat="41.611908590421081" lon="-8.785567916929722">
        <ele>37.94921875</ele>
      </trkpt>
      <trkpt lat="41.611970281228423" lon="-8.785640420392156">
        <ele>37.265625</ele>
      </trkpt>
      <trkpt lat="41.611996768042445" lon="-8.785742931067944">
        <ele>36.81640625</ele>
      </trkpt>
      <trkpt lat="41.612023338675499" lon="-8.785847034305334">
        <ele>36.29296875</ele>
      </trkpt>
      <trkpt lat="41.612071702256799" lon="-8.785953400656581">
        <ele>35.37890625</ele>
      </trkpt>
      <trkpt lat="41.612136829644442" lon="-8.786015007644892">
        <ele>34.21484375</ele>
      </trkpt>
      <trkpt lat="41.612218385562301" lon="-8.786047277972102">
        <ele>34.71875</ele>
      </trkpt>
      <trkpt lat="41.612280495464802" lon="-8.786127408966422">
        <ele>34.80078125</ele>
      </trkpt>
      <trkpt lat="41.612320728600025" lon="-8.7862269859761">
        <ele>34.33203125</ele>
      </trkpt>
      <trkpt lat="41.612360877916217" lon="-8.786323042586446">
        <ele>33.66015625</ele>
      </trkpt>
      <trkpt lat="41.612393567338586" lon="-8.786422535777092">
        <ele>32.5703125</ele>
      </trkpt>
      <trkpt lat="41.612423490732908" lon="-8.786531165242195">
        <ele>31.296875</ele>
      </trkpt>
      <trkpt lat="41.612443439662457" lon="-8.786643985658884">
        <ele>29.90234375</ele>
      </trkpt>
      <trkpt lat="41.612460622563958" lon="-8.786762002855539">
        <ele>28.3984375</ele>
      </trkpt>
      <trkpt lat="41.612469675019383" lon="-8.786884546279907">
        <ele>26.8125</ele>
      </trkpt>
      <trkpt lat="41.612469591200352" lon="-8.78700390458107">
        <ele>25.27734375</ele>
      </trkpt>
      <trkpt lat="41.612452492117882" lon="-8.78711337223649">
        <ele>23.94140625</ele>
      </trkpt>
      <trkpt lat="41.612415695562959" lon="-8.787212613970041">
        <ele>23.08984375</ele>
      </trkpt>
      <trkpt lat="41.612383844330907" lon="-8.787309844046831">
        <ele>22.3125</ele>
      </trkpt>
      <trkpt lat="41.612364565953612" lon="-8.787431130185723">
        <ele>21.23046875</ele>
      </trkpt>
      <trkpt lat="41.612342270091176" lon="-8.787550991401076">
        <ele>20.140625</ele>
      </trkpt>
      <trkpt lat="41.612324416637421" lon="-8.787651658058167">
        <ele>19.19921875</ele>
      </trkpt>
      <trkpt lat="41.612272532656789" lon="-8.787745032459497">
        <ele>18.35546875</ele>
      </trkpt>
      <trkpt lat="41.612201621755958" lon="-8.787800017744303">
        <ele>17.875</ele>
      </trkpt>
      <trkpt lat="41.612131465226412" lon="-8.787853578105569">
        <ele>17.6015625</ele>
      </trkpt>
      <trkpt lat="41.612053932622075" lon="-8.787891129031777">
        <ele>18.46875</ele>
      </trkpt>
      <trkpt lat="41.611989559605718" lon="-8.787956172600389">
        <ele>18.72265625</ele>
      </trkpt>
      <trkpt lat="41.611932646483183" lon="-8.788047535344958">
        <ele>19.15625</ele>
      </trkpt>
      <trkpt lat="41.611875649541616" lon="-8.788129007443786">
        <ele>19.64453125</ele>
      </trkpt>
      <trkpt lat="41.611827705055475" lon="-8.788217687979341">
        <ele>19.7890625</ele>
      </trkpt>
      <trkpt lat="41.611809264868498" lon="-8.788321288302541">
        <ele>19.41796875</ele>
      </trkpt>
      <trkpt lat="41.611852934584022" lon="-8.788409801200032">
        <ele>18.6953125</ele>
      </trkpt>
      <trkpt lat="41.611908003687859" lon="-8.788501666858792">
        <ele>18.1015625</ele>
      </trkpt>
      <trkpt lat="41.611964832991362" lon="-8.788592107594013">
        <ele>17.73828125</ele>
      </trkpt>
      <trkpt lat="41.611974388360977" lon="-8.788588000461459">
        <ele>17.73046875</ele>
      </trkpt>
      <trkpt lat="41.612044544890523" lon="-8.788711801171303">
        <ele>17.62890625</ele>
      </trkpt>
      <trkpt lat="41.612104559317231" lon="-8.78878204151988">
        <ele>17.80859375</ele>
      </trkpt>
      <trkpt lat="41.612181421369314" lon="-8.788789752870798">
        <ele>18.359375</ele>
      </trkpt>
      <trkpt lat="41.61225744523108" lon="-8.788749603554606">
        <ele>19.08984375</ele>
      </trkpt>
      <trkpt lat="41.612326009199023" lon="-8.788682213053107">
        <ele>19.515625</ele>
      </trkpt>
      <trkpt lat="41.612398093566298" lon="-8.788636112585664">
        <ele>19.96484375</ele>
      </trkpt>
      <trkpt lat="41.612471519038081" lon="-8.788584899157286">
        <ele>20.30078125</ele>
      </trkpt>
      <trkpt lat="41.612552404403687" lon="-8.788533601909876">
        <ele>20.58203125</ele>
      </trkpt>
      <trkpt lat="41.612608646973968" lon="-8.788440814241767">
        <ele>20.19140625</ele>
      </trkpt>
      <trkpt lat="41.612676037475467" lon="-8.788377111777663">
        <ele>20</ele>
      </trkpt>
      <trkpt lat="41.612755162641406" lon="-8.788335705175996">
        <ele>19.9921875</ele>
      </trkpt>
      <trkpt lat="41.612838227301836" lon="-8.788308631628752">
        <ele>20.08203125</ele>
      </trkpt>
      <trkpt lat="41.612919447943568" lon="-8.788277450948954">
        <ele>20.046875</ele>
      </trkpt>
      <trkpt lat="41.612999830394983" lon="-8.788229674100876">
        <ele>19.8359375</ele>
      </trkpt>
      <trkpt lat="41.613084068521857" lon="-8.788197739049792">
        <ele>20.30859375</ele>
      </trkpt>
      <trkpt lat="41.613172749057412" lon="-8.788179215043783">
        <ele>21.0546875</ele>
      </trkpt>
      <trkpt lat="41.613254975527525" lon="-8.788166390731931">
        <ele>21.82421875</ele>
      </trkpt>
      <trkpt lat="41.613339046016335" lon="-8.788156416267157">
        <ele>22.671875</ele>
      </trkpt>
      <trkpt lat="41.613419512286782" lon="-8.78818147815764">
        <ele>23.83984375</ele>
      </trkpt>
      <trkpt lat="41.613494111225009" lon="-8.788235625252128">
        <ele>25.16796875</ele>
      </trkpt>
      <trkpt lat="41.613550437614322" lon="-8.788326904177666">
        <ele>26.5546875</ele>
      </trkpt>
      <trkpt lat="41.613603411242366" lon="-8.78841751255095">
        <ele>27.8046875</ele>
      </trkpt>
      <trkpt lat="41.613659989088774" lon="-8.788499739021063">
        <ele>28.921875</ele>
      </trkpt>
      <trkpt lat="41.613716315478086" lon="-8.788579618558288">
        <ele>29.92578125</ele>
      </trkpt>
      <trkpt lat="41.613789405673742" lon="-8.788639297708869">
        <ele>30.8203125</ele>
      </trkpt>
      <trkpt lat="41.613869117572904" lon="-8.788670729845762">
        <ele>31.53515625</ele>
      </trkpt>
      <trkpt lat="41.613952768966556" lon="-8.788713980466127">
        <ele>32.26953125</ele>
      </trkpt>
      <trkpt lat="41.614030888304114" lon="-8.788758153095841">
        <ele>32.8828125</ele>
      </trkpt>
      <trkpt lat="41.61411227658391" lon="-8.788794614374638">
        <ele>33.40625</ele>
      </trkpt>
      <trkpt lat="41.614190312102437" lon="-8.788833087310195">
        <ele>33.94140625</ele>
      </trkpt>
      <trkpt lat="41.614274466410279" lon="-8.78886410035193">
        <ele>34.48046875</ele>
      </trkpt>
      <trkpt lat="41.61435367539525" lon="-8.788892263546586">
        <ele>34.9375</ele>
      </trkpt>
      <trkpt lat="41.614432716742158" lon="-8.788920426741242">
        <ele>35.34375</ele>
      </trkpt>
      <trkpt lat="41.614512680098414" lon="-8.788900896906853">
        <ele>35.59375</ele>
      </trkpt>
      <trkpt lat="41.614590799435973" lon="-8.788876086473465">
        <ele>35.85546875</ele>
      </trkpt>
      <trkpt lat="41.614640671759844" lon="-8.788794195279479">
        <ele>36.06640625</ele>
      </trkpt>
      <trkpt lat="41.61465760320425" lon="-8.788680955767632">
        <ele>36.75</ele>
      </trkpt>
      <trkpt lat="41.614684592932463" lon="-8.788570901378989">
        <ele>37.5625</ele>
      </trkpt>
      <trkpt lat="41.614730609580874" lon="-8.788483645766973">
        <ele>38.50390625</ele>
      </trkpt>
      <trkpt lat="41.614797916263342" lon="-8.788419524207711">
        <ele>39.60546875</ele>
      </trkpt>
      <trkpt lat="41.614881986752152" lon="-8.788395216688514">
        <ele>40.7109375</ele>
      </trkpt>
      <trkpt lat="41.614961950108409" lon="-8.788375435397029">
        <ele>41.76171875</ele>
      </trkpt>
      <trkpt lat="41.615049373358488" lon="-8.788358001038432">
        <ele>42.90625</ele>
      </trkpt>
      <trkpt lat="41.615131264552474" lon="-8.788347691297531">
        <ele>43.94921875</ele>
      </trkpt>
      <trkpt lat="41.615219861268997" lon="-8.788350373506546">
        <ele>44.96484375</ele>
      </trkpt>
      <trkpt lat="41.615304686129093" lon="-8.788355151191354">
        <ele>45.9140625</ele>
      </trkpt>
      <trkpt lat="41.615391774103045" lon="-8.788367137312889">
        <ele>46.8125</ele>
      </trkpt>
      <trkpt lat="41.615480706095695" lon="-8.788367137312889">
        <ele>47.83203125</ele>
      </trkpt>
      <trkpt lat="41.615570224821568" lon="-8.788359509781003">
        <ele>48.66796875</ele>
      </trkpt>
      <trkpt lat="41.615654462948442" lon="-8.788349200040102">
        <ele>49.48828125</ele>
      </trkpt>
      <trkpt lat="41.615736270323396" lon="-8.788344003260136">
        <ele>50.23046875</ele>
      </trkpt>
      <trkpt lat="41.615822939202189" lon="-8.788344003260136">
        <ele>50.9609375</ele>
      </trkpt>
      <trkpt lat="41.615906003862619" lon="-8.788359425961971">
        <ele>51.4921875</ele>
      </trkpt>
      <trkpt lat="41.61599300801754" lon="-8.78837401047349">
        <ele>52.0625</ele>
      </trkpt>
      <trkpt lat="41.616082107648253" lon="-8.788396054878831">
        <ele>52.57421875</ele>
      </trkpt>
      <trkpt lat="41.616168692708015" lon="-8.788416339084506">
        <ele>53.08203125</ele>
      </trkpt>
      <trkpt lat="41.616257205605507" lon="-8.788426984101534">
        <ele>53.7109375</ele>
      </trkpt>
      <trkpt lat="41.616338258609176" lon="-8.788456823676825">
        <ele>54.01953125</ele>
      </trkpt>
      <trkpt lat="41.616412689909339" lon="-8.788494374603033">
        <ele>54.1328125</ele>
      </trkpt>
      <trkpt lat="41.616479326039553" lon="-8.78856360912323">
        <ele>53.94140625</ele>
      </trkpt>
      <trkpt lat="41.616513775661588" lon="-8.788607949391007">
        <ele>53.80078125</ele>
      </trkpt>
      <trkpt lat="41.616673702374101" lon="-8.788710376247764">
        <ele>54.26953125</ele>
      </trkpt>
      <trkpt lat="41.616742601618171" lon="-8.788781957700849">
        <ele>54.36328125</ele>
      </trkpt>
      <trkpt lat="41.6168153565377" lon="-8.788850689306855">
        <ele>54.6953125</ele>
      </trkpt>
      <trkpt lat="41.616892470046878" lon="-8.788856975734234">
        <ele>55.4140625</ele>
      </trkpt>
      <trkpt lat="41.616945276036859" lon="-8.788771899417043">
        <ele>56.3125</ele>
      </trkpt>
      <trkpt lat="41.616986095905304" lon="-8.788668215274811">
        <ele>57.203125</ele>
      </trkpt>
      <trkpt lat="41.617030017077923" lon="-8.788573835045099">
        <ele>58.00390625</ele>
      </trkpt>
      <trkpt lat="41.617090199142694" lon="-8.788497978821397">
        <ele>58.765625</ele>
      </trkpt>
      <trkpt lat="41.617156835272908" lon="-8.788432767614722">
        <ele>59.4765625</ele>
      </trkpt>
      <trkpt lat="41.617224477231503" lon="-8.788360515609384">
        <ele>60.234375</ele>
      </trkpt>
      <trkpt lat="41.617396725341678" lon="-8.788177035748959">
        <ele>61.70703125</ele>
      </trkpt>
      <trkpt lat="41.617470234632492" lon="-8.788102185353637">
        <ele>62.140625</ele>
      </trkpt>
      <trkpt lat="41.617539469152689" lon="-8.788037812337279">
        <ele>62.453125</ele>
      </trkpt>
      <trkpt lat="41.617611553519964" lon="-8.787970170378685">
        <ele>62.671875</ele>
      </trkpt>
      <trkpt lat="41.617684056982398" lon="-8.787917867302895">
        <ele>62.765625</ele>
      </trkpt>
      <trkpt lat="41.617763098329306" lon="-8.78788048401475">
        <ele>62.828125</ele>
      </trkpt>
      <trkpt lat="41.617844318971038" lon="-8.787843184545636">
        <ele>62.8046875</ele>
      </trkpt>
      <trkpt lat="41.617910284548998" lon="-8.787776213139296">
        <ele>62.49609375</ele>
      </trkpt>
      <trkpt lat="41.617974322289228" lon="-8.787705218419433">
        <ele>62.02734375</ele>
      </trkpt>
      <trkpt lat="41.61803500726819" lon="-8.787634475156665">
        <ele>61.5859375</ele>
      </trkpt>
      <trkpt lat="41.618093345314264" lon="-8.787555014714599">
        <ele>61.01171875</ele>
      </trkpt>
      <trkpt lat="41.618153611198068" lon="-8.787478990852833">
        <ele>60.3984375</ele>
      </trkpt>
      <trkpt lat="41.618227371945977" lon="-8.787426268681884">
        <ele>59.921875</ele>
      </trkpt>
      <trkpt lat="41.618301635608077" lon="-8.787360722199082">
        <ele>59.26953125</ele>
      </trkpt>
      <trkpt lat="41.618345640599728" lon="-8.787270113825798">
        <ele>58.3359375</ele>
      </trkpt>
      <trkpt lat="41.618397776037455" lon="-8.787203980609775">
        <ele>57.58203125</ele>
      </trkpt>
      <trkpt lat="41.61846742965281" lon="-8.78725896589458">
        <ele>58.03125</ele>
      </trkpt>
      <trkpt lat="41.618545465171337" lon="-8.787286123260856">
        <ele>58.21484375</ele>
      </trkpt>
      <trkpt lat="41.618626685813069" lon="-8.787277322262526">
        <ele>58</ele>
      </trkpt>
      <trkpt lat="41.618712265044451" lon="-8.787259887903929">
        <ele>57.65625</ele>
      </trkpt>
      <trkpt lat="41.618795162066817" lon="-8.787243710830808">
        <ele>57.3125</ele>
      </trkpt>
      <trkpt lat="41.618880406022072" lon="-8.787234155461192">
        <ele>57.14453125</ele>
      </trkpt>
      <trkpt lat="41.618964057415724" lon="-8.787231640890241">
        <ele>57.09375</ele>
      </trkpt>
      <trkpt lat="41.619045445695519" lon="-8.787236334756017">
        <ele>57.12890625</ele>
      </trkpt>
      <trkpt lat="41.619126750156283" lon="-8.787238933146">
        <ele>57.140625</ele>
      </trkpt>
      <trkpt lat="41.619215263053775" lon="-8.787238933146">
        <ele>57.1171875</ele>
      </trkpt>
      <trkpt lat="41.619305703788996" lon="-8.787241699174047">
        <ele>57.125</ele>
      </trkpt>
      <trkpt lat="41.619390193372965" lon="-8.787246895954013">
        <ele>57.1640625</ele>
      </trkpt>
      <trkpt lat="41.619475604966283" lon="-8.787258714437485">
        <ele>57.26953125</ele>
      </trkpt>
      <trkpt lat="41.619554311037064" lon="-8.787283189594746">
        <ele>57.515625</ele>
      </trkpt>
      <trkpt lat="41.619642991572618" lon="-8.787317723035812">
        <ele>57.85546875</ele>
      </trkpt>
      <trkpt lat="41.619718847796321" lon="-8.787357453256845">
        <ele>58.23828125</ele>
      </trkpt>
      <trkpt lat="41.619772911071777" lon="-8.787445211783051">
        <ele>59.12109375</ele>
      </trkpt>
      <trkpt lat="41.619842061772943" lon="-8.787539172917604">
        <ele>60.01953125</ele>
      </trkpt>
      <trkpt lat="41.619901824742556" lon="-8.787613855674863">
        <ele>60.703125</ele>
      </trkpt>
      <trkpt lat="41.619977513328195" lon="-8.787664650008082">
        <ele>61.1015625</ele>
      </trkpt>
      <trkpt lat="41.620052950456738" lon="-8.787708654999733">
        <ele>61.4140625</ele>
      </trkpt>
      <trkpt lat="41.620120424777269" lon="-8.787772106006742">
        <ele>61.90234375</ele>
      </trkpt>
      <trkpt lat="41.62017809227109" lon="-8.787853913381696">
        <ele>62.5546875</ele>
      </trkpt>
      <trkpt lat="41.620233412832022" lon="-8.787944437935948">
        <ele>63.265625</ele>
      </trkpt>
      <trkpt lat="41.620276076719165" lon="-8.78803831525147">
        <ele>63.77734375</ele>
      </trkpt>
      <trkpt lat="41.620320584625006" lon="-8.788153314962983">
        <ele>64.24609375</ele>
      </trkpt>
      <trkpt lat="41.620374899357557" lon="-8.788264123722911">
        <ele>64.6484375</ele>
      </trkpt>
      <trkpt lat="41.620422257110476" lon="-8.788349786773324">
        <ele>64.93359375</ele>
      </trkpt>
      <trkpt lat="41.620480008423328" lon="-8.788420278578997">
        <ele>65.12890625</ele>
      </trkpt>
      <trkpt lat="41.620570281520486" lon="-8.788432599976659">
        <ele>65.35546875</ele>
      </trkpt>
      <trkpt lat="41.620653681457043" lon="-8.788449196144938">
        <ele>65.59765625</ele>
      </trkpt>
      <trkpt lat="41.620732974261045" lon="-8.788477024063468">
        <ele>65.890625</ele>
      </trkpt>
      <trkpt lat="41.62081184796989" lon="-8.788502672687173">
        <ele>66.17578125</ele>
      </trkpt>
      <trkpt lat="41.620894577354193" lon="-8.788532176986337">
        <ele>66.49609375</ele>
      </trkpt>
      <trkpt lat="41.620974037796259" lon="-8.788557322695851">
        <ele>66.796875</ele>
      </trkpt>
      <trkpt lat="41.62105961702764" lon="-8.78858313895762">
        <ele>67.11328125</ele>
      </trkpt>
      <trkpt lat="41.621143100783229" lon="-8.788607781752944">
        <ele>67.4296875</ele>
      </trkpt>
      <trkpt lat="41.621233206242323" lon="-8.788634017109871">
        <ele>67.7734375</ele>
      </trkpt>
      <trkpt lat="41.621312750503421" lon="-8.788655642420053">
        <ele>68.08984375</ele>
      </trkpt>
      <trkpt lat="41.621395479887724" lon="-8.78867844119668">
        <ele>68.60546875</ele>
      </trkpt>
      <trkpt lat="41.621477454900742" lon="-8.788704760372639">
        <ele>69.1484375</ele>
      </trkpt>
      <trkpt lat="41.621557166799903" lon="-8.788723535835743">
        <ele>69.640625</ele>
      </trkpt>
      <trkpt lat="41.621640399098396" lon="-8.788712555542588">
        <ele>69.95703125</ele>
      </trkpt>
      <trkpt lat="41.62169873714447" lon="-8.788626221939921">
        <ele>69.6640625</ele>
      </trkpt>
      <trkpt lat="41.621742406859994" lon="-8.788533015176654">
        <ele>69.2421875</ele>
      </trkpt>
      <trkpt lat="41.621802756562829" lon="-8.78846637904644">
        <ele>69.05859375</ele>
      </trkpt>
      <trkpt lat="41.621882803738117" lon="-8.788493871688843">
        <ele>69.59375</ele>
      </trkpt>
      <trkpt lat="41.621955474838614" lon="-8.788535026833415">
        <ele>70.1953125</ele>
      </trkpt>
      <trkpt lat="41.622026301920414" lon="-8.788600573316216">
        <ele>70.96875</ele>
      </trkpt>
      <trkpt lat="41.622113976627588" lon="-8.788615157827735">
        <ele>71.46484375</ele>
      </trkpt>
      <trkpt lat="41.622192598879337" lon="-8.788594957441092">
        <ele>71.7890625</ele>
      </trkpt>
      <trkpt lat="41.622277926653624" lon="-8.788581127300858">
        <ele>72.2578125</ele>
      </trkpt>
      <trkpt lat="41.622361158952117" lon="-8.788583474233747">
        <ele>72.828125</ele>
      </trkpt>
      <trkpt lat="41.622444642707705" lon="-8.788593700155616">
        <ele>73.44921875</ele>
      </trkpt>
      <trkpt lat="41.622538352385163" lon="-8.788596717640758">
        <ele>74.08984375</ele>
      </trkpt>
      <trkpt lat="41.622621165588498" lon="-8.788615576922894">
        <ele>74.75</ele>
      </trkpt>
      <trkpt lat="41.62269894964993" lon="-8.788641477003694">
        <ele>75.40234375</ele>
      </trkpt>
      <trkpt lat="41.622772794216871" lon="-8.788688667118549">
        <ele>76.13671875</ele>
      </trkpt>
      <trkpt lat="41.62284504622221" lon="-8.788743820041418">
        <ele>76.8828125</ele>
      </trkpt>
      <trkpt lat="41.622913107275963" lon="-8.788807857781649">
        <ele>77.62109375</ele>
      </trkpt>
      <trkpt lat="41.622981755062938" lon="-8.788868207484484">
        <ele>77.953125</ele>
      </trkpt>
      <trkpt lat="41.623044451698661" lon="-8.788935597985983">
        <ele>78.41796875</ele>
      </trkpt>
      <trkpt lat="41.623112931847572" lon="-8.788993265479803">
        <ele>78.984375</ele>
      </trkpt>
      <trkpt lat="41.623184597119689" lon="-8.789044814184308">
        <ele>79.6171875</ele>
      </trkpt>
      <trkpt lat="41.62326430901885" lon="-8.789062080904841">
        <ele>80.41015625</ele>
      </trkpt>
      <trkpt lat="41.623336728662252" lon="-8.788998043164611">
        <ele>81.24609375</ele>
      </trkpt>
      <trkpt lat="41.623399592936039" lon="-8.788930233567953">
        <ele>81.9609375</ele>
      </trkpt>
      <trkpt lat="41.623490117490292" lon="-8.788921684026718">
        <ele>82.87109375</ele>
      </trkpt>
      <trkpt lat="41.623575864359736" lon="-8.788963174447417">
        <ele>83.69140625</ele>
      </trkpt>
      <trkpt lat="41.623646188527346" lon="-8.789020841941237">
        <ele>84.37109375</ele>
      </trkpt>
      <trkpt lat="41.623715925961733" lon="-8.7890849635005">
        <ele>85.06640625</ele>
      </trkpt>
      <trkpt lat="41.62379345856607" lon="-8.789118491113186">
        <ele>85.87109375</ele>
      </trkpt>
      <trkpt lat="41.623875936493278" lon="-8.789134919643402">
        <ele>87.34765625</ele>
      </trkpt>
      <trkpt lat="41.62394885905087" lon="-8.789126621559262">
        <ele>88.734375</ele>
      </trkpt>
      <trkpt lat="41.624125968664885" lon="-8.78899360075593">
        <ele>91.8046875</ele>
      </trkpt>
      <trkpt lat="41.624173410236835" lon="-8.788958983495831">
        <ele>92.57421875</ele>
      </trkpt>
      <trkpt lat="41.62422638386488" lon="-8.78894716501236">
        <ele>93.484375</ele>
      </trkpt>
      <trkpt lat="41.624284470453858" lon="-8.78894423134625">
        <ele>94.5078125</ele>
      </trkpt>
      <trkpt lat="41.624336689710617" lon="-8.788964347913861">
        <ele>95.51171875</ele>
      </trkpt>
      <trkpt lat="41.624363930895925" lon="-8.789024781435728">
        <ele>96.2421875</ele>
      </trkpt>
      <trkpt lat="41.624379102140665" lon="-8.789098542183638">
        <ele>96.828125</ele>
      </trkpt>
      <trkpt lat="41.624392764642835" lon="-8.789182445034385">
        <ele>97.44140625</ele>
      </trkpt>
      <trkpt lat="41.624402068555355" lon="-8.789254697039723">
        <ele>97.9296875</ele>
      </trkpt>
      <trkpt lat="41.624411204829812" lon="-8.789327703416348">
        <ele>98.43359375</ele>
      </trkpt>
      <trkpt lat="41.624425705522299" lon="-8.789402805268764">
        <ele>99.06640625</ele>
      </trkpt>
      <trkpt lat="41.624443475157022" lon="-8.789470279589295">
        <ele>99.75</ele>
      </trkpt>
      <trkpt lat="41.624477589502931" lon="-8.789525851607323">
        <ele>100.75390625</ele>
      </trkpt>
      <trkpt lat="41.624525617808104" lon="-8.789563737809658">
        <ele>102.0078125</ele>
      </trkpt>
      <trkpt lat="41.624584710225463" lon="-8.789578322321177">
        <ele>103.40234375</ele>
      </trkpt>
      <trkpt lat="41.624643970280886" lon="-8.78958385437727">
        <ele>104.765625</ele>
      </trkpt>
      <trkpt lat="41.624702056869864" lon="-8.78958729095757">
        <ele>106.1640625</ele>
      </trkpt>
      <trkpt lat="41.624756287783384" lon="-8.789578322321177">
        <ele>107.38671875</ele>
      </trkpt>
      <trkpt lat="41.624794760718942" lon="-8.789533646777272">
        <ele>107.98828125</ele>
      </trkpt>
      <trkpt lat="41.624816637486219" lon="-8.789468351751566">
        <ele>108.0390625</ele>
      </trkpt>
      <trkpt lat="41.624849494546652" lon="-8.789411187171936">
        <ele>108.3828125</ele>
      </trkpt>
      <trkpt lat="41.624878998845816" lon="-8.789348574355245">
        <ele>108.58984375</ele>
      </trkpt>
      <trkpt lat="41.624912275001407" lon="-8.789290906861424">
        <ele>108.89453125</ele>
      </trkpt>
      <trkpt lat="41.624949323013425" lon="-8.789237346500158">
        <ele>109.29296875</ele>
      </trkpt>
      <trkpt lat="41.624987460672855" lon="-8.789184289053082">
        <ele>109.69140625</ele>
      </trkpt>
      <trkpt lat="41.625023083761334" lon="-8.789132237434387">
        <ele>110.0234375</ele>
      </trkpt>
      <trkpt lat="41.625062813982368" lon="-8.789078509435058">
        <ele>110.40625</ele>
      </trkpt>
      <trkpt lat="41.625105477869511" lon="-8.789032073691487">
        <ele>110.890625</ele>
      </trkpt>
      <trkpt lat="41.625138837844133" lon="-8.788974657654762">
        <ele>111.0625</ele>
      </trkpt>
      <trkpt lat="41.625172784551978" lon="-8.788906680420041">
        <ele>111.12890625</ele>
      </trkpt>
      <trkpt lat="41.625202456489205" lon="-8.788842391222715">
        <ele>111.12109375</ele>
      </trkpt>
      <trkpt lat="41.625234726816416" lon="-8.78877516835928">
        <ele>111.34765625</ele>
      </trkpt>
      <trkpt lat="41.625264985486865" lon="-8.788713645190001">
        <ele>111.7421875</ele>
      </trkpt>
      <trkpt lat="41.625299183651805" lon="-8.788654468953609">
        <ele>112.20703125</ele>
      </trkpt>
      <trkpt lat="41.625335728749633" lon="-8.788644997403026">
        <ele>112.859375</ele>
      </trkpt>
      <trkpt lat="41.625335644930601" lon="-8.788722362369299">
        <ele>113.109375</ele>
      </trkpt>
      <trkpt lat="41.625324580818415" lon="-8.788794698193669">
        <ele>113.12890625</ele>
      </trkpt>
      <trkpt lat="41.625297171995044" lon="-8.788871811702847">
        <ele>113.24609375</ele>
      </trkpt>
      <trkpt lat="41.625256016850471" lon="-8.78895303234458">
        <ele>113.21484375</ele>
      </trkpt>
      <trkpt lat="41.625226931646466" lon="-8.789021596312523">
        <ele>113.27734375</ele>
      </trkpt>
      <trkpt lat="41.625201115384698" lon="-8.789101140573621">
        <ele>113.48828125</ele>
      </trkpt>
      <trkpt lat="41.625172700732946" lon="-8.789174985140562">
        <ele>113.56640625</ele>
      </trkpt>
      <trkpt lat="41.625150153413415" lon="-8.789242375642061">
        <ele>113.6875</ele>
      </trkpt>
      <trkpt lat="41.625124588608742" lon="-8.78930876031518">
        <ele>113.71875</ele>
      </trkpt>
      <trkpt lat="41.625096341595054" lon="-8.789371959865093">
        <ele>113.640625</ele>
      </trkpt>
      <trkpt lat="41.625071195885539" lon="-8.7894406914711">
        <ele>113.66015625</ele>
      </trkpt>
      <trkpt lat="41.625052001327276" lon="-8.789508836343884">
        <ele>113.79296875</ele>
      </trkpt>
      <trkpt lat="41.625045295804739" lon="-8.78958192653954">
        <ele>114.24609375</ele>
      </trkpt>
      <trkpt lat="41.625056024640799" lon="-8.789654932916164">
        <ele>115.1640625</ele>
      </trkpt>
      <trkpt lat="41.625071866437793" lon="-8.789725005626678">
        <ele>116.48828125</ele>
      </trkpt>
      <trkpt lat="41.625121654942632" lon="-8.789755515754223">
        <ele>118.15625</ele>
      </trkpt>
      <trkpt lat="41.625174712389708" lon="-8.789768759161234">
        <ele>119.69140625</ele>
      </trkpt>
      <trkpt lat="41.625228188931942" lon="-8.789777560159564">
        <ele>121.1875</ele>
      </trkpt>
      <trkpt lat="41.625283760949969" lon="-8.789793318137527">
        <ele>122.85546875</ele>
      </trkpt>
      <trkpt lat="41.625339835882187" lon="-8.789802705869079">
        <ele>124.453125</ele>
      </trkpt>
      <trkpt lat="41.625399263575673" lon="-8.789789294824004">
        <ele>125.7578125</ele>
      </trkpt>
      <trkpt lat="41.625454667955637" lon="-8.789766076952219">
        <ele>126.765625</ele>
      </trkpt>
      <trkpt lat="41.625512754544616" lon="-8.789763394743204">
        <ele>127.78125</ele>
      </trkpt>
      <trkpt lat="41.62556815892458" lon="-8.789776219055057">
        <ele>128.8671875</ele>
      </trkpt>
      <trkpt lat="41.625626077875495" lon="-8.789789378643036">
        <ele>129.9921875</ele>
      </trkpt>
      <trkpt lat="41.625680224969983" lon="-8.789783259853721">
        <ele>130.71875</ele>
      </trkpt>
      <trkpt lat="41.625715848058462" lon="-8.789719054475427">
        <ele>130.1328125</ele>
      </trkpt>
      <trkpt lat="41.62574895657599" lon="-8.789656944572926">
        <ele>129.5546875</ele>
      </trkpt>
      <trkpt lat="41.625790363177657" lon="-8.789610341191292">
        <ele>129.61328125</ele>
      </trkpt>
      <trkpt lat="41.62584325298667" lon="-8.789566336199641">
        <ele>129.9609375</ele>
      </trkpt>
      <trkpt lat="41.625904440879822" lon="-8.78952325321734">
        <ele>130.453125</ele>
      </trkpt>
      <trkpt lat="41.6259556543082" lon="-8.789486959576607">
        <ele>130.859375</ele>
      </trkpt>
      <trkpt lat="41.626007035374641" lon="-8.789455108344555">
        <ele>131.31640625</ele>
      </trkpt>
      <trkpt lat="41.626060931012034" lon="-8.789432309567928">
        <ele>131.91015625</ele>
      </trkpt>
      <trkpt lat="41.626115748658776" lon="-8.78941579721868">
        <ele>132.58984375</ele>
      </trkpt>
      <trkpt lat="41.626171907410026" lon="-8.78939475864172">
        <ele>133.23828125</ele>
      </trkpt>
      <trkpt lat="41.626232173293829" lon="-8.789372714236379">
        <ele>133.94140625</ele>
      </trkpt>
      <trkpt lat="41.62629671394825" lon="-8.789347149431705">
        <ele>134.671875</ele>
      </trkpt>
      <trkpt lat="41.626352453604341" lon="-8.789328373968601">
        <ele>134.89453125</ele>
      </trkpt>
      <trkpt lat="41.626416072249413" lon="-8.789311610162258">
        <ele>135.12890625</ele>
      </trkpt>
      <trkpt lat="41.626477679237723" lon="-8.789304569363594">
        <ele>135.453125</ele>
      </trkpt>
      <trkpt lat="41.626533921808004" lon="-8.789290152490139">
        <ele>135.66796875</ele>
      </trkpt>
      <trkpt lat="41.626584213227034" lon="-8.78926039673388">
        <ele>135.6875</ele>
      </trkpt>
      <trkpt lat="41.626615226268768" lon="-8.789197029545903">
        <ele>135.234375</ele>
      </trkpt>
      <trkpt lat="41.626639449968934" lon="-8.789127795025706">
        <ele>134.6796875</ele>
      </trkpt>
      <trkpt lat="41.626654118299484" lon="-8.789055291563272">
        <ele>134.03125</ele>
      </trkpt>
      <trkpt lat="41.626685215160251" lon="-8.788984129205346">
        <ele>133.515625</ele>
      </trkpt>
      <trkpt lat="41.626708768308163" lon="-8.788919504731894">
        <ele>133.015625</ele>
      </trkpt>
      <trkpt lat="41.62672184407711" lon="-8.788845241069794">
        <ele>132.3515625</ele>
      </trkpt>
      <trkpt lat="41.626736177131534" lon="-8.78875806927681">
        <ele>131.7578125</ele>
      </trkpt>
      <trkpt lat="41.626740032806993" lon="-8.788686152547598">
        <ele>131.30859375</ele>
      </trkpt>
      <trkpt lat="41.626744559034705" lon="-8.788615325465798">
        <ele>130.87109375</ele>
      </trkpt>
      <trkpt lat="41.626721424981952" lon="-8.788551623001695">
        <ele>130.2890625</ele>
      </trkpt>
      <trkpt lat="41.626710193231702" lon="-8.788479287177324">
        <ele>129.734375</ele>
      </trkpt>
      <trkpt lat="41.626709019765258" lon="-8.788403095677495">
        <ele>129.2265625</ele>
      </trkpt>
      <trkpt lat="41.626712959259748" lon="-8.788328999653459">
        <ele>128.76171875</ele>
      </trkpt>
      <trkpt lat="41.626719413325191" lon="-8.788256496191025">
        <ele>128.328125</ele>
      </trkpt>
      <trkpt lat="41.626701643690467" lon="-8.788186674937606">
        <ele>127.75390625</ele>
      </trkpt>
      <trkpt lat="41.626683203503489" lon="-8.788104197010398">
        <ele>127.09765625</ele>
      </trkpt>
      <trkpt lat="41.626656884327531" lon="-8.788030855357647">
        <ele>126.45703125</ele>
      </trkpt>
      <trkpt lat="41.626606089994311" lon="-8.788003781810403">
        <ele>125.97265625</ele>
      </trkpt>
      <trkpt lat="41.626553786918521" lon="-8.787986598908901">
        <ele>125.546875</ele>
      </trkpt>
      <trkpt lat="41.626498885452747" lon="-8.787963967770338">
        <ele>125.1015625</ele>
      </trkpt>
      <trkpt lat="41.626438200473785" lon="-8.787958770990372">
        <ele>124.72265625</ele>
      </trkpt>
      <trkpt lat="41.626380365341902" lon="-8.787963883951306">
        <ele>124.3984375</ele>
      </trkpt>
      <trkpt lat="41.626322781667113" lon="-8.787974445149302">
        <ele>124.09765625</ele>
      </trkpt>
      <trkpt lat="41.626263353973627" lon="-8.78798115067184">
        <ele>123.4765625</ele>
      </trkpt>
      <trkpt lat="41.626210464164615" lon="-8.78796405158937">
        <ele>122.71484375</ele>
      </trkpt>
      <trkpt lat="41.626165034249425" lon="-8.787920884788036">
        <ele>121.9765625</ele>
      </trkpt>
      <trkpt lat="41.626123879104853" lon="-8.787871515378356">
        <ele>121.2890625</ele>
      </trkpt>
      <trkpt lat="41.62607342004776" lon="-8.787800939753652">
        <ele>120.4296875</ele>
      </trkpt>
      <trkpt lat="41.626030253246427" lon="-8.78774905577302">
        <ele>119.73828125</ele>
      </trkpt>
      <trkpt lat="41.625985829159617" lon="-8.787691304460168">
        <ele>119.0234375</ele>
      </trkpt>
      <trkpt lat="41.625942913815379" lon="-8.787637408822775">
        <ele>118.35546875</ele>
      </trkpt>
      <trkpt lat="41.625906871631742" lon="-8.78757806494832">
        <ele>117.76953125</ele>
      </trkpt>
      <trkpt lat="41.625871751457453" lon="-8.787514865398407">
        <ele>117.1953125</ele>
      </trkpt>
      <trkpt lat="41.625839481130242" lon="-8.78744320012629">
        <ele>116.65234375</ele>
      </trkpt>
      <trkpt lat="41.625813245773315" lon="-8.787364074960351">
        <ele>116.171875</ele>
      </trkpt>
      <trkpt lat="41.625793045386672" lon="-8.787294672802091">
        <ele>115.79296875</ele>
      </trkpt>
      <trkpt lat="41.625770917162299" lon="-8.787198448553681">
        <ele>115.34765625</ele>
      </trkpt>
      <trkpt lat="41.625755410641432" lon="-8.787125609815121">
        <ele>114.99609375</ele>
      </trkpt>
      <trkpt lat="41.625734204426408" lon="-8.78703617490828">
        <ele>114.4453125</ele>
      </trkpt>
      <trkpt lat="41.625719033181667" lon="-8.786962581798434">
        <ele>114.015625</ele>
      </trkpt>
      <trkpt lat="41.625696485862136" lon="-8.786895778030157">
        <ele>113.53125</ele>
      </trkpt>
      <trkpt lat="41.625657677650452" lon="-8.786841882392764">
        <ele>112.91796875</ele>
      </trkpt>
      <trkpt lat="41.625615768134594" lon="-8.786787400022149">
        <ele>112.26953125</ele>
      </trkpt>
      <trkpt lat="41.625570086762309" lon="-8.786753285676241">
        <ele>111.65234375</ele>
      </trkpt>
      <trkpt lat="41.625516191124916" lon="-8.786748424172401">
        <ele>111.0546875</ele>
      </trkpt>
      <trkpt lat="41.625454500317574" lon="-8.78674540668726">
        <ele>110.3046875</ele>
      </trkpt>
      <trkpt lat="41.625394150614738" lon="-8.786741886287928">
        <ele>109.38671875</ele>
      </trkpt>
      <trkpt lat="41.625340338796377" lon="-8.786721769720316">
        <ele>108.5078125</ele>
      </trkpt>
      <trkpt lat="41.625307062640786" lon="-8.786664605140686">
        <ele>107.81640625</ele>
      </trkpt>
      <trkpt lat="41.625306308269501" lon="-8.786589922383428">
        <ele>107.5546875</ele>
      </trkpt>
      <trkpt lat="41.62531360052526" lon="-8.786512138321996">
        <ele>107.3984375</ele>
      </trkpt>
      <trkpt lat="41.625344697386026" lon="-8.786419685930014">
        <ele>107.5390625</ele>
      </trkpt>
      <trkpt lat="41.625380236655474" lon="-8.786331173032522">
        <ele>107.75</ele>
      </trkpt>
      <trkpt lat="41.625417619943619" lon="-8.786244168877602">
        <ele>108.0546875</ele>
      </trkpt>
      <trkpt lat="41.625449638813734" lon="-8.786182980984449">
        <ele>108.37109375</ele>
      </trkpt>
      <trkpt lat="41.625488111749291" lon="-8.786113327369094">
        <ele>108.6953125</ele>
      </trkpt>
      <trkpt lat="41.625526333227754" lon="-8.786058342084289">
        <ele>108.9609375</ele>
      </trkpt>
      <trkpt lat="41.625578803941607" lon="-8.786016851663589">
        <ele>109.40625</ele>
      </trkpt>
      <trkpt lat="41.625632951036096" lon="-8.785995058715343">
        <ele>109.91015625</ele>
      </trkpt>
      <trkpt lat="41.625685840845108" lon="-8.785968068987131">
        <ele>110.3828125</ele>
      </trkpt>
      <trkpt lat="41.625739652663469" lon="-8.785942001268268">
        <ele>110.8671875</ele>
      </trkpt>
      <trkpt lat="41.62579832598567" lon="-8.785918364301324">
        <ele>111.3984375</ele>
      </trkpt>
      <trkpt lat="41.625853981822729" lon="-8.785909479483962">
        <ele>111.9453125</ele>
      </trkpt>
      <trkpt lat="41.625912990421057" lon="-8.785907803103328">
        <ele>112.54296875</ele>
      </trkpt>
      <trkpt lat="41.625967472791672" lon="-8.785906294360757">
        <ele>113.09375</ele>
      </trkpt>
      <trkpt lat="41.626025810837746" lon="-8.78589816391468">
        <ele>113.6640625</ele>
      </trkpt>
      <trkpt lat="41.626084819436073" lon="-8.78589816391468">
        <ele>114.265625</ele>
      </trkpt>
      <trkpt lat="41.626140894368291" lon="-8.785896403715014">
        <ele>114.83203125</ele>
      </trkpt>
      <trkpt lat="41.626197639852762" lon="-8.785899672657251">
        <ele>115.421875</ele>
      </trkpt>
      <trkpt lat="41.626250948756933" lon="-8.785917358472943">
        <ele>116.03125</ele>
      </trkpt>
      <trkpt lat="41.626303251832724" lon="-8.785943342372775">
        <ele>116.66015625</ele>
      </trkpt>
      <trkpt lat="41.626353124156594" lon="-8.785974103957415">
        <ele>116.671875</ele>
      </trkpt>
      <trkpt lat="41.626408277079463" lon="-8.785994304344058">
        <ele>116.62890625</ele>
      </trkpt>
      <trkpt lat="41.626466112211347" lon="-8.786010565236211">
        <ele>116.57421875</ele>
      </trkpt>
      <trkpt lat="41.626521935686469" lon="-8.786028921604156">
        <ele>116.53515625</ele>
      </trkpt>
      <trkpt lat="41.626581195741892" lon="-8.786041578277946">
        <ele>116.47265625</ele>
      </trkpt>
      <trkpt lat="41.626637186855078" lon="-8.786060102283955">
        <ele>116.4453125</ele>
      </trkpt>
      <trkpt lat="41.626690663397312" lon="-8.786072758957744">
        <ele>116.40234375</ele>
      </trkpt>
      <trkpt lat="41.626750426366925" lon="-8.786067645996809">
        <ele>116.26171875</ele>
      </trkpt>
      <trkpt lat="41.626802980899811" lon="-8.786046355962753">
        <ele>116.0546875</ele>
      </trkpt>
      <trkpt lat="41.626853691413999" lon="-8.786017773672938">
        <ele>115.80859375</ele>
      </trkpt>
      <trkpt lat="41.626891829073429" lon="-8.785955915227532">
        <ele>115.40234375</ele>
      </trkpt>
      <trkpt lat="41.626917980611324" lon="-8.785892548039556">
        <ele>115.00390625</ele>
      </trkpt>
      <trkpt lat="41.626931391656399" lon="-8.785821804776788">
        <ele>114.5859375</ele>
      </trkpt>
      <trkpt lat="41.62693977355957" lon="-8.785749804228544">
        <ele>114.17578125</ele>
      </trkpt>
      <trkpt lat="41.626955531537533" lon="-8.785658944398165">
        <ele>113.6328125</ele>
      </trkpt>
      <trkpt lat="41.62696709856391" lon="-8.785584764555097">
        <ele>113.1875</ele>
      </trkpt>
      <trkpt lat="41.626989897340536" lon="-8.785511422902346">
        <ele>112.703125</ele>
      </trkpt>
      <trkpt lat="41.627018311992288" lon="-8.785449480637908">
        <ele>112.1953125</ele>
      </trkpt>
      <trkpt lat="41.62703650072217" lon="-8.78538066521287">
        <ele>111.61328125</ele>
      </trkpt>
      <trkpt lat="41.627037338912487" lon="-8.785303048789501">
        <ele>111.03125</ele>
      </trkpt>
      <trkpt lat="41.627014456316829" lon="-8.78522576764226">
        <ele>110.515625</ele>
      </trkpt>
      <trkpt lat="41.626992495730519" lon="-8.78515443764627">
        <ele>110.03515625</ele>
      </trkpt>
      <trkpt lat="41.626972295343876" lon="-8.785085370764136">
        <ele>109.55859375</ele>
      </trkpt>
      <trkpt lat="41.626943880692124" lon="-8.785016052424908">
        <ele>109.08984375</ele>
      </trkpt>
      <trkpt lat="41.626917058601975" lon="-8.784936927258968">
        <ele>108.53125</ele>
      </trkpt>
      <trkpt lat="41.626897947862744" lon="-8.784861490130424">
        <ele>107.9765625</ele>
      </trkpt>
      <trkpt lat="41.626871963962913" lon="-8.784767109900713">
        <ele>107.26953125</ele>
      </trkpt>
      <trkpt lat="41.626845058053732" lon="-8.784674573689699">
        <ele>106.56640625</ele>
      </trkpt>
      <trkpt lat="41.626827288419008" lon="-8.784606847912073">
        <ele>105.828125</ele>
      </trkpt>
      <trkpt lat="41.626828378066421" lon="-8.784536523744464">
        <ele>104.890625</ele>
      </trkpt>
      <trkpt lat="41.626851344481111" lon="-8.784473408013582">
        <ele>104.03515625</ele>
      </trkpt>
      <trkpt lat="41.626906413584948" lon="-8.784462679177523">
        <ele>103.87109375</ele>
      </trkpt>
      <trkpt lat="41.626964081078768" lon="-8.78446452319622">
        <ele>103.87109375</ele>
      </trkpt>
      <trkpt lat="41.627019066363573" lon="-8.784461338073015">
        <ele>103.80859375</ele>
      </trkpt>
      <trkpt lat="41.627072962000966" lon="-8.784442814067006">
        <ele>103.5625</ele>
      </trkpt>
      <trkpt lat="41.627126522362232" lon="-8.784437114372849">
        <ele>103.4765625</ele>
      </trkpt>
      <trkpt lat="41.627181926742196" lon="-8.78442982211709">
        <ele>103.4140625</ele>
      </trkpt>
      <trkpt lat="41.627236073836684" lon="-8.784420769661665">
        <ele>103.33984375</ele>
      </trkpt>
      <trkpt lat="41.627297680824995" lon="-8.784400653094053">
        <ele>103.1484375</ele>
      </trkpt>
      <trkpt lat="41.627352247014642" lon="-8.784377183765173">
        <ele>102.921875</ele>
      </trkpt>
      <trkpt lat="41.62740346044302" lon="-8.784354468807578">
        <ele>102.70703125</ele>
      </trkpt>
      <trkpt lat="41.627456098794937" lon="-8.784327981993556">
        <ele>102.45703125</ele>
      </trkpt>
      <trkpt lat="41.627511251717806" lon="-8.784300656989217">
        <ele>102.20703125</ele>
      </trkpt>
      <trkpt lat="41.627562465146184" lon="-8.784256400540471">
        <ele>101.78125</ele>
      </trkpt>
      <trkpt lat="41.627609403803945" lon="-8.784218346700072">
        <ele>101.4296875</ele>
      </trkpt>
      <trkpt lat="41.627658354118466" lon="-8.784172916784883">
        <ele>101.015625</ele>
      </trkpt>
      <trkpt lat="41.62770688533783" lon="-8.784133773297071">
        <ele>100.67578125</ele>
      </trkpt>
      <trkpt lat="41.627760361880064" lon="-8.784086750820279">
        <ele>100.2734375</ele>
      </trkpt>
      <trkpt lat="41.627806210890412" lon="-8.784031933173537">
        <ele>99.796875</ele>
      </trkpt>
      <trkpt lat="41.627868739888072" lon="-8.78395926207304">
        <ele>99.1875</ele>
      </trkpt>
      <trkpt lat="41.627906961366534" lon="-8.783905450254679">
        <ele>98.73828125</ele>
      </trkpt>
      <trkpt lat="41.627943757921457" lon="-8.783839149400592">
        <ele>98.171875</ele>
      </trkpt>
      <trkpt lat="41.62798248231411" lon="-8.783785672858357">
        <ele>97.79296875</ele>
      </trkpt>
      <trkpt lat="41.628021039068699" lon="-8.783725071698427">
        <ele>97.45703125</ele>
      </trkpt>
      <trkpt lat="41.628053979948163" lon="-8.783661369234324">
        <ele>97.03125</ele>
      </trkpt>
      <trkpt lat="41.628085663542151" lon="-8.783593308180571">
        <ele>96.54296875</ele>
      </trkpt>
      <trkpt lat="41.628120029345155" lon="-8.783536227419972">
        <ele>96.19140625</ele>
      </trkpt>
      <trkpt lat="41.628126399591565" lon="-8.783521056175232">
        <ele>96.078125</ele>
      </trkpt>
      <trkpt lat="41.628165543079376" lon="-8.783274544402957">
        <ele>93.65625</ele>
      </trkpt>
      <trkpt lat="41.628185659646988" lon="-8.783192066475749">
        <ele>92.890625</ele>
      </trkpt>
      <trkpt lat="41.628201669082046" lon="-8.783118389546871">
        <ele>92.19140625</ele>
      </trkpt>
      <trkpt lat="41.628215247765183" lon="-8.78303524106741">
        <ele>91.36328125</ele>
      </trkpt>
      <trkpt lat="41.628227066248655" lon="-8.78295661881566">
        <ele>90.62109375</ele>
      </trkpt>
      <trkpt lat="41.628242321312428" lon="-8.782878080382943">
        <ele>90.0078125</ele>
      </trkpt>
      <trkpt lat="41.628262605518103" lon="-8.782803565263748">
        <ele>89.47265625</ele>
      </trkpt>
      <trkpt lat="41.628283811733127" lon="-8.782730726525187">
        <ele>88.96484375</ele>
      </trkpt>
      <trkpt lat="41.628305353224277" lon="-8.782652942463756">
        <ele>88.41796875</ele>
      </trkpt>
      <trkpt lat="41.628323625773191" lon="-8.782581612467766">
        <ele>87.91015625</ele>
      </trkpt>
      <trkpt lat="41.628342820331454" lon="-8.782509863376617">
        <ele>87.40625</ele>
      </trkpt>
      <trkpt lat="41.62836411036551" lon="-8.782443311065435">
        <ele>86.97265625</ele>
      </trkpt>
      <trkpt lat="41.628383472561836" lon="-8.782370975241065">
        <ele>86.4765625</ele>
      </trkpt>
      <trkpt lat="41.62840417586267" lon="-8.782301070168614">
        <ele>86.015625</ele>
      </trkpt>
      <trkpt lat="41.628425968810916" lon="-8.782231332734227">
        <ele>85.5703125</ele>
      </trkpt>
      <trkpt lat="41.628455054014921" lon="-8.782166624441743">
        <ele>85.234375</ele>
      </trkpt>
      <trkpt lat="41.628482714295387" lon="-8.782100407406688">
        <ele>84.99609375</ele>
      </trkpt>
      <trkpt lat="41.628515487536788" lon="-8.78203553147614">
        <ele>84.859375</ele>
      </trkpt>
      <trkpt lat="41.628548763692379" lon="-8.781977109611034">
        <ele>84.76953125</ele>
      </trkpt>
      <trkpt lat="41.628587655723095" lon="-8.781914664432406">
        <ele>84.71484375</ele>
      </trkpt>
      <trkpt lat="41.628629565238953" lon="-8.781862361356616">
        <ele>84.75390625</ele>
      </trkpt>
      <trkpt lat="41.628676671534777" lon="-8.781819194555283">
        <ele>84.90234375</ele>
      </trkpt>
      <trkpt lat="41.628711624071002" lon="-8.781761610880494">
        <ele>84.859375</ele>
      </trkpt>
      <trkpt lat="41.628727130591869" lon="-8.781689777970314">
        <ele>84.55859375</ele>
      </trkpt>
      <trkpt lat="41.62873886525631" lon="-8.781611071899533">
        <ele>84.18359375</ele>
      </trkpt>
      <trkpt lat="41.628755377605557" lon="-8.781534126028419">
        <ele>83.87109375</ele>
      </trkpt>
      <trkpt lat="41.628778344020247" lon="-8.781465981155634">
        <ele>83.671875</ele>
      </trkpt>
      <trkpt lat="41.628816816955805" lon="-8.78139398060739">
        <ele>83.55859375</ele>
      </trkpt>
      <trkpt lat="41.628856547176838" lon="-8.781334972009063">
        <ele>83.44140625</ele>
      </trkpt>
      <trkpt lat="41.628899294883013" lon="-8.781282752752304">
        <ele>83.32421875</ele>
      </trkpt>
      <trkpt lat="41.628942042589188" lon="-8.781231623142958">
        <ele>83.17578125</ele>
      </trkpt>
      <trkpt lat="41.628989148885012" lon="-8.781173452734947">
        <ele>82.9765625</ele>
      </trkpt>
      <trkpt lat="41.629038769751787" lon="-8.781124502420425">
        <ele>82.83984375</ele>
      </trkpt>
      <trkpt lat="41.629085540771484" lon="-8.781082509085536">
        <ele>82.73046875</ele>
      </trkpt>
      <trkpt lat="41.629134910181165" lon="-8.78104411996901">
        <ele>82.64453125</ele>
      </trkpt>
      <trkpt lat="41.62918746471405" lon="-8.781013106927276">
        <ele>82.62109375</ele>
      </trkpt>
      <trkpt lat="41.629245383664966" lon="-8.78099181689322">
        <ele>82.69921875</ele>
      </trkpt>
      <trkpt lat="41.629303637892008" lon="-8.780973041430116">
        <ele>82.79296875</ele>
      </trkpt>
      <trkpt lat="41.62936239503324" lon="-8.78095124848187">
        <ele>82.84765625</ele>
      </trkpt>
      <trkpt lat="41.62941562011838" lon="-8.780928868800402">
        <ele>82.86328125</ele>
      </trkpt>
      <trkpt lat="41.629462391138077" lon="-8.780892491340637">
        <ele>82.69921875</ele>
      </trkpt>
      <trkpt lat="41.629505725577474" lon="-8.780848486348987">
        <ele>82.4296875</ele>
      </trkpt>
      <trkpt lat="41.629556436091661" lon="-8.78081101924181">
        <ele>82.23828125</ele>
      </trkpt>
      <trkpt lat="41.629615863785148" lon="-8.780764499679208">
        <ele>81.96484375</ele>
      </trkpt>
      <trkpt lat="41.629667915403843" lon="-8.780717477202415">
        <ele>81.71875</ele>
      </trkpt>
      <trkpt lat="41.62972935475409" lon="-8.780661905184388">
        <ele>81.453125</ele>
      </trkpt>
      <trkpt lat="41.629772689193487" lon="-8.78061898984015">
        <ele>81.203125</ele>
      </trkpt>
      <trkpt lat="41.629815017804503" lon="-8.780572721734643">
        <ele>80.8984375</ele>
      </trkpt>
      <trkpt lat="41.629861872643232" lon="-8.780517233535647">
        <ele>80.484375</ele>
      </trkpt>
      <trkpt lat="41.629907302558422" lon="-8.780472222715616">
        <ele>80.1796875</ele>
      </trkpt>
      <trkpt lat="41.629953403025866" lon="-8.780432995408773">
        <ele>79.9609375</ele>
      </trkpt>
      <trkpt lat="41.630012411624193" lon="-8.780386978760362">
        <ele>79.71484375</ele>
      </trkpt>
      <trkpt lat="41.630071420222521" lon="-8.780333586037159">
        <ele>79.37890625</ele>
      </trkpt>
      <trkpt lat="41.630121627822518" lon="-8.780285473912954">
        <ele>79.05859375</ele>
      </trkpt>
      <trkpt lat="41.630178289487958" lon="-8.780242390930653">
        <ele>78.8125</ele>
      </trkpt>
      <trkpt lat="41.630228580906987" lon="-8.780202744528651">
        <ele>78.57421875</ele>
      </trkpt>
      <trkpt lat="41.630279794335365" lon="-8.780164858326316">
        <ele>78.35546875</ele>
      </trkpt>
      <trkpt lat="41.630331007763743" lon="-8.780129905790091">
        <ele>78.1640625</ele>
      </trkpt>
      <trkpt lat="41.630384484305978" lon="-8.780100401490927">
        <ele>78.04296875</ele>
      </trkpt>
      <trkpt lat="41.630445085465908" lon="-8.780077351257205">
        <ele>78.02734375</ele>
      </trkpt>
      <trkpt lat="41.630504177883267" lon="-8.780058156698942">
        <ele>78.10546875</ele>
      </trkpt>
      <trkpt lat="41.63055757060647" lon="-8.780030580237508">
        <ele>78.078125</ele>
      </trkpt>
      <trkpt lat="41.630614819005132" lon="-8.779994118958712">
        <ele>77.94140625</ele>
      </trkpt>
      <trkpt lat="41.630664272233844" lon="-8.779948437586427">
        <ele>77.6171875</ele>
      </trkpt>
      <trkpt lat="41.630713641643524" lon="-8.779892697930336">
        <ele>77.1328125</ele>
      </trkpt>
      <trkpt lat="41.630758568644524" lon="-8.77984844148159">
        <ele>76.75390625</ele>
      </trkpt>
      <trkpt lat="41.630804166197777" lon="-8.779806196689606">
        <ele>76.37890625</ele>
      </trkpt>
      <trkpt lat="41.630844399333" lon="-8.779754061251879">
        <ele>75.8203125</ele>
      </trkpt>
      <trkpt lat="41.630874741822481" lon="-8.779679629951715">
        <ele>74.87890625</ele>
      </trkpt>
      <trkpt lat="41.630898797884583" lon="-8.77961291000247">
        <ele>74.27734375</ele>
      </trkpt>
      <trkpt lat="41.630922686308622" lon="-8.779545100405812">
        <ele>73.8671875</ele>
      </trkpt>
      <trkpt lat="41.630956046283245" lon="-8.77949271351099">
        <ele>73.5859375</ele>
      </trkpt>
      <trkpt lat="41.631014300510287" lon="-8.779491623863578">
        <ele>73.76171875</ele>
      </trkpt>
      <trkpt lat="41.631073392927647" lon="-8.779486678540707">
        <ele>73.91015625</ele>
      </trkpt>
      <trkpt lat="41.631135251373053" lon="-8.779478631913662">
        <ele>74.0390625</ele>
      </trkpt>
      <trkpt lat="41.631194511428475" lon="-8.779471926391125">
        <ele>74.16796875</ele>
      </trkpt>
      <trkpt lat="41.631251089274883" lon="-8.779471842572093">
        <ele>74.34375</ele>
      </trkpt>
      <trkpt lat="41.631304984912276" lon="-8.779479889199138">
        <ele>74.58203125</ele>
      </trkpt>
      <trkpt lat="41.631358461454511" lon="-8.779494054615498">
        <ele>74.921875</ele>
      </trkpt>
      <trkpt lat="41.631409926339984" lon="-8.779512494802475">
        <ele>75.296875</ele>
      </trkpt>
      <trkpt lat="41.631437670439482" lon="-8.779525319114327">
        <ele>75.52734375</ele>
      </trkpt>
      <trkpt lat="41.631818544119596" lon="-8.779678121209145">
        <ele>78.90625</ele>
      </trkpt>
      <trkpt lat="41.631818544119596" lon="-8.779676863923669">
        <ele>78.88671875</ele>
      </trkpt>
      <trkpt lat="41.632094644010067" lon="-8.779737884178758">
        <ele>81.078125</ele>
      </trkpt>
      <trkpt lat="41.632354650646448" lon="-8.779833102598786">
        <ele>83.1015625</ele>
      </trkpt>
      <trkpt lat="41.632574507966638" lon="-8.779920190572739">
        <ele>84.76953125</ele>
      </trkpt>
      <trkpt lat="41.632628990337253" lon="-8.779939971864223">
        <ele>85.15234375</ele>
      </trkpt>
      <trkpt lat="41.632678527384996" lon="-8.779972828924656">
        <ele>85.69921875</ele>
      </trkpt>
      <trkpt lat="41.632729237899184" lon="-8.780007194727659">
        <ele>86.26171875</ele>
      </trkpt>
      <trkpt lat="41.632781960070133" lon="-8.780025718733668">
        <ele>86.609375</ele>
      </trkpt>
      <trkpt lat="41.632835101336241" lon="-8.780035441741347">
        <ele>86.83984375</ele>
      </trkpt>
      <trkpt lat="41.6328907571733" lon="-8.780042231082916">
        <ele>87.03125</ele>
      </trkpt>
      <trkpt lat="41.632947251200676" lon="-8.780048936605453">
        <ele>87.2265625</ele>
      </trkpt>
      <trkpt lat="41.633013300597668" lon="-8.780054049566388">
        <ele>87.24609375</ele>
      </trkpt>
      <trkpt lat="41.633067447692156" lon="-8.780057402327657">
        <ele>87.19140625</ele>
      </trkpt>
      <trkpt lat="41.633124025538564" lon="-8.780060755088925">
        <ele>87.13671875</ele>
      </trkpt>
      <trkpt lat="41.633182531222701" lon="-8.780069220811129">
        <ele>87.140625</ele>
      </trkpt>
      <trkpt lat="41.633238103240728" lon="-8.780081374570727">
        <ele>87.1953125</ele>
      </trkpt>
      <trkpt lat="41.633295435458422" lon="-8.780090594664216">
        <ele>87.20703125</ele>
      </trkpt>
      <trkpt lat="41.63335201330483" lon="-8.780101491138339">
        <ele>87.2421875</ele>
      </trkpt>
      <trkpt lat="41.633406076580286" lon="-8.780115321278572">
        <ele>87.31640625</ele>
      </trkpt>
      <trkpt lat="41.633467096835375" lon="-8.780129905790091">
        <ele>87.3828125</ele>
      </trkpt>
      <trkpt lat="41.633530715480447" lon="-8.780145160853863">
        <ele>87.453125</ele>
      </trkpt>
      <trkpt lat="41.633594250306487" lon="-8.780158488079906">
        <ele>87.49609375</ele>
      </trkpt>
      <trkpt lat="41.633651414886117" lon="-8.780173240229487">
        <ele>87.56640625</ele>
      </trkpt>
      <trkpt lat="41.633710507303476" lon="-8.780182208865881">
        <ele>87.55859375</ele>
      </trkpt>
      <trkpt lat="41.633766666054726" lon="-8.780184052884579">
        <ele>87.46875</ele>
      </trkpt>
      <trkpt lat="41.63382550701499" lon="-8.780180448666215">
        <ele>87.23828125</ele>
      </trkpt>
      <trkpt lat="41.63388803601265" lon="-8.780176592990756">
        <ele>86.890625</ele>
      </trkpt>
      <trkpt lat="41.633952325209975" lon="-8.780174665153027">
        <ele>86.55859375</ele>
      </trkpt>
      <trkpt lat="41.634014854207635" lon="-8.780170809477568">
        <ele>86.2109375</ele>
      </trkpt>
      <trkpt lat="41.634074030444026" lon="-8.78016360104084">
        <ele>85.83984375</ele>
      </trkpt>
      <trkpt lat="41.634132703766227" lon="-8.780158152803779">
        <ele>85.4921875</ele>
      </trkpt>
      <trkpt lat="41.634187521412969" lon="-8.780151279643178">
        <ele>85.1484375</ele>
      </trkpt>
      <trkpt lat="41.634248122572899" lon="-8.780151279643178">
        <ele>84.85546875</ele>
      </trkpt>
      <trkpt lat="41.634313333779573" lon="-8.780155219137669">
        <ele>84.58984375</ele>
      </trkpt>
      <trkpt lat="41.634372090920806" lon="-8.780169049277902">
        <ele>84.4765625</ele>
      </trkpt>
      <trkpt lat="41.634425986558199" lon="-8.780183885246515">
        <ele>84.39453125</ele>
      </trkpt>
      <trkpt lat="41.634486084803939" lon="-8.780199391767383">
        <ele>84.29296875</ele>
      </trkpt>
      <trkpt lat="41.634546937420964" lon="-8.780201068148017">
        <ele>84.01953125</ele>
      </trkpt>
      <trkpt lat="41.634604018181562" lon="-8.780201068148017">
        <ele>83.74609375</ele>
      </trkpt>
      <trkpt lat="41.634661182761192" lon="-8.780186735093594">
        <ele>83.33203125</ele>
      </trkpt>
      <trkpt lat="41.634722370654345" lon="-8.780173491686583">
        <ele>82.953125</ele>
      </trkpt>
      <trkpt lat="41.634782049804926" lon="-8.780159913003445">
        <ele>82.57421875</ele>
      </trkpt>
      <trkpt lat="41.634837705641985" lon="-8.780149267986417">
        <ele>82.24609375</ele>
      </trkpt>
      <trkpt lat="41.634893361479044" lon="-8.780147675424814">
        <ele>82.02734375</ele>
      </trkpt>
      <trkpt lat="41.634946586564183" lon="-8.780161254107952">
        <ele>82</ele>
      </trkpt>
      <trkpt lat="41.635002410039306" lon="-8.780177598819137">
        <ele>81.99609375</ele>
      </trkpt>
      <trkpt lat="41.635056557133794" lon="-8.780200313776731">
        <ele>82.0703125</ele>
      </trkpt>
      <trkpt lat="41.635108357295394" lon="-8.780224872753024">
        <ele>82.1796875</ele>
      </trkpt>
      <trkpt lat="41.635172897949815" lon="-8.780244821682572">
        <ele>82.1875</ele>
      </trkpt>
      <trkpt lat="41.635229391977191" lon="-8.780266279354692">
        <ele>82.2421875</ele>
      </trkpt>
      <trkpt lat="41.635280437767506" lon="-8.780288910493255">
        <ele>82.328125</ele>
      </trkpt>
      <trkpt lat="41.635315306484699" lon="-8.780338363721967">
        <ele>82.796875</ele>
      </trkpt>
      <trkpt lat="41.635368866845965" lon="-8.780378345400095">
        <ele>83.0859375</ele>
      </trkpt>
      <trkpt lat="41.635423852130771" lon="-8.780400976538658">
        <ele>83.16015625</ele>
      </trkpt>
      <trkpt lat="41.635478502139449" lon="-8.780408017337322">
        <ele>83.05078125</ele>
      </trkpt>
      <trkpt lat="41.63553474470973" lon="-8.780402820557356">
        <ele>82.796875</ele>
      </trkpt>
      <trkpt lat="41.635592579841614" lon="-8.780414303764701">
        <ele>82.734375</ele>
      </trkpt>
      <trkpt lat="41.635651169344783" lon="-8.780467277392745">
        <ele>83.14453125</ele>
      </trkpt>
      <trkpt lat="41.635698527097702" lon="-8.780515557155013">
        <ele>83.53515625</ele>
      </trkpt>
      <trkpt lat="41.635748399421573" lon="-8.780549839138985">
        <ele>83.75</ele>
      </trkpt>
      <trkpt lat="41.635802211239934" lon="-8.780585126951337">
        <ele>83.95703125</ele>
      </trkpt>
      <trkpt lat="41.6358592081815" lon="-8.780605830252171">
        <ele>83.98046875</ele>
      </trkpt>
      <trkpt lat="41.635913690552115" lon="-8.780632233247161">
        <ele>84.07421875</ele>
      </trkpt>
      <trkpt lat="41.635969681665301" lon="-8.780643297359347">
        <ele>83.984375</ele>
      </trkpt>
      <trkpt lat="41.636021649464965" lon="-8.780619744211435">
        <ele>83.5234375</ele>
      </trkpt>
      <trkpt lat="41.636075712740421" lon="-8.780611697584391">
        <ele>83.2265625</ele>
      </trkpt>
      <trkpt lat="41.636131871491671" lon="-8.780622510239482">
        <ele>83.1328125</ele>
      </trkpt>
      <trkpt lat="41.636191215366125" lon="-8.780643800273538">
        <ele>83.140625</ele>
      </trkpt>
      <trkpt lat="41.63624863140285" lon="-8.780671460554004">
        <ele>83.22265625</ele>
      </trkpt>
      <trkpt lat="41.636301185935736" lon="-8.780702305957675">
        <ele>83.36328125</ele>
      </trkpt>
      <trkpt lat="41.636352986097336" lon="-8.780724015086889">
        <ele>83.58984375</ele>
      </trkpt>
      <trkpt lat="41.636410653591156" lon="-8.780747400596738">
        <ele>83.81640625</ele>
      </trkpt>
      <trkpt lat="41.636466225609183" lon="-8.780739856883883">
        <ele>83.72265625</ele>
      </trkpt>
      <trkpt lat="41.636520540341735" lon="-8.780745137482882">
        <ele>83.7578125</ele>
      </trkpt>
      <trkpt lat="41.636570747941732" lon="-8.780775228515267">
        <ele>84.0234375</ele>
      </trkpt>
      <trkpt lat="41.636619614437222" lon="-8.780813869088888">
        <ele>84.34375</ele>
      </trkpt>
      <trkpt lat="41.636676443740726" lon="-8.780834907665849">
        <ele>84.484375</ele>
      </trkpt>
      <trkpt lat="41.636730590835214" lon="-8.780860304832458">
        <ele>84.65234375</ele>
      </trkpt>
      <trkpt lat="41.636763196438551" lon="-8.780871788039804">
        <ele>84.71484375</ele>
      </trkpt>
      <trkpt lat="41.636911639943719" lon="-8.780953008681536">
        <ele>85.1484375</ele>
      </trkpt>
      <trkpt lat="41.636971654370427" lon="-8.780954265967011">
        <ele>85.06640625</ele>
      </trkpt>
      <trkpt lat="41.637026639655232" lon="-8.780962396413088">
        <ele>85.0390625</ele>
      </trkpt>
      <trkpt lat="41.637085815891623" lon="-8.780967760831118">
        <ele>84.98046875</ele>
      </trkpt>
      <trkpt lat="41.637151949107647" lon="-8.780979746952653">
        <ele>85.01171875</ele>
      </trkpt>
      <trkpt lat="41.637212382629514" lon="-8.781002042815089">
        <ele>85.22265625</ele>
      </trkpt>
      <trkpt lat="41.637263596057892" lon="-8.781033726409078">
        <ele>85.46484375</ele>
      </trkpt>
      <trkpt lat="41.637314138934016" lon="-8.781066415831447">
        <ele>85.69921875</ele>
      </trkpt>
      <trkpt lat="41.637366358190775" lon="-8.781094662845135">
        <ele>85.89453125</ele>
      </trkpt>
      <trkpt lat="41.637416733428836" lon="-8.781120646744967">
        <ele>86.06640625</ele>
      </trkpt>
      <trkpt lat="41.637468365952373" lon="-8.781140428036451">
        <ele>86.19921875</ele>
      </trkpt>
      <trkpt lat="41.637527458369732" lon="-8.781160125508904">
        <ele>86.33203125</ele>
      </trkpt>
      <trkpt lat="41.637582527473569" lon="-8.781172279268503">
        <ele>86.41796875</ele>
      </trkpt>
      <trkpt lat="41.637644972652197" lon="-8.781191138550639">
        <ele>86.52734375</ele>
      </trkpt>
      <trkpt lat="41.637700041756034" lon="-8.781209159642458">
        <ele>86.62109375</ele>
      </trkpt>
      <trkpt lat="41.637754440307617" lon="-8.781228605657816">
        <ele>86.7109375</ele>
      </trkpt>
      <trkpt lat="41.637809090316296" lon="-8.781246291473508">
        <ele>86.78515625</ele>
      </trkpt>
      <trkpt lat="41.637863907963037" lon="-8.781252829357982">
        <ele>86.8203125</ele>
      </trkpt>
      <trkpt lat="41.63792023435235" lon="-8.781235814094543">
        <ele>86.79296875</ele>
      </trkpt>
      <trkpt lat="41.637974129989743" lon="-8.781209159642458">
        <ele>86.75</ele>
      </trkpt>
      <trkpt lat="41.638024589046836" lon="-8.781177392229438">
        <ele>86.7265625</ele>
      </trkpt>
      <trkpt lat="41.63807462900877" lon="-8.781139254570007">
        <ele>86.71484375</ele>
      </trkpt>
      <trkpt lat="41.638126010075212" lon="-8.781099943444133">
        <ele>86.734375</ele>
      </trkpt>
      <trkpt lat="41.638174206018448" lon="-8.781056441366673">
        <ele>86.76953125</ele>
      </trkpt>
      <trkpt lat="41.638225838541985" lon="-8.781022829934955">
        <ele>86.8515625</ele>
      </trkpt>
      <trkpt lat="41.638285517692566" lon="-8.780993996188045">
        <ele>86.97265625</ele>
      </trkpt>
      <trkpt lat="41.638339664787054" lon="-8.7809669226408">
        <ele>87.109375</ele>
      </trkpt>
      <trkpt lat="41.638389369472861" lon="-8.780938927084208">
        <ele>87.25</ele>
      </trkpt>
      <trkpt lat="41.638436643406749" lon="-8.780899113044143">
        <ele>87.421875</ele>
      </trkpt>
      <trkpt lat="41.638484168797731" lon="-8.780860137194395">
        <ele>87.6171875</ele>
      </trkpt>
      <trkpt lat="41.638531275093555" lon="-8.780818395316601">
        <ele>87.83984375</ele>
      </trkpt>
      <trkpt lat="41.638574693351984" lon="-8.780773635953665">
        <ele>88.0859375</ele>
      </trkpt>
      <trkpt lat="41.638621967285872" lon="-8.780732229351997">
        <ele>88.3671875</ele>
      </trkpt>
      <trkpt lat="41.638662116602063" lon="-8.78068252466619">
        <ele>88.66796875</ele>
      </trkpt>
      <trkpt lat="41.638699332252145" lon="-8.780631897971034">
        <ele>88.984375</ele>
      </trkpt>
      <trkpt lat="41.638728668913245" lon="-8.780570542439818">
        <ele>89.3203125</ele>
      </trkpt>
      <trkpt lat="41.638754988089204" lon="-8.780503319576383">
        <ele>89.68359375</ele>
      </trkpt>
      <trkpt lat="41.638779547065496" lon="-8.78043525852263">
        <ele>89.890625</ele>
      </trkpt>
      <trkpt lat="41.638788850978017" lon="-8.780347919091582">
        <ele>89.9453125</ele>
      </trkpt>
      <trkpt lat="41.63879388011992" lon="-8.780275247991085">
        <ele>89.98046875</ele>
      </trkpt>
      <trkpt lat="41.638778541237116" lon="-8.780207438394427">
        <ele>89.85546875</ele>
      </trkpt>
      <trkpt lat="41.638762950897217" lon="-8.780137952417135">
        <ele>89.71484375</ele>
      </trkpt>
      <trkpt lat="41.63873428478837" lon="-8.780072154477239">
        <ele>89.44140625</ele>
      </trkpt>
      <trkpt lat="41.638714335858822" lon="-8.779995460063219">
        <ele>89.21875</ele>
      </trkpt>
      <trkpt lat="41.638692291453481" lon="-8.779914239421487">
        <ele>88.9453125</ele>
      </trkpt>
      <trkpt lat="41.63867175579071" lon="-8.779823379591107">
        <ele>88.65625</ele>
      </trkpt>
      <trkpt lat="41.638649292290211" lon="-8.779752887785435">
        <ele>88.33984375</ele>
      </trkpt>
      <trkpt lat="41.638629510998726" lon="-8.779685748741031">
        <ele>88.0390625</ele>
      </trkpt>
      <trkpt lat="41.638611070811749" lon="-8.779614921659231">
        <ele>87.58203125</ele>
      </trkpt>
      <trkpt lat="41.638597911223769" lon="-8.779536802321672">
        <ele>87.00390625</ele>
      </trkpt>
      <trkpt lat="41.638591038063169" lon="-8.779458599165082">
        <ele>86.49609375</ele>
      </trkpt>
      <trkpt lat="41.638587601482868" lon="-8.779380228370428">
        <ele>86.03125</ele>
      </trkpt>
      <trkpt lat="41.638586344197392" lon="-8.77930118702352">
        <ele>85.5859375</ele>
      </trkpt>
      <trkpt lat="41.638588523492217" lon="-8.779224911704659">
        <ele>85.203125</ele>
      </trkpt>
      <trkpt lat="41.638597073033452" lon="-8.779150564223528">
        <ele>84.91796875</ele>
      </trkpt>
      <trkpt lat="41.638608053326607" lon="-8.77907395362854">
        <ele>84.65625</ele>
      </trkpt>
      <trkpt lat="41.638624146580696" lon="-8.778998097404838">
        <ele>84.47265625</ele>
      </trkpt>
      <trkpt lat="41.638640072196722" lon="-8.778926180675626">
        <ele>84.31640625</ele>
      </trkpt>
      <trkpt lat="41.638653818517923" lon="-8.778842696920037">
        <ele>84.07421875</ele>
      </trkpt>
      <trkpt lat="41.638672593981028" lon="-8.77877346239984">
        <ele>83.8671875</ele>
      </trkpt>
      <trkpt lat="41.6386947222054" lon="-8.778706239536405">
        <ele>83.64453125</ele>
      </trkpt>
      <trkpt lat="41.638715760782361" lon="-8.778634741902351">
        <ele>83.36328125</ele>
      </trkpt>
      <trkpt lat="41.63874015212059" lon="-8.778558550402522">
        <ele>83.07421875</ele>
      </trkpt>
      <trkpt lat="41.638758340850472" lon="-8.77848663367331">
        <ele>82.72265625</ele>
      </trkpt>
      <trkpt lat="41.638780636712909" lon="-8.77842066809535">
        <ele>82.4609375</ele>
      </trkpt>
      <trkpt lat="41.638794802129269" lon="-8.778351433575153">
        <ele>82.05859375</ele>
      </trkpt>
      <trkpt lat="41.638798909261823" lon="-8.778279684484005">
        <ele>81.51171875</ele>
      </trkpt>
      <trkpt lat="41.638797903433442" lon="-8.778203073889017">
        <ele>80.8515625</ele>
      </trkpt>
      <trkpt lat="41.638790443539619" lon="-8.778126798570156">
        <ele>80.125</ele>
      </trkpt>
      <trkpt lat="41.638783821836114" lon="-8.778049014508724">
        <ele>79.3984375</ele>
      </trkpt>
      <trkpt lat="41.638784995302558" lon="-8.77797307446599">
        <ele>78.75</ele>
      </trkpt>
      <trkpt lat="41.638809889554977" lon="-8.777905683964491">
        <ele>78.3125</ele>
      </trkpt>
      <trkpt lat="41.638849535956979" lon="-8.777857404202223">
        <ele>78.2734375</ele>
      </trkpt>
      <trkpt lat="41.638910723850131" lon="-8.777823373675346">
        <ele>78.62890625</ele>
      </trkpt>
      <trkpt lat="41.638961434364319" lon="-8.777795378118753">
        <ele>78.90625</ele>
      </trkpt>
      <trkpt lat="41.63901180960238" lon="-8.777766041457653">
        <ele>79.13671875</ele>
      </trkpt>
      <trkpt lat="41.639049360528588" lon="-8.777713570743799">
        <ele>78.9140625</ele>
      </trkpt>
      <trkpt lat="41.639078529551625" lon="-8.777651377022266">
        <ele>78.44140625</ele>
      </trkpt>
      <trkpt lat="41.639094958081841" lon="-8.777580047026277">
        <ele>77.6953125</ele>
      </trkpt>
      <trkpt lat="41.639106525108218" lon="-8.777509806677699">
        <ele>76.8984375</ele>
      </trkpt>
      <trkpt lat="41.639130497351289" lon="-8.77744291909039">
        <ele>76.25</ele>
      </trkpt>
      <trkpt lat="41.639171903952956" lon="-8.777378378435969">
        <ele>75.76171875</ele>
      </trkpt>
      <trkpt lat="41.639211550354958" lon="-8.777328841388226">
        <ele>75.4296875</ele>
      </trkpt>
      <trkpt lat="41.639249185100198" lon="-8.777276370674372">
        <ele>75.0078125</ele>
      </trkpt>
      <trkpt lat="41.639291262254119" lon="-8.777219289913774">
        <ele>74.53125</ele>
      </trkpt>
      <trkpt lat="41.639345996081829" lon="-8.777155419811606">
        <ele>74.0078125</ele>
      </trkpt>
      <trkpt lat="41.639388492330909" lon="-8.777104206383228">
        <ele>73.640625</ele>
      </trkpt>
      <trkpt lat="41.639429228380322" lon="-8.777055507525802">
        <ele>73.27734375</ele>
      </trkpt>
      <trkpt lat="41.639469796791673" lon="-8.777007982134819">
        <ele>72.90625</ele>
      </trkpt>
      <trkpt lat="41.639510449022055" lon="-8.776954421773553">
        <ele>72.4296875</ele>
      </trkpt>
      <trkpt lat="41.639547329396009" lon="-8.776898514479399">
        <ele>71.875</ele>
      </trkpt>
      <trkpt lat="41.63958840072155" lon="-8.776835147291422">
        <ele>71.2109375</ele>
      </trkpt>
      <trkpt lat="41.639636429026723" lon="-8.776781754568219">
        <ele>70.6875</ele>
      </trkpt>
      <trkpt lat="41.639678254723549" lon="-8.776736073195934">
        <ele>70.1796875</ele>
      </trkpt>
      <trkpt lat="41.639731395989656" lon="-8.776689972728491">
        <ele>69.70703125</ele>
      </trkpt>
      <trkpt lat="41.639778334647417" lon="-8.776653008535504">
        <ele>69.34375</ele>
      </trkpt>
      <trkpt lat="41.639826782047749" lon="-8.776606908068061">
        <ele>68.85546875</ele>
      </trkpt>
      <trkpt lat="41.639879588037729" lon="-8.776575140655041">
        <ele>68.5859375</ele>
      </trkpt>
      <trkpt lat="41.639925856143236" lon="-8.77653893083334">
        <ele>68.234375</ele>
      </trkpt>
      <trkpt lat="41.639982769265771" lon="-8.776521664112806">
        <ele>68.1875</ele>
      </trkpt>
      <trkpt lat="41.640040939673781" lon="-8.776526860892773">
        <ele>68.47265625</ele>
      </trkpt>
      <trkpt lat="41.640097349882126" lon="-8.776532225310802">
        <ele>68.75390625</ele>
      </trkpt>
      <trkpt lat="41.640154514461756" lon="-8.776537673547864">
        <ele>69.0390625</ele>
      </trkpt>
      <trkpt lat="41.640210086479783" lon="-8.776552341878414">
        <ele>69.44921875</ele>
      </trkpt>
      <trkpt lat="41.640266999602318" lon="-8.776573045179248">
        <ele>69.953125</ele>
      </trkpt>
      <trkpt lat="41.64031745865941" lon="-8.77659953199327">
        <ele>70.515625</ele>
      </trkpt>
      <trkpt lat="41.640366241335869" lon="-8.776641441509128">
        <ele>71.296875</ele>
      </trkpt>
      <trkpt lat="41.640415024012327" lon="-8.776686955243349">
        <ele>72.12890625</ele>
      </trkpt>
      <trkpt lat="41.640469087287784" lon="-8.776721404865384">
        <ele>72.77734375</ele>
      </trkpt>
      <trkpt lat="41.640525413677096" lon="-8.776755183935165">
        <ele>73.12109375</ele>
      </trkpt>
      <trkpt lat="41.640581572428346" lon="-8.776785358786583">
        <ele>73.39453125</ele>
      </trkpt>
      <trkpt lat="41.640632366761565" lon="-8.776813354343176">
        <ele>73.6328125</ele>
      </trkpt>
      <trkpt lat="41.640689363703132" lon="-8.776856437325478">
        <ele>74.03515625</ele>
      </trkpt>
      <trkpt lat="41.64073571562767" lon="-8.776897927746177">
        <ele>74.42578125</ele>
      </trkpt>
      <trkpt lat="41.640782570466399" lon="-8.776934053748846">
        <ele>74.72265625</ele>
      </trkpt>
      <trkpt lat="41.640831436961889" lon="-8.776971688494086">
        <ele>75.01171875</ele>
      </trkpt>
      <trkpt lat="41.640885751694441" lon="-8.777003958821297">
        <ele>75.19140625</ele>
      </trkpt>
      <trkpt lat="41.640934282913804" lon="-8.777039414271712">
        <ele>75.4140625</ele>
      </trkpt>
      <trkpt lat="41.640991028398275" lon="-8.777077132835984">
        <ele>75.609375</ele>
      </trkpt>
      <trkpt lat="41.641051797196269" lon="-8.777111414819956">
        <ele>75.71875</ele>
      </trkpt>
      <trkpt lat="41.641108291223645" lon="-8.77714678645134">
        <ele>75.83984375</ele>
      </trkpt>
      <trkpt lat="41.641167216002941" lon="-8.777171010151505">
        <ele>75.7890625</ele>
      </trkpt>
      <trkpt lat="41.641221363097429" lon="-8.777193892747164">
        <ele>75.7265625</ele>
      </trkpt>
      <trkpt lat="41.64128053933382" lon="-8.77721325494349">
        <ele>75.58984375</ele>
      </trkpt>
      <trkpt lat="41.641336446627975" lon="-8.777220966294408">
        <ele>75.26171875</ele>
      </trkpt>
      <trkpt lat="41.64140853099525" lon="-8.777224821969867">
        <ele>74.74609375</ele>
      </trkpt>
      <trkpt lat="41.641464354470372" lon="-8.77722105011344">
        <ele>74.29296875</ele>
      </trkpt>
      <trkpt lat="41.641518753021955" lon="-8.777213506400585">
        <ele>73.82421875</ele>
      </trkpt>
      <trkpt lat="41.641579521819949" lon="-8.77720395103097">
        <ele>73.30078125</ele>
      </trkpt>
      <trkpt lat="41.641633585095406" lon="-8.777185343205929">
        <ele>72.7734375</ele>
      </trkpt>
      <trkpt lat="41.641687899827957" lon="-8.777163717895746">
        <ele>72.23828125</ele>
      </trkpt>
      <trkpt lat="41.641700807958841" lon="-8.77715902402997">
        <ele>72.1171875</ele>
      </trkpt>
      <trkpt lat="41.642322661355138" lon="-8.776928689330816">
        <ele>66.98046875</ele>
      </trkpt>
      <trkpt lat="41.642322661355138" lon="-8.776927432045341">
        <ele>66.9765625</ele>
      </trkpt>
      <trkpt lat="41.643217345699668" lon="-8.777301181107759">
        <ele>60.6640625</ele>
      </trkpt>
      <trkpt lat="41.643218267709017" lon="-8.777301181107759">
        <ele>60.65625</ele>
      </trkpt>
      <trkpt lat="41.644231891259551" lon="-8.777683647349477">
        <ele>52.58203125</ele>
      </trkpt>
      <trkpt lat="41.644283607602119" lon="-8.777732346206903">
        <ele>52.12890625</ele>
      </trkpt>
      <trkpt lat="41.644334150478244" lon="-8.777781296521425">
        <ele>51.66796875</ele>
      </trkpt>
      <trkpt lat="41.644380753859878" lon="-8.777820859104395">
        <ele>51.2421875</ele>
      </trkpt>
      <trkpt lat="41.644430877640843" lon="-8.777863187715411">
        <ele>50.77734375</ele>
      </trkpt>
      <trkpt lat="41.644482845440507" lon="-8.7778983078897">
        <ele>50.30859375</ele>
      </trkpt>
      <trkpt lat="41.644532717764378" lon="-8.77792957238853">
        <ele>49.859375</ele>
      </trkpt>
      <trkpt lat="41.644587954506278" lon="-8.777965111657977">
        <ele>49.34375</ele>
      </trkpt>
      <trkpt lat="41.644636318087578" lon="-8.77799897454679">
        <ele>48.91796875</ele>
      </trkpt>
      <trkpt lat="41.64468283765018" lon="-8.778054378926754">
        <ele>48.5546875</ele>
      </trkpt>
      <trkpt lat="41.644728351384401" lon="-8.778104837983847">
        <ele>48.203125</ele>
      </trkpt>
      <trkpt lat="41.644770596176386" lon="-8.778151189908385">
        <ele>47.87109375</ele>
      </trkpt>
      <trkpt lat="41.644820971414447" lon="-8.77820273861289">
        <ele>47.48046875</ele>
      </trkpt>
      <trkpt lat="41.644870592281222" lon="-8.778246575966477">
        <ele>47.10546875</ele>
      </trkpt>
      <trkpt lat="41.64492079988122" lon="-8.778286222368479">
        <ele>46.734375</ele>
      </trkpt>
      <trkpt lat="41.644973354414105" lon="-8.778336429968476">
        <ele>46.3125</ele>
      </trkpt>
      <trkpt lat="41.645030099898577" lon="-8.778396360576153">
        <ele>45.83203125</ele>
      </trkpt>
      <trkpt lat="41.645073518157005" lon="-8.778443969786167">
        <ele>45.453125</ele>
      </trkpt>
      <trkpt lat="41.645121881738305" lon="-8.778480179607868">
        <ele>45.078125</ele>
      </trkpt>
      <trkpt lat="41.645166305825114" lon="-8.778520664200187">
        <ele>44.703125</ele>
      </trkpt>
      <trkpt lat="41.645234869793057" lon="-8.778592748567462">
        <ele>44.08203125</ele>
      </trkpt>
      <trkpt lat="41.645283484831452" lon="-8.778646728023887">
        <ele>43.62890625</ele>
      </trkpt>
      <trkpt lat="41.645328747108579" lon="-8.778697270900011">
        <ele>43.1953125</ele>
      </trkpt>
      <trkpt lat="41.645376021042466" lon="-8.778732558712363">
        <ele>42.796875</ele>
      </trkpt>
      <trkpt lat="41.645429246127605" lon="-8.778768936172128">
        <ele>42.3515625</ele>
      </trkpt>
      <trkpt lat="41.645477609708905" lon="-8.77879835665226">
        <ele>42</ele>
      </trkpt>
      <trkpt lat="41.64553209207952" lon="-8.77883305773139">
        <ele>41.73828125</ele>
      </trkpt>
      <trkpt lat="41.645584730431437" lon="-8.778858287259936">
        <ele>41.546875</ele>
      </trkpt>
      <trkpt lat="41.645638793706894" lon="-8.778883600607514">
        <ele>41.3515625</ele>
      </trkpt>
      <trkpt lat="41.645688079297543" lon="-8.77891318872571">
        <ele>41.17578125</ele>
      </trkpt>
      <trkpt lat="41.645743735134602" lon="-8.778953338041902">
        <ele>40.9765625</ele>
      </trkpt>
      <trkpt lat="41.64578958414495" lon="-8.77899088896811">
        <ele>40.80859375</ele>
      </trkpt>
      <trkpt lat="41.645836355164647" lon="-8.779026679694653">
        <ele>40.640625</ele>
      </trkpt>
      <trkpt lat="41.645886478945613" lon="-8.77907051704824">
        <ele>40.4609375</ele>
      </trkpt>
      <trkpt lat="41.645936099812388" lon="-8.779119718819857">
        <ele>40.28125</ele>
      </trkpt>
      <trkpt lat="41.645983373746276" lon="-8.779167495667934">
        <ele>40.11328125</ele>
      </trkpt>
      <trkpt lat="41.646030144765973" lon="-8.779204208403826">
        <ele>39.94140625</ele>
      </trkpt>
      <trkpt lat="41.646067863330245" lon="-8.779257517307997">
        <ele>39.80859375</ele>
      </trkpt>
      <trkpt lat="41.646099127829075" lon="-8.779319962486625">
        <ele>39.6953125</ele>
      </trkpt>
      <trkpt lat="41.646139193326235" lon="-8.779388274997473">
        <ele>39.55078125</ele>
      </trkpt>
      <trkpt lat="41.646163919940591" lon="-8.779466059058905">
        <ele>39.4609375</ele>
      </trkpt>
      <trkpt lat="41.646176828071475" lon="-8.779542334377766">
        <ele>39.4140625</ele>
      </trkpt>
      <trkpt lat="41.646190909668803" lon="-8.779618609696627">
        <ele>39.36328125</ele>
      </trkpt>
      <trkpt lat="41.646212199702859" lon="-8.779708798974752">
        <ele>39.23046875</ele>
      </trkpt>
      <trkpt lat="41.646231729537249" lon="-8.779791528359056">
        <ele>39.0703125</ele>
      </trkpt>
      <trkpt lat="41.646251091733575" lon="-8.779871826991439">
        <ele>38.90625</ele>
      </trkpt>
      <trkpt lat="41.646268861368299" lon="-8.779947012662888">
        <ele>38.74609375</ele>
      </trkpt>
      <trkpt lat="41.646286128088832" lon="-8.780015325173736">
        <ele>38.58984375</ele>
      </trkpt>
      <trkpt lat="41.64628897793591" lon="-8.780026976019144">
        <ele>38.5625</ele>
      </trkpt>
      <trkpt lat="41.646342538297176" lon="-8.780131246894598">
        <ele>38.421875</ele>
      </trkpt>
      <trkpt lat="41.646361816674471" lon="-8.78020073287189">
        <ele>38.33984375</ele>
      </trkpt>
      <trkpt lat="41.646385286003351" lon="-8.780281869694591">
        <ele>38.2421875</ele>
      </trkpt>
      <trkpt lat="41.646409844979644" lon="-8.780355378985405">
        <ele>38.15234375</ele>
      </trkpt>
      <trkpt lat="41.646434487774968" lon="-8.780422937124968">
        <ele>38.07421875</ele>
      </trkpt>
      <trkpt lat="41.646455442532897" lon="-8.780500385910273">
        <ele>37.96484375</ele>
      </trkpt>
      <trkpt lat="41.64648050442338" lon="-8.780565764755011">
        <ele>37.82421875</ele>
      </trkpt>
      <trkpt lat="41.646491149440408" lon="-8.780644806101918">
        <ele>37.66015625</ele>
      </trkpt>
      <trkpt lat="41.646496932953596" lon="-8.780720829963684">
        <ele>37.5</ele>
      </trkpt>
      <trkpt lat="41.646497938781977" lon="-8.780802637338638">
        <ele>37.328125</ele>
      </trkpt>
      <trkpt lat="41.646492658182979" lon="-8.780884109437466">
        <ele>37.15234375</ele>
      </trkpt>
      <trkpt lat="41.646485785022378" lon="-8.78095812164247">
        <ele>36.9921875</ele>
      </trkpt>
      <trkpt lat="41.646477822214365" lon="-8.781042611226439">
        <ele>36.80859375</ele>
      </trkpt>
      <trkpt lat="41.646467847749591" lon="-8.781116455793381">
        <ele>36.640625</ele>
      </trkpt>
      <trkpt lat="41.646454520523548" lon="-8.781206728890538">
        <ele>36.43359375</ele>
      </trkpt>
      <trkpt lat="41.646440774202347" lon="-8.781280405819416">
        <ele>36.2578125</ele>
      </trkpt>
      <trkpt lat="41.646427782252431" lon="-8.781355926766992">
        <ele>36.02734375</ele>
      </trkpt>
      <trkpt lat="41.646415377035737" lon="-8.781427508220077">
        <ele>35.765625</ele>
      </trkpt>
      <trkpt lat="41.646398864686489" lon="-8.781503112986684">
        <ele>35.484375</ele>
      </trkpt>
      <trkpt lat="41.646386794745922" lon="-8.781583663076162">
        <ele>35.1875</ele>
      </trkpt>
      <trkpt lat="41.646376485005021" lon="-8.781668236479163">
        <ele>34.875</ele>
      </trkpt>
      <trkpt lat="41.646369947120547" lon="-8.781753061339259">
        <ele>34.5703125</ele>
      </trkpt>
      <trkpt lat="41.646361146122217" lon="-8.781849285587668">
        <ele>34.21484375</ele>
      </trkpt>
      <trkpt lat="41.646354775875807" lon="-8.781925560906529">
        <ele>33.9375</ele>
      </trkpt>
      <trkpt lat="41.646350082010031" lon="-8.782006865367293">
        <ele>33.640625</ele>
      </trkpt>
      <trkpt lat="41.646347986534238" lon="-8.782081883400679">
        <ele>33.37109375</ele>
      </trkpt>
      <trkpt lat="41.646355111151934" lon="-8.782160421833396">
        <ele>33.13671875</ele>
      </trkpt>
      <trkpt lat="41.646395679563284" lon="-8.782200235873461">
        <ele>33.1875</ele>
      </trkpt>
      <trkpt lat="41.64645116776228" lon="-8.782212305814028">
        <ele>33.3046875</ele>
      </trkpt>
      <trkpt lat="41.646513361483812" lon="-8.782217754051089">
        <ele>33.44921875</ele>
      </trkpt>
      <trkpt lat="41.64657580666244" lon="-8.782219681888819">
        <ele>33.59765625</ele>
      </trkpt>
      <trkpt lat="41.646633306518197" lon="-8.782219681888819">
        <ele>33.734375</ele>
      </trkpt>
      <trkpt lat="41.646694829687476" lon="-8.78221289254725">
        <ele>33.890625</ele>
      </trkpt>
      <trkpt lat="41.646737242117524" lon="-8.782208282500505">
        <ele>34</ele>
      </trkpt>
      <trkpt lat="41.647157426923513" lon="-8.782197972759604">
        <ele>34.98046875</ele>
      </trkpt>
      <trkpt lat="41.647224901244044" lon="-8.782186405733228">
        <ele>35.07421875</ele>
      </trkpt>
      <trkpt lat="41.647284580394626" lon="-8.782184477895498">
        <ele>35.1484375</ele>
      </trkpt>
      <trkpt lat="41.647345181554556" lon="-8.782186238095164">
        <ele>35.21875</ele>
      </trkpt>
      <trkpt lat="41.647403854876757" lon="-8.782190009951591">
        <ele>35.28515625</ele>
      </trkpt>
      <trkpt lat="41.647461270913482" lon="-8.782193781808019">
        <ele>35.3515625</ele>
      </trkpt>
      <trkpt lat="41.647518770769238" lon="-8.782199565321207">
        <ele>35.4140625</ele>
      </trkpt>
      <trkpt lat="41.64757794700563" lon="-8.78221289254725">
        <ele>35.46875</ele>
      </trkpt>
      <trkpt lat="41.647631172090769" lon="-8.782237283885479">
        <ele>35.50390625</ele>
      </trkpt>
      <trkpt lat="41.647683726623654" lon="-8.782260669395328">
        <ele>35.5390625</ele>
      </trkpt>
      <trkpt lat="41.647732928395271" lon="-8.782290257513523">
        <ele>35.5625</ele>
      </trkpt>
      <trkpt lat="41.647785902023315" lon="-8.782312804833055">
        <ele>35.59765625</ele>
      </trkpt>
      <trkpt lat="41.647843737155199" lon="-8.782311044633389">
        <ele>35.66796875</ele>
      </trkpt>
      <trkpt lat="41.647900063544512" lon="-8.782285647466779">
        <ele>35.765625</ele>
      </trkpt>
      <trkpt lat="41.647942643612623" lon="-8.782237619161606">
        <ele>35.875</ele>
      </trkpt>
      <trkpt lat="41.647987486794591" lon="-8.782177772372961">
        <ele>35.96484375</ele>
      </trkpt>
      <trkpt lat="41.648030988872051" lon="-8.782118260860443">
        <ele>36.03515625</ele>
      </trkpt>
      <trkpt lat="41.648071222007275" lon="-8.78206922672689">
        <ele>36.08203125</ele>
      </trkpt>
      <trkpt lat="41.648122519254684" lon="-8.782045254483819">
        <ele>36.1015625</ele>
      </trkpt>
      <trkpt lat="41.648176666349173" lon="-8.78201306797564">
        <ele>36.12109375</ele>
      </trkpt>
      <trkpt lat="41.648227712139487" lon="-8.781982976943254">
        <ele>36.1328125</ele>
      </trkpt>
      <trkpt lat="41.648280685767531" lon="-8.781961519271135">
        <ele>36.13671875</ele>
      </trkpt>
      <trkpt lat="41.648339694365859" lon="-8.781927321106195">
        <ele>36.14453125</ele>
      </trkpt>
      <trkpt lat="41.648395769298077" lon="-8.781900079920888">
        <ele>36.140625</ele>
      </trkpt>
      <trkpt lat="41.648448156192899" lon="-8.781874096021056">
        <ele>36.13671875</ele>
      </trkpt>
      <trkpt lat="41.648500123992562" lon="-8.781844172626734">
        <ele>36.12890625</ele>
      </trkpt>
      <trkpt lat="41.648552510887384" lon="-8.78181810490787">
        <ele>36.11328125</ele>
      </trkpt>
      <trkpt lat="41.648606071248651" lon="-8.781793713569641">
        <ele>36.09375</ele>
      </trkpt>
      <trkpt lat="41.648663571104407" lon="-8.781764041632414">
        <ele>36.0703125</ele>
      </trkpt>
      <trkpt lat="41.648722663521767" lon="-8.781743003055453">
        <ele>36.0390625</ele>
      </trkpt>
      <trkpt lat="41.648777900263667" lon="-8.78172816708684">
        <ele>36.0078125</ele>
      </trkpt>
      <trkpt lat="41.648837579414248" lon="-8.781718024984002">
        <ele>35.828125</ele>
      </trkpt>
      <trkpt lat="41.648894576355815" lon="-8.781712828204036">
        <ele>35.625</ele>
      </trkpt>
      <trkpt lat="41.648953333497047" lon="-8.781709391623735">
        <ele>35.4140625</ele>
      </trkpt>
      <trkpt lat="41.649014269933105" lon="-8.781703524291515">
        <ele>35.1953125</ele>
      </trkpt>
      <trkpt lat="41.649073446169496" lon="-8.781697824597359">
        <ele>34.98046875</ele>
      </trkpt>
      <trkpt lat="41.649132706224918" lon="-8.781685419380665">
        <ele>34.765625</ele>
      </trkpt>
      <trkpt lat="41.649188529700041" lon="-8.781680557876825">
        <ele>34.56640625</ele>
      </trkpt>
      <trkpt lat="41.649249885231256" lon="-8.781673600897193">
        <ele>34.34375</ele>
      </trkpt>
      <trkpt lat="41.649309145286679" lon="-8.781675528734922">
        <ele>34.1328125</ele>
      </trkpt>
      <trkpt lat="41.649362873286009" lon="-8.781687347218394">
        <ele>33.9375</ele>
      </trkpt>
      <trkpt lat="41.64941567927599" lon="-8.781719533726573">
        <ele>33.74609375</ele>
      </trkpt>
      <trkpt lat="41.649453733116388" lon="-8.781771333888173">
        <ele>33.609375</ele>
      </trkpt>
      <trkpt lat="41.649460857734084" lon="-8.78184350207448">
        <ele>33.5859375</ele>
      </trkpt>
      <trkpt lat="41.649452140554786" lon="-8.781918939203024">
        <ele>33.6171875</ele>
      </trkpt>
      <trkpt lat="41.649440741166472" lon="-8.781998148187995">
        <ele>33.65625</ele>
      </trkpt>
      <trkpt lat="41.649428084492683" lon="-8.782076686620712">
        <ele>33.703125</ele>
      </trkpt>
      <trkpt lat="41.649417942389846" lon="-8.78215522505343">
        <ele>33.73046875</ele>
      </trkpt>
      <trkpt lat="41.649403693154454" lon="-8.782245414331555">
        <ele>33.64453125</ele>
      </trkpt>
      <trkpt lat="41.64938491769135" lon="-8.782327640801668">
        <ele>33.58203125</ele>
      </trkpt>
      <trkpt lat="41.649365052580833" lon="-8.782398803159595">
        <ele>33.5390625</ele>
      </trkpt>
      <trkpt lat="41.649339152500033" lon="-8.782480359077454">
        <ele>33.48828125</ele>
      </trkpt>
      <trkpt lat="41.649312498047948" lon="-8.782555460929871">
        <ele>33.44921875</ele>
      </trkpt>
      <trkpt lat="41.649285592138767" lon="-8.782626707106829">
        <ele>33.41015625</ele>
      </trkpt>
      <trkpt lat="41.649262038990855" lon="-8.782695354893804">
        <ele>33.359375</ele>
      </trkpt>
      <trkpt lat="41.649245610460639" lon="-8.782764170318842">
        <ele>33.28515625</ele>
      </trkpt>
      <trkpt lat="41.649237060919404" lon="-8.782839355990291">
        <ele>33.1796875</ele>
      </trkpt>
      <trkpt lat="41.649232031777501" lon="-8.782912697643042">
        <ele>33.0625</ele>
      </trkpt>
      <trkpt lat="41.64924519136548" lon="-8.782985368743539">
        <ele>32.90234375</ele>
      </trkpt>
      <trkpt lat="41.649275869131088" lon="-8.78305284306407">
        <ele>32.71484375</ele>
      </trkpt>
      <trkpt lat="41.649320879951119" lon="-8.783098189160228">
        <ele>32.53515625</ele>
      </trkpt>
      <trkpt lat="41.649375194683671" lon="-8.783123837783933">
        <ele>32.375</ele>
      </trkpt>
      <trkpt lat="41.649434454739094" lon="-8.783145882189274">
        <ele>32.2109375</ele>
      </trkpt>
      <trkpt lat="41.64948851801455" lon="-8.783176643773913">
        <ele>32.05078125</ele>
      </trkpt>
      <trkpt lat="41.649537803605199" lon="-8.783206315711141">
        <ele>31.90625</ele>
      </trkpt>
      <trkpt lat="41.649587256833911" lon="-8.783235903829336">
        <ele>31.76953125</ele>
      </trkpt>
      <trkpt lat="41.649642074480653" lon="-8.783276556059718">
        <ele>31.578125</ele>
      </trkpt>
      <trkpt lat="41.64969471283257" lon="-8.78331184387207">
        <ele>31.34765625</ele>
      </trkpt>
      <trkpt lat="41.649745255708694" lon="-8.783339755609632">
        <ele>31.12890625</ele>
      </trkpt>
      <trkpt lat="41.649798983708024" lon="-8.78337680362165">
        <ele>30.89453125</ele>
      </trkpt>
      <trkpt lat="41.649858159944415" lon="-8.78341150470078">
        <ele>30.63671875</ele>
      </trkpt>
      <trkpt lat="41.649920186027884" lon="-8.783438997343183">
        <ele>30.3828125</ele>
      </trkpt>
      <trkpt lat="41.649984307587147" lon="-8.783458191901445">
        <ele>30.12890625</ele>
      </trkpt>
      <trkpt lat="41.650049602612853" lon="-8.783471686765552">
        <ele>29.875</ele>
      </trkpt>
      <trkpt lat="41.650110455229878" lon="-8.7834950722754">
        <ele>29.62890625</ele>
      </trkpt>
      <trkpt lat="41.65016233921051" lon="-8.783527845516801">
        <ele>29.40234375</ele>
      </trkpt>
      <trkpt lat="41.650213720276952" lon="-8.783553158864379">
        <ele>29.1875</ele>
      </trkpt>
      <trkpt lat="41.650266526266932" lon="-8.783571179956198">
        <ele>28.9765625</ele>
      </trkpt>
      <trkpt lat="41.650319080799818" lon="-8.783587273210287">
        <ele>28.765625</ele>
      </trkpt>
      <trkpt lat="41.650371635332704" lon="-8.78360353410244">
        <ele>28.55859375</ele>
      </trkpt>
      <trkpt lat="41.650428548455238" lon="-8.783622728660703">
        <ele>28.328125</ele>
      </trkpt>
      <trkpt lat="41.650484371930361" lon="-8.783639241009951">
        <ele>28.14453125</ele>
      </trkpt>
      <trkpt lat="41.650537177920341" lon="-8.783661955967546">
        <ele>27.98828125</ele>
      </trkpt>
      <trkpt lat="41.650604987516999" lon="-8.7836919631809">
        <ele>27.7890625</ele>
      </trkpt>
      <trkpt lat="41.650655278936028" lon="-8.783719958737493">
        <ele>27.63671875</ele>
      </trkpt>
      <trkpt lat="41.650706492364407" lon="-8.783748373389244">
        <ele>27.4765625</ele>
      </trkpt>
      <trkpt lat="41.650755861774087" lon="-8.783778045326471">
        <ele>27.32421875</ele>
      </trkpt>
      <trkpt lat="41.650809170678258" lon="-8.783814338967204">
        <ele>27.15234375</ele>
      </trkpt>
      <trkpt lat="41.650863904505968" lon="-8.783861277624965">
        <ele>26.9921875</ele>
      </trkpt>
      <trkpt lat="41.65091042406857" lon="-8.783900672569871">
        <ele>26.86328125</ele>
      </trkpt>
      <trkpt lat="41.650960883125663" lon="-8.78393872641027">
        <ele>26.73046875</ele>
      </trkpt>
      <trkpt lat="41.651006983593106" lon="-8.783978037536144">
        <ele>26.609375</ele>
      </trkpt>
      <trkpt lat="41.651055263355374" lon="-8.784011900424957">
        <ele>26.49609375</ele>
      </trkpt>
      <trkpt lat="41.651108153164387" lon="-8.784049116075039">
        <ele>26.37109375</ele>
      </trkpt>
      <trkpt lat="41.651155678555369" lon="-8.784087924286723">
        <ele>26.265625</ele>
      </trkpt>
      <trkpt lat="41.651196079328656" lon="-8.784142155200243">
        <ele>26.1796875</ele>
      </trkpt>
      <trkpt lat="41.651236061006784" lon="-8.784201834350824">
        <ele>26.09765625</ele>
      </trkpt>
      <trkpt lat="41.651270845904946" lon="-8.784254305064678">
        <ele>26.03125</ele>
      </trkpt>
      <trkpt lat="41.651303954422474" lon="-8.784312140196562">
        <ele>25.98046875</ele>
      </trkpt>
      <trkpt lat="41.651339661329985" lon="-8.784372322261333">
        <ele>25.9375</ele>
      </trkpt>
      <trkpt lat="41.65137754753232" lon="-8.784430660307407">
        <ele>25.89453125</ele>
      </trkpt>
      <trkpt lat="41.651407303288579" lon="-8.784496290609241">
        <ele>25.859375</ele>
      </trkpt>
      <trkpt lat="41.651421217247844" lon="-8.784571476280689">
        <ele>25.83984375</ele>
      </trkpt>
      <trkpt lat="41.651418032124639" lon="-8.784644985571504">
        <ele>25.84375</ele>
      </trkpt>
      <trkpt lat="41.651413002982736" lon="-8.784723524004221">
        <ele>25.7578125</ele>
      </trkpt>
      <trkpt lat="41.651401352137327" lon="-8.784812372177839">
        <ele>25.66796875</ele>
      </trkpt>
      <trkpt lat="41.651379643008113" lon="-8.784889904782176">
        <ele>25.6015625</ele>
      </trkpt>
      <trkpt lat="41.651351731270552" lon="-8.784954696893692">
        <ele>25.5546875</ele>
      </trkpt>
      <trkpt lat="41.651315605267882" lon="-8.785019237548113">
        <ele>25.5234375</ele>
      </trkpt>
      <trkpt lat="41.651285933330655" lon="-8.785079335793853">
        <ele>25.484375</ele>
      </trkpt>
      <trkpt lat="41.651259614154696" lon="-8.785147061571479">
        <ele>25.4140625</ele>
      </trkpt>
      <trkpt lat="41.651247125118971" lon="-8.785220487043262">
        <ele>25.328125</ele>
      </trkpt>
      <trkpt lat="41.651260955259204" lon="-8.785294331610203">
        <ele>25.23046875</ele>
      </trkpt>
      <trkpt lat="41.651294901967049" lon="-8.78535627387464">
        <ele>25.140625</ele>
      </trkpt>
      <trkpt lat="41.651325076818466" lon="-8.785407403483987">
        <ele>25.04296875</ele>
      </trkpt>
      <trkpt lat="41.651406297460198" lon="-8.785572946071625">
        <ele>24.76171875</ele>
      </trkpt>
      <trkpt lat="41.651437729597092" lon="-8.785636899992824">
        <ele>24.66796875</ele>
      </trkpt>
      <trkpt lat="41.651475448161364" lon="-8.785706553608179">
        <ele>24.56640625</ele>
      </trkpt>
      <trkpt lat="41.651505287736654" lon="-8.785780733451247">
        <ele>24.47265625</ele>
      </trkpt>
      <trkpt lat="41.65152900852263" lon="-8.785859439522028">
        <ele>24.38671875</ele>
      </trkpt>
      <trkpt lat="41.651550717651844" lon="-8.785929344594479">
        <ele>24.31640625</ele>
      </trkpt>
      <trkpt lat="41.651581730693579" lon="-8.786010313779116">
        <ele>24.234375</ele>
      </trkpt>
      <trkpt lat="41.651610312983394" lon="-8.786071250215173">
        <ele>24.1796875</ele>
      </trkpt>
      <trkpt lat="41.651651468127966" lon="-8.78612145781517">
        <ele>24.12890625</ele>
      </trkpt>
      <trkpt lat="41.651694215834141" lon="-8.786166552454233">
        <ele>24.08984375</ele>
      </trkpt>
      <trkpt lat="41.651746686547995" lon="-8.786220112815499">
        <ele>24.05078125</ele>
      </trkpt>
      <trkpt lat="41.65179387666285" lon="-8.786258166655898">
        <ele>24.02734375</ele>
      </trkpt>
      <trkpt lat="41.651838552206755" lon="-8.786304099485278">
        <ele>24.00390625</ele>
      </trkpt>
      <trkpt lat="41.651885658502579" lon="-8.78634525462985">
        <ele>23.921875</ele>
      </trkpt>
      <trkpt lat="41.651932094246149" lon="-8.78638674505055">
        <ele>23.82421875</ele>
      </trkpt>
      <trkpt lat="41.651982553303242" lon="-8.786433264613152">
        <ele>23.7109375</ele>
      </trkpt>
      <trkpt lat="41.652028486132622" lon="-8.786477353423834">
        <ele>23.60546875</ele>
      </trkpt>
      <trkpt lat="41.65207433514297" lon="-8.786520436406136">
        <ele>23.50390625</ele>
      </trkpt>
      <trkpt lat="41.652128398418427" lon="-8.786561507731676">
        <ele>23.40234375</ele>
      </trkpt>
      <trkpt lat="41.652180114760995" lon="-8.786607524380088">
        <ele>23.29296875</ele>
      </trkpt>
      <trkpt lat="41.652227137237787" lon="-8.786654882133007">
        <ele>23.1796875</ele>
      </trkpt>
      <trkpt lat="41.65227516554296" lon="-8.786702658981085">
        <ele>23.06640625</ele>
      </trkpt>
      <trkpt lat="41.65233233012259" lon="-8.786753872409463">
        <ele>22.94140625</ele>
      </trkpt>
      <trkpt lat="41.652376754209399" lon="-8.786798380315304">
        <ele>22.8359375</ele>
      </trkpt>
      <trkpt lat="41.652423273772001" lon="-8.786840457469225">
        <ele>22.734375</ele>
      </trkpt>
      <trkpt lat="41.652476163581014" lon="-8.786874823272228">
        <ele>22.65234375</ele>
      </trkpt>
      <trkpt lat="41.652530059218407" lon="-8.786917235702276">
        <ele>22.55078125</ele>
      </trkpt>
      <trkpt lat="41.652577500790358" lon="-8.786950428038836">
        <ele>22.46875</ele>
      </trkpt>
      <trkpt lat="41.652635084465146" lon="-8.786976998671889">
        <ele>22.40625</ele>
      </trkpt>
      <trkpt lat="41.652686465531588" lon="-8.786998707801104">
        <ele>22.35546875</ele>
      </trkpt>
      <trkpt lat="41.652739187702537" lon="-8.787011867389083">
        <ele>22.3203125</ele>
      </trkpt>
      <trkpt lat="41.652797106653452" lon="-8.787027038633823">
        <ele>22.28515625</ele>
      </trkpt>
      <trkpt lat="41.652856785804033" lon="-8.787028631195426">
        <ele>22.28125</ele>
      </trkpt>
      <trkpt lat="41.65290791541338" lon="-8.787007927894592">
        <ele>22.33203125</ele>
      </trkpt>
      <trkpt lat="41.652955356985331" lon="-8.786963084712625">
        <ele>22.4375</ele>
      </trkpt>
      <trkpt lat="41.653000451624393" lon="-8.78691153600812">
        <ele>22.53125</ele>
      </trkpt>
      <trkpt lat="41.65304814465344" lon="-8.786860490217805">
        <ele>22.609375</ele>
      </trkpt>
      <trkpt lat="41.65309114381671" lon="-8.786812042817473">
        <ele>22.671875</ele>
      </trkpt>
      <trkpt lat="41.653139339759946" lon="-8.786770300939679">
        <ele>22.703125</ele>
      </trkpt>
      <trkpt lat="41.653191139921546" lon="-8.786731576547027">
        <ele>22.7109375</ele>
      </trkpt>
      <trkpt lat="41.65325190871954" lon="-8.786703329533339">
        <ele>22.68359375</ele>
      </trkpt>
      <trkpt lat="41.653313934803009" lon="-8.786686817184091">
        <ele>22.625</ele>
      </trkpt>
      <trkpt lat="41.653370009735227" lon="-8.78666770644486">
        <ele>22.57421875</ele>
      </trkpt>
      <trkpt lat="41.653422899544239" lon="-8.786650020629168">
        <ele>22.51953125</ele>
      </trkpt>
      <trkpt lat="41.653475956991315" lon="-8.786634597927332">
        <ele>22.4609375</ele>
      </trkpt>
      <trkpt lat="41.653531780466437" lon="-8.786626551300287">
        <ele>22.3828125</ele>
      </trkpt>
      <trkpt lat="41.653594393283129" lon="-8.786626635119319">
        <ele>22.2890625</ele>
      </trkpt>
      <trkpt lat="41.653650132939219" lon="-8.786632250994444">
        <ele>22.203125</ele>
      </trkpt>
      <trkpt lat="41.653702687472105" lon="-8.786655636504292">
        <ele>22.12109375</ele>
      </trkpt>
      <trkpt lat="41.653747195377946" lon="-8.786702491343021">
        <ele>22.05078125</ele>
      </trkpt>
      <trkpt lat="41.653782734647393" lon="-8.786762002855539">
        <ele>22.00390625</ele>
      </trkpt>
      <trkpt lat="41.653825733810663" lon="-8.786806426942348">
        <ele>21.890625</ele>
      </trkpt>
      <trkpt lat="41.653876360505819" lon="-8.786846157163382">
        <ele>21.74609375</ele>
      </trkpt>
      <trkpt lat="41.653929501771927" lon="-8.786870129406452">
        <ele>21.6015625</ele>
      </trkpt>
      <trkpt lat="41.653987420722842" lon="-8.786893347278237">
        <ele>21.4453125</ele>
      </trkpt>
      <trkpt lat="41.654047686606646" lon="-8.786913882941008">
        <ele>21.2890625</ele>
      </trkpt>
      <trkpt lat="41.654110215604305" lon="-8.786926539614797">
        <ele>21.12109375</ele>
      </trkpt>
      <trkpt lat="41.654167212545872" lon="-8.786943051964045">
        <ele>20.9765625</ele>
      </trkpt>
      <trkpt lat="41.654220605269074" lon="-8.786960486322641">
        <ele>20.84375</ele>
      </trkpt>
      <trkpt lat="41.654272489249706" lon="-8.786988146603107">
        <ele>20.72265625</ele>
      </trkpt>
      <trkpt lat="41.654326636344194" lon="-8.787019746378064">
        <ele>20.60546875</ele>
      </trkpt>
      <trkpt lat="41.654378520324826" lon="-8.787047574296594">
        <ele>20.49609375</ele>
      </trkpt>
      <trkpt lat="41.654431074857712" lon="-8.787069199606776">
        <ele>20.3828125</ele>
      </trkpt>
      <trkpt lat="41.654482875019312" lon="-8.787091076374054">
        <ele>20.2734375</ele>
      </trkpt>
      <trkpt lat="41.654542051255703" lon="-8.787106582894921">
        <ele>20.14453125</ele>
      </trkpt>
      <trkpt lat="41.654606005176902" lon="-8.787116054445505">
        <ele>20</ele>
      </trkpt>
      <trkpt lat="41.654661577194929" lon="-8.787122843787074">
        <ele>19.87109375</ele>
      </trkpt>
      <trkpt lat="41.654715724289417" lon="-8.787133069708943">
        <ele>19.75390625</ele>
      </trkpt>
      <trkpt lat="41.654771380126476" lon="-8.787153018638492">
        <ele>19.63671875</ele>
      </trkpt>
      <trkpt lat="41.654825611039996" lon="-8.78717833198607">
        <ele>19.515625</ele>
      </trkpt>
      <trkpt lat="41.65487858466804" lon="-8.787219906225801">
        <ele>19.40625</ele>
      </trkpt>
      <trkpt lat="41.654918985441327" lon="-8.78727556206286">
        <ele>19.33984375</ele>
      </trkpt>
      <trkpt lat="41.654959972947836" lon="-8.787333816289902">
        <ele>19.27734375</ele>
      </trkpt>
      <trkpt lat="41.655005319043994" lon="-8.787388717755675">
        <ele>19.2109375</ele>
      </trkpt>
      <trkpt lat="41.655045971274376" lon="-8.787444625049829">
        <ele>19.16015625</ele>
      </trkpt>
      <trkpt lat="41.655090227723122" lon="-8.787507405504584">
        <ele>19.1171875</ele>
      </trkpt>
      <trkpt lat="41.65513364598155" lon="-8.787566833198071">
        <ele>19.078125</ele>
      </trkpt>
      <trkpt lat="41.655181171372533" lon="-8.787616454064846">
        <ele>19.03515625</ele>
      </trkpt>
      <trkpt lat="41.655228277668357" lon="-8.787656519562006">
        <ele>18.98828125</ele>
      </trkpt>
      <trkpt lat="41.655276473611593" lon="-8.787701781839132">
        <ele>18.94921875</ele>
      </trkpt>
      <trkpt lat="41.655323831364512" lon="-8.787752743810415">
        <ele>18.92578125</ele>
      </trkpt>
      <trkpt lat="41.655373368412256" lon="-8.787798173725605">
        <ele>18.8984375</ele>
      </trkpt>
      <trkpt lat="41.655425252392888" lon="-8.78783849067986">
        <ele>18.87109375</ele>
      </trkpt>
      <trkpt lat="41.655474621802568" lon="-8.787878472357988">
        <ele>18.87890625</ele>
      </trkpt>
      <trkpt lat="41.655523823574185" lon="-8.787914095446467">
        <ele>18.921875</ele>
      </trkpt>
      <trkpt lat="41.655578808858991" lon="-8.787950053811073">
        <ele>18.96484375</ele>
      </trkpt>
      <trkpt lat="41.655627507716417" lon="-8.787995651364326">
        <ele>19</ele>
      </trkpt>
      <trkpt lat="41.655677296221256" lon="-8.788036638870835">
        <ele>19</ele>
      </trkpt>
      <trkpt lat="41.65569263510406" lon="-8.788051474839449">
        <ele>19</ele>
      </trkpt>
      <trkpt lat="41.655818028375506" lon="-8.788157170638442">
        <ele>19</ele>
      </trkpt>
      <trkpt lat="41.655863039195538" lon="-8.788203103467822">
        <ele>19</ele>
      </trkpt>
      <trkpt lat="41.655909307301044" lon="-8.788248198106885">
        <ele>19</ele>
      </trkpt>
      <trkpt lat="41.655952306464314" lon="-8.788294466212392">
        <ele>19</ele>
      </trkpt>
      <trkpt lat="41.656001675873995" lon="-8.788341740146279">
        <ele>19</ele>
      </trkpt>
      <trkpt lat="41.656045345589519" lon="-8.788391444832087">
        <ele>19</ele>
      </trkpt>
      <trkpt lat="41.65609085932374" lon="-8.788439724594355">
        <ele>19</ele>
      </trkpt>
      <trkpt lat="41.656133187934756" lon="-8.788484567776322">
        <ele>19</ele>
      </trkpt>
      <trkpt lat="41.656171241775155" lon="-8.788537457585335">
        <ele>19</ele>
      </trkpt>
      <trkpt lat="41.656212816014886" lon="-8.78859537653625">
        <ele>19</ele>
      </trkpt>
      <trkpt lat="41.656248355284333" lon="-8.788651870563626">
        <ele>19</ele>
      </trkpt>
      <trkpt lat="41.656287247315049" lon="-8.788716830313206">
        <ele>18.99609375</ele>
      </trkpt>
      <trkpt lat="41.656325720250607" lon="-8.788786651566625">
        <ele>18.90234375</ele>
      </trkpt>
      <trkpt lat="41.656362181529403" lon="-8.788846246898174">
        <ele>18.7734375</ele>
      </trkpt>
      <trkpt lat="41.656401660293341" lon="-8.788902657106519">
        <ele>18.61328125</ele>
      </trkpt>
      <trkpt lat="41.656437451019883" lon="-8.788959318771958">
        <ele>18.45703125</ele>
      </trkpt>
      <trkpt lat="41.65648028254509" lon="-8.789027044549584">
        <ele>18.2734375</ele>
      </trkpt>
      <trkpt lat="41.656514648348093" lon="-8.789081862196326">
        <ele>18.125</ele>
      </trkpt>
      <trkpt lat="41.656546499580145" lon="-8.789140870794654">
        <ele>17.98046875</ele>
      </trkpt>
      <trkpt lat="41.656587570905685" lon="-8.789205998182297">
        <ele>17.80078125</ele>
      </trkpt>
      <trkpt lat="41.65662101469934" lon="-8.789271377027035">
        <ele>17.64453125</ele>
      </trkpt>
      <trkpt lat="41.656642556190491" lon="-8.789347903802991">
        <ele>17.5</ele>
      </trkpt>
      <trkpt lat="41.656652865931392" lon="-8.789419736713171">
        <ele>17.38671875</ele>
      </trkpt>
      <trkpt lat="41.656662169843912" lon="-8.789500705897808">
        <ele>17.26953125</ele>
      </trkpt>
      <trkpt lat="41.656675413250923" lon="-8.789582010358572">
        <ele>17.140625</ele>
      </trkpt>
      <trkpt lat="41.656687064096332" lon="-8.789660464972258">
        <ele>16.99609375</ele>
      </trkpt>
      <trkpt lat="41.656704917550087" lon="-8.789746128022671">
        <ele>16.75</ele>
      </trkpt>
      <trkpt lat="41.656724363565445" lon="-8.789826678112149">
        <ele>16.51953125</ele>
      </trkpt>
      <trkpt lat="41.656748671084642" lon="-8.789897169917822">
        <ele>16.31640625</ele>
      </trkpt>
      <trkpt lat="41.656775660812855" lon="-8.789967074990273">
        <ele>16.1171875</ele>
      </trkpt>
      <trkpt lat="41.65680524893105" lon="-8.790032118558884">
        <ele>15.9375</ele>
      </trkpt>
      <trkpt lat="41.656838273629546" lon="-8.790095904842019">
        <ele>15.765625</ele>
      </trkpt>
      <trkpt lat="41.656882278621197" lon="-8.790144519880414">
        <ele>15.625</ele>
      </trkpt>
      <trkpt lat="41.656929887831211" lon="-8.790183076635003">
        <ele>15.51171875</ele>
      </trkpt>
      <trkpt lat="41.656983448192477" lon="-8.790206629782915">
        <ele>15.4296875</ele>
      </trkpt>
      <trkpt lat="41.657039690762758" lon="-8.790211323648691">
        <ele>15.37890625</ele>
      </trkpt>
      <trkpt lat="41.657096603885293" lon="-8.79020294174552">
        <ele>15.34765625</ele>
      </trkpt>
      <trkpt lat="41.657150750979781" lon="-8.7901780474931">
        <ele>15.34375</ele>
      </trkpt>
      <trkpt lat="41.657201210036874" lon="-8.790130689740181">
        <ele>15.375</ele>
      </trkpt>
      <trkpt lat="41.657253596931696" lon="-8.79008517600596">
        <ele>15.39453125</ele>
      </trkpt>
      <trkpt lat="41.657313359901309" lon="-8.790029603987932">
        <ele>15.41015625</ele>
      </trkpt>
      <trkpt lat="41.657367842271924" lon="-8.78999917767942">
        <ele>15.40234375</ele>
      </trkpt>
      <trkpt lat="41.657423581928015" lon="-8.789979480206966">
        <ele>15.37890625</ele>
      </trkpt>
      <trkpt lat="41.657482674345374" lon="-8.789966991171241">
        <ele>15.34375</ele>
      </trkpt>
      <trkpt lat="41.657539838925004" lon="-8.789958022534847">
        <ele>15.30859375</ele>
      </trkpt>
      <trkpt lat="41.657569175586104" lon="-8.789959363639355">
        <ele>15.28515625</ele>
      </trkpt>
      <trkpt lat="41.657754834741354" lon="-8.789920974522829">
        <ele>15.15625</ele>
      </trkpt>
      <trkpt lat="41.657805712893605" lon="-8.789943773299456">
        <ele>15.11328125</ele>
      </trkpt>
      <trkpt lat="41.657866314053535" lon="-8.789964225143194">
        <ele>15.0625</ele>
      </trkpt>
      <trkpt lat="41.657922137528658" lon="-8.789980066940188">
        <ele>15.01953125</ele>
      </trkpt>
      <trkpt lat="41.657976033166051" lon="-8.789981659501791">
        <ele>14.99609375</ele>
      </trkpt>
      <trkpt lat="41.658035879954696" lon="-8.789973026141524">
        <ele>14.98046875</ele>
      </trkpt>
      <trkpt lat="41.658096397295594" lon="-8.78996254876256">
        <ele>14.95703125</ele>
      </trkpt>
      <trkpt lat="41.658151801675558" lon="-8.789947964251041">
        <ele>14.93359375</ele>
      </trkpt>
      <trkpt lat="41.658205948770046" lon="-8.789933798834682">
        <ele>14.90625</ele>
      </trkpt>
      <trkpt lat="41.658261688426137" lon="-8.789916867390275">
        <ele>14.87109375</ele>
      </trkpt>
      <trkpt lat="41.658315332606435" lon="-8.789897924289107">
        <ele>14.828125</ele>
      </trkpt>
      <trkpt lat="41.658369395881891" lon="-8.789869341999292">
        <ele>14.76953125</ele>
      </trkpt>
      <trkpt lat="41.658420776948333" lon="-8.789837406948209">
        <ele>14.69921875</ele>
      </trkpt>
      <trkpt lat="41.658479450270534" lon="-8.789798934012651">
        <ele>14.6015625</ele>
      </trkpt>
      <trkpt lat="41.658532759174705" lon="-8.789766998961568">
        <ele>14.5078125</ele>
      </trkpt>
      <trkpt lat="41.658587409183383" lon="-8.789729531854391">
        <ele>14.390625</ele>
      </trkpt>
      <trkpt lat="41.658632168546319" lon="-8.789686532691121">
        <ele>14.265625</ele>
      </trkpt>
      <trkpt lat="41.65867717936635" lon="-8.789623333141208">
        <ele>14.15234375</ele>
      </trkpt>
      <trkpt lat="41.658713053911924" lon="-8.789567509666085">
        <ele>14.1796875</ele>
      </trkpt>
      <trkpt lat="41.658749179914594" lon="-8.789508165791631">
        <ele>14.20703125</ele>
      </trkpt>
      <trkpt lat="41.658784970641136" lon="-8.789448738098145">
        <ele>14.234375</ele>
      </trkpt>
      <trkpt lat="41.658815899863839" lon="-8.789389310404658">
        <ele>14.3046875</ele>
      </trkpt>
      <trkpt lat="41.658847332000732" lon="-8.789314962923527">
        <ele>14.39453125</ele>
      </trkpt>
      <trkpt lat="41.658874237909913" lon="-8.789248242974281">
        <ele>14.4765625</ele>
      </trkpt>
      <trkpt lat="41.65889997035265" lon="-8.78917632624507">
        <ele>14.5625</ele>
      </trkpt>
      <trkpt lat="41.658927798271179" lon="-8.78910893574357">
        <ele>14.64453125</ele>
      </trkpt>
      <trkpt lat="41.658956212922931" lon="-8.789047412574291">
        <ele>14.71875</ele>
      </trkpt>
      <trkpt lat="41.658976078033447" lon="-8.788971640169621">
        <ele>14.80859375</ele>
      </trkpt>
      <trkpt lat="41.658982867375016" lon="-8.788892263546586">
        <ele>14.90234375</ele>
      </trkpt>
      <trkpt lat="41.658986220136285" lon="-8.788804169744253">
        <ele>15.0234375</ele>
      </trkpt>
      <trkpt lat="41.658978089690208" lon="-8.788730157539248">
        <ele>15.26953125</ele>
      </trkpt>
      <trkpt lat="41.658975910395384" lon="-8.788658240810037">
        <ele>15.51171875</ele>
      </trkpt>
      <trkpt lat="41.658987058326602" lon="-8.788584228605032">
        <ele>15.75390625</ele>
      </trkpt>
      <trkpt lat="41.659005582332611" lon="-8.788516754284501">
        <ele>15.96875</ele>
      </trkpt>
      <trkpt lat="41.659027626737952" lon="-8.788473587483168">
        <ele>16.09765625</ele>
      </trkpt>
      <trkpt lat="41.659718798473477" lon="-8.788014845922589">
        <ele>17.0390625</ele>
      </trkpt>
      <trkpt lat="41.659718798473477" lon="-8.788014845922589">
        <ele>17.0390625</ele>
      </trkpt>
      <trkpt lat="41.660019289702177" lon="-8.787790294736624">
        <ele>17.59375</ele>
      </trkpt>
      <trkpt lat="41.660071928054094" lon="-8.787761460989714">
        <ele>17.6875</ele>
      </trkpt>
      <trkpt lat="41.660123728215694" lon="-8.787725418806076">
        <ele>17.79296875</ele>
      </trkpt>
      <trkpt lat="41.660171169787645" lon="-8.787688538432121">
        <ele>17.8984375</ele>
      </trkpt>
      <trkpt lat="41.660219114273787" lon="-8.7876498978585">
        <ele>18.0078125</ele>
      </trkpt>
      <trkpt lat="41.660267477855086" lon="-8.78760295920074">
        <ele>18.1328125</ele>
      </trkpt>
      <trkpt lat="41.660310812294483" lon="-8.787559708580375">
        <ele>18.25390625</ele>
      </trkpt>
      <trkpt lat="41.6603634506464" lon="-8.787539340555668">
        <ele>18.3671875</ele>
      </trkpt>
      <trkpt lat="41.66042061522603" lon="-8.78754529170692">
        <ele>18.46875</ele>
      </trkpt>
      <trkpt lat="41.660464284941554" lon="-8.787596421316266">
        <ele>18.51171875</ele>
      </trkpt>
      <trkpt lat="41.660506278276443" lon="-8.78765232861042">
        <ele>18.59375</ele>
      </trkpt>
      <trkpt lat="41.660545757040381" lon="-8.787709744647145">
        <ele>18.66796875</ele>
      </trkpt>
      <trkpt lat="41.660581547766924" lon="-8.787768417969346">
        <ele>18.7265625</ele>
      </trkpt>
      <trkpt lat="41.66061750613153" lon="-8.787823570892215">
        <ele>18.7890625</ele>
      </trkpt>
      <trkpt lat="41.660656062886119" lon="-8.787883333861828">
        <ele>18.85546875</ele>
      </trkpt>
      <trkpt lat="41.66069470345974" lon="-8.787938402965665">
        <ele>18.9296875</ele>
      </trkpt>
      <trkpt lat="41.660730326548219" lon="-8.787993136793375">
        <ele>18.9921875</ele>
      </trkpt>
      <trkpt lat="41.660760501399636" lon="-8.788057090714574">
        <ele>19.0234375</ele>
      </trkpt>
      <trkpt lat="41.660786988213658" lon="-8.788123475387692">
        <ele>19.0390625</ele>
      </trkpt>
      <trkpt lat="41.66081297211349" lon="-8.788197739049792">
        <ele>19.04296875</ele>
      </trkpt>
      <trkpt lat="41.66083887219429" lon="-8.788278792053461">
        <ele>19.0390625</ele>
      </trkpt>
      <trkpt lat="41.660858653485775" lon="-8.788323719054461">
        <ele>19.05859375</ele>
      </trkpt>
      <trkpt lat="41.660958230495453" lon="-8.788465792313218">
        <ele>19.24609375</ele>
      </trkpt>
      <trkpt lat="41.660984130576253" lon="-8.788529075682163">
        <ele>19.26171875</ele>
      </trkpt>
      <trkpt lat="41.661019753664732" lon="-8.788628233596683">
        <ele>19.2734375</ele>
      </trkpt>
      <trkpt lat="41.661052359268069" lon="-8.788709873333573">
        <ele>19.29296875</ele>
      </trkpt>
      <trkpt lat="41.661081193014979" lon="-8.788781119510531">
        <ele>19.3125</ele>
      </trkpt>
      <trkpt lat="41.661103237420321" lon="-8.788854293525219">
        <ele>19.30078125</ele>
      </trkpt>
      <trkpt lat="41.66112469509244" lon="-8.788935765624046">
        <ele>19.28125</ele>
      </trkpt>
      <trkpt lat="41.661149337887764" lon="-8.789012795314193">
        <ele>19.27734375</ele>
      </trkpt>
      <trkpt lat="41.661171549931169" lon="-8.789087058976293">
        <ele>19.26953125</ele>
      </trkpt>
      <trkpt lat="41.661193007603288" lon="-8.789154617115855">
        <ele>19.265625</ele>
      </trkpt>
      <trkpt lat="41.661229971796274" lon="-8.789215218275785">
        <ele>19.32421875</ele>
      </trkpt>
      <trkpt lat="41.661264253780246" lon="-8.789277411997318">
        <ele>19.375</ele>
      </trkpt>
      <trkpt lat="41.661287220194936" lon="-8.78934295848012">
        <ele>19.38671875</ele>
      </trkpt>
      <trkpt lat="41.661309013143182" lon="-8.789417808875442">
        <ele>19.40625</ele>
      </trkpt>
      <trkpt lat="41.661325190216303" lon="-8.789490731433034">
        <ele>19.3984375</ele>
      </trkpt>
      <trkpt lat="41.661332985386252" lon="-8.789564575999975">
        <ele>19.34375</ele>
      </trkpt>
      <trkpt lat="41.661342121660709" lon="-8.789643701165915">
        <ele>19.28515625</ele>
      </trkpt>
      <trkpt lat="41.66135142557323" lon="-8.789731040596962">
        <ele>19.3203125</ele>
      </trkpt>
      <trkpt lat="41.661366429179907" lon="-8.789819637313485">
        <ele>19.37890625</ele>
      </trkpt>
      <trkpt lat="41.661378918215632" lon="-8.78989071585238">
        <ele>19.42578125</ele>
      </trkpt>
      <trkpt lat="41.661395598202944" lon="-8.789962800219655">
        <ele>19.48828125</ele>
      </trkpt>
      <trkpt lat="41.661416385322809" lon="-8.790034968405962">
        <ele>19.56640625</ele>
      </trkpt>
      <trkpt lat="41.661435244604945" lon="-8.790106633678079">
        <ele>19.62890625</ele>
      </trkpt>
      <trkpt lat="41.66145795956254" lon="-8.790178298950195">
        <ele>19.70703125</ele>
      </trkpt>
      <trkpt lat="41.661482937633991" lon="-8.79024401307106">
        <ele>19.7890625</ele>
      </trkpt>
      <trkpt lat="41.661504143849015" lon="-8.790311152115464">
        <ele>19.8515625</ele>
      </trkpt>
      <trkpt lat="41.661526020616293" lon="-8.790390361100435">
        <ele>19.90625</ele>
      </trkpt>
      <trkpt lat="41.661548484116793" lon="-8.790471078827977">
        <ele>19.9609375</ele>
      </trkpt>
      <trkpt lat="41.661562314257026" lon="-8.790547186508775">
        <ele>20.08984375</ele>
      </trkpt>
      <trkpt lat="41.661581676453352" lon="-8.79062270745635">
        <ele>20.25</ele>
      </trkpt>
      <trkpt lat="41.66160749271512" lon="-8.790693953633308">
        <ele>20.4296875</ele>
      </trkpt>
      <trkpt lat="41.661637332290411" lon="-8.790756398811936">
        <ele>20.61328125</ele>
      </trkpt>
      <trkpt lat="41.661664070561528" lon="-8.790828734636307">
        <ele>20.796875</ele>
      </trkpt>
      <trkpt lat="41.661700364202261" lon="-8.790891766548157">
        <ele>21</ele>
      </trkpt>
      <trkpt lat="41.661749565973878" lon="-8.790942979976535">
        <ele>21.2421875</ele>
      </trkpt>
      <trkpt lat="41.661799773573875" lon="-8.79097843542695">
        <ele>21.46484375</ele>
      </trkpt>
      <trkpt lat="41.661846209317446" lon="-8.791025541722775">
        <ele>21.6875</ele>
      </trkpt>
      <trkpt lat="41.661887196823955" lon="-8.791083544492722">
        <ele>21.90625</ele>
      </trkpt>
      <trkpt lat="41.661921143531799" lon="-8.791149174794555">
        <ele>22.10546875</ele>
      </trkpt>
      <trkpt lat="41.661952910944819" lon="-8.791211536154151">
        <ele>22.296875</ele>
      </trkpt>
      <trkpt lat="41.661980068311095" lon="-8.791275070980191">
        <ele>22.46875</ele>
      </trkpt>
      <trkpt lat="41.662009656429291" lon="-8.79134732298553">
        <ele>22.65234375</ele>
      </trkpt>
      <trkpt lat="41.662036143243313" lon="-8.791411276906729">
        <ele>22.8125</ele>
      </trkpt>
      <trkpt lat="41.662066401913762" lon="-8.791477410122752">
        <ele>23</ele>
      </trkpt>
      <trkpt lat="41.662104288116097" lon="-8.791550919413567">
        <ele>23.2421875</ele>
      </trkpt>
      <trkpt lat="41.662134965881705" lon="-8.791613699868321">
        <ele>23.47265625</ele>
      </trkpt>
      <trkpt lat="41.662167236208916" lon="-8.79168595187366">
        <ele>23.75390625</ele>
      </trkpt>
      <trkpt lat="41.662187771871686" lon="-8.791756024584174">
        <ele>23.9765625</ele>
      </trkpt>
      <trkpt lat="41.662214091047645" lon="-8.791826851665974">
        <ele>24.23828125</ele>
      </trkpt>
      <trkpt lat="41.662241164594889" lon="-8.791892398148775">
        <ele>24.51171875</ele>
      </trkpt>
      <trkpt lat="41.66227251291275" lon="-8.791956016793847">
        <ele>24.8203125</ele>
      </trkpt>
      <trkpt lat="41.662314590066671" lon="-8.792022736743093">
        <ele>25.21875</ele>
      </trkpt>
      <trkpt lat="41.662354990839958" lon="-8.79208467900753">
        <ele>25.61328125</ele>
      </trkpt>
      <trkpt lat="41.66238927282393" lon="-8.792146872729063">
        <ele>25.9765625</ele>
      </trkpt>
      <trkpt lat="41.662410227581859" lon="-8.79221417941153">
        <ele>26.23828125</ele>
      </trkpt>
      <trkpt lat="41.66243327781558" lon="-8.792290035635233">
        <ele>26.53125</ele>
      </trkpt>
      <trkpt lat="41.662462446838617" lon="-8.79235876724124">
        <ele>26.8671875</ele>
      </trkpt>
      <trkpt lat="41.662500500679016" lon="-8.792428085580468">
        <ele>27.2734375</ele>
      </trkpt>
      <trkpt lat="41.662536961957812" lon="-8.792487513273954">
        <ele>27.66015625</ele>
      </trkpt>
      <trkpt lat="41.662582559511065" lon="-8.792539816349745">
        <ele>28.109375</ele>
      </trkpt>
      <trkpt lat="41.662628743797541" lon="-8.792598154395819">
        <ele>28.58203125</ele>
      </trkpt>
      <trkpt lat="41.662667719647288" lon="-8.792654480785131">
        <ele>29</ele>
      </trkpt>
      <trkpt lat="41.662701079621911" lon="-8.792712483555079">
        <ele>29.3828125</ele>
      </trkpt>
      <trkpt lat="41.662734691053629" lon="-8.792773671448231">
        <ele>29.78125</ele>
      </trkpt>
      <trkpt lat="41.662782803177834" lon="-8.792822537943721">
        <ele>30.27734375</ele>
      </trkpt>
      <trkpt lat="41.662834016606212" lon="-8.792870230972767">
        <ele>30.80078125</ele>
      </trkpt>
      <trkpt lat="41.66288036853075" lon="-8.792921360582113">
        <ele>31.30078125</ele>
      </trkpt>
      <trkpt lat="41.662918925285339" lon="-8.792979028075933">
        <ele>31.75390625</ele>
      </trkpt>
      <trkpt lat="41.662960164248943" lon="-8.793029570952058">
        <ele>32.0703125</ele>
      </trkpt>
      <trkpt lat="41.663001403212547" lon="-8.793082041665912">
        <ele>32.30078125</ele>
      </trkpt>
      <trkpt lat="41.663050353527069" lon="-8.793118167668581">
        <ele>32.5703125</ele>
      </trkpt>
      <trkpt lat="41.66309486143291" lon="-8.793163262307644">
        <ele>32.80078125</ele>
      </trkpt>
      <trkpt lat="41.663127969950438" lon="-8.793219421058893">
        <ele>32.953125</ele>
      </trkpt>
      <trkpt lat="41.663151104003191" lon="-8.79328764975071">
        <ele>33.03515625</ele>
      </trkpt>
      <trkpt lat="41.663181446492672" lon="-8.793362248688936">
        <ele>33.140625</ele>
      </trkpt>
      <trkpt lat="41.663212794810534" lon="-8.793425196781754">
        <ele>33.24609375</ele>
      </trkpt>
      <trkpt lat="41.663248501718044" lon="-8.79348554648459">
        <ele>33.359375</ele>
      </trkpt>
      <trkpt lat="41.66328739374876" lon="-8.793548662215471">
        <ele>33.4765625</ele>
      </trkpt>
      <trkpt lat="41.663324944674969" lon="-8.793610353022814">
        <ele>33.5703125</ele>
      </trkpt>
      <trkpt lat="41.663360986858606" lon="-8.793665841221809">
        <ele>33.65625</ele>
      </trkpt>
      <trkpt lat="41.663405410945415" lon="-8.793694088235497">
        <ele>33.796875</ele>
      </trkpt>
      <trkpt lat="41.663426952436566" lon="-8.793759383261204">
        <ele>33.79296875</ele>
      </trkpt>
      <trkpt lat="41.663434915244579" lon="-8.793839430436492">
        <ele>33.65625</ele>
      </trkpt>
      <trkpt lat="41.663441956043243" lon="-8.793913275003433">
        <ele>33.453125</ele>
      </trkpt>
      <trkpt lat="41.663450002670288" lon="-8.793993657454848">
        <ele>33.23046875</ele>
      </trkpt>
      <trkpt lat="41.663457714021206" lon="-8.794071022421122">
        <ele>33.01171875</ele>
      </trkpt>
      <trkpt lat="41.663468945771456" lon="-8.794142603874207">
        <ele>32.82421875</ele>
      </trkpt>
      <trkpt lat="41.663486966863275" lon="-8.79420823417604">
        <ele>32.671875</ele>
      </trkpt>
      <trkpt lat="41.663528122007847" lon="-8.794249137863517">
        <ele>32.6640625</ele>
      </trkpt>
      <trkpt lat="41.663818722590804" lon="-8.794369334354997">
        <ele>32.98046875</ele>
      </trkpt>
      <trkpt lat="41.663878820836544" lon="-8.794408226385713">
        <ele>32.83984375</ele>
      </trkpt>
      <trkpt lat="41.663934476673603" lon="-8.794442256912589">
        <ele>32.71875</ele>
      </trkpt>
      <trkpt lat="41.663989881053567" lon="-8.794464636594057">
        <ele>32.63671875</ele>
      </trkpt>
      <trkpt lat="41.664043860509992" lon="-8.794474527239799">
        <ele>32.6015625</ele>
      </trkpt>
      <trkpt lat="41.66410094127059" lon="-8.794481065124273">
        <ele>32.578125</ele>
      </trkpt>
      <trkpt lat="41.664166152477264" lon="-8.794492548331618">
        <ele>32.53515625</ele>
      </trkpt>
      <trkpt lat="41.664220886304975" lon="-8.794509060680866">
        <ele>32.4765625</ele>
      </trkpt>
      <trkpt lat="41.664275201037526" lon="-8.7945297639817">
        <ele>32.40234375</ele>
      </trkpt>
      <trkpt lat="41.6643335390836" lon="-8.794538648799062">
        <ele>32.37109375</ele>
      </trkpt>
      <trkpt lat="41.664389362558722" lon="-8.79454049281776">
        <ele>32.36328125</ele>
      </trkpt>
      <trkpt lat="41.664445186033845" lon="-8.79454443231225">
        <ele>32.34765625</ele>
      </trkpt>
      <trkpt lat="41.664499249309301" lon="-8.794548120349646">
        <ele>32.3359375</ele>
      </trkpt>
      <trkpt lat="41.664555408060551" lon="-8.794558765366673">
        <ele>32.296875</ele>
      </trkpt>
      <trkpt lat="41.66461106389761" lon="-8.79456790164113">
        <ele>32.265625</ele>
      </trkpt>
      <trkpt lat="41.664666719734669" lon="-8.794573517516255">
        <ele>32.42578125</ele>
      </trkpt>
      <trkpt lat="41.664727404713631" lon="-8.794580809772015">
        <ele>32.60546875</ele>
      </trkpt>
      <trkpt lat="41.664786413311958" lon="-8.794591622427106">
        <ele>32.77734375</ele>
      </trkpt>
      <trkpt lat="41.664846260100603" lon="-8.794603776186705">
        <ele>32.9453125</ele>
      </trkpt>
      <trkpt lat="41.664904430508614" lon="-8.794612074270844">
        <ele>33.12890625</ele>
      </trkpt>
      <trkpt lat="41.664956230670214" lon="-8.794636465609074">
        <ele>33.24609375</ele>
      </trkpt>
      <trkpt lat="41.665010461583734" lon="-8.79467099905014">
        <ele>33.375</ele>
      </trkpt>
      <trkpt lat="41.665056981146336" lon="-8.794712238013744">
        <ele>33.47265625</ele>
      </trkpt>
      <trkpt lat="41.66510752402246" lon="-8.794748112559319">
        <ele>33.59765625</ele>
      </trkpt>
      <trkpt lat="41.665161922574043" lon="-8.794768899679184">
        <ele>33.76953125</ele>
      </trkpt>
      <trkpt lat="41.665217410773039" lon="-8.794770576059818">
        <ele>33.9765625</ele>
      </trkpt>
      <trkpt lat="41.66527658700943" lon="-8.794772420078516">
        <ele>34.1953125</ele>
      </trkpt>
      <trkpt lat="41.665341546759009" lon="-8.794774180278182">
        <ele>34.44140625</ele>
      </trkpt>
      <trkpt lat="41.665395693853498" lon="-8.794770492240787">
        <ele>34.65234375</ele>
      </trkpt>
      <trkpt lat="41.665458222851157" lon="-8.794762780889869">
        <ele>34.91796875</ele>
      </trkpt>
      <trkpt lat="41.665513208135962" lon="-8.794748783111572">
        <ele>35.25</ele>
      </trkpt>
      <trkpt lat="41.665572049096227" lon="-8.794724391773343">
        <ele>35.62109375</ele>
      </trkpt>
      <trkpt lat="41.665631225332618" lon="-8.794699497520924">
        <ele>36.0078125</ele>
      </trkpt>
      <trkpt lat="41.66568461805582" lon="-8.794682733714581">
        <ele>36.34765625</ele>
      </trkpt>
      <trkpt lat="41.665745889768004" lon="-8.794669741764665">
        <ele>36.73828125</ele>
      </trkpt>
      <trkpt lat="41.665799953043461" lon="-8.794654738157988">
        <ele>37.08984375</ele>
      </trkpt>
      <trkpt lat="41.665860721841455" lon="-8.79463923163712">
        <ele>37.48828125</ele>
      </trkpt>
      <trkpt lat="41.665919059887528" lon="-8.79462942481041">
        <ele>37.84765625</ele>
      </trkpt>
      <trkpt lat="41.665974548086524" lon="-8.794613247737288">
        <ele>38.203125</ele>
      </trkpt>
      <trkpt lat="41.666034059599042" lon="-8.794605201110244">
        <ele>38.5703125</ele>
      </trkpt>
      <trkpt lat="41.666090050712228" lon="-8.79460503347218">
        <ele>38.90625</ele>
      </trkpt>
      <trkpt lat="41.666145622730255" lon="-8.794610314071178">
        <ele>39.23046875</ele>
      </trkpt>
      <trkpt lat="41.666200943291187" lon="-8.794622300192714">
        <ele>39.55078125</ele>
      </trkpt>
      <trkpt lat="41.66626313701272" lon="-8.794629676267505">
        <ele>39.9140625</ele>
      </trkpt>
      <trkpt lat="41.666319044306874" lon="-8.794631687924266">
        <ele>40.25</ele>
      </trkpt>
      <trkpt lat="41.666381740942597" lon="-8.794639483094215">
        <ele>40.6171875</ele>
      </trkpt>
      <trkpt lat="41.666447119787335" lon="-8.794643422588706">
        <ele>40.99609375</ele>
      </trkpt>
      <trkpt lat="41.666506882756948" lon="-8.794646859169006">
        <ele>41.34375</ele>
      </trkpt>
      <trkpt lat="41.666562622413039" lon="-8.794659012928605">
        <ele>41.62890625</ele>
      </trkpt>
      <trkpt lat="41.666622888296843" lon="-8.794675776734948">
        <ele>41.91796875</ele>
      </trkpt>
      <trkpt lat="41.666674939915538" lon="-8.794696563854814">
        <ele>42.14453125</ele>
      </trkpt>
      <trkpt lat="41.666728584095836" lon="-8.794712405651808">
        <ele>42.39453125</ele>
      </trkpt>
      <trkpt lat="41.666779462248087" lon="-8.794743753969669">
        <ele>42.55859375</ele>
      </trkpt>
      <trkpt lat="41.666824640706182" lon="-8.794780550524592">
        <ele>42.66015625</ele>
      </trkpt>
      <trkpt lat="41.666877949610353" lon="-8.79480142146349">
        <ele>42.87890625</ele>
      </trkpt>
      <trkpt lat="41.66693402454257" lon="-8.794815754517913">
        <ele>43.13671875</ele>
      </trkpt>
      <trkpt lat="41.666988842189312" lon="-8.794817598536611">
        <ele>43.44140625</ele>
      </trkpt>
      <trkpt lat="41.667044414207339" lon="-8.794817598536611">
        <ele>43.76171875</ele>
      </trkpt>
      <trkpt lat="41.667098477482796" lon="-8.794821118935943">
        <ele>44.0546875</ele>
      </trkpt>
      <trkpt lat="41.667159330099821" lon="-8.79483126103878">
        <ele>44.55078125</ele>
      </trkpt>
      <trkpt lat="41.667212303727865" lon="-8.794851712882519">
        <ele>44.98046875</ele>
      </trkpt>
      <trkpt lat="41.667263433337212" lon="-8.794879792258143">
        <ele>45.35546875</ele>
      </trkpt>
      <trkpt lat="41.667301068082452" lon="-8.794931676238775">
        <ele>45.49609375</ele>
      </trkpt>
      <trkpt lat="41.667337026447058" lon="-8.794991858303547">
        <ele>45.5859375</ele>
      </trkpt>
      <trkpt lat="41.667377762496471" lon="-8.795045502483845">
        <ele>45.76171875</ele>
      </trkpt>
      <trkpt lat="41.667419672012329" lon="-8.795106019824743">
        <ele>45.92578125</ele>
      </trkpt>
      <trkpt lat="41.667461497709155" lon="-8.795170392841101">
        <ele>46.078125</ele>
      </trkpt>
      <trkpt lat="41.667505083605647" lon="-8.795215990394354">
        <ele>46.3359375</ele>
      </trkpt>
      <trkpt lat="41.667556632310152" lon="-8.79524021409452">
        <ele>46.7734375</ele>
      </trkpt>
      <trkpt lat="41.667612958699465" lon="-8.795247171074152">
        <ele>47.3359375</ele>
      </trkpt>
      <trkpt lat="41.667669033631682" lon="-8.79524901509285">
        <ele>47.9140625</ele>
      </trkpt>
      <trkpt lat="41.667718151584268" lon="-8.795223031193018">
        <ele>48.53125</ele>
      </trkpt>
      <trkpt lat="41.667763749137521" lon="-8.795185647904873">
        <ele>49.15234375</ele>
      </trkpt>
      <trkpt lat="41.66780767031014" lon="-8.795136949047446">
        <ele>49.79296875</ele>
      </trkpt>
      <trkpt lat="41.667855950072408" lon="-8.795090178027749">
        <ele>50.46875</ele>
      </trkpt>
      <trkpt lat="41.667904984205961" lon="-8.795038796961308">
        <ele>51.15625</ele>
      </trkpt>
      <trkpt lat="41.667956197634339" lon="-8.794989595189691">
        <ele>51.87109375</ele>
      </trkpt>
      <trkpt lat="41.668004142120481" lon="-8.794948104768991">
        <ele>52.57421875</ele>
      </trkpt>
      <trkpt lat="41.668062480166554" lon="-8.794919103384018">
        <ele>53.359375</ele>
      </trkpt>
      <trkpt lat="41.668115369975567" lon="-8.794902423396707">
        <ele>54.0390625</ele>
      </trkpt>
      <trkpt lat="41.668167086318135" lon="-8.794878283515573">
        <ele>54.734375</ele>
      </trkpt>
      <trkpt lat="41.668202541768551" lon="-8.794821202754974">
        <ele>55.375</ele>
      </trkpt>
      <trkpt lat="41.668230872601271" lon="-8.79475406371057">
        <ele>55.9765625</ele>
      </trkpt>
      <trkpt lat="41.668260041624308" lon="-8.794690109789371">
        <ele>56.58203125</ele>
      </trkpt>
      <trkpt lat="41.66829046793282" lon="-8.794626910239458">
        <ele>57.1796875</ele>
      </trkpt>
      <trkpt lat="41.668334640562534" lon="-8.794579552486539">
        <ele>57.82421875</ele>
      </trkpt>
      <trkpt lat="41.668387865647674" lon="-8.794558178633451">
        <ele>58.51171875</ele>
      </trkpt>
      <trkpt lat="41.668443437665701" lon="-8.794567734003067">
        <ele>59.15625</ele>
      </trkpt>
      <trkpt lat="41.668492471799254" lon="-8.794619031250477">
        <ele>59.62109375</ele>
      </trkpt>
      <trkpt lat="41.668534716591239" lon="-8.794664964079857">
        <ele>59.97265625</ele>
      </trkpt>
      <trkpt lat="41.668569166213274" lon="-8.794722631573677">
        <ele>60.125</ele>
      </trkpt>
      <trkpt lat="41.668604034930468" lon="-8.794781640172005">
        <ele>60.26953125</ele>
      </trkpt>
      <trkpt lat="41.668634628877044" lon="-8.79485129378736">
        <ele>60.3125</ele>
      </trkpt>
      <trkpt lat="41.668664552271366" lon="-8.794913990423083">
        <ele>60.37109375</ele>
      </trkpt>
      <trkpt lat="41.668697996065021" lon="-8.794977609068155">
        <ele>60.4609375</ele>
      </trkpt>
      <trkpt lat="41.66872825473547" lon="-8.795045418664813">
        <ele>60.48828125</ele>
      </trkpt>
      <trkpt lat="41.668757759034634" lon="-8.795118592679501">
        <ele>60.4765625</ele>
      </trkpt>
      <trkpt lat="41.668778210878372" lon="-8.795190090313554">
        <ele>60.36328125</ele>
      </trkpt>
      <trkpt lat="41.668798997998238" lon="-8.795262593775988">
        <ele>60.2734375</ele>
      </trkpt>
      <trkpt lat="41.668824395164847" lon="-8.795331157743931">
        <ele>60.25</ele>
      </trkpt>
      <trkpt lat="41.668853815644979" lon="-8.795396285131574">
        <ele>60.29296875</ele>
      </trkpt>
      <trkpt lat="41.668901676312089" lon="-8.795445486903191">
        <ele>60.625</ele>
      </trkpt>
      <trkpt lat="41.668947357684374" lon="-8.795488402247429">
        <ele>61.015625</ele>
      </trkpt>
      <trkpt lat="41.669008210301399" lon="-8.7955192476511">
        <ele>61.70703125</ele>
      </trkpt>
      <trkpt lat="41.66904148645699" lon="-8.795533748343587">
        <ele>62.08984375</ele>
      </trkpt>
      <trkpt lat="41.669348683208227" lon="-8.795673809945583">
        <ele>65.609375</ele>
      </trkpt>
      <trkpt lat="41.669358154758811" lon="-8.795672552660108">
        <ele>65.7265625</ele>
      </trkpt>
      <trkpt lat="41.669659065082669" lon="-8.795772800222039">
        <ele>69.37109375</ele>
      </trkpt>
      <trkpt lat="41.669707093387842" lon="-8.795816469937563">
        <ele>70.04296875</ele>
      </trkpt>
      <trkpt lat="41.669757887721062" lon="-8.795847902074456">
        <ele>70.765625</ele>
      </trkpt>
      <trkpt lat="41.669808514416218" lon="-8.795879334211349">
        <ele>71.48046875</ele>
      </trkpt>
      <trkpt lat="41.669865343719721" lon="-8.795909844338894">
        <ele>72.28515625</ele>
      </trkpt>
      <trkpt lat="41.669922256842256" lon="-8.795948820188642">
        <ele>73.07421875</ele>
      </trkpt>
      <trkpt lat="41.669970285147429" lon="-8.795996680855751">
        <ele>73.7109375</ele>
      </trkpt>
      <trkpt lat="41.670015882700682" lon="-8.796035489067435">
        <ele>74.31640625</ele>
      </trkpt>
      <trkpt lat="41.670063072815537" lon="-8.79607287235558">
        <ele>74.94921875</ele>
      </trkpt>
      <trkpt lat="41.67011696845293" lon="-8.796111764386296">
        <ele>75.66796875</ele>
      </trkpt>
      <trkpt lat="41.670170025900006" lon="-8.796145124360919">
        <ele>76.37890625</ele>
      </trkpt>
      <trkpt lat="41.670223083347082" lon="-8.796184435486794">
        <ele>77.07421875</ele>
      </trkpt>
      <trkpt lat="41.67027966119349" lon="-8.796227267012">
        <ele>77.80859375</ele>
      </trkpt>
      <trkpt lat="41.670327270403504" lon="-8.796264985576272">
        <ele>78.4140625</ele>
      </trkpt>
      <trkpt lat="41.670381836593151" lon="-8.796303123235703">
        <ele>79.1171875</ele>
      </trkpt>
      <trkpt lat="41.670433804392815" lon="-8.796333381906152">
        <ele>79.76171875</ele>
      </trkpt>
      <trkpt lat="41.67048828676343" lon="-8.796367747709155">
        <ele>80.55859375</ele>
      </trkpt>
      <trkpt lat="41.670541260391474" lon="-8.796408399939537">
        <ele>81.3046875</ele>
      </trkpt>
      <trkpt lat="41.670597838237882" lon="-8.796447878703475">
        <ele>82.078125</ele>
      </trkpt>
      <trkpt lat="41.670648297294974" lon="-8.796479478478432">
        <ele>82.7578125</ele>
      </trkpt>
      <trkpt lat="41.670699426904321" lon="-8.796507641673088">
        <ele>83.4375</ele>
      </trkpt>
      <trkpt lat="41.670748628675938" lon="-8.796538906171918">
        <ele>84.04296875</ele>
      </trkpt>
      <trkpt lat="41.670806715264916" lon="-8.796576792374253">
        <ele>84.71875</ele>
      </trkpt>
      <trkpt lat="41.670869998633862" lon="-8.79662062972784">
        <ele>85.390625</ele>
      </trkpt>
      <trkpt lat="41.670925738289952" lon="-8.796658935025334">
        <ele>85.9453125</ele>
      </trkpt>
      <trkpt lat="41.670981477946043" lon="-8.79670612514019">
        <ele>86.390625</ele>
      </trkpt>
      <trkpt lat="41.671034451574087" lon="-8.796742837876081">
        <ele>86.83984375</ele>
      </trkpt>
      <trkpt lat="41.671086587011814" lon="-8.7967833224684">
        <ele>87.21484375</ele>
      </trkpt>
      <trkpt lat="41.671138387173414" lon="-8.79681115038693">
        <ele>87.6640625</ele>
      </trkpt>
      <trkpt lat="41.671193623915315" lon="-8.796839732676744">
        <ele>88.1328125</ele>
      </trkpt>
      <trkpt lat="41.67125397361815" lon="-8.796867812052369">
        <ele>88.640625</ele>
      </trkpt>
      <trkpt lat="41.671308120712638" lon="-8.796894969418645">
        <ele>89.234375</ele>
      </trkpt>
      <trkpt lat="41.671364698559046" lon="-8.796925144270062">
        <ele>89.9609375</ele>
      </trkpt>
      <trkpt lat="41.67142110876739" lon="-8.796956995502114">
        <ele>90.65625</ele>
      </trkpt>
      <trkpt lat="41.671470897272229" lon="-8.796990690752864">
        <ele>91.1953125</ele>
      </trkpt>
      <trkpt lat="41.671525463461876" lon="-8.797027403488755">
        <ele>91.77734375</ele>
      </trkpt>
      <trkpt lat="41.671577012166381" lon="-8.797064954414964">
        <ele>92.28515625</ele>
      </trkpt>
      <trkpt lat="41.671631578356028" lon="-8.797103259712458">
        <ele>92.82421875</ele>
      </trkpt>
      <trkpt lat="41.671677511185408" lon="-8.797144331037998">
        <ele>93.1953125</ele>
      </trkpt>
      <trkpt lat="41.671724366024137" lon="-8.797186324372888">
        <ele>93.8046875</ele>
      </trkpt>
      <trkpt lat="41.671774154528975" lon="-8.797229742631316">
        <ele>94.4453125</ele>
      </trkpt>
      <trkpt lat="41.671822518110275" lon="-8.797274753451347">
        <ele>95.02734375</ele>
      </trkpt>
      <trkpt lat="41.671870043501258" lon="-8.797322111204267">
        <ele>95.5625</ele>
      </trkpt>
      <trkpt lat="41.671917317435145" lon="-8.797383131459355">
        <ele>95.98828125</ele>
      </trkpt>
      <trkpt lat="41.671960484236479" lon="-8.797451443970203">
        <ele>96.2734375</ele>
      </trkpt>
      <trkpt lat="41.671995855867863" lon="-8.797507770359516">
        <ele>96.484375</ele>
      </trkpt>
      <trkpt lat="41.67203089222312" lon="-8.797565521672368">
        <ele>96.6640625</ele>
      </trkpt>
      <trkpt lat="41.672069281339645" lon="-8.797624697908759">
        <ele>96.8671875</ele>
      </trkpt>
      <trkpt lat="41.672075986862183" lon="-8.797637857496738">
        <ele>96.8828125</ele>
      </trkpt>
      <trkpt lat="41.672201044857502" lon="-8.797831814736128">
        <ele>98.0859375</ele>
      </trkpt>
      <trkpt lat="41.672234404832125" lon="-8.797905826941133">
        <ele>98.2421875</ele>
      </trkpt>
      <trkpt lat="41.672268100082874" lon="-8.797968355938792">
        <ele>98.46484375</ele>
      </trkpt>
      <trkpt lat="41.672301376238465" lon="-8.798041781410575">
        <ele>99.05859375</ele>
      </trkpt>
      <trkpt lat="41.672333143651485" lon="-8.798105316236615">
        <ele>99.609375</ele>
      </trkpt>
      <trkpt lat="41.672365330159664" lon="-8.798172036185861">
        <ele>100.10546875</ele>
      </trkpt>
      <trkpt lat="41.672412771731615" lon="-8.798251580446959">
        <ele>100.79296875</ele>
      </trkpt>
      <trkpt lat="41.672448143362999" lon="-8.798322407528758">
        <ele>101.203125</ele>
      </trkpt>
      <trkpt lat="41.672484604641795" lon="-8.798382086679339">
        <ele>101.60546875</ele>
      </trkpt>
      <trkpt lat="41.672523412853479" lon="-8.798443609848619">
        <ele>101.984375</ele>
      </trkpt>
      <trkpt lat="41.672564567998052" lon="-8.798508988693357">
        <ele>102.3125</ele>
      </trkpt>
      <trkpt lat="41.672603292390704" lon="-8.798563051968813">
        <ele>102.59765625</ele>
      </trkpt>
      <trkpt lat="41.672646207734942" lon="-8.798615438863635">
        <ele>102.89453125</ele>
      </trkpt>
      <trkpt lat="41.67268174700439" lon="-8.798675369471312">
        <ele>102.99609375</ele>
      </trkpt>
      <trkpt lat="41.672717034816742" lon="-8.798738736659288">
        <ele>103.01171875</ele>
      </trkpt>
      <trkpt lat="41.672749808058143" lon="-8.798803947865963">
        <ele>102.9296875</ele>
      </trkpt>
      <trkpt lat="41.672778474166989" lon="-8.798882151022553">
        <ele>103.1171875</ele>
      </trkpt>
      <trkpt lat="41.672809403389692" lon="-8.798956414684653">
        <ele>103.31640625</ele>
      </trkpt>
      <trkpt lat="41.672837398946285" lon="-8.799027912318707">
        <ele>103.46484375</ele>
      </trkpt>
      <trkpt lat="41.672861287370324" lon="-8.799097817391157">
        <ele>103.55859375</ele>
      </trkpt>
      <trkpt lat="41.672894060611725" lon="-8.799177277833223">
        <ele>103.6875</ele>
      </trkpt>
      <trkpt lat="41.672922559082508" lon="-8.799253636971116">
        <ele>103.76171875</ele>
      </trkpt>
      <trkpt lat="41.672943262383342" lon="-8.799325888976455">
        <ele>103.7578125</ele>
      </trkpt>
      <trkpt lat="41.672963295131922" lon="-8.799393279477954">
        <ele>103.765625</ele>
      </trkpt>
      <trkpt lat="41.672991961240768" lon="-8.799461927264929">
        <ele>103.80859375</ele>
      </trkpt>
      <trkpt lat="41.673026075586677" lon="-8.799520181491971">
        <ele>103.88671875</ele>
      </trkpt>
      <trkpt lat="41.673066643998027" lon="-8.799574077129364">
        <ele>103.98046875</ele>
      </trkpt>
      <trkpt lat="41.673144428059459" lon="-8.799667451530695">
        <ele>104.1875</ele>
      </trkpt>
      <trkpt lat="41.673204191029072" lon="-8.799742721021175">
        <ele>104.421875</ele>
      </trkpt>
      <trkpt lat="41.673257164657116" lon="-8.79981036297977">
        <ele>104.55078125</ele>
      </trkpt>
      <trkpt lat="41.673308042809367" lon="-8.799863755702972">
        <ele>104.6328125</ele>
      </trkpt>
      <trkpt lat="41.673354143276811" lon="-8.799910778179765">
        <ele>104.66796875</ele>
      </trkpt>
      <trkpt lat="41.673391442745924" lon="-8.799965092912316">
        <ele>104.609375</ele>
      </trkpt>
      <trkpt lat="41.673425054177642" lon="-8.800027789548039">
        <ele>104.46875</ele>
      </trkpt>
      <trkpt lat="41.673463108018041" lon="-8.800084618851542">
        <ele>104.31640625</ele>
      </trkpt>
      <trkpt lat="41.673506693914533" lon="-8.800134994089603">
        <ele>104.15625</ele>
      </trkpt>
      <trkpt lat="41.67355983518064" lon="-8.800202803686261">
        <ele>103.8671875</ele>
      </trkpt>
      <trkpt lat="41.6735930275172" lon="-8.800260135903955">
        <ele>103.5703125</ele>
      </trkpt>
      <trkpt lat="41.673635104671121" lon="-8.800320904701948">
        <ele>103.20703125</ele>
      </trkpt>
      <trkpt lat="41.673675924539566" lon="-8.800370022654533">
        <ele>102.8671875</ele>
      </trkpt>
      <trkpt lat="41.67371666058898" lon="-8.800434898585081">
        <ele>102.3828125</ele>
      </trkpt>
      <trkpt lat="41.67375722900033" lon="-8.800493823364377">
        <ele>101.859375</ele>
      </trkpt>
      <trkpt lat="41.673798803240061" lon="-8.800547886639833">
        <ele>101.19921875</ele>
      </trkpt>
      <trkpt lat="41.673838952556252" lon="-8.800597591325641">
        <ele>100.484375</ele>
      </trkpt>
      <trkpt lat="41.673880442976952" lon="-8.800646206364036">
        <ele>99.73828125</ele>
      </trkpt>
      <trkpt lat="41.6739262919873" lon="-8.800701694563031">
        <ele>98.85546875</ele>
      </trkpt>
      <trkpt lat="41.673968285322189" lon="-8.800751399248838">
        <ele>98.01953125</ele>
      </trkpt>
      <trkpt lat="41.674010865390301" lon="-8.800797583535314">
        <ele>97.17578125</ele>
      </trkpt>
      <trkpt lat="41.67406652122736" lon="-8.800830189138651">
        <ele>96.328125</ele>
      </trkpt>
      <trkpt lat="41.67412418872118" lon="-8.800858687609434">
        <ele>95.48046875</ele>
      </trkpt>
      <trkpt lat="41.674173977226019" lon="-8.800885593518615">
        <ele>94.6953125</ele>
      </trkpt>
      <trkpt lat="41.674224017187953" lon="-8.800918450579047">
        <ele>93.80859375</ele>
      </trkpt>
      <trkpt lat="41.67427665553987" lon="-8.800950888544321">
        <ele>92.87890625</ele>
      </trkpt>
      <trkpt lat="41.674327030777931" lon="-8.800978465005755">
        <ele>92.00390625</ele>
      </trkpt>
      <trkpt lat="41.674378914758563" lon="-8.801007969304919">
        <ele>91.0625</ele>
      </trkpt>
      <trkpt lat="41.674432894214988" lon="-8.801032779738307">
        <ele>90.13671875</ele>
      </trkpt>
      <trkpt lat="41.674485532566905" lon="-8.80104904063046">
        <ele>89.328125</ele>
      </trkpt>
      <trkpt lat="41.674544792622328" lon="-8.801070749759674">
        <ele>88.34765625</ele>
      </trkpt>
      <trkpt lat="41.67457471601665" lon="-8.801086004823446">
        <ele>87.78125</ele>
      </trkpt>
      <trkpt lat="41.675135130062699" lon="-8.801243752241135">
        <ele>79.3828125</ele>
      </trkpt>
      <trkpt lat="41.675136890262365" lon="-8.801243752241135">
        <ele>79.36328125</ele>
      </trkpt>
      <trkpt lat="41.675628907978535" lon="-8.801327655091882">
        <ele>73.6328125</ele>
      </trkpt>
      <trkpt lat="41.675694370642304" lon="-8.801336791366339">
        <ele>73.140625</ele>
      </trkpt>
      <trkpt lat="41.675748685374856" lon="-8.801348190754652">
        <ele>72.6875</ele>
      </trkpt>
      <trkpt lat="41.675804508849978" lon="-8.801363864913583">
        <ele>72.1796875</ele>
      </trkpt>
      <trkpt lat="41.675857733935118" lon="-8.801379790529609">
        <ele>71.6796875</ele>
      </trkpt>
      <trkpt lat="41.675916658714414" lon="-8.801405942067504">
        <ele>71.0234375</ele>
      </trkpt>
      <trkpt lat="41.675971057265997" lon="-8.801438966766">
        <ele>70.31640625</ele>
      </trkpt>
      <trkpt lat="41.676026629284024" lon="-8.801477439701557">
        <ele>69.5234375</ele>
      </trkpt>
      <trkpt lat="41.676083793863654" lon="-8.801521360874176">
        <ele>68.6484375</ele>
      </trkpt>
      <trkpt lat="41.676131235435605" lon="-8.801556816324592">
        <ele>67.92578125</ele>
      </trkpt>
      <trkpt lat="41.67617934755981" lon="-8.801593948155642">
        <ele>67.1640625</ele>
      </trkpt>
      <trkpt lat="41.676231063902378" lon="-8.80163392983377">
        <ele>66.3359375</ele>
      </trkpt>
      <trkpt lat="41.676276661455631" lon="-8.801671899855137">
        <ele>65.5625</ele>
      </trkpt>
      <trkpt lat="41.6763283777982" lon="-8.801711965352297">
        <ele>64.7421875</ele>
      </trkpt>
      <trkpt lat="41.676374981179833" lon="-8.80175756290555">
        <ele>63.890625</ele>
      </trkpt>
      <trkpt lat="41.676428373903036" lon="-8.801798550412059">
        <ele>63.05859375</ele>
      </trkpt>
      <trkpt lat="41.676481263712049" lon="-8.801839286461473">
        <ele>62.23828125</ele>
      </trkpt>
      <trkpt lat="41.676532896235585" lon="-8.80188412964344">
        <ele>61.3828125</ele>
      </trkpt>
      <trkpt lat="41.676589976996183" lon="-8.801930313929915">
        <ele>60.48828125</ele>
      </trkpt>
      <trkpt lat="41.676637670025229" lon="-8.801964344456792">
        <ele>59.796875</ele>
      </trkpt>
      <trkpt lat="41.676685782149434" lon="-8.802008349448442">
        <ele>58.9921875</ele>
      </trkpt>
      <trkpt lat="41.676730709150434" lon="-8.802061071619391">
        <ele>58.1171875</ele>
      </trkpt>
      <trkpt lat="41.676768762990832" lon="-8.802118487656116">
        <ele>57.234375</ele>
      </trkpt>
      <trkpt lat="41.676786197349429" lon="-8.80215872079134">
        <ele>56.77734375</ele>
      </trkpt>
      <trkpt lat="41.678045578300953" lon="-8.803590936586261">
        <ele>39.09375</ele>
      </trkpt>
      <trkpt lat="41.678045578300953" lon="-8.8035923615098">
        <ele>39.0859375</ele>
      </trkpt>
      <trkpt lat="41.679142853245139" lon="-8.804960288107395">
        <ele>28.10546875</ele>
      </trkpt>
      <trkpt lat="41.679142015054822" lon="-8.804960288107395">
        <ele>28.10546875</ele>
      </trkpt>
      <trkpt lat="41.679869899526238" lon="-8.805957399308681">
        <ele>22.05859375</ele>
      </trkpt>
      <trkpt lat="41.679870737716556" lon="-8.805957399308681">
        <ele>22.0546875</ele>
      </trkpt>
      <trkpt lat="41.680423775687814" lon="-8.806639267131686">
        <ele>19.6328125</ele>
      </trkpt>
      <trkpt lat="41.680481359362602" lon="-8.806766420602798">
        <ele>19.26171875</ele>
      </trkpt>
      <trkpt lat="41.68049979954958" lon="-8.806913774460554">
        <ele>19.01953125</ele>
      </trkpt>
      <trkpt lat="41.68049787171185" lon="-8.807061295956373">
        <ele>18.86328125</ele>
      </trkpt>
      <trkpt lat="41.680560233071446" lon="-8.807168500497937">
        <ele>18.48828125</ele>
      </trkpt>
      <trkpt lat="41.680672215297818" lon="-8.80715006031096">
        <ele>18.12890625</ele>
      </trkpt>
      <trkpt lat="41.68077883310616" lon="-8.807138660922647">
        <ele>17.765625</ele>
      </trkpt>
      <trkpt lat="41.680871117860079" lon="-8.807205632328987">
        <ele>17.35546875</ele>
      </trkpt>
      <trkpt lat="41.682156985625625" lon="-8.808704065158963">
        <ele>13.86328125</ele>
      </trkpt>
      <trkpt lat="41.682158745825291" lon="-8.80869853310287">
        <ele>13.859375</ele>
      </trkpt>
      <trkpt lat="41.683551734313369" lon="-8.810327807441354">
        <ele>13.93359375</ele>
      </trkpt>
      <trkpt lat="41.684008464217186" lon="-8.810855448246002">
        <ele>12.3671875</ele>
      </trkpt>
      <trkpt lat="41.684008464217186" lon="-8.810858130455017">
        <ele>12.37109375</ele>
      </trkpt>
      <trkpt lat="41.685692137107253" lon="-8.812337201088667">
        <ele>6.2109375</ele>
      </trkpt>
      <trkpt lat="41.685777632519603" lon="-8.812426384538412">
        <ele>5.96875</ele>
      </trkpt>
      <trkpt lat="41.685873018577695" lon="-8.812516489997506">
        <ele>5.7265625</ele>
      </trkpt>
      <trkpt lat="41.685994053259492" lon="-8.812578935176134">
        <ele>5.48046875</ele>
      </trkpt>
      <trkpt lat="41.686105700209737" lon="-8.812627801671624">
        <ele>5.2734375</ele>
      </trkpt>
      <trkpt lat="41.68621483258903" lon="-8.812656048685312">
        <ele>5.0859375</ele>
      </trkpt>
      <trkpt lat="41.686323629692197" lon="-8.812677087262273">
        <ele>4.88671875</ele>
      </trkpt>
      <trkpt lat="41.686429241672158" lon="-8.812696030363441">
        <ele>4.67578125</ele>
      </trkpt>
      <trkpt lat="41.68654415756464" lon="-8.81266275420785">
        <ele>4.45703125</ele>
      </trkpt>
      <trkpt lat="41.686653960496187" lon="-8.812634674832225">
        <ele>4.25390625</ele>
      </trkpt>
      <trkpt lat="41.686770133674145" lon="-8.812603326514363">
        <ele>4.0546875</ele>
      </trkpt>
      <trkpt lat="41.686886474490166" lon="-8.812570217996836">
        <ele>3.86328125</ele>
      </trkpt>
      <trkpt lat="41.686995690688491" lon="-8.812539037317038">
        <ele>3.6953125</ele>
      </trkpt>
      <trkpt lat="41.687105158343911" lon="-8.812522022053599">
        <ele>3.51953125</ele>
      </trkpt>
      <trkpt lat="41.687214458361268" lon="-8.812518753111362">
        <ele>3.26171875</ele>
      </trkpt>
      <trkpt lat="41.687323171645403" lon="-8.812547586858273">
        <ele>2.96484375</ele>
      </trkpt>
      <trkpt lat="41.687432136386633" lon="-8.812590502202511">
        <ele>2.65234375</ele>
      </trkpt>
      <trkpt lat="41.687521990388632" lon="-8.812675913795829">
        <ele>2.33203125</ele>
      </trkpt>
      <trkpt lat="41.687614442780614" lon="-8.812773982062936">
        <ele>1.9921875</ele>
      </trkpt>
      <trkpt lat="41.687696250155568" lon="-8.812868446111679">
        <ele>1.68359375</ele>
      </trkpt>
      <trkpt lat="41.687792306765914" lon="-8.812918150797486">
        <ele>1.39453125</ele>
      </trkpt>
      <trkpt lat="41.687904288992286" lon="-8.812895603477955">
        <ele>1.15234375</ele>
      </trkpt>
      <trkpt lat="41.688006715849042" lon="-8.812846653163433">
        <ele>1.0390625</ele>
      </trkpt>
      <trkpt lat="41.68807259760797" lon="-8.812796361744404">
        <ele>1</ele>
      </trkpt>
      <trkpt lat="41.688378034159541" lon="-8.812900213524699">
        <ele>0.5</ele>
      </trkpt>
      <trkpt lat="41.689482936635613" lon="-8.814309546723962">
        <ele>0.140625</ele>
      </trkpt>
      <trkpt lat="41.689483020454645" lon="-8.814309546723962">
        <ele>0.140625</ele>
      </trkpt>
      <trkpt lat="41.690357839688659" lon="-8.815386788919568">
        <ele>0</ele>
      </trkpt>
      <trkpt lat="41.691020429134369" lon="-8.816228667274117">
        <ele>0</ele>
      </trkpt>
      <trkpt lat="41.691100895404816" lon="-8.816327406093478">
        <ele>0</ele>
      </trkpt>
      <trkpt lat="41.691197957843542" lon="-8.816393287852407">
        <ele>0</ele>
      </trkpt>
      <trkpt lat="41.69128286652267" lon="-8.81641642190516">
        <ele>0</ele>
      </trkpt>
      <trkpt lat="41.693553775548935" lon="-8.819385627284646">
        <ele>0</ele>
      </trkpt>
      <trkpt lat="41.694734282791615" lon="-8.820941727608442">
        <ele>2.6640625</ele>
      </trkpt>
      <trkpt lat="41.694734282791615" lon="-8.820947175845504">
        <ele>2.6640625</ele>
      </trkpt>
      <trkpt lat="41.695232838392258" lon="-8.821544721722603">
        <ele>5.36328125</ele>
      </trkpt>
      <trkpt lat="41.695312298834324" lon="-8.821659050881863">
        <ele>5.8828125</ele>
      </trkpt>
      <trkpt lat="41.695402152836323" lon="-8.821775978431106">
        <ele>6.453125</ele>
      </trkpt>
      <trkpt lat="41.695483541116118" lon="-8.821884356439114">
        <ele>6.75</ele>
      </trkpt>
      <trkpt lat="41.695561157539487" lon="-8.821983933448792">
        <ele>6.8828125</ele>
      </trkpt>
      <trkpt lat="41.695637935772538" lon="-8.822088120505214">
        <ele>6.9765625</ele>
      </trkpt>
      <trkpt lat="41.695715636014938" lon="-8.822199767455459">
        <ele>7.08984375</ele>
      </trkpt>
      <trkpt lat="41.695748576894403" lon="-8.822327172383666">
        <ele>7.2421875</ele>
      </trkpt>
      <trkpt lat="41.695720832794905" lon="-8.822467150166631">
        <ele>7.41015625</ele>
      </trkpt>
      <trkpt lat="41.695667523890734" lon="-8.822601679712534">
        <ele>7.57421875</ele>
      </trkpt>
      <trkpt lat="41.695615472272038" lon="-8.822746183723211">
        <ele>7.74609375</ele>
      </trkpt>
      <trkpt lat="41.695567695423961" lon="-8.822875851765275">
        <ele>7.90234375</ele>
      </trkpt>
      <trkpt lat="41.695507597178221" lon="-8.823019098490477">
        <ele>8.07421875</ele>
      </trkpt>
      <trkpt lat="41.695447498932481" lon="-8.823139127343893">
        <ele>8.21875</ele>
      </trkpt>
      <trkpt lat="41.695369714871049" lon="-8.823269968852401">
        <ele>8.1640625</ele>
      </trkpt>
      <trkpt lat="41.695294613018632" lon="-8.823386477306485">
        <ele>8.03125</ele>
      </trkpt>
      <trkpt lat="41.695222025737166" lon="-8.823499800637364">
        <ele>7.90625</ele>
      </trkpt>
      <trkpt lat="41.695140050724149" lon="-8.823622930794954">
        <ele>7.7578125</ele>
      </trkpt>
      <trkpt lat="41.695061093196273" lon="-8.823724268004298">
        <ele>7.59765625</ele>
      </trkpt>
      <trkpt lat="41.694988254457712" lon="-8.823832059279084">
        <ele>7.44140625</ele>
      </trkpt>
      <trkpt lat="41.6949163377285" lon="-8.823938928544521">
        <ele>7.265625</ele>
      </trkpt>
      <trkpt lat="41.694848025217652" lon="-8.824054766446352">
        <ele>7.12890625</ele>
      </trkpt>
      <trkpt lat="41.694788681343198" lon="-8.824175801128149">
        <ele>7.05078125</ele>
      </trkpt>
      <trkpt lat="41.694717770442367" lon="-8.824295746162534">
        <ele>6.95703125</ele>
      </trkpt>
      <trkpt lat="41.694650547578931" lon="-8.824424659833312">
        <ele>6.91015625</ele>
      </trkpt>
      <trkpt lat="41.694595394656062" lon="-8.824549382552505">
        <ele>6.91015625</ele>
      </trkpt>
      <trkpt lat="41.694529931992292" lon="-8.824690533801913">
        <ele>7.08984375</ele>
      </trkpt>
      <trkpt lat="41.694463128224015" lon="-8.824816681444645">
        <ele>7.34375</ele>
      </trkpt>
      <trkpt lat="41.694406047463417" lon="-8.824937464669347">
        <ele>7.61328125</ele>
      </trkpt>
      <trkpt lat="41.694344440475106" lon="-8.825056068599224">
        <ele>7.89453125</ele>
      </trkpt>
      <trkpt lat="41.694286437705159" lon="-8.825190430507064">
        <ele>8.2421875</ele>
      </trkpt>
      <trkpt lat="41.694221645593643" lon="-8.825311632826924">
        <ele>8.57421875</ele>
      </trkpt>
      <trkpt lat="41.694139251485467" lon="-8.825426464900374">
        <ele>8.91015625</ele>
      </trkpt>
      <trkpt lat="41.694060629233718" lon="-8.825523946434259">
        <ele>9.1328125</ele>
      </trkpt>
      <trkpt lat="41.693974044173956" lon="-8.8256168179214">
        <ele>9.3359375</ele>
      </trkpt>
      <trkpt lat="41.693879496306181" lon="-8.825714886188507">
        <ele>9.578125</ele>
      </trkpt>
      <trkpt lat="41.693796180188656" lon="-8.825808595865965">
        <ele>9.828125</ele>
      </trkpt>
      <trkpt lat="41.69371085241437" lon="-8.825895935297012">
        <ele>9.9296875</ele>
      </trkpt>
      <trkpt lat="41.693618567660451" lon="-8.825984532013535">
        <ele>9.921875</ele>
      </trkpt>
      <trkpt lat="41.693519745022058" lon="-8.826046977192163">
        <ele>9.8359375</ele>
      </trkpt>
      <trkpt lat="41.693446068093181" lon="-8.826145632192492">
        <ele>9.89453125</ele>
      </trkpt>
      <trkpt lat="41.693395944312215" lon="-8.826285190880299">
        <ele>10.109375</ele>
      </trkpt>
      <trkpt lat="41.693390747532248" lon="-8.826410751789808">
        <ele>10.3828125</ele>
      </trkpt>
      <trkpt lat="41.693567186594009" lon="-8.826591549441218">
        <ele>11.0625</ele>
      </trkpt>
      <trkpt lat="41.693644467741251" lon="-8.826685594394803">
        <ele>11.328125</ele>
      </trkpt>
      <trkpt lat="41.693705655634403" lon="-8.826813418418169">
        <ele>11.578125</ele>
      </trkpt>
      <trkpt lat="41.693753432482481" lon="-8.826957000419497">
        <ele>11.796875</ele>
      </trkpt>
      <trkpt lat="41.693796515464783" lon="-8.827094295993447">
        <ele>11.92578125</ele>
      </trkpt>
      <trkpt lat="41.693818643689156" lon="-8.827255228534341">
        <ele>11.78515625</ele>
      </trkpt>
      <trkpt lat="41.693818978965282" lon="-8.827410209923983">
        <ele>11.609375</ele>
      </trkpt>
      <trkpt lat="41.693800538778305" lon="-8.82756887935102">
        <ele>11.44140625</ele>
      </trkpt>
      <trkpt lat="41.693769944831729" lon="-8.827711539342999">
        <ele>11.2890625</ele>
      </trkpt>
      <trkpt lat="41.693747648969293" lon="-8.827857803553343">
        <ele>11.1328125</ele>
      </trkpt>
      <trkpt lat="41.693708170205355" lon="-8.827997194603086">
        <ele>11.0625</ele>
      </trkpt>
      <trkpt lat="41.693699201568961" lon="-8.828166341409087">
        <ele>11.05859375</ele>
      </trkpt>
      <trkpt lat="41.693706912919879" lon="-8.828313946723938">
        <ele>11.0390625</ele>
      </trkpt>
      <trkpt lat="41.693753516301513" lon="-8.828443111851811">
        <ele>11.00390625</ele>
      </trkpt>
      <trkpt lat="41.693819146603346" lon="-8.828556099906564">
        <ele>11</ele>
      </trkpt>
      <trkpt lat="41.693928362801671" lon="-8.828681828454137">
        <ele>11</ele>
      </trkpt>
      <trkpt lat="41.694009583443403" lon="-8.82878702133894">
        <ele>11</ele>
      </trkpt>
      <trkpt lat="41.694093318656087" lon="-8.828886430710554">
        <ele>11.046875</ele>
      </trkpt>
      <trkpt lat="41.694167163223028" lon="-8.828996485099196">
        <ele>11.12109375</ele>
      </trkpt>
      <trkpt lat="41.694240085780621" lon="-8.829103019088507">
        <ele>11.21875</ele>
      </trkpt>
      <trkpt lat="41.694266321137547" lon="-8.829164123162627">
        <ele>11.2734375</ele>
      </trkpt>
      <trkpt lat="41.694206893444061" lon="-8.829324888065457">
        <ele>11.34375</ele>
      </trkpt>
      <trkpt lat="41.693366523832083" lon="-8.831274518743157">
        <ele>12.515625</ele>
      </trkpt>
      <trkpt lat="41.693364847451448" lon="-8.831274518743157">
        <ele>12.515625</ele>
      </trkpt>
      <trkpt lat="41.69284894131124" lon="-8.832820225507021">
        <ele>11.90234375</ele>
      </trkpt>
      <trkpt lat="41.692938040941954" lon="-8.832902032881975">
        <ele>12.0078125</ele>
      </trkpt>
      <trkpt lat="41.693024709820747" lon="-8.832990378141403">
        <ele>12.171875</ele>
      </trkpt>
      <trkpt lat="41.693126549944282" lon="-8.833050141111016">
        <ele>12.41015625</ele>
      </trkpt>
      <trkpt lat="41.693219756707549" lon="-8.833120465278625">
        <ele>12.69140625</ele>
      </trkpt>
      <trkpt lat="41.693325620144606" lon="-8.833148293197155">
        <ele>12.9375</ele>
      </trkpt>
      <trkpt lat="41.693436177447438" lon="-8.833142090588808">
        <ele>13.11328125</ele>
      </trkpt>
      <trkpt lat="41.69354572892189" lon="-8.833139408379793">
        <ele>13.296875</ele>
      </trkpt>
      <trkpt lat="41.693613706156611" lon="-8.833239655941725">
        <ele>13.734375</ele>
      </trkpt>
      <trkpt lat="41.69364002533257" lon="-8.833382148295641">
        <ele>14.25</ele>
      </trkpt>
      <trkpt lat="41.693653604015708" lon="-8.833536542952061">
        <ele>14.79296875</ele>
      </trkpt>
      <trkpt lat="41.693676235154271" lon="-8.833674425259233">
        <ele>15.3203125</ele>
      </trkpt>
      <trkpt lat="41.693784613162279" lon="-8.833705941215158">
        <ele>15.8671875</ele>
      </trkpt>
      <trkpt lat="41.693893074989319" lon="-8.833743240684271">
        <ele>16.7734375</ele>
      </trkpt>
      <trkpt lat="41.693953340873122" lon="-8.833865532651544">
        <ele>17.90234375</ele>
      </trkpt>
      <trkpt lat="41.693970104679465" lon="-8.83401146158576">
        <ele>18.9921875</ele>
      </trkpt>
      <trkpt lat="41.693983348086476" lon="-8.834173483774066">
        <ele>20.171875</ele>
      </trkpt>
      <trkpt lat="41.693995501846075" lon="-8.834320167079568">
        <ele>21.25</ele>
      </trkpt>
      <trkpt lat="41.694052750244737" lon="-8.834451260045171">
        <ele>22.6484375</ele>
      </trkpt>
      <trkpt lat="41.694116536527872" lon="-8.834572713822126">
        <ele>24.0859375</ele>
      </trkpt>
      <trkpt lat="41.694195745512843" lon="-8.834675140678883">
        <ele>25.5078125</ele>
      </trkpt>
      <trkpt lat="41.69429674744606" lon="-8.834719648584723">
        <ele>26.77734375</ele>
      </trkpt>
      <trkpt lat="41.694403784349561" lon="-8.834710763767362">
        <ele>27.77734375</ele>
      </trkpt>
      <trkpt lat="41.694514090195298" lon="-8.834658209234476">
        <ele>28.5</ele>
      </trkpt>
      <trkpt lat="41.694621797651052" lon="-8.834606828168035">
        <ele>29.1640625</ele>
      </trkpt>
      <trkpt lat="41.694716429337859" lon="-8.834522506222129">
        <ele>29.37890625</ele>
      </trkpt>
      <trkpt lat="41.69480393640697" lon="-8.834415385499597">
        <ele>29.36328125</ele>
      </trkpt>
      <trkpt lat="41.694896221160889" lon="-8.834317149594426">
        <ele>29.49609375</ele>
      </trkpt>
      <trkpt lat="41.694996301084757" lon="-8.834242718294263">
        <ele>29.91796875</ele>
      </trkpt>
      <trkpt lat="41.695099901407957" lon="-8.834191085770726">
        <ele>30.5703125</ele>
      </trkpt>
      <trkpt lat="41.695207022130489" lon="-8.834154205396771">
        <ele>31.38671875</ele>
      </trkpt>
      <trkpt lat="41.69532286003232" lon="-8.834125371649861">
        <ele>32.3671875</ele>
      </trkpt>
      <trkpt lat="41.695425873622298" lon="-8.834053203463554">
        <ele>32.91015625</ele>
      </trkpt>
      <trkpt lat="41.695520589128137" lon="-8.833968127146363">
        <ele>33.24609375</ele>
      </trkpt>
      <trkpt lat="41.695556044578552" lon="-8.833950944244862">
        <ele>33.484375</ele>
      </trkpt>
      <trkpt lat="41.696979543194175" lon="-8.835736708715558">
        <ele>50.48828125</ele>
      </trkpt>
      <trkpt lat="41.696981303393841" lon="-8.835736708715558">
        <ele>50.5</ele>
      </trkpt>
      <trkpt lat="41.69726075604558" lon="-8.836045162752271">
        <ele>52.99609375</ele>
      </trkpt>
      <trkpt lat="41.697328146547079" lon="-8.836159408092499">
        <ele>53.55078125</ele>
      </trkpt>
      <trkpt lat="41.697389082983136" lon="-8.836286226287484">
        <ele>53.875</ele>
      </trkpt>
      <trkpt lat="41.697443732991815" lon="-8.836422264575958">
        <ele>53.76171875</ele>
      </trkpt>
      <trkpt lat="41.69751632027328" lon="-8.836533827707171">
        <ele>53.90625</ele>
      </trkpt>
      <trkpt lat="41.697557223960757" lon="-8.836579760536551">
        <ele>54.0546875</ele>
      </trkpt>
      <trkpt lat="41.698111351579428" lon="-8.83721343241632">
        <ele>56.04296875</ele>
      </trkpt>
      <trkpt lat="41.698736222460866" lon="-8.837903346866369">
        <ele>56.54296875</ele>
      </trkpt>
      <trkpt lat="41.698815347626805" lon="-8.83799965493381">
        <ele>56.6015625</ele>
      </trkpt>
      <trkpt lat="41.698889527469873" lon="-8.838113229721785">
        <ele>56.7109375</ele>
      </trkpt>
      <trkpt lat="41.698975525796413" lon="-8.838219009339809">
        <ele>56.89453125</ele>
      </trkpt>
      <trkpt lat="41.69907066039741" lon="-8.83830651640892">
        <ele>57.2421875</ele>
      </trkpt>
      <trkpt lat="41.699178200215101" lon="-8.838430568575859">
        <ele>56.921875</ele>
      </trkpt>
      <trkpt lat="41.699260761961341" lon="-8.838538359850645">
        <ele>56.19140625</ele>
      </trkpt>
      <trkpt lat="41.699279202148318" lon="-8.838566690683365">
        <ele>55.9140625</ele>
      </trkpt>
      <trkpt lat="41.700175646692514" lon="-8.839876111596823">
        <ele>52.16015625</ele>
      </trkpt>
      <trkpt lat="41.70017397031188" lon="-8.839876111596823">
        <ele>52.14453125</ele>
      </trkpt>
      <trkpt lat="41.700988691300154" lon="-8.840638026595116">
        <ele>51.890625</ele>
      </trkpt>
      <trkpt lat="41.702524842694402" lon="-8.841677382588387">
        <ele>56.5</ele>
      </trkpt>
      <trkpt lat="41.702526602894068" lon="-8.841677382588387">
        <ele>56.5234375</ele>
      </trkpt>
      <trkpt lat="41.702903704717755" lon="-8.841964295133948">
        <ele>57.24609375</ele>
      </trkpt>
      <trkpt lat="41.703178463503718" lon="-8.842156995087862">
        <ele>59.26171875</ele>
      </trkpt>
      <trkpt lat="41.703556990250945" lon="-8.842513058334589">
        <ele>59.54296875</ele>
      </trkpt>
      <trkpt lat="41.703556990250945" lon="-8.842514399439096">
        <ele>59.515625</ele>
      </trkpt>
      <trkpt lat="41.704155039042234" lon="-8.842803072184324">
        <ele>62.15234375</ele>
      </trkpt>
      <trkpt lat="41.704208180308342" lon="-8.842837857082486">
        <ele>61.984375</ele>
      </trkpt>
      <trkpt lat="41.704265512526035" lon="-8.842872809618711">
        <ele>61.8203125</ele>
      </trkpt>
      <trkpt lat="41.704317731782794" lon="-8.842904912307858">
        <ele>61.609375</ele>
      </trkpt>
      <trkpt lat="41.704378165304661" lon="-8.84293676353991">
        <ele>61.46875</ele>
      </trkpt>
      <trkpt lat="41.704436838626862" lon="-8.84296995587647">
        <ele>61.5703125</ele>
      </trkpt>
      <trkpt lat="41.704490566626191" lon="-8.842994933947921">
        <ele>61.83984375</ele>
      </trkpt>
      <trkpt lat="41.704538594931364" lon="-8.843030137941241">
        <ele>61.8359375</ele>
      </trkpt>
      <trkpt lat="41.704587964341044" lon="-8.843062156811357">
        <ele>61.875</ele>
      </trkpt>
      <trkpt lat="41.704644039273262" lon="-8.843099204823375">
        <ele>61.94140625</ele>
      </trkpt>
      <trkpt lat="41.704698605462909" lon="-8.843141281977296">
        <ele>61.85546875</ele>
      </trkpt>
      <trkpt lat="41.704757697880268" lon="-8.843191992491484">
        <ele>61.62109375</ele>
      </trkpt>
      <trkpt lat="41.704812934622169" lon="-8.843237506225705">
        <ele>61.390625</ele>
      </trkpt>
      <trkpt lat="41.70485895127058" lon="-8.843275057151914">
        <ele>61.171875</ele>
      </trkpt>
      <trkpt lat="41.704911254346371" lon="-8.84332275018096">
        <ele>60.78515625</ele>
      </trkpt>
      <trkpt lat="41.704964563250542" lon="-8.84336088784039">
        <ele>60.5703125</ele>
      </trkpt>
      <trkpt lat="41.705020219087601" lon="-8.843388296663761">
        <ele>60.578125</ele>
      </trkpt>
      <trkpt lat="41.705077802762389" lon="-8.843407910317183">
        <ele>60.75</ele>
      </trkpt>
      <trkpt lat="41.705141421407461" lon="-8.843430709093809">
        <ele>60.890625</ele>
      </trkpt>
      <trkpt lat="41.705195736140013" lon="-8.843463733792305">
        <ele>60.6796875</ele>
      </trkpt>
      <trkpt lat="41.705251978710294" lon="-8.843500446528196">
        <ele>60.3671875</ele>
      </trkpt>
      <trkpt lat="41.70529774390161" lon="-8.843541434034705">
        <ele>59.81640625</ele>
      </trkpt>
      <trkpt lat="41.705346191301942" lon="-8.84358711540699">
        <ele>59.140625</ele>
      </trkpt>
      <trkpt lat="41.705395225435495" lon="-8.843621481209993">
        <ele>58.71875</ele>
      </trkpt>
      <trkpt lat="41.705448618158698" lon="-8.843654841184616">
        <ele>58.40625</ele>
      </trkpt>
      <trkpt lat="41.705504357814789" lon="-8.843703791499138">
        <ele>57.7890625</ele>
      </trkpt>
      <trkpt lat="41.70556060038507" lon="-8.84375081397593">
        <ele>57.19921875</ele>
      </trkpt>
      <trkpt lat="41.705607371404767" lon="-8.843791466206312">
        <ele>56.8203125</ele>
      </trkpt>
      <trkpt lat="41.705651124939322" lon="-8.843838907778263">
        <ele>56.640625</ele>
      </trkpt>
      <trkpt lat="41.705706110224128" lon="-8.843881152570248">
        <ele>56.6171875</ele>
      </trkpt>
      <trkpt lat="41.705754725262523" lon="-8.843923732638359">
        <ele>56.4921875</ele>
      </trkpt>
      <trkpt lat="41.705800574272871" lon="-8.843971425667405">
        <ele>56.23828125</ele>
      </trkpt>
      <trkpt lat="41.70585329644382" lon="-8.844003193080425">
        <ele>56.25390625</ele>
      </trkpt>
      <trkpt lat="41.705863690003753" lon="-8.844010401517153">
        <ele>56.2421875</ele>
      </trkpt>
      <trkpt lat="41.706044403836131" lon="-8.844072427600622">
        <ele>56.8671875</ele>
      </trkpt>
      <trkpt lat="41.706098299473524" lon="-8.844097573310137">
        <ele>56.9140625</ele>
      </trkpt>
      <trkpt lat="41.706160744652152" lon="-8.844120539724827">
        <ele>57.046875</ele>
      </trkpt>
      <trkpt lat="41.706220172345638" lon="-8.844134202226996">
        <ele>57.296875</ele>
      </trkpt>
      <trkpt lat="41.706275995820761" lon="-8.844147026538849">
        <ele>57.41796875</ele>
      </trkpt>
      <trkpt lat="41.706330478191376" lon="-8.844152558594942">
        <ele>57.48046875</ele>
      </trkpt>
      <trkpt lat="41.706388145685196" lon="-8.844157923012972">
        <ele>57.55078125</ele>
      </trkpt>
      <trkpt lat="41.706451931968331" lon="-8.84415976703167">
        <ele>57.70703125</ele>
      </trkpt>
      <trkpt lat="41.706516137346625" lon="-8.84415976703167">
        <ele>57.8984375</ele>
      </trkpt>
      <trkpt lat="41.706580761820078" lon="-8.844163874164224">
        <ele>58.015625</ele>
      </trkpt>
      <trkpt lat="41.706645218655467" lon="-8.844168065115809">
        <ele>58.1328125</ele>
      </trkpt>
      <trkpt lat="41.706700371578336" lon="-8.844172088429332">
        <ele>58.2265625</ele>
      </trkpt>
      <trkpt lat="41.706757619976997" lon="-8.844186840578914">
        <ele>58.140625</ele>
      </trkpt>
      <trkpt lat="41.706812437623739" lon="-8.844211651012301">
        <ele>57.87890625</ele>
      </trkpt>
      <trkpt lat="41.706866584718227" lon="-8.844240484759212">
        <ele>57.55078125</ele>
      </trkpt>
      <trkpt lat="41.706888042390347" lon="-8.844253811985254">
        <ele>57.38671875</ele>
      </trkpt>
      <trkpt lat="41.707075042650104" lon="-8.844335451722145">
        <ele>56.58984375</ele>
      </trkpt>
      <trkpt lat="41.707111755385995" lon="-8.84439923800528">
        <ele>55.5390625</ele>
      </trkpt>
      <trkpt lat="41.707136649638414" lon="-8.844466963782907">
        <ele>54.390625</ele>
      </trkpt>
      <trkpt lat="41.707167997956276" lon="-8.844519769772887">
        <ele>53.50390625</ele>
      </trkpt>
      <trkpt lat="41.707222647964954" lon="-8.844547932967544">
        <ele>53.0234375</ele>
      </trkpt>
      <trkpt lat="41.707278052344918" lon="-8.84456830099225">
        <ele>52.68359375</ele>
      </trkpt>
      <trkpt lat="41.707335887476802" lon="-8.844589842483401">
        <ele>52.33203125</ele>
      </trkpt>
      <trkpt lat="41.707379976287484" lon="-8.844635020941496">
        <ele>51.80859375</ele>
      </trkpt>
      <trkpt lat="41.707405205816031" lon="-8.844699980691075">
        <ele>51.29296875</ele>
      </trkpt>
      <trkpt lat="41.70741786248982" lon="-8.844777932390571">
        <ele>50.67578125</ele>
      </trkpt>
      <trkpt lat="41.707425490021706" lon="-8.844852447509766">
        <ele>50.08984375</ele>
      </trkpt>
      <trkpt lat="41.707436721771955" lon="-8.844929561018944">
        <ele>49.484375</ele>
      </trkpt>
      <trkpt lat="41.707456419244409" lon="-8.844999549910426">
        <ele>48.94140625</ele>
      </trkpt>
      <trkpt lat="41.70749849639833" lon="-8.845040621235967">
        <ele>48.64453125</ele>
      </trkpt>
      <trkpt lat="41.707554487511516" lon="-8.845063587650657">
        <ele>48.5</ele>
      </trkpt>
      <trkpt lat="41.70760846696794" lon="-8.845087476074696">
        <ele>48.3515625</ele>
      </trkpt>
      <trkpt lat="41.707665296271443" lon="-8.845110023394227">
        <ele>48.22265625</ele>
      </trkpt>
      <trkpt lat="41.707723969593644" lon="-8.845134079456329">
        <ele>48.08203125</ele>
      </trkpt>
      <trkpt lat="41.707778787240386" lon="-8.845160398632288">
        <ele>47.9296875</ele>
      </trkpt>
      <trkpt lat="41.707834862172604" lon="-8.845185041427612">
        <ele>47.79296875</ele>
      </trkpt>
      <trkpt lat="41.707889009267092" lon="-8.845227705314755">
        <ele>47.52734375</ele>
      </trkpt>
      <trkpt lat="41.707942737266421" lon="-8.845267854630947">
        <ele>47.30078125</ele>
      </trkpt>
      <trkpt lat="41.708000237122178" lon="-8.84530515410006">
        <ele>47.109375</ele>
      </trkpt>
      <trkpt lat="41.708055390045047" lon="-8.845347817987204">
        <ele>46.87109375</ele>
      </trkpt>
      <trkpt lat="41.708103334531188" lon="-8.845381094142795">
        <ele>46.6875</ele>
      </trkpt>
      <trkpt lat="41.70815035700798" lon="-8.845419650897384">
        <ele>46.45703125</ele>
      </trkpt>
      <trkpt lat="41.708195619285107" lon="-8.8454585429281">
        <ele>46.24609375</ele>
      </trkpt>
      <trkpt lat="41.708239875733852" lon="-8.845499446615577">
        <ele>46.07421875</ele>
      </trkpt>
      <trkpt lat="41.708288574591279" lon="-8.845553593710065">
        <ele>45.83984375</ele>
      </trkpt>
      <trkpt lat="41.708334591239691" lon="-8.845592988654971">
        <ele>45.69140625</ele>
      </trkpt>
      <trkpt lat="41.708385637030005" lon="-8.84561637416482">
        <ele>45.63671875</ele>
      </trkpt>
      <trkpt lat="41.708449758589268" lon="-8.845625845715404">
        <ele>45.6796875</ele>
      </trkpt>
      <trkpt lat="41.708524022251368" lon="-8.8456364069134">
        <ele>45.734375</ele>
      </trkpt>
      <trkpt lat="41.70858470723033" lon="-8.845644788816571">
        <ele>45.78125</ele>
      </trkpt>
      <trkpt lat="41.70863994397223" lon="-8.845653925091028">
        <ele>45.8203125</ele>
      </trkpt>
      <trkpt lat="41.708697276189923" lon="-8.84566524066031">
        <ele>45.8515625</ele>
      </trkpt>
      <trkpt lat="41.708757877349854" lon="-8.845674963667989">
        <ele>45.8984375</ele>
      </trkpt>
      <trkpt lat="41.708818394690752" lon="-8.84568233974278">
        <ele>45.98828125</ele>
      </trkpt>
      <trkpt lat="41.708873128518462" lon="-8.845694912597537">
        <ele>46.0390625</ele>
      </trkpt>
      <trkpt lat="41.708926102146506" lon="-8.845711760222912">
        <ele>46.05859375</ele>
      </trkpt>
      <trkpt lat="41.708928616717458" lon="-8.845782671123743">
        <ele>45.70703125</ele>
      </trkpt>
      <trkpt lat="41.708919396623969" lon="-8.845855677500367">
        <ele>45.3203125</ele>
      </trkpt>
      <trkpt lat="41.708906656131148" lon="-8.84593446739018">
        <ele>44.90234375</ele>
      </trkpt>
      <trkpt lat="41.708893999457359" lon="-8.846011580899358">
        <ele>44.49609375</ele>
      </trkpt>
      <trkpt lat="41.708882097154856" lon="-8.846087353304029">
        <ele>44.09765625</ele>
      </trkpt>
      <trkpt lat="41.708870530128479" lon="-8.846165975555778">
        <ele>43.69140625</ele>
      </trkpt>
      <trkpt lat="41.708861226215959" lon="-8.846251387149096">
        <ele>43.25390625</ele>
      </trkpt>
      <trkpt lat="41.708855610340834" lon="-8.84632783010602">
        <ele>42.82421875</ele>
      </trkpt>
      <trkpt lat="41.708854520693421" lon="-8.846403937786818">
        <ele>42.375</ele>
      </trkpt>
      <trkpt lat="41.708854520693421" lon="-8.846480716019869">
        <ele>41.92578125</ele>
      </trkpt>
      <trkpt lat="41.708856951445341" lon="-8.846556739881635">
        <ele>41.484375</ele>
      </trkpt>
      <trkpt lat="41.708861393854022" lon="-8.846631925553083">
        <ele>41.05078125</ele>
      </trkpt>
      <trkpt lat="41.708867093548179" lon="-8.846709541976452">
        <ele>40.609375</ele>
      </trkpt>
      <trkpt lat="41.708877068012953" lon="-8.846782213076949">
        <ele>40.203125</ele>
      </trkpt>
      <trkpt lat="41.708894418552518" lon="-8.846853291615844">
        <ele>39.82421875</ele>
      </trkpt>
      <trkpt lat="41.708917217329144" lon="-8.84692152030766">
        <ele>39.4765625</ele>
      </trkpt>
      <trkpt lat="41.708956612274051" lon="-8.846979942172766">
        <ele>39.2265625</ele>
      </trkpt>
      <trkpt lat="41.709001790732145" lon="-8.84703048504889">
        <ele>39.04296875</ele>
      </trkpt>
      <trkpt lat="41.709049986675382" lon="-8.847067868337035">
        <ele>38.9453125</ele>
      </trkpt>
      <trkpt lat="41.709101870656013" lon="-8.847090248018503">
        <ele>38.94140625</ele>
      </trkpt>
      <trkpt lat="41.709152832627296" lon="-8.847116399556398">
        <ele>38.91796875</ele>
      </trkpt>
      <trkpt lat="41.709201615303755" lon="-8.847148921340704">
        <ele>38.83984375</ele>
      </trkpt>
      <trkpt lat="41.709249727427959" lon="-8.847183790057898">
        <ele>38.74609375</ele>
      </trkpt>
      <trkpt lat="41.709295995533466" lon="-8.847220921888947">
        <ele>38.6328125</ele>
      </trkpt>
      <trkpt lat="41.709346873685718" lon="-8.847247576341033">
        <ele>38.59375</ele>
      </trkpt>
      <trkpt lat="41.709405547007918" lon="-8.847262999042869">
        <ele>38.64453125</ele>
      </trkpt>
      <trkpt lat="41.709461035206914" lon="-8.847276158630848">
        <ele>38.69921875</ele>
      </trkpt>
      <trkpt lat="41.709515266120434" lon="-8.847291078418493">
        <ele>38.73828125</ele>
      </trkpt>
      <trkpt lat="41.709569580852985" lon="-8.847298789769411">
        <ele>38.82421875</ele>
      </trkpt>
      <trkpt lat="41.709622303023934" lon="-8.847285630181432">
        <ele>39.0703125</ele>
      </trkpt>
      <trkpt lat="41.709665218368173" lon="-8.84725084528327">
        <ele>39.43359375</ele>
      </trkpt>
      <trkpt lat="41.709693213924766" lon="-8.847189489752054">
        <ele>39.90234375</ele>
      </trkpt>
      <trkpt lat="41.709746606647968" lon="-8.847169708460569">
        <ele>40.21484375</ele>
      </trkpt>
      <trkpt lat="41.709800334647298" lon="-8.847184544429183">
        <ele>40.3203125</ele>
      </trkpt>
      <trkpt lat="41.709851967170835" lon="-8.847218072041869">
        <ele>40.3046875</ele>
      </trkpt>
      <trkpt lat="41.709897648543119" lon="-8.847264172509313">
        <ele>40.19140625</ele>
      </trkpt>
      <trkpt lat="41.709940144792199" lon="-8.847307926043868">
        <ele>40.08203125</ele>
      </trkpt>
      <trkpt lat="41.709986496716738" lon="-8.847340699285269">
        <ele>40.05078125</ele>
      </trkpt>
      <trkpt lat="41.710040476173162" lon="-8.847350841388106">
        <ele>40.1875</ele>
      </trkpt>
      <trkpt lat="41.710099652409554" lon="-8.847342543303967">
        <ele>40.44921875</ele>
      </trkpt>
      <trkpt lat="41.710131671279669" lon="-8.847315385937691">
        <ele>40.7265625</ele>
      </trkpt>
      <trkpt lat="41.710220687091351" lon="-8.847314799204469">
        <ele>41.05078125</ele>
      </trkpt>
      <trkpt lat="41.710272235795856" lon="-8.847295269370079">
        <ele>41.35546875</ele>
      </trkpt>
      <trkpt lat="41.710320683196187" lon="-8.847299125045538">
        <ele>41.50390625</ele>
      </trkpt>
      <trkpt lat="41.710370387881994" lon="-8.847325192764401">
        <ele>41.52734375</ele>
      </trkpt>
      <trkpt lat="41.710400814190507" lon="-8.847382692620158">
        <ele>41.29296875</ele>
      </trkpt>
      <trkpt lat="41.71043274924159" lon="-8.84744631126523">
        <ele>41.03125</ele>
      </trkpt>
      <trkpt lat="41.710479436442256" lon="-8.84748637676239">
        <ele>40.984375</ele>
      </trkpt>
      <trkpt lat="41.710533583536744" lon="-8.847512863576412">
        <ele>41.0546875</ele>
      </trkpt>
      <trkpt lat="41.710589155554771" lon="-8.847533231601119">
        <ele>41.171875</ele>
      </trkpt>
      <trkpt lat="41.710648667067289" lon="-8.847574554383755">
        <ele>41.1875</ele>
      </trkpt>
      <trkpt lat="41.710690828040242" lon="-8.847621995955706">
        <ele>41.1015625</ele>
      </trkpt>
      <trkpt lat="41.71073223464191" lon="-8.847671616822481">
        <ele>41.00390625</ele>
      </trkpt>
      <trkpt lat="41.710775569081306" lon="-8.847722411155701">
        <ele>40.91796875</ele>
      </trkpt>
      <trkpt lat="41.710822759196162" lon="-8.847756357863545">
        <ele>40.9453125</ele>
      </trkpt>
      <trkpt lat="41.710879253223538" lon="-8.847774881869555">
        <ele>41.1015625</ele>
      </trkpt>
      <trkpt lat="41.710936250165105" lon="-8.847803128883243">
        <ele>41.21484375</ele>
      </trkpt>
      <trkpt lat="41.710977572947741" lon="-8.847851408645511">
        <ele>41.15234375</ele>
      </trkpt>
      <trkpt lat="41.711005233228207" lon="-8.847915446385741">
        <ele>40.953125</ele>
      </trkpt>
      <trkpt lat="41.711024595424533" lon="-8.847985016182065">
        <ele>40.703125</ele>
      </trkpt>
      <trkpt lat="41.711042616516352" lon="-8.848062884062529">
        <ele>40.4140625</ele>
      </trkpt>
      <trkpt lat="41.71105770394206" lon="-8.848147708922625">
        <ele>40.078125</ele>
      </trkpt>
      <trkpt lat="41.711079832166433" lon="-8.848217530176044">
        <ele>39.8515625</ele>
      </trkpt>
      <trkpt lat="41.711114030331373" lon="-8.848273186013103">
        <ele>39.74609375</ele>
      </trkpt>
      <trkpt lat="41.711167423054576" lon="-8.848299421370029">
        <ele>39.87890625</ele>
      </trkpt>
      <trkpt lat="41.711215535178781" lon="-8.848333116620779">
        <ele>39.9453125</ele>
      </trkpt>
      <trkpt lat="41.711267000064254" lon="-8.848368236795068">
        <ele>40.03515625</ele>
      </trkpt>
      <trkpt lat="41.711315615102649" lon="-8.848404111340642">
        <ele>40.12890625</ele>
      </trkpt>
      <trkpt lat="41.71136406250298" lon="-8.848449122160673">
        <ele>40.18359375</ele>
      </trkpt>
      <trkpt lat="41.711414018645883" lon="-8.84848021902144">
        <ele>40.3203125</ele>
      </trkpt>
      <trkpt lat="41.711461460217834" lon="-8.848515339195728">
        <ele>40.42578125</ele>
      </trkpt>
      <trkpt lat="41.711511500179768" lon="-8.848547777161002">
        <ele>40.5625</ele>
      </trkpt>
      <trkpt lat="41.711564557626843" lon="-8.84858675301075">
        <ele>40.6953125</ele>
      </trkpt>
      <trkpt lat="41.711617782711983" lon="-8.848619945347309">
        <ele>40.859375</ele>
      </trkpt>
      <trkpt lat="41.711676539853215" lon="-8.8486532215029">
        <ele>41.05859375</ele>
      </trkpt>
      <trkpt lat="41.71172859147191" lon="-8.848679792135954">
        <ele>41.25390625</ele>
      </trkpt>
      <trkpt lat="41.711778799071908" lon="-8.848708961158991">
        <ele>41.4296875</ele>
      </trkpt>
      <trkpt lat="41.711835209280252" lon="-8.848732598125935">
        <ele>41.66796875</ele>
      </trkpt>
      <trkpt lat="41.711888015270233" lon="-8.84874458424747">
        <ele>41.93359375</ele>
      </trkpt>
      <trkpt lat="41.71194015070796" lon="-8.848723210394382">
        <ele>42.328125</ele>
      </trkpt>
      <trkpt lat="41.711952220648527" lon="-8.848714912310243">
        <ele>42.4296875</ele>
      </trkpt>
      <trkpt lat="41.712318928912282" lon="-8.848423557356">
        <ele>44.828125</ele>
      </trkpt>
      <trkpt lat="41.712374165654182" lon="-8.848421964794397">
        <ele>44.96484375</ele>
      </trkpt>
      <trkpt lat="41.712428312748671" lon="-8.848420204594731">
        <ele>45.1015625</ele>
      </trkpt>
      <trkpt lat="41.71248396858573" lon="-8.848410481587052">
        <ele>45.26953125</ele>
      </trkpt>
      <trkpt lat="41.712537109851837" lon="-8.848395142704248">
        <ele>45.453125</ele>
      </trkpt>
      <trkpt lat="41.712591424584389" lon="-8.848393717780709">
        <ele>45.58984375</ele>
      </trkpt>
      <trkpt lat="41.712601231411099" lon="-8.848393717780709">
        <ele>45.61328125</ele>
      </trkpt>
      <trkpt lat="41.712993085384369" lon="-8.848638217896223">
        <ele>45.6875</ele>
      </trkpt>
      <trkpt lat="41.713628182187676" lon="-8.848970727995038">
        <ele>45.53125</ele>
      </trkpt>
      <trkpt lat="41.713680401444435" lon="-8.84899134747684">
        <ele>45.53125</ele>
      </trkpt>
      <trkpt lat="41.713741840794683" lon="-8.849012386053801">
        <ele>45.5546875</ele>
      </trkpt>
      <trkpt lat="41.713794646784663" lon="-8.849027557298541">
        <ele>45.6796875</ele>
      </trkpt>
      <trkpt lat="41.713851392269135" lon="-8.849044069647789">
        <ele>45.828125</ele>
      </trkpt>
      <trkpt lat="41.713903695344925" lon="-8.849067371338606">
        <ele>45.9140625</ele>
      </trkpt>
      <trkpt lat="41.713960273191333" lon="-8.849082458764315">
        <ele>46.0703125</ele>
      </trkpt>
      <trkpt lat="41.714018024504185" lon="-8.849089499562979">
        <ele>46.2734375</ele>
      </trkpt>
      <trkpt lat="41.714081726968288" lon="-8.849089499562979">
        <ele>46.55078125</ele>
      </trkpt>
      <trkpt lat="41.714136376976967" lon="-8.849081369116902">
        <ele>46.84375</ele>
      </trkpt>
      <trkpt lat="41.714192871004343" lon="-8.849068293347955">
        <ele>47.17578125</ele>
      </trkpt>
      <trkpt lat="41.714245844632387" lon="-8.849052200093865">
        <ele>47.515625</ele>
      </trkpt>
      <trkpt lat="41.714301081374288" lon="-8.849037950858474">
        <ele>47.85546875</ele>
      </trkpt>
      <trkpt lat="41.71434860676527" lon="-8.849018840119243">
        <ele>48.19921875</ele>
      </trkpt>
      <trkpt lat="41.714823776856065" lon="-8.849351853132248">
        <ele>48.8203125</ele>
      </trkpt>
      <trkpt lat="41.714858561754227" lon="-8.849403988569975">
        <ele>48.60546875</ele>
      </trkpt>
      <trkpt lat="41.714897621423006" lon="-8.849452519789338">
        <ele>48.42578125</ele>
      </trkpt>
      <trkpt lat="41.714946320280433" lon="-8.849448245018721">
        <ele>48.828125</ele>
      </trkpt>
      <trkpt lat="41.715355608612299" lon="-8.849698696285486">
        <ele>48.88671875</ele>
      </trkpt>
      <trkpt lat="41.715747378766537" lon="-8.849896257743239">
        <ele>48.890625</ele>
      </trkpt>
      <trkpt lat="41.715747378766537" lon="-8.849898939952254">
        <ele>48.8671875</ele>
      </trkpt>
      <trkpt lat="41.716401418671012" lon="-8.850140171125531">
        <ele>48.74609375</ele>
      </trkpt>
      <trkpt lat="41.716401418671012" lon="-8.850138830021024">
        <ele>48.76171875</ele>
      </trkpt>
      <trkpt lat="41.716982200741768" lon="-8.850335301831365">
        <ele>48.125</ele>
      </trkpt>
      <trkpt lat="41.717038275673985" lon="-8.850332535803318">
        <ele>48.3125</ele>
      </trkpt>
      <trkpt lat="41.717100888490677" lon="-8.850332535803318">
        <ele>48.49609375</ele>
      </trkpt>
      <trkpt lat="41.717162998393178" lon="-8.850332535803318">
        <ele>48.72265625</ele>
      </trkpt>
      <trkpt lat="41.717231646180153" lon="-8.850332535803318">
        <ele>48.96875</ele>
      </trkpt>
      <trkpt lat="41.717294258996844" lon="-8.850334715098143">
        <ele>49.1640625</ele>
      </trkpt>
      <trkpt lat="41.717360308393836" lon="-8.850334715098143">
        <ele>49.40234375</ele>
      </trkpt>
      <trkpt lat="41.717417640611529" lon="-8.850336307659745">
        <ele>49.58984375</ele>
      </trkpt>
      <trkpt lat="41.717472039163113" lon="-8.850337900221348">
        <ele>49.765625</ele>
      </trkpt>
      <trkpt lat="41.717528700828552" lon="-8.850337900221348">
        <ele>49.96875</ele>
      </trkpt>
      <trkpt lat="41.717559043318033" lon="-8.850340750068426">
        <ele>50.0390625</ele>
      </trkpt>
      <trkpt lat="41.717924578115344" lon="-8.850571503862739">
        <ele>48.76953125</ele>
      </trkpt>
      <trkpt lat="41.718034548684955" lon="-8.850613497197628">
        <ele>48.62890625</ele>
      </trkpt>
      <trkpt lat="41.718089114874601" lon="-8.850628416985273">
        <ele>48.6171875</ele>
      </trkpt>
      <trkpt lat="41.718145776540041" lon="-8.850633194670081">
        <ele>48.70703125</ele>
      </trkpt>
      <trkpt lat="41.718199923634529" lon="-8.850616347044706">
        <ele>49</ele>
      </trkpt>
      <trkpt lat="41.718250131234527" lon="-8.85057644918561">
        <ele>49.50390625</ele>
      </trkpt>
      <trkpt lat="41.718292292207479" lon="-8.85051735676825">
        <ele>50.171875</ele>
      </trkpt>
      <trkpt lat="41.718318862840533" lon="-8.850446864962578">
        <ele>50.91015625</ele>
      </trkpt>
      <trkpt lat="41.718340069055557" lon="-8.850365979596972">
        <ele>52.0546875</ele>
      </trkpt>
      <trkpt lat="41.718353480100632" lon="-8.850292973220348">
        <ele>53.09765625</ele>
      </trkpt>
      <trkpt lat="41.718361023813486" lon="-8.850219715386629">
        <ele>54.1328125</ele>
      </trkpt>
      <trkpt lat="41.718369657173753" lon="-8.850139165297151">
        <ele>55.2734375</ele>
      </trkpt>
      <trkpt lat="41.718392539769411" lon="-8.850066410377622">
        <ele>56.3515625</ele>
      </trkpt>
      <trkpt lat="41.718422966077924" lon="-8.850003965198994">
        <ele>57.30859375</ele>
      </trkpt>
      <trkpt lat="41.718468563631177" lon="-8.849971108138561">
        <ele>57.91015625</ele>
      </trkpt>
      <trkpt lat="41.718525309115648" lon="-8.849972952157259">
        <ele>58.05859375</ele>
      </trkpt>
      <trkpt lat="41.718581803143024" lon="-8.849989967420697">
        <ele>57.98828125</ele>
      </trkpt>
      <trkpt lat="41.718642320483923" lon="-8.850004384294152">
        <ele>57.96875</ele>
      </trkpt>
      <trkpt lat="41.718697976320982" lon="-8.850017124786973">
        <ele>57.953125</ele>
      </trkpt>
      <trkpt lat="41.71875505708158" lon="-8.850028775632381">
        <ele>57.92578125</ele>
      </trkpt>
      <trkpt lat="41.718813395127654" lon="-8.850030535832047">
        <ele>57.79296875</ele>
      </trkpt>
      <trkpt lat="41.718870978802443" lon="-8.850027099251747">
        <ele>57.73828125</ele>
      </trkpt>
      <trkpt lat="41.718925125896931" lon="-8.850018130615354">
        <ele>57.76953125</ele>
      </trkpt>
      <trkpt lat="41.718980614095926" lon="-8.850004719570279">
        <ele>57.859375</ele>
      </trkpt>
      <trkpt lat="41.719037108123302" lon="-8.849985022097826">
        <ele>58.03125</ele>
      </trkpt>
      <trkpt lat="41.719089495018125" lon="-8.849962307140231">
        <ele>58.25</ele>
      </trkpt>
      <trkpt lat="41.719139283522964" lon="-8.849936071783304">
        <ele>58.51953125</ele>
      </trkpt>
      <trkpt lat="41.719186389818788" lon="-8.849899861961603">
        <ele>58.92578125</ele>
      </trkpt>
      <trkpt lat="41.719241878017783" lon="-8.849871447309852">
        <ele>59.20703125</ele>
      </trkpt>
      <trkpt lat="41.719292839989066" lon="-8.849843200296164">
        <ele>59.48828125</ele>
      </trkpt>
      <trkpt lat="41.719344891607761" lon="-8.849823083728552">
        <ele>59.65234375</ele>
      </trkpt>
      <trkpt lat="41.719397446140647" lon="-8.849805230274796">
        <ele>59.78125</ele>
      </trkpt>
      <trkpt lat="41.719461483880877" lon="-8.849813360720873">
        <ele>59.5390625</ele>
      </trkpt>
      <trkpt lat="41.719518145546317" lon="-8.849830292165279">
        <ele>59.1953125</ele>
      </trkpt>
      <trkpt lat="41.719572292640805" lon="-8.849855354055762">
        <ele>58.75</ele>
      </trkpt>
      <trkpt lat="41.719618225470185" lon="-8.849893072620034">
        <ele>58.0390625</ele>
      </trkpt>
      <trkpt lat="41.719654100015759" lon="-8.849948309361935">
        <ele>57.13671875</ele>
      </trkpt>
      <trkpt lat="41.71968150883913" lon="-8.850013352930546">
        <ele>56.15625</ele>
      </trkpt>
      <trkpt lat="41.719712354242802" lon="-8.850075295194983">
        <ele>55.21484375</ele>
      </trkpt>
      <trkpt lat="41.719746217131615" lon="-8.850135477259755">
        <ele>54.2890625</ele>
      </trkpt>
      <trkpt lat="41.719778822734952" lon="-8.850199682638049">
        <ele>53.33203125</ele>
      </trkpt>
      <trkpt lat="41.719804052263498" lon="-8.850263133645058">
        <ele>52.42578125</ele>
      </trkpt>
      <trkpt lat="41.719828611239791" lon="-8.85033312253654">
        <ele>51.453125</ele>
      </trkpt>
      <trkpt lat="41.719853924587369" lon="-8.850401602685452">
        <ele>50.50390625</ele>
      </trkpt>
      <trkpt lat="41.719882087782025" lon="-8.85046555660665">
        <ele>49.71875</ele>
      </trkpt>
      <trkpt lat="41.719909245148301" lon="-8.850534120574594">
        <ele>49.07421875</ele>
      </trkpt>
      <trkpt lat="41.719951741397381" lon="-8.850575527176261">
        <ele>48.6015625</ele>
      </trkpt>
      <trkpt lat="41.720008905977011" lon="-8.85059111751616">
        <ele>48.28515625</ele>
      </trkpt>
      <trkpt lat="41.720062047243118" lon="-8.850605199113488">
        <ele>48</ele>
      </trkpt>
      <trkpt lat="41.720118876546621" lon="-8.850618274882436">
        <ele>47.70703125</ele>
      </trkpt>
      <trkpt lat="41.720177968963981" lon="-8.850633278489113">
        <ele>47.39453125</ele>
      </trkpt>
      <trkpt lat="41.720230439677835" lon="-8.850624645128846">
        <ele>47.28515625</ele>
      </trkpt>
      <trkpt lat="41.720260363072157" lon="-8.850565385073423">
        <ele>47.625</ele>
      </trkpt>
      <trkpt lat="41.720281653106213" lon="-8.850493216887116">
        <ele>48.0859375</ele>
      </trkpt>
      <trkpt lat="41.720308139920235" lon="-8.850429346784949">
        <ele>48.5078125</ele>
      </trkpt>
      <trkpt lat="41.720351558178663" lon="-8.85037855245173">
        <ele>48.90625</ele>
      </trkpt>
      <trkpt lat="41.720391623675823" lon="-8.850333038717508">
        <ele>49.25</ele>
      </trkpt>
      <trkpt lat="41.720390785485506" lon="-8.850333038717508">
        <ele>49.25390625</ele>
      </trkpt>
      <trkpt lat="41.7205258179456" lon="-8.850260116159916">
        <ele>49.546875</ele>
      </trkpt>
      <trkpt lat="41.720581641420722" lon="-8.85024125687778">
        <ele>49.55078125</ele>
      </trkpt>
      <trkpt lat="41.720634279772639" lon="-8.850218374282122">
        <ele>49.609375</ele>
      </trkpt>
      <trkpt lat="41.720687001943588" lon="-8.85020169429481">
        <ele>49.59765625</ele>
      </trkpt>
      <trkpt lat="41.720742154866457" lon="-8.850182583555579">
        <ele>49.60546875</ele>
      </trkpt>
      <trkpt lat="41.720797559246421" lon="-8.85016062296927">
        <ele>49.64453125</ele>
      </trkpt>
      <trkpt lat="41.720842989161611" lon="-8.850120389834046">
        <ele>49.9140625</ele>
      </trkpt>
      <trkpt lat="41.720864865928888" lon="-8.850055262446404">
        <ele>50.5390625</ele>
      </trkpt>
      <trkpt lat="41.720871990546584" lon="-8.849970269948244">
        <ele>51.43359375</ele>
      </trkpt>
      <trkpt lat="41.720881043002009" lon="-8.849891228601336">
        <ele>52.25390625</ele>
      </trkpt>
      <trkpt lat="41.720886910334229" lon="-8.849815204739571">
        <ele>53.0546875</ele>
      </trkpt>
      <trkpt lat="41.720892023295164" lon="-8.849727027118206">
        <ele>53.98828125</ele>
      </trkpt>
      <trkpt lat="41.720901243388653" lon="-8.849653350189328">
        <ele>54.75390625</ele>
      </trkpt>
      <trkpt lat="41.720911050215364" lon="-8.849576823413372">
        <ele>55.8515625</ele>
      </trkpt>
      <trkpt lat="41.720921443775296" lon="-8.849495435133576">
        <ele>57.49609375</ele>
      </trkpt>
      <trkpt lat="41.720939045771956" lon="-8.849427290260792">
        <ele>58.8515625</ele>
      </trkpt>
      <trkpt lat="41.72096754424274" lon="-8.849366856738925">
        <ele>60.0234375</ele>
      </trkpt>
      <trkpt lat="41.721013057976961" lon="-8.849310027435422">
        <ele>61.078125</ele>
      </trkpt>
      <trkpt lat="41.721067624166608" lon="-8.849259484559298">
        <ele>61.99609375</ele>
      </trkpt>
      <trkpt lat="41.721119927242398" lon="-8.849234841763973">
        <ele>62.3828125</ele>
      </trkpt>
      <trkpt lat="41.721176756545901" lon="-8.849225705489516">
        <ele>62.4375</ele>
      </trkpt>
      <trkpt lat="41.721230903640389" lon="-8.849229058250785">
        <ele>62.23046875</ele>
      </trkpt>
      <trkpt lat="41.721284966915846" lon="-8.849237272515893">
        <ele>61.86328125</ele>
      </trkpt>
      <trkpt lat="41.721344478428364" lon="-8.849252192303538">
        <ele>61.3203125</ele>
      </trkpt>
      <trkpt lat="41.721399966627359" lon="-8.849269459024072">
        <ele>60.7578125</ele>
      </trkpt>
      <trkpt lat="41.721452688798308" lon="-8.849287061020732">
        <ele>60.2109375</ele>
      </trkpt>
      <trkpt lat="41.721512200310826" lon="-8.849294856190681">
        <ele>59.84765625</ele>
      </trkpt>
      <trkpt lat="41.721574142575264" lon="-8.849302399903536">
        <ele>59.48828125</ele>
      </trkpt>
      <trkpt lat="41.721629798412323" lon="-8.849310111254454">
        <ele>59.15234375</ele>
      </trkpt>
      <trkpt lat="41.721690986305475" lon="-8.849315391853452">
        <ele>58.8515625</ele>
      </trkpt>
      <trkpt lat="41.721747731789947" lon="-8.849315391853452">
        <ele>58.6640625</ele>
      </trkpt>
      <trkpt lat="41.721809925511479" lon="-8.849315391853452">
        <ele>58.45703125</ele>
      </trkpt>
      <trkpt lat="41.721867676824331" lon="-8.849322684109211">
        <ele>58.140625</ele>
      </trkpt>
      <trkpt lat="41.721928445622325" lon="-8.849330646917224">
        <ele>57.8125</ele>
      </trkpt>
      <trkpt lat="41.721983682364225" lon="-8.849341375753284">
        <ele>57.4609375</ele>
      </trkpt>
      <trkpt lat="41.722036320716143" lon="-8.849356044083834">
        <ele>57.0625</ele>
      </trkpt>
      <trkpt lat="41.722080744802952" lon="-8.849404659122229">
        <ele>56.1875</ele>
      </trkpt>
      <trkpt lat="41.722107399255037" lon="-8.84946727193892">
        <ele>55.453125</ele>
      </trkpt>
      <trkpt lat="41.722125420346856" lon="-8.849534075707197">
        <ele>54.5859375</ele>
      </trkpt>
      <trkpt lat="41.722126007080078" lon="-8.849621415138245">
        <ele>53.35546875</ele>
      </trkpt>
      <trkpt lat="41.722121313214302" lon="-8.849702635779977">
        <ele>52.72265625</ele>
      </trkpt>
      <trkpt lat="41.722109830006957" lon="-8.849775977432728">
        <ele>52.0859375</ele>
      </trkpt>
      <trkpt lat="41.722096083685756" lon="-8.849849989637733">
        <ele>51.421875</ele>
      </trkpt>
      <trkpt lat="41.722080744802952" lon="-8.849925426766276">
        <ele>50.73046875</ele>
      </trkpt>
      <trkpt lat="41.722058029845357" lon="-8.84999399073422">
        <ele>50.2109375</ele>
      </trkpt>
      <trkpt lat="41.722037410363555" lon="-8.850061884149909">
        <ele>49.69921875</ele>
      </trkpt>
      <trkpt lat="41.722020227462053" lon="-8.850134303793311">
        <ele>49.14453125</ele>
      </trkpt>
      <trkpt lat="41.722009666264057" lon="-8.850209321826696">
        <ele>48.5703125</ele>
      </trkpt>
      <trkpt lat="41.722000697627664" lon="-8.850286351516843">
        <ele>47.9765625</ele>
      </trkpt>
      <trkpt lat="41.721987621858716" lon="-8.850362040102482">
        <ele>47.37890625</ele>
      </trkpt>
      <trkpt lat="41.721974378451705" lon="-8.850437393411994">
        <ele>46.7734375</ele>
      </trkpt>
      <trkpt lat="41.721969433128834" lon="-8.850515931844711">
        <ele>46.44140625</ele>
      </trkpt>
      <trkpt lat="41.721971780061722" lon="-8.850597068667412">
        <ele>46.1328125</ele>
      </trkpt>
      <trkpt lat="41.721982089802623" lon="-8.850674852728844">
        <ele>45.859375</ele>
      </trkpt>
      <trkpt lat="41.72200245782733" lon="-8.850747523829341">
        <ele>45.64453125</ele>
      </trkpt>
      <trkpt lat="41.722033973783255" lon="-8.850817428901792">
        <ele>45.484375</ele>
      </trkpt>
      <trkpt lat="41.722064483910799" lon="-8.850877191871405">
        <ele>45.375</ele>
      </trkpt>
      <trkpt lat="41.722086109220982" lon="-8.850945001468062">
        <ele>45.24609375</ele>
      </trkpt>
      <trkpt lat="41.722089881077409" lon="-8.851017002016306">
        <ele>45.01953125</ele>
      </trkpt>
      <trkpt lat="41.722088875249028" lon="-8.851090343669057">
        <ele>44.74609375</ele>
      </trkpt>
      <trkpt lat="41.722088037058711" lon="-8.851166367530823">
        <ele>44.46484375</ele>
      </trkpt>
      <trkpt lat="41.722081247717142" lon="-8.851250354200602">
        <ele>44.1015625</ele>
      </trkpt>
      <trkpt lat="41.722070686519146" lon="-8.851333502680063">
        <ele>43.88671875</ele>
      </trkpt>
      <trkpt lat="41.722061634063721" lon="-8.851407766342163">
        <ele>43.74609375</ele>
      </trkpt>
      <trkpt lat="41.722051408141851" lon="-8.851486556231976">
        <ele>43.5859375</ele>
      </trkpt>
      <trkpt lat="41.722039086744189" lon="-8.851568195968866">
        <ele>43.40234375</ele>
      </trkpt>
      <trkpt lat="41.722023412585258" lon="-8.851648746058345">
        <ele>43.19140625</ele>
      </trkpt>
      <trkpt lat="41.722007151693106" lon="-8.851722422987223">
        <ele>42.9765625</ele>
      </trkpt>
      <trkpt lat="41.721992651000619" lon="-8.851802973076701">
        <ele>42.75</ele>
      </trkpt>
      <trkpt lat="41.72197655774653" lon="-8.851881343871355">
        <ele>42.5078125</ele>
      </trkpt>
      <trkpt lat="41.721957866102457" lon="-8.851956529542804">
        <ele>42.23828125</ele>
      </trkpt>
      <trkpt lat="41.721943784505129" lon="-8.852027272805572">
        <ele>42.00390625</ele>
      </trkpt>
      <trkpt lat="41.721923416480422" lon="-8.852105308324099">
        <ele>41.6953125</ele>
      </trkpt>
      <trkpt lat="41.721905311569571" lon="-8.852179236710072">
        <ele>41.36328125</ele>
      </trkpt>
      <trkpt lat="41.72188620083034" lon="-8.852252159267664">
        <ele>41.02734375</ele>
      </trkpt>
      <trkpt lat="41.721868179738522" lon="-8.85233111679554">
        <ele>40.6875</ele>
      </trkpt>
      <trkpt lat="41.721851415932178" lon="-8.852400938048959">
        <ele>40.37890625</ele>
      </trkpt>
      <trkpt lat="41.721843117848039" lon="-8.852477800101042">
        <ele>40.125</ele>
      </trkpt>
      <trkpt lat="41.721840184181929" lon="-8.852552399039268">
        <ele>39.921875</ele>
      </trkpt>
      <trkpt lat="41.721885530278087" lon="-8.852585423737764">
        <ele>40.22265625</ele>
      </trkpt>
      <trkpt lat="41.721939509734511" lon="-8.852601852267981">
        <ele>40.63671875</ele>
      </trkpt>
      <trkpt lat="41.721998602151871" lon="-8.852616101503372">
        <ele>41.1015625</ele>
      </trkpt>
      <trkpt lat="41.72206255607307" lon="-8.852627500891685">
        <ele>41.609375</ele>
      </trkpt>
      <trkpt lat="41.722116703167558" lon="-8.852642839774489">
        <ele>41.9375</ele>
      </trkpt>
      <trkpt lat="41.722174286842346" lon="-8.852660777047276">
        <ele>42.2421875</ele>
      </trkpt>
      <trkpt lat="41.722229942679405" lon="-8.852679887786508">
        <ele>42.52734375</ele>
      </trkpt>
      <trkpt lat="41.722288280725479" lon="-8.852704027667642">
        <ele>42.8203125</ele>
      </trkpt>
      <trkpt lat="41.722353911027312" lon="-8.852734118700027">
        <ele>43.14453125</ele>
      </trkpt>
      <trkpt lat="41.722410824149847" lon="-8.852763371542096">
        <ele>43.4140625</ele>
      </trkpt>
      <trkpt lat="41.722463546320796" lon="-8.852793211117387">
        <ele>43.66015625</ele>
      </trkpt>
      <trkpt lat="41.722504617646337" lon="-8.852809807285666">
        <ele>43.8671875</ele>
      </trkpt>
      <trkpt lat="41.72266605310142" lon="-8.852933859452605">
        <ele>44.5390625</ele>
      </trkpt>
      <trkpt lat="41.722704945132136" lon="-8.852984318509698">
        <ele>44.58203125</ele>
      </trkpt>
      <trkpt lat="41.722756074741483" lon="-8.852985072880983">
        <ele>44.890625</ele>
      </trkpt>
      <trkpt lat="41.722812987864017" lon="-8.852942492812872">
        <ele>45.39453125</ele>
      </trkpt>
      <trkpt lat="41.7228639498353" lon="-8.852902008220553">
        <ele>45.80078125</ele>
      </trkpt>
      <trkpt lat="41.72290937975049" lon="-8.852863954380155">
        <ele>46.1640625</ele>
      </trkpt>
      <trkpt lat="41.722962185740471" lon="-8.8528305105865">
        <ele>46.328125</ele>
      </trkpt>
      <trkpt lat="41.723012309521437" lon="-8.852806370705366">
        <ele>46.4609375</ele>
      </trkpt>
      <trkpt lat="41.723068635910749" lon="-8.852809388190508">
        <ele>46.53125</ele>
      </trkpt>
      <trkpt lat="41.723113814368844" lon="-8.8528564106673">
        <ele>46.46484375</ele>
      </trkpt>
      <trkpt lat="41.723157148808241" lon="-8.852898655459285">
        <ele>46.40625</ele>
      </trkpt>
      <trkpt lat="41.723206685855985" lon="-8.852950120344758">
        <ele>46.3203125</ele>
      </trkpt>
      <trkpt lat="41.723248763009906" lon="-8.852995131164789">
        <ele>46.23046875</ele>
      </trkpt>
      <trkpt lat="41.723299641162157" lon="-8.853038968518376">
        <ele>46.1640625</ele>
      </trkpt>
      <trkpt lat="41.723354123532772" lon="-8.85308020748198">
        <ele>46.11328125</ele>
      </trkpt>
      <trkpt lat="41.723404079675674" lon="-8.853113651275635">
        <ele>46.0859375</ele>
      </trkpt>
      <trkpt lat="41.723457388579845" lon="-8.853152962401509">
        <ele>46.0546875</ele>
      </trkpt>
      <trkpt lat="41.723504075780511" lon="-8.853191854432225">
        <ele>46.015625</ele>
      </trkpt>
      <trkpt lat="41.723557049408555" lon="-8.853231752291322">
        <ele>45.9921875</ele>
      </trkpt>
      <trkpt lat="41.723606586456299" lon="-8.853262010961771">
        <ele>45.99609375</ele>
      </trkpt>
      <trkpt lat="41.72366383485496" lon="-8.853293191641569">
        <ele>46.01171875</ele>
      </trkpt>
      <trkpt lat="41.723716054111719" lon="-8.85332596488297">
        <ele>46.01953125</ele>
      </trkpt>
      <trkpt lat="41.723762322217226" lon="-8.853362593799829">
        <ele>46.02734375</ele>
      </trkpt>
      <trkpt lat="41.72381236217916" lon="-8.853393858298659">
        <ele>46.0625</ele>
      </trkpt>
      <trkpt lat="41.723875310271978" lon="-8.853407185524702">
        <ele>46.171875</ele>
      </trkpt>
      <trkpt lat="41.723931804299355" lon="-8.853407185524702">
        <ele>46.296875</ele>
      </trkpt>
      <trkpt lat="41.723987460136414" lon="-8.853416321799159">
        <ele>46.39453125</ele>
      </trkpt>
      <trkpt lat="41.724049067124724" lon="-8.853431241586804">
        <ele>46.484375</ele>
      </trkpt>
      <trkpt lat="41.724104136228561" lon="-8.853449430316687">
        <ele>46.5390625</ele>
      </trkpt>
      <trkpt lat="41.724165324121714" lon="-8.853467283770442">
        <ele>46.60546875</ele>
      </trkpt>
      <trkpt lat="41.724220141768456" lon="-8.8534832932055">
        <ele>46.66015625</ele>
      </trkpt>
      <trkpt lat="41.724278144538403" lon="-8.853494441136718">
        <ele>46.734375</ele>
      </trkpt>
      <trkpt lat="41.724338997155428" lon="-8.853499637916684">
        <ele>46.8359375</ele>
      </trkpt>
      <trkpt lat="41.724398927763104" lon="-8.853503158316016">
        <ele>46.9375</ele>
      </trkpt>
      <trkpt lat="41.724460702389479" lon="-8.853504918515682">
        <ele>47.0546875</ele>
      </trkpt>
      <trkpt lat="41.724523063749075" lon="-8.85350676253438">
        <ele>47.16796875</ele>
      </trkpt>
      <trkpt lat="41.724587352946401" lon="-8.853508774191141">
        <ele>47.33984375</ele>
      </trkpt>
      <trkpt lat="41.724648373201489" lon="-8.853510702028871">
        <ele>47.7890625</ele>
      </trkpt>
      <trkpt lat="41.724705873057246" lon="-8.853516401723027">
        <ele>48.1875</ele>
      </trkpt>
      <trkpt lat="41.724764378741384" lon="-8.853526879101992">
        <ele>48.5625</ele>
      </trkpt>
      <trkpt lat="41.724819531664252" lon="-8.853541631251574">
        <ele>48.8828125</ele>
      </trkpt>
      <trkpt lat="41.724873343482614" lon="-8.853562502190471">
        <ele>49.140625</ele>
      </trkpt>
      <trkpt lat="41.724922293797135" lon="-8.853592928498983">
        <ele>49.28515625</ele>
      </trkpt>
      <trkpt lat="41.724943583831191" lon="-8.853600388392806">
        <ele>49.38671875</ele>
      </trkpt>
      <trkpt lat="41.725467285141349" lon="-8.853935580700636">
        <ele>50.140625</ele>
      </trkpt>
      <trkpt lat="41.725468123331666" lon="-8.853935580700636">
        <ele>50.15234375</ele>
      </trkpt>
      <trkpt lat="41.726042199879885" lon="-8.854378899559379">
        <ele>51.859375</ele>
      </trkpt>
      <trkpt lat="41.726505635306239" lon="-8.854588614776731">
        <ele>53.75390625</ele>
      </trkpt>
      <trkpt lat="41.726505635306239" lon="-8.854589955881238">
        <ele>53.734375</ele>
      </trkpt>
      <trkpt lat="41.727180294692516" lon="-8.854932021349669">
        <ele>55.8984375</ele>
      </trkpt>
      <trkpt lat="41.727427896112204" lon="-8.855050122365355">
        <ele>56.38671875</ele>
      </trkpt>
      <trkpt lat="41.72748782671988" lon="-8.855051714926958">
        <ele>56.83203125</ele>
      </trkpt>
      <trkpt lat="41.727544656023383" lon="-8.855051714926958">
        <ele>57.2734375</ele>
      </trkpt>
      <trkpt lat="41.727600395679474" lon="-8.855048026889563">
        <ele>57.75390625</ele>
      </trkpt>
      <trkpt lat="41.727661248296499" lon="-8.855042411014438">
        <ele>58.296875</ele>
      </trkpt>
      <trkpt lat="41.72772922553122" lon="-8.855036543682218">
        <ele>58.90234375</ele>
      </trkpt>
      <trkpt lat="41.727787898853421" lon="-8.855024473741651">
        <ele>59.515625</ele>
      </trkpt>
      <trkpt lat="41.727846991270781" lon="-8.855010978877544">
        <ele>60.15234375</ele>
      </trkpt>
      <trkpt lat="41.727901306003332" lon="-8.854998573660851">
        <ele>60.7421875</ele>
      </trkpt>
      <trkpt lat="41.727953860536218" lon="-8.854980720207095">
        <ele>60.98828125</ele>
      </trkpt>
      <trkpt lat="41.728005912154913" lon="-8.854961860924959">
        <ele>61.1875</ele>
      </trkpt>
      <trkpt lat="41.728065004572272" lon="-8.854942582547665">
        <ele>61.38671875</ele>
      </trkpt>
      <trkpt lat="41.728121163323522" lon="-8.854923555627465">
        <ele>61.59765625</ele>
      </trkpt>
      <trkpt lat="41.728171706199646" lon="-8.854899248108268">
        <ele>61.890625</ele>
      </trkpt>
      <trkpt lat="41.728218393400311" lon="-8.854857673868537">
        <ele>62.4375</ele>
      </trkpt>
      <trkpt lat="41.728266170248389" lon="-8.854821380227804">
        <ele>62.91796875</ele>
      </trkpt>
      <trkpt lat="41.72831654548645" lon="-8.854783242568374">
        <ele>63.43359375</ele>
      </trkpt>
      <trkpt lat="41.728368094190955" lon="-8.854749044403434">
        <ele>63.90625</ele>
      </trkpt>
      <trkpt lat="41.728427605703473" lon="-8.854728508740664">
        <ele>64.18359375</ele>
      </trkpt>
      <trkpt lat="41.728481585159898" lon="-8.854717360809445">
        <ele>64.328125</ele>
      </trkpt>
      <trkpt lat="41.728526931256056" lon="-8.854712247848511">
        <ele>64.390625</ele>
      </trkpt>
      <trkpt lat="41.728901099413633" lon="-8.854721132665873">
        <ele>63.77734375</ele>
      </trkpt>
      <trkpt lat="41.728908475488424" lon="-8.854718198999763">
        <ele>63.8046875</ele>
      </trkpt>
      <trkpt lat="41.729114335030317" lon="-8.854692047461867">
        <ele>63.69921875</ele>
      </trkpt>
      <trkpt lat="41.729178540408611" lon="-8.854681150987744">
        <ele>63.71484375</ele>
      </trkpt>
      <trkpt lat="41.729234447702765" lon="-8.854670254513621">
        <ele>63.75</ele>
      </trkpt>
      <trkpt lat="41.729301000013947" lon="-8.854655418545008">
        <ele>63.828125</ele>
      </trkpt>
      <trkpt lat="41.729371324181557" lon="-8.854640498757362">
        <ele>63.90234375</ele>
      </trkpt>
      <trkpt lat="41.729431003332138" lon="-8.854628931730986">
        <ele>63.9453125</ele>
      </trkpt>
      <trkpt lat="41.729486659169197" lon="-8.854620466008782">
        <ele>63.953125</ele>
      </trkpt>
      <trkpt lat="41.729543404653668" lon="-8.854630943387747">
        <ele>63.640625</ele>
      </trkpt>
      <trkpt lat="41.729604508727789" lon="-8.854660531505942">
        <ele>63.3125</ele>
      </trkpt>
      <trkpt lat="41.729659242555499" lon="-8.854686850681901">
        <ele>63.31640625</ele>
      </trkpt>
      <trkpt lat="41.729713808745146" lon="-8.854716690257192">
        <ele>63.24609375</ele>
      </trkpt>
      <trkpt lat="41.729764016345143" lon="-8.854754576459527">
        <ele>62.99609375</ele>
      </trkpt>
      <trkpt lat="41.729810200631618" lon="-8.854791959747672">
        <ele>62.7109375</ele>
      </trkpt>
      <trkpt lat="41.729854457080364" lon="-8.854841915890574">
        <ele>62.1796875</ele>
      </trkpt>
      <trkpt lat="41.729907598346472" lon="-8.854884579777718">
        <ele>61.83203125</ele>
      </trkpt>
      <trkpt lat="41.729963924735785" lon="-8.8549252320081">
        <ele>61.53125</ele>
      </trkpt>
      <trkpt lat="41.730013880878687" lon="-8.854955658316612">
        <ele>61.3515625</ele>
      </trkpt>
      <trkpt lat="41.730067860335112" lon="-8.854984827339649">
        <ele>61.21875</ele>
      </trkpt>
      <trkpt lat="41.730119241401553" lon="-8.855010224506259">
        <ele>61.12890625</ele>
      </trkpt>
      <trkpt lat="41.730171041563153" lon="-8.855034364387393">
        <ele>61.05859375</ele>
      </trkpt>
      <trkpt lat="41.730218231678009" lon="-8.855059174820781">
        <ele>60.93359375</ele>
      </trkpt>
      <trkpt lat="41.730268774554133" lon="-8.855083985254169">
        <ele>60.82421875</ele>
      </trkpt>
      <trkpt lat="41.730318395420909" lon="-8.855113992467523">
        <ele>60.60546875</ele>
      </trkpt>
      <trkpt lat="41.730375057086349" lon="-8.855139221996069">
        <ele>60.515625</ele>
      </trkpt>
      <trkpt lat="41.730430545285344" lon="-8.855164870619774">
        <ele>60.46484375</ele>
      </trkpt>
      <trkpt lat="41.730486704036593" lon="-8.855186244472861">
        <ele>60.5859375</ele>
      </trkpt>
      <trkpt lat="41.730538001284003" lon="-8.855209378525615">
        <ele>60.6171875</ele>
      </trkpt>
      <trkpt lat="41.730589298531413" lon="-8.855243660509586">
        <ele>60.41015625</ele>
      </trkpt>
      <trkpt lat="41.730640847235918" lon="-8.855275679379702">
        <ele>60.2421875</ele>
      </trkpt>
      <trkpt lat="41.730707315728068" lon="-8.855306943878531">
        <ele>60.203125</ele>
      </trkpt>
      <trkpt lat="41.730757188051939" lon="-8.855337286368012">
        <ele>60.0234375</ele>
      </trkpt>
      <trkpt lat="41.730807982385159" lon="-8.855374585837126">
        <ele>59.69140625</ele>
      </trkpt>
      <trkpt lat="41.730852657929063" lon="-8.855415070429444">
        <ele>59.22265625</ele>
      </trkpt>
      <trkpt lat="41.730884090065956" lon="-8.855472905561328">
        <ele>58.41015625</ele>
      </trkpt>
      <trkpt lat="41.730915857478976" lon="-8.855536775663495">
        <ele>57.58203125</ele>
      </trkpt>
      <trkpt lat="41.730946199968457" lon="-8.855603076517582">
        <ele>56.69140625</ele>
      </trkpt>
      <trkpt lat="41.730968914926052" lon="-8.855668203905225">
        <ele>55.75</ele>
      </trkpt>
      <trkpt lat="41.730985511094332" lon="-8.855741461738944">
        <ele>54.61328125</ele>
      </trkpt>
      <trkpt lat="41.730992216616869" lon="-8.855826705694199">
        <ele>53.1875</ele>
      </trkpt>
      <trkpt lat="41.730993390083313" lon="-8.855905411764979">
        <ele>51.8359375</ele>
      </trkpt>
      <trkpt lat="41.730995737016201" lon="-8.855986213311553">
        <ele>50.453125</ele>
      </trkpt>
      <trkpt lat="41.731004118919373" lon="-8.856061566621065">
        <ele>49.20703125</ele>
      </trkpt>
      <trkpt lat="41.731040496379137" lon="-8.856128621846437">
        <ele>48.27734375</ele>
      </trkpt>
      <trkpt lat="41.731082741171122" lon="-8.856184780597687">
        <ele>47.5625</ele>
      </trkpt>
      <trkpt lat="41.731129931285977" lon="-8.856225181370974">
        <ele>47.140625</ele>
      </trkpt>
      <trkpt lat="41.731174774467945" lon="-8.856265498325229">
        <ele>46.69921875</ele>
      </trkpt>
      <trkpt lat="41.731188436970115" lon="-8.856333727017045">
        <ele>45.93359375</ele>
      </trkpt>
      <trkpt lat="41.731189610436559" lon="-8.85640874505043">
        <ele>45.0390625</ele>
      </trkpt>
      <trkpt lat="41.731189610436559" lon="-8.856499521061778">
        <ele>43.94921875</ele>
      </trkpt>
      <trkpt lat="41.731193214654922" lon="-8.856585267931223">
        <ele>42.94140625</ele>
      </trkpt>
      <trkpt lat="41.731198746711016" lon="-8.856657519936562">
        <ele>42.10546875</ele>
      </trkpt>
      <trkpt lat="41.73120629042387" lon="-8.856736309826374">
        <ele>41.203125</ele>
      </trkpt>
      <trkpt lat="41.731215259060264" lon="-8.85680940002203">
        <ele>40.3828125</ele>
      </trkpt>
      <trkpt lat="41.731227748095989" lon="-8.856885004788637">
        <ele>39.546875</ele>
      </trkpt>
      <trkpt lat="41.731247110292315" lon="-8.856956670060754">
        <ele>38.81640625</ele>
      </trkpt>
      <trkpt lat="41.731263706460595" lon="-8.857029257342219">
        <ele>38.06640625</ele>
      </trkpt>
      <trkpt lat="41.731309555470943" lon="-8.857076615095139">
        <ele>37.828125</ele>
      </trkpt>
      <trkpt lat="41.731362445279956" lon="-8.857100000604987">
        <ele>37.921875</ele>
      </trkpt>
      <trkpt lat="41.731411647051573" lon="-8.8571269903332">
        <ele>37.98046875</ele>
      </trkpt>
      <trkpt lat="41.73146478831768" lon="-8.857145933434367">
        <ele>38.16015625</ele>
      </trkpt>
      <trkpt lat="41.731522874906659" lon="-8.857147358357906">
        <ele>38.5625</ele>
      </trkpt>
      <trkpt lat="41.731576770544052" lon="-8.857121542096138">
        <ele>39.23046875</ele>
      </trkpt>
      <trkpt lat="41.731629576534033" lon="-8.857096983119845">
        <ele>39.890625</ele>
      </trkpt>
      <trkpt lat="41.731689423322678" lon="-8.857088601216674">
        <ele>40.43359375</ele>
      </trkpt>
      <trkpt lat="41.731749353930354" lon="-8.857092037796974">
        <ele>40.8203125</ele>
      </trkpt>
      <trkpt lat="41.731798220425844" lon="-8.85712556540966">
        <ele>40.78125</ele>
      </trkpt>
      <trkpt lat="41.731828982010484" lon="-8.857184490188956">
        <ele>40.3671875</ele>
      </trkpt>
      <trkpt lat="41.731870891526341" lon="-8.85723352432251">
        <ele>40.13671875</ele>
      </trkpt>
      <trkpt lat="41.731921182945371" lon="-8.857268393039703">
        <ele>40.125</ele>
      </trkpt>
      <trkpt lat="41.731973653659225" lon="-8.857289850711823">
        <ele>40.26953125</ele>
      </trkpt>
      <trkpt lat="41.732034254819155" lon="-8.857301669195294">
        <ele>40.578125</ele>
      </trkpt>
      <trkpt lat="41.732095442712307" lon="-8.857305273413658">
        <ele>40.97265625</ele>
      </trkpt>
      <trkpt lat="41.732154451310635" lon="-8.857291359454393">
        <ele>41.53515625</ele>
      </trkpt>
      <trkpt lat="41.732206167653203" lon="-8.857266632840037">
        <ele>42.1640625</ele>
      </trkpt>
      <trkpt lat="41.732256961986423" lon="-8.857239056378603">
        <ele>42.82421875</ele>
      </trkpt>
      <trkpt lat="41.732288142666221" lon="-8.857215000316501">
        <ele>43.30859375</ele>
      </trkpt>
      <trkpt lat="41.732402388006449" lon="-8.857183819636703">
        <ele>44.46484375</ele>
      </trkpt>
      <trkpt lat="41.732457792386413" lon="-8.857204020023346">
        <ele>44.62890625</ele>
      </trkpt>
      <trkpt lat="41.732508167624474" lon="-8.857229501008987">
        <ele>44.6953125</ele>
      </trkpt>
      <trkpt lat="41.732562817633152" lon="-8.857260933145881">
        <ele>44.71484375</ele>
      </trkpt>
      <trkpt lat="41.732615539804101" lon="-8.857283815741539">
        <ele>44.81640625</ele>
      </trkpt>
      <trkpt lat="41.732670860365033" lon="-8.857303848490119">
        <ele>44.96875</ele>
      </trkpt>
      <trkpt lat="41.732727186754346" lon="-8.857320779934525">
        <ele>45.16015625</ele>
      </trkpt>
      <trkpt lat="41.73278016038239" lon="-8.857341818511486">
        <ele>45.27734375</ele>
      </trkpt>
      <trkpt lat="41.732836905866861" lon="-8.857358582317829">
        <ele>45.46484375</ele>
      </trkpt>
      <trkpt lat="41.732893818989396" lon="-8.85737232863903">
        <ele>45.69140625</ele>
      </trkpt>
      <trkpt lat="41.732952324673533" lon="-8.857382722198963">
        <ele>45.8125</ele>
      </trkpt>
      <trkpt lat="41.733008315786719" lon="-8.85739428922534">
        <ele>45.875</ele>
      </trkpt>
      <trkpt lat="41.733062462881207" lon="-8.857403760775924">
        <ele>45.95703125</ele>
      </trkpt>
      <trkpt lat="41.733121555298567" lon="-8.857412729412317">
        <ele>46.0625</ele>
      </trkpt>
      <trkpt lat="41.733180647715926" lon="-8.857416333630681">
        <ele>46.234375</ele>
      </trkpt>
      <trkpt lat="41.733234710991383" lon="-8.857421530410647">
        <ele>46.36328125</ele>
      </trkpt>
      <trkpt lat="41.733296904712915" lon="-8.857425050809979">
        <ele>46.546875</ele>
      </trkpt>
      <trkpt lat="41.733354739844799" lon="-8.85743385180831">
        <ele>46.6484375</ele>
      </trkpt>
      <trkpt lat="41.733414335176349" lon="-8.85744072496891">
        <ele>46.78125</ele>
      </trkpt>
      <trkpt lat="41.733471835032105" lon="-8.857451872900128">
        <ele>46.85546875</ele>
      </trkpt>
      <trkpt lat="41.733534447848797" lon="-8.85745782405138">
        <ele>47.0078125</ele>
      </trkpt>
      <trkpt lat="41.733596809208393" lon="-8.857465451583266">
        <ele>47.140625</ele>
      </trkpt>
      <trkpt lat="41.733655566349626" lon="-8.857470983639359">
        <ele>47.2890625</ele>
      </trkpt>
      <trkpt lat="41.733709881082177" lon="-8.857487328350544">
        <ele>47.28515625</ele>
      </trkpt>
      <trkpt lat="41.733768889680505" lon="-8.857498560100794">
        <ele>47.2734375</ele>
      </trkpt>
      <trkpt lat="41.733824629336596" lon="-8.857506271451712">
        <ele>47.21484375</ele>
      </trkpt>
      <trkpt lat="41.73388883471489" lon="-8.857514318078756">
        <ele>47.15625</ele>
      </trkpt>
      <trkpt lat="41.733952788636088" lon="-8.85752571746707">
        <ele>47.0546875</ele>
      </trkpt>
      <trkpt lat="41.734008695930243" lon="-8.85752965696156">
        <ele>47.0390625</ele>
      </trkpt>
      <trkpt lat="41.734067872166634" lon="-8.857535105198622">
        <ele>47.0078125</ele>
      </trkpt>
      <trkpt lat="41.734126294031739" lon="-8.857541978359222">
        <ele>46.953125</ele>
      </trkpt>
      <trkpt lat="41.734185386449099" lon="-8.857545582577586">
        <ele>46.94140625</ele>
      </trkpt>
      <trkpt lat="41.734247580170631" lon="-8.857558239251375">
        <ele>46.81640625</ele>
      </trkpt>
      <trkpt lat="41.73430323600769" lon="-8.857573578134179">
        <ele>46.6484375</ele>
      </trkpt>
      <trkpt lat="41.734357383102179" lon="-8.857583133503795">
        <ele>46.5546875</ele>
      </trkpt>
      <trkpt lat="41.734411530196667" lon="-8.857594532892108">
        <ele>46.43359375</ele>
      </trkpt>
      <trkpt lat="41.734468946233392" lon="-8.857605680823326">
        <ele>46.31640625</ele>
      </trkpt>
      <trkpt lat="41.734524602070451" lon="-8.857620684430003">
        <ele>46.1484375</ele>
      </trkpt>
      <trkpt lat="41.734555866569281" lon="-8.857627892866731">
        <ele>46.06640625</ele>
      </trkpt>
      <trkpt lat="41.734670782461762" lon="-8.857647338882089">
        <ele>46.3359375</ele>
      </trkpt>
      <trkpt lat="41.734722917899489" lon="-8.857626216486096">
        <ele>46.890625</ele>
      </trkpt>
      <trkpt lat="41.734769940376282" lon="-8.857575003057718">
        <ele>47.828125</ele>
      </trkpt>
      <trkpt lat="41.734810089692473" lon="-8.857523454353213">
        <ele>48.7421875</ele>
      </trkpt>
      <trkpt lat="41.734857363626361" lon="-8.857482047751546">
        <ele>49.55859375</ele>
      </trkpt>
      <trkpt lat="41.734913857653737" lon="-8.857458997517824">
        <ele>50.18359375</ele>
      </trkpt>
      <trkpt lat="41.734962640330195" lon="-8.857425302267075">
        <ele>50.9140625</ele>
      </trkpt>
      <trkpt lat="41.735010500997305" lon="-8.857390098273754">
        <ele>51.66796875</ele>
      </trkpt>
      <trkpt lat="41.735065737739205" lon="-8.857384398579597">
        <ele>52.0546875</ele>
      </trkpt>
      <trkpt lat="41.735121477395296" lon="-8.857390936464071">
        <ele>52.27734375</ele>
      </trkpt>
      <trkpt lat="41.735174199566245" lon="-8.857410047203302">
        <ele>52.30078125</ele>
      </trkpt>
      <trkpt lat="41.735228430479765" lon="-8.857428738847375">
        <ele>52.33984375</ele>
      </trkpt>
      <trkpt lat="41.735288947820663" lon="-8.857459248974919">
        <ele>52.23828125</ele>
      </trkpt>
      <trkpt lat="41.735347704961896" lon="-8.857481461018324">
        <ele>52.24609375</ele>
      </trkpt>
      <trkpt lat="41.735404198989272" lon="-8.85751255787909">
        <ele>52.10546875</ele>
      </trkpt>
      <trkpt lat="41.735458262264729" lon="-8.857533428817987">
        <ele>52.3828125</ele>
      </trkpt>
      <trkpt lat="41.735511487349868" lon="-8.857547426596284">
        <ele>52.7421875</ele>
      </trkpt>
      <trkpt lat="41.735566137358546" lon="-8.85755798779428">
        <ele>53.1640625</ele>
      </trkpt>
      <trkpt lat="41.735622212290764" lon="-8.857569638639688">
        <ele>53.57421875</ele>
      </trkpt>
      <trkpt lat="41.73568457365036" lon="-8.857575757429004">
        <ele>54.1328125</ele>
      </trkpt>
      <trkpt lat="41.735745090991259" lon="-8.857576008886099">
        <ele>54.76171875</ele>
      </trkpt>
      <trkpt lat="41.735800579190254" lon="-8.857574248686433">
        <ele>55.375</ele>
      </trkpt>
      <trkpt lat="41.735861096531153" lon="-8.857574248686433">
        <ele>56.0078125</ele>
      </trkpt>
      <trkpt lat="41.735923709347844" lon="-8.857574248686433">
        <ele>56.66796875</ele>
      </trkpt>
      <trkpt lat="41.735988166183233" lon="-8.857580702751875">
        <ele>57.2265625</ele>
      </trkpt>
      <trkpt lat="41.736048264428973" lon="-8.857591934502125">
        <ele>57.65234375</ele>
      </trkpt>
      <trkpt lat="41.73610626719892" lon="-8.857605177909136">
        <ele>58.01171875</ele>
      </trkpt>
      <trkpt lat="41.73616242595017" lon="-8.857618421316147">
        <ele>58.33984375</ele>
      </trkpt>
      <trkpt lat="41.736219841986895" lon="-8.857631832361221">
        <ele>58.671875</ele>
      </trkpt>
      <trkpt lat="41.736275581642985" lon="-8.857636945322156">
        <ele>59.03125</ele>
      </trkpt>
      <trkpt lat="41.736330734565854" lon="-8.857643650844693">
        <ele>59.30078125</ele>
      </trkpt>
      <trkpt lat="41.73638672567904" lon="-8.857655888423324">
        <ele>59.46484375</ele>
      </trkpt>
      <trkpt lat="41.736440872773528" lon="-8.857668712735176">
        <ele>59.59765625</ele>
      </trkpt>
      <trkpt lat="41.736496696248651" lon="-8.857685895636678">
        <ele>59.6484375</ele>
      </trkpt>
      <trkpt lat="41.736552603542805" lon="-8.857695115730166">
        <ele>59.85546875</ele>
      </trkpt>
      <trkpt lat="41.736624520272017" lon="-8.857706934213638">
        <ele>60.1171875</ele>
      </trkpt>
      <trkpt lat="41.736678583547473" lon="-8.857715986669064">
        <ele>60.3046875</ele>
      </trkpt>
      <trkpt lat="41.736734909936786" lon="-8.857730235904455">
        <ele>60.390625</ele>
      </trkpt>
      <trkpt lat="41.736789224669337" lon="-8.85774658061564">
        <ele>60.41015625</ele>
      </trkpt>
      <trkpt lat="41.736844042316079" lon="-8.857769463211298">
        <ele>60.28515625</ele>
      </trkpt>
      <trkpt lat="41.736898608505726" lon="-8.857795195654035">
        <ele>60.0859375</ele>
      </trkpt>
      <trkpt lat="41.736952923238277" lon="-8.857826963067055">
        <ele>59.734375</ele>
      </trkpt>
      <trkpt lat="41.73699801787734" lon="-8.857872895896435">
        <ele>58.9921875</ele>
      </trkpt>
      <trkpt lat="41.737026097252965" lon="-8.857933916151524">
        <ele>57.7890625</ele>
      </trkpt>
      <trkpt lat="41.737045627087355" lon="-8.858001055195928">
        <ele>56.84765625</ele>
      </trkpt>
      <trkpt lat="41.737065492197871" lon="-8.858108259737492">
        <ele>55.2890625</ele>
      </trkpt>
      <trkpt lat="41.73708057962358" lon="-8.858194509521127">
        <ele>54.01953125</ele>
      </trkpt>
      <trkpt lat="41.737096169963479" lon="-8.858267934992909">
        <ele>52.94921875</ele>
      </trkpt>
      <trkpt lat="41.737111508846283" lon="-8.858339935541153">
        <ele>51.8984375</ele>
      </trkpt>
      <trkpt lat="41.737129110842943" lon="-8.85840917006135">
        <ele>50.90234375</ele>
      </trkpt>
      <trkpt lat="41.737146712839603" lon="-8.858482846990228">
        <ele>49.8359375</ele>
      </trkpt>
      <trkpt lat="41.73717001453042" lon="-8.858562977984548">
        <ele>48.69921875</ele>
      </trkpt>
      <trkpt lat="41.737193064764142" lon="-8.858631122857332">
        <ele>47.74609375</ele>
      </trkpt>
      <trkpt lat="41.737248552963138" lon="-8.858764143660665">
        <ele>45.93359375</ele>
      </trkpt>
      <trkpt lat="41.737285014241934" lon="-8.858845615759492">
        <ele>45.43359375</ele>
      </trkpt>
      <trkpt lat="41.737311333417892" lon="-8.858909653499722">
        <ele>45.046875</ele>
      </trkpt>
      <trkpt lat="41.737343436107039" lon="-8.858976289629936">
        <ele>44.65625</ele>
      </trkpt>
      <trkpt lat="41.737375622615218" lon="-8.859051056206226">
        <ele>44.1875</ele>
      </trkpt>
      <trkpt lat="41.737411413341761" lon="-8.8591093942523">
        <ele>43.8515625</ele>
      </trkpt>
      <trkpt lat="41.737450724467635" lon="-8.859164630994201">
        <ele>43.546875</ele>
      </trkpt>
      <trkpt lat="41.737490370869637" lon="-8.85921785607934">
        <ele>43.2421875</ele>
      </trkpt>
      <trkpt lat="41.737534124404192" lon="-8.859266554936767">
        <ele>42.98046875</ele>
      </trkpt>
      <trkpt lat="41.737582571804523" lon="-8.859310392290354">
        <ele>42.76171875</ele>
      </trkpt>
      <trkpt lat="41.737632863223553" lon="-8.859353475272655">
        <ele>42.54296875</ele>
      </trkpt>
      <trkpt lat="41.737673012539744" lon="-8.859408712014556">
        <ele>42.17578125</ele>
      </trkpt>
      <trkpt lat="41.737697655335069" lon="-8.859477108344436">
        <ele>41.6328125</ele>
      </trkpt>
      <trkpt lat="41.737728165462613" lon="-8.859534524381161">
        <ele>41.1953125</ele>
      </trkpt>
      <trkpt lat="41.737781558185816" lon="-8.859549947082996">
        <ele>41.19140625</ele>
      </trkpt>
      <trkpt lat="41.737805865705013" lon="-8.859547348693013">
        <ele>41.27734375</ele>
      </trkpt>
      <trkpt lat="41.737937210127711" lon="-8.859518934041262">
        <ele>41.98046875</ele>
      </trkpt>
      <trkpt lat="41.737998062744737" lon="-8.85951055213809">
        <ele>42.38671875</ele>
      </trkpt>
      <trkpt lat="41.738057322800159" lon="-8.859505355358124">
        <ele>42.7578125</ele>
      </trkpt>
      <trkpt lat="41.738114906474948" lon="-8.859501918777823">
        <ele>43.1015625</ele>
      </trkpt>
      <trkpt lat="41.738169556483626" lon="-8.859498398378491">
        <ele>43.43359375</ele>
      </trkpt>
      <trkpt lat="41.738223787397146" lon="-8.859506445005536">
        <ele>43.63671875</ele>
      </trkpt>
      <trkpt lat="41.738280113786459" lon="-8.859524549916387">
        <ele>43.72265625</ele>
      </trkpt>
      <trkpt lat="41.738339373841882" lon="-8.859538044780493">
        <ele>43.87109375</ele>
      </trkpt>
      <trkpt lat="41.738393604755402" lon="-8.859557155519724">
        <ele>43.9140625</ele>
      </trkpt>
      <trkpt lat="41.738453200086951" lon="-8.859575679525733">
        <ele>43.98046875</ele>
      </trkpt>
      <trkpt lat="41.738510197028518" lon="-8.859597640112042">
        <ele>43.97265625</ele>
      </trkpt>
      <trkpt lat="41.738561829552054" lon="-8.859618008136749">
        <ele>44.02734375</ele>
      </trkpt>
      <trkpt lat="41.73861438408494" lon="-8.8596395496279">
        <ele>44.08203125</ele>
      </trkpt>
      <trkpt lat="41.738679092377424" lon="-8.859661007300019">
        <ele>44.1796875</ele>
      </trkpt>
      <trkpt lat="41.738733071833849" lon="-8.859678106382489">
        <ele>44.2578125</ele>
      </trkpt>
      <trkpt lat="41.738787721842527" lon="-8.859693948179483">
        <ele>44.3671875</ele>
      </trkpt>
      <trkpt lat="41.738843293860555" lon="-8.85970601812005">
        <ele>44.515625</ele>
      </trkpt>
      <trkpt lat="41.738899871706963" lon="-8.859688248485327">
        <ele>44.9609375</ele>
      </trkpt>
      <trkpt lat="41.738949408754706" lon="-8.859644159674644">
        <ele>45.62109375</ele>
      </trkpt>
      <trkpt lat="41.73899500630796" lon="-8.859593281522393">
        <ele>46.37890625</ele>
      </trkpt>
      <trkpt lat="41.739042112603784" lon="-8.859544666483998">
        <ele>47.37109375</ele>
      </trkpt>
      <trkpt lat="41.739088380709291" lon="-8.859507199376822">
        <ele>48.203125</ele>
      </trkpt>
      <trkpt lat="41.739135151728988" lon="-8.859467720612884">
        <ele>49.0859375</ele>
      </trkpt>
      <trkpt lat="41.739180497825146" lon="-8.859423799440265">
        <ele>50.046875</ele>
      </trkpt>
      <trkpt lat="41.73922467045486" lon="-8.859378453344107">
        <ele>51.04296875</ele>
      </trkpt>
      <trkpt lat="41.739270854741335" lon="-8.859331933781505">
        <ele>52.0859375</ele>
      </trkpt>
      <trkpt lat="41.739312764257193" lon="-8.8592872582376">
        <ele>53.08984375</ele>
      </trkpt>
      <trkpt lat="41.73936054110527" lon="-8.859231770038605">
        <ele>54.3359375</ele>
      </trkpt>
      <trkpt lat="41.739406976848841" lon="-8.859193213284016">
        <ele>55.30078125</ele>
      </trkpt>
      <trkpt lat="41.739460956305265" lon="-8.859187178313732">
        <ele>55.76171875</ele>
      </trkpt>
      <trkpt lat="41.739462716504931" lon="-8.85918851941824">
        <ele>55.75</ele>
      </trkpt>
      <trkpt lat="41.739708809182048" lon="-8.859163457527757">
        <ele>57.66015625</ele>
      </trkpt>
      <trkpt lat="41.739767314866185" lon="-8.859156165271997">
        <ele>58.11328125</ele>
      </trkpt>
      <trkpt lat="41.739826155826449" lon="-8.859158176928759">
        <ele>58.39453125</ele>
      </trkpt>
      <trkpt lat="41.739884242415428" lon="-8.85916655883193">
        <ele>58.5546875</ele>
      </trkpt>
      <trkpt lat="41.739942161366343" lon="-8.85917728766799">
        <ele>58.671875</ele>
      </trkpt>
      <trkpt lat="41.740000080317259" lon="-8.859197571873665">
        <ele>58.609375</ele>
      </trkpt>
      <trkpt lat="41.740052634850144" lon="-8.859223052859306">
        <ele>58.4140625</ele>
      </trkpt>
      <trkpt lat="41.740110218524933" lon="-8.859254904091358">
        <ele>58.125</ele>
      </trkpt>
      <trkpt lat="41.740167383104563" lon="-8.859286084771156">
        <ele>57.83984375</ele>
      </trkpt>
      <trkpt lat="41.740226643159986" lon="-8.859311230480671">
        <ele>57.671875</ele>
      </trkpt>
      <trkpt lat="41.740282801911235" lon="-8.859337633475661">
        <ele>57.46484375</ele>
      </trkpt>
      <trkpt lat="41.740333931520581" lon="-8.859362527728081">
        <ele>57.25390625</ele>
      </trkpt>
      <trkpt lat="41.740382630378008" lon="-8.859401922672987">
        <ele>56.74609375</ele>
      </trkpt>
      <trkpt lat="41.740431077778339" lon="-8.859437210485339">
        <ele>56.30078125</ele>
      </trkpt>
      <trkpt lat="41.740485643967986" lon="-8.859475180506706">
        <ele>55.82421875</ele>
      </trkpt>
      <trkpt lat="41.740537025034428" lon="-8.859499655663967">
        <ele>55.59765625</ele>
      </trkpt>
      <trkpt lat="41.740592513233423" lon="-8.859522035345435">
        <ele>55.4296875</ele>
      </trkpt>
      <trkpt lat="41.740649342536926" lon="-8.859547935426235">
        <ele>55.2109375</ele>
      </trkpt>
      <trkpt lat="41.74070374108851" lon="-8.859571823850274">
        <ele>55.01953125</ele>
      </trkpt>
      <trkpt lat="41.740755792707205" lon="-8.859591018408537">
        <ele>54.90625</ele>
      </trkpt>
      <trkpt lat="41.740812286734581" lon="-8.85960828512907">
        <ele>54.8984375</ele>
      </trkpt>
      <trkpt lat="41.74087280407548" lon="-8.859611889347434">
        <ele>55.14453125</ele>
      </trkpt>
      <trkpt lat="41.74093147739768" lon="-8.859610045328736">
        <ele>55.4453125</ele>
      </trkpt>
      <trkpt lat="41.740987887606025" lon="-8.859606608748436">
        <ele>55.7578125</ele>
      </trkpt>
      <trkpt lat="41.741047315299511" lon="-8.85960484854877">
        <ele>56.06640625</ele>
      </trkpt>
      <trkpt lat="41.741104815155268" lon="-8.859603088349104">
        <ele>56.36328125</ele>
      </trkpt>
      <trkpt lat="41.74116550013423" lon="-8.859603088349104">
        <ele>56.65625</ele>
      </trkpt>
      <trkpt lat="41.74122417345643" lon="-8.859605100005865">
        <ele>56.91015625</ele>
      </trkpt>
      <trkpt lat="41.741288462653756" lon="-8.859612895175815">
        <ele>57.046875</ele>
      </trkpt>
      <trkpt lat="41.741346213966608" lon="-8.859626557677984">
        <ele>57.06640625</ele>
      </trkpt>
      <trkpt lat="41.741397678852081" lon="-8.859649607911706">
        <ele>56.92578125</ele>
      </trkpt>
      <trkpt lat="41.741451742127538" lon="-8.859676262363791">
        <ele>56.73046875</ele>
      </trkpt>
      <trkpt lat="41.741507984697819" lon="-8.859706437215209">
        <ele>56.48046875</ele>
      </trkpt>
      <trkpt lat="41.741565065458417" lon="-8.859753459692001">
        <ele>55.97265625</ele>
      </trkpt>
      <trkpt lat="41.741618374362588" lon="-8.859792100265622">
        <ele>55.5546875</ele>
      </trkpt>
      <trkpt lat="41.741669839248061" lon="-8.859818838536739">
        <ele>55.296875</ele>
      </trkpt>
      <trkpt lat="41.741721890866756" lon="-8.859845912083983">
        <ele>55.01953125</ele>
      </trkpt>
      <trkpt lat="41.741772685199976" lon="-8.859878936782479">
        <ele>54.63671875</ele>
      </trkpt>
      <trkpt lat="41.741819456219673" lon="-8.859915817156434">
        <ele>54.16796875</ele>
      </trkpt>
      <trkpt lat="41.741871926933527" lon="-8.859944650903344">
        <ele>53.82421875</ele>
      </trkpt>
      <trkpt lat="41.741925152018666" lon="-8.859975663945079">
        <ele>53.4375</ele>
      </trkpt>
      <trkpt lat="41.741975359618664" lon="-8.86000994592905">
        <ele>52.97265625</ele>
      </trkpt>
      <trkpt lat="41.742025315761566" lon="-8.860038360580802">
        <ele>52.59375</ele>
      </trkpt>
      <trkpt lat="41.742078540846705" lon="-8.860073313117027">
        <ele>52.12890625</ele>
      </trkpt>
      <trkpt lat="41.742133526131511" lon="-8.860105164349079">
        <ele>51.828125</ele>
      </trkpt>
      <trkpt lat="41.742186164483428" lon="-8.860134417191148">
        <ele>51.54296875</ele>
      </trkpt>
      <trkpt lat="41.742238719016314" lon="-8.860154449939728">
        <ele>51.40234375</ele>
      </trkpt>
      <trkpt lat="41.742293871939182" lon="-8.860174315050244">
        <ele>51.265625</ele>
      </trkpt>
      <trkpt lat="41.742353467270732" lon="-8.860184205695987">
        <ele>51.3125</ele>
      </trkpt>
      <trkpt lat="41.742419265210629" lon="-8.860184205695987">
        <ele>51.56640625</ele>
      </trkpt>
      <trkpt lat="41.74248137511313" lon="-8.860184205695987">
        <ele>51.8046875</ele>
      </trkpt>
      <trkpt lat="41.742541640996933" lon="-8.860178841277957">
        <ele>52.140625</ele>
      </trkpt>
      <trkpt lat="41.742597380653024" lon="-8.860176913440228">
        <ele>52.3984375</ele>
      </trkpt>
      <trkpt lat="41.742653455585241" lon="-8.860165681689978">
        <ele>52.83984375</ele>
      </trkpt>
      <trkpt lat="41.742712464183569" lon="-8.86015797033906">
        <ele>53.234375</ele>
      </trkpt>
      <trkpt lat="41.74279167316854" lon="-8.860139865428209">
        <ele>53.9296875</ele>
      </trkpt>
      <trkpt lat="41.742849256843328" lon="-8.860127292573452">
        <ele>54.43359375</ele>
      </trkpt>
      <trkpt lat="41.742861662060022" lon="-8.860125783830881">
        <ele>54.51953125</ele>
      </trkpt>
      <trkpt lat="41.743050841614604" lon="-8.860106924548745">
        <ele>56.640625</ele>
      </trkpt>
      <trkpt lat="41.743104066699743" lon="-8.860105918720365">
        <ele>57.2109375</ele>
      </trkpt>
      <trkpt lat="41.743163159117103" lon="-8.860115641728044">
        <ele>57.59765625</ele>
      </trkpt>
      <trkpt lat="41.743222251534462" lon="-8.860133159905672">
        <ele>57.7890625</ele>
      </trkpt>
      <trkpt lat="41.743276063352823" lon="-8.860154282301664">
        <ele>57.83203125</ele>
      </trkpt>
      <trkpt lat="41.743327863514423" lon="-8.860176326707006">
        <ele>57.8203125</ele>
      </trkpt>
      <trkpt lat="41.743377735838294" lon="-8.860208261758089">
        <ele>57.53515625</ele>
      </trkpt>
      <trkpt lat="41.743422746658325" lon="-8.86024933308363">
        <ele>56.9609375</ele>
      </trkpt>
      <trkpt lat="41.743464320898056" lon="-8.860302055254579">
        <ele>56.046875</ele>
      </trkpt>
      <trkpt lat="41.743496339768171" lon="-8.860367769375443">
        <ele>54.69140625</ele>
      </trkpt>
      <trkpt lat="41.743527604267001" lon="-8.860427783802152">
        <ele>53.453125</ele>
      </trkpt>
      <trkpt lat="41.743565239012241" lon="-8.860485786572099">
        <ele>52.95703125</ele>
      </trkpt>
      <trkpt lat="41.743610585108399" lon="-8.860525516793132">
        <ele>52.82421875</ele>
      </trkpt>
      <trkpt lat="41.743665151298046" lon="-8.86053373105824">
        <ele>53.15625</ele>
      </trkpt>
      <trkpt lat="41.743729021400213" lon="-8.860539263114333">
        <ele>53.58984375</ele>
      </trkpt>
      <trkpt lat="41.743786437436938" lon="-8.860544292256236">
        <ele>54.03515625</ele>
      </trkpt>
      <trkpt lat="41.743838153779507" lon="-8.860564576461911">
        <ele>54.21875</ele>
      </trkpt>
      <trkpt lat="41.743883416056633" lon="-8.860603887587786">
        <ele>54.06640625</ele>
      </trkpt>
      <trkpt lat="41.743934294208884" lon="-8.860646551474929">
        <ele>53.89453125</ele>
      </trkpt>
      <trkpt lat="41.743983495980501" lon="-8.860696004703641">
        <ele>53.58203125</ele>
      </trkpt>
      <trkpt lat="41.744023226201534" lon="-8.860745457932353">
        <ele>53.16796875</ele>
      </trkpt>
      <trkpt lat="41.744070583954453" lon="-8.860813099890947">
        <ele>52.51171875</ele>
      </trkpt>
      <trkpt lat="41.744112996384501" lon="-8.860861295834184">
        <ele>52.0859375</ele>
      </trkpt>
      <trkpt lat="41.744165383279324" lon="-8.860891219228506">
        <ele>51.98828125</ele>
      </trkpt>
      <trkpt lat="41.744216596707702" lon="-8.86092709377408">
        <ele>51.7734375</ele>
      </trkpt>
      <trkpt lat="41.744274431839585" lon="-8.860965315252542">
        <ele>51.5390625</ele>
      </trkpt>
      <trkpt lat="41.744320364668965" lon="-8.861014014109969">
        <ele>51.03125</ele>
      </trkpt>
      <trkpt lat="41.744352718815207" lon="-8.861070591956377">
        <ele>50.28515625</ele>
      </trkpt>
      <trkpt lat="41.744385492056608" lon="-8.861127672716975">
        <ele>49.51171875</ele>
      </trkpt>
      <trkpt lat="41.744429748505354" lon="-8.861190369352698">
        <ele>48.6796875</ele>
      </trkpt>
      <trkpt lat="41.74447157420218" lon="-8.861251221969724">
        <ele>47.8359375</ele>
      </trkpt>
      <trkpt lat="41.744524212554097" lon="-8.861317187547684">
        <ele>47.44921875</ele>
      </trkpt>
      <trkpt lat="41.744562517851591" lon="-8.861380219459534">
        <ele>47.17578125</ele>
      </trkpt>
      <trkpt lat="41.74459713511169" lon="-8.861436881124973">
        <ele>46.84765625</ele>
      </trkpt>
      <trkpt lat="41.744631249457598" lon="-8.861500332131982">
        <ele>46.4609375</ele>
      </trkpt>
      <trkpt lat="41.744661089032888" lon="-8.861564705148339">
        <ele>46.046875</ele>
      </trkpt>
      <trkpt lat="41.744682127609849" lon="-8.861656403169036">
        <ele>45.4140625</ele>
      </trkpt>
      <trkpt lat="41.744694113731384" lon="-8.861744413152337">
        <ele>44.78515625</ele>
      </trkpt>
      <trkpt lat="41.744711296632886" lon="-8.86182370595634">
        <ele>44.2265625</ele>
      </trkpt>
      <trkpt lat="41.7447261326015" lon="-8.861893443390727">
        <ele>43.73046875</ele>
      </trkpt>
      <trkpt lat="41.744747841730714" lon="-8.861965611577034">
        <ele>43.2265625</ele>
      </trkpt>
      <trkpt lat="41.744769969955087" lon="-8.862036438658834">
        <ele>42.7265625</ele>
      </trkpt>
      <trkpt lat="41.744802407920361" lon="-8.862108774483204">
        <ele>42.25390625</ele>
      </trkpt>
      <trkpt lat="41.744836773723364" lon="-8.862165100872517">
        <ele>42.09375</ele>
      </trkpt>
      <trkpt lat="41.744880443438888" lon="-8.862223355099559">
        <ele>41.93359375</ele>
      </trkpt>
      <trkpt lat="41.744937356561422" lon="-8.862278424203396">
        <ele>41.8046875</ele>
      </trkpt>
      <trkpt lat="41.744986055418849" lon="-8.86231429874897">
        <ele>41.734375</ele>
      </trkpt>
      <trkpt lat="41.745038442313671" lon="-8.862349083647132">
        <ele>41.671875</ele>
      </trkpt>
      <trkpt lat="41.745092589408159" lon="-8.862376576289535">
        <ele>41.63671875</ele>
      </trkpt>
      <trkpt lat="41.745146401226521" lon="-8.862391244620085">
        <ele>41.6484375</ele>
      </trkpt>
      <trkpt lat="41.745166601613164" lon="-8.862392753362656">
        <ele>41.66796875</ele>
      </trkpt>
      <trkpt lat="41.745279002934694" lon="-8.862378168851137">
        <ele>41.85546875</ele>
      </trkpt>
      <trkpt lat="41.745318900793791" lon="-8.862323770299554">
        <ele>42.1015625</ele>
      </trkpt>
      <trkpt lat="41.745350584387779" lon="-8.862264174968004">
        <ele>42.3515625</ele>
      </trkpt>
      <trkpt lat="41.7453892249614" lon="-8.862209944054484">
        <ele>42.59375</ele>
      </trkpt>
      <trkpt lat="41.745439432561398" lon="-8.862181194126606">
        <ele>42.703125</ele>
      </trkpt>
      <trkpt lat="41.745494334027171" lon="-8.862176919355989">
        <ele>42.71484375</ele>
      </trkpt>
      <trkpt lat="41.745548062026501" lon="-8.862186642363667">
        <ele>42.671875</ele>
      </trkpt>
      <trkpt lat="41.745602376759052" lon="-8.862199299037457">
        <ele>42.61328125</ele>
      </trkpt>
      <trkpt lat="41.745656859129667" lon="-8.86220776475966">
        <ele>42.57421875</ele>
      </trkpt>
      <trkpt lat="41.745714107528329" lon="-8.86220776475966">
        <ele>42.5625</ele>
      </trkpt>
      <trkpt lat="41.74577328376472" lon="-8.862206088379025">
        <ele>42.5625</ele>
      </trkpt>
      <trkpt lat="41.745830113068223" lon="-8.862194437533617">
        <ele>42.6015625</ele>
      </trkpt>
      <trkpt lat="41.745881494134665" lon="-8.862168034538627">
        <ele>42.7109375</ele>
      </trkpt>
      <trkpt lat="41.745932959020138" lon="-8.862130483612418">
        <ele>42.8671875</ele>
      </trkpt>
      <trkpt lat="41.745975706726313" lon="-8.862084886059165">
        <ele>43.14453125</ele>
      </trkpt>
      <trkpt lat="41.746021807193756" lon="-8.86203627102077">
        <ele>43.59765625</ele>
      </trkpt>
      <trkpt lat="41.74606254324317" lon="-8.861979022622108">
        <ele>44.13671875</ele>
      </trkpt>
      <trkpt lat="41.746096573770046" lon="-8.861916912719607">
        <ele>44.7265625</ele>
      </trkpt>
      <trkpt lat="41.746138064190745" lon="-8.861873494461179">
        <ele>45.1484375</ele>
      </trkpt>
      <trkpt lat="41.746194809675217" lon="-8.86185890994966">
        <ele>45.30859375</ele>
      </trkpt>
      <trkpt lat="41.746248956769705" lon="-8.861853629350662">
        <ele>45.4140625</ele>
      </trkpt>
      <trkpt lat="41.746304612606764" lon="-8.861861089244485">
        <ele>45.4765625</ele>
      </trkpt>
      <trkpt lat="41.746359765529633" lon="-8.861861089244485">
        <ele>45.609375</ele>
      </trkpt>
      <trkpt lat="41.746427323669195" lon="-8.86187307536602">
        <ele>45.65625</ele>
      </trkpt>
      <trkpt lat="41.746482644230127" lon="-8.861894868314266">
        <ele>45.578125</ele>
      </trkpt>
      <trkpt lat="41.74653553403914" lon="-8.861920181661844">
        <ele>45.4609375</ele>
      </trkpt>
      <trkpt lat="41.746588423848152" lon="-8.86195614002645">
        <ele>45.2421875</ele>
      </trkpt>
      <trkpt lat="41.746637709438801" lon="-8.862000145018101">
        <ele>44.94140625</ele>
      </trkpt>
      <trkpt lat="41.746689844876528" lon="-8.862033504992723">
        <ele>44.74609375</ele>
      </trkpt>
      <trkpt lat="41.746738627552986" lon="-8.862064266577363">
        <ele>44.56640625</ele>
      </trkpt>
      <trkpt lat="41.746789086610079" lon="-8.86210223659873">
        <ele>44.33203125</ele>
      </trkpt>
      <trkpt lat="41.746825044974685" lon="-8.862155880779028">
        <ele>44.20703125</ele>
      </trkpt>
      <trkpt lat="41.746852537617087" lon="-8.862231904640794">
        <ele>43.98046875</ele>
      </trkpt>
      <trkpt lat="41.74686829559505" lon="-8.862304911017418">
        <ele>43.734375</ele>
      </trkpt>
      <trkpt lat="41.746867038309574" lon="-8.862383952364326">
        <ele>43.42578125</ele>
      </trkpt>
      <trkpt lat="41.746857399120927" lon="-8.862460982054472">
        <ele>43.09765625</ele>
      </trkpt>
      <trkpt lat="41.746845664456487" lon="-8.862536251544952">
        <ele>42.76953125</ele>
      </trkpt>
      <trkpt lat="41.746827894821763" lon="-8.862611018121243">
        <ele>42.421875</ele>
      </trkpt>
      <trkpt lat="41.746804593130946" lon="-8.862688383087516">
        <ele>42.0390625</ele>
      </trkpt>
      <trkpt lat="41.746789338067174" lon="-8.862762060016394">
        <ele>41.6953125</ele>
      </trkpt>
      <trkpt lat="41.74678179435432" lon="-8.862835401669145">
        <ele>41.375</ele>
      </trkpt>
      <trkpt lat="41.746801994740963" lon="-8.86290698312223">
        <ele>41.16015625</ele>
      </trkpt>
      <trkpt lat="41.746825212612748" lon="-8.86298174969852">
        <ele>40.90625</ele>
      </trkpt>
      <trkpt lat="41.746846921741962" lon="-8.863053750246763">
        <ele>40.640625</ele>
      </trkpt>
      <trkpt lat="41.746877515688539" lon="-8.863114938139915">
        <ele>40.45703125</ele>
      </trkpt>
      <trkpt lat="41.746921688318253" lon="-8.863169085234404">
        <ele>40.35546875</ele>
      </trkpt>
      <trkpt lat="41.746972566470504" lon="-8.863218119367957">
        <ele>40.3046875</ele>
      </trkpt>
      <trkpt lat="41.747016236186028" lon="-8.863261369988322">
        <ele>40.25390625</ele>
      </trkpt>
      <trkpt lat="41.747056385502219" lon="-8.863319121301174">
        <ele>40.12109375</ele>
      </trkpt>
      <trkpt lat="41.747084045782685" lon="-8.863385925069451">
        <ele>39.83984375</ele>
      </trkpt>
      <trkpt lat="41.747110281139612" lon="-8.863449459895492">
        <ele>39.5546875</ele>
      </trkpt>
      <trkpt lat="41.747147748246789" lon="-8.863505786284804">
        <ele>39.3203125</ele>
      </trkpt>
      <trkpt lat="41.747197117656469" lon="-8.863550629466772">
        <ele>39.15234375</ele>
      </trkpt>
      <trkpt lat="41.747247325256467" lon="-8.863587509840727">
        <ele>39.03125</ele>
      </trkpt>
      <trkpt lat="41.747306333854795" lon="-8.863615170121193">
        <ele>38.96484375</ele>
      </trkpt>
      <trkpt lat="41.747357379645109" lon="-8.863638555631042">
        <ele>38.91015625</ele>
      </trkpt>
      <trkpt lat="41.74741119146347" lon="-8.863666215911508">
        <ele>38.84765625</ele>
      </trkpt>
      <trkpt lat="41.747461566701531" lon="-8.86369857005775">
        <ele>38.76171875</ele>
      </trkpt>
      <trkpt lat="41.747510768473148" lon="-8.86372690089047">
        <ele>38.69921875</ele>
      </trkpt>
      <trkpt lat="41.747561059892178" lon="-8.863754561170936">
        <ele>38.64453125</ele>
      </trkpt>
      <trkpt lat="41.747614033520222" lon="-8.863738551735878">
        <ele>38.76953125</ele>
      </trkpt>
      <trkpt lat="41.747658206149936" lon="-8.863698402419686">
        <ele>38.98046875</ele>
      </trkpt>
      <trkpt lat="41.747702127322555" lon="-8.863649619743228">
        <ele>39.21875</ele>
      </trkpt>
      <trkpt lat="41.747745713219047" lon="-8.86361550539732">
        <ele>39.39453125</ele>
      </trkpt>
      <trkpt lat="41.747798938304186" lon="-8.863618858158588">
        <ele>39.43359375</ele>
      </trkpt>
      <trkpt lat="41.747851241379976" lon="-8.863651379942894">
        <ele>39.3671875</ele>
      </trkpt>
      <trkpt lat="41.747896419838071" lon="-8.863701587542892">
        <ele>39.23046875</ele>
      </trkpt>
      <trkpt lat="41.74792324192822" lon="-8.863765122368932">
        <ele>38.97265625</ele>
      </trkpt>
      <trkpt lat="41.747932629659772" lon="-8.863842906430364">
        <ele>38.5078125</ele>
      </trkpt>
      <trkpt lat="41.747935228049755" lon="-8.863929240033031">
        <ele>38</ele>
      </trkpt>
      <trkpt lat="41.747935228049755" lon="-8.86400836519897">
        <ele>37.5390625</ele>
      </trkpt>
      <trkpt lat="41.747932881116867" lon="-8.864081706851721">
        <ele>37.109375</ele>
      </trkpt>
      <trkpt lat="41.747925337404013" lon="-8.864155216142535">
        <ele>36.67578125</ele>
      </trkpt>
      <trkpt lat="41.747911758720875" lon="-8.864241633564234">
        <ele>36.15625</ele>
      </trkpt>
      <trkpt lat="41.747903460636735" lon="-8.864315561950207">
        <ele>35.70703125</ele>
      </trkpt>
      <trkpt lat="41.747893067076802" lon="-8.864390999078751">
        <ele>35.2421875</ele>
      </trkpt>
      <trkpt lat="41.747889881953597" lon="-8.86446526274085">
        <ele>34.79296875</ele>
      </trkpt>
      <trkpt lat="41.747892145067453" lon="-8.864545561373234">
        <ele>34.31640625</ele>
      </trkpt>
      <trkpt lat="41.747896168380976" lon="-8.864617897197604">
        <ele>33.90625</ele>
      </trkpt>
      <trkpt lat="41.747905472293496" lon="-8.864692077040672">
        <ele>33.57421875</ele>
      </trkpt>
      <trkpt lat="41.747921817004681" lon="-8.864759132266045">
        <ele>33.30078125</ele>
      </trkpt>
      <trkpt lat="41.747967749834061" lon="-8.864800287410617">
        <ele>33.24609375</ele>
      </trkpt>
      <trkpt lat="41.748018711805344" lon="-8.864809339866042">
        <ele>33.35546875</ele>
      </trkpt>
      <trkpt lat="41.748533863574266" lon="-8.864839263260365">
        <ele>34.81640625</ele>
      </trkpt>
      <trkpt lat="41.74853646196425" lon="-8.864839263260365">
        <ele>34.82421875</ele>
      </trkpt>
      <trkpt lat="41.748797222971916" lon="-8.864900702610612">
        <ele>35.66015625</ele>
      </trkpt>
      <trkpt lat="41.748858243227005" lon="-8.864919394254684">
        <ele>35.96875</ele>
      </trkpt>
      <trkpt lat="41.748920436948538" lon="-8.864937666803598">
        <ele>36.2890625</ele>
      </trkpt>
      <trkpt lat="41.748976595699787" lon="-8.864955268800259">
        <ele>36.5859375</ele>
      </trkpt>
      <trkpt lat="41.749029736965895" lon="-8.864976391196251">
        <ele>36.86328125</ele>
      </trkpt>
      <trkpt lat="41.749085979536176" lon="-8.864997681230307">
        <ele>37.1640625</ele>
      </trkpt>
      <trkpt lat="41.749139036983252" lon="-8.865017965435982">
        <ele>37.45703125</ele>
      </trkpt>
      <trkpt lat="41.749191004782915" lon="-8.865043949335814">
        <ele>37.73828125</ele>
      </trkpt>
      <trkpt lat="41.749246325343847" lon="-8.865076052024961">
        <ele>38.046875</ele>
      </trkpt>
      <trkpt lat="41.749296532943845" lon="-8.865113938227296">
        <ele>38.328125</ele>
      </trkpt>
      <trkpt lat="41.749343639239669" lon="-8.865155763924122">
        <ele>38.59765625</ele>
      </trkpt>
      <trkpt lat="41.749395104125142" lon="-8.865181244909763">
        <ele>38.91796875</ele>
      </trkpt>
      <trkpt lat="41.749449921771884" lon="-8.865200439468026">
        <ele>39.265625</ele>
      </trkpt>
      <trkpt lat="41.749493591487408" lon="-8.865167582407594">
        <ele>39.55859375</ele>
      </trkpt>
      <trkpt lat="41.749516054987907" lon="-8.86509214527905">
        <ele>39.7109375</ele>
      </trkpt>
      <trkpt lat="41.749531393870711" lon="-8.86502274312079">
        <ele>39.8125</ele>
      </trkpt>
      <trkpt lat="41.749539272859693" lon="-8.864936996251345">
        <ele>39.8671875</ele>
      </trkpt>
      <trkpt lat="41.749547654762864" lon="-8.864854099228978">
        <ele>39.91796875</ele>
      </trkpt>
      <trkpt lat="41.749553019180894" lon="-8.864779248833656">
        <ele>39.94921875</ele>
      </trkpt>
      <trkpt lat="41.749562239274383" lon="-8.864703392609954">
        <ele>40</ele>
      </trkpt>
      <trkpt lat="41.749574895948172" lon="-8.864629799500108">
        <ele>40.0625</ele>
      </trkpt>
      <trkpt lat="41.749593168497086" lon="-8.864559475332499">
        <ele>40.14453125</ele>
      </trkpt>
      <trkpt lat="41.74961437471211" lon="-8.86448529548943">
        <ele>40.2421875</ele>
      </trkpt>
      <trkpt lat="41.749633150175214" lon="-8.864412540569901">
        <ele>40.3203125</ele>
      </trkpt>
      <trkpt lat="41.749653434380889" lon="-8.864341210573912">
        <ele>40.40234375</ele>
      </trkpt>
      <trkpt lat="41.749670365825295" lon="-8.864266276359558">
        <ele>40.46875</ele>
      </trkpt>
      <trkpt lat="41.749691739678383" lon="-8.864194946363568">
        <ele>40.546875</ele>
      </trkpt>
      <trkpt lat="41.749713448807597" lon="-8.864128980785608">
        <ele>40.625</ele>
      </trkpt>
      <trkpt lat="41.749738426879048" lon="-8.86405086144805">
        <ele>40.70703125</ele>
      </trkpt>
      <trkpt lat="41.7497634049505" lon="-8.863996881991625">
        <ele>40.79296875</ele>
      </trkpt>
      <trkpt lat="41.749895168468356" lon="-8.863863609731197">
        <ele>41.24609375</ele>
      </trkpt>
      <trkpt lat="41.749944956973195" lon="-8.863826813176274">
        <ele>41.41015625</ele>
      </trkpt>
      <trkpt lat="41.749999690800905" lon="-8.863792531192303">
        <ele>41.59375</ele>
      </trkpt>
      <trkpt lat="41.750056687742472" lon="-8.863765373826027">
        <ele>41.78125</ele>
      </trkpt>
      <trkpt lat="41.750110080465674" lon="-8.86375330388546">
        <ele>41.98828125</ele>
      </trkpt>
      <trkpt lat="41.750165233388543" lon="-8.863749951124191">
        <ele>42.19140625</ele>
      </trkpt>
      <trkpt lat="41.750224325805902" lon="-8.863763278350234">
        <ele>42.38671875</ele>
      </trkpt>
      <trkpt lat="41.750289537012577" lon="-8.863790100440383">
        <ele>42.64453125</ele>
      </trkpt>
      <trkpt lat="41.750346953049302" lon="-8.863803679123521">
        <ele>42.8671875</ele>
      </trkpt>
      <trkpt lat="41.750402776524425" lon="-8.863813318312168">
        <ele>43.07421875</ele>
      </trkpt>
      <trkpt lat="41.750461785122752" lon="-8.863820526748896">
        <ele>43.23046875</ele>
      </trkpt>
      <trkpt lat="41.750516016036272" lon="-8.863824550062418">
        <ele>43.37109375</ele>
      </trkpt>
      <trkpt lat="41.750570498406887" lon="-8.863822622224689">
        <ele>43.50390625</ele>
      </trkpt>
      <trkpt lat="41.750628082081676" lon="-8.863822622224689">
        <ele>43.64453125</ele>
      </trkpt>
      <trkpt lat="41.750688767060637" lon="-8.863822622224689">
        <ele>43.796875</ele>
      </trkpt>
      <trkpt lat="41.750749116763473" lon="-8.86382270604372">
        <ele>43.9453125</ele>
      </trkpt>
      <trkpt lat="41.750809969380498" lon="-8.86382270604372">
        <ele>44.09765625</ele>
      </trkpt>
      <trkpt lat="41.75086872652173" lon="-8.863824717700481">
        <ele>44.24609375</ele>
      </trkpt>
      <trkpt lat="41.750929243862629" lon="-8.863830333575606">
        <ele>44.41015625</ele>
      </trkpt>
      <trkpt lat="41.750987749546766" lon="-8.863833770155907">
        <ele>44.5625</ele>
      </trkpt>
      <trkpt lat="41.751044914126396" lon="-8.863835530355573">
        <ele>44.70703125</ele>
      </trkpt>
      <trkpt lat="41.75109495408833" lon="-8.863846678286791">
        <ele>44.859375</ele>
      </trkpt>
      <trkpt lat="41.751765506342053" lon="-8.863912057131529">
        <ele>46.52734375</ele>
      </trkpt>
      <trkpt lat="41.752054514363408" lon="-8.863897891715169">
        <ele>47.14453125</ele>
      </trkpt>
      <trkpt lat="41.752111511304975" lon="-8.863899232819676">
        <ele>47.203125</ele>
      </trkpt>
      <trkpt lat="41.752174124121666" lon="-8.863890767097473">
        <ele>47.24609375</ele>
      </trkpt>
      <trkpt lat="41.752229193225503" lon="-8.863886827602983">
        <ele>47.2890625</ele>
      </trkpt>
      <trkpt lat="41.752282837405801" lon="-8.863869560882449">
        <ele>47.32421875</ele>
      </trkpt>
      <trkpt lat="41.752329524606466" lon="-8.863837122917175">
        <ele>47.3515625</ele>
      </trkpt>
      <trkpt lat="41.752357436344028" lon="-8.863773588091135">
        <ele>47.359375</ele>
      </trkpt>
      <trkpt lat="41.752370595932007" lon="-8.863692451268435">
        <ele>47.63671875</ele>
      </trkpt>
      <trkpt lat="41.752374786883593" lon="-8.863615170121193">
        <ele>47.921875</ele>
      </trkpt>
      <trkpt lat="41.752370679751039" lon="-8.863537972792983">
        <ele>48.1953125</ele>
      </trkpt>
      <trkpt lat="41.752359950914979" lon="-8.863447196781635">
        <ele>48.5078125</ele>
      </trkpt>
      <trkpt lat="41.752348467707634" lon="-8.863361533731222">
        <ele>48.80078125</ele>
      </trkpt>
      <trkpt lat="41.752336984500289" lon="-8.863285174593329">
        <ele>49.0625</ele>
      </trkpt>
      <trkpt lat="41.752320555970073" lon="-8.863205462694168">
        <ele>49.33203125</ele>
      </trkpt>
      <trkpt lat="41.752306055277586" lon="-8.863129606470466">
        <ele>49.5859375</ele>
      </trkpt>
      <trkpt lat="41.752293901517987" lon="-8.86305944994092">
        <ele>49.82421875</ele>
      </trkpt>
      <trkpt lat="41.752277389168739" lon="-8.862986359745264">
        <ele>50.0703125</ele>
      </trkpt>
      <trkpt lat="41.752262888476253" lon="-8.862911006435752">
        <ele>50.4296875</ele>
      </trkpt>
      <trkpt lat="41.752252075821161" lon="-8.862827438861132">
        <ele>51.1171875</ele>
      </trkpt>
      <trkpt lat="41.752243777737021" lon="-8.8627496547997">
        <ele>51.76171875</ele>
      </trkpt>
      <trkpt lat="41.752240005880594" lon="-8.862677486613393">
        <ele>52.36328125</ele>
      </trkpt>
      <trkpt lat="41.752242185175419" lon="-8.862593835219741">
        <ele>53.0703125</ele>
      </trkpt>
      <trkpt lat="41.752255009487271" lon="-8.862521750852466">
        <ele>53.69140625</ele>
      </trkpt>
      <trkpt lat="41.752279484644532" lon="-8.862456372007728">
        <ele>54.26953125</ele>
      </trkpt>
      <trkpt lat="41.752323405817151" lon="-8.862419910728931">
        <ele>54.62890625</ele>
      </trkpt>
      <trkpt lat="41.75237026065588" lon="-8.862380180507898">
        <ele>55.01953125</ele>
      </trkpt>
      <trkpt lat="41.752372859045863" lon="-8.862378923222423">
        <ele>55.03515625</ele>
      </trkpt>
      <trkpt lat="41.752494480460882" lon="-8.862267443910241">
        <ele>56.1171875</ele>
      </trkpt>
      <trkpt lat="41.752543849870563" lon="-8.862231653183699">
        <ele>56.4765625</ele>
      </trkpt>
      <trkpt lat="41.752586262300611" lon="-8.862187564373016">
        <ele>56.8984375</ele>
      </trkpt>
      <trkpt lat="41.752626243978739" lon="-8.862134590744972">
        <ele>57.390625</ele>
      </trkpt>
      <trkpt lat="41.752667147666216" lon="-8.862080192193389">
        <ele>57.94140625</ele>
      </trkpt>
      <trkpt lat="41.752710230648518" lon="-8.862015483900905">
        <ele>58.67578125</ele>
      </trkpt>
      <trkpt lat="41.752749541774392" lon="-8.861966701224446">
        <ele>59.2421875</ele>
      </trkpt>
      <trkpt lat="41.752787427976727" lon="-8.861911715939641">
        <ele>59.8828125</ele>
      </trkpt>
      <trkpt lat="41.75282958894968" lon="-8.861859999597073">
        <ele>60.5</ele>
      </trkpt>
      <trkpt lat="41.752874851226807" lon="-8.861822113394737">
        <ele>60.9765625</ele>
      </trkpt>
      <trkpt lat="41.752927824854851" lon="-8.861802751198411">
        <ele>61.21484375</ele>
      </trkpt>
      <trkpt lat="41.752980127930641" lon="-8.861773917451501">
        <ele>61.5078125</ele>
      </trkpt>
      <trkpt lat="41.753036705777049" lon="-8.861753046512604">
        <ele>61.7109375</ele>
      </trkpt>
      <trkpt lat="41.753090685233474" lon="-8.861734019592404">
        <ele>61.8828125</ele>
      </trkpt>
      <trkpt lat="41.753136701881886" lon="-8.861719435080886">
        <ele>62.0078125</ele>
      </trkpt>
      <trkpt lat="41.753412634134293" lon="-8.861617930233479">
        <ele>62.75390625</ele>
      </trkpt>
      <trkpt lat="41.753465188667178" lon="-8.861614242196083">
        <ele>62.73828125</ele>
      </trkpt>
      <trkpt lat="41.753522772341967" lon="-8.861600495874882">
        <ele>62.796875</ele>
      </trkpt>
      <trkpt lat="41.753577589988708" lon="-8.861585408449173">
        <ele>62.86328125</ele>
      </trkpt>
      <trkpt lat="41.753635508939624" lon="-8.861572919413447">
        <ele>62.8984375</ele>
      </trkpt>
      <trkpt lat="41.753690913319588" lon="-8.861564872786403">
        <ele>62.8984375</ele>
      </trkpt>
      <trkpt lat="41.753748832270503" lon="-8.861563364043832">
        <ele>62.81640625</ele>
      </trkpt>
      <trkpt lat="41.753860814496875" lon="-8.861560262739658">
        <ele>62.5703125</ele>
      </trkpt>
      <trkpt lat="41.753915129229426" lon="-8.861554060131311">
        <ele>62.484375</ele>
      </trkpt>
      <trkpt lat="41.753969108685851" lon="-8.861535452306271">
        <ele>62.48828125</ele>
      </trkpt>
      <trkpt lat="41.754015376791358" lon="-8.86149781756103">
        <ele>62.6484375</ele>
      </trkpt>
      <trkpt lat="41.754058375954628" lon="-8.861446687951684">
        <ele>62.9140625</ele>
      </trkpt>
      <trkpt lat="41.754076983779669" lon="-8.861425565555692">
        <ele>63.01953125</ele>
      </trkpt>
      <trkpt lat="41.754210339859128" lon="-8.861278044059873">
        <ele>63.76171875</ele>
      </trkpt>
      <trkpt lat="41.754262894392014" lon="-8.861246276646852">
        <ele>63.890625</ele>
      </trkpt>
      <trkpt lat="41.754317041486502" lon="-8.861225573346019">
        <ele>63.93359375</ele>
      </trkpt>
      <trkpt lat="41.754370266571641" lon="-8.861211491748691">
        <ele>63.92578125</ele>
      </trkpt>
      <trkpt lat="41.754426509141922" lon="-8.861211659386754">
        <ele>63.7890625</ele>
      </trkpt>
      <trkpt lat="41.754479315131903" lon="-8.861237224191427">
        <ele>63.4453125</ele>
      </trkpt>
      <trkpt lat="41.754525080323219" lon="-8.861283492296934">
        <ele>62.96875</ele>
      </trkpt>
      <trkpt lat="41.754568414762616" lon="-8.861327581107616">
        <ele>62.54296875</ele>
      </trkpt>
      <trkpt lat="41.754618370905519" lon="-8.861356917768717">
        <ele>62.19921875</ele>
      </trkpt>
      <trkpt lat="41.754674110561609" lon="-8.861377704888582">
        <ele>61.89453125</ele>
      </trkpt>
      <trkpt lat="41.754730939865112" lon="-8.861384410411119">
        <ele>61.6875</ele>
      </trkpt>
      <trkpt lat="41.754785506054759" lon="-8.861384410411119">
        <ele>61.5390625</ele>
      </trkpt>
      <trkpt lat="41.75484174862504" lon="-8.86138298548758">
        <ele>61.39453125</ele>
      </trkpt>
      <trkpt lat="41.754896063357592" lon="-8.861372172832489">
        <ele>61.3359375</ele>
      </trkpt>
      <trkpt lat="41.754950964823365" lon="-8.861351385712624">
        <ele>61.359375</ele>
      </trkpt>
      <trkpt lat="41.754984240978956" lon="-8.861332442611456">
        <ele>61.43359375</ele>
      </trkpt>
      <trkpt lat="41.755238547921181" lon="-8.861120967194438">
        <ele>62.6015625</ele>
      </trkpt>
      <trkpt lat="41.755295880138874" lon="-8.86109615676105">
        <ele>62.671875</ele>
      </trkpt>
      <trkpt lat="41.75534994341433" lon="-8.861065730452538">
        <ele>62.796875</ele>
      </trkpt>
      <trkpt lat="41.755406437441707" lon="-8.861041590571404">
        <ele>62.87109375</ele>
      </trkpt>
      <trkpt lat="41.755459159612656" lon="-8.861020551994443">
        <ele>62.9375</ele>
      </trkpt>
      <trkpt lat="41.755515737459064" lon="-8.861005716025829">
        <ele>62.94921875</ele>
      </trkpt>
      <trkpt lat="41.755572315305471" lon="-8.860991382971406">
        <ele>62.9609375</ele>
      </trkpt>
      <trkpt lat="41.75562646239996" lon="-8.86097738519311">
        <ele>62.97265625</ele>
      </trkpt>
      <trkpt lat="41.755681950598955" lon="-8.860965650528669">
        <ele>62.96875</ele>
      </trkpt>
      <trkpt lat="41.755740959197283" lon="-8.860949892550707">
        <ele>62.9921875</ele>
      </trkpt>
      <trkpt lat="41.755800219252706" lon="-8.860928937792778">
        <ele>63.06640625</ele>
      </trkpt>
      <trkpt lat="41.755850091576576" lon="-8.860899936407804">
        <ele>63.234375</ele>
      </trkpt>
      <trkpt lat="41.755898455157876" lon="-8.860867079347372">
        <ele>63.44140625</ele>
      </trkpt>
      <trkpt lat="41.755947573110461" lon="-8.860821649432182">
        <ele>63.76953125</ele>
      </trkpt>
      <trkpt lat="41.755994092673063" lon="-8.860781583935022">
        <ele>64.0625</ele>
      </trkpt>
      <trkpt lat="41.756042204797268" lon="-8.860751995816827">
        <ele>64.25390625</ele>
      </trkpt>
      <trkpt lat="41.756092831492424" lon="-8.860722240060568">
        <ele>64.453125</ele>
      </trkpt>
      <trkpt lat="41.756144799292088" lon="-8.860692651942372">
        <ele>64.6484375</ele>
      </trkpt>
      <trkpt lat="41.756202885881066" lon="-8.860672367736697">
        <ele>64.75</ele>
      </trkpt>
      <trkpt lat="41.756256530061364" lon="-8.860658034682274">
        <ele>64.9296875</ele>
      </trkpt>
      <trkpt lat="41.756311766803265" lon="-8.860662980005145">
        <ele>65.015625</ele>
      </trkpt>
      <trkpt lat="41.756335906684399" lon="-8.860671361908317">
        <ele>64.9921875</ele>
      </trkpt>
      <trkpt lat="41.756635224446654" lon="-8.860794743523002">
        <ele>64.52734375</ele>
      </trkpt>
      <trkpt lat="41.756949629634619" lon="-8.860973110422492">
        <ele>63.5703125</ele>
      </trkpt>
      <trkpt lat="41.757139144465327" lon="-8.861073357984424">
        <ele>63.34765625</ele>
      </trkpt>
      <trkpt lat="41.757185161113739" lon="-8.861123230308294">
        <ele>63.10546875</ele>
      </trkpt>
      <trkpt lat="41.757235620170832" lon="-8.861149633303285">
        <ele>63.109375</ele>
      </trkpt>
      <trkpt lat="41.757291192188859" lon="-8.861160865053535">
        <ele>63.2890625</ele>
      </trkpt>
      <trkpt lat="41.757345339283347" lon="-8.861160865053535">
        <ele>63.58203125</ele>
      </trkpt>
      <trkpt lat="41.757399905472994" lon="-8.861164133995771">
        <ele>63.83984375</ele>
      </trkpt>
      <trkpt lat="41.757458159700036" lon="-8.861164133995771">
        <ele>64.15625</ele>
      </trkpt>
      <trkpt lat="41.757521610707045" lon="-8.861174108460546">
        <ele>64.375</ele>
      </trkpt>
      <trkpt lat="41.757574835792184" lon="-8.861203948035836">
        <ele>64.28515625</ele>
      </trkpt>
      <trkpt lat="41.757618170231581" lon="-8.861247701570392">
        <ele>63.9453125</ele>
      </trkpt>
      <trkpt lat="41.757671143859625" lon="-8.861264465376735">
        <ele>63.98828125</ele>
      </trkpt>
      <trkpt lat="41.757727386429906" lon="-8.8612627889961">
        <ele>64.28125</ele>
      </trkpt>
      <trkpt lat="41.757782958447933" lon="-8.861251389607787">
        <ele>64.70703125</ele>
      </trkpt>
      <trkpt lat="41.757840793579817" lon="-8.861241834238172">
        <ele>65.125</ele>
      </trkpt>
      <trkpt lat="41.757895611226559" lon="-8.861235715448856">
        <ele>65.4765625</ele>
      </trkpt>
      <trkpt lat="41.757948249578476" lon="-8.861253568902612">
        <ele>65.4140625</ele>
      </trkpt>
      <trkpt lat="41.757997702807188" lon="-8.861276116222143">
        <ele>65.27734375</ele>
      </trkpt>
      <trkpt lat="41.758042294532061" lon="-8.861317774280906">
        <ele>64.91015625</ele>
      </trkpt>
      <trkpt lat="41.758091412484646" lon="-8.861355409026146">
        <ele>64.59375</ele>
      </trkpt>
      <trkpt lat="41.75813508220017" lon="-8.861396815627813">
        <ele>64.19140625</ele>
      </trkpt>
      <trkpt lat="41.758171962574124" lon="-8.861452220007777">
        <ele>63.5703125</ele>
      </trkpt>
      <trkpt lat="41.758203143253922" lon="-8.861516006290913">
        <ele>62.80859375</ele>
      </trkpt>
      <trkpt lat="41.758233988657594" lon="-8.861588928848505">
        <ele>61.90234375</ele>
      </trkpt>
      <trkpt lat="41.75825972110033" lon="-8.861664114519954">
        <ele>60.93359375</ele>
      </trkpt>
      <trkpt lat="41.758282938972116" lon="-8.861731085926294">
        <ele>60.0625</ele>
      </trkpt>
      <trkpt lat="41.758312862366438" lon="-8.86179780587554">
        <ele>59.1875</ele>
      </trkpt>
      <trkpt lat="41.758355610072613" lon="-8.861857652664185">
        <ele>58.40234375</ele>
      </trkpt>
      <trkpt lat="41.75840238109231" lon="-8.861896879971027">
        <ele>57.89453125</ele>
      </trkpt>
      <trkpt lat="41.758435824885964" lon="-8.861920852214098">
        <ele>57.578125</ele>
      </trkpt>
      <trkpt lat="41.758555686101317" lon="-8.861971311271191">
        <ele>56.921875</ele>
      </trkpt>
      <trkpt lat="41.758614694699645" lon="-8.861976759508252">
        <ele>56.87109375</ele>
      </trkpt>
      <trkpt lat="41.758674792945385" lon="-8.861987153068185">
        <ele>56.7421875</ele>
      </trkpt>
      <trkpt lat="41.758728940039873" lon="-8.86199033819139">
        <ele>56.72265625</ele>
      </trkpt>
      <trkpt lat="41.758788451552391" lon="-8.861995618790388">
        <ele>56.6953125</ele>
      </trkpt>
      <trkpt lat="41.758845616132021" lon="-8.862000564113259">
        <ele>56.66796875</ele>
      </trkpt>
      <trkpt lat="41.758901691064239" lon="-8.861994529142976">
        <ele>56.8125</ele>
      </trkpt>
      <trkpt lat="41.758956424891949" lon="-8.861963180825114">
        <ele>57.328125</ele>
      </trkpt>
      <trkpt lat="41.758999256417155" lon="-8.861915487796068">
        <ele>58.0703125</ele>
      </trkpt>
      <trkpt lat="41.759019624441862" lon="-8.861837787553668">
        <ele>59.23046875</ele>
      </trkpt>
      <trkpt lat="41.759038986638188" lon="-8.861764948815107">
        <ele>60.30859375</ele>
      </trkpt>
      <trkpt lat="41.759078046306968" lon="-8.861716249957681">
        <ele>61.02734375</ele>
      </trkpt>
      <trkpt lat="41.759135881438851" lon="-8.861698899418116">
        <ele>61.28515625</ele>
      </trkpt>
      <trkpt lat="41.759189693257213" lon="-8.861686578020453">
        <ele>61.4609375</ele>
      </trkpt>
      <trkpt lat="41.759231016039848" lon="-8.861673586070538">
        <ele>61.6484375</ele>
      </trkpt>
      <trkpt lat="41.759317936375737" lon="-8.861614326015115">
        <ele>62.46875</ele>
      </trkpt>
      <trkpt lat="41.759379291906953" lon="-8.861609045416117">
        <ele>62.52734375</ele>
      </trkpt>
      <trkpt lat="41.759433522820473" lon="-8.86160284280777">
        <ele>62.6015625</ele>
      </trkpt>
      <trkpt lat="41.759487586095929" lon="-8.861596221104264">
        <ele>62.67578125</ele>
      </trkpt>
      <trkpt lat="41.759545588865876" lon="-8.861588006839156">
        <ele>62.76953125</ele>
      </trkpt>
      <trkpt lat="41.759600657969713" lon="-8.861573673784733">
        <ele>62.875</ele>
      </trkpt>
      <trkpt lat="41.759652206674218" lon="-8.861544253304601">
        <ele>63.15234375</ele>
      </trkpt>
      <trkpt lat="41.759690679609776" lon="-8.861494967713952">
        <ele>63.6875</ele>
      </trkpt>
      <trkpt lat="41.759724458679557" lon="-8.86143134906888">
        <ele>64.390625</ele>
      </trkpt>
      <trkpt lat="41.759761841967702" lon="-8.861369322985411">
        <ele>65.03515625</ele>
      </trkpt>
      <trkpt lat="41.75979888997972" lon="-8.861312326043844">
        <ele>65.59765625</ele>
      </trkpt>
      <trkpt lat="41.75983845256269" lon="-8.861261531710625">
        <ele>66.0859375</ele>
      </trkpt>
      <trkpt lat="41.759879859164357" lon="-8.861215263605118">
        <ele>66.703125</ele>
      </trkpt>
      <trkpt lat="41.759925372898579" lon="-8.861174527555704">
        <ele>67.19921875</ele>
      </trkpt>
      <trkpt lat="41.759978597983718" lon="-8.861154997721314">
        <ele>67.30078125</ele>
      </trkpt>
      <trkpt lat="41.760034253820777" lon="-8.861142424866557">
        <ele>67.2734375</ele>
      </trkpt>
      <trkpt lat="41.760052191093564" lon="-8.8611367251724">
        <ele>67.2890625</ele>
      </trkpt>
      <trkpt lat="41.760221924632788" lon="-8.861048044636846">
        <ele>67.921875</ele>
      </trkpt>
      <trkpt lat="41.76026064902544" lon="-8.861000267788768">
        <ele>68.4609375</ele>
      </trkpt>
      <trkpt lat="41.760304821655154" lon="-8.860951485112309">
        <ele>68.97265625</ele>
      </trkpt>
      <trkpt lat="41.760351089760661" lon="-8.860904043540359">
        <ele>69.43359375</ele>
      </trkpt>
      <trkpt lat="41.760390065610409" lon="-8.86085132136941">
        <ele>69.99609375</ele>
      </trkpt>
      <trkpt lat="41.760425437241793" lon="-8.860796252265573">
        <ele>70.69921875</ele>
      </trkpt>
      <trkpt lat="41.760459551587701" lon="-8.860733471810818">
        <ele>71.50390625</ele>
      </trkpt>
      <trkpt lat="41.760492324829102" lon="-8.860674630850554">
        <ele>72.2421875</ele>
      </trkpt>
      <trkpt lat="41.760529959574342" lon="-8.860620483756065">
        <ele>72.890625</ele>
      </trkpt>
      <trkpt lat="41.76055870950222" lon="-8.860555440187454">
        <ele>73.70703125</ele>
      </trkpt>
      <trkpt lat="41.760595757514238" lon="-8.860498946160078">
        <ele>74.3671875</ele>
      </trkpt>
      <trkpt lat="41.76062811166048" lon="-8.860440189018846">
        <ele>75.0625</ele>
      </trkpt>
      <trkpt lat="41.760666836053133" lon="-8.860387969762087">
        <ele>75.8984375</ele>
      </trkpt>
      <trkpt lat="41.760705392807722" lon="-8.860336923971772">
        <ele>76.72265625</ele>
      </trkpt>
      <trkpt lat="41.760756270959973" lon="-8.860304737463593">
        <ele>77.125</ele>
      </trkpt>
      <trkpt lat="41.760813938453794" lon="-8.860280513763428">
        <ele>77.3359375</ele>
      </trkpt>
      <trkpt lat="41.760868085548282" lon="-8.86026450432837">
        <ele>77.3984375</ele>
      </trkpt>
      <trkpt lat="41.760921897366643" lon="-8.860250087454915">
        <ele>77.42578125</ele>
      </trkpt>
      <trkpt lat="41.760976128280163" lon="-8.860237263143063">
        <ele>77.4140625</ele>
      </trkpt>
      <trkpt lat="41.761033879593015" lon="-8.860226785764098">
        <ele>77.34375</ele>
      </trkpt>
      <trkpt lat="41.761089619249105" lon="-8.860224857926369">
        <ele>77.125</ele>
      </trkpt>
      <trkpt lat="41.761146951466799" lon="-8.860221253708005">
        <ele>76.9296875</ele>
      </trkpt>
      <trkpt lat="41.761200930923223" lon="-8.860215973109007">
        <ele>76.7734375</ele>
      </trkpt>
      <trkpt lat="41.76127259619534" lon="-8.860210524871945">
        <ele>76.51953125</ele>
      </trkpt>
      <trkpt lat="41.761332945898175" lon="-8.860205076634884">
        <ele>76.3125</ele>
      </trkpt>
      <trkpt lat="41.761396564543247" lon="-8.860199544578791">
        <ele>76.0859375</ele>
      </trkpt>
      <trkpt lat="41.761450711637735" lon="-8.860197784379125">
        <ele>75.84765625</ele>
      </trkpt>
      <trkpt lat="41.761510390788317" lon="-8.860192839056253">
        <ele>75.625</ele>
      </trkpt>
      <trkpt lat="41.76156529225409" lon="-8.860191246494651">
        <ele>75.375</ele>
      </trkpt>
      <trkpt lat="41.761620864272118" lon="-8.860186384990811">
        <ele>75.16796875</ele>
      </trkpt>
      <trkpt lat="41.761676268652081" lon="-8.860179679468274">
        <ele>74.984375</ele>
      </trkpt>
      <trkpt lat="41.761731924489141" lon="-8.860165681689978">
        <ele>74.89453125</ele>
      </trkpt>
      <trkpt lat="41.761790011078119" lon="-8.860147576779127">
        <ele>74.83984375</ele>
      </trkpt>
      <trkpt lat="41.761843822896481" lon="-8.860122933983803">
        <ele>74.8828125</ele>
      </trkpt>
      <trkpt lat="41.761901658028364" lon="-8.860097955912352">
        <ele>74.890625</ele>
      </trkpt>
      <trkpt lat="41.761953542008996" lon="-8.860074067488313">
        <ele>74.90625</ele>
      </trkpt>
      <trkpt lat="41.762006599456072" lon="-8.860058644786477">
        <ele>74.79296875</ele>
      </trkpt>
      <trkpt lat="41.762062758207321" lon="-8.86003777384758">
        <ele>74.734375</ele>
      </trkpt>
      <trkpt lat="41.762123191729188" lon="-8.860019585117698">
        <ele>74.69921875</ele>
      </trkpt>
      <trkpt lat="41.762182451784611" lon="-8.860000390559435">
        <ele>74.66015625</ele>
      </trkpt>
      <trkpt lat="41.762242130935192" lon="-8.859983375295997">
        <ele>74.5859375</ele>
      </trkpt>
      <trkpt lat="41.762297283858061" lon="-8.859970802441239">
        <ele>74.46875</ele>
      </trkpt>
      <trkpt lat="41.762359645217657" lon="-8.859953703358769">
        <ele>74.3515625</ele>
      </trkpt>
      <trkpt lat="41.762413792312145" lon="-8.859939454123378">
        <ele>74.234375</ele>
      </trkpt>
      <trkpt lat="41.762472214177251" lon="-8.859922355040908">
        <ele>74.109375</ele>
      </trkpt>
      <trkpt lat="41.76253130659461" lon="-8.859911961480975">
        <ele>73.91015625</ele>
      </trkpt>
      <trkpt lat="41.762586878612638" lon="-8.859897963702679">
        <ele>73.74609375</ele>
      </trkpt>
      <trkpt lat="41.762642282992601" lon="-8.859887234866619">
        <ele>73.55078125</ele>
      </trkpt>
      <trkpt lat="41.762698022648692" lon="-8.859875332564116">
        <ele>73.3515625</ele>
      </trkpt>
      <trkpt lat="41.762752421200275" lon="-8.859869465231895">
        <ele>73.10546875</ele>
      </trkpt>
      <trkpt lat="41.762801706790924" lon="-8.859858233481646">
        <ele>72.921875</ele>
      </trkpt>
      <trkpt lat="41.763082249090075" lon="-8.85994297452271">
        <ele>72.08984375</ele>
      </trkpt>
      <trkpt lat="41.763139748945832" lon="-8.859956217929721">
        <ele>72.046875</ele>
      </trkpt>
      <trkpt lat="41.763208732008934" lon="-8.859973317012191">
        <ele>71.984375</ele>
      </trkpt>
      <trkpt lat="41.763262962922454" lon="-8.859987817704678">
        <ele>71.92578125</ele>
      </trkpt>
      <trkpt lat="41.76331702619791" lon="-8.860002988949418">
        <ele>71.859375</ele>
      </trkpt>
      <trkpt lat="41.763375196605921" lon="-8.860018076375127">
        <ele>71.79296875</ele>
      </trkpt>
      <trkpt lat="41.763435797765851" lon="-8.860041964799166">
        <ele>71.66796875</ele>
      </trkpt>
      <trkpt lat="41.763485670089722" lon="-8.860069708898664">
        <ele>71.5078125</ele>
      </trkpt>
      <trkpt lat="41.763536799699068" lon="-8.860092759132385">
        <ele>71.375</ele>
      </trkpt>
      <trkpt lat="41.763595892116427" lon="-8.860106924548745">
        <ele>71.3046875</ele>
      </trkpt>
      <trkpt lat="41.763649117201567" lon="-8.860119245946407">
        <ele>71.2421875</ele>
      </trkpt>
      <trkpt lat="41.763708461076021" lon="-8.860132237896323">
        <ele>71.17578125</ele>
      </trkpt>
      <trkpt lat="41.763762691989541" lon="-8.860147828236222">
        <ele>71.015625</ele>
      </trkpt>
      <trkpt lat="41.763821030035615" lon="-8.860156545415521">
        <ele>70.8828125</ele>
      </trkpt>
      <trkpt lat="41.763876685872674" lon="-8.860154785215855">
        <ele>70.828125</ele>
      </trkpt>
      <trkpt lat="41.763940555974841" lon="-8.860152857378125">
        <ele>70.765625</ele>
      </trkpt>
      <trkpt lat="41.763996547088027" lon="-8.860147912055254">
        <ele>70.734375</ele>
      </trkpt>
      <trkpt lat="41.764053627848625" lon="-8.860136764124036">
        <ele>70.74609375</ele>
      </trkpt>
      <trkpt lat="41.764110289514065" lon="-8.860125700011849">
        <ele>70.7578125</ele>
      </trkpt>
      <trkpt lat="41.764163179323077" lon="-8.860107427462935">
        <ele>70.828125</ele>
      </trkpt>
      <trkpt lat="41.764215566217899" lon="-8.860087981447577">
        <ele>70.90234375</ele>
      </trkpt>
      <trkpt lat="41.764269461855292" lon="-8.860060824081302">
        <ele>71.03515625</ele>
      </trkpt>
      <trkpt lat="41.764327380806208" lon="-8.860018160194159">
        <ele>71.2734375</ele>
      </trkpt>
      <trkpt lat="41.764373062178493" lon="-8.85997817851603">
        <ele>71.50390625</ele>
      </trkpt>
      <trkpt lat="41.764417653903365" lon="-8.859936185181141">
        <ele>71.75390625</ele>
      </trkpt>
      <trkpt lat="41.76446283236146" lon="-8.859889665618539">
        <ele>72.03515625</ele>
      </trkpt>
      <trkpt lat="41.764506082981825" lon="-8.859845157712698">
        <ele>72.3046875</ele>
      </trkpt>
      <trkpt lat="41.764551345258951" lon="-8.85979444719851">
        <ele>72.61328125</ele>
      </trkpt>
      <trkpt lat="41.764597445726395" lon="-8.85975337587297">
        <ele>72.52734375</ele>
      </trkpt>
      <trkpt lat="41.764644719660282" lon="-8.859712053090334">
        <ele>72.421875</ele>
      </trkpt>
      <trkpt lat="41.76469199359417" lon="-8.859668802469969">
        <ele>72.33984375</ele>
      </trkpt>
      <trkpt lat="41.764740273356438" lon="-8.859627647325397">
        <ele>72.234375</ele>
      </trkpt>
      <trkpt lat="41.764790145680308" lon="-8.859582049772143">
        <ele>72.15625</ele>
      </trkpt>
      <trkpt lat="41.764836749061942" lon="-8.859543995931745">
        <ele>72.03125</ele>
      </trkpt>
      <trkpt lat="41.764885447919369" lon="-8.859499823302031">
        <ele>71.91796875</ele>
      </trkpt>
      <trkpt lat="41.764931129291654" lon="-8.859453303739429">
        <ele>71.828125</ele>
      </trkpt>
      <trkpt lat="41.764974966645241" lon="-8.859399659559131">
        <ele>71.78515625</ele>
      </trkpt>
      <trkpt lat="41.765020983293653" lon="-8.859342243522406">
        <ele>71.7265625</ele>
      </trkpt>
      <trkpt lat="41.765058366581798" lon="-8.859287006780505">
        <ele>71.7109375</ele>
      </trkpt>
      <trkpt lat="41.765093738213181" lon="-8.859232105314732">
        <ele>71.69921875</ele>
      </trkpt>
      <trkpt lat="41.765135647729039" lon="-8.859185082837939">
        <ele>71.55859375</ele>
      </trkpt>
      <trkpt lat="41.76517965272069" lon="-8.859135964885354">
        <ele>71.38671875</ele>
      </trkpt>
      <trkpt lat="41.765224914997816" lon="-8.859090534970164">
        <ele>71.16796875</ele>
      </trkpt>
      <trkpt lat="41.765276212245226" lon="-8.859049882739782">
        <ele>70.8359375</ele>
      </trkpt>
      <trkpt lat="41.765325162559748" lon="-8.859006213024259">
        <ele>70.52734375</ele>
      </trkpt>
      <trkpt lat="41.765385176986456" lon="-8.858953155577183">
        <ele>70.125</ele>
      </trkpt>
      <trkpt lat="41.765435552224517" lon="-8.858913173899055">
        <ele>69.71484375</ele>
      </trkpt>
      <trkpt lat="41.765478802844882" lon="-8.858870677649975">
        <ele>69.3984375</ele>
      </trkpt>
      <trkpt lat="41.765524987131357" lon="-8.858823319897056">
        <ele>69.0703125</ele>
      </trkpt>
      <trkpt lat="41.765567818656564" lon="-8.858771938830614">
        <ele>68.8046875</ele>
      </trkpt>
      <trkpt lat="41.765608889982104" lon="-8.85872483253479">
        <ele>68.58984375</ele>
      </trkpt>
      <trkpt lat="41.765648955479264" lon="-8.8586759660393">
        <ele>68.40234375</ele>
      </trkpt>
      <trkpt lat="41.765683488920331" lon="-8.858618885278702">
        <ele>68.328125</ele>
      </trkpt>
      <trkpt lat="41.765697654336691" lon="-8.858544789254665">
        <ele>68.60546875</ele>
      </trkpt>
      <trkpt lat="41.765708886086941" lon="-8.858459377661347">
        <ele>68.98046875</ele>
      </trkpt>
      <trkpt lat="41.765718022361398" lon="-8.858386790379882">
        <ele>69.30859375</ele>
      </trkpt>
      <trkpt lat="41.765737049281597" lon="-8.858312610536814">
        <ele>69.52734375</ele>
      </trkpt>
      <trkpt lat="41.765758171677589" lon="-8.858244298025966">
        <ele>69.68359375</ele>
      </trkpt>
      <trkpt lat="41.76578750833869" lon="-8.858180092647672">
        <ele>69.71484375</ele>
      </trkpt>
      <trkpt lat="41.765820952132344" lon="-8.858116725459695">
        <ele>69.6953125</ele>
      </trkpt>
      <trkpt lat="41.765857161954045" lon="-8.85806274600327">
        <ele>69.58203125</ele>
      </trkpt>
      <trkpt lat="41.76588230766356" lon="-8.858026033267379">
        <ele>69.5</ele>
      </trkpt>
      <trkpt lat="41.76600837148726" lon="-8.857964091002941">
        <ele>68.359375</ele>
      </trkpt>
      <trkpt lat="41.766048688441515" lon="-8.857919415459037">
        <ele>68.23828125</ele>
      </trkpt>
      <trkpt lat="41.766091603785753" lon="-8.857873817905784">
        <ele>68.25390625</ele>
      </trkpt>
      <trkpt lat="41.766133597120643" lon="-8.857819586992264">
        <ele>68.39453125</ele>
      </trkpt>
      <trkpt lat="41.766172824427485" lon="-8.857764853164554">
        <ele>68.5859375</ele>
      </trkpt>
      <trkpt lat="41.766209285706282" lon="-8.857710538432002">
        <ele>68.8203125</ele>
      </trkpt>
      <trkpt lat="41.766262343153358" lon="-8.857680698856711">
        <ele>68.72265625</ele>
      </trkpt>
      <trkpt lat="41.766316993162036" lon="-8.857665108516812">
        <ele>68.47265625</ele>
      </trkpt>
      <trkpt lat="41.766370721161366" lon="-8.857647171244025">
        <ele>68.25</ele>
      </trkpt>
      <trkpt lat="41.766425706446171" lon="-8.857630826532841">
        <ele>67.99609375</ele>
      </trkpt>
      <trkpt lat="41.766480272635818" lon="-8.857613559812307">
        <ele>67.74609375</ele>
      </trkpt>
      <trkpt lat="41.766539113596082" lon="-8.857597298920155">
        <ele>67.44921875</ele>
      </trkpt>
      <trkpt lat="41.766586974263191" lon="-8.857553964480758">
        <ele>67.53125</ele>
      </trkpt>
      <trkpt lat="41.76663726568222" lon="-8.857519011944532">
        <ele>67.4921875</ele>
      </trkpt>
      <trkpt lat="41.766697615385056" lon="-8.857499482110143">
        <ele>67.19140625</ele>
      </trkpt>
      <trkpt lat="41.766752768307924" lon="-8.857483305037022">
        <ele>66.89453125</ele>
      </trkpt>
      <trkpt lat="41.766810435801744" lon="-8.857447346672416">
        <ele>66.7734375</ele>
      </trkpt>
      <trkpt lat="41.766855949535966" lon="-8.857393367215991">
        <ele>66.9296875</ele>
      </trkpt>
      <trkpt lat="41.76689425483346" lon="-8.857332682237029">
        <ele>67.20703125</ele>
      </trkpt>
      <trkpt lat="41.766935996711254" lon="-8.857286665588617">
        <ele>67.2890625</ele>
      </trkpt>
      <trkpt lat="41.766984108835459" lon="-8.857244504615664">
        <ele>67.265625</ele>
      </trkpt>
      <trkpt lat="41.767030796036124" lon="-8.857203181833029">
        <ele>67.234375</ele>
      </trkpt>
      <trkpt lat="41.767068430781364" lon="-8.857150794938207">
        <ele>67.38671875</ele>
      </trkpt>
      <trkpt lat="41.767099443823099" lon="-8.857079213485122">
        <ele>67.6796875</ele>
      </trkpt>
      <trkpt lat="41.767117297276855" lon="-8.857010817155242">
        <ele>67.8984375</ele>
      </trkpt>
      <trkpt lat="41.767125679180026" lon="-8.856962285935879">
        <ele>68.08984375</ele>
      </trkpt>
      <trkpt lat="41.767156776040792" lon="-8.856778722256422">
        <ele>68.79296875</ele>
      </trkpt>
      <trkpt lat="41.76717471331358" lon="-8.856704626232386">
        <ele>69</ele>
      </trkpt>
      <trkpt lat="41.767186783254147" lon="-8.856629943475127">
        <ele>69.26953125</ele>
      </trkpt>
      <trkpt lat="41.767198601737618" lon="-8.85655970312655">
        <ele>69.5078125</ele>
      </trkpt>
      <trkpt lat="41.767228273674846" lon="-8.856492144986987">
        <ele>69.5078125</ele>
      </trkpt>
      <trkpt lat="41.76726708188653" lon="-8.856428442522883">
        <ele>69.35546875</ele>
      </trkpt>
      <trkpt lat="41.767299938946962" lon="-8.856368511915207">
        <ele>69.23828125</ele>
      </trkpt>
      <trkpt lat="41.767325755208731" lon="-8.856287794187665">
        <ele>69.296875</ele>
      </trkpt>
      <trkpt lat="41.76734427921474" lon="-8.856217972934246">
        <ele>69.36328125</ele>
      </trkpt>
      <trkpt lat="41.767360204830766" lon="-8.856143793091178">
        <ele>69.4609375</ele>
      </trkpt>
      <trkpt lat="41.767378309741616" lon="-8.856072463095188">
        <ele>69.50390625</ele>
      </trkpt>
      <trkpt lat="41.767390295863152" lon="-8.856001133099198">
        <ele>69.6171875</ele>
      </trkpt>
      <trkpt lat="41.767387446016073" lon="-8.855928797274828">
        <ele>69.95703125</ele>
      </trkpt>
      <trkpt lat="41.767377555370331" lon="-8.855857383459806">
        <ele>70.3984375</ele>
      </trkpt>
      <trkpt lat="41.767349559813738" lon="-8.855781778693199">
        <ele>71.16015625</ele>
      </trkpt>
      <trkpt lat="41.767323827371001" lon="-8.855715310201049">
        <ele>71.8671875</ele>
      </trkpt>
      <trkpt lat="41.76729298196733" lon="-8.855648087337613">
        <ele>72.68359375</ele>
      </trkpt>
      <trkpt lat="41.767267668619752" lon="-8.855583546683192">
        <ele>73.4140625</ele>
      </trkpt>
      <trkpt lat="41.767239756882191" lon="-8.855518335476518">
        <ele>74.21484375</ele>
      </trkpt>
      <trkpt lat="41.767221819609404" lon="-8.855443820357323">
        <ele>74.90625</ele>
      </trkpt>
      <trkpt lat="41.767209833487868" lon="-8.85537282563746">
        <ele>75.46875</ele>
      </trkpt>
      <trkpt lat="41.767190219834447" lon="-8.855305351316929">
        <ele>76.16796875</ele>
      </trkpt>
      <trkpt lat="41.767154848203063" lon="-8.855247851461172">
        <ele>77.140625</ele>
      </trkpt>
      <trkpt lat="41.767138252034783" lon="-8.855173336341977">
        <ele>77.86328125</ele>
      </trkpt>
      <trkpt lat="41.767122242599726" lon="-8.855104688555002">
        <ele>78.55859375</ele>
      </trkpt>
      <trkpt lat="41.767085278406739" lon="-8.855046099051833">
        <ele>79.65234375</ele>
      </trkpt>
      <trkpt lat="41.767062144353986" lon="-8.854976948350668">
        <ele>80.54296875</ele>
      </trkpt>
      <trkpt lat="41.767042698338628" lon="-8.854903941974044">
        <ele>81.4296875</ele>
      </trkpt>
      <trkpt lat="41.76702568307519" lon="-8.854830767959356">
        <ele>82.3046875</ele>
      </trkpt>
      <trkpt lat="41.766998860985041" lon="-8.854762706905603">
        <ele>83.41015625</ele>
      </trkpt>
      <trkpt lat="41.766989137977362" lon="-8.854686599224806">
        <ele>84.140625</ele>
      </trkpt>
      <trkpt lat="41.76697832532227" lon="-8.854615688323975">
        <ele>84.87109375</ele>
      </trkpt>
      <trkpt lat="41.766970613971353" lon="-8.854544358327985">
        <ele>85.52734375</ele>
      </trkpt>
      <trkpt lat="41.766983605921268" lon="-8.854473112151027">
        <ele>85.62890625</ele>
      </trkpt>
      <trkpt lat="41.767011098563671" lon="-8.854406392201781">
        <ele>85.296875</ele>
      </trkpt>
      <trkpt lat="41.767044626176357" lon="-8.854333218187094">
        <ele>84.82421875</ele>
      </trkpt>
      <trkpt lat="41.767081087455153" lon="-8.854267671704292">
        <ele>84.2890625</ele>
      </trkpt>
      <trkpt lat="41.767124505713582" lon="-8.854213859885931">
        <ele>83.515625</ele>
      </trkpt>
      <trkpt lat="41.767174880951643" lon="-8.854179074987769">
        <ele>82.4453125</ele>
      </trkpt>
      <trkpt lat="41.76722701638937" lon="-8.85416004806757">
        <ele>81.234375</ele>
      </trkpt>
      <trkpt lat="41.767283175140619" lon="-8.854147642850876">
        <ele>79.87890625</ele>
      </trkpt>
      <trkpt lat="41.767339752987027" lon="-8.854133393615484">
        <ele>78.51953125</ele>
      </trkpt>
      <trkpt lat="41.767392056062818" lon="-8.854116629809141">
        <ele>77.27734375</ele>
      </trkpt>
      <trkpt lat="41.767442096024752" lon="-8.854085700586438">
        <ele>76.15625</ele>
      </trkpt>
      <trkpt lat="41.76749381236732" lon="-8.854063907638192">
        <ele>74.94140625</ele>
      </trkpt>
      <trkpt lat="41.767541924491525" lon="-8.854035073891282">
        <ele>73.84375</ele>
      </trkpt>
      <trkpt lat="41.767591377720237" lon="-8.85398562066257">
        <ele>72.79296875</ele>
      </trkpt>
      <trkpt lat="41.767632951959968" lon="-8.853940106928349">
        <ele>71.91796875</ele>
      </trkpt>
      <trkpt lat="41.767646111547947" lon="-8.853872297331691">
        <ele>71.8671875</ele>
      </trkpt>
      <trkpt lat="41.767650805413723" lon="-8.853803314268589">
        <ele>72.0390625</ele>
      </trkpt>
      <trkpt lat="41.76766287535429" lon="-8.853571889922023">
        <ele>73.296875</ele>
      </trkpt>
      <trkpt lat="41.767658852040768" lon="-8.853496117517352">
        <ele>73.94921875</ele>
      </trkpt>
      <trkpt lat="41.767653739079833" lon="-8.853416657075286">
        <ele>74.65625</ele>
      </trkpt>
      <trkpt lat="41.767647285014391" lon="-8.853341722860932">
        <ele>75.3671875</ele>
      </trkpt>
      <trkpt lat="41.767639238387346" lon="-8.853264776989818">
        <ele>76.1328125</ele>
      </trkpt>
      <trkpt lat="41.767629515379667" lon="-8.85319160297513">
        <ele>76.91796875</ele>
      </trkpt>
      <trkpt lat="41.767617529258132" lon="-8.853118680417538">
        <ele>77.7578125</ele>
      </trkpt>
      <trkpt lat="41.767593724653125" lon="-8.853056067600846">
        <ele>78.83984375</ele>
      </trkpt>
      <trkpt lat="41.767564136534929" lon="-8.852994376793504">
        <ele>80.06640625</ele>
      </trkpt>
      <trkpt lat="41.767535135149956" lon="-8.852931847795844">
        <ele>81.31640625</ele>
      </trkpt>
      <trkpt lat="41.767498925328255" lon="-8.852872084826231">
        <ele>82.9609375</ele>
      </trkpt>
      <trkpt lat="41.767474953085184" lon="-8.852804694324732">
        <ele>84.359375</ele>
      </trkpt>
      <trkpt lat="41.767447125166655" lon="-8.852736130356789">
        <ele>85.8515625</ele>
      </trkpt>
      <trkpt lat="41.767431786283851" lon="-8.852667063474655">
        <ele>87.01953125</ele>
      </trkpt>
      <trkpt lat="41.767433630302548" lon="-8.852594895288348">
        <ele>87.78515625</ele>
      </trkpt>
      <trkpt lat="41.767448885366321" lon="-8.852518871426582">
        <ele>88.26953125</ele>
      </trkpt>
      <trkpt lat="41.767476629465818" lon="-8.852456174790859">
        <ele>88.3046875</ele>
      </trkpt>
      <trkpt lat="41.767509821802378" lon="-8.852389873936772">
        <ele>88.265625</ele>
      </trkpt>
      <trkpt lat="41.767538990825415" lon="-8.85232868604362">
        <ele>88.27734375</ele>
      </trkpt>
      <trkpt lat="41.767566064372659" lon="-8.852269593626261">
        <ele>88.3359375</ele>
      </trkpt>
      <trkpt lat="41.767593557015061" lon="-8.852207818999887">
        <ele>88.42578125</ele>
      </trkpt>
      <trkpt lat="41.767631862312555" lon="-8.852155767381191">
        <ele>88.16796875</ele>
      </trkpt>
      <trkpt lat="41.767679052427411" lon="-8.852121736854315">
        <ele>87.5</ele>
      </trkpt>
      <trkpt lat="41.767735127359629" lon="-8.852113103494048">
        <ele>86.32421875</ele>
      </trkpt>
      <trkpt lat="41.767748957499862" lon="-8.852107655256987">
        <ele>86.078125</ele>
      </trkpt>
      <trkpt lat="41.768005024641752" lon="-8.851977232843637">
        <ele>83.35546875</ele>
      </trkpt>
      <trkpt lat="41.76806059665978" lon="-8.851957032456994">
        <ele>82.7890625</ele>
      </trkpt>
      <trkpt lat="41.768111642450094" lon="-8.85192702524364">
        <ele>82.453125</ele>
      </trkpt>
      <trkpt lat="41.76816713064909" lon="-8.851893162354827">
        <ele>82.08203125</ele>
      </trkpt>
      <trkpt lat="41.768220607191324" lon="-8.851851252838969">
        <ele>81.85546875</ele>
      </trkpt>
      <trkpt lat="41.768269054591656" lon="-8.851814707741141">
        <ele>81.60546875</ele>
      </trkpt>
      <trkpt lat="41.768324123695493" lon="-8.8517857901752">
        <ele>81.1015625</ele>
      </trkpt>
      <trkpt lat="41.768380701541901" lon="-8.851752681657672">
        <ele>80.61328125</ele>
      </trkpt>
      <trkpt lat="41.76843736320734" lon="-8.851719489321113">
        <ele>80.10546875</ele>
      </trkpt>
      <trkpt lat="41.76849109120667" lon="-8.851680848747492">
        <ele>79.70703125</ele>
      </trkpt>
      <trkpt lat="41.768535682931542" lon="-8.851640028879046">
        <ele>79.484375</ele>
      </trkpt>
      <trkpt lat="41.768582286313176" lon="-8.851593006402254">
        <ele>79.2890625</ele>
      </trkpt>
      <trkpt lat="41.768623776733875" lon="-8.851546822115779">
        <ele>79.15234375</ele>
      </trkpt>
      <trkpt lat="41.768665770068765" lon="-8.851506924256682">
        <ele>78.90234375</ele>
      </trkpt>
      <trkpt lat="41.76881262101233" lon="-8.851409694179893">
        <ele>77.88671875</ele>
      </trkpt>
      <trkpt lat="41.768855284899473" lon="-8.851360576227307">
        <ele>77.9140625</ele>
      </trkpt>
      <trkpt lat="41.768897781148553" lon="-8.85131573304534">
        <ele>77.875</ele>
      </trkpt>
      <trkpt lat="41.768941199406981" lon="-8.851273069158196">
        <ele>77.78125</ele>
      </trkpt>
      <trkpt lat="41.768986545503139" lon="-8.85122244246304">
        <ele>77.77734375</ele>
      </trkpt>
      <trkpt lat="41.769028035923839" lon="-8.851168965920806">
        <ele>77.859375</ele>
      </trkpt>
      <trkpt lat="41.769067766144872" lon="-8.851119764149189">
        <ele>77.90625</ele>
      </trkpt>
      <trkpt lat="41.769112441688776" lon="-8.851069556549191">
        <ele>77.88671875</ele>
      </trkpt>
      <trkpt lat="41.769158206880093" lon="-8.851021444424987">
        <ele>77.81640625</ele>
      </trkpt>
      <trkpt lat="41.76920841448009" lon="-8.850984144955873">
        <ele>77.54296875</ele>
      </trkpt>
      <trkpt lat="41.769258873537183" lon="-8.850947264581919">
        <ele>77.25390625</ele>
      </trkpt>
      <trkpt lat="41.769310170784593" lon="-8.850910803303123">
        <ele>76.94140625</ele>
      </trkpt>
      <trkpt lat="41.769358199089766" lon="-8.850873168557882">
        <ele>76.68359375</ele>
      </trkpt>
      <trkpt lat="41.769418297335505" lon="-8.850812232121825">
        <ele>76.52734375</ele>
      </trkpt>
      <trkpt lat="41.769460877403617" lon="-8.850761605426669">
        <ele>76.5</ele>
      </trkpt>
      <trkpt lat="41.76950303837657" lon="-8.850713660940528">
        <ele>76.44140625</ele>
      </trkpt>
      <trkpt lat="41.769546875730157" lon="-8.850666303187609">
        <ele>76.34375</ele>
      </trkpt>
      <trkpt lat="41.769590964540839" lon="-8.850620202720165">
        <ele>76.375</ele>
      </trkpt>
      <trkpt lat="41.76963304169476" lon="-8.850568486377597">
        <ele>76.50390625</ele>
      </trkpt>
      <trkpt lat="41.769674364477396" lon="-8.850515261292458">
        <ele>76.640625</ele>
      </trkpt>
      <trkpt lat="41.769711999222636" lon="-8.850457593798637">
        <ele>76.86328125</ele>
      </trkpt>
      <trkpt lat="41.769756590947509" lon="-8.850406967103481">
        <ele>76.9296875</ele>
      </trkpt>
      <trkpt lat="41.769774276763201" lon="-8.850390706211329">
        <ele>76.90625</ele>
      </trkpt>
      <trkpt lat="41.770057417452335" lon="-8.850104715675116">
        <ele>76.36328125</ele>
      </trkpt>
      <trkpt lat="41.770135117694736" lon="-8.850034140050411">
        <ele>75.9765625</ele>
      </trkpt>
      <trkpt lat="41.770203597843647" lon="-8.849966581910849">
        <ele>75.62890625</ele>
      </trkpt>
      <trkpt lat="41.770268976688385" lon="-8.849894246086478">
        <ele>75.3203125</ele>
      </trkpt>
      <trkpt lat="41.770327650010586" lon="-8.849819814786315">
        <ele>75.08203125</ele>
      </trkpt>
      <trkpt lat="41.770386742427945" lon="-8.849737169221044">
        <ele>74.87109375</ele>
      </trkpt>
      <trkpt lat="41.770451785996556" lon="-8.849661480635405">
        <ele>74.73046875</ele>
      </trkpt>
      <trkpt lat="41.770525295287371" lon="-8.849581936374307">
        <ele>74.5546875</ele>
      </trkpt>
      <trkpt lat="41.770599894225597" lon="-8.849516808986664">
        <ele>74.296875</ele>
      </trkpt>
      <trkpt lat="41.770682372152805" lon="-8.849424608051777">
        <ele>74.1484375</ele>
      </trkpt>
      <trkpt lat="41.770752361044288" lon="-8.849357469007373">
        <ele>73.87109375</ele>
      </trkpt>
      <trkpt lat="41.770818745717406" lon="-8.849286390468478">
        <ele>73.63671875</ele>
      </trkpt>
      <trkpt lat="41.770863421261311" lon="-8.849186142906547">
        <ele>73.9140625</ele>
      </trkpt>
      <trkpt lat="41.770877335220575" lon="-8.849069969728589">
        <ele>74.7265625</ele>
      </trkpt>
      <trkpt lat="41.770907342433929" lon="-8.848968800157309">
        <ele>75.16015625</ele>
      </trkpt>
      <trkpt lat="41.770967273041606" lon="-8.848895374685526">
        <ele>74.8828125</ele>
      </trkpt>
      <trkpt lat="41.771044638007879" lon="-8.84882714599371">
        <ele>74.2578125</ele>
      </trkpt>
      <trkpt lat="41.771110603585839" lon="-8.848755396902561">
        <ele>73.8515625</ele>
      </trkpt>
      <trkpt lat="41.771168103441596" lon="-8.848671074956656">
        <ele>73.86328125</ele>
      </trkpt>
      <trkpt lat="41.7711868789047" lon="-8.848545262590051">
        <ele>74.92578125</ele>
      </trkpt>
      <trkpt lat="41.771190818399191" lon="-8.848427161574364">
        <ele>76.13671875</ele>
      </trkpt>
      <trkpt lat="41.771193835884333" lon="-8.848319202661514">
        <ele>77.25390625</ele>
      </trkpt>
      <trkpt lat="41.771230716258287" lon="-8.848235635086894">
        <ele>77.71875</ele>
      </trkpt>
      <trkpt lat="41.771325599402189" lon="-8.848216189071536">
        <ele>77.203125</ele>
      </trkpt>
      <trkpt lat="41.771407155320048" lon="-8.848205879330635">
        <ele>76.67578125</ele>
      </trkpt>
      <trkpt lat="41.771490639075637" lon="-8.848189366981387">
        <ele>76.1796875</ele>
      </trkpt>
      <trkpt lat="41.771574374288321" lon="-8.848145864903927">
        <ele>75.8828125</ele>
      </trkpt>
      <trkpt lat="41.771644195541739" lon="-8.848075540736318">
        <ele>75.85546875</ele>
      </trkpt>
      <trkpt lat="41.771705718711019" lon="-8.847984094172716">
        <ele>75.98828125</ele>
      </trkpt>
      <trkpt lat="41.771768247708678" lon="-8.847905555739999">
        <ele>76.13671875</ele>
      </trkpt>
      <trkpt lat="41.771829100325704" lon="-8.847827687859535">
        <ele>76.45703125</ele>
      </trkpt>
      <trkpt lat="41.771886181086302" lon="-8.847742695361376">
        <ele>76.859375</ele>
      </trkpt>
      <trkpt lat="41.771937310695648" lon="-8.84765007533133">
        <ele>77.3671875</ele>
      </trkpt>
      <trkpt lat="41.772002773359418" lon="-8.847560053691268">
        <ele>77.6484375</ele>
      </trkpt>
      <trkpt lat="41.772073181346059" lon="-8.847510516643524">
        <ele>77.33984375</ele>
      </trkpt>
      <trkpt lat="41.772155910730362" lon="-8.84753130376339">
        <ele>76.02734375</ele>
      </trkpt>
      <trkpt lat="41.772242831066251" lon="-8.847541278228164">
        <ele>74.78515625</ele>
      </trkpt>
      <trkpt lat="41.772326231002808" lon="-8.84752644225955">
        <ele>73.828125</ele>
      </trkpt>
      <trkpt lat="41.772403176873922" lon="-8.847461985424161">
        <ele>73.37890625</ele>
      </trkpt>
      <trkpt lat="41.772462101653218" lon="-8.847387218847871">
        <ele>73.20703125</ele>
      </trkpt>
      <trkpt lat="41.772686317563057" lon="-8.847112711519003">
        <ele>72.0234375</ele>
      </trkpt>
      <trkpt lat="41.772758234292269" lon="-8.847048254683614">
        <ele>71.73046875</ele>
      </trkpt>
      <trkpt lat="41.77283501252532" lon="-8.846973488107324">
        <ele>71.5234375</ele>
      </trkpt>
      <trkpt lat="41.772908940911293" lon="-8.846917077898979">
        <ele>71.3671875</ele>
      </trkpt>
      <trkpt lat="41.772982785478234" lon="-8.846865613013506">
        <ele>71.578125</ele>
      </trkpt>
      <trkpt lat="41.773065682500601" lon="-8.846833761781454">
        <ele>71.46484375</ele>
      </trkpt>
      <trkpt lat="41.773145059123635" lon="-8.846806772053242">
        <ele>71.30078125</ele>
      </trkpt>
      <trkpt lat="41.773226112127304" lon="-8.8467778544873">
        <ele>71.1484375</ele>
      </trkpt>
      <trkpt lat="41.773304985836148" lon="-8.846737202256918">
        <ele>71.1484375</ele>
      </trkpt>
      <trkpt lat="41.773352846503258" lon="-8.846656903624535">
        <ele>71.83984375</ele>
      </trkpt>
      <trkpt lat="41.77333440631628" lon="-8.84653938934207">
        <ele>73.4375</ele>
      </trkpt>
      <trkpt lat="41.773294257000089" lon="-8.846427910029888">
        <ele>75.1171875</ele>
      </trkpt>
      <trkpt lat="41.773251760751009" lon="-8.846332272514701">
        <ele>76.62890625</ele>
      </trkpt>
      <trkpt lat="41.773204067721963" lon="-8.846240239217877">
        <ele>78.27734375</ele>
      </trkpt>
      <trkpt lat="41.773162577301264" lon="-8.846139907836914">
        <ele>80.16796875</ele>
      </trkpt>
      <trkpt lat="41.773142041638494" lon="-8.846034212037921">
        <ele>81.96484375</ele>
      </trkpt>
      <trkpt lat="41.773150926455855" lon="-8.84593547321856">
        <ele>83.4921875</ele>
      </trkpt>
      <trkpt lat="41.773228123784065" lon="-8.845898173749447">
        <ele>83.828125</ele>
      </trkpt>
      <trkpt lat="41.773314038291574" lon="-8.84590320289135">
        <ele>83.4453125</ele>
      </trkpt>
      <trkpt lat="41.77339693531394" lon="-8.845910830423236">
        <ele>83.0234375</ele>
      </trkpt>
      <trkpt lat="41.773483855649829" lon="-8.84589834138751">
        <ele>82.95703125</ele>
      </trkpt>
      <trkpt lat="41.773567087948322" lon="-8.845877554267645">
        <ele>83.09375</ele>
      </trkpt>
      <trkpt lat="41.773635484278202" lon="-8.845812175422907">
        <ele>84.23828125</ele>
      </trkpt>
      <trkpt lat="41.77369155921042" lon="-8.845724081620574">
        <ele>85.98046875</ele>
      </trkpt>
      <trkpt lat="41.773728355765343" lon="-8.845643782988191">
        <ele>87.62890625</ele>
      </trkpt>
      <trkpt lat="41.773806558921933" lon="-8.845609584823251">
        <ele>88.0625</ele>
      </trkpt>
      <trkpt lat="41.77389926277101" lon="-8.845570189878345">
        <ele>88.515625</ele>
      </trkpt>
      <trkpt lat="41.773977717384696" lon="-8.845542529597878">
        <ele>88.75390625</ele>
      </trkpt>
      <trkpt lat="41.774048209190369" lon="-8.845495171844959">
        <ele>89.38671875</ele>
      </trkpt>
      <trkpt lat="41.774103110656142" lon="-8.845409592613578">
        <ele>90.7265625</ele>
      </trkpt>
      <trkpt lat="41.774161532521248" lon="-8.845332646742463">
        <ele>91.79296875</ele>
      </trkpt>
      <trkpt lat="41.774220876395702" lon="-8.845265256240964">
        <ele>92.69921875</ele>
      </trkpt>
      <trkpt lat="41.774289272725582" lon="-8.845205493271351">
        <ele>93.44140625</ele>
      </trkpt>
      <trkpt lat="41.77436638623476" lon="-8.84515855461359">
        <ele>93.93359375</ele>
      </trkpt>
      <trkpt lat="41.774443499743938" lon="-8.845125027000904">
        <ele>94.19140625</ele>
      </trkpt>
      <trkpt lat="41.774514494463801" lon="-8.84506668895483">
        <ele>94.93359375</ele>
      </trkpt>
      <trkpt lat="41.774593451991677" lon="-8.845045147463679">
        <ele>94.6875</ele>
      </trkpt>
      <trkpt lat="41.774673750624061" lon="-8.845059229061007">
        <ele>93.59375</ele>
      </trkpt>
      <trkpt lat="41.774765448644757" lon="-8.845048164948821">
        <ele>92.8046875</ele>
      </trkpt>
      <trkpt lat="41.774848429486156" lon="-8.845016732811928">
        <ele>92.41015625</ele>
      </trkpt>
      <trkpt lat="41.774931410327554" lon="-8.845009189099073">
        <ele>91.61328125</ele>
      </trkpt>
      <trkpt lat="41.775006931275129" lon="-8.845047997310758">
        <ele>90.2421875</ele>
      </trkpt>
      <trkpt lat="41.775062251836061" lon="-8.845126703381538">
        <ele>88.5859375</ele>
      </trkpt>
      <trkpt lat="41.775087229907513" lon="-8.845245894044638">
        <ele>86.75</ele>
      </trkpt>
      <trkpt lat="41.775096785277128" lon="-8.845375142991543">
        <ele>84.94921875</ele>
      </trkpt>
      <trkpt lat="41.775100724771619" lon="-8.845503805205226">
        <ele>83.48046875</ele>
      </trkpt>
      <trkpt lat="41.775094605982304" lon="-8.845635903999209">
        <ele>82.34375</ele>
      </trkpt>
      <trkpt lat="41.775087732821703" lon="-8.845748221501708">
        <ele>81.359375</ele>
      </trkpt>
      <trkpt lat="41.7750861402601" lon="-8.845860958099365">
        <ele>80.34765625</ele>
      </trkpt>
      <trkpt lat="41.775098042562604" lon="-8.84597260504961">
        <ele>79.34375</ele>
      </trkpt>
      <trkpt lat="41.775119081139565" lon="-8.846081653609872">
        <ele>78.41796875</ele>
      </trkpt>
      <trkpt lat="41.775148250162601" lon="-8.846200844272971">
        <ele>77.50390625</ele>
      </trkpt>
      <trkpt lat="41.775175156071782" lon="-8.846305869519711">
        <ele>76.8515625</ele>
      </trkpt>
      <trkpt lat="41.775212958455086" lon="-8.846401087939739">
        <ele>76.51171875</ele>
      </trkpt>
      <trkpt lat="41.775222765281796" lon="-8.846534444019198">
        <ele>75.83203125</ele>
      </trkpt>
      <trkpt lat="41.775222765281796" lon="-8.846663106232882">
        <ele>75.125</ele>
      </trkpt>
      <trkpt lat="41.775219412520528" lon="-8.846773998811841">
        <ele>74.49609375</ele>
      </trkpt>
      <trkpt lat="41.77521756850183" lon="-8.846888663247228">
        <ele>73.8515625</ele>
      </trkpt>
      <trkpt lat="41.77521756850183" lon="-8.847003998234868">
        <ele>73.21484375</ele>
      </trkpt>
      <trkpt lat="41.775212706997991" lon="-8.847120255231857">
        <ele>72.5390625</ele>
      </trkpt>
      <trkpt lat="41.775227710604668" lon="-8.847218826413155">
        <ele>72.13671875</ele>
      </trkpt>
      <trkpt lat="41.775312703102827" lon="-8.847192423418164">
        <ele>72.9609375</ele>
      </trkpt>
      <trkpt lat="41.775382943451405" lon="-8.847128050401807">
        <ele>73.921875</ele>
      </trkpt>
      <trkpt lat="41.775452429428697" lon="-8.847072394564748">
        <ele>74.95703125</ele>
      </trkpt>
      <trkpt lat="41.77552342414856" lon="-8.847014978528023">
        <ele>75.984375</ele>
      </trkpt>
      <trkpt lat="41.775597184896469" lon="-8.846969297155738">
        <ele>76.9765625</ele>
      </trkpt>
      <trkpt lat="41.775672202929854" lon="-8.846930153667927">
        <ele>77.9453125</ele>
      </trkpt>
      <trkpt lat="41.775758033618331" lon="-8.846925962716341">
        <ele>78.8671875</ele>
      </trkpt>
      <trkpt lat="41.775813605636358" lon="-8.847021935507655">
        <ele>79.05078125</ele>
      </trkpt>
      <trkpt lat="41.775847719982266" lon="-8.847120422869921">
        <ele>78.984375</ele>
      </trkpt>
      <trkpt lat="41.775881415233016" lon="-8.847214551642537">
        <ele>78.71484375</ele>
      </trkpt>
      <trkpt lat="41.775949141010642" lon="-8.84727188386023">
        <ele>79.04296875</ele>
      </trkpt>
      <trkpt lat="41.776027260348201" lon="-8.847322091460228">
        <ele>79.51953125</ele>
      </trkpt>
      <trkpt lat="41.776103787124157" lon="-8.847351847216487">
        <ele>80.11328125</ele>
      </trkpt>
      <trkpt lat="41.776190372183919" lon="-8.847358720377088">
        <ele>80.97265625</ele>
      </trkpt>
      <trkpt lat="41.776271509006619" lon="-8.847368527203798">
        <ele>81.8828125</ele>
      </trkpt>
      <trkpt lat="41.776359770447016" lon="-8.847371125593781">
        <ele>82.9921875</ele>
      </trkpt>
      <trkpt lat="41.776441242545843" lon="-8.847377579659224">
        <ele>83.98828125</ele>
      </trkpt>
      <trkpt lat="41.776527408510447" lon="-8.847388895228505">
        <ele>85.01953125</ele>
      </trkpt>
      <trkpt lat="41.776607371866703" lon="-8.847407503053546">
        <ele>85.9296875</ele>
      </trkpt>
      <trkpt lat="41.77668591029942" lon="-8.847429379820824">
        <ele>86.8125</ele>
      </trkpt>
      <trkpt lat="41.776771824806929" lon="-8.847454441711307">
        <ele>87.78515625</ele>
      </trkpt>
      <trkpt lat="41.776853380724788" lon="-8.84747807867825">
        <ele>88.71875</ele>
      </trkpt>
      <trkpt lat="41.776949604973197" lon="-8.847485790029168">
        <ele>89.9375</ele>
      </trkpt>
      <trkpt lat="41.777046332135797" lon="-8.84749123826623">
        <ele>91.17578125</ele>
      </trkpt>
      <trkpt lat="41.777137694880366" lon="-8.84749417193234">
        <ele>92.4296875</ele>
      </trkpt>
      <trkpt lat="41.777221513912082" lon="-8.847504146397114">
        <ele>93.5390625</ele>
      </trkpt>
      <trkpt lat="41.777311451733112" lon="-8.847520239651203">
        <ele>94.69921875</ele>
      </trkpt>
      <trkpt lat="41.777390660718083" lon="-8.847540691494942">
        <ele>95.6875</ele>
      </trkpt>
      <trkpt lat="41.777471043169498" lon="-8.847550414502621">
        <ele>96.7421875</ele>
      </trkpt>
      <trkpt lat="41.777555784210563" lon="-8.847567429766059">
        <ele>97.81640625</ele>
      </trkpt>
      <trkpt lat="41.777572548016906" lon="-8.847569776698947">
        <ele>98.03125</ele>
      </trkpt>
      <trkpt lat="41.777896843850613" lon="-8.847623253241181">
        <ele>102.125</ele>
      </trkpt>
      <trkpt lat="41.777987871319056" lon="-8.847645381465554">
        <ele>103.0234375</ele>
      </trkpt>
      <trkpt lat="41.778071438893676" lon="-8.847675640136003">
        <ele>103.75390625</ele>
      </trkpt>
      <trkpt lat="41.778158778324723" lon="-8.847702546045184">
        <ele>104.51953125</ele>
      </trkpt>
      <trkpt lat="41.778244022279978" lon="-8.847710005939007">
        <ele>105.3984375</ele>
      </trkpt>
      <trkpt lat="41.77833354100585" lon="-8.847710005939007">
        <ele>106.375</ele>
      </trkpt>
      <trkpt lat="41.778414594009519" lon="-8.847710005939007">
        <ele>107.265625</ele>
      </trkpt>
      <trkpt lat="41.778500005602837" lon="-8.847719896584749">
        <ele>108.10546875</ele>
      </trkpt>
      <trkpt lat="41.778581393882632" lon="-8.847722243517637">
        <ele>108.96484375</ele>
      </trkpt>
      <trkpt lat="41.778662195429206" lon="-8.847724758088589">
        <ele>109.8203125</ele>
      </trkpt>
      <trkpt lat="41.77874349988997" lon="-8.847759207710624">
        <ele>110.5390625</ele>
      </trkpt>
      <trkpt lat="41.778826648369431" lon="-8.847814025357366">
        <ele>111.37109375</ele>
      </trkpt>
      <trkpt lat="41.778903510421515" lon="-8.847861047834158">
        <ele>112.15625</ele>
      </trkpt>
      <trkpt lat="41.778988419100642" lon="-8.8478934019804">
        <ele>113.2265625</ele>
      </trkpt>
      <trkpt lat="41.779074082151055" lon="-8.84792173281312">
        <ele>114.34375</ele>
      </trkpt>
      <trkpt lat="41.779126804322004" lon="-8.847941514104605">
        <ele>114.99609375</ele>
      </trkpt>
      <trkpt lat="41.779760727658868" lon="-8.848192133009434">
        <ele>122.2109375</ele>
      </trkpt>
      <trkpt lat="41.780258193612099" lon="-8.848358429968357">
        <ele>129.51171875</ele>
      </trkpt>
      <trkpt lat="41.780942408367991" lon="-8.848753301426768">
        <ele>133.015625</ele>
      </trkpt>
      <trkpt lat="41.780942408367991" lon="-8.848755313083529">
        <ele>132.96875</ele>
      </trkpt>
      <trkpt lat="41.78175050765276" lon="-8.848925968632102">
        <ele>139.45703125</ele>
      </trkpt>
      <trkpt lat="41.781749250367284" lon="-8.848925968632102">
        <ele>139.4453125</ele>
      </trkpt>
      <trkpt lat="41.782032893970609" lon="-8.849001573398709">
        <ele>140.99609375</ele>
      </trkpt>
      <trkpt lat="41.782121993601322" lon="-8.849001238122582">
        <ele>141.64453125</ele>
      </trkpt>
      <trkpt lat="41.782208411023021" lon="-8.84900358505547">
        <ele>142.16796875</ele>
      </trkpt>
      <trkpt lat="41.782252667471766" lon="-8.849026886746287">
        <ele>141.97265625</ele>
      </trkpt>
      <trkpt lat="41.782796904444695" lon="-8.849365264177322">
        <ele>139.05859375</ele>
      </trkpt>
      <trkpt lat="41.782883405685425" lon="-8.849411448463798">
        <ele>138.78515625</ele>
      </trkpt>
      <trkpt lat="41.782959932461381" lon="-8.849448161199689">
        <ele>138.17578125</ele>
      </trkpt>
      <trkpt lat="41.783043164759874" lon="-8.849481772631407">
        <ele>137.67578125</ele>
      </trkpt>
      <trkpt lat="41.783136539161205" lon="-8.849501637741923">
        <ele>137.46875</ele>
      </trkpt>
      <trkpt lat="41.783227482810616" lon="-8.849512366577983">
        <ele>137.44140625</ele>
      </trkpt>
      <trkpt lat="41.783328065648675" lon="-8.849494848400354">
        <ele>137.890625</ele>
      </trkpt>
      <trkpt lat="41.78341381251812" lon="-8.849473306909204">
        <ele>138.359375</ele>
      </trkpt>
      <trkpt lat="41.783498972654343" lon="-8.849445898085833">
        <ele>138.8828125</ele>
      </trkpt>
      <trkpt lat="41.78357801400125" lon="-8.84941840544343">
        <ele>139.37109375</ele>
      </trkpt>
      <trkpt lat="41.783657809719443" lon="-8.849394852295518">
        <ele>139.7734375</ele>
      </trkpt>
      <trkpt lat="41.783736515790224" lon="-8.849355792626739">
        <ele>140.1953125</ele>
      </trkpt>
      <trkpt lat="41.783811785280704" lon="-8.849304914474487">
        <ele>140.42578125</ele>
      </trkpt>
      <trkpt lat="41.78388487547636" lon="-8.849244732409716">
        <ele>140.66015625</ele>
      </trkpt>
      <trkpt lat="41.783959474414587" lon="-8.849206510931253">
        <ele>140.546875</ele>
      </trkpt>
      <trkpt lat="41.784041449427605" lon="-8.849158566445112">
        <ele>140.375</ele>
      </trkpt>
      <trkpt lat="41.784118227660656" lon="-8.84910617955029">
        <ele>140.16796875</ele>
      </trkpt>
      <trkpt lat="41.784186540171504" lon="-8.849044740200043">
        <ele>139.98046875</ele>
      </trkpt>
      <trkpt lat="41.784260049462318" lon="-8.848979864269495">
        <ele>139.63671875</ele>
      </trkpt>
      <trkpt lat="41.784339258447289" lon="-8.848936865106225">
        <ele>139</ele>
      </trkpt>
      <trkpt lat="41.784425256773829" lon="-8.848942145705223">
        <ele>138.05078125</ele>
      </trkpt>
      <trkpt lat="41.784464064985514" lon="-8.848959831520915">
        <ele>137.58984375</ele>
      </trkpt>
      <trkpt lat="41.784815434366465" lon="-8.849249761551619">
        <ele>133.7890625</ele>
      </trkpt>
      <trkpt lat="41.784879807382822" lon="-8.84931874461472">
        <ele>133.32421875</ele>
      </trkpt>
      <trkpt lat="41.784943928942084" lon="-8.849391080439091">
        <ele>132.9609375</ele>
      </trkpt>
      <trkpt lat="41.785018360242248" lon="-8.849453693255782">
        <ele>132.57421875</ele>
      </trkpt>
      <trkpt lat="41.785086002200842" lon="-8.849518233910203">
        <ele>132.34375</ele>
      </trkpt>
      <trkpt lat="41.785147860646248" lon="-8.849602304399014">
        <ele>132.328125</ele>
      </trkpt>
      <trkpt lat="41.785191530361772" lon="-8.849706994369626">
        <ele>132.5859375</ele>
      </trkpt>
      <trkpt lat="41.785227069631219" lon="-8.84980590082705">
        <ele>132.90234375</ele>
      </trkpt>
      <trkpt lat="41.785261686891317" lon="-8.849902879446745">
        <ele>133.25390625</ele>
      </trkpt>
      <trkpt lat="41.785305188968778" lon="-8.850002288818359">
        <ele>133.625</ele>
      </trkpt>
      <trkpt lat="41.785351876169443" lon="-8.85012055747211">
        <ele>134.14453125</ele>
      </trkpt>
      <trkpt lat="41.785387499257922" lon="-8.850218625739217">
        <ele>134.48046875</ele>
      </trkpt>
      <trkpt lat="41.785426810383797" lon="-8.850328261032701">
        <ele>134.64453125</ele>
      </trkpt>
      <trkpt lat="41.785450363531709" lon="-8.850434543564916">
        <ele>135.0390625</ele>
      </trkpt>
      <trkpt lat="41.785460337996483" lon="-8.850547531619668">
        <ele>135.28515625</ele>
      </trkpt>
      <trkpt lat="41.78544751368463" lon="-8.850657250732183">
        <ele>135.75</ele>
      </trkpt>
      <trkpt lat="41.785422367975116" lon="-8.850763700902462">
        <ele>136.3046875</ele>
      </trkpt>
      <trkpt lat="41.785402921959758" lon="-8.850878113880754">
        <ele>136.79296875</ele>
      </trkpt>
      <trkpt lat="41.785389091819525" lon="-8.850989509373903">
        <ele>137.1953125</ele>
      </trkpt>
      <trkpt lat="41.785376770421863" lon="-8.851098977029324">
        <ele>137.55859375</ele>
      </trkpt>
      <trkpt lat="41.785373920574784" lon="-8.85120676830411">
        <ele>137.83984375</ele>
      </trkpt>
      <trkpt lat="41.785377189517021" lon="-8.85132453404367">
        <ele>137.796875</ele>
      </trkpt>
      <trkpt lat="41.785392193123698" lon="-8.85143400169909">
        <ele>137.34375</ele>
      </trkpt>
      <trkpt lat="41.785421278327703" lon="-8.851541792973876">
        <ele>136.87890625</ele>
      </trkpt>
      <trkpt lat="41.785438125953078" lon="-8.851664001122117">
        <ele>136.4609375</ele>
      </trkpt>
      <trkpt lat="41.785454470664263" lon="-8.851774223148823">
        <ele>136.12109375</ele>
      </trkpt>
      <trkpt lat="41.785469725728035" lon="-8.851888803765178">
        <ele>135.8046875</ele>
      </trkpt>
      <trkpt lat="41.785501074045897" lon="-8.85199885815382">
        <ele>135.5546875</ele>
      </trkpt>
      <trkpt lat="41.785537535324693" lon="-8.852100279182196">
        <ele>135.40625</ele>
      </trkpt>
      <trkpt lat="41.785575589165092" lon="-8.852195413783193">
        <ele>135.5859375</ele>
      </trkpt>
      <trkpt lat="41.785642225295305" lon="-8.852254673838615">
        <ele>135.92578125</ele>
      </trkpt>
      <trkpt lat="41.785717662423849" lon="-8.852287530899048">
        <ele>136.328125</ele>
      </trkpt>
      <trkpt lat="41.785801313817501" lon="-8.852289626374841">
        <ele>136.7109375</ele>
      </trkpt>
      <trkpt lat="41.785890497267246" lon="-8.852256182581186">
        <ele>136.953125</ele>
      </trkpt>
      <trkpt lat="41.785968532785773" lon="-8.852226343005896">
        <ele>137.10546875</ele>
      </trkpt>
      <trkpt lat="41.786050507798791" lon="-8.852197760716081">
        <ele>137.2265625</ele>
      </trkpt>
      <trkpt lat="41.786129213869572" lon="-8.852161299437284">
        <ele>137.2265625</ele>
      </trkpt>
      <trkpt lat="41.786202471703291" lon="-8.852117713540792">
        <ele>137.08203125</ele>
      </trkpt>
      <trkpt lat="41.786269778385758" lon="-8.852053927257657">
        <ele>136.42578125</ele>
      </trkpt>
      <trkpt lat="41.786349322646856" lon="-8.852008664980531">
        <ele>135.765625</ele>
      </trkpt>
      <trkpt lat="41.786428363993764" lon="-8.851986704394221">
        <ele>135.20703125</ele>
      </trkpt>
      <trkpt lat="41.78651075810194" lon="-8.851986955851316">
        <ele>134.75390625</ele>
      </trkpt>
      <trkpt lat="41.786594577133656" lon="-8.851992152631283">
        <ele>134.33203125</ele>
      </trkpt>
      <trkpt lat="41.78665635176003" lon="-8.851913614198565">
        <ele>133.4140625</ele>
      </trkpt>
      <trkpt lat="41.786697003990412" lon="-8.851817976683378">
        <ele>132.4453125</ele>
      </trkpt>
      <trkpt lat="41.786749893799424" lon="-8.85172569192946">
        <ele>131.3671875</ele>
      </trkpt>
      <trkpt lat="41.786825079470873" lon="-8.851687889546156">
        <ele>130.52734375</ele>
      </trkpt>
      <trkpt lat="41.78690261207521" lon="-8.851712448522449">
        <ele>130.18359375</ele>
      </trkpt>
      <trkpt lat="41.786981401965022" lon="-8.851745976135135">
        <ele>129.9375</ele>
      </trkpt>
      <trkpt lat="41.787062957882881" lon="-8.85178972966969">
        <ele>129.72265625</ele>
      </trkpt>
      <trkpt lat="41.787138814106584" lon="-8.851821329444647">
        <ele>129.265625</ele>
      </trkpt>
      <trkpt lat="41.787219448015094" lon="-8.851865585893393">
        <ele>128.89453125</ele>
      </trkpt>
      <trkpt lat="41.787303937599063" lon="-8.851902633905411">
        <ele>128.42578125</ele>
      </trkpt>
      <trkpt lat="41.78739077411592" lon="-8.851933060213923">
        <ele>127.87109375</ele>
      </trkpt>
      <trkpt lat="41.787468725815415" lon="-8.851970275864005">
        <ele>127.484375</ele>
      </trkpt>
      <trkpt lat="41.787546509876847" lon="-8.851990308612585">
        <ele>126.9296875</ele>
      </trkpt>
      <trkpt lat="41.787627227604389" lon="-8.852019477635622">
        <ele>126.4453125</ele>
      </trkpt>
      <trkpt lat="41.787709118798375" lon="-8.852031044661999">
        <ele>125.76953125</ele>
      </trkpt>
      <trkpt lat="41.787790926173329" lon="-8.852031044661999">
        <ele>124.9765625</ele>
      </trkpt>
      <trkpt lat="41.787870638072491" lon="-8.852010341361165">
        <ele>123.9765625</ele>
      </trkpt>
      <trkpt lat="41.787946494296193" lon="-8.851969353854656">
        <ele>122.7890625</ele>
      </trkpt>
      <trkpt lat="41.787979938089848" lon="-8.85192945599556">
        <ele>122.02734375</ele>
      </trkpt>
      <trkpt lat="41.788153946399689" lon="-8.851791908964515">
        <ele>118.765625</ele>
      </trkpt>
      <trkpt lat="41.788226366043091" lon="-8.851736169308424">
        <ele>117.40625</ele>
      </trkpt>
      <trkpt lat="41.788303898647428" lon="-8.851706329733133">
        <ele>116.28125</ele>
      </trkpt>
      <trkpt lat="41.788385035470128" lon="-8.851675484329462">
        <ele>115.09765625</ele>
      </trkpt>
      <trkpt lat="41.788468938320875" lon="-8.851651344448328">
        <ele>113.95703125</ele>
      </trkpt>
      <trkpt lat="41.788549739867449" lon="-8.851626953110099">
        <ele>112.84375</ele>
      </trkpt>
      <trkpt lat="41.788630122318864" lon="-8.851609099656343">
        <ele>111.80078125</ele>
      </trkpt>
      <trkpt lat="41.788715701550245" lon="-8.851632652804255">
        <ele>111.21875</ele>
      </trkpt>
      <trkpt lat="41.788797676563263" lon="-8.851656205952168">
        <ele>110.796875</ele>
      </trkpt>
      <trkpt lat="41.788874035701156" lon="-8.851675651967525">
        <ele>110.39453125</ele>
      </trkpt>
      <trkpt lat="41.788955172523856" lon="-8.851688392460346">
        <ele>109.875</ele>
      </trkpt>
      <trkpt lat="41.789037063717842" lon="-8.851665174588561">
        <ele>108.86328125</ele>
      </trkpt>
      <trkpt lat="41.789114763960242" lon="-8.8516406994313">
        <ele>107.84765625</ele>
      </trkpt>
      <trkpt lat="41.789188273251057" lon="-8.851590491831303">
        <ele>106.46484375</ele>
      </trkpt>
      <trkpt lat="41.789254741743207" lon="-8.851512456312776">
        <ele>104.68359375</ele>
      </trkpt>
      <trkpt lat="41.789322467520833" lon="-8.851441126316786">
        <ele>102.9375</ele>
      </trkpt>
      <trkpt lat="41.789408214390278" lon="-8.851419249549508">
        <ele>101.7421875</ele>
      </trkpt>
      <trkpt lat="41.78948893211782" lon="-8.851421931758523">
        <ele>100.98046875</ele>
      </trkpt>
      <trkpt lat="41.789589179679751" lon="-8.851429726928473">
        <ele>100.203125</ele>
      </trkpt>
      <trkpt lat="41.789680710062385" lon="-8.851442551240325">
        <ele>99.67578125</ele>
      </trkpt>
      <trkpt lat="41.789761176332831" lon="-8.851468367502093">
        <ele>99.4609375</ele>
      </trkpt>
      <trkpt lat="41.789843654260039" lon="-8.851500302553177">
        <ele>99.33984375</ele>
      </trkpt>
      <trkpt lat="41.789923869073391" lon="-8.851513545960188">
        <ele>98.921875</ele>
      </trkpt>
      <trkpt lat="41.790021182969213" lon="-8.851518826559186">
        <ele>98.23046875</ele>
      </trkpt>
      <trkpt lat="41.790105756372213" lon="-8.851511618122458">
        <ele>97.421875</ele>
      </trkpt>
      <trkpt lat="41.790160741657019" lon="-8.851507175713778">
        <ele>96.90234375</ele>
      </trkpt>
      <trkpt lat="41.790905557572842" lon="-8.851476833224297">
        <ele>91.60546875</ele>
      </trkpt>
      <trkpt lat="41.791357342153788" lon="-8.851386308670044">
        <ele>87.05859375</ele>
      </trkpt>
      <trkpt lat="41.791442669928074" lon="-8.8513816986233">
        <ele>86.35546875</ele>
      </trkpt>
      <trkpt lat="41.791541492566466" lon="-8.851378681138158">
        <ele>85.58203125</ele>
      </trkpt>
      <trkpt lat="41.791624221950769" lon="-8.851371724158525">
        <ele>84.85546875</ele>
      </trkpt>
      <trkpt lat="41.791709130629897" lon="-8.85135630145669">
        <ele>83.9453125</ele>
      </trkpt>
      <trkpt lat="41.791792614385486" lon="-8.851341297850013">
        <ele>83.0546875</ele>
      </trkpt>
      <trkpt lat="41.791873667389154" lon="-8.851328892633319">
        <ele>82.234375</ele>
      </trkpt>
      <trkpt lat="41.79196142591536" lon="-8.851318750530481">
        <ele>81.40625</ele>
      </trkpt>
      <trkpt lat="41.792040467262268" lon="-8.85128790512681">
        <ele>80.24609375</ele>
      </trkpt>
      <trkpt lat="41.792109701782465" lon="-8.851218167692423">
        <ele>78.75</ele>
      </trkpt>
      <trkpt lat="41.792160160839558" lon="-8.851134851574898">
        <ele>77.32421875</ele>
      </trkpt>
      <trkpt lat="41.792214140295982" lon="-8.851047595962882">
        <ele>75.8515625</ele>
      </trkpt>
      <trkpt lat="41.792279770597816" lon="-8.850978193804622">
        <ele>74.55078125</ele>
      </trkpt>
      <trkpt lat="41.792357051745057" lon="-8.850936535745859">
        <ele>73.55078125</ele>
      </trkpt>
      <trkpt lat="41.792420586571097" lon="-8.850857662037015">
        <ele>72.19921875</ele>
      </trkpt>
      <trkpt lat="41.792469620704651" lon="-8.850774597376585">
        <ele>70.91015625</ele>
      </trkpt>
      <trkpt lat="41.792548578232527" lon="-8.850731682032347">
        <ele>69.953125</ele>
      </trkpt>
      <trkpt lat="41.792627954855561" lon="-8.85070544667542">
        <ele>69.203125</ele>
      </trkpt>
      <trkpt lat="41.792708588764071" lon="-8.850678792223334">
        <ele>68.453125</ele>
      </trkpt>
      <trkpt lat="41.792790396139026" lon="-8.8506546523422">
        <ele>67.73828125</ele>
      </trkpt>
      <trkpt lat="41.79287220351398" lon="-8.850638223811984">
        <ele>67.12109375</ele>
      </trkpt>
      <trkpt lat="41.792951915413141" lon="-8.85062288492918">
        <ele>66.625</ele>
      </trkpt>
      <trkpt lat="41.793031459674239" lon="-8.850605450570583">
        <ele>66.1171875</ele>
      </trkpt>
      <trkpt lat="41.793110920116305" lon="-8.850582903251052">
        <ele>65.56640625</ele>
      </trkpt>
      <trkpt lat="41.793193565681577" lon="-8.850566474720836">
        <ele>65.0703125</ele>
      </trkpt>
      <trkpt lat="41.793274031952024" lon="-8.850555159151554">
        <ele>64.64453125</ele>
      </trkpt>
      <trkpt lat="41.793348463252187" lon="-8.85059991851449">
        <ele>64.7734375</ele>
      </trkpt>
      <trkpt lat="41.793421385809779" lon="-8.850659681484103">
        <ele>65.02734375</ele>
      </trkpt>
      <trkpt lat="41.793500343337655" lon="-8.850686755031347">
        <ele>64.9375</ele>
      </trkpt>
      <trkpt lat="41.793590197339654" lon="-8.850701171904802">
        <ele>64.67578125</ele>
      </trkpt>
      <trkpt lat="41.793676866218448" lon="-8.850703937932849">
        <ele>64.3203125</ele>
      </trkpt>
      <trkpt lat="41.793757332488894" lon="-8.850693460553885">
        <ele>63.90625</ele>
      </trkpt>
      <trkpt lat="41.793846096843481" lon="-8.850670075044036">
        <ele>63.359375</ele>
      </trkpt>
      <trkpt lat="41.793929412961006" lon="-8.850640570744872">
        <ele>62.79296875</ele>
      </trkpt>
      <trkpt lat="41.794009041041136" lon="-8.85061064735055">
        <ele>62.24609375</ele>
      </trkpt>
      <trkpt lat="41.794087495654821" lon="-8.850585334002972">
        <ele>61.74609375</ele>
      </trkpt>
      <trkpt lat="41.794169889762998" lon="-8.850572174414992">
        <ele>61.33203125</ele>
      </trkpt>
      <trkpt lat="41.794251697137952" lon="-8.850569659844041">
        <ele>61</ele>
      </trkpt>
      <trkpt lat="41.79433124139905" lon="-8.850582232698798">
        <ele>60.79296875</ele>
      </trkpt>
      <trkpt lat="41.794414892792702" lon="-8.850611485540867">
        <ele>60.69140625</ele>
      </trkpt>
      <trkpt lat="41.79448907263577" lon="-8.850650126114488">
        <ele>60.6875</ele>
      </trkpt>
      <trkpt lat="41.794574400410056" lon="-8.850663872435689">
        <ele>60.41796875</ele>
      </trkpt>
      <trkpt lat="41.794654615223408" lon="-8.850649120286107">
        <ele>59.92578125</ele>
      </trkpt>
      <trkpt lat="41.794738601893187" lon="-8.850626656785607">
        <ele>59.359375</ele>
      </trkpt>
      <trkpt lat="41.794819738715887" lon="-8.850604193285108">
        <ele>58.80859375</ele>
      </trkpt>
      <trkpt lat="41.794901546090841" lon="-8.850581478327513">
        <ele>58.25390625</ele>
      </trkpt>
      <trkpt lat="41.794982682913542" lon="-8.850562116131186">
        <ele>57.72265625</ele>
      </trkpt>
      <trkpt lat="41.795062646269798" lon="-8.850551135838032">
        <ele>57.26171875</ele>
      </trkpt>
      <trkpt lat="41.79514386691153" lon="-8.850536216050386">
        <ele>56.76171875</ele>
      </trkpt>
      <trkpt lat="41.795203881338239" lon="-8.850592877715826">
        <ele>56.8828125</ele>
      </trkpt>
      <trkpt lat="41.795218884944916" lon="-8.85060528293252">
        <ele>56.8984375</ele>
      </trkpt>
      <trkpt lat="41.795449471101165" lon="-8.850915748625994">
        <ele>57.6640625</ele>
      </trkpt>
      <trkpt lat="41.795507976785302" lon="-8.850993867963552">
        <ele>57.63671875</ele>
      </trkpt>
      <trkpt lat="41.795576876029372" lon="-8.851077100262046">
        <ele>57.5</ele>
      </trkpt>
      <trkpt lat="41.795640997588634" lon="-8.851152202114463">
        <ele>57.31640625</ele>
      </trkpt>
      <trkpt lat="41.795707549899817" lon="-8.851221268996596">
        <ele>57.02734375</ele>
      </trkpt>
      <trkpt lat="41.79578005336225" lon="-8.851321684196591">
        <ele>56.6015625</ele>
      </trkpt>
      <trkpt lat="41.795843252912164" lon="-8.851418327540159">
        <ele>55.984375</ele>
      </trkpt>
      <trkpt lat="41.795907961204648" lon="-8.851487813517451">
        <ele>55.265625</ele>
      </trkpt>
      <trkpt lat="41.795985493808985" lon="-8.851524777710438">
        <ele>54.3359375</ele>
      </trkpt>
      <trkpt lat="41.796069061383605" lon="-8.851563250645995">
        <ele>53.29296875</ele>
      </trkpt>
      <trkpt lat="41.796153718605638" lon="-8.851574147120118">
        <ele>52.2265625</ele>
      </trkpt>
      <trkpt lat="41.79624323733151" lon="-8.851571632549167">
        <ele>51.28125</ele>
      </trkpt>
      <trkpt lat="41.796324541792274" lon="-8.851564927026629">
        <ele>50.6015625</ele>
      </trkpt>
      <trkpt lat="41.796407606452703" lon="-8.851550174877048">
        <ele>49.9296875</ele>
      </trkpt>
      <trkpt lat="41.796488827094436" lon="-8.851533746346831">
        <ele>49.28515625</ele>
      </trkpt>
      <trkpt lat="41.796572646126151" lon="-8.851536260917783">
        <ele>48.58203125</ele>
      </trkpt>
      <trkpt lat="41.796653866767883" lon="-8.851550677791238">
        <ele>47.859375</ele>
      </trkpt>
      <trkpt lat="41.796736344695091" lon="-8.851562580093741">
        <ele>47.125</ele>
      </trkpt>
      <trkpt lat="41.796817230060697" lon="-8.851565010845661">
        <ele>46.4296875</ele>
      </trkpt>
      <trkpt lat="41.796896858140826" lon="-8.851530980318785">
        <ele>45.8984375</ele>
      </trkpt>
      <trkpt lat="41.796976905316114" lon="-8.851522598415613">
        <ele>45.2734375</ele>
      </trkpt>
      <trkpt lat="41.797060556709766" lon="-8.85154782794416">
        <ele>44.5078125</ele>
      </trkpt>
      <trkpt lat="41.797138005495071" lon="-8.851586133241653">
        <ele>43.82421875</ele>
      </trkpt>
      <trkpt lat="41.797216208651662" lon="-8.851622845977545">
        <ele>43.1328125</ele>
      </trkpt>
      <trkpt lat="41.797287371009588" lon="-8.851678585633636">
        <ele>42.3828125</ele>
      </trkpt>
      <trkpt lat="41.797350905835629" lon="-8.851743629202247">
        <ele>41.62109375</ele>
      </trkpt>
      <trkpt lat="41.79737932048738" lon="-8.851780593395233">
        <ele>41.234375</ele>
      </trkpt>
      <trkpt lat="41.797796906903386" lon="-8.851931970566511">
        <ele>37.53125</ele>
      </trkpt>
      <trkpt lat="41.800106707960367" lon="-8.852092567831278">
        <ele>21.2734375</ele>
      </trkpt>
      <trkpt lat="41.802357165142894" lon="-8.852205891162157">
        <ele>13.14453125</ele>
      </trkpt>
      <trkpt lat="41.80235842242837" lon="-8.852205891162157">
        <ele>13.140625</ele>
      </trkpt>
      <trkpt lat="41.803191164508462" lon="-8.852246291935444">
        <ele>11.60546875</ele>
      </trkpt>
      <trkpt lat="41.803191164508462" lon="-8.852244364097714">
        <ele>11.60546875</ele>
      </trkpt>
      <trkpt lat="41.803582096472383" lon="-8.852288201451302">
        <ele>11.13671875</ele>
      </trkpt>
      <trkpt lat="41.803671531379223" lon="-8.852287949994206">
        <ele>11.03125</ele>
      </trkpt>
      <trkpt lat="41.803749315440655" lon="-8.852259619161487">
        <ele>10.8203125</ele>
      </trkpt>
      <trkpt lat="41.803803378716111" lon="-8.852187534794211">
        <ele>10.625</ele>
      </trkpt>
      <trkpt lat="41.803837912157178" lon="-8.85208535939455">
        <ele>10.4453125</ele>
      </trkpt>
      <trkpt lat="41.803883593529463" lon="-8.851993242278695">
        <ele>10.11328125</ele>
      </trkpt>
      <trkpt lat="41.803959952667356" lon="-8.851935910061002">
        <ele>9.76953125</ele>
      </trkpt>
      <trkpt lat="41.804032539948821" lon="-8.851876482367516">
        <ele>9.45703125</ele>
      </trkpt>
      <trkpt lat="41.804103031754494" lon="-8.851799955591559">
        <ele>9.15625</ele>
      </trkpt>
      <trkpt lat="41.80415365844965" lon="-8.851715717464685">
        <ele>8.9296875</ele>
      </trkpt>
      <trkpt lat="41.804200932383537" lon="-8.851624438539147">
        <ele>8.7265625</ele>
      </trkpt>
      <trkpt lat="41.804243428632617" lon="-8.851522179320455">
        <ele>8.546875</ele>
      </trkpt>
      <trkpt lat="41.804298665374517" lon="-8.851438444107771">
        <ele>8.38671875</ele>
      </trkpt>
      <trkpt lat="41.804357087239623" lon="-8.851365773007274">
        <ele>8.25</ele>
      </trkpt>
      <trkpt lat="41.804440570995212" lon="-8.851325120776892">
        <ele>8.1171875</ele>
      </trkpt>
      <trkpt lat="41.804472170770168" lon="-8.851306848227978">
        <ele>8.07421875</ele>
      </trkpt>
      <trkpt lat="41.804783726111054" lon="-8.851147843524814">
        <ele>7.38671875</ele>
      </trkpt>
      <trkpt lat="41.804867628961802" lon="-8.851127894595265">
        <ele>7.1875</ele>
      </trkpt>
      <trkpt lat="41.804949101060629" lon="-8.851082967594266">
        <ele>6.9921875</ele>
      </trkpt>
      <trkpt lat="41.805003834888339" lon="-8.85099864564836">
        <ele>6.859375</ele>
      </trkpt>
      <trkpt lat="41.805037194862962" lon="-8.850899990648031">
        <ele>6.77734375</ele>
      </trkpt>
      <trkpt lat="41.805079104378819" lon="-8.850805778056383">
        <ele>6.6796875</ele>
      </trkpt>
      <trkpt lat="41.805085893720388" lon="-8.850801670923829">
        <ele>6.6640625</ele>
      </trkpt>
      <trkpt lat="41.805273313075304" lon="-8.850633529946208">
        <ele>6.2109375</ele>
      </trkpt>
      <trkpt lat="41.805362245067954" lon="-8.850577371194959">
        <ele>6</ele>
      </trkpt>
      <trkpt lat="41.805439107120037" lon="-8.850528169423342">
        <ele>5.90625</ele>
      </trkpt>
      <trkpt lat="41.80552233941853" lon="-8.850497491657734">
        <ele>5.80859375</ele>
      </trkpt>
      <trkpt lat="41.805606577545404" lon="-8.850468993186951">
        <ele>5.70703125</ele>
      </trkpt>
      <trkpt lat="41.805678242817521" lon="-8.850416773930192">
        <ele>5.6484375</ele>
      </trkpt>
      <trkpt lat="41.805720403790474" lon="-8.850324656814337">
        <ele>5.70703125</ele>
      </trkpt>
      <trkpt lat="41.805762983858585" lon="-8.850227762013674">
        <ele>5.7734375</ele>
      </trkpt>
      <trkpt lat="41.805816041305661" lon="-8.850128939375281">
        <ele>5.828125</ele>
      </trkpt>
      <trkpt lat="41.805873457342386" lon="-8.850053166970611">
        <ele>5.8515625</ele>
      </trkpt>
      <trkpt lat="41.805946128442883" lon="-8.849997259676456">
        <ele>5.83203125</ele>
      </trkpt>
      <trkpt lat="41.806016871705651" lon="-8.849945962429047">
        <ele>5.80859375</ele>
      </trkpt>
      <trkpt lat="41.806092476472259" lon="-8.849901286885142">
        <ele>5.76953125</ele>
      </trkpt>
      <trkpt lat="41.806173529475927" lon="-8.849874883890152">
        <ele>5.703125</ele>
      </trkpt>
      <trkpt lat="41.806262126192451" lon="-8.849855605512857">
        <ele>5.64453125</ele>
      </trkpt>
      <trkpt lat="41.806346280500293" lon="-8.849848564714193">
        <ele>5.58203125</ele>
      </trkpt>
      <trkpt lat="41.806431440636516" lon="-8.849834315478802">
        <ele>5.51953125</ele>
      </trkpt>
      <trkpt lat="41.806520204991102" lon="-8.849824508652091">
        <ele>5.44921875</ele>
      </trkpt>
      <trkpt lat="41.806609304621816" lon="-8.849824592471123">
        <ele>5.37109375</ele>
      </trkpt>
      <trkpt lat="41.806691363453865" lon="-8.849837752059102">
        <ele>5.29296875</ele>
      </trkpt>
      <trkpt lat="41.806775098666549" lon="-8.849860718473792">
        <ele>5.2109375</ele>
      </trkpt>
      <trkpt lat="41.806852631270885" lon="-8.849892988801003">
        <ele>5.13671875</ele>
      </trkpt>
      <trkpt lat="41.806923961266875" lon="-8.849968258291483">
        <ele>5.0703125</ele>
      </trkpt>
      <trkpt lat="41.806988250464201" lon="-8.850041516125202">
        <ele>5.0234375</ele>
      </trkpt>
      <trkpt lat="41.807057987898588" lon="-8.850112678483129">
        <ele>5.07421875</ele>
      </trkpt>
      <trkpt lat="41.807126803323627" lon="-8.850173028185964">
        <ele>5.23828125</ele>
      </trkpt>
      <trkpt lat="41.807191679254174" lon="-8.850238993763924">
        <ele>5.39453125</ele>
      </trkpt>
      <trkpt lat="41.807249514386058" lon="-8.850315269082785">
        <ele>5.53515625</ele>
      </trkpt>
      <trkpt lat="41.807309444993734" lon="-8.850390538573265">
        <ele>5.67578125</ele>
      </trkpt>
      <trkpt lat="41.807382199913263" lon="-8.850452480837703">
        <ele>5.87109375</ele>
      </trkpt>
      <trkpt lat="41.807459816336632" lon="-8.85048458352685">
        <ele>6.1171875</ele>
      </trkpt>
      <trkpt lat="41.807548580691218" lon="-8.850500676780939">
        <ele>6.3671875</ele>
      </trkpt>
      <trkpt lat="41.807632567360997" lon="-8.850519955158234">
        <ele>6.6171875</ele>
      </trkpt>
      <trkpt lat="41.80771823041141" lon="-8.850559098646045">
        <ele>6.91796875</ele>
      </trkpt>
      <trkpt lat="41.807798445224762" lon="-8.850597068667412">
        <ele>7.21484375</ele>
      </trkpt>
      <trkpt lat="41.807876145467162" lon="-8.85062581859529">
        <ele>7.5390625</ele>
      </trkpt>
      <trkpt lat="41.807959377765656" lon="-8.850641325116158">
        <ele>8.078125</ele>
      </trkpt>
      <trkpt lat="41.808043615892529" lon="-8.850641325116158">
        <ele>8.58203125</ele>
      </trkpt>
      <trkpt lat="41.808129949495196" lon="-8.850638726726174">
        <ele>9.09375</ele>
      </trkpt>
      <trkpt lat="41.808212343603373" lon="-8.850649120286107">
        <ele>9.61328125</ele>
      </trkpt>
      <trkpt lat="41.808297419920564" lon="-8.850663704797626">
        <ele>10.16015625</ele>
      </trkpt>
      <trkpt lat="41.808378472924232" lon="-8.850691867992282">
        <ele>10.71484375</ele>
      </trkpt>
      <trkpt lat="41.808463046327233" lon="-8.850729921832681">
        <ele>11.3125</ele>
      </trkpt>
      <trkpt lat="41.808543931692839" lon="-8.850769903510809">
        <ele>11.89453125</ele>
      </trkpt>
      <trkpt lat="41.808620626106858" lon="-8.850830253213644">
        <ele>12.5</ele>
      </trkpt>
      <trkpt lat="41.808692291378975" lon="-8.850897559896111">
        <ele>13.09375</ele>
      </trkpt>
      <trkpt lat="41.808766974136233" lon="-8.850961178541183">
        <ele>13.60546875</ele>
      </trkpt>
      <trkpt lat="41.808840064331889" lon="-8.851039046421647">
        <ele>14.14453125</ele>
      </trkpt>
      <trkpt lat="41.80890217423439" lon="-8.85112714022398">
        <ele>14.65234375</ele>
      </trkpt>
      <trkpt lat="41.80896763689816" lon="-8.851212300360203">
        <ele>15.171875</ele>
      </trkpt>
      <trkpt lat="41.809023795649409" lon="-8.85129083879292">
        <ele>15.57421875</ele>
      </trkpt>
      <trkpt lat="41.809091353788972" lon="-8.851378345862031">
        <ele>15.79296875</ele>
      </trkpt>
      <trkpt lat="41.80915136821568" lon="-8.85146233253181">
        <ele>15.953125</ele>
      </trkpt>
      <trkpt lat="41.809210544452071" lon="-8.851536512374878">
        <ele>16.09375</ele>
      </trkpt>
      <trkpt lat="41.809275168925524" lon="-8.85162309743464">
        <ele>16.2109375</ele>
      </trkpt>
      <trkpt lat="41.809336440637708" lon="-8.851707587018609">
        <ele>16.28515625</ele>
      </trkpt>
      <trkpt lat="41.809389581903815" lon="-8.851793920621276">
        <ele>16.30078125</ele>
      </trkpt>
      <trkpt lat="41.809432245790958" lon="-8.851889725774527">
        <ele>16.23828125</ele>
      </trkpt>
      <trkpt lat="41.809483794495463" lon="-8.852000618353486">
        <ele>16.140625</ele>
      </trkpt>
      <trkpt lat="41.809529978781939" lon="-8.852112265303731">
        <ele>15.9921875</ele>
      </trkpt>
      <trkpt lat="41.809569373726845" lon="-8.852211087942123">
        <ele>15.80859375</ele>
      </trkpt>
      <trkpt lat="41.809609858319163" lon="-8.852312425151467">
        <ele>15.6328125</ele>
      </trkpt>
      <trkpt lat="41.809656880795956" lon="-8.852435974404216">
        <ele>15.4296875</ele>
      </trkpt>
      <trkpt lat="41.809693090617657" lon="-8.852538233622909">
        <ele>15.26953125</ele>
      </trkpt>
      <trkpt lat="41.809729970991611" lon="-8.852634793147445">
        <ele>15.1328125</ele>
      </trkpt>
      <trkpt lat="41.809751261025667" lon="-8.852671673521399">
        <ele>15.09765625</ele>
      </trkpt>
      <trkpt lat="41.810054518282413" lon="-8.853301405906677">
        <ele>14.3984375</ele>
      </trkpt>
      <trkpt lat="41.810119561851025" lon="-8.853404838591814">
        <ele>14.30859375</ele>
      </trkpt>
      <trkpt lat="41.810173457488418" lon="-8.853490585461259">
        <ele>14.23046875</ele>
      </trkpt>
      <trkpt lat="41.810223078355193" lon="-8.853578511625528">
        <ele>14.140625</ele>
      </trkpt>
      <trkpt lat="41.810280745849013" lon="-8.853681609034538">
        <ele>14.03125</ele>
      </trkpt>
      <trkpt lat="41.810337323695421" lon="-8.853771043941379">
        <ele>13.953125</ele>
      </trkpt>
      <trkpt lat="41.810394823551178" lon="-8.853873386979103">
        <ele>13.8046875</ele>
      </trkpt>
      <trkpt lat="41.810441091656685" lon="-8.853984111919999">
        <ele>13.60546875</ele>
      </trkpt>
      <trkpt lat="41.810483168810606" lon="-8.854077318683267">
        <ele>13.4453125</ele>
      </trkpt>
      <trkpt lat="41.81053320877254" lon="-8.854170273989439">
        <ele>13.3046875</ele>
      </trkpt>
      <trkpt lat="41.81058693677187" lon="-8.854259708896279">
        <ele>13.1796875</ele>
      </trkpt>
      <trkpt lat="41.810613675042987" lon="-8.85436624288559">
        <ele>12.8671875</ele>
      </trkpt>
      <trkpt lat="41.810621554031968" lon="-8.854478728026152">
        <ele>12.44921875</ele>
      </trkpt>
      <trkpt lat="41.810630774125457" lon="-8.854586854577065">
        <ele>12.05078125</ele>
      </trkpt>
      <trkpt lat="41.810666816309094" lon="-8.854694310575724">
        <ele>11.7890625</ele>
      </trkpt>
      <trkpt lat="41.810695147141814" lon="-8.854797324165702">
        <ele>11.51953125</ele>
      </trkpt>
      <trkpt lat="41.810725992545485" lon="-8.854916514828801">
        <ele>11.19921875</ele>
      </trkpt>
      <trkpt lat="41.810765638947487" lon="-8.855076860636473">
        <ele>10.765625</ele>
      </trkpt>
      <trkpt lat="41.810786426067352" lon="-8.855182640254498">
        <ele>10.4609375</ele>
      </trkpt>
      <trkpt lat="41.810833029448986" lon="-8.855310380458832">
        <ele>10.16796875</ele>
      </trkpt>
      <trkpt lat="41.810874687507749" lon="-8.855416243895888">
        <ele>9.9375</ele>
      </trkpt>
      <trkpt lat="41.810917016118765" lon="-8.855513641610742">
        <ele>9.921875</ele>
      </trkpt>
      <trkpt lat="41.810959344729781" lon="-8.85561715811491">
        <ele>9.94921875</ele>
      </trkpt>
      <trkpt lat="41.811001757159829" lon="-8.85571732185781">
        <ele>9.98046875</ele>
      </trkpt>
      <trkpt lat="41.811038218438625" lon="-8.855818659067154">
        <ele>9.9921875</ele>
      </trkpt>
      <trkpt lat="41.811090521514416" lon="-8.855936424806714">
        <ele>10.0390625</ele>
      </trkpt>
      <trkpt lat="41.811135616153479" lon="-8.856051927432418">
        <ele>10.0625</ele>
      </trkpt>
      <trkpt lat="41.811170484870672" lon="-8.856158964335918">
        <ele>10.05859375</ele>
      </trkpt>
      <trkpt lat="41.811209712177515" lon="-8.856253596022725">
        <ele>10.109375</ele>
      </trkpt>
      <trkpt lat="41.811236618086696" lon="-8.85636281222105">
        <ele>9.98828125</ele>
      </trkpt>
      <trkpt lat="41.811251705512404" lon="-8.856472112238407">
        <ele>9.7890625</ele>
      </trkpt>
      <trkpt lat="41.811255142092705" lon="-8.856590799987316">
        <ele>9.5078125</ele>
      </trkpt>
      <trkpt lat="41.811220608651638" lon="-8.856684425845742">
        <ele>9.12890625</ele>
      </trkpt>
      <trkpt lat="41.811165288090706" lon="-8.856764389201999">
        <ele>8.73828125</ele>
      </trkpt>
      <trkpt lat="41.811119858175516" lon="-8.856858937069774">
        <ele>8.390625</ele>
      </trkpt>
      <trkpt lat="41.811068644747138" lon="-8.856944348663092">
        <ele>8.05859375</ele>
      </trkpt>
      <trkpt lat="41.811013743281364" lon="-8.857011906802654">
        <ele>7.76953125</ele>
      </trkpt>
      <trkpt lat="41.810926236212254" lon="-8.856980139389634">
        <ele>7.61328125</ele>
      </trkpt>
      <trkpt lat="41.810844680294394" lon="-8.856955412775278">
        <ele>7.44921875</ele>
      </trkpt>
      <trkpt lat="41.810767315328121" lon="-8.856981061398983">
        <ele>7.19921875</ele>
      </trkpt>
      <trkpt lat="41.810720209032297" lon="-8.857066640630364">
        <ele>6.93359375</ele>
      </trkpt>
      <trkpt lat="41.810704451054335" lon="-8.857179125770926">
        <ele>6.703125</ele>
      </trkpt>
      <trkpt lat="41.810695398598909" lon="-8.857292365282774">
        <ele>6.48828125</ele>
      </trkpt>
      <trkpt lat="41.810689279809594" lon="-8.857401162385941">
        <ele>6.29296875</ele>
      </trkpt>
      <trkpt lat="41.81069883517921" lon="-8.857514569535851">
        <ele>6.12109375</ele>
      </trkpt>
      <trkpt lat="41.810711408033967" lon="-8.857623366639018">
        <ele>5.95703125</ele>
      </trkpt>
      <trkpt lat="41.810688776895404" lon="-8.857729732990265">
        <ele>5.7421875</ele>
      </trkpt>
      <trkpt lat="41.810648879036307" lon="-8.857826627790928">
        <ele>5.52734375</ele>
      </trkpt>
      <trkpt lat="41.810608729720116" lon="-8.857930898666382">
        <ele>5.30859375</ele>
      </trkpt>
      <trkpt lat="41.810554582625628" lon="-8.858049418777227">
        <ele>5.09765625</ele>
      </trkpt>
      <trkpt lat="41.810502279549837" lon="-8.858142960816622">
        <ele>4.92578125</ele>
      </trkpt>
      <trkpt lat="41.81044427677989" lon="-8.858219403773546">
        <ele>4.76171875</ele>
      </trkpt>
      <trkpt lat="41.810397589579225" lon="-8.858305988833308">
        <ele>4.6015625</ele>
      </trkpt>
      <trkpt lat="41.810383591800928" lon="-8.858414869755507">
        <ele>4.45703125</ele>
      </trkpt>
      <trkpt lat="41.810420053079724" lon="-8.858517296612263">
        <ele>4.375</ele>
      </trkpt>
      <trkpt lat="41.810473445802927" lon="-8.858614275231957">
        <ele>4.32421875</ele>
      </trkpt>
      <trkpt lat="41.810526167973876" lon="-8.858697507530451">
        <ele>4.2890625</ele>
      </trkpt>
      <trkpt lat="41.810538405552506" lon="-8.858720473945141">
        <ele>4.2734375</ele>
      </trkpt>
      <trkpt lat="41.811308618634939" lon="-8.85968598537147">
        <ele>5.1953125</ele>
      </trkpt>
      <trkpt lat="41.811308702453971" lon="-8.859688080847263">
        <ele>5.19140625</ele>
      </trkpt>
      <trkpt lat="41.811924437060952" lon="-8.86046776548028">
        <ele>6.59765625</ele>
      </trkpt>
      <trkpt lat="41.81192577816546" lon="-8.86046776548028">
        <ele>6.6015625</ele>
      </trkpt>
      <trkpt lat="41.812517121434212" lon="-8.861224399879575">
        <ele>8.359375</ele>
      </trkpt>
      <trkpt lat="41.812536148354411" lon="-8.861246192827821">
        <ele>8.453125</ele>
      </trkpt>
      <trkpt lat="41.812734212726355" lon="-8.861582558602095">
        <ele>9.35546875</ele>
      </trkpt>
      <trkpt lat="41.812735553830862" lon="-8.861580630764365">
        <ele>9.36328125</ele>
      </trkpt>
      <trkpt lat="41.813614396378398" lon="-8.862766167148948">
        <ele>12.0390625</ele>
      </trkpt>
      <trkpt lat="41.813614396378398" lon="-8.862766250967979">
        <ele>12.0390625</ele>
      </trkpt>
      <trkpt lat="41.813243497163057" lon="-8.864360908046365">
        <ele>4.84375</ele>
      </trkpt>
      <trkpt lat="41.813246179372072" lon="-8.864358980208635">
        <ele>4.8671875</ele>
      </trkpt>
      <trkpt lat="41.814226526767015" lon="-8.865773258730769">
        <ele>4.23046875</ele>
      </trkpt>
      <trkpt lat="41.814226526767015" lon="-8.86577527038753">
        <ele>4.21875</ele>
      </trkpt>
      <trkpt lat="41.814596001058817" lon="-8.86620132252574">
        <ele>3.65625</ele>
      </trkpt>
      <trkpt lat="41.814640006050467" lon="-8.866290673613548">
        <ele>3.46875</ele>
      </trkpt>
      <trkpt lat="41.814692728221416" lon="-8.866381449624896">
        <ele>3.39453125</ele>
      </trkpt>
      <trkpt lat="41.814766908064485" lon="-8.866465603932738">
        <ele>3.44921875</ele>
      </trkpt>
      <trkpt lat="41.814830442890525" lon="-8.866535676643252">
        <ele>3.5</ele>
      </trkpt>
      <trkpt lat="41.814895905554295" lon="-8.866601977497339">
        <ele>3.578125</ele>
      </trkpt>
      <trkpt lat="41.814966313540936" lon="-8.866657968610525">
        <ele>3.71484375</ele>
      </trkpt>
      <trkpt lat="41.81504619307816" lon="-8.866674900054932">
        <ele>4.03515625</ele>
      </trkpt>
      <trkpt lat="41.815128084272146" lon="-8.866669703274965">
        <ele>4.44921875</ele>
      </trkpt>
      <trkpt lat="41.815214082598686" lon="-8.866654615849257">
        <ele>4.9140625</ele>
      </trkpt>
      <trkpt lat="41.815302511677146" lon="-8.866633325815201">
        <ele>5.41796875</ele>
      </trkpt>
      <trkpt lat="41.815412482246757" lon="-8.866619663313031">
        <ele>6.12890625</ele>
      </trkpt>
      <trkpt lat="41.815503761172295" lon="-8.866613628342748">
        <ele>6.80859375</ele>
      </trkpt>
      <trkpt lat="41.815591854974627" lon="-8.866624524816871">
        <ele>7.40625</ele>
      </trkpt>
      <trkpt lat="41.815659161657095" lon="-8.866687389090657">
        <ele>7.6640625</ele>
      </trkpt>
      <trkpt lat="41.815727977082133" lon="-8.86676324531436">
        <ele>7.88671875</ele>
      </trkpt>
      <trkpt lat="41.815785560756922" lon="-8.866851255297661">
        <ele>7.984375</ele>
      </trkpt>
      <trkpt lat="41.815829481929541" lon="-8.866951586678624">
        <ele>7.9375</ele>
      </trkpt>
      <trkpt lat="41.815871810540557" lon="-8.867046218365431">
        <ele>7.90234375</ele>
      </trkpt>
      <trkpt lat="41.815910199657083" lon="-8.867158368229866">
        <ele>7.703125</ele>
      </trkpt>
      <trkpt lat="41.815950935706496" lon="-8.86726900935173">
        <ele>7.43359375</ele>
      </trkpt>
      <trkpt lat="41.816008184105158" lon="-8.867406388744712">
        <ele>7.0859375</ele>
      </trkpt>
      <trkpt lat="41.816064342856407" lon="-8.867531279101968">
        <ele>6.734375</ele>
      </trkpt>
      <trkpt lat="41.81611186824739" lon="-8.867623396217823">
        <ele>6.46484375</ele>
      </trkpt>
      <trkpt lat="41.81614313274622" lon="-8.867722135037184">
        <ele>6.046875</ele>
      </trkpt>
      <trkpt lat="41.816181354224682" lon="-8.86785339564085">
        <ele>5.43359375</ele>
      </trkpt>
      <trkpt lat="41.816216306760907" lon="-8.867969820275903">
        <ele>4.9921875</ele>
      </trkpt>
      <trkpt lat="41.816260311752558" lon="-8.868071911856532">
        <ele>4.8359375</ele>
      </trkpt>
      <trkpt lat="41.816296437755227" lon="-8.868173584342003">
        <ele>4.640625</ele>
      </trkpt>
      <trkpt lat="41.816339939832687" lon="-8.868264947086573">
        <ele>4.5234375</ele>
      </trkpt>
      <trkpt lat="41.8163928296417" lon="-8.868351113051176">
        <ele>4.46484375</ele>
      </trkpt>
      <trkpt lat="41.816444797441363" lon="-8.868455719202757">
        <ele>4.33984375</ele>
      </trkpt>
      <trkpt lat="41.816496094688773" lon="-8.8685467466712">
        <ele>4.2578125</ele>
      </trkpt>
      <trkpt lat="41.816523503512144" lon="-8.868586393073201">
        <ele>4.24609375</ele>
      </trkpt>
      <trkpt lat="41.816789209842682" lon="-8.869114201515913">
        <ele>3.85546875</ele>
      </trkpt>
      <trkpt lat="41.816834639757872" lon="-8.869213443249464">
        <ele>3.72265625</ele>
      </trkpt>
      <trkpt lat="41.816914519295096" lon="-8.869375381618738">
        <ele>3.46875</ele>
      </trkpt>
      <trkpt lat="41.816960200667381" lon="-8.869471186771989">
        <ele>3.28125</ele>
      </trkpt>
      <trkpt lat="41.817005882039666" lon="-8.86956699192524">
        <ele>3.06640625</ele>
      </trkpt>
      <trkpt lat="41.817054329439998" lon="-8.869661623612046">
        <ele>2.95703125</ele>
      </trkpt>
      <trkpt lat="41.817112499848008" lon="-8.869763882830739">
        <ele>2.90234375</ele>
      </trkpt>
      <trkpt lat="41.81717611849308" lon="-8.869848204776645">
        <ele>2.89453125</ele>
      </trkpt>
      <trkpt lat="41.817240407690406" lon="-8.869939399883151">
        <ele>2.85546875</ele>
      </trkpt>
      <trkpt lat="41.817292291671038" lon="-8.870024811476469">
        <ele>2.77734375</ele>
      </trkpt>
      <trkpt lat="41.817348282784224" lon="-8.870118604972959">
        <ele>2.67578125</ele>
      </trkpt>
      <trkpt lat="41.817406117916107" lon="-8.870193539187312">
        <ele>2.62109375</ele>
      </trkpt>
      <trkpt lat="41.817474262788892" lon="-8.870255146175623">
        <ele>2.6171875</ele>
      </trkpt>
      <trkpt lat="41.817549616098404" lon="-8.870307030156255">
        <ele>2.65234375</ele>
      </trkpt>
      <trkpt lat="41.81762270629406" lon="-8.870354555547237">
        <ele>2.6875</ele>
      </trkpt>
      <trkpt lat="41.817702082917094" lon="-8.870396967977285">
        <ele>2.7421875</ele>
      </trkpt>
      <trkpt lat="41.817772407084703" lon="-8.870466789230704">
        <ele>2.71875</ele>
      </trkpt>
      <trkpt lat="41.817805515602231" lon="-8.870506770908833">
        <ele>2.703125</ele>
      </trkpt>
      <trkpt lat="41.818571956828237" lon="-8.871232643723488">
        <ele>2.79296875</ele>
      </trkpt>
      <trkpt lat="41.818571956828237" lon="-8.871234655380249">
        <ele>2.7890625</ele>
      </trkpt>
      <trkpt lat="41.819533361122012" lon="-8.872128836810589">
        <ele>2.96484375</ele>
      </trkpt>
      <trkpt lat="41.819533361122012" lon="-8.872126908972859">
        <ele>2.96875</ele>
      </trkpt>
      <trkpt lat="41.819915659725666" lon="-8.872519517317414">
        <ele>3.1640625</ele>
      </trkpt>
      <trkpt lat="41.819994198158383" lon="-8.872573664411902">
        <ele>3.23046875</ele>
      </trkpt>
      <trkpt lat="41.820065611973405" lon="-8.872639127075672">
        <ele>3.23046875</ele>
      </trkpt>
      <trkpt lat="41.820142893120646" lon="-8.872687155380845">
        <ele>3.2890625</ele>
      </trkpt>
      <trkpt lat="41.820230148732662" lon="-8.872713809832931">
        <ele>3.4375</ele>
      </trkpt>
      <trkpt lat="41.820318074896932" lon="-8.87271917425096">
        <ele>3.65625</ele>
      </trkpt>
      <trkpt lat="41.820404408499599" lon="-8.872721940279007">
        <ele>3.81640625</ele>
      </trkpt>
      <trkpt lat="41.82048512622714" lon="-8.872724287211895">
        <ele>3.9296875</ele>
      </trkpt>
      <trkpt lat="41.820568609982729" lon="-8.872735099866986">
        <ele>4.01171875</ele>
      </trkpt>
      <trkpt lat="41.820655278861523" lon="-8.872746163979173">
        <ele>4.09375</ele>
      </trkpt>
      <trkpt lat="41.820745887234807" lon="-8.872756054624915">
        <ele>4.1875</ele>
      </trkpt>
      <trkpt lat="41.820829622447491" lon="-8.872767118737102">
        <ele>4.2578125</ele>
      </trkpt>
      <trkpt lat="41.820915620774031" lon="-8.87277876958251">
        <ele>4.33203125</ele>
      </trkpt>
      <trkpt lat="41.821006396785378" lon="-8.872790420427918">
        <ele>4.40625</ele>
      </trkpt>
      <trkpt lat="41.821089126169682" lon="-8.872809782624245">
        <ele>4.43359375</ele>
      </trkpt>
      <trkpt lat="41.82116724550724" lon="-8.872833419591188">
        <ele>4.42578125</ele>
      </trkpt>
      <trkpt lat="41.821245364844799" lon="-8.872856888920069">
        <ele>4.48828125</ele>
      </trkpt>
      <trkpt lat="41.82132801041007" lon="-8.872872898355126">
        <ele>4.61328125</ele>
      </trkpt>
      <trkpt lat="41.821409147232771" lon="-8.87289016507566">
        <ele>4.7265625</ele>
      </trkpt>
      <trkpt lat="41.821490619331598" lon="-8.87291313149035">
        <ele>4.8046875</ele>
      </trkpt>
      <trkpt lat="41.821573516353965" lon="-8.872935511171818">
        <ele>4.8984375</ele>
      </trkpt>
      <trkpt lat="41.821668734773993" lon="-8.872989155352116">
        <ele>4.89453125</ele>
      </trkpt>
      <trkpt lat="41.821745429188013" lon="-8.873043889179826">
        <ele>4.83203125</ele>
      </trkpt>
      <trkpt lat="41.821827404201031" lon="-8.873082278296351">
        <ele>4.83984375</ele>
      </trkpt>
      <trkpt lat="41.821910887956619" lon="-8.873121086508036">
        <ele>4.83984375</ele>
      </trkpt>
      <trkpt lat="41.821994874626398" lon="-8.873154195025563">
        <ele>4.859375</ele>
      </trkpt>
      <trkpt lat="41.822085734456778" lon="-8.873183950781822">
        <ele>4.82421875</ele>
      </trkpt>
      <trkpt lat="41.822176678106189" lon="-8.873208090662956">
        <ele>4.77734375</ele>
      </trkpt>
      <trkpt lat="41.822264268994331" lon="-8.873231643810868">
        <ele>4.7265625</ele>
      </trkpt>
      <trkpt lat="41.822342053055763" lon="-8.873263159766793">
        <ele>4.6171875</ele>
      </trkpt>
      <trkpt lat="41.822427799925208" lon="-8.873298950493336">
        <ele>4.48828125</ele>
      </trkpt>
      <trkpt lat="41.82251145131886" lon="-8.873338764533401">
        <ele>4.32421875</ele>
      </trkpt>
      <trkpt lat="41.822604741901159" lon="-8.873385116457939">
        <ele>4.1171875</ele>
      </trkpt>
      <trkpt lat="41.822691662237048" lon="-8.873432977125049">
        <ele>3.88671875</ele>
      </trkpt>
      <trkpt lat="41.822765087708831" lon="-8.873480837792158">
        <ele>3.640625</ele>
      </trkpt>
      <trkpt lat="41.822847314178944" lon="-8.873523250222206">
        <ele>3.41796875</ele>
      </trkpt>
      <trkpt lat="41.822927109897137" lon="-8.873563231900334">
        <ele>3.2734375</ele>
      </trkpt>
      <trkpt lat="41.823002127930522" lon="-8.87360405176878">
        <ele>3.1171875</ele>
      </trkpt>
      <trkpt lat="41.823087204247713" lon="-8.873649314045906">
        <ele>2.94921875</ele>
      </trkpt>
      <trkpt lat="41.823174376040697" lon="-8.873684434220195">
        <ele>2.83984375</ele>
      </trkpt>
      <trkpt lat="41.823256183415651" lon="-8.873706059530377">
        <ele>2.80859375</ele>
      </trkpt>
      <trkpt lat="41.823341930285096" lon="-8.873713267967105">
        <ele>2.87109375</ele>
      </trkpt>
      <trkpt lat="41.823395323008299" lon="-8.873702371492982">
        <ele>3</ele>
      </trkpt>
      <trkpt lat="41.823585676029325" lon="-8.873651996254921">
        <ele>3.53125</ele>
      </trkpt>
      <trkpt lat="41.82366899214685" lon="-8.873610673472285">
        <ele>3.87890625</ele>
      </trkpt>
      <trkpt lat="41.823752224445343" lon="-8.873567758128047">
        <ele>4.13671875</ele>
      </trkpt>
      <trkpt lat="41.823824224993587" lon="-8.873513694852591">
        <ele>4.4296875</ele>
      </trkpt>
      <trkpt lat="41.823897985741496" lon="-8.873468181118369">
        <ele>4.66015625</ele>
      </trkpt>
      <trkpt lat="41.823981050401926" lon="-8.87345745228231">
        <ele>4.6875</ele>
      </trkpt>
      <trkpt lat="41.824066294357181" lon="-8.873457200825214">
        <ele>4.65234375</ele>
      </trkpt>
      <trkpt lat="41.824154891073704" lon="-8.873436413705349">
        <ele>4.72265625</ele>
      </trkpt>
      <trkpt lat="41.824234267696738" lon="-8.873417805880308">
        <ele>4.78125</ele>
      </trkpt>
      <trkpt lat="41.824315907433629" lon="-8.873412776738405">
        <ele>4.76953125</ele>
      </trkpt>
      <trkpt lat="41.824402743950486" lon="-8.873420404270291">
        <ele>4.6875</ele>
      </trkpt>
      <trkpt lat="41.824483964592218" lon="-8.873430546373129">
        <ele>4.59765625</ele>
      </trkpt>
      <trkpt lat="41.824570801109076" lon="-8.873437670990825">
        <ele>4.41796875</ele>
      </trkpt>
      <trkpt lat="41.824651854112744" lon="-8.873435324057937">
        <ele>4.234375</ele>
      </trkpt>
      <trkpt lat="41.82473860681057" lon="-8.873421242460608">
        <ele>4.09375</ele>
      </trkpt>
      <trkpt lat="41.824819995090365" lon="-8.873393414542079">
        <ele>4.03125</ele>
      </trkpt>
      <trkpt lat="41.824891995638609" lon="-8.873344883322716">
        <ele>4.09375</ele>
      </trkpt>
      <trkpt lat="41.824894677847624" lon="-8.873346894979477">
        <ele>4.07421875</ele>
      </trkpt>
      <trkpt lat="41.825507562607527" lon="-8.872999884188175">
        <ele>4.4765625</ele>
      </trkpt>
      <trkpt lat="41.825508819893003" lon="-8.872999884188175">
        <ele>4.4765625</ele>
      </trkpt>
      <trkpt lat="41.825890867039561" lon="-8.872745325788856">
        <ele>5.51953125</ele>
      </trkpt>
      <trkpt lat="41.825890867039561" lon="-8.872749600559473">
        <ele>5.4921875</ele>
      </trkpt>
      <trkpt lat="41.827329788357019" lon="-8.872859068214893">
        <ele>5.1328125</ele>
      </trkpt>
      <trkpt lat="41.827329788357019" lon="-8.872861079871655">
        <ele>5.12109375</ele>
      </trkpt>
      <trkpt lat="41.82828214019537" lon="-8.872942551970482">
        <ele>7.48828125</ele>
      </trkpt>
      <trkpt lat="41.82828214019537" lon="-8.872944563627243">
        <ele>7.48046875</ele>
      </trkpt>
      <trkpt lat="41.828406611457467" lon="-8.873060317710042">
        <ele>7.37109375</ele>
      </trkpt>
      <trkpt lat="41.828464362770319" lon="-8.873154614120722">
        <ele>7.12890625</ele>
      </trkpt>
      <trkpt lat="41.828514905646443" lon="-8.873243378475308">
        <ele>6.8828125</ele>
      </trkpt>
      <trkpt lat="41.828570896759629" lon="-8.873325856402516">
        <ele>6.6875</ele>
      </trkpt>
      <trkpt lat="41.828635353595018" lon="-8.873397521674633">
        <ele>6.578125</ele>
      </trkpt>
      <trkpt lat="41.828700983896852" lon="-8.87347262352705">
        <ele>6.4453125</ele>
      </trkpt>
      <trkpt lat="41.828763345256448" lon="-8.873540097847581">
        <ele>6.328125</ele>
      </trkpt>
      <trkpt lat="41.828836351633072" lon="-8.873623330146074">
        <ele>6.1875</ele>
      </trkpt>
      <trkpt lat="41.828911453485489" lon="-8.873671106994152">
        <ele>6.2265625</ele>
      </trkpt>
      <trkpt lat="41.828980520367622" lon="-8.873730199411511">
        <ele>6.2109375</ele>
      </trkpt>
      <trkpt lat="41.82905025780201" lon="-8.873786525800824">
        <ele>6.234375</ele>
      </trkpt>
      <trkpt lat="41.829121671617031" lon="-8.873846204951406">
        <ele>6.27734375</ele>
      </trkpt>
      <trkpt lat="41.829195097088814" lon="-8.873910158872604">
        <ele>6.3125</ele>
      </trkpt>
      <trkpt lat="41.829268606379628" lon="-8.873957265168428">
        <ele>6.40625</ele>
      </trkpt>
      <trkpt lat="41.829347983002663" lon="-8.873987859115005">
        <ele>6.58203125</ele>
      </trkpt>
      <trkpt lat="41.829433143138885" lon="-8.874016525223851">
        <ele>6.78515625</ele>
      </trkpt>
      <trkpt lat="41.829521656036377" lon="-8.874041587114334">
        <ele>7</ele>
      </trkpt>
      <trkpt lat="41.8296068161726" lon="-8.874065894633532">
        <ele>7.05078125</ele>
      </trkpt>
      <trkpt lat="41.829690299928188" lon="-8.874097159132361">
        <ele>7.08203125</ele>
      </trkpt>
      <trkpt lat="41.829747296869755" lon="-8.874119622632861">
        <ele>7.10546875</ele>
      </trkpt>
      <trkpt lat="41.830045692622662" lon="-8.874132698401809">
        <ele>7.58203125</ele>
      </trkpt>
      <trkpt lat="41.830143593251705" lon="-8.874141247943044">
        <ele>7.73046875</ele>
      </trkpt>
      <trkpt lat="41.830237470567226" lon="-8.874161783605814">
        <ele>7.83984375</ele>
      </trkpt>
      <trkpt lat="41.830318858847022" lon="-8.874181229621172">
        <ele>7.9375</ele>
      </trkpt>
      <trkpt lat="41.830405360087752" lon="-8.87420117855072">
        <ele>7.97265625</ele>
      </trkpt>
      <trkpt lat="41.83049026876688" lon="-8.874212326481938">
        <ele>7.9921875</ele>
      </trkpt>
      <trkpt lat="41.830571489408612" lon="-8.874217858538032">
        <ele>8.0234375</ele>
      </trkpt>
      <trkpt lat="41.830657823011279" lon="-8.874220456928015">
        <ele>8.0625</ele>
      </trkpt>
      <trkpt lat="41.830746335908771" lon="-8.874215092509985">
        <ele>8.125</ele>
      </trkpt>
      <trkpt lat="41.830832920968533" lon="-8.874201932922006">
        <ele>8.2109375</ele>
      </trkpt>
      <trkpt lat="41.830914644524455" lon="-8.874187180772424">
        <ele>8.3046875</ele>
      </trkpt>
      <trkpt lat="41.831002151593566" lon="-8.874171758070588">
        <ele>8.41015625</ele>
      </trkpt>
      <trkpt lat="41.831090832129121" lon="-8.8741469476372">
        <ele>8.55078125</ele>
      </trkpt>
      <trkpt lat="41.831179428845644" lon="-8.874120712280273">
        <ele>8.69921875</ele>
      </trkpt>
      <trkpt lat="41.831258554011583" lon="-8.874098416417837">
        <ele>8.8359375</ele>
      </trkpt>
      <trkpt lat="41.831347402185202" lon="-8.874081904068589">
        <ele>8.96484375</ele>
      </trkpt>
      <trkpt lat="41.831438345834613" lon="-8.874063044786453">
        <ele>9.10546875</ele>
      </trkpt>
      <trkpt lat="41.83151981793344" lon="-8.874047789722681">
        <ele>9.23046875</ele>
      </trkpt>
      <trkpt lat="41.831606570631266" lon="-8.874042928218842">
        <ele>9.3203125</ele>
      </trkpt>
      <trkpt lat="41.831689886748791" lon="-8.87404041364789">
        <ele>9.39453125</ele>
      </trkpt>
      <trkpt lat="41.831775968894362" lon="-8.874037731438875">
        <ele>9.4765625</ele>
      </trkpt>
      <trkpt lat="41.831859368830919" lon="-8.874026415869594">
        <ele>9.59375</ele>
      </trkpt>
      <trkpt lat="41.831948133185506" lon="-8.874001689255238">
        <ele>9.78515625</ele>
      </trkpt>
      <trkpt lat="41.832036478444934" lon="-8.873982829973102">
        <ele>9.94921875</ele>
      </trkpt>
      <trkpt lat="41.832130691036582" lon="-8.873967407271266">
        <ele>10.109375</ele>
      </trkpt>
      <trkpt lat="41.832220293581486" lon="-8.873947039246559">
        <ele>10.296875</ele>
      </trkpt>
      <trkpt lat="41.832301514223218" lon="-8.873923821374774">
        <ele>10.4921875</ele>
      </trkpt>
      <trkpt lat="41.832380052655935" lon="-8.873870093375444">
        <ele>10.85546875</ele>
      </trkpt>
      <trkpt lat="41.832436798140407" lon="-8.873792979866266">
        <ele>11.33203125</ele>
      </trkpt>
      <trkpt lat="41.832492705434561" lon="-8.87369885109365">
        <ele>11.796875</ele>
      </trkpt>
      <trkpt lat="41.832552636042237" lon="-8.873619642108679">
        <ele>12.15625</ele>
      </trkpt>
      <trkpt lat="41.832607788965106" lon="-8.873540349304676">
        <ele>12.5078125</ele>
      </trkpt>
      <trkpt lat="41.832667803391814" lon="-8.873468181118369">
        <ele>12.83984375</ele>
      </trkpt>
      <trkpt lat="41.832739636301994" lon="-8.873415291309357">
        <ele>13.11328125</ele>
      </trkpt>
      <trkpt lat="41.832832004874945" lon="-8.873355695977807">
        <ele>13.44140625</ele>
      </trkpt>
      <trkpt lat="41.832913057878613" lon="-8.873334908857942">
        <ele>13.57421875</ele>
      </trkpt>
      <trkpt lat="41.833002073690295" lon="-8.873329712077975">
        <ele>13.6484375</ele>
      </trkpt>
      <trkpt lat="41.833083378151059" lon="-8.873336333781481">
        <ele>13.671875</ele>
      </trkpt>
      <trkpt lat="41.833094693720341" lon="-8.873338345438242">
        <ele>13.671875</ele>
      </trkpt>
      <trkpt lat="41.833468610420823" lon="-8.873358462005854">
        <ele>13.80859375</ele>
      </trkpt>
      <trkpt lat="41.833554022014141" lon="-8.873384697362781">
        <ele>13.734375</ele>
      </trkpt>
      <trkpt lat="41.833632895722985" lon="-8.873412692919374">
        <ele>13.64453125</ele>
      </trkpt>
      <trkpt lat="41.833715122193098" lon="-8.873433563858271">
        <ele>13.56640625</ele>
      </trkpt>
      <trkpt lat="41.833795001730323" lon="-8.873448567464948">
        <ele>13.49609375</ele>
      </trkpt>
      <trkpt lat="41.833800366148353" lon="-8.873450579121709">
        <ele>13.484375</ele>
      </trkpt>
      <trkpt lat="41.83434552513063" lon="-8.873540684580803">
        <ele>13.0546875</ele>
      </trkpt>
      <trkpt lat="41.834428422152996" lon="-8.87355225160718">
        <ele>12.99609375</ele>
      </trkpt>
      <trkpt lat="41.834509810432792" lon="-8.873571781441569">
        <ele>12.90234375</ele>
      </trkpt>
      <trkpt lat="41.834596479311585" lon="-8.873593155294657">
        <ele>12.69921875</ele>
      </trkpt>
      <trkpt lat="41.834680968895555" lon="-8.873601201921701">
        <ele>12.55859375</ele>
      </trkpt>
      <trkpt lat="41.834762189537287" lon="-8.873606566339731">
        <ele>12.43359375</ele>
      </trkpt>
      <trkpt lat="41.834849193692207" lon="-8.873608913272619">
        <ele>12.3203125</ele>
      </trkpt>
      <trkpt lat="41.834935946390033" lon="-8.873608913272619">
        <ele>12.21484375</ele>
      </trkpt>
      <trkpt lat="41.83502085506916" lon="-8.873608913272619">
        <ele>12.11328125</ele>
      </trkpt>
      <trkpt lat="41.835112469270825" lon="-8.873608913272619">
        <ele>12.00390625</ele>
      </trkpt>
      <trkpt lat="41.835201485082507" lon="-8.873608913272619">
        <ele>11.89453125</ele>
      </trkpt>
      <trkpt lat="41.83529888279736" lon="-8.873608577996492">
        <ele>11.78125</ele>
      </trkpt>
      <trkpt lat="41.835382953286171" lon="-8.873600112274289">
        <ele>11.671875</ele>
      </trkpt>
      <trkpt lat="41.835464173927903" lon="-8.873592568561435">
        <ele>11.515625</ele>
      </trkpt>
      <trkpt lat="41.835545562207699" lon="-8.873575469478965">
        <ele>11.40234375</ele>
      </trkpt>
      <trkpt lat="41.83563063852489" lon="-8.873553341254592">
        <ele>11.30078125</ele>
      </trkpt>
      <trkpt lat="41.835715379565954" lon="-8.873531129211187">
        <ele>11.20703125</ele>
      </trkpt>
      <trkpt lat="41.835801964625716" lon="-8.873514616861939">
        <ele>11.078125</ele>
      </trkpt>
      <trkpt lat="41.835895422846079" lon="-8.873500702902675">
        <ele>10.91796875</ele>
      </trkpt>
      <trkpt lat="41.835980080068111" lon="-8.873484944924712">
        <ele>10.79296875</ele>
      </trkpt>
      <trkpt lat="41.836060965433717" lon="-8.873467929661274">
        <ele>10.6796875</ele>
      </trkpt>
      <trkpt lat="41.836147047579288" lon="-8.87345016002655">
        <ele>10.55859375</ele>
      </trkpt>
      <trkpt lat="41.836230279877782" lon="-8.873436413705349">
        <ele>10.46484375</ele>
      </trkpt>
      <trkpt lat="41.8363156914711" lon="-8.873429037630558">
        <ele>10.35546875</ele>
      </trkpt>
      <trkpt lat="41.836402108892798" lon="-8.873426355421543">
        <ele>10.22265625</ele>
      </trkpt>
      <trkpt lat="41.836483748629689" lon="-8.873424092307687">
        <ele>10.09375</ele>
      </trkpt>
      <trkpt lat="41.836568489670753" lon="-8.873421577736735">
        <ele>9.9609375</ele>
      </trkpt>
      <trkpt lat="41.836653063073754" lon="-8.873411938548088">
        <ele>9.859375</ele>
      </trkpt>
      <trkpt lat="41.836735457181931" lon="-8.873406574130058">
        <ele>9.7421875</ele>
      </trkpt>
      <trkpt lat="41.836826568469405" lon="-8.873406574130058">
        <ele>9.5859375</ele>
      </trkpt>
      <trkpt lat="41.836912482976913" lon="-8.87340665794909">
        <ele>9.4375</ele>
      </trkpt>
      <trkpt lat="41.837001414969563" lon="-8.873401209712029">
        <ele>9.3046875</ele>
      </trkpt>
      <trkpt lat="41.837089257314801" lon="-8.873383523896337">
        <ele>9.3046875</ele>
      </trkpt>
      <trkpt lat="41.837177854031324" lon="-8.873365083709359">
        <ele>9.31640625</ele>
      </trkpt>
      <trkpt lat="41.837262762710452" lon="-8.873340776190162">
        <ele>9.359375</ele>
      </trkpt>
      <trkpt lat="41.837345911189914" lon="-8.873323341831565">
        <ele>9.37890625</ele>
      </trkpt>
      <trkpt lat="41.837426964193583" lon="-8.873298699036241">
        <ele>9.4375</ele>
      </trkpt>
      <trkpt lat="41.837508101016283" lon="-8.873276067897677">
        <ele>9.4921875</ele>
      </trkpt>
      <trkpt lat="41.837594686076045" lon="-8.873249832540751">
        <ele>9.56640625</ele>
      </trkpt>
      <trkpt lat="41.837660651654005" lon="-8.873225105926394">
        <ele>9.6484375</ele>
      </trkpt>
      <trkpt lat="41.83787003159523" lon="-8.873150339350104">
        <ele>9.89453125</ele>
      </trkpt>
      <trkpt lat="41.837948737666011" lon="-8.873117817565799">
        <ele>9.95703125</ele>
      </trkpt>
      <trkpt lat="41.838037166744471" lon="-8.873079344630241">
        <ele>10.03515625</ele>
      </trkpt>
      <trkpt lat="41.83811629191041" lon="-8.873037686571479">
        <ele>10.140625</ele>
      </trkpt>
      <trkpt lat="41.83819298632443" lon="-8.873000554740429">
        <ele>10.2265625</ele>
      </trkpt>
      <trkpt lat="41.838272027671337" lon="-8.872960489243269">
        <ele>10.32421875</ele>
      </trkpt>
      <trkpt lat="41.838355092331767" lon="-8.872925788164139">
        <ele>10.390625</ele>
      </trkpt>
      <trkpt lat="41.838444527238607" lon="-8.872898295521736">
        <ele>10.4296875</ele>
      </trkpt>
      <trkpt lat="41.8385243229568" lon="-8.872875077649951">
        <ele>10.46875</ele>
      </trkpt>
      <trkpt lat="41.838606465607882" lon="-8.872849009931087">
        <ele>10.53515625</ele>
      </trkpt>
      <trkpt lat="41.838694391772151" lon="-8.872826127335429">
        <ele>10.60546875</ele>
      </trkpt>
      <trkpt lat="41.83877544477582" lon="-8.872806094586849">
        <ele>10.7265625</ele>
      </trkpt>
      <trkpt lat="41.838858341798186" lon="-8.872786983847618">
        <ele>10.83984375</ele>
      </trkpt>
      <trkpt lat="41.838949536904693" lon="-8.872769214212894">
        <ele>10.94921875</ele>
      </trkpt>
      <trkpt lat="41.839033355936408" lon="-8.872761335223913">
        <ele>10.99609375</ele>
      </trkpt>
      <trkpt lat="41.839131591841578" lon="-8.872744990512729">
        <ele>11.09375</ele>
      </trkpt>
      <trkpt lat="41.839220272377133" lon="-8.872734680771828">
        <ele>11.15625</ele>
      </trkpt>
      <trkpt lat="41.839301493018866" lon="-8.872724203392863">
        <ele>11.21875</ele>
      </trkpt>
      <trkpt lat="41.839382713660598" lon="-8.872706852853298">
        <ele>11.32421875</ele>
      </trkpt>
      <trkpt lat="41.839464688673615" lon="-8.872693944722414">
        <ele>11.3984375</ele>
      </trkpt>
      <trkpt lat="41.839544819667935" lon="-8.872682461515069">
        <ele>11.3671875</ele>
      </trkpt>
      <trkpt lat="41.839628973975778" lon="-8.872658153995872">
        <ele>11.27734375</ele>
      </trkpt>
      <trkpt lat="41.839715139940381" lon="-8.872618172317743">
        <ele>11.265625</ele>
      </trkpt>
      <trkpt lat="41.839799461886287" lon="-8.872582549229264">
        <ele>11.22265625</ele>
      </trkpt>
      <trkpt lat="41.839879592880607" lon="-8.872550865635276">
        <ele>11.1640625</ele>
      </trkpt>
      <trkpt lat="41.839964753016829" lon="-8.872508453205228">
        <ele>11.140625</ele>
      </trkpt>
      <trkpt lat="41.840044464915991" lon="-8.87247827835381">
        <ele>11.05859375</ele>
      </trkpt>
      <trkpt lat="41.840129373595119" lon="-8.872443493455648">
        <ele>10.9765625</ele>
      </trkpt>
      <trkpt lat="41.84020908549428" lon="-8.872407115995884">
        <ele>10.91015625</ele>
      </trkpt>
      <trkpt lat="41.84028678573668" lon="-8.87237417511642">
        <ele>10.828125</ele>
      </trkpt>
      <trkpt lat="41.840360043570399" lon="-8.872335199266672">
        <ele>10.765625</ele>
      </trkpt>
      <trkpt lat="41.840380830690265" lon="-8.872309802100062">
        <ele>10.8046875</ele>
      </trkpt>
      <trkpt lat="41.840846110135317" lon="-8.87202775105834">
        <ele>10.44921875</ele>
      </trkpt>
      <trkpt lat="41.841253051534295" lon="-8.871763050556183">
        <ele>9.80859375</ele>
      </trkpt>
      <trkpt lat="41.841253051534295" lon="-8.871763134375215">
        <ele>9.80859375</ele>
      </trkpt>
      <trkpt lat="41.841481123119593" lon="-8.871619636192918">
        <ele>9.23046875</ele>
      </trkpt>
      <trkpt lat="41.841486152261496" lon="-8.87160262092948">
        <ele>9.26953125</ele>
      </trkpt>
      <trkpt lat="41.841885047033429" lon="-8.871007254347205">
        <ele>9.80078125</ele>
      </trkpt>
      <trkpt lat="41.841885047033429" lon="-8.871009266003966">
        <ele>9.79296875</ele>
      </trkpt>
      <trkpt lat="41.842435821890831" lon="-8.870366374030709">
        <ele>9.12890625</ele>
      </trkpt>
      <trkpt lat="41.842507822439075" lon="-8.87028431519866">
        <ele>8.90625</ele>
      </trkpt>
      <trkpt lat="41.842571021988988" lon="-8.870213823392987">
        <ele>8.703125</ele>
      </trkpt>
      <trkpt lat="41.842642603442073" lon="-8.870135536417365">
        <ele>8.46875</ele>
      </trkpt>
      <trkpt lat="41.842708317562938" lon="-8.870063871145248">
        <ele>8.25390625</ele>
      </trkpt>
      <trkpt lat="41.842772690579295" lon="-8.869989439845085">
        <ele>8.05859375</ele>
      </trkpt>
      <trkpt lat="41.842844691127539" lon="-8.869903944432735">
        <ele>7.85546875</ele>
      </trkpt>
      <trkpt lat="41.842906549572945" lon="-8.869828591123223">
        <ele>7.75390625</ele>
      </trkpt>
      <trkpt lat="41.842971006408334" lon="-8.86975072324276">
        <ele>7.6484375</ele>
      </trkpt>
      <trkpt lat="41.843037558719516" lon="-8.869672771543264">
        <ele>7.53125</ele>
      </trkpt>
      <trkpt lat="41.843098411336541" lon="-8.869595909491181">
        <ele>7.44140625</ele>
      </trkpt>
      <trkpt lat="41.843159096315503" lon="-8.869516029953957">
        <ele>7.421875</ele>
      </trkpt>
      <trkpt lat="41.843222379684448" lon="-8.869438245892525">
        <ele>7.3671875</ele>
      </trkpt>
      <trkpt lat="41.843279879540205" lon="-8.869358031079173">
        <ele>7.34375</ele>
      </trkpt>
      <trkpt lat="41.843344839289784" lon="-8.869282174855471">
        <ele>7.23828125</ele>
      </trkpt>
      <trkpt lat="41.84340518899262" lon="-8.869212018325925">
        <ele>7.12890625</ele>
      </trkpt>
      <trkpt lat="41.843476016074419" lon="-8.869157871231437">
        <ele>6.875</ele>
      </trkpt>
      <trkpt lat="41.84357475489378" lon="-8.869145549833775">
        <ele>6.265625</ele>
      </trkpt>
      <trkpt lat="41.843664944171906" lon="-8.869148315861821">
        <ele>5.65625</ele>
      </trkpt>
      <trkpt lat="41.843756809830666" lon="-8.869136665016413">
        <ele>5.1328125</ele>
      </trkpt>
      <trkpt lat="41.843848004937172" lon="-8.869110681116581">
        <ele>4.65234375</ele>
      </trkpt>
      <trkpt lat="41.843934338539839" lon="-8.869084529578686">
        <ele>4.19140625</ele>
      </trkpt>
      <trkpt lat="41.844016816467047" lon="-8.869039267301559">
        <ele>3.79296875</ele>
      </trkpt>
      <trkpt lat="41.844075154513121" lon="-8.868947736918926">
        <ele>3.640625</ele>
      </trkpt>
      <trkpt lat="41.844118237495422" lon="-8.868851428851485">
        <ele>3.578125</ele>
      </trkpt>
      <trkpt lat="41.844157883897424" lon="-8.868727963417768">
        <ele>3.6484375</ele>
      </trkpt>
      <trkpt lat="41.844186298549175" lon="-8.868625368922949">
        <ele>3.890625</ele>
      </trkpt>
      <trkpt lat="41.844215719029307" lon="-8.868518080562353">
        <ele>4.15625</ele>
      </trkpt>
      <trkpt lat="41.844247821718454" lon="-8.868407271802425">
        <ele>4.42578125</ele>
      </trkpt>
      <trkpt lat="41.844285288825631" lon="-8.868307359516621">
        <ele>4.625</ele>
      </trkpt>
      <trkpt lat="41.844318564981222" lon="-8.868199652060866">
        <ele>4.89453125</ele>
      </trkpt>
      <trkpt lat="41.844350080937147" lon="-8.868095297366381">
        <ele>5.171875</ele>
      </trkpt>
      <trkpt lat="41.844389140605927" lon="-8.867988595739007">
        <ele>5.421875</ele>
      </trkpt>
      <trkpt lat="41.844434821978211" lon="-8.867894047871232">
        <ele>5.54296875</ele>
      </trkpt>
      <trkpt lat="41.844506654888391" lon="-8.867814419791102">
        <ele>5.41015625</ele>
      </trkpt>
      <trkpt lat="41.844576727598906" lon="-8.867751974612474">
        <ele>5.3828125</ele>
      </trkpt>
      <trkpt lat="41.844653757289052" lon="-8.867709813639522">
        <ele>5.2578125</ele>
      </trkpt>
      <trkpt lat="41.844725171104074" lon="-8.867661282420158">
        <ele>5.171875</ele>
      </trkpt>
      <trkpt lat="41.844795746728778" lon="-8.867604453116655">
        <ele>5.125</ele>
      </trkpt>
      <trkpt lat="41.84486866928637" lon="-8.867549048736691">
        <ele>5.0625</ele>
      </trkpt>
      <trkpt lat="41.844929018989205" lon="-8.867479478940368">
        <ele>5.09375</ele>
      </trkpt>
      <trkpt lat="41.844939747825265" lon="-8.867465564981103">
        <ele>5.10546875</ele>
      </trkpt>
      <trkpt lat="41.844803206622601" lon="-8.867132635787129">
        <ele>6.796875</ele>
      </trkpt>
      <trkpt lat="41.844700863584876" lon="-8.867253251373768">
        <ele>6.73046875</ele>
      </trkpt>
      <trkpt lat="41.8446996062994" lon="-8.867253251373768">
        <ele>6.734375</ele>
      </trkpt>
      <trkpt lat="41.844591312110424" lon="-8.867107154801488">
        <ele>7.65234375</ele>
      </trkpt>
      <trkpt lat="41.846021600067616" lon="-8.865734366700053">
        <ele>7.0390625</ele>
      </trkpt>
      <trkpt lat="41.846022941172123" lon="-8.865734450519085">
        <ele>7.0390625</ele>
      </trkpt>
      <trkpt lat="41.846977723762393" lon="-8.864725101739168">
        <ele>11.66015625</ele>
      </trkpt>
      <trkpt lat="41.846979232504964" lon="-8.864721078425646">
        <ele>11.67578125</ele>
      </trkpt>
      <trkpt lat="41.84790694154799" lon="-8.863991098478436">
        <ele>14.01953125</ele>
      </trkpt>
      <trkpt lat="41.849311832338572" lon="-8.86259819380939">
        <ele>18.4765625</ele>
      </trkpt>
      <trkpt lat="41.849311832338572" lon="-8.862600205466151">
        <ele>18.46484375</ele>
      </trkpt>
      <trkpt lat="41.850481694564223" lon="-8.861414501443505">
        <ele>16.97265625</ele>
      </trkpt>
      <trkpt lat="41.850547911599278" lon="-8.861336465924978">
        <ele>17.00390625</ele>
      </trkpt>
      <trkpt lat="41.85061153024435" lon="-8.86126572266221">
        <ele>17.0078125</ele>
      </trkpt>
      <trkpt lat="41.850662911310792" lon="-8.861182322725654">
        <ele>17.0625</ele>
      </trkpt>
      <trkpt lat="41.850702306255698" lon="-8.86108685284853">
        <ele>17.203125</ele>
      </trkpt>
      <trkpt lat="41.850724266842008" lon="-8.860979313030839">
        <ele>17.44921875</ele>
      </trkpt>
      <trkpt lat="41.850709179416299" lon="-8.860868252813816">
        <ele>17.82421875</ele>
      </trkpt>
      <trkpt lat="41.8506935890764" lon="-8.860754007473588">
        <ele>18.203125</ele>
      </trkpt>
      <trkpt lat="41.850684452801943" lon="-8.860618053004146">
        <ele>18.625</ele>
      </trkpt>
      <trkpt lat="41.850680932402611" lon="-8.860508920624852">
        <ele>18.953125</ele>
      </trkpt>
      <trkpt lat="41.850771205499768" lon="-8.860378582030535">
        <ele>19.21875</ele>
      </trkpt>
      <trkpt lat="41.850815294310451" lon="-8.860286632552743">
        <ele>19.5546875</ele>
      </trkpt>
      <trkpt lat="41.850885367020965" lon="-8.860235922038555">
        <ele>19.6328125</ele>
      </trkpt>
      <trkpt lat="41.85096625238657" lon="-8.860231311991811">
        <ele>19.4609375</ele>
      </trkpt>
      <trkpt lat="41.851044623181224" lon="-8.86025276966393">
        <ele>19.16796875</ele>
      </trkpt>
      <trkpt lat="41.85105568729341" lon="-8.860258972272277">
        <ele>19.11328125</ele>
      </trkpt>
      <trkpt lat="41.851824223995209" lon="-8.860121006146073">
        <ele>19.40234375</ele>
      </trkpt>
      <trkpt lat="41.851824223995209" lon="-8.860123017802835">
        <ele>19.3984375</ele>
      </trkpt>
      <trkpt lat="41.851980127394199" lon="-8.860030565410852">
        <ele>19.49609375</ele>
      </trkpt>
      <trkpt lat="41.851981468498707" lon="-8.860030565410852">
        <ele>19.49609375</ele>
      </trkpt>
      <trkpt lat="41.853988850489259" lon="-8.858183780685067">
        <ele>16.76953125</ele>
      </trkpt>
      <trkpt lat="41.853987593203783" lon="-8.858187887817621">
        <ele>16.76953125</ele>
      </trkpt>
      <trkpt lat="41.854811199009418" lon="-8.857380710542202">
        <ele>13.5</ele>
      </trkpt>
      <trkpt lat="41.85744646936655" lon="-8.854934368282557">
        <ele>14.03515625</ele>
      </trkpt>
      <trkpt lat="41.857448229566216" lon="-8.85493453592062">
        <ele>14.046875</ele>
      </trkpt>
      <trkpt lat="41.860225321725011" lon="-8.852338073775172">
        <ele>6.11328125</ele>
      </trkpt>
      <trkpt lat="41.86180992051959" lon="-8.850960172712803">
        <ele>4.625</ele>
      </trkpt>
      <trkpt lat="41.86180992051959" lon="-8.85095757432282">
        <ele>4.62109375</ele>
      </trkpt>
      <trkpt lat="41.862937118858099" lon="-8.849717052653432">
        <ele>3.4296875</ele>
      </trkpt>
      <trkpt lat="41.862937118858099" lon="-8.849722500890493">
        <ele>3.4453125</ele>
      </trkpt>
      <trkpt lat="41.863559810444713" lon="-8.84940717369318">
        <ele>3.640625</ele>
      </trkpt>
      <trkpt lat="41.863561486825347" lon="-8.849402060732245">
        <ele>3.63671875</ele>
      </trkpt>
      <trkpt lat="41.865026811137795" lon="-8.847831124439836">
        <ele>4.33203125</ele>
      </trkpt>
      <trkpt lat="41.867408696562052" lon="-8.845663815736771">
        <ele>8.40625</ele>
      </trkpt>
      <trkpt lat="41.867408696562052" lon="-8.845666497945786">
        <ele>8.38671875</ele>
      </trkpt>
      <trkpt lat="41.868745945394039" lon="-8.844432597979903">
        <ele>7.7890625</ele>
      </trkpt>
      <trkpt lat="41.868747789412737" lon="-8.844429831951857">
        <ele>7.796875</ele>
      </trkpt>
      <trkpt lat="41.869927290827036" lon="-8.843344962224364">
        <ele>8.5234375</ele>
      </trkpt>
      <trkpt lat="41.870612762868404" lon="-8.842712882906199">
        <ele>10.73046875</ele>
      </trkpt>
      <trkpt lat="41.871024062857032" lon="-8.842313149943948">
        <ele>12.90234375</ele>
      </trkpt>
      <trkpt lat="41.871447348967195" lon="-8.841877458617091">
        <ele>15.8984375</ele>
      </trkpt>
      <trkpt lat="41.871448270976543" lon="-8.841877458617091">
        <ele>15.89453125</ele>
      </trkpt>
      <trkpt lat="41.871930565685034" lon="-8.841600185260177">
        <ele>16.23828125</ele>
      </trkpt>
      <trkpt lat="41.871985131874681" lon="-8.841578895226121">
        <ele>16.0703125</ele>
      </trkpt>
      <trkpt lat="41.872036010026932" lon="-8.841550732031465">
        <ele>15.97265625</ele>
      </trkpt>
      <trkpt lat="41.872090911492705" lon="-8.841517455875874">
        <ele>15.88671875</ele>
      </trkpt>
      <trkpt lat="41.872141202911735" lon="-8.841485688462853">
        <ele>15.8046875</ele>
      </trkpt>
      <trkpt lat="41.872189985588193" lon="-8.841452831402421">
        <ele>15.73046875</ele>
      </trkpt>
      <trkpt lat="41.872235918417573" lon="-8.841413017362356">
        <ele>15.75</ele>
      </trkpt>
      <trkpt lat="41.872278414666653" lon="-8.841362725943327">
        <ele>15.90234375</ele>
      </trkpt>
      <trkpt lat="41.872322671115398" lon="-8.841318553313613">
        <ele>15.94140625</ele>
      </trkpt>
      <trkpt lat="41.87236768193543" lon="-8.841276057064533">
        <ele>15.94921875</ele>
      </trkpt>
      <trkpt lat="41.872416799888015" lon="-8.841240182518959">
        <ele>15.93359375</ele>
      </trkpt>
      <trkpt lat="41.872473796829581" lon="-8.841211516410112">
        <ele>15.71484375</ele>
      </trkpt>
      <trkpt lat="41.872525680810213" lon="-8.841182347387075">
        <ele>15.5546875</ele>
      </trkpt>
      <trkpt lat="41.872575636953115" lon="-8.841153597459197">
        <ele>15.40234375</ele>
      </trkpt>
      <trkpt lat="41.872628023847938" lon="-8.841119315475225">
        <ele>15.2890625</ele>
      </trkpt>
      <trkpt lat="41.872682087123394" lon="-8.841095762327313">
        <ele>15</ele>
      </trkpt>
      <trkpt lat="41.872732797637582" lon="-8.841070700436831">
        <ele>14.76171875</ele>
      </trkpt>
      <trkpt lat="41.872736485674977" lon="-8.841070700436831">
        <ele>14.71875</ele>
      </trkpt>
      <trkpt lat="41.87303077429533" lon="-8.840966010466218">
        <ele>13.40625</ele>
      </trkpt>
      <trkpt lat="41.873097158968449" lon="-8.840960981324315">
        <ele>12.9140625</ele>
      </trkpt>
      <trkpt lat="41.873161531984806" lon="-8.840956874191761">
        <ele>12.421875</ele>
      </trkpt>
      <trkpt lat="41.873216601088643" lon="-8.840948743745685">
        <ele>12.05078125</ele>
      </trkpt>
      <trkpt lat="41.873273430392146" lon="-8.840938098728657">
        <ele>11.6796875</ele>
      </trkpt>
      <trkpt lat="41.873327326029539" lon="-8.840925609692931">
        <ele>11.33984375</ele>
      </trkpt>
      <trkpt lat="41.873394716531038" lon="-8.840897949412465">
        <ele>11.015625</ele>
      </trkpt>
      <trkpt lat="41.873450456187129" lon="-8.840871546417475">
        <ele>10.7578125</ele>
      </trkpt>
      <trkpt lat="41.873502926900983" lon="-8.840841706842184">
        <ele>10.53515625</ele>
      </trkpt>
      <trkpt lat="41.873560175299644" lon="-8.840810777619481">
        <ele>10.25390625</ele>
      </trkpt>
      <trkpt lat="41.873617339879274" lon="-8.840783620253205">
        <ele>9.91796875</ele>
      </trkpt>
      <trkpt lat="41.873674085363746" lon="-8.840757133439183">
        <ele>9.64453125</ele>
      </trkpt>
      <trkpt lat="41.873739799484611" lon="-8.840731903910637">
        <ele>9.4296875</ele>
      </trkpt>
      <trkpt lat="41.873804507777095" lon="-8.840696532279253">
        <ele>9.27734375</ele>
      </trkpt>
      <trkpt lat="41.8738594930619" lon="-8.840669458732009">
        <ele>9.109375</ele>
      </trkpt>
      <trkpt lat="41.873917076736689" lon="-8.840641463175416">
        <ele>8.921875</ele>
      </trkpt>
      <trkpt lat="41.873971056193113" lon="-8.840609863400459">
        <ele>8.76171875</ele>
      </trkpt>
      <trkpt lat="41.874027969315648" lon="-8.840556470677257">
        <ele>8.69140625</ele>
      </trkpt>
      <trkpt lat="41.874077590182424" lon="-8.840516405180097">
        <ele>8.5703125</ele>
      </trkpt>
      <trkpt lat="41.87413115054369" lon="-8.8404799439013">
        <ele>8.38671875</ele>
      </trkpt>
      <trkpt lat="41.87418001703918" lon="-8.840446919202805">
        <ele>8.20703125</ele>
      </trkpt>
      <trkpt lat="41.874232990667224" lon="-8.840413223952055">
        <ele>8.0234375</ele>
      </trkpt>
      <trkpt lat="41.874279510229826" lon="-8.840371146798134">
        <ele>7.921875</ele>
      </trkpt>
      <trkpt lat="41.874326365068555" lon="-8.840332925319672">
        <ele>7.77734375</ele>
      </trkpt>
      <trkpt lat="41.874372381716967" lon="-8.840298475697637">
        <ele>7.60546875</ele>
      </trkpt>
      <trkpt lat="41.87437598593533" lon="-8.840295877307653">
        <ele>7.58984375</ele>
      </trkpt>
      <trkpt lat="41.874556448310614" lon="-8.840151121839881">
        <ele>7.08203125</ele>
      </trkpt>
      <trkpt lat="41.874606572091579" lon="-8.840108038857579">
        <ele>7.05078125</ele>
      </trkpt>
      <trkpt lat="41.874651750549674" lon="-8.840063698589802">
        <ele>7.046875</ele>
      </trkpt>
      <trkpt lat="41.874699359759688" lon="-8.840018687769771">
        <ele>7.03125</ele>
      </trkpt>
      <trkpt lat="41.874750070273876" lon="-8.839971832931042">
        <ele>7.015625</ele>
      </trkpt>
      <trkpt lat="41.874804887920618" lon="-8.839915171265602">
        <ele>7.0234375</ele>
      </trkpt>
      <trkpt lat="41.87485140748322" lon="-8.839875608682632">
        <ele>6.98828125</ele>
      </trkpt>
      <trkpt lat="41.874901363626122" lon="-8.839826323091984">
        <ele>6.98828125</ele>
      </trkpt>
      <trkpt lat="41.874947212636471" lon="-8.839779635891318">
        <ele>6.9921875</ele>
      </trkpt>
      <trkpt lat="41.874997252598405" lon="-8.839744012802839">
        <ele>6.921875</ele>
      </trkpt>
      <trkpt lat="41.875044861808419" lon="-8.839705120772123">
        <ele>6.87890625</ele>
      </trkpt>
      <trkpt lat="41.875094398856163" lon="-8.839663797989488">
        <ele>6.83984375</ele>
      </trkpt>
      <trkpt lat="41.875147623941302" lon="-8.839617697522044">
        <ele>6.8046875</ele>
      </trkpt>
      <trkpt lat="41.875196238979697" lon="-8.839576290920377">
        <ele>6.6953125</ele>
      </trkpt>
      <trkpt lat="41.875243177637458" lon="-8.839537398889661">
        <ele>6.56640625</ele>
      </trkpt>
      <trkpt lat="41.875294893980026" lon="-8.839499847963452">
        <ele>6.3984375</ele>
      </trkpt>
      <trkpt lat="41.875339485704899" lon="-8.839455842971802">
        <ele>6.33203125</ele>
      </trkpt>
      <trkpt lat="41.875381898134947" lon="-8.839409239590168">
        <ele>6.33984375</ele>
      </trkpt>
      <trkpt lat="41.875430848449469" lon="-8.839368754997849">
        <ele>6.3203125</ele>
      </trkpt>
      <trkpt lat="41.875480134040117" lon="-8.839328605681658">
        <ele>6.296875</ele>
      </trkpt>
      <trkpt lat="41.875525815412402" lon="-8.839290970936418">
        <ele>6.28125</ele>
      </trkpt>
      <trkpt lat="41.875577699393034" lon="-8.839253839105368">
        <ele>6.2421875</ele>
      </trkpt>
      <trkpt lat="41.87562832608819" lon="-8.839217545464635">
        <ele>6.2109375</ele>
      </trkpt>
      <trkpt lat="41.875681048259139" lon="-8.839177144691348">
        <ele>6.1796875</ele>
      </trkpt>
      <trkpt lat="41.87573385424912" lon="-8.839132804423571">
        <ele>6.16015625</ele>
      </trkpt>
      <trkpt lat="41.875782050192356" lon="-8.839092990383506">
        <ele>6.140625</ele>
      </trkpt>
      <trkpt lat="41.875826558098197" lon="-8.839049404487014">
        <ele>6.13671875</ele>
      </trkpt>
      <trkpt lat="41.875850949436426" lon="-8.839017301797867">
        <ele>6.15625</ele>
      </trkpt>
      <trkpt lat="41.876005763188004" lon="-8.838901128619909">
        <ele>6.0625</ele>
      </trkpt>
      <trkpt lat="41.87600702047348" lon="-8.838901128619909">
        <ele>6.05859375</ele>
      </trkpt>
      <trkpt lat="41.877107815816998" lon="-8.838503742590547">
        <ele>5.05078125</ele>
      </trkpt>
      <trkpt lat="41.878205928951502" lon="-8.838157150894403">
        <ele>4.81640625</ele>
      </trkpt>
      <trkpt lat="41.878588814288378" lon="-8.8380709849298">
        <ele>4</ele>
      </trkpt>
      <trkpt lat="41.878671627491713" lon="-8.838039301335812">
        <ele>3.79296875</ele>
      </trkpt>
      <trkpt lat="41.878744214773178" lon="-8.837994206696749">
        <ele>3.5</ele>
      </trkpt>
      <trkpt lat="41.878791321069002" lon="-8.837901670485735">
        <ele>3.27734375</ele>
      </trkpt>
      <trkpt lat="41.878819148987532" lon="-8.837789855897427">
        <ele>3.0390625</ele>
      </trkpt>
      <trkpt lat="41.878838846459985" lon="-8.837685165926814">
        <ele>2.8515625</ele>
      </trkpt>
      <trkpt lat="41.878806492313743" lon="-8.837586846202612">
        <ele>2.8984375</ele>
      </trkpt>
      <trkpt lat="41.878772713243961" lon="-8.837486263364553">
        <ele>2.9375</ele>
      </trkpt>
      <trkpt lat="41.878756871446967" lon="-8.837379477918148">
        <ele>2.890625</ele>
      </trkpt>
      <trkpt lat="41.878773216158152" lon="-8.837271770462394">
        <ele>2.71875</ele>
      </trkpt>
      <trkpt lat="41.87881076708436" lon="-8.837178982794285">
        <ele>2.484375</ele>
      </trkpt>
      <trkpt lat="41.878797020763159" lon="-8.837069012224674">
        <ele>2.42578125</ele>
      </trkpt>
      <trkpt lat="41.878781178966165" lon="-8.836963986977935">
        <ele>2.375</ele>
      </trkpt>
      <trkpt lat="41.878810347989202" lon="-8.836870612576604">
        <ele>2.1875</ele>
      </trkpt>
      <trkpt lat="41.878892155364156" lon="-8.836838006973267">
        <ele>1.890625</ele>
      </trkpt>
      <trkpt lat="41.878961138427258" lon="-8.836881257593632">
        <ele>1.703125</ele>
      </trkpt>
      <trkpt lat="41.878981338813901" lon="-8.836986115202308">
        <ele>1.71484375</ele>
      </trkpt>
      <trkpt lat="41.878990307450294" lon="-8.837097343057394">
        <ele>1.76171875</ele>
      </trkpt>
      <trkpt lat="41.879042694345117" lon="-8.837179988622665">
        <ele>1.62890625</ele>
      </trkpt>
      <trkpt lat="41.879112934693694" lon="-8.837240673601627">
        <ele>1.3984375</ele>
      </trkpt>
      <trkpt lat="41.879180492833257" lon="-8.837307309731841">
        <ele>1.17578125</ele>
      </trkpt>
      <trkpt lat="41.87922902405262" lon="-8.837381573393941">
        <ele>1.01171875</ele>
      </trkpt>
      <trkpt lat="41.879287278279662" lon="-8.837452568113804">
        <ele>0.80078125</ele>
      </trkpt>
      <trkpt lat="41.879287278279662" lon="-8.837456675246358">
        <ele>0.80078125</ele>
      </trkpt>
      <trkpt lat="41.879782732576132" lon="-8.838125299662352">
        <ele>0</ele>
      </trkpt>
      <trkpt lat="41.88030643388629" lon="-8.839251827448606">
        <ele>0</ele>
      </trkpt>
      <trkpt lat="41.881512338295579" lon="-8.841139432042837">
        <ele>0</ele>
      </trkpt>
      <trkpt lat="41.881512338295579" lon="-8.841141443699598">
        <ele>0</ele>
      </trkpt>
      <trkpt lat="41.882756380364299" lon="-8.842850010842085">
        <ele>0</ele>
      </trkpt>
      <trkpt lat="41.88389346934855" lon="-8.844450786709785">
        <ele>0</ele>
      </trkpt>
      <trkpt lat="41.885676551610231" lon="-8.846827894449234">
        <ele>0</ele>
      </trkpt>
      <trkpt lat="41.886478532105684" lon="-8.847896000370383">
        <ele>0</ele>
      </trkpt>
      <trkpt lat="41.886551370844245" lon="-8.847985016182065">
        <ele>0</ele>
      </trkpt>
      <trkpt lat="41.886632591485977" lon="-8.848080905154347">
        <ele>0</ele>
      </trkpt>
      <trkpt lat="41.886699143797159" lon="-8.84816212579608">
        <ele>0</ele>
      </trkpt>
      <trkpt lat="41.886775838211179" lon="-8.848243178799748">
        <ele>0</ele>
      </trkpt>
      <trkpt lat="41.886847000569105" lon="-8.848324231803417">
        <ele>0</ele>
      </trkpt>
      <trkpt lat="41.886919839307666" lon="-8.848411319777369">
        <ele>0</ele>
      </trkpt>
      <trkpt lat="41.886984631419182" lon="-8.848493965342641">
        <ele>0</ele>
      </trkpt>
      <trkpt lat="41.887051519006491" lon="-8.848579796031117">
        <ele>0</ele>
      </trkpt>
      <trkpt lat="41.887113461270928" lon="-8.848664034157991">
        <ele>0</ele>
      </trkpt>
      <trkpt lat="41.887174313887954" lon="-8.848744835704565">
        <ele>0</ele>
      </trkpt>
      <trkpt lat="41.887232149019837" lon="-8.848828068003058">
        <ele>0</ele>
      </trkpt>
      <trkpt lat="41.887303227558732" lon="-8.84890484623611">
        <ele>0</ele>
      </trkpt>
      <trkpt lat="41.887374892830849" lon="-8.848981624469161">
        <ele>0</ele>
      </trkpt>
      <trkpt lat="41.887451084330678" lon="-8.849058821797371">
        <ele>0</ele>
      </trkpt>
      <trkpt lat="41.887547140941024" lon="-8.849154124036431">
        <ele>0</ele>
      </trkpt>
      <trkpt lat="41.887623919174075" lon="-8.849226208403707">
        <ele>0</ele>
      </trkpt>
      <trkpt lat="41.887704385444522" lon="-8.8492869772017">
        <ele>0</ele>
      </trkpt>
      <trkpt lat="41.887769680470228" lon="-8.849352188408375">
        <ele>0</ele>
      </trkpt>
      <trkpt lat="41.887835478410125" lon="-8.849430978298187">
        <ele>0</ele>
      </trkpt>
      <trkpt lat="41.887906976044178" lon="-8.849493088200688">
        <ele>0</ele>
      </trkpt>
      <trkpt lat="41.887987107038498" lon="-8.849540697410703">
        <ele>0</ele>
      </trkpt>
      <trkpt lat="41.888069082051516" lon="-8.849588306620717">
        <ele>0</ele>
      </trkpt>
      <trkpt lat="41.888152314350009" lon="-8.849634742364287">
        <ele>0.08203125</ele>
      </trkpt>
      <trkpt lat="41.888229344040155" lon="-8.849666593596339">
        <ele>0.17578125</ele>
      </trkpt>
      <trkpt lat="41.888312408700585" lon="-8.849691739305854">
        <ele>0.2421875</ele>
      </trkpt>
      <trkpt lat="41.888392958790064" lon="-8.8497169688344">
        <ele>0.30078125</ele>
      </trkpt>
      <trkpt lat="41.888472503051162" lon="-8.849735911935568">
        <ele>0.33984375</ele>
      </trkpt>
      <trkpt lat="41.888556657359004" lon="-8.849738594144583">
        <ele>0.33203125</ele>
      </trkpt>
      <trkpt lat="41.888642655685544" lon="-8.849741192534566">
        <ele>0.3203125</ele>
      </trkpt>
      <trkpt lat="41.888730833306909" lon="-8.849746892228723">
        <ele>0.33203125</ele>
      </trkpt>
      <trkpt lat="41.888824459165335" lon="-8.849755106493831">
        <ele>0.3515625</ele>
      </trkpt>
      <trkpt lat="41.888905679807067" lon="-8.849765919148922">
        <ele>0.37890625</ele>
      </trkpt>
      <trkpt lat="41.888986313715577" lon="-8.849766338244081">
        <ele>0.37890625</ele>
      </trkpt>
      <trkpt lat="41.889007771387696" lon="-8.849872956052423">
        <ele>0.63671875</ele>
      </trkpt>
      <trkpt lat="41.889017075300217" lon="-8.849995248019695">
        <ele>0.9296875</ele>
      </trkpt>
      <trkpt lat="41.889027636498213" lon="-8.850113432854414">
        <ele>1.21484375</ele>
      </trkpt>
      <trkpt lat="41.889043310657144" lon="-8.850221307948232">
        <ele>1.47265625</ele>
      </trkpt>
      <trkpt lat="41.889053955674171" lon="-8.85033949278295">
        <ele>1.7578125</ele>
      </trkpt>
      <trkpt lat="41.889064013957977" lon="-8.850448960438371">
        <ele>2.05859375</ele>
      </trkpt>
      <trkpt lat="41.889068791642785" lon="-8.850564043968916">
        <ele>2.88671875</ele>
      </trkpt>
      <trkpt lat="41.889070468023419" lon="-8.8506477791816">
        <ele>3.484375</ele>
      </trkpt>
      <trkpt lat="41.888945829123259" lon="-8.850641660392284">
        <ele>3.30859375</ele>
      </trkpt>
      <trkpt lat="41.888945829123259" lon="-8.850643839687109">
        <ele>3.32421875</ele>
      </trkpt>
      <trkpt lat="41.888376446440816" lon="-8.850746098905802">
        <ele>4.59765625</ele>
      </trkpt>
      <trkpt lat="41.888374770060182" lon="-8.850746098905802">
        <ele>4.6015625</ele>
      </trkpt>
      <trkpt lat="41.88837175257504" lon="-8.852088544517756">
        <ele>17.5546875</ele>
      </trkpt>
      <trkpt lat="41.888478873297572" lon="-8.852163981646299">
        <ele>18.39453125</ele>
      </trkpt>
      <trkpt lat="41.888579120859504" lon="-8.852244783192873">
        <ele>19.3359375</ele>
      </trkpt>
      <trkpt lat="41.888682637363672" lon="-8.852295158430934">
        <ele>19.98046875</ele>
      </trkpt>
      <trkpt lat="41.888783304020762" lon="-8.852350059896708">
        <ele>20.70703125</ele>
      </trkpt>
      <trkpt lat="41.88884474337101" lon="-8.852468244731426">
        <ele>22.12109375</ele>
      </trkpt>
      <trkpt lat="41.888863686472178" lon="-8.85261501185596">
        <ele>23.828125</ele>
      </trkpt>
      <trkpt lat="41.888792021200061" lon="-8.85272154584527">
        <ele>25.08984375</ele>
      </trkpt>
      <trkpt lat="41.888668555766344" lon="-8.852748870849609">
        <ele>25.203125</ele>
      </trkpt>
      <trkpt lat="41.888591777533293" lon="-8.852824978530407">
        <ele>25.94921875</ele>
      </trkpt>
      <trkpt lat="41.888594962656498" lon="-8.852975182235241">
        <ele>27.625</ele>
      </trkpt>
      <trkpt lat="41.888614995405078" lon="-8.853140138089657">
        <ele>29.296875</ele>
      </trkpt>
      <trkpt lat="41.888646259903908" lon="-8.853286318480968">
        <ele>30.8046875</ele>
      </trkpt>
      <trkpt lat="41.888681966811419" lon="-8.853440713137388">
        <ele>32.14453125</ele>
      </trkpt>
      <trkpt lat="41.888707531616092" lon="-8.853599550202489">
        <ele>32.71875</ele>
      </trkpt>
      <trkpt lat="41.888722702860832" lon="-8.853745562955737">
        <ele>33.23046875</ele>
      </trkpt>
      <trkpt lat="41.888737455010414" lon="-8.853895515203476">
        <ele>33.73828125</ele>
      </trkpt>
      <trkpt lat="41.888749105855823" lon="-8.854044629260898">
        <ele>34.1875</ele>
      </trkpt>
      <trkpt lat="41.888756398111582" lon="-8.854212267324328">
        <ele>34.67578125</ele>
      </trkpt>
      <trkpt lat="41.888766456395388" lon="-8.854358028620481">
        <ele>35.09375</ele>
      </trkpt>
      <trkpt lat="41.888766456395388" lon="-8.854526923969388">
        <ele>35.5546875</ele>
      </trkpt>
      <trkpt lat="41.888766456395388" lon="-8.854676624760032">
        <ele>35.9609375</ele>
      </trkpt>
      <trkpt lat="41.888763941824436" lon="-8.854844179004431">
        <ele>36.40625</ele>
      </trkpt>
      <trkpt lat="41.888761427253485" lon="-8.854998908936977">
        <ele>36.80078125</ele>
      </trkpt>
      <trkpt lat="41.888756649568677" lon="-8.855172833427787">
        <ele>37.23828125</ele>
      </trkpt>
      <trkpt lat="41.888756649568677" lon="-8.855371819809079">
        <ele>37.6640625</ele>
      </trkpt>
      <trkpt lat="41.888756649568677" lon="-8.855520514771342">
        <ele>37.94140625</ele>
      </trkpt>
      <trkpt lat="41.888756649568677" lon="-8.855672897771001">
        <ele>38.2265625</ele>
      </trkpt>
      <trkpt lat="41.888762013986707" lon="-8.855847492814064">
        <ele>38.203125</ele>
      </trkpt>
      <trkpt lat="41.888798726722598" lon="-8.855986800044775">
        <ele>38.16015625</ele>
      </trkpt>
      <trkpt lat="41.888839798048139" lon="-8.856146140024066">
        <ele>38.140625</ele>
      </trkpt>
      <trkpt lat="41.888877600431442" lon="-8.856302965432405">
        <ele>38.046875</ele>
      </trkpt>
      <trkpt lat="41.88891171477735" lon="-8.856455683708191">
        <ele>37.9609375</ele>
      </trkpt>
      <trkpt lat="41.888943817466497" lon="-8.856600942090154">
        <ele>37.90625</ele>
      </trkpt>
      <trkpt lat="41.888976506888866" lon="-8.85674293152988">
        <ele>38.2890625</ele>
      </trkpt>
      <trkpt lat="41.889017410576344" lon="-8.856888022273779">
        <ele>38.859375</ele>
      </trkpt>
      <trkpt lat="41.889069126918912" lon="-8.857031939551234">
        <ele>39.4375</ele>
      </trkpt>
      <trkpt lat="41.88910374417901" lon="-8.857170660048723">
        <ele>40.06640625</ele>
      </trkpt>
      <trkpt lat="41.88914674334228" lon="-8.857312062755227">
        <ele>40.85546875</ele>
      </trkpt>
      <trkpt lat="41.88918387517333" lon="-8.857437539845705">
        <ele>41.54296875</ele>
      </trkpt>
      <trkpt lat="41.889113048091531" lon="-8.857524041086435">
        <ele>41.80859375</ele>
      </trkpt>
      <trkpt lat="41.889006262645125" lon="-8.857541475445032">
        <ele>41.6796875</ele>
      </trkpt>
      <trkpt lat="41.888886066153646" lon="-8.857538877055049">
        <ele>41.42578125</ele>
      </trkpt>
      <trkpt lat="41.888778023421764" lon="-8.857528986409307">
        <ele>41.0546875</ele>
      </trkpt>
      <trkpt lat="41.888660173863173" lon="-8.857533596456051">
        <ele>40.61328125</ele>
      </trkpt>
      <trkpt lat="41.888551460579038" lon="-8.857573242858052">
        <ele>40.41796875</ele>
      </trkpt>
      <trkpt lat="41.888450123369694" lon="-8.857637364417315">
        <ele>40.51171875</ele>
      </trkpt>
      <trkpt lat="41.888360437005758" lon="-8.857725625857711">
        <ele>40.72265625</ele>
      </trkpt>
      <trkpt lat="41.88834048807621" lon="-8.85786728002131">
        <ele>41.55078125</ele>
      </trkpt>
      <trkpt lat="41.888376614078879" lon="-8.858009353280067">
        <ele>42.90625</ele>
      </trkpt>
      <trkpt lat="41.888478621840477" lon="-8.858086299151182">
        <ele>44.5703125</ele>
      </trkpt>
      <trkpt lat="41.88858482055366" lon="-8.858135417103767">
        <ele>46.125</ele>
      </trkpt>
      <trkpt lat="41.888696886599064" lon="-8.858182691037655">
        <ele>47.80078125</ele>
      </trkpt>
      <trkpt lat="41.888816496357322" lon="-8.858210518956184">
        <ele>49.32421875</ele>
      </trkpt>
      <trkpt lat="41.888923868536949" lon="-8.858221750706434">
        <ele>50.1484375</ele>
      </trkpt>
      <trkpt lat="41.889043059200048" lon="-8.858224265277386">
        <ele>50.83984375</ele>
      </trkpt>
      <trkpt lat="41.889151521027088" lon="-8.858238095417619">
        <ele>51.6875</ele>
      </trkpt>
      <trkpt lat="41.889262413606048" lon="-8.858259804546833">
        <ele>52.70703125</ele>
      </trkpt>
      <trkpt lat="41.889371126890182" lon="-8.85831193998456">
        <ele>53.34765625</ele>
      </trkpt>
      <trkpt lat="41.889467854052782" lon="-8.858391316607594">
        <ele>54.12109375</ele>
      </trkpt>
      <trkpt lat="41.88955619931221" lon="-8.858486535027623">
        <ele>55.12890625</ele>
      </trkpt>
      <trkpt lat="41.889637671411037" lon="-8.858580077067018">
        <ele>56.73046875</ele>
      </trkpt>
      <trkpt lat="41.88971696421504" lon="-8.858679737895727">
        <ele>58.28125</ele>
      </trkpt>
      <trkpt lat="41.8898019567132" lon="-8.858784846961498">
        <ele>59.55078125</ele>
      </trkpt>
      <trkpt lat="41.889904970303178" lon="-8.858895488083363">
        <ele>60.34375</ele>
      </trkpt>
      <trkpt lat="41.88999792560935" lon="-8.858977295458317">
        <ele>60.546875</ele>
      </trkpt>
      <trkpt lat="41.890095574781299" lon="-8.859065556898713">
        <ele>60.9296875</ele>
      </trkpt>
      <trkpt lat="41.890203785151243" lon="-8.859162870794535">
        <ele>61.171875</ele>
      </trkpt>
      <trkpt lat="41.890301434323192" lon="-8.859239900484681">
        <ele>60.91796875</ele>
      </trkpt>
      <trkpt lat="41.890406627207994" lon="-8.859304944053292">
        <ele>60.109375</ele>
      </trkpt>
      <trkpt lat="41.890517687425017" lon="-8.859336879104376">
        <ele>58.41796875</ele>
      </trkpt>
      <trkpt lat="41.890626987442374" lon="-8.85937619023025">
        <ele>56.82421875</ele>
      </trkpt>
      <trkpt lat="41.890736203640699" lon="-8.859421033412218">
        <ele>55.66015625</ele>
      </trkpt>
      <trkpt lat="41.890842821449041" lon="-8.859479203820229">
        <ele>55.265625</ele>
      </trkpt>
      <trkpt lat="41.89094977453351" lon="-8.85953544639051">
        <ele>54.69140625</ele>
      </trkpt>
      <trkpt lat="41.891046753153205" lon="-8.85961314663291">
        <ele>54.51953125</ele>
      </trkpt>
      <trkpt lat="41.891145575791597" lon="-8.859699564054608">
        <ele>54.296875</ele>
      </trkpt>
      <trkpt lat="41.891182623803616" lon="-8.859761590138078">
        <ele>54.75390625</ele>
      </trkpt>
      <trkpt lat="41.891227215528488" lon="-8.859893605113029">
        <ele>56.1328125</ele>
      </trkpt>
      <trkpt lat="41.891294522210956" lon="-8.860014639794827">
        <ele>56.82421875</ele>
      </trkpt>
      <trkpt lat="41.891397871077061" lon="-8.860078509896994">
        <ele>55.78515625</ele>
      </trkpt>
      <trkpt lat="41.891504991799593" lon="-8.860089322552085">
        <ele>53.84765625</ele>
      </trkpt>
      <trkpt lat="41.891609262675047" lon="-8.860056465491652">
        <ele>51.50390625</ele>
      </trkpt>
      <trkpt lat="41.891722250729799" lon="-8.860023189336061">
        <ele>49.96484375</ele>
      </trkpt>
      <trkpt lat="41.891831802204251" lon="-8.859991589561105">
        <ele>48.4765625</ele>
      </trkpt>
      <trkpt lat="41.891940766945481" lon="-8.859984548762441">
        <ele>47.25390625</ele>
      </trkpt>
      <trkpt lat="41.892038332298398" lon="-8.860049089416862">
        <ele>46.90625</ele>
      </trkpt>
      <trkpt lat="41.892094658687711" lon="-8.860172219574451">
        <ele>47.6640625</ele>
      </trkpt>
      <trkpt lat="41.892068590968847" lon="-8.860310185700655">
        <ele>49.33984375</ele>
      </trkpt>
      <trkpt lat="41.891983514651656" lon="-8.860413618385792">
        <ele>51.40234375</ele>
      </trkpt>
      <trkpt lat="41.891892487183213" lon="-8.86049366556108">
        <ele>53.25</ele>
      </trkpt>
      <trkpt lat="41.891807159408927" lon="-8.860587542876601">
        <ele>55.15625</ele>
      </trkpt>
      <trkpt lat="41.891742954030633" lon="-8.860704470425844">
        <ele>57.06640625</ele>
      </trkpt>
      <trkpt lat="41.891742032021284" lon="-8.860851656645536">
        <ele>58.9140625</ele>
      </trkpt>
      <trkpt lat="41.891770949587226" lon="-8.861007643863559">
        <ele>61.1796875</ele>
      </trkpt>
      <trkpt lat="41.891841776669025" lon="-8.861144771799445">
        <ele>62.98046875</ele>
      </trkpt>
      <trkpt lat="41.89191872254014" lon="-8.86127402074635">
        <ele>64.82421875</ele>
      </trkpt>
      <trkpt lat="41.891989130526781" lon="-8.861385080963373">
        <ele>66.7578125</ele>
      </trkpt>
      <trkpt lat="41.892063478007913" lon="-8.861503852531314">
        <ele>69</ele>
      </trkpt>
      <trkpt lat="41.892117792740464" lon="-8.861625725403428">
        <ele>71.65234375</ele>
      </trkpt>
      <trkpt lat="41.892151823267341" lon="-8.861771989613771">
        <ele>75.08203125</ele>
      </trkpt>
      <trkpt lat="41.892171688377857" lon="-8.861930826678872">
        <ele>79.3203125</ele>
      </trkpt>
      <trkpt lat="41.892183171585202" lon="-8.862085724249482">
        <ele>83.4296875</ele>
      </trkpt>
      <trkpt lat="41.892183171585202" lon="-8.862238610163331">
        <ele>87.33203125</ele>
      </trkpt>
      <trkpt lat="41.892194151878357" lon="-8.862395351752639">
        <ele>91.05078125</ele>
      </trkpt>
      <trkpt lat="41.892217369750142" lon="-8.862557373940945">
        <ele>94.91015625</ele>
      </trkpt>
      <trkpt lat="41.892243688926101" lon="-8.86270078830421">
        <ele>98.1015625</ele>
      </trkpt>
      <trkpt lat="41.892273696139455" lon="-8.862872449681163">
        <ele>101.28125</ele>
      </trkpt>
      <trkpt lat="41.892329687252641" lon="-8.863051403313875">
        <ele>104.55859375</ele>
      </trkpt>
      <trkpt lat="41.89238341525197" lon="-8.863185346126556">
        <ele>107.08203125</ele>
      </trkpt>
      <trkpt lat="41.892467234283686" lon="-8.863289700821042">
        <ele>109.015625</ele>
      </trkpt>
      <trkpt lat="41.892575528472662" lon="-8.863303447142243">
        <ele>109.56640625</ele>
      </trkpt>
      <trkpt lat="41.892685163766146" lon="-8.86328961700201">
        <ele>110.2578125</ele>
      </trkpt>
      <trkpt lat="41.892800247296691" lon="-8.863260028883815">
        <ele>110.671875</ele>
      </trkpt>
      <trkpt lat="41.892903177067637" lon="-8.86319724842906">
        <ele>110.2890625</ele>
      </trkpt>
      <trkpt lat="41.892981883138418" lon="-8.863081829622388">
        <ele>108.58984375</ele>
      </trkpt>
      <trkpt lat="41.893037790432572" lon="-8.862952999770641">
        <ele>106.27734375</ele>
      </trkpt>
      <trkpt lat="41.893100403249264" lon="-8.862828025594354">
        <ele>103.93359375</ele>
      </trkpt>
      <trkpt lat="41.893177852034569" lon="-8.862725766375661">
        <ele>102</ele>
      </trkpt>
      <trkpt lat="41.893281871452928" lon="-8.862637924030423">
        <ele>100.36328125</ele>
      </trkpt>
      <trkpt lat="41.893381280824542" lon="-8.862578077241778">
        <ele>99.39453125</ele>
      </trkpt>
      <trkpt lat="41.893479432910681" lon="-8.862502723932266">
        <ele>98.01953125</ele>
      </trkpt>
      <trkpt lat="41.893581273034215" lon="-8.862456036731601">
        <ele>96.83203125</ele>
      </trkpt>
      <trkpt lat="41.893710102885962" lon="-8.862440781667829">
        <ele>96.2265625</ele>
      </trkpt>
      <trkpt lat="41.893831640481949" lon="-8.862437596544623">
        <ele>95.87890625</ele>
      </trkpt>
      <trkpt lat="41.893956530839205" lon="-8.862430974841118">
        <ele>95.45703125</ele>
      </trkpt>
      <trkpt lat="41.89406868070364" lon="-8.862427873536944">
        <ele>95.1328125</ele>
      </trkpt>
      <trkpt lat="41.894197426736355" lon="-8.862430639564991">
        <ele>94.8984375</ele>
      </trkpt>
      <trkpt lat="41.894310163334012" lon="-8.862433489412069">
        <ele>94.70703125</ele>
      </trkpt>
      <trkpt lat="41.894421894103289" lon="-8.862426867708564">
        <ele>94.30078125</ele>
      </trkpt>
      <trkpt lat="41.894540833309293" lon="-8.862375570461154">
        <ele>92.7890625</ele>
      </trkpt>
      <trkpt lat="41.894642589613795" lon="-8.862318238243461">
        <ele>91.08984375</ele>
      </trkpt>
      <trkpt lat="41.894740909337997" lon="-8.862241795286536">
        <ele>88.83203125</ele>
      </trkpt>
      <trkpt lat="41.894839396700263" lon="-8.862160826101899">
        <ele>86.47265625</ele>
      </trkpt>
      <trkpt lat="41.894877450540662" lon="-8.862125538289547">
        <ele>85.734375</ele>
      </trkpt>
      <trkpt lat="41.89524776302278" lon="-8.861963767558336">
        <ele>82.4453125</ele>
      </trkpt>
      <trkpt lat="41.89533811993897" lon="-8.861886234954">
        <ele>80.62109375</ele>
      </trkpt>
      <trkpt lat="41.895448006689548" lon="-8.861827310174704">
        <ele>79.44921875</ele>
      </trkpt>
      <trkpt lat="41.8955506850034" lon="-8.861775258556008">
        <ele>78.36328125</ele>
      </trkpt>
      <trkpt lat="41.895652189850807" lon="-8.861717339605093">
        <ele>77.109375</ele>
      </trkpt>
      <trkpt lat="41.895754281431437" lon="-8.861657492816448">
        <ele>75.9140625</ele>
      </trkpt>
      <trkpt lat="41.895861737430096" lon="-8.861595969647169">
        <ele>74.7109375</ele>
      </trkpt>
      <trkpt lat="41.895969025790691" lon="-8.861540732905269">
        <ele>73.68359375</ele>
      </trkpt>
      <trkpt lat="41.89608377404511" lon="-8.86149094440043">
        <ele>72.82421875</ele>
      </trkpt>
      <trkpt lat="41.896196091547608" lon="-8.861437803134322">
        <ele>71.89453125</ele>
      </trkpt>
      <trkpt lat="41.896299440413713" lon="-8.86139614507556">
        <ele>71.234375</ele>
      </trkpt>
      <trkpt lat="41.896407650783658" lon="-8.861348871141672">
        <ele>70.5078125</ele>
      </trkpt>
      <trkpt lat="41.896508485078812" lon="-8.861285503953695">
        <ele>69.45703125</ele>
      </trkpt>
      <trkpt lat="41.896607642993331" lon="-8.861218951642513">
        <ele>68.4453125</ele>
      </trkpt>
      <trkpt lat="41.896711997687817" lon="-8.861174276098609">
        <ele>67.8125</ele>
      </trkpt>
      <trkpt lat="41.896811574697495" lon="-8.861168324947357">
        <ele>67.23828125</ele>
      </trkpt>
      <trkpt lat="41.896813334897161" lon="-8.861172683537006">
        <ele>67.31640625</ele>
      </trkpt>
      <trkpt lat="41.897375006228685" lon="-8.861166145652533">
        <ele>64.109375</ele>
      </trkpt>
      <trkpt lat="41.897494029253721" lon="-8.861177377402782">
        <ele>63.46484375</ele>
      </trkpt>
      <trkpt lat="41.897607017308474" lon="-8.861191207543015">
        <ele>62.89453125</ele>
      </trkpt>
      <trkpt lat="41.897721346467733" lon="-8.861220628023148">
        <ele>61.78125</ele>
      </trkpt>
      <trkpt lat="41.89782964065671" lon="-8.861250970512629">
        <ele>60.6953125</ele>
      </trkpt>
      <trkpt lat="41.897950256243348" lon="-8.861279049888253">
        <ele>59.43359375</ele>
      </trkpt>
      <trkpt lat="41.898065842688084" lon="-8.861304698511958">
        <ele>58.25390625</ele>
      </trkpt>
      <trkpt lat="41.898170867934823" lon="-8.861339315772057">
        <ele>57.4296875</ele>
      </trkpt>
      <trkpt lat="41.89829139970243" lon="-8.861389942467213">
        <ele>56.6484375</ele>
      </trkpt>
      <trkpt lat="41.898397095501423" lon="-8.861450962722301">
        <ele>56.21484375</ele>
      </trkpt>
      <trkpt lat="41.898494912311435" lon="-8.861533440649509">
        <ele>56.21484375</ele>
      </trkpt>
      <trkpt lat="41.898586442694068" lon="-8.861618516966701">
        <ele>56.16796875</ele>
      </trkpt>
      <trkpt lat="41.898691887035966" lon="-8.861717088147998">
        <ele>55.734375</ele>
      </trkpt>
      <trkpt lat="41.898792805150151" lon="-8.86177827604115">
        <ele>54.92578125</ele>
      </trkpt>
      <trkpt lat="41.898895567283034" lon="-8.861825214698911">
        <ele>53.91015625</ele>
      </trkpt>
      <trkpt lat="41.898998077958822" lon="-8.86187257245183">
        <ele>52.96875</ele>
      </trkpt>
      <trkpt lat="41.899102013558149" lon="-8.861931078135967">
        <ele>53.171875</ele>
      </trkpt>
      <trkpt lat="41.899207541719079" lon="-8.861995367333293">
        <ele>53.4921875</ele>
      </trkpt>
      <trkpt lat="41.899314746260643" lon="-8.862059991806746">
        <ele>53.70703125</ele>
      </trkpt>
      <trkpt lat="41.899435110390186" lon="-8.862129980698228">
        <ele>53.78125</ele>
      </trkpt>
      <trkpt lat="41.899539465084672" lon="-8.862175075337291">
        <ele>53.75</ele>
      </trkpt>
      <trkpt lat="41.899661840870976" lon="-8.862222265452147">
        <ele>53.70703125</ele>
      </trkpt>
      <trkpt lat="41.899772984907031" lon="-8.862260235473514">
        <ele>53.52734375</ele>
      </trkpt>
      <trkpt lat="41.89988823607564" lon="-8.862297367304564">
        <ele>53.2265625</ele>
      </trkpt>
      <trkpt lat="41.899987310171127" lon="-8.862352939322591">
        <ele>53.53125</ele>
      </trkpt>
      <trkpt lat="41.900082612410188" lon="-8.862423347309232">
        <ele>54.1640625</ele>
      </trkpt>
      <trkpt lat="41.900199791416526" lon="-8.862537341192365">
        <ele>55.08203125</ele>
      </trkpt>
      <trkpt lat="41.900297943502665" lon="-8.862630799412727">
        <ele>55.58984375</ele>
      </trkpt>
      <trkpt lat="41.900392407551408" lon="-8.862717133015394">
        <ele>56.25390625</ele>
      </trkpt>
      <trkpt lat="41.900486452504992" lon="-8.862814949825406">
        <ele>57.1171875</ele>
      </trkpt>
      <trkpt lat="41.900578737258911" lon="-8.862904384732246">
        <ele>57.57421875</ele>
      </trkpt>
      <trkpt lat="41.9006656575948" lon="-8.862991891801357">
        <ele>57.78515625</ele>
      </trkpt>
      <trkpt lat="41.900758948177099" lon="-8.863090798258781">
        <ele>57.77734375</ele>
      </trkpt>
      <trkpt lat="41.900852909311652" lon="-8.863194901496172">
        <ele>57.6875</ele>
      </trkpt>
      <trkpt lat="41.900941170752048" lon="-8.863323060795665">
        <ele>57.84765625</ele>
      </trkpt>
      <trkpt lat="41.901022391393781" lon="-8.863443089649081">
        <ele>57.7890625</ele>
      </trkpt>
      <trkpt lat="41.90110931172967" lon="-8.863538391888142">
        <ele>57.1796875</ele>
      </trkpt>
      <trkpt lat="41.901190616190434" lon="-8.863658253103495">
        <ele>56.83984375</ele>
      </trkpt>
      <trkpt lat="41.901277536526322" lon="-8.863754225894809">
        <ele>56.03125</ele>
      </trkpt>
      <trkpt lat="41.901376694440842" lon="-8.863832429051399">
        <ele>54.84765625</ele>
      </trkpt>
      <trkpt lat="41.901474762707949" lon="-8.863890264183283">
        <ele>53.5703125</ele>
      </trkpt>
      <trkpt lat="41.901625553146005" lon="-8.863964108750224">
        <ele>51.32421875</ele>
      </trkpt>
      <trkpt lat="41.901747090741992" lon="-8.864014651626348">
        <ele>49.3359375</ele>
      </trkpt>
      <trkpt lat="41.901871981099248" lon="-8.864068295806646">
        <ele>48.55078125</ele>
      </trkpt>
      <trkpt lat="41.901980442926288" lon="-8.864097129553556">
        <ele>48.203125</ele>
      </trkpt>
      <trkpt lat="41.902094939723611" lon="-8.864132417365909">
        <ele>47.8203125</ele>
      </trkpt>
      <trkpt lat="41.902223601937294" lon="-8.864167202264071">
        <ele>47.25</ele>
      </trkpt>
      <trkpt lat="41.90234849229455" lon="-8.864207351580262">
        <ele>46.75390625</ele>
      </trkpt>
      <trkpt lat="41.902463240548968" lon="-8.864239873364568">
        <ele>46.2421875</ele>
      </trkpt>
      <trkpt lat="41.902571702376008" lon="-8.864270551130176">
        <ele>45.7265625</ele>
      </trkpt>
      <trkpt lat="41.902695670723915" lon="-8.8643245305866">
        <ele>45.23046875</ele>
      </trkpt>
      <trkpt lat="41.90280388109386" lon="-8.86438462883234">
        <ele>45</ele>
      </trkpt>
      <trkpt lat="41.902900524437428" lon="-8.864458221942186">
        <ele>44.90625</ele>
      </trkpt>
      <trkpt lat="41.90296858549118" lon="-8.864573976024985">
        <ele>45.19140625</ele>
      </trkpt>
      <trkpt lat="41.90299448557198" lon="-8.864720240235329">
        <ele>45.875</ele>
      </trkpt>
      <trkpt lat="41.90306045114994" lon="-8.864836832508445">
        <ele>46.09765625</ele>
      </trkpt>
      <trkpt lat="41.903079226613045" lon="-8.864981001242995">
        <ele>46.73828125</ele>
      </trkpt>
      <trkpt lat="41.903074700385332" lon="-8.865126008167863">
        <ele>47.26953125</ele>
      </trkpt>
      <trkpt lat="41.903067911043763" lon="-8.865273110568523">
        <ele>47.828125</ele>
      </trkpt>
      <trkpt lat="41.903048297390342" lon="-8.865451477468014">
        <ele>48.578125</ele>
      </trkpt>
      <trkpt lat="41.903012003749609" lon="-8.865618696436286">
        <ele>49.3125</ele>
      </trkpt>
      <trkpt lat="41.902989540249109" lon="-8.865764373913407">
        <ele>49.91015625</ele>
      </trkpt>
      <trkpt lat="41.902966154739261" lon="-8.865932263433933">
        <ele>50.48046875</ele>
      </trkpt>
      <trkpt lat="41.90295148640871" lon="-8.86607919819653">
        <ele>50.53515625</ele>
      </trkpt>
      <trkpt lat="41.902965819463134" lon="-8.866221942007542">
        <ele>50.33203125</ele>
      </trkpt>
      <trkpt lat="41.902996329590678" lon="-8.866367703303695">
        <ele>50.02734375</ele>
      </trkpt>
      <trkpt lat="41.903051817789674" lon="-8.866501059383154">
        <ele>49.47265625</ele>
      </trkpt>
      <trkpt lat="41.90311124548316" lon="-8.8666264526546">
        <ele>48.9609375</ele>
      </trkpt>
      <trkpt lat="41.903156423941255" lon="-8.866763580590487">
        <ele>48.5859375</ele>
      </trkpt>
      <trkpt lat="41.903185844421387" lon="-8.866911688819528">
        <ele>48.25390625</ele>
      </trkpt>
      <trkpt lat="41.903206212446094" lon="-8.867089385166764">
        <ele>47.875</ele>
      </trkpt>
      <trkpt lat="41.903224987909198" lon="-8.867249228060246">
        <ele>47.5390625</ele>
      </trkpt>
      <trkpt lat="41.903229430317879" lon="-8.867397420108318">
        <ele>47.26171875</ele>
      </trkpt>
      <trkpt lat="41.903224904090166" lon="-8.867543684318662">
        <ele>47</ele>
      </trkpt>
      <trkpt lat="41.903215013444424" lon="-8.86767209507525">
        <ele>46.76953125</ele>
      </trkpt>
      <trkpt lat="41.902937404811382" lon="-8.8687729742378">
        <ele>43.70703125</ele>
      </trkpt>
      <trkpt lat="41.902937404811382" lon="-8.868773058056831">
        <ele>43.70703125</ele>
      </trkpt>
      <trkpt lat="41.902543036267161" lon="-8.870472991839051">
        <ele>39.87890625</ele>
      </trkpt>
      <trkpt lat="41.902547059580684" lon="-8.870641048997641">
        <ele>39.8515625</ele>
      </trkpt>
      <trkpt lat="41.902544628828764" lon="-8.870789492502809">
        <ele>39.80078125</ele>
      </trkpt>
      <trkpt lat="41.902542617172003" lon="-8.870936594903469">
        <ele>39.75390625</ele>
      </trkpt>
      <trkpt lat="41.902472795918584" lon="-8.871040111407638">
        <ele>39.375</ele>
      </trkpt>
      <trkpt lat="41.902408674359322" lon="-8.871157374233007">
        <ele>39.12890625</ele>
      </trkpt>
      <trkpt lat="41.902339523658156" lon="-8.871272709220648">
        <ele>38.8203125</ele>
      </trkpt>
      <trkpt lat="41.902270372956991" lon="-8.871393576264381">
        <ele>38.5</ele>
      </trkpt>
      <trkpt lat="41.902205664664507" lon="-8.871526261791587">
        <ele>38.1015625</ele>
      </trkpt>
      <trkpt lat="41.902153948321939" lon="-8.871691720560193">
        <ele>37.765625</ele>
      </trkpt>
      <trkpt lat="41.902119750156999" lon="-8.871829435229301">
        <ele>37.56640625</ele>
      </trkpt>
      <trkpt lat="41.902090916410089" lon="-8.871982237324119">
        <ele>37.515625</ele>
      </trkpt>
      <trkpt lat="41.902060406282544" lon="-8.872136464342475">
        <ele>37.58984375</ele>
      </trkpt>
      <trkpt lat="41.902004079893231" lon="-8.872414827346802">
        <ele>37.83203125</ele>
      </trkpt>
      <trkpt lat="41.90194976516068" lon="-8.872540555894375">
        <ele>37.8359375</ele>
      </trkpt>
      <trkpt lat="41.901849433779716" lon="-8.872630912810564">
        <ele>37.50390625</ele>
      </trkpt>
      <trkpt lat="41.901749689131975" lon="-8.872732501477003">
        <ele>37.16796875</ele>
      </trkpt>
      <trkpt lat="41.901651285588741" lon="-8.872805591672659">
        <ele>36.5703125</ele>
      </trkpt>
      <trkpt lat="41.901553468778729" lon="-8.872869797050953">
        <ele>35.91015625</ele>
      </trkpt>
      <trkpt lat="41.901447689160705" lon="-8.872934086248279">
        <ele>35.14453125</ele>
      </trkpt>
      <trkpt lat="41.901362780481577" lon="-8.873012373223901">
        <ele>34.5546875</ele>
      </trkpt>
      <trkpt lat="41.901277285069227" lon="-8.873105412349105">
        <ele>33.875</ele>
      </trkpt>
      <trkpt lat="41.901195980608463" lon="-8.873216807842255">
        <ele>33.140625</ele>
      </trkpt>
      <trkpt lat="41.901152729988098" lon="-8.873352846130729">
        <ele>32.79296875</ele>
      </trkpt>
      <trkpt lat="41.901119621470571" lon="-8.873492572456598">
        <ele>32.53515625</ele>
      </trkpt>
      <trkpt lat="41.901096319779754" lon="-8.873639758676291">
        <ele>32.41015625</ele>
      </trkpt>
      <trkpt lat="41.901105288416147" lon="-8.873776886612177">
        <ele>32.6171875</ele>
      </trkpt>
      <trkpt lat="41.9011733494699" lon="-8.873889036476612">
        <ele>33.3046875</ele>
      </trkpt>
      <trkpt lat="41.901251804083586" lon="-8.873993139714003">
        <ele>34.11328125</ele>
      </trkpt>
      <trkpt lat="41.901352554559708" lon="-8.874021722003818">
        <ele>35.1640625</ele>
      </trkpt>
      <trkpt lat="41.901456322520971" lon="-8.873977717012167">
        <ele>36.1484375</ele>
      </trkpt>
      <trkpt lat="41.901560006663203" lon="-8.873941842466593">
        <ele>37.12890625</ele>
      </trkpt>
      <trkpt lat="41.901667295023799" lon="-8.873933209106326">
        <ele>38.125</ele>
      </trkpt>
      <trkpt lat="41.901774583384395" lon="-8.873957097530365">
        <ele>39.1015625</ele>
      </trkpt>
      <trkpt lat="41.901878854259849" lon="-8.873918540775776">
        <ele>39.58984375</ele>
      </trkpt>
      <trkpt lat="41.901988741010427" lon="-8.873914601281285">
        <ele>40.02734375</ele>
      </trkpt>
      <trkpt lat="41.902093095704913" lon="-8.873946284875274">
        <ele>40.41796875</ele>
      </trkpt>
      <trkpt lat="41.902208430692554" lon="-8.873937483876944">
        <ele>40.87890625</ele>
      </trkpt>
      <trkpt lat="41.902310689911246" lon="-8.873998504132032">
        <ele>41.28515625</ele>
      </trkpt>
      <trkpt lat="41.902416050434113" lon="-8.874061955139041">
        <ele>41.7265625</ele>
      </trkpt>
      <trkpt lat="41.902505736798048" lon="-8.874149126932025">
        <ele>42.0859375</ele>
      </trkpt>
      <trkpt lat="41.902581006288528" lon="-8.874269239604473">
        <ele>42.12109375</ele>
      </trkpt>
      <trkpt lat="41.902656024321914" lon="-8.874376444146037">
        <ele>41.89453125</ele>
      </trkpt>
      <trkpt lat="41.902685193344951" lon="-8.874426232650876">
        <ele>41.77734375</ele>
      </trkpt>
      <trkpt lat="41.903027510270476" lon="-8.874872904270887">
        <ele>41.1015625</ele>
      </trkpt>
      <trkpt lat="41.90311074256897" lon="-8.874979941174388">
        <ele>40.90625</ele>
      </trkpt>
      <trkpt lat="41.903208391740918" lon="-8.875059485435486">
        <ele>40.93359375</ele>
      </trkpt>
      <trkpt lat="41.903305202722549" lon="-8.875144142657518">
        <ele>40.87109375</ele>
      </trkpt>
      <trkpt lat="41.903406707569957" lon="-8.875195439904928">
        <ele>40.984375</ele>
      </trkpt>
      <trkpt lat="41.903512151911855" lon="-8.875226955860853">
        <ele>41.2421875</ele>
      </trkpt>
      <trkpt lat="41.9036272354424" lon="-8.875262495130301">
        <ele>41.50390625</ele>
      </trkpt>
      <trkpt lat="41.903742402791977" lon="-8.875288143754005">
        <ele>41.7109375</ele>
      </trkpt>
      <trkpt lat="41.903848182410002" lon="-8.875314798206091">
        <ele>41.84765625</ele>
      </trkpt>
      <trkpt lat="41.903957733884454" lon="-8.87534505687654">
        <ele>41.94140625</ele>
      </trkpt>
      <trkpt lat="41.903986148536205" lon="-8.875347236171365">
        <ele>42.01171875</ele>
      </trkpt>
      <trkpt lat="41.904407842084765" lon="-8.87583564966917">
        <ele>38.05078125</ele>
      </trkpt>
      <trkpt lat="41.904407842084765" lon="-8.875837242230773">
        <ele>38.0390625</ele>
      </trkpt>
      <trkpt lat="41.904936907812953" lon="-8.876159191131592">
        <ele>36.6328125</ele>
      </trkpt>
      <trkpt lat="41.905007986351848" lon="-8.876215349882841">
        <ele>36.58203125</ele>
      </trkpt>
      <trkpt lat="41.905088620260358" lon="-8.876263294368982">
        <ele>36.15625</ele>
      </trkpt>
      <trkpt lat="41.90517034381628" lon="-8.876298749819398">
        <ele>35.6640625</ele>
      </trkpt>
      <trkpt lat="41.905251899734139" lon="-8.876318782567978">
        <ele>35.23046875</ele>
      </trkpt>
      <trkpt lat="41.905334964394569" lon="-8.87633454054594">
        <ele>34.8046875</ele>
      </trkpt>
      <trkpt lat="41.90541367046535" lon="-8.87636044062674">
        <ele>34.34765625</ele>
      </trkpt>
      <trkpt lat="41.905498579144478" lon="-8.876390280202031">
        <ele>33.8203125</ele>
      </trkpt>
      <trkpt lat="41.905584242194891" lon="-8.876409139484167">
        <ele>33.2421875</ele>
      </trkpt>
      <trkpt lat="41.905664037913084" lon="-8.8764005061239">
        <ele>32.82421875</ele>
      </trkpt>
      <trkpt lat="41.905634449794888" lon="-8.876342587172985">
        <ele>33.2734375</ele>
      </trkpt>
      <trkpt lat="41.905575441196561" lon="-8.876264300197363">
        <ele>33.98046875</ele>
      </trkpt>
      <trkpt lat="41.905546020716429" lon="-8.876165561378002">
        <ele>34.60546875</ele>
      </trkpt>
      <trkpt lat="41.905546020716429" lon="-8.876059278845787">
        <ele>35.1015625</ele>
      </trkpt>
      <trkpt lat="41.905592037364841" lon="-8.875971520319581">
        <ele>35.265625</ele>
      </trkpt>
      <trkpt lat="41.90565699711442" lon="-8.875904129818082">
        <ele>35.234375</ele>
      </trkpt>
      <trkpt lat="41.905730506405234" lon="-8.875855095684528">
        <ele>35.07421875</ele>
      </trkpt>
      <trkpt lat="41.905807368457317" lon="-8.87581704184413">
        <ele>34.84375</ele>
      </trkpt>
      <trkpt lat="41.905881045386195" lon="-8.87577504850924">
        <ele>34.6484375</ele>
      </trkpt>
      <trkpt lat="41.90595312975347" lon="-8.875725176185369">
        <ele>34.48828125</ele>
      </trkpt>
      <trkpt lat="41.906030243262649" lon="-8.875683434307575">
        <ele>34.0703125</ele>
      </trkpt>
      <trkpt lat="41.90609872341156" lon="-8.875666335225105">
        <ele>33.60546875</ele>
      </trkpt>
      <trkpt lat="41.906337104737759" lon="-8.875648565590382">
        <ele>31.8046875</ele>
      </trkpt>
      <trkpt lat="41.906426204368472" lon="-8.87564655393362">
        <ele>31.0703125</ele>
      </trkpt>
      <trkpt lat="41.906513711437583" lon="-8.875646386295557">
        <ele>30.14453125</ele>
      </trkpt>
      <trkpt lat="41.906595434993505" lon="-8.875648314133286">
        <ele>29.26953125</ele>
      </trkpt>
      <trkpt lat="41.906676487997174" lon="-8.875654432922602">
        <ele>28.37890625</ele>
      </trkpt>
      <trkpt lat="41.906757541000843" lon="-8.875675052404404">
        <ele>27.4140625</ele>
      </trkpt>
      <trkpt lat="41.906841695308685" lon="-8.875696258619428">
        <ele>26.40625</ele>
      </trkpt>
      <trkpt lat="41.906929621472955" lon="-8.875723667442799">
        <ele>25.140625</ele>
      </trkpt>
      <trkpt lat="41.907011177390814" lon="-8.875750489532948">
        <ele>23.83203125</ele>
      </trkpt>
      <trkpt lat="41.907089380547404" lon="-8.875785358250141">
        <ele>22.48828125</ele>
      </trkpt>
      <trkpt lat="41.907164314761758" lon="-8.875848641619086">
        <ele>20.9453125</ele>
      </trkpt>
      <trkpt lat="41.907239248976111" lon="-8.87590060941875">
        <ele>19.421875</ele>
      </trkpt>
      <trkpt lat="41.907306807115674" lon="-8.87593187391758">
        <ele>18.12890625</ele>
      </trkpt>
      <trkpt lat="41.907273279502988" lon="-8.87603203766048">
        <ele>17.8359375</ele>
      </trkpt>
      <trkpt lat="41.907233884558082" lon="-8.876128513365984">
        <ele>17.7109375</ele>
      </trkpt>
      <trkpt lat="41.907204715535045" lon="-8.876230269670486">
        <ele>17.390625</ele>
      </trkpt>
      <trkpt lat="41.90718736499548" lon="-8.876340575516224">
        <ele>16.8046875</ele>
      </trkpt>
      <trkpt lat="41.907202787697315" lon="-8.876429423689842">
        <ele>15.84765625</ele>
      </trkpt>
      <trkpt lat="41.907286858186126" lon="-8.876423807814717">
        <ele>14.5078125</ele>
      </trkpt>
      <trkpt lat="41.90736279822886" lon="-8.876387597993016">
        <ele>13.6875</ele>
      </trkpt>
      <trkpt lat="41.907439157366753" lon="-8.876343173906207">
        <ele>13.203125</ele>
      </trkpt>
      <trkpt lat="41.907512918114662" lon="-8.876292882487178">
        <ele>12.80859375</ele>
      </trkpt>
      <trkpt lat="41.907581817358732" lon="-8.876231024041772">
        <ele>12.5703125</ele>
      </trkpt>
      <trkpt lat="41.907651303336024" lon="-8.876176541671157">
        <ele>12.27734375</ele>
      </trkpt>
      <trkpt lat="41.907702097669244" lon="-8.8761224783957">
        <ele>12.19140625</ele>
      </trkpt>
      <trkpt lat="41.907902676612139" lon="-8.875975208356977">
        <ele>11.8828125</ele>
      </trkpt>
      <trkpt lat="41.90799311734736" lon="-8.875952241942286">
        <ele>11.48828125</ele>
      </trkpt>
      <trkpt lat="41.908078277483582" lon="-8.875935981050134">
        <ele>11.0625</ele>
      </trkpt>
      <trkpt lat="41.908159833401442" lon="-8.875928772613406">
        <ele>10.56640625</ele>
      </trkpt>
      <trkpt lat="41.90824524499476" lon="-8.875936400145292">
        <ele>9.8828125</ele>
      </trkpt>
      <trkpt lat="41.908325962722301" lon="-8.875965988263488">
        <ele>9.25390625</ele>
      </trkpt>
      <trkpt lat="41.908390419557691" lon="-8.876042179763317">
        <ele>8.234375</ele>
      </trkpt>
      <trkpt lat="41.908453870564699" lon="-8.876154245808721">
        <ele>7</ele>
      </trkpt>
      <trkpt lat="41.908507095649838" lon="-8.876240579411387">
        <ele>6.1015625</ele>
      </trkpt>
      <trkpt lat="41.908570965752006" lon="-8.876319285482168">
        <ele>5.25390625</ele>
      </trkpt>
      <trkpt lat="41.90863223746419" lon="-8.876403523609042">
        <ele>4.3828125</ele>
      </trkpt>
      <trkpt lat="41.908694850280881" lon="-8.876487175002694">
        <ele>3.52734375</ele>
      </trkpt>
      <trkpt lat="41.908751511946321" lon="-8.876570407301188">
        <ele>2.89453125</ele>
      </trkpt>
      <trkpt lat="41.908814460039139" lon="-8.876651879400015">
        <ele>2.54296875</ele>
      </trkpt>
      <trkpt lat="41.908873217180371" lon="-8.876735027879477">
        <ele>2.203125</ele>
      </trkpt>
      <trkpt lat="41.908931136131287" lon="-8.876818930730224">
        <ele>1.875</ele>
      </trkpt>
      <trkpt lat="41.908995592966676" lon="-8.87688372284174">
        <ele>1.62890625</ele>
      </trkpt>
      <trkpt lat="41.90907496958971" lon="-8.876915909349918">
        <ele>1.50390625</ele>
      </trkpt>
      <trkpt lat="41.909155184403062" lon="-8.876923620700836">
        <ele>1.46875</ele>
      </trkpt>
      <trkpt lat="41.909241350367665" lon="-8.876903839409351">
        <ele>1.453125</ele>
      </trkpt>
      <trkpt lat="41.909324163571" lon="-8.876866037026048">
        <ele>1.44921875</ele>
      </trkpt>
      <trkpt lat="41.909397421404719" lon="-8.876814739778638">
        <ele>1.4921875</ele>
      </trkpt>
      <trkpt lat="41.909467494115233" lon="-8.876761933788657">
        <ele>1.53515625</ele>
      </trkpt>
      <trkpt lat="41.909539327025414" lon="-8.876712396740913">
        <ele>1.5546875</ele>
      </trkpt>
      <trkpt lat="41.909612584859133" lon="-8.876657076179981">
        <ele>1.578125</ele>
      </trkpt>
      <trkpt lat="41.909677712246776" lon="-8.87659102678299">
        <ele>1.703125</ele>
      </trkpt>
      <trkpt lat="41.909725069999695" lon="-8.876495976001024">
        <ele>2.19140625</ele>
      </trkpt>
      <trkpt lat="41.909732697531581" lon="-8.87638047337532">
        <ele>3.09375</ele>
      </trkpt>
      <trkpt lat="41.909745605662465" lon="-8.876265892758965">
        <ele>3.98828125</ele>
      </trkpt>
      <trkpt lat="41.909774355590343" lon="-8.876165980473161">
        <ele>4.76953125</ele>
      </trkpt>
      <trkpt lat="41.909837890416384" lon="-8.876094818115234">
        <ele>5.3203125</ele>
      </trkpt>
      <trkpt lat="41.909914668649435" lon="-8.876053746789694">
        <ele>5.6171875</ele>
      </trkpt>
      <trkpt lat="41.909994296729565" lon="-8.87602767907083">
        <ele>5.77734375</ele>
      </trkpt>
      <trkpt lat="41.910080881789327" lon="-8.876020470634103">
        <ele>5.8046875</ele>
      </trkpt>
      <trkpt lat="41.9101616833359" lon="-8.876031953841448">
        <ele>5.984375</ele>
      </trkpt>
      <trkpt lat="41.910246089100838" lon="-8.876061625778675">
        <ele>6.2578125</ele>
      </trkpt>
      <trkpt lat="41.910322867333889" lon="-8.876111330464482">
        <ele>6.375</ele>
      </trkpt>
      <trkpt lat="41.910383049398661" lon="-8.876185761764646">
        <ele>6.3125</ele>
      </trkpt>
      <trkpt lat="41.910417918115854" lon="-8.876296654343605">
        <ele>5.9609375</ele>
      </trkpt>
      <trkpt lat="41.910423869267106" lon="-8.876406708732247">
        <ele>5.44921875</ele>
      </trkpt>
      <trkpt lat="41.910422276705503" lon="-8.876517433673143">
        <ele>4.87890625</ele>
      </trkpt>
      <trkpt lat="41.910410206764936" lon="-8.876633271574974">
        <ele>4.38671875</ele>
      </trkpt>
      <trkpt lat="41.91039327532053" lon="-8.876739973202348">
        <ele>3.91796875</ele>
      </trkpt>
      <trkpt lat="41.910369973629713" lon="-8.876846004277468">
        <ele>3.40625</ele>
      </trkpt>
      <trkpt lat="41.910345079377294" lon="-8.876961003988981">
        <ele>2.86328125</ele>
      </trkpt>
      <trkpt lat="41.910345582291484" lon="-8.877076338976622">
        <ele>2.65234375</ele>
      </trkpt>
      <trkpt lat="41.910360837355256" lon="-8.877187566831708">
        <ele>2.6171875</ele>
      </trkpt>
      <trkpt lat="41.910394197329879" lon="-8.877293262630701">
        <ele>2.70703125</ele>
      </trkpt>
      <trkpt lat="41.910445997491479" lon="-8.877388397231698">
        <ele>2.921875</ele>
      </trkpt>
      <trkpt lat="41.910515818744898" lon="-8.877450088039041">
        <ele>3.28515625</ele>
      </trkpt>
      <trkpt lat="41.910593016073108" lon="-8.877491913735867">
        <ele>3.70703125</ele>
      </trkpt>
      <trkpt lat="41.910670213401318" lon="-8.877555280923843">
        <ele>4.171875</ele>
      </trkpt>
      <trkpt lat="41.910736011341214" lon="-8.877674723044038">
        <ele>4.20703125</ele>
      </trkpt>
      <trkpt lat="41.910773813724518" lon="-8.877776227891445">
        <ele>4.01953125</ele>
      </trkpt>
      <trkpt lat="41.910813124850392" lon="-8.877887455746531">
        <ele>3.74609375</ele>
      </trkpt>
      <trkpt lat="41.910847155377269" lon="-8.877992397174239">
        <ele>3.47265625</ele>
      </trkpt>
      <trkpt lat="41.91087163053453" lon="-8.878044364973903">
        <ele>3.3984375</ele>
      </trkpt>
      <trkpt lat="41.910962322726846" lon="-8.878208985552192">
        <ele>3.19140625</ele>
      </trkpt>
      <trkpt lat="41.911028875038028" lon="-8.878290373831987">
        <ele>3.19140625</ele>
      </trkpt>
      <trkpt lat="41.911093918606639" lon="-8.878359189257026">
        <ele>3.59375</ele>
      </trkpt>
      <trkpt lat="41.911172289401293" lon="-8.878398751839995">
        <ele>4.38671875</ele>
      </trkpt>
      <trkpt lat="41.911255521699786" lon="-8.87841316871345">
        <ele>5.36328125</ele>
      </trkpt>
      <trkpt lat="41.911343112587929" lon="-8.878417275846004">
        <ele>6.421875</ele>
      </trkpt>
      <trkpt lat="41.911436319351196" lon="-8.878421802073717">
        <ele>7.5390625</ele>
      </trkpt>
      <trkpt lat="41.911517204716802" lon="-8.878433704376221">
        <ele>8.59375</ele>
      </trkpt>
      <trkpt lat="41.911593563854694" lon="-8.87846639379859">
        <ele>9.9375</ele>
      </trkpt>
      <trkpt lat="41.91165785305202" lon="-8.878558678552508">
        <ele>10.6484375</ele>
      </trkpt>
      <trkpt lat="41.911696325987577" lon="-8.878663703799248">
        <ele>10.734375</ele>
      </trkpt>
      <trkpt lat="41.911718370392919" lon="-8.878776440396905">
        <ele>10.4296875</ele>
      </trkpt>
      <trkpt lat="41.91175265237689" lon="-8.878891440108418">
        <ele>10.33984375</ele>
      </trkpt>
      <trkpt lat="41.911790957674384" lon="-8.879000572487712">
        <ele>10.3515625</ele>
      </trkpt>
      <trkpt lat="41.911831442266703" lon="-8.879093360155821">
        <ele>10.48046875</ele>
      </trkpt>
      <trkpt lat="41.911885170266032" lon="-8.879180196672678">
        <ele>10.84765625</ele>
      </trkpt>
      <trkpt lat="41.911932695657015" lon="-8.879282372072339">
        <ele>10.96484375</ele>
      </trkpt>
      <trkpt lat="41.911953901872039" lon="-8.879405334591866">
        <ele>10.38671875</ele>
      </trkpt>
      <trkpt lat="41.911969408392906" lon="-8.879510946571827">
        <ele>9.84375</ele>
      </trkpt>
      <trkpt lat="41.912023304030299" lon="-8.879588060081005">
        <ele>10.41796875</ele>
      </trkpt>
      <trkpt lat="41.912087174132466" lon="-8.879656037315726">
        <ele>11.21484375</ele>
      </trkpt>
      <trkpt lat="41.912132687866688" lon="-8.87975636869669">
        <ele>11.25</ele>
      </trkpt>
      <trkpt lat="41.912167305126786" lon="-8.879861142486334">
        <ele>11.015625</ele>
      </trkpt>
      <trkpt lat="41.912207035347819" lon="-8.87996013276279">
        <ele>10.859375</ele>
      </trkpt>
      <trkpt lat="41.912248861044645" lon="-8.880062559619546">
        <ele>10.6171875</ele>
      </trkpt>
      <trkpt lat="41.912293871864676" lon="-8.880168674513698">
        <ele>10.29296875</ele>
      </trkpt>
      <trkpt lat="41.912334440276027" lon="-8.880272945389152">
        <ele>9.82421875</ele>
      </trkpt>
      <trkpt lat="41.912342654541135" lon="-8.880383251234889">
        <ele>8.78125</ele>
      </trkpt>
      <trkpt lat="41.91231113858521" lon="-8.880483750253916">
        <ele>7.36328125</ele>
      </trkpt>
      <trkpt lat="41.912264199927449" lon="-8.880573604255915">
        <ele>5.99609375</ele>
      </trkpt>
      <trkpt lat="41.912252297624946" lon="-8.880686424672604">
        <ele>4.84765625</ele>
      </trkpt>
      <trkpt lat="41.912247268483043" lon="-8.880795640870929">
        <ele>4.23828125</ele>
      </trkpt>
      <trkpt lat="41.912260847166181" lon="-8.880919944494963">
        <ele>3.74609375</ele>
      </trkpt>
      <trkpt lat="41.912283059209585" lon="-8.88102781958878">
        <ele>3.35546875</ele>
      </trkpt>
      <trkpt lat="41.912334272637963" lon="-8.88111817650497">
        <ele>3.1640625</ele>
      </trkpt>
      <trkpt lat="41.912399064749479" lon="-8.881183974444866">
        <ele>3.16015625</ele>
      </trkpt>
      <trkpt lat="41.912435693666339" lon="-8.881201576441526">
        <ele>3.28515625</ele>
      </trkpt>
      <trkpt lat="41.912707854062319" lon="-8.881378937512636">
        <ele>4.0625</ele>
      </trkpt>
      <trkpt lat="41.912799049168825" lon="-8.881402239203453">
        <ele>4.38671875</ele>
      </trkpt>
      <trkpt lat="41.912880688905716" lon="-8.881426379084587">
        <ele>4.625</ele>
      </trkpt>
      <trkpt lat="41.912959730252624" lon="-8.881450770422816">
        <ele>4.796875</ele>
      </trkpt>
      <trkpt lat="41.913043046370149" lon="-8.88147734105587">
        <ele>4.9296875</ele>
      </trkpt>
      <trkpt lat="41.913133235648274" lon="-8.881502319127321">
        <ele>5.06640625</ele>
      </trkpt>
      <trkpt lat="41.9132165517658" lon="-8.88152377679944">
        <ele>5.171875</ele>
      </trkpt>
      <trkpt lat="41.913299197331071" lon="-8.881547581404448">
        <ele>5.21875</ele>
      </trkpt>
      <trkpt lat="41.913369772955775" lon="-8.881599549204111">
        <ele>4.90625</ele>
      </trkpt>
      <trkpt lat="41.913425680249929" lon="-8.881680266931653">
        <ele>4.55078125</ele>
      </trkpt>
      <trkpt lat="41.913495836779475" lon="-8.881737096235156">
        <ele>4.48828125</ele>
      </trkpt>
      <trkpt lat="41.913577141240239" lon="-8.881763750687242">
        <ele>4.58984375</ele>
      </trkpt>
      <trkpt lat="41.913661882281303" lon="-8.881783951073885">
        <ele>4.72265625</ele>
      </trkpt>
      <trkpt lat="41.913737738505006" lon="-8.881822172552347">
        <ele>4.72265625</ele>
      </trkpt>
      <trkpt lat="41.913808733224869" lon="-8.881893334910274">
        <ele>4.49609375</ele>
      </trkpt>
      <trkpt lat="41.913878219202161" lon="-8.881954438984394">
        <ele>4.30859375</ele>
      </trkpt>
      <trkpt lat="41.913964804261923" lon="-8.881967011839151">
        <ele>4.4453125</ele>
      </trkpt>
      <trkpt lat="41.914039654657245" lon="-8.881921246647835">
        <ele>4.94921875</ele>
      </trkpt>
      <trkpt lat="41.914092712104321" lon="-8.881847402080894">
        <ele>5.6171875</ele>
      </trkpt>
      <trkpt lat="41.91417183727026" lon="-8.881870871409774">
        <ele>5.6796875</ele>
      </trkpt>
      <trkpt lat="41.914228415116668" lon="-8.881946392357349">
        <ele>5.26171875</ele>
      </trkpt>
      <trkpt lat="41.914273845031857" lon="-8.882039096206427">
        <ele>4.6484375</ele>
      </trkpt>
      <trkpt lat="41.914313575252891" lon="-8.882135320454836">
        <ele>3.97265625</ele>
      </trkpt>
      <trkpt lat="41.914381217211485" lon="-8.882198268547654">
        <ele>3.60546875</ele>
      </trkpt>
      <trkpt lat="41.914461012929678" lon="-8.88223079033196">
        <ele>3.4765625</ele>
      </trkpt>
      <trkpt lat="41.914549944922328" lon="-8.882255516946316">
        <ele>3.4140625</ele>
      </trkpt>
      <trkpt lat="41.914631249383092" lon="-8.882285188883543">
        <ele>3.3046875</ele>
      </trkpt>
      <trkpt lat="41.914720013737679" lon="-8.882311005145311">
        <ele>3.234375</ele>
      </trkpt>
      <trkpt lat="41.914803078398108" lon="-8.882338078692555">
        <ele>3.23046875</ele>
      </trkpt>
      <trkpt lat="41.914879018440843" lon="-8.882379066199064">
        <ele>3.11328125</ele>
      </trkpt>
      <trkpt lat="41.914955293759704" lon="-8.882436230778694">
        <ele>2.8515625</ele>
      </trkpt>
      <trkpt lat="41.915027461946011" lon="-8.882489204406738">
        <ele>2.58984375</ele>
      </trkpt>
      <trkpt lat="41.915102647617459" lon="-8.882540669292212">
        <ele>2.32421875</ele>
      </trkpt>
      <trkpt lat="41.915179509669542" lon="-8.882579393684864">
        <ele>2.3203125</ele>
      </trkpt>
      <trkpt lat="41.915257126092911" lon="-8.882616860792041">
        <ele>2.46484375</ele>
      </trkpt>
      <trkpt lat="41.915341364219785" lon="-8.882648795843124">
        <ele>2.671875</ele>
      </trkpt>
      <trkpt lat="41.915428703650832" lon="-8.882673857733607">
        <ele>2.890625</ele>
      </trkpt>
      <trkpt lat="41.915508415549994" lon="-8.882694812491536">
        <ele>3.08203125</ele>
      </trkpt>
      <trkpt lat="41.915593491867185" lon="-8.882717024534941">
        <ele>3.26953125</ele>
      </trkpt>
      <trkpt lat="41.915675383061171" lon="-8.882727921009064">
        <ele>3.4765625</ele>
      </trkpt>
      <trkpt lat="41.915756436064839" lon="-8.882737141102552">
        <ele>3.6484375</ele>
      </trkpt>
      <trkpt lat="41.915842434391379" lon="-8.882747450843453">
        <ele>3.828125</ele>
      </trkpt>
      <trkpt lat="41.915925079956651" lon="-8.882780810818076">
        <ele>3.890625</ele>
      </trkpt>
      <trkpt lat="41.9160037022084" lon="-8.882834538817406">
        <ele>3.8515625</ele>
      </trkpt>
      <trkpt lat="41.916078133508563" lon="-8.882881477475166">
        <ele>3.83203125</ele>
      </trkpt>
      <trkpt lat="41.916130101308227" lon="-8.882961692288518">
        <ele>3.59765625</ele>
      </trkpt>
      <trkpt lat="41.916186762973666" lon="-8.883051965385675">
        <ele>3.41796875</ele>
      </trkpt>
      <trkpt lat="41.916240826249123" lon="-8.883146848529577">
        <ele>3.265625</ele>
      </trkpt>
      <trkpt lat="41.916288854554296" lon="-8.883237037807703">
        <ele>3.09765625</ele>
      </trkpt>
      <trkpt lat="41.916336044669151" lon="-8.883328316733241">
        <ele>2.91015625</ele>
      </trkpt>
      <trkpt lat="41.916386000812054" lon="-8.883431414142251">
        <ele>2.671875</ele>
      </trkpt>
      <trkpt lat="41.916435370221734" lon="-8.883530320599675">
        <ele>2.42578125</ele>
      </trkpt>
      <trkpt lat="41.916502257809043" lon="-8.883587904274464">
        <ele>2.34375</ele>
      </trkpt>
      <trkpt lat="41.916582388803363" lon="-8.88360089622438">
        <ele>2.45703125</ele>
      </trkpt>
      <trkpt lat="41.91667165607214" lon="-8.883602740243077">
        <ele>2.46484375</ele>
      </trkpt>
      <trkpt lat="41.916760336607695" lon="-8.883589077740908">
        <ele>2.52734375</ele>
      </trkpt>
      <trkpt lat="41.916840132325888" lon="-8.88356426730752">
        <ele>2.640625</ele>
      </trkpt>
      <trkpt lat="41.916925795376301" lon="-8.883544821292162">
        <ele>2.73046875</ele>
      </trkpt>
      <trkpt lat="41.917009949684143" lon="-8.883530236780643">
        <ele>2.796875</ele>
      </trkpt>
      <trkpt lat="41.917101060971618" lon="-8.883505761623383">
        <ele>2.8515625</ele>
      </trkpt>
      <trkpt lat="41.917184628546238" lon="-8.883480783551931">
        <ele>2.85546875</ele>
      </trkpt>
      <trkpt lat="41.91726190969348" lon="-8.883446250110865">
        <ele>2.92578125</ele>
      </trkpt>
      <trkpt lat="41.917345812544227" lon="-8.883407022804022">
        <ele>3.0390625</ele>
      </trkpt>
      <trkpt lat="41.91742854192853" lon="-8.883378775790334">
        <ele>3.10546875</ele>
      </trkpt>
      <trkpt lat="41.917436923831701" lon="-8.883377015590668">
        <ele>3.10546875</ele>
      </trkpt>
      <trkpt lat="41.917631132528186" lon="-8.883283725008368">
        <ele>3.76171875</ele>
      </trkpt>
      <trkpt lat="41.917716292664409" lon="-8.88327157124877">
        <ele>3.97265625</ele>
      </trkpt>
      <trkpt lat="41.917807906866074" lon="-8.883259920403361">
        <ele>4.1953125</ele>
      </trkpt>
      <trkpt lat="41.917895581573248" lon="-8.883244749158621">
        <ele>4.4375</ele>
      </trkpt>
      <trkpt lat="41.917977891862392" lon="-8.883248688653111">
        <ele>4.546875</ele>
      </trkpt>
      <trkpt lat="41.918061543256044" lon="-8.88327500782907">
        <ele>4.453125</ele>
      </trkpt>
      <trkpt lat="41.918143266811967" lon="-8.88330384157598">
        <ele>4.33203125</ele>
      </trkpt>
      <trkpt lat="41.918227924033999" lon="-8.883334519341588">
        <ele>4.1953125</ele>
      </trkpt>
      <trkpt lat="41.918310653418303" lon="-8.883374836295843">
        <ele>3.984375</ele>
      </trkpt>
      <trkpt lat="41.918386006727815" lon="-8.883414398878813">
        <ele>3.7578125</ele>
      </trkpt>
      <trkpt lat="41.918462198227644" lon="-8.883452452719212">
        <ele>3.52734375</ele>
      </trkpt>
      <trkpt lat="41.918544676154852" lon="-8.883474916219711">
        <ele>3.36328125</ele>
      </trkpt>
      <trkpt lat="41.918633608147502" lon="-8.883493356406689">
        <ele>3.2734375</ele>
      </trkpt>
      <trkpt lat="41.918716924265027" lon="-8.883503749966621">
        <ele>3.2265625</ele>
      </trkpt>
      <trkpt lat="41.918797977268696" lon="-8.883513640612364">
        <ele>3.1796875</ele>
      </trkpt>
      <trkpt lat="41.918901996687055" lon="-8.883524369448423">
        <ele>3.12890625</ele>
      </trkpt>
      <trkpt lat="41.918985564261675" lon="-8.88352663256228">
        <ele>3.171875</ele>
      </trkpt>
      <trkpt lat="41.919065779075027" lon="-8.883514227345586">
        <ele>3.28515625</ele>
      </trkpt>
      <trkpt lat="41.91913828253746" lon="-8.883463852107525">
        <ele>3.6171875</ele>
      </trkpt>
      <trkpt lat="41.919188993051648" lon="-8.883378775790334">
        <ele>4.4140625</ele>
      </trkpt>
      <trkpt lat="41.919218748807907" lon="-8.883266961202025">
        <ele>5.4453125</ele>
      </trkpt>
      <trkpt lat="41.919250683858991" lon="-8.883162187412381">
        <ele>6.42578125</ele>
      </trkpt>
      <trkpt lat="41.919284546747804" lon="-8.883061604574323">
        <ele>7.37890625</ele>
      </trkpt>
      <trkpt lat="41.919319918379188" lon="-8.882957752794027">
        <ele>8.44921875</ele>
      </trkpt>
      <trkpt lat="41.919349925592542" lon="-8.882844932377338">
        <ele>9.67578125</ele>
      </trkpt>
      <trkpt lat="41.919373981654644" lon="-8.882739068940282">
        <ele>10.83203125</ele>
      </trkpt>
      <trkpt lat="41.919396696612239" lon="-8.882630607113242">
        <ele>12.00390625</ele>
      </trkpt>
      <trkpt lat="41.919416561722755" lon="-8.882509237155318">
        <ele>13.4453125</ele>
      </trkpt>
      <trkpt lat="41.919425697997212" lon="-8.882400607690215">
        <ele>14.97265625</ele>
      </trkpt>
      <trkpt lat="41.919382866472006" lon="-8.88230656273663">
        <ele>16.2109375</ele>
      </trkpt>
      <trkpt lat="41.919318661093712" lon="-8.882231209427118">
        <ele>17.12890625</ele>
      </trkpt>
      <trkpt lat="41.919258395209908" lon="-8.882149988785386">
        <ele>18.13671875</ele>
      </trkpt>
      <trkpt lat="41.919189328327775" lon="-8.882038509473205">
        <ele>19.5625</ele>
      </trkpt>
      <trkpt lat="41.919136689975858" lon="-8.881950164213777">
        <ele>20.703125</ele>
      </trkpt>
      <trkpt lat="41.919076004996896" lon="-8.881868859753013">
        <ele>21.71875</ele>
      </trkpt>
      <trkpt lat="41.919008363038301" lon="-8.881805492565036">
        <ele>22.44921875</ele>
      </trkpt>
      <trkpt lat="41.918948516249657" lon="-8.881712537258863">
        <ele>23.59765625</ele>
      </trkpt>
      <trkpt lat="41.918927142396569" lon="-8.881607344374061">
        <ele>24.9765625</ele>
      </trkpt>
      <trkpt lat="41.918948097154498" lon="-8.881503157317638">
        <ele>26.328125</ele>
      </trkpt>
      <trkpt lat="41.918984306976199" lon="-8.881400059908628">
        <ele>27.6953125</ele>
      </trkpt>
      <trkpt lat="41.91903761588037" lon="-8.881306517869234">
        <ele>28.97265625</ele>
      </trkpt>
      <trkpt lat="41.919103749096394" lon="-8.881242731586099">
        <ele>29.8984375</ele>
      </trkpt>
      <trkpt lat="41.91918320953846" lon="-8.881212137639523">
        <ele>30.43359375</ele>
      </trkpt>
      <trkpt lat="41.919270465150476" lon="-8.881193278357387">
        <ele>30.83984375</ele>
      </trkpt>
      <trkpt lat="41.919354116544127" lon="-8.881147345528007">
        <ele>31.56640625</ele>
      </trkpt>
      <trkpt lat="41.919426620006561" lon="-8.881093030795455">
        <ele>32.34765625</ele>
      </trkpt>
      <trkpt lat="41.919434666633606" lon="-8.881089929491282">
        <ele>32.3984375</ele>
      </trkpt>
      <trkpt lat="41.919612949714065" lon="-8.880984149873257">
        <ele>33.95703125</ele>
      </trkpt>
      <trkpt lat="41.919681765139103" lon="-8.880921620875597">
        <ele>34.828125</ele>
      </trkpt>
      <trkpt lat="41.919731218367815" lon="-8.880825396627188">
        <ele>36.09765625</ele>
      </trkpt>
      <trkpt lat="41.919766673818231" lon="-8.880727160722017">
        <ele>37.375</ele>
      </trkpt>
      <trkpt lat="41.919775642454624" lon="-8.88061786070466">
        <ele>39.0546875</ele>
      </trkpt>
      <trkpt lat="41.919779581949115" lon="-8.880499340593815">
        <ele>40.98046875</ele>
      </trkpt>
      <trkpt lat="41.919777989387512" lon="-8.880390292033553">
        <ele>42.73828125</ele>
      </trkpt>
      <trkpt lat="41.919799111783504" lon="-8.880286775529385">
        <ele>44.4921875</ele>
      </trkpt>
      <trkpt lat="41.919872621074319" lon="-8.880262216553092">
        <ele>45.29296875</ele>
      </trkpt>
      <trkpt lat="41.919956859201193" lon="-8.88028996065259">
        <ele>45.37109375</ele>
      </trkpt>
      <trkpt lat="41.920035984367132" lon="-8.880325667560101">
        <ele>45.2734375</ele>
      </trkpt>
      <trkpt lat="41.92011745646596" lon="-8.880344862118363">
        <ele>45.45703125</ele>
      </trkpt>
      <trkpt lat="41.920208819210529" lon="-8.880367577075958">
        <ele>45.6328125</ele>
      </trkpt>
      <trkpt lat="41.920301606878638" lon="-8.880385681986809">
        <ele>45.90625</ele>
      </trkpt>
      <trkpt lat="41.920385845005512" lon="-8.880397249013186">
        <ele>46.36328125</ele>
      </trkpt>
      <trkpt lat="41.920465221628547" lon="-8.880418622866273">
        <ele>46.59375</ele>
      </trkpt>
      <trkpt lat="41.920543676242232" lon="-8.880471931770444">
        <ele>46.19921875</ele>
      </trkpt>
      <trkpt lat="41.920629171654582" lon="-8.880501100793481">
        <ele>46.28515625</ele>
      </trkpt>
      <trkpt lat="41.920719025656581" lon="-8.880509734153748">
        <ele>46.78515625</ele>
      </trkpt>
      <trkpt lat="41.920810136944056" lon="-8.88051426038146">
        <ele>47.19921875</ele>
      </trkpt>
      <trkpt lat="41.920894710347056" lon="-8.88051426038146">
        <ele>47.56640625</ele>
      </trkpt>
      <trkpt lat="41.920982049778104" lon="-8.880512164905667">
        <ele>47.9921875</ele>
      </trkpt>
      <trkpt lat="41.921069473028183" lon="-8.88051426038146">
        <ele>48.328125</ele>
      </trkpt>
      <trkpt lat="41.921158991754055" lon="-8.880520546808839">
        <ele>48.578125</ele>
      </trkpt>
      <trkpt lat="41.921219173818827" lon="-8.880584416911006">
        <ele>47.40625</ele>
      </trkpt>
      <trkpt lat="41.92122763954103" lon="-8.880692711099982">
        <ele>45.0078125</ele>
      </trkpt>
      <trkpt lat="41.921226046979427" lon="-8.880812656134367">
        <ele>42.7578125</ele>
      </trkpt>
      <trkpt lat="41.921233423054218" lon="-8.880925225093961">
        <ele>40.703125</ele>
      </trkpt>
      <trkpt lat="41.921260496601462" lon="-8.881030334159732">
        <ele>38.8359375</ele>
      </trkpt>
      <trkpt lat="41.921301316469908" lon="-8.881122618913651">
        <ele>37.23828125</ele>
      </trkpt>
      <trkpt lat="41.921352026984096" lon="-8.881206857040524">
        <ele>35.8515625</ele>
      </trkpt>
      <trkpt lat="41.921410700306296" lon="-8.881299057975411">
        <ele>34.39453125</ele>
      </trkpt>
      <trkpt lat="41.921495860442519" lon="-8.881326718255877">
        <ele>34.15625</ele>
      </trkpt>
      <trkpt lat="41.921583116054535" lon="-8.88133468106389">
        <ele>34.26953125</ele>
      </trkpt>
      <trkpt lat="41.921669030562043" lon="-8.881340716034174">
        <ele>34.4140625</ele>
      </trkpt>
      <trkpt lat="41.921758968383074" lon="-8.881355468183756">
        <ele>34.29296875</ele>
      </trkpt>
      <trkpt lat="41.921842535957694" lon="-8.881373908370733">
        <ele>34.08984375</ele>
      </trkpt>
      <trkpt lat="41.921923756599426" lon="-8.881408106535673">
        <ele>33.609375</ele>
      </trkpt>
      <trkpt lat="41.922013442963362" lon="-8.881455296650529">
        <ele>32.921875</ele>
      </trkpt>
      <trkpt lat="41.922096088528633" lon="-8.88150567188859">
        <ele>32.16796875</ele>
      </trkpt>
      <trkpt lat="41.922171609476209" lon="-8.881545066833496">
        <ele>31.609375</ele>
      </trkpt>
      <trkpt lat="41.922257523983717" lon="-8.88158680871129">
        <ele>31.05859375</ele>
      </trkpt>
      <trkpt lat="41.922336397692561" lon="-8.881618408486247">
        <ele>30.6796875</ele>
      </trkpt>
      <trkpt lat="41.922420216724277" lon="-8.881642380729318">
        <ele>30.4921875</ele>
      </trkpt>
      <trkpt lat="41.922520212829113" lon="-8.881673561409116">
        <ele>30.2578125</ele>
      </trkpt>
      <trkpt lat="41.922610066831112" lon="-8.88169870711863">
        <ele>30.09375</ele>
      </trkpt>
      <trkpt lat="41.922693718224764" lon="-8.881725026294589">
        <ele>29.9921875</ele>
      </trkpt>
      <trkpt lat="41.922771334648132" lon="-8.881768947467208">
        <ele>29.6171875</ele>
      </trkpt>
      <trkpt lat="41.922849202528596" lon="-8.881833488121629">
        <ele>28.9453125</ele>
      </trkpt>
      <trkpt lat="41.922928160056472" lon="-8.881888641044497">
        <ele>28.390625</ele>
      </trkpt>
      <trkpt lat="41.923013739287853" lon="-8.881949661299586">
        <ele>27.76171875</ele>
      </trkpt>
      <trkpt lat="41.923099486157298" lon="-8.882008669897914">
        <ele>27.125</ele>
      </trkpt>
      <trkpt lat="41.923183053731918" lon="-8.882066840305924">
        <ele>26.44921875</ele>
      </trkpt>
      <trkpt lat="41.923259664326906" lon="-8.882120065391064">
        <ele>25.82421875</ele>
      </trkpt>
      <trkpt lat="41.923332419246435" lon="-8.882183600217104">
        <ele>25.046875</ele>
      </trkpt>
      <trkpt lat="41.92339863628149" lon="-8.882245291024446">
        <ele>24.28515625</ele>
      </trkpt>
      <trkpt lat="41.923470972105861" lon="-8.88229675590992">
        <ele>23.6796875</ele>
      </trkpt>
      <trkpt lat="41.923549761995673" lon="-8.88233782723546">
        <ele>23.26171875</ele>
      </trkpt>
      <trkpt lat="41.923631737008691" lon="-8.882373534142971">
        <ele>23.01171875</ele>
      </trkpt>
      <trkpt lat="41.923714466392994" lon="-8.882399098947644">
        <ele>22.92578125</ele>
      </trkpt>
      <trkpt lat="41.92379342392087" lon="-8.882429609075189">
        <ele>22.77734375</ele>
      </trkpt>
      <trkpt lat="41.923872465267777" lon="-8.882457688450813">
        <ele>22.68359375</ele>
      </trkpt>
      <trkpt lat="41.923953015357256" lon="-8.8824721891433">
        <ele>22.78515625</ele>
      </trkpt>
      <trkpt lat="41.924035912379622" lon="-8.882462214678526">
        <ele>23.1328125</ele>
      </trkpt>
      <trkpt lat="41.92411788739264" lon="-8.882439332082868">
        <ele>23.56640625</ele>
      </trkpt>
      <trkpt lat="41.924197264015675" lon="-8.882422568276525">
        <ele>23.91796875</ele>
      </trkpt>
      <trkpt lat="41.92420681938529" lon="-8.882419634610415">
        <ele>23.96875</ele>
      </trkpt>
      <trkpt lat="41.924443272873759" lon="-8.882329445332289">
        <ele>25.46484375</ele>
      </trkpt>
      <trkpt lat="41.924534803256392" lon="-8.88233145698905">
        <ele>25.56640625</ele>
      </trkpt>
      <trkpt lat="41.924627926200628" lon="-8.882324919104576">
        <ele>25.765625</ele>
      </trkpt>
      <trkpt lat="41.924712164327502" lon="-8.882320811972022">
        <ele>25.92578125</ele>
      </trkpt>
      <trkpt lat="41.924795312806964" lon="-8.882320811972022">
        <ele>26.03515625</ele>
      </trkpt>
      <trkpt lat="41.924878042191267" lon="-8.882306395098567">
        <ele>26.31640625</ele>
      </trkpt>
      <trkpt lat="41.924933278933167" lon="-8.882198603823781">
        <ele>27.6875</ele>
      </trkpt>
      <trkpt lat="41.924948869273067" lon="-8.882090812548995">
        <ele>29.0078125</ele>
      </trkpt>
      <trkpt lat="41.924957418814301" lon="-8.881981177255511">
        <ele>30.3359375</ele>
      </trkpt>
      <trkpt lat="41.92495490424335" lon="-8.881949158385396">
        <ele>30.70703125</ele>
      </trkpt>
      <trkpt lat="41.924943253397942" lon="-8.881847569718957">
        <ele>31.8828125</ele>
      </trkpt>
      <trkpt lat="41.924946773797274" lon="-8.881735922768712">
        <ele>33.22265625</ele>
      </trkpt>
      <trkpt lat="41.924944845959544" lon="-8.881627377122641">
        <ele>34.5078125</ele>
      </trkpt>
      <trkpt lat="41.924939565360546" lon="-8.881515813991427">
        <ele>35.87890625</ele>
      </trkpt>
      <trkpt lat="41.92494316957891" lon="-8.881397629156709">
        <ele>37.359375</ele>
      </trkpt>
      <trkpt lat="41.924958424642682" lon="-8.881286736577749">
        <ele>38.77734375</ele>
      </trkpt>
      <trkpt lat="41.924982983618975" lon="-8.881185399368405">
        <ele>40.08203125</ele>
      </trkpt>
      <trkpt lat="41.925005195662379" lon="-8.881073584780097">
        <ele>41.6875</ele>
      </trkpt>
      <trkpt lat="41.925012739375234" lon="-8.88102195225656">
        <ele>42.44140625</ele>
      </trkpt>
      <trkpt lat="41.926444619894028" lon="-8.881234182044864">
        <ele>45.12890625</ele>
      </trkpt>
      <trkpt lat="41.927617080509663" lon="-8.881399724632502">
        <ele>43.23046875</ele>
      </trkpt>
      <trkpt lat="41.92920695990324" lon="-8.881652187556028">
        <ele>42.4296875</ele>
      </trkpt>
      <trkpt lat="41.929984046146274" lon="-8.881801636889577">
        <ele>47.40625</ele>
      </trkpt>
      <trkpt lat="41.930023860186338" lon="-8.881801636889577">
        <ele>47.7578125</ele>
      </trkpt>
      <trkpt lat="41.930469442158937" lon="-8.881922755390406">
        <ele>48.17578125</ele>
      </trkpt>
      <trkpt lat="41.930470783263445" lon="-8.881925940513611">
        <ele>48.12109375</ele>
      </trkpt>
      <trkpt lat="41.93080279044807" lon="-8.882033228874207">
        <ele>47.94921875</ele>
      </trkpt>
      <trkpt lat="41.930804047733545" lon="-8.882033228874207">
        <ele>47.95703125</ele>
      </trkpt>
      <trkpt lat="41.933462452143431" lon="-8.883318845182657">
        <ele>46.41015625</ele>
      </trkpt>
      <trkpt lat="41.93559137172997" lon="-8.884332301095128">
        <ele>45.73046875</ele>
      </trkpt>
      <trkpt lat="41.936816219240427" lon="-8.884920626878738">
        <ele>44.390625</ele>
      </trkpt>
      <trkpt lat="41.936826109886169" lon="-8.884921129792929">
        <ele>44.4375</ele>
      </trkpt>
      <trkpt lat="41.937208576127887" lon="-8.885061945766211">
        <ele>42.5546875</ele>
      </trkpt>
      <trkpt lat="41.937293652445078" lon="-8.88507317751646">
        <ele>42.42578125</ele>
      </trkpt>
      <trkpt lat="41.937381159514189" lon="-8.885084576904774">
        <ele>42.28125</ele>
      </trkpt>
      <trkpt lat="41.937462631613016" lon="-8.885122127830982">
        <ele>41.171875</ele>
      </trkpt>
      <trkpt lat="41.937548127025366" lon="-8.885124307125807">
        <ele>40.6875</ele>
      </trkpt>
      <trkpt lat="41.937633873894811" lon="-8.885120032355189">
        <ele>40.35546875</ele>
      </trkpt>
      <trkpt lat="41.937720878049731" lon="-8.885100251063704">
        <ele>40.4140625</ele>
      </trkpt>
      <trkpt lat="41.937801092863083" lon="-8.885081810876727">
        <ele>40.484375</ele>
      </trkpt>
      <trkpt lat="41.937882732599974" lon="-8.885066220536828">
        <ele>40.47265625</ele>
      </trkpt>
      <trkpt lat="41.937960851937532" lon="-8.885092455893755">
        <ele>39.28515625</ele>
      </trkpt>
      <trkpt lat="41.938032852485776" lon="-8.885043086484075">
        <ele>40.125</ele>
      </trkpt>
      <trkpt lat="41.938092866912484" lon="-8.884969241917133">
        <ele>41.734375</ele>
      </trkpt>
      <trkpt lat="41.938165873289108" lon="-8.884919453412294">
        <ele>42.66796875</ele>
      </trkpt>
      <trkpt lat="41.938250279054046" lon="-8.884892212226987">
        <ele>42.95703125</ele>
      </trkpt>
      <trkpt lat="41.938332337886095" lon="-8.884857511147857">
        <ele>43.4609375</ele>
      </trkpt>
      <trkpt lat="41.938422108069062" lon="-8.884826581925154">
        <ele>43.3203125</ele>
      </trkpt>
      <trkpt lat="41.938503161072731" lon="-8.88480244204402">
        <ele>43.08203125</ele>
      </trkpt>
      <trkpt lat="41.938582872971892" lon="-8.884781906381249">
        <ele>42.765625</ele>
      </trkpt>
      <trkpt lat="41.938672559335828" lon="-8.884760113433003">
        <ele>42.375</ele>
      </trkpt>
      <trkpt lat="41.938754534348845" lon="-8.884733123704791">
        <ele>42.1796875</ele>
      </trkpt>
      <trkpt lat="41.938842041417956" lon="-8.884702362120152">
        <ele>42.08984375</ele>
      </trkpt>
      <trkpt lat="41.938920831307769" lon="-8.884670427069068">
        <ele>42.1796875</ele>
      </trkpt>
      <trkpt lat="41.939005069434643" lon="-8.884638911113143">
        <ele>42.20703125</ele>
      </trkpt>
      <trkpt lat="41.939095510169864" lon="-8.884603623300791">
        <ele>42.26171875</ele>
      </trkpt>
      <trkpt lat="41.939175389707088" lon="-8.884574705734849">
        <ele>42.25390625</ele>
      </trkpt>
      <trkpt lat="41.939262812957168" lon="-8.88454251922667">
        <ele>42.2578125</ele>
      </trkpt>
      <trkpt lat="41.93934646435082" lon="-8.884507901966572">
        <ele>42.9609375</ele>
      </trkpt>
      <trkpt lat="41.939427182078362" lon="-8.884469261392951">
        <ele>43.73046875</ele>
      </trkpt>
      <trkpt lat="41.9395184610039" lon="-8.884429782629013">
        <ele>44.4765625</ele>
      </trkpt>
      <trkpt lat="41.939600771293044" lon="-8.884403379634023">
        <ele>44.9296875</ele>
      </trkpt>
      <trkpt lat="41.93960739299655" lon="-8.884403379634023">
        <ele>44.921875</ele>
      </trkpt>
      <trkpt lat="41.940431417897344" lon="-8.884179079905152">
        <ele>49.3828125</ele>
      </trkpt>
      <trkpt lat="41.940528145059943" lon="-8.88415795750916">
        <ele>49.69921875</ele>
      </trkpt>
      <trkpt lat="41.940611880272627" lon="-8.884136667475104">
        <ele>50.0234375</ele>
      </trkpt>
      <trkpt lat="41.940691843628883" lon="-8.884118059650064">
        <ele>50.07421875</ele>
      </trkpt>
      <trkpt lat="41.940737022086978" lon="-8.88418628834188">
        <ele>48.3046875</ele>
      </trkpt>
      <trkpt lat="41.940738782286644" lon="-8.884294917806983">
        <ele>45.9609375</ele>
      </trkpt>
      <trkpt lat="41.940776333212852" lon="-8.884379910305142">
        <ele>43.90625</ele>
      </trkpt>
      <trkpt lat="41.940863085910678" lon="-8.884381921961904">
        <ele>43.34765625</ele>
      </trkpt>
      <trkpt lat="41.9409448094666" lon="-8.884344454854727">
        <ele>43.640625</ele>
      </trkpt>
      <trkpt lat="41.941014882177114" lon="-8.884282596409321">
        <ele>44.4921875</ele>
      </trkpt>
      <trkpt lat="41.941017648205161" lon="-8.884281003847718">
        <ele>44.5078125</ele>
      </trkpt>
      <trkpt lat="41.941275307908654" lon="-8.884153012186289">
        <ele>44.9765625</ele>
      </trkpt>
      <trkpt lat="41.941358624026179" lon="-8.88410858809948">
        <ele>45.10546875</ele>
      </trkpt>
      <trkpt lat="41.941436491906643" lon="-8.884062822908163">
        <ele>45.32421875</ele>
      </trkpt>
      <trkpt lat="41.941514778882265" lon="-8.884022338315845">
        <ele>45.4375</ele>
      </trkpt>
      <trkpt lat="41.941592898219824" lon="-8.883977578952909">
        <ele>45.6328125</ele>
      </trkpt>
      <trkpt lat="41.941678393632174" lon="-8.883947068825364">
        <ele>45.375</ele>
      </trkpt>
      <trkpt lat="41.941759865731001" lon="-8.883916810154915">
        <ele>45.1171875</ele>
      </trkpt>
      <trkpt lat="41.941843600943685" lon="-8.883886635303497">
        <ele>44.80859375</ele>
      </trkpt>
      <trkpt lat="41.941925324499607" lon="-8.883846318349242">
        <ele>44.6953125</ele>
      </trkpt>
      <trkpt lat="41.942011574283242" lon="-8.883815724402666">
        <ele>44.3203125</ele>
      </trkpt>
      <trkpt lat="41.942091789096594" lon="-8.883791249245405">
        <ele>43.87890625</ele>
      </trkpt>
      <trkpt lat="41.942175356671214" lon="-8.883768450468779">
        <ele>43.3515625</ele>
      </trkpt>
      <trkpt lat="41.94226554594934" lon="-8.883737185969949">
        <ele>42.87890625</ele>
      </trkpt>
      <trkpt lat="41.942359507083893" lon="-8.883698377758265">
        <ele>42.46875</ele>
      </trkpt>
      <trkpt lat="41.942440811544657" lon="-8.883653953671455">
        <ele>42.2734375</ele>
      </trkpt>
      <trkpt lat="41.942506106570363" lon="-8.883599555119872">
        <ele>42.3828125</ele>
      </trkpt>
      <trkpt lat="41.942735770717263" lon="-8.883365280926228">
        <ele>43.13671875</ele>
      </trkpt>
      <trkpt lat="41.942815482616425" lon="-8.883342817425728">
        <ele>42.42578125</ele>
      </trkpt>
      <trkpt lat="41.942904582247138" lon="-8.883310714736581">
        <ele>41.7734375</ele>
      </trkpt>
      <trkpt lat="41.942985970526934" lon="-8.883280623704195">
        <ele>41.21875</ele>
      </trkpt>
      <trkpt lat="41.943069454282522" lon="-8.883252963423729">
        <ele>40.62109375</ele>
      </trkpt>
      <trkpt lat="41.943133994936943" lon="-8.883170736953616">
        <ele>41.33984375</ele>
      </trkpt>
      <trkpt lat="41.943179508671165" lon="-8.883054815232754">
        <ele>42.98046875</ele>
      </trkpt>
      <trkpt lat="41.943226447328925" lon="-8.882965128868818">
        <ele>44.125</ele>
      </trkpt>
      <trkpt lat="41.94326676428318" lon="-8.882873011752963">
        <ele>45.4375</ele>
      </trkpt>
      <trkpt lat="41.943338681012392" lon="-8.882803693413734">
        <ele>45.91796875</ele>
      </trkpt>
      <trkpt lat="41.943413950502872" lon="-8.882744181901217">
        <ele>46.18359375</ele>
      </trkpt>
      <trkpt lat="41.943488214164972" lon="-8.882702523842454">
        <ele>46.17578125</ele>
      </trkpt>
      <trkpt lat="41.943572787567973" lon="-8.882646448910236">
        <ele>46.328125</ele>
      </trkpt>
      <trkpt lat="41.943649649620056" lon="-8.882591212168336">
        <ele>46.53125</ele>
      </trkpt>
      <trkpt lat="41.943728607147932" lon="-8.882542597129941">
        <ele>46.5625</ele>
      </trkpt>
      <trkpt lat="41.943808235228062" lon="-8.882499681785703">
        <ele>46.49609375</ele>
      </trkpt>
      <trkpt lat="41.943886773660779" lon="-8.882450815290213">
        <ele>46.5625</ele>
      </trkpt>
      <trkpt lat="41.943962294608355" lon="-8.882414940744638">
        <ele>46.625</ele>
      </trkpt>
      <trkpt lat="41.944044269621372" lon="-8.882396081462502">
        <ele>46.29296875</ele>
      </trkpt>
      <trkpt lat="41.944128926843405" lon="-8.882385268807411">
        <ele>45.77734375</ele>
      </trkpt>
      <trkpt lat="41.944218948483467" lon="-8.882385268807411">
        <ele>44.9921875</ele>
      </trkpt>
      <trkpt lat="41.944300169125199" lon="-8.882387615740299">
        <ele>44.23046875</ele>
      </trkpt>
      <trkpt lat="41.944388933479786" lon="-8.882389962673187">
        <ele>43.58203125</ele>
      </trkpt>
      <trkpt lat="41.944474680349231" lon="-8.882398344576359">
        <ele>43.0625</ele>
      </trkpt>
      <trkpt lat="41.944561935961246" lon="-8.882392309606075">
        <ele>42.84765625</ele>
      </trkpt>
      <trkpt lat="41.944655226543546" lon="-8.882375210523605">
        <ele>42.84765625</ele>
      </trkpt>
      <trkpt lat="41.944738710299134" lon="-8.882344868034124">
        <ele>43.1796875</ele>
      </trkpt>
      <trkpt lat="41.94481959566474" lon="-8.882285272702575">
        <ele>44.1640625</ele>
      </trkpt>
      <trkpt lat="41.944889416918159" lon="-8.882226264104247">
        <ele>45.25390625</ele>
      </trkpt>
      <trkpt lat="41.944967117160559" lon="-8.882179912179708">
        <ele>46.0234375</ele>
      </trkpt>
      <trkpt lat="41.945051858201623" lon="-8.882149904966354">
        <ele>46.3984375</ele>
      </trkpt>
      <trkpt lat="41.945131234824657" lon="-8.882126267999411">
        <ele>46.640625</ele>
      </trkpt>
      <trkpt lat="41.94521245546639" lon="-8.88210279867053">
        <ele>46.85546875</ele>
      </trkpt>
      <trkpt lat="41.945292083546519" lon="-8.882085951045156">
        <ele>46.9296875</ele>
      </trkpt>
      <trkpt lat="41.945298872888088" lon="-8.882085951045156">
        <ele>46.90625</ele>
      </trkpt>
      <trkpt lat="41.945425774902105" lon="-8.882031217217445">
        <ele>47.4609375</ele>
      </trkpt>
      <trkpt lat="41.945511773228645" lon="-8.88203096576035">
        <ele>47.140625</ele>
      </trkpt>
      <trkpt lat="41.945598693564534" lon="-8.882039682939649">
        <ele>46.671875</ele>
      </trkpt>
      <trkpt lat="41.945679746568203" lon="-8.882053261622787">
        <ele>46.15625</ele>
      </trkpt>
      <trkpt lat="41.945763062685728" lon="-8.88207882642746">
        <ele>45.5703125</ele>
      </trkpt>
      <trkpt lat="41.945842104032636" lon="-8.882117215543985">
        <ele>45.02734375</ele>
      </trkpt>
      <trkpt lat="41.94592097774148" lon="-8.882143199443817">
        <ele>44.6796875</ele>
      </trkpt>
      <trkpt lat="41.946005132049322" lon="-8.882156107574701">
        <ele>44.54296875</ele>
      </trkpt>
      <trkpt lat="41.946086436510086" lon="-8.882170859724283">
        <ele>44.375</ele>
      </trkpt>
      <trkpt lat="41.946166148409247" lon="-8.882189886644483">
        <ele>44.1484375</ele>
      </trkpt>
      <trkpt lat="41.946249799802899" lon="-8.882206482812762">
        <ele>43.98828125</ele>
      </trkpt>
      <trkpt lat="41.946335546672344" lon="-8.882224336266518">
        <ele>43.83203125</ele>
      </trkpt>
      <trkpt lat="41.946423975750804" lon="-8.882244452834129">
        <ele>43.64453125</ele>
      </trkpt>
      <trkpt lat="41.946514332666993" lon="-8.88226012699306">
        <ele>43.52734375</ele>
      </trkpt>
      <trkpt lat="41.946607874706388" lon="-8.882274711504579">
        <ele>43.4296875</ele>
      </trkpt>
      <trkpt lat="41.946695046499372" lon="-8.882302958518267">
        <ele>43.1328125</ele>
      </trkpt>
      <trkpt lat="41.946774087846279" lon="-8.882336234673858">
        <ele>42.79296875</ele>
      </trkpt>
      <trkpt lat="41.946853045374155" lon="-8.882370851933956">
        <ele>42.44921875</ele>
      </trkpt>
      <trkpt lat="41.946930745616555" lon="-8.882403541356325">
        <ele>42.140625</ele>
      </trkpt>
      <trkpt lat="41.947001656517386" lon="-8.882453665137291">
        <ele>41.5859375</ele>
      </trkpt>
      <trkpt lat="41.947070052847266" lon="-8.882511416450143">
        <ele>40.94140625</ele>
      </trkpt>
      <trkpt lat="41.947134928777814" lon="-8.882582075893879">
        <ele>40.19140625</ele>
      </trkpt>
      <trkpt lat="41.947201816365123" lon="-8.882643850520253">
        <ele>39.6640625</ele>
      </trkpt>
      <trkpt lat="41.947207013145089" lon="-8.882650304585695">
        <ele>39.60546875</ele>
      </trkpt>
      <trkpt lat="41.947374567389488" lon="-8.882832946255803">
        <ele>38.14453125</ele>
      </trkpt>
      <trkpt lat="41.947430307045579" lon="-8.882860941812396">
        <ele>38.0625</ele>
      </trkpt>
      <trkpt lat="41.947484873235226" lon="-8.882881896570325">
        <ele>38.0625</ele>
      </trkpt>
      <trkpt lat="41.947536589577794" lon="-8.882901510223746">
        <ele>38.0703125</ele>
      </trkpt>
      <trkpt lat="41.947597358375788" lon="-8.882920704782009">
        <ele>38.10546875</ele>
      </trkpt>
      <trkpt lat="41.947658210992813" lon="-8.882934199646115">
        <ele>37.9921875</ele>
      </trkpt>
      <trkpt lat="41.947720153257251" lon="-8.882952220737934">
        <ele>37.82421875</ele>
      </trkpt>
      <trkpt lat="41.947780000045896" lon="-8.882962027564645">
        <ele>37.734375</ele>
      </trkpt>
      <trkpt lat="41.947843953967094" lon="-8.882965128868818">
        <ele>37.71484375</ele>
      </trkpt>
      <trkpt lat="41.947899609804153" lon="-8.882965128868818">
        <ele>37.7265625</ele>
      </trkpt>
      <trkpt lat="41.947958115488291" lon="-8.882960937917233">
        <ele>37.78515625</ele>
      </trkpt>
      <trkpt lat="41.948012178763747" lon="-8.882955824956298">
        <ele>37.859375</ele>
      </trkpt>
      <trkpt lat="41.948068840429187" lon="-8.8829505443573">
        <ele>37.96484375</ele>
      </trkpt>
      <trkpt lat="41.948123490437865" lon="-8.882946856319904">
        <ele>38.12109375</ele>
      </trkpt>
      <trkpt lat="41.948183253407478" lon="-8.882952304556966">
        <ele>38.1796875</ele>
      </trkpt>
      <trkpt lat="41.948240250349045" lon="-8.882963452488184">
        <ele>38.1640625</ele>
      </trkpt>
      <trkpt lat="41.948295570909977" lon="-8.88298180885613">
        <ele>38.05078125</ele>
      </trkpt>
      <trkpt lat="41.948351226747036" lon="-8.883009133860469">
        <ele>37.828125</ele>
      </trkpt>
      <trkpt lat="41.948405876755714" lon="-8.883033776655793">
        <ele>37.59375</ele>
      </trkpt>
      <trkpt lat="41.948463460430503" lon="-8.883059425279498">
        <ele>37.3359375</ele>
      </trkpt>
      <trkpt lat="41.94852439686656" lon="-8.883087504655123">
        <ele>37.06640625</ele>
      </trkpt>
      <trkpt lat="41.948585333302617" lon="-8.883111225441098">
        <ele>36.98046875</ele>
      </trkpt>
      <trkpt lat="41.948639145120978" lon="-8.883135616779327">
        <ele>36.86328125</ele>
      </trkpt>
      <trkpt lat="41.948692370206118" lon="-8.883156403899193">
        <ele>36.80078125</ele>
      </trkpt>
      <trkpt lat="41.948747355490923" lon="-8.883182471618056">
        <ele>36.6796875</ele>
      </trkpt>
      <trkpt lat="41.948797898367047" lon="-8.883206024765968">
        <ele>36.58203125</ele>
      </trkpt>
      <trkpt lat="41.948851207271218" lon="-8.88322320766747">
        <ele>36.58984375</ele>
      </trkpt>
      <trkpt lat="41.948908707126975" lon="-8.883251119405031">
        <ele>36.48046875</ele>
      </trkpt>
      <trkpt lat="41.948973247781396" lon="-8.883279785513878">
        <ele>36.3984375</ele>
      </trkpt>
      <trkpt lat="41.949027394875884" lon="-8.883302584290504">
        <ele>36.1953125</ele>
      </trkpt>
      <trkpt lat="41.949085146188736" lon="-8.883322533220053">
        <ele>36.0234375</ele>
      </trkpt>
      <trkpt lat="41.949137030169368" lon="-8.883343320339918">
        <ele>35.83984375</ele>
      </trkpt>
      <trkpt lat="41.949191763997078" lon="-8.883366957306862">
        <ele>35.62890625</ele>
      </trkpt>
      <trkpt lat="41.94924901239574" lon="-8.883393444120884">
        <ele>35.39453125</ele>
      </trkpt>
      <trkpt lat="41.949305171146989" lon="-8.883423116058111">
        <ele>35.12890625</ele>
      </trkpt>
      <trkpt lat="41.949359402060509" lon="-8.883456476032734">
        <ele>34.82421875</ele>
      </trkpt>
      <trkpt lat="41.949409106746316" lon="-8.883493021130562">
        <ele>34.46875</ele>
      </trkpt>
      <trkpt lat="41.949455961585045" lon="-8.88353057205677">
        <ele>34.08203125</ele>
      </trkpt>
      <trkpt lat="41.949504073709249" lon="-8.883568290621042">
        <ele>33.6875</ele>
      </trkpt>
      <trkpt lat="41.94955587387085" lon="-8.883606847375631">
        <ele>33.31640625</ele>
      </trkpt>
      <trkpt lat="41.949608512222767" lon="-8.883639452978969">
        <ele>33.05078125</ele>
      </trkpt>
      <trkpt lat="41.949662994593382" lon="-8.883661329746246">
        <ele>32.9296875</ele>
      </trkpt>
      <trkpt lat="41.949717057868838" lon="-8.883681697770953">
        <ele>32.84375</ele>
      </trkpt>
      <trkpt lat="41.949776820838451" lon="-8.883700389415026">
        <ele>32.80859375</ele>
      </trkpt>
      <trkpt lat="41.949838008731604" lon="-8.883713213726878">
        <ele>32.84765625</ele>
      </trkpt>
      <trkpt lat="41.94989207200706" lon="-8.883724026381969">
        <ele>32.8984375</ele>
      </trkpt>
      <trkpt lat="41.949955858290195" lon="-8.883729474619031">
        <ele>32.5078125</ele>
      </trkpt>
      <trkpt lat="41.950013022869825" lon="-8.88373089954257">
        <ele>32.08984375</ele>
      </trkpt>
      <trkpt lat="41.950062057003379" lon="-8.883704245090485">
        <ele>31.9453125</ele>
      </trkpt>
      <trkpt lat="41.950085610151291" lon="-8.883635429665446">
        <ele>32.29296875</ele>
      </trkpt>
      <trkpt lat="41.950099607929587" lon="-8.883562423288822">
        <ele>32.7265625</ele>
      </trkpt>
      <trkpt lat="41.950117461383343" lon="-8.883491344749928">
        <ele>33.10546875</ele>
      </trkpt>
      <trkpt lat="41.950153252109885" lon="-8.883440131321549">
        <ele>33.28125</ele>
      </trkpt>
      <trkpt lat="41.950198682025075" lon="-8.883396880701184">
        <ele>33.33984375</ele>
      </trkpt>
      <trkpt lat="41.950247967615724" lon="-8.883368382230401">
        <ele>33.21875</ele>
      </trkpt>
      <trkpt lat="41.950309239327908" lon="-8.883348181843758">
        <ele>32.9140625</ele>
      </trkpt>
      <trkpt lat="41.950365398079157" lon="-8.883331418037415">
        <ele>32.62109375</ele>
      </trkpt>
      <trkpt lat="41.950421137735248" lon="-8.883314821869135">
        <ele>32.22265625</ele>
      </trkpt>
      <trkpt lat="41.950481487438083" lon="-8.883298728615046">
        <ele>31.76953125</ele>
      </trkpt>
      <trkpt lat="41.950542507693172" lon="-8.883288083598018">
        <ele>31.2578125</ele>
      </trkpt>
      <trkpt lat="41.950598834082484" lon="-8.8832769356668">
        <ele>30.80078125</ele>
      </trkpt>
      <trkpt lat="41.950654573738575" lon="-8.88326620683074">
        <ele>30.34765625</ele>
      </trkpt>
      <trkpt lat="41.950711570680141" lon="-8.883256819099188">
        <ele>29.8671875</ele>
      </trkpt>
      <trkpt lat="41.950767477974296" lon="-8.883246341720223">
        <ele>29.41015625</ele>
      </trkpt>
      <trkpt lat="41.950824726372957" lon="-8.883232763037086">
        <ele>28.9765625</ele>
      </trkpt>
      <trkpt lat="41.950879376381636" lon="-8.883219268172979">
        <ele>28.60546875</ele>
      </trkpt>
      <trkpt lat="41.950926231220365" lon="-8.883198313415051">
        <ele>28.3984375</ele>
      </trkpt>
      <trkpt lat="41.95110241882503" lon="-8.883126145228744">
        <ele>27.5625</ele>
      </trkpt>
      <trkpt lat="41.951155308634043" lon="-8.883090354502201">
        <ele>27.484375</ele>
      </trkpt>
      <trkpt lat="41.951202666386962" lon="-8.883052216842771">
        <ele>27.48828125</ele>
      </trkpt>
      <trkpt lat="41.951261507347226" lon="-8.883010894060135">
        <ele>27.4375</ele>
      </trkpt>
      <trkpt lat="41.951311714947224" lon="-8.882980886846781">
        <ele>27.40234375</ele>
      </trkpt>
      <trkpt lat="41.951368292793632" lon="-8.882946940138936">
        <ele>27.39453125</ele>
      </trkpt>
      <trkpt lat="41.951419422402978" lon="-8.882918944582343">
        <ele>27.35546875</ele>
      </trkpt>
      <trkpt lat="41.951470971107483" lon="-8.882880974560976">
        <ele>27.45703125</ele>
      </trkpt>
      <trkpt lat="41.951526291668415" lon="-8.882845854386687">
        <ele>27.48828125</ele>
      </trkpt>
      <trkpt lat="41.951584462076426" lon="-8.88281618244946">
        <ele>27.4296875</ele>
      </trkpt>
      <trkpt lat="41.951641626656055" lon="-8.882791455835104">
        <ele>27.30859375</ele>
      </trkpt>
      <trkpt lat="41.951696025207639" lon="-8.882768908515573">
        <ele>27.1875</ele>
      </trkpt>
      <trkpt lat="41.951753525063396" lon="-8.882747534662485">
        <ele>27.0234375</ele>
      </trkpt>
      <trkpt lat="41.951809097081423" lon="-8.882725741714239">
        <ele>27.0546875</ele>
      </trkpt>
      <trkpt lat="41.95186366327107" lon="-8.882713755592704">
        <ele>26.953125</ele>
      </trkpt>
      <trkpt lat="41.951924851164222" lon="-8.882698751986027">
        <ele>26.8671875</ele>
      </trkpt>
      <trkpt lat="41.951982853934169" lon="-8.88269305229187">
        <ele>26.66015625</ele>
      </trkpt>
      <trkpt lat="41.95203859359026" lon="-8.882684418931603">
        <ele>26.51171875</ele>
      </trkpt>
      <trkpt lat="41.952096596360207" lon="-8.882676037028432">
        <ele>26.3515625</ele>
      </trkpt>
      <trkpt lat="41.952109672129154" lon="-8.882675785571337">
        <ele>26.29296875</ele>
      </trkpt>
      <trkpt lat="41.952423239126801" lon="-8.882682910189033">
        <ele>25.23828125</ele>
      </trkpt>
      <trkpt lat="41.952424077317119" lon="-8.882682910189033">
        <ele>25.23828125</ele>
      </trkpt>
      <trkpt lat="41.952932272106409" lon="-8.882884997874498">
        <ele>22.25390625</ele>
      </trkpt>
      <trkpt lat="41.95294794626534" lon="-8.88288994319737">
        <ele>22.21875</ele>
      </trkpt>
      <trkpt lat="41.953159421682358" lon="-8.882990526035428">
        <ele>21.22265625</ele>
      </trkpt>
      <trkpt lat="41.953215748071671" lon="-8.883013911545277">
        <ele>21.20703125</ele>
      </trkpt>
      <trkpt lat="41.953270565718412" lon="-8.883054815232754">
        <ele>20.90625</ele>
      </trkpt>
      <trkpt lat="41.953323623165488" lon="-8.883098484948277">
        <ele>20.53515625</ele>
      </trkpt>
      <trkpt lat="41.953379614278674" lon="-8.883136119693518">
        <ele>20.26953125</ele>
      </trkpt>
      <trkpt lat="41.953428983688354" lon="-8.883169814944267">
        <ele>20.01953125</ele>
      </trkpt>
      <trkpt lat="41.953484890982509" lon="-8.883197139948606">
        <ele>19.90234375</ele>
      </trkpt>
      <trkpt lat="41.953537613153458" lon="-8.883214574307203">
        <ele>19.92578125</ele>
      </trkpt>
      <trkpt lat="41.953590754419565" lon="-8.883227063342929">
        <ele>20.03125</ele>
      </trkpt>
      <trkpt lat="41.953644901514053" lon="-8.883241647854447">
        <ele>20.19921875</ele>
      </trkpt>
      <trkpt lat="41.95370533503592" lon="-8.8832579087466">
        <ele>20.41796875</ele>
      </trkpt>
      <trkpt lat="41.953761409968138" lon="-8.883281964808702">
        <ele>20.4765625</ele>
      </trkpt>
      <trkpt lat="41.953807175159454" lon="-8.883320521563292">
        <ele>20.20703125</ele>
      </trkpt>
      <trkpt lat="41.953851180151105" lon="-8.88336737640202">
        <ele>19.78515625</ele>
      </trkpt>
      <trkpt lat="41.953899627551436" lon="-8.883424624800682">
        <ele>19.23828125</ele>
      </trkpt>
      <trkpt lat="41.953937178477645" lon="-8.883484220132232">
        <ele>18.5703125</ele>
      </trkpt>
      <trkpt lat="41.953969113528728" lon="-8.88354373164475">
        <ele>17.89453125</ele>
      </trkpt>
      <trkpt lat="41.954004149883986" lon="-8.883612211793661">
        <ele>17.109375</ele>
      </trkpt>
      <trkpt lat="41.954041533172131" lon="-8.88366786763072">
        <ele>16.5546875</ele>
      </trkpt>
      <trkpt lat="41.95408646017313" lon="-8.883720422163606">
        <ele>16.06640625</ele>
      </trkpt>
      <trkpt lat="41.954140355810523" lon="-8.883759062737226">
        <ele>15.7734375</ele>
      </trkpt>
      <trkpt lat="41.954199196770787" lon="-8.883798541501164">
        <ele>15.49609375</ele>
      </trkpt>
      <trkpt lat="41.954251751303673" lon="-8.88383743353188">
        <ele>15.1953125</ele>
      </trkpt>
      <trkpt lat="41.954300282523036" lon="-8.883878504857421">
        <ele>14.83203125</ele>
      </trkpt>
      <trkpt lat="41.954347053542733" lon="-8.883922090753913">
        <ele>14.421875</ele>
      </trkpt>
      <trkpt lat="41.954394746571779" lon="-8.883955450728536">
        <ele>14.234375</ele>
      </trkpt>
      <trkpt lat="41.954448893666267" lon="-8.883975064381957">
        <ele>14.3125</ele>
      </trkpt>
      <trkpt lat="41.954501448199153" lon="-8.883991660550237">
        <ele>14.4140625</ele>
      </trkpt>
      <trkpt lat="41.954560456797481" lon="-8.884016554802656">
        <ele>14.40234375</ele>
      </trkpt>
      <trkpt lat="41.954612340778112" lon="-8.884038096293807">
        <ele>14.3671875</ele>
      </trkpt>
      <trkpt lat="41.954665398225188" lon="-8.884054441004992">
        <ele>14.39453125</ele>
      </trkpt>
      <trkpt lat="41.954720970243216" lon="-8.884066846221685">
        <ele>14.484375</ele>
      </trkpt>
      <trkpt lat="41.954782912507653" lon="-8.884074473753572">
        <ele>14.66015625</ele>
      </trkpt>
      <trkpt lat="41.954842507839203" lon="-8.884080424904823">
        <ele>14.84765625</ele>
      </trkpt>
      <trkpt lat="41.954897660762072" lon="-8.884082017466426">
        <ele>15.0703125</ele>
      </trkpt>
      <trkpt lat="41.954954238608479" lon="-8.884082017466426">
        <ele>15.3203125</ele>
      </trkpt>
      <trkpt lat="41.955012241378427" lon="-8.884080843999982">
        <ele>15.546875</ele>
      </trkpt>
      <trkpt lat="41.955076279118657" lon="-8.884082268923521">
        <ele>15.66796875</ele>
      </trkpt>
      <trkpt lat="41.955137467011809" lon="-8.884090147912502">
        <ele>15.69921875</ele>
      </trkpt>
      <trkpt lat="41.955198403447866" lon="-8.884099703282118">
        <ele>15.7109375</ele>
      </trkpt>
      <trkpt lat="41.955254226922989" lon="-8.884108085185289">
        <ele>15.7265625</ele>
      </trkpt>
      <trkpt lat="41.95526990108192" lon="-8.884112695232034">
        <ele>15.703125</ele>
      </trkpt>
      <trkpt lat="41.955404598265886" lon="-8.884127363562584">
        <ele>15.81640625</ele>
      </trkpt>
      <trkpt lat="41.955471569672227" lon="-8.884140271693468">
        <ele>15.8203125</ele>
      </trkpt>
      <trkpt lat="41.955524878576398" lon="-8.884153179824352">
        <ele>15.83203125</ele>
      </trkpt>
      <trkpt lat="41.955581791698933" lon="-8.8841662555933">
        <ele>15.859375</ele>
      </trkpt>
      <trkpt lat="41.955642309039831" lon="-8.884181175380945">
        <ele>15.87890625</ele>
      </trkpt>
      <trkpt lat="41.955704251304269" lon="-8.884194670245051">
        <ele>15.92578125</ele>
      </trkpt>
      <trkpt lat="41.955767869949341" lon="-8.884205315262079">
        <ele>16.015625</ele>
      </trkpt>
      <trkpt lat="41.955831488594413" lon="-8.884208416566253">
        <ele>16.1953125</ele>
      </trkpt>
      <trkpt lat="41.955893598496914" lon="-8.884211350232363">
        <ele>16.37109375</ele>
      </trkpt>
      <trkpt lat="41.955952690914273" lon="-8.884216044098139">
        <ele>16.59375</ele>
      </trkpt>
      <trkpt lat="41.956009939312935" lon="-8.884227862581611">
        <ele>16.77734375</ele>
      </trkpt>
      <trkpt lat="41.956066265702248" lon="-8.884244877845049">
        <ele>16.89453125</ele>
      </trkpt>
      <trkpt lat="41.956123765558004" lon="-8.884255941957235">
        <ele>17.08203125</ele>
      </trkpt>
      <trkpt lat="41.956186294555664" lon="-8.884266167879105">
        <ele>17.30859375</ele>
      </trkpt>
      <trkpt lat="41.956248404458165" lon="-8.88426935300231">
        <ele>17.609375</ele>
      </trkpt>
      <trkpt lat="41.956304395571351" lon="-8.884270945563912">
        <ele>17.8984375</ele>
      </trkpt>
      <trkpt lat="41.956370612606406" lon="-8.884283266961575">
        <ele>18.11328125</ele>
      </trkpt>
      <trkpt lat="41.956425430253148" lon="-8.884297180920839">
        <ele>18.26953125</ele>
      </trkpt>
      <trkpt lat="41.956488126888871" lon="-8.884314447641373">
        <ele>18.43359375</ele>
      </trkpt>
      <trkpt lat="41.956543195992708" lon="-8.884322578087449">
        <ele>18.6640625</ele>
      </trkpt>
      <trkpt lat="41.956598181277514" lon="-8.884329115971923">
        <ele>18.9140625</ele>
      </trkpt>
      <trkpt lat="41.956659788265824" lon="-8.884330792352557">
        <ele>19.2578125</ele>
      </trkpt>
      <trkpt lat="41.956716449931264" lon="-8.88433339074254">
        <ele>19.5625</ele>
      </trkpt>
      <trkpt lat="41.956770848482847" lon="-8.884331965819001">
        <ele>19.90234375</ele>
      </trkpt>
      <trkpt lat="41.956835221499205" lon="-8.884314028546214">
        <ele>20.49609375</ele>
      </trkpt>
      <trkpt lat="41.956851314753294" lon="-8.884312687441707">
        <ele>20.61328125</ele>
      </trkpt>
      <trkpt lat="41.957294046878815" lon="-8.884317213669419">
        <ele>23.4765625</ele>
      </trkpt>
      <trkpt lat="41.95733386091888" lon="-8.884306736290455">
        <ele>23.81640625</ele>
      </trkpt>
      <trkpt lat="41.95758406072855" lon="-8.884317465126514">
        <ele>24.90234375</ele>
      </trkpt>
      <trkpt lat="41.9576470926404" lon="-8.884321572259068">
        <ele>25.15234375</ele>
      </trkpt>
      <trkpt lat="41.957709705457091" lon="-8.884320063516498">
        <ele>25.4765625</ele>
      </trkpt>
      <trkpt lat="41.95776728913188" lon="-8.884314950555563">
        <ele>25.82421875</ele>
      </trkpt>
      <trkpt lat="41.957834847271442" lon="-8.884297600015998">
        <ele>26.3828125</ele>
      </trkpt>
      <trkpt lat="41.957895448431373" lon="-8.884282847866416">
        <ele>26.87890625</ele>
      </trkpt>
      <trkpt lat="41.957965772598982" lon="-8.884267341345549">
        <ele>27.44140625</ele>
      </trkpt>
      <trkpt lat="41.958028553053737" lon="-8.884253175929189">
        <ele>27.94921875</ele>
      </trkpt>
      <trkpt lat="41.958086639642715" lon="-8.884242530912161">
        <ele>28.39453125</ele>
      </trkpt>
      <trkpt lat="41.958145732060075" lon="-8.884234065189958">
        <ele>28.8125</ele>
      </trkpt>
      <trkpt lat="41.958201387897134" lon="-8.884231299161911">
        <ele>29.13671875</ele>
      </trkpt>
      <trkpt lat="41.958257127553225" lon="-8.884231299161911">
        <ele>29.33984375</ele>
      </trkpt>
      <trkpt lat="41.958314459770918" lon="-8.884232891723514">
        <ele>29.4296875</ele>
      </trkpt>
      <trkpt lat="41.958374977111816" lon="-8.884242950007319">
        <ele>29.40234375</ele>
      </trkpt>
      <trkpt lat="41.958434153348207" lon="-8.884252086281776">
        <ele>29.38671875</ele>
      </trkpt>
      <trkpt lat="41.958490228280425" lon="-8.884254852309823">
        <ele>29.45703125</ele>
      </trkpt>
      <trkpt lat="41.958546387031674" lon="-8.884254852309823">
        <ele>29.5703125</ele>
      </trkpt>
      <trkpt lat="41.958605730906129" lon="-8.88425619341433">
        <ele>29.66796875</ele>
      </trkpt>
      <trkpt lat="41.958666332066059" lon="-8.884252002462745">
        <ele>29.84765625</ele>
      </trkpt>
      <trkpt lat="41.958720395341516" lon="-8.88424152508378">
        <ele>30.08984375</ele>
      </trkpt>
      <trkpt lat="41.95878317579627" lon="-8.884230796247721">
        <ele>30.328125</ele>
      </trkpt>
      <trkpt lat="41.958840172737837" lon="-8.884222665801644">
        <ele>30.51953125</ele>
      </trkpt>
      <trkpt lat="41.958898259326816" lon="-8.884221157059073">
        <ele>30.62109375</ele>
      </trkpt>
      <trkpt lat="41.958956513553858" lon="-8.884225096553564">
        <ele>30.640625</ele>
      </trkpt>
      <trkpt lat="41.959014348685741" lon="-8.884234065189958">
        <ele>30.5859375</ele>
      </trkpt>
      <trkpt lat="41.95906849578023" lon="-8.884239848703146">
        <ele>30.57421875</ele>
      </trkpt>
      <trkpt lat="41.959124319255352" lon="-8.884241273626685">
        <ele>30.62890625</ele>
      </trkpt>
      <trkpt lat="41.959185507148504" lon="-8.884234232828021">
        <ele>30.7734375</ele>
      </trkpt>
      <trkpt lat="41.959244767203927" lon="-8.884220067411661">
        <ele>30.98828125</ele>
      </trkpt>
      <trkpt lat="41.959306793287396" lon="-8.884202465415001">
        <ele>31.26171875</ele>
      </trkpt>
      <trkpt lat="41.959364209324121" lon="-8.884182516485453">
        <ele>31.578125</ele>
      </trkpt>
      <trkpt lat="41.95942179299891" lon="-8.884169440716505">
        <ele>31.80078125</ele>
      </trkpt>
      <trkpt lat="41.959474934265018" lon="-8.884151419624686">
        <ele>32.1015625</ele>
      </trkpt>
      <trkpt lat="41.959537379443645" lon="-8.884124429896474">
        <ele>32.5625</ele>
      </trkpt>
      <trkpt lat="41.959591945633292" lon="-8.884104397147894">
        <ele>32.91796875</ele>
      </trkpt>
      <trkpt lat="41.959643997251987" lon="-8.884085873141885">
        <ele>33.2578125</ele>
      </trkpt>
      <trkpt lat="41.9597003236413" lon="-8.884074222296476">
        <ele>33.4921875</ele>
      </trkpt>
      <trkpt lat="41.959754722192883" lon="-8.884069360792637">
        <ele>33.6171875</ele>
      </trkpt>
      <trkpt lat="41.959808953106403" lon="-8.884086795151234">
        <ele>33.35546875</ele>
      </trkpt>
      <trkpt lat="41.959867961704731" lon="-8.884111018851399">
        <ele>32.97265625</ele>
      </trkpt>
      <trkpt lat="41.959935268387198" lon="-8.884137170389295">
        <ele>32.54296875</ele>
      </trkpt>
      <trkpt lat="41.95999251678586" lon="-8.884155945852399">
        <ele>32.23046875</ele>
      </trkpt>
      <trkpt lat="41.960045825690031" lon="-8.884169273078442">
        <ele>32.0078125</ele>
      </trkpt>
      <trkpt lat="41.960105421021581" lon="-8.884167848154902">
        <ele>32.0390625</ele>
      </trkpt>
      <trkpt lat="41.960169123485684" lon="-8.884147647768259">
        <ele>32.3984375</ele>
      </trkpt>
      <trkpt lat="41.96021824143827" lon="-8.884116299450397">
        <ele>32.984375</ele>
      </trkpt>
      <trkpt lat="41.960226539522409" lon="-8.88410959392786">
        <ele>33.109375</ele>
      </trkpt>
      <trkpt lat="41.960390908643603" lon="-8.884011525660753">
        <ele>35.0390625</ele>
      </trkpt>
      <trkpt lat="41.960446983575821" lon="-8.883987804874778">
        <ele>35.53125</ele>
      </trkpt>
      <trkpt lat="41.96050213649869" lon="-8.883965257555246">
        <ele>36.01171875</ele>
      </trkpt>
      <trkpt lat="41.960556283593178" lon="-8.883943716064095">
        <ele>36.4921875</ele>
      </trkpt>
      <trkpt lat="41.960612442344427" lon="-8.883922342211008">
        <ele>36.98046875</ele>
      </trkpt>
      <trkpt lat="41.960670193657279" lon="-8.883908512070775">
        <ele>37.32421875</ele>
      </trkpt>
      <trkpt lat="41.960724256932735" lon="-8.883900800719857">
        <ele>37.546875</ele>
      </trkpt>
      <trkpt lat="41.960783014073968" lon="-8.883897867053747">
        <ele>37.6875</ele>
      </trkpt>
      <trkpt lat="41.960840011015534" lon="-8.883892418816686">
        <ele>37.87109375</ele>
      </trkpt>
      <trkpt lat="41.960895750671625" lon="-8.883886467665434">
        <ele>38.06640625</ele>
      </trkpt>
      <trkpt lat="41.960959956049919" lon="-8.883873894810677">
        <ele>38.40234375</ele>
      </trkpt>
      <trkpt lat="41.961018713191152" lon="-8.883857717737556">
        <ele>38.81640625</ele>
      </trkpt>
      <trkpt lat="41.961074369028211" lon="-8.88384036719799">
        <ele>39.296875</ele>
      </trkpt>
      <trkpt lat="41.96113396435976" lon="-8.883834080770612">
        <ele>39.5703125</ele>
      </trkpt>
      <trkpt lat="41.961196744814515" lon="-8.88383693061769">
        <ele>39.671875</ele>
      </trkpt>
      <trkpt lat="41.961251813918352" lon="-8.883845312520862">
        <ele>39.64453125</ele>
      </trkpt>
      <trkpt lat="41.961267236620188" lon="-8.883848832920194">
        <ele>39.61328125</ele>
      </trkpt>
      <trkpt lat="41.961653223261237" lon="-8.883895268663764">
        <ele>39.70703125</ele>
      </trkpt>
      <trkpt lat="41.961717680096626" lon="-8.883897280320525">
        <ele>39.8359375</ele>
      </trkpt>
      <trkpt lat="41.961775179952383" lon="-8.883909014984965">
        <ele>39.765625</ele>
      </trkpt>
      <trkpt lat="41.961829494684935" lon="-8.883926868438721">
        <ele>39.57421875</ele>
      </trkpt>
      <trkpt lat="41.961887832731009" lon="-8.883943045511842">
        <ele>39.42578125</ele>
      </trkpt>
      <trkpt lat="41.961952038109303" lon="-8.883962323889136">
        <ele>39.19921875</ele>
      </trkpt>
      <trkpt lat="41.962009789422154" lon="-8.883983949199319">
        <ele>38.8828125</ele>
      </trkpt>
      <trkpt lat="41.962066199630499" lon="-8.884003898128867">
        <ele>38.59375</ele>
      </trkpt>
      <trkpt lat="41.96211900562048" lon="-8.884032312780619">
        <ele>38.12109375</ele>
      </trkpt>
      <trkpt lat="41.96217130869627" lon="-8.884068187326193">
        <ele>37.49609375</ele>
      </trkpt>
      <trkpt lat="41.962223192676902" lon="-8.884103978052735">
        <ele>36.8671875</ele>
      </trkpt>
      <trkpt lat="41.962279351428151" lon="-8.884129459038377">
        <ele>36.44921875</ele>
      </trkpt>
      <trkpt lat="41.962333666160703" lon="-8.884147144854069">
        <ele>36.18359375</ele>
      </trkpt>
      <trkpt lat="41.962390998378396" lon="-8.884161058813334">
        <ele>35.99609375</ele>
      </trkpt>
      <trkpt lat="41.962448162958026" lon="-8.884175810962915">
        <ele>35.7890625</ele>
      </trkpt>
      <trkpt lat="41.962502645328641" lon="-8.884188970550895">
        <ele>35.61328125</ele>
      </trkpt>
      <trkpt lat="41.962561653926969" lon="-8.884201124310493">
        <ele>35.46484375</ele>
      </trkpt>
      <trkpt lat="41.962619069963694" lon="-8.8842146191746">
        <ele>35.2890625</ele>
      </trkpt>
      <trkpt lat="41.962683610618114" lon="-8.88422585092485">
        <ele>35.17578125</ele>
      </trkpt>
      <trkpt lat="41.962749743834138" lon="-8.884235322475433">
        <ele>35.1015625</ele>
      </trkpt>
      <trkpt lat="41.962806740775704" lon="-8.884243620559573">
        <ele>35.03515625</ele>
      </trkpt>
      <trkpt lat="41.962862648069859" lon="-8.884256025776267">
        <ele>34.890625</ele>
      </trkpt>
      <trkpt lat="41.962918471544981" lon="-8.884268347173929">
        <ele>34.76171875</ele>
      </trkpt>
      <trkpt lat="41.962974043563008" lon="-8.884277483448386">
        <ele>34.69921875</ele>
      </trkpt>
      <trkpt lat="41.963031962513924" lon="-8.884292151778936">
        <ele>34.54296875</ele>
      </trkpt>
      <trkpt lat="41.963091054931283" lon="-8.88430355116725">
        <ele>34.45703125</ele>
      </trkpt>
      <trkpt lat="41.963153332471848" lon="-8.884318135678768">
        <ele>34.32421875</ele>
      </trkpt>
      <trkpt lat="41.963222064077854" lon="-8.884333893656731">
        <ele>34.1953125</ele>
      </trkpt>
      <trkpt lat="41.963282665237784" lon="-8.884353674948215">
        <ele>33.984375</ele>
      </trkpt>
      <trkpt lat="41.963338907808065" lon="-8.884369432926178">
        <ele>33.734375</ele>
      </trkpt>
      <trkpt lat="41.963392719626427" lon="-8.884380832314491">
        <ele>33.3515625</ele>
      </trkpt>
      <trkpt lat="41.963448794558644" lon="-8.884394997730851">
        <ele>32.9140625</ele>
      </trkpt>
      <trkpt lat="41.963505959138274" lon="-8.884406229481101">
        <ele>32.52734375</ele>
      </trkpt>
      <trkpt lat="41.963560106232762" lon="-8.884417880326509">
        <ele>32.12890625</ele>
      </trkpt>
      <trkpt lat="41.963613415136933" lon="-8.884423999115825">
        <ele>31.84765625</ele>
      </trkpt>
      <trkpt lat="41.963671837002039" lon="-8.884430537000299">
        <ele>31.55078125</ele>
      </trkpt>
      <trkpt lat="41.963729001581669" lon="-8.884436655789614">
        <ele>31.265625</ele>
      </trkpt>
      <trkpt lat="41.963740400969982" lon="-8.884439002722502">
        <ele>31.19140625</ele>
      </trkpt>
      <trkpt lat="41.96386487223208" lon="-8.884429531171918">
        <ele>31.01953125</ele>
      </trkpt>
      <trkpt lat="41.963920192793012" lon="-8.884419472888112">
        <ele>31.046875</ele>
      </trkpt>
      <trkpt lat="41.963973417878151" lon="-8.884406397119164">
        <ele>31.12109375</ele>
      </trkpt>
      <trkpt lat="41.964035779237747" lon="-8.884395081549883">
        <ele>31.1328125</ele>
      </trkpt>
      <trkpt lat="41.964090596884489" lon="-8.884377060458064">
        <ele>31.2578125</ele>
      </trkpt>
      <trkpt lat="41.964142397046089" lon="-8.884355435147882">
        <ele>31.4375</ele>
      </trkpt>
      <trkpt lat="41.964196963235736" lon="-8.884336659684777">
        <ele>31.5625</ele>
      </trkpt>
      <trkpt lat="41.964255217462778" lon="-8.884319141507149">
        <ele>31.6796875</ele>
      </trkpt>
      <trkpt lat="41.964316237717867" lon="-8.884296091273427">
        <ele>32.0390625</ele>
      </trkpt>
      <trkpt lat="41.964370217174292" lon="-8.884281003847718">
        <ele>32.29296875</ele>
      </trkpt>
      <trkpt lat="41.964423945173621" lon="-8.884273376315832">
        <ele>32.4375</ele>
      </trkpt>
      <trkpt lat="41.964477924630046" lon="-8.884268598631024">
        <ele>32.5390625</ele>
      </trkpt>
      <trkpt lat="41.964531652629375" lon="-8.884263234212995">
        <ele>32.65234375</ele>
      </trkpt>
      <trkpt lat="41.964584542438388" lon="-8.884251499548554">
        <ele>32.87109375</ele>
      </trkpt>
      <trkpt lat="41.964642042294145" lon="-8.884241608902812">
        <ele>33.0703125</ele>
      </trkpt>
      <trkpt lat="41.964702140539885" lon="-8.884226270020008">
        <ele>33.36328125</ele>
      </trkpt>
      <trkpt lat="41.964755030348897" lon="-8.884211601689458">
        <ele>33.6640625</ele>
      </trkpt>
      <trkpt lat="41.964810434728861" lon="-8.884190479293466">
        <ele>34.0859375</ele>
      </trkpt>
      <trkpt lat="41.964865922927856" lon="-8.884166087955236">
        <ele>34.56640625</ele>
      </trkpt>
      <trkpt lat="41.964918309822679" lon="-8.884147899225354">
        <ele>34.94921875</ele>
      </trkpt>
      <trkpt lat="41.964976480230689" lon="-8.884133314713836">
        <ele>35.27734375</ele>
      </trkpt>
      <trkpt lat="41.965031633153558" lon="-8.884117808192968">
        <ele>35.62890625</ele>
      </trkpt>
      <trkpt lat="41.965085444971919" lon="-8.884096015244722">
        <ele>36.08984375</ele>
      </trkpt>
      <trkpt lat="41.965143028646708" lon="-8.884088974446058">
        <ele>36.30078125</ele>
      </trkpt>
      <trkpt lat="41.965201366692781" lon="-8.884087633341551">
        <ele>36.41015625</ele>
      </trkpt>
      <trkpt lat="41.965251406654716" lon="-8.884119568392634">
        <ele>35.90625</ele>
      </trkpt>
      <trkpt lat="41.965296417474747" lon="-8.88416726142168">
        <ele>35.1171875</ele>
      </trkpt>
      <trkpt lat="41.965343859046698" lon="-8.884205147624016">
        <ele>34.5078125</ele>
      </trkpt>
      <trkpt lat="41.965398509055376" lon="-8.884225515648723">
        <ele>34.21484375</ele>
      </trkpt>
      <trkpt lat="41.965455086901784" lon="-8.88424688950181">
        <ele>33.91015625</ele>
      </trkpt>
      <trkpt lat="41.965512922033668" lon="-8.884265832602978">
        <ele>33.6484375</ele>
      </trkpt>
      <trkpt lat="41.965566817671061" lon="-8.884279998019338">
        <ele>33.46875</ele>
      </trkpt>
      <trkpt lat="41.965624233707786" lon="-8.88429181650281">
        <ele>33.3359375</ele>
      </trkpt>
      <trkpt lat="41.96567821316421" lon="-8.884303970262408">
        <ele>33.16015625</ele>
      </trkpt>
      <trkpt lat="41.96573143824935" lon="-8.884310340508819">
        <ele>33.08203125</ele>
      </trkpt>
      <trkpt lat="41.965786842629313" lon="-8.88431285507977">
        <ele>33.07421875</ele>
      </trkpt>
      <trkpt lat="41.965840319171548" lon="-8.884303132072091">
        <ele>33.28125</ele>
      </trkpt>
      <trkpt lat="41.965895891189575" lon="-8.884288212284446">
        <ele>33.5859375</ele>
      </trkpt>
      <trkpt lat="41.965954983606935" lon="-8.884272873401642">
        <ele>33.89453125</ele>
      </trkpt>
      <trkpt lat="41.966017009690404" lon="-8.884257283061743">
        <ele>34.21484375</ele>
      </trkpt>
      <trkpt lat="41.966072581708431" lon="-8.884238256141543">
        <ele>34.58984375</ele>
      </trkpt>
      <trkpt lat="41.966129662469029" lon="-8.884218391031027">
        <ele>34.9296875</ele>
      </trkpt>
      <trkpt lat="41.966186910867691" lon="-8.884191401302814">
        <ele>35.3515625</ele>
      </trkpt>
      <trkpt lat="41.966242482885718" lon="-8.884165668860078">
        <ele>35.75</ele>
      </trkpt>
      <trkpt lat="41.966295121237636" lon="-8.884146977216005">
        <ele>36.02734375</ele>
      </trkpt>
      <trkpt lat="41.966355722397566" lon="-8.884131386876106">
        <ele>36.23828125</ele>
      </trkpt>
      <trkpt lat="41.966409031301737" lon="-8.884117724373937">
        <ele>36.41796875</ele>
      </trkpt>
      <trkpt lat="41.966464687138796" lon="-8.884096099063754">
        <ele>36.73046875</ele>
      </trkpt>
      <trkpt lat="41.966520426794887" lon="-8.884074557572603">
        <ele>37.04296875</ele>
      </trkpt>
      <trkpt lat="41.966577926650643" lon="-8.884055027738214">
        <ele>37.22265625</ele>
      </trkpt>
      <trkpt lat="41.966631654649973" lon="-8.88404119759798">
        <ele>37.140625</ele>
      </trkpt>
      <trkpt lat="41.966688148677349" lon="-8.884029882028699">
        <ele>37</ele>
      </trkpt>
      <trkpt lat="41.966744977980852" lon="-8.884019488468766">
        <ele>36.83984375</ele>
      </trkpt>
      <trkpt lat="41.966799208894372" lon="-8.884015716612339">
        <ele>36.5859375</ele>
      </trkpt>
      <trkpt lat="41.96685335598886" lon="-8.884009514003992">
        <ele>36.3671875</ele>
      </trkpt>
      <trkpt lat="41.966907503083348" lon="-8.884007083252072">
        <ele>36.08984375</ele>
      </trkpt>
      <trkpt lat="41.966960057616234" lon="-8.883989816531539">
        <ele>36.07421875</ele>
      </trkpt>
      <trkpt lat="41.967009175568819" lon="-8.883954863995314">
        <ele>36.37890625</ele>
      </trkpt>
      <trkpt lat="41.967061311006546" lon="-8.883925024420023">
        <ele>36.55859375</ele>
      </trkpt>
      <trkpt lat="41.967072039842606" lon="-8.883922509849072">
        <ele>36.52734375</ele>
      </trkpt>
      <trkpt lat="41.967267002910376" lon="-8.883892754092813">
        <ele>35.65234375</ele>
      </trkpt>
      <trkpt lat="41.967327017337084" lon="-8.88388579711318">
        <ele>35.3359375</ele>
      </trkpt>
      <trkpt lat="41.967389294877648" lon="-8.883868027478456">
        <ele>35.19921875</ele>
      </trkpt>
      <trkpt lat="41.967447381466627" lon="-8.883858053013682">
        <ele>34.94140625</ele>
      </trkpt>
      <trkpt lat="41.967506390064955" lon="-8.883855286985636">
        <ele>34.703125</ele>
      </trkpt>
      <trkpt lat="41.967565147206187" lon="-8.883855286985636">
        <ele>34.68359375</ele>
      </trkpt>
      <trkpt lat="41.967619126662612" lon="-8.883863920345902">
        <ele>34.515625</ele>
      </trkpt>
      <trkpt lat="41.967674614861608" lon="-8.883871799334884">
        <ele>34.36328125</ele>
      </trkpt>
      <trkpt lat="41.967729767784476" lon="-8.88388630002737">
        <ele>34.10546875</ele>
      </trkpt>
      <trkpt lat="41.96777930483222" lon="-8.8839141279459">
        <ele>33.6328125</ele>
      </trkpt>
      <trkpt lat="41.967828758060932" lon="-8.883935334160924">
        <ele>33.28125</ele>
      </trkpt>
      <trkpt lat="41.967875026166439" lon="-8.883899040520191">
        <ele>33.8671875</ele>
      </trkpt>
      <trkpt lat="41.967933112755418" lon="-8.883874733000994">
        <ele>34.2421875</ele>
      </trkpt>
      <trkpt lat="41.967987259849906" lon="-8.883858891204">
        <ele>34.48046875</ele>
      </trkpt>
      <trkpt lat="41.968052890151739" lon="-8.883845983073115">
        <ele>34.6640625</ele>
      </trkpt>
      <trkpt lat="41.968108797445893" lon="-8.883835338056087">
        <ele>34.8125</ele>
      </trkpt>
      <trkpt lat="41.968167889863253" lon="-8.883824190124869">
        <ele>34.96484375</ele>
      </trkpt>
      <trkpt lat="41.96822346188128" lon="-8.883816143497825">
        <ele>35.06640625</ele>
      </trkpt>
      <trkpt lat="41.968281464651227" lon="-8.883814802393317">
        <ele>35.06640625</ele>
      </trkpt>
      <trkpt lat="41.968338210135698" lon="-8.883816059678793">
        <ele>35.02734375</ele>
      </trkpt>
      <trkpt lat="41.968396212905645" lon="-8.883817316964269">
        <ele>34.9921875</ele>
      </trkpt>
      <trkpt lat="41.96841649711132" lon="-8.883825447410345">
        <ele>34.875</ele>
      </trkpt>
      <trkpt lat="41.969680404290557" lon="-8.883992414921522">
        <ele>35.3046875</ele>
      </trkpt>
      <trkpt lat="41.97066368535161" lon="-8.884121580049396">
        <ele>35.1484375</ele>
      </trkpt>
      <trkpt lat="41.970673492178321" lon="-8.884122669696808">
        <ele>35.140625</ele>
      </trkpt>
      <trkpt lat="41.971056964248419" lon="-8.884167093783617">
        <ele>37.12890625</ele>
      </trkpt>
      <trkpt lat="41.971061825752258" lon="-8.884167093783617">
        <ele>37.16796875</ele>
      </trkpt>
      <trkpt lat="41.971278917044401" lon="-8.884189054369926">
        <ele>38.75</ele>
      </trkpt>
      <trkpt lat="41.97127983905375" lon="-8.884189054369926">
        <ele>38.76171875</ele>
      </trkpt>
      <trkpt lat="41.971827680245042" lon="-8.884258372709155">
        <ele>42.51953125</ele>
      </trkpt>
      <trkpt lat="41.972274519503117" lon="-8.884351411834359">
        <ele>43.08984375</ele>
      </trkpt>
      <trkpt lat="41.972276279702783" lon="-8.884350322186947">
        <ele>43.1171875</ele>
      </trkpt>
      <trkpt lat="41.972480965778232" lon="-8.884348059073091">
        <ele>44.01953125</ele>
      </trkpt>
      <trkpt lat="41.972494460642338" lon="-8.884345544502139">
        <ele>44.12890625</ele>
      </trkpt>
      <trkpt lat="41.972761005163193" lon="-8.884331965819001">
        <ele>44.58984375</ele>
      </trkpt>
      <trkpt lat="41.972761005163193" lon="-8.884333055466413">
        <ele>44.56640625</ele>
      </trkpt>
      <trkpt lat="41.974294474348426" lon="-8.884507985785604">
        <ele>46.578125</ele>
      </trkpt>
      <trkpt lat="41.975500881671906" lon="-8.884621309116483">
        <ele>45.91015625</ele>
      </trkpt>
      <trkpt lat="41.975508257746696" lon="-8.884620303288102">
        <ele>45.90625</ele>
      </trkpt>
      <trkpt lat="41.976194400340319" lon="-8.884696075692773">
        <ele>44.23828125</ele>
      </trkpt>
      <trkpt lat="41.976194400340319" lon="-8.884695069864392">
        <ele>44.2578125</ele>
      </trkpt>
      <trkpt lat="41.977408351376653" lon="-8.884855415672064">
        <ele>43.3046875</ele>
      </trkpt>
      <trkpt lat="41.978168925270438" lon="-8.884946778416634">
        <ele>41.96484375</ele>
      </trkpt>
      <trkpt lat="41.978224329650402" lon="-8.884951304644346">
        <ele>41.8203125</ele>
      </trkpt>
      <trkpt lat="41.978280488401651" lon="-8.884960357099771">
        <ele>41.58984375</ele>
      </trkpt>
      <trkpt lat="41.978331031277776" lon="-8.884977037087083">
        <ele>41.2265625</ele>
      </trkpt>
      <trkpt lat="41.978328851982951" lon="-8.88505021110177">
        <ele>39.875</ele>
      </trkpt>
      <trkpt lat="41.978320218622684" lon="-8.885120032355189">
        <ele>38.5859375</ele>
      </trkpt>
      <trkpt lat="41.978313010185957" lon="-8.885198654606938">
        <ele>37.12890625</ele>
      </trkpt>
      <trkpt lat="41.97831317782402" lon="-8.885278198868036">
        <ele>35.65234375</ele>
      </trkpt>
      <trkpt lat="41.978305885568261" lon="-8.885349947959185">
        <ele>34.34375</ele>
      </trkpt>
      <trkpt lat="41.97831753641367" lon="-8.885418511927128">
        <ele>33.14453125</ele>
      </trkpt>
      <trkpt lat="41.978352405130863" lon="-8.885472239926457">
        <ele>32.20703125</ele>
      </trkpt>
      <trkpt lat="41.978402528911829" lon="-8.885514149442315">
        <ele>31.48828125</ele>
      </trkpt>
      <trkpt lat="41.978459358215332" lon="-8.885540552437305">
        <ele>31.046875</ele>
      </trkpt>
      <trkpt lat="41.978514259681106" lon="-8.885558657348156">
        <ele>30.75390625</ele>
      </trkpt>
      <trkpt lat="41.978568909689784" lon="-8.885574247688055">
        <ele>30.50390625</ele>
      </trkpt>
      <trkpt lat="41.97862247005105" lon="-8.885589754208922">
        <ele>30.2265625</ele>
      </trkpt>
      <trkpt lat="41.978688770905137" lon="-8.885606015101075">
        <ele>29.9140625</ele>
      </trkpt>
      <trkpt lat="41.97874459438026" lon="-8.885621856898069">
        <ele>29.62109375</ele>
      </trkpt>
      <trkpt lat="41.978805446997285" lon="-8.885644990950823">
        <ele>29.2109375</ele>
      </trkpt>
      <trkpt lat="41.978861019015312" lon="-8.885669801384211">
        <ele>28.78125</ele>
      </trkpt>
      <trkpt lat="41.978914411738515" lon="-8.885693605989218">
        <ele>28.375</ele>
      </trkpt>
      <trkpt lat="41.978967217728496" lon="-8.885727552697062">
        <ele>27.81640625</ele>
      </trkpt>
      <trkpt lat="41.979016251862049" lon="-8.885767199099064">
        <ele>27.17578125</ele>
      </trkpt>
      <trkpt lat="41.979061095044017" lon="-8.885809862986207">
        <ele>26.546875</ele>
      </trkpt>
      <trkpt lat="41.979107698425651" lon="-8.885852107778192">
        <ele>25.984375</ele>
      </trkpt>
      <trkpt lat="41.979154134169221" lon="-8.885897621512413">
        <ele>25.36328125</ele>
      </trkpt>
      <trkpt lat="41.979205012321472" lon="-8.885943470522761">
        <ele>24.7265625</ele>
      </trkpt>
      <trkpt lat="41.979255890473723" lon="-8.885987559333444">
        <ele>24.1015625</ele>
      </trkpt>
      <trkpt lat="41.979298302903771" lon="-8.886034162715077">
        <ele>23.4296875</ele>
      </trkpt>
      <trkpt lat="41.97934758849442" lon="-8.88607875443995">
        <ele>22.7734375</ele>
      </trkpt>
      <trkpt lat="41.979393772780895" lon="-8.886122759431601">
        <ele>22.11328125</ele>
      </trkpt>
      <trkpt lat="41.979435263201594" lon="-8.886168692260981">
        <ele>21.41796875</ele>
      </trkpt>
      <trkpt lat="41.979459905996919" lon="-8.88619308359921">
        <ele>21.04296875</ele>
      </trkpt>
      <trkpt lat="41.979617988690734" lon="-8.886295426636934">
        <ele>19.30859375</ele>
      </trkpt>
      <trkpt lat="41.979664508253336" lon="-8.886335995048285">
        <ele>18.59765625</ele>
      </trkpt>
      <trkpt lat="41.979712620377541" lon="-8.886369103565812">
        <ele>17.98828125</ele>
      </trkpt>
      <trkpt lat="41.97976341471076" lon="-8.886411935091019">
        <ele>17.203125</ele>
      </trkpt>
      <trkpt lat="41.979813454672694" lon="-8.886453341692686">
        <ele>16.421875</ele>
      </trkpt>
      <trkpt lat="41.97986651211977" lon="-8.88649801723659">
        <ele>15.5625</ele>
      </trkpt>
      <trkpt lat="41.979920994490385" lon="-8.886517966166139">
        <ele>15.09765625</ele>
      </trkpt>
      <trkpt lat="41.979974890127778" lon="-8.886528862640262">
        <ele>14.77734375</ele>
      </trkpt>
      <trkpt lat="41.980036497116089" lon="-8.886523330584168">
        <ele>14.578125</ele>
      </trkpt>
      <trkpt lat="41.980092655867338" lon="-8.886510925367475">
        <ele>14.515625</ele>
      </trkpt>
      <trkpt lat="41.980151748284698" lon="-8.886499777436256">
        <ele>14.4140625</ele>
      </trkpt>
      <trkpt lat="41.980209331959486" lon="-8.886487204581499">
        <ele>14.33984375</ele>
      </trkpt>
      <trkpt lat="41.980263479053974" lon="-8.886475805193186">
        <ele>14.265625</ele>
      </trkpt>
      <trkpt lat="41.980323912575841" lon="-8.886459628120065">
        <ele>14.234375</ele>
      </trkpt>
      <trkpt lat="41.980377975851297" lon="-8.886445462703705">
        <ele>14.19921875</ele>
      </trkpt>
      <trkpt lat="41.980435978621244" lon="-8.886432219296694">
        <ele>14.12890625</ele>
      </trkpt>
      <trkpt lat="41.980491718277335" lon="-8.886414868757129">
        <ele>14.1328125</ele>
      </trkpt>
      <trkpt lat="41.980555253103375" lon="-8.886393997818232">
        <ele>14.15234375</ele>
      </trkpt>
      <trkpt lat="41.980614345520735" lon="-8.886377066373825">
        <ele>14.12890625</ele>
      </trkpt>
      <trkpt lat="41.980675281956792" lon="-8.886363068595529">
        <ele>14.04296875</ele>
      </trkpt>
      <trkpt lat="41.980742085725069" lon="-8.886348651722074">
        <ele>13.93359375</ele>
      </trkpt>
      <trkpt lat="41.980799417942762" lon="-8.886342532932758">
        <ele>13.734375</ele>
      </trkpt>
      <trkpt lat="41.980855073779821" lon="-8.886336917057633">
        <ele>13.5390625</ele>
      </trkpt>
      <trkpt lat="41.980915842577815" lon="-8.886331301182508">
        <ele>13.3203125</ele>
      </trkpt>
      <trkpt lat="41.980974934995174" lon="-8.886329876258969">
        <ele>13.0703125</ele>
      </trkpt>
      <trkpt lat="41.98103042319417" lon="-8.886329792439938">
        <ele>12.81640625</ele>
      </trkpt>
      <trkpt lat="41.981089599430561" lon="-8.88632845133543">
        <ele>12.56640625</ele>
      </trkpt>
      <trkpt lat="41.981145171448588" lon="-8.886325852945447">
        <ele>12.3515625</ele>
      </trkpt>
      <trkpt lat="41.981202587485313" lon="-8.886319734156132">
        <ele>12.18359375</ele>
      </trkpt>
      <trkpt lat="41.981265367940068" lon="-8.886315207928419">
        <ele>11.96484375</ele>
      </trkpt>
      <trkpt lat="41.981327896937728" lon="-8.886305904015899">
        <ele>11.82421875</ele>
      </trkpt>
      <trkpt lat="41.981388414278626" lon="-8.886294001713395">
        <ele>11.734375</ele>
      </trkpt>
      <trkpt lat="41.981450272724032" lon="-8.886280674487352">
        <ele>11.66015625</ele>
      </trkpt>
      <trkpt lat="41.981510790064931" lon="-8.886265167966485">
        <ele>11.625</ele>
      </trkpt>
      <trkpt lat="41.981567200273275" lon="-8.886241195723414">
        <ele>11.7578125</ele>
      </trkpt>
      <trkpt lat="41.98162461631" lon="-8.886219067499042">
        <ele>11.87109375</ele>
      </trkpt>
      <trkpt lat="41.981677422299981" lon="-8.886187300086021">
        <ele>12.171875</ele>
      </trkpt>
      <trkpt lat="41.981730731204152" lon="-8.886166596785188">
        <ele>12.28125</ele>
      </trkpt>
      <trkpt lat="41.981782279908657" lon="-8.88614228926599">
        <ele>12.4609375</ele>
      </trkpt>
      <trkpt lat="41.981836929917336" lon="-8.88612711802125">
        <ele>12.48046875</ele>
      </trkpt>
      <trkpt lat="41.981890490278602" lon="-8.886114712804556">
        <ele>12.515625</ele>
      </trkpt>
      <trkpt lat="41.981942793354392" lon="-8.886097194626927">
        <ele>12.64453125</ele>
      </trkpt>
      <trkpt lat="41.981980763375759" lon="-8.886047573760152">
        <ele>13.3671875</ele>
      </trkpt>
      <trkpt lat="41.982006244361401" lon="-8.885983619838953">
        <ele>14.37890625</ele>
      </trkpt>
      <trkpt lat="41.982027031481266" lon="-8.885916816070676">
        <ele>15.45703125</ele>
      </trkpt>
      <trkpt lat="41.982056871056557" lon="-8.885854203253984">
        <ele>16.4296875</ele>
      </trkpt>
      <trkpt lat="41.982092494145036" lon="-8.885803744196892">
        <ele>17.17578125</ele>
      </trkpt>
      <trkpt lat="41.982153179123998" lon="-8.885789159685373">
        <ele>17.23046875</ele>
      </trkpt>
      <trkpt lat="41.982209254056215" lon="-8.88579435646534">
        <ele>16.953125</ele>
      </trkpt>
      <trkpt lat="41.98226273059845" lon="-8.885791590437293">
        <ele>16.82421875</ele>
      </trkpt>
      <trkpt lat="41.982315788045526" lon="-8.885783040896058">
        <ele>16.90625</ele>
      </trkpt>
      <trkpt lat="41.982368174940348" lon="-8.885756386443973">
        <ele>17.49609375</ele>
      </trkpt>
      <trkpt lat="41.982397427782416" lon="-8.885698299854994">
        <ele>18.83203125</ele>
      </trkpt>
      <trkpt lat="41.982436906546354" lon="-8.885645493865013">
        <ele>20.02734375</ele>
      </trkpt>
      <trkpt lat="41.982491137459874" lon="-8.885634513571858">
        <ele>20.22265625</ele>
      </trkpt>
      <trkpt lat="41.982543859630823" lon="-8.885612050071359">
        <ele>20.6796875</ele>
      </trkpt>
      <trkpt lat="41.982578141614795" lon="-8.885557735338807">
        <ele>21.8828125</ele>
      </trkpt>
      <trkpt lat="41.982627846300602" lon="-8.885542396456003">
        <ele>22.16796875</ele>
      </trkpt>
      <trkpt lat="41.982673611491919" lon="-8.885577600449324">
        <ele>21.30859375</ele>
      </trkpt>
      <trkpt lat="41.982731278985739" lon="-8.885596375912428">
        <ele>20.8125</ele>
      </trkpt>
      <trkpt lat="41.982784671708941" lon="-8.885620096698403">
        <ele>20.29296875</ele>
      </trkpt>
      <trkpt lat="41.982846362516284" lon="-8.885637195780873">
        <ele>19.99609375</ele>
      </trkpt>
      <trkpt lat="41.982902688905597" lon="-8.88565463013947">
        <ele>19.703125</ele>
      </trkpt>
      <trkpt lat="41.982959182932973" lon="-8.885656055063009">
        <ele>19.7578125</ele>
      </trkpt>
      <trkpt lat="41.98301374912262" lon="-8.885654797777534">
        <ele>19.86328125</ele>
      </trkpt>
      <trkpt lat="41.983066722750664" lon="-8.885641638189554">
        <ele>20.203125</ele>
      </trkpt>
      <trkpt lat="41.983118103817105" lon="-8.885619509965181">
        <ele>20.69921875</ele>
      </trkpt>
      <trkpt lat="41.983174094930291" lon="-8.885587491095066">
        <ele>21.3671875</ele>
      </trkpt>
      <trkpt lat="41.983229583129287" lon="-8.88554859906435">
        <ele>22.12109375</ele>
      </trkpt>
      <trkpt lat="41.983280293643475" lon="-8.885510712862015">
        <ele>22.796875</ele>
      </trkpt>
      <trkpt lat="41.98333234526217" lon="-8.885478610172868">
        <ele>23.36328125</ele>
      </trkpt>
      <trkpt lat="41.983388839289546" lon="-8.88544307090342">
        <ele>23.984375</ele>
      </trkpt>
      <trkpt lat="41.98344231583178" lon="-8.885409459471703">
        <ele>24.56640625</ele>
      </trkpt>
      <trkpt lat="41.983492104336619" lon="-8.885371489450336">
        <ele>25.2265625</ele>
      </trkpt>
      <trkpt lat="41.983539210632443" lon="-8.885331591591239">
        <ele>25.9140625</ele>
      </trkpt>
      <trkpt lat="41.983584892004728" lon="-8.885297896340489">
        <ele>26.4921875</ele>
      </trkpt>
      <trkpt lat="41.983638033270836" lon="-8.885316252708435">
        <ele>26.125</ele>
      </trkpt>
      <trkpt lat="41.9836934376508" lon="-8.885311475023627">
        <ele>26.171875</ele>
      </trkpt>
      <trkpt lat="41.983739957213402" lon="-8.885275684297085">
        <ele>26.7734375</ele>
      </trkpt>
      <trkpt lat="41.98377164080739" lon="-8.885217094793916">
        <ele>27.78515625</ele>
      </trkpt>
      <trkpt lat="41.98382000438869" lon="-8.885189099237323">
        <ele>28.23828125</ele>
      </trkpt>
      <trkpt lat="41.983873816207051" lon="-8.885180046781898">
        <ele>28.3515625</ele>
      </trkpt>
      <trkpt lat="41.983927879482508" lon="-8.885165294632316">
        <ele>28.5625</ele>
      </trkpt>
      <trkpt lat="41.983984624966979" lon="-8.88514450751245">
        <ele>28.87109375</ele>
      </trkpt>
      <trkpt lat="41.984034413471818" lon="-8.885115506127477">
        <ele>29.328125</ele>
      </trkpt>
      <trkpt lat="41.984081352129579" lon="-8.885064795613289">
        <ele>30.15625</ele>
      </trkpt>
      <trkpt lat="41.984126782044768" lon="-8.885011821985245">
        <ele>31.015625</ele>
      </trkpt>
      <trkpt lat="41.984174558892846" lon="-8.884975276887417">
        <ele>31.5390625</ele>
      </trkpt>
      <trkpt lat="41.984229711815715" lon="-8.884950382634997">
        <ele>31.8203125</ele>
      </trkpt>
      <trkpt lat="41.984281511977315" lon="-8.88492850586772">
        <ele>32.05859375</ele>
      </trkpt>
      <trkpt lat="41.984334234148264" lon="-8.884909730404615">
        <ele>32.2421875</ele>
      </trkpt>
      <trkpt lat="41.984388716518879" lon="-8.884880058467388">
        <ele>32.60546875</ele>
      </trkpt>
      <trkpt lat="41.984440181404352" lon="-8.884846698492765">
        <ele>33.0625</ele>
      </trkpt>
      <trkpt lat="41.984491311013699" lon="-8.884810907766223">
        <ele>33.58203125</ele>
      </trkpt>
      <trkpt lat="41.984548475593328" lon="-8.884793305769563">
        <ele>33.7578125</ele>
      </trkpt>
      <trkpt lat="41.984574710950255" lon="-8.884788528084755">
        <ele>33.78125</ele>
      </trkpt>
      <trkpt lat="41.984703205525875" lon="-8.884755084291101">
        <ele>34.11328125</ele>
      </trkpt>
      <trkpt lat="41.984750395640731" lon="-8.884713342413306">
        <ele>34.7734375</ele>
      </trkpt>
      <trkpt lat="41.984793897718191" lon="-8.88467151671648">
        <ele>35.4375</ele>
      </trkpt>
      <trkpt lat="41.984834130853415" lon="-8.884618040174246">
        <ele>36.31640625</ele>
      </trkpt>
      <trkpt lat="41.984882662072778" lon="-8.884581997990608">
        <ele>36.85546875</ele>
      </trkpt>
      <trkpt lat="41.984935887157917" lon="-8.884570933878422">
        <ele>36.92578125</ele>
      </trkpt>
      <trkpt lat="41.984989531338215" lon="-8.884585183113813">
        <ele>36.54296875</ele>
      </trkpt>
      <trkpt lat="41.985045354813337" lon="-8.884584261104465">
        <ele>36.42578125</ele>
      </trkpt>
      <trkpt lat="41.985095730051398" lon="-8.88455861248076">
        <ele>36.7890625</ele>
      </trkpt>
      <trkpt lat="41.985137388110161" lon="-8.884500944986939">
        <ele>37.73828125</ele>
      </trkpt>
      <trkpt lat="41.985183488577604" lon="-8.884465405717492">
        <ele>38.28125</ele>
      </trkpt>
      <trkpt lat="41.985238725319505" lon="-8.884466579183936">
        <ele>38.16015625</ele>
      </trkpt>
      <trkpt lat="41.985284741967916" lon="-8.884431123733521">
        <ele>38.6875</ele>
      </trkpt>
      <trkpt lat="41.985330423340201" lon="-8.884383095428348">
        <ele>39.41796875</ele>
      </trkpt>
      <trkpt lat="41.985384151339531" lon="-8.884371109306812">
        <ele>39.51953125</ele>
      </trkpt>
      <trkpt lat="41.985443411394954" lon="-8.88439642265439">
        <ele>38.96875</ele>
      </trkpt>
      <trkpt lat="41.98548917658627" lon="-8.884440846741199">
        <ele>38.13671875</ele>
      </trkpt>
      <trkpt lat="41.985528403893113" lon="-8.884509075433016">
        <ele>36.94140625</ele>
      </trkpt>
      <trkpt lat="41.985566038638353" lon="-8.884568838402629">
        <ele>35.9140625</ele>
      </trkpt>
      <trkpt lat="41.985615575686097" lon="-8.884595660492778">
        <ele>35.421875</ele>
      </trkpt>
      <trkpt lat="41.985675087198615" lon="-8.884599599987268">
        <ele>35.296875</ele>
      </trkpt>
      <trkpt lat="41.985733257606626" lon="-8.884598175063729">
        <ele>35.26171875</ele>
      </trkpt>
      <trkpt lat="41.98579603806138" lon="-8.884602282196283">
        <ele>35.12890625</ele>
      </trkpt>
      <trkpt lat="41.985851610079408" lon="-8.884611837565899">
        <ele>34.91796875</ele>
      </trkpt>
      <trkpt lat="41.985912546515465" lon="-8.884616447612643">
        <ele>34.78125</ele>
      </trkpt>
      <trkpt lat="41.985966358333826" lon="-8.884616531431675">
        <ele>34.7265625</ele>
      </trkpt>
      <trkpt lat="41.986020673066378" lon="-8.884616531431675">
        <ele>34.625</ele>
      </trkpt>
      <trkpt lat="41.98607699945569" lon="-8.884612675756216">
        <ele>34.5390625</ele>
      </trkpt>
      <trkpt lat="41.986132487654686" lon="-8.884599767625332">
        <ele>34.59765625</ele>
      </trkpt>
      <trkpt lat="41.986189316958189" lon="-8.884584261104465">
        <ele>34.69140625</ele>
      </trkpt>
      <trkpt lat="41.986248912289739" lon="-8.884567078202963">
        <ele>34.80859375</ele>
      </trkpt>
      <trkpt lat="41.986304735764861" lon="-8.884547296911478">
        <ele>34.97265625</ele>
      </trkpt>
      <trkpt lat="41.986358212307096" lon="-8.884526677429676">
        <ele>35.15625</ele>
      </trkpt>
      <trkpt lat="41.986416298896074" lon="-8.884503543376923">
        <ele>35.37109375</ele>
      </trkpt>
      <trkpt lat="41.986478744074702" lon="-8.884472278878093">
        <ele>35.6484375</ele>
      </trkpt>
      <trkpt lat="41.986532974988222" lon="-8.88444671407342">
        <ele>35.80078125</ele>
      </trkpt>
      <trkpt lat="41.986590474843979" lon="-8.884423077106476">
        <ele>35.91015625</ele>
      </trkpt>
      <trkpt lat="41.986648142337799" lon="-8.884406061843038">
        <ele>35.91796875</ele>
      </trkpt>
      <trkpt lat="41.986705223098397" lon="-8.884391142055392">
        <ele>35.90234375</ele>
      </trkpt>
      <trkpt lat="41.986765740439296" lon="-8.884372031316161">
        <ele>35.9453125</ele>
      </trkpt>
      <trkpt lat="41.986823072656989" lon="-8.884353088214993">
        <ele>36.0078125</ele>
      </trkpt>
      <trkpt lat="41.986879147589207" lon="-8.884336492046714">
        <ele>36.03515625</ele>
      </trkpt>
      <trkpt lat="41.986934803426266" lon="-8.884320734068751">
        <ele>36.04296875</ele>
      </trkpt>
      <trkpt lat="41.986990543082356" lon="-8.88430112041533">
        <ele>36.09375</ele>
      </trkpt>
      <trkpt lat="41.987052904441953" lon="-8.884280249476433">
        <ele>36.13671875</ele>
      </trkpt>
      <trkpt lat="41.987107051536441" lon="-8.884257199242711">
        <ele>36.26171875</ele>
      </trkpt>
      <trkpt lat="41.987158767879009" lon="-8.884236076846719">
        <ele>36.3671875</ele>
      </trkpt>
      <trkpt lat="41.98721207678318" lon="-8.884209673851728">
        <ele>36.5625</ele>
      </trkpt>
      <trkpt lat="41.987266223877668" lon="-8.884185282513499">
        <ele>36.72265625</ele>
      </trkpt>
      <trkpt lat="41.987317353487015" lon="-8.88415846042335">
        <ele>36.9453125</ele>
      </trkpt>
      <trkpt lat="41.987366555258632" lon="-8.884129291400313">
        <ele>37.21875</ele>
      </trkpt>
      <trkpt lat="41.987417684867978" lon="-8.884098529815674">
        <ele>37.296875</ele>
      </trkpt>
      <trkpt lat="41.987473508343101" lon="-8.884088806807995">
        <ele>36.87109375</ele>
      </trkpt>
      <trkpt lat="41.987531678751111" lon="-8.884086459875107">
        <ele>36.29296875</ele>
      </trkpt>
      <trkpt lat="41.987585993483663" lon="-8.884102134034038">
        <ele>35.4140625</ele>
      </trkpt>
      <trkpt lat="41.987643744796515" lon="-8.884121915325522">
        <ele>34.40625</ele>
      </trkpt>
      <trkpt lat="41.987701579928398" lon="-8.884133985266089">
        <ele>33.5390625</ele>
      </trkpt>
      <trkpt lat="41.987761007621884" lon="-8.88412912376225">
        <ele>32.98046875</ele>
      </trkpt>
      <trkpt lat="41.98781163431704" lon="-8.884096434339881">
        <ele>33.0859375</ele>
      </trkpt>
      <trkpt lat="41.987835438922048" lon="-8.884030636399984">
        <ele>34.171875</ele>
      </trkpt>
      <trkpt lat="41.987876007333398" lon="-8.883990235626698">
        <ele>34.49609375</ele>
      </trkpt>
      <trkpt lat="41.987926550209522" lon="-8.883962072432041">
        <ele>34.44140625</ele>
      </trkpt>
      <trkpt lat="41.987953120842576" lon="-8.883934579789639">
        <ele>34.671875</ele>
      </trkpt>
      <trkpt lat="41.988095445558429" lon="-8.883836846798658">
        <ele>34.90234375</ele>
      </trkpt>
      <trkpt lat="41.98813802562654" lon="-8.883782783523202">
        <ele>35.51953125</ele>
      </trkpt>
      <trkpt lat="41.98818588629365" lon="-8.883748333901167">
        <ele>35.6875</ele>
      </trkpt>
      <trkpt lat="41.988235507160425" lon="-8.883715309202671">
        <ele>35.828125</ele>
      </trkpt>
      <trkpt lat="41.988288229331374" lon="-8.88368840329349">
        <ele>35.81640625</ele>
      </trkpt>
      <trkpt lat="41.988332066684961" lon="-8.883643308654428">
        <ele>36.18359375</ele>
      </trkpt>
      <trkpt lat="41.988364839926362" lon="-8.883577175438404">
        <ele>37.12109375</ele>
      </trkpt>
      <trkpt lat="41.988394092768431" lon="-8.88351640664041">
        <ele>38.0078125</ele>
      </trkpt>
      <trkpt lat="41.98843851685524" lon="-8.88346754014492">
        <ele>38.40234375</ele>
      </trkpt>
      <trkpt lat="41.988487970083952" lon="-8.883438622578979">
        <ele>38.25</ele>
      </trkpt>
      <trkpt lat="41.988537423312664" lon="-8.883405178785324">
        <ele>38.19921875</ele>
      </trkpt>
      <trkpt lat="41.988568771630526" lon="-8.883383218199015">
        <ele>38.18359375</ele>
      </trkpt>
      <trkpt lat="41.989245107397437" lon="-8.882898408919573">
        <ele>38.0234375</ele>
      </trkpt>
      <trkpt lat="41.990249678492546" lon="-8.882169853895903">
        <ele>47.45703125</ele>
      </trkpt>
      <trkpt lat="41.990252612158656" lon="-8.882167506963015">
        <ele>47.4921875</ele>
      </trkpt>
      <trkpt lat="41.990824593231082" lon="-8.881756290793419">
        <ele>51.515625</ele>
      </trkpt>
      <trkpt lat="41.990824593231082" lon="-8.881756290793419">
        <ele>51.515625</ele>
      </trkpt>
      <trkpt lat="41.991049144417048" lon="-8.881625700742006">
        <ele>51.30859375</ele>
      </trkpt>
      <trkpt lat="41.991057442501187" lon="-8.881618827581406">
        <ele>51.3203125</ele>
      </trkpt>
      <trkpt lat="41.99122759513557" lon="-8.881490249186754">
        <ele>50.7109375</ele>
      </trkpt>
      <trkpt lat="41.991230444982648" lon="-8.88148806989193">
        <ele>50.69921875</ele>
      </trkpt>
      <trkpt lat="41.99183695949614" lon="-8.881020359694958">
        <ele>45.5</ele>
      </trkpt>
      <trkpt lat="41.992767853662372" lon="-8.880353579297662">
        <ele>40.578125</ele>
      </trkpt>
      <trkpt lat="41.992773050442338" lon="-8.88035106472671">
        <ele>40.58203125</ele>
      </trkpt>
      <trkpt lat="41.992954686284065" lon="-8.880204381421208">
        <ele>41.9453125</ele>
      </trkpt>
      <trkpt lat="41.993007240816951" lon="-8.880178816616535">
        <ele>42</ele>
      </trkpt>
      <trkpt lat="41.993064573034644" lon="-8.880154006183147">
        <ele>41.99609375</ele>
      </trkpt>
      <trkpt lat="41.993122324347496" lon="-8.88013556599617">
        <ele>41.8515625</ele>
      </trkpt>
      <trkpt lat="41.993178986012936" lon="-8.880126681178808">
        <ele>41.515625</ele>
      </trkpt>
      <trkpt lat="41.993237575516105" lon="-8.880133721977472">
        <ele>40.82421875</ele>
      </trkpt>
      <trkpt lat="41.993295326828957" lon="-8.880142942070961">
        <ele>40.09765625</ele>
      </trkpt>
      <trkpt lat="41.993354251608253" lon="-8.880151910707355">
        <ele>39.3671875</ele>
      </trkpt>
      <trkpt lat="41.993418540805578" lon="-8.88015509583056">
        <ele>38.84375</ele>
      </trkpt>
      <trkpt lat="41.993476124480367" lon="-8.880153670907021">
        <ele>38.6796875</ele>
      </trkpt>
      <trkpt lat="41.993532115593553" lon="-8.88014679774642">
        <ele>38.62890625</ele>
      </trkpt>
      <trkpt lat="41.993591208010912" lon="-8.880132799968123">
        <ele>38.69921875</ele>
      </trkpt>
      <trkpt lat="41.993646947667003" lon="-8.880119221284986">
        <ele>38.7578125</ele>
      </trkpt>
      <trkpt lat="41.993709644302726" lon="-8.88010673224926">
        <ele>38.76171875</ele>
      </trkpt>
      <trkpt lat="41.993768569082022" lon="-8.880098015069962">
        <ele>38.6953125</ele>
      </trkpt>
      <trkpt lat="41.993826655671" lon="-8.880092650651932">
        <ele>38.56640625</ele>
      </trkpt>
      <trkpt lat="41.993887256830931" lon="-8.880091393366456">
        <ele>38.33203125</ele>
      </trkpt>
      <trkpt lat="41.993945930153131" lon="-8.880098601803184">
        <ele>37.9453125</ele>
      </trkpt>
      <trkpt lat="41.994007285684347" lon="-8.880105726420879">
        <ele>37.546875</ele>
      </trkpt>
      <trkpt lat="41.994062773883343" lon="-8.880109498277307">
        <ele>37.234375</ele>
      </trkpt>
      <trkpt lat="41.99411834590137" lon="-8.880121652036905">
        <ele>36.79296875</ele>
      </trkpt>
      <trkpt lat="41.994173834100366" lon="-8.880128860473633">
        <ele>36.4296875</ele>
      </trkpt>
      <trkpt lat="41.994234435260296" lon="-8.880130453035235">
        <ele>36.13671875</ele>
      </trkpt>
      <trkpt lat="41.99428983964026" lon="-8.880136739462614">
        <ele>35.796875</ele>
      </trkpt>
      <trkpt lat="41.994343902915716" lon="-8.880151910707355">
        <ele>35.31640625</ele>
      </trkpt>
      <trkpt lat="41.99439687654376" lon="-8.880168087780476">
        <ele>34.8125</ele>
      </trkpt>
      <trkpt lat="41.994451023638248" lon="-8.880187030881643">
        <ele>34.2734375</ele>
      </trkpt>
      <trkpt lat="41.994506679475307" lon="-8.880207566544414">
        <ele>33.70703125</ele>
      </trkpt>
      <trkpt lat="41.994568621739745" lon="-8.880227096378803">
        <ele>33.140625</ele>
      </trkpt>
      <trkpt lat="41.994624612852931" lon="-8.880239501595497">
        <ele>32.7109375</ele>
      </trkpt>
      <trkpt lat="41.99467733502388" lon="-8.880254589021206">
        <ele>32.28515625</ele>
      </trkpt>
      <trkpt lat="41.994732739403844" lon="-8.880266491323709">
        <ele>31.890625</ele>
      </trkpt>
      <trkpt lat="41.994791831821203" lon="-8.880276633426547">
        <ele>31.48828125</ele>
      </trkpt>
      <trkpt lat="41.994847655296326" lon="-8.880291301757097">
        <ele>30.9921875</ele>
      </trkpt>
      <trkpt lat="41.994905406609178" lon="-8.880302784964442">
        <ele>30.52734375</ele>
      </trkpt>
      <trkpt lat="41.99496416375041" lon="-8.880317704752088">
        <ele>30.0234375</ele>
      </trkpt>
      <trkpt lat="41.99502132833004" lon="-8.880329523235559">
        <ele>29.5625</ele>
      </trkpt>
      <trkpt lat="41.995081091299653" lon="-8.880335139110684">
        <ele>29.1640625</ele>
      </trkpt>
      <trkpt lat="41.995136328041553" lon="-8.880332540720701">
        <ele>28.87890625</ele>
      </trkpt>
      <trkpt lat="41.995190475136042" lon="-8.880325667560101">
        <ele>28.6484375</ele>
      </trkpt>
      <trkpt lat="41.995245292782784" lon="-8.880322985351086">
        <ele>28.36328125</ele>
      </trkpt>
      <trkpt lat="41.995301200076938" lon="-8.88031636364758">
        <ele>28.04296875</ele>
      </trkpt>
      <trkpt lat="41.995362639427185" lon="-8.880295492708683">
        <ele>27.82421875</ele>
      </trkpt>
      <trkpt lat="41.995418462902308" lon="-8.880274202674627">
        <ele>27.640625</ele>
      </trkpt>
      <trkpt lat="41.995473280549049" lon="-8.880253415554762">
        <ele>27.45703125</ele>
      </trkpt>
      <trkpt lat="41.995532121509314" lon="-8.880228437483311">
        <ele>27.28125</ele>
      </trkpt>
      <trkpt lat="41.995583921670914" lon="-8.880203710868955">
        <ele>27.15625</ele>
      </trkpt>
      <trkpt lat="41.995636476203799" lon="-8.88018099591136">
        <ele>27</ele>
      </trkpt>
      <trkpt lat="41.995692132040858" lon="-8.880154844373465">
        <ele>26.84765625</ele>
      </trkpt>
      <trkpt lat="41.995745021849871" lon="-8.880124585703015">
        <ele>26.6796875</ele>
      </trkpt>
      <trkpt lat="41.995801767334342" lon="-8.880089046433568">
        <ele>26.49609375</ele>
      </trkpt>
      <trkpt lat="41.995854740962386" lon="-8.880059961229563">
        <ele>26.27734375</ele>
      </trkpt>
      <trkpt lat="41.995904110372066" lon="-8.880029618740082">
        <ele>26.1015625</ele>
      </trkpt>
      <trkpt lat="41.995959263294935" lon="-8.880001958459616">
        <ele>25.83984375</ele>
      </trkpt>
      <trkpt lat="41.996016930788755" lon="-8.879972454160452">
        <ele>25.56640625</ele>
      </trkpt>
      <trkpt lat="41.996066467836499" lon="-8.879941273480654">
        <ele>25.3828125</ele>
      </trkpt>
      <trkpt lat="41.996121453121305" lon="-8.879907578229904">
        <ele>25.1640625</ele>
      </trkpt>
      <trkpt lat="41.996170319616795" lon="-8.879876146093011">
        <ele>24.98046875</ele>
      </trkpt>
      <trkpt lat="41.99622823856771" lon="-8.879832308739424">
        <ele>24.8125</ele>
      </trkpt>
      <trkpt lat="41.996275428682566" lon="-8.879789477214217">
        <ele>24.7421875</ele>
      </trkpt>
      <trkpt lat="41.996323373168707" lon="-8.879743041470647">
        <ele>24.703125</ele>
      </trkpt>
      <trkpt lat="41.996371736750007" lon="-8.879703311249614">
        <ele>24.59375</ele>
      </trkpt>
      <trkpt lat="41.996426805853844" lon="-8.879660898819566">
        <ele>24.42578125</ele>
      </trkpt>
      <trkpt lat="41.99647843837738" lon="-8.879621922969818">
        <ele>24.25</ele>
      </trkpt>
      <trkpt lat="41.996481120586395" lon="-8.879620833322406">
        <ele>24.23046875</ele>
      </trkpt>
      <trkpt lat="41.996665690094233" lon="-8.879500133916736">
        <ele>23.33203125</ele>
      </trkpt>
      <trkpt lat="41.996720340102911" lon="-8.87948714196682">
        <ele>22.83203125</ele>
      </trkpt>
      <trkpt lat="41.996774403378367" lon="-8.879463421180844">
        <ele>22.4296875</ele>
      </trkpt>
      <trkpt lat="41.996825030073524" lon="-8.879426289349794">
        <ele>22.1796875</ele>
      </trkpt>
      <trkpt lat="41.99687322601676" lon="-8.879386140033603">
        <ele>21.984375</ele>
      </trkpt>
      <trkpt lat="41.996916895732284" lon="-8.879338949918747">
        <ele>21.8984375</ele>
      </trkpt>
      <trkpt lat="41.996964840218425" lon="-8.879296956583858">
        <ele>21.78125</ele>
      </trkpt>
      <trkpt lat="41.997015047818422" lon="-8.879266949370503">
        <ele>21.59765625</ele>
      </trkpt>
      <trkpt lat="41.99707112275064" lon="-8.87924037873745">
        <ele>21.30078125</ele>
      </trkpt>
      <trkpt lat="41.997126694768667" lon="-8.879220262169838">
        <ele>20.94921875</ele>
      </trkpt>
      <trkpt lat="41.997184781357646" lon="-8.879184890538454">
        <ele>20.78125</ele>
      </trkpt>
      <trkpt lat="41.997232306748629" lon="-8.879145998507738">
        <ele>20.765625</ele>
      </trkpt>
      <trkpt lat="41.99728318490088" lon="-8.879104843363166">
        <ele>20.74609375</ele>
      </trkpt>
      <trkpt lat="41.997333643957973" lon="-8.879065616056323">
        <ele>20.703125</ele>
      </trkpt>
      <trkpt lat="41.997387371957302" lon="-8.879042062908411">
        <ele>20.43359375</ele>
      </trkpt>
      <trkpt lat="41.997445207089186" lon="-8.879032088443637">
        <ele>19.94921875</ele>
      </trkpt>
      <trkpt lat="41.997503126040101" lon="-8.879021611064672">
        <ele>19.46875</ele>
      </trkpt>
      <trkpt lat="41.997565738856792" lon="-8.879011552780867">
        <ele>18.93359375</ele>
      </trkpt>
      <trkpt lat="41.997620053589344" lon="-8.879002584144473">
        <ele>18.4609375</ele>
      </trkpt>
      <trkpt lat="41.997680403292179" lon="-8.878992358222604">
        <ele>17.94140625</ele>
      </trkpt>
      <trkpt lat="41.997737232595682" lon="-8.878982802852988">
        <ele>17.453125</ele>
      </trkpt>
      <trkpt lat="41.997794816270471" lon="-8.878973079845309">
        <ele>16.9609375</ele>
      </trkpt>
      <trkpt lat="41.99785390868783" lon="-8.878964781761169">
        <ele>16.43359375</ele>
      </trkpt>
      <trkpt lat="41.997909061610699" lon="-8.878955477848649">
        <ele>15.96484375</ele>
      </trkpt>
      <trkpt lat="41.997967064380646" lon="-8.878942066803575">
        <ele>15.51953125</ele>
      </trkpt>
      <trkpt lat="41.998027497902513" lon="-8.878925973549485">
        <ele>15.09375</ele>
      </trkpt>
      <trkpt lat="41.998082902282476" lon="-8.878904851153493">
        <ele>14.86328125</ele>
      </trkpt>
      <trkpt lat="41.998131098225713" lon="-8.878867384046316">
        <ele>14.91015625</ele>
      </trkpt>
      <trkpt lat="41.998175606131554" lon="-8.878827067092061">
        <ele>15.08203125</ele>
      </trkpt>
      <trkpt lat="41.998222041875124" lon="-8.878779374063015">
        <ele>15.390625</ele>
      </trkpt>
      <trkpt lat="41.998269399628043" lon="-8.878735452890396">
        <ele>15.640625</ele>
      </trkpt>
      <trkpt lat="41.998311057686806" lon="-8.878689603880048">
        <ele>15.9765625</ele>
      </trkpt>
      <trkpt lat="41.998355146497488" lon="-8.878640905022621">
        <ele>16.33984375</ele>
      </trkpt>
      <trkpt lat="41.998397810384631" lon="-8.878596145659685">
        <ele>16.66015625</ele>
      </trkpt>
      <trkpt lat="41.998443575575948" lon="-8.878555493429303">
        <ele>16.8984375</ele>
      </trkpt>
      <trkpt lat="41.998494537547231" lon="-8.878515847027302">
        <ele>17.08984375</ele>
      </trkpt>
      <trkpt lat="41.998547092080116" lon="-8.878478212282062">
        <ele>17.3046875</ele>
      </trkpt>
      <trkpt lat="41.998599478974938" lon="-8.878439906984568">
        <ele>17.53125</ele>
      </trkpt>
      <trkpt lat="41.998647842556238" lon="-8.878406882286072">
        <ele>17.703125</ele>
      </trkpt>
      <trkpt lat="41.998701235279441" lon="-8.878384251147509">
        <ele>17.671875</ele>
      </trkpt>
      <trkpt lat="41.998766027390957" lon="-8.878365140408278">
        <ele>17.48046875</ele>
      </trkpt>
      <trkpt lat="41.998823443427682" lon="-8.878346867859364">
        <ele>17.33203125</ele>
      </trkpt>
      <trkpt lat="41.998877506703138" lon="-8.87832859531045">
        <ele>17.203125</ele>
      </trkpt>
      <trkpt lat="41.998925032094121" lon="-8.878292636945844">
        <ele>17.37890625</ele>
      </trkpt>
      <trkpt lat="41.99894598685205" lon="-8.878278890624642">
        <ele>17.421875</ele>
      </trkpt>
      <trkpt lat="41.999049838632345" lon="-8.878252571448684">
        <ele>16.78125</ele>
      </trkpt>
      <trkpt lat="41.99910675175488" lon="-8.878219211474061">
        <ele>16.703125</ele>
      </trkpt>
      <trkpt lat="41.999160731211305" lon="-8.878179229795933">
        <ele>16.75</ele>
      </trkpt>
      <trkpt lat="41.999208088964224" lon="-8.878138577565551">
        <ele>16.87109375</ele>
      </trkpt>
      <trkpt lat="41.999255614355206" lon="-8.878096332773566">
        <ele>17.01171875</ele>
      </trkpt>
      <trkpt lat="41.999299786984921" lon="-8.87805450707674">
        <ele>17.18359375</ele>
      </trkpt>
      <trkpt lat="41.999351000413299" lon="-8.878010418266058">
        <ele>17.31640625</ele>
      </trkpt>
      <trkpt lat="41.999401710927486" lon="-8.877984853461385">
        <ele>17.1875</ele>
      </trkpt>
      <trkpt lat="41.999457702040672" lon="-8.877966161817312">
        <ele>16.8125</ele>
      </trkpt>
      <trkpt lat="41.999510759487748" lon="-8.877949649468064">
        <ele>16.421875</ele>
      </trkpt>
      <trkpt lat="41.999565158039331" lon="-8.877938501536846">
        <ele>15.9375</ele>
      </trkpt>
      <trkpt lat="41.999621987342834" lon="-8.87792550958693">
        <ele>15.44921875</ele>
      </trkpt>
      <trkpt lat="41.999674793332815" lon="-8.87791084125638">
        <ele>15.03515625</ele>
      </trkpt>
      <trkpt lat="41.999727934598923" lon="-8.87789131142199">
        <ele>14.6875</ele>
      </trkpt>
      <trkpt lat="41.999776801094413" lon="-8.87785317376256">
        <ele>14.6640625</ele>
      </trkpt>
      <trkpt lat="41.999827260151505" lon="-8.877813527360559">
        <ele>14.63671875</ele>
      </trkpt>
      <trkpt lat="41.9998758751899" lon="-8.877771701663733">
        <ele>14.6875</ele>
      </trkpt>
      <trkpt lat="41.999915018677711" lon="-8.877719985321164">
        <ele>15.19140625</ele>
      </trkpt>
      <trkpt lat="41.999941589310765" lon="-8.877656199038029">
        <ele>15.9453125</ele>
      </trkpt>
      <trkpt lat="41.999970590695739" lon="-8.87758637778461">
        <ele>16.765625</ele>
      </trkpt>
      <trkpt lat="41.999993892386556" lon="-8.877514377236366">
        <ele>17.64453125</ele>
      </trkpt>
      <trkpt lat="42.000023396685719" lon="-8.877437096089125">
        <ele>18.62109375</ele>
      </trkpt>
      <trkpt lat="42.000054661184549" lon="-8.87737138196826">
        <ele>19.5234375</ele>
      </trkpt>
      <trkpt lat="42.000099755823612" lon="-8.877333160489798">
        <ele>19.859375</ele>
      </trkpt>
      <trkpt lat="42.000154238194227" lon="-8.877319162711501">
        <ele>19.7265625</ele>
      </trkpt>
      <trkpt lat="42.000215258449316" lon="-8.877316731959581">
        <ele>19.3515625</ele>
      </trkpt>
      <trkpt lat="42.00027015991509" lon="-8.877322599291801">
        <ele>18.8828125</ele>
      </trkpt>
      <trkpt lat="42.000328917056322" lon="-8.877327209338546">
        <ele>18.40625</ele>
      </trkpt>
      <trkpt lat="42.000384321436286" lon="-8.87733668088913">
        <ele>17.921875</ele>
      </trkpt>
      <trkpt lat="42.000438300892711" lon="-8.87733525596559">
        <ele>17.6328125</ele>
      </trkpt>
      <trkpt lat="42.000497560948133" lon="-8.877329556271434">
        <ele>17.37890625</ele>
      </trkpt>
      <trkpt lat="42.000552210956812" lon="-8.877322934567928">
        <ele>17.1640625</ele>
      </trkpt>
      <trkpt lat="42.000608872622252" lon="-8.877307930961251">
        <ele>17.0625</ele>
      </trkpt>
      <trkpt lat="42.000660337507725" lon="-8.8772863894701">
        <ele>17.08203125</ele>
      </trkpt>
      <trkpt lat="42.000715658068657" lon="-8.877269122749567">
        <ele>17.00390625</ele>
      </trkpt>
      <trkpt lat="42.000726973637938" lon="-8.877266943454742">
        <ele>16.96875</ele>
      </trkpt>
      <trkpt lat="42.001008521765471" lon="-8.87714565731585">
        <ele>16.38671875</ele>
      </trkpt>
      <trkpt lat="42.001013718545437" lon="-8.877143394201994">
        <ele>16.37109375</ele>
      </trkpt>
      <trkpt lat="42.001249250024557" lon="-8.877039710059762">
        <ele>15.47265625</ele>
      </trkpt>
      <trkpt lat="42.001295937225223" lon="-8.877000818029046">
        <ele>15.4765625</ele>
      </trkpt>
      <trkpt lat="42.001346396282315" lon="-8.876955891028047">
        <ele>15.49609375</ele>
      </trkpt>
      <trkpt lat="42.001395346596837" lon="-8.876925883814692">
        <ele>15.33984375</ele>
      </trkpt>
      <trkpt lat="42.001446727663279" lon="-8.876900235190988">
        <ele>15.1015625</ele>
      </trkpt>
      <trkpt lat="42.001502383500338" lon="-8.876880118623376">
        <ele>14.74609375</ele>
      </trkpt>
      <trkpt lat="42.001560218632221" lon="-8.876865953207016">
        <ele>14.29296875</ele>
      </trkpt>
      <trkpt lat="42.001618389040232" lon="-8.876854972913861">
        <ele>13.80078125</ele>
      </trkpt>
      <trkpt lat="42.001675050705671" lon="-8.876852374523878">
        <ele>13.23046875</ele>
      </trkpt>
      <trkpt lat="42.001729365438223" lon="-8.876851033419371">
        <ele>12.6953125</ele>
      </trkpt>
      <trkpt lat="42.001785021275282" lon="-8.876840975135565">
        <ele>12.40234375</ele>
      </trkpt>
      <trkpt lat="42.001842772588134" lon="-8.876818343997002">
        <ele>12.2265625</ele>
      </trkpt>
      <trkpt lat="42.001893566921353" lon="-8.876783642917871">
        <ele>12.22265625</ele>
      </trkpt>
      <trkpt lat="42.001940757036209" lon="-8.87674399651587">
        <ele>12.296875</ele>
      </trkpt>
      <trkpt lat="42.001987611874938" lon="-8.876702506095171">
        <ele>12.40234375</ele>
      </trkpt>
      <trkpt lat="42.002037232741714" lon="-8.876667972654104">
        <ele>12.41796875</ele>
      </trkpt>
      <trkpt lat="42.002092134207487" lon="-8.876643581315875">
        <ele>12.30078125</ele>
      </trkpt>
      <trkpt lat="42.002144940197468" lon="-8.876627823337913">
        <ele>12.109375</ele>
      </trkpt>
      <trkpt lat="42.002204116433859" lon="-8.876616088673472">
        <ele>11.90625</ele>
      </trkpt>
      <trkpt lat="42.002258850261569" lon="-8.876607706770301">
        <ele>11.83984375</ele>
      </trkpt>
      <trkpt lat="42.002319367602468" lon="-8.876600665971637">
        <ele>11.74609375</ele>
      </trkpt>
      <trkpt lat="42.002377035096288" lon="-8.876599073410034">
        <ele>11.59765625</ele>
      </trkpt>
      <trkpt lat="42.002434534952044" lon="-8.876599073410034">
        <ele>11.4375</ele>
      </trkpt>
      <trkpt lat="42.002490358427167" lon="-8.876608712598681">
        <ele>11.171875</ele>
      </trkpt>
      <trkpt lat="42.002551630139351" lon="-8.876622542738914">
        <ele>10.8359375</ele>
      </trkpt>
      <trkpt lat="42.002609381452203" lon="-8.876638384535909">
        <ele>10.484375</ele>
      </trkpt>
      <trkpt lat="42.002665875479579" lon="-8.876651879400015">
        <ele>10.296875</ele>
      </trkpt>
      <trkpt lat="42.002720944583416" lon="-8.876665038987994">
        <ele>10.43359375</ele>
      </trkpt>
      <trkpt lat="42.002774169668555" lon="-8.876680545508862">
        <ele>10.52734375</ele>
      </trkpt>
      <trkpt lat="42.002829741686583" lon="-8.876700410619378">
        <ele>10.5859375</ele>
      </trkpt>
      <trkpt lat="42.002882212400436" lon="-8.876725640147924">
        <ele>10.5625</ele>
      </trkpt>
      <trkpt lat="42.002937281504273" lon="-8.876754641532898">
        <ele>10.51171875</ele>
      </trkpt>
      <trkpt lat="42.002988494932652" lon="-8.876780122518539">
        <ele>10.4765625</ele>
      </trkpt>
      <trkpt lat="42.003040630370378" lon="-8.876821864396334">
        <ele>10.2578125</ele>
      </trkpt>
      <trkpt lat="42.003090586513281" lon="-8.876864863559604">
        <ele>10.01171875</ele>
      </trkpt>
      <trkpt lat="42.003139620646834" lon="-8.876906102523208">
        <ele>9.8984375</ele>
      </trkpt>
      <trkpt lat="42.003186726942658" lon="-8.876942563802004">
        <ele>9.92578125</ele>
      </trkpt>
      <trkpt lat="42.003231821581721" lon="-8.876983299851418">
        <ele>9.8984375</ele>
      </trkpt>
      <trkpt lat="42.003277083858848" lon="-8.877030489966273">
        <ele>9.7890625</ele>
      </trkpt>
      <trkpt lat="42.003320753574371" lon="-8.877074075862765">
        <ele>9.703125</ele>
      </trkpt>
      <trkpt lat="42.003362579271197" lon="-8.877124283462763">
        <ele>9.53125</ele>
      </trkpt>
      <trkpt lat="42.003405997529626" lon="-8.877170970663428">
        <ele>9.43359375</ele>
      </trkpt>
      <trkpt lat="42.003451259806752" lon="-8.877223692834377">
        <ele>9.29296875</ele>
      </trkpt>
      <trkpt lat="42.003493253141642" lon="-8.877277923747897">
        <ele>9.1171875</ele>
      </trkpt>
      <trkpt lat="42.003535497933626" lon="-8.877327293157578">
        <ele>9.0078125</ele>
      </trkpt>
      <trkpt lat="42.003587214276195" lon="-8.877382026985288">
        <ele>9.05078125</ele>
      </trkpt>
      <trkpt lat="42.003636751323938" lon="-8.877441203221679">
        <ele>9.33203125</ele>
      </trkpt>
      <trkpt lat="42.003680840134621" lon="-8.877492249011993">
        <ele>9.77734375</ele>
      </trkpt>
      <trkpt lat="42.003721743822098" lon="-8.877546982839704">
        <ele>10.203125</ele>
      </trkpt>
      <trkpt lat="42.003760049119592" lon="-8.877603225409985">
        <ele>10.5390625</ele>
      </trkpt>
      <trkpt lat="42.003801036626101" lon="-8.877654857933521">
        <ele>10.92578125</ele>
      </trkpt>
      <trkpt lat="42.00383959338069" lon="-8.877712609246373">
        <ele>11.1953125</ele>
      </trkpt>
      <trkpt lat="42.003877814859152" lon="-8.877777149900794">
        <ele>11.37890625</ele>
      </trkpt>
      <trkpt lat="42.003913437947631" lon="-8.877832135185599">
        <ele>11.5546875</ele>
      </trkpt>
      <trkpt lat="42.003948893398046" lon="-8.877888629212976">
        <ele>11.69140625</ele>
      </trkpt>
      <trkpt lat="42.003982253372669" lon="-8.877946967259049">
        <ele>11.76171875</ele>
      </trkpt>
      <trkpt lat="42.004019636660814" lon="-8.878008993342519">
        <ele>11.86328125</ele>
      </trkpt>
      <trkpt lat="42.00405266135931" lon="-8.878066660836339">
        <ele>11.84765625</ele>
      </trkpt>
      <trkpt lat="42.004084847867489" lon="-8.87812776491046">
        <ele>11.71484375</ele>
      </trkpt>
      <trkpt lat="42.00411468744278" lon="-8.878188282251358">
        <ele>11.5546875</ele>
      </trkpt>
      <trkpt lat="42.004146035760641" lon="-8.878252739086747">
        <ele>11.375</ele>
      </trkpt>
      <trkpt lat="42.00417872518301" lon="-8.878320213407278">
        <ele>11.1796875</ele>
      </trkpt>
      <trkpt lat="42.004212001338601" lon="-8.878377797082067">
        <ele>11.0625</ele>
      </trkpt>
      <trkpt lat="42.00423538684845" lon="-8.878442589193583">
        <ele>10.98828125</ele>
      </trkpt>
      <trkpt lat="42.00425885617733" lon="-8.878517188131809">
        <ele>10.890625</ele>
      </trkpt>
      <trkpt lat="42.004274697974324" lon="-8.87859589420259">
        <ele>10.6796875</ele>
      </trkpt>
      <trkpt lat="42.004290707409382" lon="-8.878668397665024">
        <ele>10.484375</ele>
      </trkpt>
      <trkpt lat="42.00430478900671" lon="-8.878744505345821">
        <ele>10.2421875</ele>
      </trkpt>
      <trkpt lat="42.004324570298195" lon="-8.878817427903414">
        <ele>10.05078125</ele>
      </trkpt>
      <trkpt lat="42.004339825361967" lon="-8.878890434280038">
        <ele>9.85546875</ele>
      </trkpt>
      <trkpt lat="42.004353823140264" lon="-8.878961009904742">
        <ele>9.6796875</ele>
      </trkpt>
      <trkpt lat="42.004369581118226" lon="-8.879031836986542">
        <ele>9.51171875</ele>
      </trkpt>
      <trkpt lat="42.004393804818392" lon="-8.879099730402231">
        <ele>9.40234375</ele>
      </trkpt>
      <trkpt lat="42.004418866708875" lon="-8.879170138388872">
        <ele>9.2734375</ele>
      </trkpt>
      <trkpt lat="42.004440827295184" lon="-8.879244821146131">
        <ele>9.08984375</ele>
      </trkpt>
      <trkpt lat="42.004462871700525" lon="-8.879312882199883">
        <ele>8.92578125</ele>
      </trkpt>
      <trkpt lat="42.00448608957231" lon="-8.879384547472">
        <ele>8.921875</ele>
      </trkpt>
      <trkpt lat="42.004517437890172" lon="-8.879446238279343">
        <ele>8.96875</ele>
      </trkpt>
      <trkpt lat="42.004547361284494" lon="-8.879508264362812">
        <ele>8.99609375</ele>
      </trkpt>
      <trkpt lat="42.004584828391671" lon="-8.879558639600873">
        <ele>9.078125</ele>
      </trkpt>
      <trkpt lat="42.004597736522555" lon="-8.879569871351123">
        <ele>9.1171875</ele>
      </trkpt>
      <trkpt lat="42.004669904708862" lon="-8.879697024822235">
        <ele>9.1875</ele>
      </trkpt>
      <trkpt lat="42.00467174872756" lon="-8.879698114469647">
        <ele>9.1953125</ele>
      </trkpt>
      <trkpt lat="42.004796387627721" lon="-8.879800038412213">
        <ele>9.52734375</ele>
      </trkpt>
      <trkpt lat="42.004850283265114" lon="-8.879824429750443">
        <ele>9.70703125</ele>
      </trkpt>
      <trkpt lat="42.004916919395328" lon="-8.8798594661057">
        <ele>9.92578125</ele>
      </trkpt>
      <trkpt lat="42.004986237734556" lon="-8.879904225468636">
        <ele>10.01953125</ele>
      </trkpt>
      <trkpt lat="42.005034014582634" lon="-8.879944793879986">
        <ele>9.8984375</ele>
      </trkpt>
      <trkpt lat="42.005082378163934" lon="-8.879991732537746">
        <ele>9.75390625</ele>
      </trkpt>
      <trkpt lat="42.005127808079123" lon="-8.880032887682319">
        <ele>9.62109375</ele>
      </trkpt>
      <trkpt lat="42.005183212459087" lon="-8.880055183544755">
        <ele>9.53515625</ele>
      </trkpt>
      <trkpt lat="42.005237275734544" lon="-8.880056692287326">
        <ele>9.51171875</ele>
      </trkpt>
      <trkpt lat="42.005294356495142" lon="-8.880062559619546">
        <ele>9.46875</ele>
      </trkpt>
      <trkpt lat="42.005356466397643" lon="-8.880063984543085">
        <ele>9.4375</ele>
      </trkpt>
      <trkpt lat="42.005413547158241" lon="-8.880066918209195">
        <ele>9.40625</ele>
      </trkpt>
      <trkpt lat="42.005470627918839" lon="-8.880066918209195">
        <ele>9.37109375</ele>
      </trkpt>
      <trkpt lat="42.005520416423678" lon="-8.880095165222883">
        <ele>9.24609375</ele>
      </trkpt>
      <trkpt lat="42.005567857995629" lon="-8.880136236548424">
        <ele>9.078125</ele>
      </trkpt>
      <trkpt lat="42.005616137757897" lon="-8.880172362551093">
        <ele>8.9296875</ele>
      </trkpt>
      <trkpt lat="42.005666764453053" lon="-8.880202285945415">
        <ele>8.796875</ele>
      </trkpt>
      <trkpt lat="42.005721582099795" lon="-8.880231622606516">
        <ele>8.6640625</ele>
      </trkpt>
      <trkpt lat="42.00577505864203" lon="-8.880254337564111">
        <ele>8.56640625</ele>
      </trkpt>
      <trkpt lat="42.005835911259055" lon="-8.880292810499668">
        <ele>8.42578125</ele>
      </trkpt>
      <trkpt lat="42.00588796287775" lon="-8.880326421931386">
        <ele>8.30078125</ele>
      </trkpt>
      <trkpt lat="42.005944289267063" lon="-8.880365649238229">
        <ele>8.2734375</ele>
      </trkpt>
      <trkpt lat="42.006004303693771" lon="-8.880403535440564">
        <ele>8.25</ele>
      </trkpt>
      <trkpt lat="42.00605945661664" lon="-8.880441673099995">
        <ele>8.22265625</ele>
      </trkpt>
      <trkpt lat="42.006113603711128" lon="-8.880481654778123">
        <ele>8.19140625</ele>
      </trkpt>
      <trkpt lat="42.006162721663713" lon="-8.880513422191143">
        <ele>8.171875</ele>
      </trkpt>
      <trkpt lat="42.006215024739504" lon="-8.88053672388196">
        <ele>8.1796875</ele>
      </trkpt>
      <trkpt lat="42.006270512938499" lon="-8.880561701953411">
        <ele>8.18359375</ele>
      </trkpt>
      <trkpt lat="42.006320971995592" lon="-8.880586596205831">
        <ele>8.1875</ele>
      </trkpt>
      <trkpt lat="42.006345698609948" lon="-8.880600174888968">
        <ele>8.18359375</ele>
      </trkpt>
      <trkpt lat="42.006714167073369" lon="-8.880791952833533">
        <ele>8.40234375</ele>
      </trkpt>
      <trkpt lat="42.006896641105413" lon="-8.880882561206818">
        <ele>8.703125</ele>
      </trkpt>
      <trkpt lat="42.006961600854993" lon="-8.880904857069254">
        <ele>8.8984375</ele>
      </trkpt>
      <trkpt lat="42.007020357996225" lon="-8.880919693037868">
        <ele>9.08984375</ele>
      </trkpt>
      <trkpt lat="42.00708070769906" lon="-8.880936121568084">
        <ele>9.2734375</ele>
      </trkpt>
      <trkpt lat="42.007138542830944" lon="-8.880949281156063">
        <ele>9.453125</ele>
      </trkpt>
      <trkpt lat="42.007198054343462" lon="-8.880960093811154">
        <ele>9.64453125</ele>
      </trkpt>
      <trkpt lat="42.007258906960487" lon="-8.880966464057565">
        <ele>9.85546875</ele>
      </trkpt>
      <trkpt lat="42.00731473043561" lon="-8.880974175408483">
        <ele>10.03515625</ele>
      </trkpt>
      <trkpt lat="42.007370553910732" lon="-8.880988089367747">
        <ele>10.1796875</ele>
      </trkpt>
      <trkpt lat="42.007426293566823" lon="-8.881004098802805">
        <ele>10.3046875</ele>
      </trkpt>
      <trkpt lat="42.007479518651962" lon="-8.881019605323672">
        <ele>10.4140625</ele>
      </trkpt>
      <trkpt lat="42.007532576099038" lon="-8.881033770740032">
        <ele>10.51953125</ele>
      </trkpt>
      <trkpt lat="42.007583454251289" lon="-8.881071321666241">
        <ele>10.4765625</ele>
      </trkpt>
      <trkpt lat="42.007628884166479" lon="-8.881120858713984">
        <ele>10.32421875</ele>
      </trkpt>
      <trkpt lat="42.007674397900701" lon="-8.881163271144032">
        <ele>10.19140625</ele>
      </trkpt>
      <trkpt lat="42.007720498368144" lon="-8.881210628896952">
        <ele>10.09765625</ele>
      </trkpt>
      <trkpt lat="42.007767269387841" lon="-8.881253376603127">
        <ele>10.0234375</ele>
      </trkpt>
      <trkpt lat="42.007828541100025" lon="-8.881292017176747">
        <ele>9.98046875</ele>
      </trkpt>
      <trkpt lat="42.007883274927735" lon="-8.881325209513307">
        <ele>9.92578125</ele>
      </trkpt>
      <trkpt lat="42.007939768955112" lon="-8.881357815116644">
        <ele>9.84765625</ele>
      </trkpt>
      <trkpt lat="42.007990479469299" lon="-8.881384385749698">
        <ele>9.7734375</ele>
      </trkpt>
      <trkpt lat="42.008043536916375" lon="-8.881413387134671">
        <ele>9.66796875</ele>
      </trkpt>
      <trkpt lat="42.008100785315037" lon="-8.881441382691264">
        <ele>9.5546875</ele>
      </trkpt>
      <trkpt lat="42.00815811753273" lon="-8.881462002173066">
        <ele>9.47265625</ele>
      </trkpt>
      <trkpt lat="42.008214527741075" lon="-8.881486058235168">
        <ele>9.375</ele>
      </trkpt>
      <trkpt lat="42.008268674835563" lon="-8.881505085155368">
        <ele>9.39453125</ele>
      </trkpt>
      <trkpt lat="42.008323408663273" lon="-8.881535846740007">
        <ele>9.30859375</ele>
      </trkpt>
      <trkpt lat="42.008382584899664" lon="-8.881562668830156">
        <ele>9.25390625</ele>
      </trkpt>
      <trkpt lat="42.008446790277958" lon="-8.881599800661206">
        <ele>9.109375</ele>
      </trkpt>
      <trkpt lat="42.008504122495651" lon="-8.881638357415795">
        <ele>8.95703125</ele>
      </trkpt>
      <trkpt lat="42.008553575724363" lon="-8.881671465933323">
        <ele>8.89453125</ele>
      </trkpt>
      <trkpt lat="42.008614344522357" lon="-8.881707172840834">
        <ele>8.83984375</ele>
      </trkpt>
      <trkpt lat="42.008665138855577" lon="-8.881734497845173">
        <ele>8.80859375</ele>
      </trkpt>
      <trkpt lat="42.008731523528695" lon="-8.881773222237825">
        <ele>8.8125</ele>
      </trkpt>
      <trkpt lat="42.008781479671597" lon="-8.881805408746004">
        <ele>8.7890625</ele>
      </trkpt>
      <trkpt lat="42.008832525461912" lon="-8.881839187815785">
        <ele>8.74609375</ele>
      </trkpt>
      <trkpt lat="42.008885499089956" lon="-8.881868105381727">
        <ele>8.734375</ele>
      </trkpt>
      <trkpt lat="42.008938388898969" lon="-8.881884030997753">
        <ele>8.80078125</ele>
      </trkpt>
      <trkpt lat="42.008990775793791" lon="-8.881903560832143">
        <ele>8.8359375</ele>
      </trkpt>
      <trkpt lat="42.00904400087893" lon="-8.88192443177104">
        <ele>8.85546875</ele>
      </trkpt>
      <trkpt lat="42.009110553190112" lon="-8.881948571652174">
        <ele>8.890625</ele>
      </trkpt>
      <trkpt lat="42.009174842387438" lon="-8.881968772038817">
        <ele>8.91015625</ele>
      </trkpt>
      <trkpt lat="42.009233767166734" lon="-8.881993582472205">
        <ele>8.8671875</ele>
      </trkpt>
      <trkpt lat="42.009286656975746" lon="-8.882016381248832">
        <ele>8.8125</ele>
      </trkpt>
      <trkpt lat="42.009340217337012" lon="-8.882034737616777">
        <ele>8.78515625</ele>
      </trkpt>
      <trkpt lat="42.009399142116308" lon="-8.882056949660182">
        <ele>8.7265625</ele>
      </trkpt>
      <trkpt lat="42.009456725791097" lon="-8.882080335170031">
        <ele>8.6484375</ele>
      </trkpt>
      <trkpt lat="42.00951405800879" lon="-8.882094249129295">
        <ele>8.64453125</ele>
      </trkpt>
      <trkpt lat="42.009574407711625" lon="-8.882106235250831">
        <ele>8.66796875</ele>
      </trkpt>
      <trkpt lat="42.009631739929318" lon="-8.882106235250831">
        <ele>8.80859375</ele>
      </trkpt>
      <trkpt lat="42.009696280583739" lon="-8.882103301584721">
        <ele>9</ele>
      </trkpt>
      <trkpt lat="42.009757217019796" lon="-8.88210179284215">
        <ele>9.16796875</ele>
      </trkpt>
      <trkpt lat="42.009817818179727" lon="-8.882100451737642">
        <ele>9.3359375</ele>
      </trkpt>
      <trkpt lat="42.009876910597086" lon="-8.882100535556674">
        <ele>9.4921875</ele>
      </trkpt>
      <trkpt lat="42.00993767939508" lon="-8.882100535556674">
        <ele>9.6484375</ele>
      </trkpt>
      <trkpt lat="42.010001298040152" lon="-8.882097601890564">
        <ele>9.83984375</ele>
      </trkpt>
      <trkpt lat="42.010059049353004" lon="-8.8820905610919">
        <ele>10.0625</ele>
      </trkpt>
      <trkpt lat="42.010114202275872" lon="-8.882079077884555">
        <ele>10.3515625</ele>
      </trkpt>
      <trkpt lat="42.010161811485887" lon="-8.882068349048495">
        <ele>10.60546875</ele>
      </trkpt>
      <trkpt lat="42.010362725704908" lon="-8.88206516392529">
        <ele>11.26953125</ele>
      </trkpt>
      <trkpt lat="42.010419806465507" lon="-8.882063822820783">
        <ele>11.4609375</ele>
      </trkpt>
      <trkpt lat="42.010477390140295" lon="-8.882056782022119">
        <ele>11.6953125</ele>
      </trkpt>
      <trkpt lat="42.010533465072513" lon="-8.882051166146994">
        <ele>11.91015625</ele>
      </trkpt>
      <trkpt lat="42.010587612167001" lon="-8.882047142833471">
        <ele>12.1171875</ele>
      </trkpt>
      <trkpt lat="42.010641759261489" lon="-8.882040018215775">
        <ele>12.33984375</ele>
      </trkpt>
      <trkpt lat="42.010699510574341" lon="-8.882035743445158">
        <ele>12.55859375</ele>
      </trkpt>
      <trkpt lat="42.010756758973002" lon="-8.88203289359808">
        <ele>12.76171875</ele>
      </trkpt>
      <trkpt lat="42.01082113198936" lon="-8.882031468674541">
        <ele>12.9765625</ele>
      </trkpt>
      <trkpt lat="42.010875195264816" lon="-8.882036413997412">
        <ele>13.1171875</ele>
      </trkpt>
      <trkpt lat="42.01093059964478" lon="-8.882054602727294">
        <ele>13.17578125</ele>
      </trkpt>
      <trkpt lat="42.010983740910888" lon="-8.882061224430799">
        <ele>13.3125</ele>
      </trkpt>
      <trkpt lat="42.011043168604374" lon="-8.882056195288897">
        <ele>13.625</ele>
      </trkpt>
      <trkpt lat="42.011097818613052" lon="-8.882052507251501">
        <ele>13.91015625</ele>
      </trkpt>
      <trkpt lat="42.011152468621731" lon="-8.882034737616777">
        <ele>14.29296875</ele>
      </trkpt>
      <trkpt lat="42.011204184964299" lon="-8.882003305479884">
        <ele>14.765625</ele>
      </trkpt>
      <trkpt lat="42.01125212945044" lon="-8.881965251639485">
        <ele>15.28125</ele>
      </trkpt>
      <trkpt lat="42.011302839964628" lon="-8.881922084838152">
        <ele>15.85546875</ele>
      </trkpt>
      <trkpt lat="42.011355729773641" lon="-8.88188386335969">
        <ele>16.41796875</ele>
      </trkpt>
      <trkpt lat="42.011409541592002" lon="-8.881853772327304">
        <ele>16.93359375</ele>
      </trkpt>
      <trkpt lat="42.011467879638076" lon="-8.881822926923633">
        <ele>17.44140625</ele>
      </trkpt>
      <trkpt lat="42.011518003419042" lon="-8.881781939417124">
        <ele>17.953125</ele>
      </trkpt>
      <trkpt lat="42.011570390313864" lon="-8.881734749302268">
        <ele>18.53125</ele>
      </trkpt>
      <trkpt lat="42.011617245152593" lon="-8.881700215861201">
        <ele>18.98828125</ele>
      </trkpt>
      <trkpt lat="42.011664602905512" lon="-8.881659982725978">
        <ele>19.50390625</ele>
      </trkpt>
      <trkpt lat="42.011711206287146" lon="-8.881656462326646">
        <ele>19.71484375</ele>
      </trkpt>
      <trkpt lat="42.011871384456754" lon="-8.88172603212297">
        <ele>19.74609375</ele>
      </trkpt>
      <trkpt lat="42.011921340599656" lon="-8.881752854213119">
        <ele>19.65234375</ele>
      </trkpt>
      <trkpt lat="42.011976074427366" lon="-8.881788309663534">
        <ele>19.3984375</ele>
      </trkpt>
      <trkpt lat="42.012024773284793" lon="-8.881822424009442">
        <ele>19.15625</ele>
      </trkpt>
      <trkpt lat="42.012076824903488" lon="-8.881846060976386">
        <ele>19.0078125</ele>
      </trkpt>
      <trkpt lat="42.012131055817008" lon="-8.881867686286569">
        <ele>18.8828125</ele>
      </trkpt>
      <trkpt lat="42.012188220396638" lon="-8.881885288283229">
        <ele>18.796875</ele>
      </trkpt>
      <trkpt lat="42.012241529300809" lon="-8.881902052089572">
        <ele>18.71484375</ele>
      </trkpt>
      <trkpt lat="42.012297436594963" lon="-8.881919654086232">
        <ele>18.6328125</ele>
      </trkpt>
      <trkpt lat="42.012350661680102" lon="-8.881938848644495">
        <ele>18.5390625</ele>
      </trkpt>
      <trkpt lat="42.012402880936861" lon="-8.881967766210437">
        <ele>18.328125</ele>
      </trkpt>
      <trkpt lat="42.012462727725506" lon="-8.881985954940319">
        <ele>18.18359375</ele>
      </trkpt>
      <trkpt lat="42.012517377734184" lon="-8.88199869543314">
        <ele>18.08203125</ele>
      </trkpt>
      <trkpt lat="42.012574709951878" lon="-8.882012106478214">
        <ele>17.9765625</ele>
      </trkpt>
      <trkpt lat="42.012633802369237" lon="-8.88202459551394">
        <ele>17.87890625</ele>
      </trkpt>
      <trkpt lat="42.012694822624326" lon="-8.882041862234473">
        <ele>17.7421875</ele>
      </trkpt>
      <trkpt lat="42.012750646099448" lon="-8.882054183632135">
        <ele>17.64453125</ele>
      </trkpt>
      <trkpt lat="42.012804206460714" lon="-8.882065583020449">
        <ele>17.5546875</ele>
      </trkpt>
      <trkpt lat="42.012858688831329" lon="-8.882076060399413">
        <ele>17.44921875</ele>
      </trkpt>
      <trkpt lat="42.012920631095767" lon="-8.882094165310264">
        <ele>17.265625</ele>
      </trkpt>
      <trkpt lat="42.012974778190255" lon="-8.882106402888894">
        <ele>17.12890625</ele>
      </trkpt>
      <trkpt lat="42.013038983568549" lon="-8.882119227200747">
        <ele>16.98828125</ele>
      </trkpt>
      <trkpt lat="42.013099584728479" lon="-8.882130794227123">
        <ele>16.86328125</ele>
      </trkpt>
      <trkpt lat="42.013154570013285" lon="-8.882143283262849">
        <ele>16.73828125</ele>
      </trkpt>
      <trkpt lat="42.013208717107773" lon="-8.882157867774367">
        <ele>16.6015625</ele>
      </trkpt>
      <trkpt lat="42.013267558068037" lon="-8.882175805047154">
        <ele>16.4453125</ele>
      </trkpt>
      <trkpt lat="42.01333612203598" lon="-8.882199106737971">
        <ele>16.484375</ele>
      </trkpt>
      <trkpt lat="42.013391777873039" lon="-8.88221955858171">
        <ele>16.6015625</ele>
      </trkpt>
      <trkpt lat="42.013449193909764" lon="-8.882242608815432">
        <ele>16.71875</ele>
      </trkpt>
      <trkpt lat="42.013506526127458" lon="-8.882272029295564">
        <ele>16.7890625</ele>
      </trkpt>
      <trkpt lat="42.013556146994233" lon="-8.882302790880203">
        <ele>16.8203125</ele>
      </trkpt>
      <trkpt lat="42.013602331280708" lon="-8.882352160289884">
        <ele>16.7109375</ele>
      </trkpt>
      <trkpt lat="42.013646336272359" lon="-8.88241401873529">
        <ele>16.51171875</ele>
      </trkpt>
      <trkpt lat="42.013676511123776" lon="-8.882479229941964">
        <ele>16.23046875</ele>
      </trkpt>
      <trkpt lat="42.013704841956496" lon="-8.882553074508905">
        <ele>15.88671875</ele>
      </trkpt>
      <trkpt lat="42.013733005151153" lon="-8.882616860792041">
        <ele>15.65625</ele>
      </trkpt>
      <trkpt lat="42.013759994879365" lon="-8.882683077827096">
        <ele>15.40234375</ele>
      </trkpt>
      <trkpt lat="42.013794612139463" lon="-8.882739152759314">
        <ele>15.2421875</ele>
      </trkpt>
      <trkpt lat="42.013844735920429" lon="-8.882785085588694">
        <ele>15.21484375</ele>
      </trkpt>
      <trkpt lat="42.013893937692046" lon="-8.882818948477507">
        <ele>15.25</ele>
      </trkpt>
      <trkpt lat="42.013943893834949" lon="-8.882848117500544">
        <ele>15.31640625</ele>
      </trkpt>
      <trkpt lat="42.013946576043963" lon="-8.882850296795368">
        <ele>15.31640625</ele>
      </trkpt>
      <trkpt lat="42.01405780389905" lon="-8.882910897955298">
        <ele>15.46875</ele>
      </trkpt>
      <trkpt lat="42.014110861346126" lon="-8.882930343970656">
        <ele>15.59375</ele>
      </trkpt>
      <trkpt lat="42.014170037582517" lon="-8.882950628176332">
        <ele>15.7421875</ele>
      </trkpt>
      <trkpt lat="42.014227202162147" lon="-8.882971247658134">
        <ele>15.8359375</ele>
      </trkpt>
      <trkpt lat="42.01428109779954" lon="-8.883009385317564">
        <ele>15.65625</ele>
      </trkpt>
      <trkpt lat="42.014325018972158" lon="-8.88305171392858">
        <ele>15.421875</ele>
      </trkpt>
      <trkpt lat="42.014374639838934" lon="-8.883091192692518">
        <ele>15.2265625</ele>
      </trkpt>
      <trkpt lat="42.014423590153456" lon="-8.883136790245771">
        <ele>14.99609375</ele>
      </trkpt>
      <trkpt lat="42.014475055038929" lon="-8.883177023380995">
        <ele>14.8203125</ele>
      </trkpt>
      <trkpt lat="42.014522161334753" lon="-8.883224884048104">
        <ele>14.6015625</ele>
      </trkpt>
      <trkpt lat="42.014558706432581" lon="-8.883289340883493">
        <ele>14.265625</ele>
      </trkpt>
      <trkpt lat="42.01459089294076" lon="-8.883346924558282">
        <ele>13.9765625</ele>
      </trkpt>
      <trkpt lat="42.014623833820224" lon="-8.88340886682272">
        <ele>13.67578125</ele>
      </trkpt>
      <trkpt lat="42.014670521020889" lon="-8.883453877642751">
        <ele>13.5234375</ele>
      </trkpt>
      <trkpt lat="42.014713352546096" lon="-8.883498385548592">
        <ele>13.296875</ele>
      </trkpt>
      <trkpt lat="42.014765990898013" lon="-8.883529482409358">
        <ele>13.140625</ele>
      </trkpt>
      <trkpt lat="42.014823574572802" lon="-8.88354373164475">
        <ele>13.11328125</ele>
      </trkpt>
      <trkpt lat="42.014879649505019" lon="-8.883554041385651">
        <ele>13.11328125</ele>
      </trkpt>
      <trkpt lat="42.014933628961444" lon="-8.883569296449423">
        <ele>13.0703125</ele>
      </trkpt>
      <trkpt lat="42.0149876922369" lon="-8.883583713322878">
        <ele>13.0390625</ele>
      </trkpt>
      <trkpt lat="42.015046365559101" lon="-8.883599974215031">
        <ele>13</ele>
      </trkpt>
      <trkpt lat="42.015102105215192" lon="-8.883618414402008">
        <ele>12.9375</ele>
      </trkpt>
      <trkpt lat="42.015167316421866" lon="-8.883632076904178">
        <ele>12.890625</ele>
      </trkpt>
      <trkpt lat="42.015227917581797" lon="-8.88365076854825">
        <ele>12.75390625</ele>
      </trkpt>
      <trkpt lat="42.01528768055141" lon="-8.883667448535562">
        <ele>12.6328125</ele>
      </trkpt>
      <trkpt lat="42.015344677492976" lon="-8.883689576759934">
        <ele>12.47265625</ele>
      </trkpt>
      <trkpt lat="42.015403769910336" lon="-8.883715225383639">
        <ele>12.2890625</ele>
      </trkpt>
      <trkpt lat="42.015456324443221" lon="-8.883732492104173">
        <ele>12.1640625</ele>
      </trkpt>
      <trkpt lat="42.015511812642217" lon="-8.883751770481467">
        <ele>12.0234375</ele>
      </trkpt>
      <trkpt lat="42.015567133203149" lon="-8.883766438812017">
        <ele>11.91796875</ele>
      </trkpt>
      <trkpt lat="42.015625387430191" lon="-8.883780436590314">
        <ele>11.81640625</ele>
      </trkpt>
      <trkpt lat="42.015698812901974" lon="-8.883786220103502">
        <ele>11.7734375</ele>
      </trkpt>
      <trkpt lat="42.015759162604809" lon="-8.883790746331215">
        <ele>11.7421875</ele>
      </trkpt>
      <trkpt lat="42.015819596126676" lon="-8.883795188739896">
        <ele>11.7109375</ele>
      </trkpt>
      <trkpt lat="42.015879526734352" lon="-8.883799379691482">
        <ele>11.6796875</ele>
      </trkpt>
      <trkpt lat="42.015945073217154" lon="-8.88379929587245">
        <ele>11.6796875</ele>
      </trkpt>
      <trkpt lat="42.016004165634513" lon="-8.883786890655756">
        <ele>11.76953125</ele>
      </trkpt>
      <trkpt lat="42.016058312729001" lon="-8.883771887049079">
        <ele>11.87890625</ele>
      </trkpt>
      <trkpt lat="42.016112208366394" lon="-8.883757386356592">
        <ele>11.984375</ele>
      </trkpt>
      <trkpt lat="42.016169792041183" lon="-8.883750177919865">
        <ele>12.03515625</ele>
      </trkpt>
      <trkpt lat="42.016231147572398" lon="-8.883754536509514">
        <ele>12.00390625</ele>
      </trkpt>
      <trkpt lat="42.016258388757706" lon="-8.88376266695559">
        <ele>11.9453125</ele>
      </trkpt>
      <trkpt lat="42.016510600224137" lon="-8.883865177631378">
        <ele>11.203125</ele>
      </trkpt>
      <trkpt lat="42.016562819480896" lon="-8.883892418816686">
        <ele>10.984375</ele>
      </trkpt>
      <trkpt lat="42.016617469489574" lon="-8.883920079097152">
        <ele>10.74609375</ele>
      </trkpt>
      <trkpt lat="42.016668263822794" lon="-8.883946985006332">
        <ele>10.51171875</ele>
      </trkpt>
      <trkpt lat="42.016724422574043" lon="-8.883979003876448">
        <ele>10.22265625</ele>
      </trkpt>
      <trkpt lat="42.016776222735643" lon="-8.884006747975945">
        <ele>9.96875</ele>
      </trkpt>
      <trkpt lat="42.016834476962686" lon="-8.884023511782289">
        <ele>9.796875</ele>
      </trkpt>
      <trkpt lat="42.016888540238142" lon="-8.884032228961587">
        <ele>9.6953125</ele>
      </trkpt>
      <trkpt lat="42.016947129741311" lon="-8.884043544530869">
        <ele>9.56640625</ele>
      </trkpt>
      <trkpt lat="42.017010077834129" lon="-8.884044717997313">
        <ele>9.50390625</ele>
      </trkpt>
      <trkpt lat="42.01707067899406" lon="-8.884039018303156">
        <ele>9.46875</ele>
      </trkpt>
      <trkpt lat="42.017129436135292" lon="-8.88402602635324">
        <ele>9.4921875</ele>
      </trkpt>
      <trkpt lat="42.017191546037793" lon="-8.884015716612339">
        <ele>9.4921875</ele>
      </trkpt>
      <trkpt lat="42.017251392826438" lon="-8.884004820138216">
        <ele>9.5</ele>
      </trkpt>
      <trkpt lat="42.017310904338956" lon="-8.883984871208668">
        <ele>9.58203125</ele>
      </trkpt>
      <trkpt lat="42.017366643995047" lon="-8.883970370516181">
        <ele>9.62109375</ele>
      </trkpt>
      <trkpt lat="42.017424562945962" lon="-8.883956456556916">
        <ele>9.65625</ele>
      </trkpt>
      <trkpt lat="42.017478290945292" lon="-8.883944721892476">
        <ele>9.69140625</ele>
      </trkpt>
      <trkpt lat="42.017538975924253" lon="-8.883929885923862">
        <ele>9.765625</ele>
      </trkpt>
      <trkpt lat="42.017592871561646" lon="-8.883918486535549">
        <ele>9.82421875</ele>
      </trkpt>
      <trkpt lat="42.017653472721577" lon="-8.883913289755583">
        <ele>9.83203125</ele>
      </trkpt>
      <trkpt lat="42.017714828252792" lon="-8.883914714679122">
        <ele>9.78515625</ele>
      </trkpt>
      <trkpt lat="42.017770316451788" lon="-8.883921420201659">
        <ele>9.6953125</ele>
      </trkpt>
      <trkpt lat="42.017829408869147" lon="-8.883921420201659">
        <ele>9.66015625</ele>
      </trkpt>
      <trkpt lat="42.017891434952617" lon="-8.88391999527812">
        <ele>9.640625</ele>
      </trkpt>
      <trkpt lat="42.017950024455786" lon="-8.883910523727536">
        <ele>9.71484375</ele>
      </trkpt>
      <trkpt lat="42.018008781597018" lon="-8.883892418816686">
        <ele>9.89453125</ele>
      </trkpt>
      <trkpt lat="42.018062844872475" lon="-8.883874397724867">
        <ele>10.0859375</ele>
      </trkpt>
      <trkpt lat="42.018121853470802" lon="-8.883854448795319">
        <ele>10.30078125</ele>
      </trkpt>
      <trkpt lat="42.018180945888162" lon="-8.883837517350912">
        <ele>10.5</ele>
      </trkpt>
      <trkpt lat="42.018235009163618" lon="-8.883824022486806">
        <ele>10.6640625</ele>
      </trkpt>
      <trkpt lat="42.018289240077138" lon="-8.883809773251414">
        <ele>10.84375</ele>
      </trkpt>
      <trkpt lat="42.018344728276134" lon="-8.88379636220634">
        <ele>11.0234375</ele>
      </trkpt>
      <trkpt lat="42.018400384113193" lon="-8.883787812665105">
        <ele>11.1953125</ele>
      </trkpt>
      <trkpt lat="42.018462494015694" lon="-8.883782029151917">
        <ele>11.421875</ele>
      </trkpt>
      <trkpt lat="42.018518652766943" lon="-8.883775994181633">
        <ele>11.6328125</ele>
      </trkpt>
      <trkpt lat="42.018574140965939" lon="-8.883774653077126">
        <ele>11.79296875</ele>
      </trkpt>
      <trkpt lat="42.018630299717188" lon="-8.883776078000665">
        <ele>11.921875</ele>
      </trkpt>
      <trkpt lat="42.018686458468437" lon="-8.883778927847743">
        <ele>12.0390625</ele>
      </trkpt>
      <trkpt lat="42.018750496208668" lon="-8.883784962818027">
        <ele>12.1484375</ele>
      </trkpt>
      <trkpt lat="42.018807912245393" lon="-8.883791165426373">
        <ele>12.2421875</ele>
      </trkpt>
      <trkpt lat="42.018866334110498" lon="-8.883796781301498">
        <ele>12.33984375</ele>
      </trkpt>
      <trkpt lat="42.018928695470095" lon="-8.883803654462099">
        <ele>12.4296875</ele>
      </trkpt>
      <trkpt lat="42.018990553915501" lon="-8.88382175937295">
        <ele>12.41796875</ele>
      </trkpt>
      <trkpt lat="42.019048137590289" lon="-8.883834583684802">
        <ele>12.4453125</ele>
      </trkpt>
      <trkpt lat="42.019104296341538" lon="-8.883848916739225">
        <ele>12.45703125</ele>
      </trkpt>
      <trkpt lat="42.019157521426678" lon="-8.883862243965268">
        <ele>12.4765625</ele>
      </trkpt>
      <trkpt lat="42.019216865301132" lon="-8.883875906467438">
        <ele>12.50390625</ele>
      </trkpt>
      <trkpt lat="42.019270844757557" lon="-8.883886048570275">
        <ele>12.5546875</ele>
      </trkpt>
      <trkpt lat="42.019331445917487" lon="-8.883890239521861">
        <ele>12.6796875</ele>
      </trkpt>
      <trkpt lat="42.019385509192944" lon="-8.883895520120859">
        <ele>12.78515625</ele>
      </trkpt>
      <trkpt lat="42.019447702914476" lon="-8.88389996252954">
        <ele>12.9140625</ele>
      </trkpt>
      <trkpt lat="42.019503694027662" lon="-8.883904237300158">
        <ele>13.03125</ele>
      </trkpt>
      <trkpt lat="42.019563456997275" lon="-8.883899124339223">
        <ele>13.2421875</ele>
      </trkpt>
      <trkpt lat="42.019623136147857" lon="-8.883885378018022">
        <ele>13.53515625</ele>
      </trkpt>
      <trkpt lat="42.019676109775901" lon="-8.883859142661095">
        <ele>13.9375</ele>
      </trkpt>
      <trkpt lat="42.019694717600942" lon="-8.883849587291479">
        <ele>14.08203125</ele>
      </trkpt>
      <trkpt lat="42.019848776981235" lon="-8.883823016658425">
        <ele>14.67578125</ele>
      </trkpt>
      <trkpt lat="42.019902253523469" lon="-8.883818238973618">
        <ele>14.8046875</ele>
      </trkpt>
      <trkpt lat="42.019961848855019" lon="-8.883818238973618">
        <ele>14.890625</ele>
      </trkpt>
      <trkpt lat="42.020021360367537" lon="-8.883819747716188">
        <ele>14.96484375</ele>
      </trkpt>
      <trkpt lat="42.020076094195247" lon="-8.883822513744235">
        <ele>15.01953125</ele>
      </trkpt>
      <trkpt lat="42.020131917670369" lon="-8.883826369419694">
        <ele>15.05859375</ele>
      </trkpt>
      <trkpt lat="42.020190004259348" lon="-8.883826369419694">
        <ele>15.14453125</ele>
      </trkpt>
      <trkpt lat="42.020244486629963" lon="-8.883821256458759">
        <ele>15.2578125</ele>
      </trkpt>
      <trkpt lat="42.020307518541813" lon="-8.883818658068776">
        <ele>15.26171875</ele>
      </trkpt>
      <trkpt lat="42.020364599302411" lon="-8.883817065507174">
        <ele>15.26171875</ele>
      </trkpt>
      <trkpt lat="42.020424529910088" lon="-8.883815305307508">
        <ele>15.265625</ele>
      </trkpt>
      <trkpt lat="42.020481610670686" lon="-8.883815305307508">
        <ele>15.24609375</ele>
      </trkpt>
      <trkpt lat="42.020538691431284" lon="-8.883816730231047">
        <ele>15.2109375</ele>
      </trkpt>
      <trkpt lat="42.0206000469625" lon="-8.883818155154586">
        <ele>15.17578125</ele>
      </trkpt>
      <trkpt lat="42.020656960085034" lon="-8.88381983153522">
        <ele>15.140625</ele>
      </trkpt>
      <trkpt lat="42.020712029188871" lon="-8.883821507915854">
        <ele>15.11328125</ele>
      </trkpt>
      <trkpt lat="42.020766260102391" lon="-8.883826117962599">
        <ele>15.078125</ele>
      </trkpt>
      <trkpt lat="42.020831806585193" lon="-8.883830476552248">
        <ele>15.05078125</ele>
      </trkpt>
      <trkpt lat="42.020889222621918" lon="-8.883831817656755">
        <ele>15.0546875</ele>
      </trkpt>
      <trkpt lat="42.020944375544786" lon="-8.883831817656755">
        <ele>15.07421875</ele>
      </trkpt>
      <trkpt lat="42.021000869572163" lon="-8.883840031921864">
        <ele>15.00390625</ele>
      </trkpt>
      <trkpt lat="42.021056190133095" lon="-8.88385352678597">
        <ele>14.87890625</ele>
      </trkpt>
      <trkpt lat="42.021108325570822" lon="-8.883884707465768">
        <ele>14.56640625</ele>
      </trkpt>
      <trkpt lat="42.021164065226912" lon="-8.883910607546568">
        <ele>14.31640625</ele>
      </trkpt>
      <trkpt lat="42.021214189007878" lon="-8.883941620588303">
        <ele>13.9921875</ele>
      </trkpt>
      <trkpt lat="42.0212665759027" lon="-8.883974645286798">
        <ele>13.65625</ele>
      </trkpt>
      <trkpt lat="42.021320890635252" lon="-8.883996186777949">
        <ele>13.44140625</ele>
      </trkpt>
      <trkpt lat="42.021377887576818" lon="-8.884015548974276">
        <ele>13.26171875</ele>
      </trkpt>
      <trkpt lat="42.021443266421556" lon="-8.884033905342221">
        <ele>13.09765625</ele>
      </trkpt>
      <trkpt lat="42.021499173715711" lon="-8.884049244225025">
        <ele>12.96484375</ele>
      </trkpt>
      <trkpt lat="42.021556254476309" lon="-8.884059553965926">
        <ele>12.88671875</ele>
      </trkpt>
      <trkpt lat="42.021610150113702" lon="-8.884065086022019">
        <ele>12.8515625</ele>
      </trkpt>
      <trkpt lat="42.021669158712029" lon="-8.884057207033038">
        <ele>13.00390625</ele>
      </trkpt>
      <trkpt lat="42.021727580577135" lon="-8.884055865928531">
        <ele>13.1015625</ele>
      </trkpt>
      <trkpt lat="42.021782984957099" lon="-8.884058380499482">
        <ele>13.1640625</ele>
      </trkpt>
      <trkpt lat="42.021837299689651" lon="-8.884059637784958">
        <ele>13.23046875</ele>
      </trkpt>
      <trkpt lat="42.02189588919282" lon="-8.884073803201318">
        <ele>13.1953125</ele>
      </trkpt>
      <trkpt lat="42.021953891962767" lon="-8.884087465703487">
        <ele>13.1640625</ele>
      </trkpt>
      <trkpt lat="42.022007117047906" lon="-8.884100122377276">
        <ele>13.1328125</ele>
      </trkpt>
      <trkpt lat="42.022064700722694" lon="-8.884113030508161">
        <ele>13.11328125</ele>
      </trkpt>
      <trkpt lat="42.022118931636214" lon="-8.884127782657743">
        <ele>13.0625</ele>
      </trkpt>
      <trkpt lat="42.022172575816512" lon="-8.88414571993053">
        <ele>12.98046875</ele>
      </trkpt>
      <trkpt lat="42.022228231653571" lon="-8.884167680516839">
        <ele>12.86328125</ele>
      </trkpt>
      <trkpt lat="42.022241977974772" lon="-8.884171368554235">
        <ele>12.8515625</ele>
      </trkpt>
      <trkpt lat="42.022426798939705" lon="-8.884259713813663">
        <ele>12.3359375</ele>
      </trkpt>
      <trkpt lat="42.022485975176096" lon="-8.884262312203646">
        <ele>12.39453125</ele>
      </trkpt>
      <trkpt lat="42.022543726488948" lon="-8.884266670793295">
        <ele>12.43359375</ele>
      </trkpt>
      <trkpt lat="42.02260248363018" lon="-8.884268095716834">
        <ele>12.421875</ele>
      </trkpt>
      <trkpt lat="42.022658726200461" lon="-8.884268095716834">
        <ele>12.421875</ele>
      </trkpt>
      <trkpt lat="42.022720668464899" lon="-8.884266838431358">
        <ele>12.4296875</ele>
      </trkpt>
      <trkpt lat="42.022779677063227" lon="-8.884265413507819">
        <ele>12.44140625</ele>
      </trkpt>
      <trkpt lat="42.022838685661554" lon="-8.884264072403312">
        <ele>12.453125</ele>
      </trkpt>
      <trkpt lat="42.022897358983755" lon="-8.884262396022677">
        <ele>12.46875</ele>
      </trkpt>
      <trkpt lat="42.022954439744353" lon="-8.884257702156901">
        <ele>12.5078125</ele>
      </trkpt>
      <trkpt lat="42.023016884922981" lon="-8.884254349395633">
        <ele>12.53515625</ele>
      </trkpt>
      <trkpt lat="42.023079246282578" lon="-8.884249990805984">
        <ele>12.54296875</ele>
      </trkpt>
      <trkpt lat="42.023133477196097" lon="-8.88424345292151">
        <ele>12.578125</ele>
      </trkpt>
      <trkpt lat="42.023193659260869" lon="-8.884237920865417">
        <ele>12.59765625</ele>
      </trkpt>
      <trkpt lat="42.023261049762368" lon="-8.88422635383904">
        <ele>12.671875</ele>
      </trkpt>
      <trkpt lat="42.023315280675888" lon="-8.884217469021678">
        <ele>12.73046875</ele>
      </trkpt>
      <trkpt lat="42.023377390578389" lon="-8.884210344403982">
        <ele>12.7734375</ele>
      </trkpt>
      <trkpt lat="42.023437907919288" lon="-8.884203219786286">
        <ele>12.8125</ele>
      </trkpt>
      <trkpt lat="42.023492641746998" lon="-8.884193664416671">
        <ele>12.8984375</ele>
      </trkpt>
      <trkpt lat="42.02354796230793" lon="-8.884182097390294">
        <ele>13.02734375</ele>
      </trkpt>
      <trkpt lat="42.023601606488228" lon="-8.884162651374936">
        <ele>13.21484375</ele>
      </trkpt>
      <trkpt lat="42.023652400821447" lon="-8.884130297228694">
        <ele>13.50390625</ele>
      </trkpt>
      <trkpt lat="42.023705374449492" lon="-8.884104480966926">
        <ele>13.72265625</ele>
      </trkpt>
      <trkpt lat="42.023761784657836" lon="-8.884087717160583">
        <ele>13.859375</ele>
      </trkpt>
      <trkpt lat="42.023820206522942" lon="-8.884085034951568">
        <ele>13.87890625</ele>
      </trkpt>
      <trkpt lat="42.02387779019773" lon="-8.884087884798646">
        <ele>13.85546875</ele>
      </trkpt>
      <trkpt lat="42.02393202111125" lon="-8.884093835949898">
        <ele>13.8125</ele>
      </trkpt>
      <trkpt lat="42.023988598957658" lon="-8.884095093235373">
        <ele>13.83984375</ele>
      </trkpt>
      <trkpt lat="42.024052552878857" lon="-8.884092327207327">
        <ele>13.90234375</ele>
      </trkpt>
      <trkpt lat="42.024113405495882" lon="-8.884087298065424">
        <ele>13.9765625</ele>
      </trkpt>
      <trkpt lat="42.024172078818083" lon="-8.884084112942219">
        <ele>14.0390625</ele>
      </trkpt>
      <trkpt lat="42.024231925606728" lon="-8.884078161790967">
        <ele>14.12109375</ele>
      </trkpt>
      <trkpt lat="42.024287497624755" lon="-8.884074222296476">
        <ele>14.1875</ele>
      </trkpt>
      <trkpt lat="42.024345081299543" lon="-8.884065756574273">
        <ele>14.28515625</ele>
      </trkpt>
      <trkpt lat="42.024410627782345" lon="-8.884055111557245">
        <ele>14.40625</ele>
      </trkpt>
      <trkpt lat="42.024466535076499" lon="-8.884049076586962">
        <ele>14.48828125</ele>
      </trkpt>
      <trkpt lat="42.024521520361304" lon="-8.884045891463757">
        <ele>14.546875</ele>
      </trkpt>
      <trkpt lat="42.024580864235759" lon="-8.884045891463757">
        <ele>14.5859375</ele>
      </trkpt>
      <trkpt lat="42.02463517896831" lon="-8.884045891463757">
        <ele>14.62109375</ele>
      </trkpt>
      <trkpt lat="42.02469770796597" lon="-8.884045891463757">
        <ele>14.6640625</ele>
      </trkpt>
      <trkpt lat="42.02476023696363" lon="-8.884049076586962">
        <ele>14.6796875</ele>
      </trkpt>
      <trkpt lat="42.024815892800689" lon="-8.884058380499482">
        <ele>14.6484375</ele>
      </trkpt>
      <trkpt lat="42.024875488132238" lon="-8.884072043001652">
        <ele>14.625</ele>
      </trkpt>
      <trkpt lat="42.024931982159615" lon="-8.884085370227695">
        <ele>14.6796875</ele>
      </trkpt>
      <trkpt lat="42.024946734309196" lon="-8.884087717160583">
        <ele>14.69921875</ele>
      </trkpt>
      <trkpt lat="42.025060728192329" lon="-8.884129542857409">
        <ele>14.69921875</ele>
      </trkpt>
      <trkpt lat="42.025118647143245" lon="-8.884142534807324">
        <ele>14.7578125</ele>
      </trkpt>
      <trkpt lat="42.025179918855429" lon="-8.884157873690128">
        <ele>14.80859375</ele>
      </trkpt>
      <trkpt lat="42.025231551378965" lon="-8.884178828448057">
        <ele>14.79296875</ele>
      </trkpt>
      <trkpt lat="42.025284273549914" lon="-8.884199028834701">
        <ele>14.78515625</ele>
      </trkpt>
      <trkpt lat="42.025344958528876" lon="-8.884219396859407">
        <ele>14.82421875</ele>
      </trkpt>
      <trkpt lat="42.025403883308172" lon="-8.884233813732862">
        <ele>14.9375</ele>
      </trkpt>
      <trkpt lat="42.025461299344897" lon="-8.884243536740541">
        <ele>15.08203125</ele>
      </trkpt>
      <trkpt lat="42.025517458096147" lon="-8.884250493720174">
        <ele>15.2421875</ele>
      </trkpt>
      <trkpt lat="42.025576131418347" lon="-8.884277231991291">
        <ele>15.27734375</ele>
      </trkpt>
      <trkpt lat="42.025622064247727" lon="-8.884324841201305">
        <ele>15.125</ele>
      </trkpt>
      <trkpt lat="42.025666320696473" lon="-8.884366750717163">
        <ele>15.01171875</ele>
      </trkpt>
      <trkpt lat="42.025715271010995" lon="-8.884419975802302">
        <ele>14.83984375</ele>
      </trkpt>
      <trkpt lat="42.025758353993297" lon="-8.884465489536524">
        <ele>14.6796875</ele>
      </trkpt>
      <trkpt lat="42.025805711746216" lon="-8.884516786783934">
        <ele>14.47265625</ele>
      </trkpt>
      <trkpt lat="42.025855416432023" lon="-8.884561043232679">
        <ele>14.2890625</ele>
      </trkpt>
      <trkpt lat="42.025908306241035" lon="-8.884599599987268">
        <ele>14.1484375</ele>
      </trkpt>
      <trkpt lat="42.025954071432352" lon="-8.884637905284762">
        <ele>13.9765625</ele>
      </trkpt>
      <trkpt lat="42.026006542146206" lon="-8.884675875306129">
        <ele>13.8125</ele>
      </trkpt>
      <trkpt lat="42.026059934869409" lon="-8.884714851155877">
        <ele>13.63671875</ele>
      </trkpt>
      <trkpt lat="42.026113159954548" lon="-8.884744355455041">
        <ele>13.51953125</ele>
      </trkpt>
      <trkpt lat="42.026169570162892" lon="-8.884771261364222">
        <ele>13.42578125</ele>
      </trkpt>
      <trkpt lat="42.026226650923491" lon="-8.884788863360882">
        <ele>13.40625</ele>
      </trkpt>
      <trkpt lat="42.026290688663721" lon="-8.884804202243686">
        <ele>13.38671875</ele>
      </trkpt>
      <trkpt lat="42.026352966204286" lon="-8.884817780926824">
        <ele>13.36328125</ele>
      </trkpt>
      <trkpt lat="42.02640937641263" lon="-8.884829264134169">
        <ele>13.33984375</ele>
      </trkpt>
      <trkpt lat="42.02646704390645" lon="-8.884840998798609">
        <ele>13.3125</ele>
      </trkpt>
      <trkpt lat="42.026527645066381" lon="-8.884846698492765">
        <ele>13.34375</ele>
      </trkpt>
      <trkpt lat="42.026588246226311" lon="-8.884849548339844">
        <ele>13.3984375</ele>
      </trkpt>
      <trkpt lat="42.026642393320799" lon="-8.884849548339844">
        <ele>13.4765625</ele>
      </trkpt>
      <trkpt lat="42.026701737195253" lon="-8.884849548339844">
        <ele>13.55859375</ele>
      </trkpt>
      <trkpt lat="42.026762757450342" lon="-8.884845022112131">
        <ele>13.3984375</ele>
      </trkpt>
      <trkpt lat="42.02679879963398" lon="-8.884837310761213">
        <ele>13.33203125</ele>
      </trkpt>
      <trkpt lat="42.027904288843274" lon="-8.884319895878434">
        <ele>13.87109375</ele>
      </trkpt>
      <trkpt lat="42.027906132861972" lon="-8.884318806231022">
        <ele>13.87109375</ele>
      </trkpt>
      <trkpt lat="42.029069624841213" lon="-8.883811365813017">
        <ele>12.52734375</ele>
      </trkpt>
      <trkpt lat="42.029069792479277" lon="-8.883811365813017">
        <ele>12.52734375</ele>
      </trkpt>
      <trkpt lat="42.030096324160695" lon="-8.883370896801353">
        <ele>12.12890625</ele>
      </trkpt>
      <trkpt lat="42.030096324160695" lon="-8.883369890972972">
        <ele>12.13671875</ele>
      </trkpt>
      <trkpt lat="42.031209859997034" lon="-8.882874185219407">
        <ele>14.734375</ele>
      </trkpt>
      <trkpt lat="42.032096413895488" lon="-8.882470764219761">
        <ele>14.83203125</ele>
      </trkpt>
      <trkpt lat="42.03249229118228" lon="-8.88232215307653">
        <ele>14.6796875</ele>
      </trkpt>
      <trkpt lat="42.032867716625333" lon="-8.882202627137303">
        <ele>15.15625</ele>
      </trkpt>
      <trkpt lat="42.032867716625333" lon="-8.88220195658505">
        <ele>15.1640625</ele>
      </trkpt>
      <trkpt lat="42.033009119331837" lon="-8.88214286416769">
        <ele>15.69140625</ele>
      </trkpt>
      <trkpt lat="42.033014316111803" lon="-8.882141020148993">
        <ele>15.70703125</ele>
      </trkpt>
      <trkpt lat="42.033169632777572" lon="-8.882108917459846">
        <ele>15.9453125</ele>
      </trkpt>
      <trkpt lat="42.033170219510794" lon="-8.882108917459846">
        <ele>15.9453125</ele>
      </trkpt>
      <trkpt lat="42.033378593623638" lon="-8.882046220824122">
        <ele>16.2734375</ele>
      </trkpt>
      <trkpt lat="42.033418407663703" lon="-8.882037168368697">
        <ele>16.30078125</ele>
      </trkpt>
      <trkpt lat="42.033457634970546" lon="-8.882025517523289">
        <ele>16.34765625</ele>
      </trkpt>
      <trkpt lat="42.033497616648674" lon="-8.88201386667788">
        <ele>16.39453125</ele>
      </trkpt>
      <trkpt lat="42.033538436517119" lon="-8.882003640756011">
        <ele>16.42578125</ele>
      </trkpt>
      <trkpt lat="42.033577999100089" lon="-8.881993498653173">
        <ele>16.45703125</ele>
      </trkpt>
      <trkpt lat="42.033618902787566" lon="-8.881982183083892">
        <ele>16.49609375</ele>
      </trkpt>
      <trkpt lat="42.033660309389234" lon="-8.881973382085562">
        <ele>16.5078125</ele>
      </trkpt>
      <trkpt lat="42.033700877800584" lon="-8.881965922191739">
        <ele>16.51171875</ele>
      </trkpt>
      <trkpt lat="42.03374027274549" lon="-8.881955109536648">
        <ele>16.546875</ele>
      </trkpt>
      <trkpt lat="42.033778075128794" lon="-8.881944045424461">
        <ele>16.58203125</ele>
      </trkpt>
      <trkpt lat="42.033813530579209" lon="-8.881925940513611">
        <ele>16.6796875</ele>
      </trkpt>
      <trkpt lat="42.033846639096737" lon="-8.88189802877605">
        <ele>16.859375</ele>
      </trkpt>
      <trkpt lat="42.033877233043313" lon="-8.881865171715617">
        <ele>17.08203125</ele>
      </trkpt>
      <trkpt lat="42.03388687223196" lon="-8.881814461201429">
        <ele>17.48046875</ele>
      </trkpt>
      <trkpt lat="42.033889554440975" lon="-8.881759475916624">
        <ele>17.9296875</ele>
      </trkpt>
      <trkpt lat="42.033898774534464" lon="-8.881709603592753">
        <ele>18.32421875</ele>
      </trkpt>
      <trkpt lat="42.033927859738469" lon="-8.881676495075226">
        <ele>18.5390625</ele>
      </trkpt>
      <trkpt lat="42.033963734284043" lon="-8.881658557802439">
        <ele>18.6171875</ele>
      </trkpt>
      <trkpt lat="42.034004218876362" lon="-8.881647409871221">
        <ele>18.62890625</ele>
      </trkpt>
      <trkpt lat="42.034043446183205" lon="-8.881633831188083">
        <ele>18.66015625</ele>
      </trkpt>
      <trkpt lat="42.034080410376191" lon="-8.881615810096264">
        <ele>18.73828125</ele>
      </trkpt>
      <trkpt lat="42.034115195274353" lon="-8.88159460388124">
        <ele>18.84765625</ele>
      </trkpt>
      <trkpt lat="42.034147884696722" lon="-8.881562920287251">
        <ele>19.02734375</ele>
      </trkpt>
      <trkpt lat="42.034177388995886" lon="-8.881531488150358">
        <ele>19.20703125</ele>
      </trkpt>
      <trkpt lat="42.034209072589874" lon="-8.881501983851194">
        <ele>19.359375</ele>
      </trkpt>
      <trkpt lat="42.03424452804029" lon="-8.881472228094935">
        <ele>19.49609375</ele>
      </trkpt>
      <trkpt lat="42.034278055652976" lon="-8.881444819271564">
        <ele>19.6171875</ele>
      </trkpt>
      <trkpt lat="42.034314097836614" lon="-8.881426127627492">
        <ele>19.65234375</ele>
      </trkpt>
      <trkpt lat="42.034347709268332" lon="-8.881402155384421">
        <ele>19.734375</ele>
      </trkpt>
      <trkpt lat="42.034386349841952" lon="-8.881378099322319">
        <ele>19.79296875</ele>
      </trkpt>
      <trkpt lat="42.034421721473336" lon="-8.881355887278914">
        <ele>19.84375</ele>
      </trkpt>
      <trkpt lat="42.03445659019053" lon="-8.881327137351036">
        <ele>19.9453125</ele>
      </trkpt>
      <trkpt lat="42.034481400623918" lon="-8.881287993863225">
        <ele>20.15234375</ele>
      </trkpt>
      <trkpt lat="42.034502271562815" lon="-8.881242563948035">
        <ele>20.4140625</ele>
      </trkpt>
      <trkpt lat="42.034519370645285" lon="-8.881194787099957">
        <ele>20.70703125</ele>
      </trkpt>
      <trkpt lat="42.034530350938439" lon="-8.881141897290945">
        <ele>21.06640625</ele>
      </trkpt>
      <trkpt lat="42.034540241584182" lon="-8.881089594215155">
        <ele>21.44140625</ele>
      </trkpt>
      <trkpt lat="42.034555664286017" lon="-8.881041733548045">
        <ele>21.7578125</ele>
      </trkpt>
      <trkpt lat="42.03456949442625" lon="-8.881014492362738">
        <ele>21.91796875</ele>
      </trkpt>
      <trkpt lat="42.034664126113057" lon="-8.880866635590792">
        <ele>22.671875</ele>
      </trkpt>
      <trkpt lat="42.034694133326411" lon="-8.880831599235535">
        <ele>22.8125</ele>
      </trkpt>
      <trkpt lat="42.03472631983459" lon="-8.880789941176772">
        <ele>22.98828125</ele>
      </trkpt>
      <trkpt lat="42.034757332876325" lon="-8.880752976983786">
        <ele>23.1328125</ele>
      </trkpt>
      <trkpt lat="42.034791950136423" lon="-8.88072825036943">
        <ele>23.1640625</ele>
      </trkpt>
      <trkpt lat="42.034829752519727" lon="-8.880707044154406">
        <ele>23.15234375</ele>
      </trkpt>
      <trkpt lat="42.034868057817221" lon="-8.880681982263923">
        <ele>23.1953125</ele>
      </trkpt>
      <trkpt lat="42.03490954823792" lon="-8.880661278963089">
        <ele>23.1953125</ele>
      </trkpt>
      <trkpt lat="42.03494668006897" lon="-8.880652142688632">
        <ele>23.10546875</ele>
      </trkpt>
      <trkpt lat="42.034988086670637" lon="-8.880646275356412">
        <ele>22.96875</ele>
      </trkpt>
      <trkpt lat="42.035026140511036" lon="-8.88064032420516">
        <ele>22.84765625</ele>
      </trkpt>
      <trkpt lat="42.035069474950433" lon="-8.880630936473608">
        <ele>22.8125</ele>
      </trkpt>
      <trkpt lat="42.0351108815521" lon="-8.880620123818517">
        <ele>22.81640625</ele>
      </trkpt>
      <trkpt lat="42.035152623429894" lon="-8.880604952573776">
        <ele>22.8515625</ele>
      </trkpt>
      <trkpt lat="42.035191264003515" lon="-8.880579136312008">
        <ele>22.98046875</ele>
      </trkpt>
      <trkpt lat="42.035224959254265" lon="-8.880554912611842">
        <ele>23.1015625</ele>
      </trkpt>
      <trkpt lat="42.035263013094664" lon="-8.880526917055249">
        <ele>23.23046875</ele>
      </trkpt>
      <trkpt lat="42.035294696688652" lon="-8.88049959205091">
        <ele>23.3671875</ele>
      </trkpt>
      <trkpt lat="42.03530048020184" lon="-8.880496490746737">
        <ele>23.375</ele>
      </trkpt>
      <trkpt lat="42.035426292568445" lon="-8.880429016426206">
        <ele>23.52734375</ele>
      </trkpt>
      <trkpt lat="42.035473482683301" lon="-8.88040185905993">
        <ele>23.58203125</ele>
      </trkpt>
      <trkpt lat="42.035514386370778" lon="-8.880379647016525">
        <ele>23.62890625</ele>
      </trkpt>
      <trkpt lat="42.035552943125367" lon="-8.880363972857594">
        <ele>23.66015625</ele>
      </trkpt>
      <trkpt lat="42.035591332241893" lon="-8.880343521013856">
        <ele>23.71875</ele>
      </trkpt>
      <trkpt lat="42.035623351112008" lon="-8.880317201837897">
        <ele>23.82421875</ele>
      </trkpt>
      <trkpt lat="42.035659393295646" lon="-8.880288200452924">
        <ele>23.93359375</ele>
      </trkpt>
      <trkpt lat="42.035694848746061" lon="-8.880268586799502">
        <ele>23.97265625</ele>
      </trkpt>
      <trkpt lat="42.03573633916676" lon="-8.880254002287984">
        <ele>23.9609375</ele>
      </trkpt>
      <trkpt lat="42.03577782958746" lon="-8.88024209998548">
        <ele>23.92578125</ele>
      </trkpt>
      <trkpt lat="42.035817224532366" lon="-8.880228521302342">
        <ele>23.9140625</ele>
      </trkpt>
      <trkpt lat="42.035853685811162" lon="-8.880213014781475">
        <ele>23.921875</ele>
      </trkpt>
      <trkpt lat="42.0358931645751" lon="-8.880202118307352">
        <ele>23.890625</ele>
      </trkpt>
      <trkpt lat="42.035932224243879" lon="-8.880192646756768">
        <ele>23.84765625</ele>
      </trkpt>
      <trkpt lat="42.035974971950054" lon="-8.880184013396502">
        <ele>23.80859375</ele>
      </trkpt>
      <trkpt lat="42.036013947799802" lon="-8.880177978426218">
        <ele>23.81640625</ele>
      </trkpt>
      <trkpt lat="42.036051917821169" lon="-8.880170937627554">
        <ele>23.83203125</ele>
      </trkpt>
      <trkpt lat="42.036090977489948" lon="-8.880164986476302">
        <ele>23.8359375</ele>
      </trkpt>
      <trkpt lat="42.036132048815489" lon="-8.88016196899116">
        <ele>23.81640625</ele>
      </trkpt>
      <trkpt lat="42.036170018836856" lon="-8.88015802949667">
        <ele>23.80859375</ele>
      </trkpt>
      <trkpt lat="42.036209916695952" lon="-8.880151743069291">
        <ele>23.80859375</ele>
      </trkpt>
      <trkpt lat="42.036248054355383" lon="-8.880143277347088">
        <ele>23.82421875</ele>
      </trkpt>
      <trkpt lat="42.036286275833845" lon="-8.880133554339409">
        <ele>23.84375</ele>
      </trkpt>
      <trkpt lat="42.036325251683593" lon="-8.880119472742081">
        <ele>23.8828125</ele>
      </trkpt>
      <trkpt lat="42.036367664113641" lon="-8.880103630945086">
        <ele>23.9296875</ele>
      </trkpt>
      <trkpt lat="42.036405885592103" lon="-8.880086112767458">
        <ele>23.98046875</ele>
      </trkpt>
      <trkpt lat="42.036444777622819" lon="-8.880061218515038">
        <ele>24.0546875</ele>
      </trkpt>
      <trkpt lat="42.036480652168393" lon="-8.880035066977143">
        <ele>24.12109375</ele>
      </trkpt>
      <trkpt lat="42.036514766514301" lon="-8.88001243583858">
        <ele>24.171875</ele>
      </trkpt>
      <trkpt lat="42.036552233621478" lon="-8.879994917660952">
        <ele>24.19140625</ele>
      </trkpt>
      <trkpt lat="42.036590874195099" lon="-8.879978656768799">
        <ele>24.19921875</ele>
      </trkpt>
      <trkpt lat="42.036629430949688" lon="-8.879961473867297">
        <ele>24.21484375</ele>
      </trkpt>
      <trkpt lat="42.036671759560704" lon="-8.879949655383825">
        <ele>24.19140625</ele>
      </trkpt>
      <trkpt lat="42.036711908876896" lon="-8.879936411976814">
        <ele>24.18359375</ele>
      </trkpt>
      <trkpt lat="42.036754237487912" lon="-8.879924090579152">
        <ele>24.1640625</ele>
      </trkpt>
      <trkpt lat="42.036778712645173" lon="-8.879917971789837">
        <ele>24.1484375</ele>
      </trkpt>
      <trkpt lat="42.036967221647501" lon="-8.879851587116718">
        <ele>23.9765625</ele>
      </trkpt>
      <trkpt lat="42.037004437297583" lon="-8.879839517176151">
        <ele>23.89453125</ele>
      </trkpt>
      <trkpt lat="42.037045424804091" lon="-8.879827195778489">
        <ele>23.796875</ele>
      </trkpt>
      <trkpt lat="42.037086831405759" lon="-8.879815377295017">
        <ele>23.6953125</ele>
      </trkpt>
      <trkpt lat="42.037123879417777" lon="-8.879806073382497">
        <ele>23.59765625</ele>
      </trkpt>
      <trkpt lat="42.037165286019444" lon="-8.879796182736754">
        <ele>23.484375</ele>
      </trkpt>
      <trkpt lat="42.03720660880208" lon="-8.879786375910044">
        <ele>23.37109375</ele>
      </trkpt>
      <trkpt lat="42.037246925756335" lon="-8.879776652902365">
        <ele>23.2578125</ele>
      </trkpt>
      <trkpt lat="42.037287829443812" lon="-8.879766091704369">
        <ele>23.15625</ele>
      </trkpt>
      <trkpt lat="42.037329152226448" lon="-8.879756284877658">
        <ele>23.05078125</ele>
      </trkpt>
      <trkpt lat="42.037371397018433" lon="-8.879745975136757">
        <ele>23.05859375</ele>
      </trkpt>
      <trkpt lat="42.037413725629449" lon="-8.879735749214888">
        <ele>23.17578125</ele>
      </trkpt>
      <trkpt lat="42.037452617660165" lon="-8.879728289321065">
        <ele>23.26953125</ele>
      </trkpt>
      <trkpt lat="42.037492766976357" lon="-8.879722254350781">
        <ele>23.359375</ele>
      </trkpt>
      <trkpt lat="42.037534676492214" lon="-8.879714542999864">
        <ele>23.4609375</ele>
      </trkpt>
      <trkpt lat="42.037574490532279" lon="-8.879706915467978">
        <ele>23.55859375</ele>
      </trkpt>
      <trkpt lat="42.037614723667502" lon="-8.879703562706709">
        <ele>23.62890625</ele>
      </trkpt>
      <trkpt lat="42.037657387554646" lon="-8.879703646525741">
        <ele>23.6875</ele>
      </trkpt>
      <trkpt lat="42.037697369232774" lon="-8.879705742001534">
        <ele>23.7265625</ele>
      </trkpt>
      <trkpt lat="42.037735674530268" lon="-8.879709346219897">
        <ele>23.75390625</ele>
      </trkpt>
      <trkpt lat="42.037774901837111" lon="-8.879722589626908">
        <ele>23.73046875</ele>
      </trkpt>
      <trkpt lat="42.037808010354638" lon="-8.879747232422233">
        <ele>23.625</ele>
      </trkpt>
      <trkpt lat="42.037834580987692" lon="-8.879788052290678">
        <ele>23.47265625</ele>
      </trkpt>
      <trkpt lat="42.037857044488192" lon="-8.879833230748773">
        <ele>23.3046875</ele>
      </trkpt>
      <trkpt lat="42.037877328693867" lon="-8.879887042567134">
        <ele>23.08203125</ele>
      </trkpt>
      <trkpt lat="42.037889063358307" lon="-8.879935909062624">
        <ele>22.85546875</ele>
      </trkpt>
      <trkpt lat="42.0378945954144" lon="-8.879944290965796">
        <ele>22.82421875</ele>
      </trkpt>
      <trkpt lat="42.037989981472492" lon="-8.880092147737741">
        <ele>22.30078125</ele>
      </trkpt>
      <trkpt lat="42.038024179637432" lon="-8.880117293447256">
        <ele>22.2578125</ele>
      </trkpt>
      <trkpt lat="42.038057958707213" lon="-8.880143780261278">
        <ele>22.203125</ele>
      </trkpt>
      <trkpt lat="42.038093330338597" lon="-8.880171440541744">
        <ele>22.14453125</ele>
      </trkpt>
      <trkpt lat="42.038128534331918" lon="-8.8801927305758">
        <ele>22.12109375</ele>
      </trkpt>
      <trkpt lat="42.038163067772985" lon="-8.880217289552093">
        <ele>22.0703125</ele>
      </trkpt>
      <trkpt lat="42.03820045106113" lon="-8.880246374756098">
        <ele>21.9921875</ele>
      </trkpt>
      <trkpt lat="42.038234397768974" lon="-8.880274621769786">
        <ele>21.87890625</ele>
      </trkpt>
      <trkpt lat="42.038271697238088" lon="-8.880299851298332">
        <ele>21.7890625</ele>
      </trkpt>
      <trkpt lat="42.038308661431074" lon="-8.880319213494658">
        <ele>21.703125</ele>
      </trkpt>
      <trkpt lat="42.038345457985997" lon="-8.880338156595826">
        <ele>21.61328125</ele>
      </trkpt>
      <trkpt lat="42.038382757455111" lon="-8.880366152152419">
        <ele>21.4609375</ele>
      </trkpt>
      <trkpt lat="42.038416871801019" lon="-8.880396243184805">
        <ele>21.28515625</ele>
      </trkpt>
      <trkpt lat="42.038448303937912" lon="-8.880428010597825">
        <ele>21.09765625</ele>
      </trkpt>
      <trkpt lat="42.038481160998344" lon="-8.880460951477289">
        <ele>20.90234375</ele>
      </trkpt>
      <trkpt lat="42.038503121584654" lon="-8.880480481311679">
        <ele>20.7890625</ele>
      </trkpt>
      <trkpt lat="42.038619127124548" lon="-8.880578801035881">
        <ele>20.23046875</ele>
      </trkpt>
      <trkpt lat="42.038657600060105" lon="-8.880575532093644">
        <ele>20.3046875</ele>
      </trkpt>
      <trkpt lat="42.038690205663443" lon="-8.880548207089305">
        <ele>20.546875</ele>
      </trkpt>
      <trkpt lat="42.038713088259101" lon="-8.880506549030542">
        <ele>20.87890625</ele>
      </trkpt>
      <trkpt lat="42.038737228140235" lon="-8.88046539388597">
        <ele>21.20703125</ele>
      </trkpt>
      <trkpt lat="42.03876631334424" lon="-8.880428178235888">
        <ele>21.49609375</ele>
      </trkpt>
      <trkpt lat="42.038799170404673" lon="-8.880395656451583">
        <ele>21.75390625</ele>
      </trkpt>
      <trkpt lat="42.038830351084471" lon="-8.880366822704673">
        <ele>21.984375</ele>
      </trkpt>
      <trkpt lat="42.038846611976624" lon="-8.880322314798832">
        <ele>22.31640625</ele>
      </trkpt>
      <trkpt lat="42.038851138204336" lon="-8.880268251523376">
        <ele>22.7109375</ele>
      </trkpt>
      <trkpt lat="42.038856837898493" lon="-8.880216116085649">
        <ele>23.0625</ele>
      </trkpt>
      <trkpt lat="42.038864716887474" lon="-8.880164483562112">
        <ele>23.375</ele>
      </trkpt>
      <trkpt lat="42.038874439895153" lon="-8.880109917372465">
        <ele>23.70703125</ele>
      </trkpt>
      <trkpt lat="42.038892544806004" lon="-8.880057111382484">
        <ele>24.03125</ele>
      </trkpt>
      <trkpt lat="42.038908805698156" lon="-8.880007239058614">
        <ele>24.3359375</ele>
      </trkpt>
      <trkpt lat="42.038930263370275" lon="-8.879955857992172">
        <ele>24.65625</ele>
      </trkpt>
      <trkpt lat="42.038946775719523" lon="-8.87990104034543">
        <ele>24.9921875</ele>
      </trkpt>
      <trkpt lat="42.038960186764598" lon="-8.879850916564465">
        <ele>25.296875</ele>
      </trkpt>
      <trkpt lat="42.038974687457085" lon="-8.879801128059626">
        <ele>25.6015625</ele>
      </trkpt>
      <trkpt lat="42.038998240604997" lon="-8.879761314019561">
        <ele>25.84765625</ele>
      </trkpt>
      <trkpt lat="42.039031181484461" lon="-8.879726529121399">
        <ele>26.0625</ele>
      </trkpt>
      <trkpt lat="42.039067558944225" lon="-8.879703730344772">
        <ele>26.20703125</ele>
      </trkpt>
      <trkpt lat="42.039102846756577" lon="-8.879678165540099">
        <ele>26.36328125</ele>
      </trkpt>
      <trkpt lat="42.039139810949564" lon="-8.879653522744775">
        <ele>26.515625</ele>
      </trkpt>
      <trkpt lat="42.039177864789963" lon="-8.879626700654626">
        <ele>26.67578125</ele>
      </trkpt>
      <trkpt lat="42.039215499535203" lon="-8.879595100879669">
        <ele>26.84765625</ele>
      </trkpt>
      <trkpt lat="42.039255984127522" lon="-8.879560818895698">
        <ele>27.01171875</ele>
      </trkpt>
      <trkpt lat="42.039292529225349" lon="-8.879534248262644">
        <ele>27.1484375</ele>
      </trkpt>
      <trkpt lat="42.03932530246675" lon="-8.879509270191193">
        <ele>27.28515625</ele>
      </trkpt>
      <trkpt lat="42.039360422641039" lon="-8.879484878852963">
        <ele>27.421875</ele>
      </trkpt>
      <trkpt lat="42.039393531158566" lon="-8.879454452544451">
        <ele>27.60546875</ele>
      </trkpt>
      <trkpt lat="42.039426639676094" lon="-8.879430312663317">
        <ele>27.7578125</ele>
      </trkpt>
      <trkpt lat="42.039459832012653" lon="-8.879396533593535">
        <ele>27.98046875</ele>
      </trkpt>
      <trkpt lat="42.039492772892118" lon="-8.879356971010566">
        <ele>28.24609375</ele>
      </trkpt>
      <trkpt lat="42.039521187543869" lon="-8.879319000989199">
        <ele>28.51171875</ele>
      </trkpt>
      <trkpt lat="42.039551865309477" lon="-8.879285473376513">
        <ele>28.7265625</ele>
      </trkpt>
      <trkpt lat="42.039582123979926" lon="-8.879244402050972">
        <ele>28.984375</ele>
      </trkpt>
      <trkpt lat="42.03960819169879" lon="-8.879202492535114">
        <ele>29.25</ele>
      </trkpt>
      <trkpt lat="42.039634510874748" lon="-8.87915731407702">
        <ele>29.5390625</ele>
      </trkpt>
      <trkpt lat="42.039660578593612" lon="-8.879113392904401">
        <ele>29.828125</ele>
      </trkpt>
      <trkpt lat="42.039694441482425" lon="-8.879088750109076">
        <ele>29.9453125</ele>
      </trkpt>
      <trkpt lat="42.039731573313475" lon="-8.879071986302733">
        <ele>30.01171875</ele>
      </trkpt>
      <trkpt lat="42.039740541949868" lon="-8.879063688218594">
        <ele>30.0546875</ele>
      </trkpt>
      <trkpt lat="42.039872808381915" lon="-8.87903418391943">
        <ele>30.1328125</ele>
      </trkpt>
      <trkpt lat="42.039914047345519" lon="-8.879018677398562">
        <ele>30.2109375</ele>
      </trkpt>
      <trkpt lat="42.039951598271728" lon="-8.87901364825666">
        <ele>30.21875</ele>
      </trkpt>
      <trkpt lat="42.039994094520807" lon="-8.879016833379865">
        <ele>30.1640625</ele>
      </trkpt>
      <trkpt lat="42.04003625549376" lon="-8.87902102433145">
        <ele>30.1015625</ele>
      </trkpt>
      <trkpt lat="42.040077662095428" lon="-8.879020102322102">
        <ele>30.078125</ele>
      </trkpt>
      <trkpt lat="42.040118649601936" lon="-8.879008619114757">
        <ele>30.140625</ele>
      </trkpt>
      <trkpt lat="42.040163492783904" lon="-8.878994537517428">
        <ele>30.04296875</ele>
      </trkpt>
      <trkpt lat="42.040203725919127" lon="-8.878978611901402">
        <ele>29.95703125</ele>
      </trkpt>
      <trkpt lat="42.040249239653349" lon="-8.878955142572522">
        <ele>29.91796875</ele>
      </trkpt>
      <trkpt lat="42.040294837206602" lon="-8.878933768719435">
        <ele>29.8671875</ele>
      </trkpt>
      <trkpt lat="42.040336327627301" lon="-8.878914071246982">
        <ele>29.8359375</ele>
      </trkpt>
      <trkpt lat="42.040374549105763" lon="-8.878899570554495">
        <ele>29.78125</ele>
      </trkpt>
      <trkpt lat="42.04041394405067" lon="-8.878884818404913">
        <ele>29.73046875</ele>
      </trkpt>
      <trkpt lat="42.040451327338815" lon="-8.878869228065014">
        <ele>29.703125</ele>
      </trkpt>
      <trkpt lat="42.040491225197911" lon="-8.878852296620607">
        <ele>29.68359375</ele>
      </trkpt>
      <trkpt lat="42.040536152198911" lon="-8.878837963566184">
        <ele>29.62890625</ele>
      </trkpt>
      <trkpt lat="42.040577474981546" lon="-8.878827821463346">
        <ele>29.5546875</ele>
      </trkpt>
      <trkpt lat="42.040616786107421" lon="-8.878821954131126">
        <ele>29.5</ele>
      </trkpt>
      <trkpt lat="42.040659282356501" lon="-8.878824971616268">
        <ele>29.35546875</ele>
      </trkpt>
      <trkpt lat="42.040699264034629" lon="-8.878833269700408">
        <ele>29.16015625</ele>
      </trkpt>
      <trkpt lat="42.040740586817265" lon="-8.878836203366518">
        <ele>29.01953125</ele>
      </trkpt>
      <trkpt lat="42.040786519646645" lon="-8.87883729301393">
        <ele>28.88671875</ele>
      </trkpt>
      <trkpt lat="42.040829937905073" lon="-8.878834191709757">
        <ele>28.8125</ele>
      </trkpt>
      <trkpt lat="42.040867740288377" lon="-8.878825139254332">
        <ele>28.828125</ele>
      </trkpt>
      <trkpt lat="42.040908057242632" lon="-8.878812398761511">
        <ele>28.88671875</ele>
      </trkpt>
      <trkpt lat="42.04094460234046" lon="-8.878790102899075">
        <ele>29.078125</ele>
      </trkpt>
      <trkpt lat="42.040979554876685" lon="-8.878758084028959">
        <ele>29.40625</ele>
      </trkpt>
      <trkpt lat="42.041012328118086" lon="-8.878729837015271">
        <ele>29.703125</ele>
      </trkpt>
      <trkpt lat="42.041044430807233" lon="-8.878700500354171">
        <ele>30.01953125</ele>
      </trkpt>
      <trkpt lat="42.041079131886363" lon="-8.878669822588563">
        <ele>30.3828125</ele>
      </trkpt>
      <trkpt lat="42.041112408041954" lon="-8.878637887537479">
        <ele>30.76953125</ele>
      </trkpt>
      <trkpt lat="42.041144007816911" lon="-8.878604108467698">
        <ele>31.1796875</ele>
      </trkpt>
      <trkpt lat="42.041176864877343" lon="-8.878568904474378">
        <ele>31.60546875</ele>
      </trkpt>
      <trkpt lat="42.041207291185856" lon="-8.878529258072376">
        <ele>32.0859375</ele>
      </trkpt>
      <trkpt lat="42.041236292570829" lon="-8.87849573045969">
        <ele>32.484375</ele>
      </trkpt>
      <trkpt lat="42.041264288127422" lon="-8.878458514809608">
        <ele>32.93359375</ele>
      </trkpt>
      <trkpt lat="42.041296390816569" lon="-8.878425993025303">
        <ele>33.3125</ele>
      </trkpt>
      <trkpt lat="42.041327655315399" lon="-8.878391459584236">
        <ele>33.7109375</ele>
      </trkpt>
      <trkpt lat="42.041356069967151" lon="-8.878355082124472">
        <ele>34.1171875</ele>
      </trkpt>
      <trkpt lat="42.041380545124412" lon="-8.878314597532153">
        <ele>34.578125</ele>
      </trkpt>
      <trkpt lat="42.041399069130421" lon="-8.8782655633986">
        <ele>35.15625</ele>
      </trkpt>
      <trkpt lat="42.041413569822907" lon="-8.878216780722141">
        <ele>35.73828125</ele>
      </trkpt>
      <trkpt lat="42.041426058858633" lon="-8.878162717446685">
        <ele>36.390625</ele>
      </trkpt>
      <trkpt lat="42.041436703875661" lon="-8.878108821809292">
        <ele>37.046875</ele>
      </trkpt>
      <trkpt lat="42.041446594521403" lon="-8.878048304468393">
        <ele>37.7890625</ele>
      </trkpt>
      <trkpt lat="42.041455646976829" lon="-8.877992900088429">
        <ele>38.46875</ele>
      </trkpt>
      <trkpt lat="42.041465202346444" lon="-8.877942860126495">
        <ele>39.0859375</ele>
      </trkpt>
      <trkpt lat="42.041485738009214" lon="-8.87790204025805">
        <ele>39.625</ele>
      </trkpt>
      <trkpt lat="42.041519936174154" lon="-8.877881588414311">
        <ele>39.91796875</ele>
      </trkpt>
      <trkpt lat="42.041557990014553" lon="-8.877889467403293">
        <ele>39.8828125</ele>
      </trkpt>
      <trkpt lat="42.041594199836254" lon="-8.877899274230003">
        <ele>39.81640625</ele>
      </trkpt>
      <trkpt lat="42.041595373302698" lon="-8.87790153734386">
        <ele>39.7890625</ele>
      </trkpt>
      <trkpt lat="42.041770555078983" lon="-8.877996588125825">
        <ele>38.97265625</ele>
      </trkpt>
      <trkpt lat="42.04207967966795" lon="-8.878098763525486">
        <ele>38.66796875</ele>
      </trkpt>
      <trkpt lat="42.042117062956095" lon="-8.878123825415969">
        <ele>38.5390625</ele>
      </trkpt>
      <trkpt lat="42.042151177302003" lon="-8.878146791830659">
        <ele>38.42578125</ele>
      </trkpt>
      <trkpt lat="42.042187219485641" lon="-8.878166489303112">
        <ele>38.35546875</ele>
      </trkpt>
      <trkpt lat="42.042210940271616" lon="-8.878181576728821">
        <ele>38.29296875</ele>
      </trkpt>
      <trkpt lat="42.042439011856914" lon="-8.878355417400599">
        <ele>37.4921875</ele>
      </trkpt>
      <trkpt lat="42.042439011856914" lon="-8.878354663029313">
        <ele>37.5</ele>
      </trkpt>
      <trkpt lat="42.042566584423184" lon="-8.878449881449342">
        <ele>37.09765625</ele>
      </trkpt>
      <trkpt lat="42.042572200298309" lon="-8.878449881449342">
        <ele>37.1171875</ele>
      </trkpt>
      <trkpt lat="42.042947877198458" lon="-8.878555912524462">
        <ele>37.74609375</ele>
      </trkpt>
      <trkpt lat="42.042949050664902" lon="-8.878555912524462">
        <ele>37.75</ele>
      </trkpt>
      <trkpt lat="42.043130686506629" lon="-8.878603857010603">
        <ele>38.09375</ele>
      </trkpt>
      <trkpt lat="42.043171087279916" lon="-8.878617435693741">
        <ele>38.1640625</ele>
      </trkpt>
      <trkpt lat="42.043207967653871" lon="-8.878627996891737">
        <ele>38.2421875</ele>
      </trkpt>
      <trkpt lat="42.043246440589428" lon="-8.878642665222287">
        <ele>38.3046875</ele>
      </trkpt>
      <trkpt lat="42.043284829705954" lon="-8.878657082095742">
        <ele>38.37890625</ele>
      </trkpt>
      <trkpt lat="42.043322212994099" lon="-8.878675773739815">
        <ele>38.4296875</ele>
      </trkpt>
      <trkpt lat="42.043360015377402" lon="-8.878699913620949">
        <ele>38.46484375</ele>
      </trkpt>
      <trkpt lat="42.043404188007116" lon="-8.878727406263351">
        <ele>38.53125</ele>
      </trkpt>
      <trkpt lat="42.043441906571388" lon="-8.878748528659344">
        <ele>38.59765625</ele>
      </trkpt>
      <trkpt lat="42.04347719438374" lon="-8.878767807036638">
        <ele>38.65234375</ele>
      </trkpt>
      <trkpt lat="42.043517008423805" lon="-8.878790941089392">
        <ele>38.703125</ele>
      </trkpt>
      <trkpt lat="42.043552966788411" lon="-8.878808123990893">
        <ele>38.76171875</ele>
      </trkpt>
      <trkpt lat="42.043590852990746" lon="-8.878832180052996">
        <ele>38.78515625</ele>
      </trkpt>
      <trkpt lat="42.043624632060528" lon="-8.878860091790557">
        <ele>38.7578125</ele>
      </trkpt>
      <trkpt lat="42.043661596253514" lon="-8.878887165337801">
        <ele>38.74609375</ele>
      </trkpt>
      <trkpt lat="42.043694788590074" lon="-8.87891398742795">
        <ele>38.71484375</ele>
      </trkpt>
      <trkpt lat="42.043730830773711" lon="-8.878941647708416">
        <ele>38.6953125</ele>
      </trkpt>
      <trkpt lat="42.043766370043159" lon="-8.878964614123106">
        <ele>38.69921875</ele>
      </trkpt>
      <trkpt lat="42.04376888461411" lon="-8.878966122865677">
        <ele>38.69921875</ele>
      </trkpt>
      <trkpt lat="42.0439731515944" lon="-8.879153961315751">
        <ele>38.71875</ele>
      </trkpt>
      <trkpt lat="42.0439731515944" lon="-8.879154715687037">
        <ele>38.7109375</ele>
      </trkpt>
      <trkpt lat="42.044261321425438" lon="-8.879412543028593">
        <ele>38.5703125</ele>
      </trkpt>
      <trkpt lat="42.04429367557168" lon="-8.879449004307389">
        <ele>38.53515625</ele>
      </trkpt>
      <trkpt lat="42.044330472126603" lon="-8.879495691508055">
        <ele>38.51953125</ele>
      </trkpt>
      <trkpt lat="42.044358719140291" lon="-8.879535337910056">
        <ele>38.453125</ele>
      </trkpt>
      <trkpt lat="42.044385708868504" lon="-8.879573810845613">
        <ele>38.36328125</ele>
      </trkpt>
      <trkpt lat="42.044417224824429" lon="-8.879605662077665">
        <ele>38.32421875</ele>
      </trkpt>
      <trkpt lat="42.044449327513576" lon="-8.879634663462639">
        <ele>38.2890625</ele>
      </trkpt>
      <trkpt lat="42.044483358040452" lon="-8.879664838314056">
        <ele>38.23046875</ele>
      </trkpt>
      <trkpt lat="42.044519064947963" lon="-8.879700545221567">
        <ele>38.11328125</ele>
      </trkpt>
      <trkpt lat="42.044551083818078" lon="-8.879732312634587">
        <ele>37.984375</ele>
      </trkpt>
      <trkpt lat="42.044581761583686" lon="-8.8797661755234">
        <ele>37.8046875</ele>
      </trkpt>
      <trkpt lat="42.044619396328926" lon="-8.879787130281329">
        <ele>37.78515625</ele>
      </trkpt>
      <trkpt lat="42.044656360521913" lon="-8.879798362031579">
        <ele>37.84765625</ele>
      </trkpt>
      <trkpt lat="42.044700868427753" lon="-8.879813198000193">
        <ele>37.90625</ele>
      </trkpt>
      <trkpt lat="42.044738754630089" lon="-8.879826106131077">
        <ele>37.9453125</ele>
      </trkpt>
      <trkpt lat="42.044768678024411" lon="-8.879855945706367">
        <ele>37.8046875</ele>
      </trkpt>
      <trkpt lat="42.044788291677833" lon="-8.879902800545096">
        <ele>37.48046875</ele>
      </trkpt>
      <trkpt lat="42.04480187036097" lon="-8.879952253773808">
        <ele>37.11328125</ele>
      </trkpt>
      <trkpt lat="42.044814024120569" lon="-8.880010172724724">
        <ele>36.6640625</ele>
      </trkpt>
      <trkpt lat="42.044823411852121" lon="-8.880059961229563">
        <ele>36.265625</ele>
      </trkpt>
      <trkpt lat="42.044838080182672" lon="-8.880109079182148">
        <ele>35.87890625</ele>
      </trkpt>
      <trkpt lat="42.044854005798697" lon="-8.880158448591828">
        <ele>35.484375</ele>
      </trkpt>
      <trkpt lat="42.04487269744277" lon="-8.880207315087318">
        <ele>35.0859375</ele>
      </trkpt>
      <trkpt lat="42.044896585866809" lon="-8.880251320078969">
        <ele>34.76953125</ele>
      </trkpt>
      <trkpt lat="42.044924329966307" lon="-8.880293061956763">
        <ele>34.57421875</ele>
      </trkpt>
      <trkpt lat="42.044948218390346" lon="-8.880335725843906">
        <ele>34.3671875</ele>
      </trkpt>
      <trkpt lat="42.044971436262131" lon="-8.88037646189332">
        <ele>34.1640625</ele>
      </trkpt>
      <trkpt lat="42.044996581971645" lon="-8.880420383065939">
        <ele>33.9375</ele>
      </trkpt>
      <trkpt lat="42.045020302757621" lon="-8.880460280925035">
        <ele>33.7265625</ele>
      </trkpt>
      <trkpt lat="42.045050645247102" lon="-8.880490874871612">
        <ele>33.55859375</ele>
      </trkpt>
      <trkpt lat="42.045083921402693" lon="-8.880517361685634">
        <ele>33.41015625</ele>
      </trkpt>
      <trkpt lat="42.045122561976314" lon="-8.88054016046226">
        <ele>33.27734375</ele>
      </trkpt>
      <trkpt lat="42.045163046568632" lon="-8.880561115220189">
        <ele>33.1484375</ele>
      </trkpt>
      <trkpt lat="42.045205626636744" lon="-8.880580980330706">
        <ele>33.01953125</ele>
      </trkpt>
      <trkpt lat="42.045241920277476" lon="-8.880584081634879">
        <ele>32.96484375</ele>
      </trkpt>
      <trkpt lat="42.045278716832399" lon="-8.880573688074946">
        <ele>32.98828125</ele>
      </trkpt>
      <trkpt lat="42.045317189767957" lon="-8.880553068593144">
        <ele>33.0859375</ele>
      </trkpt>
      <trkpt lat="42.04535398632288" lon="-8.880536891520023">
        <ele>33.1640625</ele>
      </trkpt>
      <trkpt lat="42.045388938859105" lon="-8.88051719404757">
        <ele>33.27734375</ele>
      </trkpt>
      <trkpt lat="42.045422047376633" lon="-8.880488444119692">
        <ele>33.46484375</ele>
      </trkpt>
      <trkpt lat="42.045457251369953" lon="-8.880469081923366">
        <ele>33.59765625</ele>
      </trkpt>
      <trkpt lat="42.045497065410018" lon="-8.880458939820528">
        <ele>33.6640625</ele>
      </trkpt>
      <trkpt lat="42.045534867793322" lon="-8.880452150478959">
        <ele>33.7109375</ele>
      </trkpt>
      <trkpt lat="42.045545345172286" lon="-8.880500765517354">
        <ele>33.30859375</ele>
      </trkpt>
      <trkpt lat="42.045546770095825" lon="-8.880533371120691">
        <ele>33.03515625</ele>
      </trkpt>
      <trkpt lat="42.045532520860434" lon="-8.881215741857886">
        <ele>28.546875</ele>
      </trkpt>
      <trkpt lat="42.045542327687144" lon="-8.881652439013124">
        <ele>26.26171875</ele>
      </trkpt>
      <trkpt lat="42.045542327687144" lon="-8.88165763579309">
        <ele>26.24609375</ele>
      </trkpt>
      <trkpt lat="42.045555068179965" lon="-8.882032390683889">
        <ele>24.91796875</ele>
      </trkpt>
      <trkpt lat="42.045555068179965" lon="-8.882034905254841">
        <ele>24.91015625</ele>
      </trkpt>
      <trkpt lat="42.045579710975289" lon="-8.882312178611755">
        <ele>24.0390625</ele>
      </trkpt>
      <trkpt lat="42.045643916353583" lon="-8.88256304897368">
        <ele>23.0078125</ele>
      </trkpt>
      <trkpt lat="42.045661685988307" lon="-8.882612083107233">
        <ele>22.6796875</ele>
      </trkpt>
      <trkpt lat="42.045678365975618" lon="-8.882670924067497">
        <ele>22.3046875</ele>
      </trkpt>
      <trkpt lat="42.045688759535551" lon="-8.882725993171334">
        <ele>21.99609375</ele>
      </trkpt>
      <trkpt lat="42.045693704858422" lon="-8.882780810818076">
        <ele>21.7109375</ele>
      </trkpt>
      <trkpt lat="42.04569797962904" lon="-8.882834538817406">
        <ele>21.4375</ele>
      </trkpt>
      <trkpt lat="42.045699823647738" lon="-8.882893044501543">
        <ele>21.15234375</ele>
      </trkpt>
      <trkpt lat="42.045704182237387" lon="-8.882947107776999">
        <ele>20.87109375</ele>
      </trkpt>
      <trkpt lat="42.045710384845734" lon="-8.882998488843441">
        <ele>20.5859375</ele>
      </trkpt>
      <trkpt lat="42.045729579403996" lon="-8.883057413622737">
        <ele>20.125</ele>
      </trkpt>
      <trkpt lat="42.045753384009004" lon="-8.883112147450447">
        <ele>19.63671875</ele>
      </trkpt>
      <trkpt lat="42.045778948813677" lon="-8.883149363100529">
        <ele>19.23828125</ele>
      </trkpt>
      <trkpt lat="42.045816835016012" lon="-8.883175933733582">
        <ele>18.8203125</ele>
      </trkpt>
      <trkpt lat="42.04585975036025" lon="-8.883190685883164">
        <ele>18.43359375</ele>
      </trkpt>
      <trkpt lat="42.045902330428362" lon="-8.883200576528907">
        <ele>18.08203125</ele>
      </trkpt>
      <trkpt lat="42.045941641554236" lon="-8.883209461346269">
        <ele>17.7578125</ele>
      </trkpt>
      <trkpt lat="42.045982293784618" lon="-8.883219687268138">
        <ele>17.41015625</ele>
      </trkpt>
      <trkpt lat="42.046021185815334" lon="-8.883231421932578">
        <ele>17.0703125</ele>
      </trkpt>
      <trkpt lat="42.046061754226685" lon="-8.883239887654781">
        <ele>16.734375</ele>
      </trkpt>
      <trkpt lat="42.046101903542876" lon="-8.883243575692177">
        <ele>16.43359375</ele>
      </trkpt>
      <trkpt lat="42.046141717582941" lon="-8.883244581520557">
        <ele>16.15234375</ele>
      </trkpt>
      <trkpt lat="42.046150770038366" lon="-8.88324374333024">
        <ele>16.1015625</ele>
      </trkpt>
      <trkpt lat="42.046359814703465" lon="-8.883233098313212">
        <ele>14.8671875</ele>
      </trkpt>
      <trkpt lat="42.046405160799623" lon="-8.883232176303864">
        <ele>14.58984375</ele>
      </trkpt>
      <trkpt lat="42.04644313082099" lon="-8.883233182132244">
        <ele>14.34375</ele>
      </trkpt>
      <trkpt lat="42.046484034508467" lon="-8.883236199617386">
        <ele>14.06640625</ele>
      </trkpt>
      <trkpt lat="42.046524602919817" lon="-8.883240893483162">
        <ele>13.78125</ele>
      </trkpt>
      <trkpt lat="42.046565338969231" lon="-8.883243910968304">
        <ele>13.50390625</ele>
      </trkpt>
      <trkpt lat="42.046604650095105" lon="-8.883243910968304">
        <ele>13.26171875</ele>
      </trkpt>
      <trkpt lat="42.046648319810629" lon="-8.883238798007369">
        <ele>13.19921875</ele>
      </trkpt>
      <trkpt lat="42.046689391136169" lon="-8.883235361427069">
        <ele>13.12890625</ele>
      </trkpt>
      <trkpt lat="42.046730713918805" lon="-8.883231086656451">
        <ele>13.06640625</ele>
      </trkpt>
      <trkpt lat="42.046773042529821" lon="-8.883222201839089">
        <ele>13.0390625</ele>
      </trkpt>
      <trkpt lat="42.046816712245345" lon="-8.883211724460125">
        <ele>13.015625</ele>
      </trkpt>
      <trkpt lat="42.046860214322805" lon="-8.883201330900192">
        <ele>12.99609375</ele>
      </trkpt>
      <trkpt lat="42.046898854896426" lon="-8.883186662569642">
        <ele>13.0234375</ele>
      </trkpt>
      <trkpt lat="42.046936741098762" lon="-8.883177191019058">
        <ele>13.01171875</ele>
      </trkpt>
      <trkpt lat="42.046979321166873" lon="-8.883166126906872">
        <ele>13.00390625</ele>
      </trkpt>
      <trkpt lat="42.047022068873048" lon="-8.883164450526237">
        <ele>12.92578125</ele>
      </trkpt>
      <trkpt lat="42.047067834064364" lon="-8.883168809115887">
        <ele>12.7890625</ele>
      </trkpt>
      <trkpt lat="42.047111336141825" lon="-8.883178280666471">
        <ele>12.62890625</ele>
      </trkpt>
      <trkpt lat="42.047152491286397" lon="-8.883188674226403">
        <ele>12.46484375</ele>
      </trkpt>
      <trkpt lat="42.047190126031637" lon="-8.883200911805034">
        <ele>12.29296875</ele>
      </trkpt>
      <trkpt lat="42.047227928414941" lon="-8.883225303143263">
        <ele>12.02734375</ele>
      </trkpt>
      <trkpt lat="42.047265898436308" lon="-8.883258998394012">
        <ele>11.6875</ele>
      </trkpt>
      <trkpt lat="42.047302192077041" lon="-8.883284814655781">
        <ele>11.41015625</ele>
      </trkpt>
      <trkpt lat="42.047339240089059" lon="-8.883297387510538">
        <ele>11.23828125</ele>
      </trkpt>
      <trkpt lat="42.047379976138473" lon="-8.883313480764627">
        <ele>11.03125</ele>
      </trkpt>
      <trkpt lat="42.047419035807252" lon="-8.883329993113875">
        <ele>10.8203125</ele>
      </trkpt>
      <trkpt lat="42.047459101304412" lon="-8.883346505463123">
        <ele>10.61328125</ele>
      </trkpt>
      <trkpt lat="42.047499418258667" lon="-8.883361425250769">
        <ele>10.4140625</ele>
      </trkpt>
      <trkpt lat="42.047538813203573" lon="-8.883384224027395">
        <ele>10.17578125</ele>
      </trkpt>
      <trkpt lat="42.047577705234289" lon="-8.883400401100516">
        <ele>10.0390625</ele>
      </trkpt>
      <trkpt lat="42.047615507617593" lon="-8.883410459384322">
        <ele>9.953125</ele>
      </trkpt>
      <trkpt lat="42.047654148191214" lon="-8.883420433849096">
        <ele>9.87109375</ele>
      </trkpt>
      <trkpt lat="42.047693124040961" lon="-8.883436527103186">
        <ele>9.74609375</ele>
      </trkpt>
      <trkpt lat="42.047732183709741" lon="-8.8834616728127">
        <ele>9.5546875</ele>
      </trkpt>
      <trkpt lat="42.047769064083695" lon="-8.883478855714202">
        <ele>9.4375</ele>
      </trkpt>
      <trkpt lat="42.047809967771173" lon="-8.883509449660778">
        <ele>9.3125</ele>
      </trkpt>
      <trkpt lat="42.047840729355812" lon="-8.883538702502847">
        <ele>9.1875</ele>
      </trkpt>
      <trkpt lat="42.047874089330435" lon="-8.883565356954932">
        <ele>9.06640625</ele>
      </trkpt>
      <trkpt lat="42.047908203676343" lon="-8.883596789091825">
        <ele>8.921875</ele>
      </trkpt>
      <trkpt lat="42.047942988574505" lon="-8.883617240935564">
        <ele>8.8203125</ele>
      </trkpt>
      <trkpt lat="42.047978360205889" lon="-8.883639704436064">
        <ele>8.703125</ele>
      </trkpt>
      <trkpt lat="42.048012809827924" lon="-8.883664179593325">
        <ele>8.58203125</ele>
      </trkpt>
      <trkpt lat="42.048048432916403" lon="-8.883688822388649">
        <ele>8.46875</ele>
      </trkpt>
      <trkpt lat="42.048082211986184" lon="-8.88371673412621">
        <ele>8.33984375</ele>
      </trkpt>
      <trkpt lat="42.048118589445949" lon="-8.883741293102503">
        <ele>8.2265625</ele>
      </trkpt>
      <trkpt lat="42.048155469819903" lon="-8.883767109364271">
        <ele>8.109375</ele>
      </trkpt>
      <trkpt lat="42.048191679641604" lon="-8.883784711360931">
        <ele>8.02734375</ele>
      </trkpt>
      <trkpt lat="42.048228308558464" lon="-8.883804241195321">
        <ele>7.9375</ele>
      </trkpt>
      <trkpt lat="42.048262003809214" lon="-8.883831398561597">
        <ele>7.8125</ele>
      </trkpt>
      <trkpt lat="42.048290837556124" lon="-8.883863165974617">
        <ele>7.6640625</ele>
      </trkpt>
      <trkpt lat="42.048316150903702" lon="-8.88390482403338">
        <ele>7.47265625</ele>
      </trkpt>
      <trkpt lat="42.048329394310713" lon="-8.883955199271441">
        <ele>7.23046875</ele>
      </trkpt>
      <trkpt lat="42.048347080126405" lon="-8.883998282253742">
        <ele>7.00390625</ele>
      </trkpt>
      <trkpt lat="42.048371555283666" lon="-8.884036084637046">
        <ele>6.8046875</ele>
      </trkpt>
      <trkpt lat="42.048392342403531" lon="-8.884061649441719">
        <ele>6.66796875</ele>
      </trkpt>
      <trkpt lat="42.04845042899251" lon="-8.884095009416342">
        <ele>6.4921875</ele>
      </trkpt>
      <trkpt lat="42.048487141728401" lon="-8.884105822071433">
        <ele>6.45703125</ele>
      </trkpt>
      <trkpt lat="42.048529554158449" lon="-8.884120993316174">
        <ele>6.40625</ele>
      </trkpt>
      <trkpt lat="42.04857062548399" lon="-8.884132392704487">
        <ele>6.37109375</ele>
      </trkpt>
      <trkpt lat="42.048609936609864" lon="-8.8841472286731">
        <ele>6.3203125</ele>
      </trkpt>
      <trkpt lat="42.048652181401849" lon="-8.884158711880445">
        <ele>6.28515625</ele>
      </trkpt>
      <trkpt lat="42.048696773126721" lon="-8.884170446544886">
        <ele>6.25390625</ele>
      </trkpt>
      <trkpt lat="42.04873532988131" lon="-8.884177403524518">
        <ele>6.2421875</ele>
      </trkpt>
      <trkpt lat="42.048739772289991" lon="-8.884179750457406">
        <ele>6.234375</ele>
      </trkpt>
      <trkpt lat="42.048835325986147" lon="-8.884238675236702">
        <ele>5.984375</ele>
      </trkpt>
      <trkpt lat="42.048869440332055" lon="-8.884298438206315">
        <ele>5.69140625</ele>
      </trkpt>
      <trkpt lat="42.048904476687312" lon="-8.884351328015327">
        <ele>5.4375</ele>
      </trkpt>
      <trkpt lat="42.048956528306007" lon="-8.88437638990581">
        <ele>5.3359375</ele>
      </trkpt>
      <trkpt lat="42.04900992102921" lon="-8.884401451796293">
        <ele>5.2421875</ele>
      </trkpt>
      <trkpt lat="42.049064738675952" lon="-8.884433135390282">
        <ele>5.08984375</ele>
      </trkpt>
      <trkpt lat="42.049119556322694" lon="-8.884446294978261">
        <ele>5.046875</ele>
      </trkpt>
      <trkpt lat="42.049174122512341" lon="-8.884457610547543">
        <ele>5.015625</ele>
      </trkpt>
      <trkpt lat="42.04923078417778" lon="-8.884468423202634">
        <ele>4.9921875</ele>
      </trkpt>
      <trkpt lat="42.049287110567093" lon="-8.884479822590947">
        <ele>4.9609375</ele>
      </trkpt>
      <trkpt lat="42.049341090023518" lon="-8.884491557255387">
        <ele>4.92578125</ele>
      </trkpt>
      <trkpt lat="42.049401020631194" lon="-8.884501531720161">
        <ele>4.87109375</ele>
      </trkpt>
      <trkpt lat="42.049460867419839" lon="-8.884507231414318">
        <ele>4.77734375</ele>
      </trkpt>
      <trkpt lat="42.04951367340982" lon="-8.884521648287773">
        <ele>4.640625</ele>
      </trkpt>
      <trkpt lat="42.049566563218832" lon="-8.884545536711812">
        <ele>4.4609375</ele>
      </trkpt>
      <trkpt lat="42.049615597352386" lon="-8.884585099294782">
        <ele>4.2109375</ele>
      </trkpt>
      <trkpt lat="42.0496632065624" lon="-8.884618459269404">
        <ele>4</ele>
      </trkpt>
      <trkpt lat="42.049714839085937" lon="-8.884646035730839">
        <ele>3.828125</ele>
      </trkpt>
      <trkpt lat="42.049773093312979" lon="-8.884668247774243">
        <ele>3.68359375</ele>
      </trkpt>
      <trkpt lat="42.049829587340355" lon="-8.884692052379251">
        <ele>3.54296875</ele>
      </trkpt>
      <trkpt lat="42.04988214187324" lon="-8.884714767336845">
        <ele>3.4296875</ele>
      </trkpt>
      <trkpt lat="42.049934947863221" lon="-8.884732536971569">
        <ele>3.34765625</ele>
      </trkpt>
      <trkpt lat="42.049991609528661" lon="-8.884748294949532">
        <ele>3.27734375</ele>
      </trkpt>
      <trkpt lat="42.050051623955369" lon="-8.884755168110132">
        <ele>3.24609375</ele>
      </trkpt>
      <trkpt lat="42.05010836943984" lon="-8.88476044870913">
        <ele>3.22265625</ele>
      </trkpt>
      <trkpt lat="42.050162684172392" lon="-8.884759191423655">
        <ele>3.2265625</ele>
      </trkpt>
      <trkpt lat="42.050165450200438" lon="-8.884758101776242">
        <ele>3.23046875</ele>
      </trkpt>
      <trkpt lat="42.050253292545676" lon="-8.884747372940183">
        <ele>3.28125</ele>
      </trkpt>
      <trkpt lat="42.050310289487243" lon="-8.884718120098114">
        <ele>3.4140625</ele>
      </trkpt>
      <trkpt lat="42.050360161811113" lon="-8.884679563343525">
        <ele>3.59375</ele>
      </trkpt>
      <trkpt lat="42.05039955675602" lon="-8.884626338258386">
        <ele>3.83984375</ele>
      </trkpt>
      <trkpt lat="42.050436520949006" lon="-8.884575292468071">
        <ele>4.07421875</ele>
      </trkpt>
      <trkpt lat="42.050475245341659" lon="-8.884538747370243">
        <ele>4.2421875</ele>
      </trkpt>
      <trkpt lat="42.051399098709226" lon="-8.884735135361552">
        <ele>6.04296875</ele>
      </trkpt>
      <trkpt lat="42.051399936899543" lon="-8.88473404571414">
        <ele>6.05078125</ele>
      </trkpt>
      <trkpt lat="42.051503201946616" lon="-8.884755000472069">
        <ele>6.51953125</ele>
      </trkpt>
      <trkpt lat="42.051551649346948" lon="-8.88480244204402">
        <ele>6.67578125</ele>
      </trkpt>
      <trkpt lat="42.051590792834759" lon="-8.884857343509793">
        <ele>6.7890625</ele>
      </trkpt>
      <trkpt lat="42.05161870457232" lon="-8.884922973811626">
        <ele>6.80078125</ele>
      </trkpt>
      <trkpt lat="42.051642928272486" lon="-8.884986927732825">
        <ele>6.80078125</ele>
      </trkpt>
      <trkpt lat="42.051666313782334" lon="-8.885052558034658">
        <ele>6.796875</ele>
      </trkpt>
      <trkpt lat="42.051683748140931" lon="-8.885129755362868">
        <ele>6.73828125</ele>
      </trkpt>
      <trkpt lat="42.051703529432416" lon="-8.885210892185569">
        <ele>6.75</ele>
      </trkpt>
      <trkpt lat="42.051723729819059" lon="-8.885280629619956">
        <ele>6.8359375</ele>
      </trkpt>
      <trkpt lat="42.051738984882832" lon="-8.885363359004259">
        <ele>6.84375</ele>
      </trkpt>
      <trkpt lat="42.051753150299191" lon="-8.885437371209264">
        <ele>6.84765625</ele>
      </trkpt>
      <trkpt lat="42.051765136420727" lon="-8.885508114472032">
        <ele>6.83203125</ele>
      </trkpt>
      <trkpt lat="42.051776200532913" lon="-8.885583719238639">
        <ele>6.79296875</ele>
      </trkpt>
      <trkpt lat="42.051787516102195" lon="-8.885659575462341">
        <ele>6.7578125</ele>
      </trkpt>
      <trkpt lat="42.051797909662127" lon="-8.885731995105743">
        <ele>6.71484375</ele>
      </trkpt>
      <trkpt lat="42.051804950460792" lon="-8.885805252939463">
        <ele>6.64453125</ele>
      </trkpt>
      <trkpt lat="42.051813835278153" lon="-8.885879013687372">
        <ele>6.640625</ele>
      </trkpt>
      <trkpt lat="42.051823893561959" lon="-8.88595218770206">
        <ele>6.6484375</ele>
      </trkpt>
      <trkpt lat="42.051833281293511" lon="-8.886024439707398">
        <ele>6.65234375</ele>
      </trkpt>
      <trkpt lat="42.051856080070138" lon="-8.886086214333773">
        <ele>6.8125</ele>
      </trkpt>
      <trkpt lat="42.051872927695513" lon="-8.886127285659313">
        <ele>6.9375</ele>
      </trkpt>
      <trkpt lat="42.051910478621721" lon="-8.886242704465985">
        <ele>7.1796875</ele>
      </trkpt>
      <trkpt lat="42.051999997347593" lon="-8.886792892590165">
        <ele>7.296875</ele>
      </trkpt>
      <trkpt lat="42.052085576578975" lon="-8.887018198147416">
        <ele>7.49609375</ele>
      </trkpt>
      <trkpt lat="42.052524955943227" lon="-8.887551371008158">
        <ele>9.20703125</ele>
      </trkpt>
      <trkpt lat="42.052525542676449" lon="-8.887551371008158">
        <ele>9.2109375</ele>
      </trkpt>
      <trkpt lat="42.053393572568893" lon="-8.888470530509949">
        <ele>9.66796875</ele>
      </trkpt>
      <trkpt lat="42.053634217008948" lon="-8.888705056160688">
        <ele>8.37109375</ele>
      </trkpt>
      <trkpt lat="42.053670762106776" lon="-8.88873347081244">
        <ele>8.14453125</ele>
      </trkpt>
      <trkpt lat="42.053703786805272" lon="-8.888759538531303">
        <ele>7.93359375</ele>
      </trkpt>
      <trkpt lat="42.053739745169878" lon="-8.888782756403089">
        <ele>7.7421875</ele>
      </trkpt>
      <trkpt lat="42.053778218105435" lon="-8.888798430562019">
        <ele>7.609375</ele>
      </trkpt>
      <trkpt lat="42.05381702631712" lon="-8.888808069750667">
        <ele>7.5234375</ele>
      </trkpt>
      <trkpt lat="42.053855918347836" lon="-8.888811925426126">
        <ele>7.48828125</ele>
      </trkpt>
      <trkpt lat="42.053895983844995" lon="-8.888811925426126">
        <ele>7.48828125</ele>
      </trkpt>
      <trkpt lat="42.05393579788506" lon="-8.888807231560349">
        <ele>7.52734375</ele>
      </trkpt>
      <trkpt lat="42.053974773734808" lon="-8.888799771666527">
        <ele>7.59375</ele>
      </trkpt>
      <trkpt lat="42.054015845060349" lon="-8.888783343136311">
        <ele>7.69921875</ele>
      </trkpt>
      <trkpt lat="42.054054066538811" lon="-8.888765322044492">
        <ele>7.671875</ele>
      </trkpt>
      <trkpt lat="42.054089521989226" lon="-8.888741014525294">
        <ele>7.70703125</ele>
      </trkpt>
      <trkpt lat="42.054127743467689" lon="-8.888712013140321">
        <ele>7.76171875</ele>
      </trkpt>
      <trkpt lat="42.054165210574865" lon="-8.88868753798306">
        <ele>7.7734375</ele>
      </trkpt>
      <trkpt lat="42.054203683510423" lon="-8.888659374788404">
        <ele>7.80078125</ele>
      </trkpt>
      <trkpt lat="42.054242826998234" lon="-8.888631295412779">
        <ele>7.8125</ele>
      </trkpt>
      <trkpt lat="42.054277695715427" lon="-8.888604892417789">
        <ele>7.83203125</ele>
      </trkpt>
      <trkpt lat="42.054313654080033" lon="-8.888579159975052">
        <ele>7.828125</ele>
      </trkpt>
      <trkpt lat="42.054346930235624" lon="-8.888554349541664">
        <ele>7.8359375</ele>
      </trkpt>
      <trkpt lat="42.054347516968846" lon="-8.88855367898941">
        <ele>7.8359375</ele>
      </trkpt>
      <trkpt lat="42.054692432284355" lon="-8.88826391659677">
        <ele>7.34375</ele>
      </trkpt>
      <trkpt lat="42.05473174341023" lon="-8.888248326256871">
        <ele>7.0703125</ele>
      </trkpt>
      <trkpt lat="42.05476937815547" lon="-8.88822678476572">
        <ele>6.85546875</ele>
      </trkpt>
      <trkpt lat="42.054806342348456" lon="-8.888204572722316">
        <ele>6.6484375</ele>
      </trkpt>
      <trkpt lat="42.054839115589857" lon="-8.88818085193634">
        <ele>6.48828125</ele>
      </trkpt>
      <trkpt lat="42.054839115589857" lon="-8.888180097565055">
        <ele>6.49609375</ele>
      </trkpt>
      <trkpt lat="42.054948415607214" lon="-8.888127626851201">
        <ele>5.8671875</ele>
      </trkpt>
      <trkpt lat="42.054994432255626" lon="-8.88811782002449">
        <ele>5.78515625</ele>
      </trkpt>
      <trkpt lat="42.055032234638929" lon="-8.888110443949699">
        <ele>5.71484375</ele>
      </trkpt>
      <trkpt lat="42.055070791393518" lon="-8.888108599931002">
        <ele>5.6015625</ele>
      </trkpt>
      <trkpt lat="42.055112114176154" lon="-8.888106420636177">
        <ele>5.48046875</ele>
      </trkpt>
      <trkpt lat="42.055158466100693" lon="-8.888105330988765">
        <ele>5.3359375</ele>
      </trkpt>
      <trkpt lat="42.055206242948771" lon="-8.88810658827424">
        <ele>5.16796875</ele>
      </trkpt>
      <trkpt lat="42.055257624015212" lon="-8.888108935207129">
        <ele>4.984375</ele>
      </trkpt>
      <trkpt lat="42.055300204083323" lon="-8.888112287968397">
        <ele>4.82421875</ele>
      </trkpt>
      <trkpt lat="42.055338509380817" lon="-8.888114215806127">
        <ele>4.6875</ele>
      </trkpt>
      <trkpt lat="42.055376311764121" lon="-8.888117987662554">
        <ele>4.54296875</ele>
      </trkpt>
      <trkpt lat="42.05541729927063" lon="-8.888127878308296">
        <ele>4.39453125</ele>
      </trkpt>
      <trkpt lat="42.055435990914702" lon="-8.88813391327858">
        <ele>4.3359375</ele>
      </trkpt>
      <trkpt lat="42.056612391024828" lon="-8.888610424473882">
        <ele>5.89453125</ele>
      </trkpt>
      <trkpt lat="42.056612391024828" lon="-8.888611178845167">
        <ele>5.89453125</ele>
      </trkpt>
      <trkpt lat="42.057585278525949" lon="-8.889025747776031">
        <ele>8.59375</ele>
      </trkpt>
      <trkpt lat="42.058491697534919" lon="-8.889414668083191">
        <ele>11.5703125</ele>
      </trkpt>
      <trkpt lat="42.058491697534919" lon="-8.889415422454476">
        <ele>11.5625</ele>
      </trkpt>
      <trkpt lat="42.059089075773954" lon="-8.889644248411059">
        <ele>14.1796875</ele>
      </trkpt>
      <trkpt lat="42.059128805994987" lon="-8.889649529010057">
        <ele>14.31640625</ele>
      </trkpt>
      <trkpt lat="42.059173816815019" lon="-8.889656234532595">
        <ele>14.4296875</ele>
      </trkpt>
      <trkpt lat="42.059216313064098" lon="-8.889664532616735">
        <ele>14.515625</ele>
      </trkpt>
      <trkpt lat="42.059256210923195" lon="-8.889670316129923">
        <ele>14.6171875</ele>
      </trkpt>
      <trkpt lat="42.059295270591974" lon="-8.889676770195365">
        <ele>14.70703125</ele>
      </trkpt>
      <trkpt lat="42.059342795982957" lon="-8.889683559536934">
        <ele>14.82421875</ele>
      </trkpt>
      <trkpt lat="42.059387974441051" lon="-8.889689175412059">
        <ele>14.9453125</ele>
      </trkpt>
      <trkpt lat="42.059432985261083" lon="-8.889694875106215">
        <ele>15.05859375</ele>
      </trkpt>
      <trkpt lat="42.059473386034369" lon="-8.88970241881907">
        <ele>15.13671875</ele>
      </trkpt>
      <trkpt lat="42.059511272236705" lon="-8.889712058007717">
        <ele>15.17578125</ele>
      </trkpt>
      <trkpt lat="42.059548068791628" lon="-8.889725133776665">
        <ele>15.16796875</ele>
      </trkpt>
      <trkpt lat="42.059585954993963" lon="-8.889736365526915">
        <ele>15.1640625</ele>
      </trkpt>
      <trkpt lat="42.059597773477435" lon="-8.8897405564785">
        <ele>15.15234375</ele>
      </trkpt>
      <trkpt lat="42.060729833319783" lon="-8.890191083773971">
        <ele>10.21484375</ele>
      </trkpt>
      <trkpt lat="42.060730420053005" lon="-8.890191083773971">
        <ele>10.21484375</ele>
      </trkpt>
      <trkpt lat="42.061716299504042" lon="-8.890599366277456">
        <ele>9.69140625</ele>
      </trkpt>
      <trkpt lat="42.062367992475629" lon="-8.890876639634371">
        <ele>9.76953125</ele>
      </trkpt>
      <trkpt lat="42.063004598021507" lon="-8.891161708161235">
        <ele>12.4609375</ele>
      </trkpt>
      <trkpt lat="42.063916632905602" lon="-8.891551969572902">
        <ele>17.83203125</ele>
      </trkpt>
      <trkpt lat="42.06391604617238" lon="-8.891553478315473">
        <ele>17.8125</ele>
      </trkpt>
      <trkpt lat="42.064087456092238" lon="-8.891614582389593">
        <ele>18.83203125</ele>
      </trkpt>
      <trkpt lat="42.064123079180717" lon="-8.891631681472063">
        <ele>19.00390625</ele>
      </trkpt>
      <trkpt lat="42.064160378649831" lon="-8.891646265983582">
        <ele>19.2109375</ele>
      </trkpt>
      <trkpt lat="42.064200863242149" lon="-8.891664203256369">
        <ele>19.42578125</ele>
      </trkpt>
      <trkpt lat="42.064239587634802" lon="-8.891680799424648">
        <ele>19.64453125</ele>
      </trkpt>
      <trkpt lat="42.064276551827788" lon="-8.891698233783245">
        <ele>19.83203125</ele>
      </trkpt>
      <trkpt lat="42.064317120239139" lon="-8.891717260703444">
        <ele>20.03515625</ele>
      </trkpt>
      <trkpt lat="42.064357604831457" lon="-8.891731258481741">
        <ele>20.28125</ele>
      </trkpt>
      <trkpt lat="42.064396245405078" lon="-8.89174441806972">
        <ele>20.51953125</ele>
      </trkpt>
      <trkpt lat="42.064432539045811" lon="-8.891760930418968">
        <ele>20.6953125</ele>
      </trkpt>
      <trkpt lat="42.064471431076527" lon="-8.891777275130153">
        <ele>20.89453125</ele>
      </trkpt>
      <trkpt lat="42.064512921497226" lon="-8.891795799136162">
        <ele>21.09375</ele>
      </trkpt>
      <trkpt lat="42.064555082470179" lon="-8.891812562942505">
        <ele>21.3125</ele>
      </trkpt>
      <trkpt lat="42.064591962844133" lon="-8.891825135797262">
        <ele>21.51953125</ele>
      </trkpt>
      <trkpt lat="42.064635716378689" lon="-8.891846090555191">
        <ele>21.69921875</ele>
      </trkpt>
      <trkpt lat="42.064679050818086" lon="-8.891866374760866">
        <ele>21.8125</ele>
      </trkpt>
      <trkpt lat="42.06472079269588" lon="-8.891886407509446">
        <ele>21.88671875</ele>
      </trkpt>
      <trkpt lat="42.06475792452693" lon="-8.89190367422998">
        <ele>21.953125</ele>
      </trkpt>
      <trkpt lat="42.064801175147295" lon="-8.891923958435655">
        <ele>22.0234375</ele>
      </trkpt>
      <trkpt lat="42.064837887883186" lon="-8.891943152993917">
        <ele>22.05078125</ele>
      </trkpt>
      <trkpt lat="42.064878959208727" lon="-8.891959665343165">
        <ele>22.1328125</ele>
      </trkpt>
      <trkpt lat="42.064922461286187" lon="-8.891974417492747">
        <ele>22.25</ele>
      </trkpt>
      <trkpt lat="42.064962275326252" lon="-8.891995204612613">
        <ele>22.26171875</ele>
      </trkpt>
      <trkpt lat="42.064980380237103" lon="-8.892005430534482">
        <ele>22.25390625</ele>
      </trkpt>
      <trkpt lat="42.065944466739893" lon="-8.892376916483045">
        <ele>20.4765625</ele>
      </trkpt>
      <trkpt lat="42.066749129444361" lon="-8.892712276428938">
        <ele>20</ele>
      </trkpt>
      <trkpt lat="42.066749129444361" lon="-8.892713030800223">
        <ele>19.98828125</ele>
      </trkpt>
      <trkpt lat="42.067772140726447" lon="-8.893092814832926">
        <ele>22.2734375</ele>
      </trkpt>
      <trkpt lat="42.067826706916094" lon="-8.893117709085345">
        <ele>22.1484375</ele>
      </trkpt>
      <trkpt lat="42.067885380238295" lon="-8.893148135393858">
        <ele>21.9453125</ele>
      </trkpt>
      <trkpt lat="42.06794279627502" lon="-8.893168168142438">
        <ele>21.79296875</ele>
      </trkpt>
      <trkpt lat="42.068005157634616" lon="-8.893181914463639">
        <ele>21.7265625</ele>
      </trkpt>
      <trkpt lat="42.06806399859488" lon="-8.893186524510384">
        <ele>21.77734375</ele>
      </trkpt>
      <trkpt lat="42.068119989708066" lon="-8.893189206719398">
        <ele>21.84765625</ele>
      </trkpt>
      <trkpt lat="42.06815192475915" lon="-8.893240503966808">
        <ele>21.31640625</ele>
      </trkpt>
      <trkpt lat="42.068165419623256" lon="-8.893317198380828">
        <ele>20.47265625</ele>
      </trkpt>
      <trkpt lat="42.068171203136444" lon="-8.893403699621558">
        <ele>19.5</ele>
      </trkpt>
      <trkpt lat="42.068175142630935" lon="-8.893476873636246">
        <ele>18.67578125</ele>
      </trkpt>
      <trkpt lat="42.068181680515409" lon="-8.893558345735073">
        <ele>17.7578125</ele>
      </trkpt>
      <trkpt lat="42.068185703828931" lon="-8.893642667680979">
        <ele>16.80078125</ele>
      </trkpt>
      <trkpt lat="42.068193918094039" lon="-8.893718440085649">
        <ele>16.09375</ele>
      </trkpt>
      <trkpt lat="42.068225936964154" lon="-8.89377367682755">
        <ele>15.61328125</ele>
      </trkpt>
      <trkpt lat="42.068282514810562" lon="-8.893790189176798">
        <ele>15.48828125</ele>
      </trkpt>
      <trkpt lat="42.068345127627254" lon="-8.893785662949085">
        <ele>15.55859375</ele>
      </trkpt>
      <trkpt lat="42.068398436531425" lon="-8.893772922456264">
        <ele>15.51171875</ele>
      </trkpt>
      <trkpt lat="42.068450823426247" lon="-8.893756493926048">
        <ele>15.484375</ele>
      </trkpt>
      <trkpt lat="42.068504551425576" lon="-8.893737467005849">
        <ele>15.4765625</ele>
      </trkpt>
      <trkpt lat="42.06856925971806" lon="-8.893719194456935">
        <ele>15.4296875</ele>
      </trkpt>
      <trkpt lat="42.068630279973149" lon="-8.893702682107687">
        <ele>15.3828125</ele>
      </trkpt>
      <trkpt lat="42.068692808970809" lon="-8.893688600510359">
        <ele>15.30859375</ele>
      </trkpt>
      <trkpt lat="42.068747039884329" lon="-8.893668567761779">
        <ele>15.32421875</ele>
      </trkpt>
      <trkpt lat="42.068801270797849" lon="-8.893651384860277">
        <ele>15.3203125</ele>
      </trkpt>
      <trkpt lat="42.068858854472637" lon="-8.893636045977473">
        <ele>15.34375</ele>
      </trkpt>
      <trkpt lat="42.068917946889997" lon="-8.893620539456606">
        <ele>15.375</ele>
      </trkpt>
      <trkpt lat="42.068973602727056" lon="-8.89360754750669">
        <ele>15.390625</ele>
      </trkpt>
      <trkpt lat="42.069029426202178" lon="-8.893595980480313">
        <ele>15.38671875</ele>
      </trkpt>
      <trkpt lat="42.069088770076632" lon="-8.893589358776808">
        <ele>15.31640625</ele>
      </trkpt>
      <trkpt lat="42.069144425913692" lon="-8.893583659082651">
        <ele>15.24609375</ele>
      </trkpt>
      <trkpt lat="42.069198489189148" lon="-8.893591286614537">
        <ele>15.015625</ele>
      </trkpt>
      <trkpt lat="42.069249032065272" lon="-8.893623389303684">
        <ele>14.484375</ele>
      </trkpt>
      <trkpt lat="42.069301921874285" lon="-8.893657503649592">
        <ele>14.015625</ele>
      </trkpt>
      <trkpt lat="42.069356152787805" lon="-8.893672758713365">
        <ele>13.8984375</ele>
      </trkpt>
      <trkpt lat="42.069415329024196" lon="-8.893675692379475">
        <ele>13.90625</ele>
      </trkpt>
      <trkpt lat="42.069469643756747" lon="-8.893665131181479">
        <ele>14.046875</ele>
      </trkpt>
      <trkpt lat="42.06952353939414" lon="-8.893665298819542">
        <ele>14.08203125</ele>
      </trkpt>
      <trkpt lat="42.069564862176776" lon="-8.893718272447586">
        <ele>13.5625</ele>
      </trkpt>
      <trkpt lat="42.069577937945724" lon="-8.893788764253259">
        <ele>12.84375</ele>
      </trkpt>
      <trkpt lat="42.069589169695973" lon="-8.893865961581469">
        <ele>12.05078125</ele>
      </trkpt>
      <trkpt lat="42.069610208272934" lon="-8.893938213586807">
        <ele>11.30859375</ele>
      </trkpt>
      <trkpt lat="42.069631917402148" lon="-8.894010046496987">
        <ele>10.5703125</ele>
      </trkpt>
      <trkpt lat="42.06967449747026" lon="-8.894064612686634">
        <ele>10.0078125</ele>
      </trkpt>
      <trkpt lat="42.069721519947052" lon="-8.894104510545731">
        <ele>9.58984375</ele>
      </trkpt>
      <trkpt lat="42.069769883528352" lon="-8.894134601578116">
        <ele>9.234375</ele>
      </trkpt>
      <trkpt lat="42.069825287908316" lon="-8.894145665690303">
        <ele>9.0078125</ele>
      </trkpt>
      <trkpt lat="42.069883542135358" lon="-8.89414700679481">
        <ele>8.84765625</ele>
      </trkpt>
      <trkpt lat="42.069938275963068" lon="-8.894129656255245">
        <ele>8.8359375</ele>
      </trkpt>
      <trkpt lat="42.069996111094952" lon="-8.894110964611173">
        <ele>8.84375</ele>
      </trkpt>
      <trkpt lat="42.070052940398455" lon="-8.894104678183794">
        <ele>8.765625</ele>
      </trkpt>
      <trkpt lat="42.070108680054545" lon="-8.894112221896648">
        <ele>8.53515625</ele>
      </trkpt>
      <trkpt lat="42.070167604833841" lon="-8.894088417291641">
        <ele>8.64453125</ele>
      </trkpt>
      <trkpt lat="42.070214375853539" lon="-8.894052123650908">
        <ele>8.8828125</ele>
      </trkpt>
      <trkpt lat="42.070249747484922" lon="-8.894021194428205">
        <ele>9.01953125</ele>
      </trkpt>
      <trkpt lat="42.070354437455535" lon="-8.893974423408508">
        <ele>8.921875</ele>
      </trkpt>
      <trkpt lat="42.070415709167719" lon="-8.893957240507007">
        <ele>8.75</ele>
      </trkpt>
      <trkpt lat="42.070472873747349" lon="-8.893944164738059">
        <ele>8.55859375</ele>
      </trkpt>
      <trkpt lat="42.070531882345676" lon="-8.89393150806427">
        <ele>8.3515625</ele>
      </trkpt>
      <trkpt lat="42.070588124915957" lon="-8.893919102847576">
        <ele>8.15625</ele>
      </trkpt>
      <trkpt lat="42.070642272010446" lon="-8.893907032907009">
        <ele>7.96875</ele>
      </trkpt>
      <trkpt lat="42.070700274780393" lon="-8.89389144256711">
        <ele>7.8984375</ele>
      </trkpt>
      <trkpt lat="42.070755679160357" lon="-8.893877612426877">
        <ele>7.8671875</ele>
      </trkpt>
      <trkpt lat="42.070810748264194" lon="-8.893846431747079">
        <ele>8.0234375</ele>
      </trkpt>
      <trkpt lat="42.070862296968699" lon="-8.893810892477632">
        <ele>8.2265625</ele>
      </trkpt>
      <trkpt lat="42.070914097130299" lon="-8.893784573301673">
        <ele>8.3203125</ele>
      </trkpt>
      <trkpt lat="42.070964304730296" lon="-8.893752219155431">
        <ele>8.47265625</ele>
      </trkpt>
      <trkpt lat="42.071012249216437" lon="-8.893718691542745">
        <ele>8.640625</ele>
      </trkpt>
      <trkpt lat="42.071056254208088" lon="-8.893672507256269">
        <ele>8.94140625</ele>
      </trkpt>
      <trkpt lat="42.071104366332293" lon="-8.893626406788826">
        <ele>9.24609375</ele>
      </trkpt>
      <trkpt lat="42.071147952228785" lon="-8.893579803407192">
        <ele>9.625</ele>
      </trkpt>
      <trkpt lat="42.071193549782038" lon="-8.893536133691669">
        <ele>9.984375</ele>
      </trkpt>
      <trkpt lat="42.07124300301075" lon="-8.89349271543324">
        <ele>10.32421875</ele>
      </trkpt>
      <trkpt lat="42.071293545886874" lon="-8.893464049324393">
        <ele>10.4921875</ele>
      </trkpt>
      <trkpt lat="42.071344591677189" lon="-8.893439741805196">
        <ele>10.609375</ele>
      </trkpt>
      <trkpt lat="42.071404019370675" lon="-8.893416104838252">
        <ele>10.6875</ele>
      </trkpt>
      <trkpt lat="42.071460848674178" lon="-8.893393641337752">
        <ele>10.76171875</ele>
      </trkpt>
      <trkpt lat="42.071516336873174" lon="-8.893375704064965">
        <ele>10.78515625</ele>
      </trkpt>
      <trkpt lat="42.071564868092537" lon="-8.893344355747104">
        <ele>10.96875</ele>
      </trkpt>
      <trkpt lat="42.071604682132602" lon="-8.89329188503325">
        <ele>11.44140625</ele>
      </trkpt>
      <trkpt lat="42.071652375161648" lon="-8.89325425028801">
        <ele>11.828125</ele>
      </trkpt>
      <trkpt lat="42.071709288284183" lon="-8.893236815929413">
        <ele>12.0078125</ele>
      </trkpt>
      <trkpt lat="42.071763603016734" lon="-8.89322055503726">
        <ele>12.1796875</ele>
      </trkpt>
      <trkpt lat="42.071802830323577" lon="-8.893167581409216">
        <ele>12.8984375</ele>
      </trkpt>
      <trkpt lat="42.071809954941273" lon="-8.893094407394528">
        <ele>14.078125</ele>
      </trkpt>
      <trkpt lat="42.07177902571857" lon="-8.893034560605884">
        <ele>15.0390625</ele>
      </trkpt>
      <trkpt lat="42.071735356003046" lon="-8.892998266965151">
        <ele>15.609375</ele>
      </trkpt>
      <trkpt lat="42.07168280147016" lon="-8.892979072406888">
        <ele>15.90234375</ele>
      </trkpt>
      <trkpt lat="42.071629241108894" lon="-8.892966667190194">
        <ele>16.08203125</ele>
      </trkpt>
      <trkpt lat="42.071567550301552" lon="-8.892968511208892">
        <ele>16.10546875</ele>
      </trkpt>
      <trkpt lat="42.071512145921588" lon="-8.892977312207222">
        <ele>16.15234375</ele>
      </trkpt>
      <trkpt lat="42.071456406265497" lon="-8.892986783757806">
        <ele>16.18359375</ele>
      </trkpt>
      <trkpt lat="42.071400079876184" lon="-8.892999943345785">
        <ele>16.16015625</ele>
      </trkpt>
      <trkpt lat="42.071345932781696" lon="-8.893008241429925">
        <ele>16.20703125</ele>
      </trkpt>
      <trkpt lat="42.071276279166341" lon="-8.893013019114733">
        <ele>16.36328125</ele>
      </trkpt>
      <trkpt lat="42.071217522025108" lon="-8.893013019114733">
        <ele>16.5546875</ele>
      </trkpt>
      <trkpt lat="42.071158513426781" lon="-8.89300849288702">
        <ele>16.8203125</ele>
      </trkpt>
      <trkpt lat="42.071104282513261" lon="-8.892995249480009">
        <ele>17.23828125</ele>
      </trkpt>
      <trkpt lat="42.071046782657504" lon="-8.892968175932765">
        <ele>17.9296875</ele>
      </trkpt>
      <trkpt lat="42.070996407419443" lon="-8.892936324700713">
        <ele>18.66796875</ele>
      </trkpt>
      <trkpt lat="42.070938320830464" lon="-8.892908999696374">
        <ele>19.3671875</ele>
      </trkpt>
      <trkpt lat="42.070881659165025" lon="-8.892887374386191">
        <ele>19.96875</ele>
      </trkpt>
      <trkpt lat="42.070823488757014" lon="-8.892868179827929">
        <ele>20.54296875</ele>
      </trkpt>
      <trkpt lat="42.070768419653177" lon="-8.892853343859315">
        <ele>21.03125</ele>
      </trkpt>
      <trkpt lat="42.070710835978389" lon="-8.892839094623923">
        <ele>21.51953125</ele>
      </trkpt>
      <trkpt lat="42.070658197626472" lon="-8.892821995541453">
        <ele>22.0390625</ele>
      </trkpt>
      <trkpt lat="42.070604301989079" lon="-8.892798274755478">
        <ele>22.734375</ele>
      </trkpt>
      <trkpt lat="42.070589046925306" lon="-8.892746055498719">
        <ele>23.65234375</ele>
      </trkpt>
      <trkpt lat="42.070630956441164" lon="-8.892697440460324">
        <ele>24.1953125</ele>
      </trkpt>
      <trkpt lat="42.070676973089576" lon="-8.892655279487371">
        <ele>24.63671875</ele>
      </trkpt>
      <trkpt lat="42.070735394954681" lon="-8.89263222925365">
        <ele>24.76171875</ele>
      </trkpt>
      <trkpt lat="42.070797756314278" lon="-8.89261513017118">
        <ele>24.78125</ele>
      </trkpt>
      <trkpt lat="42.070858273655176" lon="-8.89260046184063">
        <ele>24.7734375</ele>
      </trkpt>
      <trkpt lat="42.07092197611928" lon="-8.892588978633285">
        <ele>24.69921875</ele>
      </trkpt>
      <trkpt lat="42.070985594764352" lon="-8.892575651407242">
        <ele>24.6640625</ele>
      </trkpt>
      <trkpt lat="42.071041334420443" lon="-8.892565006390214">
        <ele>24.6171875</ele>
      </trkpt>
      <trkpt lat="42.071100091561675" lon="-8.892552014440298">
        <ele>24.60546875</ele>
      </trkpt>
      <trkpt lat="42.071164632216096" lon="-8.892536927014589">
        <ele>24.65234375</ele>
      </trkpt>
      <trkpt lat="42.071229089051485" lon="-8.892524354159832">
        <ele>24.6796875</ele>
      </trkpt>
      <trkpt lat="42.071284661069512" lon="-8.892514295876026">
        <ele>24.6953125</ele>
      </trkpt>
      <trkpt lat="42.071340316906571" lon="-8.89250423759222">
        <ele>24.7109375</ele>
      </trkpt>
      <trkpt lat="42.071397732943296" lon="-8.892491329461336">
        <ele>24.77734375</ele>
      </trkpt>
      <trkpt lat="42.071451796218753" lon="-8.892479343339801">
        <ele>24.8359375</ele>
      </trkpt>
      <trkpt lat="42.071512481197715" lon="-8.892467524856329">
        <ele>24.875</ele>
      </trkpt>
      <trkpt lat="42.071568137034774" lon="-8.892460400238633">
        <ele>24.84375</ele>
      </trkpt>
      <trkpt lat="42.071612058207393" lon="-8.892456544563174">
        <ele>24.87890625</ele>
      </trkpt>
      <trkpt lat="42.072753254324198" lon="-8.892513625323772">
        <ele>26.0234375</ele>
      </trkpt>
      <trkpt lat="42.074711937457323" lon="-8.892652010545135">
        <ele>29.4140625</ele>
      </trkpt>
      <trkpt lat="42.074711937457323" lon="-8.892653100192547">
        <ele>29.39453125</ele>
      </trkpt>
      <trkpt lat="42.075355499982834" lon="-8.892724765464664">
        <ele>30.703125</ele>
      </trkpt>
      <trkpt lat="42.075355499982834" lon="-8.892723759636283">
        <ele>30.71875</ele>
      </trkpt>
      <trkpt lat="42.076476076617837" lon="-8.893023412674665">
        <ele>34.90625</ele>
      </trkpt>
      <trkpt lat="42.076476914808154" lon="-8.893022406846285">
        <ele>34.93359375</ele>
      </trkpt>
      <trkpt lat="42.07669266499579" lon="-8.893105136230588">
        <ele>35.29296875</ele>
      </trkpt>
      <trkpt lat="42.076745722442865" lon="-8.893131874501705">
        <ele>35.35546875</ele>
      </trkpt>
      <trkpt lat="42.076796600595117" lon="-8.893157187849283">
        <ele>35.42578125</ele>
      </trkpt>
      <trkpt lat="42.076848987489939" lon="-8.893192727118731">
        <ele>35.328125</ele>
      </trkpt>
      <trkpt lat="42.076902212575078" lon="-8.893230026587844">
        <ele>35.53515625</ele>
      </trkpt>
      <trkpt lat="42.076950995251536" lon="-8.893261710181832">
        <ele>35.7421875</ele>
      </trkpt>
      <trkpt lat="42.077011009678245" lon="-8.893299680203199">
        <ele>36</ele>
      </trkpt>
      <trkpt lat="42.077058535069227" lon="-8.893334465101361">
        <ele>36.15234375</ele>
      </trkpt>
      <trkpt lat="42.077109664678574" lon="-8.893372686579823">
        <ele>36.3046875</ele>
      </trkpt>
      <trkpt lat="42.07715542986989" lon="-8.893411243334413">
        <ele>36.35546875</ele>
      </trkpt>
      <trkpt lat="42.07720429636538" lon="-8.89344141818583">
        <ele>36.421875</ele>
      </trkpt>
      <trkpt lat="42.077207816764712" lon="-8.893444687128067">
        <ele>36.4140625</ele>
      </trkpt>
      <trkpt lat="42.077435050159693" lon="-8.893571505323052">
        <ele>36.703125</ele>
      </trkpt>
      <trkpt lat="42.077486431226134" lon="-8.893596651032567">
        <ele>36.77734375</ele>
      </trkpt>
      <trkpt lat="42.077538566663861" lon="-8.893621461465955">
        <ele>36.84375</ele>
      </trkpt>
      <trkpt lat="42.077595563605428" lon="-8.893641075119376">
        <ele>36.99609375</ele>
      </trkpt>
      <trkpt lat="42.077653482556343" lon="-8.89365985058248">
        <ele>36.66796875</ele>
      </trkpt>
      <trkpt lat="42.077707042917609" lon="-8.893677033483982">
        <ele>36.3125</ele>
      </trkpt>
      <trkpt lat="42.077770745381713" lon="-8.893695222213864">
        <ele>35.890625</ele>
      </trkpt>
      <trkpt lat="42.077826568856835" lon="-8.893709890544415">
        <ele>35.51953125</ele>
      </trkpt>
      <trkpt lat="42.077885493636131" lon="-8.893712488934398">
        <ele>35.26171875</ele>
      </trkpt>
      <trkpt lat="42.077941400930285" lon="-8.893711064010859">
        <ele>35.0625</ele>
      </trkpt>
      <trkpt lat="42.078004265204072" lon="-8.893706453964114">
        <ele>34.8828125</ele>
      </trkpt>
      <trkpt lat="42.078058328479528" lon="-8.893702095374465">
        <ele>34.734375</ele>
      </trkpt>
      <trkpt lat="42.078115493059158" lon="-8.893693378195167">
        <ele>34.35546875</ele>
      </trkpt>
      <trkpt lat="42.078175926581025" lon="-8.893677201122046">
        <ele>34.01953125</ele>
      </trkpt>
      <trkpt lat="42.078236611559987" lon="-8.893651552498341">
        <ele>33.83984375</ele>
      </trkpt>
      <trkpt lat="42.078287154436111" lon="-8.893623892217875">
        <ele>33.8203125</ele>
      </trkpt>
      <trkpt lat="42.078342139720917" lon="-8.893594387918711">
        <ele>33.80078125</ele>
      </trkpt>
      <trkpt lat="42.078401315957308" lon="-8.893564883619547">
        <ele>33.76171875</ele>
      </trkpt>
      <trkpt lat="42.078455127775669" lon="-8.893540240824223">
        <ele>33.69921875</ele>
      </trkpt>
      <trkpt lat="42.078460576012731" lon="-8.893537055701017">
        <ele>33.70703125</ele>
      </trkpt>
      <trkpt lat="42.078663250431418" lon="-8.893409399315715">
        <ele>32.953125</ele>
      </trkpt>
      <trkpt lat="42.078987043350935" lon="-8.893111003562808">
        <ele>32.44921875</ele>
      </trkpt>
      <trkpt lat="42.079266998916864" lon="-8.892800286412239">
        <ele>31.71484375</ele>
      </trkpt>
      <trkpt lat="42.079650219529867" lon="-8.89242016710341">
        <ele>30.87109375</ele>
      </trkpt>
      <trkpt lat="42.079693302512169" lon="-8.892375491559505">
        <ele>30.73828125</ele>
      </trkpt>
      <trkpt lat="42.079743258655071" lon="-8.892323523759842">
        <ele>30.55859375</ele>
      </trkpt>
      <trkpt lat="42.079792208969593" lon="-8.892274824902415">
        <ele>30.31640625</ele>
      </trkpt>
      <trkpt lat="42.07984384149313" lon="-8.892220593988895">
        <ele>30.3515625</ele>
      </trkpt>
      <trkpt lat="42.079891366884112" lon="-8.892167787998915">
        <ele>30.4765625</ele>
      </trkpt>
      <trkpt lat="42.079933611676097" lon="-8.892121519893408">
        <ele>30.5390625</ele>
      </trkpt>
      <trkpt lat="42.079974934458733" lon="-8.892071982845664">
        <ele>30.65234375</ele>
      </trkpt>
      <trkpt lat="42.080014497041702" lon="-8.892012219876051">
        <ele>31.0078125</ele>
      </trkpt>
      <trkpt lat="42.080047437921166" lon="-8.891954636201262">
        <ele>31.453125</ele>
      </trkpt>
      <trkpt lat="42.080081049352884" lon="-8.891891939565539">
        <ele>31.953125</ele>
      </trkpt>
      <trkpt lat="42.080116588622332" lon="-8.891827650368214">
        <ele>32.39453125</ele>
      </trkpt>
      <trkpt lat="42.080155899748206" lon="-8.891760678961873">
        <ele>32.82421875</ele>
      </trkpt>
      <trkpt lat="42.080194456502795" lon="-8.891699491068721">
        <ele>33.16015625</ele>
      </trkpt>
      <trkpt lat="42.080227481201291" lon="-8.891641991212964">
        <ele>33.55078125</ele>
      </trkpt>
      <trkpt lat="42.080265115946531" lon="-8.891576696187258">
        <ele>33.96875</ele>
      </trkpt>
      <trkpt lat="42.080301996320486" lon="-8.89150838367641">
        <ele>34.4609375</ele>
      </trkpt>
      <trkpt lat="42.080336026847363" lon="-8.891441663727164">
        <ele>34.984375</ele>
      </trkpt>
      <trkpt lat="42.08036913536489" lon="-8.891381230205297">
        <ele>35.3671875</ele>
      </trkpt>
      <trkpt lat="42.080404842272401" lon="-8.891321886330843">
        <ele>35.59765625</ele>
      </trkpt>
      <trkpt lat="42.080438705161214" lon="-8.89125726185739">
        <ele>35.9765625</ele>
      </trkpt>
      <trkpt lat="42.080472484230995" lon="-8.891197247430682">
        <ele>36.234375</ele>
      </trkpt>
      <trkpt lat="42.080494528636336" lon="-8.891165312379599">
        <ele>36.2265625</ele>
      </trkpt>
      <trkpt lat="42.080676415935159" lon="-8.891007229685783">
        <ele>33.6640625</ele>
      </trkpt>
      <trkpt lat="42.081680400297046" lon="-8.890209691599011">
        <ele>35.78125</ele>
      </trkpt>
      <trkpt lat="42.082004444673657" lon="-8.890028558671474">
        <ele>39.20703125</ele>
      </trkpt>
      <trkpt lat="42.082067392766476" lon="-8.890012968331575">
        <ele>39.703125</ele>
      </trkpt>
      <trkpt lat="42.082123970612884" lon="-8.889994528144598">
        <ele>40.25390625</ele>
      </trkpt>
      <trkpt lat="42.082177111878991" lon="-8.889975333586335">
        <ele>40.8203125</ele>
      </trkpt>
      <trkpt lat="42.082237042486668" lon="-8.889960246160626">
        <ele>41.3359375</ele>
      </trkpt>
      <trkpt lat="42.082299152389169" lon="-8.889945494011045">
        <ele>41.953125</ele>
      </trkpt>
      <trkpt lat="42.082363609224558" lon="-8.889937698841095">
        <ele>42.4296875</ele>
      </trkpt>
      <trkpt lat="42.082424378022552" lon="-8.889933172613382">
        <ele>42.8125</ele>
      </trkpt>
      <trkpt lat="42.082485565915704" lon="-8.889933172613382">
        <ele>43.1015625</ele>
      </trkpt>
      <trkpt lat="42.082539377734065" lon="-8.889935687184334">
        <ele>43.296875</ele>
      </trkpt>
      <trkpt lat="42.082597045227885" lon="-8.889948092401028">
        <ele>43.27734375</ele>
      </trkpt>
      <trkpt lat="42.082658987492323" lon="-8.889964604750276">
        <ele>43.17578125</ele>
      </trkpt>
      <trkpt lat="42.082716235890985" lon="-8.889986732974648">
        <ele>43.0078125</ele>
      </trkpt>
      <trkpt lat="42.082769377157092" lon="-8.890004837885499">
        <ele>43.03125</ele>
      </trkpt>
      <trkpt lat="42.082826960831881" lon="-8.890031911432743">
        <ele>42.8828125</ele>
      </trkpt>
      <trkpt lat="42.082882700487971" lon="-8.890050938352942">
        <ele>42.91015625</ele>
      </trkpt>
      <trkpt lat="42.08293542265892" lon="-8.890069965273142">
        <ele>42.91015625</ele>
      </trkpt>
      <trkpt lat="42.082989485934377" lon="-8.890085052698851">
        <ele>43.015625</ele>
      </trkpt>
      <trkpt lat="42.083045979961753" lon="-8.890102235600352">
        <ele>43.08984375</ele>
      </trkpt>
      <trkpt lat="42.083086716011167" lon="-8.890118496492505">
        <ele>43.0546875</ele>
      </trkpt>
      <trkpt lat="42.084065806120634" lon="-8.890425190329552">
        <ele>44.47265625</ele>
      </trkpt>
      <trkpt lat="42.085601286962628" lon="-8.890938581898808">
        <ele>34.7890625</ele>
      </trkpt>
      <trkpt lat="42.085600448772311" lon="-8.890938581898808">
        <ele>34.7890625</ele>
      </trkpt>
      <trkpt lat="42.086156085133553" lon="-8.891107141971588">
        <ele>33.11328125</ele>
      </trkpt>
      <trkpt lat="42.086209310218692" lon="-8.891117451712489">
        <ele>32.95703125</ele>
      </trkpt>
      <trkpt lat="42.086276197806001" lon="-8.891134299337864">
        <ele>32.69921875</ele>
      </trkpt>
      <trkpt lat="42.086331434547901" lon="-8.891150476410985">
        <ele>32.4453125</ele>
      </trkpt>
      <trkpt lat="42.08639488555491" lon="-8.891165731474757">
        <ele>32.19140625</ele>
      </trkpt>
      <trkpt lat="42.086450625211" lon="-8.891176460310817">
        <ele>31.98046875</ele>
      </trkpt>
      <trkpt lat="42.086513489484787" lon="-8.891182579100132">
        <ele>31.81640625</ele>
      </trkpt>
      <trkpt lat="42.086568474769592" lon="-8.891185848042369">
        <ele>31.69921875</ele>
      </trkpt>
      <trkpt lat="42.086634607985616" lon="-8.891185848042369">
        <ele>31.61328125</ele>
      </trkpt>
      <trkpt lat="42.086693700402975" lon="-8.891184255480766">
        <ele>31.55859375</ele>
      </trkpt>
      <trkpt lat="42.086757989600301" lon="-8.891181154176593">
        <ele>31.52734375</ele>
      </trkpt>
      <trkpt lat="42.08681708201766" lon="-8.891178136691451">
        <ele>31.50390625</ele>
      </trkpt>
      <trkpt lat="42.086883215233684" lon="-8.891173442825675">
        <ele>31.51953125</ele>
      </trkpt>
      <trkpt lat="42.086938368156552" lon="-8.891167072579265">
        <ele>31.59765625</ele>
      </trkpt>
      <trkpt lat="42.087004333734512" lon="-8.891159193590283">
        <ele>31.69921875</ele>
      </trkpt>
      <trkpt lat="42.087060324847698" lon="-8.89114729128778">
        <ele>31.8828125</ele>
      </trkpt>
      <trkpt lat="42.087117740884423" lon="-8.891138071194291">
        <ele>32.0234375</ele>
      </trkpt>
      <trkpt lat="42.087181275710464" lon="-8.891130611300468">
        <ele>32.1328125</ele>
      </trkpt>
      <trkpt lat="42.087251264601946" lon="-8.891129186376929">
        <ele>32.1328125</ele>
      </trkpt>
      <trkpt lat="42.087314045056701" lon="-8.891132287681103">
        <ele>32.046875</ele>
      </trkpt>
      <trkpt lat="42.087372718378901" lon="-8.891140501946211">
        <ele>32.16015625</ele>
      </trkpt>
      <trkpt lat="42.087427787482738" lon="-8.891153493896127">
        <ele>32.18359375</ele>
      </trkpt>
      <trkpt lat="42.087484700605273" lon="-8.891166653484106">
        <ele>32.20703125</ele>
      </trkpt>
      <trkpt lat="42.087542954832315" lon="-8.891179980710149">
        <ele>32.22265625</ele>
      </trkpt>
      <trkpt lat="42.087574973702431" lon="-8.891192469745874">
        <ele>32.12109375</ele>
      </trkpt>
      <trkpt lat="42.089447826147079" lon="-8.892306257039309">
        <ele>24.59765625</ele>
      </trkpt>
      <trkpt lat="42.089447826147079" lon="-8.892307346686721">
        <ele>24.578125</ele>
      </trkpt>
      <trkpt lat="42.089945208281279" lon="-8.892558300867677">
        <ele>24.25</ele>
      </trkpt>
      <trkpt lat="42.089946046471596" lon="-8.892558300867677">
        <ele>24.2578125</ele>
      </trkpt>
      <trkpt lat="42.091233087703586" lon="-8.893045037984848">
        <ele>21.59375</ele>
      </trkpt>
      <trkpt lat="42.091542882844806" lon="-8.893139669671655">
        <ele>22.1484375</ele>
      </trkpt>
      <trkpt lat="42.091601137071848" lon="-8.893158277496696">
        <ele>22.078125</ele>
      </trkpt>
      <trkpt lat="42.091657463461161" lon="-8.893179567530751">
        <ele>21.94140625</ele>
      </trkpt>
      <trkpt lat="42.09171119146049" lon="-8.893189458176494">
        <ele>21.984375</ele>
      </trkpt>
      <trkpt lat="42.091768775135279" lon="-8.893192308023572">
        <ele>22.1640625</ele>
      </trkpt>
      <trkpt lat="42.091821664944291" lon="-8.89317755587399">
        <ele>22.63671875</ele>
      </trkpt>
      <trkpt lat="42.091874051839113" lon="-8.893147464841604">
        <ele>23.390625</ele>
      </trkpt>
      <trkpt lat="42.091925600543618" lon="-8.893125168979168">
        <ele>24.015625</ele>
      </trkpt>
      <trkpt lat="42.091985363513231" lon="-8.893112596124411">
        <ele>24.4296875</ele>
      </trkpt>
      <trkpt lat="42.092041186988354" lon="-8.893112596124411">
        <ele>24.56640625</ele>
      </trkpt>
      <trkpt lat="42.092102291062474" lon="-8.8931252527982">
        <ele>24.46875</ele>
      </trkpt>
      <trkpt lat="42.092156521975994" lon="-8.893138328567147">
        <ele>24.33984375</ele>
      </trkpt>
      <trkpt lat="42.092211255803704" lon="-8.893148051574826">
        <ele>24.26953125</ele>
      </trkpt>
      <trkpt lat="42.092268755659461" lon="-8.893156936392188">
        <ele>24.21875</ele>
      </trkpt>
      <trkpt lat="42.092329524457455" lon="-8.893163222819567">
        <ele>24.22265625</ele>
      </trkpt>
      <trkpt lat="42.092387024313211" lon="-8.893163222819567">
        <ele>24.34375</ele>
      </trkpt>
      <trkpt lat="42.092445278540254" lon="-8.89315408654511">
        <ele>24.5703125</ele>
      </trkpt>
      <trkpt lat="42.092498335987329" lon="-8.8931321259588">
        <ele>25.01953125</ele>
      </trkpt>
      <trkpt lat="42.092546783387661" lon="-8.893100107088685">
        <ele>25.703125</ele>
      </trkpt>
      <trkpt lat="42.092601433396339" lon="-8.893072530627251">
        <ele>26.30859375</ele>
      </trkpt>
      <trkpt lat="42.09266010671854" lon="-8.893036404624581">
        <ele>27.125</ele>
      </trkpt>
      <trkpt lat="42.092715678736567" lon="-8.89299625530839">
        <ele>28.05078125</ele>
      </trkpt>
      <trkpt lat="42.092765802517533" lon="-8.892967673018575">
        <ele>28.734375</ele>
      </trkpt>
      <trkpt lat="42.092822883278131" lon="-8.892933391034603">
        <ele>29.57421875</ele>
      </trkpt>
      <trkpt lat="42.092882143333554" lon="-8.892902210354805">
        <ele>30.359375</ele>
      </trkpt>
      <trkpt lat="42.092936290428042" lon="-8.892883770167828">
        <ele>30.8203125</ele>
      </trkpt>
      <trkpt lat="42.09299580194056" lon="-8.892866000533104">
        <ele>31.28125</ele>
      </trkpt>
      <trkpt lat="42.093052128329873" lon="-8.892849236726761">
        <ele>31.7265625</ele>
      </trkpt>
      <trkpt lat="42.093112813308835" lon="-8.892829287797213">
        <ele>32.265625</ele>
      </trkpt>
      <trkpt lat="42.093165200203657" lon="-8.892808500677347">
        <ele>32.83203125</ele>
      </trkpt>
      <trkpt lat="42.093225717544556" lon="-8.892790982499719">
        <ele>33.3359375</ele>
      </trkpt>
      <trkpt lat="42.093290090560913" lon="-8.892775308340788">
        <ele>33.80859375</ele>
      </trkpt>
      <trkpt lat="42.093354631215334" lon="-8.892755107954144">
        <ele>34.375</ele>
      </trkpt>
      <trkpt lat="42.093409616500139" lon="-8.892740691080689">
        <ele>34.71875</ele>
      </trkpt>
      <trkpt lat="42.093465775251389" lon="-8.892719652503729">
        <ele>35.3125</ele>
      </trkpt>
      <trkpt lat="42.093519000336528" lon="-8.892698949202895">
        <ele>35.97265625</ele>
      </trkpt>
      <trkpt lat="42.09357775747776" lon="-8.892679922282696">
        <ele>36.56640625</ele>
      </trkpt>
      <trkpt lat="42.093638107180595" lon="-8.892663745209575">
        <ele>37.05859375</ele>
      </trkpt>
      <trkpt lat="42.093692841008306" lon="-8.892654022201896">
        <ele>37.3359375</ele>
      </trkpt>
      <trkpt lat="42.093756878748536" lon="-8.892645305022597">
        <ele>37.56640625</ele>
      </trkpt>
      <trkpt lat="42.093814546242356" lon="-8.892636084929109">
        <ele>37.80859375</ele>
      </trkpt>
      <trkpt lat="42.093873806297779" lon="-8.892623595893383">
        <ele>38.12109375</ele>
      </trkpt>
      <trkpt lat="42.093929462134838" lon="-8.892608508467674">
        <ele>38.5234375</ele>
      </trkpt>
      <trkpt lat="42.09398134611547" lon="-8.892587888985872">
        <ele>39.10546875</ele>
      </trkpt>
      <trkpt lat="42.094034152105451" lon="-8.892565174028277">
        <ele>39.74609375</ele>
      </trkpt>
      <trkpt lat="42.094090143218637" lon="-8.89253449626267">
        <ele>40.6328125</ele>
      </trkpt>
      <trkpt lat="42.094139093533158" lon="-8.892501555383205">
        <ele>41.59375</ele>
      </trkpt>
      <trkpt lat="42.09419583901763" lon="-8.892464675009251">
        <ele>42.65234375</ele>
      </trkpt>
      <trkpt lat="42.09425107575953" lon="-8.892427459359169">
        <ele>43.71875</ele>
      </trkpt>
      <trkpt lat="42.094287537038326" lon="-8.892391668632627">
        <ele>44.67578125</ele>
      </trkpt>
      <trkpt lat="42.094392143189907" lon="-8.892323942855">
        <ele>46.1640625</ele>
      </trkpt>
      <trkpt lat="42.094448385760188" lon="-8.892289660871029">
        <ele>46.84765625</ele>
      </trkpt>
      <trkpt lat="42.094504376873374" lon="-8.892251020297408">
        <ele>47.7265625</ele>
      </trkpt>
      <trkpt lat="42.094556260854006" lon="-8.892206260934472">
        <ele>48.93359375</ele>
      </trkpt>
      <trkpt lat="42.094606133177876" lon="-8.892154712229967">
        <ele>50.33984375</ele>
      </trkpt>
      <trkpt lat="42.094646785408258" lon="-8.892102157697082">
        <ele>51.79296875</ele>
      </trkpt>
      <trkpt lat="42.094684084877372" lon="-8.892049770802259">
        <ele>53.2265625</ele>
      </trkpt>
      <trkpt lat="42.09472892805934" lon="-8.891994701698422">
        <ele>54.6484375</ele>
      </trkpt>
      <trkpt lat="42.09477293305099" lon="-8.891939464956522">
        <ele>56.13671875</ele>
      </trkpt>
      <trkpt lat="42.094823224470019" lon="-8.891883809119463">
        <ele>57.55078125</ele>
      </trkpt>
      <trkpt lat="42.09486530162394" lon="-8.89183921739459">
        <ele>58.6328125</ele>
      </trkpt>
      <trkpt lat="42.09491659887135" lon="-8.891803678125143">
        <ele>59.3203125</ele>
      </trkpt>
      <trkpt lat="42.094974350184202" lon="-8.891792697831988">
        <ele>59.1796875</ele>
      </trkpt>
      <trkpt lat="42.095044422894716" lon="-8.891786830499768">
        <ele>58.7578125</ele>
      </trkpt>
      <trkpt lat="42.095100246369839" lon="-8.891786830499768">
        <ele>58.26953125</ele>
      </trkpt>
      <trkpt lat="42.095158835873008" lon="-8.891788171604276">
        <ele>57.71875</ele>
      </trkpt>
      <trkpt lat="42.095217006281018" lon="-8.891790769994259">
        <ele>57.28125</ele>
      </trkpt>
      <trkpt lat="42.095276350155473" lon="-8.891786495223641">
        <ele>57.16796875</ele>
      </trkpt>
      <trkpt lat="42.095334436744452" lon="-8.89177618548274">
        <ele>57.2265625</ele>
      </trkpt>
      <trkpt lat="42.095392690971494" lon="-8.891757410019636">
        <ele>57.51953125</ele>
      </trkpt>
      <trkpt lat="42.095452453941107" lon="-8.891750453040004">
        <ele>57.453125</ele>
      </trkpt>
      <trkpt lat="42.095509199425578" lon="-8.891744082793593">
        <ele>57.37890625</ele>
      </trkpt>
      <trkpt lat="42.095561167225242" lon="-8.891723128035665">
        <ele>57.71484375</ele>
      </trkpt>
      <trkpt lat="42.095610536634922" lon="-8.89168038032949">
        <ele>58.625</ele>
      </trkpt>
      <trkpt lat="42.09565294906497" lon="-8.891628328710794">
        <ele>59.7734375</ele>
      </trkpt>
      <trkpt lat="42.09569594822824" lon="-8.891582479700446">
        <ele>60.65625</ele>
      </trkpt>
      <trkpt lat="42.095745652914047" lon="-8.891534032300115">
        <ele>61.5390625</ele>
      </trkpt>
      <trkpt lat="42.0957912504673" lon="-8.891488937661052">
        <ele>62.34375</ele>
      </trkpt>
      <trkpt lat="42.095837015658617" lon="-8.891438813880086">
        <ele>63.26171875</ele>
      </trkpt>
      <trkpt lat="42.095878086984158" lon="-8.891391875222325">
        <ele>64.1171875</ele>
      </trkpt>
      <trkpt lat="42.095897030085325" lon="-8.891317527741194">
        <ele>65.83203125</ele>
      </trkpt>
      <trkpt lat="42.095903232693672" lon="-8.891241252422333">
        <ele>67.68359375</ele>
      </trkpt>
      <trkpt lat="42.095905831083655" lon="-8.891164725646377">
        <ele>69.5703125</ele>
      </trkpt>
      <trkpt lat="42.095905831083655" lon="-8.89108819887042">
        <ele>71.48046875</ele>
      </trkpt>
      <trkpt lat="42.095896694809198" lon="-8.891008570790291">
        <ele>73.5546875</ele>
      </trkpt>
      <trkpt lat="42.095888732001185" lon="-8.890932630747557">
        <ele>75.52734375</ele>
      </trkpt>
      <trkpt lat="42.095892000943422" lon="-8.890854008495808">
        <ele>77.609375</ele>
      </trkpt>
      <trkpt lat="42.095901388674974" lon="-8.890781169757247">
        <ele>79.76953125</ele>
      </trkpt>
      <trkpt lat="42.095920164138079" lon="-8.890712941065431">
        <ele>81.6796875</ele>
      </trkpt>
      <trkpt lat="42.095926534384489" lon="-8.890700787305832">
        <ele>81.98828125</ele>
      </trkpt>
      <trkpt lat="42.096146726980805" lon="-8.890582099556923">
        <ele>83.3671875</ele>
      </trkpt>
      <trkpt lat="42.096203807741404" lon="-8.890548152849078">
        <ele>83.90625</ele>
      </trkpt>
      <trkpt lat="42.096270695328712" lon="-8.89050624333322">
        <ele>84.6015625</ele>
      </trkpt>
      <trkpt lat="42.096324674785137" lon="-8.890483444556594">
        <ele>84.83203125</ele>
      </trkpt>
      <trkpt lat="42.09637756459415" lon="-8.890462154522538">
        <ele>85.0234375</ele>
      </trkpt>
      <trkpt lat="42.096433723345399" lon="-8.890437176451087">
        <ele>85.30078125</ele>
      </trkpt>
      <trkpt lat="42.096487199887633" lon="-8.890410689637065">
        <ele>85.6484375</ele>
      </trkpt>
      <trkpt lat="42.096535647287965" lon="-8.890371043235064">
        <ele>86.4609375</ele>
      </trkpt>
      <trkpt lat="42.096586609259248" lon="-8.890304993838072">
        <ele>88.1953125</ele>
      </trkpt>
      <trkpt lat="42.09663069806993" lon="-8.890244476497173">
        <ele>90.1171875</ele>
      </trkpt>
      <trkpt lat="42.096666740253568" lon="-8.890183204784989">
        <ele>92.08203125</ele>
      </trkpt>
      <trkpt lat="42.096700267866254" lon="-8.890120927244425">
        <ele>94.09765625</ele>
      </trkpt>
      <trkpt lat="42.096736561506987" lon="-8.890057308599353">
        <ele>96.1875</ele>
      </trkpt>
      <trkpt lat="42.096779309213161" lon="-8.889999305829406">
        <ele>98.140625</ele>
      </trkpt>
      <trkpt lat="42.096820129081607" lon="-8.889950187876821">
        <ele>99.8203125</ele>
      </trkpt>
      <trkpt lat="42.096866061910987" lon="-8.889905260875821">
        <ele>101.30859375</ele>
      </trkpt>
      <trkpt lat="42.096919035539031" lon="-8.889877013862133">
        <ele>102.3203125</ele>
      </trkpt>
      <trkpt lat="42.096974356099963" lon="-8.889869302511215">
        <ele>102.71484375</ele>
      </trkpt>
      <trkpt lat="42.09702841937542" lon="-8.889867961406708">
        <ele>102.9140625</ele>
      </trkpt>
      <trkpt lat="42.097086841240525" lon="-8.889870559796691">
        <ele>103.11328125</ele>
      </trkpt>
      <trkpt lat="42.09714082069695" lon="-8.889876091852784">
        <ele>103.21484375</ele>
      </trkpt>
      <trkpt lat="42.097196979448199" lon="-8.889881791546941">
        <ele>103.31640625</ele>
      </trkpt>
      <trkpt lat="42.097254563122988" lon="-8.889891766011715">
        <ele>103.28515625</ele>
      </trkpt>
      <trkpt lat="42.097310554236174" lon="-8.889904171228409">
        <ele>103.15625</ele>
      </trkpt>
      <trkpt lat="42.097366042435169" lon="-8.889930238947272">
        <ele>102.57421875</ele>
      </trkpt>
      <trkpt lat="42.097418764606118" lon="-8.889953289180994">
        <ele>102.05859375</ele>
      </trkpt>
      <trkpt lat="42.097472324967384" lon="-8.889968544244766">
        <ele>101.7578125</ele>
      </trkpt>
      <trkpt lat="42.097528818994761" lon="-8.889960749074817">
        <ele>102.49609375</ele>
      </trkpt>
      <trkpt lat="42.097586821764708" lon="-8.889940297231078">
        <ele>103.859375</ele>
      </trkpt>
      <trkpt lat="42.097643651068211" lon="-8.889927556738257">
        <ele>104.94140625</ele>
      </trkpt>
      <trkpt lat="42.097699977457523" lon="-8.889928897842765">
        <ele>105.53125</ele>
      </trkpt>
      <trkpt lat="42.097759237512946" lon="-8.88993987813592">
        <ele>105.8203125</ele>
      </trkpt>
      <trkpt lat="42.097815312445164" lon="-8.889949852600694">
        <ele>106.09765625</ele>
      </trkpt>
      <trkpt lat="42.097877589985728" lon="-8.889955719932914">
        <ele>106.58203125</ele>
      </trkpt>
      <trkpt lat="42.097935006022453" lon="-8.889958905056119">
        <ele>107.09375</ele>
      </trkpt>
      <trkpt lat="42.097989656031132" lon="-8.889960078522563">
        <ele>107.63671875</ele>
      </trkpt>
      <trkpt lat="42.098046150058508" lon="-8.88997994363308">
        <ele>107.41015625</ele>
      </trkpt>
      <trkpt lat="42.098092418164015" lon="-8.890023864805698">
        <ele>106.07421875</ele>
      </trkpt>
      <trkpt lat="42.098137931898236" lon="-8.890069043263793">
        <ele>104.66015625</ele>
      </trkpt>
      <trkpt lat="42.098187636584044" lon="-8.89010114595294">
        <ele>103.8203125</ele>
      </trkpt>
      <trkpt lat="42.098242789506912" lon="-8.890122855082154">
        <ele>103.453125</ele>
      </trkpt>
      <trkpt lat="42.098301127552986" lon="-8.890124196186662">
        <ele>103.96875</ele>
      </trkpt>
      <trkpt lat="42.098357873037457" lon="-8.890117825940251">
        <ele>104.796875</ele>
      </trkpt>
      <trkpt lat="42.098412103950977" lon="-8.890103073790669">
        <ele>105.9609375</ele>
      </trkpt>
      <trkpt lat="42.098464658483863" lon="-8.89008647762239">
        <ele>107.1953125</ele>
      </trkpt>
      <trkpt lat="42.098467340692878" lon="-8.890086561441422">
        <ele>107.21875</ele>
      </trkpt>
      <trkpt lat="42.098539005964994" lon="-8.890111958608031">
        <ele>106.86328125</ele>
      </trkpt>
      <trkpt lat="42.098590973764658" lon="-8.890132242813706">
        <ele>106.5390625</ele>
      </trkpt>
      <trkpt lat="42.098645037040114" lon="-8.890146240592003">
        <ele>106.51171875</ele>
      </trkpt>
      <trkpt lat="42.098704213276505" lon="-8.890146240592003">
        <ele>107.12109375</ele>
      </trkpt>
      <trkpt lat="42.098758276551962" lon="-8.890140121802688">
        <ele>107.9296875</ele>
      </trkpt>
      <trkpt lat="42.098812339827418" lon="-8.890159483999014">
        <ele>107.69921875</ele>
      </trkpt>
      <trkpt lat="42.098870342597365" lon="-8.890166860073805">
        <ele>108.00390625</ele>
      </trkpt>
      <trkpt lat="42.098926836624742" lon="-8.890159903094172">
        <ele>108.72265625</ele>
      </trkpt>
      <trkpt lat="42.098979726433754" lon="-8.890148587524891">
        <ele>109.51953125</ele>
      </trkpt>
      <trkpt lat="42.099035130813718" lon="-8.890142804011703">
        <ele>110.10546875</ele>
      </trkpt>
      <trkpt lat="42.099090367555618" lon="-8.890148252248764">
        <ele>110.2578125</ele>
      </trkpt>
      <trkpt lat="42.099141497164965" lon="-8.890175493434072">
        <ele>109.56640625</ele>
      </trkpt>
      <trkpt lat="42.099187597632408" lon="-8.890215726569295">
        <ele>108.38671875</ele>
      </trkpt>
      <trkpt lat="42.099239733070135" lon="-8.89024430885911">
        <ele>107.71484375</ele>
      </trkpt>
      <trkpt lat="42.099296394735575" lon="-8.890253696590662">
        <ele>107.80078125</ele>
      </trkpt>
      <trkpt lat="42.099352385848761" lon="-8.890257719904184">
        <ele>108.06640625</ele>
      </trkpt>
      <trkpt lat="42.099403431639075" lon="-8.890284541994333">
        <ele>107.28125</ele>
      </trkpt>
      <trkpt lat="42.099448693916202" lon="-8.890329636633396">
        <ele>105.87109375</ele>
      </trkpt>
      <trkpt lat="42.099498314782977" lon="-8.890355788171291">
        <ele>105.16796875</ele>
      </trkpt>
      <trkpt lat="42.09955464117229" lon="-8.890353105962276">
        <ele>105.48046875</ele>
      </trkpt>
      <trkpt lat="42.099610213190317" lon="-8.890335252508521">
        <ele>106.29296875</ele>
      </trkpt>
      <trkpt lat="42.099661929532886" lon="-8.89031320810318">
        <ele>107.203125</ele>
      </trkpt>
      <trkpt lat="42.099721021950245" lon="-8.890296276658773">
        <ele>107.95703125</ele>
      </trkpt>
      <trkpt lat="42.099783048033714" lon="-8.890283452346921">
        <ele>108.56640625</ele>
      </trkpt>
      <trkpt lat="42.099840296432376" lon="-8.890269873663783">
        <ele>109.00390625</ele>
      </trkpt>
      <trkpt lat="42.099895868450403" lon="-8.890266101807356">
        <ele>108.9609375</ele>
      </trkpt>
      <trkpt lat="42.09994750097394" lon="-8.890287140384316">
        <ele>108.1953125</ele>
      </trkpt>
      <trkpt lat="42.100001228973269" lon="-8.890302982181311">
        <ele>107.59375</ele>
      </trkpt>
      <trkpt lat="42.100057890638709" lon="-8.890304239466786">
        <ele>107.41796875</ele>
      </trkpt>
      <trkpt lat="42.100109858438373" lon="-8.890275070443749">
        <ele>108.109375</ele>
      </trkpt>
      <trkpt lat="42.10015763528645" lon="-8.890235004946589">
        <ele>109.08203125</ele>
      </trkpt>
      <trkpt lat="42.100207339972258" lon="-8.890201393514872">
        <ele>109.83203125</ele>
      </trkpt>
      <trkpt lat="42.10026073269546" lon="-8.890183456242085">
        <ele>110.125</ele>
      </trkpt>
      <trkpt lat="42.100316388532519" lon="-8.890187228098512">
        <ele>109.68359375</ele>
      </trkpt>
      <trkpt lat="42.100366512313485" lon="-8.890213379636407">
        <ele>108.66796875</ele>
      </trkpt>
      <trkpt lat="42.100405069068074" lon="-8.890271130949259">
        <ele>106.94140625</ele>
      </trkpt>
      <trkpt lat="42.100439602509141" lon="-8.890330223366618">
        <ele>105.234375</ele>
      </trkpt>
      <trkpt lat="42.100489558652043" lon="-8.890361739322543">
        <ele>104.16015625</ele>
      </trkpt>
      <trkpt lat="42.100545046851039" lon="-8.890378251671791">
        <ele>103.44140625</ele>
      </trkpt>
      <trkpt lat="42.100601708516479" lon="-8.890383196994662">
        <ele>103.0078125</ele>
      </trkpt>
      <trkpt lat="42.100659040734172" lon="-8.890368863940239">
        <ele>103.03125</ele>
      </trkpt>
      <trkpt lat="42.100713439285755" lon="-8.890344807878137">
        <ele>103.28515625</ele>
      </trkpt>
      <trkpt lat="42.10076741874218" lon="-8.890316560864449">
        <ele>103.6875</ele>
      </trkpt>
      <trkpt lat="42.100820476189256" lon="-8.890297533944249">
        <ele>103.90625</ele>
      </trkpt>
      <trkpt lat="42.100873114541173" lon="-8.890278255566955">
        <ele>104.109375</ele>
      </trkpt>
      <trkpt lat="42.100923657417297" lon="-8.890249924734235">
        <ele>104.4921875</ele>
      </trkpt>
      <trkpt lat="42.100969506427646" lon="-8.890211367979646">
        <ele>105.0703125</ele>
      </trkpt>
      <trkpt lat="42.101013008505106" lon="-8.890167279168963">
        <ele>105.734375</ele>
      </trkpt>
      <trkpt lat="42.101060701534152" lon="-8.890127716585994">
        <ele>106.23828125</ele>
      </trkpt>
      <trkpt lat="42.101107304915786" lon="-8.890082202851772">
        <ele>106.8203125</ele>
      </trkpt>
      <trkpt lat="42.101152902469039" lon="-8.890034174546599">
        <ele>107.40625</ele>
      </trkpt>
      <trkpt lat="42.101199338212609" lon="-8.88998874463141">
        <ele>107.890625</ele>
      </trkpt>
      <trkpt lat="42.10124434903264" lon="-8.889945410192013">
        <ele>108.23828125</ele>
      </trkpt>
      <trkpt lat="42.101291203871369" lon="-8.88990031555295">
        <ele>108.171875</ele>
      </trkpt>
      <trkpt lat="42.101340405642986" lon="-8.889855220913887">
        <ele>108.05859375</ele>
      </trkpt>
      <trkpt lat="42.101384829729795" lon="-8.889815490692854">
        <ele>107.93359375</ele>
      </trkpt>
      <trkpt lat="42.101514833047986" lon="-8.889769054949284">
        <ele>107.109375</ele>
      </trkpt>
      <trkpt lat="42.101565040647984" lon="-8.889725217595696">
        <ele>106.890625</ele>
      </trkpt>
      <trkpt lat="42.101614074781537" lon="-8.889683894813061">
        <ele>106.6484375</ele>
      </trkpt>
      <trkpt lat="42.101665874943137" lon="-8.889653887599707">
        <ele>106.3828125</ele>
      </trkpt>
      <trkpt lat="42.101717842742801" lon="-8.889629747718573">
        <ele>107.15234375</ele>
      </trkpt>
      <trkpt lat="42.101736953482032" lon="-8.889603344723582">
        <ele>107.453125</ele>
      </trkpt>
      <trkpt lat="42.101860921829939" lon="-8.889556657522917">
        <ele>108.90625</ele>
      </trkpt>
      <trkpt lat="42.101911297068" lon="-8.889524806290865">
        <ele>109.37109375</ele>
      </trkpt>
      <trkpt lat="42.101953206583858" lon="-8.889480130746961">
        <ele>109.6328125</ele>
      </trkpt>
      <trkpt lat="42.101994697004557" lon="-8.889422630891204">
        <ele>109.78515625</ele>
      </trkpt>
      <trkpt lat="42.102025961503386" lon="-8.88936378993094">
        <ele>109.765625</ele>
      </trkpt>
      <trkpt lat="42.102053789421916" lon="-8.889300171285868">
        <ele>109.625</ele>
      </trkpt>
      <trkpt lat="42.102078264579177" lon="-8.88922699727118">
        <ele>109.34375</ele>
      </trkpt>
      <trkpt lat="42.102100979536772" lon="-8.889153739437461">
        <ele>108.98046875</ele>
      </trkpt>
      <trkpt lat="42.102114222943783" lon="-8.889081906527281">
        <ele>108.55078125</ele>
      </trkpt>
      <trkpt lat="42.102122269570827" lon="-8.889010660350323">
        <ele>108.13671875</ele>
      </trkpt>
      <trkpt lat="42.102138362824917" lon="-8.888936061412096">
        <ele>107.83984375</ele>
      </trkpt>
      <trkpt lat="42.102167280390859" lon="-8.888874286785722">
        <ele>107.57421875</ele>
      </trkpt>
      <trkpt lat="42.102204579859972" lon="-8.88881946913898">
        <ele>107.29296875</ele>
      </trkpt>
      <trkpt lat="42.102251350879669" lon="-8.888776050880551">
        <ele>107.0078125</ele>
      </trkpt>
      <trkpt lat="42.102296277880669" lon="-8.888735398650169">
        <ele>106.69921875</ele>
      </trkpt>
      <trkpt lat="42.102341959252954" lon="-8.888691142201424">
        <ele>106.32421875</ele>
      </trkpt>
      <trkpt lat="42.102387892082334" lon="-8.888644874095917">
        <ele>105.88671875</ele>
      </trkpt>
      <trkpt lat="42.102432232350111" lon="-8.888601958751678">
        <ele>105.4296875</ele>
      </trkpt>
      <trkpt lat="42.102482942864299" lon="-8.888554433360696">
        <ele>104.875</ele>
      </trkpt>
      <trkpt lat="42.102529965341091" lon="-8.888511266559362">
        <ele>104.34375</ele>
      </trkpt>
      <trkpt lat="42.102581094950438" lon="-8.888460472226143">
        <ele>103.67578125</ele>
      </trkpt>
      <trkpt lat="42.102627865970135" lon="-8.888396685943007">
        <ele>103.2734375</ele>
      </trkpt>
      <trkpt lat="42.102671032771468" lon="-8.888346729800105">
        <ele>103.00390625</ele>
      </trkpt>
      <trkpt lat="42.102714031934738" lon="-8.888296689838171">
        <ele>102.69921875</ele>
      </trkpt>
      <trkpt lat="42.102754516527057" lon="-8.888248326256871">
        <ele>102.36328125</ele>
      </trkpt>
      <trkpt lat="42.102800449356437" lon="-8.888198621571064">
        <ele>101.9921875</ele>
      </trkpt>
      <trkpt lat="42.102837329730392" lon="-8.888145983219147">
        <ele>101.53515625</ele>
      </trkpt>
      <trkpt lat="42.102876976132393" lon="-8.888084795325994">
        <ele>100.97265625</ele>
      </trkpt>
      <trkpt lat="42.102915029972792" lon="-8.88803081586957">
        <ele>100.48828125</ele>
      </trkpt>
      <trkpt lat="42.102954760193825" lon="-8.88798194937408">
        <ele>100.03515625</ele>
      </trkpt>
      <trkpt lat="42.103001615032554" lon="-8.887928556650877">
        <ele>99.5078125</ele>
      </trkpt>
      <trkpt lat="42.103046122938395" lon="-8.887883713468909">
        <ele>99.0390625</ele>
      </trkpt>
      <trkpt lat="42.103095324710011" lon="-8.887840043753386">
        <ele>98.76171875</ele>
      </trkpt>
      <trkpt lat="42.103146789595485" lon="-8.887788243591785">
        <ele>98.390625</ele>
      </trkpt>
      <trkpt lat="42.103194566443563" lon="-8.887728061527014">
        <ele>97.86328125</ele>
      </trkpt>
      <trkpt lat="42.103237062692642" lon="-8.887677518650889">
        <ele>97.39453125</ele>
      </trkpt>
      <trkpt lat="42.103279391303658" lon="-8.887631166726351">
        <ele>97.00390625</ele>
      </trkpt>
      <trkpt lat="42.103326665237546" lon="-8.887577522546053">
        <ele>96.75390625</ele>
      </trkpt>
      <trkpt lat="42.103369329124689" lon="-8.887528069317341">
        <ele>96.49609375</ele>
      </trkpt>
      <trkpt lat="42.103407718241215" lon="-8.887476520612836">
        <ele>96.1875</ele>
      </trkpt>
      <trkpt lat="42.103452896699309" lon="-8.887416757643223">
        <ele>95.80078125</ele>
      </trkpt>
      <trkpt lat="42.103494219481945" lon="-8.887360515072942">
        <ele>95.41015625</ele>
      </trkpt>
      <trkpt lat="42.103539733216166" lon="-8.887306284159422">
        <ele>95.203125</ele>
      </trkpt>
      <trkpt lat="42.103581139817834" lon="-8.887252304702997">
        <ele>95.078125</ele>
      </trkpt>
      <trkpt lat="42.103620953857899" lon="-8.887198828160763">
        <ele>94.921875</ele>
      </trkpt>
      <trkpt lat="42.103657498955727" lon="-8.887145519256592">
        <ele>94.796875</ele>
      </trkpt>
      <trkpt lat="42.103697396814823" lon="-8.887084750458598">
        <ele>94.68359375</ele>
      </trkpt>
      <trkpt lat="42.103735283017159" lon="-8.887020545080304">
        <ele>94.5</ele>
      </trkpt>
      <trkpt lat="42.10376663133502" lon="-8.886952232569456">
        <ele>94.21484375</ele>
      </trkpt>
      <trkpt lat="42.103785155341029" lon="-8.886882662773132">
        <ele>93.8203125</ele>
      </trkpt>
      <trkpt lat="42.103797225281596" lon="-8.886809907853603">
        <ele>93.34375</ele>
      </trkpt>
      <trkpt lat="42.103819353505969" lon="-8.88674327172339">
        <ele>92.9609375</ele>
      </trkpt>
      <trkpt lat="42.103853551670909" lon="-8.886677222326398">
        <ele>92.49609375</ele>
      </trkpt>
      <trkpt lat="42.103896634653211" lon="-8.886610083281994">
        <ele>91.9453125</ele>
      </trkpt>
      <trkpt lat="42.103939214721322" lon="-8.886546045541763">
        <ele>91.3984375</ele>
      </trkpt>
      <trkpt lat="42.103981710970402" lon="-8.886480331420898">
        <ele>90.80078125</ele>
      </trkpt>
      <trkpt lat="42.104018507525325" lon="-8.886418472975492">
        <ele>90.1328125</ele>
      </trkpt>
      <trkpt lat="42.104058237746358" lon="-8.886358207091689">
        <ele>89.47265625</ele>
      </trkpt>
      <trkpt lat="42.104092435911298" lon="-8.886310765519738">
        <ele>88.953125</ele>
      </trkpt>
      <trkpt lat="42.104207603260875" lon="-8.886271873489022">
        <ele>88.63671875</ele>
      </trkpt>
      <trkpt lat="42.104249596595764" lon="-8.886223090812564">
        <ele>88.078125</ele>
      </trkpt>
      <trkpt lat="42.10430215112865" lon="-8.886158550158143">
        <ele>87.33984375</ele>
      </trkpt>
      <trkpt lat="42.104353029280901" lon="-8.886094093322754">
        <ele>86.6015625</ele>
      </trkpt>
      <trkpt lat="42.104394352063537" lon="-8.886046567931771">
        <ele>86.0625</ele>
      </trkpt>
      <trkpt lat="42.104443721473217" lon="-8.886008346453309">
        <ele>85.64453125</ele>
      </trkpt>
      <trkpt lat="42.104500299319625" lon="-8.885965766385198">
        <ele>85.171875</ele>
      </trkpt>
      <trkpt lat="42.10455184802413" lon="-8.885923940688372">
        <ele>84.7109375</ele>
      </trkpt>
      <trkpt lat="42.104600546881557" lon="-8.885886054486036">
        <ele>84.30078125</ele>
      </trkpt>
      <trkpt lat="42.104648239910603" lon="-8.885848503559828">
        <ele>83.8984375</ele>
      </trkpt>
      <trkpt lat="42.104700626805425" lon="-8.885810449719429">
        <ele>83.5</ele>
      </trkpt>
      <trkpt lat="42.104754438623786" lon="-8.885780945420265">
        <ele>83.2578125</ele>
      </trkpt>
      <trkpt lat="42.104810094460845" lon="-8.885752530768514">
        <ele>83.15234375</ele>
      </trkpt>
      <trkpt lat="42.104864493012428" lon="-8.885721182450652">
        <ele>83.04296875</ele>
      </trkpt>
      <trkpt lat="42.104914449155331" lon="-8.88567516580224">
        <ele>82.87109375</ele>
      </trkpt>
      <trkpt lat="42.104964405298233" lon="-8.885625209659338">
        <ele>82.69921875</ele>
      </trkpt>
      <trkpt lat="42.10500874556601" lon="-8.885579779744148">
        <ele>82.52734375</ele>
      </trkpt>
      <trkpt lat="42.105055013671517" lon="-8.885528650134802">
        <ele>82.30078125</ele>
      </trkpt>
      <trkpt lat="42.10509667173028" lon="-8.885477688163519">
        <ele>82.046875</ele>
      </trkpt>
      <trkpt lat="42.105142436921597" lon="-8.885418931022286">
        <ele>81.7265625</ele>
      </trkpt>
      <trkpt lat="42.105184262618423" lon="-8.885359251871705">
        <ele>81.37109375</ele>
      </trkpt>
      <trkpt lat="42.10522223263979" lon="-8.885301416739821">
        <ele>81.0234375</ele>
      </trkpt>
      <trkpt lat="42.105264142155647" lon="-8.885240480303764">
        <ele>80.67578125</ele>
      </trkpt>
      <trkpt lat="42.10530043579638" lon="-8.885176526382565">
        <ele>80.3046875</ele>
      </trkpt>
      <trkpt lat="42.105334214866161" lon="-8.885112069547176">
        <ele>79.92578125</ele>
      </trkpt>
      <trkpt lat="42.105369586497545" lon="-8.88504434376955">
        <ele>79.5234375</ele>
      </trkpt>
      <trkpt lat="42.10539766587317" lon="-8.884978713467717">
        <ele>79.11328125</ele>
      </trkpt>
      <trkpt lat="42.10542599670589" lon="-8.884909898042679">
        <ele>78.67578125</ele>
      </trkpt>
      <trkpt lat="42.1054582670331" lon="-8.884848542511463">
        <ele>78.328125</ele>
      </trkpt>
      <trkpt lat="42.105491543188691" lon="-8.884789366275072">
        <ele>78.11328125</ele>
      </trkpt>
      <trkpt lat="42.105525489896536" lon="-8.884733878076077">
        <ele>77.92578125</ele>
      </trkpt>
      <trkpt lat="42.105551054701209" lon="-8.884669840335846">
        <ele>77.71484375</ele>
      </trkpt>
      <trkpt lat="42.105574775487185" lon="-8.884603204205632">
        <ele>77.50390625</ele>
      </trkpt>
      <trkpt lat="42.105590114369988" lon="-8.884526342153549">
        <ele>77.25</ele>
      </trkpt>
      <trkpt lat="42.105606207624078" lon="-8.884445792064071">
        <ele>76.99609375</ele>
      </trkpt>
      <trkpt lat="42.105626575648785" lon="-8.884368930011988">
        <ele>76.796875</ele>
      </trkpt>
      <trkpt lat="42.105645686388016" lon="-8.884288799017668">
        <ele>76.6328125</ele>
      </trkpt>
      <trkpt lat="42.105665551498532" lon="-8.884208165109158">
        <ele>76.4765625</ele>
      </trkpt>
      <trkpt lat="42.105691200122237" lon="-8.884137505665421">
        <ele>76.38671875</ele>
      </trkpt>
      <trkpt lat="42.105725482106209" lon="-8.884066762402654">
        <ele>76.34375</ele>
      </trkpt>
      <trkpt lat="42.105753729119897" lon="-8.884002640843391">
        <ele>76.3125</ele>
      </trkpt>
      <trkpt lat="42.105773510411382" lon="-8.883930305019021">
        <ele>76.234375</ele>
      </trkpt>
      <trkpt lat="42.105785412713885" lon="-8.88385402970016">
        <ele>76.0859375</ele>
      </trkpt>
      <trkpt lat="42.105799494311213" lon="-8.883779933676124">
        <ele>75.953125</ele>
      </trkpt>
      <trkpt lat="42.105816258117557" lon="-8.88370843604207">
        <ele>75.84375</ele>
      </trkpt>
      <trkpt lat="42.105823801830411" lon="-8.883676333352923">
        <ele>75.796875</ele>
      </trkpt>
      <trkpt lat="42.105909129604697" lon="-8.883496876806021">
        <ele>75.56640625</ele>
      </trkpt>
      <trkpt lat="42.105952128767967" lon="-8.883441556245089">
        <ele>75.40234375</ele>
      </trkpt>
      <trkpt lat="42.106000324711204" lon="-8.883391181007028">
        <ele>75.21875</ele>
      </trkpt>
      <trkpt lat="42.106051286682487" lon="-8.883335692808032">
        <ele>75</ele>
      </trkpt>
      <trkpt lat="42.106099566444755" lon="-8.883285988122225">
        <ele>74.80078125</ele>
      </trkpt>
      <trkpt lat="42.106143068522215" lon="-8.88323687016964">
        <ele>74.59375</ele>
      </trkpt>
      <trkpt lat="42.106186151504517" lon="-8.883192278444767">
        <ele>74.40234375</ele>
      </trkpt>
      <trkpt lat="42.106226636096835" lon="-8.883141651749611">
        <ele>74.1640625</ele>
      </trkpt>
      <trkpt lat="42.106264103204012" lon="-8.883084990084171">
        <ele>73.875</ele>
      </trkpt>
      <trkpt lat="42.106308192014694" lon="-8.883023466914892">
        <ele>73.5859375</ele>
      </trkpt>
      <trkpt lat="42.106344066560268" lon="-8.882961273193359">
        <ele>73.29296875</ele>
      </trkpt>
      <trkpt lat="42.106381030753255" lon="-8.882903521880507">
        <ele>73.03125</ele>
      </trkpt>
      <trkpt lat="42.106416821479797" lon="-8.88284501619637">
        <ele>72.765625</ele>
      </trkpt>
      <trkpt lat="42.106454791501164" lon="-8.882782235741615">
        <ele>72.4765625</ele>
      </trkpt>
      <trkpt lat="42.106493012979627" lon="-8.882720209658146">
        <ele>72.19140625</ele>
      </trkpt>
      <trkpt lat="42.106526540592313" lon="-8.882660530507565">
        <ele>71.91015625</ele>
      </trkpt>
      <trkpt lat="42.10656451061368" lon="-8.882604036480188">
        <ele>71.6640625</ele>
      </trkpt>
      <trkpt lat="42.106601810082793" lon="-8.882542513310909">
        <ele>71.36328125</ele>
      </trkpt>
      <trkpt lat="42.106640450656414" lon="-8.882480738684535">
        <ele>70.97265625</ele>
      </trkpt>
      <trkpt lat="42.106675403192639" lon="-8.882426423951983">
        <ele>70.625</ele>
      </trkpt>
      <trkpt lat="42.106715133413672" lon="-8.882372612133622">
        <ele>70.29296875</ele>
      </trkpt>
      <trkpt lat="42.106744386255741" lon="-8.882304048165679">
        <ele>69.79296875</ele>
      </trkpt>
      <trkpt lat="42.106762155890465" lon="-8.882229197770357">
        <ele>69.24609375</ele>
      </trkpt>
      <trkpt lat="42.106766514480114" lon="-8.882154850289226">
        <ele>68.63671875</ele>
      </trkpt>
      <trkpt lat="42.106765508651733" lon="-8.882078994065523">
        <ele>67.984375</ele>
      </trkpt>
      <trkpt lat="42.106765508651733" lon="-8.881994336843491">
        <ele>67.30859375</ele>
      </trkpt>
      <trkpt lat="42.10676291026175" lon="-8.881908589974046">
        <ele>66.61328125</ele>
      </trkpt>
      <trkpt lat="42.10676291026175" lon="-8.881827956065536">
        <ele>65.97265625</ele>
      </trkpt>
      <trkpt lat="42.106761736795306" lon="-8.88175536878407">
        <ele>65.38671875</ele>
      </trkpt>
      <trkpt lat="42.106763748452067" lon="-8.88168110512197">
        <ele>64.80859375</ele>
      </trkpt>
      <trkpt lat="42.10678000934422" lon="-8.881603823974729">
        <ele>64.38671875</ele>
      </trkpt>
      <trkpt lat="42.106803394854069" lon="-8.88152914121747">
        <ele>64.30078125</ele>
      </trkpt>
      <trkpt lat="42.10682057775557" lon="-8.881450770422816">
        <ele>64.18359375</ele>
      </trkpt>
      <trkpt lat="42.106835497543216" lon="-8.88136887922883">
        <ele>64.05078125</ele>
      </trkpt>
      <trkpt lat="42.106851255521178" lon="-8.881294699385762">
        <ele>63.9453125</ele>
      </trkpt>
      <trkpt lat="42.106865253299475" lon="-8.88121984899044">
        <ele>63.83203125</ele>
      </trkpt>
      <trkpt lat="42.106881346553564" lon="-8.88114457949996">
        <ele>63.7265625</ele>
      </trkpt>
      <trkpt lat="42.106901630759239" lon="-8.88106394559145">
        <ele>63.62109375</ele>
      </trkpt>
      <trkpt lat="42.106919316574931" lon="-8.880989011377096">
        <ele>63.515625</ele>
      </trkpt>
      <trkpt lat="42.10693490691483" lon="-8.88090661726892">
        <ele>63.3828125</ele>
      </trkpt>
      <trkpt lat="42.106943624094129" lon="-8.880826570093632">
        <ele>63.21875</ele>
      </trkpt>
      <trkpt lat="42.106953850015998" lon="-8.880752474069595">
        <ele>63.07421875</ele>
      </trkpt>
      <trkpt lat="42.106970697641373" lon="-8.880681060254574">
        <ele>62.96875</ele>
      </trkpt>
      <trkpt lat="42.106993664056063" lon="-8.88060855679214">
        <ele>62.87890625</ele>
      </trkpt>
      <trkpt lat="42.107022330164909" lon="-8.88054896146059">
        <ele>62.859375</ele>
      </trkpt>
      <trkpt lat="42.107072370126843" lon="-8.880499172955751">
        <ele>62.9921875</ele>
      </trkpt>
      <trkpt lat="42.107125092297792" lon="-8.880457766354084">
        <ele>63.171875</ele>
      </trkpt>
      <trkpt lat="42.107173372060061" lon="-8.880427507683635">
        <ele>63.359375</ele>
      </trkpt>
      <trkpt lat="42.10722416639328" lon="-8.880391381680965">
        <ele>63.51171875</ele>
      </trkpt>
      <trkpt lat="42.107269344851375" lon="-8.880349891260266">
        <ele>63.4609375</ele>
      </trkpt>
      <trkpt lat="42.107315948233008" lon="-8.880302282050252">
        <ele>63.3984375</ele>
      </trkpt>
      <trkpt lat="42.107358444482088" lon="-8.880250314250588">
        <ele>63.31640625</ele>
      </trkpt>
      <trkpt lat="42.107398761436343" lon="-8.880196837708354">
        <ele>63.1328125</ele>
      </trkpt>
      <trkpt lat="42.107434468343854" lon="-8.880139337852597">
        <ele>62.89453125</ele>
      </trkpt>
      <trkpt lat="42.107469337061048" lon="-8.880076976493001">
        <ele>62.640625</ele>
      </trkpt>
      <trkpt lat="42.1075046248734" lon="-8.880019811913371">
        <ele>62.41796875</ele>
      </trkpt>
      <trkpt lat="42.107541086152196" lon="-8.87996549718082">
        <ele>62.21484375</ele>
      </trkpt>
      <trkpt lat="42.10757645778358" lon="-8.879910176619887">
        <ele>62.01171875</ele>
      </trkpt>
      <trkpt lat="42.107601938769221" lon="-8.879846893250942">
        <ele>61.76171875</ele>
      </trkpt>
      <trkpt lat="42.107614176347852" lon="-8.879764080047607">
        <ele>61.3671875</ele>
      </trkpt>
      <trkpt lat="42.107622474431992" lon="-8.879683027043939">
        <ele>60.8046875</ele>
      </trkpt>
      <trkpt lat="42.107634460553527" lon="-8.87960247695446">
        <ele>60.24609375</ele>
      </trkpt>
      <trkpt lat="42.107651391997933" lon="-8.879533493891358">
        <ele>59.77734375</ele>
      </trkpt>
      <trkpt lat="42.10766782052815" lon="-8.879463002085686">
        <ele>59.29296875</ele>
      </trkpt>
      <trkpt lat="42.107679722830653" lon="-8.879390079528093">
        <ele>58.76953125</ele>
      </trkpt>
      <trkpt lat="42.107684668153524" lon="-8.879342805594206">
        <ele>58.40625</ele>
      </trkpt>
      <trkpt lat="42.107685673981905" lon="-8.879268374294043">
        <ele>57.8671875</ele>
      </trkpt>
      <trkpt lat="42.107693972066045" lon="-8.879194865003228">
        <ele>57.3125</ele>
      </trkpt>
      <trkpt lat="42.107704114168882" lon="-8.879116242751479">
        <ele>56.71875</ele>
      </trkpt>
      <trkpt lat="42.107713082805276" lon="-8.879043236374855">
        <ele>56.1796875</ele>
      </trkpt>
      <trkpt lat="42.10772305727005" lon="-8.878970481455326">
        <ele>55.6484375</ele>
      </trkpt>
      <trkpt lat="42.107734037563205" lon="-8.87889445759356">
        <ele>55.1015625</ele>
      </trkpt>
      <trkpt lat="42.107749879360199" lon="-8.878816086798906">
        <ele>54.5234375</ele>
      </trkpt>
      <trkpt lat="42.107769912108779" lon="-8.878741404041648">
        <ele>53.97265625</ele>
      </trkpt>
      <trkpt lat="42.107781898230314" lon="-8.878656830638647">
        <ele>53.375</ele>
      </trkpt>
      <trkpt lat="42.107792878523469" lon="-8.878579800948501">
        <ele>52.84765625</ele>
      </trkpt>
      <trkpt lat="42.107802098616958" lon="-8.878505285829306">
        <ele>52.34765625</ele>
      </trkpt>
      <trkpt lat="42.107805870473385" lon="-8.878418365493417">
        <ele>51.76171875</ele>
      </trkpt>
      <trkpt lat="42.107808385044336" lon="-8.878345778211951">
        <ele>51.25</ele>
      </trkpt>
      <trkpt lat="42.107803858816624" lon="-8.878267407417297">
        <ele>50.66015625</ele>
      </trkpt>
      <trkpt lat="42.107803858816624" lon="-8.878183085471392">
        <ele>50.0390625</ele>
      </trkpt>
      <trkpt lat="42.107803858816624" lon="-8.878103792667389">
        <ele>49.453125</ele>
      </trkpt>
      <trkpt lat="42.107806289568543" lon="-8.878023494035006">
        <ele>48.87109375</ele>
      </trkpt>
      <trkpt lat="42.107813581824303" lon="-8.877949733287096">
        <ele>48.36328125</ele>
      </trkpt>
      <trkpt lat="42.107826322317123" lon="-8.877871027216315">
        <ele>47.8359375</ele>
      </trkpt>
      <trkpt lat="42.107845181599259" lon="-8.87779600918293">
        <ele>47.3671875</ele>
      </trkpt>
      <trkpt lat="42.107867561280727" lon="-8.877719901502132">
        <ele>46.921875</ele>
      </trkpt>
      <trkpt lat="42.107886672019958" lon="-8.877649744972587">
        <ele>46.5078125</ele>
      </trkpt>
      <trkpt lat="42.107905615121126" lon="-8.877581181004643">
        <ele>46.11328125</ele>
      </trkpt>
      <trkpt lat="42.10791508667171" lon="-8.877507504075766">
        <ele>45.6328125</ele>
      </trkpt>
      <trkpt lat="42.107918858528137" lon="-8.877428965643048">
        <ele>45.0859375</ele>
      </trkpt>
      <trkpt lat="42.107918858528137" lon="-8.8773537799716">
        <ele>44.5390625</ele>
      </trkpt>
      <trkpt lat="42.107917685061693" lon="-8.877273565158248">
        <ele>43.94921875</ele>
      </trkpt>
      <trkpt lat="42.107909973710775" lon="-8.877191925421357">
        <ele>43.31640625</ele>
      </trkpt>
      <trkpt lat="42.107902513816953" lon="-8.877118919044733">
        <ele>42.75</ele>
      </trkpt>
      <trkpt lat="42.107903687283397" lon="-8.877045745030046">
        <ele>42.2265625</ele>
      </trkpt>
      <trkpt lat="42.107914835214615" lon="-8.876974498853087">
        <ele>41.76171875</ele>
      </trkpt>
      <trkpt lat="42.107932772487402" lon="-8.876900738105178">
        <ele>41.3046875</ele>
      </trkpt>
      <trkpt lat="42.107959846034646" lon="-8.876833179965615">
        <ele>40.921875</ele>
      </trkpt>
      <trkpt lat="42.107984656468034" lon="-8.876761347055435">
        <ele>40.48828125</ele>
      </trkpt>
      <trkpt lat="42.108058333396912" lon="-8.876553224399686">
        <ele>39.18359375</ele>
      </trkpt>
      <trkpt lat="42.108094040304422" lon="-8.876487677916884">
        <ele>38.85546875</ele>
      </trkpt>
      <trkpt lat="42.108123963698745" lon="-8.876426741480827">
        <ele>38.55078125</ele>
      </trkpt>
      <trkpt lat="42.108160089701414" lon="-8.876363290473819">
        <ele>38.22265625</ele>
      </trkpt>
      <trkpt lat="42.108196970075369" lon="-8.876304030418396">
        <ele>37.90234375</ele>
      </trkpt>
      <trkpt lat="42.108233850449324" lon="-8.876234963536263">
        <ele>37.5</ele>
      </trkpt>
      <trkpt lat="42.108265198767185" lon="-8.876167070120573">
        <ele>37.0859375</ele>
      </trkpt>
      <trkpt lat="42.10828984156251" lon="-8.876094566658139">
        <ele>36.6171875</ele>
      </trkpt>
      <trkpt lat="42.108300067484379" lon="-8.876018039882183">
        <ele>36.11328125</ele>
      </trkpt>
      <trkpt lat="42.108312221243978" lon="-8.875947631895542">
        <ele>35.66015625</ele>
      </trkpt>
      <trkpt lat="42.108336193487048" lon="-8.875884432345629">
        <ele>35.25</ele>
      </trkpt>
      <trkpt lat="42.108361339196563" lon="-8.875815449282527">
        <ele>34.7890625</ele>
      </trkpt>
      <trkpt lat="42.10838514380157" lon="-8.875749399885535">
        <ele>34.33203125</ele>
      </trkpt>
      <trkpt lat="42.108410708606243" lon="-8.875684104859829">
        <ele>33.87109375</ele>
      </trkpt>
      <trkpt lat="42.108443481847644" lon="-8.875617301091552">
        <ele>33.375</ele>
      </trkpt>
      <trkpt lat="42.108472567051649" lon="-8.875555358827114">
        <ele>32.9296875</ele>
      </trkpt>
      <trkpt lat="42.108505005016923" lon="-8.875485369935632">
        <ele>32.4140625</ele>
      </trkpt>
      <trkpt lat="42.108533838763833" lon="-8.875417644158006">
        <ele>31.90625</ele>
      </trkpt>
      <trkpt lat="42.108572227880359" lon="-8.875349164009094">
        <ele>31.37109375</ele>
      </trkpt>
      <trkpt lat="42.108604749664664" lon="-8.875285964459181">
        <ele>30.8671875</ele>
      </trkpt>
      <trkpt lat="42.108639786019921" lon="-8.87522779405117">
        <ele>30.41015625</ele>
      </trkpt>
      <trkpt lat="42.108677756041288" lon="-8.875168785452843">
        <ele>29.92578125</ele>
      </trkpt>
      <trkpt lat="42.108713211491704" lon="-8.875101478770375">
        <ele>29.41796875</ele>
      </trkpt>
      <trkpt lat="42.108749756589532" lon="-8.875034507364035">
        <ele>28.9296875</ele>
      </trkpt>
      <trkpt lat="42.10878093726933" lon="-8.874971894547343">
        <ele>28.4765625</ele>
      </trkpt>
      <trkpt lat="42.108810776844621" lon="-8.874909030273557">
        <ele>28.0234375</ele>
      </trkpt>
      <trkpt lat="42.108844723552465" lon="-8.874847423285246">
        <ele>27.5703125</ele>
      </trkpt>
      <trkpt lat="42.108885543420911" lon="-8.874798472970724">
        <ele>27.1953125</ele>
      </trkpt>
      <trkpt lat="42.108928374946117" lon="-8.874754216521978">
        <ele>26.84765625</ele>
      </trkpt>
      <trkpt lat="42.108975732699037" lon="-8.874707194045186">
        <ele>26.47265625</ele>
      </trkpt>
      <trkpt lat="42.109017642214894" lon="-8.874656148254871">
        <ele>26.1015625</ele>
      </trkpt>
      <trkpt lat="42.109038261696696" lon="-8.874579118564725">
        <ele>25.6171875</ele>
      </trkpt>
      <trkpt lat="42.109061563387513" lon="-8.874512566253543">
        <ele>25.19140625</ele>
      </trkpt>
      <trkpt lat="42.109074471518397" lon="-8.874434949830174">
        <ele>24.69921875</ele>
      </trkpt>
      <trkpt lat="42.109078327193856" lon="-8.874350460246205">
        <ele>24.18359375</ele>
      </trkpt>
      <trkpt lat="42.109078327193856" lon="-8.874273933470249">
        <ele>23.73046875</ele>
      </trkpt>
      <trkpt lat="42.109068101271987" lon="-8.874197071418166">
        <ele>23.52734375</ele>
      </trkpt>
      <trkpt lat="42.109055863693357" lon="-8.874122053384781">
        <ele>23.75</ele>
      </trkpt>
      <trkpt lat="42.109049409627914" lon="-8.874049801379442">
        <ele>23.95703125</ele>
      </trkpt>
      <trkpt lat="42.109038513153791" lon="-8.873958857730031">
        <ele>24.23046875</ele>
      </trkpt>
      <trkpt lat="42.109030298888683" lon="-8.873874535784125">
        <ele>24.484375</ele>
      </trkpt>
      <trkpt lat="42.109018480405211" lon="-8.873788369819522">
        <ele>24.76171875</ele>
      </trkpt>
      <trkpt lat="42.109011188149452" lon="-8.873707819730043">
        <ele>25.11328125</ele>
      </trkpt>
      <trkpt lat="42.109012445434928" lon="-8.873634980991483">
        <ele>25.45703125</ele>
      </trkpt>
      <trkpt lat="42.109031053259969" lon="-8.873586533591151">
        <ele>25.6171875</ele>
      </trkpt>
      <trkpt lat="42.109074387699366" lon="-8.87350196018815">
        <ele>25.8359375</ele>
      </trkpt>
      <trkpt lat="42.109120823442936" lon="-8.87344622053206">
        <ele>25.8671875</ele>
      </trkpt>
      <trkpt lat="42.109166672453284" lon="-8.873394252732396">
        <ele>25.8671875</ele>
      </trkpt>
      <trkpt lat="42.109212521463633" lon="-8.873350666835904">
        <ele>25.8203125</ele>
      </trkpt>
      <trkpt lat="42.109269015491009" lon="-8.873311439529061">
        <ele>25.69140625</ele>
      </trkpt>
      <trkpt lat="42.109324168413877" lon="-8.873277744278312">
        <ele>25.6171875</ele>
      </trkpt>
      <trkpt lat="42.109377980232239" lon="-8.873248491436243">
        <ele>25.5703125</ele>
      </trkpt>
      <trkpt lat="42.109432965517044" lon="-8.873225944116712">
        <ele>25.45703125</ele>
      </trkpt>
      <trkpt lat="42.109487280249596" lon="-8.873209934681654">
        <ele>25.29296875</ele>
      </trkpt>
      <trkpt lat="42.109546959400177" lon="-8.873190823942423">
        <ele>25.12890625</ele>
      </trkpt>
      <trkpt lat="42.109601022675633" lon="-8.873173389583826">
        <ele>24.98828125</ele>
      </trkpt>
      <trkpt lat="42.109657935798168" lon="-8.873156039044261">
        <ele>24.82421875</ele>
      </trkpt>
      <trkpt lat="42.109715854749084" lon="-8.873127708211541">
        <ele>24.72265625</ele>
      </trkpt>
      <trkpt lat="42.109765475615859" lon="-8.873087642714381">
        <ele>24.734375</ele>
      </trkpt>
      <trkpt lat="42.10980411618948" lon="-8.873034836724401">
        <ele>24.875</ele>
      </trkpt>
      <trkpt lat="42.109840074554086" lon="-8.872978007420897">
        <ele>25.04296875</ele>
      </trkpt>
      <trkpt lat="42.109879050403833" lon="-8.872912209481001">
        <ele>25.23046875</ele>
      </trkpt>
      <trkpt lat="42.109914254397154" lon="-8.872846411541104">
        <ele>25.421875</ele>
      </trkpt>
      <trkpt lat="42.109942920506001" lon="-8.87278170324862">
        <ele>25.6640625</ele>
      </trkpt>
      <trkpt lat="42.10997368209064" lon="-8.872712468728423">
        <ele>25.91796875</ele>
      </trkpt>
      <trkpt lat="42.109993882477283" lon="-8.87264097109437">
        <ele>26.23828125</ele>
      </trkpt>
      <trkpt lat="42.110006706789136" lon="-8.87256427668035">
        <ele>26.6171875</ele>
      </trkpt>
      <trkpt lat="42.110008718445897" lon="-8.872476853430271">
        <ele>27.17578125</ele>
      </trkpt>
      <trkpt lat="42.110008718445897" lon="-8.872393537312746">
        <ele>27.72265625</ele>
      </trkpt>
      <trkpt lat="42.110014166682959" lon="-8.872316591441631">
        <ele>28.2890625</ele>
      </trkpt>
      <trkpt lat="42.110023554414511" lon="-8.872226066887379">
        <ele>28.9765625</ele>
      </trkpt>
      <trkpt lat="42.110029673203826" lon="-8.872152138501406">
        <ele>29.5546875</ele>
      </trkpt>
      <trkpt lat="42.110035959631205" lon="-8.872076030820608">
        <ele>30.1484375</ele>
      </trkpt>
      <trkpt lat="42.110049119219184" lon="-8.871997157111764">
        <ele>30.70703125</ele>
      </trkpt>
      <trkpt lat="42.110062865540385" lon="-8.871923731639981">
        <ele>31.21484375</ele>
      </trkpt>
      <trkpt lat="42.110087759792805" lon="-8.871850054711103">
        <ele>31.78125</ele>
      </trkpt>
      <trkpt lat="42.110120197758079" lon="-8.871789369732141">
        <ele>32.17578125</ele>
      </trkpt>
      <trkpt lat="42.110165879130363" lon="-8.871734300628304">
        <ele>32.390625</ele>
      </trkpt>
      <trkpt lat="42.110210135579109" lon="-8.871690463274717">
        <ele>32.5</ele>
      </trkpt>
      <trkpt lat="42.110260175541043" lon="-8.871651068329811">
        <ele>32.5078125</ele>
      </trkpt>
      <trkpt lat="42.110308706760406" lon="-8.871613265946507">
        <ele>32.51953125</ele>
      </trkpt>
      <trkpt lat="42.110362434759736" lon="-8.871578145772219">
        <ele>32.45703125</ele>
      </trkpt>
      <trkpt lat="42.110414821654558" lon="-8.871546797454357">
        <ele>32.37109375</ele>
      </trkpt>
      <trkpt lat="42.110470226034522" lon="-8.871518718078732">
        <ele>32.21484375</ele>
      </trkpt>
      <trkpt lat="42.110521774739027" lon="-8.871488962322474">
        <ele>32.09375</ele>
      </trkpt>
      <trkpt lat="42.110577430576086" lon="-8.871459793299437">
        <ele>31.92578125</ele>
      </trkpt>
      <trkpt lat="42.110627721995115" lon="-8.871424589306116">
        <ele>31.87890625</ele>
      </trkpt>
      <trkpt lat="42.110688909888268" lon="-8.871377818286419">
        <ele>31.8671875</ele>
      </trkpt>
      <trkpt lat="42.110753618180752" lon="-8.871321408078074">
        <ele>31.9140625</ele>
      </trkpt>
      <trkpt lat="42.110800808295608" lon="-8.871281510218978">
        <ele>31.921875</ele>
      </trkpt>
      <trkpt lat="42.110851351171732" lon="-8.871232308447361">
        <ele>31.9921875</ele>
      </trkpt>
      <trkpt lat="42.110889991745353" lon="-8.871180508285761">
        <ele>32.1953125</ele>
      </trkpt>
      <trkpt lat="42.110909437760711" lon="-8.871114291250706">
        <ele>32.74609375</ele>
      </trkpt>
      <trkpt lat="42.110914131626487" lon="-8.871099539101124">
        <ele>32.86328125</ele>
      </trkpt>
      <trkpt lat="42.110963081941009" lon="-8.870930811390281">
        <ele>33.828125</ele>
      </trkpt>
      <trkpt lat="42.110997112467885" lon="-8.87087456882">
        <ele>33.6953125</ele>
      </trkpt>
      <trkpt lat="42.111026449128985" lon="-8.870807010680437">
        <ele>33.67578125</ele>
      </trkpt>
      <trkpt lat="42.111052852123976" lon="-8.870736015960574">
        <ele>33.7109375</ele>
      </trkpt>
      <trkpt lat="42.111075231805444" lon="-8.870668625459075">
        <ele>33.76953125</ele>
      </trkpt>
      <trkpt lat="42.111096773296595" lon="-8.870598636567593">
        <ele>33.84375</ele>
      </trkpt>
      <trkpt lat="42.11112879216671" lon="-8.870532838627696">
        <ele>33.73828125</ele>
      </trkpt>
      <trkpt lat="42.111162319779396" lon="-8.870476093143225">
        <ele>33.4453125</ele>
      </trkpt>
      <trkpt lat="42.111196182668209" lon="-8.870413396507502">
        <ele>33.13671875</ele>
      </trkpt>
      <trkpt lat="42.111230045557022" lon="-8.870342569425702">
        <ele>32.83984375</ele>
      </trkpt>
      <trkpt lat="42.111263908445835" lon="-8.870277022942901">
        <ele>32.5234375</ele>
      </trkpt>
      <trkpt lat="42.11129886098206" lon="-8.870212733745575">
        <ele>32.18359375</ele>
      </trkpt>
      <trkpt lat="42.111329203471541" lon="-8.87015188112855">
        <ele>31.89453125</ele>
      </trkpt>
      <trkpt lat="42.111348733305931" lon="-8.87007275596261">
        <ele>31.8125</ele>
      </trkpt>
      <trkpt lat="42.111355187371373" lon="-8.869997318834066">
        <ele>31.8046875</ele>
      </trkpt>
      <trkpt lat="42.111346805468202" lon="-8.869916684925556">
        <ele>32.01171875</ele>
      </trkpt>
      <trkpt lat="42.111332220956683" lon="-8.869844935834408">
        <ele>32.328125</ele>
      </trkpt>
      <trkpt lat="42.111311517655849" lon="-8.869772097095847">
        <ele>32.76953125</ele>
      </trkpt>
      <trkpt lat="42.111296430230141" lon="-8.86969649232924">
        <ele>33.13671875</ele>
      </trkpt>
      <trkpt lat="42.111285030841827" lon="-8.869619043543935">
        <ele>33.45703125</ele>
      </trkpt>
      <trkpt lat="42.111275224015117" lon="-8.869546037167311">
        <ele>33.80078125</ele>
      </trkpt>
      <trkpt lat="42.111268434673548" lon="-8.869467414915562">
        <ele>34.125</ele>
      </trkpt>
      <trkpt lat="42.111265249550343" lon="-8.869394743815064">
        <ele>34.3671875</ele>
      </trkpt>
      <trkpt lat="42.11126415990293" lon="-8.869313690811396">
        <ele>34.5859375</ele>
      </trkpt>
      <trkpt lat="42.111275726929307" lon="-8.869240768253803">
        <ele>34.52734375</ele>
      </trkpt>
      <trkpt lat="42.11131009273231" lon="-8.869174551218748">
        <ele>33.96875</ele>
      </trkpt>
      <trkpt lat="42.111351080238819" lon="-8.869115710258484">
        <ele>33.40234375</ele>
      </trkpt>
      <trkpt lat="42.111391145735979" lon="-8.869060054421425">
        <ele>33.2734375</ele>
      </trkpt>
      <trkpt lat="42.111430708318949" lon="-8.869008757174015">
        <ele>33.2265625</ele>
      </trkpt>
      <trkpt lat="42.111476054415107" lon="-8.868955951184034">
        <ele>33.125</ele>
      </trkpt>
      <trkpt lat="42.111527938395739" lon="-8.868908509612083">
        <ele>32.8671875</ele>
      </trkpt>
      <trkpt lat="42.111576301977038" lon="-8.868869617581367">
        <ele>32.578125</ele>
      </trkpt>
      <trkpt lat="42.111626677215099" lon="-8.868840867653489">
        <ele>32.14453125</ele>
      </trkpt>
      <trkpt lat="42.111682333052158" lon="-8.868820583447814">
        <ele>31.52734375</ele>
      </trkpt>
      <trkpt lat="42.111742934212089" lon="-8.868800634518266">
        <ele>30.8359375</ele>
      </trkpt>
      <trkpt lat="42.111798506230116" lon="-8.868786720559001">
        <ele>30.15625</ele>
      </trkpt>
      <trkpt lat="42.111855503171682" lon="-8.868752690032125">
        <ele>29.78515625</ele>
      </trkpt>
      <trkpt lat="42.111904704943299" lon="-8.868716228753328">
        <ele>29.68359375</ele>
      </trkpt>
      <trkpt lat="42.1119340416044" lon="-8.868648922070861">
        <ele>30.24609375</ele>
      </trkpt>
      <trkpt lat="42.11196044459939" lon="-8.86858094483614">
        <ele>30.8828125</ele>
      </trkpt>
      <trkpt lat="42.111975280568004" lon="-8.868511626496911">
        <ele>31.671875</ele>
      </trkpt>
      <trkpt lat="42.111994223669171" lon="-8.868433088064194">
        <ele>32.515625</ele>
      </trkpt>
      <trkpt lat="42.112020459026098" lon="-8.86835128068924">
        <ele>33.28125</ele>
      </trkpt>
      <trkpt lat="42.112051974982023" lon="-8.868284476920962">
        <ele>33.7265625</ele>
      </trkpt>
      <trkpt lat="42.112079970538616" lon="-8.868217589333653">
        <ele>34.19921875</ele>
      </trkpt>
      <trkpt lat="42.112111486494541" lon="-8.868149360641837">
        <ele>34.82421875</ele>
      </trkpt>
      <trkpt lat="42.112143589183688" lon="-8.868078198283911">
        <ele>35.46875</ele>
      </trkpt>
      <trkpt lat="42.112173596397042" lon="-8.868001503869891">
        <ele>36.18359375</ele>
      </trkpt>
      <trkpt lat="42.112205028533936" lon="-8.867934532463551">
        <ele>36.66015625</ele>
      </trkpt>
      <trkpt lat="42.112231012433767" lon="-8.86786269955337">
        <ele>37.265625</ele>
      </trkpt>
      <trkpt lat="42.112253308296204" lon="-8.867793884128332">
        <ele>37.859375</ele>
      </trkpt>
      <trkpt lat="42.112279376015067" lon="-8.867715764790773">
        <ele>38.5546875</ele>
      </trkpt>
      <trkpt lat="42.112301252782345" lon="-8.867646949365735">
        <ele>39.30078125</ele>
      </trkpt>
      <trkpt lat="42.112313909456134" lon="-8.867576289921999">
        <ele>40.30859375</ele>
      </trkpt>
      <trkpt lat="42.112327236682177" lon="-8.867501355707645">
        <ele>41.375</ele>
      </trkpt>
      <trkpt lat="42.11233327165246" lon="-8.867433378472924">
        <ele>42.453125</ele>
      </trkpt>
      <trkpt lat="42.112284740433097" lon="-8.867402449250221">
        <ele>44.046875</ele>
      </trkpt>
      <trkpt lat="42.112229419872165" lon="-8.867404041811824">
        <ele>45.328125</ele>
      </trkpt>
      <trkpt lat="42.112170830368996" lon="-8.867434719577432">
        <ele>46.14453125</ele>
      </trkpt>
      <trkpt lat="42.112122215330601" lon="-8.867466486990452">
        <ele>46.69140625</ele>
      </trkpt>
      <trkpt lat="42.112076785415411" lon="-8.867506049573421">
        <ele>46.99609375</ele>
      </trkpt>
      <trkpt lat="42.112030517309904" lon="-8.867551730945706">
        <ele>47.1796875</ele>
      </trkpt>
      <trkpt lat="42.11198634468019" lon="-8.867599926888943">
        <ele>47.24609375</ele>
      </trkpt>
      <trkpt lat="42.111943513154984" lon="-8.867647536098957">
        <ele>47.265625</ele>
      </trkpt>
      <trkpt lat="42.11190084926784" lon="-8.867692211642861">
        <ele>47.3203125</ele>
      </trkpt>
      <trkpt lat="42.111861621960998" lon="-8.867742586880922">
        <ele>47.1640625</ele>
      </trkpt>
      <trkpt lat="42.111818287521601" lon="-8.86779229156673">
        <ele>46.87890625</ele>
      </trkpt>
      <trkpt lat="42.111773109063506" lon="-8.867836464196444">
        <ele>46.5546875</ele>
      </trkpt>
      <trkpt lat="42.111721560359001" lon="-8.867879547178745">
        <ele>46.3515625</ele>
      </trkpt>
      <trkpt lat="42.111669844016433" lon="-8.867907878011465">
        <ele>46.453125</ele>
      </trkpt>
      <trkpt lat="42.111613936722279" lon="-8.867923133075237">
        <ele>46.875</ele>
      </trkpt>
      <trkpt lat="42.111553000286222" lon="-8.867928832769394">
        <ele>47.55859375</ele>
      </trkpt>
      <trkpt lat="42.111496338620782" lon="-8.867922127246857">
        <ele>48.4296875</ele>
      </trkpt>
      <trkpt lat="42.111442694440484" lon="-8.867907375097275">
        <ele>49.41015625</ele>
      </trkpt>
      <trkpt lat="42.111385110765696" lon="-8.867889940738678">
        <ele>50.4921875</ele>
      </trkpt>
      <trkpt lat="42.111333059147" lon="-8.867870410904288">
        <ele>51.328125</ele>
      </trkpt>
      <trkpt lat="42.111277068033814" lon="-8.86783923022449">
        <ele>52.34765625</ele>
      </trkpt>
      <trkpt lat="42.111222082749009" lon="-8.867794051766396">
        <ele>53.546875</ele>
      </trkpt>
      <trkpt lat="42.111171958968043" lon="-8.867753818631172">
        <ele>54.5625</ele>
      </trkpt>
      <trkpt lat="42.111120326444507" lon="-8.867714172229171">
        <ele>55.578125</ele>
      </trkpt>
      <trkpt lat="42.111064000055194" lon="-8.867684667930007">
        <ele>56.43359375</ele>
      </trkpt>
      <trkpt lat="42.11100859567523" lon="-8.867660025134683">
        <ele>57.1796875</ele>
      </trkpt>
      <trkpt lat="42.110955035313964" lon="-8.867644686251879">
        <ele>57.74609375</ele>
      </trkpt>
      <trkpt lat="42.110897786915302" lon="-8.867614259943366">
        <ele>58.50390625</ele>
      </trkpt>
      <trkpt lat="42.110845567658544" lon="-8.867579307407141">
        <ele>59.17578125</ele>
      </trkpt>
      <trkpt lat="42.110794018954039" lon="-8.867549635469913">
        <ele>59.7421875</ele>
      </trkpt>
      <trkpt lat="42.110739620402455" lon="-8.867511162534356">
        <ele>60.43359375</ele>
      </trkpt>
      <trkpt lat="42.110690670087934" lon="-8.867476545274258">
        <ele>61.03125</ele>
      </trkpt>
      <trkpt lat="42.110638115555048" lon="-8.867449723184109">
        <ele>61.50390625</ele>
      </trkpt>
      <trkpt lat="42.110584722831845" lon="-8.867428684607148">
        <ele>61.8828125</ele>
      </trkpt>
      <trkpt lat="42.110530994832516" lon="-8.867407310754061">
        <ele>62.25390625</ele>
      </trkpt>
      <trkpt lat="42.110476177185774" lon="-8.867381410673261">
        <ele>62.67578125</ele>
      </trkpt>
      <trkpt lat="42.110422784462571" lon="-8.867347380146384">
        <ele>63.19921875</ele>
      </trkpt>
      <trkpt lat="42.110375845804811" lon="-8.867308152839541">
        <ele>63.77734375</ele>
      </trkpt>
      <trkpt lat="42.110329326242208" lon="-8.86727144010365">
        <ele>64.38671875</ele>
      </trkpt>
      <trkpt lat="42.110277945175767" lon="-8.867247216403484">
        <ele>64.9296875</ele>
      </trkpt>
      <trkpt lat="42.110225223004818" lon="-8.867229279130697">
        <ele>65.359375</ele>
      </trkpt>
      <trkpt lat="42.110169818624854" lon="-8.867214862257242">
        <ele>65.7265625</ele>
      </trkpt>
      <trkpt lat="42.110113827511668" lon="-8.867213437333703">
        <ele>65.83984375</ele>
      </trkpt>
      <trkpt lat="42.110058339312673" lon="-8.86722550727427">
        <ele>65.6796875</ele>
      </trkpt>
      <trkpt lat="42.110008299350739" lon="-8.867251072078943">
        <ele>65.234375</ele>
      </trkpt>
      <trkpt lat="42.109954906627536" lon="-8.867269428446889">
        <ele>65.23828125</ele>
      </trkpt>
      <trkpt lat="42.109893634915352" lon="-8.867270601913333">
        <ele>65.8203125</ele>
      </trkpt>
      <trkpt lat="42.109834710136056" lon="-8.867263896390796">
        <ele>66.546875</ele>
      </trkpt>
      <trkpt lat="42.109778551384807" lon="-8.867265237495303">
        <ele>67.07421875</ele>
      </trkpt>
      <trkpt lat="42.10972054861486" lon="-8.867282923310995">
        <ele>67.28125</ele>
      </trkpt>
      <trkpt lat="42.109664138406515" lon="-8.867301698774099">
        <ele>67.6171875</ele>
      </trkpt>
      <trkpt lat="42.109608901664615" lon="-8.867316786199808">
        <ele>67.984375</ele>
      </trkpt>
      <trkpt lat="42.109555089846253" lon="-8.867326425388455">
        <ele>68.3984375</ele>
      </trkpt>
      <trkpt lat="42.10950018838048" lon="-8.867335394024849">
        <ele>68.796875</ele>
      </trkpt>
      <trkpt lat="42.109488118439913" lon="-8.867292394861579">
        <ele>69.41015625</ele>
      </trkpt>
      <trkpt lat="42.109526675194502" lon="-8.867238499224186">
        <ele>70.15625</ele>
      </trkpt>
      <trkpt lat="42.109577050432563" lon="-8.867188291624188">
        <ele>70.73828125</ele>
      </trkpt>
      <trkpt lat="42.109626838937402" lon="-8.867151746526361">
        <ele>71.015625</ele>
      </trkpt>
      <trkpt lat="42.109676543623209" lon="-8.867110339924693">
        <ele>71.390625</ele>
      </trkpt>
      <trkpt lat="42.10972205735743" lon="-8.867067256942391">
        <ele>71.83203125</ele>
      </trkpt>
      <trkpt lat="42.109772181138396" lon="-8.867024844512343">
        <ele>72.19921875</ele>
      </trkpt>
      <trkpt lat="42.109821634367108" lon="-8.866985533386469">
        <ele>72.49609375</ele>
      </trkpt>
      <trkpt lat="42.109876032918692" lon="-8.866948653012514">
        <ele>72.67578125</ele>
      </trkpt>
      <trkpt lat="42.109926072880626" lon="-8.86691864579916">
        <ele>72.75390625</ele>
      </trkpt>
      <trkpt lat="42.109987093135715" lon="-8.866890734061599">
        <ele>72.65625</ele>
      </trkpt>
      <trkpt lat="42.110041156411171" lon="-8.866866761818528">
        <ele>72.98046875</ele>
      </trkpt>
      <trkpt lat="42.110096896067262" lon="-8.866845555603504">
        <ele>73.26953125</ele>
      </trkpt>
      <trkpt lat="42.110157161951065" lon="-8.86682191863656">
        <ele>73.5859375</ele>
      </trkpt>
      <trkpt lat="42.110209716483951" lon="-8.866795431822538">
        <ele>74.01171875</ele>
      </trkpt>
      <trkpt lat="42.110264534130692" lon="-8.866760227829218">
        <ele>74.609375</ele>
      </trkpt>
      <trkpt lat="42.110316921025515" lon="-8.86672024615109">
        <ele>75.296875</ele>
      </trkpt>
      <trkpt lat="42.110364949330688" lon="-8.866685628890991">
        <ele>75.87109375</ele>
      </trkpt>
      <trkpt lat="42.110413983464241" lon="-8.866652436554432">
        <ele>76.39453125</ele>
      </trkpt>
      <trkpt lat="42.110464693978429" lon="-8.86661765165627">
        <ele>76.9453125</ele>
      </trkpt>
      <trkpt lat="42.110517080873251" lon="-8.866585297510028">
        <ele>77.46484375</ele>
      </trkpt>
      <trkpt lat="42.110576508566737" lon="-8.866561241447926">
        <ele>77.78125</ele>
      </trkpt>
      <trkpt lat="42.110629230737686" lon="-8.866541124880314">
        <ele>78.0234375</ele>
      </trkpt>
      <trkpt lat="42.110684048384428" lon="-8.866528635844588">
        <ele>78.10546875</ele>
      </trkpt>
      <trkpt lat="42.110737441107631" lon="-8.866518996655941">
        <ele>78.125</ele>
      </trkpt>
      <trkpt lat="42.110794438049197" lon="-8.866513632237911">
        <ele>78.05078125</ele>
      </trkpt>
      <trkpt lat="42.110849171876907" lon="-8.86651111766696">
        <ele>77.9296875</ele>
      </trkpt>
      <trkpt lat="42.110903151333332" lon="-8.866511201485991">
        <ele>77.76171875</ele>
      </trkpt>
      <trkpt lat="42.110957046970725" lon="-8.866513716056943">
        <ele>77.5625</ele>
      </trkpt>
      <trkpt lat="42.111013121902943" lon="-8.866520337760448">
        <ele>77.28515625</ele>
      </trkpt>
      <trkpt lat="42.111067101359367" lon="-8.866517655551434">
        <ele>77.1796875</ele>
      </trkpt>
      <trkpt lat="42.111125690862536" lon="-8.866508267819881">
        <ele>77.17578125</ele>
      </trkpt>
      <trkpt lat="42.111181849613786" lon="-8.866497119888663">
        <ele>77.203125</ele>
      </trkpt>
      <trkpt lat="42.111236164346337" lon="-8.866493348032236">
        <ele>77.109375</ele>
      </trkpt>
      <trkpt lat="42.111297100782394" lon="-8.866493348032236">
        <ele>76.93359375</ele>
      </trkpt>
      <trkpt lat="42.11136138997972" lon="-8.866493348032236">
        <ele>76.74609375</ele>
      </trkpt>
      <trkpt lat="42.111418219283223" lon="-8.866491755470634">
        <ele>76.3359375</ele>
      </trkpt>
      <trkpt lat="42.111473958939314" lon="-8.866479685530066">
        <ele>75.984375</ele>
      </trkpt>
      <trkpt lat="42.111532716080546" lon="-8.866453282535076">
        <ele>75.8359375</ele>
      </trkpt>
      <trkpt lat="42.111579906195402" lon="-8.866416905075312">
        <ele>75.96875</ele>
      </trkpt>
      <trkpt lat="42.111623659729958" lon="-8.866364601999521">
        <ele>76.3984375</ele>
      </trkpt>
      <trkpt lat="42.111665653064847" lon="-8.866303330287337">
        <ele>76.90234375</ele>
      </trkpt>
      <trkpt lat="42.111703539267182" lon="-8.866249434649944">
        <ele>77.31640625</ele>
      </trkpt>
      <trkpt lat="42.111745029687881" lon="-8.866194449365139">
        <ele>77.703125</ele>
      </trkpt>
      <trkpt lat="42.111757267266512" lon="-8.866178523749113">
        <ele>77.8125</ele>
      </trkpt>
      <trkpt lat="42.112351628020406" lon="-8.865548959001899">
        <ele>79.0390625</ele>
      </trkpt>
      <trkpt lat="42.112351628020406" lon="-8.865550048649311">
        <ele>79.01953125</ele>
      </trkpt>
      <trkpt lat="42.112692939117551" lon="-8.865232961252332">
        <ele>79.3671875</ele>
      </trkpt>
      <trkpt lat="42.112700901925564" lon="-8.865216616541147">
        <ele>79.59765625</ele>
      </trkpt>
      <trkpt lat="42.113179173320532" lon="-8.864702386781573">
        <ele>82.16796875</ele>
      </trkpt>
      <trkpt lat="42.113180095329881" lon="-8.864702470600605">
        <ele>82.1484375</ele>
      </trkpt>
      <trkpt lat="42.113644955679774" lon="-8.86407533660531">
        <ele>85.03515625</ele>
      </trkpt>
      <trkpt lat="42.113649398088455" lon="-8.864068631082773">
        <ele>85.05859375</ele>
      </trkpt>
      <trkpt lat="42.113863555714488" lon="-8.863779455423355">
        <ele>83.40234375</ele>
      </trkpt>
      <trkpt lat="42.113917451351881" lon="-8.863723715767264">
        <ele>82.6484375</ele>
      </trkpt>
      <trkpt lat="42.113958187401295" lon="-8.863665461540222">
        <ele>82.30859375</ele>
      </trkpt>
      <trkpt lat="42.113997749984264" lon="-8.863615253940225">
        <ele>81.87890625</ele>
      </trkpt>
      <trkpt lat="42.114043766632676" lon="-8.863564543426037">
        <ele>81.171875</ele>
      </trkpt>
      <trkpt lat="42.114084586501122" lon="-8.863496147096157">
        <ele>80.6015625</ele>
      </trkpt>
      <trkpt lat="42.114125406369567" lon="-8.863423308357596">
        <ele>80.05859375</ele>
      </trkpt>
      <trkpt lat="42.114163879305124" lon="-8.863360527902842">
        <ele>79.66015625</ele>
      </trkpt>
      <trkpt lat="42.114178631454706" lon="-8.863290036097169">
        <ele>80.14453125</ele>
      </trkpt>
      <trkpt lat="42.11417879909277" lon="-8.863217867910862">
        <ele>80.80859375</ele>
      </trkpt>
      <trkpt lat="42.114160526543856" lon="-8.863152740523219">
        <ele>81.609375</ele>
      </trkpt>
      <trkpt lat="42.114133536815643" lon="-8.863086607307196">
        <ele>82.703125</ele>
      </trkpt>
      <trkpt lat="42.114110821858048" lon="-8.86301938444376">
        <ele>83.5390625</ele>
      </trkpt>
      <trkpt lat="42.11408986710012" lon="-8.862944869324565">
        <ele>84.3515625</ele>
      </trkpt>
      <trkpt lat="42.114089364185929" lon="-8.862874712795019">
        <ele>84.52734375</ele>
      </trkpt>
      <trkpt lat="42.114117946475744" lon="-8.862812770530581">
        <ele>83.76171875</ele>
      </trkpt>
      <trkpt lat="42.114139823243022" lon="-8.862792151048779">
        <ele>83.11328125</ele>
      </trkpt>
      <trkpt lat="42.114452719688416" lon="-8.86249995790422">
        <ele>82.08203125</ele>
      </trkpt>
      <trkpt lat="42.114497814327478" lon="-8.862449079751968">
        <ele>82.19140625</ele>
      </trkpt>
      <trkpt lat="42.114541651681066" lon="-8.862401135265827">
        <ele>82.31640625</ele>
      </trkpt>
      <trkpt lat="42.114588003605604" lon="-8.862350005656481">
        <ele>82.484375</ele>
      </trkpt>
      <trkpt lat="42.114636702463031" lon="-8.862300217151642">
        <ele>82.75390625</ele>
      </trkpt>
      <trkpt lat="42.114683808758855" lon="-8.862247075885534">
        <ele>83.1953125</ele>
      </trkpt>
      <trkpt lat="42.114724041894078" lon="-8.862192844972014">
        <ele>83.65234375</ele>
      </trkpt>
      <trkpt lat="42.114763855934143" lon="-8.862142721191049">
        <ele>84.03515625</ele>
      </trkpt>
      <trkpt lat="42.114808950573206" lon="-8.862091172486544">
        <ele>84.4375</ele>
      </trkpt>
      <trkpt lat="42.114851446822286" lon="-8.862026212736964">
        <ele>84.921875</ele>
      </trkpt>
      <trkpt lat="42.114889249205589" lon="-8.861965946853161">
        <ele>85.3671875</ele>
      </trkpt>
      <trkpt lat="42.114924620836973" lon="-8.861898891627789">
        <ele>85.85546875</ele>
      </trkpt>
      <trkpt lat="42.114957142621279" lon="-8.861835105344653">
        <ele>86.3203125</ele>
      </trkpt>
      <trkpt lat="42.114993603900075" lon="-8.861781377345324">
        <ele>86.72265625</ele>
      </trkpt>
      <trkpt lat="42.115030651912093" lon="-8.861726643517613">
        <ele>87.109375</ele>
      </trkpt>
      <trkpt lat="42.115067699924111" lon="-8.861660677939653">
        <ele>87.16796875</ele>
      </trkpt>
      <trkpt lat="42.115098880603909" lon="-8.861584234982729">
        <ele>87.26953125</ele>
      </trkpt>
      <trkpt lat="42.115125618875027" lon="-8.861514162272215">
        <ele>87.3125</ele>
      </trkpt>
      <trkpt lat="42.115148417651653" lon="-8.861437300220132">
        <ele>87.21875</ele>
      </trkpt>
      <trkpt lat="42.115169540047646" lon="-8.861364461481571">
        <ele>87.03125</ele>
      </trkpt>
      <trkpt lat="42.115190159529448" lon="-8.861285839229822">
        <ele>86.73046875</ele>
      </trkpt>
      <trkpt lat="42.115205163136125" lon="-8.861215095967054">
        <ele>86.3046875</ele>
      </trkpt>
      <trkpt lat="42.115218741819263" lon="-8.861136892810464">
        <ele>85.76171875</ele>
      </trkpt>
      <trkpt lat="42.115225782617927" lon="-8.861060785129666">
        <ele>85.23828125</ele>
      </trkpt>
      <trkpt lat="42.115232571959496" lon="-8.860988114029169">
        <ele>84.70703125</ele>
      </trkpt>
      <trkpt lat="42.115227375179529" lon="-8.860900523141026">
        <ele>84.23046875</ele>
      </trkpt>
      <trkpt lat="42.115216562524438" lon="-8.860815865918994">
        <ele>83.8984375</ele>
      </trkpt>
      <trkpt lat="42.115203402936459" lon="-8.860739758238196">
        <ele>83.78125</ele>
      </trkpt>
      <trkpt lat="42.115175239741802" lon="-8.860650239512324">
        <ele>83.859375</ele>
      </trkpt>
      <trkpt lat="42.11515361443162" lon="-8.860574718564749">
        <ele>83.86328125</ele>
      </trkpt>
      <trkpt lat="42.115123439580202" lon="-8.860507914796472">
        <ele>84.01953125</ele>
      </trkpt>
      <trkpt lat="42.115093683823943" lon="-8.86044287122786">
        <ele>84.1484375</ele>
      </trkpt>
      <trkpt lat="42.115049678832293" lon="-8.860399704426527">
        <ele>84.47265625</ele>
      </trkpt>
      <trkpt lat="42.115005757659674" lon="-8.860356034711003">
        <ele>84.734375</ele>
      </trkpt>
      <trkpt lat="42.114964183419943" lon="-8.860303396359086">
        <ele>84.79296875</ele>
      </trkpt>
      <trkpt lat="42.114918837323785" lon="-8.860246483236551">
        <ele>84.8046875</ele>
      </trkpt>
      <trkpt lat="42.114873826503754" lon="-8.860204992815852">
        <ele>84.92578125</ele>
      </trkpt>
      <trkpt lat="42.114826552569866" lon="-8.86016677133739">
        <ele>85.0859375</ele>
      </trkpt>
      <trkpt lat="42.11477835662663" lon="-8.860133327543736">
        <ele>85.28125</ele>
      </trkpt>
      <trkpt lat="42.114738542586565" lon="-8.860082533210516">
        <ele>85.21484375</ele>
      </trkpt>
      <trkpt lat="42.114698896184564" lon="-8.860015897080302">
        <ele>84.98046875</ele>
      </trkpt>
      <trkpt lat="42.114656986668706" lon="-8.859965270385146">
        <ele>84.8984375</ele>
      </trkpt>
      <trkpt lat="42.114608120173216" lon="-8.859936101362109">
        <ele>85.07421875</ele>
      </trkpt>
      <trkpt lat="42.114559337496758" lon="-8.859905675053596">
        <ele>85.1953125</ele>
      </trkpt>
      <trkpt lat="42.114516589790583" lon="-8.859856808558106">
        <ele>84.828125</ele>
      </trkpt>
      <trkpt lat="42.114475015550852" lon="-8.85980567894876">
        <ele>84.1171875</ele>
      </trkpt>
      <trkpt lat="42.114423215389252" lon="-8.859782880172133">
        <ele>84.05078125</ele>
      </trkpt>
      <trkpt lat="42.114369655027986" lon="-8.859766954556108">
        <ele>84.12890625</ele>
      </trkpt>
      <trkpt lat="42.114317938685417" lon="-8.859740719199181">
        <ele>83.95703125</ele>
      </trkpt>
      <trkpt lat="42.114264294505119" lon="-8.859716495499015">
        <ele>83.82421875</ele>
      </trkpt>
      <trkpt lat="42.114212829619646" lon="-8.85968891903758">
        <ele>83.578125</ele>
      </trkpt>
      <trkpt lat="42.114162622019649" lon="-8.859649607911706">
        <ele>83.03515625</ele>
      </trkpt>
      <trkpt lat="42.114113336429" lon="-8.859602753072977">
        <ele>82.3984375</ele>
      </trkpt>
      <trkpt lat="42.114066146314144" lon="-8.859556233510375">
        <ele>81.8359375</ele>
      </trkpt>
      <trkpt lat="42.114017363637686" lon="-8.859514994546771">
        <ele>81.4765625</ele>
      </trkpt>
      <trkpt lat="42.113970592617989" lon="-8.859460093080997">
        <ele>80.890625</ele>
      </trkpt>
      <trkpt lat="42.113931197673082" lon="-8.859403682872653">
        <ele>80.3125</ele>
      </trkpt>
      <trkpt lat="42.113887863233685" lon="-8.859351631253958">
        <ele>80.046875</ele>
      </trkpt>
      <trkpt lat="42.113843020051718" lon="-8.859306368976831">
        <ele>79.9296875</ele>
      </trkpt>
      <trkpt lat="42.113793734461069" lon="-8.859275607392192">
        <ele>80.11328125</ele>
      </trkpt>
      <trkpt lat="42.113743778318167" lon="-8.859241660684347">
        <ele>80.27734375</ele>
      </trkpt>
      <trkpt lat="42.113697594031692" lon="-8.85920025408268">
        <ele>80.30078125</ele>
      </trkpt>
      <trkpt lat="42.113652331754565" lon="-8.859144262969494">
        <ele>80.1484375</ele>
      </trkpt>
      <trkpt lat="42.113614026457071" lon="-8.859081901609898">
        <ele>79.81640625</ele>
      </trkpt>
      <trkpt lat="42.113587791100144" lon="-8.85901702567935">
        <ele>79.28515625</ele>
      </trkpt>
      <trkpt lat="42.113571697846055" lon="-8.858946869149804">
        <ele>78.5234375</ele>
      </trkpt>
      <trkpt lat="42.11355971172452" lon="-8.858874198049307">
        <ele>77.5625</ele>
      </trkpt>
      <trkpt lat="42.113555604591966" lon="-8.858797503635287">
        <ele>76.4140625</ele>
      </trkpt>
      <trkpt lat="42.113567842170596" lon="-8.858722988516092">
        <ele>75.0703125</ele>
      </trkpt>
      <trkpt lat="42.11362031288445" lon="-8.85869063436985">
        <ele>73.82421875</ele>
      </trkpt>
      <trkpt lat="42.11367454379797" lon="-8.858689293265343">
        <ele>73.04296875</ele>
      </trkpt>
      <trkpt lat="42.113727936521173" lon="-8.858700441196561">
        <ele>72.515625</ele>
      </trkpt>
      <trkpt lat="42.113781161606312" lon="-8.858713181689382">
        <ele>72.0234375</ele>
      </trkpt>
      <trkpt lat="42.113840170204639" lon="-8.858720390126109">
        <ele>71.37109375</ele>
      </trkpt>
      <trkpt lat="42.113894065842032" lon="-8.858713684603572">
        <ele>70.58984375</ele>
      </trkpt>
      <trkpt lat="42.113952403888106" lon="-8.858688957989216">
        <ele>69.53515625</ele>
      </trkpt>
      <trkpt lat="42.114003114402294" lon="-8.858664147555828">
        <ele>68.6015625</ele>
      </trkpt>
      <trkpt lat="42.11405566893518" lon="-8.85864763520658">
        <ele>67.76953125</ele>
      </trkpt>
      <trkpt lat="42.114110654219985" lon="-8.858627351000905">
        <ele>66.87890625</ele>
      </trkpt>
      <trkpt lat="42.114141080528498" lon="-8.858566079288721">
        <ele>65.86328125</ele>
      </trkpt>
      <trkpt lat="42.114158514887094" lon="-8.858483601361513">
        <ele>64.84765625</ele>
      </trkpt>
      <trkpt lat="42.114167986437678" lon="-8.858410092070699">
        <ele>64.2734375</ele>
      </trkpt>
      <trkpt lat="42.114169830456376" lon="-8.858387880027294">
        <ele>64.1015625</ele>
      </trkpt>
      <trkpt lat="42.114164885133505" lon="-8.85827237740159">
        <ele>63.2890625</ele>
      </trkpt>
      <trkpt lat="42.114174189046025" lon="-8.858201047405601">
        <ele>62.73046875</ele>
      </trkpt>
      <trkpt lat="42.114186761900783" lon="-8.858121335506439">
        <ele>62.09375</ele>
      </trkpt>
      <trkpt lat="42.114209225401282" lon="-8.858059393242002">
        <ele>61.54296875</ele>
      </trkpt>
      <trkpt lat="42.114264545962214" lon="-8.858046401292086">
        <ele>61.19140625</ele>
      </trkpt>
      <trkpt lat="42.114323638379574" lon="-8.858043635264039">
        <ele>60.8984375</ele>
      </trkpt>
      <trkpt lat="42.114378204569221" lon="-8.858043635264039">
        <ele>60.6484375</ele>
      </trkpt>
      <trkpt lat="42.114431345835328" lon="-8.858030727133155">
        <ele>60.30859375</ele>
      </trkpt>
      <trkpt lat="42.114484654739499" lon="-8.858014214783907">
        <ele>59.98046875</ele>
      </trkpt>
      <trkpt lat="42.114537041634321" lon="-8.857991080731153">
        <ele>59.6328125</ele>
      </trkpt>
      <trkpt lat="42.114587416872382" lon="-8.85795135051012">
        <ele>59.21484375</ele>
      </trkpt>
      <trkpt lat="42.114620860666037" lon="-8.857888402417302">
        <ele>58.76953125</ele>
      </trkpt>
      <trkpt lat="42.114639133214951" lon="-8.857818581163883">
        <ele>58.34375</ele>
      </trkpt>
      <trkpt lat="42.114648018032312" lon="-8.857739204540849">
        <ele>57.92578125</ele>
      </trkpt>
      <trkpt lat="42.114651873707771" lon="-8.85765572078526">
        <ele>57.515625</ele>
      </trkpt>
      <trkpt lat="42.11465572938323" lon="-8.857577852904797">
        <ele>57.12890625</ele>
      </trkpt>
      <trkpt lat="42.114664195105433" lon="-8.857504008337855">
        <ele>57.15234375</ele>
      </trkpt>
      <trkpt lat="42.114679114893079" lon="-8.857428655028343">
        <ele>57.21875</ele>
      </trkpt>
      <trkpt lat="42.114702751860023" lon="-8.857355397194624">
        <ele>57.23828125</ele>
      </trkpt>
      <trkpt lat="42.114729322493076" lon="-8.857292868196964">
        <ele>57.22265625</ele>
      </trkpt>
      <trkpt lat="42.114771567285061" lon="-8.857242157682776">
        <ele>57.1015625</ele>
      </trkpt>
      <trkpt lat="42.114823954179883" lon="-8.857195721939206">
        <ele>56.91796875</ele>
      </trkpt>
      <trkpt lat="42.11487122811377" lon="-8.857152638956904">
        <ele>56.765625</ele>
      </trkpt>
      <trkpt lat="42.114921603351831" lon="-8.857111567631364">
        <ele>56.59375</ele>
      </trkpt>
      <trkpt lat="42.114975415170193" lon="-8.857069909572601">
        <ele>56.45703125</ele>
      </trkpt>
      <trkpt lat="42.115026293322444" lon="-8.857035879045725">
        <ele>56.32421875</ele>
      </trkpt>
      <trkpt lat="42.115076752379537" lon="-8.857009643688798">
        <ele>56.16796875</ele>
      </trkpt>
      <trkpt lat="42.11512821726501" lon="-8.856985419988632">
        <ele>55.4921875</ele>
      </trkpt>
      <trkpt lat="42.115177754312754" lon="-8.856951305642724">
        <ele>54.8203125</ele>
      </trkpt>
      <trkpt lat="42.115224609151483" lon="-8.856911743059754">
        <ele>54.16796875</ele>
      </trkpt>
      <trkpt lat="42.115271799266338" lon="-8.856871593743563">
        <ele>53.4765625</ele>
      </trkpt>
      <trkpt lat="42.11532024666667" lon="-8.856831612065434">
        <ele>52.72265625</ele>
      </trkpt>
      <trkpt lat="42.115367436781526" lon="-8.856784421950579">
        <ele>51.96484375</ele>
      </trkpt>
      <trkpt lat="42.115411525592208" lon="-8.856739327311516">
        <ele>51.21484375</ele>
      </trkpt>
      <trkpt lat="42.115453016012907" lon="-8.856689874082804">
        <ele>50.47265625</ele>
      </trkpt>
      <trkpt lat="42.115491991862655" lon="-8.856635056436062">
        <ele>49.7890625</ele>
      </trkpt>
      <trkpt lat="42.115520657971501" lon="-8.856573952361941">
        <ele>49.73046875</ele>
      </trkpt>
      <trkpt lat="42.115542031824589" lon="-8.856502203270793">
        <ele>49.8828125</ele>
      </trkpt>
      <trkpt lat="42.115571284666657" lon="-8.856429196894169">
        <ele>49.921875</ele>
      </trkpt>
      <trkpt lat="42.115599112585187" lon="-8.856366500258446">
        <ele>49.87890625</ele>
      </trkpt>
      <trkpt lat="42.115627778694034" lon="-8.856292404234409">
        <ele>49.875</ele>
      </trkpt>
      <trkpt lat="42.1156588755548" lon="-8.856227276846766">
        <ele>49.71875</ele>
      </trkpt>
      <trkpt lat="42.115686032921076" lon="-8.856162400916219">
        <ele>49.546875</ele>
      </trkpt>
      <trkpt lat="42.115709753707051" lon="-8.8560891430825">
        <ele>49.25</ele>
      </trkpt>
      <trkpt lat="42.11574143730104" lon="-8.85602368041873">
        <ele>48.75</ele>
      </trkpt>
      <trkpt lat="42.115767505019903" lon="-8.855959139764309">
        <ele>48.3515625</ele>
      </trkpt>
      <trkpt lat="42.115799020975828" lon="-8.855890491977334">
        <ele>47.83203125</ele>
      </trkpt>
      <trkpt lat="42.11583430878818" lon="-8.855823436751962">
        <ele>47.203125</ele>
      </trkpt>
      <trkpt lat="42.115860879421234" lon="-8.855760656297207">
        <ele>46.7421875</ele>
      </trkpt>
      <trkpt lat="42.115872278809547" lon="-8.855691337957978">
        <ele>46.40625</ele>
      </trkpt>
      <trkpt lat="42.115856604650617" lon="-8.855607938021421">
        <ele>46.171875</ele>
      </trkpt>
      <trkpt lat="42.115840008482337" lon="-8.855532249435782">
        <ele>46.00390625</ele>
      </trkpt>
      <trkpt lat="42.115820730105042" lon="-8.855454800650477">
        <ele>45.875</ele>
      </trkpt>
      <trkpt lat="42.115794410929084" lon="-8.855371652171016">
        <ele>45.84765625</ele>
      </trkpt>
      <trkpt lat="42.115769600495696" lon="-8.855302501469851">
        <ele>45.87890625</ele>
      </trkpt>
      <trkpt lat="42.115739928558469" lon="-8.855240643024445">
        <ele>46.0234375</ele>
      </trkpt>
      <trkpt lat="42.115711430087686" lon="-8.85517492890358">
        <ele>45.96484375</ele>
      </trkpt>
      <trkpt lat="42.115696594119072" lon="-8.855102425441146">
        <ele>45.53515625</ele>
      </trkpt>
      <trkpt lat="42.11569407954812" lon="-8.855019779875875">
        <ele>44.75</ele>
      </trkpt>
      <trkpt lat="42.115691984072328" lon="-8.854944342747331">
        <ele>44.0234375</ele>
      </trkpt>
      <trkpt lat="42.115656947717071" lon="-8.854879634454846">
        <ele>44.015625</ele>
      </trkpt>
      <trkpt lat="42.115616798400879" lon="-8.854823391884565">
        <ele>44.15234375</ele>
      </trkpt>
      <trkpt lat="42.1155846118927" lon="-8.854758180677891">
        <ele>43.90234375</ele>
      </trkpt>
      <trkpt lat="42.115558460354805" lon="-8.854690538719296">
        <ele>43.34375</ele>
      </trkpt>
      <trkpt lat="42.115529039874673" lon="-8.854616526514292">
        <ele>42.73046875</ele>
      </trkpt>
      <trkpt lat="42.115505067631602" lon="-8.854547208175063">
        <ele>42.08984375</ele>
      </trkpt>
      <trkpt lat="42.115483693778515" lon="-8.854479566216469">
        <ele>41.39453125</ele>
      </trkpt>
      <trkpt lat="42.115478496998549" lon="-8.854403709992766">
        <ele>40.28125</ele>
      </trkpt>
      <trkpt lat="42.115500960499048" lon="-8.854340426623821">
        <ele>38.9375</ele>
      </trkpt>
      <trkpt lat="42.115559130907059" lon="-8.854309497401118">
        <ele>37.6640625</ele>
      </trkpt>
      <trkpt lat="42.115612858906388" lon="-8.854307066649199">
        <ele>36.96484375</ele>
      </trkpt>
      <trkpt lat="42.115665161982179" lon="-8.854326428845525">
        <ele>36.55859375</ele>
      </trkpt>
      <trkpt lat="42.115709753707051" lon="-8.854371104389429">
        <ele>36.58984375</ele>
      </trkpt>
      <trkpt lat="42.11575853638351" lon="-8.85441267862916">
        <ele>36.484375</ele>
      </trkpt>
      <trkpt lat="42.115809582173824" lon="-8.854437740519643">
        <ele>36.1015625</ele>
      </trkpt>
      <trkpt lat="42.115868339315057" lon="-8.854453163221478">
        <ele>35.46875</ele>
      </trkpt>
      <trkpt lat="42.115925922989845" lon="-8.854470178484917">
        <ele>34.84765625</ele>
      </trkpt>
      <trkpt lat="42.115978477522731" lon="-8.854490295052528">
        <ele>34.30859375</ele>
      </trkpt>
      <trkpt lat="42.116029774770141" lon="-8.854528684169054">
        <ele>33.98828125</ele>
      </trkpt>
      <trkpt lat="42.116069588810205" lon="-8.854578472673893">
        <ele>33.93359375</ele>
      </trkpt>
      <trkpt lat="42.116100434213877" lon="-8.854639828205109">
        <ele>34.05859375</ele>
      </trkpt>
      <trkpt lat="42.116146283224225" lon="-8.854689449071884">
        <ele>33.82421875</ele>
      </trkpt>
      <trkpt lat="42.116190372034907" lon="-8.854734627529979">
        <ele>33.53125</ele>
      </trkpt>
      <trkpt lat="42.116241501644254" lon="-8.854761533439159">
        <ele>32.94921875</ele>
      </trkpt>
      <trkpt lat="42.116300510242581" lon="-8.854772178456187">
        <ele>32.1015625</ele>
      </trkpt>
      <trkpt lat="42.116356333717704" lon="-8.85477083735168">
        <ele>31.22265625</ele>
      </trkpt>
      <trkpt lat="42.116412743926048" lon="-8.854760611429811">
        <ele>30.29296875</ele>
      </trkpt>
      <trkpt lat="42.116468735039234" lon="-8.854744685813785">
        <ele>29.3515625</ele>
      </trkpt>
      <trkpt lat="42.116514751687646" lon="-8.854707553982735">
        <ele>28.65625</ele>
      </trkpt>
      <trkpt lat="42.116566384211183" lon="-8.85466430336237">
        <ele>27.89453125</ele>
      </trkpt>
      <trkpt lat="42.11662002839148" lon="-8.854619208723307">
        <ele>27.125</ele>
      </trkpt>
      <trkpt lat="42.116673085838556" lon="-8.854576209560037">
        <ele>26.40234375</ele>
      </trkpt>
      <trkpt lat="42.116721784695983" lon="-8.854543771594763">
        <ele>25.78125</ele>
      </trkpt>
      <trkpt lat="42.116775847971439" lon="-8.854503789916635">
        <ele>25.1015625</ele>
      </trkpt>
      <trkpt lat="42.116819936782122" lon="-8.854460455477238">
        <ele>24.53515625</ele>
      </trkpt>
      <trkpt lat="42.116858158260584" lon="-8.854403123259544">
        <ele>24.01953125</ele>
      </trkpt>
      <trkpt lat="42.116905013099313" lon="-8.854348054155707">
        <ele>23.44921875</ele>
      </trkpt>
      <trkpt lat="42.116947006434202" lon="-8.854298181831837">
        <ele>22.875</ele>
      </trkpt>
      <trkpt lat="42.117000399157405" lon="-8.854251159355044">
        <ele>22.19921875</ele>
      </trkpt>
      <trkpt lat="42.117055049166083" lon="-8.854210507124662">
        <ele>21.5703125</ele>
      </trkpt>
      <trkpt lat="42.117106765508652" lon="-8.854187456890941">
        <ele>21.0625</ele>
      </trkpt>
      <trkpt lat="42.117163008078933" lon="-8.854164490476251">
        <ele>20.53515625</ele>
      </trkpt>
      <trkpt lat="42.117225117981434" lon="-8.854148900136352">
        <ele>20.00390625</ele>
      </trkpt>
      <trkpt lat="42.117279265075922" lon="-8.854138841852546">
        <ele>19.5625</ele>
      </trkpt>
      <trkpt lat="42.117339866235852" lon="-8.85413465090096">
        <ele>19.09765625</ele>
      </trkpt>
      <trkpt lat="42.11739401333034" lon="-8.854130292311311">
        <ele>18.68359375</ele>
      </trkpt>
      <trkpt lat="42.117448076605797" lon="-8.854128951206803">
        <ele>18.1953125</ele>
      </trkpt>
      <trkpt lat="42.117502056062222" lon="-8.854127777740359">
        <ele>17.70703125</ele>
      </trkpt>
      <trkpt lat="42.117556035518646" lon="-8.854126520454884">
        <ele>17.22265625</ele>
      </trkpt>
      <trkpt lat="42.117610098794103" lon="-8.854122497141361">
        <ele>16.73046875</ele>
      </trkpt>
      <trkpt lat="42.117630550637841" lon="-8.854122497141361">
        <ele>16.546875</ele>
      </trkpt>
      <trkpt lat="42.117816125974059" lon="-8.854140602052212">
        <ele>14.92578125</ele>
      </trkpt>
      <trkpt lat="42.11787429638207" lon="-8.854130543768406">
        <ele>14.390625</ele>
      </trkpt>
      <trkpt lat="42.117928024381399" lon="-8.854131633415818">
        <ele>13.93359375</ele>
      </trkpt>
      <trkpt lat="42.117985356599092" lon="-8.854147056117654">
        <ele>13.47265625</ele>
      </trkpt>
      <trkpt lat="42.118040844798088" lon="-8.854156527668238">
        <ele>13.015625</ele>
      </trkpt>
      <trkpt lat="42.11809566244483" lon="-8.854149235412478">
        <ele>12.53515625</ele>
      </trkpt>
      <trkpt lat="42.118142182007432" lon="-8.854114031419158">
        <ele>12.06640625</ele>
      </trkpt>
      <trkpt lat="42.118170009925961" lon="-8.854048987850547">
        <ele>11.69921875</ele>
      </trkpt>
      <trkpt lat="42.118174200877547" lon="-8.853974724188447">
        <ele>11.515625</ele>
      </trkpt>
      <trkpt lat="42.11816992610693" lon="-8.85390012525022">
        <ele>11.40625</ele>
      </trkpt>
      <trkpt lat="42.118153162300587" lon="-8.853827957063913">
        <ele>11.4609375</ele>
      </trkpt>
      <trkpt lat="42.118127346038818" lon="-8.853746652603149">
        <ele>11.63671875</ele>
      </trkpt>
      <trkpt lat="42.118105469271541" lon="-8.85367532260716">
        <ele>11.7734375</ele>
      </trkpt>
      <trkpt lat="42.118077306076884" lon="-8.853609943762422">
        <ele>11.953125</ele>
      </trkpt>
      <trkpt lat="42.118060709908605" lon="-8.853554120287299">
        <ele>12.04296875</ele>
      </trkpt>
      <trkpt lat="42.11783230304718" lon="-8.852855656296015">
        <ele>13.5703125</ele>
      </trkpt>
      <trkpt lat="42.117814784869552" lon="-8.852786337956786">
        <ele>13.68359375</ele>
      </trkpt>
      <trkpt lat="42.117794249206781" lon="-8.852713666856289">
        <ele>13.8203125</ele>
      </trkpt>
      <trkpt lat="42.117776563391089" lon="-8.852637223899364">
        <ele>13.9375</ele>
      </trkpt>
      <trkpt lat="42.117759045213461" lon="-8.852564552798867">
        <ele>14.05078125</ele>
      </trkpt>
      <trkpt lat="42.11774337105453" lon="-8.852481069043279">
        <ele>14.15625</ele>
      </trkpt>
      <trkpt lat="42.117741443216801" lon="-8.852409403771162">
        <ele>14.578125</ele>
      </trkpt>
      <trkpt lat="42.117765583097935" lon="-8.852342097088695">
        <ele>14.82421875</ele>
      </trkpt>
      <trkpt lat="42.117807157337666" lon="-8.85229641571641">
        <ele>14.81640625</ele>
      </trkpt>
      <trkpt lat="42.117850072681904" lon="-8.852251404896379">
        <ele>14.7890625</ele>
      </trkpt>
      <trkpt lat="42.117874883115292" lon="-8.852185858413577">
        <ele>14.99609375</ele>
      </trkpt>
      <trkpt lat="42.11787823587656" lon="-8.85211268439889">
        <ele>15.40234375</ele>
      </trkpt>
      <trkpt lat="42.117881923913956" lon="-8.852033978328109">
        <ele>15.83203125</ele>
      </trkpt>
      <trkpt lat="42.117913607507944" lon="-8.851973377168179">
        <ele>15.90625</ele>
      </trkpt>
      <trkpt lat="42.117954511195421" lon="-8.851923337206244">
        <ele>15.828125</ele>
      </trkpt>
      <trkpt lat="42.117996672168374" lon="-8.851877823472023">
        <ele>15.70703125</ele>
      </trkpt>
      <trkpt lat="42.1180384978652" lon="-8.85183465667069">
        <ele>15.56640625</ele>
      </trkpt>
      <trkpt lat="42.11807269603014" lon="-8.851769948378205">
        <ele>15.578125</ele>
      </trkpt>
      <trkpt lat="42.118089711293578" lon="-8.851700127124786">
        <ele>15.75390625</ele>
      </trkpt>
      <trkpt lat="42.118100188672543" lon="-8.851629300042987">
        <ele>15.98828125</ele>
      </trkpt>
      <trkpt lat="42.118106223642826" lon="-8.85155763477087">
        <ele>16.2578125</ele>
      </trkpt>
      <trkpt lat="42.118107145652175" lon="-8.85148286819458">
        <ele>16.47265625</ele>
      </trkpt>
      <trkpt lat="42.118104211986065" lon="-8.851409777998924">
        <ele>16.7109375</ele>
      </trkpt>
      <trkpt lat="42.118122316896915" lon="-8.851343309506774">
        <ele>16.70703125</ele>
      </trkpt>
      <trkpt lat="42.118159867823124" lon="-8.851289916783571">
        <ele>16.43359375</ele>
      </trkpt>
      <trkpt lat="42.118185348808765" lon="-8.851224035024643">
        <ele>16.30078125</ele>
      </trkpt>
      <trkpt lat="42.118204291909933" lon="-8.851151112467051">
        <ele>16.23828125</ele>
      </trkpt>
      <trkpt lat="42.118217451497912" lon="-8.851075423881412">
        <ele>16.2265625</ele>
      </trkpt>
      <trkpt lat="42.118227928876877" lon="-8.850996550172567">
        <ele>16.20703125</ele>
      </trkpt>
      <trkpt lat="42.11823396384716" lon="-8.85091750882566">
        <ele>16.23828125</ele>
      </trkpt>
      <trkpt lat="42.118236310780048" lon="-8.850841484963894">
        <ele>16.30859375</ele>
      </trkpt>
      <trkpt lat="42.118238573893905" lon="-8.850760348141193">
        <ele>16.3828125</ele>
      </trkpt>
      <trkpt lat="42.118239747360349" lon="-8.850673763081431">
        <ele>16.48046875</ele>
      </trkpt>
      <trkpt lat="42.118241088464856" lon="-8.850600337609649">
        <ele>16.5390625</ele>
      </trkpt>
      <trkpt lat="42.118238909170032" lon="-8.850526073947549">
        <ele>16.62890625</ele>
      </trkpt>
      <trkpt lat="42.118234466761351" lon="-8.85044845752418">
        <ele>16.76171875</ele>
      </trkpt>
      <trkpt lat="42.118231197819114" lon="-8.850371427834034">
        <ele>16.87890625</ele>
      </trkpt>
      <trkpt lat="42.118230108171701" lon="-8.850296745076776">
        <ele>16.953125</ele>
      </trkpt>
      <trkpt lat="42.118230108171701" lon="-8.850226253271103">
        <ele>17.0078125</ele>
      </trkpt>
      <trkpt lat="42.118424316868186" lon="-8.850076636299491">
        <ele>14.484375</ele>
      </trkpt>
      <trkpt lat="42.118457593023777" lon="-8.850050233304501">
        <ele>14.23046875</ele>
      </trkpt>
      <trkpt lat="42.118495311588049" lon="-8.850020561367273">
        <ele>13.94140625</ele>
      </trkpt>
      <trkpt lat="42.11853789165616" lon="-8.849999774247408">
        <ele>13.5859375</ele>
      </trkpt>
      <trkpt lat="42.118578292429447" lon="-8.849986866116524">
        <ele>13.23828125</ele>
      </trkpt>
      <trkpt lat="42.118618274107575" lon="-8.849977729842067">
        <ele>12.88671875</ele>
      </trkpt>
      <trkpt lat="42.118661860004067" lon="-8.849967839196324">
        <ele>12.5</ele>
      </trkpt>
      <trkpt lat="42.118701003491879" lon="-8.849965743720531">
        <ele>12.14453125</ele>
      </trkpt>
      <trkpt lat="42.118738973513246" lon="-8.849959373474121">
        <ele>11.8046875</ele>
      </trkpt>
      <trkpt lat="42.118775015696883" lon="-8.849945040419698">
        <ele>11.484375</ele>
      </trkpt>
      <trkpt lat="42.118799909949303" lon="-8.8499138597399">
        <ele>11.30859375</ele>
      </trkpt>
      <trkpt lat="42.118759257718921" lon="-8.849557042121887">
        <ele>12</ele>
      </trkpt>
      <trkpt lat="42.118758670985699" lon="-8.849557125940919">
        <ele>12.00390625</ele>
      </trkpt>
      <trkpt lat="42.11873721331358" lon="-8.849330898374319">
        <ele>12.53125</ele>
      </trkpt>
      <trkpt lat="42.11873721331358" lon="-8.849258394911885">
        <ele>12.6328125</ele>
      </trkpt>
      <trkpt lat="42.118733776733279" lon="-8.849187064915895">
        <ele>12.6015625</ele>
      </trkpt>
      <trkpt lat="42.11872992105782" lon="-8.849129984155297">
        <ele>12.53515625</ele>
      </trkpt>
      <trkpt lat="42.118727741762996" lon="-8.849070472642779">
        <ele>12.4453125</ele>
      </trkpt>
      <trkpt lat="42.118724221363664" lon="-8.84899914264679">
        <ele>12.34765625</ele>
      </trkpt>
      <trkpt lat="42.118720030412078" lon="-8.848947007209063">
        <ele>12.29296875</ele>
      </trkpt>
      <trkpt lat="42.118716426193714" lon="-8.848888669162989">
        <ele>12.22265625</ele>
      </trkpt>
      <trkpt lat="42.118712486699224" lon="-8.848833097144961">
        <ele>12.16015625</ele>
      </trkpt>
      <trkpt lat="42.11870695464313" lon="-8.848780123516917">
        <ele>12.125</ele>
      </trkpt>
      <trkpt lat="42.118701254948974" lon="-8.848726646974683">
        <ele>12.05078125</ele>
      </trkpt>
      <trkpt lat="42.118699410930276" lon="-8.848674343898892">
        <ele>11.93359375</ele>
      </trkpt>
      <trkpt lat="42.118696561083198" lon="-8.848620615899563">
        <ele>11.82421875</ele>
      </trkpt>
      <trkpt lat="42.118692621588707" lon="-8.848560098558664">
        <ele>11.7109375</ele>
      </trkpt>
      <trkpt lat="42.118685413151979" lon="-8.848500167950988">
        <ele>11.6328125</ele>
      </trkpt>
      <trkpt lat="42.118679797276855" lon="-8.848428837954998">
        <ele>11.5078125</ele>
      </trkpt>
      <trkpt lat="42.118672588840127" lon="-8.848375277593732">
        <ele>11.4453125</ele>
      </trkpt>
      <trkpt lat="42.118666050955653" lon="-8.848322723060846">
        <ele>11.3828125</ele>
      </trkpt>
      <trkpt lat="42.118655992671847" lon="-8.848272012546659">
        <ele>11.1875</ele>
      </trkpt>
      <trkpt lat="42.11864585056901" lon="-8.848220380023122">
        <ele>10.9375</ele>
      </trkpt>
      <trkpt lat="42.118635624647141" lon="-8.848166652023792">
        <ele>10.67578125</ele>
      </trkpt>
      <trkpt lat="42.118624476715922" lon="-8.848117031157017">
        <ele>10.4453125</ele>
      </trkpt>
      <trkpt lat="42.118609808385372" lon="-8.848064644262195">
        <ele>10.23046875</ele>
      </trkpt>
      <trkpt lat="42.118587093427777" lon="-8.848016615957022">
        <ele>10.125</ele>
      </trkpt>
      <trkpt lat="42.118566976860166" lon="-8.84797059930861">
        <ele>10.00390625</ele>
      </trkpt>
      <trkpt lat="42.118552727624774" lon="-8.847918463870883">
        <ele>9.76953125</ele>
      </trkpt>
      <trkpt lat="42.118538813665509" lon="-8.847868256270885">
        <ele>9.546875</ele>
      </trkpt>
      <trkpt lat="42.118524145334959" lon="-8.847809918224812">
        <ele>9.33203125</ele>
      </trkpt>
      <trkpt lat="42.118505956605077" lon="-8.847764739766717">
        <ele>9.25390625</ele>
      </trkpt>
      <trkpt lat="42.118482068181038" lon="-8.84772433899343">
        <ele>9.2578125</ele>
      </trkpt>
      <trkpt lat="42.118458347395062" lon="-8.847678489983082">
        <ele>9.2265625</ele>
      </trkpt>
      <trkpt lat="42.118439991027117" lon="-8.847631299868226">
        <ele>9.12890625</ele>
      </trkpt>
      <trkpt lat="42.11841719225049" lon="-8.847585786134005">
        <ele>9.0859375</ele>
      </trkpt>
      <trkpt lat="42.118392968550324" lon="-8.847547229379416">
        <ele>9.08984375</ele>
      </trkpt>
      <trkpt lat="42.118354244157672" lon="-8.847529292106628">
        <ele>9.3515625</ele>
      </trkpt>
      <trkpt lat="42.118316190317273" lon="-8.847520826384425">
        <ele>9.671875</ele>
      </trkpt>
      <trkpt lat="42.118276292458177" lon="-8.847510013729334">
        <ele>10.15625</ele>
      </trkpt>
      <trkpt lat="42.118238573893905" lon="-8.847504146397114">
        <ele>10.6328125</ele>
      </trkpt>
      <trkpt lat="42.118200687691569" lon="-8.84750104509294">
        <ele>11.1328125</ele>
      </trkpt>
      <trkpt lat="42.118161460384727" lon="-8.847495680674911">
        <ele>11.6328125</ele>
      </trkpt>
      <trkpt lat="42.118144948035479" lon="-8.847492327913642">
        <ele>11.8359375</ele>
      </trkpt>
      <trkpt lat="42.118026092648506" lon="-8.847452849149704">
        <ele>13.171875</ele>
      </trkpt>
      <trkpt lat="42.117989044636488" lon="-8.847440276294947">
        <ele>13.578125</ele>
      </trkpt>
      <trkpt lat="42.117950990796089" lon="-8.847429882735014">
        <ele>14.0078125</ele>
      </trkpt>
      <trkpt lat="42.117912769317627" lon="-8.847416555508971">
        <ele>14.41796875</ele>
      </trkpt>
      <trkpt lat="42.117875134572387" lon="-8.847409682348371">
        <ele>14.86328125</ele>
      </trkpt>
      <trkpt lat="42.117835655808449" lon="-8.847403228282928">
        <ele>15.390625</ele>
      </trkpt>
      <trkpt lat="42.117796428501606" lon="-8.847395349293947">
        <ele>15.94921875</ele>
      </trkpt>
      <trkpt lat="42.117757704108953" lon="-8.847384369000793">
        <ele>16.48828125</ele>
      </trkpt>
      <trkpt lat="42.117731049656868" lon="-8.847348326817155">
        <ele>16.8125</ele>
      </trkpt>
      <trkpt lat="42.11771110072732" lon="-8.847297867760062">
        <ele>16.99609375</ele>
      </trkpt>
      <trkpt lat="42.11769500747323" lon="-8.847246235236526">
        <ele>17.11328125</ele>
      </trkpt>
      <trkpt lat="42.11768033914268" lon="-8.847188651561737">
        <ele>17.1953125</ele>
      </trkpt>
      <trkpt lat="42.117669275030494" lon="-8.847138108685613">
        <ele>17.23828125</ele>
      </trkpt>
      <trkpt lat="42.117653349414468" lon="-8.847082788124681">
        <ele>17.34375</ele>
      </trkpt>
      <trkpt lat="42.117637591436505" lon="-8.84703584946692">
        <ele>17.46875</ele>
      </trkpt>
      <trkpt lat="42.117612529546022" lon="-8.846993437036872">
        <ele>17.75390625</ele>
      </trkpt>
      <trkpt lat="42.117581097409129" lon="-8.846955634653568">
        <ele>18.15234375</ele>
      </trkpt>
      <trkpt lat="42.117546312510967" lon="-8.846917999908328">
        <ele>18.6015625</ele>
      </trkpt>
      <trkpt lat="42.117518568411469" lon="-8.84687558747828">
        <ele>18.9453125</ele>
      </trkpt>
      <trkpt lat="42.117493590340018" lon="-8.84683552198112">
        <ele>19.25</ele>
      </trkpt>
      <trkpt lat="42.117466349154711" lon="-8.846794366836548">
        <ele>19.59765625</ele>
      </trkpt>
      <trkpt lat="42.117440029978752" lon="-8.846748434007168">
        <ele>19.9296875</ele>
      </trkpt>
      <trkpt lat="42.117413878440857" lon="-8.846702165901661">
        <ele>20.26171875</ele>
      </trkpt>
      <trkpt lat="42.117389906197786" lon="-8.846662435680628">
        <ele>20.59765625</ele>
      </trkpt>
      <trkpt lat="42.117363167926669" lon="-8.846625220030546">
        <ele>21.09765625</ele>
      </trkpt>
      <trkpt lat="42.117346907034516" lon="-8.846595967188478">
        <ele>21.38671875</ele>
      </trkpt>
      <trkpt lat="42.117224279791117" lon="-8.846451295539737">
        <ele>23.6796875</ele>
      </trkpt>
      <trkpt lat="42.117198128253222" lon="-8.84640745818615">
        <ele>24.1796875</ele>
      </trkpt>
      <trkpt lat="42.117174323648214" lon="-8.846359178423882">
        <ele>24.61328125</ele>
      </trkpt>
      <trkpt lat="42.117150267586112" lon="-8.846318274736404">
        <ele>25.05078125</ele>
      </trkpt>
      <trkpt lat="42.117124954238534" lon="-8.846273683011532">
        <ele>25.49609375</ele>
      </trkpt>
      <trkpt lat="42.117095114663243" lon="-8.846228756010532">
        <ele>26.015625</ele>
      </trkpt>
      <trkpt lat="42.117069298401475" lon="-8.846188690513372">
        <ele>26.453125</ele>
      </trkpt>
      <trkpt lat="42.117050606757402" lon="-8.846140410751104">
        <ele>26.72265625</ele>
      </trkpt>
      <trkpt lat="42.117041302844882" lon="-8.846084335818887">
        <ele>26.7890625</ele>
      </trkpt>
      <trkpt lat="42.117035519331694" lon="-8.84603220038116">
        <ele>26.79296875</ele>
      </trkpt>
      <trkpt lat="42.117023700848222" lon="-8.845979562029243">
        <ele>26.7578125</ele>
      </trkpt>
      <trkpt lat="42.117010373622179" lon="-8.84592910297215">
        <ele>26.53515625</ele>
      </trkpt>
      <trkpt lat="42.116991514340043" lon="-8.845876716077328">
        <ele>26.4140625</ele>
      </trkpt>
      <trkpt lat="42.116968128830194" lon="-8.845824329182506">
        <ele>26.40625</ele>
      </trkpt>
      <trkpt lat="42.116945497691631" lon="-8.845772864297032">
        <ele>26.4140625</ele>
      </trkpt>
      <trkpt lat="42.116924794390798" lon="-8.845729865133762">
        <ele>26.47265625</ele>
      </trkpt>
      <trkpt lat="42.11689805611968" lon="-8.845691559836268">
        <ele>26.69140625</ele>
      </trkpt>
      <trkpt lat="42.116868048906326" lon="-8.845653757452965">
        <ele>26.98828125</ele>
      </trkpt>
      <trkpt lat="42.116837119683623" lon="-8.845620397478342">
        <ele>27.35546875</ele>
      </trkpt>
      <trkpt lat="42.116801161319017" lon="-8.84560271166265">
        <ele>27.95703125</ele>
      </trkpt>
      <trkpt lat="42.116761682555079" lon="-8.84558611549437">
        <ele>28.6484375</ele>
      </trkpt>
      <trkpt lat="42.116727568209171" lon="-8.84555141441524">
        <ele>29.09375</ele>
      </trkpt>
      <trkpt lat="42.116701081395149" lon="-8.84550791233778">
        <ele>29.265625</ele>
      </trkpt>
      <trkpt lat="42.116690101101995" lon="-8.845456866547465">
        <ele>29.015625</ele>
      </trkpt>
      <trkpt lat="42.116680629551411" lon="-8.845402467995882">
        <ele>28.71484375</ele>
      </trkpt>
      <trkpt lat="42.116665877401829" lon="-8.845357457175851">
        <ele>28.62890625</ele>
      </trkpt>
      <trkpt lat="42.11663318797946" lon="-8.845331137999892">
        <ele>29.14453125</ele>
      </trkpt>
      <trkpt lat="42.116620698943734" lon="-8.845279924571514">
        <ele>28.984375</ele>
      </trkpt>
      <trkpt lat="42.116613825783134" lon="-8.845225526019931">
        <ele>28.671875</ele>
      </trkpt>
      <trkpt lat="42.116613909602165" lon="-8.845168361440301">
        <ele>28.17578125</ele>
      </trkpt>
      <trkpt lat="42.11662145331502" lon="-8.845117734745145">
        <ele>27.54296875</ele>
      </trkpt>
      <trkpt lat="42.116641066968441" lon="-8.845072723925114">
        <ele>26.6328125</ele>
      </trkpt>
      <trkpt lat="42.11665908806026" lon="-8.845024025067687">
        <ele>25.09765625</ele>
      </trkpt>
      <trkpt lat="42.116673337295651" lon="-8.844974907115102">
        <ele>23.66015625</ele>
      </trkpt>
      <trkpt lat="42.116684233769774" lon="-8.844924867153168">
        <ele>22.296875</ele>
      </trkpt>
      <trkpt lat="42.116699321195483" lon="-8.844877006486058">
        <ele>20.87890625</ele>
      </trkpt>
      <trkpt lat="42.116713654249907" lon="-8.844830738380551">
        <ele>19.52734375</ele>
      </trkpt>
      <trkpt lat="42.11671432480216" lon="-8.844780279323459">
        <ele>18.41796875</ele>
      </trkpt>
      <trkpt lat="42.116678953170776" lon="-8.844764772802591">
        <ele>18.92578125</ele>
      </trkpt>
      <trkpt lat="42.11664249189198" lon="-8.844745578244328">
        <ele>19.375</ele>
      </trkpt>
      <trkpt lat="42.11660485714674" lon="-8.844717582687736">
        <ele>19.6484375</ele>
      </trkpt>
      <trkpt lat="42.116568647325039" lon="-8.84469436481595">
        <ele>19.984375</ele>
      </trkpt>
      <trkpt lat="42.116529922932386" lon="-8.844674499705434">
        <ele>20.4453125</ele>
      </trkpt>
      <trkpt lat="42.116495054215193" lon="-8.844647677615285">
        <ele>20.64453125</ele>
      </trkpt>
      <trkpt lat="42.116466388106346" lon="-8.844612389802933">
        <ele>20.515625</ele>
      </trkpt>
      <trkpt lat="42.116454737260938" lon="-8.844601744785905">
        <ele>20.6171875</ele>
      </trkpt>
      <trkpt lat="42.116356417536736" lon="-8.84449646808207">
        <ele>21.421875</ele>
      </trkpt>
      <trkpt lat="42.116331774741411" lon="-8.844456570222974">
        <ele>21.4453125</ele>
      </trkpt>
      <trkpt lat="42.11631316691637" lon="-8.844408709555864">
        <ele>21.1484375</ele>
      </trkpt>
      <trkpt lat="42.116291541606188" lon="-8.844361184164882">
        <ele>21.02734375</ele>
      </trkpt>
      <trkpt lat="42.116265473887324" lon="-8.844316005706787">
        <ele>21.1953125</ele>
      </trkpt>
      <trkpt lat="42.11624376475811" lon="-8.844273593276739">
        <ele>21.3046875</ele>
      </trkpt>
      <trkpt lat="42.116229515522718" lon="-8.84422137401998">
        <ele>20.98046875</ele>
      </trkpt>
      <trkpt lat="42.116219960153103" lon="-8.844167981296778">
        <ele>20.47265625</ele>
      </trkpt>
      <trkpt lat="42.116204956546426" lon="-8.844110481441021">
        <ele>20.51953125</ele>
      </trkpt>
      <trkpt lat="42.116192635148764" lon="-8.844054490327835">
        <ele>20.62109375</ele>
      </trkpt>
      <trkpt lat="42.116181151941419" lon="-8.844003528356552">
        <ele>20.70703125</ele>
      </trkpt>
      <trkpt lat="42.116170087829232" lon="-8.843953739851713">
        <ele>20.765625</ele>
      </trkpt>
      <trkpt lat="42.11615726351738" lon="-8.843891462311149">
        <ele>20.76953125</ele>
      </trkpt>
      <trkpt lat="42.11614603176713" lon="-8.843841757625341">
        <ele>20.79296875</ele>
      </trkpt>
      <trkpt lat="42.116132201626897" lon="-8.843793729320168">
        <ele>20.9140625</ele>
      </trkpt>
      <trkpt lat="42.11611719802022" lon="-8.843741258606315">
        <ele>21.01953125</ele>
      </trkpt>
      <trkpt lat="42.116100350394845" lon="-8.843680238351226">
        <ele>21.06640625</ele>
      </trkpt>
      <trkpt lat="42.116085598245263" lon="-8.843631288036704">
        <ele>21</ele>
      </trkpt>
      <trkpt lat="42.116065146401525" lon="-8.84357538074255">
        <ele>21.0078125</ele>
      </trkpt>
      <trkpt lat="42.116044778376818" lon="-8.843521317467093">
        <ele>20.984375</ele>
      </trkpt>
      <trkpt lat="42.116026170551777" lon="-8.843470020219684">
        <ele>20.89453125</ele>
      </trkpt>
      <trkpt lat="42.116000019013882" lon="-8.843406904488802">
        <ele>20.8046875</ele>
      </trkpt>
      <trkpt lat="42.115977304056287" lon="-8.843361055478454">
        <ele>20.75390625</ele>
      </trkpt>
      <trkpt lat="42.115953415632248" lon="-8.843321492895484">
        <ele>20.8203125</ele>
      </trkpt>
      <trkpt lat="42.115927515551448" lon="-8.843281259760261">
        <ele>20.9140625</ele>
      </trkpt>
      <trkpt lat="42.115898933261633" lon="-8.843238595873117">
        <ele>21.03515625</ele>
      </trkpt>
      <trkpt lat="42.115868758410215" lon="-8.843197440728545">
        <ele>20.9296875</ele>
      </trkpt>
      <trkpt lat="42.115840679034591" lon="-8.843159805983305">
        <ele>20.67578125</ele>
      </trkpt>
      <trkpt lat="42.115831291303039" lon="-8.843147065490484">
        <ele>20.5859375</ele>
      </trkpt>
      <trkpt lat="42.115591485053301" lon="-8.842852022498846">
        <ele>18.51953125</ele>
      </trkpt>
      <trkpt lat="42.115590898320079" lon="-8.842852106317878">
        <ele>18.53515625</ele>
      </trkpt>
      <trkpt lat="42.1153549477458" lon="-8.842551447451115">
        <ele>18.04296875</ele>
      </trkpt>
      <trkpt lat="42.115185046568513" lon="-8.842430412769318">
        <ele>19.85546875</ele>
      </trkpt>
      <trkpt lat="42.115176664665341" lon="-8.842421108856797">
        <ele>19.84765625</ele>
      </trkpt>
      <trkpt lat="42.114929733797908" lon="-8.842209046706557">
        <ele>18.6015625</ele>
      </trkpt>
      <trkpt lat="42.114927554503083" lon="-8.842205442488194">
        <ele>18.5234375</ele>
      </trkpt>
      <trkpt lat="42.114655897021294" lon="-8.841999834403396">
        <ele>16.05078125</ele>
      </trkpt>
      <trkpt lat="42.114657908678055" lon="-8.841998241841793">
        <ele>15.97265625</ele>
      </trkpt>
      <trkpt lat="42.11441776715219" lon="-8.841802524402738">
        <ele>14.21484375</ele>
      </trkpt>
      <trkpt lat="42.11441776715219" lon="-8.841803278774023">
        <ele>14.22265625</ele>
      </trkpt>
      <trkpt lat="42.114233281463385" lon="-8.841583840548992">
        <ele>14.40234375</ele>
      </trkpt>
      <trkpt lat="42.114232694730163" lon="-8.841583840548992">
        <ele>14.41015625</ele>
      </trkpt>
      <trkpt lat="42.11407327093184" lon="-8.841432044282556">
        <ele>14.19140625</ele>
      </trkpt>
      <trkpt lat="42.114075198769569" lon="-8.841428104788065">
        <ele>14.13671875</ele>
      </trkpt>
      <trkpt lat="42.113770684227347" lon="-8.84121629409492">
        <ele>13.91796875</ele>
      </trkpt>
      <trkpt lat="42.113768672570586" lon="-8.841214701533318">
        <ele>13.91796875</ele>
      </trkpt>
      <trkpt lat="42.113487711176276" lon="-8.840986210852861">
        <ele>13.19140625</ele>
      </trkpt>
      <trkpt lat="42.113262070342898" lon="-8.840802814811468">
        <ele>12.46875</ele>
      </trkpt>
      <trkpt lat="42.113261483609676" lon="-8.840803653001785">
        <ele>12.4765625</ele>
      </trkpt>
      <trkpt lat="42.113078339025378" lon="-8.840633668005466">
        <ele>12.625</ele>
      </trkpt>
      <trkpt lat="42.112977923825383" lon="-8.840426132082939">
        <ele>12.79296875</ele>
      </trkpt>
      <trkpt lat="42.112973565235734" lon="-8.840419929474592">
        <ele>12.82421875</ele>
      </trkpt>
      <trkpt lat="42.112853536382318" lon="-8.840135866776109">
        <ele>13.953125</ele>
      </trkpt>
      <trkpt lat="42.112853536382318" lon="-8.840131675824523">
        <ele>13.953125</ele>
      </trkpt>
      <trkpt lat="42.112833922728896" lon="-8.839822635054588">
        <ele>14.875</ele>
      </trkpt>
      <trkpt lat="42.112833922728896" lon="-8.839820204302669">
        <ele>14.88671875</ele>
      </trkpt>
      <trkpt lat="42.112831408157945" lon="-8.839585846289992">
        <ele>15.80859375</ele>
      </trkpt>
      <trkpt lat="42.112832078710198" lon="-8.839582409709692">
        <ele>15.8125</ele>
      </trkpt>
      <trkpt lat="42.112868959084153" lon="-8.839323995634913">
        <ele>15.9765625</ele>
      </trkpt>
      <trkpt lat="42.112872982397676" lon="-8.839314356446266">
        <ele>15.9375</ele>
      </trkpt>
      <trkpt lat="42.112950095906854" lon="-8.839143449440598">
        <ele>15.171875</ele>
      </trkpt>
      <trkpt lat="42.112951017916203" lon="-8.839127440005541">
        <ele>15.19921875</ele>
      </trkpt>
      <trkpt lat="42.112948335707188" lon="-8.838793756440282">
        <ele>15.27734375</ele>
      </trkpt>
      <trkpt lat="42.112872060388327" lon="-8.838538946583867">
        <ele>16.13671875</ele>
      </trkpt>
      <trkpt lat="42.112858314067125" lon="-8.838492594659328">
        <ele>16.25</ele>
      </trkpt>
      <trkpt lat="42.112783715128899" lon="-8.838231917470694">
        <ele>16.75390625</ele>
      </trkpt>
      <trkpt lat="42.112774914130569" lon="-8.838200569152832">
        <ele>16.80078125</ele>
      </trkpt>
      <trkpt lat="42.112722359597683" lon="-8.838027566671371">
        <ele>16.71875</ele>
      </trkpt>
      <trkpt lat="42.112721102312207" lon="-8.838024213910103">
        <ele>16.71484375</ele>
      </trkpt>
      <trkpt lat="42.112620184198022" lon="-8.837943915277719">
        <ele>17.27734375</ele>
      </trkpt>
      <trkpt lat="42.112496215850115" lon="-8.837899155914783">
        <ele>18.17578125</ele>
      </trkpt>
      <trkpt lat="42.112302258610725" lon="-8.837841236963868">
        <ele>19.5390625</ele>
      </trkpt>
      <trkpt lat="42.112301671877503" lon="-8.837841236963868">
        <ele>19.54296875</ele>
      </trkpt>
      <trkpt lat="42.112148450687528" lon="-8.837840398773551">
        <ele>20.62890625</ele>
      </trkpt>
      <trkpt lat="42.11214660666883" lon="-8.837838973850012">
        <ele>20.62890625</ele>
      </trkpt>
      <trkpt lat="42.11198533885181" lon="-8.83779932744801">
        <ele>21.40234375</ele>
      </trkpt>
      <trkpt lat="42.111977459862828" lon="-8.837797567248344">
        <ele>21.4375</ele>
      </trkpt>
      <trkpt lat="42.111820802092552" lon="-8.837750293314457">
        <ele>22.1796875</ele>
      </trkpt>
      <trkpt lat="42.111784843727946" lon="-8.837725063785911">
        <ele>22.4453125</ele>
      </trkpt>
      <trkpt lat="42.111669844016433" lon="-8.837643088772893">
        <ele>23.25390625</ele>
      </trkpt>
      <trkpt lat="42.111660959199071" lon="-8.837634539231658">
        <ele>23.30078125</ele>
      </trkpt>
      <trkpt lat="42.111493907868862" lon="-8.837459776550531">
        <ele>23.84375</ele>
      </trkpt>
      <trkpt lat="42.111489800736308" lon="-8.83745533414185">
        <ele>23.8515625</ele>
      </trkpt>
      <trkpt lat="42.111247396096587" lon="-8.837011847645044">
        <ele>22.640625</ele>
      </trkpt>
      <trkpt lat="42.111246809363365" lon="-8.837011847645044">
        <ele>22.6484375</ele>
      </trkpt>
      <trkpt lat="42.111063161864877" lon="-8.836653856560588">
        <ele>21.26953125</ele>
      </trkpt>
      <trkpt lat="42.111062575131655" lon="-8.836654610931873">
        <ele>21.28515625</ele>
      </trkpt>
      <trkpt lat="42.111003063619137" lon="-8.836429473012686">
        <ele>19.5703125</ele>
      </trkpt>
      <trkpt lat="42.111000129953027" lon="-8.836426036432385">
        <ele>19.56640625</ele>
      </trkpt>
      <trkpt lat="42.110883789137006" lon="-8.836257141083479">
        <ele>19.23046875</ele>
      </trkpt>
      <trkpt lat="42.110881023108959" lon="-8.836252866312861">
        <ele>19.23828125</ele>
      </trkpt>
      <trkpt lat="42.1107735671103" lon="-8.836142057552934">
        <ele>20.1875</ele>
      </trkpt>
      <trkpt lat="42.110753618180752" lon="-8.836090508848429">
        <ele>20.09375</ele>
      </trkpt>
      <trkpt lat="42.110741548240185" lon="-8.836065363138914">
        <ele>20.09765625</ele>
      </trkpt>
      <trkpt lat="42.110573323443532" lon="-8.835761267691851">
        <ele>21.06640625</ele>
      </trkpt>
      <trkpt lat="42.11057273671031" lon="-8.835761267691851">
        <ele>21.078125</ele>
      </trkpt>
      <trkpt lat="42.110385233536363" lon="-8.835572171956301">
        <ele>24.20703125</ele>
      </trkpt>
      <trkpt lat="42.110363524407148" lon="-8.835526658222079">
        <ele>24.4921875</ele>
      </trkpt>
      <trkpt lat="42.110347850248218" lon="-8.835478210821748">
        <ele>24.609375</ele>
      </trkpt>
      <trkpt lat="42.110338294878602" lon="-8.835428757593036">
        <ele>24.56640625</ele>
      </trkpt>
      <trkpt lat="42.110329326242208" lon="-8.835371593013406">
        <ele>24.46875</ele>
      </trkpt>
      <trkpt lat="42.110321363434196" lon="-8.835309315472841">
        <ele>24.375</ele>
      </trkpt>
      <trkpt lat="42.110316334292293" lon="-8.835254665464163">
        <ele>24.2578125</ele>
      </trkpt>
      <trkpt lat="42.110313735902309" lon="-8.835195321589708">
        <ele>24.05078125</ele>
      </trkpt>
      <trkpt lat="42.110312059521675" lon="-8.835141258314252">
        <ele>23.84375</ele>
      </trkpt>
      <trkpt lat="42.110312059521675" lon="-8.835103204473853">
        <ele>23.66796875</ele>
      </trkpt>
      <trkpt lat="42.110306359827518" lon="-8.834738004952669">
        <ele>22.453125</ele>
      </trkpt>
      <trkpt lat="42.110306359827518" lon="-8.834717385470867">
        <ele>22.3984375</ele>
      </trkpt>
      <trkpt lat="42.110327649861574" lon="-8.834418067708611">
        <ele>21.00390625</ele>
      </trkpt>
      <trkpt lat="42.110326811671257" lon="-8.834352102130651">
        <ele>20.67578125</ele>
      </trkpt>
      <trkpt lat="42.110330248251557" lon="-8.834278676658869">
        <ele>20.1953125</ele>
      </trkpt>
      <trkpt lat="42.110334187746048" lon="-8.83422059006989">
        <ele>19.78125</ele>
      </trkpt>
      <trkpt lat="42.110339719802141" lon="-8.834160659462214">
        <ele>19.32421875</ele>
      </trkpt>
      <trkpt lat="42.110343910753727" lon="-8.834108524024487">
        <ele>18.9453125</ele>
      </trkpt>
      <trkpt lat="42.110347347334027" lon="-8.834056220948696">
        <ele>18.5859375</ele>
      </trkpt>
      <trkpt lat="42.110344748944044" lon="-8.833998721092939">
        <ele>18.34765625</ele>
      </trkpt>
      <trkpt lat="42.110338294878602" lon="-8.833938203752041">
        <ele>18.06640625</ele>
      </trkpt>
      <trkpt lat="42.110331421718001" lon="-8.83388732559979">
        <ele>17.7578125</ele>
      </trkpt>
      <trkpt lat="42.110323458909988" lon="-8.833835022523999">
        <ele>17.453125</ele>
      </trkpt>
      <trkpt lat="42.110312813892961" lon="-8.833782551810145">
        <ele>17.19921875</ele>
      </trkpt>
      <trkpt lat="42.110294960439205" lon="-8.833730835467577">
        <ele>17.09375</ele>
      </trkpt>
      <trkpt lat="42.110279453918338" lon="-8.83368456736207">
        <ele>16.97265625</ele>
      </trkpt>
      <trkpt lat="42.11026294156909" lon="-8.833637544885278">
        <ele>16.84765625</ele>
      </trkpt>
      <trkpt lat="42.110243663191795" lon="-8.83359027095139">
        <ele>16.7578125</ele>
      </trkpt>
      <trkpt lat="42.110223043709993" lon="-8.833542745560408">
        <ele>16.671875</ele>
      </trkpt>
      <trkpt lat="42.110208543017507" lon="-8.833492957055569">
        <ele>16.4140625</ele>
      </trkpt>
      <trkpt lat="42.110205190256238" lon="-8.833486335352063">
        <ele>16.40625</ele>
      </trkpt>
      <trkpt lat="42.11008608341217" lon="-8.833283325657248">
        <ele>16.00390625</ele>
      </trkpt>
      <trkpt lat="42.110063452273607" lon="-8.833239236846566">
        <ele>15.765625</ele>
      </trkpt>
      <trkpt lat="42.110039982944727" lon="-8.833192801102996">
        <ele>15.48046875</ele>
      </trkpt>
      <trkpt lat="42.110018776729703" lon="-8.833149550482631">
        <ele>15.171875</ele>
      </trkpt>
      <trkpt lat="42.109995223581791" lon="-8.833102192729712">
        <ele>14.80859375</ele>
      </trkpt>
      <trkpt lat="42.109967144206166" lon="-8.833061624318361">
        <ele>15.08984375</ele>
      </trkpt>
      <trkpt lat="42.109938059002161" lon="-8.833024827763438">
        <ele>15.53515625</ele>
      </trkpt>
      <trkpt lat="42.109902435913682" lon="-8.833000268787146">
        <ele>16.35546875</ele>
      </trkpt>
      <trkpt lat="42.109868237748742" lon="-8.83297068066895">
        <ele>17.015625</ele>
      </trkpt>
      <trkpt lat="42.109831273555756" lon="-8.832935141399503">
        <ele>17.63671875</ele>
      </trkpt>
      <trkpt lat="42.109798081219196" lon="-8.832902032881975">
        <ele>18.13671875</ele>
      </trkpt>
      <trkpt lat="42.109763966873288" lon="-8.832872360944748">
        <ele>18.6953125</ele>
      </trkpt>
      <trkpt lat="42.109732618555427" lon="-8.83284411393106">
        <ele>19.16015625</ele>
      </trkpt>
      <trkpt lat="42.10969758220017" lon="-8.832811340689659">
        <ele>19.625</ele>
      </trkpt>
      <trkpt lat="42.109669083729386" lon="-8.832769431173801">
        <ele>19.6796875</ele>
      </trkpt>
      <trkpt lat="42.109646033495665" lon="-8.832728276029229">
        <ele>19.55078125</ele>
      </trkpt>
      <trkpt lat="42.109623653814197" lon="-8.832684606313705">
        <ele>19.32421875</ele>
      </trkpt>
      <trkpt lat="42.109598256647587" lon="-8.832634147256613">
        <ele>19.01171875</ele>
      </trkpt>
      <trkpt lat="42.109578307718039" lon="-8.832588968798518">
        <ele>18.6171875</ele>
      </trkpt>
      <trkpt lat="42.109560035169125" lon="-8.832540269941092">
        <ele>18.4609375</ele>
      </trkpt>
      <trkpt lat="42.109548468142748" lon="-8.832484362646937">
        <ele>18.08203125</ele>
      </trkpt>
      <trkpt lat="42.109546037390828" lon="-8.832429628819227">
        <ele>17.4765625</ele>
      </trkpt>
      <trkpt lat="42.109551066532731" lon="-8.832374894991517">
        <ele>16.69140625</ele>
      </trkpt>
      <trkpt lat="42.109556850045919" lon="-8.832323849201202">
        <ele>15.94140625</ele>
      </trkpt>
      <trkpt lat="42.109565483406186" lon="-8.832268612459302">
        <ele>15.08984375</ele>
      </trkpt>
      <trkpt lat="42.109572440385818" lon="-8.832216309383512">
        <ele>14.32421875</ele>
      </trkpt>
      <trkpt lat="42.109574284404516" lon="-8.832156378775835">
        <ele>13.58203125</ele>
      </trkpt>
      <trkpt lat="42.109573362395167" lon="-8.832096280530095">
        <ele>12.96484375</ele>
      </trkpt>
      <trkpt lat="42.109572440385818" lon="-8.832073900848627">
        <ele>12.7890625</ele>
      </trkpt>
      <trkpt lat="42.109568500891328" lon="-8.831820096820593">
        <ele>10.66796875</ele>
      </trkpt>
      <trkpt lat="42.109568500891328" lon="-8.831820851191878">
        <ele>10.67578125</ele>
      </trkpt>
      <trkpt lat="42.109558191150427" lon="-8.8315952103585">
        <ele>9.44921875</ele>
      </trkpt>
      <trkpt lat="42.109547713771462" lon="-8.831400163471699">
        <ele>9.82421875</ele>
      </trkpt>
      <trkpt lat="42.109544444829226" lon="-8.831348698586226">
        <ele>9.93359375</ele>
      </trkpt>
      <trkpt lat="42.109542349353433" lon="-8.831277117133141">
        <ele>10.05078125</ele>
      </trkpt>
      <trkpt lat="42.109540086239576" lon="-8.831209894269705">
        <ele>10.16796875</ele>
      </trkpt>
      <trkpt lat="42.109538912773132" lon="-8.831148957833648">
        <ele>10.265625</ele>
      </trkpt>
      <trkpt lat="42.109536733478308" lon="-8.831095481291413">
        <ele>10.36328125</ele>
      </trkpt>
      <trkpt lat="42.109535895287991" lon="-8.831041669473052">
        <ele>10.4453125</ele>
      </trkpt>
      <trkpt lat="42.109536733478308" lon="-8.830990120768547">
        <ele>10.5</ele>
      </trkpt>
      <trkpt lat="42.109537655487657" lon="-8.830934800207615">
        <ele>10.5546875</ele>
      </trkpt>
      <trkpt lat="42.109537655487657" lon="-8.830883000046015">
        <ele>10.62109375</ele>
      </trkpt>
      <trkpt lat="42.109537655487657" lon="-8.830823907628655">
        <ele>10.69921875</ele>
      </trkpt>
      <trkpt lat="42.109537655487657" lon="-8.830765569582582">
        <ele>10.7734375</ele>
      </trkpt>
      <trkpt lat="42.109537655487657" lon="-8.830711422488093">
        <ele>10.85546875</ele>
      </trkpt>
      <trkpt lat="42.109537655487657" lon="-8.830660292878747">
        <ele>10.95703125</ele>
      </trkpt>
      <trkpt lat="42.109541678801179" lon="-8.830606397241354">
        <ele>11</ele>
      </trkpt>
      <trkpt lat="42.109549306333065" lon="-8.830555519089103">
        <ele>10.9765625</ele>
      </trkpt>
      <trkpt lat="42.109557604417205" lon="-8.830485697835684">
        <ele>10.98046875</ele>
      </trkpt>
      <trkpt lat="42.109564477577806" lon="-8.830428617075086">
        <ele>10.98828125</ele>
      </trkpt>
      <trkpt lat="42.109570177271962" lon="-8.830376481637359">
        <ele>11</ele>
      </trkpt>
      <trkpt lat="42.10957839153707" lon="-8.830308755859733">
        <ele>11.0078125</ele>
      </trkpt>
      <trkpt lat="42.109586941078305" lon="-8.830256201326847">
        <ele>10.95703125</ele>
      </trkpt>
      <trkpt lat="42.109599933028221" lon="-8.83020649664104">
        <ele>10.7578125</ele>
      </trkpt>
      <trkpt lat="42.10961451753974" lon="-8.830157797783613">
        <ele>10.53515625</ele>
      </trkpt>
      <trkpt lat="42.109628515318036" lon="-8.830107171088457">
        <ele>10.32421875</ele>
      </trkpt>
      <trkpt lat="42.109644692391157" lon="-8.830057214945555">
        <ele>10.078125</ele>
      </trkpt>
      <trkpt lat="42.109660366550088" lon="-8.830002481117845">
        <ele>9.84765625</ele>
      </trkpt>
      <trkpt lat="42.109671430662274" lon="-8.829949088394642">
        <ele>9.6875</ele>
      </trkpt>
      <trkpt lat="42.109682327136397" lon="-8.829891588538885">
        <ele>9.53125</ele>
      </trkpt>
      <trkpt lat="42.109688781201839" lon="-8.829831574112177">
        <ele>9.4453125</ele>
      </trkpt>
      <trkpt lat="42.10969464853406" lon="-8.829776085913181">
        <ele>9.30078125</ele>
      </trkpt>
      <trkpt lat="42.109699510037899" lon="-8.829721854999661">
        <ele>9.109375</ele>
      </trkpt>
      <trkpt lat="42.109703281894326" lon="-8.829665947705507">
        <ele>8.9375</ele>
      </trkpt>
      <trkpt lat="42.10970051586628" lon="-8.829609369859099">
        <ele>8.85546875</ele>
      </trkpt>
      <trkpt lat="42.109694229438901" lon="-8.829552037641406">
        <ele>8.82421875</ele>
      </trkpt>
      <trkpt lat="42.10968685336411" lon="-8.829501243308187">
        <ele>8.8203125</ele>
      </trkpt>
      <trkpt lat="42.109674867242575" lon="-8.829445755109191">
        <ele>8.8671875</ele>
      </trkpt>
      <trkpt lat="42.109663132578135" lon="-8.829397140070796">
        <ele>8.921875</ele>
      </trkpt>
      <trkpt lat="42.109649889171124" lon="-8.829342154785991">
        <ele>8.98046875</ele>
      </trkpt>
      <trkpt lat="42.10963161662221" lon="-8.829296221956611">
        <ele>9.0625</ele>
      </trkpt>
      <trkpt lat="42.10961158387363" lon="-8.829245511442423">
        <ele>9.13671875</ele>
      </trkpt>
      <trkpt lat="42.109590293839574" lon="-8.829193124547601">
        <ele>9.19921875</ele>
      </trkpt>
      <trkpt lat="42.109569758176804" lon="-8.829146353527904">
        <ele>9.2578125</ele>
      </trkpt>
      <trkpt lat="42.109547629952431" lon="-8.829097067937255">
        <ele>9.30859375</ele>
      </trkpt>
      <trkpt lat="42.109526172280312" lon="-8.829046608880162">
        <ele>9.32421875</ele>
      </trkpt>
      <trkpt lat="42.109509659931064" lon="-8.828999921679497">
        <ele>9.28515625</ele>
      </trkpt>
      <trkpt lat="42.109490381553769" lon="-8.828952144831419">
        <ele>9.2578125</ele>
      </trkpt>
      <trkpt lat="42.109470767900348" lon="-8.828902021050453">
        <ele>9.2109375</ele>
      </trkpt>
      <trkpt lat="42.109452579170465" lon="-8.828857010230422">
        <ele>9.14453125</ele>
      </trkpt>
      <trkpt lat="42.109435144811869" lon="-8.828807976096869">
        <ele>9.0078125</ele>
      </trkpt>
      <trkpt lat="42.109416956081986" lon="-8.828755086287856">
        <ele>8.83984375</ele>
      </trkpt>
      <trkpt lat="42.109401533380151" lon="-8.828697921708226">
        <ele>8.59765625</ele>
      </trkpt>
      <trkpt lat="42.109387116506696" lon="-8.828641092404723">
        <ele>8.3359375</ele>
      </trkpt>
      <trkpt lat="42.109377728775144" lon="-8.828588202595711">
        <ele>8.046875</ele>
      </trkpt>
      <trkpt lat="42.109367838129401" lon="-8.828537156805396">
        <ele>7.765625</ele>
      </trkpt>
      <trkpt lat="42.109359540045261" lon="-8.828480495139956">
        <ele>7.42578125</ele>
      </trkpt>
      <trkpt lat="42.109354175627232" lon="-8.828422073274851">
        <ele>7.046875</ele>
      </trkpt>
      <trkpt lat="42.109347051009536" lon="-8.82836977019906">
        <ele>6.921875</ele>
      </trkpt>
      <trkpt lat="42.109343530610204" lon="-8.828314198181033">
        <ele>6.78515625</ele>
      </trkpt>
      <trkpt lat="42.109342776238918" lon="-8.828260470181704">
        <ele>6.640625</ele>
      </trkpt>
      <trkpt lat="42.109346045181155" lon="-8.828201880678535">
        <ele>6.46484375</ele>
      </trkpt>
      <trkpt lat="42.109350236132741" lon="-8.828150080516934">
        <ele>6.3046875</ele>
      </trkpt>
      <trkpt lat="42.109354175627232" lon="-8.828097442165017">
        <ele>6.14453125</ele>
      </trkpt>
      <trkpt lat="42.109359707683325" lon="-8.8280448038131">
        <ele>5.98046875</ele>
      </trkpt>
      <trkpt lat="42.109363479539752" lon="-8.827992668375373">
        <ele>5.82421875</ele>
      </trkpt>
      <trkpt lat="42.109367838129401" lon="-8.827941287308931">
        <ele>5.68359375</ele>
      </trkpt>
      <trkpt lat="42.109382674098015" lon="-8.827893091365695">
        <ele>5.5546875</ele>
      </trkpt>
      <trkpt lat="42.109418464824557" lon="-8.827878339216113">
        <ele>5.41796875</ele>
      </trkpt>
      <trkpt lat="42.109452662989497" lon="-8.82785277441144">
        <ele>5.2734375</ele>
      </trkpt>
      <trkpt lat="42.109473785385489" lon="-8.827811535447836">
        <ele>5.1484375</ele>
      </trkpt>
      <trkpt lat="42.109479149803519" lon="-8.827760741114616">
        <ele>5.05859375</ele>
      </trkpt>
      <trkpt lat="42.109472025185823" lon="-8.827715059742332">
        <ele>5.01171875</ele>
      </trkpt>
      <trkpt lat="42.109448136761785" lon="-8.827679520472884">
        <ele>5.01953125</ele>
      </trkpt>
      <trkpt lat="42.10945132188499" lon="-8.827628726139665">
        <ele>4.93359375</ele>
      </trkpt>
      <trkpt lat="42.109458446502686" lon="-8.827577512711287">
        <ele>4.83984375</ele>
      </trkpt>
      <trkpt lat="42.1094611287117" lon="-8.827565610408783">
        <ele>4.8125</ele>
      </trkpt>
      <trkpt lat="42.109498176723719" lon="-8.827294036746025">
        <ele>4.3671875</ele>
      </trkpt>
      <trkpt lat="42.109497589990497" lon="-8.827294036746025">
        <ele>4.37109375</ele>
      </trkpt>
      <trkpt lat="42.109516030177474" lon="-8.827092032879591">
        <ele>4.06640625</ele>
      </trkpt>
      <trkpt lat="42.109512845054269" lon="-8.82703235372901">
        <ele>3.99609375</ele>
      </trkpt>
      <trkpt lat="42.109508821740746" lon="-8.826964376494288">
        <ele>3.953125</ele>
      </trkpt>
      <trkpt lat="42.109505636617541" lon="-8.826903272420168">
        <ele>3.91796875</ele>
      </trkpt>
      <trkpt lat="42.109504630789161" lon="-8.826839486137033">
        <ele>3.875</ele>
      </trkpt>
      <trkpt lat="42.1095026191324" lon="-8.826787853613496">
        <ele>3.84375</ele>
      </trkpt>
      <trkpt lat="42.109500272199512" lon="-8.826733622699976">
        <ele>3.80859375</ele>
      </trkpt>
      <trkpt lat="42.109497841447592" lon="-8.82668299600482">
        <ele>3.77734375</ele>
      </trkpt>
      <trkpt lat="42.109495243057609" lon="-8.826629016548395">
        <ele>3.7421875</ele>
      </trkpt>
      <trkpt lat="42.109493482857943" lon="-8.826573612168431">
        <ele>3.70703125</ele>
      </trkpt>
      <trkpt lat="42.10949189029634" lon="-8.826521476730704">
        <ele>3.70703125</ele>
      </trkpt>
      <trkpt lat="42.109487364068627" lon="-8.82646800018847">
        <ele>3.71484375</ele>
      </trkpt>
      <trkpt lat="42.109485771507025" lon="-8.826417038217187">
        <ele>3.72265625</ele>
      </trkpt>
      <trkpt lat="42.109485771507025" lon="-8.826363394036889">
        <ele>3.72265625</ele>
      </trkpt>
      <trkpt lat="42.109486609697342" lon="-8.826309749856591">
        <ele>3.7265625</ele>
      </trkpt>
      <trkpt lat="42.109489040449262" lon="-8.826250741258264">
        <ele>3.7265625</ele>
      </trkpt>
      <trkpt lat="42.109493985772133" lon="-8.826195588335395">
        <ele>3.71875</ele>
      </trkpt>
      <trkpt lat="42.109500356018543" lon="-8.826143369078636">
        <ele>3.7109375</ele>
      </trkpt>
      <trkpt lat="42.109506977722049" lon="-8.826090143993497">
        <ele>3.70703125</ele>
      </trkpt>
      <trkpt lat="42.109514521434903" lon="-8.826030883938074">
        <ele>3.73046875</ele>
      </trkpt>
      <trkpt lat="42.109523238614202" lon="-8.825973719358444">
        <ele>3.75</ele>
      </trkpt>
      <trkpt lat="42.109534470364451" lon="-8.825913453474641">
        <ele>3.7734375</ele>
      </trkpt>
      <trkpt lat="42.109544444829226" lon="-8.825856540352106">
        <ele>3.796875</ele>
      </trkpt>
      <trkpt lat="42.109554419294" lon="-8.825802644714713">
        <ele>3.8203125</ele>
      </trkpt>
      <trkpt lat="42.109563387930393" lon="-8.825748832896352">
        <ele>3.84375</ele>
      </trkpt>
      <trkpt lat="42.109573110938072" lon="-8.825698038563132">
        <ele>3.86328125</ele>
      </trkpt>
      <trkpt lat="42.109582833945751" lon="-8.825648669153452">
        <ele>3.8828125</ele>
      </trkpt>
      <trkpt lat="42.109593395143747" lon="-8.825597707182169">
        <ele>3.953125</ele>
      </trkpt>
      <trkpt lat="42.109604794532061" lon="-8.825538530945778">
        <ele>4.0390625</ele>
      </trkpt>
      <trkpt lat="42.109616110101342" lon="-8.825486311689019">
        <ele>4.11328125</ele>
      </trkpt>
      <trkpt lat="42.10962675511837" lon="-8.825430823490024">
        <ele>4.1875</ele>
      </trkpt>
      <trkpt lat="42.109637400135398" lon="-8.825373742729425">
        <ele>4.26171875</ele>
      </trkpt>
      <trkpt lat="42.109648548066616" lon="-8.825324540957808">
        <ele>4.3203125</ele>
      </trkpt>
      <trkpt lat="42.109658606350422" lon="-8.825275003910065">
        <ele>4.375</ele>
      </trkpt>
      <trkpt lat="42.109671095386147" lon="-8.825221275910735">
        <ele>4.4296875</ele>
      </trkpt>
      <trkpt lat="42.109685847535729" lon="-8.825165033340454">
        <ele>4.47265625</ele>
      </trkpt>
      <trkpt lat="42.109702359884977" lon="-8.825108790770173">
        <ele>4.48046875</ele>
      </trkpt>
      <trkpt lat="42.109721386805177" lon="-8.825063863769174">
        <ele>4.47265625</ele>
      </trkpt>
      <trkpt lat="42.109741251915693" lon="-8.825008878484368">
        <ele>4.4765625</ele>
      </trkpt>
      <trkpt lat="42.109756004065275" lon="-8.824960766360164">
        <ele>4.48828125</ele>
      </trkpt>
      <trkpt lat="42.109774276614189" lon="-8.824916090816259">
        <ele>4.4921875</ele>
      </trkpt>
      <trkpt lat="42.109799589961767" lon="-8.824863787740469">
        <ele>4.48828125</ele>
      </trkpt>
      <trkpt lat="42.109818113967776" lon="-8.82481936365366">
        <ele>4.49609375</ele>
      </trkpt>
      <trkpt lat="42.109838481992483" lon="-8.824768485501409">
        <ele>4.5078125</ele>
      </trkpt>
      <trkpt lat="42.109855664893985" lon="-8.82471727207303">
        <ele>4.53125</ele>
      </trkpt>
      <trkpt lat="42.109868992120028" lon="-8.824662286788225">
        <ele>4.56640625</ele>
      </trkpt>
      <trkpt lat="42.109881145879626" lon="-8.824613252654672">
        <ele>4.6015625</ele>
      </trkpt>
      <trkpt lat="42.109890701249242" lon="-8.824558015912771">
        <ele>4.6484375</ele>
      </trkpt>
      <trkpt lat="42.109900675714016" lon="-8.824501857161522">
        <ele>4.69921875</ele>
      </trkpt>
      <trkpt lat="42.109908303245902" lon="-8.82444997318089">
        <ele>4.74609375</ele>
      </trkpt>
      <trkpt lat="42.109914673492312" lon="-8.824397586286068">
        <ele>4.80078125</ele>
      </trkpt>
      <trkpt lat="42.109919115900993" lon="-8.82434050552547">
        <ele>4.86328125</ele>
      </trkpt>
      <trkpt lat="42.109925067052245" lon="-8.824285520240664">
        <ele>4.921875</ele>
      </trkpt>
      <trkpt lat="42.109932359308004" lon="-8.824231959879398">
        <ele>4.9375</ele>
      </trkpt>
      <trkpt lat="42.109942501410842" lon="-8.824181333184242">
        <ele>4.890625</ele>
      </trkpt>
      <trkpt lat="42.109953984618187" lon="-8.824130538851023">
        <ele>4.84375</ele>
      </trkpt>
      <trkpt lat="42.10996488109231" lon="-8.82407664321363">
        <ele>4.79296875</ele>
      </trkpt>
      <trkpt lat="42.109975442290306" lon="-8.824025932699442">
        <ele>4.74609375</ele>
      </trkpt>
      <trkpt lat="42.109984746202826" lon="-8.823975138366222">
        <ele>4.69921875</ele>
      </trkpt>
      <trkpt lat="42.109991451725364" lon="-8.823929624632001">
        <ele>4.66015625</ele>
      </trkpt>
      <trkpt lat="42.110012238845229" lon="-8.823270555585623">
        <ele>3.91796875</ele>
      </trkpt>
      <trkpt lat="42.110012825578451" lon="-8.823270555585623">
        <ele>3.91796875</ele>
      </trkpt>
      <trkpt lat="42.110099410638213" lon="-8.822409817948937">
        <ele>3.74609375</ele>
      </trkpt>
      <trkpt lat="42.110098823904991" lon="-8.822409147396684">
        <ele>3.74609375</ele>
      </trkpt>
      <trkpt lat="42.110171495005488" lon="-8.821589313447475">
        <ele>3.953125</ele>
      </trkpt>
      <trkpt lat="42.110258750617504" lon="-8.820999562740326">
        <ele>4.34765625</ele>
      </trkpt>
      <trkpt lat="42.110258750617504" lon="-8.82099880836904">
        <ele>4.34765625</ele>
      </trkpt>
      <trkpt lat="42.110295798629522" lon="-8.820835025981069">
        <ele>4.2734375</ele>
      </trkpt>
      <trkpt lat="42.110216338187456" lon="-8.820776185020804">
        <ele>4.4296875</ele>
      </trkpt>
      <trkpt lat="42.110209632664919" lon="-8.820726228877902">
        <ele>4.44140625</ele>
      </trkpt>
      <trkpt lat="42.110200580209494" lon="-8.82067677564919">
        <ele>4.4609375</ele>
      </trkpt>
      <trkpt lat="42.110194964334369" lon="-8.820616593584418">
        <ele>4.47265625</ele>
      </trkpt>
      <trkpt lat="42.110193036496639" lon="-8.820559345185757">
        <ele>4.4765625</ele>
      </trkpt>
      <trkpt lat="42.11019454523921" lon="-8.820507042109966">
        <ele>4.484375</ele>
      </trkpt>
      <trkpt lat="42.110199071466923" lon="-8.820456163957715">
        <ele>4.4921875</ele>
      </trkpt>
      <trkpt lat="42.110206363722682" lon="-8.820396149531007">
        <ele>4.49609375</ele>
      </trkpt>
      <trkpt lat="42.110213823616505" lon="-8.82033621892333">
        <ele>4.50390625</ele>
      </trkpt>
      <trkpt lat="42.110221199691296" lon="-8.820274360477924">
        <ele>4.51171875</ele>
      </trkpt>
      <trkpt lat="42.110224803909659" lon="-8.820220632478595">
        <ele>4.5234375</ele>
      </trkpt>
      <trkpt lat="42.110228827223182" lon="-8.820163886994123">
        <ele>4.53515625</ele>
      </trkpt>
      <trkpt lat="42.110229833051562" lon="-8.820106722414494">
        <ele>4.5546875</ele>
      </trkpt>
      <trkpt lat="42.110229833051562" lon="-8.820036398246884">
        <ele>4.68359375</ele>
      </trkpt>
      <trkpt lat="42.11023167707026" lon="-8.819982670247555">
        <ele>4.8046875</ele>
      </trkpt>
      <trkpt lat="42.110237712040544" lon="-8.819925002753735">
        <ele>4.93359375</ele>
      </trkpt>
      <trkpt lat="42.110246932134032" lon="-8.81987445987761">
        <ele>5.0390625</ele>
      </trkpt>
      <trkpt lat="42.110254894942045" lon="-8.819825006648898">
        <ele>5.1484375</ele>
      </trkpt>
      <trkpt lat="42.11025950498879" lon="-8.819766584783792">
        <ele>5.28125</ele>
      </trkpt>
      <trkpt lat="42.11025757715106" lon="-8.819710928946733">
        <ele>5.4140625</ele>
      </trkpt>
      <trkpt lat="42.11025657132268" lon="-8.819650243967772">
        <ele>5.55859375</ele>
      </trkpt>
      <trkpt lat="42.110254811123013" lon="-8.819593330845237">
        <ele>5.69140625</ele>
      </trkpt>
      <trkpt lat="42.110254811123013" lon="-8.819532813504338">
        <ele>5.828125</ele>
      </trkpt>
      <trkpt lat="42.110252128913999" lon="-8.819481767714024">
        <ele>5.9453125</ele>
      </trkpt>
      <trkpt lat="42.110250368714333" lon="-8.819429380819201">
        <ele>6.06640625</ele>
      </trkpt>
      <trkpt lat="42.110246848315001" lon="-8.819371042773128">
        <ele>6.203125</ele>
      </trkpt>
      <trkpt lat="42.11024047806859" lon="-8.819315638393164">
        <ele>6.3359375</ele>
      </trkpt>
      <trkpt lat="42.110233353450894" lon="-8.819265682250261">
        <ele>6.45703125</ele>
      </trkpt>
      <trkpt lat="42.110226145014167" lon="-8.819210361689329">
        <ele>6.59375</ele>
      </trkpt>
      <trkpt lat="42.110217930749059" lon="-8.819138780236244">
        <ele>6.78515625</ele>
      </trkpt>
      <trkpt lat="42.110210470855236" lon="-8.819079520180821">
        <ele>6.97265625</ele>
      </trkpt>
      <trkpt lat="42.110201753675938" lon="-8.819020763039589">
        <ele>7.16015625</ele>
      </trkpt>
      <trkpt lat="42.110195551067591" lon="-8.818965274840593">
        <ele>7.3359375</ele>
      </trkpt>
      <trkpt lat="42.110185660421848" lon="-8.818908529356122">
        <ele>7.5234375</ele>
      </trkpt>
      <trkpt lat="42.110172417014837" lon="-8.818857986479998">
        <ele>7.69921875</ele>
      </trkpt>
      <trkpt lat="42.110161101445556" lon="-8.818804426118731">
        <ele>7.8828125</ele>
      </trkpt>
      <trkpt lat="42.110150624066591" lon="-8.818755643442273">
        <ele>8.05078125</ele>
      </trkpt>
      <trkpt lat="42.110136542469263" lon="-8.818706022575498">
        <ele>8.23046875</ele>
      </trkpt>
      <trkpt lat="42.110124221071601" lon="-8.818652126938105">
        <ele>8.4453125</ele>
      </trkpt>
      <trkpt lat="42.110112905502319" lon="-8.818598398938775">
        <ele>8.6640625</ele>
      </trkpt>
      <trkpt lat="42.110100835561752" lon="-8.81854341365397">
        <ele>8.890625</ele>
      </trkpt>
      <trkpt lat="42.110084490850568" lon="-8.818481806665659">
        <ele>9.15625</ele>
      </trkpt>
      <trkpt lat="42.110068649053574" lon="-8.818424809724092">
        <ele>9.41015625</ele>
      </trkpt>
      <trkpt lat="42.110060267150402" lon="-8.818368399515748">
        <ele>9.64453125</ele>
      </trkpt>
      <trkpt lat="42.110051298514009" lon="-8.818316431716084">
        <ele>9.8671875</ele>
      </trkpt>
      <trkpt lat="42.110043503344059" lon="-8.818265637382865">
        <ele>10.0859375</ele>
      </trkpt>
      <trkpt lat="42.110033193603158" lon="-8.81821065209806">
        <ele>10.31640625</ele>
      </trkpt>
      <trkpt lat="42.110015088692307" lon="-8.818147368729115">
        <ele>10.58984375</ele>
      </trkpt>
      <trkpt lat="42.109997319057584" lon="-8.818088946864009">
        <ele>10.8359375</ele>
      </trkpt>
      <trkpt lat="42.109982231631875" lon="-8.818037984892726">
        <ele>11.0234375</ele>
      </trkpt>
      <trkpt lat="42.109969155862927" lon="-8.817985849454999">
        <ele>11.203125</ele>
      </trkpt>
      <trkpt lat="42.109957588836551" lon="-8.81792675703764">
        <ele>11.41015625</ele>
      </trkpt>
      <trkpt lat="42.109942752867937" lon="-8.817864395678043">
        <ele>11.640625</ele>
      </trkpt>
      <trkpt lat="42.109932107850909" lon="-8.81781192496419">
        <ele>11.8359375</ele>
      </trkpt>
      <trkpt lat="42.109916685149074" lon="-8.817759454250336">
        <ele>12.08984375</ele>
      </trkpt>
      <trkpt lat="42.109902100637555" lon="-8.817712599411607">
        <ele>12.41796875</ele>
      </trkpt>
      <trkpt lat="42.109889192506671" lon="-8.817651076242328">
        <ele>12.83984375</ele>
      </trkpt>
      <trkpt lat="42.109880056232214" lon="-8.817599443718791">
        <ele>13.19140625</ele>
      </trkpt>
      <trkpt lat="42.109871841967106" lon="-8.81754563190043">
        <ele>13.55859375</ele>
      </trkpt>
      <trkpt lat="42.109866142272949" lon="-8.817472038790584">
        <ele>14.05078125</ele>
      </trkpt>
      <trkpt lat="42.109864884987473" lon="-8.817411186173558">
        <ele>14.453125</ele>
      </trkpt>
      <trkpt lat="42.109862454235554" lon="-8.817352596670389">
        <ele>14.83984375</ele>
      </trkpt>
      <trkpt lat="42.109858011826873" lon="-8.817285457625985">
        <ele>15.35546875</ele>
      </trkpt>
      <trkpt lat="42.109852731227875" lon="-8.817228209227324">
        <ele>15.87890625</ele>
      </trkpt>
      <trkpt lat="42.109846780076623" lon="-8.817164171487093">
        <ele>16.46484375</ele>
      </trkpt>
      <trkpt lat="42.109841080382466" lon="-8.817111700773239">
        <ele>16.9453125</ele>
      </trkpt>
      <trkpt lat="42.109833788126707" lon="-8.81705017760396">
        <ele>17.50390625</ele>
      </trkpt>
      <trkpt lat="42.109829345718026" lon="-8.816996198147535">
        <ele>17.99609375</ele>
      </trkpt>
      <trkpt lat="42.10982121527195" lon="-8.816939285025001">
        <ele>18.515625</ele>
      </trkpt>
      <trkpt lat="42.109810234978795" lon="-8.816877761855721">
        <ele>19.07421875</ele>
      </trkpt>
      <trkpt lat="42.109803864732385" lon="-8.816819088533521">
        <ele>19.6796875</ele>
      </trkpt>
      <trkpt lat="42.109799170866609" lon="-8.816767372190952">
        <ele>20.265625</ele>
      </trkpt>
      <trkpt lat="42.109797159209847" lon="-8.816750021651387">
        <ele>20.4609375</ele>
      </trkpt>
      <trkpt lat="42.109556598588824" lon="-8.816557405516505">
        <ele>22.59765625</ele>
      </trkpt>
      <trkpt lat="42.10953488945961" lon="-8.816515328362584">
        <ele>23.0390625</ele>
      </trkpt>
      <trkpt lat="42.109505971893668" lon="-8.816478531807661">
        <ele>23.4140625</ele>
      </trkpt>
      <trkpt lat="42.109476467594504" lon="-8.816440226510167">
        <ele>23.80078125</ele>
      </trkpt>
      <trkpt lat="42.109451070427895" lon="-8.8163988199085">
        <ele>24.21484375</ele>
      </trkpt>
      <trkpt lat="42.10943765938282" lon="-8.816343583166599">
        <ele>24.83203125</ele>
      </trkpt>
      <trkpt lat="42.109433049336076" lon="-8.816290609538555">
        <ele>25.44140625</ele>
      </trkpt>
      <trkpt lat="42.109430367127061" lon="-8.816239647567272">
        <ele>26.03125</ele>
      </trkpt>
      <trkpt lat="42.109428606927395" lon="-8.816182650625706">
        <ele>26.6875</ele>
      </trkpt>
      <trkpt lat="42.10942542180419" lon="-8.816108554601669">
        <ele>27.54296875</ele>
      </trkpt>
      <trkpt lat="42.109423158690333" lon="-8.816019371151924">
        <ele>28.5703125</ele>
      </trkpt>
      <trkpt lat="42.109422236680984" lon="-8.815957847982645">
        <ele>29.28125</ele>
      </trkpt>
      <trkpt lat="42.109422236680984" lon="-8.815905712544918">
        <ele>29.8046875</ele>
      </trkpt>
      <trkpt lat="42.109422236680984" lon="-8.815849469974637">
        <ele>30.23046875</ele>
      </trkpt>
      <trkpt lat="42.109422236680984" lon="-8.815787946805358">
        <ele>30.6953125</ele>
      </trkpt>
      <trkpt lat="42.10942056030035" lon="-8.815736817196012">
        <ele>31.078125</ele>
      </trkpt>
      <trkpt lat="42.109417710453272" lon="-8.815678060054779">
        <ele>31.51953125</ele>
      </trkpt>
      <trkpt lat="42.109415782615542" lon="-8.815599270164967">
        <ele>32.11328125</ele>
      </trkpt>
      <trkpt lat="42.109412765130401" lon="-8.815547553822398">
        <ele>32.5</ele>
      </trkpt>
      <trkpt lat="42.109408574178815" lon="-8.815491897985339">
        <ele>32.91796875</ele>
      </trkpt>
      <trkpt lat="42.109408574178815" lon="-8.815431799739599">
        <ele>33.3359375</ele>
      </trkpt>
      <trkpt lat="42.109406143426895" lon="-8.815378407016397">
        <ele>33.66796875</ele>
      </trkpt>
      <trkpt lat="42.109400443732738" lon="-8.815321661531925">
        <ele>34.0234375</ele>
      </trkpt>
      <trkpt lat="42.109390301629901" lon="-8.815267095342278">
        <ele>34.36328125</ele>
      </trkpt>
      <trkpt lat="42.109370017424226" lon="-8.815221078693867">
        <ele>34.65625</ele>
      </trkpt>
      <trkpt lat="42.109341602772474" lon="-8.815183360129595">
        <ele>34.8984375</ele>
      </trkpt>
      <trkpt lat="42.109326599165797" lon="-8.815161651000381">
        <ele>35.04296875</ele>
      </trkpt>
      <trkpt lat="42.109198858961463" lon="-8.814976746216416">
        <ele>36.23828125</ele>
      </trkpt>
      <trkpt lat="42.109177988022566" lon="-8.814923772588372">
        <ele>36.3828125</ele>
      </trkpt>
      <trkpt lat="42.109159883111715" lon="-8.81487037986517">
        <ele>36.53125</ele>
      </trkpt>
      <trkpt lat="42.109141107648611" lon="-8.814810197800398">
        <ele>36.69921875</ele>
      </trkpt>
      <trkpt lat="42.109127696603537" lon="-8.814761582762003">
        <ele>36.8359375</ele>
      </trkpt>
      <trkpt lat="42.109110178425908" lon="-8.814714727923274">
        <ele>36.97265625</ele>
      </trkpt>
      <trkpt lat="42.109086290001869" lon="-8.814670303836465">
        <ele>37.11328125</ele>
      </trkpt>
      <trkpt lat="42.109054271131754" lon="-8.814632752910256">
        <ele>37.28515625</ele>
      </trkpt>
      <trkpt lat="42.109029712155461" lon="-8.814594279974699">
        <ele>37.5</ele>
      </trkpt>
      <trkpt lat="42.109006578102708" lon="-8.814554298296571">
        <ele>37.7109375</ele>
      </trkpt>
      <trkpt lat="42.109006829559803" lon="-8.814511299133301">
        <ele>37.79296875</ele>
      </trkpt>
      <trkpt lat="42.109047062695026" lon="-8.814497971907258">
        <ele>37.625</ele>
      </trkpt>
      <trkpt lat="42.109085116535425" lon="-8.814494786784053">
        <ele>37.515625</ele>
      </trkpt>
      <trkpt lat="42.109128870069981" lon="-8.814491601660848">
        <ele>37.4609375</ele>
      </trkpt>
      <trkpt lat="42.109172204509377" lon="-8.814486404880881">
        <ele>37.40625</ele>
      </trkpt>
      <trkpt lat="42.109212270006537" lon="-8.814480286091566">
        <ele>37.359375</ele>
      </trkpt>
      <trkpt lat="42.109256023541093" lon="-8.814474251121283">
        <ele>37.30078125</ele>
      </trkpt>
      <trkpt lat="42.109300028532743" lon="-8.814467713236809">
        <ele>37.24609375</ele>
      </trkpt>
      <trkpt lat="42.109345123171806" lon="-8.814463187009096">
        <ele>37.1875</ele>
      </trkpt>
      <trkpt lat="42.109386278316379" lon="-8.814457487314939">
        <ele>37.1328125</ele>
      </trkpt>
      <trkpt lat="42.109426595270634" lon="-8.814447009935975">
        <ele>37.0859375</ele>
      </trkpt>
      <trkpt lat="42.10946599021554" lon="-8.814433431252837">
        <ele>37.0390625</ele>
      </trkpt>
      <trkpt lat="42.109503038227558" lon="-8.814416415989399">
        <ele>36.99609375</ele>
      </trkpt>
      <trkpt lat="42.109542181715369" lon="-8.814396047964692">
        <ele>36.9609375</ele>
      </trkpt>
      <trkpt lat="42.109577218070626" lon="-8.814371740445495">
        <ele>36.95703125</ele>
      </trkpt>
      <trkpt lat="42.109612505882978" lon="-8.814340811222792">
        <ele>36.953125</ele>
      </trkpt>
      <trkpt lat="42.109642764553428" lon="-8.814307451248169">
        <ele>36.953125</ele>
      </trkpt>
      <trkpt lat="42.109669335186481" lon="-8.814271241426468">
        <ele>36.9609375</ele>
      </trkpt>
      <trkpt lat="42.109694564715028" lon="-8.814229164272547">
        <ele>36.97265625</ele>
      </trkpt>
      <trkpt lat="42.109718956053257" lon="-8.814184824004769">
        <ele>36.984375</ele>
      </trkpt>
      <trkpt lat="42.109745191410184" lon="-8.814138472080231">
        <ele>37</ele>
      </trkpt>
      <trkpt lat="42.10976748727262" lon="-8.814089857041836">
        <ele>37.015625</ele>
      </trkpt>
      <trkpt lat="42.10978358052671" lon="-8.814042583107948">
        <ele>36.96484375</ele>
      </trkpt>
      <trkpt lat="42.109795901924372" lon="-8.813991704955697">
        <ele>36.875</ele>
      </trkpt>
      <trkpt lat="42.10980512201786" lon="-8.81393420509994">
        <ele>36.78125</ele>
      </trkpt>
      <trkpt lat="42.109816521406174" lon="-8.81388290785253">
        <ele>36.6953125</ele>
      </trkpt>
      <trkpt lat="42.109832195565104" lon="-8.81382817402482">
        <ele>36.60546875</ele>
      </trkpt>
      <trkpt lat="42.109846444800496" lon="-8.813778720796108">
        <ele>36.5234375</ele>
      </trkpt>
      <trkpt lat="42.109866309911013" lon="-8.813725579530001">
        <ele>36.44140625</ele>
      </trkpt>
      <trkpt lat="42.109886426478624" lon="-8.813681825995445">
        <ele>36.37109375</ele>
      </trkpt>
      <trkpt lat="42.109905369579792" lon="-8.813636479899287">
        <ele>36.3046875</ele>
      </trkpt>
      <trkpt lat="42.109928671270609" lon="-8.813596162945032">
        <ele>36.2265625</ele>
      </trkpt>
      <trkpt lat="42.109959265217185" lon="-8.813565820455551">
        <ele>36.14453125</ele>
      </trkpt>
      <trkpt lat="42.109970496967435" lon="-8.813556265085936">
        <ele>36.12109375</ele>
      </trkpt>
      <trkpt lat="42.110106451436877" lon="-8.813514690846205">
        <ele>35.55859375</ele>
      </trkpt>
      <trkpt lat="42.110145427286625" lon="-8.813507230952382">
        <ele>35.3828125</ele>
      </trkpt>
      <trkpt lat="42.110188845545053" lon="-8.813499854877591">
        <ele>35.1953125</ele>
      </trkpt>
      <trkpt lat="42.110226731747389" lon="-8.813493903726339">
        <ele>35.02734375</ele>
      </trkpt>
      <trkpt lat="42.110270150005817" lon="-8.813486946746707">
        <ele>34.83984375</ele>
      </trkpt>
      <trkpt lat="42.110311388969421" lon="-8.813476804643869">
        <ele>34.6484375</ele>
      </trkpt>
      <trkpt lat="42.110350448638201" lon="-8.813466830179095">
        <ele>34.46875</ele>
      </trkpt>
      <trkpt lat="42.110390514135361" lon="-8.813455682247877">
        <ele>34.28125</ele>
      </trkpt>
      <trkpt lat="42.110428987070918" lon="-8.813446881249547">
        <ele>34.10546875</ele>
      </trkpt>
      <trkpt lat="42.110467627644539" lon="-8.813442271202803">
        <ele>33.9296875</ele>
      </trkpt>
      <trkpt lat="42.110508950427175" lon="-8.813437158241868">
        <ele>33.7265625</ele>
      </trkpt>
      <trkpt lat="42.110555218532681" lon="-8.813432715833187">
        <ele>33.50390625</ele>
      </trkpt>
      <trkpt lat="42.110594948753715" lon="-8.813429363071918">
        <ele>33.30859375</ele>
      </trkpt>
      <trkpt lat="42.110636522993445" lon="-8.813427267596126">
        <ele>33.11328125</ele>
      </trkpt>
      <trkpt lat="42.110679857432842" lon="-8.813426345586777">
        <ele>32.91015625</ele>
      </trkpt>
      <trkpt lat="42.110719168558717" lon="-8.813426345586777">
        <ele>32.73046875</ele>
      </trkpt>
      <trkpt lat="42.11075697094202" lon="-8.813428273424506">
        <ele>32.55859375</ele>
      </trkpt>
      <trkpt lat="42.110797790810466" lon="-8.813433218747377">
        <ele>32.38671875</ele>
      </trkpt>
      <trkpt lat="42.110835677012801" lon="-8.813435230404139">
        <ele>32.21484375</ele>
      </trkpt>
      <trkpt lat="42.110869288444519" lon="-8.813436236232519">
        <ele>32.0625</ele>
      </trkpt>
      <trkpt lat="42.111068107187748" lon="-8.813495496287942">
        <ele>31.1796875</ele>
      </trkpt>
      <trkpt lat="42.11111219599843" lon="-8.813495496287942">
        <ele>30.9375</ele>
      </trkpt>
      <trkpt lat="42.111156117171049" lon="-8.813498849049211">
        <ele>30.7109375</ele>
      </trkpt>
      <trkpt lat="42.111200038343668" lon="-8.813499938696623">
        <ele>30.4765625</ele>
      </trkpt>
      <trkpt lat="42.111239349469543" lon="-8.813500944525003">
        <ele>30.265625</ele>
      </trkpt>
      <trkpt lat="42.11127832531929" lon="-8.813500944525003">
        <ele>30.0546875</ele>
      </trkpt>
      <trkpt lat="42.111319731920958" lon="-8.813499854877591">
        <ele>29.82421875</ele>
      </trkpt>
      <trkpt lat="42.111362479627132" lon="-8.813498765230179">
        <ele>29.58984375</ele>
      </trkpt>
      <trkpt lat="42.111402628943324" lon="-8.813501950353384">
        <ele>29.38671875</ele>
      </trkpt>
      <trkpt lat="42.111443448811769" lon="-8.813506811857224">
        <ele>29.1875</ele>
      </trkpt>
      <trkpt lat="42.111482592299581" lon="-8.813509913161397">
        <ele>28.98828125</ele>
      </trkpt>
      <trkpt lat="42.11152408272028" lon="-8.813510918989778">
        <ele>28.7734375</ele>
      </trkpt>
      <trkpt lat="42.111564902588725" lon="-8.813505135476589">
        <ele>28.5390625</ele>
      </trkpt>
      <trkpt lat="42.111601028591394" lon="-8.813490802422166">
        <ele>28.30078125</ele>
      </trkpt>
      <trkpt lat="42.111636400222778" lon="-8.813469177111983">
        <ele>28.04296875</ele>
      </trkpt>
      <trkpt lat="42.11167361587286" lon="-8.81345140747726">
        <ele>27.7890625</ele>
      </trkpt>
      <trkpt lat="42.111710831522942" lon="-8.813442774116993">
        <ele>27.5625</ele>
      </trkpt>
      <trkpt lat="42.111748801544309" lon="-8.813440930098295">
        <ele>27.359375</ele>
      </trkpt>
      <trkpt lat="42.11179138161242" lon="-8.81342651322484">
        <ele>27.0859375</ele>
      </trkpt>
      <trkpt lat="42.111822227016091" lon="-8.81339474581182">
        <ele>26.8203125</ele>
      </trkpt>
      <trkpt lat="42.111832369118929" lon="-8.813382340595126">
        <ele>26.72265625</ele>
      </trkpt>
      <trkpt lat="42.111946446821094" lon="-8.813298186287284">
        <ele>26.1484375</ele>
      </trkpt>
      <trkpt lat="42.111974945291877" lon="-8.813252672553062">
        <ele>25.97265625</ele>
      </trkpt>
      <trkpt lat="42.112001599743962" lon="-8.813211182132363">
        <ele>25.828125</ele>
      </trkpt>
      <trkpt lat="42.112028254196048" lon="-8.813171535730362">
        <ele>25.70703125</ele>
      </trkpt>
      <trkpt lat="42.112057087942958" lon="-8.813137002289295">
        <ele>25.62890625</ele>
      </trkpt>
      <trkpt lat="42.112088352441788" lon="-8.813102468848228">
        <ele>25.6171875</ele>
      </trkpt>
      <trkpt lat="42.112122299149632" lon="-8.81306491792202">
        <ele>25.62890625</ele>
      </trkpt>
      <trkpt lat="42.112155156210065" lon="-8.813033066689968">
        <ele>25.65234375</ele>
      </trkpt>
      <trkpt lat="42.112186420708895" lon="-8.813000293448567">
        <ele>25.6953125</ele>
      </trkpt>
      <trkpt lat="42.112217601388693" lon="-8.812968945130706">
        <ele>25.75</ele>
      </trkpt>
      <trkpt lat="42.112245345488191" lon="-8.812934830784798">
        <ele>25.83203125</ele>
      </trkpt>
      <trkpt lat="42.112275520339608" lon="-8.812894681468606">
        <ele>25.94140625</ele>
      </trkpt>
      <trkpt lat="42.11230443790555" lon="-8.812857130542397">
        <ele>26.0625</ele>
      </trkpt>
      <trkpt lat="42.112333523109555" lon="-8.812818741425872">
        <ele>26.046875</ele>
      </trkpt>
      <trkpt lat="42.112359842285514" lon="-8.812781693413854">
        <ele>26.03515625</ele>
      </trkpt>
      <trkpt lat="42.112387334927917" lon="-8.812744310125709">
        <ele>26.02734375</ele>
      </trkpt>
      <trkpt lat="42.112418347969651" lon="-8.812706340104342">
        <ele>26.0078125</ele>
      </trkpt>
      <trkpt lat="42.112454725429416" lon="-8.812661580741405">
        <ele>25.83984375</ele>
      </trkpt>
      <trkpt lat="42.112486492842436" lon="-8.812625706195831">
        <ele>25.59765625</ele>
      </trkpt>
      <trkpt lat="42.112514404579997" lon="-8.812591508030891">
        <ele>25.375</ele>
      </trkpt>
      <trkpt lat="42.112542483955622" lon="-8.812557142227888">
        <ele>25.1484375</ele>
      </trkpt>
      <trkpt lat="42.112572155892849" lon="-8.812521938234568">
        <ele>24.91796875</ele>
      </trkpt>
      <trkpt lat="42.112606773152947" lon="-8.812492014840245">
        <ele>24.6796875</ele>
      </trkpt>
      <trkpt lat="42.112651532515883" lon="-8.812463013455272">
        <ele>24.41015625</ele>
      </trkpt>
      <trkpt lat="42.112690424546599" lon="-8.812448848038912">
        <ele>24.20703125</ele>
      </trkpt>
      <trkpt lat="42.112728310748935" lon="-8.812445914372802">
        <ele>24.05078125</ele>
      </trkpt>
      <trkpt lat="42.112770555540919" lon="-8.812453038990498">
        <ele>23.88671875</ele>
      </trkpt>
      <trkpt lat="42.112808609381318" lon="-8.812463767826557">
        <ele>23.55859375</ele>
      </trkpt>
      <trkpt lat="42.112846914678812" lon="-8.812477262690663">
        <ele>23.2421875</ele>
      </trkpt>
      <trkpt lat="42.11288689635694" lon="-8.812483046203852">
        <ele>22.88671875</ele>
      </trkpt>
      <trkpt lat="42.112925872206688" lon="-8.812484052032232">
        <ele>22.5234375</ele>
      </trkpt>
      <trkpt lat="42.112968787550926" lon="-8.812482124194503">
        <ele>22.11328125</ele>
      </trkpt>
      <trkpt lat="42.113007009029388" lon="-8.812483130022883">
        <ele>21.7578125</ele>
      </trkpt>
      <trkpt lat="42.113048331812024" lon="-8.812485141679645">
        <ele>21.375</ele>
      </trkpt>
      <trkpt lat="42.11308722384274" lon="-8.812484219670296">
        <ele>21.00390625</ele>
      </trkpt>
      <trkpt lat="42.113129552453756" lon="-8.812475334852934">
        <ele>20.5625</ele>
      </trkpt>
      <trkpt lat="42.113170959055424" lon="-8.812464438378811">
        <ele>20.1171875</ele>
      </trkpt>
      <trkpt lat="42.113208174705505" lon="-8.81245513446629">
        <ele>19.71484375</ele>
      </trkpt>
      <trkpt lat="42.113246563822031" lon="-8.812444321811199">
        <ele>19.234375</ele>
      </trkpt>
      <trkpt lat="42.113286796957254" lon="-8.812429318204522">
        <ele>18.64453125</ele>
      </trkpt>
      <trkpt lat="42.113328790292144" lon="-8.812415571883321">
        <ele>18.04296875</ele>
      </trkpt>
      <trkpt lat="42.113372460007668" lon="-8.812402915209532">
        <ele>17.4296875</ele>
      </trkpt>
      <trkpt lat="42.113407244905829" lon="-8.812385145574808">
        <ele>16.91015625</ele>
      </trkpt>
      <trkpt lat="42.113441023975611" lon="-8.812361424788833">
        <ele>16.3828125</ele>
      </trkpt>
      <trkpt lat="42.113477820530534" lon="-8.812351617962122">
        <ele>15.8828125</ele>
      </trkpt>
      <trkpt lat="42.113520484417677" lon="-8.81235740147531">
        <ele>15.37890625</ele>
      </trkpt>
      <trkpt lat="42.113558454439044" lon="-8.812366956844926">
        <ele>14.9453125</ele>
      </trkpt>
      <trkpt lat="42.113597597926855" lon="-8.812386989593506">
        <ele>14.52734375</ele>
      </trkpt>
      <trkpt lat="42.113633556291461" lon="-8.812405932694674">
        <ele>14.14453125</ele>
      </trkpt>
      <trkpt lat="42.113670436665416" lon="-8.812420014292002">
        <ele>13.7265625</ele>
      </trkpt>
      <trkpt lat="42.113708490505815" lon="-8.812427641823888">
        <ele>13.24609375</ele>
      </trkpt>
      <trkpt lat="42.113756099715829" lon="-8.8124321680516">
        <ele>12.58984375</ele>
      </trkpt>
      <trkpt lat="42.113799937069416" lon="-8.812435520812869">
        <ele>11.984375</ele>
      </trkpt>
      <trkpt lat="42.113840337842703" lon="-8.812437783926725">
        <ele>11.421875</ele>
      </trkpt>
      <trkpt lat="42.113880654796958" lon="-8.812437783926725">
        <ele>10.85546875</ele>
      </trkpt>
      <trkpt lat="42.113919295370579" lon="-8.812435017898679">
        <ele>10.3046875</ele>
      </trkpt>
      <trkpt lat="42.113957600668073" lon="-8.812426384538412">
        <ele>9.74609375</ele>
      </trkpt>
      <trkpt lat="42.113995486870408" lon="-8.812410207465291">
        <ele>9.1796875</ele>
      </trkpt>
      <trkpt lat="42.114035300910473" lon="-8.812394114211202">
        <ele>8.59375</ele>
      </trkpt>
      <trkpt lat="42.114076120778918" lon="-8.812373075634241">
        <ele>7.9921875</ele>
      </trkpt>
      <trkpt lat="42.114110989496112" lon="-8.812352288514376">
        <ele>7.48046875</ele>
      </trkpt>
      <trkpt lat="42.114144433289766" lon="-8.812328232452273">
        <ele>6.98828125</ele>
      </trkpt>
      <trkpt lat="42.114178547635674" lon="-8.81229973398149">
        <ele>6.6953125</ele>
      </trkpt>
      <trkpt lat="42.114217272028327" lon="-8.812291016802192">
        <ele>6.49609375</ele>
      </trkpt>
      <trkpt lat="42.114255242049694" lon="-8.812292860820889">
        <ele>6.31640625</ele>
      </trkpt>
      <trkpt lat="42.114298408851027" lon="-8.812301578000188">
        <ele>6.1171875</ele>
      </trkpt>
      <trkpt lat="42.114315759390593" lon="-8.812309876084328">
        <ele>6.0390625</ele>
      </trkpt>
      <trkpt lat="42.114585908129811" lon="-8.812470640987158">
        <ele>4.73828125</ele>
      </trkpt>
      <trkpt lat="42.114615328609943" lon="-8.812503162771463">
        <ele>4.58203125</ele>
      </trkpt>
      <trkpt lat="42.114649107679725" lon="-8.812529146671295">
        <ele>4.4375</ele>
      </trkpt>
      <trkpt lat="42.114683641120791" lon="-8.812555968761444">
        <ele>4.2890625</ele>
      </trkpt>
      <trkpt lat="42.114716414362192" lon="-8.812586227431893">
        <ele>4.14453125</ele>
      </trkpt>
      <trkpt lat="42.114748097956181" lon="-8.812611708417535">
        <ele>3.99609375</ele>
      </trkpt>
      <trkpt lat="42.114778775721788" lon="-8.812643140554428">
        <ele>3.84765625</ele>
      </trkpt>
      <trkpt lat="42.114810291677713" lon="-8.812673147767782">
        <ele>3.69140625</ele>
      </trkpt>
      <trkpt lat="42.114845830947161" lon="-8.812693348154426">
        <ele>3.53515625</ele>
      </trkpt>
      <trkpt lat="42.114882124587893" lon="-8.812714386731386">
        <ele>3.41796875</ele>
      </trkpt>
      <trkpt lat="42.114917580038309" lon="-8.812737688422203">
        <ele>3.3125</ele>
      </trkpt>
      <trkpt lat="42.114951945841312" lon="-8.812765935435891">
        <ele>3.2265625</ele>
      </trkpt>
      <trkpt lat="42.114984299987555" lon="-8.812793344259262">
        <ele>3.1484375</ele>
      </trkpt>
      <trkpt lat="42.115020509809256" lon="-8.812818070873618">
        <ele>3.05078125</ele>
      </trkpt>
      <trkpt lat="42.11505638435483" lon="-8.812836846336722">
        <ele>2.94140625</ele>
      </trkpt>
      <trkpt lat="42.11507448926568" lon="-8.812841456383467">
        <ele>2.87109375</ele>
      </trkpt>
      <trkpt lat="42.115772115066648" lon="-8.812449434772134">
        <ele>4.19140625</ele>
      </trkpt>
      <trkpt lat="42.115865824744105" lon="-8.812413476407528">
        <ele>4.4375</ele>
      </trkpt>
      <trkpt lat="42.115905219689012" lon="-8.812418924644589">
        <ele>4.51953125</ele>
      </trkpt>
      <trkpt lat="42.115943776443601" lon="-8.812422528862953">
        <ele>4.60546875</ele>
      </trkpt>
      <trkpt lat="42.115983841940761" lon="-8.812428060919046">
        <ele>4.69140625</ele>
      </trkpt>
      <trkpt lat="42.116024913266301" lon="-8.812437448650599">
        <ele>4.80859375</ele>
      </trkpt>
      <trkpt lat="42.116064224392176" lon="-8.812445495277643">
        <ele>4.95703125</ele>
      </trkpt>
      <trkpt lat="42.116105714812875" lon="-8.81244926713407">
        <ele>5.12109375</ele>
      </trkpt>
      <trkpt lat="42.116144690662622" lon="-8.812451278790832">
        <ele>5.2734375</ele>
      </trkpt>
      <trkpt lat="42.116183750331402" lon="-8.812451278790832">
        <ele>5.4296875</ele>
      </trkpt>
      <trkpt lat="42.116215601563454" lon="-8.812422445043921">
        <ele>5.5546875</ele>
      </trkpt>
      <trkpt lat="42.116226917132735" lon="-8.812372405081987">
        <ele>5.6015625</ele>
      </trkpt>
      <trkpt lat="42.116227587684989" lon="-8.812369219958782">
        <ele>5.6015625</ele>
      </trkpt>
      <trkpt lat="42.116232784464955" lon="-8.812285987660289">
        <ele>5.625</ele>
      </trkpt>
      <trkpt lat="42.116338899359107" lon="-8.812193619087338">
        <ele>5.91796875</ele>
      </trkpt>
      <trkpt lat="42.116380725055933" lon="-8.812175262719393">
        <ele>6.01171875</ele>
      </trkpt>
      <trkpt lat="42.116418946534395" lon="-8.812147015705705">
        <ele>6.05859375</ele>
      </trkpt>
      <trkpt lat="42.116450713947415" lon="-8.812119774520397">
        <ele>6.08203125</ele>
      </trkpt>
      <trkpt lat="42.116481559351087" lon="-8.812088593840599">
        <ele>6.09765625</ele>
      </trkpt>
      <trkpt lat="42.116509303450584" lon="-8.812053725123405">
        <ele>6.11328125</ele>
      </trkpt>
      <trkpt lat="42.116536293178797" lon="-8.812012150883675">
        <ele>6.09765625</ele>
      </trkpt>
      <trkpt lat="42.116565546020865" lon="-8.811973677948117">
        <ele>6.0859375</ele>
      </trkpt>
      <trkpt lat="42.116597816348076" lon="-8.811936043202877">
        <ele>6.08203125</ele>
      </trkpt>
      <trkpt lat="42.116632768884301" lon="-8.811898408457637">
        <ele>6.07421875</ele>
      </trkpt>
      <trkpt lat="42.116664033383131" lon="-8.811866389587522">
        <ele>6.0625</ele>
      </trkpt>
      <trkpt lat="42.116698902100325" lon="-8.811835628002882">
        <ele>6.05859375</ele>
      </trkpt>
      <trkpt lat="42.116730753332376" lon="-8.811805453151464">
        <ele>6.04296875</ele>
      </trkpt>
      <trkpt lat="42.116763107478619" lon="-8.811770500615239">
        <ele>5.99609375</ele>
      </trkpt>
      <trkpt lat="42.116767801344395" lon="-8.811766561120749">
        <ele>5.9921875</ele>
      </trkpt>
      <trkpt lat="42.117156554013491" lon="-8.811401948332787">
        <ele>7.4140625</ele>
      </trkpt>
      <trkpt lat="42.117477497085929" lon="-8.811082011088729">
        <ele>8.84765625</ele>
      </trkpt>
      <trkpt lat="42.11792710237205" lon="-8.810711111873388">
        <ele>11.75390625</ele>
      </trkpt>
      <trkpt lat="42.117927689105272" lon="-8.810711111873388">
        <ele>11.7578125</ele>
      </trkpt>
      <trkpt lat="42.118385341018438" lon="-8.810329400002956">
        <ele>16.953125</ele>
      </trkpt>
      <trkpt lat="42.118501011282206" lon="-8.810312803834677">
        <ele>17.9375</ele>
      </trkpt>
      <trkpt lat="42.118424819782376" lon="-8.810250358656049">
        <ele>17.84375</ele>
      </trkpt>
      <trkpt lat="42.118389364331961" lon="-8.810222279280424">
        <ele>17.78125</ele>
      </trkpt>
      <trkpt lat="42.118366649374366" lon="-8.810168970376253">
        <ele>18</ele>
      </trkpt>
      <trkpt lat="42.118349885568023" lon="-8.810120858252048">
        <ele>18.22265625</ele>
      </trkpt>
      <trkpt lat="42.118338067084551" lon="-8.810058580711484">
        <ele>18.5859375</ele>
      </trkpt>
      <trkpt lat="42.118329936638474" lon="-8.81000661291182">
        <ele>18.8984375</ele>
      </trkpt>
      <trkpt lat="42.118323817849159" lon="-8.80995137616992">
        <ele>19.24609375</ele>
      </trkpt>
      <trkpt lat="42.118321135640144" lon="-8.809895971789956">
        <ele>19.64453125</ele>
      </trkpt>
      <trkpt lat="42.118318453431129" lon="-8.809832856059074">
        <ele>20.1640625</ele>
      </trkpt>
      <trkpt lat="42.118316609412432" lon="-8.809774350374937">
        <ele>20.65234375</ele>
      </trkpt>
      <trkpt lat="42.118313675746322" lon="-8.809710144996643">
        <ele>21.1875</ele>
      </trkpt>
      <trkpt lat="42.118315519765019" lon="-8.809656416997313">
        <ele>21.65625</ele>
      </trkpt>
      <trkpt lat="42.118315519765019" lon="-8.809603108093143">
        <ele>22.11328125</ele>
      </trkpt>
      <trkpt lat="42.118317363783717" lon="-8.809544770047069">
        <ele>22.625</ele>
      </trkpt>
      <trkpt lat="42.118320129811764" lon="-8.809492634609342">
        <ele>23.08984375</ele>
      </trkpt>
      <trkpt lat="42.118322728201747" lon="-8.809436224400997">
        <ele>23.60546875</ele>
      </trkpt>
      <trkpt lat="42.118332032114267" lon="-8.809378640726209">
        <ele>24.21875</ele>
      </trkpt>
      <trkpt lat="42.118343682959676" lon="-8.809326086193323">
        <ele>24.80859375</ele>
      </trkpt>
      <trkpt lat="42.118365727365017" lon="-8.809267245233059">
        <ele>25.546875</ele>
      </trkpt>
      <trkpt lat="42.118389448150992" lon="-8.809201363474131">
        <ele>26.359375</ele>
      </trkpt>
      <trkpt lat="42.118407133966684" lon="-8.809151658788323">
        <ele>26.96875</ele>
      </trkpt>
      <trkpt lat="42.118424568325281" lon="-8.809095751494169">
        <ele>27.62890625</ele>
      </trkpt>
      <trkpt lat="42.1184391528368" lon="-8.809042274951935">
        <ele>28.2421875</ele>
      </trkpt>
      <trkpt lat="42.118449127301574" lon="-8.808987624943256">
        <ele>28.8203125</ele>
      </trkpt>
      <trkpt lat="42.118461867794394" lon="-8.808936076238751">
        <ele>29.3671875</ele>
      </trkpt>
      <trkpt lat="42.118484750390053" lon="-8.808895759284496">
        <ele>29.890625</ele>
      </trkpt>
      <trkpt lat="42.118516769260168" lon="-8.808861896395683">
        <ele>30.421875</ele>
      </trkpt>
      <trkpt lat="42.118550715968013" lon="-8.808834822848439">
        <ele>30.90234375</ele>
      </trkpt>
      <trkpt lat="42.118590278550982" lon="-8.808812191709876">
        <ele>31.3828125</ele>
      </trkpt>
      <trkpt lat="42.11862925440073" lon="-8.808788219466805">
        <ele>31.85546875</ele>
      </trkpt>
      <trkpt lat="42.118668481707573" lon="-8.80876793526113">
        <ele>32.296875</ele>
      </trkpt>
      <trkpt lat="42.118707373738289" lon="-8.808748908340931">
        <ele>32.71484375</ele>
      </trkpt>
      <trkpt lat="42.118742745369673" lon="-8.808725606650114">
        <ele>33.12890625</ele>
      </trkpt>
      <trkpt lat="42.118778368458152" lon="-8.808702137321234">
        <ele>33.53515625</ele>
      </trkpt>
      <trkpt lat="42.11881248280406" lon="-8.808675315231085">
        <ele>33.91015625</ele>
      </trkpt>
      <trkpt lat="42.118849279358983" lon="-8.808650756254792">
        <ele>34.27734375</ele>
      </trkpt>
      <trkpt lat="42.118885489180684" lon="-8.808632148429751">
        <ele>34.59765625</ele>
      </trkpt>
      <trkpt lat="42.118925973773003" lon="-8.808621000498533">
        <ele>34.89453125</ele>
      </trkpt>
      <trkpt lat="42.118964865803719" lon="-8.808614043518901">
        <ele>35.15234375</ele>
      </trkpt>
      <trkpt lat="42.119003925472498" lon="-8.808605996891856">
        <ele>35.4140625</ele>
      </trkpt>
      <trkpt lat="42.119040805846453" lon="-8.808592921122909">
        <ele>35.6953125</ele>
      </trkpt>
      <trkpt lat="42.119086319580674" lon="-8.808571798726916">
        <ele>36.06640625</ele>
      </trkpt>
      <trkpt lat="42.119129654020071" lon="-8.808547407388687">
        <ele>36.4375</ele>
      </trkpt>
      <trkpt lat="42.119158152490854" lon="-8.80853533744812">
        <ele>36.65625</ele>
      </trkpt>
      <trkpt lat="42.119432659819722" lon="-8.808338111266494">
        <ele>37.640625</ele>
      </trkpt>
      <trkpt lat="42.11947557516396" lon="-8.808314809575677">
        <ele>37.71484375</ele>
      </trkpt>
      <trkpt lat="42.119518155232072" lon="-8.808286394923925">
        <ele>37.80859375</ele>
      </trkpt>
      <trkpt lat="42.119555035606027" lon="-8.808257393538952">
        <ele>37.91015625</ele>
      </trkpt>
      <trkpt lat="42.119589652866125" lon="-8.808227386325598">
        <ele>38.0234375</ele>
      </trkpt>
      <trkpt lat="42.119623348116875" lon="-8.808199223130941">
        <ele>38.1328125</ele>
      </trkpt>
      <trkpt lat="42.119662156328559" lon="-8.808175418525934">
        <ele>38.234375</ele>
      </trkpt>
      <trkpt lat="42.119700964540243" lon="-8.808150524273515">
        <ele>38.34375</ele>
      </trkpt>
      <trkpt lat="42.119738599285483" lon="-8.808129401877522">
        <ele>38.421875</ele>
      </trkpt>
      <trkpt lat="42.119775898754597" lon="-8.808113811537623">
        <ele>38.4765625</ele>
      </trkpt>
      <trkpt lat="42.119814874604344" lon="-8.808097969740629">
        <ele>38.53515625</ele>
      </trkpt>
      <trkpt lat="42.119858711957932" lon="-8.808084055781364">
        <ele>38.59375</ele>
      </trkpt>
      <trkpt lat="42.11990112438798" lon="-8.808071315288544">
        <ele>38.6484375</ele>
      </trkpt>
      <trkpt lat="42.119943117722869" lon="-8.808057568967342">
        <ele>38.71484375</ele>
      </trkpt>
      <trkpt lat="42.119985781610012" lon="-8.808043571189046">
        <ele>38.78125</ele>
      </trkpt>
      <trkpt lat="42.120026852935553" lon="-8.808030327782035">
        <ele>38.84765625</ele>
      </trkpt>
      <trkpt lat="42.120069097727537" lon="-8.808012725785375">
        <ele>38.94921875</ele>
      </trkpt>
      <trkpt lat="42.120109414681792" lon="-8.807995542883873">
        <ele>39.05859375</ele>
      </trkpt>
      <trkpt lat="42.120148474350572" lon="-8.807974336668849">
        <ele>39.19921875</ele>
      </trkpt>
      <trkpt lat="42.120184935629368" lon="-8.807950867339969">
        <ele>39.35546875</ele>
      </trkpt>
      <trkpt lat="42.120221899822354" lon="-8.807928152382374">
        <ele>39.5078125</ele>
      </trkpt>
      <trkpt lat="42.120261713862419" lon="-8.807898228988051">
        <ele>39.7265625</ele>
      </trkpt>
      <trkpt lat="42.120295744389296" lon="-8.80787224508822">
        <ele>39.93359375</ele>
      </trkpt>
      <trkpt lat="42.120330613106489" lon="-8.807846428826451">
        <ele>40.15625</ele>
      </trkpt>
      <trkpt lat="42.120366068556905" lon="-8.807816002517939">
        <ele>40.4296875</ele>
      </trkpt>
      <trkpt lat="42.120401104912162" lon="-8.807789096608758">
        <ele>40.69140625</ele>
      </trkpt>
      <trkpt lat="42.120435135439038" lon="-8.807755317538977">
        <ele>41.0234375</ele>
      </trkpt>
      <trkpt lat="42.120464388281107" lon="-8.80772321484983">
        <ele>41.3515625</ele>
      </trkpt>
      <trkpt lat="42.120491378009319" lon="-8.807678455486894">
        <ele>41.80078125</ele>
      </trkpt>
      <trkpt lat="42.120515769347548" lon="-8.807634534314275">
        <ele>42.25390625</ele>
      </trkpt>
      <trkpt lat="42.12053588591516" lon="-8.80758591927588">
        <ele>42.671875</ele>
      </trkpt>
      <trkpt lat="42.120551811531186" lon="-8.807539399713278">
        <ele>42.78515625</ele>
      </trkpt>
      <trkpt lat="42.12055248208344" lon="-8.80753948353231">
        <ele>42.78515625</ele>
      </trkpt>
      <trkpt lat="42.120599756017327" lon="-8.807133547961712">
        <ele>43.65234375</ele>
      </trkpt>
      <trkpt lat="42.120651388540864" lon="-8.806832721456885">
        <ele>44.125</ele>
      </trkpt>
      <trkpt lat="42.120657172054052" lon="-8.806825261563063">
        <ele>44.19921875</ele>
      </trkpt>
      <trkpt lat="42.120764795690775" lon="-8.806590065360069">
        <ele>44.69140625</ele>
      </trkpt>
      <trkpt lat="42.120773512870073" lon="-8.80657933652401">
        <ele>44.68359375</ele>
      </trkpt>
      <trkpt lat="42.120926817879081" lon="-8.806308349594474">
        <ele>43.3984375</ele>
      </trkpt>
      <trkpt lat="42.120956992730498" lon="-8.806243725121021">
        <ele>42.984375</ele>
      </trkpt>
      <trkpt lat="42.121074590831995" lon="-8.806014731526375">
        <ele>41.6640625</ele>
      </trkpt>
      <trkpt lat="42.121285647153854" lon="-8.805745840072632">
        <ele>41.08984375</ele>
      </trkpt>
      <trkpt lat="42.121652523055673" lon="-8.805500417947769">
        <ele>44.8359375</ele>
      </trkpt>
      <trkpt lat="42.121888976544142" lon="-8.805257929489017">
        <ele>47.0859375</ele>
      </trkpt>
      <trkpt lat="42.122160382568836" lon="-8.805225659161806">
        <ele>49.8828125</ele>
      </trkpt>
      <trkpt lat="42.122543770819902" lon="-8.805203698575497">
        <ele>52.95703125</ele>
      </trkpt>
      <trkpt lat="42.122552907094359" lon="-8.805196825414896">
        <ele>52.96484375</ele>
      </trkpt>
      <trkpt lat="42.122733620926738" lon="-8.805073024705052">
        <ele>52.98046875</ele>
      </trkpt>
      <trkpt lat="42.122788690030575" lon="-8.805031785741448">
        <ele>52.95703125</ele>
      </trkpt>
      <trkpt lat="42.122845938429236" lon="-8.804982164874673">
        <ele>52.93359375</ele>
      </trkpt>
      <trkpt lat="42.122897235676646" lon="-8.804938914254308">
        <ele>52.890625</ele>
      </trkpt>
      <trkpt lat="42.122942917048931" lon="-8.804896418005228">
        <ele>52.84765625</ele>
      </trkpt>
      <trkpt lat="42.122985832393169" lon="-8.804852077737451">
        <ele>52.8515625</ele>
      </trkpt>
      <trkpt lat="42.123025981709361" lon="-8.804797427728772">
        <ele>52.859375</ele>
      </trkpt>
      <trkpt lat="42.123065879568458" lon="-8.804734395816922">
        <ele>52.86328125</ele>
      </trkpt>
      <trkpt lat="42.123099574819207" lon="-8.804670190438628">
        <ele>52.89453125</ele>
      </trkpt>
      <trkpt lat="42.123134694993496" lon="-8.804595088586211">
        <ele>52.95703125</ele>
      </trkpt>
      <trkpt lat="42.123158667236567" lon="-8.804529625922441">
        <ele>53.03515625</ele>
      </trkpt>
      <trkpt lat="42.123177610337734" lon="-8.804456535726786">
        <ele>53.14453125</ele>
      </trkpt>
      <trkpt lat="42.12319403886795" lon="-8.804383780807257">
        <ele>53.265625</ele>
      </trkpt>
      <trkpt lat="42.123204432427883" lon="-8.804304990917444">
        <ele>53.34375</ele>
      </trkpt>
      <trkpt lat="42.123210383579135" lon="-8.804226201027632">
        <ele>53.39453125</ele>
      </trkpt>
      <trkpt lat="42.123213652521372" lon="-8.804145231842995">
        <ele>53.453125</ele>
      </trkpt>
      <trkpt lat="42.123213652521372" lon="-8.804047834128141">
        <ele>53.52734375</ele>
      </trkpt>
      <trkpt lat="42.123215328902006" lon="-8.803970469161868">
        <ele>53.5859375</ele>
      </trkpt>
      <trkpt lat="42.123220609501004" lon="-8.80389578640461">
        <ele>53.64453125</ele>
      </trkpt>
      <trkpt lat="42.123232930898666" lon="-8.803813559934497">
        <ele>53.671875</ele>
      </trkpt>
      <trkpt lat="42.123248185962439" lon="-8.803739296272397">
        <ele>53.70703125</ele>
      </trkpt>
      <trkpt lat="42.123267129063606" lon="-8.803671151399612">
        <ele>53.7578125</ele>
      </trkpt>
      <trkpt lat="42.123287245631218" lon="-8.803586075082421">
        <ele>53.83984375</ele>
      </trkpt>
      <trkpt lat="42.123309038579464" lon="-8.803492281585932">
        <ele>53.9453125</ele>
      </trkpt>
      <trkpt lat="42.123328819870949" lon="-8.803424471989274">
        <ele>54.03125</ele>
      </trkpt>
      <trkpt lat="42.123348684981465" lon="-8.803355824202299">
        <ele>53.95703125</ele>
      </trkpt>
      <trkpt lat="42.123369891196489" lon="-8.803269239142537">
        <ele>53.84765625</ele>
      </trkpt>
      <trkpt lat="42.123397635295987" lon="-8.803185168653727">
        <ele>53.74609375</ele>
      </trkpt>
      <trkpt lat="42.123418841511011" lon="-8.803096739575267">
        <ele>53.62890625</ele>
      </trkpt>
      <trkpt lat="42.123440969735384" lon="-8.803003700450063">
        <ele>53.53125</ele>
      </trkpt>
      <trkpt lat="42.123460499569774" lon="-8.802923234179616">
        <ele>53.44921875</ele>
      </trkpt>
      <trkpt lat="42.123477179557085" lon="-8.802846372127533">
        <ele>53.35546875</ele>
      </trkpt>
      <trkpt lat="42.123491261154413" lon="-8.802775042131543">
        <ele>53.2578125</ele>
      </trkpt>
      <trkpt lat="42.123497044667602" lon="-8.802738664671779">
        <ele>53.203125</ele>
      </trkpt>
      <trkpt lat="42.123714052140713" lon="-8.803255744278431">
        <ele>54.98828125</ele>
      </trkpt>
      <trkpt lat="42.12391228415072" lon="-8.803551374003291">
        <ele>55.83984375</ele>
      </trkpt>
      <trkpt lat="42.123921755701303" lon="-8.803555816411972">
        <ele>55.8515625</ele>
      </trkpt>
      <trkpt lat="42.124203303828835" lon="-8.803873741999269">
        <ele>56.421875</ele>
      </trkpt>
      <trkpt lat="42.124505555257201" lon="-8.804127378389239">
        <ele>56.3515625</ele>
      </trkpt>
      <trkpt lat="42.124561630189419" lon="-8.804167276248336">
        <ele>56.26953125</ele>
      </trkpt>
      <trkpt lat="42.124618962407112" lon="-8.804192002862692">
        <ele>56.1796875</ele>
      </trkpt>
      <trkpt lat="42.124679563567042" lon="-8.804207844659686">
        <ele>56.08984375</ele>
      </trkpt>
      <trkpt lat="42.124737231060863" lon="-8.804213544353843">
        <ele>55.99609375</ele>
      </trkpt>
      <trkpt lat="42.124792635440826" lon="-8.804212035611272">
        <ele>55.8984375</ele>
      </trkpt>
      <trkpt lat="42.124854577705264" lon="-8.804212035611272">
        <ele>55.6875</ele>
      </trkpt>
      <trkpt lat="42.124915262684226" lon="-8.804213544353843">
        <ele>55.4765625</ele>
      </trkpt>
      <trkpt lat="42.124972343444824" lon="-8.804221926257014">
        <ele>55.2890625</ele>
      </trkpt>
      <trkpt lat="42.125027496367693" lon="-8.80423441529274">
        <ele>55.1171875</ele>
      </trkpt>
      <trkpt lat="42.125091031193733" lon="-8.804252687841654">
        <ele>54.9296875</ele>
      </trkpt>
      <trkpt lat="42.125159343704581" lon="-8.804276995360851">
        <ele>54.73828125</ele>
      </trkpt>
      <trkpt lat="42.125221705064178" lon="-8.8042969442904">
        <ele>54.56640625</ele>
      </trkpt>
      <trkpt lat="42.12527995929122" lon="-8.804310942068696">
        <ele>54.3828125</ele>
      </trkpt>
      <trkpt lat="42.12534056045115" lon="-8.804326700046659">
        <ele>54.171875</ele>
      </trkpt>
      <trkpt lat="42.125396551564336" lon="-8.804339356720448">
        <ele>53.9765625</ele>
      </trkpt>
      <trkpt lat="42.12545782327652" lon="-8.804349163547158">
        <ele>53.75390625</ele>
      </trkpt>
      <trkpt lat="42.125516999512911" lon="-8.804354863241315">
        <ele>53.53515625</ele>
      </trkpt>
      <trkpt lat="42.12557609193027" lon="-8.804355030879378">
        <ele>53.30078125</ele>
      </trkpt>
      <trkpt lat="42.125634513795376" lon="-8.804350923746824">
        <ele>53.05859375</ele>
      </trkpt>
      <trkpt lat="42.125688241794705" lon="-8.804344553500414">
        <ele>52.828125</ele>
      </trkpt>
      <trkpt lat="42.125740041956306" lon="-8.804315635934472">
        <ele>52.5</ele>
      </trkpt>
      <trkpt lat="42.125782957300544" lon="-8.804269786924124">
        <ele>52.08984375</ele>
      </trkpt>
      <trkpt lat="42.125816065818071" lon="-8.804206252098083">
        <ele>51.69140625</ele>
      </trkpt>
      <trkpt lat="42.125827297568321" lon="-8.804135425016284">
        <ele>51.41796875</ele>
      </trkpt>
      <trkpt lat="42.12583651766181" lon="-8.804059233516455">
        <ele>51.140625</ele>
      </trkpt>
      <trkpt lat="42.125849677249789" lon="-8.803987065330148">
        <ele>50.84375</ele>
      </trkpt>
      <trkpt lat="42.125874906778336" lon="-8.803922273218632">
        <ele>50.48046875</ele>
      </trkpt>
      <trkpt lat="42.125907596200705" lon="-8.803863013163209">
        <ele>50.05078125</ele>
      </trkpt>
      <trkpt lat="42.125948248431087" lon="-8.803816493600607">
        <ele>49.5859375</ele>
      </trkpt>
      <trkpt lat="42.126003988087177" lon="-8.803786486387253">
        <ele>49.06640625</ele>
      </trkpt>
      <trkpt lat="42.126056794077158" lon="-8.80375262349844">
        <ele>48.546875</ele>
      </trkpt>
      <trkpt lat="42.126108342781663" lon="-8.803723286837339">
        <ele>48.05078125</ele>
      </trkpt>
      <trkpt lat="42.126162573695183" lon="-8.803682634606957">
        <ele>47.484375</ele>
      </trkpt>
      <trkpt lat="42.126210518181324" lon="-8.803646424785256">
        <ele>46.9609375</ele>
      </trkpt>
      <trkpt lat="42.126259217038751" lon="-8.803605018183589">
        <ele>46.40234375</ele>
      </trkpt>
      <trkpt lat="42.126313615590334" lon="-8.803555648773909">
        <ele>45.7734375</ele>
      </trkpt>
      <trkpt lat="42.12636474519968" lon="-8.803508710116148">
        <ele>45.1875</ele>
      </trkpt>
      <trkpt lat="42.126411683857441" lon="-8.80347266793251">
        <ele>44.6796875</ele>
      </trkpt>
      <trkpt lat="42.126460885629058" lon="-8.803433021530509">
        <ele>44.1484375</ele>
      </trkpt>
      <trkpt lat="42.126513691619039" lon="-8.803395386785269">
        <ele>43.53125</ele>
      </trkpt>
      <trkpt lat="42.12656700052321" lon="-8.803362781181931">
        <ele>42.91796875</ele>
      </trkpt>
      <trkpt lat="42.126623829826713" lon="-8.803325146436691">
        <ele>42.234375</ele>
      </trkpt>
      <trkpt lat="42.126681916415691" lon="-8.803282817825675">
        <ele>41.453125</ele>
      </trkpt>
      <trkpt lat="42.126731956377625" lon="-8.803244596347213">
        <ele>40.734375</ele>
      </trkpt>
      <trkpt lat="42.126781661063433" lon="-8.803214924409986">
        <ele>40.05859375</ele>
      </trkpt>
      <trkpt lat="42.126833545044065" lon="-8.803197238594294">
        <ele>39.43359375</ele>
      </trkpt>
      <trkpt lat="42.126886686310172" lon="-8.803216852247715">
        <ele>39.0390625</ele>
      </trkpt>
      <trkpt lat="42.126919878646731" lon="-8.803279465064406">
        <ele>39.1328125</ele>
      </trkpt>
      <trkpt lat="42.126949550583959" lon="-8.803356997668743">
        <ele>39.37109375</ele>
      </trkpt>
      <trkpt lat="42.126971678808331" lon="-8.803437044844031">
        <ele>39.69921875</ele>
      </trkpt>
      <trkpt lat="42.126978132873774" lon="-8.803471997380257">
        <ele>39.8046875</ele>
      </trkpt>
      <trkpt lat="42.127159265801311" lon="-8.803700739517808">
        <ele>39.453125</ele>
      </trkpt>
      <trkpt lat="42.127205366268754" lon="-8.803753461688757">
        <ele>39.41015625</ele>
      </trkpt>
      <trkpt lat="42.127255070954561" lon="-8.803796460852027">
        <ele>39.3046875</ele>
      </trkpt>
      <trkpt lat="42.127306284382939" lon="-8.803839543834329">
        <ele>39.2109375</ele>
      </trkpt>
      <trkpt lat="42.127358168363571" lon="-8.803874244913459">
        <ele>39.07421875</ele>
      </trkpt>
      <trkpt lat="42.127406615763903" lon="-8.803907688707113">
        <ele>38.98046875</ele>
      </trkpt>
      <trkpt lat="42.127456739544868" lon="-8.803938031196594">
        <ele>38.8828125</ele>
      </trkpt>
      <trkpt lat="42.127509377896786" lon="-8.803975079208612">
        <ele>38.828125</ele>
      </trkpt>
      <trkpt lat="42.127569476142526" lon="-8.804021347314119">
        <ele>38.8125</ele>
      </trkpt>
      <trkpt lat="42.127617923542857" lon="-8.804057640954852">
        <ele>39</ele>
      </trkpt>
      <trkpt lat="42.12766838259995" lon="-8.804095694795251">
        <ele>39.21875</ele>
      </trkpt>
      <trkpt lat="42.127720266580582" lon="-8.804122935980558">
        <ele>39.3515625</ele>
      </trkpt>
      <trkpt lat="42.127775754779577" lon="-8.804140873253345">
        <ele>39.40625</ele>
      </trkpt>
      <trkpt lat="42.127833170816302" lon="-8.804154535755515">
        <ele>39.42578125</ele>
      </trkpt>
      <trkpt lat="42.127888156101108" lon="-8.804162247106433">
        <ele>39.40234375</ele>
      </trkpt>
      <trkpt lat="42.127944901585579" lon="-8.804160906001925">
        <ele>39.30078125</ele>
      </trkpt>
      <trkpt lat="42.128004664555192" lon="-8.804145818576217">
        <ele>39.078125</ele>
      </trkpt>
      <trkpt lat="42.128060236573219" lon="-8.804121259599924">
        <ele>38.78515625</ele>
      </trkpt>
      <trkpt lat="42.128113210201263" lon="-8.80410541780293">
        <ele>38.58203125</ele>
      </trkpt>
      <trkpt lat="42.128172134980559" lon="-8.804089324548841">
        <ele>38.37890625</ele>
      </trkpt>
      <trkpt lat="42.128226114436984" lon="-8.804074320942163">
        <ele>38.19140625</ele>
      </trkpt>
      <trkpt lat="42.12828260846436" lon="-8.804060323163867">
        <ele>38.015625</ele>
      </trkpt>
      <trkpt lat="42.128341449424624" lon="-8.804047079756856">
        <ele>37.84765625</ele>
      </trkpt>
      <trkpt lat="42.12840280495584" lon="-8.804037440568209">
        <ele>37.70703125</ele>
      </trkpt>
      <trkpt lat="42.128460388630629" lon="-8.804030483588576">
        <ele>37.59375</ele>
      </trkpt>
      <trkpt lat="42.128515038639307" lon="-8.80401941947639">
        <ele>37.4765625</ele>
      </trkpt>
      <trkpt lat="42.128572454676032" lon="-8.804011791944504">
        <ele>37.43359375</ele>
      </trkpt>
      <trkpt lat="42.128626517951488" lon="-8.804003326222301">
        <ele>37.390625</ele>
      </trkpt>
      <trkpt lat="42.128680748865008" lon="-8.803991843014956">
        <ele>37.33984375</ele>
      </trkpt>
      <trkpt lat="42.128734895959496" lon="-8.803979018703103">
        <ele>37.296875</ele>
      </trkpt>
      <trkpt lat="42.128795413300395" lon="-8.803963512182236">
        <ele>37.2578125</ele>
      </trkpt>
      <trkpt lat="42.12885333225131" lon="-8.803946580737829">
        <ele>37.234375</ele>
      </trkpt>
      <trkpt lat="42.12890999391675" lon="-8.803922524675727">
        <ele>37.203125</ele>
      </trkpt>
      <trkpt lat="42.128960620611906" lon="-8.803889416158199">
        <ele>37.15625</ele>
      </trkpt>
      <trkpt lat="42.129006218165159" lon="-8.803847171366215">
        <ele>37.04296875</ele>
      </trkpt>
      <trkpt lat="42.129042595624924" lon="-8.803787156939507">
        <ele>36.8828125</ele>
      </trkpt>
      <trkpt lat="42.129063047468662" lon="-8.803717838600278">
        <ele>36.68359375</ele>
      </trkpt>
      <trkpt lat="42.129064220935106" lon="-8.803642233833671">
        <ele>36.4140625</ele>
      </trkpt>
      <trkpt lat="42.129045948386192" lon="-8.803569478914142">
        <ele>36.0703125</ele>
      </trkpt>
      <trkpt lat="42.129024658352137" lon="-8.803487503901124">
        <ele>35.6484375</ele>
      </trkpt>
      <trkpt lat="42.12901015765965" lon="-8.803414665162563">
        <ele>35.19140625</ele>
      </trkpt>
      <trkpt lat="42.128989538177848" lon="-8.8033402338624">
        <ele>34.4296875</ele>
      </trkpt>
      <trkpt lat="42.12896422483027" lon="-8.803273849189281">
        <ele>33.7109375</ele>
      </trkpt>
      <trkpt lat="42.128943437710404" lon="-8.803205033764243">
        <ele>33.0078125</ele>
      </trkpt>
      <trkpt lat="42.128917034715414" lon="-8.803138649091125">
        <ele>32.27734375</ele>
      </trkpt>
      <trkpt lat="42.128899684175849" lon="-8.803064217790961">
        <ele>31.51953125</ele>
      </trkpt>
      <trkpt lat="42.128888787701726" lon="-8.802992384880781">
        <ele>30.81640625</ele>
      </trkpt>
      <trkpt lat="42.128892727196217" lon="-8.802916947752237">
        <ele>30.11328125</ele>
      </trkpt>
      <trkpt lat="42.128907479345798" lon="-8.802844192832708">
        <ele>29.48828125</ele>
      </trkpt>
      <trkpt lat="42.128956094384193" lon="-8.80280471406877">
        <ele>29.42578125</ele>
      </trkpt>
      <trkpt lat="42.129015102982521" lon="-8.80278367549181">
        <ele>29.48046875</ele>
      </trkpt>
      <trkpt lat="42.129074111580849" lon="-8.802764061838388">
        <ele>29.51953125</ele>
      </trkpt>
      <trkpt lat="42.129129683598876" lon="-8.802744699642062">
        <ele>29.5390625</ele>
      </trkpt>
      <trkpt lat="42.129184249788523" lon="-8.802730031311512">
        <ele>29.59375</ele>
      </trkpt>
      <trkpt lat="42.129244850948453" lon="-8.802715195342898">
        <ele>29.65625</ele>
      </trkpt>
      <trkpt lat="42.129300758242607" lon="-8.802702957764268">
        <ele>29.7265625</ele>
      </trkpt>
      <trkpt lat="42.129365047439933" lon="-8.802690049633384">
        <ele>29.8125</ele>
      </trkpt>
      <trkpt lat="42.129420870915055" lon="-8.802679488435388">
        <ele>29.8828125</ele>
      </trkpt>
      <trkpt lat="42.129477197304368" lon="-8.80266884341836">
        <ele>29.77734375</ele>
      </trkpt>
      <trkpt lat="42.129533858969808" lon="-8.802661215886474">
        <ele>29.6875</ele>
      </trkpt>
      <trkpt lat="42.129592029377818" lon="-8.802661634981632">
        <ele>29.70703125</ele>
      </trkpt>
      <trkpt lat="42.129645254462957" lon="-8.802676973864436">
        <ele>29.9453125</ele>
      </trkpt>
      <trkpt lat="42.129697808995843" lon="-8.802696922793984">
        <ele>30.26953125</ele>
      </trkpt>
      <trkpt lat="42.129751788452268" lon="-8.802714357152581">
        <ele>30.57421875</ele>
      </trkpt>
      <trkpt lat="42.129804929718375" lon="-8.802732545882463">
        <ele>30.91015625</ele>
      </trkpt>
      <trkpt lat="42.129864022135735" lon="-8.802756769582629">
        <ele>31.375</ele>
      </trkpt>
      <trkpt lat="42.129916241392493" lon="-8.802780825644732">
        <ele>31.6484375</ele>
      </trkpt>
      <trkpt lat="42.129972735419869" lon="-8.802801193669438">
        <ele>31.67578125</ele>
      </trkpt>
      <trkpt lat="42.130029983818531" lon="-8.802824830636382">
        <ele>31.73828125</ele>
      </trkpt>
      <trkpt lat="42.130084047093987" lon="-8.802844528108835">
        <ele>31.7421875</ele>
      </trkpt>
      <trkpt lat="42.130138194188476" lon="-8.802864896133542">
        <ele>31.74609375</ele>
      </trkpt>
      <trkpt lat="42.130192928016186" lon="-8.802879983559251">
        <ele>31.6484375</ele>
      </trkpt>
      <trkpt lat="42.130245817825198" lon="-8.802894987165928">
        <ele>31.5546875</ele>
      </trkpt>
      <trkpt lat="42.130300551652908" lon="-8.802903369069099">
        <ele>31.33984375</ele>
      </trkpt>
      <trkpt lat="42.130354614928365" lon="-8.802894232794642">
        <ele>30.859375</ele>
      </trkpt>
      <trkpt lat="42.130409264937043" lon="-8.802874451503158">
        <ele>30.12109375</ele>
      </trkpt>
      <trkpt lat="42.130455700680614" lon="-8.802832793444395">
        <ele>29.1796875</ele>
      </trkpt>
      <trkpt lat="42.130488306283951" lon="-8.802776131778955">
        <ele>28.1796875</ele>
      </trkpt>
      <trkpt lat="42.130504734814167" lon="-8.802707400172949">
        <ele>27.171875</ele>
      </trkpt>
      <trkpt lat="42.13051806204021" lon="-8.802631292492151">
        <ele>26.109375</ele>
      </trkpt>
      <trkpt lat="42.13053566403687" lon="-8.802558621391654">
        <ele>25.0859375</ele>
      </trkpt>
      <trkpt lat="42.130557121708989" lon="-8.802487123757601">
        <ele>24.1484375</ele>
      </trkpt>
      <trkpt lat="42.130594085901976" lon="-8.802428031340241">
        <ele>23.41015625</ele>
      </trkpt>
      <trkpt lat="42.130640354007483" lon="-8.80238788202405">
        <ele>22.8046875</ele>
      </trkpt>
      <trkpt lat="42.13069542311132" lon="-8.802381847053766">
        <ele>22.484375</ele>
      </trkpt>
      <trkpt lat="42.130744792521" lon="-8.802411435171962">
        <ele>22.53515625</ele>
      </trkpt>
      <trkpt lat="42.130788043141365" lon="-8.80245485343039">
        <ele>22.7578125</ele>
      </trkpt>
      <trkpt lat="42.13083129376173" lon="-8.802514364942908">
        <ele>22.93359375</ele>
      </trkpt>
      <trkpt lat="42.130864067003131" lon="-8.80258334800601">
        <ele>23.07421875</ele>
      </trkpt>
      <trkpt lat="42.130895415320992" lon="-8.802648894488811">
        <ele>23.15625</ele>
      </trkpt>
      <trkpt lat="42.130923746153712" lon="-8.802719637751579">
        <ele>23.29296875</ele>
      </trkpt>
      <trkpt lat="42.13094905950129" lon="-8.802794739603996">
        <ele>23.47265625</ele>
      </trkpt>
      <trkpt lat="42.130974372848868" lon="-8.802865985780954">
        <ele>23.578125</ele>
      </trkpt>
      <trkpt lat="42.130998848006129" lon="-8.80293907597661">
        <ele>23.671875</ele>
      </trkpt>
      <trkpt lat="42.131020976230502" lon="-8.803011998534203">
        <ele>23.71484375</ele>
      </trkpt>
      <trkpt lat="42.131040589883924" lon="-8.803082909435034">
        <ele>23.73046875</ele>
      </trkpt>
      <trkpt lat="42.131058778613806" lon="-8.803157424554229">
        <ele>23.7734375</ele>
      </trkpt>
      <trkpt lat="42.13107998482883" lon="-8.803238477557898">
        <ele>23.76171875</ele>
      </trkpt>
      <trkpt lat="42.131100436672568" lon="-8.803309723734856">
        <ele>23.68359375</ele>
      </trkpt>
      <trkpt lat="42.131123906001449" lon="-8.803382394835353">
        <ele>23.51953125</ele>
      </trkpt>
      <trkpt lat="42.131142262369394" lon="-8.80345263518393">
        <ele>23.375</ele>
      </trkpt>
      <trkpt lat="42.131152153015137" lon="-8.803456407040358">
        <ele>23.14453125</ele>
      </trkpt>
      <trkpt lat="42.131159948185086" lon="-8.803546847775578">
        <ele>23.14453125</ele>
      </trkpt>
      <trkpt lat="42.131193811073899" lon="-8.80360753275454">
        <ele>22.44140625</ele>
      </trkpt>
      <trkpt lat="42.131229769438505" lon="-8.803665786981583">
        <ele>21.67578125</ele>
      </trkpt>
      <trkpt lat="42.131268661469221" lon="-8.803718090057373">
        <ele>20.8203125</ele>
      </trkpt>
      <trkpt lat="42.13132188655436" lon="-8.803754299879074">
        <ele>19.703125</ele>
      </trkpt>
      <trkpt lat="42.131376536563039" lon="-8.803780786693096">
        <ele>18.546875</ele>
      </trkpt>
      <trkpt lat="42.13143085129559" lon="-8.80379076115787">
        <ele>17.36328125</ele>
      </trkpt>
      <trkpt lat="42.131486590951681" lon="-8.803783552721143">
        <ele>16.12109375</ele>
      </trkpt>
      <trkpt lat="42.131539480760694" lon="-8.803758742287755">
        <ele>14.921875</ele>
      </trkpt>
      <trkpt lat="42.131587844341993" lon="-8.803721610456705">
        <ele>13.81640625</ele>
      </trkpt>
      <trkpt lat="42.131637297570705" lon="-8.80368079058826">
        <ele>12.6953125</ele>
      </trkpt>
      <trkpt lat="42.131687756627798" lon="-8.803658159449697">
        <ele>11.578125</ele>
      </trkpt>
      <trkpt lat="42.131734360009432" lon="-8.803708786144853">
        <ele>10.6015625</ele>
      </trkpt>
      <trkpt lat="42.13177383877337" lon="-8.803762849420309">
        <ele>10.6015625</ele>
      </trkpt>
      <trkpt lat="42.131814155727625" lon="-8.803824540227652">
        <ele>10.64453125</ele>
      </trkpt>
      <trkpt lat="42.131848437711596" lon="-8.803887153044343">
        <ele>10.66796875</ele>
      </trkpt>
      <trkpt lat="42.131886575371027" lon="-8.803951861336827">
        <ele>10.70703125</ele>
      </trkpt>
      <trkpt lat="42.131921779364347" lon="-8.804012127220631">
        <ele>10.73046875</ele>
      </trkpt>
      <trkpt lat="42.13195463642478" lon="-8.804069710895419">
        <ele>10.734375</ele>
      </trkpt>
      <trkpt lat="42.131989924237132" lon="-8.804137352854013">
        <ele>10.7265625</ele>
      </trkpt>
      <trkpt lat="42.132021021097898" lon="-8.804198289290071">
        <ele>10.69921875</ele>
      </trkpt>
      <trkpt lat="42.132061421871185" lon="-8.804253023117781">
        <ele>10.64453125</ele>
      </trkpt>
      <trkpt lat="42.132104001939297" lon="-8.804299794137478">
        <ele>10.56640625</ele>
      </trkpt>
      <trkpt lat="42.132153622806072" lon="-8.8043262809515">
        <ele>10.46875</ele>
      </trkpt>
      <trkpt lat="42.132162004709244" lon="-8.804270541295409">
        <ele>10.48046875</ele>
      </trkpt>
      <trkpt lat="42.132131662219763" lon="-8.804213125258684">
        <ele>10.55078125</ele>
      </trkpt>
      <trkpt lat="42.132103079929948" lon="-8.804156463593245">
        <ele>10.6015625</ele>
      </trkpt>
      <trkpt lat="42.132113138213754" lon="-8.804091503843665">
        <ele>10.609375</ele>
      </trkpt>
      <trkpt lat="42.132162423804402" lon="-8.804051773622632">
        <ele>10.58984375</ele>
      </trkpt>
      <trkpt lat="42.132209027186036" lon="-8.804010953754187">
        <ele>10.6171875</ele>
      </trkpt>
      <trkpt lat="42.132257139310241" lon="-8.803962673991919">
        <ele>10.796875</ele>
      </trkpt>
      <trkpt lat="42.132305586710572" lon="-8.80392269231379">
        <ele>10.98828125</ele>
      </trkpt>
      <trkpt lat="42.132352106273174" lon="-8.803886314854026">
        <ele>11.1875</ele>
      </trkpt>
      <trkpt lat="42.132398458197713" lon="-8.803846249356866">
        <ele>11.4296875</ele>
      </trkpt>
      <trkpt lat="42.132437601685524" lon="-8.803839376196265">
        <ele>11.58203125</ele>
      </trkpt>
      <trkpt lat="42.132465345785022" lon="-8.803904168307781">
        <ele>11.52734375</ele>
      </trkpt>
      <trkpt lat="42.132500130683184" lon="-8.803958902135491">
        <ele>11.53515625</ele>
      </trkpt>
      <trkpt lat="42.132542040199041" lon="-8.80400475114584">
        <ele>11.5625</ele>
      </trkpt>
      <trkpt lat="42.13254782371223" lon="-8.803956219926476">
        <ele>11.68359375</ele>
      </trkpt>
      <trkpt lat="42.132532736286521" lon="-8.803886231034994">
        <ele>11.7890625</ele>
      </trkpt>
      <trkpt lat="42.132508931681514" lon="-8.803811045363545">
        <ele>11.91015625</ele>
      </trkpt>
      <trkpt lat="42.132490323856473" lon="-8.803739883005619">
        <ele>12.0234375</ele>
      </trkpt>
      <trkpt lat="42.132477080449462" lon="-8.803663859143853">
        <ele>12.16015625</ele>
      </trkpt>
      <trkpt lat="42.132466100156307" lon="-8.803592529147863">
        <ele>12.2890625</ele>
      </trkpt>
      <trkpt lat="42.132452186197042" lon="-8.803519355133176">
        <ele>12.3984375</ele>
      </trkpt>
      <trkpt lat="42.132440451532602" lon="-8.803443079814315">
        <ele>12.51953125</ele>
      </trkpt>
      <trkpt lat="42.132434165105224" lon="-8.803367977961898">
        <ele>12.68359375</ele>
      </trkpt>
      <trkpt lat="42.13242813013494" lon="-8.803292708471417">
        <ele>12.84765625</ele>
      </trkpt>
      <trkpt lat="42.132430141791701" lon="-8.803220791742206">
        <ele>13.05078125</ele>
      </trkpt>
      <trkpt lat="42.132456880062819" lon="-8.803160190582275">
        <ele>13.37109375</ele>
      </trkpt>
      <trkpt lat="42.132482277229428" lon="-8.80312523804605">
        <ele>13.62109375</ele>
      </trkpt>
      <trkpt lat="42.132752342149615" lon="-8.802772276103497">
        <ele>17.171875</ele>
      </trkpt>
      <trkpt lat="42.132758460938931" lon="-8.802747214213014">
        <ele>17.35546875</ele>
      </trkpt>
      <trkpt lat="42.133468491956592" lon="-8.801950011402369">
        <ele>28.83203125</ele>
      </trkpt>
      <trkpt lat="42.133819190785289" lon="-8.801592607051134">
        <ele>31.84765625</ele>
      </trkpt>
      <trkpt lat="42.133879456669092" lon="-8.801598222926259">
        <ele>32.203125</ele>
      </trkpt>
      <trkpt lat="42.133934693410993" lon="-8.801604844629765">
        <ele>32.53125</ele>
      </trkpt>
      <trkpt lat="42.13399663567543" lon="-8.801607275381684">
        <ele>32.90234375</ele>
      </trkpt>
      <trkpt lat="42.134059332311153" lon="-8.801603922620416">
        <ele>33.28125</ele>
      </trkpt>
      <trkpt lat="42.134115155786276" lon="-8.801595205441117">
        <ele>33.65234375</ele>
      </trkpt>
      <trkpt lat="42.134176343679428" lon="-8.80158212967217">
        <ele>34.0546875</ele>
      </trkpt>
      <trkpt lat="42.134227808564901" lon="-8.801562516018748">
        <ele>34.33984375</ele>
      </trkpt>
      <trkpt lat="42.134269969537854" lon="-8.801507111638784">
        <ele>34.46875</ele>
      </trkpt>
      <trkpt lat="42.134308693930507" lon="-8.801456904038787">
        <ele>34.60546875</ele>
      </trkpt>
      <trkpt lat="42.134334091097116" lon="-8.801393201574683">
        <ele>34.625</ele>
      </trkpt>
      <trkpt lat="42.134343646466732" lon="-8.801321452483535">
        <ele>34.515625</ele>
      </trkpt>
      <trkpt lat="42.134347250685096" lon="-8.801241489127278">
        <ele>34.34765625</ele>
      </trkpt>
      <trkpt lat="42.134349346160889" lon="-8.80116630345583">
        <ele>34.1796875</ele>
      </trkpt>
      <trkpt lat="42.134362002834678" lon="-8.801090531051159">
        <ele>34.1171875</ele>
      </trkpt>
      <trkpt lat="42.1343953628093" lon="-8.801034791395068">
        <ele>34.30078125</ele>
      </trkpt>
      <trkpt lat="42.134439200162888" lon="-8.800986260175705">
        <ele>34.58203125</ele>
      </trkpt>
      <trkpt lat="42.134484210982919" lon="-8.800936220213771">
        <ele>34.87890625</ele>
      </trkpt>
      <trkpt lat="42.134531987830997" lon="-8.800896070897579">
        <ele>35.20703125</ele>
      </trkpt>
      <trkpt lat="42.134581608697772" lon="-8.800858184695244">
        <ele>35.52734375</ele>
      </trkpt>
      <trkpt lat="42.134639443829656" lon="-8.800817113369703">
        <ele>35.90234375</ele>
      </trkpt>
      <trkpt lat="42.134696105495095" lon="-8.800785848870873">
        <ele>36.27734375</ele>
      </trkpt>
      <trkpt lat="42.134756539016962" lon="-8.800746873021126">
        <ele>36.66015625</ele>
      </trkpt>
      <trkpt lat="42.134804902598262" lon="-8.800712842494249">
        <ele>36.9609375</ele>
      </trkpt>
      <trkpt lat="42.13484832085669" lon="-8.800666155293584">
        <ele>37.19140625</ele>
      </trkpt>
      <trkpt lat="42.134891236200929" lon="-8.800618965178728">
        <ele>37.33984375</ele>
      </trkpt>
      <trkpt lat="42.134941779077053" lon="-8.800574708729982">
        <ele>37.5</ele>
      </trkpt>
      <trkpt lat="42.134988298639655" lon="-8.800526848062873">
        <ele>37.4921875</ele>
      </trkpt>
      <trkpt lat="42.135037081316113" lon="-8.800486866384745">
        <ele>37.27734375</ele>
      </trkpt>
      <trkpt lat="42.135085696354508" lon="-8.80044755525887">
        <ele>37.0625</ele>
      </trkpt>
      <trkpt lat="42.135135401040316" lon="-8.800408411771059">
        <ele>36.84765625</ele>
      </trkpt>
      <trkpt lat="42.135187620297074" lon="-8.800375051796436">
        <ele>36.66015625</ele>
      </trkpt>
      <trkpt lat="42.135245120152831" lon="-8.800334231927991">
        <ele>36.43359375</ele>
      </trkpt>
      <trkpt lat="42.135301195085049" lon="-8.800303051248193">
        <ele>36.25390625</ele>
      </trkpt>
      <trkpt lat="42.135364646092057" lon="-8.800272541120648">
        <ele>36.0703125</ele>
      </trkpt>
      <trkpt lat="42.135419882833958" lon="-8.800249993801117">
        <ele>35.93359375</ele>
      </trkpt>
      <trkpt lat="42.135474365204573" lon="-8.8002301286906">
        <ele>35.82421875</ele>
      </trkpt>
      <trkpt lat="42.135526752099395" lon="-8.80021445453167">
        <ele>35.75</ele>
      </trkpt>
      <trkpt lat="42.135581402108073" lon="-8.800193835049868">
        <ele>35.66015625</ele>
      </trkpt>
      <trkpt lat="42.135635716840625" lon="-8.800176568329334">
        <ele>35.61328125</ele>
      </trkpt>
      <trkpt lat="42.135690366849303" lon="-8.800158547237515">
        <ele>35.56640625</ele>
      </trkpt>
      <trkpt lat="42.135744513943791" lon="-8.800134994089603">
        <ele>35.50390625</ele>
      </trkpt>
      <trkpt lat="42.135796062648296" lon="-8.800105741247535">
        <ele>35.4296875</ele>
      </trkpt>
      <trkpt lat="42.135844007134438" lon="-8.800066597759724">
        <ele>35.32421875</ele>
      </trkpt>
      <trkpt lat="42.135889520868659" lon="-8.800022592768073">
        <ele>35.2109375</ele>
      </trkpt>
      <trkpt lat="42.135940566658974" lon="-8.799984287470579">
        <ele>35.1328125</ele>
      </trkpt>
      <trkpt lat="42.135990438982844" lon="-8.799944473430514">
        <ele>35.06640625</ele>
      </trkpt>
      <trkpt lat="42.136015919968486" lon="-8.799925278872252">
        <ele>35.0390625</ele>
      </trkpt>
      <trkpt lat="42.136159585788846" lon="-8.79980256780982">
        <ele>34.91796875</ele>
      </trkpt>
      <trkpt lat="42.136192694306374" lon="-8.799744145944715">
        <ele>34.84765625</ele>
      </trkpt>
      <trkpt lat="42.136221025139093" lon="-8.799671810120344">
        <ele>34.7734375</ele>
      </trkpt>
      <trkpt lat="42.136243404820561" lon="-8.79960517399013">
        <ele>34.70703125</ele>
      </trkpt>
      <trkpt lat="42.136264611035585" lon="-8.799534682184458">
        <ele>34.6328125</ele>
      </trkpt>
      <trkpt lat="42.136288331821561" lon="-8.79946636967361">
        <ele>34.57421875</ele>
      </trkpt>
      <trkpt lat="42.136317249387503" lon="-8.799400152638555">
        <ele>34.53125</ele>
      </trkpt>
      <trkpt lat="42.136348010972142" lon="-8.799331923946738">
        <ele>34.49609375</ele>
      </trkpt>
      <trkpt lat="42.136381706222892" lon="-8.799266461282969">
        <ele>34.4609375</ele>
      </trkpt>
      <trkpt lat="42.136412551626563" lon="-8.799206865951419">
        <ele>34.42578125</ele>
      </trkpt>
      <trkpt lat="42.136443816125393" lon="-8.799145510420203">
        <ele>34.38671875</ele>
      </trkpt>
      <trkpt lat="42.136479523032904" lon="-8.799088764935732">
        <ele>34.359375</ele>
      </trkpt>
      <trkpt lat="42.136515062302351" lon="-8.799030762165785">
        <ele>34.328125</ele>
      </trkpt>
      <trkpt lat="42.136555630713701" lon="-8.798975525423884">
        <ele>34.30859375</ele>
      </trkpt>
      <trkpt lat="42.136597707867622" lon="-8.798919450491667">
        <ele>34.2890625</ele>
      </trkpt>
      <trkpt lat="42.136644730344415" lon="-8.798866560682654">
        <ele>34.28125</ele>
      </trkpt>
      <trkpt lat="42.136689322069287" lon="-8.798820544034243">
        <ele>34.28125</ele>
      </trkpt>
      <trkpt lat="42.136738775297999" lon="-8.798769246786833">
        <ele>34.296875</ele>
      </trkpt>
      <trkpt lat="42.136785043403506" lon="-8.798715518787503">
        <ele>34.32421875</ele>
      </trkpt>
      <trkpt lat="42.136826785281301" lon="-8.798669753596187">
        <ele>34.3515625</ele>
      </trkpt>
      <trkpt lat="42.136870203539729" lon="-8.798622395843267">
        <ele>34.3203125</ele>
      </trkpt>
      <trkpt lat="42.136925188824534" lon="-8.798565315082669">
        <ele>34.28125</ele>
      </trkpt>
      <trkpt lat="42.136976150795817" lon="-8.798511670902371">
        <ele>34.24609375</ele>
      </trkpt>
      <trkpt lat="42.137020155787468" lon="-8.798468001186848">
        <ele>34.21875</ele>
      </trkpt>
      <trkpt lat="42.137064747512341" lon="-8.798424499109387">
        <ele>34.19140625</ele>
      </trkpt>
      <trkpt lat="42.137120654806495" lon="-8.798373285681009">
        <ele>34.15625</ele>
      </trkpt>
      <trkpt lat="42.137169353663921" lon="-8.79833179526031">
        <ele>34.08203125</ele>
      </trkpt>
      <trkpt lat="42.13721914216876" lon="-8.798293825238943">
        <ele>33.88671875</ele>
      </trkpt>
      <trkpt lat="42.137275636196136" lon="-8.798255100846291">
        <ele>33.67578125</ele>
      </trkpt>
      <trkpt lat="42.137337327003479" lon="-8.798214197158813">
        <ele>33.41796875</ele>
      </trkpt>
      <trkpt lat="42.137391055002809" lon="-8.79817983135581">
        <ele>33.1875</ele>
      </trkpt>
      <trkpt lat="42.137450566515326" lon="-8.798135658726096">
        <ele>32.890625</ele>
      </trkpt>
      <trkpt lat="42.137501779943705" lon="-8.798101795837283">
        <ele>32.65234375</ele>
      </trkpt>
      <trkpt lat="42.137557938694954" lon="-8.798062652349472">
        <ele>32.375</ele>
      </trkpt>
      <trkpt lat="42.137614684179425" lon="-8.798027029260993">
        <ele>32.11328125</ele>
      </trkpt>
      <trkpt lat="42.137666149064898" lon="-8.798001129180193">
        <ele>31.90234375</ele>
      </trkpt>
      <trkpt lat="42.137713842093945" lon="-8.797967853024602">
        <ele>31.65234375</ele>
      </trkpt>
      <trkpt lat="42.137767402455211" lon="-8.797933403402567">
        <ele>31.39453125</ele>
      </trkpt>
      <trkpt lat="42.137820962816477" lon="-8.797899708151817">
        <ele>31.15625</ele>
      </trkpt>
      <trkpt lat="42.137879887595773" lon="-8.797862743958831">
        <ele>30.91796875</ele>
      </trkpt>
      <trkpt lat="42.137931101024151" lon="-8.797831395640969">
        <ele>30.7265625</ele>
      </trkpt>
      <trkpt lat="42.137982817366719" lon="-8.797804657369852">
        <ele>30.5625</ele>
      </trkpt>
      <trkpt lat="42.138041909784079" lon="-8.797779344022274">
        <ele>30.41015625</ele>
      </trkpt>
      <trkpt lat="42.138095973059535" lon="-8.797759059816599">
        <ele>30.28515625</ele>
      </trkpt>
      <trkpt lat="42.138150371611118" lon="-8.79774740897119">
        <ele>30.203125</ele>
      </trkpt>
      <trkpt lat="42.138208877295256" lon="-8.797748582437634">
        <ele>30.1796875</ele>
      </trkpt>
      <trkpt lat="42.138256151229143" lon="-8.797781774774194">
        <ele>30.46875</ele>
      </trkpt>
      <trkpt lat="42.138301664963365" lon="-8.797820918262005">
        <ele>30.80078125</ele>
      </trkpt>
      <trkpt lat="42.13835958391428" lon="-8.797828713431954">
        <ele>31.02734375</ele>
      </trkpt>
      <trkpt lat="42.138415742665529" lon="-8.797806752845645">
        <ele>31.109375</ele>
      </trkpt>
      <trkpt lat="42.138459580019116" lon="-8.797763753682375">
        <ele>31.0546875</ele>
      </trkpt>
      <trkpt lat="42.138494784012437" lon="-8.797707678750157">
        <ele>30.9140625</ele>
      </trkpt>
      <trkpt lat="42.138532837852836" lon="-8.797650681808591">
        <ele>30.7734375</ele>
      </trkpt>
      <trkpt lat="42.13857801631093" lon="-8.797599636018276">
        <ele>30.6875</ele>
      </trkpt>
      <trkpt lat="42.138626128435135" lon="-8.797557391226292">
        <ele>30.65234375</ele>
      </trkpt>
      <trkpt lat="42.138679018244147" lon="-8.797542136162519">
        <ele>30.7578125</ele>
      </trkpt>
      <trkpt lat="42.138734590262175" lon="-8.79754900932312">
        <ele>31.03125</ele>
      </trkpt>
      <trkpt lat="42.138792173936963" lon="-8.797557642683387">
        <ele>31.3203125</ele>
      </trkpt>
      <trkpt lat="42.138850931078196" lon="-8.797562001273036">
        <ele>31.6015625</ele>
      </trkpt>
      <trkpt lat="42.138911448419094" lon="-8.797568120062351">
        <ele>31.89453125</ele>
      </trkpt>
      <trkpt lat="42.138972720131278" lon="-8.797576501965523">
        <ele>32.2109375</ele>
      </trkpt>
      <trkpt lat="42.139033153653145" lon="-8.7975915055722">
        <ele>32.5625</ele>
      </trkpt>
      <trkpt lat="42.139089563861489" lon="-8.797607095912099">
        <ele>32.90234375</ele>
      </trkpt>
      <trkpt lat="42.139144130051136" lon="-8.797622518613935">
        <ele>33.23828125</ele>
      </trkpt>
      <trkpt lat="42.139203138649464" lon="-8.797640288248658">
        <ele>33.59765625</ele>
      </trkpt>
      <trkpt lat="42.139258878305554" lon="-8.79766333848238">
        <ele>33.96484375</ele>
      </trkpt>
      <trkpt lat="42.139314785599709" lon="-8.79768337123096">
        <ele>34.30078125</ele>
      </trkpt>
      <trkpt lat="42.139370441436768" lon="-8.797707762569189">
        <ele>34.65234375</ele>
      </trkpt>
      <trkpt lat="42.139425594359636" lon="-8.797727124765515">
        <ele>34.96484375</ele>
      </trkpt>
      <trkpt lat="42.139487285166979" lon="-8.79775763489306">
        <ele>35.34375</ele>
      </trkpt>
      <trkpt lat="42.139542857185006" lon="-8.79778060130775">
        <ele>35.65234375</ele>
      </trkpt>
      <trkpt lat="42.139600273221731" lon="-8.797804322093725">
        <ele>35.9609375</ele>
      </trkpt>
      <trkpt lat="42.139652743935585" lon="-8.797824522480369">
        <ele>36.2578125</ele>
      </trkpt>
      <trkpt lat="42.139705633744597" lon="-8.797844722867012">
        <ele>36.546875</ele>
      </trkpt>
      <trkpt lat="42.139754919335246" lon="-8.797875065356493">
        <ele>36.85546875</ele>
      </trkpt>
      <trkpt lat="42.139802193269134" lon="-8.797915298491716">
        <ele>37.23828125</ele>
      </trkpt>
      <trkpt lat="42.139844438061118" lon="-8.797964500263333">
        <ele>37.63671875</ele>
      </trkpt>
      <trkpt lat="42.139893053099513" lon="-8.797996519133449">
        <ele>37.96484375</ele>
      </trkpt>
      <trkpt lat="42.13994862511754" lon="-8.798012863844633">
        <ele>38.2265625</ele>
      </trkpt>
      <trkpt lat="42.1400077175349" lon="-8.798027280718088">
        <ele>38.48828125</ele>
      </trkpt>
      <trkpt lat="42.14006245136261" lon="-8.798038680106401">
        <ele>38.71484375</ele>
      </trkpt>
      <trkpt lat="42.140107713639736" lon="-8.798078997060657">
        <ele>39.00390625</ele>
      </trkpt>
      <trkpt lat="42.140141827985644" lon="-8.798137921839952">
        <ele>39.30859375</ele>
      </trkpt>
      <trkpt lat="42.140167895704508" lon="-8.798206988722086">
        <ele>39.60546875</ele>
      </trkpt>
      <trkpt lat="42.14020268060267" lon="-8.798275217413902">
        <ele>39.89453125</ele>
      </trkpt>
      <trkpt lat="42.140250038355589" lon="-8.798322826623917">
        <ele>40.11328125</ele>
      </trkpt>
      <trkpt lat="42.140312399715185" lon="-8.798347217962146">
        <ele>40.25390625</ele>
      </trkpt>
      <trkpt lat="42.140367971733212" lon="-8.798352750018239">
        <ele>40.32421875</ele>
      </trkpt>
      <trkpt lat="42.140422118827701" lon="-8.7983513250947">
        <ele>40.39453125</ele>
      </trkpt>
      <trkpt lat="42.140482719987631" lon="-8.79833715967834">
        <ele>40.46875</ele>
      </trkpt>
      <trkpt lat="42.140535023063421" lon="-8.798312013968825">
        <ele>40.50390625</ele>
      </trkpt>
      <trkpt lat="42.140586990863085" lon="-8.798283599317074">
        <ele>40.515625</ele>
      </trkpt>
      <trkpt lat="42.140641305595636" lon="-8.798262309283018">
        <ele>40.546875</ele>
      </trkpt>
      <trkpt lat="42.140697380527854" lon="-8.798251245170832">
        <ele>40.59765625</ele>
      </trkpt>
      <trkpt lat="42.14075144380331" lon="-8.798243282362819">
        <ele>40.6484375</ele>
      </trkpt>
      <trkpt lat="42.140805423259735" lon="-8.798228111118078">
        <ele>40.70703125</ele>
      </trkpt>
      <trkpt lat="42.140856217592955" lon="-8.798199025914073">
        <ele>40.76953125</ele>
      </trkpt>
      <trkpt lat="42.14091069996357" lon="-8.798159128054976">
        <ele>40.8515625</ele>
      </trkpt>
      <trkpt lat="42.140957219526172" lon="-8.798117805272341">
        <ele>40.9375</ele>
      </trkpt>
      <trkpt lat="42.141000051051378" lon="-8.79806550219655">
        <ele>41.03515625</ele>
      </trkpt>
      <trkpt lat="42.141045816242695" lon="-8.798017725348473">
        <ele>41.109375</ele>
      </trkpt>
      <trkpt lat="42.141093509271741" lon="-8.797974139451981">
        <ele>41.1953125</ele>
      </trkpt>
      <trkpt lat="42.141142962500453" lon="-8.797928038984537">
        <ele>41.296875</ele>
      </trkpt>
      <trkpt lat="42.141191074624658" lon="-8.797885878011584">
        <ele>41.40625</ele>
      </trkpt>
      <trkpt lat="42.141238180920482" lon="-8.79783634096384">
        <ele>41.546875</ele>
      </trkpt>
      <trkpt lat="42.141285790130496" lon="-8.797790072858334">
        <ele>41.6953125</ele>
      </trkpt>
      <trkpt lat="42.141333483159542" lon="-8.797743385657668">
        <ele>41.84765625</ele>
      </trkpt>
      <trkpt lat="42.141377655789256" lon="-8.797687562182546">
        <ele>42.01953125</ele>
      </trkpt>
      <trkpt lat="42.141420068219304" lon="-8.79763450473547">
        <ele>42.1875</ele>
      </trkpt>
      <trkpt lat="42.141465665772557" lon="-8.797594271600246">
        <ele>42.33984375</ele>
      </trkpt>
      <trkpt lat="42.141517465934157" lon="-8.797559067606926">
        <ele>42.48046875</ele>
      </trkpt>
      <trkpt lat="42.141568008810282" lon="-8.797533921897411">
        <ele>42.61328125</ele>
      </trkpt>
      <trkpt lat="42.141602374613285" lon="-8.797481535002589">
        <ele>42.80078125</ele>
      </trkpt>
      <trkpt lat="42.141613438725471" lon="-8.797399057075381">
        <ele>43.0625</ele>
      </trkpt>
      <trkpt lat="42.141605475917459" lon="-8.797303671017289">
        <ele>43.421875</ele>
      </trkpt>
      <trkpt lat="42.141599273309112" lon="-8.797214990481734">
        <ele>43.76171875</ele>
      </trkpt>
      <trkpt lat="42.141598435118794" lon="-8.797196801751852">
        <ele>43.83203125</ele>
      </trkpt>
      <trkpt lat="42.141626430675387" lon="-8.797040563076735">
        <ele>44.50390625</ele>
      </trkpt>
      <trkpt lat="42.141649313271046" lon="-8.796950792893767">
        <ele>44.8984375</ele>
      </trkpt>
      <trkpt lat="42.14166465215385" lon="-8.796874098479748">
        <ele>45.1015625</ele>
      </trkpt>
      <trkpt lat="42.141679488122463" lon="-8.796798996627331">
        <ele>45.3046875</ele>
      </trkpt>
      <trkpt lat="42.141690719872713" lon="-8.796721464022994">
        <ele>45.5078125</ele>
      </trkpt>
      <trkpt lat="42.141709998250008" lon="-8.796647284179926">
        <ele>45.7265625</ele>
      </trkpt>
      <trkpt lat="42.141727181151509" lon="-8.796568661928177">
        <ele>45.953125</ele>
      </trkpt>
      <trkpt lat="42.141739754006267" lon="-8.796489704400301">
        <ele>46.16796875</ele>
      </trkpt>
      <trkpt lat="42.141754003241658" lon="-8.796417452394962">
        <ele>46.19140625</ele>
      </trkpt>
      <trkpt lat="42.141774790361524" lon="-8.7963498942554">
        <ele>46.2265625</ele>
      </trkpt>
      <trkpt lat="42.141813850030303" lon="-8.796300692483783">
        <ele>46.29296875</ele>
      </trkpt>
      <trkpt lat="42.141862884163857" lon="-8.796266242861748">
        <ele>46.37890625</ele>
      </trkpt>
      <trkpt lat="42.141920048743486" lon="-8.796245874837041">
        <ele>46.4765625</ele>
      </trkpt>
      <trkpt lat="42.14197738096118" lon="-8.796229949221015">
        <ele>46.55859375</ele>
      </trkpt>
      <trkpt lat="42.142031360417604" lon="-8.796217879280448">
        <ele>46.63671875</ele>
      </trkpt>
      <trkpt lat="42.142087435349822" lon="-8.796205893158913">
        <ele>46.71484375</ele>
      </trkpt>
      <trkpt lat="42.142146527767181" lon="-8.796191811561584">
        <ele>46.79296875</ele>
      </trkpt>
      <trkpt lat="42.142203776165843" lon="-8.79617596976459">
        <ele>46.86328125</ele>
      </trkpt>
      <trkpt lat="42.142258426174521" lon="-8.796156607568264">
        <ele>46.92578125</ele>
      </trkpt>
      <trkpt lat="42.142316428944468" lon="-8.796145878732204">
        <ele>47</ele>
      </trkpt>
      <trkpt lat="42.14237418025732" lon="-8.79612903110683">
        <ele>47.0625</ele>
      </trkpt>
      <trkpt lat="42.14242841117084" lon="-8.796111764386296">
        <ele>46.91015625</ele>
      </trkpt>
      <trkpt lat="42.142475517466664" lon="-8.796077566221356">
        <ele>46.73828125</ele>
      </trkpt>
      <trkpt lat="42.142506781965494" lon="-8.796012522652745">
        <ele>46.55078125</ele>
      </trkpt>
      <trkpt lat="42.142521869391203" lon="-8.795925853773952">
        <ele>46.26171875</ele>
      </trkpt>
      <trkpt lat="42.142525976523757" lon="-8.795853434130549">
        <ele>46.04296875</ele>
      </trkpt>
      <trkpt lat="42.142528239637613" lon="-8.79577917046845">
        <ele>45.82421875</ele>
      </trkpt>
      <trkpt lat="42.142538297921419" lon="-8.795707672834396">
        <ele>45.6015625</ele>
      </trkpt>
      <trkpt lat="42.142576854676008" lon="-8.795652939006686">
        <ele>45.38671875</ele>
      </trkpt>
      <trkpt lat="42.142621027305722" lon="-8.795604407787323">
        <ele>45.19140625</ele>
      </trkpt>
      <trkpt lat="42.142669809982181" lon="-8.795564929023385">
        <ele>45.0234375</ele>
      </trkpt>
      <trkpt lat="42.142727058380842" lon="-8.795532323420048">
        <ele>44.8125</ele>
      </trkpt>
      <trkpt lat="42.142785815522075" lon="-8.795513296499848">
        <ele>44.66015625</ele>
      </trkpt>
      <trkpt lat="42.142846835777164" lon="-8.795497622340918">
        <ele>44.515625</ele>
      </trkpt>
      <trkpt lat="42.142903665080667" lon="-8.795481445267797">
        <ele>44.31640625</ele>
      </trkpt>
      <trkpt lat="42.142960662022233" lon="-8.795463759452105">
        <ele>44.1171875</ele>
      </trkpt>
      <trkpt lat="42.143016653135419" lon="-8.795445486903191">
        <ele>43.921875</ele>
      </trkpt>
      <trkpt lat="42.14306996203959" lon="-8.79543224349618">
        <ele>43.7578125</ele>
      </trkpt>
      <trkpt lat="42.143683768808842" lon="-8.795190174132586">
        <ele>43.75</ele>
      </trkpt>
      <trkpt lat="42.144313165917993" lon="-8.794965371489525">
        <ele>45.140625</ele>
      </trkpt>
      <trkpt lat="42.144314087927341" lon="-8.794965371489525">
        <ele>45.140625</ele>
      </trkpt>
      <trkpt lat="42.144698984920979" lon="-8.794858502224088">
        <ele>45.703125</ele>
      </trkpt>
      <trkpt lat="42.144705103710294" lon="-8.794858502224088">
        <ele>45.71875</ele>
      </trkpt>
      <trkpt lat="42.144849440082908" lon="-8.79485028795898">
        <ele>46.1328125</ele>
      </trkpt>
      <trkpt lat="42.144854050129652" lon="-8.79485028795898">
        <ele>46.14453125</ele>
      </trkpt>
      <trkpt lat="42.145272893831134" lon="-8.794752554967999">
        <ele>47.359375</ele>
      </trkpt>
      <trkpt lat="42.145330309867859" lon="-8.794759679585695">
        <ele>47.6171875</ele>
      </trkpt>
      <trkpt lat="42.145391246303916" lon="-8.794771917164326">
        <ele>47.89453125</ele>
      </trkpt>
      <trkpt lat="42.14545059017837" lon="-8.794772000983357">
        <ele>48.14453125</ele>
      </trkpt>
      <trkpt lat="42.145505240187049" lon="-8.794755404815078">
        <ele>48.359375</ele>
      </trkpt>
      <trkpt lat="42.145559890195727" lon="-8.794729923829436">
        <ele>48.57421875</ele>
      </trkpt>
      <trkpt lat="42.145591238513589" lon="-8.794708717614412">
        <ele>48.6953125</ele>
      </trkpt>
      <trkpt lat="42.145884018391371" lon="-8.794563543051481">
        <ele>49.93359375</ele>
      </trkpt>
      <trkpt lat="42.145883180201054" lon="-8.794563626870513">
        <ele>49.9296875</ele>
      </trkpt>
      <trkpt lat="42.146241758018732" lon="-8.794536385685205">
        <ele>51.88671875</ele>
      </trkpt>
      <trkpt lat="42.147568697109818" lon="-8.794807037338614">
        <ele>59.2265625</ele>
      </trkpt>
      <trkpt lat="42.147833313792944" lon="-8.794882223010063">
        <ele>61.1953125</ele>
      </trkpt>
      <trkpt lat="42.14790053665638" lon="-8.794900663197041">
        <ele>61.6875</ele>
      </trkpt>
      <trkpt lat="42.147976225242019" lon="-8.794922456145287">
        <ele>62.2734375</ele>
      </trkpt>
      <trkpt lat="42.148030959069729" lon="-8.794926395639777">
        <ele>62.7578125</ele>
      </trkpt>
      <trkpt lat="42.148086279630661" lon="-8.794915080070496">
        <ele>63.30078125</ele>
      </trkpt>
      <trkpt lat="42.148138247430325" lon="-8.794891610741615">
        <ele>63.8671875</ele>
      </trkpt>
      <trkpt lat="42.148188706487417" lon="-8.794865543022752">
        <ele>64.43359375</ele>
      </trkpt>
      <trkpt lat="42.148236567154527" lon="-8.794830422848463">
        <ele>65.0234375</ele>
      </trkpt>
      <trkpt lat="42.148289876058698" lon="-8.794785998761654">
        <ele>65.71484375</ele>
      </trkpt>
      <trkpt lat="42.148334383964539" lon="-8.794741909950972">
        <ele>66.33203125</ele>
      </trkpt>
      <trkpt lat="42.148369336500764" lon="-8.794683823361993">
        <ele>66.9296875</ele>
      </trkpt>
      <trkpt lat="42.148380735889077" lon="-8.79461282864213">
        <ele>67.3828125</ele>
      </trkpt>
      <trkpt lat="42.148379562422633" lon="-8.794532027095556">
        <ele>67.796875</ele>
      </trkpt>
      <trkpt lat="42.148376712575555" lon="-8.794457511976361">
        <ele>68.15625</ele>
      </trkpt>
      <trkpt lat="42.148405630141497" lon="-8.794405879452825">
        <ele>68.765625</ele>
      </trkpt>
      <trkpt lat="42.148461621254683" lon="-8.794411160051823">
        <ele>69.49609375</ele>
      </trkpt>
      <trkpt lat="42.148514511063695" lon="-8.794444017112255">
        <ele>70.01953125</ele>
      </trkpt>
      <trkpt lat="42.14857243001461" lon="-8.794486848637462">
        <ele>70.53515625</ele>
      </trkpt>
      <trkpt lat="42.148622302338481" lon="-8.794522304087877">
        <ele>70.96875</ele>
      </trkpt>
      <trkpt lat="42.148672258481383" lon="-8.794566057622433">
        <ele>71.33984375</ele>
      </trkpt>
      <trkpt lat="42.148713916540146" lon="-8.794619701802731">
        <ele>71.515625</ele>
      </trkpt>
      <trkpt lat="42.148756831884384" lon="-8.794675441458821">
        <ele>71.69921875</ele>
      </trkpt>
      <trkpt lat="42.148801423609257" lon="-8.794733192771673">
        <ele>71.88671875</ele>
      </trkpt>
      <trkpt lat="42.148845680058002" lon="-8.794778874143958">
        <ele>72.12109375</ele>
      </trkpt>
      <trkpt lat="42.148892115801573" lon="-8.794819442555308">
        <ele>72.5</ele>
      </trkpt>
      <trkpt lat="42.148939808830619" lon="-8.794863866642118">
        <ele>72.8984375</ele>
      </trkpt>
      <trkpt lat="42.148992950096726" lon="-8.794923545792699">
        <ele>73.27734375</ele>
      </trkpt>
      <trkpt lat="42.14903611689806" lon="-8.79497392103076">
        <ele>73.5703125</ele>
      </trkpt>
      <trkpt lat="42.149083642289042" lon="-8.795013567432761">
        <ele>73.99609375</ele>
      </trkpt>
      <trkpt lat="42.149132173508406" lon="-8.795053549110889">
        <ele>74.4375</ele>
      </trkpt>
      <trkpt lat="42.149175843223929" lon="-8.795097135007381">
        <ele>74.78515625</ele>
      </trkpt>
      <trkpt lat="42.14921741746366" lon="-8.795149521902204">
        <ele>75.20703125</ele>
      </trkpt>
      <trkpt lat="42.149259326979518" lon="-8.79520894959569">
        <ele>75.65234375</ele>
      </trkpt>
      <trkpt lat="42.149295788258314" lon="-8.795258989557624">
        <ele>76.05859375</ele>
      </trkpt>
      <trkpt lat="42.149350270628929" lon="-8.795301653444767">
        <ele>76.98828125</ele>
      </trkpt>
      <trkpt lat="42.149406680837274" lon="-8.795342640951276">
        <ele>78.15234375</ele>
      </trkpt>
      <trkpt lat="42.149455798789859" lon="-8.795371223241091">
        <ele>79.203125</ele>
      </trkpt>
      <trkpt lat="42.149509778246284" lon="-8.795393938198686">
        <ele>80.38671875</ele>
      </trkpt>
      <trkpt lat="42.149565350264311" lon="-8.795423191040754">
        <ele>81.61328125</ele>
      </trkpt>
      <trkpt lat="42.149620587006211" lon="-8.79546501673758">
        <ele>82.83984375</ele>
      </trkpt>
      <trkpt lat="42.149670794606209" lon="-8.795503238216043">
        <ele>83.98046875</ele>
      </trkpt>
      <trkpt lat="42.149713458493352" lon="-8.79555394873023">
        <ele>84.95703125</ele>
      </trkpt>
      <trkpt lat="42.149744722992182" lon="-8.795632654801011">
        <ele>85.546875</ele>
      </trkpt>
      <trkpt lat="42.149763498455286" lon="-8.795704068616033">
        <ele>85.8515625</ele>
      </trkpt>
      <trkpt lat="42.14977297000587" lon="-8.79577917046845">
        <ele>85.93359375</ele>
      </trkpt>
      <trkpt lat="42.149775652214885" lon="-8.795860642567277">
        <ele>85.8359375</ele>
      </trkpt>
      <trkpt lat="42.149769281968474" lon="-8.795940103009343">
        <ele>85.51171875</ele>
      </trkpt>
      <trkpt lat="42.149750590324402" lon="-8.79601470194757">
        <ele>84.8671875</ele>
      </trkpt>
      <trkpt lat="42.149724941700697" lon="-8.796082176268101">
        <ele>83.86328125</ele>
      </trkpt>
      <trkpt lat="42.149693258106709" lon="-8.796148141846061">
        <ele>82.640625</ele>
      </trkpt>
      <trkpt lat="42.149676661938429" lon="-8.796219639480114">
        <ele>81.76953125</ele>
      </trkpt>
      <trkpt lat="42.14968940243125" lon="-8.796311086043715">
        <ele>81.58984375</ele>
      </trkpt>
      <trkpt lat="42.149705244228244" lon="-8.79638115875423">
        <ele>81.6328125</ele>
      </trkpt>
      <trkpt lat="42.149725360795856" lon="-8.796456847339869">
        <ele>81.78125</ele>
      </trkpt>
      <trkpt lat="42.14975100941956" lon="-8.796532619744539">
        <ele>82.171875</ele>
      </trkpt>
      <trkpt lat="42.149778166785836" lon="-8.79662062972784">
        <ele>82.60546875</ele>
      </trkpt>
      <trkpt lat="42.149794176220894" lon="-8.796715261414647">
        <ele>82.65234375</ele>
      </trkpt>
      <trkpt lat="42.149805324152112" lon="-8.796794638037682">
        <ele>82.62109375</ele>
      </trkpt>
      <trkpt lat="42.149812784045935" lon="-8.796867644414306">
        <ele>82.515625</ele>
      </trkpt>
      <trkpt lat="42.149814963340759" lon="-8.796943249180913">
        <ele>82.265625</ele>
      </trkpt>
      <trkpt lat="42.149816136807203" lon="-8.797019608318806">
        <ele>81.94140625</ele>
      </trkpt>
      <trkpt lat="42.149810185655951" lon="-8.797100158408284">
        <ele>81.41796875</ele>
      </trkpt>
      <trkpt lat="42.149803228676319" lon="-8.797177104279399">
        <ele>80.88671875</ele>
      </trkpt>
      <trkpt lat="42.14979006908834" lon="-8.797254301607609">
        <ele>80.20703125</ele>
      </trkpt>
      <trkpt lat="42.149769952520728" lon="-8.797323452308774">
        <ele>79.4453125</ele>
      </trkpt>
      <trkpt lat="42.149743968620896" lon="-8.797389669343829">
        <ele>78.64453125</ele>
      </trkpt>
      <trkpt lat="42.149704741314054" lon="-8.797449264675379">
        <ele>77.97265625</ele>
      </trkpt>
      <trkpt lat="42.149653863161802" lon="-8.79751087166369">
        <ele>77.37890625</ele>
      </trkpt>
      <trkpt lat="42.149608097970486" lon="-8.797557139769197">
        <ele>76.796875</ele>
      </trkpt>
      <trkpt lat="42.149561829864979" lon="-8.797602653503418">
        <ele>76.20703125</ele>
      </trkpt>
      <trkpt lat="42.149515310302377" lon="-8.797649592161179">
        <ele>75.625</ele>
      </trkpt>
      <trkpt lat="42.149466192349792" lon="-8.797703990712762">
        <ele>75.05078125</ele>
      </trkpt>
      <trkpt lat="42.149420930072665" lon="-8.797754449769855">
        <ele>74.53125</ele>
      </trkpt>
      <trkpt lat="42.14937960729003" lon="-8.797809015959501">
        <ele>74.1171875</ele>
      </trkpt>
      <trkpt lat="42.149348510429263" lon="-8.797874478623271">
        <ele>73.96875</ele>
      </trkpt>
      <trkpt lat="42.149325963109732" lon="-8.797940025106072">
        <ele>74.0234375</ele>
      </trkpt>
      <trkpt lat="42.149304421618581" lon="-8.798018982633948">
        <ele>74.30078125</ele>
      </trkpt>
      <trkpt lat="42.149287993088365" lon="-8.798094252124429">
        <ele>74.65625</ele>
      </trkpt>
      <trkpt lat="42.149270977824926" lon="-8.79817295819521">
        <ele>75.015625</ele>
      </trkpt>
      <trkpt lat="42.149257650598884" lon="-8.798251328989863">
        <ele>75.40234375</ele>
      </trkpt>
      <trkpt lat="42.149247089400887" lon="-8.798325844109058">
        <ele>75.79296875</ele>
      </trkpt>
      <trkpt lat="42.149241724982858" lon="-8.798399353399873">
        <ele>75.97265625</ele>
      </trkpt>
      <trkpt lat="42.149246083572507" lon="-8.798474371433258">
        <ele>76.203125</ele>
      </trkpt>
      <trkpt lat="42.149270391091704" lon="-8.798545449972153">
        <ele>76.6953125</ele>
      </trkpt>
      <trkpt lat="42.149315821006894" lon="-8.798601189628243">
        <ele>77.44921875</ele>
      </trkpt>
      <trkpt lat="42.149363430216908" lon="-8.798637147992849">
        <ele>78.484375</ele>
      </trkpt>
      <trkpt lat="42.14941481128335" lon="-8.798659443855286">
        <ele>79.5859375</ele>
      </trkpt>
      <trkpt lat="42.149469880387187" lon="-8.798674028366804">
        <ele>80.73828125</ele>
      </trkpt>
      <trkpt lat="42.149536516517401" lon="-8.798687690868974">
        <ele>82.12890625</ele>
      </trkpt>
      <trkpt lat="42.149600805714726" lon="-8.798696994781494">
        <ele>83.45703125</ele>
      </trkpt>
      <trkpt lat="42.149662915617228" lon="-8.79870068281889">
        <ele>84.7265625</ele>
      </trkpt>
      <trkpt lat="42.149735502898693" lon="-8.798705879598856">
        <ele>86.21484375</ele>
      </trkpt>
      <trkpt lat="42.14979543350637" lon="-8.798707639798522">
        <ele>87.4765625</ele>
      </trkpt>
      <trkpt lat="42.149854190647602" lon="-8.798714261502028">
        <ele>88.8515625</ele>
      </trkpt>
      <trkpt lat="42.149913366883993" lon="-8.798720464110374">
        <ele>90.23828125</ele>
      </trkpt>
      <trkpt lat="42.149969441816211" lon="-8.798735719174147">
        <ele>91.58203125</ele>
      </trkpt>
      <trkpt lat="42.150021241977811" lon="-8.798766313120723">
        <ele>92.875</ele>
      </trkpt>
      <trkpt lat="42.15007103048265" lon="-8.798817358911037">
        <ele>94.16796875</ele>
      </trkpt>
      <trkpt lat="42.15012039989233" lon="-8.798885168507695">
        <ele>95.3828125</ele>
      </trkpt>
      <trkpt lat="42.150159291923046" lon="-8.798945182934403">
        <ele>96.35546875</ele>
      </trkpt>
      <trkpt lat="42.15019759722054" lon="-8.799009891226888">
        <ele>97.328125</ele>
      </trkpt>
      <trkpt lat="42.150237746536732" lon="-8.799077533185482">
        <ele>98.3515625</ele>
      </trkpt>
      <trkpt lat="42.150265825912356" lon="-8.799157245084643">
        <ele>99.18359375</ele>
      </trkpt>
      <trkpt lat="42.15028116479516" lon="-8.799176523461938">
        <ele>99.61328125</ele>
      </trkpt>
      <trkpt lat="42.150347465649247" lon="-8.79928414709866">
        <ele>101.359375</ele>
      </trkpt>
      <trkpt lat="42.150385687127709" lon="-8.799356147646904">
        <ele>101.84375</ele>
      </trkpt>
      <trkpt lat="42.150422651320696" lon="-8.799436446279287">
        <ele>102.2578125</ele>
      </trkpt>
      <trkpt lat="42.150456178933382" lon="-8.799512134864926">
        <ele>102.63671875</ele>
      </trkpt>
      <trkpt lat="42.1504863537848" lon="-8.799573741853237">
        <ele>103.0390625</ele>
      </trkpt>
      <trkpt lat="42.150511667132378" lon="-8.799641467630863">
        <ele>103.28125</ele>
      </trkpt>
      <trkpt lat="42.150537399575114" lon="-8.799713216722012">
        <ele>103.5234375</ele>
      </trkpt>
      <trkpt lat="42.150576878339052" lon="-8.799772895872593">
        <ele>104.1640625</ele>
      </trkpt>
      <trkpt lat="42.15062515810132" lon="-8.799827881157398">
        <ele>105.05859375</ele>
      </trkpt>
      <trkpt lat="42.150674359872937" lon="-8.799873813986778">
        <ele>106.05859375</ele>
      </trkpt>
      <trkpt lat="42.150721214711666" lon="-8.799920668825507">
        <ele>106.91015625</ele>
      </trkpt>
      <trkpt lat="42.15077075175941" lon="-8.799962494522333">
        <ele>107.6953125</ele>
      </trkpt>
      <trkpt lat="42.150819702073932" lon="-8.799998871982098">
        <ele>108.51171875</ele>
      </trkpt>
      <trkpt lat="42.150868149474263" lon="-8.800030974671245">
        <ele>109.3515625</ele>
      </trkpt>
      <trkpt lat="42.15092615224421" lon="-8.800046900287271">
        <ele>110.5546875</ele>
      </trkpt>
      <trkpt lat="42.150983987376094" lon="-8.80006399936974">
        <ele>111.7421875</ele>
      </trkpt>
      <trkpt lat="42.151037799194455" lon="-8.800079757347703">
        <ele>112.84765625</ele>
      </trkpt>
      <trkpt lat="42.151104435324669" lon="-8.800102137029171">
        <ele>114.19140625</ele>
      </trkpt>
      <trkpt lat="42.151175430044532" lon="-8.800130719318986">
        <ele>115.5703125</ele>
      </trkpt>
      <trkpt lat="42.151232343167067" lon="-8.800155026838183">
        <ele>116.53125</ele>
      </trkpt>
      <trkpt lat="42.151299985125661" lon="-8.800187632441521">
        <ele>117.625</ele>
      </trkpt>
      <trkpt lat="42.151354802772403" lon="-8.800213951617479">
        <ele>118.42578125</ele>
      </trkpt>
      <trkpt lat="42.151411045342684" lon="-8.800253346562386">
        <ele>119.05078125</ele>
      </trkpt>
      <trkpt lat="42.151460163295269" lon="-8.800298357382417">
        <ele>119.4453125</ele>
      </trkpt>
      <trkpt lat="42.151507772505283" lon="-8.800336075946689">
        <ele>119.89453125</ele>
      </trkpt>
      <trkpt lat="42.151557477191091" lon="-8.80037278868258">
        <ele>120.390625</ele>
      </trkpt>
      <trkpt lat="42.151612546294928" lon="-8.80040698684752">
        <ele>121.015625</ele>
      </trkpt>
      <trkpt lat="42.151669291779399" lon="-8.800438586622477">
        <ele>121.6875</ele>
      </trkpt>
      <trkpt lat="42.151724277064204" lon="-8.800467168912292">
        <ele>122.359375</ele>
      </trkpt>
      <trkpt lat="42.151775574311614" lon="-8.800493655726314">
        <ele>122.98046875</ele>
      </trkpt>
      <trkpt lat="42.151832990348339" lon="-8.800521651282907">
        <ele>123.6953125</ele>
      </trkpt>
      <trkpt lat="42.151884958148003" lon="-8.80054428242147">
        <ele>124.375</ele>
      </trkpt>
      <trkpt lat="42.151939272880554" lon="-8.800565656274557">
        <ele>125.1171875</ele>
      </trkpt>
      <trkpt lat="42.151994844898582" lon="-8.800593484193087">
        <ele>125.78515625</ele>
      </trkpt>
      <trkpt lat="42.152044549584389" lon="-8.80062491632998">
        <ele>126.28515625</ele>
      </trkpt>
      <trkpt lat="42.152092577889562" lon="-8.800658024847507">
        <ele>126.7265625</ele>
      </trkpt>
      <trkpt lat="42.152145467698574" lon="-8.800690714269876">
        <ele>127.3125</ele>
      </trkpt>
      <trkpt lat="42.152194837108254" lon="-8.800727678462863">
        <ele>127.76171875</ele>
      </trkpt>
      <trkpt lat="42.152240350842476" lon="-8.800767241045833">
        <ele>128.08984375</ele>
      </trkpt>
      <trkpt lat="42.152297683060169" lon="-8.800809653475881">
        <ele>128.59375</ele>
      </trkpt>
      <trkpt lat="42.152352500706911" lon="-8.800845108926296">
        <ele>129.13671875</ele>
      </trkpt>
      <trkpt lat="42.152402121573687" lon="-8.800875032320619">
        <ele>129.65234375</ele>
      </trkpt>
      <trkpt lat="42.152456771582365" lon="-8.800901770591736">
        <ele>130.30078125</ele>
      </trkpt>
      <trkpt lat="42.152507314458489" lon="-8.800941500812769">
        <ele>130.66796875</ele>
      </trkpt>
      <trkpt lat="42.152555678039789" lon="-8.800978129729629">
        <ele>131.02734375</ele>
      </trkpt>
      <trkpt lat="42.152612172067165" lon="-8.801010902971029">
        <ele>131.80078125</ele>
      </trkpt>
      <trkpt lat="42.152668414637446" lon="-8.801032193005085">
        <ele>132.7421875</ele>
      </trkpt>
      <trkpt lat="42.152723148465157" lon="-8.801053399220109">
        <ele>133.6484375</ele>
      </trkpt>
      <trkpt lat="42.152773942798376" lon="-8.801081730052829">
        <ele>134.3515625</ele>
      </trkpt>
      <trkpt lat="42.152830520644784" lon="-8.801109390333295">
        <ele>135.19140625</ele>
      </trkpt>
      <trkpt lat="42.152845021337271" lon="-8.801119700074196">
        <ele>135.35546875</ele>
      </trkpt>
      <trkpt lat="42.152958093211055" lon="-8.801177702844143">
        <ele>136.765625</ele>
      </trkpt>
      <trkpt lat="42.153009306639433" lon="-8.801200333982706">
        <ele>137.4453125</ele>
      </trkpt>
      <trkpt lat="42.153061693534255" lon="-8.801224306225777">
        <ele>138.01171875</ele>
      </trkpt>
      <trkpt lat="42.153117265552282" lon="-8.801241824403405">
        <ele>138.73046875</ele>
      </trkpt>
      <trkpt lat="42.153173089027405" lon="-8.801260851323605">
        <ele>139.4140625</ele>
      </trkpt>
      <trkpt lat="42.153232265263796" lon="-8.801284236833453">
        <ele>140.06640625</ele>
      </trkpt>
      <trkpt lat="42.153283059597015" lon="-8.801314076408744">
        <ele>140.41015625</ele>
      </trkpt>
      <trkpt lat="42.153338296338916" lon="-8.80135053768754">
        <ele>140.6875</ele>
      </trkpt>
      <trkpt lat="42.153391353785992" lon="-8.801383310928941">
        <ele>140.984375</ele>
      </trkpt>
      <trkpt lat="42.153441226109862" lon="-8.80141893401742">
        <ele>141.14453125</ele>
      </trkpt>
      <trkpt lat="42.153492104262114" lon="-8.801458831876516">
        <ele>141.19140625</ele>
      </trkpt>
      <trkpt lat="42.153545077890158" lon="-8.801501076668501">
        <ele>141.125</ele>
      </trkpt>
      <trkpt lat="42.153605092316866" lon="-8.80152890458703">
        <ele>141.5</ele>
      </trkpt>
      <trkpt lat="42.15365756303072" lon="-8.801547596231103">
        <ele>141.9609375</ele>
      </trkpt>
      <trkpt lat="42.153714811429381" lon="-8.801565282046795">
        <ele>142.53125</ele>
      </trkpt>
      <trkpt lat="42.15377239510417" lon="-8.801582213491201">
        <ele>143.1328125</ele>
      </trkpt>
      <trkpt lat="42.153825704008341" lon="-8.801598306745291">
        <ele>143.6953125</ele>
      </trkpt>
      <trkpt lat="42.153884880244732" lon="-8.801620015874505">
        <ele>144.23046875</ele>
      </trkpt>
      <trkpt lat="42.153942044824362" lon="-8.801640635356307">
        <ele>144.734375</ele>
      </trkpt>
      <trkpt lat="42.153999377042055" lon="-8.8016651943326">
        <ele>144.43359375</ele>
      </trkpt>
      <trkpt lat="42.154062995687127" lon="-8.801684891805053">
        <ele>144.19921875</ele>
      </trkpt>
      <trkpt lat="42.15412569232285" lon="-8.801695872098207">
        <ele>144.140625</ele>
      </trkpt>
      <trkpt lat="42.15417992323637" lon="-8.801703583449125">
        <ele>144.125</ele>
      </trkpt>
      <trkpt lat="42.15423415414989" lon="-8.801705008372664">
        <ele>144.23828125</ele>
      </trkpt>
      <trkpt lat="42.154299532994628" lon="-8.801710959523916">
        <ele>144.2890625</ele>
      </trkpt>
      <trkpt lat="42.15435535646975" lon="-8.801713977009058">
        <ele>144.375</ele>
      </trkpt>
      <trkpt lat="42.154412856325507" lon="-8.801725711673498">
        <ele>144.234375</ele>
      </trkpt>
      <trkpt lat="42.154473708942533" lon="-8.801742978394032">
        <ele>143.39453125</ele>
      </trkpt>
      <trkpt lat="42.154534561559558" lon="-8.801769465208054">
        <ele>142.3828125</ele>
      </trkpt>
      <trkpt lat="42.154587032273412" lon="-8.801792096346617">
        <ele>141.5390625</ele>
      </trkpt>
      <trkpt lat="42.154638664796948" lon="-8.801824115216732">
        <ele>140.5390625</ele>
      </trkpt>
      <trkpt lat="42.154688201844692" lon="-8.801862336695194">
        <ele>139.4609375</ele>
      </trkpt>
      <trkpt lat="42.154737152159214" lon="-8.801901983097196">
        <ele>138.390625</ele>
      </trkpt>
      <trkpt lat="42.154792053624988" lon="-8.801933750510216">
        <ele>137.44921875</ele>
      </trkpt>
      <trkpt lat="42.154846116900444" lon="-8.801951101049781">
        <ele>136.78515625</ele>
      </trkpt>
      <trkpt lat="42.154908310621977" lon="-8.80196132697165">
        <ele>136.26953125</ele>
      </trkpt>
      <trkpt lat="42.154962541535497" lon="-8.801962919533253">
        <ele>135.984375</ele>
      </trkpt>
      <trkpt lat="42.155021214857697" lon="-8.801965853199363">
        <ele>135.66015625</ele>
      </trkpt>
      <trkpt lat="42.15507754124701" lon="-8.801960488781333">
        <ele>135.484375</ele>
      </trkpt>
      <trkpt lat="42.155131688341498" lon="-8.801947664469481">
        <ele>135.44140625</ele>
      </trkpt>
      <trkpt lat="42.155182901769876" lon="-8.801924781873822">
        <ele>135.58203125</ele>
      </trkpt>
      <trkpt lat="42.15522900223732" lon="-8.801885303109884">
        <ele>136.015625</ele>
      </trkpt>
      <trkpt lat="42.155271833762527" lon="-8.801841968670487">
        <ele>136.52734375</ele>
      </trkpt>
      <trkpt lat="42.155318772420287" lon="-8.801796622574329">
        <ele>137.046875</ele>
      </trkpt>
      <trkpt lat="42.155365962535143" lon="-8.801748426631093">
        <ele>137.66015625</ele>
      </trkpt>
      <trkpt lat="42.155411643907428" lon="-8.801708864048123">
        <ele>138.16015625</ele>
      </trkpt>
      <trkpt lat="42.155460258945823" lon="-8.80167793482542">
        <ele>138.5078125</ele>
      </trkpt>
      <trkpt lat="42.155507868155837" lon="-8.801641725003719">
        <ele>138.94921875</ele>
      </trkpt>
      <trkpt lat="42.155556567013264" lon="-8.801606521010399">
        <ele>139.3671875</ele>
      </trkpt>
      <trkpt lat="42.155606439337134" lon="-8.801573161035776">
        <ele>139.79296875</ele>
      </trkpt>
      <trkpt lat="42.155657485127449" lon="-8.801539381965995">
        <ele>140.35546875</ele>
      </trkpt>
      <trkpt lat="42.155705345794559" lon="-8.801506692543626">
        <ele>140.90625</ele>
      </trkpt>
      <trkpt lat="42.155709788203239" lon="-8.801504597067833">
        <ele>140.9375</ele>
      </trkpt>
      <trkpt lat="42.156097451224923" lon="-8.801197065040469">
        <ele>147.91015625</ele>
      </trkpt>
      <trkpt lat="42.156143886968493" lon="-8.801156664267182">
        <ele>148.77734375</ele>
      </trkpt>
      <trkpt lat="42.156194010749459" lon="-8.801119783893228">
        <ele>149.55078125</ele>
      </trkpt>
      <trkpt lat="42.156249415129423" lon="-8.801085921004415">
        <ele>150.18359375</ele>
      </trkpt>
      <trkpt lat="42.156300880014896" lon="-8.801057673990726">
        <ele>150.765625</ele>
      </trkpt>
      <trkpt lat="42.156362570822239" lon="-8.801041161641479">
        <ele>151.1875</ele>
      </trkpt>
      <trkpt lat="42.15641688555479" lon="-8.801033869385719">
        <ele>151.43359375</ele>
      </trkpt>
      <trkpt lat="42.156471451744437" lon="-8.801028337329626">
        <ele>151.65234375</ele>
      </trkpt>
      <trkpt lat="42.156531969085336" lon="-8.801028337329626">
        <ele>151.796875</ele>
      </trkpt>
      <trkpt lat="42.156591145321727" lon="-8.80103294737637">
        <ele>151.8671875</ele>
      </trkpt>
      <trkpt lat="42.156648645177484" lon="-8.801036048680544">
        <ele>151.95703125</ele>
      </trkpt>
      <trkpt lat="42.156714778393507" lon="-8.801040826365352">
        <ele>152.04296875</ele>
      </trkpt>
      <trkpt lat="42.15677110478282" lon="-8.801046861335635">
        <ele>152.30078125</ele>
      </trkpt>
      <trkpt lat="42.156829107552767" lon="-8.801052561029792">
        <ele>152.609375</ele>
      </trkpt>
      <trkpt lat="42.156886691227555" lon="-8.801052561029792">
        <ele>153</ele>
      </trkpt>
      <trkpt lat="42.156954584643245" lon="-8.801050968468189">
        <ele>153.48046875</ele>
      </trkpt>
      <trkpt lat="42.157013341784477" lon="-8.801047699525952">
        <ele>153.921875</ele>
      </trkpt>
      <trkpt lat="42.157073859125376" lon="-8.801044514402747">
        <ele>154.3671875</ele>
      </trkpt>
      <trkpt lat="42.15713320299983" lon="-8.801039988175035">
        <ele>154.8203125</ele>
      </trkpt>
      <trkpt lat="42.157191960141063" lon="-8.801034120842814">
        <ele>155.265625</ele>
      </trkpt>
      <trkpt lat="42.157256165519357" lon="-8.801027918234468">
        <ele>155.609375</ele>
      </trkpt>
      <trkpt lat="42.157319784164429" lon="-8.801022050902247">
        <ele>155.9453125</ele>
      </trkpt>
      <trkpt lat="42.157374266535044" lon="-8.80101484246552">
        <ele>156.25390625</ele>
      </trkpt>
      <trkpt lat="42.157430509105325" lon="-8.801013585180044">
        <ele>156.5</ele>
      </trkpt>
      <trkpt lat="42.157486248761415" lon="-8.801017692312598">
        <ele>156.6875</ele>
      </trkpt>
      <trkpt lat="42.157538887113333" lon="-8.801037222146988">
        <ele>156.70703125</ele>
      </trkpt>
      <trkpt lat="42.157584736123681" lon="-8.801091453060508">
        <ele>156.3515625</ele>
      </trkpt>
      <trkpt lat="42.157622119411826" lon="-8.801151467487216">
        <ele>155.94140625</ele>
      </trkpt>
      <trkpt lat="42.157652210444212" lon="-8.801214918494225">
        <ele>155.46875</ele>
      </trkpt>
      <trkpt lat="42.157687246799469" lon="-8.801286835223436">
        <ele>154.73828125</ele>
      </trkpt>
      <trkpt lat="42.157721109688282" lon="-8.801349783316255">
        <ele>154.0859375</ele>
      </trkpt>
      <trkpt lat="42.157754804939032" lon="-8.801420358940959">
        <ele>153.34765625</ele>
      </trkpt>
      <trkpt lat="42.157787661999464" lon="-8.801484229043126">
        <ele>152.66015625</ele>
      </trkpt>
      <trkpt lat="42.157826134935021" lon="-8.801537118852139">
        <ele>152.0546875</ele>
      </trkpt>
      <trkpt lat="42.157884556800127" lon="-8.801563354209065">
        <ele>151.6484375</ele>
      </trkpt>
      <trkpt lat="42.157937781885266" lon="-8.801581626757979">
        <ele>151.328125</ele>
      </trkpt>
      <trkpt lat="42.157991928979754" lon="-8.80159336142242">
        <ele>151.09765625</ele>
      </trkpt>
      <trkpt lat="42.158049093559384" lon="-8.801599144935608">
        <ele>150.8984375</ele>
      </trkpt>
      <trkpt lat="42.158108185976744" lon="-8.801597636193037">
        <ele>150.75390625</ele>
      </trkpt>
      <trkpt lat="42.158165099099278" lon="-8.801597636193037">
        <ele>150.2734375</ele>
      </trkpt>
      <trkpt lat="42.158229555934668" lon="-8.801592690870166">
        <ele>149.76171875</ele>
      </trkpt>
      <trkpt lat="42.15829024091363" lon="-8.801587913185358">
        <ele>149.27734375</ele>
      </trkpt>
      <trkpt lat="42.158345226198435" lon="-8.801584728062153">
        <ele>148.83203125</ele>
      </trkpt>
      <trkpt lat="42.158405994996428" lon="-8.80158313550055">
        <ele>148.32421875</ele>
      </trkpt>
      <trkpt lat="42.158465087413788" lon="-8.80158313550055">
        <ele>147.81640625</ele>
      </trkpt>
      <trkpt lat="42.158536920323968" lon="-8.801581626757979">
        <ele>147.21484375</ele>
      </trkpt>
      <trkpt lat="42.15860296972096" lon="-8.801583219319582">
        <ele>146.53515625</ele>
      </trkpt>
      <trkpt lat="42.158660553395748" lon="-8.801584644243121">
        <ele>145.83984375</ele>
      </trkpt>
      <trkpt lat="42.158726183697581" lon="-8.8015909306705">
        <ele>145.01171875</ele>
      </trkpt>
      <trkpt lat="42.15878376737237" lon="-8.801592355594039">
        <ele>144.3125</ele>
      </trkpt>
      <trkpt lat="42.158844619989395" lon="-8.801592271775007">
        <ele>143.58984375</ele>
      </trkpt>
      <trkpt lat="42.15889859944582" lon="-8.801589589565992">
        <ele>142.97265625</ele>
      </trkpt>
      <trkpt lat="42.158953920006752" lon="-8.801578441634774">
        <ele>142.41796875</ele>
      </trkpt>
      <trkpt lat="42.159005552530289" lon="-8.801546841859818">
        <ele>142.078125</ele>
      </trkpt>
      <trkpt lat="42.159056011587381" lon="-8.801507279276848">
        <ele>141.8203125</ele>
      </trkpt>
      <trkpt lat="42.159102782607079" lon="-8.801462352275848">
        <ele>141.6796875</ele>
      </trkpt>
      <trkpt lat="42.159142596647143" lon="-8.801407115533948">
        <ele>141.7265625</ele>
      </trkpt>
      <trkpt lat="42.159178135916591" lon="-8.801355985924602">
        <ele>141.80078125</ele>
      </trkpt>
      <trkpt lat="42.159295566380024" lon="-8.801193377003074">
        <ele>142.09375</ele>
      </trkpt>
      <trkpt lat="42.159339906647801" lon="-8.801141995936632">
        <ele>142.1484375</ele>
      </trkpt>
      <trkpt lat="42.159375781193376" lon="-8.801087345927954">
        <ele>142.28125</ele>
      </trkpt>
      <trkpt lat="42.159411907196045" lon="-8.80103001371026">
        <ele>142.40625</ele>
      </trkpt>
      <trkpt lat="42.159453732892871" lon="-8.800973184406757">
        <ele>142.48046875</ele>
      </trkpt>
      <trkpt lat="42.159494385123253" lon="-8.800923563539982">
        <ele>142.51953125</ele>
      </trkpt>
      <trkpt lat="42.15953528881073" lon="-8.800869751721621">
        <ele>142.70703125</ele>
      </trkpt>
      <trkpt lat="42.159566720947623" lon="-8.800808312371373">
        <ele>143.0546875</ele>
      </trkpt>
      <trkpt lat="42.159572504460812" lon="-8.800727762281895">
        <ele>143.7421875</ele>
      </trkpt>
      <trkpt lat="42.159577449783683" lon="-8.800651067867875">
        <ele>144.38671875</ele>
      </trkpt>
      <trkpt lat="42.159584406763315" lon="-8.800581162795424">
        <ele>144.74609375</ele>
      </trkpt>
      <trkpt lat="42.159619526937604" lon="-8.800522908568382">
        <ele>144.90625</ele>
      </trkpt>
      <trkpt lat="42.159672668203712" lon="-8.800470856949687">
        <ele>144.97265625</ele>
      </trkpt>
      <trkpt lat="42.159719271585345" lon="-8.800433306023479">
        <ele>144.99609375</ele>
      </trkpt>
      <trkpt lat="42.159768976271152" lon="-8.800401538610458">
        <ele>144.984375</ele>
      </trkpt>
      <trkpt lat="42.159821195527911" lon="-8.800368010997772">
        <ele>144.9921875</ele>
      </trkpt>
      <trkpt lat="42.159877689555287" lon="-8.800337081775069">
        <ele>144.9765625</ele>
      </trkpt>
      <trkpt lat="42.159931417554617" lon="-8.80030975677073">
        <ele>144.9609375</ele>
      </trkpt>
      <trkpt lat="42.159983888268471" lon="-8.800280755385756">
        <ele>144.98828125</ele>
      </trkpt>
      <trkpt lat="42.160038370639086" lon="-8.800250329077244">
        <ele>145.05078125</ele>
      </trkpt>
      <trkpt lat="42.16009964235127" lon="-8.800219064578414">
        <ele>145.12109375</ele>
      </trkpt>
      <trkpt lat="42.160152615979314" lon="-8.800184866413474">
        <ele>145.29296875</ele>
      </trkpt>
      <trkpt lat="42.160211876034737" lon="-8.80014706403017">
        <ele>145.6171875</ele>
      </trkpt>
      <trkpt lat="42.160261077806354" lon="-8.800112446770072">
        <ele>145.94921875</ele>
      </trkpt>
      <trkpt lat="42.160316649824381" lon="-8.800073722377419">
        <ele>146.33984375</ele>
      </trkpt>
      <trkpt lat="42.160380017012358" lon="-8.800044301897287">
        <ele>146.6171875</ele>
      </trkpt>
      <trkpt lat="42.160432571545243" lon="-8.80002879537642">
        <ele>146.75</ele>
      </trkpt>
      <trkpt lat="42.160491663962603" lon="-8.800018150359392">
        <ele>146.86328125</ele>
      </trkpt>
      <trkpt lat="42.160552265122533" lon="-8.800009936094284">
        <ele>146.9453125</ele>
      </trkpt>
      <trkpt lat="42.160606076940894" lon="-8.800006583333015">
        <ele>146.96484375</ele>
      </trkpt>
      <trkpt lat="42.160670617595315" lon="-8.800006583333015">
        <ele>146.93359375</ele>
      </trkpt>
      <trkpt lat="42.160734906792641" lon="-8.800006583333015">
        <ele>146.8984375</ele>
      </trkpt>
      <trkpt lat="42.160792322829366" lon="-8.800009600818157">
        <ele>146.82421875</ele>
      </trkpt>
      <trkpt lat="42.160849822685122" lon="-8.800014210864902">
        <ele>146.72265625</ele>
      </trkpt>
      <trkpt lat="42.160905562341213" lon="-8.800026532262564">
        <ele>146.6640625</ele>
      </trkpt>
      <trkpt lat="42.160970689728856" lon="-8.800042541697621">
        <ele>146.921875</ele>
      </trkpt>
      <trkpt lat="42.161024753004313" lon="-8.800055533647537">
        <ele>147.13671875</ele>
      </trkpt>
      <trkpt lat="42.161078900098801" lon="-8.800071543082595">
        <ele>147.29296875</ele>
      </trkpt>
      <trkpt lat="42.16113455593586" lon="-8.800091911107302">
        <ele>147.3828125</ele>
      </trkpt>
      <trkpt lat="42.161188703030348" lon="-8.800112195312977">
        <ele>147.453125</ele>
      </trkpt>
      <trkpt lat="42.161244610324502" lon="-8.800135497003794">
        <ele>147.47265625</ele>
      </trkpt>
      <trkpt lat="42.161295991390944" lon="-8.800158044323325">
        <ele>147.4609375</ele>
      </trkpt>
      <trkpt lat="42.161311665549874" lon="-8.800167683511972">
        <ele>147.40625</ele>
      </trkpt>
      <trkpt lat="42.161486679688096" lon="-8.800304224714637">
        <ele>145.96484375</ele>
      </trkpt>
      <trkpt lat="42.161537893116474" lon="-8.800346637144685">
        <ele>145.4453125</ele>
      </trkpt>
      <trkpt lat="42.161587933078408" lon="-8.800383768975735">
        <ele>144.99609375</ele>
      </trkpt>
      <trkpt lat="42.161643505096436" lon="-8.800410674884915">
        <ele>144.73046875</ele>
      </trkpt>
      <trkpt lat="42.161700082942843" lon="-8.800430791452527">
        <ele>144.57421875</ele>
      </trkpt>
      <trkpt lat="42.161760851740837" lon="-8.800443448126316">
        <ele>144.5625</ele>
      </trkpt>
      <trkpt lat="42.161819692701101" lon="-8.800447890534997">
        <ele>144.6484375</ele>
      </trkpt>
      <trkpt lat="42.161882137879729" lon="-8.8004494830966">
        <ele>144.53125</ele>
      </trkpt>
      <trkpt lat="42.161944834515452" lon="-8.800446297973394">
        <ele>144.50390625</ele>
      </trkpt>
      <trkpt lat="42.162001747637987" lon="-8.800441604107618">
        <ele>144.515625</ele>
      </trkpt>
      <trkpt lat="42.162060420960188" lon="-8.800435066223145">
        <ele>144.5625</ele>
      </trkpt>
      <trkpt lat="42.162119345739484" lon="-8.800425259396434">
        <ele>144.671875</ele>
      </trkpt>
      <trkpt lat="42.162179946899414" lon="-8.800418805330992">
        <ele>144.71875</ele>
      </trkpt>
      <trkpt lat="42.162242475897074" lon="-8.800415536388755">
        <ele>144.69921875</ele>
      </trkpt>
      <trkpt lat="42.162308860570192" lon="-8.800413860008121">
        <ele>144.71484375</ele>
      </trkpt>
      <trkpt lat="42.162369629368186" lon="-8.800413860008121">
        <ele>144.7578125</ele>
      </trkpt>
      <trkpt lat="42.162436014041305" lon="-8.8004235830158">
        <ele>144.609375</ele>
      </trkpt>
      <trkpt lat="42.16250030323863" lon="-8.800430037081242">
        <ele>144.5234375</ele>
      </trkpt>
      <trkpt lat="42.16255989857018" lon="-8.800441101193428">
        <ele>144.34375</ele>
      </trkpt>
      <trkpt lat="42.162616811692715" lon="-8.800455769523978">
        <ele>144.08984375</ele>
      </trkpt>
      <trkpt lat="42.162679256871343" lon="-8.800470856949687">
        <ele>143.83203125</ele>
      </trkpt>
      <trkpt lat="42.162740109488368" lon="-8.800489045679569">
        <ele>143.51953125</ele>
      </trkpt>
      <trkpt lat="42.162799118086696" lon="-8.800505641847849">
        <ele>143.29296875</ele>
      </trkpt>
      <trkpt lat="42.162853349000216" lon="-8.800517879426479">
        <ele>143.1484375</ele>
      </trkpt>
      <trkpt lat="42.162917051464319" lon="-8.800534559413791">
        <ele>142.9375</ele>
      </trkpt>
      <trkpt lat="42.162980921566486" lon="-8.800551239401102">
        <ele>142.73046875</ele>
      </trkpt>
      <trkpt lat="42.163039762526751" lon="-8.800569009035826">
        <ele>142.4921875</ele>
      </trkpt>
      <trkpt lat="42.163092317059636" lon="-8.800584934651852">
        <ele>142.28515625</ele>
      </trkpt>
      <trkpt lat="42.163154846057296" lon="-8.800611672922969">
        <ele>141.890625</ele>
      </trkpt>
      <trkpt lat="42.16322592459619" lon="-8.80063958466053">
        <ele>141.390625</ele>
      </trkpt>
      <trkpt lat="42.163292309269309" lon="-8.800661796703935">
        <ele>140.8671875</ele>
      </trkpt>
      <trkpt lat="42.163355257362127" lon="-8.800682332366705">
        <ele>140.48828125</ele>
      </trkpt>
      <trkpt lat="42.16341451741755" lon="-8.80069624632597">
        <ele>140.1953125</ele>
      </trkpt>
      <trkpt lat="42.163478806614876" lon="-8.800712255761027">
        <ele>139.8671875</ele>
      </trkpt>
      <trkpt lat="42.163533959537745" lon="-8.800725163891912">
        <ele>139.59765625</ele>
      </trkpt>
      <trkpt lat="42.163591543212533" lon="-8.800737066194415">
        <ele>139.3359375</ele>
      </trkpt>
      <trkpt lat="42.163647031411529" lon="-8.800749471411109">
        <ele>139.0703125</ele>
      </trkpt>
      <trkpt lat="42.163706375285983" lon="-8.800763050094247">
        <ele>138.72265625</ele>
      </trkpt>
      <trkpt lat="42.163767395541072" lon="-8.800771851092577">
        <ele>138.4140625</ele>
      </trkpt>
      <trkpt lat="42.163823051378131" lon="-8.800776461139321">
        <ele>138.171875</ele>
      </trkpt>
      <trkpt lat="42.163885328918695" lon="-8.80077788606286">
        <ele>137.94921875</ele>
      </trkpt>
      <trkpt lat="42.163939476013184" lon="-8.80077637732029">
        <ele>137.7890625</ele>
      </trkpt>
      <trkpt lat="42.164003429934382" lon="-8.800767492502928">
        <ele>137.6875</ele>
      </trkpt>
      <trkpt lat="42.164059085771441" lon="-8.800757266581059">
        <ele>137.6328125</ele>
      </trkpt>
      <trkpt lat="42.164116837084293" lon="-8.800743352621794">
        <ele>137.6171875</ele>
      </trkpt>
      <trkpt lat="42.164170145988464" lon="-8.800714435055852">
        <ele>137.79296875</ele>
      </trkpt>
      <trkpt lat="42.164221191778779" lon="-8.800690211355686">
        <ele>137.921875</ele>
      </trkpt>
      <trkpt lat="42.16427500359714" lon="-8.800660707056522">
        <ele>138.125</ele>
      </trkpt>
      <trkpt lat="42.164329402148724" lon="-8.800618881359696">
        <ele>138.78125</ele>
      </trkpt>
      <trkpt lat="42.164385728538036" lon="-8.800575211644173">
        <ele>139.5078125</ele>
      </trkpt>
      <trkpt lat="42.164439875632524" lon="-8.800529194995761">
        <ele>140.296875</ele>
      </trkpt>
      <trkpt lat="42.16448413208127" lon="-8.800486698746681">
        <ele>141.046875</ele>
      </trkpt>
      <trkpt lat="42.164530316367745" lon="-8.800438502803445">
        <ele>141.91796875</ele>
      </trkpt>
      <trkpt lat="42.16457599774003" lon="-8.800393156707287">
        <ele>142.73828125</ele>
      </trkpt>
      <trkpt lat="42.164618661627173" lon="-8.800344709306955">
        <ele>143.65625</ele>
      </trkpt>
      <trkpt lat="42.164663420990109" lon="-8.800302213057876">
        <ele>144.4609375</ele>
      </trkpt>
      <trkpt lat="42.164710024371743" lon="-8.800261896103621">
        <ele>145.21875</ele>
      </trkpt>
      <trkpt lat="42.164762746542692" lon="-8.800233732908964">
        <ele>145.70703125</ele>
      </trkpt>
      <trkpt lat="42.164817899465561" lon="-8.800216550007463">
        <ele>145.96484375</ele>
      </trkpt>
      <trkpt lat="42.164881099015474" lon="-8.800214035436511">
        <ele>145.890625</ele>
      </trkpt>
      <trkpt lat="42.164935246109962" lon="-8.800225686281919">
        <ele>145.53125</ele>
      </trkpt>
      <trkpt lat="42.164984783157706" lon="-8.800256615504622">
        <ele>144.76171875</ele>
      </trkpt>
      <trkpt lat="42.165033565834165" lon="-8.800294250249863">
        <ele>143.84375</ele>
      </trkpt>
      <trkpt lat="42.165079079568386" lon="-8.800338003784418">
        <ele>143</ele>
      </trkpt>
      <trkpt lat="42.165128365159035" lon="-8.800385445356369">
        <ele>142.2109375</ele>
      </trkpt>
      <trkpt lat="42.165179327130318" lon="-8.800433222204447">
        <ele>141.4296875</ele>
      </trkpt>
      <trkpt lat="42.165221236646175" lon="-8.800478484481573">
        <ele>140.6640625</ele>
      </trkpt>
      <trkpt lat="42.165267672389746" lon="-8.800526596605778">
        <ele>139.86328125</ele>
      </trkpt>
      <trkpt lat="42.16531477868557" lon="-8.800567500293255">
        <ele>139.23046875</ele>
      </trkpt>
      <trkpt lat="42.165359370410442" lon="-8.800614941865206">
        <ele>138.44921875</ele>
      </trkpt>
      <trkpt lat="42.165402369573712" lon="-8.800671016797423">
        <ele>137.5390625</ele>
      </trkpt>
      <trkpt lat="42.165446123108268" lon="-8.800724912434816">
        <ele>136.8203125</ele>
      </trkpt>
      <trkpt lat="42.16549264267087" lon="-8.800783753395081">
        <ele>136.01171875</ele>
      </trkpt>
      <trkpt lat="42.165533294901252" lon="-8.800832536071539">
        <ele>135.26953125</ele>
      </trkpt>
      <trkpt lat="42.16558107174933" lon="-8.800887018442154">
        <ele>134.36328125</ele>
      </trkpt>
      <trkpt lat="42.16562557965517" lon="-8.800937896594405">
        <ele>133.51953125</ele>
      </trkpt>
      <trkpt lat="42.165677212178707" lon="-8.800980979576707">
        <ele>132.8203125</ele>
      </trkpt>
      <trkpt lat="42.165726581588387" lon="-8.801014926284552">
        <ele>132.28125</ele>
      </trkpt>
      <trkpt lat="42.165779722854495" lon="-8.801053231582046">
        <ele>131.671875</ele>
      </trkpt>
      <trkpt lat="42.165830684825778" lon="-8.801088938489556">
        <ele>131.1015625</ele>
      </trkpt>
      <trkpt lat="42.165882820263505" lon="-8.801118358969688">
        <ele>130.6484375</ele>
      </trkpt>
      <trkpt lat="42.165931267663836" lon="-8.801150461658835">
        <ele>130.22265625</ele>
      </trkpt>
      <trkpt lat="42.165979966521263" lon="-8.80118046887219">
        <ele>129.8203125</ele>
      </trkpt>
      <trkpt lat="42.166034113615751" lon="-8.801203602924943">
        <ele>129.39453125</ele>
      </trkpt>
      <trkpt lat="42.1660868357867" lon="-8.80122397094965">
        <ele>129.03125</ele>
      </trkpt>
      <trkpt lat="42.166142491623759" lon="-8.801243081688881">
        <ele>128.6953125</ele>
      </trkpt>
      <trkpt lat="42.166200829669833" lon="-8.8012611027807">
        <ele>128.38671875</ele>
      </trkpt>
      <trkpt lat="42.166254641488194" lon="-8.801274346187711">
        <ele>128.16015625</ele>
      </trkpt>
      <trkpt lat="42.166310045868158" lon="-8.801275687292218">
        <ele>128.09375</ele>
      </trkpt>
      <trkpt lat="42.166364192962646" lon="-8.801265293732285">
        <ele>128.17578125</ele>
      </trkpt>
      <trkpt lat="42.166416915133595" lon="-8.801239226013422">
        <ele>128.44140625</ele>
      </trkpt>
      <trkpt lat="42.166455052793026" lon="-8.801175272092223">
        <ele>129.1484375</ele>
      </trkpt>
      <trkpt lat="42.166479527950287" lon="-8.801107881590724">
        <ele>129.90625</ele>
      </trkpt>
      <trkpt lat="42.166514061391354" lon="-8.80105197429657">
        <ele>130.546875</ele>
      </trkpt>
      <trkpt lat="42.166557563468814" lon="-8.801000006496906">
        <ele>131.09375</ele>
      </trkpt>
      <trkpt lat="42.166603496298194" lon="-8.800947871059179">
        <ele>131.609375</ele>
      </trkpt>
      <trkpt lat="42.166651608422399" lon="-8.800908559933305">
        <ele>131.9375</ele>
      </trkpt>
      <trkpt lat="42.166703660041094" lon="-8.800871931016445">
        <ele>132.19921875</ele>
      </trkpt>
      <trkpt lat="42.166756382212043" lon="-8.800838235765696">
        <ele>132.40234375</ele>
      </trkpt>
      <trkpt lat="42.166807344183326" lon="-8.800802025943995">
        <ele>132.62109375</ele>
      </trkpt>
      <trkpt lat="42.166861742734909" lon="-8.800749303773046">
        <ele>132.984375</ele>
      </trkpt>
      <trkpt lat="42.166911112144589" lon="-8.800693731755018">
        <ele>133.3984375</ele>
      </trkpt>
      <trkpt lat="42.166957464069128" lon="-8.800646122545004">
        <ele>133.85546875</ele>
      </trkpt>
      <trkpt lat="42.167003899812698" lon="-8.800585772842169">
        <ele>134.53125</ele>
      </trkpt>
      <trkpt lat="42.16705335304141" lon="-8.800531039014459">
        <ele>135.1171875</ele>
      </trkpt>
      <trkpt lat="42.167092664167285" lon="-8.800473287701607">
        <ele>135.7421875</ele>
      </trkpt>
      <trkpt lat="42.167113535106182" lon="-8.800436994060874">
        <ele>136.13671875</ele>
      </trkpt>
      <trkpt lat="42.167207663878798" lon="-8.800304559990764">
        <ele>137.49609375</ele>
      </trkpt>
      <trkpt lat="42.167267007753253" lon="-8.800232224166393">
        <ele>138.1875</ele>
      </trkpt>
      <trkpt lat="42.167347893118858" lon="-8.800176987424493">
        <ele>138.6484375</ele>
      </trkpt>
      <trkpt lat="42.167417630553246" lon="-8.800110016018152">
        <ele>139.5703125</ele>
      </trkpt>
      <trkpt lat="42.167490553110838" lon="-8.800046481192112">
        <ele>140.5703125</ele>
      </trkpt>
      <trkpt lat="42.167571019381285" lon="-8.79999945871532">
        <ele>141.40625</ele>
      </trkpt>
      <trkpt lat="42.167653078213334" lon="-8.799978755414486">
        <ele>141.87890625</ele>
      </trkpt>
      <trkpt lat="42.167737819254398" lon="-8.799957716837525">
        <ele>142.39453125</ele>
      </trkpt>
      <trkpt lat="42.167805628851056" lon="-8.799900719895959">
        <ele>143.53515625</ele>
      </trkpt>
      <trkpt lat="42.167860027402639" lon="-8.799812709912658">
        <ele>145.34765625</ele>
      </trkpt>
      <trkpt lat="42.167923310771585" lon="-8.799740541726351">
        <ele>147.06640625</ele>
      </trkpt>
      <trkpt lat="42.168007381260395" lon="-8.799690250307322">
        <ele>148.7109375</ele>
      </trkpt>
      <trkpt lat="42.168088853359222" lon="-8.799680359661579">
        <ele>149.52734375</ele>
      </trkpt>
      <trkpt lat="42.16817032545805" lon="-8.799686143174767">
        <ele>149.98046875</ele>
      </trkpt>
      <trkpt lat="42.168213911354542" lon="-8.799607437103987">
        <ele>152.28515625</ele>
      </trkpt>
      <trkpt lat="42.168209971860051" lon="-8.799481708556414">
        <ele>155.42578125</ele>
      </trkpt>
      <trkpt lat="42.168197482824326" lon="-8.799367630854249">
        <ele>158.15625</ele>
      </trkpt>
      <trkpt lat="42.168200248852372" lon="-8.799255145713687">
        <ele>160.9453125</ele>
      </trkpt>
      <trkpt lat="42.168242828920484" lon="-8.799155317246914">
        <ele>163.52734375</ele>
      </trkpt>
      <trkpt lat="42.168295131996274" lon="-8.79906814545393">
        <ele>165.90625</ele>
      </trkpt>
      <trkpt lat="42.168370904400945" lon="-8.799015171825886">
        <ele>166.6640625</ele>
      </trkpt>
      <trkpt lat="42.168460926041007" lon="-8.798998491838574">
        <ele>166.62890625</ele>
      </trkpt>
      <trkpt lat="42.168549438938498" lon="-8.798989858478308">
        <ele>166.43359375</ele>
      </trkpt>
      <trkpt lat="42.168631413951516" lon="-8.7989816442132">
        <ele>166.2578125</ele>
      </trkpt>
      <trkpt lat="42.168720010668039" lon="-8.798967059701681">
        <ele>166.19140625</ele>
      </trkpt>
      <trkpt lat="42.168806344270706" lon="-8.798941913992167">
        <ele>166.23046875</ele>
      </trkpt>
      <trkpt lat="42.168889660388231" lon="-8.79890444688499">
        <ele>166.46875</ele>
      </trkpt>
      <trkpt lat="42.168956715613604" lon="-8.798832530155778">
        <ele>167.546875</ele>
      </trkpt>
      <trkpt lat="42.169020753353834" lon="-8.798743179067969">
        <ele>168.90625</ele>
      </trkpt>
      <trkpt lat="42.169085210189223" lon="-8.798677297309041">
        <ele>169.77734375</ele>
      </trkpt>
      <trkpt lat="42.169162575155497" lon="-8.798645278438926">
        <ele>169.9140625</ele>
      </trkpt>
      <trkpt lat="42.169251255691051" lon="-8.798632621765137">
        <ele>169.5703125</ele>
      </trkpt>
      <trkpt lat="42.16934060677886" lon="-8.798634549602866">
        <ele>168.890625</ele>
      </trkpt>
      <trkpt lat="42.169431382790208" lon="-8.79863035865128">
        <ele>168.328125</ele>
      </trkpt>
      <trkpt lat="42.169524589553475" lon="-8.798617115244269">
        <ele>167.94140625</ele>
      </trkpt>
      <trkpt lat="42.169610504060984" lon="-8.79859758540988">
        <ele>167.75</ele>
      </trkpt>
      <trkpt lat="42.169694574549794" lon="-8.798562046140432">
        <ele>167.921875</ele>
      </trkpt>
      <trkpt lat="42.169779315590858" lon="-8.798517538234591">
        <ele>168.25390625</ele>
      </trkpt>
      <trkpt lat="42.169860200956464" lon="-8.798478059470654">
        <ele>168.515625</ele>
      </trkpt>
      <trkpt lat="42.169941505417228" lon="-8.798449728637934">
        <ele>168.5390625</ele>
      </trkpt>
      <trkpt lat="42.170025240629911" lon="-8.798426929861307">
        <ele>168.42578125</ele>
      </trkpt>
      <trkpt lat="42.170106461271644" lon="-8.798424666747451">
        <ele>167.87890625</ele>
      </trkpt>
      <trkpt lat="42.170191369950771" lon="-8.798438915982842">
        <ele>166.890625</ele>
      </trkpt>
      <trkpt lat="42.170276613906026" lon="-8.798476466909051">
        <ele>165.3359375</ele>
      </trkpt>
      <trkpt lat="42.170359930023551" lon="-8.798482250422239">
        <ele>164.515625</ele>
      </trkpt>
      <trkpt lat="42.170437965542078" lon="-8.798447465524077">
        <ele>164.67578125</ele>
      </trkpt>
      <trkpt lat="42.170498985797167" lon="-8.798377392813563">
        <ele>165.81640625</ele>
      </trkpt>
      <trkpt lat="42.170550785958767" lon="-8.79829122684896">
        <ele>167.19140625</ele>
      </trkpt>
      <trkpt lat="42.170593533664942" lon="-8.798203803598881">
        <ele>168.453125</ele>
      </trkpt>
      <trkpt lat="42.170655224472284" lon="-8.798124762251973">
        <ele>169.2421875</ele>
      </trkpt>
      <trkpt lat="42.170722698792815" lon="-8.798052174970508">
        <ele>169.78125</ele>
      </trkpt>
      <trkpt lat="42.170787071809173" lon="-8.797966344282031">
        <ele>170.53125</ele>
      </trkpt>
      <trkpt lat="42.170849768444896" lon="-8.79788956604898">
        <ele>171.0859375</ele>
      </trkpt>
      <trkpt lat="42.170915398746729" lon="-8.797806836664677">
        <ele>171.62890625</ele>
      </trkpt>
      <trkpt lat="42.170982705429196" lon="-8.79773223772645">
        <ele>171.96875</ele>
      </trkpt>
      <trkpt lat="42.171039031818509" lon="-8.797652190551162">
        <ele>172.50390625</ele>
      </trkpt>
      <trkpt lat="42.171098291873932" lon="-8.797552529722452">
        <ele>173.28125</ele>
      </trkpt>
      <trkpt lat="42.171149924397469" lon="-8.797458065673709">
        <ele>174.05859375</ele>
      </trkpt>
      <trkpt lat="42.17120767571032" lon="-8.797372821718454">
        <ele>174.53515625</ele>
      </trkpt>
      <trkpt lat="42.171270288527012" lon="-8.797307191416621">
        <ele>174.6484375</ele>
      </trkpt>
      <trkpt lat="42.171302223578095" lon="-8.797210799530149">
        <ele>175.65234375</ele>
      </trkpt>
      <trkpt lat="42.171264253556728" lon="-8.79709605127573">
        <ele>177.828125</ele>
      </trkpt>
      <trkpt lat="42.171206418424845" lon="-8.797015668824315">
        <ele>179.7109375</ele>
      </trkpt>
      <trkpt lat="42.171166688203812" lon="-8.796921791508794">
        <ele>181.55078125</ele>
      </trkpt>
      <trkpt lat="42.171175070106983" lon="-8.796807546168566">
        <ele>183.1640625</ele>
      </trkpt>
      <trkpt lat="42.171199126169086" lon="-8.796703778207302">
        <ele>184.45703125</ele>
      </trkpt>
      <trkpt lat="42.171268360689282" lon="-8.796658264473081">
        <ele>184.41015625</ele>
      </trkpt>
      <trkpt lat="42.171351173892617" lon="-8.79664652980864">
        <ele>183.71875</ele>
      </trkpt>
      <trkpt lat="42.171432310715318" lon="-8.796648792922497">
        <ele>182.828125</ele>
      </trkpt>
      <trkpt lat="42.171520991250873" lon="-8.79664259031415">
        <ele>181.9921875</ele>
      </trkpt>
      <trkpt lat="42.171604055911303" lon="-8.796640746295452">
        <ele>181.37109375</ele>
      </trkpt>
      <trkpt lat="42.171685276553035" lon="-8.796632951125503">
        <ele>180.89453125</ele>
      </trkpt>
      <trkpt lat="42.171766329556704" lon="-8.796618031337857">
        <ele>180.5703125</ele>
      </trkpt>
      <trkpt lat="42.17184972949326" lon="-8.796625575050712">
        <ele>179.8046875</ele>
      </trkpt>
      <trkpt lat="42.171933799982071" lon="-8.796640997752547">
        <ele>178.8515625</ele>
      </trkpt>
      <trkpt lat="42.172021809965372" lon="-8.796665389090776">
        <ele>177.6875</ele>
      </trkpt>
      <trkpt lat="42.172108981758356" lon="-8.796680895611644">
        <ele>176.765625</ele>
      </trkpt>
      <trkpt lat="42.172189531847835" lon="-8.796692043542862">
        <ele>175.95703125</ele>
      </trkpt>
      <trkpt lat="42.172284247353673" lon="-8.79671199247241">
        <ele>174.796875</ele>
      </trkpt>
      <trkpt lat="42.17237351462245" lon="-8.796740155667067">
        <ele>173.3984375</ele>
      </trkpt>
      <trkpt lat="42.172456663101912" lon="-8.796764379367232">
        <ele>172.125</ele>
      </trkpt>
      <trkpt lat="42.172539895400405" lon="-8.796808468177915">
        <ele>171.0234375</ele>
      </trkpt>
      <trkpt lat="42.172609129920602" lon="-8.796884743496776">
        <ele>169.00390625</ele>
      </trkpt>
      <trkpt lat="42.172663109377027" lon="-8.796968394890428">
        <ele>166.74609375</ele>
      </trkpt>
      <trkpt lat="42.172719854861498" lon="-8.797049196437001">
        <ele>164.515625</ele>
      </trkpt>
      <trkpt lat="42.172774840146303" lon="-8.797136200591922">
        <ele>162.10546875</ele>
      </trkpt>
      <trkpt lat="42.172854216769338" lon="-8.797240052372217">
        <ele>159.25</ele>
      </trkpt>
      <trkpt lat="42.172911213710904" lon="-8.797320770099759">
        <ele>157.0234375</ele>
      </trkpt>
      <trkpt lat="42.1729701384902" lon="-8.797396207228303">
        <ele>155.12890625</ele>
      </trkpt>
      <trkpt lat="42.173039373010397" lon="-8.797466950491071">
        <ele>153.93359375</ele>
      </trkpt>
      <trkpt lat="42.173124616965652" lon="-8.797513386234641">
        <ele>153.4453125</ele>
      </trkpt>
      <trkpt lat="42.17319443821907" lon="-8.797566946595907">
        <ele>152.703125</ele>
      </trkpt>
      <trkpt lat="42.173197204247117" lon="-8.79756367765367">
        <ele>152.78125</ele>
      </trkpt>
      <trkpt lat="42.173409266397357" lon="-8.797699883580208">
        <ele>151.01953125</ele>
      </trkpt>
      <trkpt lat="42.173476573079824" lon="-8.797769537195563">
        <ele>150.1640625</ele>
      </trkpt>
      <trkpt lat="42.173547735437751" lon="-8.797865174710751">
        <ele>148.69921875</ele>
      </trkpt>
      <trkpt lat="42.173616467043757" lon="-8.797950334846973">
        <ele>147.40234375</ele>
      </trkpt>
      <trkpt lat="42.173686204478145" lon="-8.798023676499724">
        <ele>146.2734375</ele>
      </trkpt>
      <trkpt lat="42.173761054873466" lon="-8.798088971525431">
        <ele>145.26953125</ele>
      </trkpt>
      <trkpt lat="42.173835318535566" lon="-8.798156026750803">
        <ele>144.12109375</ele>
      </trkpt>
      <trkpt lat="42.173909666016698" lon="-8.798231380060315">
        <ele>142.484375</ele>
      </trkpt>
      <trkpt lat="42.173978146165609" lon="-8.798297680914402">
        <ele>140.9453125</ele>
      </trkpt>
      <trkpt lat="42.174057103693485" lon="-8.798325173556805">
        <ele>140.35546875</ele>
      </trkpt>
      <trkpt lat="42.174137150868773" lon="-8.798340428620577">
        <ele>140.0546875</ele>
      </trkpt>
      <trkpt lat="42.174216946586967" lon="-8.798359790816903">
        <ele>139.6015625</ele>
      </trkpt>
      <trkpt lat="42.174306297674775" lon="-8.798392647877336">
        <ele>138.7578125</ele>
      </trkpt>
      <trkpt lat="42.174386009573936" lon="-8.798424080014229">
        <ele>137.58203125</ele>
      </trkpt>
      <trkpt lat="42.174471924081445" lon="-8.798453081399202">
        <ele>136.45703125</ele>
      </trkpt>
      <trkpt lat="42.174554318189621" lon="-8.798469677567482">
        <ele>135.70703125</ele>
      </trkpt>
      <trkpt lat="42.17463537119329" lon="-8.798474036157131">
        <ele>135.3125</ele>
      </trkpt>
      <trkpt lat="42.17471307143569" lon="-8.798507479950786">
        <ele>134.0859375</ele>
      </trkpt>
      <trkpt lat="42.174787754192948" lon="-8.798559699207544">
        <ele>132.30859375</ele>
      </trkpt>
      <trkpt lat="42.174869729205966" lon="-8.798573110252619">
        <ele>131.59765625</ele>
      </trkpt>
      <trkpt lat="42.174962433055043" lon="-8.798558358103037">
        <ele>131.64453125</ele>
      </trkpt>
      <trkpt lat="42.175056310370564" lon="-8.798539582639933">
        <ele>131.77734375</ele>
      </trkpt>
      <trkpt lat="42.175145074725151" lon="-8.798514101654291">
        <ele>132.09375</ele>
      </trkpt>
      <trkpt lat="42.175233000889421" lon="-8.798487363383174">
        <ele>132.41796875</ele>
      </trkpt>
      <trkpt lat="42.175321765244007" lon="-8.79846615716815">
        <ele>132.54296875</ele>
      </trkpt>
      <trkpt lat="42.175405248999596" lon="-8.798449896275997">
        <ele>132.5390625</ele>
      </trkpt>
      <trkpt lat="42.175492504611611" lon="-8.798458194360137">
        <ele>131.90234375</ele>
      </trkpt>
      <trkpt lat="42.175581520423293" lon="-8.798466324806213">
        <ele>131.2734375</ele>
      </trkpt>
      <trkpt lat="42.175670703873038" lon="-8.798462133854628">
        <ele>130.93359375</ele>
      </trkpt>
      <trkpt lat="42.175761647522449" lon="-8.798440927639604">
        <ele>130.671875</ele>
      </trkpt>
      <trkpt lat="42.175844963639975" lon="-8.798420811071992">
        <ele>130.34375</ele>
      </trkpt>
      <trkpt lat="42.175925765186548" lon="-8.798391474410892">
        <ele>130.1953125</ele>
      </trkpt>
      <trkpt lat="42.176014361903071" lon="-8.798366244882345">
        <ele>129.85546875</ele>
      </trkpt>
      <trkpt lat="42.176102874800563" lon="-8.798353504389524">
        <ele>129.23828125</ele>
      </trkpt>
      <trkpt lat="42.176183676347136" lon="-8.798349648714066">
        <ele>128.45703125</ele>
      </trkpt>
      <trkpt lat="42.176272105425596" lon="-8.798347804695368">
        <ele>127.44921875</ele>
      </trkpt>
      <trkpt lat="42.176362965255976" lon="-8.798343278467655">
        <ele>126.44921875</ele>
      </trkpt>
      <trkpt lat="42.176444521173835" lon="-8.798343278467655">
        <ele>125.48046875</ele>
      </trkpt>
      <trkpt lat="42.176526077091694" lon="-8.798339422792196">
        <ele>124.58984375</ele>
      </trkpt>
      <trkpt lat="42.176612494513392" lon="-8.798337327316403">
        <ele>123.60546875</ele>
      </trkpt>
      <trkpt lat="42.176696229726076" lon="-8.798332884907722">
        <ele>122.58984375</ele>
      </trkpt>
      <trkpt lat="42.176779042929411" lon="-8.798326766118407">
        <ele>121.60546875</ele>
      </trkpt>
      <trkpt lat="42.176861939951777" lon="-8.798301704227924">
        <ele>120.94140625</ele>
      </trkpt>
      <trkpt lat="42.176933353766799" lon="-8.798250574618578">
        <ele>120.84765625</ele>
      </trkpt>
      <trkpt lat="42.177000408992171" lon="-8.798176059499383">
        <ele>121.140625</ele>
      </trkpt>
      <trkpt lat="42.17706193216145" lon="-8.798095257952809">
        <ele>121.53125</ele>
      </trkpt>
      <trkpt lat="42.177125215530396" lon="-8.798011858016253">
        <ele>121.8515625</ele>
      </trkpt>
      <trkpt lat="42.177171232178807" lon="-8.797913286834955">
        <ele>122.59375</ele>
      </trkpt>
      <trkpt lat="42.177209202200174" lon="-8.797809267416596">
        <ele>123.4375</ele>
      </trkpt>
      <trkpt lat="42.177231749519706" lon="-8.797702649608254">
        <ele>124.515625</ele>
      </trkpt>
      <trkpt lat="42.177252536639571" lon="-8.797596534714103">
        <ele>125.578125</ele>
      </trkpt>
      <trkpt lat="42.17726762406528" lon="-8.797488659620285">
        <ele>126.74609375</ele>
      </trkpt>
      <trkpt lat="42.177277933806181" lon="-8.797406349331141">
        <ele>127.60546875</ele>
      </trkpt>
      <trkpt lat="42.177282711490989" lon="-8.797089513391256">
        <ele>130.76171875</ele>
      </trkpt>
      <trkpt lat="42.177292853593826" lon="-8.796957582235336">
        <ele>131.83984375</ele>
      </trkpt>
      <trkpt lat="42.17729838564992" lon="-8.796840319409966">
        <ele>132.8984375</ele>
      </trkpt>
      <trkpt lat="42.177302660420537" lon="-8.796713585034013">
        <ele>134.078125</ele>
      </trkpt>
      <trkpt lat="42.177307941019535" lon="-8.796600932255387">
        <ele>135.07421875</ele>
      </trkpt>
      <trkpt lat="42.177322190254927" lon="-8.796478053554893">
        <ele>135.875</ele>
      </trkpt>
      <trkpt lat="42.177329566329718" lon="-8.796364143490791">
        <ele>136.796875</ele>
      </trkpt>
      <trkpt lat="42.177318334579468" lon="-8.796254256740212">
        <ele>138.28125</ele>
      </trkpt>
      <trkpt lat="42.177295954898" lon="-8.796144369989634">
        <ele>140.1328125</ele>
      </trkpt>
      <trkpt lat="42.17728472314775" lon="-8.796031549572945">
        <ele>141.65625</ele>
      </trkpt>
      <trkpt lat="42.177283298224211" lon="-8.795916214585304">
        <ele>142.76171875</ele>
      </trkpt>
      <trkpt lat="42.177290255203843" lon="-8.795804483816028">
        <ele>143.55859375</ele>
      </trkpt>
      <trkpt lat="42.177300062030554" lon="-8.795692836865783">
        <ele>144.26953125</ele>
      </trkpt>
      <trkpt lat="42.1773252915591" lon="-8.795567946508527">
        <ele>144.6171875</ele>
      </trkpt>
      <trkpt lat="42.177359741181135" lon="-8.795469542965293">
        <ele>144.4765625</ele>
      </trkpt>
      <trkpt lat="42.177411457523704" lon="-8.795366026461124">
        <ele>143.9296875</ele>
      </trkpt>
      <trkpt lat="42.177459737285972" lon="-8.795278687030077">
        <ele>143.40234375</ele>
      </trkpt>
      <trkpt lat="42.177507681772113" lon="-8.79518841393292">
        <ele>142.98828125</ele>
      </trkpt>
      <trkpt lat="42.177558895200491" lon="-8.795102080330253">
        <ele>142.6328125</ele>
      </trkpt>
      <trkpt lat="42.177618406713009" lon="-8.795012226328254">
        <ele>142.859375</ele>
      </trkpt>
      <trkpt lat="42.177688395604491" lon="-8.794932933524251">
        <ele>142.69140625</ele>
      </trkpt>
      <trkpt lat="42.177753020077944" lon="-8.794864788651466">
        <ele>142.44921875</ele>
      </trkpt>
      <trkpt lat="42.177836922928691" lon="-8.794812820851803">
        <ele>141.5390625</ele>
      </trkpt>
      <trkpt lat="42.17791554518044" lon="-8.794755153357983">
        <ele>140.828125</ele>
      </trkpt>
      <trkpt lat="42.17799617908895" lon="-8.794704610481858">
        <ele>139.9609375</ele>
      </trkpt>
      <trkpt lat="42.178075136616826" lon="-8.794649625197053">
        <ele>139.06640625</ele>
      </trkpt>
      <trkpt lat="42.178149148821831" lon="-8.794597573578358">
        <ele>138.24609375</ele>
      </trkpt>
      <trkpt lat="42.178221568465233" lon="-8.79454149864614">
        <ele>137.53515625</ele>
      </trkpt>
      <trkpt lat="42.178292227908969" lon="-8.794484417885542">
        <ele>136.8828125</ele>
      </trkpt>
      <trkpt lat="42.178365904837847" lon="-8.794440496712923">
        <ele>135.9375</ele>
      </trkpt>
      <trkpt lat="42.17844863422215" lon="-8.794399006292224">
        <ele>134.73828125</ele>
      </trkpt>
      <trkpt lat="42.178528597578406" lon="-8.794357432052493">
        <ele>133.30859375</ele>
      </trkpt>
      <trkpt lat="42.178598837926984" lon="-8.794302865862846">
        <ele>132.29296875</ele>
      </trkpt>
      <trkpt lat="42.178667820990086" lon="-8.794244360178709">
        <ele>131.390625</ele>
      </trkpt>
      <trkpt lat="42.178737726062536" lon="-8.794178646057844">
        <ele>130.59765625</ele>
      </trkpt>
      <trkpt lat="42.17879556119442" lon="-8.794096671044827">
        <ele>129.47265625</ele>
      </trkpt>
      <trkpt lat="42.178854234516621" lon="-8.794006062671542">
        <ele>128.28515625</ele>
      </trkpt>
      <trkpt lat="42.178897904232144" lon="-8.793903635814786">
        <ele>127.51171875</ele>
      </trkpt>
      <trkpt lat="42.178944423794746" lon="-8.793809590861201">
        <ele>126.46875</ele>
      </trkpt>
      <trkpt lat="42.178991697728634" lon="-8.793717557564378">
        <ele>125.21484375</ele>
      </trkpt>
      <trkpt lat="42.179026901721954" lon="-8.793617226183414">
        <ele>124.56640625</ele>
      </trkpt>
      <trkpt lat="42.179064955562353" lon="-8.793515637516975">
        <ele>123.84375</ele>
      </trkpt>
      <trkpt lat="42.17910242266953" lon="-8.793411701917648">
        <ele>123.16015625</ele>
      </trkpt>
      <trkpt lat="42.179144332185388" lon="-8.79330525174737">
        <ele>122.3515625</ele>
      </trkpt>
      <trkpt lat="42.179167214781046" lon="-8.79319041967392">
        <ele>122.73046875</ele>
      </trkpt>
      <trkpt lat="42.179192192852497" lon="-8.793080616742373">
        <ele>123.36328125</ele>
      </trkpt>
      <trkpt lat="42.179221864789724" lon="-8.792977603152394">
        <ele>123.765625</ele>
      </trkpt>
      <trkpt lat="42.179253799840808" lon="-8.792877523228526">
        <ele>124.078125</ele>
      </trkpt>
      <trkpt lat="42.179294535890222" lon="-8.792776437476277">
        <ele>124.14453125</ele>
      </trkpt>
      <trkpt lat="42.179343234747648" lon="-8.792688343673944">
        <ele>123.80078125</ele>
      </trkpt>
      <trkpt lat="42.179359747096896" lon="-8.792660180479288">
        <ele>123.66796875</ele>
      </trkpt>
      <trkpt lat="42.179427221417427" lon="-8.79257233813405">
        <ele>122.703125</ele>
      </trkpt>
      <trkpt lat="42.179484888911247" lon="-8.792476365342736">
        <ele>122.1484375</ele>
      </trkpt>
      <trkpt lat="42.179543310776353" lon="-8.79239103756845">
        <ele>121.4296875</ele>
      </trkpt>
      <trkpt lat="42.179606091231108" lon="-8.792311996221542">
        <ele>120.47265625</ele>
      </trkpt>
      <trkpt lat="42.179675744846463" lon="-8.792234882712364">
        <ele>119.203125</ele>
      </trkpt>
      <trkpt lat="42.179735926911235" lon="-8.792163636535406">
        <ele>118.1328125</ele>
      </trkpt>
      <trkpt lat="42.179800802841783" lon="-8.792095659300685">
        <ele>116.8203125</ele>
      </trkpt>
      <trkpt lat="42.179872803390026" lon="-8.792020389810205">
        <ele>115.43359375</ele>
      </trkpt>
      <trkpt lat="42.179942540824413" lon="-8.791953334584832">
        <ele>114.375</ele>
      </trkpt>
      <trkpt lat="42.18000590801239" lon="-8.791870102286339">
        <ele>113.734375</ele>
      </trkpt>
      <trkpt lat="42.180067347362638" lon="-8.791776476427913">
        <ele>112.8515625</ele>
      </trkpt>
      <trkpt lat="42.18012023717165" lon="-8.791693160310388">
        <ele>112.14453125</ele>
      </trkpt>
      <trkpt lat="42.180169858038425" lon="-8.791603809222579">
        <ele>111.62890625</ele>
      </trkpt>
      <trkpt lat="42.180210761725903" lon="-8.791503142565489">
        <ele>111.48828125</ele>
      </trkpt>
      <trkpt lat="42.180251078680158" lon="-8.791395435109735">
        <ele>111.453125</ele>
      </trkpt>
      <trkpt lat="42.180294496938586" lon="-8.7912935949862">
        <ele>110.95703125</ele>
      </trkpt>
      <trkpt lat="42.180339675396681" lon="-8.791190749034286">
        <ele>110.56640625</ele>
      </trkpt>
      <trkpt lat="42.180365994572639" lon="-8.791074575856328">
        <ele>110.765625</ele>
      </trkpt>
      <trkpt lat="42.180371945723891" lon="-8.790952702984214">
        <ele>111.40234375</ele>
      </trkpt>
      <trkpt lat="42.180372197180986" lon="-8.790838290005922">
        <ele>112.03515625</ele>
      </trkpt>
      <trkpt lat="42.180372197180986" lon="-8.79072044044733">
        <ele>112.68359375</ele>
      </trkpt>
      <trkpt lat="42.180376136675477" lon="-8.790604686364532">
        <ele>113.25390625</ele>
      </trkpt>
      <trkpt lat="42.180379908531904" lon="-8.79048490896821">
        <ele>113.8515625</ele>
      </trkpt>
      <trkpt lat="42.1803835965693" lon="-8.790371920913458">
        <ele>114.41796875</ele>
      </trkpt>
      <trkpt lat="42.180404970422387" lon="-8.790247533470392">
        <ele>114.77734375</ele>
      </trkpt>
      <trkpt lat="42.180435145273805" lon="-8.790138484910131">
        <ele>114.94140625</ele>
      </trkpt>
      <trkpt lat="42.180486107245088" lon="-8.790038321167231">
        <ele>114.7734375</ele>
      </trkpt>
      <trkpt lat="42.180537655949593" lon="-8.789942096918821">
        <ele>114.41015625</ele>
      </trkpt>
      <trkpt lat="42.180592641234398" lon="-8.789859786629677">
        <ele>113.86328125</ele>
      </trkpt>
      <trkpt lat="42.180657517164946" lon="-8.789778901264071">
        <ele>113.13671875</ele>
      </trkpt>
      <trkpt lat="42.180729433894157" lon="-8.7897221557796">
        <ele>112.203125</ele>
      </trkpt>
      <trkpt lat="42.180805625393987" lon="-8.78967965953052">
        <ele>111.09765625</ele>
      </trkpt>
      <trkpt lat="42.180875781923532" lon="-8.78962735645473">
        <ele>110.05078125</ele>
      </trkpt>
      <trkpt lat="42.180942334234715" lon="-8.789544459432364">
        <ele>109.22265625</ele>
      </trkpt>
      <trkpt lat="42.181019280105829" lon="-8.789475979283452">
        <ele>108.1640625</ele>
      </trkpt>
      <trkpt lat="42.181096980348229" lon="-8.789431471377611">
        <ele>107.05859375</ele>
      </trkpt>
      <trkpt lat="42.181174177676439" lon="-8.789390483871102">
        <ele>105.9765625</ele>
      </trkpt>
      <trkpt lat="42.181242322549224" lon="-8.78933172672987">
        <ele>105.1328125</ele>
      </trkpt>
      <trkpt lat="42.181293955072761" lon="-8.789248829707503">
        <ele>104.6328125</ele>
      </trkpt>
      <trkpt lat="42.181334272027016" lon="-8.789154784753919">
        <ele>104.40625</ele>
      </trkpt>
      <trkpt lat="42.181356903165579" lon="-8.789057722315192">
        <ele>104.1875</ele>
      </trkpt>
      <trkpt lat="42.181358076632023" lon="-8.788947081193328">
        <ele>103.58984375</ele>
      </trkpt>
      <trkpt lat="42.181345000863075" lon="-8.788829734548926">
        <ele>103.1875</ele>
      </trkpt>
      <trkpt lat="42.181331086903811" lon="-8.788715237751603">
        <ele>102.83203125</ele>
      </trkpt>
      <trkpt lat="42.181329494342208" lon="-8.788603842258453">
        <ele>102.30859375</ele>
      </trkpt>
      <trkpt lat="42.181340139359236" lon="-8.788494793698192">
        <ele>101.625</ele>
      </trkpt>
      <trkpt lat="42.181383976712823" lon="-8.788382727652788">
        <ele>100.28125</ele>
      </trkpt>
      <trkpt lat="42.18141607940197" lon="-8.788285749033093">
        <ele>99.1875</ele>
      </trkpt>
      <trkpt lat="42.181471567600965" lon="-8.788202600553632">
        <ele>97.65625</ele>
      </trkpt>
      <trkpt lat="42.18147860839963" lon="-8.78818885423243">
        <ele>97.44140625</ele>
      </trkpt>
      <trkpt lat="42.181693688035011" lon="-8.78791225142777">
        <ele>91.27734375</ele>
      </trkpt>
      <trkpt lat="42.181748673319817" lon="-8.787829605862498">
        <ele>89.3984375</ele>
      </trkpt>
      <trkpt lat="42.181796114891768" lon="-8.787725921720266">
        <ele>87.71875</ele>
      </trkpt>
      <trkpt lat="42.181836096569896" lon="-8.787621650844812">
        <ele>87.625</ele>
      </trkpt>
      <trkpt lat="42.18187540769577" lon="-8.787511009722948">
        <ele>88.1171875</ele>
      </trkpt>
      <trkpt lat="42.181929303333163" lon="-8.787418054416776">
        <ele>88.2265625</ele>
      </trkpt>
      <trkpt lat="42.182002477347851" lon="-8.787370612844825">
        <ele>87.5</ele>
      </trkpt>
      <trkpt lat="42.182089649140835" lon="-8.787349993363023">
        <ele>86.22265625</ele>
      </trkpt>
      <trkpt lat="42.18217640183866" lon="-8.787335995584726">
        <ele>84.921875</ele>
      </trkpt>
      <trkpt lat="42.182261059060693" lon="-8.787339935079217">
        <ele>83.703125</ele>
      </trkpt>
      <trkpt lat="42.182348147034645" lon="-8.787362482398748">
        <ele>82.109375</ele>
      </trkpt>
      <trkpt lat="42.182436995208263" lon="-8.787385113537312">
        <ele>80.4453125</ele>
      </trkpt>
      <trkpt lat="42.182523496448994" lon="-8.787402212619781">
        <ele>78.87890625</ele>
      </trkpt>
      <trkpt lat="42.1826146915555" lon="-8.787415120750666">
        <ele>77.296875</ele>
      </trkpt>
      <trkpt lat="42.182701444253325" lon="-8.787423502653837">
        <ele>76.421875</ele>
      </trkpt>
      <trkpt lat="42.182784760370851" lon="-8.787438003346324">
        <ele>75.55859375</ele>
      </trkpt>
      <trkpt lat="42.182868914678693" lon="-8.787450827658176">
        <ele>74.69921875</ele>
      </trkpt>
      <trkpt lat="42.182953404262662" lon="-8.787461388856173">
        <ele>73.875</ele>
      </trkpt>
      <trkpt lat="42.18304711394012" lon="-8.787461388856173">
        <ele>73.234375</ele>
      </trkpt>
      <trkpt lat="42.183130849152803" lon="-8.787452336400747">
        <ele>72.87109375</ele>
      </trkpt>
      <trkpt lat="42.183217350393534" lon="-8.78743196837604">
        <ele>72.74609375</ele>
      </trkpt>
      <trkpt lat="42.183313574641943" lon="-8.787398692220449">
        <ele>72.88671875</ele>
      </trkpt>
      <trkpt lat="42.183392448350787" lon="-8.787360638380051">
        <ele>73.2890625</ele>
      </trkpt>
      <trkpt lat="42.183463526889682" lon="-8.787297774106264">
        <ele>74.41015625</ele>
      </trkpt>
      <trkpt lat="42.183534689247608" lon="-8.787232479080558">
        <ele>75.65234375</ele>
      </trkpt>
      <trkpt lat="42.183604007586837" lon="-8.787157796323299">
        <ele>77.3828125</ele>
      </trkpt>
      <trkpt lat="42.183662848547101" lon="-8.787078084424138">
        <ele>79.15625</ele>
      </trkpt>
      <trkpt lat="42.183729568496346" lon="-8.787012035027146">
        <ele>80.23828125</ele>
      </trkpt>
      <trkpt lat="42.183791594579816" lon="-8.786938106641173">
        <ele>81.49609375</ele>
      </trkpt>
      <trkpt lat="42.183811208233237" lon="-8.786912206560373">
        <ele>81.9375</ele>
      </trkpt>
      <trkpt lat="42.184134917333722" lon="-8.786640129983425">
        <ele>82.59375</ele>
      </trkpt>
      <trkpt lat="42.184202978387475" lon="-8.78657634370029">
        <ele>82.50390625</ele>
      </trkpt>
      <trkpt lat="42.184273554012179" lon="-8.786513647064567">
        <ele>82.26953125</ele>
      </trkpt>
      <trkpt lat="42.184346476569772" lon="-8.786454889923334">
        <ele>81.8359375</ele>
      </trkpt>
      <trkpt lat="42.184433648362756" lon="-8.78637945279479">
        <ele>81.3125</ele>
      </trkpt>
      <trkpt lat="42.184511013329029" lon="-8.786306865513325">
        <ele>80.8046875</ele>
      </trkpt>
      <trkpt lat="42.184583432972431" lon="-8.786240397021174">
        <ele>80.12109375</ele>
      </trkpt>
      <trkpt lat="42.184661384671926" lon="-8.786172587424517">
        <ele>79.23828125</ele>
      </trkpt>
      <trkpt lat="42.184738917276263" lon="-8.786108465865254">
        <ele>78.22265625</ele>
      </trkpt>
      <trkpt lat="42.184815360233188" lon="-8.786040404811502">
        <ele>77.203125</ele>
      </trkpt>
      <trkpt lat="42.184906471520662" lon="-8.785965386778116">
        <ele>75.79296875</ele>
      </trkpt>
      <trkpt lat="42.184984004124999" lon="-8.785903276875615">
        <ele>75.12890625</ele>
      </trkpt>
      <trkpt lat="42.185056339949369" lon="-8.78584242425859">
        <ele>75.0390625</ele>
      </trkpt>
      <trkpt lat="42.185127418488264" lon="-8.785790456458926">
        <ele>74.76953125</ele>
      </trkpt>
      <trkpt lat="42.185197742655873" lon="-8.785723987966776">
        <ele>74.60546875</ele>
      </trkpt>
      <trkpt lat="42.185264462605119" lon="-8.785634469240904">
        <ele>74.6484375</ele>
      </trkpt>
      <trkpt lat="42.185319699347019" lon="-8.785549895837903">
        <ele>74.73046875</ele>
      </trkpt>
      <trkpt lat="42.18537300825119" lon="-8.785459706559777">
        <ele>74.83203125</ele>
      </trkpt>
      <trkpt lat="42.185428915545344" lon="-8.785363733768463">
        <ele>74.9375</ele>
      </trkpt>
      <trkpt lat="42.185478704050183" lon="-8.785275556147099">
        <ele>75.08203125</ele>
      </trkpt>
      <trkpt lat="42.185536623001099" lon="-8.785182684659958">
        <ele>75.109375</ele>
      </trkpt>
      <trkpt lat="42.185591189190745" lon="-8.78509534522891">
        <ele>75.078125</ele>
      </trkpt>
      <trkpt lat="42.185643743723631" lon="-8.785002557560802">
        <ele>75.0625</ele>
      </trkpt>
      <trkpt lat="42.185696130618453" lon="-8.784906500950456">
        <ele>75.12890625</ele>
      </trkpt>
      <trkpt lat="42.185742147266865" lon="-8.784817066043615">
        <ele>75.58203125</ele>
      </trkpt>
      <trkpt lat="42.185792438685894" lon="-8.784723524004221">
        <ele>75.9453125</ele>
      </trkpt>
      <trkpt lat="42.185842897742987" lon="-8.784628137946129">
        <ele>76.24609375</ele>
      </trkpt>
      <trkpt lat="42.185889584943652" lon="-8.784522442147136">
        <ele>76.60546875</ele>
      </trkpt>
      <trkpt lat="42.185928812250495" lon="-8.78442688845098">
        <ele>76.66015625</ele>
      </trkpt>
      <trkpt lat="42.185969213023782" lon="-8.784329909831285">
        <ele>76.3203125</ele>
      </trkpt>
      <trkpt lat="42.185990167781711" lon="-8.784224633127451">
        <ele>76.3984375</ele>
      </trkpt>
      <trkpt lat="42.185977175831795" lon="-8.784102760255337">
        <ele>77.46875</ele>
      </trkpt>
      <trkpt lat="42.185959657654166" lon="-8.783979630097747">
        <ele>78.6171875</ele>
      </trkpt>
      <trkpt lat="42.185939289629459" lon="-8.783861696720123">
        <ele>79.28515625</ele>
      </trkpt>
      <trkpt lat="42.18590903095901" lon="-8.783748960122466">
        <ele>80.3671875</ele>
      </trkpt>
      <trkpt lat="42.185872904956341" lon="-8.783645192161202">
        <ele>81.76171875</ele>
      </trkpt>
      <trkpt lat="42.185827391222119" lon="-8.783545531332493">
        <ele>83.140625</ele>
      </trkpt>
      <trkpt lat="42.185805849730968" lon="-8.783431118354201">
        <ele>83.92578125</ele>
      </trkpt>
      <trkpt lat="42.185793947428465" lon="-8.78330891020596">
        <ele>84.484375</ele>
      </trkpt>
      <trkpt lat="42.185783386230469" lon="-8.783199274912477">
        <ele>84.99609375</ele>
      </trkpt>
      <trkpt lat="42.185770226642489" lon="-8.783078575506806">
        <ele>85.62890625</ele>
      </trkpt>
      <trkpt lat="42.185753798112273" lon="-8.782960306853056">
        <ele>86.25</ele>
      </trkpt>
      <trkpt lat="42.18570769764483" lon="-8.782854694873095">
        <ele>87.83984375</ele>
      </trkpt>
      <trkpt lat="42.185671404004097" lon="-8.782737432047725">
        <ele>89.20703125</ele>
      </trkpt>
      <trkpt lat="42.185643240809441" lon="-8.782633496448398">
        <ele>90.34375</ele>
      </trkpt>
      <trkpt lat="42.185613317415118" lon="-8.782524447888136">
        <ele>90.59375</ele>
      </trkpt>
      <trkpt lat="42.185557577759027" lon="-8.782439874485135">
        <ele>91.77734375</ele>
      </trkpt>
      <trkpt lat="42.185493372380733" lon="-8.782360330224037">
        <ele>93.37890625</ele>
      </trkpt>
      <trkpt lat="42.185446349903941" lon="-8.782263016328216">
        <ele>94.28125</ele>
      </trkpt>
      <trkpt lat="42.185416929423809" lon="-8.782148770987988">
        <ele>94.44921875</ele>
      </trkpt>
      <trkpt lat="42.185406032949686" lon="-8.782039638608694">
        <ele>93.640625</ele>
      </trkpt>
      <trkpt lat="42.185410307720304" lon="-8.781926818192005">
        <ele>92.20703125</ele>
      </trkpt>
      <trkpt lat="42.185426652431488" lon="-8.781819948926568">
        <ele>90.34765625</ele>
      </trkpt>
      <trkpt lat="42.185429586097598" lon="-8.781702099367976">
        <ele>88.88671875</ele>
      </trkpt>
      <trkpt lat="42.18542137183249" lon="-8.781585423275828">
        <ele>87.78125</ele>
      </trkpt>
      <trkpt lat="42.185416594147682" lon="-8.781474782153964">
        <ele>86.59375</ele>
      </trkpt>
      <trkpt lat="42.185426149517298" lon="-8.781369002535939">
        <ele>84.86328125</ele>
      </trkpt>
      <trkpt lat="42.185443080961704" lon="-8.781256601214409">
        <ele>82.7265625</ele>
      </trkpt>
      <trkpt lat="42.185461353510618" lon="-8.781139841303229">
        <ele>80.52734375</ele>
      </trkpt>
      <trkpt lat="42.185484152287245" lon="-8.781010843813419">
        <ele>78.00390625</ele>
      </trkpt>
      <trkpt lat="42.185498904436827" lon="-8.780887294560671">
        <ele>75.88671875</ele>
      </trkpt>
      <trkpt lat="42.185504687950015" lon="-8.780824849382043">
        <ele>74.88671875</ele>
      </trkpt>
      <trkpt lat="42.185554560273886" lon="-8.780675567686558">
        <ele>71.28125</ele>
      </trkpt>
      <trkpt lat="42.185562942177057" lon="-8.780559897422791">
        <ele>70</ele>
      </trkpt>
      <trkpt lat="42.185570569708943" lon="-8.780440371483564">
        <ele>68.7109375</ele>
      </trkpt>
      <trkpt lat="42.185578281059861" lon="-8.780328053981066">
        <ele>67.47265625</ele>
      </trkpt>
      <trkpt lat="42.185590099543333" lon="-8.780202995985746">
        <ele>66.04296875</ele>
      </trkpt>
      <trkpt lat="42.185611138120294" lon="-8.780088080093265">
        <ele>64.29296875</ele>
      </trkpt>
      <trkpt lat="42.185629410669208" lon="-8.779976014047861">
        <ele>62.68359375</ele>
      </trkpt>
      <trkpt lat="42.185661429539323" lon="-8.779872162267566">
        <ele>60.4921875</ele>
      </trkpt>
      <trkpt lat="42.185682551935315" lon="-8.77976537682116">
        <ele>58.94921875</ele>
      </trkpt>
      <trkpt lat="42.185690430924296" lon="-8.779638139531016">
        <ele>58.01953125</ele>
      </trkpt>
      <trkpt lat="42.185693951323628" lon="-8.779522301629186">
        <ele>57.34375</ele>
      </trkpt>
      <trkpt lat="42.185709122568369" lon="-8.779408140107989">
        <ele>56.15234375</ele>
      </trkpt>
      <trkpt lat="42.18573410063982" lon="-8.779303533956409">
        <ele>54.86328125</ele>
      </trkpt>
      <trkpt lat="42.185779698193073" lon="-8.779212338849902">
        <ele>52.8828125</ele>
      </trkpt>
      <trkpt lat="42.18584205955267" lon="-8.779140086844563">
        <ele>50.2734375</ele>
      </trkpt>
      <trkpt lat="42.185911629348993" lon="-8.779063895344734">
        <ele>48.91015625</ele>
      </trkpt>
      <trkpt lat="42.185981869697571" lon="-8.779007904231548">
        <ele>48.58203125</ele>
      </trkpt>
      <trkpt lat="42.186062335968018" lon="-8.778954511508346">
        <ele>48.24609375</ele>
      </trkpt>
      <trkpt lat="42.186136934906244" lon="-8.778904806822538">
        <ele>48.0078125</ele>
      </trkpt>
      <trkpt lat="42.186214383691549" lon="-8.778842277824879">
        <ele>48.03515625</ele>
      </trkpt>
      <trkpt lat="42.18628378584981" lon="-8.778776312246919">
        <ele>48.15234375</ele>
      </trkpt>
      <trkpt lat="42.186363413929939" lon="-8.778705820441246">
        <ele>48.26953125</ele>
      </trkpt>
      <trkpt lat="42.186438012868166" lon="-8.778622504323721">
        <ele>48.515625</ele>
      </trkpt>
      <trkpt lat="42.18651294708252" lon="-8.778546396642923">
        <ele>48.72265625</ele>
      </trkpt>
      <trkpt lat="42.186583774164319" lon="-8.778466349467635">
        <ele>48.9921875</ele>
      </trkpt>
      <trkpt lat="42.186647979542613" lon="-8.778387475758791">
        <ele>49.328125</ele>
      </trkpt>
      <trkpt lat="42.18671671114862" lon="-8.778308015316725">
        <ele>49.59765625</ele>
      </trkpt>
      <trkpt lat="42.186783514916897" lon="-8.778232913464308">
        <ele>49.78515625</ele>
      </trkpt>
      <trkpt lat="42.186840595677495" lon="-8.778147585690022">
        <ele>49.90234375</ele>
      </trkpt>
      <trkpt lat="42.186900526285172" lon="-8.778050942346454">
        <ele>49.96875</ele>
      </trkpt>
      <trkpt lat="42.186959786340594" lon="-8.777961088344455">
        <ele>49.94921875</ele>
      </trkpt>
      <trkpt lat="42.187018459662795" lon="-8.777863774448633">
        <ele>49.96875</ele>
      </trkpt>
      <trkpt lat="42.187069002538919" lon="-8.777765622362494">
        <ele>50.0234375</ele>
      </trkpt>
      <trkpt lat="42.187122646719217" lon="-8.777661100029945">
        <ele>50.0234375</ele>
      </trkpt>
      <trkpt lat="42.187175955623388" lon="-8.777565211057663">
        <ele>49.9140625</ele>
      </trkpt>
      <trkpt lat="42.187228593975306" lon="-8.777465214952826">
        <ele>49.99609375</ele>
      </trkpt>
      <trkpt lat="42.187277544289827" lon="-8.777375277131796">
        <ele>50.2890625</ele>
      </trkpt>
      <trkpt lat="42.18732800334692" lon="-8.777280477806926">
        <ele>50.7734375</ele>
      </trkpt>
      <trkpt lat="42.187382653355598" lon="-8.777183666825294">
        <ele>51.19921875</ele>
      </trkpt>
      <trkpt lat="42.187439650297165" lon="-8.777103032916784">
        <ele>51.421875</ele>
      </trkpt>
      <trkpt lat="42.187511147931218" lon="-8.77701292745769">
        <ele>51.51171875</ele>
      </trkpt>
      <trkpt lat="42.187577448785305" lon="-8.776936652138829">
        <ele>51.46875</ele>
      </trkpt>
      <trkpt lat="42.187649616971612" lon="-8.776876134797931">
        <ele>51.234375</ele>
      </trkpt>
      <trkpt lat="42.187725892290473" lon="-8.776827352121472">
        <ele>50.890625</ele>
      </trkpt>
      <trkpt lat="42.187794120982289" lon="-8.776788208633661">
        <ele>50.87890625</ele>
      </trkpt>
      <trkpt lat="42.188348416239023" lon="-8.77651697024703">
        <ele>50.05859375</ele>
      </trkpt>
      <trkpt lat="42.188348416239023" lon="-8.776515461504459">
        <ele>50.0703125</ele>
      </trkpt>
      <trkpt lat="42.188783353194594" lon="-8.776426697149873">
        <ele>49.4140625</ele>
      </trkpt>
      <trkpt lat="42.188863735646009" lon="-8.776421081274748">
        <ele>49.23828125</ele>
      </trkpt>
      <trkpt lat="42.18894830904901" lon="-8.77641043625772">
        <ele>49.078125</ele>
      </trkpt>
      <trkpt lat="42.189036486670375" lon="-8.776389816775918">
        <ele>48.96875</ele>
      </trkpt>
      <trkpt lat="42.189115695655346" lon="-8.776362407952547">
        <ele>48.90234375</ele>
      </trkpt>
      <trkpt lat="42.189192725345492" lon="-8.776324354112148">
        <ele>48.68359375</ele>
      </trkpt>
      <trkpt lat="42.18927713111043" lon="-8.776301387697458">
        <ele>48.31640625</ele>
      </trkpt>
      <trkpt lat="42.189358184114099" lon="-8.776279175654054">
        <ele>47.9453125</ele>
      </trkpt>
      <trkpt lat="42.189448038116097" lon="-8.776264758780599">
        <ele>47.47265625</ele>
      </trkpt>
      <trkpt lat="42.189539987593889" lon="-8.776252605021">
        <ele>46.96875</ele>
      </trkpt>
      <trkpt lat="42.189621962606907" lon="-8.776246486231685">
        <ele>46.484375</ele>
      </trkpt>
      <trkpt lat="42.189715085551143" lon="-8.776242211461067">
        <ele>45.91796875</ele>
      </trkpt>
      <trkpt lat="42.189808124676347" lon="-8.77623793669045">
        <ele>45.34765625</ele>
      </trkpt>
      <trkpt lat="42.189896386116743" lon="-8.776235841214657">
        <ele>44.796875</ele>
      </trkpt>
      <trkpt lat="42.189978361129761" lon="-8.776227291673422">
        <ele>44.3046875</ele>
      </trkpt>
      <trkpt lat="42.190064275637269" lon="-8.77621010877192">
        <ele>43.8359375</ele>
      </trkpt>
      <trkpt lat="42.19014348462224" lon="-8.77619007602334">
        <ele>43.46484375</ele>
      </trkpt>
      <trkpt lat="42.190234092995524" lon="-8.776170294731855">
        <ele>43.0390625</ele>
      </trkpt>
      <trkpt lat="42.190316068008542" lon="-8.776155794039369">
        <ele>42.6484375</ele>
      </trkpt>
      <trkpt lat="42.190401228144765" lon="-8.776135426014662">
        <ele>42.26171875</ele>
      </trkpt>
      <trkpt lat="42.190488735213876" lon="-8.776115057989955">
        <ele>41.890625</ele>
      </trkpt>
      <trkpt lat="42.190569955855608" lon="-8.776084799319506">
        <ele>41.50390625</ele>
      </trkpt>
      <trkpt lat="42.190660731866956" lon="-8.776050852611661">
        <ele>41.046875</ele>
      </trkpt>
      <trkpt lat="42.190742706879973" lon="-8.776019755750895">
        <ele>40.62890625</ele>
      </trkpt>
      <trkpt lat="42.190828956663609" lon="-8.775982372462749">
        <ele>40.19921875</ele>
      </trkpt>
      <trkpt lat="42.190918056294322" lon="-8.775937361642718">
        <ele>39.7734375</ele>
      </trkpt>
      <trkpt lat="42.190993493422866" lon="-8.775896206498146">
        <ele>39.3203125</ele>
      </trkpt>
      <trkpt lat="42.191070606932044" lon="-8.775855218991637">
        <ele>38.703125</ele>
      </trkpt>
      <trkpt lat="42.191148558631539" lon="-8.775808364152908">
        <ele>38.08203125</ele>
      </trkpt>
      <trkpt lat="42.191226510331035" lon="-8.775752875953913">
        <ele>37.46875</ele>
      </trkpt>
      <trkpt lat="42.191306725144386" lon="-8.775688000023365">
        <ele>36.8359375</ele>
      </trkpt>
      <trkpt lat="42.191383419558406" lon="-8.775612562894821">
        <ele>36.42578125</ele>
      </trkpt>
      <trkpt lat="42.191461957991123" lon="-8.775540813803673">
        <ele>36.01171875</ele>
      </trkpt>
      <trkpt lat="42.19153362326324" lon="-8.77547275274992">
        <ele>35.66015625</ele>
      </trkpt>
      <trkpt lat="42.191598163917661" lon="-8.775389520451427">
        <ele>35.5078125</ele>
      </trkpt>
      <trkpt lat="42.191660441458225" lon="-8.775319783017039">
        <ele>35.3203125</ele>
      </trkpt>
      <trkpt lat="42.19166312366724" lon="-8.775318274274468">
        <ele>35.3046875</ele>
      </trkpt>
      <trkpt lat="42.192323449999094" lon="-8.774634478613734">
        <ele>33.91015625</ele>
      </trkpt>
      <trkpt lat="42.192375082522631" lon="-8.774546887725592">
        <ele>34.16796875</ele>
      </trkpt>
      <trkpt lat="42.192419758066535" lon="-8.77445544116199">
        <ele>34.50390625</ele>
      </trkpt>
      <trkpt lat="42.192471390590072" lon="-8.774368353188038">
        <ele>34.76171875</ele>
      </trkpt>
      <trkpt lat="42.192521849647164" lon="-8.774258298799396">
        <ele>35.0859375</ele>
      </trkpt>
      <trkpt lat="42.192582366988063" lon="-8.774135671555996">
        <ele>35.01171875</ele>
      </trkpt>
      <trkpt lat="42.192638861015439" lon="-8.774030562490225">
        <ele>34.890625</ele>
      </trkpt>
      <trkpt lat="42.19268043525517" lon="-8.773937104269862">
        <ele>34.83984375</ele>
      </trkpt>
      <trkpt lat="42.192728715017438" lon="-8.773840963840485">
        <ele>34.73046875</ele>
      </trkpt>
      <trkpt lat="42.192786214873195" lon="-8.773738201707602">
        <ele>34.49609375</ele>
      </trkpt>
      <trkpt lat="42.192838601768017" lon="-8.773651197552681">
        <ele>34.23046875</ele>
      </trkpt>
      <trkpt lat="42.192893587052822" lon="-8.773552961647511">
        <ele>33.91796875</ele>
      </trkpt>
      <trkpt lat="42.19294672831893" lon="-8.77345229499042">
        <ele>33.578125</ele>
      </trkpt>
      <trkpt lat="42.192994924262166" lon="-8.773360596969724">
        <ele>33.23046875</ele>
      </trkpt>
      <trkpt lat="42.193049071356654" lon="-8.773270659148693">
        <ele>32.8984375</ele>
      </trkpt>
      <trkpt lat="42.193099949508905" lon="-8.77318549901247">
        <ele>32.60546875</ele>
      </trkpt>
      <trkpt lat="42.193155270069838" lon="-8.773107463493943">
        <ele>32.265625</ele>
      </trkpt>
      <trkpt lat="42.193179577589035" lon="-8.773009730502963">
        <ele>32.27734375</ele>
      </trkpt>
      <trkpt lat="42.193194748833776" lon="-8.772901436313987">
        <ele>32.41015625</ele>
      </trkpt>
      <trkpt lat="42.193209333345294" lon="-8.772794231772423">
        <ele>32.69140625</ele>
      </trkpt>
      <trkpt lat="42.193242441862822" lon="-8.772696582600474">
        <ele>32.76953125</ele>
      </trkpt>
      <trkpt lat="42.193311005830765" lon="-8.772633885964751">
        <ele>32.375</ele>
      </trkpt>
      <trkpt lat="42.193382084369659" lon="-8.772580493241549">
        <ele>31.91796875</ele>
      </trkpt>
      <trkpt lat="42.193445703014731" lon="-8.772514192387462">
        <ele>31.59765625</ele>
      </trkpt>
      <trkpt lat="42.193496245890856" lon="-8.772430792450905">
        <ele>31.49609375</ele>
      </trkpt>
      <trkpt lat="42.193554835394025" lon="-8.772340603172779">
        <ele>31.87890625</ele>
      </trkpt>
      <trkpt lat="42.193611832335591" lon="-8.772256784141064">
        <ele>32.15625</ele>
      </trkpt>
      <trkpt lat="42.193662375211716" lon="-8.772168438881636">
        <ele>32.4921875</ele>
      </trkpt>
      <trkpt lat="42.193675534799695" lon="-8.772145053371787">
        <ele>32.57421875</ele>
      </trkpt>
      <trkpt lat="42.193917939439416" lon="-8.771796450018883">
        <ele>32.265625</ele>
      </trkpt>
      <trkpt lat="42.193941492587328" lon="-8.771682204678655">
        <ele>32.546875</ele>
      </trkpt>
      <trkpt lat="42.193973176181316" lon="-8.771579777821898">
        <ele>32.63671875</ele>
      </trkpt>
      <trkpt lat="42.194016929715872" lon="-8.771467795595527">
        <ele>32.4375</ele>
      </trkpt>
      <trkpt lat="42.194062694907188" lon="-8.771368637681007">
        <ele>31.9375</ele>
      </trkpt>
      <trkpt lat="42.194107873365283" lon="-8.771271407604218">
        <ele>31.44140625</ele>
      </trkpt>
      <trkpt lat="42.194154728204012" lon="-8.771180883049965">
        <ele>30.91015625</ele>
      </trkpt>
      <trkpt lat="42.19419957138598" lon="-8.771087508648634">
        <ele>30.41796875</ele>
      </trkpt>
      <trkpt lat="42.194251036271453" lon="-8.770980723202229">
        <ele>30.125</ele>
      </trkpt>
      <trkpt lat="42.194296047091484" lon="-8.770883409306407">
        <ele>29.88671875</ele>
      </trkpt>
      <trkpt lat="42.194344913586974" lon="-8.770788442343473">
        <ele>29.65234375</ele>
      </trkpt>
      <trkpt lat="42.194393528625369" lon="-8.770694145932794">
        <ele>29.46484375</ele>
      </trkpt>
      <trkpt lat="42.194439880549908" lon="-8.770585097372532">
        <ele>29.3515625</ele>
      </trkpt>
      <trkpt lat="42.194477850571275" lon="-8.770483927801251">
        <ele>29.25</ele>
      </trkpt>
      <trkpt lat="42.194515401497483" lon="-8.770382674410939">
        <ele>29.1796875</ele>
      </trkpt>
      <trkpt lat="42.194551359862089" lon="-8.770284270867705">
        <ele>29.14453125</ele>
      </trkpt>
      <trkpt lat="42.194589916616678" lon="-8.770177150145173">
        <ele>29.14453125</ele>
      </trkpt>
      <trkpt lat="42.194622354581952" lon="-8.770053768530488">
        <ele>29.19921875</ele>
      </trkpt>
      <trkpt lat="42.194649176672101" lon="-8.769933823496103">
        <ele>29.25</ele>
      </trkpt>
      <trkpt lat="42.194663258269429" lon="-8.769824355840683">
        <ele>29.33984375</ele>
      </trkpt>
      <trkpt lat="42.194685973227024" lon="-8.769701728597283">
        <ele>29.41015625</ele>
      </trkpt>
      <trkpt lat="42.194703407585621" lon="-8.769585639238358">
        <ele>29.5</ele>
      </trkpt>
      <trkpt lat="42.194722350686789" lon="-8.769476003944874">
        <ele>29.578125</ele>
      </trkpt>
      <trkpt lat="42.19474540092051" lon="-8.769355891272426">
        <ele>29.66796875</ele>
      </trkpt>
      <trkpt lat="42.194764595478773" lon="-8.769249944016337">
        <ele>29.75390625</ele>
      </trkpt>
      <trkpt lat="42.194775994867086" lon="-8.769184984266758">
        <ele>29.8203125</ele>
      </trkpt>
      <trkpt lat="42.194826034829021" lon="-8.768837219104171">
        <ele>30.4921875</ele>
      </trkpt>
      <trkpt lat="42.194841373711824" lon="-8.768726326525211">
        <ele>30.6953125</ele>
      </trkpt>
      <trkpt lat="42.194862999022007" lon="-8.768603950738907">
        <ele>30.8515625</ele>
      </trkpt>
      <trkpt lat="42.194891413673759" lon="-8.768498171120882">
        <ele>30.9453125</ele>
      </trkpt>
      <trkpt lat="42.194929467514157" lon="-8.768394403159618">
        <ele>31</ele>
      </trkpt>
      <trkpt lat="42.194969449192286" lon="-8.768287533894181">
        <ele>31.0546875</ele>
      </trkpt>
      <trkpt lat="42.195010939612985" lon="-8.76818242482841">
        <ele>31</ele>
      </trkpt>
      <trkpt lat="42.195053771138191" lon="-8.768086284399033">
        <ele>30.9453125</ele>
      </trkpt>
      <trkpt lat="42.195104565471411" lon="-8.767970446497202">
        <ele>30.92578125</ele>
      </trkpt>
      <trkpt lat="42.195166004821658" lon="-8.76787749119103">
        <ele>30.859375</ele>
      </trkpt>
      <trkpt lat="42.195217637345195" lon="-8.767788475379348">
        <ele>30.8125</ele>
      </trkpt>
      <trkpt lat="42.195287542417645" lon="-8.767717061564326">
        <ele>30.6875</ele>
      </trkpt>
      <trkpt lat="42.195352921262383" lon="-8.767652353271842">
        <ele>30.5390625</ele>
      </trkpt>
      <trkpt lat="42.195412432774901" lon="-8.767579011619091">
        <ele>30.40234375</ele>
      </trkpt>
      <trkpt lat="42.195420730859041" lon="-8.76756870187819">
        <ele>30.3828125</ele>
      </trkpt>
      <trkpt lat="42.195638157427311" lon="-8.767143487930298">
        <ele>29.9375</ele>
      </trkpt>
      <trkpt lat="42.195673529058695" lon="-8.76704634167254">
        <ele>29.90234375</ele>
      </trkpt>
      <trkpt lat="42.195704793557525" lon="-8.766942322254181">
        <ele>29.875</ele>
      </trkpt>
      <trkpt lat="42.195714684203267" lon="-8.766922540962696">
        <ele>29.8515625</ele>
      </trkpt>
      <trkpt lat="42.195636983960867" lon="-8.766620373353362">
        <ele>30.078125</ele>
      </trkpt>
      <trkpt lat="42.195592056959867" lon="-8.766398001462221">
        <ele>30.11328125</ele>
      </trkpt>
      <trkpt lat="42.195575293153524" lon="-8.766358103603125">
        <ele>30.1171875</ele>
      </trkpt>
      <trkpt lat="42.195564061403275" lon="-8.766308566555381">
        <ele>30.078125</ele>
      </trkpt>
      <trkpt lat="42.19555308111012" lon="-8.766268668696284">
        <ele>30.05859375</ele>
      </trkpt>
      <trkpt lat="42.19554478302598" lon="-8.766230195760727">
        <ele>30.02734375</ele>
      </trkpt>
      <trkpt lat="42.195537742227316" lon="-8.766195075586438">
        <ele>29.99609375</ele>
      </trkpt>
      <trkpt lat="42.195528522133827" lon="-8.766160123050213">
        <ele>29.97265625</ele>
      </trkpt>
      <trkpt lat="42.195511003956199" lon="-8.766123158857226">
        <ele>29.9921875</ele>
      </trkpt>
      <trkpt lat="42.195494575425982" lon="-8.766083512455225">
        <ele>30</ele>
      </trkpt>
      <trkpt lat="42.195478901267052" lon="-8.766044955700636">
        <ele>30.0078125</ele>
      </trkpt>
      <trkpt lat="42.195465909317136" lon="-8.766011176630855">
        <ele>30.0078125</ele>
      </trkpt>
      <trkpt lat="42.195454426109791" lon="-8.765975553542376">
        <ele>30</ele>
      </trkpt>
      <trkpt lat="42.195442439988256" lon="-8.765938589349389">
        <ele>29.95703125</ele>
      </trkpt>
      <trkpt lat="42.195431375876069" lon="-8.765898523852229">
        <ele>29.85546875</ele>
      </trkpt>
      <trkpt lat="42.195421317592263" lon="-8.765861140564084">
        <ele>29.7578125</ele>
      </trkpt>
      <trkpt lat="42.195411343127489" lon="-8.76582476310432">
        <ele>29.65625</ele>
      </trkpt>
      <trkpt lat="42.195399692282081" lon="-8.765785619616508">
        <ele>29.5546875</ele>
      </trkpt>
      <trkpt lat="42.19538695178926" lon="-8.765748906880617">
        <ele>29.45703125</ele>
      </trkpt>
      <trkpt lat="42.195376558229327" lon="-8.765708925202489">
        <ele>29.3359375</ele>
      </trkpt>
      <trkpt lat="42.195369433611631" lon="-8.7656738050282">
        <ele>29.21875</ele>
      </trkpt>
      <trkpt lat="42.195361973717809" lon="-8.765638517215848">
        <ele>29.09765625</ele>
      </trkpt>
      <trkpt lat="42.195354932919145" lon="-8.76560146920383">
        <ele>28.96484375</ele>
      </trkpt>
      <trkpt lat="42.19535325653851" lon="-8.765563080087304">
        <ele>28.80859375</ele>
      </trkpt>
      <trkpt lat="42.195356860756874" lon="-8.765523098409176">
        <ele>28.625</ele>
      </trkpt>
      <trkpt lat="42.195367170497775" lon="-8.765483619645238">
        <ele>28.40234375</ele>
      </trkpt>
      <trkpt lat="42.195380413904786" lon="-8.765448080375791">
        <ele>28.140625</ele>
      </trkpt>
      <trkpt lat="42.195392483845353" lon="-8.765410864725709">
        <ele>27.87890625</ele>
      </trkpt>
      <trkpt lat="42.19540405087173" lon="-8.76537281088531">
        <ele>27.61328125</ele>
      </trkpt>
      <trkpt lat="42.195411762222648" lon="-8.765337523072958">
        <ele>27.37890625</ele>
      </trkpt>
      <trkpt lat="42.195419305935502" lon="-8.765301145613194">
        <ele>27.140625</ele>
      </trkpt>
      <trkpt lat="42.195426262915134" lon="-8.765264684334397">
        <ele>26.90625</ele>
      </trkpt>
      <trkpt lat="42.195432214066386" lon="-8.765225457027555">
        <ele>26.66015625</ele>
      </trkpt>
      <trkpt lat="42.195436153560877" lon="-8.765183966606855">
        <ele>26.40625</ele>
      </trkpt>
      <trkpt lat="42.195440093055367" lon="-8.765147672966123">
        <ele>26.18359375</ele>
      </trkpt>
      <trkpt lat="42.195440763607621" lon="-8.765105931088328">
        <ele>25.9375</ele>
      </trkpt>
      <trkpt lat="42.195440176874399" lon="-8.765067793428898">
        <ele>25.71484375</ele>
      </trkpt>
      <trkpt lat="42.195439673960209" lon="-8.765029404312372">
        <ele>25.48828125</ele>
      </trkpt>
      <trkpt lat="42.195433638989925" lon="-8.7649882491678">
        <ele>25.21484375</ele>
      </trkpt>
      <trkpt lat="42.19542215578258" lon="-8.764949105679989">
        <ele>24.96875</ele>
      </trkpt>
      <trkpt lat="42.195411426946521" lon="-8.764913398772478">
        <ele>24.75390625</ele>
      </trkpt>
      <trkpt lat="42.195396088063717" lon="-8.76487928442657">
        <ele>24.5625</ele>
      </trkpt>
      <trkpt lat="42.195379910990596" lon="-8.764839470386505">
        <ele>24.34375</ele>
      </trkpt>
      <trkpt lat="42.195366248488426" lon="-8.76480259001255">
        <ele>24.1484375</ele>
      </trkpt>
      <trkpt lat="42.195355352014303" lon="-8.764763111248612">
        <ele>23.93359375</ele>
      </trkpt>
      <trkpt lat="42.195341773331165" lon="-8.764723967760801">
        <ele>23.734375</ele>
      </trkpt>
      <trkpt lat="42.195328278467059" lon="-8.764688093215227">
        <ele>23.56640625</ele>
      </trkpt>
      <trkpt lat="42.195313610136509" lon="-8.764644507318735">
        <ele>23.359375</ele>
      </trkpt>
      <trkpt lat="42.19530095346272" lon="-8.764610895887017">
        <ele>23.21484375</ele>
      </trkpt>
      <trkpt lat="42.195288632065058" lon="-8.764570998027921">
        <ele>23.0390625</ele>
      </trkpt>
      <trkpt lat="42.195275975391269" lon="-8.764535123482347">
        <ele>22.8828125</ele>
      </trkpt>
      <trkpt lat="42.195262648165226" lon="-8.764490783214569">
        <ele>22.69140625</ele>
      </trkpt>
      <trkpt lat="42.195250494405627" lon="-8.764456165954471">
        <ele>22.55859375</ele>
      </trkpt>
      <trkpt lat="42.195239597931504" lon="-8.76441752538085">
        <ele>22.40234375</ele>
      </trkpt>
      <trkpt lat="42.195229204371572" lon="-8.764375364407897">
        <ele>22.234375</ele>
      </trkpt>
      <trkpt lat="42.195223672315478" lon="-8.764334209263325">
        <ele>22.04296875</ele>
      </trkpt>
      <trkpt lat="42.195222415030003" lon="-8.764296155422926">
        <ele>21.84375</ele>
      </trkpt>
      <trkpt lat="42.195225516334176" lon="-8.764259023591876">
        <ele>21.6171875</ele>
      </trkpt>
      <trkpt lat="42.19523255713284" lon="-8.76421770080924">
        <ele>21.33984375</ele>
      </trkpt>
      <trkpt lat="42.195243453606963" lon="-8.76418056897819">
        <ele>21.046875</ele>
      </trkpt>
      <trkpt lat="42.195256361737847" lon="-8.764141006395221">
        <ele>20.71875</ele>
      </trkpt>
      <trkpt lat="42.195269437506795" lon="-8.764100018888712">
        <ele>20.36328125</ele>
      </trkpt>
      <trkpt lat="42.195280836895108" lon="-8.764065569266677">
        <ele>20.02734375</ele>
      </trkpt>
      <trkpt lat="42.195292403921485" lon="-8.764028018340468">
        <ele>19.6640625</ele>
      </trkpt>
      <trkpt lat="42.195301959291101" lon="-8.763988455757499">
        <ele>19.30859375</ele>
      </trkpt>
      <trkpt lat="42.195314783602953" lon="-8.763953670859337">
        <ele>18.95703125</ele>
      </trkpt>
      <trkpt lat="42.195329116657376" lon="-8.763910504058003">
        <ele>18.53515625</ele>
      </trkpt>
      <trkpt lat="42.195342108607292" lon="-8.763870103284717">
        <ele>18.1484375</ele>
      </trkpt>
      <trkpt lat="42.195355352014303" lon="-8.763830037787557">
        <ele>17.76171875</ele>
      </trkpt>
      <trkpt lat="42.195369601249695" lon="-8.763791481032968">
        <ele>17.37890625</ele>
      </trkpt>
      <trkpt lat="42.19538745470345" lon="-8.763756109401584">
        <ele>16.9921875</ele>
      </trkpt>
      <trkpt lat="42.195407906547189" lon="-8.763718893751502">
        <ele>16.5703125</ele>
      </trkpt>
      <trkpt lat="42.195423161610961" lon="-8.76368067227304">
        <ele>16.1875</ele>
      </trkpt>
      <trkpt lat="42.195436824113131" lon="-8.763642366975546">
        <ele>15.8203125</ele>
      </trkpt>
      <trkpt lat="42.195451324805617" lon="-8.763604983687401">
        <ele>15.515625</ele>
      </trkpt>
      <trkpt lat="42.195463562384248" lon="-8.763568522408605">
        <ele>15.2421875</ele>
      </trkpt>
      <trkpt lat="42.195472698658705" lon="-8.763532061129808">
        <ele>14.98828125</ele>
      </trkpt>
      <trkpt lat="42.195470687001944" lon="-8.763496773317456">
        <ele>14.83203125</ele>
      </trkpt>
      <trkpt lat="42.195458449423313" lon="-8.763462575152516">
        <ele>14.75390625</ele>
      </trkpt>
      <trkpt lat="42.19545534811914" lon="-8.763446230441332">
        <ele>14.6953125</ele>
      </trkpt>
      <trkpt lat="42.195394663140178" lon="-8.763341205194592">
        <ele>14.59765625</ele>
      </trkpt>
      <trkpt lat="42.195381671190262" lon="-8.763305163010955">
        <ele>14.50390625</ele>
      </trkpt>
      <trkpt lat="42.195370439440012" lon="-8.763269791379571">
        <ele>14.39453125</ele>
      </trkpt>
      <trkpt lat="42.195362308993936" lon="-8.763234168291092">
        <ele>14.26171875</ele>
      </trkpt>
      <trkpt lat="42.195348311215639" lon="-8.76319644972682">
        <ele>14.16015625</ele>
      </trkpt>
      <trkpt lat="42.195337750017643" lon="-8.763161161914468">
        <ele>14.0859375</ele>
      </trkpt>
      <trkpt lat="42.195329368114471" lon="-8.763122772797942">
        <ele>14.03515625</ele>
      </trkpt>
      <trkpt lat="42.195319980382919" lon="-8.763088574633002">
        <ele>13.99609375</ele>
      </trkpt>
      <trkpt lat="42.195310508832335" lon="-8.763054208829999">
        <ele>13.953125</ele>
      </trkpt>
      <trkpt lat="42.195300869643688" lon="-8.763016909360886">
        <ele>13.90234375</ele>
      </trkpt>
      <trkpt lat="42.195290392264724" lon="-8.762980783358216">
        <ele>13.8515625</ele>
      </trkpt>
      <trkpt lat="42.19527848996222" lon="-8.762943064793944">
        <ele>13.80078125</ele>
      </trkpt>
      <trkpt lat="42.195270359516144" lon="-8.762906771153212">
        <ele>13.73046875</ele>
      </trkpt>
      <trkpt lat="42.195262061432004" lon="-8.762870896607637">
        <ele>13.66015625</ele>
      </trkpt>
      <trkpt lat="42.195254601538181" lon="-8.762835273519158">
        <ele>13.58203125</ele>
      </trkpt>
      <trkpt lat="42.195245800539851" lon="-8.762801075354218">
        <ele>13.51171875</ele>
      </trkpt>
      <trkpt lat="42.195240603759885" lon="-8.762764362618327">
        <ele>13.4140625</ele>
      </trkpt>
      <trkpt lat="42.195244627073407" lon="-8.762727398425341">
        <ele>13.2734375</ele>
      </trkpt>
      <trkpt lat="42.195258373394608" lon="-8.762697223573923">
        <ele>13.1015625</ele>
      </trkpt>
      <trkpt lat="42.195279160514474" lon="-8.762675011530519">
        <ele>12.9296875</ele>
      </trkpt>
      <trkpt lat="42.195304892957211" lon="-8.762651206925511">
        <ele>12.7421875</ele>
      </trkpt>
      <trkpt lat="42.195333307608962" lon="-8.762625390663743">
        <ele>12.54296875</ele>
      </trkpt>
      <trkpt lat="42.195351663976908" lon="-8.762596473097801">
        <ele>12.37890625</ele>
      </trkpt>
      <trkpt lat="42.19536691904068" lon="-8.76255783252418">
        <ele>12.1953125</ele>
      </trkpt>
      <trkpt lat="42.195370439440012" lon="-8.762516425922513">
        <ele>12.0390625</ele>
      </trkpt>
      <trkpt lat="42.195370439440012" lon="-8.762477952986956">
        <ele>11.90234375</ele>
      </trkpt>
      <trkpt lat="42.195367924869061" lon="-8.762440402060747">
        <ele>11.77734375</ele>
      </trkpt>
      <trkpt lat="42.195363650098443" lon="-8.76240192912519">
        <ele>11.6484375</ele>
      </trkpt>
      <trkpt lat="42.195359542965889" lon="-8.762361612170935">
        <ele>11.5078125</ele>
      </trkpt>
      <trkpt lat="42.195353591814637" lon="-8.762317439541221">
        <ele>11.359375</ele>
      </trkpt>
      <trkpt lat="42.195347640663385" lon="-8.762276284396648">
        <ele>11.2109375</ele>
      </trkpt>
      <trkpt lat="42.195342946797609" lon="-8.762239068746567">
        <ele>11.07421875</ele>
      </trkpt>
      <trkpt lat="42.195340096950531" lon="-8.76219674013555">
        <ele>10.90625</ele>
      </trkpt>
      <trkpt lat="42.195335570722818" lon="-8.762154998257756">
        <ele>10.73828125</ele>
      </trkpt>
      <trkpt lat="42.195330541580915" lon="-8.762116525322199">
        <ele>10.578125</ele>
      </trkpt>
      <trkpt lat="42.195323500782251" lon="-8.762077046558261">
        <ele>10.4140625</ele>
      </trkpt>
      <trkpt lat="42.195321908220649" lon="-8.762061037123203">
        <ele>10.34765625</ele>
      </trkpt>
      <trkpt lat="42.195290643721819" lon="-8.761925166472793">
        <ele>9.74609375</ele>
      </trkpt>
      <trkpt lat="42.195284273475409" lon="-8.761883089318871">
        <ele>9.55859375</ele>
      </trkpt>
      <trkpt lat="42.195277819409966" lon="-8.761839587241411">
        <ele>9.35546875</ele>
      </trkpt>
      <trkpt lat="42.195273293182254" lon="-8.761795833706856">
        <ele>9.15625</ele>
      </trkpt>
      <trkpt lat="42.195267593488097" lon="-8.761743362993002">
        <ele>9.0390625</ele>
      </trkpt>
      <trkpt lat="42.195259630680084" lon="-8.761679828166962">
        <ele>8.91015625</ele>
      </trkpt>
      <trkpt lat="42.195256277918816" lon="-8.761643366888165">
        <ele>8.8359375</ele>
      </trkpt>
      <trkpt lat="42.195253679528832" lon="-8.761598272249103">
        <ele>8.75</ele>
      </trkpt>
      <trkpt lat="42.195251667872071" lon="-8.761561056599021">
        <ele>8.6796875</ele>
      </trkpt>
      <trkpt lat="42.195250997319818" lon="-8.761521326377988">
        <ele>8.60546875</ele>
      </trkpt>
      <trkpt lat="42.195250326767564" lon="-8.761481763795018">
        <ele>8.53515625</ele>
      </trkpt>
      <trkpt lat="42.195248901844025" lon="-8.761439686641097">
        <ele>8.453125</ele>
      </trkpt>
      <trkpt lat="42.195245465263724" lon="-8.761387383565307">
        <ele>8.3515625</ele>
      </trkpt>
      <trkpt lat="42.195243453606963" lon="-8.761350251734257">
        <ele>8.28125</ele>
      </trkpt>
      <trkpt lat="42.195241441950202" lon="-8.761300295591354">
        <ele>8.19921875</ele>
      </trkpt>
      <trkpt lat="42.195238843560219" lon="-8.761249501258135">
        <ele>8.125</ele>
      </trkpt>
      <trkpt lat="42.195238843560219" lon="-8.761212285608053">
        <ele>8.07421875</ele>
      </trkpt>
      <trkpt lat="42.195238843560219" lon="-8.761173812672496">
        <ele>8.0234375</ele>
      </trkpt>
      <trkpt lat="42.195240184664726" lon="-8.761127293109894">
        <ele>7.96484375</ele>
      </trkpt>
      <trkpt lat="42.195240184664726" lon="-8.761084713041782">
        <ele>7.91015625</ele>
      </trkpt>
      <trkpt lat="42.195240184664726" lon="-8.76103525981307">
        <ele>7.84375</ele>
      </trkpt>
      <trkpt lat="42.195239430293441" lon="-8.760988404974341">
        <ele>7.78125</ele>
      </trkpt>
      <trkpt lat="42.19524035230279" lon="-8.760914308950305">
        <ele>7.6875</ele>
      </trkpt>
      <trkpt lat="42.19524035230279" lon="-8.760842056944966">
        <ele>7.625</ele>
      </trkpt>
      <trkpt lat="42.195239514112473" lon="-8.760787742212415">
        <ele>7.6328125</ele>
      </trkpt>
      <trkpt lat="42.195239514112473" lon="-8.760749017819762">
        <ele>7.640625</ele>
      </trkpt>
      <trkpt lat="42.19524135813117" lon="-8.760710712522268">
        <ele>7.6484375</ele>
      </trkpt>
      <trkpt lat="42.195242699235678" lon="-8.76066536642611">
        <ele>7.66015625</ele>
      </trkpt>
      <trkpt lat="42.195242699235678" lon="-8.76062823459506">
        <ele>7.6640625</ele>
      </trkpt>
      <trkpt lat="42.195243453606963" lon="-8.760580290108919">
        <ele>7.671875</ele>
      </trkpt>
      <trkpt lat="42.195245129987597" lon="-8.760526226833463">
        <ele>7.68359375</ele>
      </trkpt>
      <trkpt lat="42.195248147472739" lon="-8.760483898222446">
        <ele>7.69140625</ele>
      </trkpt>
      <trkpt lat="42.1952501591295" lon="-8.760447688400745">
        <ele>7.69921875</ele>
      </trkpt>
      <trkpt lat="42.195253930985928" lon="-8.760408461093903">
        <ele>7.70703125</ele>
      </trkpt>
      <trkpt lat="42.19525795429945" lon="-8.760368060320616">
        <ele>7.734375</ele>
      </trkpt>
      <trkpt lat="42.195264576002955" lon="-8.760325815528631">
        <ele>7.76953125</ele>
      </trkpt>
      <trkpt lat="42.195271113887429" lon="-8.760288348421454">
        <ele>7.796875</ele>
      </trkpt>
      <trkpt lat="42.195276143029332" lon="-8.760251300409436">
        <ele>7.82421875</ele>
      </trkpt>
      <trkpt lat="42.195280669257045" lon="-8.76020603813231">
        <ele>7.8515625</ele>
      </trkpt>
      <trkpt lat="42.195283435285091" lon="-8.760159099474549">
        <ele>7.8828125</ele>
      </trkpt>
      <trkpt lat="42.195287039503455" lon="-8.760110400617123">
        <ele>7.91015625</ele>
      </trkpt>
      <trkpt lat="42.195292906835675" lon="-8.76006337814033">
        <ele>7.93359375</ele>
      </trkpt>
      <trkpt lat="42.19529902562499" lon="-8.760024821385741">
        <ele>7.953125</ele>
      </trkpt>
      <trkpt lat="42.195304809138179" lon="-8.759982828050852">
        <ele>7.96875</ele>
      </trkpt>
      <trkpt lat="42.195311347022653" lon="-8.759936057031155">
        <ele>8.00390625</ele>
      </trkpt>
      <trkpt lat="42.195318136364222" lon="-8.75989674590528">
        <ele>8.1796875</ele>
      </trkpt>
      <trkpt lat="42.195325344800949" lon="-8.759856596589088">
        <ele>8.359375</ele>
      </trkpt>
      <trkpt lat="42.195333391427994" lon="-8.759818207472563">
        <ele>8.52734375</ele>
      </trkpt>
      <trkpt lat="42.195339174941182" lon="-8.759772777557373">
        <ele>8.7265625</ele>
      </trkpt>
      <trkpt lat="42.195344790816307" lon="-8.759736148640513">
        <ele>8.88671875</ele>
      </trkpt>
      <trkpt lat="42.195353172719479" lon="-8.759700106456876">
        <ele>9.0390625</ele>
      </trkpt>
      <trkpt lat="42.195362728089094" lon="-8.759664064273238">
        <ele>9.18359375</ele>
      </trkpt>
      <trkpt lat="42.195373792201281" lon="-8.759623160585761">
        <ele>9.34765625</ele>
      </trkpt>
      <trkpt lat="42.195385945960879" lon="-8.759583598002791">
        <ele>9.5</ele>
      </trkpt>
      <trkpt lat="42.195406816899776" lon="-8.759593823924661">
        <ele>9.40625</ele>
      </trkpt>
      <trkpt lat="42.195433890447021" lon="-8.759603798389435">
        <ele>9.30078125</ele>
      </trkpt>
      <trkpt lat="42.19546465203166" lon="-8.75960161909461">
        <ele>9.23828125</ele>
      </trkpt>
      <trkpt lat="42.19549055211246" lon="-8.759587202221155">
        <ele>9.2421875</ele>
      </trkpt>
      <trkpt lat="42.195513267070055" lon="-8.759565493091941">
        <ele>9.27734375</ele>
      </trkpt>
      <trkpt lat="42.195537155494094" lon="-8.759539509192109">
        <ele>9.328125</ele>
      </trkpt>
      <trkpt lat="42.19555651769042" lon="-8.759513357654214">
        <ele>9.38671875</ele>
      </trkpt>
      <trkpt lat="42.195580070838332" lon="-8.759513860568404">
        <ele>9.32421875</ele>
      </trkpt>
      <trkpt lat="42.195603959262371" lon="-8.759529031813145">
        <ele>9.26171875</ele>
      </trkpt>
      <trkpt lat="42.195630446076393" lon="-8.759532049298286">
        <ele>9.26953125</ele>
      </trkpt>
      <trkpt lat="42.19565374776721" lon="-8.759514028206468">
        <ele>9.35546875</ele>
      </trkpt>
      <trkpt lat="42.195674367249012" lon="-8.759489469230175">
        <ele>9.46484375</ele>
      </trkpt>
      <trkpt lat="42.195693561807275" lon="-8.759459294378757">
        <ele>9.66796875</ele>
      </trkpt>
      <trkpt lat="42.195714768022299" lon="-8.759434819221497">
        <ele>9.87890625</ele>
      </trkpt>
      <trkpt lat="42.195738991722465" lon="-8.75940372236073">
        <ele>10.13671875</ele>
      </trkpt>
      <trkpt lat="42.195757096633315" lon="-8.759374134242535">
        <ele>10.37109375</ele>
      </trkpt>
      <trkpt lat="42.195775453001261" lon="-8.759342283010483">
        <ele>10.625</ele>
      </trkpt>
      <trkpt lat="42.195792719721794" lon="-8.759309006854892">
        <ele>10.8828125</ele>
      </trkpt>
      <trkpt lat="42.19581501558423" lon="-8.759285034611821">
        <ele>11.0625</ele>
      </trkpt>
      <trkpt lat="42.195842424407601" lon="-8.759254356846213">
        <ele>11.28515625</ele>
      </trkpt>
      <trkpt lat="42.195850135758519" lon="-8.759246813133359">
        <ele>11.33984375</ele>
      </trkpt>
      <trkpt lat="42.195904953405261" lon="-8.759196354076266">
        <ele>11.68359375</ele>
      </trkpt>
      <trkpt lat="42.19592934474349" lon="-8.75916232354939">
        <ele>11.9140625</ele>
      </trkpt>
      <trkpt lat="42.195949042215943" lon="-8.759131310507655">
        <ele>12.1171875</ele>
      </trkpt>
      <trkpt lat="42.195967901498079" lon="-8.759102141484618">
        <ele>12.3046875</ele>
      </trkpt>
      <trkpt lat="42.195985168218613" lon="-8.759072553366423">
        <ele>12.4921875</ele>
      </trkpt>
      <trkpt lat="42.196001680567861" lon="-8.7590426299721">
        <ele>12.67578125</ele>
      </trkpt>
      <trkpt lat="42.196016516536474" lon="-8.759011281654239">
        <ele>12.890625</ele>
      </trkpt>
      <trkpt lat="42.196029424667358" lon="-8.758977167308331">
        <ele>13.28515625</ele>
      </trkpt>
      <trkpt lat="42.19604417681694" lon="-8.75893953256309">
        <ele>13.70703125</ele>
      </trkpt>
      <trkpt lat="42.196055995300412" lon="-8.758898545056581">
        <ele>14.16796875</ele>
      </trkpt>
      <trkpt lat="42.196063371375203" lon="-8.758860491216183">
        <ele>14.59375</ele>
      </trkpt>
      <trkpt lat="42.19607544131577" lon="-8.758826712146401">
        <ele>14.9453125</ele>
      </trkpt>
      <trkpt lat="42.196087595075369" lon="-8.758794274181128">
        <ele>15.265625</ele>
      </trkpt>
      <trkpt lat="42.196102598682046" lon="-8.75875529833138">
        <ele>15.625</ele>
      </trkpt>
      <trkpt lat="42.196113746613264" lon="-8.758722105994821">
        <ele>15.92578125</ele>
      </trkpt>
      <trkpt lat="42.196123218163848" lon="-8.758685644716024">
        <ele>16.2578125</ele>
      </trkpt>
      <trkpt lat="42.196131348609924" lon="-8.758650189265609">
        <ele>16.57421875</ele>
      </trkpt>
      <trkpt lat="42.19614190980792" lon="-8.758607693016529">
        <ele>16.9375</ele>
      </trkpt>
      <trkpt lat="42.196150040253997" lon="-8.758569471538067">
        <ele>17.2578125</ele>
      </trkpt>
      <trkpt lat="42.19615900889039" lon="-8.758532088249922">
        <ele>17.58984375</ele>
      </trkpt>
      <trkpt lat="42.196169150993228" lon="-8.75849487259984">
        <ele>17.93359375</ele>
      </trkpt>
      <trkpt lat="42.196177532896399" lon="-8.758458914235234">
        <ele>18.26171875</ele>
      </trkpt>
      <trkpt lat="42.196178874000907" lon="-8.758455561473966">
        <ele>18.2890625</ele>
      </trkpt>
      <trkpt lat="42.196277277544141" lon="-8.75814744271338">
        <ele>20.234375</ele>
      </trkpt>
      <trkpt lat="42.196277277544141" lon="-8.75814693979919">
        <ele>20.23828125</ele>
      </trkpt>
      <trkpt lat="42.196337794885039" lon="-8.757982570677996">
        <ele>20.8203125</ele>
      </trkpt>
      <trkpt lat="42.196353804320097" lon="-8.75794661231339">
        <ele>20.87109375</ele>
      </trkpt>
      <trkpt lat="42.196366377174854" lon="-8.7579046189785">
        <ele>21.02734375</ele>
      </trkpt>
      <trkpt lat="42.196376351639628" lon="-8.757870085537434">
        <ele>21.1484375</ele>
      </trkpt>
      <trkpt lat="42.196384146809578" lon="-8.75782934948802">
        <ele>21.3671875</ele>
      </trkpt>
      <trkpt lat="42.196392109617591" lon="-8.757790289819241">
        <ele>21.5546875</ele>
      </trkpt>
      <trkpt lat="42.196399066597223" lon="-8.757753074169159">
        <ele>21.73828125</ele>
      </trkpt>
      <trkpt lat="42.196409711614251" lon="-8.757713930681348">
        <ele>21.84765625</ele>
      </trkpt>
      <trkpt lat="42.196420524269342" lon="-8.757679145783186">
        <ele>21.8984375</ele>
      </trkpt>
      <trkpt lat="42.196423960849643" lon="-8.757666992023587">
        <ele>21.921875</ele>
      </trkpt>
      <trkpt lat="42.196492860093713" lon="-8.757564565166831">
        <ele>21.08984375</ele>
      </trkpt>
      <trkpt lat="42.196497302502394" lon="-8.757564229890704">
        <ele>20.98046875</ele>
      </trkpt>
      <trkpt lat="42.196586821228266" lon="-8.757595745846629">
        <ele>19.90625</ele>
      </trkpt>
      <trkpt lat="42.196604004129767" lon="-8.757606977596879">
        <ele>19.71875</ele>
      </trkpt>
      <trkpt lat="42.19662269577384" lon="-8.757622567936778">
        <ele>19.4921875</ele>
      </trkpt>
      <trkpt lat="42.196637112647295" lon="-8.757635476067662">
        <ele>19.32421875</ele>
      </trkpt>
      <trkpt lat="42.196653541177511" lon="-8.757648132741451">
        <ele>19.1484375</ele>
      </trkpt>
      <trkpt lat="42.196671478450298" lon="-8.757657688111067">
        <ele>18.984375</ele>
      </trkpt>
      <trkpt lat="42.196688745170832" lon="-8.75766615383327">
        <ele>18.8359375</ele>
      </trkpt>
      <trkpt lat="42.196704419329762" lon="-8.757673362269998">
        <ele>18.70703125</ele>
      </trkpt>
      <trkpt lat="42.196721099317074" lon="-8.757679564878345">
        <ele>18.578125</ele>
      </trkpt>
      <trkpt lat="42.196742221713066" lon="-8.757686018943787">
        <ele>18.421875</ele>
      </trkpt>
      <trkpt lat="42.196761583909392" lon="-8.757696244865656">
        <ele>18.26171875</ele>
      </trkpt>
      <trkpt lat="42.196783293038607" lon="-8.75770621933043">
        <ele>18.08984375</ele>
      </trkpt>
      <trkpt lat="42.196799637749791" lon="-8.757716612890363">
        <ele>17.94921875</ele>
      </trkpt>
      <trkpt lat="42.196816820651293" lon="-8.757724910974503">
        <ele>17.8125</ele>
      </trkpt>
      <trkpt lat="42.196832662448287" lon="-8.757731448858976">
        <ele>17.69921875</ele>
      </trkpt>
      <trkpt lat="42.196850515902042" lon="-8.757737064734101">
        <ele>17.578125</ele>
      </trkpt>
      <trkpt lat="42.1968665253371" lon="-8.757741842418909">
        <ele>17.47265625</ele>
      </trkpt>
      <trkpt lat="42.196884630247951" lon="-8.757748128846288">
        <ele>17.3515625</ele>
      </trkpt>
      <trkpt lat="42.196902232244611" lon="-8.757753409445286">
        <ele>17.23828125</ele>
      </trkpt>
      <trkpt lat="42.19692075625062" lon="-8.757759360596538">
        <ele>17.12109375</ele>
      </trkpt>
      <trkpt lat="42.196936262771487" lon="-8.757766485214233">
        <ele>17.01171875</ele>
      </trkpt>
      <trkpt lat="42.196953361853957" lon="-8.757773777469993">
        <ele>16.8984375</ele>
      </trkpt>
      <trkpt lat="42.196968952193856" lon="-8.757780063897371">
        <ele>16.796875</ele>
      </trkpt>
      <trkpt lat="42.19698722474277" lon="-8.757786182686687">
        <ele>16.78125</ele>
      </trkpt>
      <trkpt lat="42.19700675457716" lon="-8.757793055847287">
        <ele>16.81640625</ele>
      </trkpt>
      <trkpt lat="42.19702385365963" lon="-8.757797414436936">
        <ele>16.8515625</ele>
      </trkpt>
      <trkpt lat="42.197043215855956" lon="-8.757802024483681">
        <ele>16.89453125</ele>
      </trkpt>
      <trkpt lat="42.197061404585838" lon="-8.757804958149791">
        <ele>16.94140625</ele>
      </trkpt>
      <trkpt lat="42.197079677134752" lon="-8.757805963978171">
        <ele>16.99609375</ele>
      </trkpt>
      <trkpt lat="42.197099458426237" lon="-8.757804119959474">
        <ele>17.06640625</ele>
      </trkpt>
      <trkpt lat="42.197117814794183" lon="-8.757799593731761">
        <ele>17.140625</ele>
      </trkpt>
      <trkpt lat="42.19713969156146" lon="-8.757790625095367">
        <ele>17.23828125</ele>
      </trkpt>
      <trkpt lat="42.197158047929406" lon="-8.757782075554132">
        <ele>17.32421875</ele>
      </trkpt>
      <trkpt lat="42.197174308821559" lon="-8.757773274555802">
        <ele>17.40625</ele>
      </trkpt>
      <trkpt lat="42.197182271629572" lon="-8.757770508527756">
        <ele>17.4375</ele>
      </trkpt>
      <trkpt lat="42.197294002398849" lon="-8.757670847699046">
        <ele>18.08203125</ele>
      </trkpt>
      <trkpt lat="42.19731311313808" lon="-8.757661040872335">
        <ele>18.1640625</ele>
      </trkpt>
      <trkpt lat="42.197327530011535" lon="-8.757651150226593">
        <ele>18.234375</ele>
      </trkpt>
      <trkpt lat="42.197343036532402" lon="-8.757641091942787">
        <ele>18.3046875</ele>
      </trkpt>
      <trkpt lat="42.197358626872301" lon="-8.757628854364157">
        <ele>18.37890625</ele>
      </trkpt>
      <trkpt lat="42.197381090372801" lon="-8.757609073072672">
        <ele>18.484375</ele>
      </trkpt>
      <trkpt lat="42.197395758703351" lon="-8.757594069465995">
        <ele>18.5546875</ele>
      </trkpt>
      <trkpt lat="42.197413360700011" lon="-8.757574958726764">
        <ele>18.640625</ele>
      </trkpt>
      <trkpt lat="42.197426687926054" lon="-8.757557021453977">
        <ele>18.70703125</ele>
      </trkpt>
      <trkpt lat="42.197442362084985" lon="-8.757534474134445">
        <ele>18.80859375</ele>
      </trkpt>
      <trkpt lat="42.197462730109692" lon="-8.757505975663662">
        <ele>18.99609375</ele>
      </trkpt>
      <trkpt lat="42.197478655725718" lon="-8.757482841610909">
        <ele>19.1484375</ele>
      </trkpt>
      <trkpt lat="42.197492904961109" lon="-8.757463144138455">
        <ele>19.28515625</ele>
      </trkpt>
      <trkpt lat="42.19750614836812" lon="-8.757446296513081">
        <ele>19.41015625</ele>
      </trkpt>
      <trkpt lat="42.197521487250924" lon="-8.757426934316754">
        <ele>19.55859375</ele>
      </trkpt>
      <trkpt lat="42.197535317391157" lon="-8.757409416139126">
        <ele>19.6953125</ele>
      </trkpt>
      <trkpt lat="42.197550069540739" lon="-8.757389467209578">
        <ele>19.84375</ele>
      </trkpt>
      <trkpt lat="42.197566414251924" lon="-8.75737052410841">
        <ele>20.00390625</ele>
      </trkpt>
      <trkpt lat="42.197582339867949" lon="-8.75735099427402">
        <ele>20.16796875</ele>
      </trkpt>
      <trkpt lat="42.197594661265612" lon="-8.757333643734455">
        <ele>20.30078125</ele>
      </trkpt>
      <trkpt lat="42.197611005976796" lon="-8.757303887978196">
        <ele>20.5</ele>
      </trkpt>
      <trkpt lat="42.197622321546078" lon="-8.757279580458999">
        <ele>20.6484375</ele>
      </trkpt>
      <trkpt lat="42.197632547467947" lon="-8.757256278768182">
        <ele>20.7890625</ele>
      </trkpt>
      <trkpt lat="42.197643779218197" lon="-8.757230713963509">
        <ele>20.94921875</ele>
      </trkpt>
      <trkpt lat="42.197654088959098" lon="-8.75720975920558">
        <ele>21.0859375</ele>
      </trkpt>
      <trkpt lat="42.197662554681301" lon="-8.757190899923444">
        <ele>21.20703125</ele>
      </trkpt>
      <trkpt lat="42.197675881907344" lon="-8.757152678444982">
        <ele>21.421875</ele>
      </trkpt>
      <trkpt lat="42.197683928534389" lon="-8.757127868011594">
        <ele>21.5546875</ele>
      </trkpt>
      <trkpt lat="42.197692645713687" lon="-8.757101045921445">
        <ele>21.69921875</ele>
      </trkpt>
      <trkpt lat="42.19770303927362" lon="-8.757071122527122">
        <ele>21.87109375</ele>
      </trkpt>
      <trkpt lat="42.197712259367108" lon="-8.75704706646502">
        <ele>22.015625</ele>
      </trkpt>
      <trkpt lat="42.197720557451248" lon="-8.757021920755506">
        <ele>22.16015625</ele>
      </trkpt>
      <trkpt lat="42.197728520259261" lon="-8.756996858865023">
        <ele>22.3046875</ele>
      </trkpt>
      <trkpt lat="42.197736734524369" lon="-8.756973221898079">
        <ele>22.44921875</ele>
      </trkpt>
      <trkpt lat="42.197746457532048" lon="-8.75694933347404">
        <ele>22.609375</ele>
      </trkpt>
      <trkpt lat="42.197756348177791" lon="-8.756928043439984">
        <ele>22.765625</ele>
      </trkpt>
      <trkpt lat="42.197767831385136" lon="-8.756904490292072">
        <ele>22.94921875</ele>
      </trkpt>
      <trkpt lat="42.197777722030878" lon="-8.756883451715112">
        <ele>23.109375</ele>
      </trkpt>
      <trkpt lat="42.197788031771779" lon="-8.756858054548502">
        <ele>23.29296875</ele>
      </trkpt>
      <trkpt lat="42.197799766436219" lon="-8.75682963989675">
        <ele>23.5</ele>
      </trkpt>
      <trkpt lat="42.197811920195818" lon="-8.756797285750508">
        <ele>23.73046875</ele>
      </trkpt>
      <trkpt lat="42.197820302098989" lon="-8.756773481145501">
        <ele>23.8984375</ele>
      </trkpt>
      <trkpt lat="42.197828684002161" lon="-8.756749592721462">
        <ele>24.06640625</ele>
      </trkpt>
      <trkpt lat="42.197839999571443" lon="-8.756720591336489">
        <ele>24.2890625</ele>
      </trkpt>
      <trkpt lat="42.197848213836551" lon="-8.756699301302433">
        <ele>24.453125</ele>
      </trkpt>
      <trkpt lat="42.197858858853579" lon="-8.756675831973553">
        <ele>24.640625</ele>
      </trkpt>
      <trkpt lat="42.197867576032877" lon="-8.756653033196926">
        <ele>24.8046875</ele>
      </trkpt>
      <trkpt lat="42.197873275727034" lon="-8.756631575524807">
        <ele>24.9375</ele>
      </trkpt>
      <trkpt lat="42.197876460850239" lon="-8.756610369309783">
        <ele>25.0390625</ele>
      </trkpt>
      <trkpt lat="42.19787604175508" lon="-8.756581116467714">
        <ele>25.12890625</ele>
      </trkpt>
      <trkpt lat="42.19787604175508" lon="-8.756554545834661">
        <ele>25.21484375</ele>
      </trkpt>
      <trkpt lat="42.197871264070272" lon="-8.756529064849019">
        <ele>25.24609375</ele>
      </trkpt>
      <trkpt lat="42.197863385081291" lon="-8.756500482559204">
        <ele>25.25390625</ele>
      </trkpt>
      <trkpt lat="42.197856931015849" lon="-8.756479611620307">
        <ele>25.25390625</ele>
      </trkpt>
      <trkpt lat="42.197848381474614" lon="-8.756455471739173">
        <ele>25.23828125</ele>
      </trkpt>
      <trkpt lat="42.197840083390474" lon="-8.756431667134166">
        <ele>25.22265625</ele>
      </trkpt>
      <trkpt lat="42.197831114754081" lon="-8.756402749568224">
        <ele>25.21875</ele>
      </trkpt>
      <trkpt lat="42.197822397574782" lon="-8.756375759840012">
        <ele>25.20703125</ele>
      </trkpt>
      <trkpt lat="42.197813177481294" lon="-8.756343573331833">
        <ele>25.2109375</ele>
      </trkpt>
      <trkpt lat="42.197799263522029" lon="-8.756295796483755">
        <ele>25.20703125</ele>
      </trkpt>
      <trkpt lat="42.197791300714016" lon="-8.756270902231336">
        <ele>25.1953125</ele>
      </trkpt>
      <trkpt lat="42.197783840820193" lon="-8.756245588883758">
        <ele>25.19140625</ele>
      </trkpt>
      <trkpt lat="42.197777135297656" lon="-8.756225639954209">
        <ele>25.171875</ele>
      </trkpt>
      <trkpt lat="42.197769172489643" lon="-8.756199656054378">
        <ele>25.15234375</ele>
      </trkpt>
      <trkpt lat="42.197760958224535" lon="-8.756163781508803">
        <ele>25.15234375</ele>
      </trkpt>
      <trkpt lat="42.197752073407173" lon="-8.756133439019322">
        <ele>25.1328125</ele>
      </trkpt>
      <trkpt lat="42.197740925475955" lon="-8.756083734333515">
        <ele>25.140625</ele>
      </trkpt>
      <trkpt lat="42.197731621563435" lon="-8.756043752655387">
        <ele>25.140625</ele>
      </trkpt>
      <trkpt lat="42.197726089507341" lon="-8.756018271669745">
        <ele>25.1484375</ele>
      </trkpt>
      <trkpt lat="42.197721479460597" lon="-8.755994634702802">
        <ele>25.15625</ele>
      </trkpt>
      <trkpt lat="42.197710834443569" lon="-8.755948198959231">
        <ele>25.16015625</ele>
      </trkpt>
      <trkpt lat="42.197705889120698" lon="-8.755919700488448">
        <ele>25.1796875</ele>
      </trkpt>
      <trkpt lat="42.197704631835222" lon="-8.755897488445044">
        <ele>25.2265625</ele>
      </trkpt>
      <trkpt lat="42.197705721482635" lon="-8.755872594192624">
        <ele>25.3046875</ele>
      </trkpt>
      <trkpt lat="42.197710163891315" lon="-8.755839401856065">
        <ele>25.44140625</ele>
      </trkpt>
      <trkpt lat="42.197715528309345" lon="-8.75581718981266">
        <ele>25.55859375</ele>
      </trkpt>
      <trkpt lat="42.197716701775789" lon="-8.755812998861074">
        <ele>25.58203125</ele>
      </trkpt>
      <trkpt lat="42.197761125862598" lon="-8.755706381052732">
        <ele>26.21484375</ele>
      </trkpt>
      <trkpt lat="42.197794485837221" lon="-8.755639074370265">
        <ele>26.58203125</ele>
      </trkpt>
      <trkpt lat="42.197826756164432" lon="-8.755579311400652">
        <ele>26.90625</ele>
      </trkpt>
      <trkpt lat="42.197861289605498" lon="-8.755521140992641">
        <ele>27.21484375</ele>
      </trkpt>
      <trkpt lat="42.197904959321022" lon="-8.755463138222694">
        <ele>27.578125</ele>
      </trkpt>
      <trkpt lat="42.197957094758749" lon="-8.755403626710176">
        <ele>28.0859375</ele>
      </trkpt>
      <trkpt lat="42.198002189397812" lon="-8.755349647253752">
        <ele>28.48828125</ele>
      </trkpt>
      <trkpt lat="42.198048289865255" lon="-8.755295751616359">
        <ele>28.8671875</ele>
      </trkpt>
      <trkpt lat="42.198095647618175" lon="-8.755242107436061">
        <ele>29.234375</ele>
      </trkpt>
      <trkpt lat="42.198153734207153" lon="-8.755189636722207">
        <ele>29.67578125</ele>
      </trkpt>
      <trkpt lat="42.198209306225181" lon="-8.755142278969288">
        <ele>30.0703125</ele>
      </trkpt>
      <trkpt lat="42.19825766980648" lon="-8.75510573387146">
        <ele>30.40234375</ele>
      </trkpt>
      <trkpt lat="42.19830603338778" lon="-8.755072960630059">
        <ele>30.7265625</ele>
      </trkpt>
      <trkpt lat="42.198357749730349" lon="-8.755050916224718">
        <ele>31.09375</ele>
      </trkpt>
      <trkpt lat="42.198398821055889" lon="-8.755091903731227">
        <ele>31.3203125</ele>
      </trkpt>
      <trkpt lat="42.198418518528342" lon="-8.755162982270122">
        <ele>31.5703125</ele>
      </trkpt>
      <trkpt lat="42.198443748056889" lon="-8.75524059869349">
        <ele>31.83203125</ele>
      </trkpt>
      <trkpt lat="42.198468307033181" lon="-8.755309246480465">
        <ele>32.05859375</ele>
      </trkpt>
      <trkpt lat="42.198507282882929" lon="-8.755373368039727">
        <ele>32.296875</ele>
      </trkpt>
      <trkpt lat="42.198545336723328" lon="-8.75542919151485">
        <ele>32.4921875</ele>
      </trkpt>
      <trkpt lat="42.198594873771071" lon="-8.755468670278788">
        <ele>32.6171875</ele>
      </trkpt>
      <trkpt lat="42.198648601770401" lon="-8.75548342242837">
        <ele>32.65625</ele>
      </trkpt>
      <trkpt lat="42.198700318112969" lon="-8.755463222041726">
        <ele>32.6015625</ele>
      </trkpt>
      <trkpt lat="42.19873795285821" lon="-8.755409829318523">
        <ele>32.4765625</ele>
      </trkpt>
      <trkpt lat="42.198757147416472" lon="-8.755341349169612">
        <ele>32.328125</ele>
      </trkpt>
      <trkpt lat="42.198771564289927" lon="-8.755268761888146">
        <ele>32.17578125</ele>
      </trkpt>
      <trkpt lat="42.198787070810795" lon="-8.75519810244441">
        <ele>32.04296875</ele>
      </trkpt>
      <trkpt lat="42.198806349188089" lon="-8.755124676972628">
        <ele>31.9140625</ele>
      </trkpt>
      <trkpt lat="42.198837194591761" lon="-8.755064411088824">
        <ele>31.8203125</ele>
      </trkpt>
      <trkpt lat="42.198876338079572" lon="-8.7550104316324">
        <ele>31.7421875</ele>
      </trkpt>
      <trkpt lat="42.198920594528317" lon="-8.754968605935574">
        <ele>31.703125</ele>
      </trkpt>
      <trkpt lat="42.198966192081571" lon="-8.75492837280035">
        <ele>31.6875</ele>
      </trkpt>
      <trkpt lat="42.199017154052854" lon="-8.754900461062789">
        <ele>31.703125</ele>
      </trkpt>
      <trkpt lat="42.199074821546674" lon="-8.754893252626061">
        <ele>31.76171875</ele>
      </trkpt>
      <trkpt lat="42.199128968641162" lon="-8.754887133836746">
        <ele>31.8203125</ele>
      </trkpt>
      <trkpt lat="42.199182109907269" lon="-8.754855114966631">
        <ele>31.8671875</ele>
      </trkpt>
      <trkpt lat="42.199223684147" lon="-8.754798788577318">
        <ele>31.91015625</ele>
      </trkpt>
      <trkpt lat="42.199264839291573" lon="-8.754724022001028">
        <ele>31.96484375</ele>
      </trkpt>
      <trkpt lat="42.199291242286563" lon="-8.754659816622734">
        <ele>32.00390625</ele>
      </trkpt>
      <trkpt lat="42.199324686080217" lon="-8.754567615687847">
        <ele>32.0078125</ele>
      </trkpt>
      <trkpt lat="42.199354693293571" lon="-8.754498548805714">
        <ele>32.02734375</ele>
      </trkpt>
      <trkpt lat="42.199391908943653" lon="-8.754435852169991">
        <ele>32.05859375</ele>
      </trkpt>
      <trkpt lat="42.199433315545321" lon="-8.754369802772999">
        <ele>32.1015625</ele>
      </trkpt>
      <trkpt lat="42.199472710490227" lon="-8.754310877993703">
        <ele>32.14453125</ele>
      </trkpt>
      <trkpt lat="42.199510177597404" lon="-8.754254886880517">
        <ele>32.19140625</ele>
      </trkpt>
      <trkpt lat="42.199534568935633" lon="-8.754191268235445">
        <ele>32.234375</ele>
      </trkpt>
      <trkpt lat="42.199549237266183" lon="-8.754111053422093">
        <ele>32.27734375</ele>
      </trkpt>
      <trkpt lat="42.199568096548319" lon="-8.754041064530611">
        <ele>32.328125</ele>
      </trkpt>
      <trkpt lat="42.199599947780371" lon="-8.753964956849813">
        <ele>32.3984375</ele>
      </trkpt>
      <trkpt lat="42.199631379917264" lon="-8.753897231072187">
        <ele>32.45703125</ele>
      </trkpt>
      <trkpt lat="42.199636157602072" lon="-8.753883400931954">
        <ele>32.4609375</ele>
      </trkpt>
      <trkpt lat="42.199735650792718" lon="-8.753757504746318">
        <ele>32.59375</ele>
      </trkpt>
      <trkpt lat="42.199742188677192" lon="-8.753743255510926">
        <ele>32.6015625</ele>
      </trkpt>
      <trkpt lat="42.199995405972004" lon="-8.753268085420132">
        <ele>32.359375</ele>
      </trkpt>
      <trkpt lat="42.200120547786355" lon="-8.753032553941011">
        <ele>32.3515625</ele>
      </trkpt>
      <trkpt lat="42.200144939124584" lon="-8.752952758222818">
        <ele>32.34765625</ele>
      </trkpt>
      <trkpt lat="42.200173269957304" lon="-8.752874135971069">
        <ele>32.328125</ele>
      </trkpt>
      <trkpt lat="42.200197912752628" lon="-8.75280917622149">
        <ele>32.31640625</ele>
      </trkpt>
      <trkpt lat="42.200225070118904" lon="-8.752746311947703">
        <ele>32.26171875</ele>
      </trkpt>
      <trkpt lat="42.200255244970322" lon="-8.752681687474251">
        <ele>32.14453125</ele>
      </trkpt>
      <trkpt lat="42.20027863048017" lon="-8.752605244517326">
        <ele>32.05078125</ele>
      </trkpt>
      <trkpt lat="42.200281815603375" lon="-8.752514887601137">
        <ele>32.09765625</ele>
      </trkpt>
      <trkpt lat="42.2002874314785" lon="-8.752441881224513">
        <ele>32.2578125</ele>
      </trkpt>
      <trkpt lat="42.200291957706213" lon="-8.752362420782447">
        <ele>32.44140625</ele>
      </trkpt>
      <trkpt lat="42.200295561924577" lon="-8.752285558730364">
        <ele>32.62109375</ele>
      </trkpt>
      <trkpt lat="42.20030059106648" lon="-8.752202242612839">
        <ele>32.80859375</ele>
      </trkpt>
      <trkpt lat="42.200309643521905" lon="-8.752126302570105">
        <ele>32.95703125</ele>
      </trkpt>
      <trkpt lat="42.200316013768315" lon="-8.752050530165434">
        <ele>33.11328125</ele>
      </trkpt>
      <trkpt lat="42.20032992772758" lon="-8.751971237361431">
        <ele>33.23046875</ele>
      </trkpt>
      <trkpt lat="42.200343757867813" lon="-8.751899991184473">
        <ele>33.32421875</ele>
      </trkpt>
      <trkpt lat="42.20036362297833" lon="-8.751830505207181">
        <ele>33.375</ele>
      </trkpt>
      <trkpt lat="42.200366389006376" lon="-8.751823045313358">
        <ele>33.37890625</ele>
      </trkpt>
      <trkpt lat="42.200488764792681" lon="-8.751385007053614">
        <ele>33.1171875</ele>
      </trkpt>
      <trkpt lat="42.200490524992347" lon="-8.751375619322062">
        <ele>33.10546875</ele>
      </trkpt>
      <trkpt lat="42.200538888573647" lon="-8.751127934083343">
        <ele>32.8125</ele>
      </trkpt>
      <trkpt lat="42.200550120323896" lon="-8.751036319881678">
        <ele>32.73046875</ele>
      </trkpt>
      <trkpt lat="42.200558334589005" lon="-8.750960128381848">
        <ele>32.671875</ele>
      </trkpt>
      <trkpt lat="42.200570069253445" lon="-8.750884775072336">
        <ele>32.59375</ele>
      </trkpt>
      <trkpt lat="42.200579792261124" lon="-8.750806823372841">
        <ele>32.52734375</ele>
      </trkpt>
      <trkpt lat="42.200575098395348" lon="-8.750729542225599">
        <ele>32.54296875</ele>
      </trkpt>
      <trkpt lat="42.200559759512544" lon="-8.750650333240628">
        <ele>32.59375</ele>
      </trkpt>
      <trkpt lat="42.200539726763964" lon="-8.750582104548812">
        <ele>32.65625</ele>
      </trkpt>
      <trkpt lat="42.200516005977988" lon="-8.750508343800902">
        <ele>32.73046875</ele>
      </trkpt>
      <trkpt lat="42.200491111725569" lon="-8.750442378222942">
        <ele>32.8203125</ele>
      </trkpt>
      <trkpt lat="42.200458757579327" lon="-8.750376999378204">
        <ele>32.9453125</ele>
      </trkpt>
      <trkpt lat="42.200427576899529" lon="-8.750310195609927">
        <ele>33.06640625</ele>
      </trkpt>
      <trkpt lat="42.200393127277493" lon="-8.750254539772868">
        <ele>33.2109375</ele>
      </trkpt>
      <trkpt lat="42.200346440076828" lon="-8.750211959704757">
        <ele>33.44921875</ele>
      </trkpt>
      <trkpt lat="42.200292879715562" lon="-8.750188238918781">
        <ele>33.74609375</ele>
      </trkpt>
      <trkpt lat="42.200238481163979" lon="-8.75017155893147">
        <ele>34.04296875</ele>
      </trkpt>
      <trkpt lat="42.200181232765317" lon="-8.750157142058015">
        <ele>34.20703125</ele>
      </trkpt>
      <trkpt lat="42.200127253308892" lon="-8.750145575031638">
        <ele>34.25390625</ele>
      </trkpt>
      <trkpt lat="42.200065478682518" lon="-8.750127051025629">
        <ele>34.3203125</ele>
      </trkpt>
      <trkpt lat="42.200009655207396" lon="-8.750110287219286">
        <ele>34.37890625</ele>
      </trkpt>
      <trkpt lat="42.199955256655812" lon="-8.750086901709437">
        <ele>34.44921875</ele>
      </trkpt>
      <trkpt lat="42.199905384331942" lon="-8.750059576705098">
        <ele>34.51953125</ele>
      </trkpt>
      <trkpt lat="42.199854422360659" lon="-8.75002202577889">
        <ele>34.609375</ele>
      </trkpt>
      <trkpt lat="42.199804717674851" lon="-8.749985564500093">
        <ele>34.703125</ele>
      </trkpt>
      <trkpt lat="42.19975920394063" lon="-8.749946337193251">
        <ele>34.796875</ele>
      </trkpt>
      <trkpt lat="42.199715450406075" lon="-8.749901158735156">
        <ele>34.8046875</ele>
      </trkpt>
      <trkpt lat="42.199670439586043" lon="-8.749847682192922">
        <ele>34.8125</ele>
      </trkpt>
      <trkpt lat="42.199623165652156" lon="-8.749796217307448">
        <ele>34.82421875</ele>
      </trkpt>
      <trkpt lat="42.199576143175364" lon="-8.749760175123811">
        <ele>34.82421875</ele>
      </trkpt>
      <trkpt lat="42.199523001909256" lon="-8.749727066606283">
        <ele>34.875</ele>
      </trkpt>
      <trkpt lat="42.199475141242146" lon="-8.749694125726819">
        <ele>34.93359375</ele>
      </trkpt>
      <trkpt lat="42.19941814430058" lon="-8.749639308080077">
        <ele>35.07421875</ele>
      </trkpt>
      <trkpt lat="42.199374726042151" lon="-8.749594045802951">
        <ele>35.1953125</ele>
      </trkpt>
      <trkpt lat="42.199326697736979" lon="-8.74954123981297">
        <ele>35.3515625</ele>
      </trkpt>
      <trkpt lat="42.199283530935645" lon="-8.749491116032004">
        <ele>35.5625</ele>
      </trkpt>
      <trkpt lat="42.199244555085897" lon="-8.749435963109136">
        <ele>36.21484375</ele>
      </trkpt>
      <trkpt lat="42.199211698025465" lon="-8.749376283958554">
        <ele>36.796875</ele>
      </trkpt>
      <trkpt lat="42.199175152927637" lon="-8.749306043609977">
        <ele>37.4375</ele>
      </trkpt>
      <trkpt lat="42.199137769639492" lon="-8.749253572896123">
        <ele>37.99609375</ele>
      </trkpt>
      <trkpt lat="42.199090411886573" lon="-8.749207304790616">
        <ele>38.61328125</ele>
      </trkpt>
      <trkpt lat="42.199043221771717" lon="-8.749160198494792">
        <ele>39.20703125</ele>
      </trkpt>
      <trkpt lat="42.1989974565804" lon="-8.749112589284778">
        <ele>39.765625</ele>
      </trkpt>
      <trkpt lat="42.198951859027147" lon="-8.749068081378937">
        <ele>40.28515625</ele>
      </trkpt>
      <trkpt lat="42.198914224281907" lon="-8.749013934284449">
        <ele>40.734375</ele>
      </trkpt>
      <trkpt lat="42.198880277574062" lon="-8.748947633430362">
        <ele>41.14453125</ele>
      </trkpt>
      <trkpt lat="42.198858819901943" lon="-8.74887621961534">
        <ele>41.43359375</ele>
      </trkpt>
      <trkpt lat="42.198853706941009" lon="-8.748802291229367">
        <ele>41.56640625</ele>
      </trkpt>
      <trkpt lat="42.198866112157702" lon="-8.748709755018353">
        <ele>41.55859375</ele>
      </trkpt>
      <trkpt lat="42.198882205411792" lon="-8.748638676479459">
        <ele>41.51953125</ele>
      </trkpt>
      <trkpt lat="42.198907854035497" lon="-8.748569106683135">
        <ele>41.44140625</ele>
      </trkpt>
      <trkpt lat="42.198935598134995" lon="-8.748499704524875">
        <ele>41.375</ele>
      </trkpt>
      <trkpt lat="42.198962168768048" lon="-8.748432314023376">
        <ele>41.3359375</ele>
      </trkpt>
      <trkpt lat="42.198986643925309" lon="-8.748361319303513">
        <ele>41.36328125</ele>
      </trkpt>
      <trkpt lat="42.198997791856527" lon="-8.748286888003349">
        <ele>41.58984375</ele>
      </trkpt>
      <trkpt lat="42.199003910645843" lon="-8.748211786150932">
        <ele>41.83984375</ele>
      </trkpt>
      <trkpt lat="42.198997288942337" lon="-8.748158644884825">
        <ele>42.06640625</ele>
      </trkpt>
      <trkpt lat="42.198961665853858" lon="-8.748047752305865">
        <ele>42.66015625</ele>
      </trkpt>
      <trkpt lat="42.198952697217464" lon="-8.747976338490844">
        <ele>42.97265625</ele>
      </trkpt>
      <trkpt lat="42.198944818228483" lon="-8.74789897352457">
        <ele>43.3046875</ele>
      </trkpt>
      <trkpt lat="42.198964767158031" lon="-8.747826972976327">
        <ele>43.45703125</ele>
      </trkpt>
      <trkpt lat="42.198997121304274" lon="-8.747767964377999">
        <ele>43.48046875</ele>
      </trkpt>
      <trkpt lat="42.199030229821801" lon="-8.747701831161976">
        <ele>43.515625</ele>
      </trkpt>
      <trkpt lat="42.199067194014788" lon="-8.747630249708891">
        <ele>43.53515625</ele>
      </trkpt>
      <trkpt lat="42.199101392179728" lon="-8.747566295787692">
        <ele>43.52734375</ele>
      </trkpt>
      <trkpt lat="42.199136931449175" lon="-8.747496139258146">
        <ele>43.51953125</ele>
      </trkpt>
      <trkpt lat="42.199170626699924" lon="-8.747432772070169">
        <ele>43.47265625</ele>
      </trkpt>
      <trkpt lat="42.199191749095917" lon="-8.747361358255148">
        <ele>43.4453125</ele>
      </trkpt>
      <trkpt lat="42.199200047180057" lon="-8.747273851186037">
        <ele>43.52734375</ele>
      </trkpt>
      <trkpt lat="42.199202897027135" lon="-8.747200928628445">
        <ele>43.62109375</ele>
      </trkpt>
      <trkpt lat="42.199205495417118" lon="-8.747113002464175">
        <ele>43.73828125</ele>
      </trkpt>
      <trkpt lat="42.199204238131642" lon="-8.747024741023779">
        <ele>43.8828125</ele>
      </trkpt>
      <trkpt lat="42.199201891198754" lon="-8.746946370229125">
        <ele>44.03125</ele>
      </trkpt>
      <trkpt lat="42.199199376627803" lon="-8.746871519833803">
        <ele>44.17578125</ele>
      </trkpt>
      <trkpt lat="42.199191749095917" lon="-8.746790215373039">
        <ele>44.3828125</ele>
      </trkpt>
      <trkpt lat="42.199184121564031" lon="-8.746708994731307">
        <ele>44.58984375</ele>
      </trkpt>
      <trkpt lat="42.199174901470542" lon="-8.746632216498256">
        <ele>44.8125</ele>
      </trkpt>
      <trkpt lat="42.199169704690576" lon="-8.746552923694253">
        <ele>45.0078125</ele>
      </trkpt>
      <trkpt lat="42.199162160977721" lon="-8.746467512100935">
        <ele>45.21875</ele>
      </trkpt>
      <trkpt lat="42.199149923399091" lon="-8.746382687240839">
        <ele>45.46875</ele>
      </trkpt>
      <trkpt lat="42.199139194563031" lon="-8.746300209313631">
        <ele>45.703125</ele>
      </trkpt>
      <trkpt lat="42.199127208441496" lon="-8.746218234300613">
        <ele>45.953125</ele>
      </trkpt>
      <trkpt lat="42.19911715015769" lon="-8.746140282601118">
        <ele>46.1796875</ele>
      </trkpt>
      <trkpt lat="42.19910348765552" lon="-8.746067360043526">
        <ele>46.4375</ele>
      </trkpt>
      <trkpt lat="42.199085215106606" lon="-8.745988737791777">
        <ele>46.875</ele>
      </trkpt>
      <trkpt lat="42.199061494320631" lon="-8.745904499664903">
        <ele>47.40234375</ele>
      </trkpt>
      <trkpt lat="42.19903995282948" lon="-8.745819004252553">
        <ele>47.91015625</ele>
      </trkpt>
      <trkpt lat="42.19902771525085" lon="-8.745739795267582">
        <ele>48.30078125</ele>
      </trkpt>
      <trkpt lat="42.199013130739331" lon="-8.745661424472928">
        <ele>48.71484375</ele>
      </trkpt>
      <trkpt lat="42.199002653360367" lon="-8.745589423924685">
        <ele>49.07421875</ele>
      </trkpt>
      <trkpt lat="42.19898278824985" lon="-8.745504850521684">
        <ele>49.7109375</ele>
      </trkpt>
      <trkpt lat="42.198968706652522" lon="-8.745433520525694">
        <ele>50.22265625</ele>
      </trkpt>
      <trkpt lat="42.198950769379735" lon="-8.745364286005497">
        <ele>50.76953125</ele>
      </trkpt>
      <trkpt lat="42.198926629498601" lon="-8.745294632390141">
        <ele>51.38671875</ele>
      </trkpt>
      <trkpt lat="42.198904752731323" lon="-8.745215088129044">
        <ele>52.0390625</ele>
      </trkpt>
      <trkpt lat="42.19887918792665" lon="-8.745135040953755">
        <ele>52.73828125</ele>
      </trkpt>
      <trkpt lat="42.198852282017469" lon="-8.745059603825212">
        <ele>53.14453125</ele>
      </trkpt>
      <trkpt lat="42.198837865144014" lon="-8.74498475342989">
        <ele>53.40625</ele>
      </trkpt>
      <trkpt lat="42.19883568584919" lon="-8.744912417605519">
        <ele>53.52734375</ele>
      </trkpt>
      <trkpt lat="42.198849432170391" lon="-8.74483966268599">
        <ele>53.48046875</ele>
      </trkpt>
      <trkpt lat="42.198868710547686" lon="-8.744765650480986">
        <ele>53.38671875</ele>
      </trkpt>
      <trkpt lat="42.198887066915631" lon="-8.744688369333744">
        <ele>53.31640625</ele>
      </trkpt>
      <trkpt lat="42.198917241767049" lon="-8.744620811194181">
        <ele>53.0625</ele>
      </trkpt>
      <trkpt lat="42.198956133797765" lon="-8.744546379894018">
        <ele>52.73046875</ele>
      </trkpt>
      <trkpt lat="42.198992678895593" lon="-8.744477899745107">
        <ele>52.4375</ele>
      </trkpt>
      <trkpt lat="42.199038444086909" lon="-8.744427859783173">
        <ele>52.06640625</ele>
      </trkpt>
      <trkpt lat="42.199082868173718" lon="-8.744376227259636">
        <ele>51.73046875</ele>
      </trkpt>
      <trkpt lat="42.199126118794084" lon="-8.744331803172827">
        <ele>51.41796875</ele>
      </trkpt>
      <trkpt lat="42.199171129614115" lon="-8.744273381307721">
        <ele>51.125</ele>
      </trkpt>
      <trkpt lat="42.199213206768036" lon="-8.744215881451964">
        <ele>50.875</ele>
      </trkpt>
      <trkpt lat="42.199254697188735" lon="-8.744165003299713">
        <ele>50.6484375</ele>
      </trkpt>
      <trkpt lat="42.199293840676546" lon="-8.744109934195876">
        <ele>50.5</ele>
      </trkpt>
      <trkpt lat="42.199337761849165" lon="-8.744043549522758">
        <ele>50.73046875</ele>
      </trkpt>
      <trkpt lat="42.199381431564689" lon="-8.743985462933779">
        <ele>50.94921875</ele>
      </trkpt>
      <trkpt lat="42.199418228119612" lon="-8.743923604488373">
        <ele>51.16796875</ele>
      </trkpt>
      <trkpt lat="42.199449744075537" lon="-8.74384188093245">
        <ele>51.421875</ele>
      </trkpt>
      <trkpt lat="42.199455527588725" lon="-8.743769880384207">
        <ele>51.59765625</ele>
      </trkpt>
      <trkpt lat="42.199456449598074" lon="-8.743725540116429">
        <ele>51.71484375</ele>
      </trkpt>
      <trkpt lat="42.199464999139309" lon="-8.743549352511764">
        <ele>52.2734375</ele>
      </trkpt>
      <trkpt lat="42.199452677741647" lon="-8.743456397205591">
        <ele>52.52734375</ele>
      </trkpt>
      <trkpt lat="42.19944748096168" lon="-8.743352629244328">
        <ele>52.8359375</ele>
      </trkpt>
      <trkpt lat="42.199442619457841" lon="-8.743272162973881">
        <ele>53.09375</ele>
      </trkpt>
      <trkpt lat="42.199442703276873" lon="-8.74319588765502">
        <ele>53.4609375</ele>
      </trkpt>
      <trkpt lat="42.199447397142649" lon="-8.743123468011618">
        <ele>53.8125</ele>
      </trkpt>
      <trkpt lat="42.199459969997406" lon="-8.743036212399602">
        <ele>54.234375</ele>
      </trkpt>
      <trkpt lat="42.19947824254632" lon="-8.742954572662711">
        <ele>54.61328125</ele>
      </trkpt>
      <trkpt lat="42.199480338022113" lon="-8.742876872420311">
        <ele>54.96484375</ele>
      </trkpt>
      <trkpt lat="42.199474722146988" lon="-8.742794562131166">
        <ele>55.375</ele>
      </trkpt>
      <trkpt lat="42.199465166777372" lon="-8.742721891030669">
        <ele>55.79296875</ele>
      </trkpt>
      <trkpt lat="42.19945477321744" lon="-8.742642011493444">
        <ele>56.26171875</ele>
      </trkpt>
      <trkpt lat="42.199436333030462" lon="-8.742565903812647">
        <ele>56.7421875</ele>
      </trkpt>
      <trkpt lat="42.19940934330225" lon="-8.742487113922834">
        <ele>57.28125</ele>
      </trkpt>
      <trkpt lat="42.199398195371032" lon="-8.742413856089115">
        <ele>57.75390625</ele>
      </trkpt>
      <trkpt lat="42.199387298896909" lon="-8.742337664589286">
        <ele>58.25390625</ele>
      </trkpt>
      <trkpt lat="42.19938294030726" lon="-8.742262562736869">
        <ele>58.71484375</ele>
      </trkpt>
      <trkpt lat="42.199385287240148" lon="-8.742182347923517">
        <ele>59.1796875</ele>
      </trkpt>
      <trkpt lat="42.199396099895239" lon="-8.742107832804322">
        <ele>59.578125</ele>
      </trkpt>
      <trkpt lat="42.199415965005755" lon="-8.742035329341888">
        <ele>59.9296875</ele>
      </trkpt>
      <trkpt lat="42.199453264474869" lon="-8.741964502260089">
        <ele>60.203125</ele>
      </trkpt>
      <trkpt lat="42.199490983039141" lon="-8.741906331852078">
        <ele>60.3984375</ele>
      </trkpt>
      <trkpt lat="42.199529372155666" lon="-8.741839863359928">
        <ele>60.60546875</ele>
      </trkpt>
      <trkpt lat="42.19955543987453" lon="-8.741773730143905">
        <ele>60.86328125</ele>
      </trkpt>
      <trkpt lat="42.199559966102242" lon="-8.741701394319534">
        <ele>61.23828125</ele>
      </trkpt>
      <trkpt lat="42.199558457359672" lon="-8.741614641621709">
        <ele>61.7109375</ele>
      </trkpt>
      <trkpt lat="42.199557200074196" lon="-8.741540126502514">
        <ele>62.11328125</ele>
      </trkpt>
      <trkpt lat="42.199557200074196" lon="-8.741465108469129">
        <ele>62.51953125</ele>
      </trkpt>
      <trkpt lat="42.19955837354064" lon="-8.74138648621738">
        <ele>62.90625</ele>
      </trkpt>
      <trkpt lat="42.199568096548319" lon="-8.741310378536582">
        <ele>63.24609375</ele>
      </trkpt>
      <trkpt lat="42.199583100154996" lon="-8.741239802911878">
        <ele>63.546875</ele>
      </trkpt>
      <trkpt lat="42.19960967078805" lon="-8.741167215630412">
        <ele>63.84765625</ele>
      </trkpt>
      <trkpt lat="42.199643282219768" lon="-8.741105189546943">
        <ele>64.08984375</ele>
      </trkpt>
      <trkpt lat="42.199691561982036" lon="-8.741047438234091">
        <ele>64.3046875</ele>
      </trkpt>
      <trkpt lat="42.199742859229445" lon="-8.741007540374994">
        <ele>64.43359375</ele>
      </trkpt>
      <trkpt lat="42.199799688532948" lon="-8.740992620587349">
        <ele>64.40234375</ele>
      </trkpt>
      <trkpt lat="42.199854338541627" lon="-8.740981472656131">
        <ele>64.3515625</ele>
      </trkpt>
      <trkpt lat="42.199914017692208" lon="-8.740969151258469">
        <ele>64.30078125</ele>
      </trkpt>
      <trkpt lat="42.199970846995711" lon="-8.740956578403711">
        <ele>64.25390625</ele>
      </trkpt>
      <trkpt lat="42.200016779825091" lon="-8.740921374410391">
        <ele>64.35546875</ele>
      </trkpt>
      <trkpt lat="42.200035136193037" lon="-8.740847110748291">
        <ele>64.72265625</ele>
      </trkpt>
      <trkpt lat="42.200040835887194" lon="-8.740768237039447">
        <ele>65.14453125</ele>
      </trkpt>
      <trkpt lat="42.200040835887194" lon="-8.740681316703558">
        <ele>65.6171875</ele>
      </trkpt>
      <trkpt lat="42.200043182820082" lon="-8.740604370832443">
        <ele>66.03125</ele>
      </trkpt>
      <trkpt lat="42.200062880292535" lon="-8.740526670590043">
        <ele>66.44140625</ele>
      </trkpt>
      <trkpt lat="42.200097246095538" lon="-8.740457436069846">
        <ele>66.8046875</ele>
      </trkpt>
      <trkpt lat="42.200145274400711" lon="-8.740413598716259">
        <ele>67.03125</ele>
      </trkpt>
      <trkpt lat="42.200199840590358" lon="-8.740382334217429">
        <ele>67.19140625</ele>
      </trkpt>
      <trkpt lat="42.200258010998368" lon="-8.740362636744976">
        <ele>67.1875</ele>
      </trkpt>
      <trkpt lat="42.200305620208383" lon="-8.740330701693892">
        <ele>67.25390625</ele>
      </trkpt>
      <trkpt lat="42.200343925505877" lon="-8.740260628983378">
        <ele>67.56640625</ele>
      </trkpt>
      <trkpt lat="42.200362114235759" lon="-8.740186197683215">
        <ele>67.9609375</ele>
      </trkpt>
      <trkpt lat="42.2003807220608" lon="-8.74011754989624">
        <ele>68.31640625</ele>
      </trkpt>
      <trkpt lat="42.200411316007376" lon="-8.740031132474542">
        <ele>68.78125</ele>
      </trkpt>
      <trkpt lat="42.200438976287842" lon="-8.73996751382947">
        <ele>69.234375</ele>
      </trkpt>
      <trkpt lat="42.200490022078156" lon="-8.739888891577721">
        <ele>69.7578125</ele>
      </trkpt>
      <trkpt lat="42.200530422851443" lon="-8.73981655575335">
        <ele>70.26171875</ele>
      </trkpt>
      <trkpt lat="42.200558502227068" lon="-8.739742543548346">
        <ele>70.8203125</ele>
      </trkpt>
      <trkpt lat="42.200574846938252" lon="-8.739658305421472">
        <ele>71.4921875</ele>
      </trkpt>
      <trkpt lat="42.200585408136249" lon="-8.739584041759372">
        <ele>72.09765625</ele>
      </trkpt>
      <trkpt lat="42.20059328712523" lon="-8.739512292668223">
        <ele>72.65625</ele>
      </trkpt>
      <trkpt lat="42.200599992647767" lon="-8.739439370110631">
        <ele>73.2265625</ele>
      </trkpt>
      <trkpt lat="42.200613403692842" lon="-8.739361334592104">
        <ele>73.82421875</ele>
      </trkpt>
      <trkpt lat="42.20062849111855" lon="-8.739286987110972">
        <ele>74.3828125</ele>
      </trkpt>
      <trkpt lat="42.200648356229067" lon="-8.739209454506636">
        <ele>74.94921875</ele>
      </trkpt>
      <trkpt lat="42.200679369270802" lon="-8.739127479493618">
        <ele>75.48046875</ele>
      </trkpt>
      <trkpt lat="42.200708370655775" lon="-8.739064950495958">
        <ele>75.30078125</ele>
      </trkpt>
      <trkpt lat="42.200742652639747" lon="-8.738988507539034">
        <ele>75.07421875</ele>
      </trkpt>
      <trkpt lat="42.200769307091832" lon="-8.73893897049129">
        <ele>74.859375</ele>
      </trkpt>
      <trkpt lat="42.200869806110859" lon="-8.738795891404152">
        <ele>73.8984375</ele>
      </trkpt>
      <trkpt lat="42.200869806110859" lon="-8.738793460652232">
        <ele>73.91015625</ele>
      </trkpt>
      <trkpt lat="42.200880367308855" lon="-8.738589445129037">
        <ele>74.48046875</ele>
      </trkpt>
      <trkpt lat="42.200880954042077" lon="-8.738589445129037">
        <ele>74.46875</ele>
      </trkpt>
      <trkpt lat="42.200959911569953" lon="-8.738513337448239">
        <ele>73.4609375</ele>
      </trkpt>
      <trkpt lat="42.200972903519869" lon="-8.738503782078624">
        <ele>73.29296875</ele>
      </trkpt>
      <trkpt lat="42.201056051999331" lon="-8.738374952226877">
        <ele>72.375</ele>
      </trkpt>
      <trkpt lat="42.201065439730883" lon="-8.738344274461269">
        <ele>72.3125</ele>
      </trkpt>
      <trkpt lat="42.20111170783639" lon="-8.738031545653939">
        <ele>72.015625</ele>
      </trkpt>
      <trkpt lat="42.20111170783639" lon="-8.738030791282654">
        <ele>72.015625</ele>
      </trkpt>
      <trkpt lat="42.201035348698497" lon="-8.737920150160789">
        <ele>73.0859375</ele>
      </trkpt>
      <trkpt lat="42.201029229909182" lon="-8.737886706367135">
        <ele>73.16796875</ele>
      </trkpt>
      <trkpt lat="42.201001150533557" lon="-8.737662239000201">
        <ele>73.3515625</ele>
      </trkpt>
      <trkpt lat="42.200987404212356" lon="-8.737416230142117">
        <ele>72.890625</ele>
      </trkpt>
      <trkpt lat="42.200987404212356" lon="-8.737401310354471">
        <ele>72.8515625</ele>
      </trkpt>
      <trkpt lat="42.200982961803675" lon="-8.737180363386869">
        <ele>72.21484375</ele>
      </trkpt>
      <trkpt lat="42.200985476374626" lon="-8.73716770671308">
        <ele>72.12890625</ele>
      </trkpt>
      <trkpt lat="42.201053285971284" lon="-8.736982299014926">
        <ele>70.4609375</ele>
      </trkpt>
      <trkpt lat="42.201055465266109" lon="-8.736978694796562">
        <ele>70.4140625</ele>
      </trkpt>
      <trkpt lat="42.201125454157591" lon="-8.736858917400241">
        <ele>68.97265625</ele>
      </trkpt>
      <trkpt lat="42.201127549633384" lon="-8.736856319010258">
        <ele>68.93359375</ele>
      </trkpt>
      <trkpt lat="42.201210781931877" lon="-8.736732350662351">
        <ele>67.421875</ele>
      </trkpt>
      <trkpt lat="42.201237687841058" lon="-8.736691195517778">
        <ele>67.01171875</ele>
      </trkpt>
      <trkpt lat="42.201262498274446" lon="-8.736642580479383">
        <ele>66.65625</ele>
      </trkpt>
      <trkpt lat="42.201280603185296" lon="-8.736592540517449">
        <ele>66.421875</ele>
      </trkpt>
      <trkpt lat="42.201292002573609" lon="-8.736528335139155">
        <ele>66.32421875</ele>
      </trkpt>
      <trkpt lat="42.201300552114844" lon="-8.736469158902764">
        <ele>66.265625</ele>
      </trkpt>
      <trkpt lat="42.201310023665428" lon="-8.736403696238995">
        <ele>66.2109375</ele>
      </trkpt>
      <trkpt lat="42.201320417225361" lon="-8.73635265044868">
        <ele>66.12109375</ele>
      </trkpt>
      <trkpt lat="42.201337013393641" lon="-8.736298670992255">
        <ele>66.06640625</ele>
      </trkpt>
      <trkpt lat="42.201344389468431" lon="-8.736275034025311">
        <ele>66.0546875</ele>
      </trkpt>
      <trkpt lat="42.20137950964272" lon="-8.736193226650357">
        <ele>65.89453125</ele>
      </trkpt>
      <trkpt lat="42.20141127705574" lon="-8.736150730401278">
        <ele>65.640625</ele>
      </trkpt>
      <trkpt lat="42.201446061953902" lon="-8.736120220273733">
        <ele>65.30859375</ele>
      </trkpt>
      <trkpt lat="42.201480763033032" lon="-8.736089207231998">
        <ele>64.99609375</ele>
      </trkpt>
      <trkpt lat="42.201511692255735" lon="-8.736050231382251">
        <ele>64.7890625</ele>
      </trkpt>
      <trkpt lat="42.201544214040041" lon="-8.736017039045691">
        <ele>64.546875</ele>
      </trkpt>
      <trkpt lat="42.201579501852393" lon="-8.735988037660718">
        <ele>64.26171875</ele>
      </trkpt>
      <trkpt lat="42.201621327549219" lon="-8.735967250540853">
        <ele>63.921875</ele>
      </trkpt>
      <trkpt lat="42.201658124104142" lon="-8.735951576381922">
        <ele>63.671875</ele>
      </trkpt>
      <trkpt lat="42.201695926487446" lon="-8.735937913879752">
        <ele>63.40234375</ele>
      </trkpt>
      <trkpt lat="42.201738338917494" lon="-8.735924502834678">
        <ele>63.08984375</ele>
      </trkpt>
      <trkpt lat="42.2017777338624" lon="-8.735912684351206">
        <ele>62.796875</ele>
      </trkpt>
      <trkpt lat="42.201816793531179" lon="-8.735900530591607">
        <ele>62.51171875</ele>
      </trkpt>
      <trkpt lat="42.201858451589942" lon="-8.735883766785264">
        <ele>62.23046875</ele>
      </trkpt>
      <trkpt lat="42.201896253973246" lon="-8.735870774835348">
        <ele>61.94140625</ele>
      </trkpt>
      <trkpt lat="42.201944952830672" lon="-8.735844371840358">
        <ele>61.6015625</ele>
      </trkpt>
      <trkpt lat="42.201982252299786" lon="-8.735816376283765">
        <ele>61.3671875</ele>
      </trkpt>
      <trkpt lat="42.202016115188599" lon="-8.735784608870745">
        <ele>61.1796875</ele>
      </trkpt>
      <trkpt lat="42.202039584517479" lon="-8.735740436241031">
        <ele>61.13671875</ele>
      </trkpt>
      <trkpt lat="42.202054252848029" lon="-8.735689474269748">
        <ele>61.203125</ele>
      </trkpt>
      <trkpt lat="42.20206699334085" lon="-8.735640691593289">
        <ele>61.2734375</ele>
      </trkpt>
      <trkpt lat="42.202069088816643" lon="-8.735629124566913">
        <ele>61.30078125</ele>
      </trkpt>
      <trkpt lat="42.202086858451366" lon="-8.735488308593631">
        <ele>61.68359375</ele>
      </trkpt>
      <trkpt lat="42.202099347487092" lon="-8.735436173155904">
        <ele>61.765625</ele>
      </trkpt>
      <trkpt lat="42.202108399942517" lon="-8.735381439328194">
        <ele>61.86328125</ele>
      </trkpt>
      <trkpt lat="42.202127845957875" lon="-8.735336344689131">
        <ele>61.80859375</ele>
      </trkpt>
      <trkpt lat="42.202160116285086" lon="-8.735298039391637">
        <ele>61.59765625</ele>
      </trkpt>
      <trkpt lat="42.202207306399941" lon="-8.735272139310837">
        <ele>61.1875</ele>
      </trkpt>
      <trkpt lat="42.202244102954865" lon="-8.735256632789969">
        <ele>60.8515625</ele>
      </trkpt>
      <trkpt lat="42.202281905338168" lon="-8.735245065763593">
        <ele>60.4921875</ele>
      </trkpt>
      <trkpt lat="42.202317696064711" lon="-8.735216734930873">
        <ele>60.1953125</ele>
      </trkpt>
      <trkpt lat="42.202346781268716" lon="-8.735178261995316">
        <ele>59.984375</ele>
      </trkpt>
      <trkpt lat="42.202372010797262" lon="-8.735131993889809">
        <ele>59.83203125</ele>
      </trkpt>
      <trkpt lat="42.202397910878062" lon="-8.735083546489477">
        <ele>59.66796875</ele>
      </trkpt>
      <trkpt lat="42.202418362721801" lon="-8.735036691650748">
        <ele>59.55078125</ele>
      </trkpt>
      <trkpt lat="42.202448202297091" lon="-8.73499134555459">
        <ele>59.32421875</ele>
      </trkpt>
      <trkpt lat="42.20247452147305" lon="-8.734946502372622">
        <ele>59.07421875</ele>
      </trkpt>
      <trkpt lat="42.20249941572547" lon="-8.73490484431386">
        <ele>58.62890625</ele>
      </trkpt>
      <trkpt lat="42.202545935288072" lon="-8.734905514866114">
        <ele>57.99609375</ele>
      </trkpt>
      <trkpt lat="42.202591449022293" lon="-8.734927643090487">
        <ele>57.30078125</ele>
      </trkpt>
      <trkpt lat="42.202629670500755" lon="-8.734952788800001">
        <ele>56.75</ele>
      </trkpt>
      <trkpt lat="42.202662527561188" lon="-8.734978185966611">
        <ele>56.171875</ele>
      </trkpt>
      <trkpt lat="42.202679794281721" lon="-8.735007354989648">
        <ele>55.84765625</ele>
      </trkpt>
      <trkpt lat="42.203134093433619" lon="-8.735518902540207">
        <ele>49.0078125</ele>
      </trkpt>
      <trkpt lat="42.203133506700397" lon="-8.735518902540207">
        <ele>49.015625</ele>
      </trkpt>
      <trkpt lat="42.203493509441614" lon="-8.736043106764555">
        <ele>45.4453125</ele>
      </trkpt>
      <trkpt lat="42.203704146668315" lon="-8.736363966017962">
        <ele>43.8984375</ele>
      </trkpt>
      <trkpt lat="42.203862397000194" lon="-8.736628498882055">
        <ele>42.61328125</ele>
      </trkpt>
      <trkpt lat="42.203971864655614" lon="-8.73690283857286">
        <ele>41.04296875</ele>
      </trkpt>
      <trkpt lat="42.203976642340422" lon="-8.736897893249989">
        <ele>41.05078125</ele>
      </trkpt>
      <trkpt lat="42.204265566542745" lon="-8.736531939357519">
        <ele>40.1171875</ele>
      </trkpt>
      <trkpt lat="42.204368999227881" lon="-8.7365139182657">
        <ele>39.3828125</ele>
      </trkpt>
      <trkpt lat="42.2044094838202" lon="-8.736500591039658">
        <ele>39.0234375</ele>
      </trkpt>
      <trkpt lat="42.204449214041233" lon="-8.736488269641995">
        <ele>38.640625</ele>
      </trkpt>
      <trkpt lat="42.20449305139482" lon="-8.736474774777889">
        <ele>38.2109375</ele>
      </trkpt>
      <trkpt lat="42.204531608149409" lon="-8.736460190266371">
        <ele>37.82421875</ele>
      </trkpt>
      <trkpt lat="42.204569410532713" lon="-8.736448623239994">
        <ele>37.44140625</ele>
      </trkpt>
      <trkpt lat="42.204611906781793" lon="-8.736436637118459">
        <ele>37.0078125</ele>
      </trkpt>
      <trkpt lat="42.204653229564428" lon="-8.73642498627305">
        <ele>36.57421875</ele>
      </trkpt>
      <trkpt lat="42.204694049432874" lon="-8.736414425075054">
        <ele>36.14453125</ele>
      </trkpt>
      <trkpt lat="42.204737635329366" lon="-8.736405540257692">
        <ele>35.68359375</ele>
      </trkpt>
      <trkpt lat="42.204781221225858" lon="-8.736400594934821">
        <ele>35.23046875</ele>
      </trkpt>
      <trkpt lat="42.204820029437542" lon="-8.736395901069045">
        <ele>34.8203125</ele>
      </trkpt>
      <trkpt lat="42.204861352220178" lon="-8.736392045393586">
        <ele>34.21484375</ele>
      </trkpt>
      <trkpt lat="42.204901669174433" lon="-8.736386178061366">
        <ele>33.453125</ele>
      </trkpt>
      <trkpt lat="42.204948356375098" lon="-8.736377041786909">
        <ele>32.5625</ele>
      </trkpt>
      <trkpt lat="42.204995295032859" lon="-8.73636782169342">
        <ele>31.6640625</ele>
      </trkpt>
      <trkpt lat="42.205035695806146" lon="-8.736362624913454">
        <ele>30.90234375</ele>
      </trkpt>
      <trkpt lat="42.205076767131686" lon="-8.736351057887077">
        <ele>30.10546875</ele>
      </trkpt>
      <trkpt lat="42.20511163584888" lon="-8.73632431961596">
        <ele>29.32421875</ele>
      </trkpt>
      <trkpt lat="42.205130830407143" lon="-8.736276375129819">
        <ele>28.6875</ele>
      </trkpt>
      <trkpt lat="42.205140553414822" lon="-8.736224072054029">
        <ele>28.1953125</ele>
      </trkpt>
      <trkpt lat="42.205140637233853" lon="-8.736172774806619">
        <ele>27.890625</ele>
      </trkpt>
      <trkpt lat="42.20512873493135" lon="-8.736100774258375">
        <ele>27.68359375</ele>
      </trkpt>
      <trkpt lat="42.20511800609529" lon="-8.736051321029663">
        <ele>27.58984375</ele>
      </trkpt>
      <trkpt lat="42.205097554251552" lon="-8.736004214733839">
        <ele>27.6875</ele>
      </trkpt>
      <trkpt lat="42.205070480704308" lon="-8.735963730141521">
        <ele>27.9453125</ele>
      </trkpt>
      <trkpt lat="42.205044496804476" lon="-8.735917378216982">
        <ele>28.15234375</ele>
      </trkpt>
      <trkpt lat="42.205021446570754" lon="-8.735851161181927">
        <ele>28.19921875</ele>
      </trkpt>
      <trkpt lat="42.205002419650555" lon="-8.735788380727172">
        <ele>28.19140625</ele>
      </trkpt>
      <trkpt lat="42.204988421872258" lon="-8.73573306016624">
        <ele>28.1171875</ele>
      </trkpt>
      <trkpt lat="42.204974507912993" lon="-8.735679080709815">
        <ele>28.03515625</ele>
      </trkpt>
      <trkpt lat="42.204955648630857" lon="-8.735616467893124">
        <ele>27.9609375</ele>
      </trkpt>
      <trkpt lat="42.204938633367419" lon="-8.735560392960906">
        <ele>27.87890625</ele>
      </trkpt>
      <trkpt lat="42.204925809055567" lon="-8.735501719638705">
        <ele>27.69921875</ele>
      </trkpt>
      <trkpt lat="42.204919774085283" lon="-8.735439777374268">
        <ele>27.390625</ele>
      </trkpt>
      <trkpt lat="42.204918935894966" lon="-8.735388312488794">
        <ele>27.08984375</ele>
      </trkpt>
      <trkpt lat="42.204926731064916" lon="-8.735331734642386">
        <ele>26.66796875</ele>
      </trkpt>
      <trkpt lat="42.204950703307986" lon="-8.735287897288799">
        <ele>26.125</ele>
      </trkpt>
      <trkpt lat="42.20497970469296" lon="-8.735251436010003">
        <ele>25.5859375</ele>
      </trkpt>
      <trkpt lat="42.205015411600471" lon="-8.735222686082125">
        <ele>25.02734375</ele>
      </trkpt>
      <trkpt lat="42.205059081315994" lon="-8.735218159854412">
        <ele>24.5</ele>
      </trkpt>
      <trkpt lat="42.205107025802135" lon="-8.735231654718518">
        <ele>23.99609375</ele>
      </trkpt>
      <trkpt lat="42.205146923661232" lon="-8.735246071591973">
        <ele>23.57421875</ele>
      </trkpt>
      <trkpt lat="42.205185815691948" lon="-8.735259398818016">
        <ele>23.1484375</ele>
      </trkpt>
      <trkpt lat="42.205227641388774" lon="-8.735268283635378">
        <ele>22.6640625</ele>
      </trkpt>
      <trkpt lat="42.205268293619156" lon="-8.735278677195311">
        <ele>22.1875</ele>
      </trkpt>
      <trkpt lat="42.205306682735682" lon="-8.735290747135878">
        <ele>21.73046875</ele>
      </trkpt>
      <trkpt lat="42.2053437307477" lon="-8.735301392152905">
        <ele>21.23828125</ele>
      </trkpt>
      <trkpt lat="42.20538186840713" lon="-8.735289070755243">
        <ele>20.7109375</ele>
      </trkpt>
      <trkpt lat="42.20541900023818" lon="-8.735252693295479">
        <ele>20.21875</ele>
      </trkpt>
      <trkpt lat="42.205425789579749" lon="-8.735246155411005">
        <ele>20.1328125</ele>
      </trkpt>
      <trkpt lat="42.205730304121971" lon="-8.734949436038733">
        <ele>17.46484375</ele>
      </trkpt>
      <trkpt lat="42.205887632444501" lon="-8.734803590923548">
        <ele>18.2109375</ele>
      </trkpt>
      <trkpt lat="42.205938510596752" lon="-8.734722957015038">
        <ele>18.87890625</ele>
      </trkpt>
      <trkpt lat="42.205971283838153" lon="-8.734665038064122">
        <ele>19.375</ele>
      </trkpt>
      <trkpt lat="42.206002129241824" lon="-8.734598821029067">
        <ele>19.9765625</ele>
      </trkpt>
      <trkpt lat="42.206028196960688" lon="-8.734523802995682">
        <ele>20.6953125</ele>
      </trkpt>
      <trkpt lat="42.206060467287898" lon="-8.734465716406703">
        <ele>21.08203125</ele>
      </trkpt>
      <trkpt lat="42.206100365146995" lon="-8.734414167702198">
        <ele>21.265625</ele>
      </trkpt>
      <trkpt lat="42.206147219985723" lon="-8.734372593462467">
        <ele>21.3515625</ele>
      </trkpt>
      <trkpt lat="42.206200109794736" lon="-8.734338143840432">
        <ele>21.36328125</ele>
      </trkpt>
      <trkpt lat="42.206254424527287" lon="-8.734316769987345">
        <ele>21.26171875</ele>
      </trkpt>
      <trkpt lat="42.206321731209755" lon="-8.734305873513222">
        <ele>21.0078125</ele>
      </trkpt>
      <trkpt lat="42.206382667645812" lon="-8.734307382255793">
        <ele>20.69140625</ele>
      </trkpt>
      <trkpt lat="42.206443436443806" lon="-8.734308807179332">
        <ele>20.375</ele>
      </trkpt>
      <trkpt lat="42.206499511376023" lon="-8.734317356720567">
        <ele>20.02734375</ele>
      </trkpt>
      <trkpt lat="42.20655751414597" lon="-8.734320206567645">
        <ele>19.71484375</ele>
      </trkpt>
      <trkpt lat="42.206614259630442" lon="-8.734333198517561">
        <ele>19.328125</ele>
      </trkpt>
      <trkpt lat="42.206661533564329" lon="-8.734367229044437">
        <ele>18.82421875</ele>
      </trkpt>
      <trkpt lat="42.206697072833776" lon="-8.734421962872148">
        <ele>18.2265625</ele>
      </trkpt>
      <trkpt lat="42.206717440858483" lon="-8.734496394172311">
        <ele>17.59765625</ele>
      </trkpt>
      <trkpt lat="42.206759434193373" lon="-8.734541069716215">
        <ele>17.11328125</ele>
      </trkpt>
      <trkpt lat="42.206763038411736" lon="-8.734544338658452">
        <ele>17.078125</ele>
      </trkpt>
      <trkpt lat="42.207611035555601" lon="-8.734976006671786">
        <ele>13.64453125</ele>
      </trkpt>
      <trkpt lat="42.207843633368611" lon="-8.73504213988781">
        <ele>14.12109375</ele>
      </trkpt>
      <trkpt lat="42.207893757149577" lon="-8.73507390730083">
        <ele>14.14453125</ele>
      </trkpt>
      <trkpt lat="42.207938767969608" lon="-8.73511397279799">
        <ele>14.109375</ele>
      </trkpt>
      <trkpt lat="42.20797648653388" lon="-8.735166192054749">
        <ele>13.9921875</ele>
      </trkpt>
      <trkpt lat="42.207994339987636" lon="-8.735192930325866">
        <ele>13.921875</ele>
      </trkpt>
      <trkpt lat="42.208696575835347" lon="-8.735478669404984">
        <ele>13.6875</ele>
      </trkpt>
      <trkpt lat="42.209248775616288" lon="-8.735732641071081">
        <ele>12.28515625</ele>
      </trkpt>
      <trkpt lat="42.209586817771196" lon="-8.735875971615314">
        <ele>10.53125</ele>
      </trkpt>
      <trkpt lat="42.209597211331129" lon="-8.735874546691775">
        <ele>10.49609375</ele>
      </trkpt>
      <trkpt lat="42.209717910736799" lon="-8.735885862261057">
        <ele>9.98046875</ele>
      </trkpt>
      <trkpt lat="42.209717910736799" lon="-8.735886951908469">
        <ele>9.98046875</ele>
      </trkpt>
      <trkpt lat="42.210524585098028" lon="-8.736301269382238">
        <ele>11.43359375</ele>
      </trkpt>
      <trkpt lat="42.211253894492984" lon="-8.736587008461356">
        <ele>15.859375</ele>
      </trkpt>
      <trkpt lat="42.211254732683301" lon="-8.736586002632976">
        <ele>15.87109375</ele>
      </trkpt>
      <trkpt lat="42.211312903091311" lon="-8.736394308507442">
        <ele>17.59765625</ele>
      </trkpt>
      <trkpt lat="42.211338970810175" lon="-8.735956605523825">
        <ele>21.29296875</ele>
      </trkpt>
      <trkpt lat="42.21135045401752" lon="-8.735553100705147">
        <ele>23.01953125</ele>
      </trkpt>
      <trkpt lat="42.211417341604829" lon="-8.735000733286142">
        <ele>24.359375</ele>
      </trkpt>
      <trkpt lat="42.211486324667931" lon="-8.734482983127236">
        <ele>22.859375</ele>
      </trkpt>
      <trkpt lat="42.211543992161751" lon="-8.73405609279871">
        <ele>21.7109375</ele>
      </trkpt>
      <trkpt lat="42.211597971618176" lon="-8.734057936817408">
        <ele>21.7890625</ele>
      </trkpt>
      <trkpt lat="42.211652453988791" lon="-8.73406246304512">
        <ele>21.875</ele>
      </trkpt>
      <trkpt lat="42.21170810982585" lon="-8.73406833037734">
        <ele>21.97265625</ele>
      </trkpt>
      <trkpt lat="42.211765693500638" lon="-8.734075874090195">
        <ele>22.07421875</ele>
      </trkpt>
      <trkpt lat="42.21183174289763" lon="-8.734080735594034">
        <ele>22.203125</ele>
      </trkpt>
      <trkpt lat="42.211886225268245" lon="-8.734082328155637">
        <ele>22.30859375</ele>
      </trkpt>
      <trkpt lat="42.211946658790112" lon="-8.734082328155637">
        <ele>22.421875</ele>
      </trkpt>
      <trkpt lat="42.212002733722329" lon="-8.734079645946622">
        <ele>22.515625</ele>
      </trkpt>
      <trkpt lat="42.212063251063228" lon="-8.734076796099544">
        <ele>22.62109375</ele>
      </trkpt>
      <trkpt lat="42.212118236348033" lon="-8.734074030071497">
        <ele>22.71484375</ele>
      </trkpt>
      <trkpt lat="42.212171545252204" lon="-8.734060451388359">
        <ele>22.78515625</ele>
      </trkpt>
      <trkpt lat="42.21219333820045" lon="-8.733991300687194">
        <ele>22.82421875</ele>
      </trkpt>
      <trkpt lat="42.212205911055207" lon="-8.733917623758316">
        <ele>22.9765625</ele>
      </trkpt>
      <trkpt lat="42.212213957682252" lon="-8.733845371752977">
        <ele>23.12890625</ele>
      </trkpt>
      <trkpt lat="42.212221501395106" lon="-8.73377320356667">
        <ele>23.28515625</ele>
      </trkpt>
      <trkpt lat="42.212223345413804" lon="-8.73374730348587">
        <ele>23.33984375</ele>
      </trkpt>
      <trkpt lat="42.212268440052867" lon="-8.733279593288898">
        <ele>23.0625</ele>
      </trkpt>
      <trkpt lat="42.212271708995104" lon="-8.733100052922964">
        <ele>22.57421875</ele>
      </trkpt>
      <trkpt lat="42.212281096726656" lon="-8.733028471469879">
        <ele>22.0625</ele>
      </trkpt>
      <trkpt lat="42.212287718430161" lon="-8.732942556962371">
        <ele>21.43359375</ele>
      </trkpt>
      <trkpt lat="42.212294088676572" lon="-8.732867706567049">
        <ele>20.88671875</ele>
      </trkpt>
      <trkpt lat="42.212303057312965" lon="-8.73279687948525">
        <ele>20.36328125</ele>
      </trkpt>
      <trkpt lat="42.212304817512631" lon="-8.732786905020475">
        <ele>20.2890625</ele>
      </trkpt>
      <trkpt lat="42.212439430877566" lon="-8.732748432084918">
        <ele>20.0625</ele>
      </trkpt>
      <trkpt lat="42.212463989853859" lon="-8.732744073495269">
        <ele>20.03515625</ele>
      </trkpt>
      <trkpt lat="42.212696000933647" lon="-8.732733428478241">
        <ele>20.0390625</ele>
      </trkpt>
      <trkpt lat="42.212720224633813" lon="-8.732665870338678">
        <ele>19.41796875</ele>
      </trkpt>
      <trkpt lat="42.212735814973712" lon="-8.732593366876245">
        <ele>18.98046875</ele>
      </trkpt>
      <trkpt lat="42.212746124714613" lon="-8.732521953061223">
        <ele>18.65625</ele>
      </trkpt>
      <trkpt lat="42.212763391435146" lon="-8.732454814016819">
        <ele>18.35546875</ele>
      </trkpt>
      <trkpt lat="42.212794236838818" lon="-8.732247361913323">
        <ele>17.43359375</ele>
      </trkpt>
      <trkpt lat="42.212826171889901" lon="-8.732204278931022">
        <ele>17.2578125</ele>
      </trkpt>
      <trkpt lat="42.212837152183056" lon="-8.732203189283609">
        <ele>17.26171875</ele>
      </trkpt>
      <trkpt lat="42.212916277348995" lon="-8.732200926169753">
        <ele>17.30078125</ele>
      </trkpt>
      <trkpt lat="42.212917534634471" lon="-8.732200926169753">
        <ele>17.30078125</ele>
      </trkpt>
      <trkpt lat="42.213011411949992" lon="-8.73217829503119">
        <ele>17.26953125</ele>
      </trkpt>
      <trkpt lat="42.213056422770023" lon="-8.732164548709989">
        <ele>17.2734375</ele>
      </trkpt>
      <trkpt lat="42.213097997009754" lon="-8.732152730226517">
        <ele>17.28515625</ele>
      </trkpt>
      <trkpt lat="42.213136972859502" lon="-8.732144683599472">
        <ele>17.3046875</ele>
      </trkpt>
      <trkpt lat="42.213177960366011" lon="-8.732140995562077">
        <ele>17.32421875</ele>
      </trkpt>
      <trkpt lat="42.213222719728947" lon="-8.732140995562077">
        <ele>17.33203125</ele>
      </trkpt>
      <trkpt lat="42.213266305625439" lon="-8.732140995562077">
        <ele>17.3359375</ele>
      </trkpt>
      <trkpt lat="42.213306622579694" lon="-8.732139989733696">
        <ele>17.33984375</ele>
      </trkpt>
      <trkpt lat="42.213346604257822" lon="-8.732137139886618">
        <ele>17.33984375</ele>
      </trkpt>
      <trkpt lat="42.213384574279189" lon="-8.732133451849222">
        <ele>17.34375</ele>
      </trkpt>
      <trkpt lat="42.213423131033778" lon="-8.732125572860241">
        <ele>17.34375</ele>
      </trkpt>
      <trkpt lat="42.213462023064494" lon="-8.732115179300308">
        <ele>17.34375</ele>
      </trkpt>
      <trkpt lat="42.213499154895544" lon="-8.732101013883948">
        <ele>17.34375</ele>
      </trkpt>
      <trkpt lat="42.213526479899883" lon="-8.732067653909326">
        <ele>17.33984375</ele>
      </trkpt>
      <trkpt lat="42.213544081896544" lon="-8.732016105204821">
        <ele>17.3359375</ele>
      </trkpt>
      <trkpt lat="42.213564282283187" lon="-8.731962544843554">
        <ele>17.33203125</ele>
      </trkpt>
      <trkpt lat="42.213582722470164" lon="-8.731917534023523">
        <ele>17.33984375</ele>
      </trkpt>
      <trkpt lat="42.213603761047125" lon="-8.73187243938446">
        <ele>17.3515625</ele>
      </trkpt>
      <trkpt lat="42.213628236204386" lon="-8.731830529868603">
        <ele>17.37109375</ele>
      </trkpt>
      <trkpt lat="42.213653968647122" lon="-8.731790883466601">
        <ele>17.3828125</ele>
      </trkpt>
      <trkpt lat="42.213681964203715" lon="-8.731747381389141">
        <ele>17.40234375</ele>
      </trkpt>
      <trkpt lat="42.213707026094198" lon="-8.731706561520696">
        <ele>17.453125</ele>
      </trkpt>
      <trkpt lat="42.213729657232761" lon="-8.731663562357426">
        <ele>17.5859375</ele>
      </trkpt>
      <trkpt lat="42.213754383847117" lon="-8.731624335050583">
        <ele>17.71484375</ele>
      </trkpt>
      <trkpt lat="42.213785564526916" lon="-8.731579408049583">
        <ele>17.8671875</ele>
      </trkpt>
      <trkpt lat="42.213816326111555" lon="-8.731543952599168">
        <ele>17.99609375</ele>
      </trkpt>
      <trkpt lat="42.213849015533924" lon="-8.731510005891323">
        <ele>18.12890625</ele>
      </trkpt>
      <trkpt lat="42.213883548974991" lon="-8.731479244306684">
        <ele>18.25390625</ele>
      </trkpt>
      <trkpt lat="42.213921016082168" lon="-8.731449237093329">
        <ele>18.3828125</ele>
      </trkpt>
      <trkpt lat="42.213957058265805" lon="-8.731427695602179">
        <ele>18.484375</ele>
      </trkpt>
      <trkpt lat="42.213992513716221" lon="-8.731404477730393">
        <ele>18.59765625</ele>
      </trkpt>
      <trkpt lat="42.214030819013715" lon="-8.731376314535737">
        <ele>18.73046875</ele>
      </trkpt>
      <trkpt lat="42.21406577154994" lon="-8.731352761387825">
        <ele>18.84375</ele>
      </trkpt>
      <trkpt lat="42.214102651923895" lon="-8.731336751952767">
        <ele>18.92578125</ele>
      </trkpt>
      <trkpt lat="42.214140621945262" lon="-8.731323340907693">
        <ele>18.93359375</ele>
      </trkpt>
      <trkpt lat="42.214177837595344" lon="-8.731315629556775">
        <ele>18.91796875</ele>
      </trkpt>
      <trkpt lat="42.214192841202021" lon="-8.731312528252602">
        <ele>18.9140625</ele>
      </trkpt>
      <trkpt lat="42.21418596804142" lon="-8.731239186599851">
        <ele>19.125</ele>
      </trkpt>
      <trkpt lat="42.21417473629117" lon="-8.731182776391506">
        <ele>19.30078125</ele>
      </trkpt>
      <trkpt lat="42.214167444035411" lon="-8.731129970401525">
        <ele>19.46484375</ele>
      </trkpt>
      <trkpt lat="42.214161828160286" lon="-8.73107741586864">
        <ele>19.62890625</ele>
      </trkpt>
      <trkpt lat="42.214155122637749" lon="-8.731019077822566">
        <ele>19.81640625</ele>
      </trkpt>
      <trkpt lat="42.21414883621037" lon="-8.730965349823236">
        <ele>19.9921875</ele>
      </trkpt>
      <trkpt lat="42.214147495105863" lon="-8.730912460014224">
        <ele>20.15234375</ele>
      </trkpt>
      <trkpt lat="42.214147495105863" lon="-8.730904664844275">
        <ele>20.17578125</ele>
      </trkpt>
      <trkpt lat="42.214134000241756" lon="-8.730791425332427">
        <ele>20.5703125</ele>
      </trkpt>
      <trkpt lat="42.214142214506865" lon="-8.730742894113064">
        <ele>20.57421875</ele>
      </trkpt>
      <trkpt lat="42.214153613895178" lon="-8.730694279074669">
        <ele>20.5703125</ele>
      </trkpt>
      <trkpt lat="42.214167192578316" lon="-8.730643233284354">
        <ele>20.56640625</ele>
      </trkpt>
      <trkpt lat="42.214184626936913" lon="-8.730594534426928">
        <ele>20.55078125</ele>
      </trkpt>
      <trkpt lat="42.21420650370419" lon="-8.730542818084359">
        <ele>20.52734375</ele>
      </trkpt>
      <trkpt lat="42.214230475947261" lon="-8.730493532493711">
        <ele>20.5</ele>
      </trkpt>
      <trkpt lat="42.214251514524221" lon="-8.730448689311743">
        <ele>20.484375</ele>
      </trkpt>
      <trkpt lat="42.214266350492835" lon="-8.730394877493382">
        <ele>20.5</ele>
      </trkpt>
      <trkpt lat="42.214273391291499" lon="-8.730362439528108">
        <ele>20.51953125</ele>
      </trkpt>
      <trkpt lat="42.214435497298837" lon="-8.730193125084043">
        <ele>20.82421875</ele>
      </trkpt>
      <trkpt lat="42.214454272761941" lon="-8.730124896392226">
        <ele>21.12890625</ele>
      </trkpt>
      <trkpt lat="42.214469024911523" lon="-8.730044765397906">
        <ele>21.50390625</ele>
      </trkpt>
      <trkpt lat="42.21448109485209" lon="-8.729970585554838">
        <ele>21.859375</ele>
      </trkpt>
      <trkpt lat="42.214489979669452" lon="-8.729898082092404">
        <ele>22.21484375</ele>
      </trkpt>
      <trkpt lat="42.214510599151254" lon="-8.729824656620622">
        <ele>22.84765625</ele>
      </trkpt>
      <trkpt lat="42.2145358286798" lon="-8.72975860722363">
        <ele>23.58203125</ele>
      </trkpt>
      <trkpt lat="42.214566841721535" lon="-8.729695994406939">
        <ele>24.2265625</ele>
      </trkpt>
      <trkpt lat="42.214607493951917" lon="-8.729640925303102">
        <ele>24.703125</ele>
      </trkpt>
      <trkpt lat="42.214650576934218" lon="-8.729589711874723">
        <ele>25.09375</ele>
      </trkpt>
      <trkpt lat="42.214692905545235" lon="-8.729539001360536">
        <ele>25.453125</ele>
      </trkpt>
      <trkpt lat="42.21473422832787" lon="-8.729485273361206">
        <ele>25.81640625</ele>
      </trkpt>
      <trkpt lat="42.214777311310172" lon="-8.729433976113796">
        <ele>26.11328125</ele>
      </trkpt>
      <trkpt lat="42.214824166148901" lon="-8.729387624189258">
        <ele>26.31640625</ele>
      </trkpt>
      <trkpt lat="42.214868171140552" lon="-8.729344373568892">
        <ele>26.5</ele>
      </trkpt>
      <trkpt lat="42.214916031807661" lon="-8.729297518730164">
        <ele>26.68359375</ele>
      </trkpt>
      <trkpt lat="42.214963473379612" lon="-8.72924504801631">
        <ele>26.9140625</ele>
      </trkpt>
      <trkpt lat="42.215010328218341" lon="-8.729196097701788">
        <ele>27.1015625</ele>
      </trkpt>
      <trkpt lat="42.215053997933865" lon="-8.729153014719486">
        <ele>27.16015625</ele>
      </trkpt>
      <trkpt lat="42.215102445334196" lon="-8.72911018319428">
        <ele>27.14453125</ele>
      </trkpt>
      <trkpt lat="42.215149635449052" lon="-8.7290642503649">
        <ele>27.16796875</ele>
      </trkpt>
      <trkpt lat="42.2151954844594" lon="-8.729014964774251">
        <ele>27.2265625</ele>
      </trkpt>
      <trkpt lat="42.215238064527512" lon="-8.728961488232017">
        <ele>27.3515625</ele>
      </trkpt>
      <trkpt lat="42.215276034548879" lon="-8.728904910385609">
        <ele>27.59765625</ele>
      </trkpt>
      <trkpt lat="42.215310484170914" lon="-8.728847745805979">
        <ele>27.90625</ele>
      </trkpt>
      <trkpt lat="42.215347196906805" lon="-8.728793766349554">
        <ele>28.1484375</ele>
      </trkpt>
      <trkpt lat="42.215386759489775" lon="-8.728742888197303">
        <ele>28.31640625</ele>
      </trkpt>
      <trkpt lat="42.215428417548537" lon="-8.728686394169927">
        <ele>28.515625</ele>
      </trkpt>
      <trkpt lat="42.215470159426332" lon="-8.728631073608994">
        <ele>28.68359375</ele>
      </trkpt>
      <trkpt lat="42.215514248237014" lon="-8.728581285104156">
        <ele>28.76171875</ele>
      </trkpt>
      <trkpt lat="42.215566048398614" lon="-8.728535016998649">
        <ele>28.7109375</ele>
      </trkpt>
      <trkpt lat="42.215621285140514" lon="-8.728501154109836">
        <ele>28.48046875</ele>
      </trkpt>
      <trkpt lat="42.215668894350529" lon="-8.728467039763927">
        <ele>28.26171875</ele>
      </trkpt>
      <trkpt lat="42.215720610693097" lon="-8.728423370048404">
        <ele>27.9296875</ele>
      </trkpt>
      <trkpt lat="42.215766962617636" lon="-8.728381041437387">
        <ele>27.64453125</ele>
      </trkpt>
      <trkpt lat="42.215813398361206" lon="-8.728322368115187">
        <ele>27.4296875</ele>
      </trkpt>
      <trkpt lat="42.215858157724142" lon="-8.72826729901135">
        <ele>27.20703125</ele>
      </trkpt>
      <trkpt lat="42.215900318697095" lon="-8.728218181058764">
        <ele>26.98046875</ele>
      </trkpt>
      <trkpt lat="42.215944407507777" lon="-8.728162692859769">
        <ele>26.75390625</ele>
      </trkpt>
      <trkpt lat="42.215991597622633" lon="-8.728106450289488">
        <ele>26.40625</ele>
      </trkpt>
      <trkpt lat="42.216054294258356" lon="-8.72804207727313">
        <ele>25.875</ele>
      </trkpt>
      <trkpt lat="42.216098634526134" lon="-8.727998826652765">
        <ele>25.4375</ele>
      </trkpt>
      <trkpt lat="42.2161521948874" lon="-8.727955408394337">
        <ele>24.81640625</ele>
      </trkpt>
      <trkpt lat="42.216202653944492" lon="-8.727914085611701">
        <ele>24.234375</ele>
      </trkpt>
      <trkpt lat="42.216253615915775" lon="-8.727872930467129">
        <ele>23.64453125</ele>
      </trkpt>
      <trkpt lat="42.216299548745155" lon="-8.727834289893508">
        <ele>23.1171875</ele>
      </trkpt>
      <trkpt lat="42.216348079964519" lon="-8.727793637663126">
        <ele>22.55859375</ele>
      </trkpt>
      <trkpt lat="42.216393258422613" lon="-8.727754410356283">
        <ele>22.0390625</ele>
      </trkpt>
      <trkpt lat="42.216439777985215" lon="-8.72771518304944">
        <ele>21.72265625</ele>
      </trkpt>
      <trkpt lat="42.216491913422942" lon="-8.727668998762965">
        <ele>21.4765625</ele>
      </trkpt>
      <trkpt lat="42.216535583138466" lon="-8.72761694714427">
        <ele>21.29296875</ele>
      </trkpt>
      <trkpt lat="42.216576654464006" lon="-8.727557519450784">
        <ele>21.12890625</ele>
      </trkpt>
      <trkpt lat="42.216614624485373" lon="-8.72749331407249">
        <ele>20.6875</ele>
      </trkpt>
      <trkpt lat="42.216642955318093" lon="-8.727430952712893">
        <ele>20.30078125</ele>
      </trkpt>
      <trkpt lat="42.216646643355489" lon="-8.727419972419739">
        <ele>20.2421875</ele>
      </trkpt>
      <trkpt lat="42.216719314455986" lon="-8.727201540023088">
        <ele>19.12109375</ele>
      </trkpt>
      <trkpt lat="42.216745633631945" lon="-8.727124929428101">
        <ele>18.74609375</ele>
      </trkpt>
      <trkpt lat="42.216769941151142" lon="-8.727047899737954">
        <ele>18.3828125</ele>
      </trkpt>
      <trkpt lat="42.216792488470674" lon="-8.726979587227106">
        <ele>18.06640625</ele>
      </trkpt>
      <trkpt lat="42.21682014875114" lon="-8.726910687983036">
        <ele>17.73828125</ele>
      </trkpt>
      <trkpt lat="42.216844456270337" lon="-8.726841369643807">
        <ele>17.4375</ele>
      </trkpt>
      <trkpt lat="42.216867171227932" lon="-8.726767608895898">
        <ele>17.1484375</ele>
      </trkpt>
      <trkpt lat="42.216883515939116" lon="-8.726696446537971">
        <ele>16.98828125</ele>
      </trkpt>
      <trkpt lat="42.216905727982521" lon="-8.726614806801081">
        <ele>16.86328125</ele>
      </trkpt>
      <trkpt lat="42.21692668274045" lon="-8.726534759625793">
        <ele>16.80078125</ele>
      </trkpt>
      <trkpt lat="42.216943027451634" lon="-8.726462004706264">
        <ele>16.71875</ele>
      </trkpt>
      <trkpt lat="42.216958198696375" lon="-8.726375419646502">
        <ele>16.59375</ele>
      </trkpt>
      <trkpt lat="42.216974794864655" lon="-8.726293863728642">
        <ele>16.46875</ele>
      </trkpt>
      <trkpt lat="42.216989798471332" lon="-8.726223036646843">
        <ele>16.34765625</ele>
      </trkpt>
      <trkpt lat="42.217002706602216" lon="-8.726144079118967">
        <ele>16.21484375</ele>
      </trkpt>
      <trkpt lat="42.217020727694035" lon="-8.726067049428821">
        <ele>16.125</ele>
      </trkpt>
      <trkpt lat="42.217041095718741" lon="-8.725993456318974">
        <ele>16.02734375</ele>
      </trkpt>
      <trkpt lat="42.217056015506387" lon="-8.725922293961048">
        <ele>15.921875</ele>
      </trkpt>
      <trkpt lat="42.217074539512396" lon="-8.72583931311965">
        <ele>15.7890625</ele>
      </trkpt>
      <trkpt lat="42.217088704928756" lon="-8.725764043629169">
        <ele>15.66015625</ele>
      </trkpt>
      <trkpt lat="42.217100774869323" lon="-8.725691204890609">
        <ele>15.546875</ele>
      </trkpt>
      <trkpt lat="42.217116449028254" lon="-8.725622305646539">
        <ele>15.546875</ele>
      </trkpt>
      <trkpt lat="42.217136565595865" lon="-8.725547287613153">
        <ele>15.5390625</ele>
      </trkpt>
      <trkpt lat="42.217163890600204" lon="-8.725474951788783">
        <ele>15.515625</ele>
      </trkpt>
      <trkpt lat="42.217190377414227" lon="-8.725411500781775">
        <ele>15.484375</ele>
      </trkpt>
      <trkpt lat="42.21722424030304" lon="-8.72534872032702">
        <ele>15.4375</ele>
      </trkpt>
      <trkpt lat="42.217258270829916" lon="-8.725279904901981">
        <ele>15.3828125</ele>
      </trkpt>
      <trkpt lat="42.217286517843604" lon="-8.725215028971434">
        <ele>15.34765625</ele>
      </trkpt>
      <trkpt lat="42.217304287478328" lon="-8.72514009475708">
        <ele>15.359375</ele>
      </trkpt>
      <trkpt lat="42.217315016314387" lon="-8.725069183856249">
        <ele>15.38671875</ele>
      </trkpt>
      <trkpt lat="42.217318201437593" lon="-8.724989974871278">
        <ele>15.4296875</ele>
      </trkpt>
      <trkpt lat="42.217311495915055" lon="-8.724911101162434">
        <ele>15.49609375</ele>
      </trkpt>
      <trkpt lat="42.217303030192852" lon="-8.724828371778131">
        <ele>15.56640625</ele>
      </trkpt>
      <trkpt lat="42.217288026586175" lon="-8.724745726212859">
        <ele>15.671875</ele>
      </trkpt>
      <trkpt lat="42.217264892533422" lon="-8.724671211093664">
        <ele>15.8046875</ele>
      </trkpt>
      <trkpt lat="42.217238489538431" lon="-8.724605664610863">
        <ele>15.93359375</ele>
      </trkpt>
      <trkpt lat="42.21720764413476" lon="-8.72453274205327">
        <ele>16.0703125</ele>
      </trkpt>
      <trkpt lat="42.217172356322408" lon="-8.724464932456613">
        <ele>16.19921875</ele>
      </trkpt>
      <trkpt lat="42.21714117564261" lon="-8.724405253306031">
        <ele>16.3125</ele>
      </trkpt>
      <trkpt lat="42.217104127630591" lon="-8.72433677315712">
        <ele>16.43359375</ele>
      </trkpt>
      <trkpt lat="42.21707277931273" lon="-8.724274914711714">
        <ele>16.453125</ele>
      </trkpt>
      <trkpt lat="42.217032965272665" lon="-8.724221270531416">
        <ele>16.46484375</ele>
      </trkpt>
      <trkpt lat="42.216990301385522" lon="-8.724162261933088">
        <ele>16.50390625</ele>
      </trkpt>
      <trkpt lat="42.216952499002218" lon="-8.724097469821572">
        <ele>16.5546875</ele>
      </trkpt>
      <trkpt lat="42.216911511495709" lon="-8.72404458001256">
        <ele>16.6484375</ele>
      </trkpt>
      <trkpt lat="42.216870523989201" lon="-8.723993618041277">
        <ele>16.765625</ele>
      </trkpt>
      <trkpt lat="42.21683481708169" lon="-8.723939135670662">
        <ele>17.19921875</ele>
      </trkpt>
      <trkpt lat="42.216795422136784" lon="-8.723888257518411">
        <ele>17.69140625</ele>
      </trkpt>
      <trkpt lat="42.216760888695717" lon="-8.723832936957479">
        <ele>18.1328125</ele>
      </trkpt>
      <trkpt lat="42.216729372739792" lon="-8.72376462444663">
        <ele>18.5390625</ele>
      </trkpt>
      <trkpt lat="42.216725097969174" lon="-8.723688935860991">
        <ele>18.60546875</ele>
      </trkpt>
      <trkpt lat="42.216744627803564" lon="-8.723602602258325">
        <ele>18.34765625</ele>
      </trkpt>
      <trkpt lat="42.216766253113747" lon="-8.72353496029973">
        <ele>18.04296875</ele>
      </trkpt>
      <trkpt lat="42.21680061891675" lon="-8.723476538434625">
        <ele>17.53515625</ele>
      </trkpt>
      <trkpt lat="42.216838672757149" lon="-8.723420547321439">
        <ele>16.94921875</ele>
      </trkpt>
      <trkpt lat="42.2168861143291" lon="-8.723375285044312">
        <ele>16.421875</ele>
      </trkpt>
      <trkpt lat="42.21693011932075" lon="-8.723330777138472">
        <ele>16.34375</ele>
      </trkpt>
      <trkpt lat="42.216975213959813" lon="-8.723287777975202">
        <ele>16.22265625</ele>
      </trkpt>
      <trkpt lat="42.21702198497951" lon="-8.723245784640312">
        <ele>16.0546875</ele>
      </trkpt>
      <trkpt lat="42.217062301933765" lon="-8.723183758556843">
        <ele>15.9921875</ele>
      </trkpt>
      <trkpt lat="42.217091303318739" lon="-8.723122403025627">
        <ele>15.984375</ele>
      </trkpt>
      <trkpt lat="42.217101780697703" lon="-8.723045876249671">
        <ele>16.17578125</ele>
      </trkpt>
      <trkpt lat="42.217098930850625" lon="-8.722968846559525">
        <ele>16.48046875</ele>
      </trkpt>
      <trkpt lat="42.217084765434265" lon="-8.722896343097091">
        <ele>16.90625</ele>
      </trkpt>
      <trkpt lat="42.217071605846286" lon="-8.722809506580234">
        <ele>17.4296875</ele>
      </trkpt>
      <trkpt lat="42.217050064355135" lon="-8.722731471061707">
        <ele>18.0234375</ele>
      </trkpt>
      <trkpt lat="42.217040257528424" lon="-8.722659470513463">
        <ele>18.47265625</ele>
      </trkpt>
      <trkpt lat="42.217031205072999" lon="-8.722587134689093">
        <ele>18.92578125</ele>
      </trkpt>
      <trkpt lat="42.217028019949794" lon="-8.722513960674405">
        <ele>19.31640625</ele>
      </trkpt>
      <trkpt lat="42.217038497328758" lon="-8.722440535202622">
        <ele>19.61328125</ele>
      </trkpt>
      <trkpt lat="42.217060457915068" lon="-8.722372557967901">
        <ele>19.8984375</ele>
      </trkpt>
      <trkpt lat="42.217096500098705" lon="-8.722308436408639">
        <ele>19.98046875</ele>
      </trkpt>
      <trkpt lat="42.21713975071907" lon="-8.722255546599627">
        <ele>19.890625</ele>
      </trkpt>
      <trkpt lat="42.21717881038785" lon="-8.722203746438026">
        <ele>19.8515625</ele>
      </trkpt>
      <trkpt lat="42.217230945825577" lon="-8.722154377028346">
        <ele>19.64453125</ele>
      </trkpt>
      <trkpt lat="42.217283248901367" lon="-8.722108863294125">
        <ele>19.41796875</ele>
      </trkpt>
      <trkpt lat="42.217334797605872" lon="-8.722068965435028">
        <ele>19.171875</ele>
      </trkpt>
      <trkpt lat="42.217379976063967" lon="-8.722032755613327">
        <ele>19.2734375</ele>
      </trkpt>
      <trkpt lat="42.217550715431571" lon="-8.721877103671432">
        <ele>19.9765625</ele>
      </trkpt>
      <trkpt lat="42.217604191973805" lon="-8.721844917163253">
        <ele>19.98828125</ele>
      </trkpt>
      <trkpt lat="42.217655321583152" lon="-8.721811808645725">
        <ele>20.00390625</ele>
      </trkpt>
      <trkpt lat="42.217702427878976" lon="-8.721772665157914">
        <ele>20.0859375</ele>
      </trkpt>
      <trkpt lat="42.217751210555434" lon="-8.72172748669982">
        <ele>20.1953125</ele>
      </trkpt>
      <trkpt lat="42.217801669612527" lon="-8.72168742120266">
        <ele>20.234375</ele>
      </trkpt>
      <trkpt lat="42.217857241630554" lon="-8.721671579405665">
        <ele>20.11328125</ele>
      </trkpt>
      <trkpt lat="42.217917004600167" lon="-8.721659258008003">
        <ele>19.92578125</ele>
      </trkpt>
      <trkpt lat="42.217971067875624" lon="-8.721645846962929">
        <ele>19.765625</ele>
      </trkpt>
      <trkpt lat="42.218024292960763" lon="-8.721628244966269">
        <ele>19.62890625</ele>
      </trkpt>
      <trkpt lat="42.218077098950744" lon="-8.721604691818357">
        <ele>19.515625</ele>
      </trkpt>
      <trkpt lat="42.218132168054581" lon="-8.72157946228981">
        <ele>19.3828125</ele>
      </trkpt>
      <trkpt lat="42.218189081177115" lon="-8.721552304923534">
        <ele>19.22265625</ele>
      </trkpt>
      <trkpt lat="42.218236941844225" lon="-8.721513915807009">
        <ele>19.34375</ele>
      </trkpt>
      <trkpt lat="42.218280946835876" lon="-8.721455745398998">
        <ele>19.87109375</ele>
      </trkpt>
      <trkpt lat="42.218325873836875" lon="-8.721410566940904">
        <ele>20.2109375</ele>
      </trkpt>
      <trkpt lat="42.218370465561748" lon="-8.721370417624712">
        <ele>20.4453125</ele>
      </trkpt>
      <trkpt lat="42.218415811657906" lon="-8.721328172832727">
        <ele>20.66015625</ele>
      </trkpt>
      <trkpt lat="42.218467025086284" lon="-8.721281820908189">
        <ele>20.8359375</ele>
      </trkpt>
      <trkpt lat="42.218519914895296" lon="-8.721245191991329">
        <ele>20.84765625</ele>
      </trkpt>
      <trkpt lat="42.218567188829184" lon="-8.721210239455104">
        <ele>20.83984375</ele>
      </trkpt>
      <trkpt lat="42.218611612915993" lon="-8.7211655639112">
        <ele>20.90625</ele>
      </trkpt>
      <trkpt lat="42.2186578810215" lon="-8.721117367967963">
        <ele>20.9453125</ele>
      </trkpt>
      <trkpt lat="42.218707334250212" lon="-8.721084259450436">
        <ele>20.77734375</ele>
      </trkpt>
      <trkpt lat="42.218761313706636" lon="-8.721079314127564">
        <ele>20.375</ele>
      </trkpt>
      <trkpt lat="42.218819316476583" lon="-8.721091551706195">
        <ele>19.8359375</ele>
      </trkpt>
      <trkpt lat="42.218873463571072" lon="-8.721099765971303">
        <ele>19.36328125</ele>
      </trkpt>
      <trkpt lat="42.218930963426828" lon="-8.721092389896512">
        <ele>18.96484375</ele>
      </trkpt>
      <trkpt lat="42.218991816043854" lon="-8.721073782071471">
        <ele>18.59765625</ele>
      </trkpt>
      <trkpt lat="42.219052584841847" lon="-8.721050145104527">
        <ele>18.296875</ele>
      </trkpt>
      <trkpt lat="42.219102121889591" lon="-8.721014941111207">
        <ele>18.15234375</ele>
      </trkpt>
      <trkpt lat="42.219143863767385" lon="-8.720964482054114">
        <ele>18.15234375</ele>
      </trkpt>
      <trkpt lat="42.21918267197907" lon="-8.720914274454117">
        <ele>18.13671875</ele>
      </trkpt>
      <trkpt lat="42.219217792153358" lon="-8.720855852589011">
        <ele>18.42578125</ele>
      </trkpt>
      <trkpt lat="42.219249559566379" lon="-8.720787037163973">
        <ele>18.7734375</ele>
      </trkpt>
      <trkpt lat="42.219278644770384" lon="-8.720718724653125">
        <ele>19.09765625</ele>
      </trkpt>
      <trkpt lat="42.219306053593755" lon="-8.72065108269453">
        <ele>19.40625</ele>
      </trkpt>
      <trkpt lat="42.219330193474889" lon="-8.720585033297539">
        <ele>19.76171875</ele>
      </trkpt>
      <trkpt lat="42.219360619783401" lon="-8.72051814571023">
        <ele>20.16796875</ele>
      </trkpt>
      <trkpt lat="42.219390207901597" lon="-8.72045318596065">
        <ele>20.53515625</ele>
      </trkpt>
      <trkpt lat="42.219415605068207" lon="-8.720384789630771">
        <ele>20.92578125</ele>
      </trkpt>
      <trkpt lat="42.219435218721628" lon="-8.720317063853145">
        <ele>21.31640625</ele>
      </trkpt>
      <trkpt lat="42.219441924244165" lon="-8.720241710543633">
        <ele>21.83203125</ele>
      </trkpt>
      <trkpt lat="42.219441002234817" lon="-8.720167195424438">
        <ele>22.390625</ele>
      </trkpt>
      <trkpt lat="42.219424825161695" lon="-8.720097374171019">
        <ele>22.96484375</ele>
      </trkpt>
      <trkpt lat="42.219403702765703" lon="-8.720026295632124">
        <ele>23.55859375</ele>
      </trkpt>
      <trkpt lat="42.219372689723969" lon="-8.719967622309923">
        <ele>24.140625</ele>
      </trkpt>
      <trkpt lat="42.219325415790081" lon="-8.719920013099909">
        <ele>24.765625</ele>
      </trkpt>
      <trkpt lat="42.21928434446454" lon="-8.719870559871197">
        <ele>25.34765625</ele>
      </trkpt>
      <trkpt lat="42.219241596758366" lon="-8.719821609556675">
        <ele>25.93359375</ele>
      </trkpt>
      <trkpt lat="42.219197256490588" lon="-8.719770899042487">
        <ele>26.53515625</ele>
      </trkpt>
      <trkpt lat="42.219154760241508" lon="-8.719718428328633">
        <ele>27.375</ele>
      </trkpt>
      <trkpt lat="42.219116203486919" lon="-8.719663862138987">
        <ele>28.22265625</ele>
      </trkpt>
      <trkpt lat="42.219074796885252" lon="-8.719612648710608">
        <ele>29.01953125</ele>
      </trkpt>
      <trkpt lat="42.21904051490128" lon="-8.719539642333984">
        <ele>29.78125</ele>
      </trkpt>
      <trkpt lat="42.219018805772066" lon="-8.719472922384739">
        <ele>30.328125</ele>
      </trkpt>
      <trkpt lat="42.219003131613135" lon="-8.719396898522973">
        <ele>30.81640625</ele>
      </trkpt>
      <trkpt lat="42.218988463282585" lon="-8.71932003647089">
        <ele>31.29296875</ele>
      </trkpt>
      <trkpt lat="42.218969268724322" lon="-8.71924577280879">
        <ele>31.828125</ele>
      </trkpt>
      <trkpt lat="42.218952756375074" lon="-8.71917393989861">
        <ele>31.96484375</ele>
      </trkpt>
      <trkpt lat="42.218938423320651" lon="-8.719101939350367">
        <ele>31.91796875</ele>
      </trkpt>
      <trkpt lat="42.218922581523657" lon="-8.719031699001789">
        <ele>31.8984375</ele>
      </trkpt>
      <trkpt lat="42.218904728069901" lon="-8.718954585492611">
        <ele>31.87890625</ele>
      </trkpt>
      <trkpt lat="42.218892825767398" lon="-8.718882333487272">
        <ele>31.78515625</ele>
      </trkpt>
      <trkpt lat="42.218887712806463" lon="-8.718809830024838">
        <ele>31.59375</ele>
      </trkpt>
      <trkpt lat="42.218888634815812" lon="-8.71879180893302">
        <ele>31.51171875</ele>
      </trkpt>
      <trkpt lat="42.218906152993441" lon="-8.71870044618845">
        <ele>30.81640625</ele>
      </trkpt>
      <trkpt lat="42.218904057517648" lon="-8.71860958635807">
        <ele>30.35546875</ele>
      </trkpt>
      <trkpt lat="42.218904057517648" lon="-8.718528114259243">
        <ele>29.9140625</ele>
      </trkpt>
      <trkpt lat="42.218907745555043" lon="-8.718447983264923">
        <ele>29.4296875</ele>
      </trkpt>
      <trkpt lat="42.218911098316312" lon="-8.718374306336045">
        <ele>28.98828125</ele>
      </trkpt>
      <trkpt lat="42.21891445107758" lon="-8.718300126492977">
        <ele>28.54296875</ele>
      </trkpt>
      <trkpt lat="42.218922916799784" lon="-8.718226281926036">
        <ele>27.9453125</ele>
      </trkpt>
      <trkpt lat="42.218916714191437" lon="-8.718149503692985">
        <ele>27.50390625</ele>
      </trkpt>
      <trkpt lat="42.218915708363056" lon="-8.718068450689316">
        <ele>26.96875</ele>
      </trkpt>
      <trkpt lat="42.218909338116646" lon="-8.717993851751089">
        <ele>26.52734375</ele>
      </trkpt>
      <trkpt lat="42.218887126073241" lon="-8.717930568382144">
        <ele>26.28515625</ele>
      </trkpt>
      <trkpt lat="42.218854017555714" lon="-8.717872817069292">
        <ele>26.12890625</ele>
      </trkpt>
      <trkpt lat="42.218837169930339" lon="-8.717797547578812">
        <ele>25.7109375</ele>
      </trkpt>
      <trkpt lat="42.218817221000791" lon="-8.717725714668632">
        <ele>25.33984375</ele>
      </trkpt>
      <trkpt lat="42.218806156888604" lon="-8.717653881758451">
        <ele>24.89453125</ele>
      </trkpt>
      <trkpt lat="42.218829961493611" lon="-8.717589424923062">
        <ele>24.30859375</ele>
      </trkpt>
      <trkpt lat="42.218878660351038" lon="-8.717546509578824">
        <ele>23.77734375</ele>
      </trkpt>
      <trkpt lat="42.218931131064892" lon="-8.717525722458959">
        <ele>23.3984375</ele>
      </trkpt>
      <trkpt lat="42.218978237360716" lon="-8.717482052743435">
        <ele>22.93359375</ele>
      </trkpt>
      <trkpt lat="42.219012854620814" lon="-8.717419439926744">
        <ele>22.44921875</ele>
      </trkpt>
      <trkpt lat="42.219032971188426" lon="-8.717349618673325">
        <ele>22.046875</ele>
      </trkpt>
      <trkpt lat="42.219041856005788" lon="-8.717275941744447">
        <ele>21.74609375</ele>
      </trkpt>
      <trkpt lat="42.21903900615871" lon="-8.717202516272664">
        <ele>21.48046875</ele>
      </trkpt>
      <trkpt lat="42.219023834913969" lon="-8.717133114114404">
        <ele>21.265625</ele>
      </trkpt>
      <trkpt lat="42.218982931226492" lon="-8.717080475762486">
        <ele>21.16796875</ele>
      </trkpt>
      <trkpt lat="42.218929789960384" lon="-8.717049295082688">
        <ele>21.171875</ele>
      </trkpt>
      <trkpt lat="42.218877151608467" lon="-8.717024987563491">
        <ele>21.1953125</ele>
      </trkpt>
      <trkpt lat="42.218820741400123" lon="-8.717005709186196">
        <ele>21.2421875</ele>
      </trkpt>
      <trkpt lat="42.218764247372746" lon="-8.716990705579519">
        <ele>21.3046875</ele>
      </trkpt>
      <trkpt lat="42.21871362067759" lon="-8.71696338057518">
        <ele>21.3046875</ele>
      </trkpt>
      <trkpt lat="42.218683278188109" lon="-8.716896744444966">
        <ele>21.19140625</ele>
      </trkpt>
      <trkpt lat="42.218665592372417" lon="-8.716827258467674">
        <ele>21.2109375</ele>
      </trkpt>
      <trkpt lat="42.218654192984104" lon="-8.716745199635625">
        <ele>21.18359375</ele>
      </trkpt>
      <trkpt lat="42.218654192984104" lon="-8.716666577383876">
        <ele>21.109375</ele>
      </trkpt>
      <trkpt lat="42.218659725040197" lon="-8.716592229902744">
        <ele>21.01953125</ele>
      </trkpt>
      <trkpt lat="42.218678081408143" lon="-8.716521486639977">
        <ele>20.90234375</ele>
      </trkpt>
      <trkpt lat="42.218700293451548" lon="-8.71645032428205">
        <ele>20.78125</ele>
      </trkpt>
      <trkpt lat="42.218720410019159" lon="-8.716377904638648">
        <ele>20.8671875</ele>
      </trkpt>
      <trkpt lat="42.218751255422831" lon="-8.71631545946002">
        <ele>20.9453125</ele>
      </trkpt>
      <trkpt lat="42.218781933188438" lon="-8.716244967654347">
        <ele>21.0625</ele>
      </trkpt>
      <trkpt lat="42.218813365325332" lon="-8.716180259361863">
        <ele>21.1796875</ele>
      </trkpt>
      <trkpt lat="42.218843456357718" lon="-8.716115718707442">
        <ele>21.31640625</ele>
      </trkpt>
      <trkpt lat="42.218874134123325" lon="-8.716053524985909">
        <ele>21.4609375</ele>
      </trkpt>
      <trkpt lat="42.218914534896612" lon="-8.715995941311121">
        <ele>21.61328125</ele>
      </trkpt>
      <trkpt lat="42.218962982296944" lon="-8.715960737317801">
        <ele>21.640625</ele>
      </trkpt>
      <trkpt lat="42.219015536829829" lon="-8.71593433432281">
        <ele>21.640625</ele>
      </trkpt>
      <trkpt lat="42.219062307849526" lon="-8.715886725112796">
        <ele>21.640625</ele>
      </trkpt>
      <trkpt lat="42.219103798270226" lon="-8.715846324339509">
        <ele>21.640625</ele>
      </trkpt>
      <trkpt lat="42.219158364459872" lon="-8.715870464220643">
        <ele>21.640625</ele>
      </trkpt>
      <trkpt lat="42.219201615080237" lon="-8.715918743982911">
        <ele>21.72265625</ele>
      </trkpt>
      <trkpt lat="42.219224497675896" lon="-8.715945649892092">
        <ele>21.828125</ele>
      </trkpt>
      <trkpt lat="42.219721628353" lon="-8.716419646516442">
        <ele>24.359375</ele>
      </trkpt>
      <trkpt lat="42.220005858689547" lon="-8.716711923480034">
        <ele>27.05859375</ele>
      </trkpt>
      <trkpt lat="42.220172407105565" lon="-8.716856008395553">
        <ele>28.74609375</ele>
      </trkpt>
      <trkpt lat="42.220219764858484" lon="-8.716893307864666">
        <ele>29.19140625</ele>
      </trkpt>
      <trkpt lat="42.220274414867163" lon="-8.716918034479022">
        <ele>29.66015625</ele>
      </trkpt>
      <trkpt lat="42.220329316332936" lon="-8.716918034479022">
        <ele>30.09765625</ele>
      </trkpt>
      <trkpt lat="42.220388744026423" lon="-8.716896576806903">
        <ele>30.53515625</ele>
      </trkpt>
      <trkpt lat="42.220442555844784" lon="-8.716876795515418">
        <ele>30.93359375</ele>
      </trkpt>
      <trkpt lat="42.22049075178802" lon="-8.716837484389544">
        <ele>31.2578125</ele>
      </trkpt>
      <trkpt lat="42.220537858083844" lon="-8.71679968200624">
        <ele>31.5859375</ele>
      </trkpt>
      <trkpt lat="42.22058747895062" lon="-8.716763975098729">
        <ele>31.9609375</ele>
      </trkpt>
      <trkpt lat="42.220638608559966" lon="-8.716743187978864">
        <ele>32.41796875</ele>
      </trkpt>
      <trkpt lat="42.22065051086247" lon="-8.716740002855659">
        <ele>32.5234375</ele>
      </trkpt>
      <trkpt lat="42.220963658764958" lon="-8.716733129695058">
        <ele>35.484375</ele>
      </trkpt>
      <trkpt lat="42.221331624314189" lon="-8.716701697558165">
        <ele>39.16015625</ele>
      </trkpt>
      <trkpt lat="42.221669834107161" lon="-8.716710079461336">
        <ele>43.12109375</ele>
      </trkpt>
      <trkpt lat="42.221907628700137" lon="-8.716767244040966">
        <ele>46.25390625</ele>
      </trkpt>
      <trkpt lat="42.221964625641704" lon="-8.71679088100791">
        <ele>47.0078125</ele>
      </trkpt>
      <trkpt lat="42.222017766907811" lon="-8.716805968433619">
        <ele>47.78125</ele>
      </trkpt>
      <trkpt lat="42.222073003649712" lon="-8.716819547116756">
        <ele>48.58203125</ele>
      </trkpt>
      <trkpt lat="42.222128659486771" lon="-8.716836143285036">
        <ele>49.38671875</ele>
      </trkpt>
      <trkpt lat="42.222149698063731" lon="-8.716841088607907">
        <ele>49.69140625</ele>
      </trkpt>
      <trkpt lat="42.222284814342856" lon="-8.716844525188208">
        <ele>51.65234375</ele>
      </trkpt>
      <trkpt lat="42.222299734130502" lon="-8.716847542673349">
        <ele>51.8671875</ele>
      </trkpt>
      <trkpt lat="42.222428480163217" lon="-8.716912250965834">
        <ele>53.7109375</ele>
      </trkpt>
      <trkpt lat="42.222433341667056" lon="-8.716912250965834">
        <ele>53.765625</ele>
      </trkpt>
      <trkpt lat="42.222614642232656" lon="-8.716955920681357">
        <ele>55.7265625</ele>
      </trkpt>
      <trkpt lat="42.222615564242005" lon="-8.716955920681357">
        <ele>55.734375</ele>
      </trkpt>
      <trkpt lat="42.22273743711412" lon="-8.716956842690706">
        <ele>57.08984375</ele>
      </trkpt>
      <trkpt lat="42.222957294434309" lon="-8.716842848807573">
        <ele>59.58984375</ele>
      </trkpt>
      <trkpt lat="42.222958132624626" lon="-8.716842848807573">
        <ele>59.59765625</ele>
      </trkpt>
      <trkpt lat="42.223182432353497" lon="-8.716728519648314">
        <ele>61.9609375</ele>
      </trkpt>
      <trkpt lat="42.223309082910419" lon="-8.716649813577533">
        <ele>63.34765625</ele>
      </trkpt>
      <trkpt lat="42.223309082910419" lon="-8.716648807749152">
        <ele>63.34765625</ele>
      </trkpt>
      <trkpt lat="42.223443444818258" lon="-8.716578567400575">
        <ele>64.80859375</ele>
      </trkpt>
      <trkpt lat="42.223484935238957" lon="-8.716526934877038">
        <ele>65.3203125</ele>
      </trkpt>
      <trkpt lat="42.223507901653647" lon="-8.716459712013602">
        <ele>65.67578125</ele>
      </trkpt>
      <trkpt lat="42.223515529185534" lon="-8.716383269056678">
        <ele>65.74609375</ele>
      </trkpt>
      <trkpt lat="42.22351536154747" lon="-8.716304646804929">
        <ele>65.70703125</ele>
      </trkpt>
      <trkpt lat="42.223514271900058" lon="-8.716290146112442">
        <ele>65.6875</ele>
      </trkpt>
      <trkpt lat="42.223498346284032" lon="-8.716051932424307">
        <ele>65.42578125</ele>
      </trkpt>
      <trkpt lat="42.223498346284032" lon="-8.716050926595926">
        <ele>65.42578125</ele>
      </trkpt>
      <trkpt lat="42.223494742065668" lon="-8.715737778693438">
        <ele>63.83984375</ele>
      </trkpt>
      <trkpt lat="42.22349725663662" lon="-8.715719254687428">
        <ele>63.75</ele>
      </trkpt>
      <trkpt lat="42.223597336560488" lon="-8.715342571958899">
        <ele>61.74609375</ele>
      </trkpt>
      <trkpt lat="42.223598174750805" lon="-8.715342571958899">
        <ele>61.75390625</ele>
      </trkpt>
      <trkpt lat="42.22379288636148" lon="-8.714918196201324">
        <ele>60.80859375</ele>
      </trkpt>
      <trkpt lat="42.223911238834262" lon="-8.71464679017663">
        <ele>61.625</ele>
      </trkpt>
      <trkpt lat="42.223927583545446" lon="-8.714578226208687">
        <ele>61.7421875</ele>
      </trkpt>
      <trkpt lat="42.223942335695028" lon="-8.714503375813365">
        <ele>61.9296875</ele>
      </trkpt>
      <trkpt lat="42.223957926034927" lon="-8.714432716369629">
        <ele>62.1328125</ele>
      </trkpt>
      <trkpt lat="42.223972342908382" lon="-8.714359877631068">
        <ele>62.32421875</ele>
      </trkpt>
      <trkpt lat="42.223985083401203" lon="-8.7142891343683">
        <ele>62.49609375</ele>
      </trkpt>
      <trkpt lat="42.223984412848949" lon="-8.714216547086835">
        <ele>62.5078125</ele>
      </trkpt>
      <trkpt lat="42.223963961005211" lon="-8.71412836946547">
        <ele>62.3046875</ele>
      </trkpt>
      <trkpt lat="42.223943173885345" lon="-8.7140594702214">
        <ele>62.39453125</ele>
      </trkpt>
      <trkpt lat="42.223917106166482" lon="-8.713989481329918">
        <ele>62.4296875</ele>
      </trkpt>
      <trkpt lat="42.223887434229255" lon="-8.713920498266816">
        <ele>62.421875</ele>
      </trkpt>
      <trkpt lat="42.223856588825583" lon="-8.71385863982141">
        <ele>62.3671875</ele>
      </trkpt>
      <trkpt lat="42.223822642117739" lon="-8.713792590424418">
        <ele>62.30078125</ele>
      </trkpt>
      <trkpt lat="42.22379632294178" lon="-8.713724780827761">
        <ele>62.37109375</ele>
      </trkpt>
      <trkpt lat="42.223766315728426" lon="-8.713659569621086">
        <ele>62.4140625</ele>
      </trkpt>
      <trkpt lat="42.2237279266119" lon="-8.713606176897883">
        <ele>62.28515625</ele>
      </trkpt>
      <trkpt lat="42.223689453676343" lon="-8.713556220754981">
        <ele>62.1484375</ele>
      </trkpt>
      <trkpt lat="42.223654417321086" lon="-8.713497212156653">
        <ele>62.09375</ele>
      </trkpt>
      <trkpt lat="42.22363899461925" lon="-8.713426720350981">
        <ele>62.28515625</ele>
      </trkpt>
      <trkpt lat="42.223646119236946" lon="-8.713376596570015">
        <ele>62.59765625</ele>
      </trkpt>
      <trkpt lat="42.223932025954127" lon="-8.712833868339658">
        <ele>66.99609375</ele>
      </trkpt>
      <trkpt lat="42.224288675934076" lon="-8.713226560503244">
        <ele>69.98828125</ele>
      </trkpt>
      <trkpt lat="42.224288675934076" lon="-8.713226560503244">
        <ele>69.98828125</ele>
      </trkpt>
      <trkpt lat="42.224769210442901" lon="-8.712090896442533">
        <ele>76.8359375</ele>
      </trkpt>
      <trkpt lat="42.224844563752413" lon="-8.712221486493945">
        <ele>77.484375</ele>
      </trkpt>
      <trkpt lat="42.224894687533379" lon="-8.712243782356381">
        <ele>78.0859375</ele>
      </trkpt>
      <trkpt lat="42.224948918446898" lon="-8.712251409888268">
        <ele>78.77734375</ele>
      </trkpt>
      <trkpt lat="42.225005580112338" lon="-8.712235148996115">
        <ele>79.55859375</ele>
      </trkpt>
      <trkpt lat="42.225050674751401" lon="-8.71219533495605">
        <ele>80.23828125</ele>
      </trkpt>
      <trkpt lat="42.225089147686958" lon="-8.712139930576086">
        <ele>80.85546875</ele>
      </trkpt>
      <trkpt lat="42.225104402750731" lon="-8.712073378264904">
        <ele>81.1953125</ele>
      </trkpt>
      <trkpt lat="42.225088141858578" lon="-8.712000790983438">
        <ele>81.140625</ele>
      </trkpt>
      <trkpt lat="42.225067438557744" lon="-8.711931640282273">
        <ele>81.0234375</ele>
      </trkpt>
      <trkpt lat="42.225029971450567" lon="-8.711873386055231">
        <ele>80.6796875</ele>
      </trkpt>
      <trkpt lat="42.225000634789467" lon="-8.711812701076269">
        <ele>80.40625</ele>
      </trkpt>
      <trkpt lat="42.224985044449568" lon="-8.711733827367425">
        <ele>80.02734375</ele>
      </trkpt>
      <trkpt lat="42.224987559020519" lon="-8.711660737171769">
        <ele>79.88671875</ele>
      </trkpt>
      <trkpt lat="42.225010525435209" lon="-8.711589407175779">
        <ele>80</ele>
      </trkpt>
      <trkpt lat="42.225044220685959" lon="-8.711522184312344">
        <ele>80.25</ele>
      </trkpt>
      <trkpt lat="42.225073054432869" lon="-8.711454290896654">
        <ele>80.4296875</ele>
      </trkpt>
      <trkpt lat="42.225098116323352" lon="-8.711388073861599">
        <ele>80.56640625</ele>
      </trkpt>
      <trkpt lat="42.225122842937708" lon="-8.711320599541068">
        <ele>80.61328125</ele>
      </trkpt>
      <trkpt lat="42.225143881514668" lon="-8.711252538487315">
        <ele>80.5546875</ele>
      </trkpt>
      <trkpt lat="42.225150084123015" lon="-8.711238792166114">
        <ele>80.56640625</ele>
      </trkpt>
      <trkpt lat="42.22568828612566" lon="-8.711105352267623">
        <ele>87.01171875</ele>
      </trkpt>
      <trkpt lat="42.225746624171734" lon="-8.711100406944752">
        <ele>87.609375</ele>
      </trkpt>
      <trkpt lat="42.225808650255203" lon="-8.711100406944752">
        <ele>88.2734375</ele>
      </trkpt>
      <trkpt lat="42.225862462073565" lon="-8.711101664230227">
        <ele>88.86328125</ele>
      </trkpt>
      <trkpt lat="42.225921805948019" lon="-8.711110800504684">
        <ele>89.5703125</ele>
      </trkpt>
      <trkpt lat="42.225975953042507" lon="-8.711124127730727">
        <ele>90.26171875</ele>
      </trkpt>
      <trkpt lat="42.226028088480234" lon="-8.711150698363781">
        <ele>91.04296875</ele>
      </trkpt>
      <trkpt lat="42.226074272766709" lon="-8.711191434413195">
        <ele>91.890625</ele>
      </trkpt>
      <trkpt lat="42.226120959967375" lon="-8.711231248453259">
        <ele>92.75</ele>
      </trkpt>
      <trkpt lat="42.226157421246171" lon="-8.711287658661604">
        <ele>93.609375</ele>
      </trkpt>
      <trkpt lat="42.226181393489242" lon="-8.711357396095991">
        <ele>94.46875</ele>
      </trkpt>
      <trkpt lat="42.226196983829141" lon="-8.711432665586472">
        <ele>95.1484375</ele>
      </trkpt>
      <trkpt lat="42.226209221407771" lon="-8.711506007239223">
        <ele>95.78125</ele>
      </trkpt>
      <trkpt lat="42.226222716271877" lon="-8.711581025272608">
        <ele>96.4453125</ele>
      </trkpt>
      <trkpt lat="42.226250292733312" lon="-8.711640285328031">
        <ele>97.1640625</ele>
      </trkpt>
      <trkpt lat="42.226307457312942" lon="-8.711658976972103">
        <ele>97.9453125</ele>
      </trkpt>
      <trkpt lat="42.226361855864525" lon="-8.711666017770767">
        <ele>98.6171875</ele>
      </trkpt>
      <trkpt lat="42.226417427882552" lon="-8.711675489321351">
        <ele>99.3203125</ele>
      </trkpt>
      <trkpt lat="42.226471742615104" lon="-8.711660737171769">
        <ele>99.83203125</ele>
      </trkpt>
      <trkpt lat="42.22649889998138" lon="-8.711638106033206">
        <ele>99.96875</ele>
      </trkpt>
      <trkpt lat="42.226811544969678" lon="-8.711369717493653">
        <ele>101.5078125</ele>
      </trkpt>
      <trkpt lat="42.226813808083534" lon="-8.711356641724706">
        <ele>101.42578125</ele>
      </trkpt>
      <trkpt lat="42.227084459736943" lon="-8.711054306477308">
        <ele>101.671875</ele>
      </trkpt>
      <trkpt lat="42.227098289877176" lon="-8.711041398346424">
        <ele>101.71875</ele>
      </trkpt>
      <trkpt lat="42.227245140820742" lon="-8.710950706154108">
        <ele>102.7421875</ele>
      </trkpt>
      <trkpt lat="42.227259390056133" lon="-8.71093712747097">
        <ele>102.8046875</ele>
      </trkpt>
      <trkpt lat="42.227445552125573" lon="-8.710727579891682">
        <ele>103.30078125</ele>
      </trkpt>
      <trkpt lat="42.227448401972651" lon="-8.710726406425238">
        <ele>103.32421875</ele>
      </trkpt>
      <trkpt lat="42.227792227640748" lon="-8.710633367300034">
        <ele>105.6953125</ele>
      </trkpt>
      <trkpt lat="42.227802621200681" lon="-8.710629008710384">
        <ele>105.75390625</ele>
      </trkpt>
      <trkpt lat="42.227937234565616" lon="-8.710516104474664">
        <ele>106.05859375</ele>
      </trkpt>
      <trkpt lat="42.227964727208018" lon="-8.710494395345449">
        <ele>106.1484375</ele>
      </trkpt>
      <trkpt lat="42.228152314200997" lon="-8.710341341793537">
        <ele>106.42578125</ele>
      </trkpt>
      <trkpt lat="42.228378793224692" lon="-8.710322063416243">
        <ele>108.1328125</ele>
      </trkpt>
      <trkpt lat="42.228378793224692" lon="-8.710323153063655">
        <ele>108.140625</ele>
      </trkpt>
      <trkpt lat="42.228578701615334" lon="-8.710268335416913">
        <ele>108.60546875</ele>
      </trkpt>
      <trkpt lat="42.228629160672426" lon="-8.710236065089703">
        <ele>108.53125</ele>
      </trkpt>
      <trkpt lat="42.228683140128851" lon="-8.71019633486867">
        <ele>108.4375</ele>
      </trkpt>
      <trkpt lat="42.228736784309149" lon="-8.710153419524431">
        <ele>108.34375</ele>
      </trkpt>
      <trkpt lat="42.228787913918495" lon="-8.710104888305068">
        <ele>108.2265625</ele>
      </trkpt>
      <trkpt lat="42.228836445137858" lon="-8.710052836686373">
        <ele>108.1015625</ele>
      </trkpt>
      <trkpt lat="42.228875923901796" lon="-8.709997097030282">
        <ele>107.9453125</ele>
      </trkpt>
      <trkpt lat="42.228913810104132" lon="-8.709936831146479">
        <ele>107.66796875</ele>
      </trkpt>
      <trkpt lat="42.22894893027842" lon="-8.709869524464011">
        <ele>107.234375</ele>
      </trkpt>
      <trkpt lat="42.228984050452709" lon="-8.709804816171527">
        <ele>106.84765625</ele>
      </trkpt>
      <trkpt lat="42.22902269102633" lon="-8.709736755117774">
        <ele>106.48046875</ele>
      </trkpt>
      <trkpt lat="42.229059152305126" lon="-8.709673890843987">
        <ele>106.171875</ele>
      </trkpt>
      <trkpt lat="42.229091757908463" lon="-8.709610942751169">
        <ele>105.890625</ele>
      </trkpt>
      <trkpt lat="42.22912629134953" lon="-8.709553694352508">
        <ele>105.671875</ele>
      </trkpt>
      <trkpt lat="42.229170715436339" lon="-8.709486471489072">
        <ele>105.4609375</ele>
      </trkpt>
      <trkpt lat="42.229206673800945" lon="-8.70942872017622">
        <ele>105.30859375</ele>
      </trkpt>
      <trkpt lat="42.229235842823982" lon="-8.709365269169211">
        <ele>105.13671875</ele>
      </trkpt>
      <trkpt lat="42.22925771959126" lon="-8.709326041862369">
        <ele>105.0546875</ele>
      </trkpt>
      <trkpt lat="42.229609759524465" lon="-8.709147004410625">
        <ele>104.5703125</ele>
      </trkpt>
      <trkpt lat="42.229614956304431" lon="-8.709145747125149">
        <ele>104.5625</ele>
      </trkpt>
      <trkpt lat="42.229943946003914" lon="-8.708964362740517">
        <ele>104.75</ele>
      </trkpt>
      <trkpt lat="42.229947717860341" lon="-8.708964362740517">
        <ele>104.76171875</ele>
      </trkpt>
      <trkpt lat="42.230270756408572" lon="-8.708812901750207">
        <ele>106.16015625</ele>
      </trkpt>
      <trkpt lat="42.230274779722095" lon="-8.708810554817319">
        <ele>106.1796875</ele>
      </trkpt>
      <trkpt lat="42.230397658422589" lon="-8.708720449358225">
        <ele>106.86328125</ele>
      </trkpt>
      <trkpt lat="42.230416098609567" lon="-8.70864249765873">
        <ele>107.078125</ele>
      </trkpt>
      <trkpt lat="42.230420121923089" lon="-8.708606120198965">
        <ele>107.16015625</ele>
      </trkpt>
      <trkpt lat="42.230422468855977" lon="-8.707864237949252">
        <ele>105.44921875</ele>
      </trkpt>
      <trkpt lat="42.230431437492371" lon="-8.706999896094203">
        <ele>104.26171875</ele>
      </trkpt>
      <trkpt lat="42.230432359501719" lon="-8.706998890265822">
        <ele>104.26171875</ele>
      </trkpt>
      <trkpt lat="42.230666801333427" lon="-8.706927560269833">
        <ele>104.3515625</ele>
      </trkpt>
      <trkpt lat="42.230672836303711" lon="-8.706927560269833">
        <ele>104.3515625</ele>
      </trkpt>
      <trkpt lat="42.231142725795507" lon="-8.706950359046459">
        <ele>103.578125</ele>
      </trkpt>
      <trkpt lat="42.231142725795507" lon="-8.706950359046459">
        <ele>103.578125</ele>
      </trkpt>
      <trkpt lat="42.231049351394176" lon="-8.705001231282949">
        <ele>102.2265625</ele>
      </trkpt>
      <trkpt lat="42.231019595637918" lon="-8.703448567539454">
        <ele>104.09375</ele>
      </trkpt>
      <trkpt lat="42.231019595637918" lon="-8.703447561711073">
        <ele>104.09375</ele>
      </trkpt>
      <trkpt lat="42.231016494333744" lon="-8.702425891533494">
        <ele>107.5546875</ele>
      </trkpt>
      <trkpt lat="42.231018338352442" lon="-8.702422454953194">
        <ele>107.56640625</ele>
      </trkpt>
      <trkpt lat="42.231006100773811" lon="-8.701437246054411">
        <ele>113.87109375</ele>
      </trkpt>
      <trkpt lat="42.230989839881659" lon="-8.700909689068794">
        <ele>117.6171875</ele>
      </trkpt>
      <trkpt lat="42.230994952842593" lon="-8.700831485912204">
        <ele>118.01171875</ele>
      </trkpt>
      <trkpt lat="42.231002328917384" lon="-8.700757557526231">
        <ele>118.390625</ele>
      </trkpt>
      <trkpt lat="42.231019344180822" lon="-8.700689747929573">
        <ele>118.41796875</ele>
      </trkpt>
      <trkpt lat="42.231045076623559" lon="-8.700654627755284">
        <ele>118.1953125</ele>
      </trkpt>
      <trkpt lat="42.231570454314351" lon="-8.700361428782344">
        <ele>116.54296875</ele>
      </trkpt>
      <trkpt lat="42.231574477627873" lon="-8.7003602553159">
        <ele>116.5390625</ele>
      </trkpt>
      <trkpt lat="42.23186063580215" lon="-8.700170321390033">
        <ele>116.72265625</ele>
      </trkpt>
      <trkpt lat="42.231861557811499" lon="-8.700170321390033">
        <ele>116.7265625</ele>
      </trkpt>
      <trkpt lat="42.232114104554057" lon="-8.699968904256821">
        <ele>118.25390625</ele>
      </trkpt>
      <trkpt lat="42.232173783704638" lon="-8.699950380250812">
        <ele>118.62109375</ele>
      </trkpt>
      <trkpt lat="42.232229774817824" lon="-8.699925318360329">
        <ele>118.97265625</ele>
      </trkpt>
      <trkpt lat="42.232285598292947" lon="-8.699902603402734">
        <ele>119.3359375</ele>
      </trkpt>
      <trkpt lat="42.232341337949038" lon="-8.699884414672852">
        <ele>119.6953125</ele>
      </trkpt>
      <trkpt lat="42.232402022927999" lon="-8.699866393581033">
        <ele>120.09765625</ele>
      </trkpt>
      <trkpt lat="42.232465725392103" lon="-8.699850048869848">
        <ele>120.51953125</ele>
      </trkpt>
      <trkpt lat="42.232527751475573" lon="-8.699836721643806">
        <ele>120.93359375</ele>
      </trkpt>
      <trkpt lat="42.232583407312632" lon="-8.699833704158664">
        <ele>121.265625</ele>
      </trkpt>
      <trkpt lat="42.2326385602355" lon="-8.69983060285449">
        <ele>121.375</ele>
      </trkpt>
      <trkpt lat="42.232710896059871" lon="-8.69983060285449">
        <ele>121.359375</ele>
      </trkpt>
      <trkpt lat="42.232771664857864" lon="-8.69983060285449">
        <ele>121.34765625</ele>
      </trkpt>
      <trkpt lat="42.232838300988078" lon="-8.69983060285449">
        <ele>121.33203125</ele>
      </trkpt>
      <trkpt lat="42.232900410890579" lon="-8.699829094111919">
        <ele>121.328125</ele>
      </trkpt>
      <trkpt lat="42.232956234365702" lon="-8.699824903160334">
        <ele>121.3515625</ele>
      </trkpt>
      <trkpt lat="42.233020775020123" lon="-8.699820293113589">
        <ele>121.37890625</ele>
      </trkpt>
      <trkpt lat="42.233077520504594" lon="-8.699814341962337">
        <ele>121.3671875</ele>
      </trkpt>
      <trkpt lat="42.233141893520951" lon="-8.699823981150985">
        <ele>121.02734375</ele>
      </trkpt>
      <trkpt lat="42.233199141919613" lon="-8.699825406074524">
        <ele>120.78515625</ele>
      </trkpt>
      <trkpt lat="42.233250271528959" lon="-8.699796069413424">
        <ele>120.83984375</ele>
      </trkpt>
      <trkpt lat="42.233282793313265" lon="-8.69973773136735">
        <ele>121.06640625</ele>
      </trkpt>
      <trkpt lat="42.233298718929291" lon="-8.699667155742645">
        <ele>121.42578125</ele>
      </trkpt>
      <trkpt lat="42.233300562947989" lon="-8.699661707505584">
        <ele>121.453125</ele>
      </trkpt>
      <trkpt lat="42.233376922085881" lon="-8.699417458847165">
        <ele>122.76953125</ele>
      </trkpt>
      <trkpt lat="42.233381029218435" lon="-8.699317714199424">
        <ele>123.37109375</ele>
      </trkpt>
      <trkpt lat="42.233383879065514" lon="-8.699231296777725">
        <ele>123.67578125</ele>
      </trkpt>
      <trkpt lat="42.233385471627116" lon="-8.699154853820801">
        <ele>123.94921875</ele>
      </trkpt>
      <trkpt lat="42.233389159664512" lon="-8.699079919606447">
        <ele>124.22265625</ele>
      </trkpt>
      <trkpt lat="42.233412126079202" lon="-8.699006829410791">
        <ele>124.51171875</ele>
      </trkpt>
      <trkpt lat="42.233450263738632" lon="-8.698941702023149">
        <ele>124.8125</ele>
      </trkpt>
      <trkpt lat="42.233483791351318" lon="-8.698879592120647">
        <ele>125.12890625</ele>
      </trkpt>
      <trkpt lat="42.233507512137294" lon="-8.69880742393434">
        <ele>125.37890625</ele>
      </trkpt>
      <trkpt lat="42.233524275943637" lon="-8.698750259354711">
        <ele>125.5703125</ele>
      </trkpt>
      <trkpt lat="42.233563000336289" lon="-8.698609946295619">
        <ele>125.70703125</ele>
      </trkpt>
      <trkpt lat="42.233575657010078" lon="-8.698527971282601">
        <ele>125.85546875</ele>
      </trkpt>
      <trkpt lat="42.233596695587039" lon="-8.698447588831186">
        <ele>125.94921875</ele>
      </trkpt>
      <trkpt lat="42.233616225421429" lon="-8.698376258835196">
        <ele>125.75390625</ele>
      </trkpt>
      <trkpt lat="42.233648244291544" lon="-8.698313310742378">
        <ele>125.1328125</ele>
      </trkpt>
      <trkpt lat="42.233688812702894" lon="-8.698250111192465">
        <ele>124.53125</ele>
      </trkpt>
      <trkpt lat="42.233721921220422" lon="-8.698189845308661">
        <ele>124.03515625</ele>
      </trkpt>
      <trkpt lat="42.233752766624093" lon="-8.698128322139382">
        <ele>123.5859375</ele>
      </trkpt>
      <trkpt lat="42.233780426904559" lon="-8.698090855032206">
        <ele>123.32421875</ele>
      </trkpt>
      <trkpt lat="42.233972456306219" lon="-8.697905112057924">
        <ele>122.375</ele>
      </trkpt>
      <trkpt lat="42.234020233154297" lon="-8.697864292189479">
        <ele>122.1953125</ele>
      </trkpt>
      <trkpt lat="42.234067590907216" lon="-8.697814168408513">
        <ele>121.98046875</ele>
      </trkpt>
      <trkpt lat="42.23411226645112" lon="-8.697761949151754">
        <ele>121.78125</ele>
      </trkpt>
      <trkpt lat="42.234159456565976" lon="-8.697702689096332">
        <ele>121.59375</ele>
      </trkpt>
      <trkpt lat="42.234199354425073" lon="-8.697652230039239">
        <ele>121.453125</ele>
      </trkpt>
      <trkpt lat="42.234235983341932" lon="-8.697597328573465">
        <ele>121.328125</ele>
      </trkpt>
      <trkpt lat="42.234276216477156" lon="-8.69753991253674">
        <ele>121.21875</ele>
      </trkpt>
      <trkpt lat="42.234315108507872" lon="-8.697488028556108">
        <ele>121.1484375</ele>
      </trkpt>
      <trkpt lat="42.234357772395015" lon="-8.697435725480318">
        <ele>121.1953125</ele>
      </trkpt>
      <trkpt lat="42.234395323321223" lon="-8.697383338585496">
        <ele>121.2734375</ele>
      </trkpt>
      <trkpt lat="42.234432371333241" lon="-8.697320893406868">
        <ele>121.375</ele>
      </trkpt>
      <trkpt lat="42.234467240050435" lon="-8.697260040789843">
        <ele>121.4375</ele>
      </trkpt>
      <trkpt lat="42.234501354396343" lon="-8.697191141545773">
        <ele>121.4609375</ele>
      </trkpt>
      <trkpt lat="42.234532199800014" lon="-8.69712894782424">
        <ele>121.5</ele>
      </trkpt>
      <trkpt lat="42.234563380479813" lon="-8.697062479332089">
        <ele>121.55859375</ele>
      </trkpt>
      <trkpt lat="42.23458961583674" lon="-8.696992909535766">
        <ele>121.66015625</ele>
      </trkpt>
      <trkpt lat="42.234612330794334" lon="-8.696922585368156">
        <ele>121.8203125</ele>
      </trkpt>
      <trkpt lat="42.23463554866612" lon="-8.696851590648293">
        <ele>122</ele>
      </trkpt>
      <trkpt lat="42.234658850356936" lon="-8.69677908718586">
        <ele>122.203125</ele>
      </trkpt>
      <trkpt lat="42.234678799286485" lon="-8.696711109951138">
        <ele>122.40625</ele>
      </trkpt>
      <trkpt lat="42.234696066007018" lon="-8.696635589003563">
        <ele>122.640625</ele>
      </trkpt>
      <trkpt lat="42.234706794843078" lon="-8.6965611577034">
        <ele>122.87109375</ele>
      </trkpt>
      <trkpt lat="42.234717356041074" lon="-8.69648102670908">
        <ele>123.29296875</ele>
      </trkpt>
      <trkpt lat="42.234721295535564" lon="-8.696399806067348">
        <ele>123.72265625</ele>
      </trkpt>
      <trkpt lat="42.234718361869454" lon="-8.696324285119772">
        <ele>124.10546875</ele>
      </trkpt>
      <trkpt lat="42.234708555042744" lon="-8.696248345077038">
        <ele>124.48046875</ele>
      </trkpt>
      <trkpt lat="42.234697071835399" lon="-8.696171902120113">
        <ele>124.86328125</ele>
      </trkpt>
      <trkpt lat="42.234698161482811" lon="-8.696100991219282">
        <ele>125.234375</ele>
      </trkpt>
      <trkpt lat="42.234727162867785" lon="-8.696048017591238">
        <ele>125.65234375</ele>
      </trkpt>
      <trkpt lat="42.234787177294493" lon="-8.696000073105097">
        <ele>126.10546875</ele>
      </trkpt>
      <trkpt lat="42.234815424308181" lon="-8.695976855233312">
        <ele>126.32421875</ele>
      </trkpt>
      <trkpt lat="42.234899662435055" lon="-8.695953134447336">
        <ele>126.63671875</ele>
      </trkpt>
      <trkpt lat="42.234954982995987" lon="-8.695928575471044">
        <ele>126.703125</ele>
      </trkpt>
      <trkpt lat="42.234995551407337" lon="-8.695878032594919">
        <ele>126.9609375</ele>
      </trkpt>
      <trkpt lat="42.235003681853414" lon="-8.69579647667706">
        <ele>127.5859375</ele>
      </trkpt>
      <trkpt lat="42.234997479245067" lon="-8.695724727585912">
        <ele>128.18359375</ele>
      </trkpt>
      <trkpt lat="42.235034946352243" lon="-8.695670580491424">
        <ele>128.4921875</ele>
      </trkpt>
      <trkpt lat="42.235090434551239" lon="-8.69566647335887">
        <ele>128.33984375</ele>
      </trkpt>
      <trkpt lat="42.235128320753574" lon="-8.695716010406613">
        <ele>127.8046875</ele>
      </trkpt>
      <trkpt lat="42.235175427049398" lon="-8.695762613788247">
        <ele>127.2578125</ele>
      </trkpt>
      <trkpt lat="42.235236195847392" lon="-8.695772672072053">
        <ele>126.9609375</ele>
      </trkpt>
      <trkpt lat="42.235293779522181" lon="-8.695763032883406">
        <ele>126.83984375</ele>
      </trkpt>
      <trkpt lat="42.235349519178271" lon="-8.695744089782238">
        <ele>126.80859375</ele>
      </trkpt>
      <trkpt lat="42.235406348481774" lon="-8.695714334025979">
        <ele>126.80859375</ele>
      </trkpt>
      <trkpt lat="42.235457981005311" lon="-8.695685500279069">
        <ele>126.78125</ele>
      </trkpt>
      <trkpt lat="42.235515648499131" lon="-8.695656331256032">
        <ele>126.7265625</ele>
      </trkpt>
      <trkpt lat="42.235568035393953" lon="-8.695630934089422">
        <ele>126.67578125</ele>
      </trkpt>
      <trkpt lat="42.235621260479093" lon="-8.695604614913464">
        <ele>126.703125</ele>
      </trkpt>
      <trkpt lat="42.235679179430008" lon="-8.695584833621979">
        <ele>126.64453125</ele>
      </trkpt>
      <trkpt lat="42.235734835267067" lon="-8.695565136149526">
        <ele>126.59765625</ele>
      </trkpt>
      <trkpt lat="42.235795184969902" lon="-8.695546025410295">
        <ele>126.5234375</ele>
      </trkpt>
      <trkpt lat="42.235849918797612" lon="-8.695526579394937">
        <ele>126.4609375</ele>
      </trkpt>
      <trkpt lat="42.235904484987259" lon="-8.695501685142517">
        <ele>126.359375</ele>
      </trkpt>
      <trkpt lat="42.235959051176906" lon="-8.695465978235006">
        <ele>126.37890625</ele>
      </trkpt>
      <trkpt lat="42.236012611538172" lon="-8.695421721786261">
        <ele>126.49609375</ele>
      </trkpt>
      <trkpt lat="42.236059466376901" lon="-8.695372017100453">
        <ele>126.72265625</ele>
      </trkpt>
      <trkpt lat="42.236105315387249" lon="-8.695325581356883">
        <ele>126.90234375</ele>
      </trkpt>
      <trkpt lat="42.236148901283741" lon="-8.695279397070408">
        <ele>127.0859375</ele>
      </trkpt>
      <trkpt lat="42.236193995922804" lon="-8.695228099822998">
        <ele>127.3046875</ele>
      </trkpt>
      <trkpt lat="42.2362338937819" lon="-8.695179568603635">
        <ele>127.5234375</ele>
      </trkpt>
      <trkpt lat="42.236280664801598" lon="-8.695127852261066">
        <ele>127.77734375</ele>
      </trkpt>
      <trkpt lat="42.236326010897756" lon="-8.695075130090117">
        <ele>128.125</ele>
      </trkpt>
      <trkpt lat="42.236375212669373" lon="-8.695021905004978">
        <ele>128.4765625</ele>
      </trkpt>
      <trkpt lat="42.236421313136816" lon="-8.694981671869755">
        <ele>128.671875</ele>
      </trkpt>
      <trkpt lat="42.236471101641655" lon="-8.694933308288455">
        <ele>128.93359375</ele>
      </trkpt>
      <trkpt lat="42.236514603719115" lon="-8.694882849231362">
        <ele>129.25</ele>
      </trkpt>
      <trkpt lat="42.236556513234973" lon="-8.694831551983953">
        <ele>129.58203125</ele>
      </trkpt>
      <trkpt lat="42.236596997827291" lon="-8.69477623142302">
        <ele>129.9609375</ele>
      </trkpt>
      <trkpt lat="42.236634967848659" lon="-8.694723760709167">
        <ele>130.30859375</ele>
      </trkpt>
      <trkpt lat="42.236681822687387" lon="-8.694678582251072">
        <ele>130.51953125</ele>
      </trkpt>
      <trkpt lat="42.236731192097068" lon="-8.694644048810005">
        <ele>130.58203125</ele>
      </trkpt>
      <trkpt lat="42.236782992258668" lon="-8.694605827331543">
        <ele>130.75390625</ele>
      </trkpt>
      <trkpt lat="42.236798666417599" lon="-8.694594176486135">
        <ele>130.85546875</ele>
      </trkpt>
      <trkpt lat="42.236987678334117" lon="-8.694460988044739">
        <ele>131.984375</ele>
      </trkpt>
      <trkpt lat="42.237039981409907" lon="-8.694407595321536">
        <ele>132.515625</ele>
      </trkpt>
      <trkpt lat="42.237082393839955" lon="-8.694358645007014">
        <ele>133.0234375</ele>
      </trkpt>
      <trkpt lat="42.237126566469669" lon="-8.694315478205681">
        <ele>133.4453125</ele>
      </trkpt>
      <trkpt lat="42.237173588946462" lon="-8.694281363859773">
        <ele>133.73828125</ele>
      </trkpt>
      <trkpt lat="42.23719353787601" lon="-8.69427440688014">
        <ele>133.765625</ele>
      </trkpt>
      <trkpt lat="42.23816491663456" lon="-8.693899987265468">
        <ele>135.2421875</ele>
      </trkpt>
      <trkpt lat="42.23816491663456" lon="-8.693898981437087">
        <ele>135.25</ele>
      </trkpt>
      <trkpt lat="42.23876254633069" lon="-8.693685326725245">
        <ele>134.875</ele>
      </trkpt>
      <trkpt lat="42.238812502473593" lon="-8.693644339218736">
        <ele>134.84375</ele>
      </trkpt>
      <trkpt lat="42.238859524950385" lon="-8.693608967587352">
        <ele>134.77734375</ele>
      </trkpt>
      <trkpt lat="42.238906463608146" lon="-8.693571081385016">
        <ele>134.703125</ele>
      </trkpt>
      <trkpt lat="42.238924400880933" lon="-8.693555239588022">
        <ele>134.67578125</ele>
      </trkpt>
      <trkpt lat="42.239138977602124" lon="-8.693366898223758">
        <ele>134.17578125</ele>
      </trkpt>
      <trkpt lat="42.239365121349692" lon="-8.693143352866173">
        <ele>135.05078125</ele>
      </trkpt>
      <trkpt lat="42.239419184625149" lon="-8.693117117509246">
        <ele>135.15234375</ele>
      </trkpt>
      <trkpt lat="42.239475678652525" lon="-8.693103287369013">
        <ele>135.12890625</ele>
      </trkpt>
      <trkpt lat="42.239532256498933" lon="-8.693095492199063">
        <ele>135.046875</ele>
      </trkpt>
      <trkpt lat="42.239585984498262" lon="-8.693086355924606">
        <ele>135.04296875</ele>
      </trkpt>
      <trkpt lat="42.239627977833152" lon="-8.693080153316259">
        <ele>135.04296875</ele>
      </trkpt>
      <trkpt lat="42.240053946152329" lon="-8.693194901570678">
        <ele>132.453125</ele>
      </trkpt>
      <trkpt lat="42.240058891475201" lon="-8.693194901570678">
        <ele>132.45703125</ele>
      </trkpt>
      <trkpt lat="42.240409338846803" lon="-8.693332113325596">
        <ele>130.18359375</ele>
      </trkpt>
      <trkpt lat="42.24063984118402" lon="-8.693322641775012">
        <ele>130.1953125</ele>
      </trkpt>
      <trkpt lat="42.240651156753302" lon="-8.693322306498885">
        <ele>130.19140625</ele>
      </trkpt>
      <trkpt lat="42.240846790373325" lon="-8.693316942080855">
        <ele>130.15234375</ele>
      </trkpt>
      <trkpt lat="42.240903032943606" lon="-8.693315600976348">
        <ele>130.140625</ele>
      </trkpt>
      <trkpt lat="42.240960616618395" lon="-8.69331425987184">
        <ele>130.02734375</ele>
      </trkpt>
      <trkpt lat="42.241015853360295" lon="-8.69330688379705">
        <ele>129.96484375</ele>
      </trkpt>
      <trkpt lat="42.241069246083498" lon="-8.69327855296433">
        <ele>130.3359375</ele>
      </trkpt>
      <trkpt lat="42.241115933284163" lon="-8.693241169676185">
        <ele>130.9140625</ele>
      </trkpt>
      <trkpt lat="42.241159770637751" lon="-8.693193979561329">
        <ele>131.6953125</ele>
      </trkpt>
      <trkpt lat="42.24120662547648" lon="-8.693151734769344">
        <ele>132.3515625</ele>
      </trkpt>
      <trkpt lat="42.24125700071454" lon="-8.693112507462502">
        <ele>132.921875</ele>
      </trkpt>
      <trkpt lat="42.241306202486157" lon="-8.693074285984039">
        <ele>133.4609375</ele>
      </trkpt>
      <trkpt lat="42.241358002647758" lon="-8.693040087819099">
        <ele>133.90234375</ele>
      </trkpt>
      <trkpt lat="42.241412401199341" lon="-8.693018546327949">
        <ele>134.0546875</ele>
      </trkpt>
      <trkpt lat="42.241466296836734" lon="-8.692995496094227">
        <ele>134.2109375</ele>
      </trkpt>
      <trkpt lat="42.241517342627048" lon="-8.692959873005748">
        <ele>134.62109375</ele>
      </trkpt>
      <trkpt lat="42.241559503600001" lon="-8.692919723689556">
        <ele>135.15625</ele>
      </trkpt>
      <trkpt lat="42.241600239649415" lon="-8.692870354279876">
        <ele>135.87109375</ele>
      </trkpt>
      <trkpt lat="42.241647429764271" lon="-8.692826181650162">
        <ele>136.44140625</ele>
      </trkpt>
      <trkpt lat="42.241693278774619" lon="-8.692787624895573">
        <ele>136.90234375</ele>
      </trkpt>
      <trkpt lat="42.241742061451077" lon="-8.692746721208096">
        <ele>137.375</ele>
      </trkpt>
      <trkpt lat="42.241788664832711" lon="-8.692702548578382">
        <ele>137.90625</ele>
      </trkpt>
      <trkpt lat="42.241836776956916" lon="-8.692670110613108">
        <ele>138.19140625</ele>
      </trkpt>
      <trkpt lat="42.241888241842389" lon="-8.692648485302925">
        <ele>138.12109375</ele>
      </trkpt>
      <trkpt lat="42.241943730041385" lon="-8.69263649918139">
        <ele>137.76171875</ele>
      </trkpt>
      <trkpt lat="42.242010785266757" lon="-8.69262333959341">
        <ele>137.2890625</ele>
      </trkpt>
      <trkpt lat="42.242066441103816" lon="-8.692606072872877">
        <ele>137.00390625</ele>
      </trkpt>
      <trkpt lat="42.242120504379272" lon="-8.692583525553346">
        <ele>136.80859375</ele>
      </trkpt>
      <trkpt lat="42.242180854082108" lon="-8.692544298246503">
        <ele>136.8125</ele>
      </trkpt>
      <trkpt lat="42.242227792739868" lon="-8.692502556368709">
        <ele>136.9765625</ele>
      </trkpt>
      <trkpt lat="42.242272468283772" lon="-8.692459473386407">
        <ele>137.16796875</ele>
      </trkpt>
      <trkpt lat="42.242318904027343" lon="-8.692418234422803">
        <ele>137.29296875</ele>
      </trkpt>
      <trkpt lat="42.242367519065738" lon="-8.692375738173723">
        <ele>137.5234375</ele>
      </trkpt>
      <trkpt lat="42.242416720837355" lon="-8.692335085943341">
        <ele>137.73828125</ele>
      </trkpt>
      <trkpt lat="42.242468101903796" lon="-8.692295355722308">
        <ele>137.921875</ele>
      </trkpt>
      <trkpt lat="42.242518896237016" lon="-8.692260235548019">
        <ele>138.03125</ele>
      </trkpt>
      <trkpt lat="42.242566756904125" lon="-8.692226959392428">
        <ele>138.13671875</ele>
      </trkpt>
      <trkpt lat="42.242619730532169" lon="-8.69218748062849">
        <ele>138.30078125</ele>
      </trkpt>
      <trkpt lat="42.242666920647025" lon="-8.692151689901948">
        <ele>138.453125</ele>
      </trkpt>
      <trkpt lat="42.242716792970896" lon="-8.692115563899279">
        <ele>138.58984375</ele>
      </trkpt>
      <trkpt lat="42.242770437151194" lon="-8.692069966346025">
        <ele>138.84765625</ele>
      </trkpt>
      <trkpt lat="42.242823578417301" lon="-8.692028475925326">
        <ele>139.140625</ele>
      </trkpt>
      <trkpt lat="42.242873786017299" lon="-8.691985979676247">
        <ele>139.5078125</ele>
      </trkpt>
      <trkpt lat="42.242922987788916" lon="-8.691940549761057">
        <ele>139.94140625</ele>
      </trkpt>
      <trkpt lat="42.242971854284406" lon="-8.691900232806802">
        <ele>140.421875</ele>
      </trkpt>
      <trkpt lat="42.24302290007472" lon="-8.691863855347037">
        <ele>140.85546875</ele>
      </trkpt>
      <trkpt lat="42.243072604760528" lon="-8.691824711859226">
        <ele>141.34375</ele>
      </trkpt>
      <trkpt lat="42.243122225627303" lon="-8.691780790686607">
        <ele>141.9140625</ele>
      </trkpt>
      <trkpt lat="42.243167823180556" lon="-8.69173695333302">
        <ele>142.4921875</ele>
      </trkpt>
      <trkpt lat="42.243206882849336" lon="-8.691685320809484">
        <ele>143.265625</ele>
      </trkpt>
      <trkpt lat="42.243250971660018" lon="-8.691617511212826">
        <ele>144.2734375</ele>
      </trkpt>
      <trkpt lat="42.243289863690734" lon="-8.69155959226191">
        <ele>144.9453125</ele>
      </trkpt>
      <trkpt lat="42.243330432102084" lon="-8.691502930596471">
        <ele>145.53125</ele>
      </trkpt>
      <trkpt lat="42.243360606953502" lon="-8.69145842269063">
        <ele>146.015625</ele>
      </trkpt>
      <trkpt lat="42.243509218096733" lon="-8.691273685544729">
        <ele>148.015625</ele>
      </trkpt>
      <trkpt lat="42.243544673547149" lon="-8.691215850412846">
        <ele>148.69921875</ele>
      </trkpt>
      <trkpt lat="42.243577195331454" lon="-8.691148711368442">
        <ele>149.58203125</ele>
      </trkpt>
      <trkpt lat="42.24360971711576" lon="-8.691083500161767">
        <ele>150.375</ele>
      </trkpt>
      <trkpt lat="42.243637628853321" lon="-8.691016109660268">
        <ele>151.25</ele>
      </trkpt>
      <trkpt lat="42.243666630238295" lon="-8.690946875140071">
        <ele>152.1640625</ele>
      </trkpt>
      <trkpt lat="42.24369035102427" lon="-8.69087940081954">
        <ele>153.1328125</ele>
      </trkpt>
      <trkpt lat="42.243718514218926" lon="-8.690811507403851">
        <ele>153.96875</ele>
      </trkpt>
      <trkpt lat="42.243750700727105" lon="-8.690751744434237">
        <ele>154.484375</ele>
      </trkpt>
      <trkpt lat="42.243791855871677" lon="-8.690692819654942">
        <ele>154.75390625</ele>
      </trkpt>
      <trkpt lat="42.243832675740123" lon="-8.690642947331071">
        <ele>154.80859375</ele>
      </trkpt>
      <trkpt lat="42.243873998522758" lon="-8.690587626770139">
        <ele>154.93359375</ele>
      </trkpt>
      <trkpt lat="42.24392001517117" lon="-8.690541693940759">
        <ele>154.72265625</ele>
      </trkpt>
      <trkpt lat="42.243967037647963" lon="-8.690495761111379">
        <ele>154.53125</ele>
      </trkpt>
      <trkpt lat="42.244009952992201" lon="-8.690451253205538">
        <ele>154.37890625</ele>
      </trkpt>
      <trkpt lat="42.244053538888693" lon="-8.690399453043938">
        <ele>154.32421875</ele>
      </trkpt>
      <trkpt lat="42.244092850014567" lon="-8.690347988158464">
        <ele>154.3359375</ele>
      </trkpt>
      <trkpt lat="42.244131825864315" lon="-8.690291997045279">
        <ele>154.41015625</ele>
      </trkpt>
      <trkpt lat="42.244167029857635" lon="-8.690231312066317">
        <ele>154.63671875</ele>
      </trkpt>
      <trkpt lat="42.244204664602876" lon="-8.690176326781511">
        <ele>155.02734375</ele>
      </trkpt>
      <trkpt lat="42.244246741756797" lon="-8.690128969028592">
        <ele>155.2109375</ele>
      </trkpt>
      <trkpt lat="42.24429527297616" lon="-8.690089406445622">
        <ele>155.13671875</ele>
      </trkpt>
      <trkpt lat="42.2443519346416" lon="-8.690066104754806">
        <ele>154.5859375</ele>
      </trkpt>
      <trkpt lat="42.244405159726739" lon="-8.690047832205892">
        <ele>153.96875</ele>
      </trkpt>
      <trkpt lat="42.244411613792181" lon="-8.690044563263655">
        <ele>153.9140625</ele>
      </trkpt>
      <trkpt lat="42.244645804166794" lon="-8.689977843314409">
        <ele>151.10546875</ele>
      </trkpt>
      <trkpt lat="42.244698777794838" lon="-8.689969461411238">
        <ele>150.46484375</ele>
      </trkpt>
      <trkpt lat="42.244754349812865" lon="-8.689956469461322">
        <ele>149.8671875</ele>
      </trkpt>
      <trkpt lat="42.244815034791827" lon="-8.689942387863994">
        <ele>149.21875</ele>
      </trkpt>
      <trkpt lat="42.244871780276299" lon="-8.689925204962492">
        <ele>148.68359375</ele>
      </trkpt>
      <trkpt lat="42.24492073059082" lon="-8.689895113930106">
        <ele>148.50390625</ele>
      </trkpt>
      <trkpt lat="42.244966831058264" lon="-8.689845409244299">
        <ele>148.73046875</ele>
      </trkpt>
      <trkpt lat="42.245009243488312" lon="-8.689799979329109">
        <ele>148.94140625</ele>
      </trkpt>
      <trkpt lat="42.245051153004169" lon="-8.689752873033285">
        <ele>149.203125</ele>
      </trkpt>
      <trkpt lat="42.245097756385803" lon="-8.689699899405241">
        <ele>149.5390625</ele>
      </trkpt>
      <trkpt lat="42.245144192129374" lon="-8.689644411206245">
        <ele>150.16015625</ele>
      </trkpt>
      <trkpt lat="42.245190041139722" lon="-8.689596215263009">
        <ele>150.65625</ele>
      </trkpt>
      <trkpt lat="42.245237398892641" lon="-8.689559586346149">
        <ele>150.91796875</ele>
      </trkpt>
      <trkpt lat="42.245292300358415" lon="-8.689530165866017">
        <ele>150.99609375</ele>
      </trkpt>
      <trkpt lat="42.245349884033203" lon="-8.689497895538807">
        <ele>151.11328125</ele>
      </trkpt>
      <trkpt lat="42.24539958871901" lon="-8.689469480887055">
        <ele>151.234375</ele>
      </trkpt>
      <trkpt lat="42.245447868481278" lon="-8.68943645618856">
        <ele>151.4609375</ele>
      </trkpt>
      <trkpt lat="42.245499501004815" lon="-8.689397731795907">
        <ele>151.77734375</ele>
      </trkpt>
      <trkpt lat="42.245551971718669" lon="-8.689371161162853">
        <ele>151.8671875</ele>
      </trkpt>
      <trkpt lat="42.245608465746045" lon="-8.689348697662354">
        <ele>151.71484375</ele>
      </trkpt>
      <trkpt lat="42.245661607012153" lon="-8.689335286617279">
        <ele>151.41015625</ele>
      </trkpt>
      <trkpt lat="42.245719190686941" lon="-8.6893221270293">
        <ele>151.0546875</ele>
      </trkpt>
      <trkpt lat="42.245767218992114" lon="-8.689310224726796">
        <ele>150.77734375</ele>
      </trkpt>
      <trkpt lat="42.246028734371066" lon="-8.689182987436652">
        <ele>150.390625</ele>
      </trkpt>
      <trkpt lat="42.246076511219144" lon="-8.689148370176554">
        <ele>150.21484375</ele>
      </trkpt>
      <trkpt lat="42.24612227641046" lon="-8.689107969403267">
        <ele>149.8125</ele>
      </trkpt>
      <trkpt lat="42.246167538687587" lon="-8.689065473154187">
        <ele>149.421875</ele>
      </trkpt>
      <trkpt lat="42.246215902268887" lon="-8.689022809267044">
        <ele>148.9609375</ele>
      </trkpt>
      <trkpt lat="42.246264349669218" lon="-8.688978301361203">
        <ele>148.49609375</ele>
      </trkpt>
      <trkpt lat="42.246315060183406" lon="-8.688925914466381">
        <ele>148.04296875</ele>
      </trkpt>
      <trkpt lat="42.246360406279564" lon="-8.688874784857035">
        <ele>147.65234375</ele>
      </trkpt>
      <trkpt lat="42.246397789567709" lon="-8.68882080540061">
        <ele>147.4140625</ele>
      </trkpt>
      <trkpt lat="42.246423438191414" lon="-8.688749223947525">
        <ele>147.5234375</ele>
      </trkpt>
      <trkpt lat="42.246448248624802" lon="-8.688680911436677">
        <ele>147.58203125</ele>
      </trkpt>
      <trkpt lat="42.246464341878891" lon="-8.688608324155211">
        <ele>147.61328125</ele>
      </trkpt>
      <trkpt lat="42.246477333828807" lon="-8.688535904511809">
        <ele>147.6953125</ele>
      </trkpt>
      <trkpt lat="42.246488984674215" lon="-8.68846457451582">
        <ele>147.77734375</ele>
      </trkpt>
      <trkpt lat="42.246499545872211" lon="-8.688384024426341">
        <ele>147.90625</ele>
      </trkpt>
      <trkpt lat="42.246505497023463" lon="-8.68830774910748">
        <ele>148.12109375</ele>
      </trkpt>
      <trkpt lat="42.24650776013732" lon="-8.688230803236365">
        <ele>148.41796875</ele>
      </trkpt>
      <trkpt lat="42.246501389890909" lon="-8.688154527917504">
        <ele>148.171875</ele>
      </trkpt>
      <trkpt lat="42.246492253616452" lon="-8.68807615712285">
        <ele>147.91796875</ele>
      </trkpt>
      <trkpt lat="42.246481692418456" lon="-8.687992002815008">
        <ele>147.6640625</ele>
      </trkpt>
      <trkpt lat="42.246468616649508" lon="-8.687920924276114">
        <ele>147.51171875</ele>
      </trkpt>
      <trkpt lat="42.246451182290912" lon="-8.687849761918187">
        <ele>147.4453125</ele>
      </trkpt>
      <trkpt lat="42.246420420706272" lon="-8.687791340053082">
        <ele>147.7265625</ele>
      </trkpt>
      <trkpt lat="42.246391084045172" lon="-8.687730235978961">
        <ele>147.78125</ele>
      </trkpt>
      <trkpt lat="42.246351856738329" lon="-8.687679190188646">
        <ele>148</ele>
      </trkpt>
      <trkpt lat="42.246305085718632" lon="-8.687629401683807">
        <ele>148.40234375</ele>
      </trkpt>
      <trkpt lat="42.246264014393091" lon="-8.687578942626715">
        <ele>148.69140625</ele>
      </trkpt>
      <trkpt lat="42.24622143432498" lon="-8.687525046989322">
        <ele>148.984375</ele>
      </trkpt>
      <trkpt lat="42.246175836771727" lon="-8.687481125816703">
        <ele>149.4609375</ele>
      </trkpt>
      <trkpt lat="42.246129149571061" lon="-8.687434522435069">
        <ele>149.94921875</ele>
      </trkpt>
      <trkpt lat="42.246085479855537" lon="-8.687393199652433">
        <ele>150.4375</ele>
      </trkpt>
      <trkpt lat="42.246040888130665" lon="-8.687349697574973">
        <ele>150.93359375</ele>
      </trkpt>
      <trkpt lat="42.245993111282587" lon="-8.687307620421052">
        <ele>151.57421875</ele>
      </trkpt>
      <trkpt lat="42.245946591719985" lon="-8.687266632914543">
        <ele>152.0703125</ele>
      </trkpt>
      <trkpt lat="42.245898731052876" lon="-8.687223549932241">
        <ele>152.54296875</ele>
      </trkpt>
      <trkpt lat="42.245851205661893" lon="-8.68717803619802">
        <ele>153</ele>
      </trkpt>
      <trkpt lat="42.245804267004132" lon="-8.687133695930243">
        <ele>153.4921875</ele>
      </trkpt>
      <trkpt lat="42.245758334174752" lon="-8.687078459188342">
        <ele>153.828125</ele>
      </trkpt>
      <trkpt lat="42.24571080878377" lon="-8.687034538015723">
        <ele>154.40234375</ele>
      </trkpt>
      <trkpt lat="42.245664959773421" lon="-8.68699531070888">
        <ele>155.03125</ele>
      </trkpt>
      <trkpt lat="42.24561701528728" lon="-8.686954574659467">
        <ele>155.71484375</ele>
      </trkpt>
      <trkpt lat="42.245570244267583" lon="-8.686917191371322">
        <ele>156.4453125</ele>
      </trkpt>
      <trkpt lat="42.245520371943712" lon="-8.686887184157968">
        <ele>157.42578125</ele>
      </trkpt>
      <trkpt lat="42.245469745248556" lon="-8.686848124489188">
        <ele>158.34765625</ele>
      </trkpt>
      <trkpt lat="42.245422806590796" lon="-8.68679984472692">
        <ele>159.015625</ele>
      </trkpt>
      <trkpt lat="42.245384249836206" lon="-8.686746116727591">
        <ele>159.38671875</ele>
      </trkpt>
      <trkpt lat="42.245346615090966" lon="-8.686694148927927">
        <ele>159.78515625</ele>
      </trkpt>
      <trkpt lat="42.245312333106995" lon="-8.686633966863155">
        <ele>160.01171875</ele>
      </trkpt>
      <trkpt lat="42.245281655341387" lon="-8.686574539169669">
        <ele>160.17578125</ele>
      </trkpt>
      <trkpt lat="42.245254749432206" lon="-8.686505220830441">
        <ele>160.125</ele>
      </trkpt>
      <trkpt lat="42.245231447741389" lon="-8.686436070129275">
        <ele>159.99609375</ele>
      </trkpt>
      <trkpt lat="42.245210073888302" lon="-8.686360633000731">
        <ele>159.734375</ele>
      </trkpt>
      <trkpt lat="42.245189286768436" lon="-8.686282010748982">
        <ele>159.33984375</ele>
      </trkpt>
      <trkpt lat="42.245169756934047" lon="-8.686209339648485">
        <ele>158.99609375</ele>
      </trkpt>
      <trkpt lat="42.245155423879623" lon="-8.686131052672863">
        <ele>158.41796875</ele>
      </trkpt>
      <trkpt lat="42.24514695815742" lon="-8.686054609715939">
        <ele>157.67578125</ele>
      </trkpt>
      <trkpt lat="42.245137235149741" lon="-8.68597992695868">
        <ele>157.00390625</ele>
      </trkpt>
      <trkpt lat="42.245127847418189" lon="-8.685907674953341">
        <ele>156.40625</ele>
      </trkpt>
      <trkpt lat="42.245116531848907" lon="-8.685832656919956">
        <ele>156.69921875</ele>
      </trkpt>
      <trkpt lat="42.245102785527706" lon="-8.685751939192414">
        <ele>157.0625</ele>
      </trkpt>
      <trkpt lat="42.245090464130044" lon="-8.685678178444505">
        <ele>157.38671875</ele>
      </trkpt>
      <trkpt lat="42.245076885446906" lon="-8.685604836791754">
        <ele>157.7734375</ele>
      </trkpt>
      <trkpt lat="42.245063055306673" lon="-8.685533087700605">
        <ele>158.16015625</ele>
      </trkpt>
      <trkpt lat="42.245050733909011" lon="-8.685449436306953">
        <ele>158.47265625</ele>
      </trkpt>
      <trkpt lat="42.245048554614186" lon="-8.685376849025488">
        <ele>158.62109375</ele>
      </trkpt>
      <trkpt lat="42.245042100548744" lon="-8.685304010286927">
        <ele>158.91796875</ele>
      </trkpt>
      <trkpt lat="42.245030701160431" lon="-8.685233434662223">
        <ele>159.375</ele>
      </trkpt>
      <trkpt lat="42.245013937354088" lon="-8.685159171000123">
        <ele>160.00390625</ele>
      </trkpt>
      <trkpt lat="42.244994910433888" lon="-8.685083985328674">
        <ele>160.6953125</ele>
      </trkpt>
      <trkpt lat="42.244980074465275" lon="-8.68501290678978">
        <ele>161.23046875</ele>
      </trkpt>
      <trkpt lat="42.244965238496661" lon="-8.684938726946712">
        <ele>162.49609375</ele>
      </trkpt>
      <trkpt lat="42.244950234889984" lon="-8.684865636751056">
        <ele>164.13671875</ele>
      </trkpt>
      <trkpt lat="42.244935231283307" lon="-8.684792881831527">
        <ele>165.734375</ele>
      </trkpt>
      <trkpt lat="42.244922574609518" lon="-8.684722809121013">
        <ele>167.1875</ele>
      </trkpt>
      <trkpt lat="42.244911845773458" lon="-8.684651143848896">
        <ele>168.5859375</ele>
      </trkpt>
      <trkpt lat="42.244935231283307" lon="-8.684582663699985">
        <ele>169.04296875</ele>
      </trkpt>
      <trkpt lat="42.244971441105008" lon="-8.684520134702325">
        <ele>169.1484375</ele>
      </trkpt>
      <trkpt lat="42.245018044486642" lon="-8.684478560462594">
        <ele>168.73828125</ele>
      </trkpt>
      <trkpt lat="42.245072945952415" lon="-8.68446514941752">
        <ele>167.67578125</ele>
      </trkpt>
      <trkpt lat="42.245130613446236" lon="-8.684460120275617">
        <ele>166.29296875</ele>
      </trkpt>
      <trkpt lat="42.245185263454914" lon="-8.684452744200826">
        <ele>164.97265625</ele>
      </trkpt>
      <trkpt lat="42.245239578187466" lon="-8.684446373954415">
        <ele>163.64453125</ele>
      </trkpt>
      <trkpt lat="42.245299592614174" lon="-8.684428185224533">
        <ele>162.39453125</ele>
      </trkpt>
      <trkpt lat="42.245357595384121" lon="-8.684404129162431">
        <ele>161.3203125</ele>
      </trkpt>
      <trkpt lat="42.245418867096305" lon="-8.684369344264269">
        <ele>160.38671875</ele>
      </trkpt>
      <trkpt lat="42.245471086353064" lon="-8.684335816651583">
        <ele>159.68359375</ele>
      </trkpt>
      <trkpt lat="42.245525401085615" lon="-8.684297176077962">
        <ele>159.04296875</ele>
      </trkpt>
      <trkpt lat="42.245576530694962" lon="-8.684259206056595">
        <ele>158.59765625</ele>
      </trkpt>
      <trkpt lat="42.245622128248215" lon="-8.684216039255261">
        <ele>158.5390625</ele>
      </trkpt>
      <trkpt lat="42.245674850419164" lon="-8.684174632653594">
        <ele>158.30078125</ele>
      </trkpt>
      <trkpt lat="42.245733523741364" lon="-8.68413582444191">
        <ele>157.8984375</ele>
      </trkpt>
      <trkpt lat="42.245785323902965" lon="-8.684111097827554">
        <ele>157.34765625</ele>
      </trkpt>
      <trkpt lat="42.245844332501292" lon="-8.684091484174132">
        <ele>156.546875</ele>
      </trkpt>
      <trkpt lat="42.24590334109962" lon="-8.68407815694809">
        <ele>155.6171875</ele>
      </trkpt>
      <trkpt lat="42.245962601155043" lon="-8.684070529416203">
        <ele>154.56640625</ele>
      </trkpt>
      <trkpt lat="42.246026890352368" lon="-8.684059465304017">
        <ele>153.5390625</ele>
      </trkpt>
      <trkpt lat="42.246087910607457" lon="-8.684044042602181">
        <ele>153.02734375</ele>
      </trkpt>
      <trkpt lat="42.246152115985751" lon="-8.684025183320045">
        <ele>152.54296875</ele>
      </trkpt>
      <trkpt lat="42.246205424889922" lon="-8.684004563838243">
        <ele>152.234375</ele>
      </trkpt>
      <trkpt lat="42.246261164546013" lon="-8.683986375108361">
        <ele>151.84765625</ele>
      </trkpt>
      <trkpt lat="42.246316904202104" lon="-8.683963743969798">
        <ele>151.546875</ele>
      </trkpt>
      <trkpt lat="42.246380355209112" lon="-8.68394429795444">
        <ele>151.08203125</ele>
      </trkpt>
      <trkpt lat="42.246431820094585" lon="-8.68392183445394">
        <ele>150.83203125</ele>
      </trkpt>
      <trkpt lat="42.246488984674215" lon="-8.683902975171804">
        <ele>150.45703125</ele>
      </trkpt>
      <trkpt lat="42.246544640511274" lon="-8.68387539871037">
        <ele>150.3828125</ele>
      </trkpt>
      <trkpt lat="42.246601302176714" lon="-8.683845894411206">
        <ele>150.328125</ele>
      </trkpt>
      <trkpt lat="42.246643714606762" lon="-8.683799207210541">
        <ele>150.75</ele>
      </trkpt>
      <trkpt lat="42.246680846437812" lon="-8.683738689869642">
        <ele>151.484375</ele>
      </trkpt>
      <trkpt lat="42.246716720983386" lon="-8.683675574138761">
        <ele>152.2734375</ele>
      </trkpt>
      <trkpt lat="42.246753852814436" lon="-8.683618493378162">
        <ele>152.9296875</ele>
      </trkpt>
      <trkpt lat="42.24677556194365" lon="-8.683586390689015">
        <ele>153.34765625</ele>
      </trkpt>
      <trkpt lat="42.246940182521939" lon="-8.683402575552464">
        <ele>155.73828125</ele>
      </trkpt>
      <trkpt lat="42.247509062290192" lon="-8.683112980797887">
        <ele>155.41015625</ele>
      </trkpt>
      <trkpt lat="42.247509984299541" lon="-8.683111891150475">
        <ele>155.4296875</ele>
      </trkpt>
      <trkpt lat="42.247868813574314" lon="-8.682914329692721">
        <ele>156.83984375</ele>
      </trkpt>
      <trkpt lat="42.247872836887836" lon="-8.682912150397897">
        <ele>156.8671875</ele>
      </trkpt>
      <trkpt lat="42.24831959232688" lon="-8.682718696072698">
        <ele>159.76171875</ele>
      </trkpt>
      <trkpt lat="42.248789397999644" lon="-8.682516189292073">
        <ele>159.12890625</ele>
      </trkpt>
      <trkpt lat="42.2490403521806" lon="-8.682376127690077">
        <ele>158.7421875</ele>
      </trkpt>
      <trkpt lat="42.249269261956215" lon="-8.682244028896093">
        <ele>158.23828125</ele>
      </trkpt>
      <trkpt lat="42.249545948579907" lon="-8.682070858776569">
        <ele>158.40625</ele>
      </trkpt>
      <trkpt lat="42.249704953283072" lon="-8.682012017816305">
        <ele>157.9140625</ele>
      </trkpt>
      <trkpt lat="42.249764213338494" lon="-8.682009670883417">
        <ele>157.16796875</ele>
      </trkpt>
      <trkpt lat="42.249817941337824" lon="-8.682005815207958">
        <ele>156.47265625</ele>
      </trkpt>
      <trkpt lat="42.249877117574215" lon="-8.68199173361063">
        <ele>155.9296875</ele>
      </trkpt>
      <trkpt lat="42.249932438135147" lon="-8.681969605386257">
        <ele>155.625</ele>
      </trkpt>
      <trkpt lat="42.249983651563525" lon="-8.681942783296108">
        <ele>155.484375</ele>
      </trkpt>
      <trkpt lat="42.250036373734474" lon="-8.681926773861051">
        <ele>155.078125</ele>
      </trkpt>
      <trkpt lat="42.250091191381216" lon="-8.681939262896776">
        <ele>154.00390625</ele>
      </trkpt>
      <trkpt lat="42.250146931037307" lon="-8.681970359757543">
        <ele>152.5</ele>
      </trkpt>
      <trkpt lat="42.250204849988222" lon="-8.68198930285871">
        <ele>151.125</ele>
      </trkpt>
      <trkpt lat="42.250260338187218" lon="-8.681994834914804">
        <ele>149.91015625</ele>
      </trkpt>
      <trkpt lat="42.250318424776196" lon="-8.681989805772901">
        <ele>148.87890625</ele>
      </trkpt>
      <trkpt lat="42.250373661518097" lon="-8.681971281766891">
        <ele>148.17578125</ele>
      </trkpt>
      <trkpt lat="42.250405680388212" lon="-8.68195753544569">
        <ele>147.82421875</ele>
      </trkpt>
      <trkpt lat="42.25064892321825" lon="-8.681815629824996">
        <ele>145.5859375</ele>
      </trkpt>
      <trkpt lat="42.250692006200552" lon="-8.681774809956551">
        <ele>145.4375</ele>
      </trkpt>
      <trkpt lat="42.250722348690033" lon="-8.681711191311479">
        <ele>145.796875</ele>
      </trkpt>
      <trkpt lat="42.250749170780182" lon="-8.68164723739028">
        <ele>146.140625</ele>
      </trkpt>
      <trkpt lat="42.250764258205891" lon="-8.681608010083437">
        <ele>146.390625</ele>
      </trkpt>
      <trkpt lat="42.250918736681342" lon="-8.681165613234043">
        <ele>150.2265625</ele>
      </trkpt>
      <trkpt lat="42.250946313142776" lon="-8.681080369278789">
        <ele>151.1640625</ele>
      </trkpt>
      <trkpt lat="42.25097238086164" lon="-8.681011134758592">
        <ele>151.91015625</ele>
      </trkpt>
      <trkpt lat="42.251004902645946" lon="-8.680949360132217">
        <ele>152.4765625</ele>
      </trkpt>
      <trkpt lat="42.251037172973156" lon="-8.680887501686811">
        <ele>153.0859375</ele>
      </trkpt>
      <trkpt lat="42.251079082489014" lon="-8.680841233581305">
        <ele>153.34375</ele>
      </trkpt>
      <trkpt lat="42.251114873215556" lon="-8.680774681270123">
        <ele>154.23828125</ele>
      </trkpt>
      <trkpt lat="42.251152256503701" lon="-8.68070469237864">
        <ele>155.296875</ele>
      </trkpt>
      <trkpt lat="42.251191819086671" lon="-8.680658005177975">
        <ele>155.8359375</ele>
      </trkpt>
      <trkpt lat="42.251239847391844" lon="-8.680625818669796">
        <ele>155.9765625</ele>
      </trkpt>
      <trkpt lat="42.251240685582161" lon="-8.680625818669796">
        <ele>155.96875</ele>
      </trkpt>
      <trkpt lat="42.251789951696992" lon="-8.680189456790686">
        <ele>156.77734375</ele>
      </trkpt>
      <trkpt lat="42.252092370763421" lon="-8.679947555065155">
        <ele>154.91796875</ele>
      </trkpt>
      <trkpt lat="42.252319268882275" lon="-8.679762063547969">
        <ele>152.2734375</ele>
      </trkpt>
      <trkpt lat="42.252496127039194" lon="-8.679543044418097">
        <ele>150.5078125</ele>
      </trkpt>
      <trkpt lat="42.25266887806356" lon="-8.679328132420778">
        <ele>148.72265625</ele>
      </trkpt>
      <trkpt lat="42.252707434818149" lon="-8.679274907335639">
        <ele>148.3359375</ele>
      </trkpt>
      <trkpt lat="42.252740794792771" lon="-8.679217323660851">
        <ele>148.11328125</ele>
      </trkpt>
      <trkpt lat="42.252761414274573" lon="-8.679151693359017">
        <ele>148.28125</ele>
      </trkpt>
      <trkpt lat="42.252780189737678" lon="-8.679083380848169">
        <ele>148.51953125</ele>
      </trkpt>
      <trkpt lat="42.252794019877911" lon="-8.679006518796086">
        <ele>148.96484375</ele>
      </trkpt>
      <trkpt lat="42.252803156152368" lon="-8.678932841867208">
        <ele>149.45703125</ele>
      </trkpt>
      <trkpt lat="42.2528066765517" lon="-8.678852459415793">
        <ele>150.125</ele>
      </trkpt>
      <trkpt lat="42.252807850018144" lon="-8.678772747516632">
        <ele>150.84765625</ele>
      </trkpt>
      <trkpt lat="42.252808688208461" lon="-8.678738214075565">
        <ele>151.1484375</ele>
      </trkpt>
      <trkpt lat="42.252818662673235" lon="-8.678496815264225">
        <ele>153.21875</ele>
      </trkpt>
      <trkpt lat="42.252818662673235" lon="-8.678495725616813">
        <ele>153.234375</ele>
      </trkpt>
      <trkpt lat="42.252886220812798" lon="-8.678175117820501">
        <ele>155.95703125</ele>
      </trkpt>
      <trkpt lat="42.252894518896937" lon="-8.678163466975093">
        <ele>155.89453125</ele>
      </trkpt>
      <trkpt lat="42.25304757244885" lon="-8.677808744832873">
        <ele>157.09375</ele>
      </trkpt>
      <trkpt lat="42.253203559666872" lon="-8.67743818089366">
        <ele>159.3125</ele>
      </trkpt>
      <trkpt lat="42.253213534131646" lon="-8.677415801212192">
        <ele>159.5234375</ele>
      </trkpt>
      <trkpt lat="42.253351248800755" lon="-8.67708052508533">
        <ele>163.11328125</ele>
      </trkpt>
      <trkpt lat="42.253427775576711" lon="-8.676909701898694">
        <ele>164.828125</ele>
      </trkpt>
      <trkpt lat="42.253473876044154" lon="-8.676861254498363">
        <ele>164.4765625</ele>
      </trkpt>
      <trkpt lat="42.253528442233801" lon="-8.67680886760354">
        <ele>163.8984375</ele>
      </trkpt>
      <trkpt lat="42.253578482195735" lon="-8.676770562306046">
        <ele>163.10546875</ele>
      </trkpt>
      <trkpt lat="42.253628689795732" lon="-8.676736783236265">
        <ele>162.17578125</ele>
      </trkpt>
      <trkpt lat="42.253697253763676" lon="-8.676693113520741">
        <ele>160.8046875</ele>
      </trkpt>
      <trkpt lat="42.253750646486878" lon="-8.67665883153677">
        <ele>159.7109375</ele>
      </trkpt>
      <trkpt lat="42.253810074180365" lon="-8.67662220261991">
        <ele>158.64453125</ele>
      </trkpt>
      <trkpt lat="42.253860952332616" lon="-8.676585322245955">
        <ele>157.90234375</ele>
      </trkpt>
      <trkpt lat="42.253906466066837" lon="-8.676539305597544">
        <ele>157.6796875</ele>
      </trkpt>
      <trkpt lat="42.253953404724598" lon="-8.6764897685498">
        <ele>157.59765625</ele>
      </trkpt>
      <trkpt lat="42.253999086096883" lon="-8.67644333280623">
        <ele>157.46484375</ele>
      </trkpt>
      <trkpt lat="42.254045018926263" lon="-8.676392370834947">
        <ele>157.453125</ele>
      </trkpt>
      <trkpt lat="42.254092795774341" lon="-8.676338223740458">
        <ele>157.46484375</ele>
      </trkpt>
      <trkpt lat="42.254138980060816" lon="-8.676299415528774">
        <ele>157.11328125</ele>
      </trkpt>
      <trkpt lat="42.254189690575004" lon="-8.676258679479361">
        <ele>156.6796875</ele>
      </trkpt>
      <trkpt lat="42.254243334755301" lon="-8.676212411373854">
        <ele>156.30078125</ele>
      </trkpt>
      <trkpt lat="42.25429211743176" lon="-8.676171423867345">
        <ele>155.83984375</ele>
      </trkpt>
      <trkpt lat="42.25434098392725" lon="-8.676121300086379">
        <ele>155.515625</ele>
      </trkpt>
      <trkpt lat="42.254383061081171" lon="-8.676076540723443">
        <ele>155.3046875</ele>
      </trkpt>
      <trkpt lat="42.254425892606378" lon="-8.676026752218604">
        <ele>155.16015625</ele>
      </trkpt>
      <trkpt lat="42.254478363320231" lon="-8.675962463021278">
        <ele>155.01171875</ele>
      </trkpt>
      <trkpt lat="42.25452228449285" lon="-8.675911752507091">
        <ele>154.7734375</ele>
      </trkpt>
      <trkpt lat="42.254564110189676" lon="-8.675857437774539">
        <ele>154.63671875</ele>
      </trkpt>
      <trkpt lat="42.2546043433249" lon="-8.675802117213607">
        <ele>154.53515625</ele>
      </trkpt>
      <trkpt lat="42.254635021090508" lon="-8.675752244889736">
        <ele>154.58984375</ele>
      </trkpt>
      <trkpt lat="42.25474901497364" lon="-8.675485281273723">
        <ele>154.25</ele>
      </trkpt>
      <trkpt lat="42.25477977655828" lon="-8.67542409338057">
        <ele>153.98046875</ele>
      </trkpt>
      <trkpt lat="42.254806263372302" lon="-8.675359468907118">
        <ele>153.89453125</ele>
      </trkpt>
      <trkpt lat="42.254841635003686" lon="-8.675270704552531">
        <ele>154.01171875</ele>
      </trkpt>
      <trkpt lat="42.254868624731898" lon="-8.675194764509797">
        <ele>154.17578125</ele>
      </trkpt>
      <trkpt lat="42.254897626116872" lon="-8.675119914114475">
        <ele>154.28125</ele>
      </trkpt>
      <trkpt lat="42.254923190921545" lon="-8.675044225528836">
        <ele>154.48828125</ele>
      </trkpt>
      <trkpt lat="42.254951689392328" lon="-8.674952611327171">
        <ele>154.8125</ele>
      </trkpt>
      <trkpt lat="42.254971219226718" lon="-8.67487046867609">
        <ele>155.2578125</ele>
      </trkpt>
      <trkpt lat="42.254991922527552" lon="-8.674798216670752">
        <ele>155.5546875</ele>
      </trkpt>
      <trkpt lat="42.255025617778301" lon="-8.674727557227015">
        <ele>155.453125</ele>
      </trkpt>
      <trkpt lat="42.255070712417364" lon="-8.674630997702479">
        <ele>155.36328125</ele>
      </trkpt>
      <trkpt lat="42.255101641640067" lon="-8.674563942477107">
        <ele>155.3203125</ele>
      </trkpt>
      <trkpt lat="42.255125530064106" lon="-8.674496216699481">
        <ele>155.46875</ele>
      </trkpt>
      <trkpt lat="42.255154028534889" lon="-8.674421031028032">
        <ele>155.59765625</ele>
      </trkpt>
      <trkpt lat="42.255177246406674" lon="-8.674350120127201">
        <ele>155.8203125</ele>
      </trkpt>
      <trkpt lat="42.255194010213017" lon="-8.674279795959592">
        <ele>156.03515625</ele>
      </trkpt>
      <trkpt lat="42.255208427086473" lon="-8.674207711592317">
        <ele>156.3125</ele>
      </trkpt>
      <trkpt lat="42.255230471491814" lon="-8.674133196473122">
        <ele>156.42578125</ele>
      </trkpt>
      <trkpt lat="42.255258886143565" lon="-8.674047952517867">
        <ele>156.484375</ele>
      </trkpt>
      <trkpt lat="42.25529090501368" lon="-8.673980813473463">
        <ele>156.359375</ele>
      </trkpt>
      <trkpt lat="42.255322756245732" lon="-8.67391224950552">
        <ele>156.29296875</ele>
      </trkpt>
      <trkpt lat="42.25534999743104" lon="-8.67383161559701">
        <ele>156.41796875</ele>
      </trkpt>
      <trkpt lat="42.255369946360588" lon="-8.673755172640085">
        <ele>156.640625</ele>
      </trkpt>
      <trkpt lat="42.255384027957916" lon="-8.673680238425732">
        <ele>156.96484375</ele>
      </trkpt>
      <trkpt lat="42.255396852269769" lon="-8.673605639487505">
        <ele>157.30859375</ele>
      </trkpt>
      <trkpt lat="42.255402887240052" lon="-8.673533136025071">
        <ele>157.77734375</ele>
      </trkpt>
      <trkpt lat="42.255409760400653" lon="-8.673455100506544">
        <ele>158.265625</ele>
      </trkpt>
      <trkpt lat="42.255414705723524" lon="-8.673378741368651">
        <ele>158.796875</ele>
      </trkpt>
      <trkpt lat="42.255418477579951" lon="-8.673297856003046">
        <ele>159.40625</ele>
      </trkpt>
      <trkpt lat="42.255428452044725" lon="-8.673223173245788">
        <ele>159.83203125</ele>
      </trkpt>
      <trkpt lat="42.25543599575758" lon="-8.673138851299882">
        <ele>160.40234375</ele>
      </trkpt>
      <trkpt lat="42.255441946908832" lon="-8.67306643165648">
        <ele>160.90625</ele>
      </trkpt>
      <trkpt lat="42.255455274134874" lon="-8.672992335632443">
        <ele>161.27734375</ele>
      </trkpt>
      <trkpt lat="42.255471870303154" lon="-8.672917066141963">
        <ele>161.6328125</ele>
      </trkpt>
      <trkpt lat="42.255504559725523" lon="-8.672850681468844">
        <ele>161.625</ele>
      </trkpt>
      <trkpt lat="42.255543200299144" lon="-8.672791086137295">
        <ele>161.4609375</ele>
      </trkpt>
      <trkpt lat="42.255573123693466" lon="-8.672728976234794">
        <ele>161.5</ele>
      </trkpt>
      <trkpt lat="42.255596006289124" lon="-8.672664687037468">
        <ele>161.7109375</ele>
      </trkpt>
      <trkpt lat="42.255621906369925" lon="-8.672619676217437">
        <ele>161.68359375</ele>
      </trkpt>
      <trkpt lat="42.25591242313385" lon="-8.672425886616111">
        <ele>159.87109375</ele>
      </trkpt>
      <trkpt lat="42.255924073979259" lon="-8.672416415065527">
        <ele>159.90234375</ele>
      </trkpt>
      <trkpt lat="42.256295224651694" lon="-8.672285908833146">
        <ele>158.0703125</ele>
      </trkpt>
      <trkpt lat="42.256647851318121" lon="-8.67217568680644">
        <ele>157.01171875</ele>
      </trkpt>
      <trkpt lat="42.256649695336819" lon="-8.67217568680644">
        <ele>156.99609375</ele>
      </trkpt>
      <trkpt lat="42.256900062784553" lon="-8.672107206657529">
        <ele>155.8046875</ele>
      </trkpt>
      <trkpt lat="42.256908947601914" lon="-8.672104775905609">
        <ele>155.7578125</ele>
      </trkpt>
      <trkpt lat="42.257070718333125" lon="-8.671994470059872">
        <ele>156.19140625</ele>
      </trkpt>
      <trkpt lat="42.257121596485376" lon="-8.671948537230492">
        <ele>156.48828125</ele>
      </trkpt>
      <trkpt lat="42.257168032228947" lon="-8.671909729018807">
        <ele>156.6796875</ele>
      </trkpt>
      <trkpt lat="42.257217234000564" lon="-8.671870501711965">
        <ele>156.83203125</ele>
      </trkpt>
      <trkpt lat="42.257266519591212" lon="-8.671838315203786">
        <ele>156.828125</ele>
      </trkpt>
      <trkpt lat="42.257327372208238" lon="-8.67180579341948">
        <ele>156.671875</ele>
      </trkpt>
      <trkpt lat="42.257380513474345" lon="-8.671784084290266">
        <ele>156.39453125</ele>
      </trkpt>
      <trkpt lat="42.257434660568833" lon="-8.671767571941018">
        <ele>156</ele>
      </trkpt>
      <trkpt lat="42.257493836805224" lon="-8.671752233058214">
        <ele>155.51171875</ele>
      </trkpt>
      <trkpt lat="42.257551001384854" lon="-8.671737816184759">
        <ele>155.0234375</ele>
      </trkpt>
      <trkpt lat="42.257616212591529" lon="-8.671719040721655">
        <ele>154.48828125</ele>
      </trkpt>
      <trkpt lat="42.257673460990191" lon="-8.671705964952707">
        <ele>153.9375</ele>
      </trkpt>
      <trkpt lat="42.257727524265647" lon="-8.671688865870237">
        <ele>153.50390625</ele>
      </trkpt>
      <trkpt lat="42.257781587541103" lon="-8.671665983274579">
        <ele>153.1640625</ele>
      </trkpt>
      <trkpt lat="42.257833303883672" lon="-8.671640502288938">
        <ele>152.90234375</ele>
      </trkpt>
      <trkpt lat="42.257882673293352" lon="-8.671609573066235">
        <ele>152.76171875</ele>
      </trkpt>
      <trkpt lat="42.25793095305562" lon="-8.671576213091612">
        <ele>152.671875</ele>
      </trkpt>
      <trkpt lat="42.257977807894349" lon="-8.671529944986105">
        <ele>152.953125</ele>
      </trkpt>
      <trkpt lat="42.258023908361793" lon="-8.671463979408145">
        <ele>153.70703125</ele>
      </trkpt>
      <trkpt lat="42.258059866726398" lon="-8.671406647190452">
        <ele>154.41796875</ele>
      </trkpt>
      <trkpt lat="42.258094903081656" lon="-8.671344704926014">
        <ele>155.20703125</ele>
      </trkpt>
      <trkpt lat="42.258132202550769" lon="-8.671282008290291">
        <ele>155.99609375</ele>
      </trkpt>
      <trkpt lat="42.258172854781151" lon="-8.671222329139709">
        <ele>156.69140625</ele>
      </trkpt>
      <trkpt lat="42.258217027410865" lon="-8.671176312491298">
        <ele>157.0625</ele>
      </trkpt>
      <trkpt lat="42.258269665762782" lon="-8.671134654432535">
        <ele>157.23828125</ele>
      </trkpt>
      <trkpt lat="42.258314173668623" lon="-8.671092577278614">
        <ele>157.53125</ele>
      </trkpt>
      <trkpt lat="42.258318783715367" lon="-8.671090230345726">
        <ele>157.515625</ele>
      </trkpt>
      <trkpt lat="42.258649030700326" lon="-8.670801892876625">
        <ele>158.3984375</ele>
      </trkpt>
      <trkpt lat="42.258650874719024" lon="-8.670801892876625">
        <ele>158.36328125</ele>
      </trkpt>
      <trkpt lat="42.258902247995138" lon="-8.670546496286988">
        <ele>158.7578125</ele>
      </trkpt>
      <trkpt lat="42.259097965434194" lon="-8.670369973406196">
        <ele>157.55859375</ele>
      </trkpt>
      <trkpt lat="42.259100815281272" lon="-8.670365447178483">
        <ele>157.56640625</ele>
      </trkpt>
      <trkpt lat="42.259214892983437" lon="-8.670135196298361">
        <ele>158.69140625</ele>
      </trkpt>
      <trkpt lat="42.259239703416824" lon="-8.67009018547833">
        <ele>158.8203125</ele>
      </trkpt>
      <trkpt lat="42.259355541318655" lon="-8.66994216106832">
        <ele>158.3203125</ele>
      </trkpt>
      <trkpt lat="42.259638095274568" lon="-8.669610070064664">
        <ele>155.703125</ele>
      </trkpt>
      <trkpt lat="42.259784862399101" lon="-8.669282924383879">
        <ele>156.3828125</ele>
      </trkpt>
      <trkpt lat="42.25993380881846" lon="-8.669018978253007">
        <ele>157.58203125</ele>
      </trkpt>
      <trkpt lat="42.259964989498258" lon="-8.668948905542493">
        <ele>158.328125</ele>
      </trkpt>
      <trkpt lat="42.259998181834817" lon="-8.668890064582229">
        <ele>158.8125</ele>
      </trkpt>
      <trkpt lat="42.260045371949673" lon="-8.668841198086739">
        <ele>158.81640625</ele>
      </trkpt>
      <trkpt lat="42.260095998644829" lon="-8.668809346854687">
        <ele>158.41015625</ele>
      </trkpt>
      <trkpt lat="42.260154923424125" lon="-8.668804066255689">
        <ele>157.3125</ele>
      </trkpt>
      <trkpt lat="42.26020161062479" lon="-8.668804066255689">
        <ele>156.359375</ele>
      </trkpt>
      <trkpt lat="42.260365057736635" lon="-8.66878604516387">
        <ele>153.3828125</ele>
      </trkpt>
      <trkpt lat="42.260416941717267" lon="-8.668770119547844">
        <ele>152.71484375</ele>
      </trkpt>
      <trkpt lat="42.26047134026885" lon="-8.668739693239331">
        <ele>152.28515625</ele>
      </trkpt>
      <trkpt lat="42.260512243956327" lon="-8.668692335486412">
        <ele>152.4453125</ele>
      </trkpt>
      <trkpt lat="42.26054753176868" lon="-8.668636092916131">
        <ele>152.87890625</ele>
      </trkpt>
      <trkpt lat="42.26106159389019" lon="-8.667723052203655">
        <ele>157.06640625</ele>
      </trkpt>
      <trkpt lat="42.261289916932583" lon="-8.667398421093822">
        <ele>156.015625</ele>
      </trkpt>
      <trkpt lat="42.261325623840094" lon="-8.667327677831054">
        <ele>155.3671875</ele>
      </trkpt>
      <trkpt lat="42.261358145624399" lon="-8.667251234874129">
        <ele>154.79296875</ele>
      </trkpt>
      <trkpt lat="42.2613874822855" lon="-8.667180156335235">
        <ele>154.26171875</ele>
      </trkpt>
      <trkpt lat="42.261411705985665" lon="-8.667112849652767">
        <ele>153.83203125</ele>
      </trkpt>
      <trkpt lat="42.261426709592342" lon="-8.667024252936244">
        <ele>153.6875</ele>
      </trkpt>
      <trkpt lat="42.26143442094326" lon="-8.666944960132241">
        <ele>153.69921875</ele>
      </trkpt>
      <trkpt lat="42.261427128687501" lon="-8.666865583509207">
        <ele>153.8046875</ele>
      </trkpt>
      <trkpt lat="42.261406509205699" lon="-8.666783189401031">
        <ele>154.2578125</ele>
      </trkpt>
      <trkpt lat="42.261377843096852" lon="-8.666717642918229">
        <ele>154.96484375</ele>
      </trkpt>
      <trkpt lat="42.261356050148606" lon="-8.666647570207715">
        <ele>155.4921875</ele>
      </trkpt>
      <trkpt lat="42.261333083733916" lon="-8.66658185608685">
        <ele>156.0703125</ele>
      </trkpt>
      <trkpt lat="42.261303244158626" lon="-8.666516644880176">
        <ele>156.85546875</ele>
      </trkpt>
      <trkpt lat="42.261271979659796" lon="-8.666431652382016">
        <ele>157.421875</ele>
      </trkpt>
      <trkpt lat="42.261252701282501" lon="-8.666352024301887">
        <ele>157.4921875</ele>
      </trkpt>
      <trkpt lat="42.261233674362302" lon="-8.666276168078184">
        <ele>157.609375</ele>
      </trkpt>
      <trkpt lat="42.261210875585675" lon="-8.666204921901226">
        <ele>157.90234375</ele>
      </trkpt>
      <trkpt lat="42.26118472404778" lon="-8.666117247194052">
        <ele>158.2421875</ele>
      </trkpt>
      <trkpt lat="42.261157482862473" lon="-8.666019262745976">
        <ele>158.61328125</ele>
      </trkpt>
      <trkpt lat="42.261139042675495" lon="-8.665950782597065">
        <ele>159.05859375</ele>
      </trkpt>
      <trkpt lat="42.2611163277179" lon="-8.665881296619773">
        <ele>159.65625</ele>
      </trkpt>
      <trkpt lat="42.261099983006716" lon="-8.665803764015436">
        <ele>160.0234375</ele>
      </trkpt>
      <trkpt lat="42.261088667437434" lon="-8.665732182562351">
        <ele>160.2421875</ele>
      </trkpt>
      <trkpt lat="42.261077854782343" lon="-8.665657667443156">
        <ele>160.43359375</ele>
      </trkpt>
      <trkpt lat="42.2610645275563" lon="-8.665577117353678">
        <ele>160.703125</ele>
      </trkpt>
      <trkpt lat="42.261050278320909" lon="-8.665494807064533">
        <ele>161.09765625</ele>
      </trkpt>
      <trkpt lat="42.261039046570659" lon="-8.665417861193419">
        <ele>161.4296875</ele>
      </trkpt>
      <trkpt lat="42.261026808992028" lon="-8.665333706885576">
        <ele>161.79296875</ele>
      </trkpt>
      <trkpt lat="42.261022450402379" lon="-8.665260281413794">
        <ele>161.89453125</ele>
      </trkpt>
      <trkpt lat="42.261014403775334" lon="-8.665177468210459">
        <ele>162.1171875</ele>
      </trkpt>
      <trkpt lat="42.260998478159308" lon="-8.665094655007124">
        <ele>162.609375</ele>
      </trkpt>
      <trkpt lat="42.260982636362314" lon="-8.665017206221819">
        <ele>163.76171875</ele>
      </trkpt>
      <trkpt lat="42.260974086821079" lon="-8.664942523464561">
        <ele>164.671875</ele>
      </trkpt>
      <trkpt lat="42.260970314964652" lon="-8.664859207347035">
        <ele>165.48828125</ele>
      </trkpt>
      <trkpt lat="42.260982720181346" lon="-8.664778657257557">
        <ele>165.7578125</ele>
      </trkpt>
      <trkpt lat="42.260994119569659" lon="-8.66472945548594">
        <ele>165.80859375</ele>
      </trkpt>
      <trkpt lat="42.261035358533263" lon="-8.664645468816161">
        <ele>165.234375</ele>
      </trkpt>
      <trkpt lat="42.261060755699873" lon="-8.664577910676599">
        <ele>165.1484375</ele>
      </trkpt>
      <trkpt lat="42.261086320504546" lon="-8.664515716955066">
        <ele>165.0546875</ele>
      </trkpt>
      <trkpt lat="42.261102581396699" lon="-8.664446733891964">
        <ele>165.3359375</ele>
      </trkpt>
      <trkpt lat="42.26110995747149" lon="-8.664372051134706">
        <ele>165.9609375</ele>
      </trkpt>
      <trkpt lat="42.261113142594695" lon="-8.664291920140386">
        <ele>166.76953125</ele>
      </trkpt>
      <trkpt lat="42.261115154251456" lon="-8.664247412234545">
        <ele>167.21484375</ele>
      </trkpt>
      <trkpt lat="42.261182796210051" lon="-8.664100645110011">
        <ele>167.171875</ele>
      </trkpt>
      <trkpt lat="42.261207355186343" lon="-8.664021855220199">
        <ele>167.6328125</ele>
      </trkpt>
      <trkpt lat="42.26123115979135" lon="-8.66395496763289">
        <ele>167.984375</ele>
      </trkpt>
      <trkpt lat="42.2612614184618" lon="-8.663894115015864">
        <ele>168.125</ele>
      </trkpt>
      <trkpt lat="42.26130592636764" lon="-8.663836196064949">
        <ele>167.984375</ele>
      </trkpt>
      <trkpt lat="42.261328306049109" lon="-8.66376880556345">
        <ele>168.578125</ele>
      </trkpt>
      <trkpt lat="42.261343477293849" lon="-8.663676520809531">
        <ele>169.703125</ele>
      </trkpt>
      <trkpt lat="42.261355463415384" lon="-8.663596557453275">
        <ele>170.68359375</ele>
      </trkpt>
      <trkpt lat="42.261373065412045" lon="-8.663521707057953">
        <ele>171.50390625</ele>
      </trkpt>
      <trkpt lat="42.261392930522561" lon="-8.663449035957456">
        <ele>172.2734375</ele>
      </trkpt>
      <trkpt lat="42.261423105373979" lon="-8.663387093693018">
        <ele>172.73046875</ele>
      </trkpt>
      <trkpt lat="42.261462416499853" lon="-8.663336466997862">
        <ele>172.89453125</ele>
      </trkpt>
      <trkpt lat="42.261514300480485" lon="-8.663301430642605">
        <ele>172.640625</ele>
      </trkpt>
      <trkpt lat="42.261569201946259" lon="-8.663283241912723">
        <ele>172.08984375</ele>
      </trkpt>
      <trkpt lat="42.261631898581982" lon="-8.663287600502372">
        <ele>171.0390625</ele>
      </trkpt>
      <trkpt lat="42.261684285476804" lon="-8.663305705413222">
        <ele>169.8984375</ele>
      </trkpt>
      <trkpt lat="42.261740192770958" lon="-8.663338059559464">
        <ele>168.42578125</ele>
      </trkpt>
      <trkpt lat="42.261795178055763" lon="-8.663364965468645">
        <ele>167.6953125</ele>
      </trkpt>
      <trkpt lat="42.261848067864776" lon="-8.663394218310714">
        <ele>167.05859375</ele>
      </trkpt>
      <trkpt lat="42.261903053149581" lon="-8.663426740095019">
        <ele>166.34765625</ele>
      </trkpt>
      <trkpt lat="42.261953176930547" lon="-8.663464291021228">
        <ele>165.54296875</ele>
      </trkpt>
      <trkpt lat="42.262002965435386" lon="-8.663499327376485">
        <ele>164.7734375</ele>
      </trkpt>
      <trkpt lat="42.262056777253747" lon="-8.663539225235581">
        <ele>163.890625</ele>
      </trkpt>
      <trkpt lat="42.262109164148569" lon="-8.663568310439587">
        <ele>163.2109375</ele>
      </trkpt>
      <trkpt lat="42.262162221595645" lon="-8.663591779768467">
        <ele>162.6328125</ele>
      </trkpt>
      <trkpt lat="42.262218296527863" lon="-8.663607789203525">
        <ele>162.19140625</ele>
      </trkpt>
      <trkpt lat="42.262282585725188" lon="-8.663617260754108">
        <ele>161.92578125</ele>
      </trkpt>
      <trkpt lat="42.262339750304818" lon="-8.663620194420218">
        <ele>161.80078125</ele>
      </trkpt>
      <trkpt lat="42.262396328151226" lon="-8.663617596030235">
        <ele>161.78515625</ele>
      </trkpt>
      <trkpt lat="42.262453492730856" lon="-8.663611812517047">
        <ele>161.83203125</ele>
      </trkpt>
      <trkpt lat="42.262518787756562" lon="-8.663604436442256">
        <ele>161.90234375</ele>
      </trkpt>
      <trkpt lat="42.262577461078763" lon="-8.663601083680987">
        <ele>161.90234375</ele>
      </trkpt>
      <trkpt lat="42.262644013389945" lon="-8.663592701777816">
        <ele>161.99609375</ele>
      </trkpt>
      <trkpt lat="42.262708386406302" lon="-8.663585409522057">
        <ele>162.11328125</ele>
      </trkpt>
      <trkpt lat="42.262779297307134" lon="-8.663568310439587">
        <ele>162.46484375</ele>
      </trkpt>
      <trkpt lat="42.262847693637013" lon="-8.663554647937417">
        <ele>162.73828125</ele>
      </trkpt>
      <trkpt lat="42.262914078310132" lon="-8.663535956293344">
        <ele>163.10546875</ele>
      </trkpt>
      <trkpt lat="42.262978618964553" lon="-8.663515755906701">
        <ele>163.48828125</ele>
      </trkpt>
      <trkpt lat="42.263046931475401" lon="-8.663500333204865">
        <ele>163.76953125</ele>
      </trkpt>
      <trkpt lat="42.263107867911458" lon="-8.663487257435918">
        <ele>164</ele>
      </trkpt>
      <trkpt lat="42.26317442022264" lon="-8.663472002372146">
        <ele>164.25</ele>
      </trkpt>
      <trkpt lat="42.263231333345175" lon="-8.663459094241261">
        <ele>164.4453125</ele>
      </trkpt>
      <trkpt lat="42.263285648077726" lon="-8.663449035957456">
        <ele>164.58984375</ele>
      </trkpt>
      <trkpt lat="42.263341806828976" lon="-8.663438055664301">
        <ele>164.74609375</ele>
      </trkpt>
      <trkpt lat="42.263398887589574" lon="-8.663438055664301">
        <ele>164.703125</ele>
      </trkpt>
      <trkpt lat="42.263458231464028" lon="-8.663447443395853">
        <ele>164.4921875</ele>
      </trkpt>
      <trkpt lat="42.263512294739485" lon="-8.663458172231913">
        <ele>164.265625</ele>
      </trkpt>
      <trkpt lat="42.263568202033639" lon="-8.663468481972814">
        <ele>164.05078125</ele>
      </trkpt>
      <trkpt lat="42.263622013852" lon="-8.663503434509039">
        <ele>163.3984375</ele>
      </trkpt>
      <trkpt lat="42.263668198138475" lon="-8.663542661815882">
        <ele>162.65625</ele>
      </trkpt>
      <trkpt lat="42.263677334412932" lon="-8.663550540804863">
        <ele>162.50390625</ele>
      </trkpt>
      <trkpt lat="42.263807505369186" lon="-8.663641484454274">
        <ele>160.69140625</ele>
      </trkpt>
      <trkpt lat="42.263863077387214" lon="-8.66366520524025">
        <ele>160.16796875</ele>
      </trkpt>
      <trkpt lat="42.263917895033956" lon="-8.663695883005857">
        <ele>159.51171875</ele>
      </trkpt>
      <trkpt lat="42.263973718509078" lon="-8.663726644590497">
        <ele>158.82421875</ele>
      </trkpt>
      <trkpt lat="42.264031302183867" lon="-8.663757741451263">
        <ele>158.1171875</ele>
      </trkpt>
      <trkpt lat="42.264084108173847" lon="-8.663770398125052">
        <ele>157.73046875</ele>
      </trkpt>
      <trkpt lat="42.264141943305731" lon="-8.663751957938075">
        <ele>157.86328125</ele>
      </trkpt>
      <trkpt lat="42.264192318543792" lon="-8.663712898269296">
        <ele>158.40234375</ele>
      </trkpt>
      <trkpt lat="42.264244370162487" lon="-8.663660762831569">
        <ele>159.15234375</ele>
      </trkpt>
      <trkpt lat="42.264311425387859" lon="-8.663588678464293">
        <ele>160.1875</ele>
      </trkpt>
      <trkpt lat="42.264357944950461" lon="-8.663543248549104">
        <ele>160.8125</ele>
      </trkpt>
      <trkpt lat="42.264401949942112" lon="-8.663495220243931">
        <ele>161.4921875</ele>
      </trkpt>
      <trkpt lat="42.264449642971158" lon="-8.66345607675612">
        <ele>161.9921875</ele>
      </trkpt>
      <trkpt lat="42.264505047351122" lon="-8.663427997380495">
        <ele>162.25390625</ele>
      </trkpt>
      <trkpt lat="42.264559026807547" lon="-8.663413915783167">
        <ele>162.24609375</ele>
      </trkpt>
      <trkpt lat="42.26461342535913" lon="-8.663412658497691">
        <ele>161.99609375</ele>
      </trkpt>
      <trkpt lat="42.264669416472316" lon="-8.663417268544436">
        <ele>161.6328125</ele>
      </trkpt>
      <trkpt lat="42.264735549688339" lon="-8.663422130048275">
        <ele>161.21875</ele>
      </trkpt>
      <trkpt lat="42.264800928533077" lon="-8.663426656275988">
        <ele>160.8125</ele>
      </trkpt>
      <trkpt lat="42.264863038435578" lon="-8.663431098684669">
        <ele>160.421875</ele>
      </trkpt>
      <trkpt lat="42.264928501099348" lon="-8.663435708731413">
        <ele>160.015625</ele>
      </trkpt>
      <trkpt lat="42.264989018440247" lon="-8.663446186110377">
        <ele>159.53515625</ele>
      </trkpt>
      <trkpt lat="42.265053223818541" lon="-8.66345414891839">
        <ele>158.88671875</ele>
      </trkpt>
      <trkpt lat="42.265111478045583" lon="-8.663463285192847">
        <ele>158.2734375</ele>
      </trkpt>
      <trkpt lat="42.265172079205513" lon="-8.663467727601528">
        <ele>157.71875</ele>
      </trkpt>
      <trkpt lat="42.265226226300001" lon="-8.663467727601528">
        <ele>157.2890625</ele>
      </trkpt>
      <trkpt lat="42.265282636508346" lon="-8.663457166403532">
        <ele>157.015625</ele>
      </trkpt>
      <trkpt lat="42.265333430841565" lon="-8.66342824883759">
        <ele>157.078125</ele>
      </trkpt>
      <trkpt lat="42.265382381156087" lon="-8.663385752588511">
        <ele>157.36328125</ele>
      </trkpt>
      <trkpt lat="42.265427894890308" lon="-8.663342082872987">
        <ele>157.6875</ele>
      </trkpt>
      <trkpt lat="42.265475755557418" lon="-8.663300592452288">
        <ele>157.92578125</ele>
      </trkpt>
      <trkpt lat="42.265479527413845" lon="-8.663298329338431">
        <ele>157.92578125</ele>
      </trkpt>
      <trkpt lat="42.265580948442221" lon="-8.663153322413564">
        <ele>159.69140625</ele>
      </trkpt>
      <trkpt lat="42.26562880910933" lon="-8.663102863356471">
        <ele>160.2578125</ele>
      </trkpt>
      <trkpt lat="42.265676166862249" lon="-8.663057098165154">
        <ele>160.71484375</ele>
      </trkpt>
      <trkpt lat="42.265728134661913" lon="-8.663011081516743">
        <ele>161.109375</ele>
      </trkpt>
      <trkpt lat="42.265780940651894" lon="-8.662974452599883">
        <ele>161.29296875</ele>
      </trkpt>
      <trkpt lat="42.265839194878936" lon="-8.662951402366161">
        <ele>161.13671875</ele>
      </trkpt>
      <trkpt lat="42.265899293124676" lon="-8.662955760955811">
        <ele>160.42578125</ele>
      </trkpt>
      <trkpt lat="42.265958385542035" lon="-8.662970010191202">
        <ele>159.4765625</ele>
      </trkpt>
      <trkpt lat="42.266018986701965" lon="-8.662981493398547">
        <ele>158.55078125</ele>
      </trkpt>
      <trkpt lat="42.266074558719993" lon="-8.662987276911736">
        <ele>157.79296875</ele>
      </trkpt>
      <trkpt lat="42.266130549833179" lon="-8.662987612187862">
        <ele>157.1328125</ele>
      </trkpt>
      <trkpt lat="42.266186121851206" lon="-8.662974704056978">
        <ele>156.70703125</ele>
      </trkpt>
      <trkpt lat="42.26624202914536" lon="-8.662944445386529">
        <ele>156.5546875</ele>
      </trkpt>
      <trkpt lat="42.266301121562719" lon="-8.662905218079686">
        <ele>156.48828125</ele>
      </trkpt>
      <trkpt lat="42.266350574791431" lon="-8.662859285250306">
        <ele>156.6171875</ele>
      </trkpt>
      <trkpt lat="42.266404051333666" lon="-8.662808993831277">
        <ele>156.7265625</ele>
      </trkpt>
      <trkpt lat="42.266448391601443" lon="-8.66276515647769">
        <ele>156.85546875</ele>
      </trkpt>
      <trkpt lat="42.266500443220139" lon="-8.66273095831275">
        <ele>156.76171875</ele>
      </trkpt>
      <trkpt lat="42.266550650820136" lon="-8.662704890593886">
        <ele>156.546875</ele>
      </trkpt>
      <trkpt lat="42.266608402132988" lon="-8.662666669115424">
        <ele>156.42578125</ele>
      </trkpt>
      <trkpt lat="42.266654586419463" lon="-8.662630375474691">
        <ele>156.421875</ele>
      </trkpt>
      <trkpt lat="42.266699178144336" lon="-8.662584107369184">
        <ele>156.59375</ele>
      </trkpt>
      <trkpt lat="42.266742931678891" lon="-8.662541275843978">
        <ele>156.7109375</ele>
      </trkpt>
      <trkpt lat="42.26679171435535" lon="-8.662492576986551">
        <ele>156.84375</ele>
      </trkpt>
      <trkpt lat="42.266840497031808" lon="-8.662446727976203">
        <ele>156.91796875</ele>
      </trkpt>
      <trkpt lat="42.266886681318283" lon="-8.66239869967103">
        <ele>157.03125</ele>
      </trkpt>
      <trkpt lat="42.266929345205426" lon="-8.662350419908762">
        <ele>157.2109375</ele>
      </trkpt>
      <trkpt lat="42.266965303570032" lon="-8.662288477644324">
        <ele>157.83984375</ele>
      </trkpt>
      <trkpt lat="42.267003944143653" lon="-8.662211112678051">
        <ele>158.9609375</ele>
      </trkpt>
      <trkpt lat="42.267032777890563" lon="-8.662143303081393">
        <ele>160.0390625</ele>
      </trkpt>
      <trkpt lat="42.267064293846488" lon="-8.662073649466038">
        <ele>161.15625</ele>
      </trkpt>
      <trkpt lat="42.267104526981711" lon="-8.662009527906775">
        <ele>162.07421875</ele>
      </trkpt>
      <trkpt lat="42.26713864132762" lon="-8.661952279508114">
        <ele>162.9453125</ele>
      </trkpt>
      <trkpt lat="42.267185747623444" lon="-8.66191053763032">
        <ele>163.33984375</ele>
      </trkpt>
      <trkpt lat="42.267242409288883" lon="-8.661872986704111">
        <ele>163.5546875</ele>
      </trkpt>
      <trkpt lat="42.267300663515925" lon="-8.661843230947852">
        <ele>163.66796875</ele>
      </trkpt>
      <trkpt lat="42.267353972420096" lon="-8.661818504333496">
        <ele>163.91796875</ele>
      </trkpt>
      <trkpt lat="42.26735757663846" lon="-8.661817414686084">
        <ele>163.9140625</ele>
      </trkpt>
      <trkpt lat="42.267684722319245" lon="-8.661779025569558">
        <ele>161.8203125</ele>
      </trkpt>
      <trkpt lat="42.267744820564985" lon="-8.661758741363883">
        <ele>161.83203125</ele>
      </trkpt>
      <trkpt lat="42.267798632383347" lon="-8.661745665594935">
        <ele>161.69140625</ele>
      </trkpt>
      <trkpt lat="42.267859652638435" lon="-8.661728482693434">
        <ele>161.6015625</ele>
      </trkpt>
      <trkpt lat="42.267916481941938" lon="-8.661713227629662">
        <ele>161.48828125</ele>
      </trkpt>
      <trkpt lat="42.267969120293856" lon="-8.661697469651699">
        <ele>161.421875</ele>
      </trkpt>
      <trkpt lat="42.268010023981333" lon="-8.66169118322432">
        <ele>161.1875</ele>
      </trkpt>
      <trkpt lat="42.268280843272805" lon="-8.661655811592937">
        <ele>159.19140625</ele>
      </trkpt>
      <trkpt lat="42.268340438604355" lon="-8.661647848784924">
        <ele>158.5390625</ele>
      </trkpt>
      <trkpt lat="42.268403135240078" lon="-8.661635275930166">
        <ele>157.953125</ele>
      </trkpt>
      <trkpt lat="42.268463484942913" lon="-8.661617506295443">
        <ele>157.51953125</ele>
      </trkpt>
      <trkpt lat="42.268521068617702" lon="-8.661595126613975">
        <ele>157.21484375</ele>
      </trkpt>
      <trkpt lat="42.268585525453091" lon="-8.661565789952874">
        <ele>156.953125</ele>
      </trkpt>
      <trkpt lat="42.268629278987646" lon="-8.661514911800623">
        <ele>157.484375</ele>
      </trkpt>
      <trkpt lat="42.268667751923203" lon="-8.661455903202295">
        <ele>158.24609375</ele>
      </trkpt>
      <trkpt lat="42.268702788278461" lon="-8.661391278728843">
        <ele>159.14453125</ele>
      </trkpt>
      <trkpt lat="42.268740003928542" lon="-8.661328665912151">
        <ele>159.8671875</ele>
      </trkpt>
      <trkpt lat="42.26876825094223" lon="-8.661243170499802">
        <ele>161.18359375</ele>
      </trkpt>
      <trkpt lat="42.268784092739224" lon="-8.661169912666082">
        <ele>162.421875</ele>
      </trkpt>
      <trkpt lat="42.268794737756252" lon="-8.661097325384617">
        <ele>163.72265625</ele>
      </trkpt>
      <trkpt lat="42.268810663372278" lon="-8.661005878821015">
        <ele>165.2578125</ele>
      </trkpt>
      <trkpt lat="42.26882005110383" lon="-8.660933710634708">
        <ele>166.515625</ele>
      </trkpt>
      <trkpt lat="42.268832707777619" lon="-8.660862883552909">
        <ele>167.8125</ele>
      </trkpt>
      <trkpt lat="42.268860451877117" lon="-8.660792978480458">
        <ele>168.69921875</ele>
      </trkpt>
      <trkpt lat="42.268904373049736" lon="-8.660728186368942">
        <ele>169.0234375</ele>
      </trkpt>
      <trkpt lat="42.26894611492753" lon="-8.660674374550581">
        <ele>169.13671875</ele>
      </trkpt>
      <trkpt lat="42.268992634490132" lon="-8.660620143637061">
        <ele>169.1171875</ele>
      </trkpt>
      <trkpt lat="42.269039573147893" lon="-8.660565661266446">
        <ele>169.078125</ele>
      </trkpt>
      <trkpt lat="42.269081650301814" lon="-8.660505563020706">
        <ele>169.28515625</ele>
      </trkpt>
      <trkpt lat="42.269119787961245" lon="-8.660448733717203">
        <ele>169.53125</ele>
      </trkpt>
      <trkpt lat="42.269166391342878" lon="-8.660402046516538">
        <ele>169.32421875</ele>
      </trkpt>
      <trkpt lat="42.269216179847717" lon="-8.660351671278477">
        <ele>169.03125</ele>
      </trkpt>
      <trkpt lat="42.269254317507148" lon="-8.660293919965625">
        <ele>169.22265625</ele>
      </trkpt>
      <trkpt lat="42.269269824028015" lon="-8.660264331847429">
        <ele>169.43359375</ele>
      </trkpt>
      <trkpt lat="42.269385242834687" lon="-8.660037517547607">
        <ele>170.9296875</ele>
      </trkpt>
      <trkpt lat="42.269416758790612" lon="-8.659966941922903">
        <ele>171.59375</ele>
      </trkpt>
      <trkpt lat="42.269440311938524" lon="-8.659895276650786">
        <ele>172.69921875</ele>
      </trkpt>
      <trkpt lat="42.269457997754216" lon="-8.659814642742276">
        <ele>174.25</ele>
      </trkpt>
      <trkpt lat="42.26947283372283" lon="-8.659739373251796">
        <ele>175.7734375</ele>
      </trkpt>
      <trkpt lat="42.269490184262395" lon="-8.659669551998377">
        <ele>177.10546875</ele>
      </trkpt>
      <trkpt lat="42.26951826363802" lon="-8.659604759886861">
        <ele>178.01953125</ele>
      </trkpt>
      <trkpt lat="42.269560676068068" lon="-8.65955488756299">
        <ele>178.171875</ele>
      </trkpt>
      <trkpt lat="42.269615326076746" lon="-8.659558827057481">
        <ele>176.5390625</ele>
      </trkpt>
      <trkpt lat="42.269667964428663" lon="-8.659580452367663">
        <ele>174.70703125</ele>
      </trkpt>
      <trkpt lat="42.269726553931832" lon="-8.659605598077178">
        <ele>172.6171875</ele>
      </trkpt>
      <trkpt lat="42.269782964140177" lon="-8.659645915031433">
        <ele>170.109375</ele>
      </trkpt>
      <trkpt lat="42.269840883091092" lon="-8.65966435521841">
        <ele>168.17578125</ele>
      </trkpt>
      <trkpt lat="42.269902909174562" lon="-8.659675000235438">
        <ele>166.359375</ele>
      </trkpt>
      <trkpt lat="42.269960409030318" lon="-8.659676257520914">
        <ele>164.9296875</ele>
      </trkpt>
      <trkpt lat="42.270014472305775" lon="-8.65966871380806">
        <ele>163.8515625</ele>
      </trkpt>
      <trkpt lat="42.270051520317793" lon="-8.659662595018744">
        <ele>163.1484375</ele>
      </trkpt>
      <trkpt lat="42.270244052633643" lon="-8.659618003293872">
        <ele>164.05078125</ele>
      </trkpt>
      <trkpt lat="42.270302725955844" lon="-8.659593360498548">
        <ele>164.9140625</ele>
      </trkpt>
      <trkpt lat="42.270360728725791" lon="-8.659575590863824">
        <ele>165.5625</ele>
      </trkpt>
      <trkpt lat="42.27042711339891" lon="-8.659553546458483">
        <ele>166.375</ele>
      </trkpt>
      <trkpt lat="42.27050238288939" lon="-8.659527311101556">
        <ele>167.35546875</ele>
      </trkpt>
      <trkpt lat="42.27055761963129" lon="-8.659508032724261">
        <ele>168.09765625</ele>
      </trkpt>
      <trkpt lat="42.270623669028282" lon="-8.659485820680857">
        <ele>169.0234375</ele>
      </trkpt>
      <trkpt lat="42.270687287673354" lon="-8.65946494974196">
        <ele>169.90234375</ele>
      </trkpt>
      <trkpt lat="42.270743111148477" lon="-8.659441731870174">
        <ele>170.84375</ele>
      </trkpt>
      <trkpt lat="42.270795330405235" lon="-8.659412395209074">
        <ele>171.984375</ele>
      </trkpt>
      <trkpt lat="42.270847382023931" lon="-8.659378783777356">
        <ele>173.2734375</ele>
      </trkpt>
      <trkpt lat="42.270901696756482" lon="-8.659340143203735">
        <ele>174.74609375</ele>
      </trkpt>
      <trkpt lat="42.270957184955478" lon="-8.659319188445807">
        <ele>175.625</ele>
      </trkpt>
      <trkpt lat="42.271017450839281" lon="-8.65932228974998">
        <ele>175.70703125</ele>
      </trkpt>
      <trkpt lat="42.271073274314404" lon="-8.659329246729612">
        <ele>175.67578125</ele>
      </trkpt>
      <trkpt lat="42.271131696179509" lon="-8.659346010535955">
        <ele>175.328125</ele>
      </trkpt>
      <trkpt lat="42.271186262369156" lon="-8.659359589219093">
        <ele>175.08203125</ele>
      </trkpt>
      <trkpt lat="42.271241750568151" lon="-8.659362019971013">
        <ele>175.21484375</ele>
      </trkpt>
      <trkpt lat="42.271246444433928" lon="-8.659360930323601">
        <ele>175.26953125</ele>
      </trkpt>
      <trkpt lat="42.271484155207872" lon="-8.659420358017087">
        <ele>174.44140625</ele>
      </trkpt>
      <trkpt lat="42.271534027531743" lon="-8.659471236169338">
        <ele>173.5078125</ele>
      </trkpt>
      <trkpt lat="42.271593874320388" lon="-8.659529322758317">
        <ele>172.51953125</ele>
      </trkpt>
      <trkpt lat="42.271659839898348" lon="-8.659590929746628">
        <ele>171.55078125</ele>
      </trkpt>
      <trkpt lat="42.271724799647927" lon="-8.659657062962651">
        <ele>170.47265625</ele>
      </trkpt>
      <trkpt lat="42.271770564839244" lon="-8.659699391573668">
        <ele>169.875</ele>
      </trkpt>
      <trkpt lat="42.271815491840243" lon="-8.659746665507555">
        <ele>169.13671875</ele>
      </trkpt>
      <trkpt lat="42.271862179040909" lon="-8.659787736833096">
        <ele>168.6328125</ele>
      </trkpt>
      <trkpt lat="42.271907860413194" lon="-8.659826461225748">
        <ele>168.20703125</ele>
      </trkpt>
      <trkpt lat="42.271962678059936" lon="-8.659860827028751">
        <ele>168.31640625</ele>
      </trkpt>
      <trkpt lat="42.27201615460217" lon="-8.659898629412055">
        <ele>168.44921875</ele>
      </trkpt>
      <trkpt lat="42.272075666114688" lon="-8.659939616918564">
        <ele>168.6484375</ele>
      </trkpt>
      <trkpt lat="42.272123191505671" lon="-8.659974234178662">
        <ele>168.7578125</ele>
      </trkpt>
      <trkpt lat="42.272168286144733" lon="-8.660024190321565">
        <ele>168.31640625</ele>
      </trkpt>
      <trkpt lat="42.272218409925699" lon="-8.660089233890176">
        <ele>167.41796875</ele>
      </trkpt>
      <trkpt lat="42.272268533706665" lon="-8.660154277458787">
        <ele>166.484375</ele>
      </trkpt>
      <trkpt lat="42.272314634174109" lon="-8.660226361826062">
        <ele>165.1953125</ele>
      </trkpt>
      <trkpt lat="42.272350676357746" lon="-8.660285286605358">
        <ele>164.078125</ele>
      </trkpt>
      <trkpt lat="42.27239535190165" lon="-8.660354102030396">
        <ele>162.7890625</ele>
      </trkpt>
      <trkpt lat="42.272437931969762" lon="-8.660416882485151">
        <ele>161.55078125</ele>
      </trkpt>
      <trkpt lat="42.272481266409159" lon="-8.660474047064781">
        <ele>160.47265625</ele>
      </trkpt>
      <trkpt lat="42.272527953609824" lon="-8.660515202209353">
        <ele>159.97265625</ele>
      </trkpt>
      <trkpt lat="42.272590650245547" lon="-8.660557363182306">
        <ele>159.71875</ele>
      </trkpt>
      <trkpt lat="42.272659381851554" lon="-8.660598015412688">
        <ele>159.59375</ele>
      </trkpt>
      <trkpt lat="42.272719899192452" lon="-8.660630453377962">
        <ele>159.57421875</ele>
      </trkpt>
      <trkpt lat="42.272797012701631" lon="-8.660657359287143">
        <ele>160.02734375</ele>
      </trkpt>
      <trkpt lat="42.272852081805468" lon="-8.660668674856424">
        <ele>160.6171875</ele>
      </trkpt>
      <trkpt lat="42.272916371002793" lon="-8.660675045102835">
        <ele>161.5234375</ele>
      </trkpt>
      <trkpt lat="42.27297144010663" lon="-8.660679906606674">
        <ele>162.3125</ele>
      </trkpt>
      <trkpt lat="42.273050397634506" lon="-8.660683091729879">
        <ele>163.58203125</ele>
      </trkpt>
      <trkpt lat="42.273104544728994" lon="-8.66068460047245">
        <ele>164.4765625</ele>
      </trkpt>
      <trkpt lat="42.273158859461546" lon="-8.660690635442734">
        <ele>165.19921875</ele>
      </trkpt>
      <trkpt lat="42.273188028484583" lon="-8.660695748403668">
        <ele>165.515625</ele>
      </trkpt>
      <trkpt lat="42.27345759049058" lon="-8.660734053701162">
        <ele>168.03125</ele>
      </trkpt>
      <trkpt lat="42.273514671251178" lon="-8.660754589363933">
        <ele>167.9765625</ele>
      </trkpt>
      <trkpt lat="42.273571584373713" lon="-8.660775795578957">
        <ele>167.90625</ele>
      </trkpt>
      <trkpt lat="42.273624893277884" lon="-8.660791972652078">
        <ele>167.9921875</ele>
      </trkpt>
      <trkpt lat="42.273684404790401" lon="-8.660815358161926">
        <ele>167.91015625</ele>
      </trkpt>
      <trkpt lat="42.273739809170365" lon="-8.660829858854413">
        <ele>168.11328125</ele>
      </trkpt>
      <trkpt lat="42.273798985406756" lon="-8.660847041755915">
        <ele>168.30859375</ele>
      </trkpt>
      <trkpt lat="42.273853216320276" lon="-8.660862967371941">
        <ele>168.53515625</ele>
      </trkpt>
      <trkpt lat="42.273906106129289" lon="-8.660889202728868">
        <ele>168.40234375</ele>
      </trkpt>
      <trkpt lat="42.273968299850821" lon="-8.660944271832705">
        <ele>167.56640625</ele>
      </trkpt>
      <trkpt lat="42.274014484137297" lon="-8.660999508574605">
        <ele>166.76171875</ele>
      </trkpt>
      <trkpt lat="42.27406351827085" lon="-8.661049548536539">
        <ele>166.1796875</ele>
      </trkpt>
      <trkpt lat="42.274106768891215" lon="-8.661094894632697">
        <ele>165.6640625</ele>
      </trkpt>
      <trkpt lat="42.274134596809745" lon="-8.661120962351561">
        <ele>165.4296875</ele>
      </trkpt>
      <trkpt lat="42.274370715022087" lon="-8.661452801898122">
        <ele>162.2578125</ele>
      </trkpt>
      <trkpt lat="42.274452773854136" lon="-8.661562269553542">
        <ele>162.15625</ele>
      </trkpt>
      <trkpt lat="42.274519996717572" lon="-8.66163544356823">
        <ele>162.51953125</ele>
      </trkpt>
      <trkpt lat="42.274587135761976" lon="-8.661699984222651">
        <ele>163.12890625</ele>
      </trkpt>
      <trkpt lat="42.274656621739268" lon="-8.661763686686754">
        <ele>163.8984375</ele>
      </trkpt>
      <trkpt lat="42.274733148515224" lon="-8.661832837387919">
        <ele>164.61328125</ele>
      </trkpt>
      <trkpt lat="42.274807831272483" lon="-8.661897797137499">
        <ele>165.125</ele>
      </trkpt>
      <trkpt lat="42.274864157661796" lon="-8.661985388025641">
        <ele>164.9765625</ele>
      </trkpt>
      <trkpt lat="42.274887710809708" lon="-8.662099968641996">
        <ele>163.73046875</ele>
      </trkpt>
      <trkpt lat="42.274872539564967" lon="-8.662215555086732">
        <ele>161.625</ele>
      </trkpt>
      <trkpt lat="42.274861810728908" lon="-8.662329381331801">
        <ele>159.62109375</ele>
      </trkpt>
      <trkpt lat="42.274869857355952" lon="-8.662446476519108">
        <ele>157.84375</ele>
      </trkpt>
      <trkpt lat="42.27489810436964" lon="-8.662553848698735">
        <ele>156.671875</ele>
      </trkpt>
      <trkpt lat="42.274933727458119" lon="-8.66266205906868">
        <ele>155.640625</ele>
      </trkpt>
      <trkpt lat="42.274990808218718" lon="-8.662740597501397">
        <ele>155.56640625</ele>
      </trkpt>
      <trkpt lat="42.27506130002439" lon="-8.662811676040292">
        <ele>155.8203125</ele>
      </trkpt>
      <trkpt lat="42.275140089914203" lon="-8.662873283028603">
        <ele>156.30859375</ele>
      </trkpt>
      <trkpt lat="42.275227010250092" lon="-8.662930699065328">
        <ele>156.12890625</ele>
      </trkpt>
      <trkpt lat="42.275310913100839" lon="-8.662957102060318">
        <ele>156.11328125</ele>
      </trkpt>
      <trkpt lat="42.275392133742571" lon="-8.662929693236947">
        <ele>157.16796875</ele>
      </trkpt>
      <trkpt lat="42.275472264736891" lon="-8.662883508950472">
        <ele>158.61328125</ele>
      </trkpt>
      <trkpt lat="42.2755460254848" lon="-8.662820057943463">
        <ele>160.3984375</ele>
      </trkpt>
      <trkpt lat="42.275646021589637" lon="-8.662745459005237">
        <ele>162.265625</ele>
      </trkpt>
      <trkpt lat="42.275726404041052" lon="-8.662701621651649">
        <ele>162.2890625</ele>
      </trkpt>
      <trkpt lat="42.275811061263084" lon="-8.662668764591217">
        <ele>162.109375</ele>
      </trkpt>
      <trkpt lat="42.275886498391628" lon="-8.662590058520436">
        <ele>162.921875</ele>
      </trkpt>
      <trkpt lat="42.275957828387618" lon="-8.66249249316752">
        <ele>164.2109375</ele>
      </trkpt>
      <trkpt lat="42.276018178090453" lon="-8.662392497062683">
        <ele>165.7109375</ele>
      </trkpt>
      <trkpt lat="42.276071151718497" lon="-8.662302140146494">
        <ele>167.06640625</ele>
      </trkpt>
      <trkpt lat="42.276124628260732" lon="-8.662209436297417">
        <ele>167.6953125</ele>
      </trkpt>
      <trkpt lat="42.276174081489444" lon="-8.6621084343642">
        <ele>168.34375</ele>
      </trkpt>
      <trkpt lat="42.276223786175251" lon="-8.6620117072016">
        <ele>168.98828125</ele>
      </trkpt>
      <trkpt lat="42.276272987946868" lon="-8.661915399134159">
        <ele>169.70703125</ele>
      </trkpt>
      <trkpt lat="42.27632780559361" lon="-8.661831244826317">
        <ele>170.2109375</ele>
      </trkpt>
      <trkpt lat="42.276391508057714" lon="-8.661751449108124">
        <ele>170.5078125</ele>
      </trkpt>
      <trkpt lat="42.276453450322151" lon="-8.661666037514806">
        <ele>170.87109375</ele>
      </trkpt>
      <trkpt lat="42.276500891894102" lon="-8.661566711962223">
        <ele>171.64453125</ele>
      </trkpt>
      <trkpt lat="42.276549842208624" lon="-8.661468308418989">
        <ele>172.3359375</ele>
      </trkpt>
      <trkpt lat="42.276584208011627" lon="-8.661407204344869">
        <ele>172.2890625</ele>
      </trkpt>
      <trkpt lat="42.276770202443004" lon="-8.661115514114499">
        <ele>170.515625</ele>
      </trkpt>
      <trkpt lat="42.276827786117792" lon="-8.661020798608661">
        <ele>169.9296875</ele>
      </trkpt>
      <trkpt lat="42.276877826079726" lon="-8.660932704806328">
        <ele>169.45703125</ele>
      </trkpt>
      <trkpt lat="42.276930715888739" lon="-8.660835055634379">
        <ele>168.3828125</ele>
      </trkpt>
      <trkpt lat="42.276969021186233" lon="-8.660732880234718">
        <ele>167.734375</ele>
      </trkpt>
      <trkpt lat="42.277005314826965" lon="-8.660628944635391">
        <ele>167.125</ele>
      </trkpt>
      <trkpt lat="42.277032053098083" lon="-8.660511178895831">
        <ele>166.82421875</ele>
      </trkpt>
      <trkpt lat="42.277049487456679" lon="-8.660392658784986">
        <ele>166.71484375</ele>
      </trkpt>
      <trkpt lat="42.277057031169534" lon="-8.660283777862787">
        <ele>166.88671875</ele>
      </trkpt>
      <trkpt lat="42.277061976492405" lon="-8.660169616341591">
        <ele>167.18359375</ele>
      </trkpt>
      <trkpt lat="42.277060048654675" lon="-8.660042798146605">
        <ele>167.81640625</ele>
      </trkpt>
      <trkpt lat="42.277054265141487" lon="-8.659883793443441">
        <ele>169.60546875</ele>
      </trkpt>
      <trkpt lat="42.277054348960519" lon="-8.659770805388689">
        <ele>170.90625</ele>
      </trkpt>
      <trkpt lat="42.277052504941821" lon="-8.659653458744287">
        <ele>172.34765625</ele>
      </trkpt>
      <trkpt lat="42.277049235999584" lon="-8.659528903663158">
        <ele>173.92578125</ele>
      </trkpt>
      <trkpt lat="42.277050828561187" lon="-8.659412730485201">
        <ele>174.98046875</ele>
      </trkpt>
      <trkpt lat="42.277054768055677" lon="-8.659300580620766">
        <ele>175.88671875</ele>
      </trkpt>
      <trkpt lat="42.277045799419284" lon="-8.659185077995062">
        <ele>177.44140625</ele>
      </trkpt>
      <trkpt lat="42.277029873803258" lon="-8.659076364710927">
        <ele>179.28125</ele>
      </trkpt>
      <trkpt lat="42.277017887681723" lon="-8.658967735245824">
        <ele>179.86328125</ele>
      </trkpt>
      <trkpt lat="42.277011936530471" lon="-8.658832116052508">
        <ele>180.11328125</ele>
      </trkpt>
      <trkpt lat="42.277010176330805" lon="-8.658688114956021">
        <ele>180.1875</ele>
      </trkpt>
      <trkpt lat="42.277010176330805" lon="-8.658562805503607">
        <ele>180.0546875</ele>
      </trkpt>
      <trkpt lat="42.2770138643682" lon="-8.658450488001108">
        <ele>179.60546875</ele>
      </trkpt>
      <trkpt lat="42.277019815519452" lon="-8.658325094729662">
        <ele>179.01953125</ele>
      </trkpt>
      <trkpt lat="42.277012355625629" lon="-8.658218393102288">
        <ele>179.0546875</ele>
      </trkpt>
      <trkpt lat="42.277002213522792" lon="-8.658100543543696">
        <ele>178.9140625</ele>
      </trkpt>
      <trkpt lat="42.276992071419954" lon="-8.657990992069244">
        <ele>178.484375</ele>
      </trkpt>
      <trkpt lat="42.276986874639988" lon="-8.657875321805477">
        <ele>177.80078125</ele>
      </trkpt>
      <trkpt lat="42.27697279304266" lon="-8.657748838886619">
        <ele>177.42578125</ele>
      </trkpt>
      <trkpt lat="42.276971284300089" lon="-8.65763702429831">
        <ele>176.41015625</ele>
      </trkpt>
      <trkpt lat="42.276962650939822" lon="-8.657515738159418">
        <ele>175.3359375</ele>
      </trkpt>
      <trkpt lat="42.276950916275382" lon="-8.657397804781795">
        <ele>174.43359375</ele>
      </trkpt>
      <trkpt lat="42.276929961517453" lon="-8.657260593026876">
        <ele>173.69140625</ele>
      </trkpt>
      <trkpt lat="42.276909844949841" lon="-8.657142827287316">
        <ele>172.91015625</ele>
      </trkpt>
      <trkpt lat="42.276881597936153" lon="-8.657025480642915">
        <ele>172.33984375</ele>
      </trkpt>
      <trkpt lat="42.276849830523133" lon="-8.656895477324724">
        <ele>171.66015625</ele>
      </trkpt>
      <trkpt lat="42.276817392557859" lon="-8.656766563653946">
        <ele>170.953125</ele>
      </trkpt>
      <trkpt lat="42.276782272383571" lon="-8.656639745458961">
        <ele>171.27734375</ele>
      </trkpt>
      <trkpt lat="42.276748744770885" lon="-8.656539749354124">
        <ele>171.67578125</ele>
      </trkpt>
      <trkpt lat="42.276712954044342" lon="-8.656435897573829">
        <ele>172.01953125</ele>
      </trkpt>
      <trkpt lat="42.276668949052691" lon="-8.656329615041614">
        <ele>172.5078125</ele>
      </trkpt>
      <trkpt lat="42.276636343449354" lon="-8.656213609501719">
        <ele>172.53125</ele>
      </trkpt>
      <trkpt lat="42.276616562157869" lon="-8.656097017228603">
        <ele>172.1015625</ele>
      </trkpt>
      <trkpt lat="42.276635002344847" lon="-8.655985035002232">
        <ele>170.59375</ele>
      </trkpt>
      <trkpt lat="42.276667859405279" lon="-8.655877662822604">
        <ele>168.82421875</ele>
      </trkpt>
      <trkpt lat="42.276736926287413" lon="-8.655794095247984">
        <ele>167.41015625</ele>
      </trkpt>
      <trkpt lat="42.276808256283402" lon="-8.655736008659005">
        <ele>166.51953125</ele>
      </trkpt>
      <trkpt lat="42.276883693411946" lon="-8.655657889321446">
        <ele>165.85546875</ele>
      </trkpt>
      <trkpt lat="42.276946473866701" lon="-8.655584715306759">
        <ele>165.4609375</ele>
      </trkpt>
      <trkpt lat="42.277002045884728" lon="-8.65549729205668">
        <ele>165.48828125</ele>
      </trkpt>
      <trkpt lat="42.277057953178883" lon="-8.655389752238989">
        <ele>165.77734375</ele>
      </trkpt>
      <trkpt lat="42.27711008861661" lon="-8.655282966792583">
        <ele>166.296875</ele>
      </trkpt>
      <trkpt lat="42.277159625664353" lon="-8.655177690088749">
        <ele>166.8671875</ele>
      </trkpt>
      <trkpt lat="42.277203295379877" lon="-8.655085489153862">
        <ele>167.3515625</ele>
      </trkpt>
      <trkpt lat="42.277275128290057" lon="-8.654974093660712">
        <ele>167.41796875</ele>
      </trkpt>
      <trkpt lat="42.277337405830622" lon="-8.654874684289098">
        <ele>167.625</ele>
      </trkpt>
      <trkpt lat="42.277403036132455" lon="-8.654767815023661">
        <ele>168.0390625</ele>
      </trkpt>
      <trkpt lat="42.277456428855658" lon="-8.654685504734516">
        <ele>168.2265625</ele>
      </trkpt>
      <trkpt lat="42.277511917054653" lon="-8.654596656560898">
        <ele>168.38671875</ele>
      </trkpt>
      <trkpt lat="42.277570925652981" lon="-8.654505209997296">
        <ele>168.4453125</ele>
      </trkpt>
      <trkpt lat="42.277623228728771" lon="-8.654413679614663">
        <ele>168.8203125</ele>
      </trkpt>
      <trkpt lat="42.277676537632942" lon="-8.654317539185286">
        <ele>169.45703125</ele>
      </trkpt>
      <trkpt lat="42.27772967889905" lon="-8.654218465089798">
        <ele>170.16796875</ele>
      </trkpt>
      <trkpt lat="42.277792962267995" lon="-8.654152164235711">
        <ele>169.8203125</ele>
      </trkpt>
      <trkpt lat="42.277869824320078" lon="-8.654094664379954">
        <ele>168.8671875</ele>
      </trkpt>
      <trkpt lat="42.277952721342444" lon="-8.654040182009339">
        <ele>167.6875</ele>
      </trkpt>
      <trkpt lat="42.278060177341104" lon="-8.653963319957256">
        <ele>166.66796875</ele>
      </trkpt>
      <trkpt lat="42.278144415467978" lon="-8.653902718797326">
        <ele>166.05078125</ele>
      </trkpt>
      <trkpt lat="42.278244160115719" lon="-8.65382275544107">
        <ele>165.484375</ele>
      </trkpt>
      <trkpt lat="42.278312053531408" lon="-8.653762070462108">
        <ele>165.2265625</ele>
      </trkpt>
      <trkpt lat="42.278377348557115" lon="-8.65369183011353">
        <ele>165.2578125</ele>
      </trkpt>
      <trkpt lat="42.278425293043256" lon="-8.653627624735236">
        <ele>165.68359375</ele>
      </trkpt>
      <trkpt lat="42.278612544760108" lon="-8.653410281985998">
        <ele>166.34765625</ele>
      </trkpt>
      <trkpt lat="42.278692591935396" lon="-8.653340879827738">
        <ele>165.83203125</ele>
      </trkpt>
      <trkpt lat="42.278766520321369" lon="-8.653272232040763">
        <ele>165.375</ele>
      </trkpt>
      <trkpt lat="42.278851680457592" lon="-8.653208781033754">
        <ele>164.40625</ele>
      </trkpt>
      <trkpt lat="42.278926111757755" lon="-8.65315237082541">
        <ele>163.765625</ele>
      </trkpt>
      <trkpt lat="42.279001632705331" lon="-8.653113730251789">
        <ele>162.75390625</ele>
      </trkpt>
      <trkpt lat="42.279075644910336" lon="-8.653052290901542">
        <ele>162.17578125</ele>
      </trkpt>
      <trkpt lat="42.279143705964088" lon="-8.652976602315903">
        <ele>162.00390625</ele>
      </trkpt>
      <trkpt lat="42.279199529439211" lon="-8.652889262884855">
        <ele>162.328125</ele>
      </trkpt>
      <trkpt lat="42.279242109507322" lon="-8.652793038636446">
        <ele>163.1328125</ele>
      </trkpt>
      <trkpt lat="42.279276642948389" lon="-8.65268818102777">
        <ele>164.28515625</ele>
      </trkpt>
      <trkpt lat="42.279310086742043" lon="-8.652571169659495">
        <ele>165.77734375</ele>
      </trkpt>
      <trkpt lat="42.279351577162743" lon="-8.652478801086545">
        <ele>167.08984375</ele>
      </trkpt>
      <trkpt lat="42.27943304926157" lon="-8.652442758902907">
        <ele>166.84765625</ele>
      </trkpt>
      <trkpt lat="42.279517622664571" lon="-8.652425240725279">
        <ele>166.15234375</ele>
      </trkpt>
      <trkpt lat="42.279600687325001" lon="-8.652427503839135">
        <ele>165.01171875</ele>
      </trkpt>
      <trkpt lat="42.279685763642192" lon="-8.652433371171355">
        <ele>163.75</ele>
      </trkpt>
      <trkpt lat="42.2797648049891" lon="-8.652408393099904">
        <ele>163.3359375</ele>
      </trkpt>
      <trkpt lat="42.279848540201783" lon="-8.652350641787052">
        <ele>163.86328125</ele>
      </trkpt>
      <trkpt lat="42.279923977330327" lon="-8.652307977899909">
        <ele>164.203125</ele>
      </trkpt>
      <trkpt lat="42.280012490227818" lon="-8.652285682037473">
        <ele>163.91796875</ele>
      </trkpt>
      <trkpt lat="42.280120030045509" lon="-8.652259865775704">
        <ele>163.546875</ele>
      </trkpt>
      <trkpt lat="42.280208040028811" lon="-8.652251064777374">
        <ele>162.9375</ele>
      </trkpt>
      <trkpt lat="42.280294792726636" lon="-8.652251064777374">
        <ele>162.1953125</ele>
      </trkpt>
      <trkpt lat="42.280398141592741" lon="-8.652257518842816">
        <ele>161.27734375</ele>
      </trkpt>
      <trkpt lat="42.280486738309264" lon="-8.652259614318609">
        <ele>160.578125</ele>
      </trkpt>
      <trkpt lat="42.280574748292565" lon="-8.65226405672729">
        <ele>159.82421875</ele>
      </trkpt>
      <trkpt lat="42.280663596466184" lon="-8.652259949594736">
        <ele>159.2890625</ele>
      </trkpt>
      <trkpt lat="42.280742805451155" lon="-8.652236480265856">
        <ele>159.19921875</ele>
      </trkpt>
      <trkpt lat="42.280820505693555" lon="-8.652200438082218">
        <ele>159.125</ele>
      </trkpt>
      <trkpt lat="42.280903570353985" lon="-8.652138160541654">
        <ele>159.671875</ele>
      </trkpt>
      <trkpt lat="42.280981773510575" lon="-8.652092814445496">
        <ele>159.91796875</ele>
      </trkpt>
      <trkpt lat="42.281070621684194" lon="-8.652085103094578">
        <ele>158.94921875</ele>
      </trkpt>
      <trkpt lat="42.281152009963989" lon="-8.652085103094578">
        <ele>157.8671875</ele>
      </trkpt>
      <trkpt lat="42.281234068796039" lon="-8.652076972648501">
        <ele>156.89453125</ele>
      </trkpt>
      <trkpt lat="42.281321743503213" lon="-8.652031794190407">
        <ele>156.78515625</ele>
      </trkpt>
      <trkpt lat="42.281393324956298" lon="-8.651965577155352">
        <ele>157.46875</ele>
      </trkpt>
      <trkpt lat="42.281453339383006" lon="-8.651892151683569">
        <ele>158.5078125</ele>
      </trkpt>
      <trkpt lat="42.281527938321233" lon="-8.651817133650184">
        <ele>159.328125</ele>
      </trkpt>
      <trkpt lat="42.28160304017365" lon="-8.651741780340672">
        <ele>160.11328125</ele>
      </trkpt>
      <trkpt lat="42.281677220016718" lon="-8.651674138382077">
        <ele>160.80859375</ele>
      </trkpt>
      <trkpt lat="42.281752154231071" lon="-8.651620661839843">
        <ele>161.07421875</ele>
      </trkpt>
      <trkpt lat="42.281824154779315" lon="-8.651565508916974">
        <ele>161.265625</ele>
      </trkpt>
      <trkpt lat="42.281877966597676" lon="-8.651475152000785">
        <ele>162.296875</ele>
      </trkpt>
      <trkpt lat="42.28188500739634" lon="-8.651461405679584">
        <ele>162.45703125</ele>
      </trkpt>
      <trkpt lat="42.282082652673125" lon="-8.651156136766076">
        <ele>164.21484375</ele>
      </trkpt>
      <trkpt lat="42.282114923000336" lon="-8.651055721566081">
        <ele>165.15625</ele>
      </trkpt>
      <trkpt lat="42.282149707898498" lon="-8.650954300537705">
        <ele>165.98046875</ele>
      </trkpt>
      <trkpt lat="42.282194131985307" lon="-8.650842821225524">
        <ele>166.609375</ele>
      </trkpt>
      <trkpt lat="42.282247189432383" lon="-8.650745172053576">
        <ele>166.66796875</ele>
      </trkpt>
      <trkpt lat="42.282307371497154" lon="-8.650649953633547">
        <ele>166.5625</ele>
      </trkpt>
      <trkpt lat="42.282370403409004" lon="-8.650562111288309">
        <ele>166.19921875</ele>
      </trkpt>
      <trkpt lat="42.282433938235044" lon="-8.650484327226877">
        <ele>165.60546875</ele>
      </trkpt>
      <trkpt lat="42.282504430040717" lon="-8.650404447689652">
        <ele>164.78515625</ele>
      </trkpt>
      <trkpt lat="42.282572071999311" lon="-8.650331860408187">
        <ele>163.890625</ele>
      </trkpt>
      <trkpt lat="42.282629404217005" lon="-8.650246784090996">
        <ele>164.0234375</ele>
      </trkpt>
      <trkpt lat="42.282669637352228" lon="-8.650124995037913">
        <ele>164.8671875</ele>
      </trkpt>
      <trkpt lat="42.282694615423679" lon="-8.650015946477652">
        <ele>165.79296875</ele>
      </trkpt>
      <trkpt lat="42.282710373401642" lon="-8.649881584569812">
        <ele>167.1953125</ele>
      </trkpt>
      <trkpt lat="42.282732501626015" lon="-8.649746384471655">
        <ele>168.25390625</ele>
      </trkpt>
      <trkpt lat="42.282752534374595" lon="-8.649634988978505">
        <ele>168.921875</ele>
      </trkpt>
      <trkpt lat="42.282776506617665" lon="-8.64951747469604">
        <ele>169.51171875</ele>
      </trkpt>
      <trkpt lat="42.282800897955894" lon="-8.649401804432273">
        <ele>170.01171875</ele>
      </trkpt>
      <trkpt lat="42.282831994816661" lon="-8.649287475273013">
        <ele>169.859375</ele>
      </trkpt>
      <trkpt lat="42.282855547964573" lon="-8.649179013445973">
        <ele>169.58203125</ele>
      </trkpt>
      <trkpt lat="42.282886058092117" lon="-8.649066863581538">
        <ele>169.05078125</ele>
      </trkpt>
      <trkpt lat="42.282924614846706" lon="-8.648962676525116">
        <ele>168.171875</ele>
      </trkpt>
      <trkpt lat="42.282967530190945" lon="-8.648841977119446">
        <ele>166.8984375</ele>
      </trkpt>
      <trkpt lat="42.283006338402629" lon="-8.648743657395244">
        <ele>165.484375</ele>
      </trkpt>
      <trkpt lat="42.283045733347535" lon="-8.648632848635316">
        <ele>163.984375</ele>
      </trkpt>
      <trkpt lat="42.283074650913477" lon="-8.648519944399595">
        <ele>162.8125</ele>
      </trkpt>
      <trkpt lat="42.283095689490438" lon="-8.648412656039">
        <ele>162.05078125</ele>
      </trkpt>
      <trkpt lat="42.283112201839685" lon="-8.648298745974898">
        <ele>162.13671875</ele>
      </trkpt>
      <trkpt lat="42.28313441388309" lon="-8.648191625252366">
        <ele>162.0078125</ele>
      </trkpt>
      <trkpt lat="42.283169450238347" lon="-8.648084504529834">
        <ele>161.484375</ele>
      </trkpt>
      <trkpt lat="42.283203899860382" lon="-8.647986939176917">
        <ele>160.9453125</ele>
      </trkpt>
      <trkpt lat="42.283240193501115" lon="-8.647888451814651">
        <ele>160.56640625</ele>
      </trkpt>
      <trkpt lat="42.283280845731497" lon="-8.64778334274888">
        <ele>160.15234375</ele>
      </trkpt>
      <trkpt lat="42.28331278078258" lon="-8.647682005539536">
        <ele>159.9921875</ele>
      </trkpt>
      <trkpt lat="42.283333148807287" lon="-8.647564994171262">
        <ele>160.33203125</ele>
      </trkpt>
      <trkpt lat="42.283338094130158" lon="-8.647442953661084">
        <ele>160.71875</ele>
      </trkpt>
      <trkpt lat="42.283341446891427" lon="-8.647320326417685">
        <ele>160.75</ele>
      </trkpt>
      <trkpt lat="42.283337926492095" lon="-8.647187808528543">
        <ele>161.00390625</ele>
      </trkpt>
      <trkpt lat="42.283337926492095" lon="-8.647075910121202">
        <ele>161.125</ele>
      </trkpt>
      <trkpt lat="42.283339686691761" lon="-8.646957473829389">
        <ele>161.140625</ele>
      </trkpt>
      <trkpt lat="42.283343123272061" lon="-8.646834176033735">
        <ele>161.09375</ele>
      </trkpt>
      <trkpt lat="42.283354187384248" lon="-8.646725295111537">
        <ele>160.8125</ele>
      </trkpt>
      <trkpt lat="42.283366257324815" lon="-8.646610546857119">
        <ele>160.50390625</ele>
      </trkpt>
      <trkpt lat="42.283373214304447" lon="-8.646482974290848">
        <ele>159.92578125</ele>
      </trkpt>
      <trkpt lat="42.283371286466718" lon="-8.646359676495194">
        <ele>159.51171875</ele>
      </trkpt>
      <trkpt lat="42.283355444669724" lon="-8.646212154999375">
        <ele>159.390625</ele>
      </trkpt>
      <trkpt lat="42.283326778560877" lon="-8.646084414795041">
        <ele>159.7890625</ele>
      </trkpt>
      <trkpt lat="42.283260226249695" lon="-8.645998500287533">
        <ele>161.55078125</ele>
      </trkpt>
      <trkpt lat="42.283185627311468" lon="-8.645936977118254">
        <ele>163.57421875</ele>
      </trkpt>
      <trkpt lat="42.283115219324827" lon="-8.645880231633782">
        <ele>165.49609375</ele>
      </trkpt>
      <trkpt lat="42.283044811338186" lon="-8.645826671272516">
        <ele>167.43359375</ele>
      </trkpt>
      <trkpt lat="42.282989574596286" lon="-8.645750312134624">
        <ele>169.01953125</ele>
      </trkpt>
      <trkpt lat="42.28297314606607" lon="-8.645631037652493">
        <ele>169.62890625</ele>
      </trkpt>
      <trkpt lat="42.282992256805301" lon="-8.645522492006421">
        <ele>169.66796875</ele>
      </trkpt>
      <trkpt lat="42.283018240705132" lon="-8.645416125655174">
        <ele>169.41796875</ele>
      </trkpt>
      <trkpt lat="42.283059982582927" lon="-8.645322835072875">
        <ele>168.578125</ele>
      </trkpt>
      <trkpt lat="42.283097365871072" lon="-8.645244548097253">
        <ele>167.78515625</ele>
      </trkpt>
      <trkpt lat="42.283348822966218" lon="-8.644782537594438">
        <ele>164.0546875</ele>
      </trkpt>
      <trkpt lat="42.283391235396266" lon="-8.644674411043525">
        <ele>163.96875</ele>
      </trkpt>
      <trkpt lat="42.283425014466047" lon="-8.644565027207136">
        <ele>164.453125</ele>
      </trkpt>
      <trkpt lat="42.28346474468708" lon="-8.644456816837192">
        <ele>164.703125</ele>
      </trkpt>
      <trkpt lat="42.283510509878397" lon="-8.644346678629518">
        <ele>164.75390625</ele>
      </trkpt>
      <trkpt lat="42.283554347231984" lon="-8.644243581220508">
        <ele>164.7890625</ele>
      </trkpt>
      <trkpt lat="42.283594412729144" lon="-8.64413620904088">
        <ele>165.26171875</ele>
      </trkpt>
      <trkpt lat="42.28363623842597" lon="-8.64404040388763">
        <ele>165.4765625</ele>
      </trkpt>
      <trkpt lat="42.283676890656352" lon="-8.643941162154078">
        <ele>165.80859375</ele>
      </trkpt>
      <trkpt lat="42.283730618655682" lon="-8.643852062523365">
        <ele>165.50390625</ele>
      </trkpt>
      <trkpt lat="42.283784430474043" lon="-8.643764471635222">
        <ele>165.2421875</ele>
      </trkpt>
      <trkpt lat="42.283847043290734" lon="-8.643695823848248">
        <ele>164.39453125</ele>
      </trkpt>
      <trkpt lat="42.28392357006669" lon="-8.643609322607517">
        <ele>163.4609375</ele>
      </trkpt>
      <trkpt lat="42.28399439714849" lon="-8.643531790003181">
        <ele>162.875</ele>
      </trkpt>
      <trkpt lat="42.284066984429955" lon="-8.643455849960446">
        <ele>162.50390625</ele>
      </trkpt>
      <trkpt lat="42.284133955836296" lon="-8.643391141667962">
        <ele>162.06640625</ele>
      </trkpt>
      <trkpt lat="42.284204280003905" lon="-8.643321404233575">
        <ele>161.57421875</ele>
      </trkpt>
      <trkpt lat="42.284276783466339" lon="-8.643247308209538">
        <ele>160.9296875</ele>
      </trkpt>
      <trkpt lat="42.284345682710409" lon="-8.643177151679993">
        <ele>160.31640625</ele>
      </trkpt>
      <trkpt lat="42.284408463165164" lon="-8.643094087019563">
        <ele>160.0859375</ele>
      </trkpt>
      <trkpt lat="42.28446252644062" lon="-8.643004987388849">
        <ele>160.29296875</ele>
      </trkpt>
      <trkpt lat="42.284516673535109" lon="-8.64290876314044">
        <ele>160.55859375</ele>
      </trkpt>
      <trkpt lat="42.284566545858979" lon="-8.642819495871663">
        <ele>160.54296875</ele>
      </trkpt>
      <trkpt lat="42.284617004916072" lon="-8.642730563879013">
        <ele>160.36328125</ele>
      </trkpt>
      <trkpt lat="42.284675175324082" lon="-8.642643643543124">
        <ele>159.890625</ele>
      </trkpt>
      <trkpt lat="42.284725969657302" lon="-8.642543898895383">
        <ele>159.6953125</ele>
      </trkpt>
      <trkpt lat="42.28477424941957" lon="-8.642448931932449">
        <ele>159.4453125</ele>
      </trkpt>
      <trkpt lat="42.284817080944777" lon="-8.642356479540467">
        <ele>158.79296875</ele>
      </trkpt>
      <trkpt lat="42.284858655184507" lon="-8.642256567254663">
        <ele>158.01171875</ele>
      </trkpt>
      <trkpt lat="42.284882040694356" lon="-8.64214257337153">
        <ele>157.81640625</ele>
      </trkpt>
      <trkpt lat="42.284888410940766" lon="-8.642032770439982">
        <ele>158.06640625</ele>
      </trkpt>
      <trkpt lat="42.284890087321401" lon="-8.64190804772079">
        <ele>158.28125</ele>
      </trkpt>
      <trkpt lat="42.284880615770817" lon="-8.641789946705103">
        <ele>158.47265625</ele>
      </trkpt>
      <trkpt lat="42.284863349050283" lon="-8.641671426594257">
        <ele>158.81640625</ele>
      </trkpt>
      <trkpt lat="42.284838454797864" lon="-8.641558354720473">
        <ele>159.328125</ele>
      </trkpt>
      <trkpt lat="42.284798054024577" lon="-8.641452826559544">
        <ele>159.87109375</ele>
      </trkpt>
      <trkpt lat="42.284762430936098" lon="-8.641349142417312">
        <ele>159.78515625</ele>
      </trkpt>
      <trkpt lat="42.28472052142024" lon="-8.641234310343862">
        <ele>159.7265625</ele>
      </trkpt>
      <trkpt lat="42.284668888896704" lon="-8.641149569302797">
        <ele>160.13671875</ele>
      </trkpt>
      <trkpt lat="42.284613735973835" lon="-8.641062984243035">
        <ele>160.58203125</ele>
      </trkpt>
      <trkpt lat="42.284554140642285" lon="-8.64097086712718">
        <ele>160.80078125</ele>
      </trkpt>
      <trkpt lat="42.284500412642956" lon="-8.640868691727519">
        <ele>160.64453125</ele>
      </trkpt>
      <trkpt lat="42.284458335489035" lon="-8.640760565176606">
        <ele>160.171875</ele>
      </trkpt>
      <trkpt lat="42.284416928887367" lon="-8.640665346756577">
        <ele>159.87109375</ele>
      </trkpt>
      <trkpt lat="42.284355070441961" lon="-8.640572810545564">
        <ele>160.03515625</ele>
      </trkpt>
      <trkpt lat="42.28429195471108" lon="-8.640503324568272">
        <ele>160.39453125</ele>
      </trkpt>
      <trkpt lat="42.284223809838295" lon="-8.640436269342899">
        <ele>160.87890625</ele>
      </trkpt>
      <trkpt lat="42.284157257527113" lon="-8.640370639041066">
        <ele>161.33984375</ele>
      </trkpt>
      <trkpt lat="42.284086011350155" lon="-8.640318755060434">
        <ele>162.1015625</ele>
      </trkpt>
      <trkpt lat="42.284017531201243" lon="-8.640251448377967">
        <ele>162.5546875</ele>
      </trkpt>
      <trkpt lat="42.283956846222281" lon="-8.640163857489824">
        <ele>162.48828125</ele>
      </trkpt>
      <trkpt lat="42.283889707177877" lon="-8.640066292136908">
        <ele>161.87109375</ele>
      </trkpt>
      <trkpt lat="42.283836817368865" lon="-8.639981048181653">
        <ele>161.0625</ele>
      </trkpt>
      <trkpt lat="42.283826926723123" lon="-8.639966631308198">
        <ele>160.9375</ele>
      </trkpt>
      <trkpt lat="42.283557197079062" lon="-8.639859845861793">
        <ele>163.046875</ele>
      </trkpt>
      <trkpt lat="42.283557197079062" lon="-8.639858337119222">
        <ele>163.01953125</ele>
      </trkpt>
      <trkpt lat="42.283251760527492" lon="-8.639610065147281">
        <ele>162.74609375</ele>
      </trkpt>
      <trkpt lat="42.283168947324157" lon="-8.639581985771656">
        <ele>163.4140625</ele>
      </trkpt>
      <trkpt lat="42.283081440255046" lon="-8.639532784000039">
        <ele>163.6875</ele>
      </trkpt>
      <trkpt lat="42.282997202128172" lon="-8.639486683532596">
        <ele>163.9453125</ele>
      </trkpt>
      <trkpt lat="42.282920591533184" lon="-8.639448126778007">
        <ele>164.20703125</ele>
      </trkpt>
      <trkpt lat="42.282841131091118" lon="-8.639420634135604">
        <ele>164.703125</ele>
      </trkpt>
      <trkpt lat="42.282759826630354" lon="-8.639383418485522">
        <ele>164.96484375</ele>
      </trkpt>
      <trkpt lat="42.282677181065083" lon="-8.639336731284857">
        <ele>164.9609375</ele>
      </trkpt>
      <trkpt lat="42.282600235193968" lon="-8.639291301369667">
        <ele>164.8515625</ele>
      </trkpt>
      <trkpt lat="42.282524043694139" lon="-8.639251152053475">
        <ele>165.09375</ele>
      </trkpt>
      <trkpt lat="42.282436536625028" lon="-8.639208823442459">
        <ele>165.69921875</ele>
      </trkpt>
      <trkpt lat="42.282355735078454" lon="-8.639178732410073">
        <ele>166.5390625</ele>
      </trkpt>
      <trkpt lat="42.282267473638058" lon="-8.639155933633447">
        <ele>167.8984375</ele>
      </trkpt>
      <trkpt lat="42.282178374007344" lon="-8.639119304716587">
        <ele>169.09375</ele>
      </trkpt>
      <trkpt lat="42.282092627137899" lon="-8.639053758233786">
        <ele>169.875</ele>
      </trkpt>
      <trkpt lat="42.282025991007686" lon="-8.638990223407745">
        <ele>170.4609375</ele>
      </trkpt>
      <trkpt lat="42.281961282715201" lon="-8.638924174010754">
        <ele>171.00390625</ele>
      </trkpt>
      <trkpt lat="42.281908644363284" lon="-8.638839852064848">
        <ele>171.078125</ele>
      </trkpt>
      <trkpt lat="42.281875116750598" lon="-8.638734994456172">
        <ele>170.48828125</ele>
      </trkpt>
      <trkpt lat="42.281842594966292" lon="-8.638604488223791">
        <ele>169.53515625</ele>
      </trkpt>
      <trkpt lat="42.281818455085158" lon="-8.638492757454515">
        <ele>168.64453125</ele>
      </trkpt>
      <trkpt lat="42.281791549175978" lon="-8.638383792713284">
        <ele>167.87109375</ele>
      </trkpt>
      <trkpt lat="42.281757099553943" lon="-8.638284550979733">
        <ele>167.42578125</ele>
      </trkpt>
      <trkpt lat="42.281716950237751" lon="-8.638156726956367">
        <ele>166.5625</ele>
      </trkpt>
      <trkpt lat="42.281681997701526" lon="-8.638051450252533">
        <ele>165.88671875</ele>
      </trkpt>
      <trkpt lat="42.281643692404032" lon="-8.637953046709299">
        <ele>165.47265625</ele>
      </trkpt>
      <trkpt lat="42.281589629128575" lon="-8.637856487184763">
        <ele>166.421875</ele>
      </trkpt>
      <trkpt lat="42.281535062938929" lon="-8.637751964852214">
        <ele>167.23046875</ele>
      </trkpt>
      <trkpt lat="42.281486364081502" lon="-8.637631433084607">
        <ele>167.47265625</ele>
      </trkpt>
      <trkpt lat="42.281453926116228" lon="-8.637520456686616">
        <ele>167.16796875</ele>
      </trkpt>
      <trkpt lat="42.281422829255462" lon="-8.637402858585119">
        <ele>166.7109375</ele>
      </trkpt>
      <trkpt lat="42.281386032700539" lon="-8.63730177283287">
        <ele>166.734375</ele>
      </trkpt>
      <trkpt lat="42.281346805393696" lon="-8.637201189994812">
        <ele>166.80859375</ele>
      </trkpt>
      <trkpt lat="42.281298274174333" lon="-8.637099601328373">
        <ele>167.3203125</ele>
      </trkpt>
      <trkpt lat="42.281244965270162" lon="-8.63700907677412">
        <ele>168.2734375</ele>
      </trkpt>
      <trkpt lat="42.281189644709229" lon="-8.63692257553339">
        <ele>169.41796875</ele>
      </trkpt>
      <trkpt lat="42.28113834746182" lon="-8.636826183646917">
        <ele>170.203125</ele>
      </trkpt>
      <trkpt lat="42.28111295029521" lon="-8.63670514896512">
        <ele>169.45703125</ele>
      </trkpt>
      <trkpt lat="42.281093336641788" lon="-8.636581683531404">
        <ele>168.421875</ele>
      </trkpt>
      <trkpt lat="42.281073136255145" lon="-8.636473724618554">
        <ele>167.671875</ele>
      </trkpt>
      <trkpt lat="42.281047319993377" lon="-8.636370878666639">
        <ele>167.27734375</ele>
      </trkpt>
      <trkpt lat="42.28101572021842" lon="-8.636260405182838">
        <ele>167.0625</ele>
      </trkpt>
      <trkpt lat="42.280977834016085" lon="-8.63614909350872">
        <ele>167.125</ele>
      </trkpt>
      <trkpt lat="42.280944725498557" lon="-8.636049432680011">
        <ele>167.140625</ele>
      </trkpt>
      <trkpt lat="42.280912706628442" lon="-8.635941976681352">
        <ele>166.98828125</ele>
      </trkpt>
      <trkpt lat="42.280886638909578" lon="-8.635827731341124">
        <ele>166.515625</ele>
      </trkpt>
      <trkpt lat="42.280865516513586" lon="-8.635718263685703">
        <ele>165.8671875</ele>
      </trkpt>
      <trkpt lat="42.280853614211082" lon="-8.635593121871352">
        <ele>164.5625</ele>
      </trkpt>
      <trkpt lat="42.280842633917928" lon="-8.635480385273695">
        <ele>163.38671875</ele>
      </trkpt>
      <trkpt lat="42.280828384682536" lon="-8.635363038629293">
        <ele>162.28515625</ele>
      </trkpt>
      <trkpt lat="42.280808351933956" lon="-8.63524854183197">
        <ele>161.46875</ele>
      </trkpt>
      <trkpt lat="42.280785301700234" lon="-8.635142091661692">
        <ele>160.89453125</ele>
      </trkpt>
      <trkpt lat="42.280744817107916" lon="-8.635040335357189">
        <ele>161.13671875</ele>
      </trkpt>
      <trkpt lat="42.280693184584379" lon="-8.634956935420632">
        <ele>161.6953125</ele>
      </trkpt>
      <trkpt lat="42.280634427443147" lon="-8.634868338704109">
        <ele>162.0078125</ele>
      </trkpt>
      <trkpt lat="42.280567707493901" lon="-8.63479021936655">
        <ele>162.69140625</ele>
      </trkpt>
      <trkpt lat="42.280507190153003" lon="-8.634707909077406">
        <ele>163.078125</ele>
      </trkpt>
      <trkpt lat="42.280450444668531" lon="-8.634627778083086">
        <ele>163.34765625</ele>
      </trkpt>
      <trkpt lat="42.280386993661523" lon="-8.634551335126162">
        <ele>163.83984375</ele>
      </trkpt>
      <trkpt lat="42.280321782454848" lon="-8.634480843320489">
        <ele>164.49609375</ele>
      </trkpt>
      <trkpt lat="42.280252631753683" lon="-8.634416218847036">
        <ele>165.33984375</ele>
      </trkpt>
      <trkpt lat="42.280186666175723" lon="-8.634351091459394">
        <ele>166.22265625</ele>
      </trkpt>
      <trkpt lat="42.280121622607112" lon="-8.634279426187277">
        <ele>166.9609375</ele>
      </trkpt>
      <trkpt lat="42.280090358108282" lon="-8.634177418425679">
        <ele>166.1171875</ele>
      </trkpt>
      <trkpt lat="42.280083820223808" lon="-8.634062921628356">
        <ele>164.50390625</ele>
      </trkpt>
      <trkpt lat="42.28007024154067" lon="-8.633937947452068">
        <ele>163.69140625</ele>
      </trkpt>
      <trkpt lat="42.280043084174395" lon="-8.633815990760922">
        <ele>163.328125</ele>
      </trkpt>
      <trkpt lat="42.280009556561708" lon="-8.633713982999325">
        <ele>163.35546875</ele>
      </trkpt>
      <trkpt lat="42.279969239607453" lon="-8.63361457362771">
        <ele>163.6328125</ele>
      </trkpt>
      <trkpt lat="42.279968149960041" lon="-8.63360334187746">
        <ele>163.5625</ele>
      </trkpt>
      <trkpt lat="42.27980880998075" lon="-8.63338683731854">
        <ele>166.5</ele>
      </trkpt>
      <trkpt lat="42.27974041365087" lon="-8.633315758779645">
        <ele>168.01953125</ele>
      </trkpt>
      <trkpt lat="42.279678471386433" lon="-8.633230095729232">
        <ele>169.1875</ele>
      </trkpt>
      <trkpt lat="42.27963387966156" lon="-8.63313521258533">
        <ele>169.69921875</ele>
      </trkpt>
      <trkpt lat="42.279592640697956" lon="-8.633038904517889">
        <ele>170.1171875</ele>
      </trkpt>
      <trkpt lat="42.279566740617156" lon="-8.632922815158963">
        <ele>169.86328125</ele>
      </trkpt>
      <trkpt lat="42.279543019831181" lon="-8.632813598960638">
        <ele>169.60546875</ele>
      </trkpt>
      <trkpt lat="42.279522232711315" lon="-8.632702538743615">
        <ele>169.2421875</ele>
      </trkpt>
      <trkpt lat="42.279499769210815" lon="-8.632583683356643">
        <ele>169.1484375</ele>
      </trkpt>
      <trkpt lat="42.279487447813153" lon="-8.632474970072508">
        <ele>168.79296875</ele>
      </trkpt>
      <trkpt lat="42.279479233548045" lon="-8.632361562922597">
        <ele>168.2734375</ele>
      </trkpt>
      <trkpt lat="42.279466157779098" lon="-8.632242036983371">
        <ele>167.8515625</ele>
      </trkpt>
      <trkpt lat="42.279454506933689" lon="-8.632113626226783">
        <ele>167.40625</ele>
      </trkpt>
      <trkpt lat="42.279440509155393" lon="-8.632000554352999">
        <ele>167.1015625</ele>
      </trkpt>
      <trkpt lat="42.279418800026178" lon="-8.63189460709691">
        <ele>167.02734375</ele>
      </trkpt>
      <trkpt lat="42.279384518042207" lon="-8.631796119734645">
        <ele>167.296875</ele>
      </trkpt>
      <trkpt lat="42.27933581918478" lon="-8.631700733676553">
        <ele>167.796875</ele>
      </trkpt>
      <trkpt lat="42.279282761737704" lon="-8.631614483892918">
        <ele>168.484375</ele>
      </trkpt>
      <trkpt lat="42.279212521389127" lon="-8.631547344848514">
        <ele>169.76953125</ele>
      </trkpt>
      <trkpt lat="42.279133899137378" lon="-8.631484899669886">
        <ele>171.28125</ele>
      </trkpt>
      <trkpt lat="42.279063072055578" lon="-8.631420442834496">
        <ele>172.5234375</ele>
      </trkpt>
      <trkpt lat="42.278993669897318" lon="-8.631350286304951">
        <ele>173.63671875</ele>
      </trkpt>
      <trkpt lat="42.278935583308339" lon="-8.631266383454204">
        <ele>174.24609375</ele>
      </trkpt>
      <trkpt lat="42.278877831995487" lon="-8.631166890263557">
        <ele>174.60546875</ele>
      </trkpt>
      <trkpt lat="42.278836509212852" lon="-8.63107024691999">
        <ele>174.64453125</ele>
      </trkpt>
      <trkpt lat="42.278821421787143" lon="-8.630955750122666">
        <ele>173.78125</ele>
      </trkpt>
      <trkpt lat="42.278823098167777" lon="-8.630839576944709">
        <ele>172.4609375</ele>
      </trkpt>
      <trkpt lat="42.278819242492318" lon="-8.630711082369089">
        <ele>171.43359375</ele>
      </trkpt>
      <trkpt lat="42.278802813962102" lon="-8.630592059344053">
        <ele>170.80859375</ele>
      </trkpt>
      <trkpt lat="42.278783870860934" lon="-8.630458535626531">
        <ele>170.09765625</ele>
      </trkpt>
      <trkpt lat="42.278766352683306" lon="-8.630343619734049">
        <ele>169.421875</ele>
      </trkpt>
      <trkpt lat="42.278740787878633" lon="-8.630234319716692">
        <ele>168.875</ele>
      </trkpt>
      <trkpt lat="42.278695525601506" lon="-8.630144968628883">
        <ele>168.96484375</ele>
      </trkpt>
      <trkpt lat="42.278642049059272" lon="-8.630056120455265">
        <ele>169.1875</ele>
      </trkpt>
      <trkpt lat="42.278580190613866" lon="-8.629975989460945">
        <ele>169.6328125</ele>
      </trkpt>
      <trkpt lat="42.278515230864286" lon="-8.629891499876976">
        <ele>169.75</ele>
      </trkpt>
      <trkpt lat="42.278453120961785" lon="-8.629805753007531">
        <ele>169.265625</ele>
      </trkpt>
      <trkpt lat="42.278395872563124" lon="-8.629728136584163">
        <ele>168.578125</ele>
      </trkpt>
      <trkpt lat="42.278315825387836" lon="-8.629697542637587">
        <ele>168.4921875</ele>
      </trkpt>
      <trkpt lat="42.278235778212547" lon="-8.629678515717387">
        <ele>168.6328125</ele>
      </trkpt>
      <trkpt lat="42.278155731037259" lon="-8.629659321159124">
        <ele>168.7421875</ele>
      </trkpt>
      <trkpt lat="42.278067553415895" lon="-8.629634510725737">
        <ele>168.7421875</ele>
      </trkpt>
      <trkpt lat="42.277985075488687" lon="-8.629620764404535">
        <ele>168.9453125</ele>
      </trkpt>
      <trkpt lat="42.277900921180844" lon="-8.629616908729076">
        <ele>169.328125</ele>
      </trkpt>
      <trkpt lat="42.277814755216241" lon="-8.629630738869309">
        <ele>170.10546875</ele>
      </trkpt>
      <trkpt lat="42.27772674523294" lon="-8.62965228036046">
        <ele>171.1171875</ele>
      </trkpt>
      <trkpt lat="42.277642088010907" lon="-8.629667954519391">
        <ele>171.97265625</ele>
      </trkpt>
      <trkpt lat="42.277559358626604" lon="-8.629664182662964">
        <ele>172.2890625</ele>
      </trkpt>
      <trkpt lat="42.277473611757159" lon="-8.629658734425902">
        <ele>172.671875</ele>
      </trkpt>
      <trkpt lat="42.277394905686378" lon="-8.629641216248274">
        <ele>173.6015625</ele>
      </trkpt>
      <trkpt lat="42.277317959815264" lon="-8.629609616473317">
        <ele>174.12890625</ele>
      </trkpt>
      <trkpt lat="42.277312763035297" lon="-8.629609616473317">
        <ele>174.22265625</ele>
      </trkpt>
      <trkpt lat="42.277153339236975" lon="-8.629517164081335">
        <ele>174.69140625</ele>
      </trkpt>
      <trkpt lat="42.277084607630968" lon="-8.629439296200871">
        <ele>173.93359375</ele>
      </trkpt>
      <trkpt lat="42.277021910995245" lon="-8.629363942891359">
        <ele>173.09375</ele>
      </trkpt>
      <trkpt lat="42.276954688131809" lon="-8.629303760826588">
        <ele>172.5546875</ele>
      </trkpt>
      <trkpt lat="42.276879921555519" lon="-8.629251038655639">
        <ele>172.30859375</ele>
      </trkpt>
      <trkpt lat="42.276807501912117" lon="-8.629202004522085">
        <ele>172.1015625</ele>
      </trkpt>
      <trkpt lat="42.276735920459032" lon="-8.629144923761487">
        <ele>171.640625</ele>
      </trkpt>
      <trkpt lat="42.276656292378902" lon="-8.629116006195545">
        <ele>172.06640625</ele>
      </trkpt>
      <trkpt lat="42.276573311537504" lon="-8.629096727818251">
        <ele>172.8046875</ele>
      </trkpt>
      <trkpt lat="42.276492342352867" lon="-8.629082143306732">
        <ele>172.828125</ele>
      </trkpt>
      <trkpt lat="42.276408858597279" lon="-8.629083903506398">
        <ele>173.1015625</ele>
      </trkpt>
      <trkpt lat="42.276326632127166" lon="-8.629097063094378">
        <ele>173.72265625</ele>
      </trkpt>
      <trkpt lat="42.276246082037687" lon="-8.629115335643291">
        <ele>174.51171875</ele>
      </trkpt>
      <trkpt lat="42.276163771748543" lon="-8.629130842164159">
        <ele>175.24609375</ele>
      </trkpt>
      <trkpt lat="42.276082802563906" lon="-8.629138804972172">
        <ele>175.8828125</ele>
      </trkpt>
      <trkpt lat="42.276007030159235" lon="-8.629114748910069">
        <ele>176.28125</ele>
      </trkpt>
      <trkpt lat="42.275991104543209" lon="-8.629012070596218">
        <ele>173.2421875</ele>
      </trkpt>
      <trkpt lat="42.27602630853653" lon="-8.628916935995221">
        <ele>169.37890625</ele>
      </trkpt>
      <trkpt lat="42.276102332398295" lon="-8.628853736445308">
        <ele>166.01171875</ele>
      </trkpt>
      <trkpt lat="42.276177098974586" lon="-8.628810904920101">
        <ele>164.3203125</ele>
      </trkpt>
      <trkpt lat="42.276254463940859" lon="-8.628764720633626">
        <ele>162.4921875</ele>
      </trkpt>
      <trkpt lat="42.276332918554544" lon="-8.628711244091392">
        <ele>160.390625</ele>
      </trkpt>
      <trkpt lat="42.276396285742521" lon="-8.62863983027637">
        <ele>157.66796875</ele>
      </trkpt>
      <trkpt lat="42.276449846103787" lon="-8.628558190539479">
        <ele>154.58984375</ele>
      </trkpt>
      <trkpt lat="42.27645143866539" lon="-8.62846146337688">
        <ele>151.8515625</ele>
      </trkpt>
      <trkpt lat="42.276377342641354" lon="-8.628414859995246">
        <ele>150.9375</ele>
      </trkpt>
      <trkpt lat="42.276295702904463" lon="-8.62840773537755">
        <ele>151.109375</ele>
      </trkpt>
      <trkpt lat="42.276211129501462" lon="-8.628424247726798">
        <ele>151.859375</ele>
      </trkpt>
      <trkpt lat="42.276130244135857" lon="-8.62843313254416">
        <ele>152.38671875</ele>
      </trkpt>
      <trkpt lat="42.276063440367579" lon="-8.628393486142159">
        <ele>152.29296875</ele>
      </trkpt>
      <trkpt lat="42.276054723188281" lon="-8.628285862505436">
        <ele>150.18359375</ele>
      </trkpt>
      <trkpt lat="42.276092525571585" lon="-8.62818150781095">
        <ele>147.08203125</ele>
      </trkpt>
      <trkpt lat="42.276157820597291" lon="-8.628116799518466">
        <ele>145.140625</ele>
      </trkpt>
      <trkpt lat="42.276234934106469" lon="-8.62805251032114">
        <ele>143.25</ele>
      </trkpt>
      <trkpt lat="42.276314310729504" lon="-8.628028202801943">
        <ele>142.15234375</ele>
      </trkpt>
      <trkpt lat="42.276403745636344" lon="-8.628012780100107">
        <ele>141.015625</ele>
      </trkpt>
      <trkpt lat="42.276497036218643" lon="-8.628001464530826">
        <ele>139.8515625</ele>
      </trkpt>
      <trkpt lat="42.27658580057323" lon="-8.627978079020977">
        <ele>138.453125</ele>
      </trkpt>
      <trkpt lat="42.276676828041673" lon="-8.627954693511128">
        <ele>137.0546875</ele>
      </trkpt>
      <trkpt lat="42.276764418929815" lon="-8.627934325486422">
        <ele>135.73046875</ele>
      </trkpt>
      <trkpt lat="42.276844047009945" lon="-8.627911107614636">
        <ele>134.40625</ele>
      </trkpt>
      <trkpt lat="42.27692099288106" lon="-8.627863330766559">
        <ele>132.515625</ele>
      </trkpt>
      <trkpt lat="42.277000537142158" lon="-8.627807758748531">
        <ele>130.375</ele>
      </trkpt>
      <trkpt lat="42.277079578489065" lon="-8.627764508128166">
        <ele>128.6171875</ele>
      </trkpt>
      <trkpt lat="42.277162140235305" lon="-8.627739362418652">
        <ele>127.30078125</ele>
      </trkpt>
      <trkpt lat="42.277249647304416" lon="-8.627727627754211">
        <ele>126.26171875</ele>
      </trkpt>
      <trkpt lat="42.277330784127116" lon="-8.627725448459387">
        <ele>125.50390625</ele>
      </trkpt>
      <trkpt lat="42.277417704463005" lon="-8.627733662724495">
        <ele>124.9375</ele>
      </trkpt>
      <trkpt lat="42.277506720274687" lon="-8.627750091254711">
        <ele>124.75390625</ele>
      </trkpt>
      <trkpt lat="42.277588779106736" lon="-8.627780601382256">
        <ele>125.44140625</ele>
      </trkpt>
      <trkpt lat="42.277665138244629" lon="-8.627819074317813">
        <ele>126.3359375</ele>
      </trkpt>
      <trkpt lat="42.27774728089571" lon="-8.627830725163221">
        <ele>126.609375</ele>
      </trkpt>
      <trkpt lat="42.277843840420246" lon="-8.627833155915141">
        <ele>126.6640625</ele>
      </trkpt>
      <trkpt lat="42.277931934222579" lon="-8.627830808982253">
        <ele>126.6015625</ele>
      </trkpt>
      <trkpt lat="42.278012400493026" lon="-8.627839777618647">
        <ele>126.7734375</ele>
      </trkpt>
      <trkpt lat="42.278093621134758" lon="-8.627859055995941">
        <ele>127.19921875</ele>
      </trkpt>
      <trkpt lat="42.278178613632917" lon="-8.627867270261049">
        <ele>127.3515625</ele>
      </trkpt>
      <trkpt lat="42.278224043548107" lon="-8.627804322168231">
        <ele>125.73828125</ele>
      </trkpt>
      <trkpt lat="42.278197640553117" lon="-8.627713294699788">
        <ele>123.4765625</ele>
      </trkpt>
      <trkpt lat="42.27812840603292" lon="-8.627654872834682">
        <ele>122.09375</ele>
      </trkpt>
      <trkpt lat="42.278062608093023" lon="-8.627591589465737">
        <ele>120.55859375</ele>
      </trkpt>
      <trkpt lat="42.278008796274662" lon="-8.627507099881768">
        <ele>118.37890625</ele>
      </trkpt>
      <trkpt lat="42.277978621423244" lon="-8.627400817349553">
        <ele>115.61328125</ele>
      </trkpt>
      <trkpt lat="42.277948865666986" lon="-8.627287661656737">
        <ele>112.703125</ele>
      </trkpt>
      <trkpt lat="42.277914751321077" lon="-8.627184061333537">
        <ele>110.09765625</ele>
      </trkpt>
      <trkpt lat="42.277866806834936" lon="-8.627072079107165">
        <ele>107.28515625</ele>
      </trkpt>
      <trkpt lat="42.277833111584187" lon="-8.626969316974282">
        <ele>104.67578125</ele>
      </trkpt>
      <trkpt lat="42.277786675840616" lon="-8.626864124089479">
        <ele>102.125</ele>
      </trkpt>
      <trkpt lat="42.277737474068999" lon="-8.626760104671121">
        <ele>99.6953125</ele>
      </trkpt>
      <trkpt lat="42.277685254812241" lon="-8.626668658107519">
        <ele>97.9296875</ele>
      </trkpt>
      <trkpt lat="42.277627922594547" lon="-8.626578217372298">
        <ele>97.16015625</ele>
      </trkpt>
      <trkpt lat="42.277577128261328" lon="-8.626487189903855">
        <ele>96.375</ele>
      </trkpt>
      <trkpt lat="42.277514096349478" lon="-8.626411417499185">
        <ele>95.92578125</ele>
      </trkpt>
      <trkpt lat="42.277444358915091" lon="-8.626342350617051">
        <ele>95.68359375</ele>
      </trkpt>
      <trkpt lat="42.277381075546145" lon="-8.626264482736588">
        <ele>95.25</ele>
      </trkpt>
      <trkpt lat="42.277316534891725" lon="-8.626184687018394">
        <ele>94.79296875</ele>
      </trkpt>
      <trkpt lat="42.27725375443697" lon="-8.626098604872823">
        <ele>94.23828125</ele>
      </trkpt>
      <trkpt lat="42.27718535810709" lon="-8.626037584617734">
        <ele>93.98828125</ele>
      </trkpt>
      <trkpt lat="42.277114195749164" lon="-8.625987377017736">
        <ele>93.85546875</ele>
      </trkpt>
      <trkpt lat="42.277032388374209" lon="-8.625941528007388">
        <ele>93.8125</ele>
      </trkpt>
      <trkpt lat="42.276960639283061" lon="-8.625881765037775">
        <ele>93.80859375</ele>
      </trkpt>
      <trkpt lat="42.276889560744166" lon="-8.62583021633327">
        <ele>93.94921875</ele>
      </trkpt>
      <trkpt lat="42.276865253224969" lon="-8.625818733125925">
        <ele>94.078125</ele>
      </trkpt>
      <trkpt lat="42.276761988177896" lon="-8.625717731192708">
        <ele>94.19921875</ele>
      </trkpt>
      <trkpt lat="42.276710104197264" lon="-8.625638773664832">
        <ele>94.30859375</ele>
      </trkpt>
      <trkpt lat="42.276683785021305" lon="-8.625536514446139">
        <ele>93.9609375</ele>
      </trkpt>
      <trkpt lat="42.276689065620303" lon="-8.625415815040469">
        <ele>93.125</ele>
      </trkpt>
      <trkpt lat="42.27671823464334" lon="-8.625310035422444">
        <ele>92.12109375</ele>
      </trkpt>
      <trkpt lat="42.276770956814289" lon="-8.625212050974369">
        <ele>91.02734375</ele>
      </trkpt>
      <trkpt lat="42.276830971240997" lon="-8.625136781483889">
        <ele>90.01953125</ele>
      </trkpt>
      <trkpt lat="42.276887549087405" lon="-8.625046759843826">
        <ele>89.01953125</ele>
      </trkpt>
      <trkpt lat="42.276932559907436" lon="-8.62495020031929">
        <ele>88.1484375</ele>
      </trkpt>
      <trkpt lat="42.276947982609272" lon="-8.624832099303603">
        <ele>87.51171875</ele>
      </trkpt>
      <trkpt lat="42.276965500786901" lon="-8.624713663011789">
        <ele>87.23828125</ele>
      </trkpt>
      <trkpt lat="42.276986120268703" lon="-8.624602686613798">
        <ele>86.96875</ele>
      </trkpt>
      <trkpt lat="42.276988131925464" lon="-8.624261459335685">
        <ele>86.51953125</ele>
      </trkpt>
      <trkpt lat="42.276973715052009" lon="-8.624138077721">
        <ele>86.33203125</ele>
      </trkpt>
      <trkpt lat="42.276968518272042" lon="-8.624016121029854">
        <ele>86.08203125</ele>
      </trkpt>
      <trkpt lat="42.27697966620326" lon="-8.623895086348057">
        <ele>85.74609375</ele>
      </trkpt>
      <trkpt lat="42.276994083076715" lon="-8.623774889856577">
        <ele>85.28515625</ele>
      </trkpt>
      <trkpt lat="42.277013696730137" lon="-8.623668355867267">
        <ele>84.86328125</ele>
      </trkpt>
      <trkpt lat="42.277032723650336" lon="-8.623555116355419">
        <ele>84.4140625</ele>
      </trkpt>
      <trkpt lat="42.277046721428633" lon="-8.623434500768781">
        <ele>83.92578125</ele>
      </trkpt>
      <trkpt lat="42.277061138302088" lon="-8.623326122760773">
        <ele>83.25390625</ele>
      </trkpt>
      <trkpt lat="42.277084272354841" lon="-8.623209865763783">
        <ele>82.53125</ele>
      </trkpt>
      <trkpt lat="42.277111262083054" lon="-8.623102158308029">
        <ele>81.87890625</ele>
      </trkpt>
      <trkpt lat="42.277133641764522" lon="-8.622996043413877">
        <ele>81.27734375</ele>
      </trkpt>
      <trkpt lat="42.27715065702796" lon="-8.622885821387172">
        <ele>80.6640625</ele>
      </trkpt>
      <trkpt lat="42.277169432491064" lon="-8.622766211628914">
        <ele>80.015625</ele>
      </trkpt>
      <trkpt lat="42.277190219610929" lon="-8.622654313221574">
        <ele>79.42578125</ele>
      </trkpt>
      <trkpt lat="42.277224250137806" lon="-8.62255347892642">
        <ele>78.921875</ele>
      </trkpt>
      <trkpt lat="42.277262471616268" lon="-8.622446022927761">
        <ele>78.546875</ele>
      </trkpt>
      <trkpt lat="42.277302285656333" lon="-8.622348373755813">
        <ele>78.32421875</ele>
      </trkpt>
      <trkpt lat="42.277342351153493" lon="-8.622246198356152">
        <ele>78.15234375</ele>
      </trkpt>
      <trkpt lat="42.277383087202907" lon="-8.622141759842634">
        <ele>78.05078125</ele>
      </trkpt>
      <trkpt lat="42.277417033910751" lon="-8.6220364831388">
        <ele>77.97265625</ele>
      </trkpt>
      <trkpt lat="42.277445867657661" lon="-8.621928105130792">
        <ele>77.87109375</ele>
      </trkpt>
      <trkpt lat="42.277479646727443" lon="-8.621820649132133">
        <ele>77.84375</ele>
      </trkpt>
      <trkpt lat="42.277517449110746" lon="-8.621714618057013">
        <ele>77.69921875</ele>
      </trkpt>
      <trkpt lat="42.277566902339458" lon="-8.62161772325635">
        <ele>77.6171875</ele>
      </trkpt>
      <trkpt lat="42.277622558176517" lon="-8.621528288349509">
        <ele>77.3984375</ele>
      </trkpt>
      <trkpt lat="42.277685422450304" lon="-8.621457377448678">
        <ele>77.25</ele>
      </trkpt>
      <trkpt lat="42.277754405513406" lon="-8.62139250151813">
        <ele>77.16796875</ele>
      </trkpt>
      <trkpt lat="42.277823891490698" lon="-8.621323015540838">
        <ele>77.09375</ele>
      </trkpt>
      <trkpt lat="42.277898071333766" lon="-8.621256714686751">
        <ele>77.0703125</ele>
      </trkpt>
      <trkpt lat="42.277974933385849" lon="-8.621180942282081">
        <ele>77.01171875</ele>
      </trkpt>
      <trkpt lat="42.278054393827915" lon="-8.621093602851033">
        <ele>76.84375</ele>
      </trkpt>
      <trkpt lat="42.278129663318396" lon="-8.621020931750536">
        <ele>76.70703125</ele>
      </trkpt>
      <trkpt lat="42.278200658038259" lon="-8.620965527370572">
        <ele>76.65234375</ele>
      </trkpt>
      <trkpt lat="42.27828330360353" lon="-8.620955469086766">
        <ele>76.8203125</ele>
      </trkpt>
      <trkpt lat="42.278365194797516" lon="-8.620957564562559">
        <ele>77.03125</ele>
      </trkpt>
      <trkpt lat="42.278445241972804" lon="-8.620978770777583">
        <ele>77.171875</ele>
      </trkpt>
      <trkpt lat="42.278530905023217" lon="-8.620992098003626">
        <ele>77.12890625</ele>
      </trkpt>
      <trkpt lat="42.278612125664949" lon="-8.620997881516814">
        <ele>77.0625</ele>
      </trkpt>
      <trkpt lat="42.278691669926047" lon="-8.620971897616982">
        <ele>76.953125</ele>
      </trkpt>
      <trkpt lat="42.278763083741069" lon="-8.62091020680964">
        <ele>76.84765625</ele>
      </trkpt>
      <trkpt lat="42.278796695172787" lon="-8.620860083028674">
        <ele>76.80859375</ele>
      </trkpt>
      <trkpt lat="42.278853273019195" lon="-8.62064927816391">
        <ele>76.76953125</ele>
      </trkpt>
      <trkpt lat="42.278932565823197" lon="-8.620604015886784">
        <ele>76.82421875</ele>
      </trkpt>
      <trkpt lat="42.27900942787528" lon="-8.620560094714165">
        <ele>76.89453125</ele>
      </trkpt>
      <trkpt lat="42.27909148670733" lon="-8.620520615950227">
        <ele>77</ele>
      </trkpt>
      <trkpt lat="42.279156111180782" lon="-8.620456829667091">
        <ele>77.12109375</ele>
      </trkpt>
      <trkpt lat="42.27917505428195" lon="-8.620352894067764">
        <ele>77.21875</ele>
      </trkpt>
      <trkpt lat="42.279196679592133" lon="-8.620250467211008">
        <ele>77.3359375</ele>
      </trkpt>
      <trkpt lat="42.279249150305986" lon="-8.62016748636961">
        <ele>77.66015625</ele>
      </trkpt>
      <trkpt lat="42.279316624626517" lon="-8.620089283213019">
        <ele>78.15234375</ele>
      </trkpt>
      <trkpt lat="42.279391977936029" lon="-8.620031531900167">
        <ele>78.3984375</ele>
      </trkpt>
      <trkpt lat="42.27946481667459" lon="-8.61997889354825">
        <ele>78.55078125</ele>
      </trkpt>
      <trkpt lat="42.279533296823502" lon="-8.619909072294831">
        <ele>78.7421875</ele>
      </trkpt>
      <trkpt lat="42.279600771144032" lon="-8.619834640994668">
        <ele>78.921875</ele>
      </trkpt>
      <trkpt lat="42.279675202444196" lon="-8.619768088683486">
        <ele>79.0390625</ele>
      </trkpt>
      <trkpt lat="42.279739659279585" lon="-8.619702542200685">
        <ele>79.18359375</ele>
      </trkpt>
      <trkpt lat="42.279790872707963" lon="-8.61961436457932">
        <ele>79.390625</ele>
      </trkpt>
      <trkpt lat="42.279832949861884" lon="-8.619521660730243">
        <ele>79.48828125</ele>
      </trkpt>
      <trkpt lat="42.279869075864553" lon="-8.619416551664472">
        <ele>79.62109375</ele>
      </trkpt>
      <trkpt lat="42.279893383383751" lon="-8.619298115372658">
        <ele>79.84375</ele>
      </trkpt>
      <trkpt lat="42.279915427789092" lon="-8.619191916659474">
        <ele>80.07421875</ele>
      </trkpt>
      <trkpt lat="42.279915427789092" lon="-8.619187222793698">
        <ele>80.08984375</ele>
      </trkpt>
      <trkpt lat="42.279994636774063" lon="-8.618904752656817">
        <ele>80.640625</ele>
      </trkpt>
      <trkpt lat="42.280006874352694" lon="-8.61878857947886">
        <ele>80.9921875</ele>
      </trkpt>
      <trkpt lat="42.280020285397768" lon="-8.618679279461503">
        <ele>81.31640625</ele>
      </trkpt>
      <trkpt lat="42.280036294832826" lon="-8.6185672134161">
        <ele>81.65234375</ele>
      </trkpt>
      <trkpt lat="42.280061775818467" lon="-8.618455650284886">
        <ele>81.96875</ele>
      </trkpt>
      <trkpt lat="42.280090022832155" lon="-8.618351714685559">
        <ele>82.1328125</ele>
      </trkpt>
      <trkpt lat="42.280116677284241" lon="-8.618242749944329">
        <ele>80.71875</ele>
      </trkpt>
      <trkpt lat="42.280136626213789" lon="-8.618136132135987">
        <ele>79.3828125</ele>
      </trkpt>
      <trkpt lat="42.280153557658195" lon="-8.618027837947011">
        <ele>78.0625</ele>
      </trkpt>
      <trkpt lat="42.280170740559697" lon="-8.617917783558369">
        <ele>76.74609375</ele>
      </trkpt>
      <trkpt lat="42.280186749994755" lon="-8.617800604552031">
        <ele>75.25390625</ele>
      </trkpt>
      <trkpt lat="42.280206615105271" lon="-8.617693986743689">
        <ele>73.8984375</ele>
      </trkpt>
      <trkpt lat="42.280230922624469" lon="-8.6175880394876">
        <ele>72.5859375</ele>
      </trkpt>
      <trkpt lat="42.280257577076554" lon="-8.617474548518658">
        <ele>71.2109375</ele>
      </trkpt>
      <trkpt lat="42.280290182679892" lon="-8.617365583777428">
        <ele>70.25390625</ele>
      </trkpt>
      <trkpt lat="42.280315160751343" lon="-8.617261061444879">
        <ele>69.41796875</ele>
      </trkpt>
      <trkpt lat="42.280324213206768" lon="-8.617143044248223">
        <ele>68.3515625</ele>
      </trkpt>
      <trkpt lat="42.280337708070874" lon="-8.617033576592803">
        <ele>67.4140625</ele>
      </trkpt>
      <trkpt lat="42.280355896800756" lon="-8.616919666528702">
        <ele>66.67578125</ele>
      </trkpt>
      <trkpt lat="42.280382215976715" lon="-8.616808019578457">
        <ele>66.2734375</ele>
      </trkpt>
      <trkpt lat="42.280409540981054" lon="-8.616694025695324">
        <ele>65.9140625</ele>
      </trkpt>
      <trkpt lat="42.280437787994742" lon="-8.616592017933726">
        <ele>65.66796875</ele>
      </trkpt>
      <trkpt lat="42.280458072200418" lon="-8.616477772593498">
        <ele>65.57421875</ele>
      </trkpt>
      <trkpt lat="42.28049092926085" lon="-8.616369059309363">
        <ele>66.32421875</ele>
      </trkpt>
      <trkpt lat="42.280524121597409" lon="-8.616269733756781">
        <ele>67.06640625</ele>
      </trkpt>
      <trkpt lat="42.280550189316273" lon="-8.616165211424232">
        <ele>67.7578125</ele>
      </trkpt>
      <trkpt lat="42.28059209883213" lon="-8.61605716869235">
        <ele>68.6796875</ele>
      </trkpt>
      <trkpt lat="42.280644318088889" lon="-8.615968404337764">
        <ele>68.9609375</ele>
      </trkpt>
      <trkpt lat="42.280696034431458" lon="-8.615878466516733">
        <ele>69.1015625</ele>
      </trkpt>
      <trkpt lat="42.280741212889552" lon="-8.615785762667656">
        <ele>68.65625</ele>
      </trkpt>
      <trkpt lat="42.280793096870184" lon="-8.6156902089715">
        <ele>67.55859375</ele>
      </trkpt>
      <trkpt lat="42.280844980850816" lon="-8.615600187331438">
        <ele>66.453125</ele>
      </trkpt>
      <trkpt lat="42.280891332775354" lon="-8.615509998053312">
        <ele>64.82421875</ele>
      </trkpt>
      <trkpt lat="42.280924776569009" lon="-8.615406062453985">
        <ele>63.03515625</ele>
      </trkpt>
      <trkpt lat="42.2809580527246" lon="-8.615300785750151">
        <ele>61.24609375</ele>
      </trkpt>
      <trkpt lat="42.280994430184364" lon="-8.615189641714096">
        <ele>59.3671875</ele>
      </trkpt>
      <trkpt lat="42.281026784330606" lon="-8.615081766620278">
        <ele>57.4375</ele>
      </trkpt>
      <trkpt lat="42.281056959182024" lon="-8.614964839071035">
        <ele>55.1171875</ele>
      </trkpt>
      <trkpt lat="42.281082272529602" lon="-8.614857802167535">
        <ele>53.03125</ele>
      </trkpt>
      <trkpt lat="42.281113285571337" lon="-8.614751268178225">
        <ele>50.921875</ele>
      </trkpt>
      <trkpt lat="42.281151758506894" lon="-8.614653367549181">
        <ele>48.91796875</ele>
      </trkpt>
      <trkpt lat="42.281195176765323" lon="-8.614553036168218">
        <ele>46.75390625</ele>
      </trkpt>
      <trkpt lat="42.281246725469828" lon="-8.614464858546853">
        <ele>44.65234375</ele>
      </trkpt>
      <trkpt lat="42.281298777088523" lon="-8.614381542429328">
        <ele>42.6953125</ele>
      </trkpt>
      <trkpt lat="42.281284863129258" lon="-8.614288084208965">
        <ele>41.23828125</ele>
      </trkpt>
      <trkpt lat="42.281242869794369" lon="-8.614187249913812">
        <ele>39.87890625</ele>
      </trkpt>
      <trkpt lat="42.28121118620038" lon="-8.614084403961897">
        <ele>38.34765625</ele>
      </trkpt>
      <trkpt lat="42.281194925308228" lon="-8.613977283239365">
        <ele>36.578125</ele>
      </trkpt>
      <trkpt lat="42.281200792640448" lon="-8.613868905231357">
        <ele>34.63671875</ele>
      </trkpt>
      <trkpt lat="42.28124001994729" lon="-8.613777793943882">
        <ele>32.8828125</ele>
      </trkpt>
      <trkpt lat="42.281281594187021" lon="-8.613695316016674">
        <ele>31.3984375</ele>
      </trkpt>
      <trkpt lat="42.281286120414734" lon="-8.613583836704493">
        <ele>29.66015625</ele>
      </trkpt>
      <trkpt lat="42.281281594187021" lon="-8.613470681011677">
        <ele>27.91796875</ele>
      </trkpt>
      <trkpt lat="42.28128008544445" lon="-8.613353502005339">
        <ele>26.1015625</ele>
      </trkpt>
      <trkpt lat="42.281273296102881" lon="-8.613246381282806">
        <ele>24.51171875</ele>
      </trkpt>
      <trkpt lat="42.281270613893867" lon="-8.613213691860437">
        <ele>24.10546875</ele>
      </trkpt>
      <trkpt lat="42.281256364658475" lon="-8.613093746826053">
        <ele>22.609375</ele>
      </trkpt>
      <trkpt lat="42.280621351674199" lon="-8.612989140674472">
        <ele>19.87109375</ele>
      </trkpt>
      <trkpt lat="42.280621351674199" lon="-8.612989140674472">
        <ele>19.87109375</ele>
      </trkpt>
      <trkpt lat="42.279860526323318" lon="-8.612846229225397">
        <ele>17.0078125</ele>
      </trkpt>
      <trkpt lat="42.279860526323318" lon="-8.612846983596683">
        <ele>17.015625</ele>
      </trkpt>
      <trkpt lat="42.279045470058918" lon="-8.612651936709881">
        <ele>15.45703125</ele>
      </trkpt>
      <trkpt lat="42.279045470058918" lon="-8.612651266157627">
        <ele>15.44921875</ele>
      </trkpt>
      <trkpt lat="42.278774650767446" lon="-8.612591167911887">
        <ele>14.375</ele>
      </trkpt>
      <trkpt lat="42.278771130368114" lon="-8.612587731331587">
        <ele>14.33203125</ele>
      </trkpt>
      <trkpt lat="42.278607431799173" lon="-8.612549845129251">
        <ele>13.5234375</ele>
      </trkpt>
      <trkpt lat="42.278595864772797" lon="-8.612462840974331">
        <ele>12.6328125</ele>
      </trkpt>
      <trkpt lat="42.27859259583056" lon="-8.612457979470491">
        <ele>12.578125</ele>
      </trkpt>
      <trkpt lat="42.278525540605187" lon="-8.612319342792034">
        <ele>11.20703125</ele>
      </trkpt>
      <trkpt lat="42.278503580018878" lon="-8.612277517095208">
        <ele>11.03125</ele>
      </trkpt>
      <trkpt lat="42.278489833697677" lon="-8.61221507191658">
        <ele>10.81640625</ele>
      </trkpt>
      <trkpt lat="42.278483044356108" lon="-8.61216084100306">
        <ele>10.6484375</ele>
      </trkpt>
      <trkpt lat="42.278479356318712" lon="-8.612100910395384">
        <ele>10.46875</ele>
      </trkpt>
      <trkpt lat="42.27847776375711" lon="-8.612040309235454">
        <ele>10.296875</ele>
      </trkpt>
      <trkpt lat="42.27847776375711" lon="-8.611982557922602">
        <ele>10.1328125</ele>
      </trkpt>
      <trkpt lat="42.278480278328061" lon="-8.611930254846811">
        <ele>9.98828125</ele>
      </trkpt>
      <trkpt lat="42.278484469279647" lon="-8.611875604838133">
        <ele>9.84375</ele>
      </trkpt>
      <trkpt lat="42.278491593897343" lon="-8.611821876838803">
        <ele>9.73828125</ele>
      </trkpt>
      <trkpt lat="42.278501316905022" lon="-8.611772423610091">
        <ele>9.64453125</ele>
      </trkpt>
      <trkpt lat="42.278511207550764" lon="-8.611715007573366">
        <ele>9.53515625</ele>
      </trkpt>
      <trkpt lat="42.278523277491331" lon="-8.611660357564688">
        <ele>9.43359375</ele>
      </trkpt>
      <trkpt lat="42.278534676879644" lon="-8.611610988155007">
        <ele>9.3359375</ele>
      </trkpt>
      <trkpt lat="42.278549261391163" lon="-8.611553655937314">
        <ele>9.2265625</ele>
      </trkpt>
      <trkpt lat="42.278567114844918" lon="-8.611500514671206">
        <ele>9.125</ele>
      </trkpt>
      <trkpt lat="42.27858136408031" lon="-8.611451061442494">
        <ele>9.0234375</ele>
      </trkpt>
      <trkpt lat="42.278596200048923" lon="-8.611397752538323">
        <ele>8.9296875</ele>
      </trkpt>
      <trkpt lat="42.278608856722713" lon="-8.611338576301932">
        <ele>8.84375</ele>
      </trkpt>
      <trkpt lat="42.278623441234231" lon="-8.611281495541334">
        <ele>8.7578125</ele>
      </trkpt>
      <trkpt lat="42.278639199212193" lon="-8.611230617389083">
        <ele>8.6796875</ele>
      </trkpt>
      <trkpt lat="42.278654957190156" lon="-8.611183511093259">
        <ele>8.609375</ele>
      </trkpt>
      <trkpt lat="42.278673648834229" lon="-8.611133806407452">
        <ele>8.53125</ele>
      </trkpt>
      <trkpt lat="42.278695860877633" lon="-8.611089633777738">
        <ele>8.4609375</ele>
      </trkpt>
      <trkpt lat="42.278723604977131" lon="-8.611046550795436">
        <ele>8.38671875</ele>
      </trkpt>
      <trkpt lat="42.278758473694324" lon="-8.611012687906623">
        <ele>8.33203125</ele>
      </trkpt>
      <trkpt lat="42.278792420402169" lon="-8.610982093960047">
        <ele>8.27734375</ele>
      </trkpt>
      <trkpt lat="42.278828211128712" lon="-8.610944291576743">
        <ele>8.2890625</ele>
      </trkpt>
      <trkpt lat="42.278856541961432" lon="-8.610902717337012">
        <ele>8.48046875</ele>
      </trkpt>
      <trkpt lat="42.278879592195153" lon="-8.610847312957048">
        <ele>8.75</ele>
      </trkpt>
      <trkpt lat="42.278898954391479" lon="-8.610801883041859">
        <ele>8.984375</ele>
      </trkpt>
      <trkpt lat="42.278922591358423" lon="-8.610758213326335">
        <ele>9.21875</ele>
      </trkpt>
      <trkpt lat="42.278949664905667" lon="-8.610723009333014">
        <ele>9.4140625</ele>
      </trkpt>
      <trkpt lat="42.278980929404497" lon="-8.610690571367741">
        <ele>9.60546875</ele>
      </trkpt>
      <trkpt lat="42.279017306864262" lon="-8.610661737620831">
        <ele>9.78515625</ele>
      </trkpt>
      <trkpt lat="42.279050247743726" lon="-8.610636927187443">
        <ele>9.9453125</ele>
      </trkpt>
      <trkpt lat="42.279086289927363" lon="-8.610620331019163">
        <ele>10.0703125</ele>
      </trkpt>
      <trkpt lat="42.279124176129699" lon="-8.61061136238277">
        <ele>10.16015625</ele>
      </trkpt>
      <trkpt lat="42.27916625328362" lon="-8.610605327412486">
        <ele>10.2421875</ele>
      </trkpt>
      <trkpt lat="42.279210928827524" lon="-8.610602226108313">
        <ele>10.31640625</ele>
      </trkpt>
      <trkpt lat="42.279250659048557" lon="-8.610597783699632">
        <ele>10.390625</ele>
      </trkpt>
      <trkpt lat="42.279296927154064" lon="-8.610592251643538">
        <ele>10.4765625</ele>
      </trkpt>
      <trkpt lat="42.279340848326683" lon="-8.61058889888227">
        <ele>10.56640625</ele>
      </trkpt>
      <trkpt lat="42.279378147795796" lon="-8.610581271350384">
        <ele>10.71875</ele>
      </trkpt>
      <trkpt lat="42.279421649873257" lon="-8.610574314370751">
        <ele>10.890625</ele>
      </trkpt>
      <trkpt lat="42.279460625723004" lon="-8.610569285228848">
        <ele>11.03515625</ele>
      </trkpt>
      <trkpt lat="42.279502032324672" lon="-8.610564339905977">
        <ele>11.19140625</ele>
      </trkpt>
      <trkpt lat="42.279542852193117" lon="-8.610556712374091">
        <ele>11.359375</ele>
      </trkpt>
      <trkpt lat="42.279584091156721" lon="-8.610552689060569">
        <ele>11.51171875</ele>
      </trkpt>
      <trkpt lat="42.279626755043864" lon="-8.610546151176095">
        <ele>11.68359375</ele>
      </trkpt>
      <trkpt lat="42.279665311798453" lon="-8.610541792586446">
        <ele>11.828125</ele>
      </trkpt>
      <trkpt lat="42.279710490256548" lon="-8.610538272187114">
        <ele>11.9921875</ele>
      </trkpt>
      <trkpt lat="42.279751561582088" lon="-8.610533745959401">
        <ele>12.1484375</ele>
      </trkpt>
      <trkpt lat="42.279791375622153" lon="-8.610529219731688">
        <ele>12.30078125</ele>
      </trkpt>
      <trkpt lat="42.279830435290933" lon="-8.610526286065578">
        <ele>12.33203125</ele>
      </trkpt>
      <trkpt lat="42.279855916276574" lon="-8.61052536405623">
        <ele>12.33984375</ele>
      </trkpt>
      <trkpt lat="42.280011400580406" lon="-8.610501727089286">
        <ele>12.4609375</ele>
      </trkpt>
      <trkpt lat="42.280050627887249" lon="-8.61049460247159">
        <ele>12.49609375</ele>
      </trkpt>
      <trkpt lat="42.280094549059868" lon="-8.610486974939704">
        <ele>12.53515625</ele>
      </trkpt>
      <trkpt lat="42.280133776366711" lon="-8.610478676855564">
        <ele>12.57421875</ele>
      </trkpt>
      <trkpt lat="42.280174177139997" lon="-8.610469792038202">
        <ele>12.6171875</ele>
      </trkpt>
      <trkpt lat="42.280211392790079" lon="-8.610458225011826">
        <ele>12.66796875</ele>
      </trkpt>
      <trkpt lat="42.280250452458858" lon="-8.610444059595466">
        <ele>12.73046875</ele>
      </trkpt>
      <trkpt lat="42.280287249013782" lon="-8.61043157055974">
        <ele>12.71484375</ele>
      </trkpt>
      <trkpt lat="42.280329745262861" lon="-8.610416650772095">
        <ele>12.6796875</ele>
      </trkpt>
      <trkpt lat="42.280367044731975" lon="-8.61040030606091">
        <ele>12.65625</ele>
      </trkpt>
      <trkpt lat="42.280402919277549" lon="-8.610384883359075">
        <ele>12.625</ele>
      </trkpt>
      <trkpt lat="42.280437871813774" lon="-8.610363928601146">
        <ele>12.60546875</ele>
      </trkpt>
      <trkpt lat="42.28047676384449" lon="-8.610346745699644">
        <ele>12.55859375</ele>
      </trkpt>
      <trkpt lat="42.280512973666191" lon="-8.610332245007157">
        <ele>12.50390625</ele>
      </trkpt>
      <trkpt lat="42.280550273135304" lon="-8.6103196721524">
        <ele>12.43359375</ele>
      </trkpt>
      <trkpt lat="42.280588326975703" lon="-8.610309278592467">
        <ele>12.34765625</ele>
      </trkpt>
      <trkpt lat="42.280630068853498" lon="-8.610292263329029">
        <ele>12.26171875</ele>
      </trkpt>
      <trkpt lat="42.28066636249423" lon="-8.610272146761417">
        <ele>12.1953125</ele>
      </trkpt>
      <trkpt lat="42.280698381364346" lon="-8.610244067385793">
        <ele>12.15234375</ele>
      </trkpt>
      <trkpt lat="42.280719671398401" lon="-8.610202493146062">
        <ele>12.16015625</ele>
      </trkpt>
      <trkpt lat="42.280736686661839" lon="-8.610156141221523">
        <ele>12.2109375</ele>
      </trkpt>
      <trkpt lat="42.280751941725612" lon="-8.610108029097319">
        <ele>12.265625</ele>
      </trkpt>
      <trkpt lat="42.280759820714593" lon="-8.610057402402163">
        <ele>12.34375</ele>
      </trkpt>
      <trkpt lat="42.280771220102906" lon="-8.610006608068943">
        <ele>12.37890625</ele>
      </trkpt>
      <trkpt lat="42.280786475166678" lon="-8.609956903383136">
        <ele>12.37890625</ele>
      </trkpt>
      <trkpt lat="42.280803741887212" lon="-8.609911305829883">
        <ele>12.37109375</ele>
      </trkpt>
      <trkpt lat="42.280819332227111" lon="-8.609864534810185">
        <ele>12.3671875</ele>
      </trkpt>
      <trkpt lat="42.280826540663838" lon="-8.60984425060451">
        <ele>12.3671875</ele>
      </trkpt>
      <trkpt lat="42.280858224257827" lon="-8.609761772677302">
        <ele>12.36328125</ele>
      </trkpt>
      <trkpt lat="42.280878927558661" lon="-8.609714414924383">
        <ele>12.359375</ele>
      </trkpt>
      <trkpt lat="42.280901642516255" lon="-8.609668062999845">
        <ele>12.3515625</ele>
      </trkpt>
      <trkpt lat="42.280924692749977" lon="-8.609619699418545">
        <ele>12.34765625</ele>
      </trkpt>
      <trkpt lat="42.280949587002397" lon="-8.609577873721719">
        <ele>12.33984375</ele>
      </trkpt>
      <trkpt lat="42.280979929491878" lon="-8.609537724405527">
        <ele>12.3203125</ele>
      </trkpt>
      <trkpt lat="42.281009601429105" lon="-8.609506879001856">
        <ele>12.296875</ele>
      </trkpt>
      <trkpt lat="42.281040363013744" lon="-8.609476620331407">
        <ele>12.26953125</ele>
      </trkpt>
      <trkpt lat="42.281069112941623" lon="-8.609441332519054">
        <ele>12.2578125</ele>
      </trkpt>
      <trkpt lat="42.28109828196466" lon="-8.60940302722156">
        <ele>12.25390625</ele>
      </trkpt>
      <trkpt lat="42.281124852597713" lon="-8.609367068856955">
        <ele>12.25</ele>
      </trkpt>
      <trkpt lat="42.281154608353972" lon="-8.60933605581522">
        <ele>12.23828125</ele>
      </trkpt>
      <trkpt lat="42.281183609738946" lon="-8.609303366392851">
        <ele>12.23828125</ele>
      </trkpt>
      <trkpt lat="42.281211772933602" lon="-8.609267324209213">
        <ele>12.30078125</ele>
      </trkpt>
      <trkpt lat="42.281238846480846" lon="-8.609227510169148">
        <ele>12.3828125</ele>
      </trkpt>
      <trkpt lat="42.281265333294868" lon="-8.60918752849102">
        <ele>12.46875</ele>
      </trkpt>
      <trkpt lat="42.281295508146286" lon="-8.609142936766148">
        <ele>12.578125</ele>
      </trkpt>
      <trkpt lat="42.281323000788689" lon="-8.609101781621575">
        <ele>12.68359375</ele>
      </trkpt>
      <trkpt lat="42.281352421268821" lon="-8.609068505465984">
        <ele>12.75</ele>
      </trkpt>
      <trkpt lat="42.281385445967317" lon="-8.609034894034266">
        <ele>12.81640625</ele>
      </trkpt>
      <trkpt lat="42.281421571969986" lon="-8.608998013660312">
        <ele>12.87890625</ele>
      </trkpt>
      <trkpt lat="42.281458452343941" lon="-8.60897010192275">
        <ele>12.93359375</ele>
      </trkpt>
      <trkpt lat="42.281493404880166" lon="-8.608951242640615">
        <ele>12.97265625</ele>
      </trkpt>
      <trkpt lat="42.281530201435089" lon="-8.608928192406893">
        <ele>13.01171875</ele>
      </trkpt>
      <trkpt lat="42.281569931656122" lon="-8.608915032818913">
        <ele>13.046875</ele>
      </trkpt>
      <trkpt lat="42.281607314944267" lon="-8.608902459964156">
        <ele>13.078125</ele>
      </trkpt>
      <trkpt lat="42.281644195318222" lon="-8.608890557661653">
        <ele>13.10546875</ele>
      </trkpt>
      <trkpt lat="42.281681913882494" lon="-8.608884187415242">
        <ele>13.01953125</ele>
      </trkpt>
      <trkpt lat="42.281718039885163" lon="-8.608896676450968">
        <ele>12.9375</ele>
      </trkpt>
      <trkpt lat="42.281751735135913" lon="-8.608916960656643">
        <ele>12.85546875</ele>
      </trkpt>
      <trkpt lat="42.28178333491087" lon="-8.608952583745122">
        <ele>12.7734375</ele>
      </trkpt>
      <trkpt lat="42.281814767047763" lon="-8.608979908749461">
        <ele>12.69140625</ele>
      </trkpt>
      <trkpt lat="42.281848965212703" lon="-8.608979070559144">
        <ele>12.60546875</ele>
      </trkpt>
      <trkpt lat="42.287709" lon="-8.610771">
        <ele>66.213</ele>
        <time>2018-08-25T08:36:36Z</time>
      </trkpt>
      <trkpt lat="42.287755" lon="-8.610795">
        <ele>66.243</ele>
        <time>2018-08-25T08:36:38Z</time>
      </trkpt>
      <trkpt lat="42.287806" lon="-8.610813">
        <ele>66.207</ele>
        <time>2018-08-25T08:36:40Z</time>
      </trkpt>
      <trkpt lat="42.287867" lon="-8.610832">
        <ele>66.208</ele>
        <time>2018-08-25T08:36:42Z</time>
      </trkpt>
      <trkpt lat="42.287929" lon="-8.610858">
        <ele>66.273</ele>
        <time>2018-08-25T08:36:44Z</time>
      </trkpt>
      <trkpt lat="42.287988" lon="-8.610886">
        <ele>66.229</ele>
        <time>2018-08-25T08:36:46Z</time>
      </trkpt>
      <trkpt lat="42.288107" lon="-8.610947">
        <ele>66.284</ele>
        <time>2018-08-25T08:36:48Z</time>
      </trkpt>
      <trkpt lat="42.288156" lon="-8.610986">
        <ele>66.268</ele>
        <time>2018-08-25T08:36:51Z</time>
      </trkpt>
      <trkpt lat="42.288200" lon="-8.611022">
        <ele>66.285</ele>
        <time>2018-08-25T08:36:53Z</time>
      </trkpt>
      <trkpt lat="42.288248" lon="-8.611063">
        <ele>66.243</ele>
        <time>2018-08-25T08:36:55Z</time>
      </trkpt>
      <trkpt lat="42.288299" lon="-8.611105">
        <ele>66.241</ele>
        <time>2018-08-25T08:36:57Z</time>
      </trkpt>
      <trkpt lat="42.288373" lon="-8.611151">
        <ele>66.231</ele>
        <time>2018-08-25T08:36:58Z</time>
      </trkpt>
      <trkpt lat="42.288424" lon="-8.611174">
        <ele>66.282</ele>
        <time>2018-08-25T08:37:01Z</time>
      </trkpt>
      <trkpt lat="42.288491" lon="-8.611173">
        <ele>66.243</ele>
        <time>2018-08-25T08:37:02Z</time>
      </trkpt>
      <trkpt lat="42.288594" lon="-8.611196">
        <ele>66.217</ele>
        <time>2018-08-25T08:37:05Z</time>
      </trkpt>
      <trkpt lat="42.288688" lon="-8.611257">
        <ele>65.908</ele>
        <time>2018-08-25T08:37:08Z</time>
      </trkpt>
      <trkpt lat="42.288727" lon="-8.611316">
        <ele>65.790</ele>
        <time>2018-08-25T08:37:10Z</time>
      </trkpt>
      <trkpt lat="42.288758" lon="-8.611366">
        <ele>65.816</ele>
        <time>2018-08-25T08:37:12Z</time>
      </trkpt>
      <trkpt lat="42.288796" lon="-8.611418">
        <ele>66.171</ele>
        <time>2018-08-25T08:37:14Z</time>
      </trkpt>
      <trkpt lat="42.288846" lon="-8.611459">
        <ele>66.795</ele>
        <time>2018-08-25T08:37:16Z</time>
      </trkpt>
      <trkpt lat="42.288907" lon="-8.611500">
        <ele>67.342</ele>
        <time>2018-08-25T08:37:18Z</time>
      </trkpt>
      <trkpt lat="42.289042" lon="-8.611593">
        <ele>67.820</ele>
        <time>2018-08-25T08:37:20Z</time>
      </trkpt>
      <trkpt lat="42.289082" lon="-8.611623">
        <ele>68.148</ele>
        <time>2018-08-25T08:37:21Z</time>
      </trkpt>
      <trkpt lat="42.289171" lon="-8.611702">
        <ele>68.788</ele>
        <time>2018-08-25T08:37:24Z</time>
      </trkpt>
      <trkpt lat="42.289225" lon="-8.611739">
        <ele>69.597</ele>
        <time>2018-08-25T08:37:27Z</time>
      </trkpt>
      <trkpt lat="42.289268" lon="-8.611765">
        <ele>70.223</ele>
        <time>2018-08-25T08:37:29Z</time>
      </trkpt>
      <trkpt lat="42.289317" lon="-8.611793">
        <ele>70.625</ele>
        <time>2018-08-25T08:37:31Z</time>
      </trkpt>
      <trkpt lat="42.289373" lon="-8.611825">
        <ele>71.208</ele>
        <time>2018-08-25T08:37:33Z</time>
      </trkpt>
      <trkpt lat="42.289435" lon="-8.611870">
        <ele>72.111</ele>
        <time>2018-08-25T08:37:35Z</time>
      </trkpt>
      <trkpt lat="42.289486" lon="-8.611916">
        <ele>72.787</ele>
        <time>2018-08-25T08:37:37Z</time>
      </trkpt>
      <trkpt lat="42.289531" lon="-8.611963">
        <ele>72.422</ele>
        <time>2018-08-25T08:37:39Z</time>
      </trkpt>
      <trkpt lat="42.289569" lon="-8.612000">
        <ele>72.036</ele>
        <time>2018-08-25T08:37:41Z</time>
      </trkpt>
      <trkpt lat="42.289612" lon="-8.612033">
        <ele>71.313</ele>
        <time>2018-08-25T08:37:43Z</time>
      </trkpt>
      <trkpt lat="42.289671" lon="-8.612064">
        <ele>70.781</ele>
        <time>2018-08-25T08:37:46Z</time>
      </trkpt>
      <trkpt lat="42.289720" lon="-8.612073">
        <ele>70.659</ele>
        <time>2018-08-25T08:37:49Z</time>
      </trkpt>
      <trkpt lat="42.289768" lon="-8.612075">
        <ele>71.219</ele>
        <time>2018-08-25T08:37:52Z</time>
      </trkpt>
      <trkpt lat="42.289820" lon="-8.612081">
        <ele>72.186</ele>
        <time>2018-08-25T08:37:55Z</time>
      </trkpt>
      <trkpt lat="42.289882" lon="-8.612091">
        <ele>72.460</ele>
        <time>2018-08-25T08:37:58Z</time>
      </trkpt>
      <trkpt lat="42.289939" lon="-8.612091">
        <ele>73.026</ele>
        <time>2018-08-25T08:38:01Z</time>
      </trkpt>
      <trkpt lat="42.289996" lon="-8.612101">
        <ele>73.608</ele>
        <time>2018-08-25T08:38:04Z</time>
      </trkpt>
      <trkpt lat="42.290061" lon="-8.612125">
        <ele>75.340</ele>
        <time>2018-08-25T08:38:07Z</time>
      </trkpt>
      <trkpt lat="42.290105" lon="-8.612142">
        <ele>76.896</ele>
        <time>2018-08-25T08:38:09Z</time>
      </trkpt>
      <trkpt lat="42.290152" lon="-8.612158">
        <ele>78.671</ele>
        <time>2018-08-25T08:38:11Z</time>
      </trkpt>
      <trkpt lat="42.290213" lon="-8.612178">
        <ele>80.095</ele>
        <time>2018-08-25T08:38:14Z</time>
      </trkpt>
      <trkpt lat="42.290262" lon="-8.612200">
        <ele>81.352</ele>
        <time>2018-08-25T08:38:17Z</time>
      </trkpt>
      <trkpt lat="42.290322" lon="-8.612226">
        <ele>82.110</ele>
        <time>2018-08-25T08:38:20Z</time>
      </trkpt>
      <trkpt lat="42.290367" lon="-8.612248">
        <ele>82.468</ele>
        <time>2018-08-25T08:38:22Z</time>
      </trkpt>
      <trkpt lat="42.290419" lon="-8.612277">
        <ele>82.178</ele>
        <time>2018-08-25T08:38:24Z</time>
      </trkpt>
      <trkpt lat="42.290473" lon="-8.612303">
        <ele>81.735</ele>
        <time>2018-08-25T08:38:26Z</time>
      </trkpt>
      <trkpt lat="42.290531" lon="-8.612328">
        <ele>80.686</ele>
        <time>2018-08-25T08:38:28Z</time>
      </trkpt>
      <trkpt lat="42.290589" lon="-8.612352">
        <ele>79.914</ele>
        <time>2018-08-25T08:38:30Z</time>
      </trkpt>
      <trkpt lat="42.290641" lon="-8.612379">
        <ele>79.608</ele>
        <time>2018-08-25T08:38:32Z</time>
      </trkpt>
      <trkpt lat="42.290683" lon="-8.612405">
        <ele>79.615</ele>
        <time>2018-08-25T08:38:34Z</time>
      </trkpt>
      <trkpt lat="42.290733" lon="-8.612445">
        <ele>79.831</ele>
        <time>2018-08-25T08:38:37Z</time>
      </trkpt>
      <trkpt lat="42.290796" lon="-8.612466">
        <ele>80.286</ele>
        <time>2018-08-25T08:38:40Z</time>
      </trkpt>
      <trkpt lat="42.290850" lon="-8.612482">
        <ele>81.040</ele>
        <time>2018-08-25T08:38:43Z</time>
      </trkpt>
      <trkpt lat="42.290898" lon="-8.612506">
        <ele>80.987</ele>
        <time>2018-08-25T08:38:47Z</time>
      </trkpt>
      <trkpt lat="42.290952" lon="-8.612550">
        <ele>80.665</ele>
        <time>2018-08-25T08:38:50Z</time>
      </trkpt>
      <trkpt lat="42.290993" lon="-8.612578">
        <ele>80.813</ele>
        <time>2018-08-25T08:38:52Z</time>
      </trkpt>
      <trkpt lat="42.291032" lon="-8.612609">
        <ele>80.933</ele>
        <time>2018-08-25T08:38:54Z</time>
      </trkpt>
      <trkpt lat="42.291083" lon="-8.612665">
        <ele>81.094</ele>
        <time>2018-08-25T08:38:57Z</time>
      </trkpt>
      <trkpt lat="42.291134" lon="-8.612708">
        <ele>81.057</ele>
        <time>2018-08-25T08:39:00Z</time>
      </trkpt>
      <trkpt lat="42.291182" lon="-8.612735">
        <ele>81.222</ele>
        <time>2018-08-25T08:39:03Z</time>
      </trkpt>
      <trkpt lat="42.291233" lon="-8.612755">
        <ele>80.908</ele>
        <time>2018-08-25T08:39:06Z</time>
      </trkpt>
      <trkpt lat="42.291283" lon="-8.612773">
        <ele>81.451</ele>
        <time>2018-08-25T08:39:09Z</time>
      </trkpt>
      <trkpt lat="42.291335" lon="-8.612796">
        <ele>82.287</ele>
        <time>2018-08-25T08:39:12Z</time>
      </trkpt>
      <trkpt lat="42.291397" lon="-8.612826">
        <ele>83.012</ele>
        <time>2018-08-25T08:39:15Z</time>
      </trkpt>
      <trkpt lat="42.291457" lon="-8.612860">
        <ele>83.346</ele>
        <time>2018-08-25T08:39:18Z</time>
      </trkpt>
      <trkpt lat="42.291516" lon="-8.612900">
        <ele>83.583</ele>
        <time>2018-08-25T08:39:21Z</time>
      </trkpt>
      <trkpt lat="42.291557" lon="-8.612930">
        <ele>83.631</ele>
        <time>2018-08-25T08:39:23Z</time>
      </trkpt>
      <trkpt lat="42.291598" lon="-8.612956">
        <ele>83.699</ele>
        <time>2018-08-25T08:39:25Z</time>
      </trkpt>
      <trkpt lat="42.291641" lon="-8.612979">
        <ele>83.489</ele>
        <time>2018-08-25T08:39:27Z</time>
      </trkpt>
      <trkpt lat="42.291688" lon="-8.613006">
        <ele>83.637</ele>
        <time>2018-08-25T08:39:29Z</time>
      </trkpt>
      <trkpt lat="42.291736" lon="-8.613028">
        <ele>83.449</ele>
        <time>2018-08-25T08:39:31Z</time>
      </trkpt>
      <trkpt lat="42.291787" lon="-8.613051">
        <ele>83.413</ele>
        <time>2018-08-25T08:39:33Z</time>
      </trkpt>
      <trkpt lat="42.291838" lon="-8.613074">
        <ele>83.508</ele>
        <time>2018-08-25T08:39:35Z</time>
      </trkpt>
      <trkpt lat="42.291887" lon="-8.613102">
        <ele>83.565</ele>
        <time>2018-08-25T08:39:37Z</time>
      </trkpt>
      <trkpt lat="42.291932" lon="-8.613130">
        <ele>83.571</ele>
        <time>2018-08-25T08:39:39Z</time>
      </trkpt>
      <trkpt lat="42.291976" lon="-8.613159">
        <ele>83.566</ele>
        <time>2018-08-25T08:39:41Z</time>
      </trkpt>
      <trkpt lat="42.292022" lon="-8.613190">
        <ele>83.910</ele>
        <time>2018-08-25T08:39:43Z</time>
      </trkpt>
      <trkpt lat="42.292067" lon="-8.613220">
        <ele>84.327</ele>
        <time>2018-08-25T08:39:45Z</time>
      </trkpt>
      <trkpt lat="42.292112" lon="-8.613247">
        <ele>84.565</ele>
        <time>2018-08-25T08:39:47Z</time>
      </trkpt>
      <trkpt lat="42.292160" lon="-8.613267">
        <ele>84.743</ele>
        <time>2018-08-25T08:39:49Z</time>
      </trkpt>
      <trkpt lat="42.292208" lon="-8.613292">
        <ele>84.983</ele>
        <time>2018-08-25T08:39:51Z</time>
      </trkpt>
      <trkpt lat="42.292258" lon="-8.613316">
        <ele>85.627</ele>
        <time>2018-08-25T08:39:53Z</time>
      </trkpt>
      <trkpt lat="42.292304" lon="-8.613343">
        <ele>85.768</ele>
        <time>2018-08-25T08:39:55Z</time>
      </trkpt>
      <trkpt lat="42.292348" lon="-8.613373">
        <ele>85.614</ele>
        <time>2018-08-25T08:39:57Z</time>
      </trkpt>
      <trkpt lat="42.292396" lon="-8.613410">
        <ele>85.608</ele>
        <time>2018-08-25T08:39:59Z</time>
      </trkpt>
      <trkpt lat="42.292443" lon="-8.613455">
        <ele>86.664</ele>
        <time>2018-08-25T08:40:01Z</time>
      </trkpt>
      <trkpt lat="42.292488" lon="-8.613502">
        <ele>87.440</ele>
        <time>2018-08-25T08:40:03Z</time>
      </trkpt>
      <trkpt lat="42.292531" lon="-8.613545">
        <ele>87.795</ele>
        <time>2018-08-25T08:40:05Z</time>
      </trkpt>
      <trkpt lat="42.292573" lon="-8.613581">
        <ele>87.369</ele>
        <time>2018-08-25T08:40:07Z</time>
      </trkpt>
      <trkpt lat="42.292609" lon="-8.613618">
        <ele>86.976</ele>
        <time>2018-08-25T08:40:09Z</time>
      </trkpt>
      <trkpt lat="42.292654" lon="-8.613681">
        <ele>86.414</ele>
        <time>2018-08-25T08:40:12Z</time>
      </trkpt>
      <trkpt lat="42.292693" lon="-8.613756">
        <ele>86.062</ele>
        <time>2018-08-25T08:40:15Z</time>
      </trkpt>
      <trkpt lat="42.292718" lon="-8.613814">
        <ele>85.652</ele>
        <time>2018-08-25T08:40:17Z</time>
      </trkpt>
      <trkpt lat="42.292745" lon="-8.613874">
        <ele>84.843</ele>
        <time>2018-08-25T08:40:19Z</time>
      </trkpt>
      <trkpt lat="42.292774" lon="-8.613944">
        <ele>83.964</ele>
        <time>2018-08-25T08:40:21Z</time>
      </trkpt>
      <trkpt lat="42.292808" lon="-8.614017">
        <ele>83.410</ele>
        <time>2018-08-25T08:40:23Z</time>
      </trkpt>
      <trkpt lat="42.292853" lon="-8.614086">
        <ele>82.808</ele>
        <time>2018-08-25T08:40:25Z</time>
      </trkpt>
      <trkpt lat="42.292904" lon="-8.614126">
        <ele>82.246</ele>
        <time>2018-08-25T08:40:27Z</time>
      </trkpt>
      <trkpt lat="42.292955" lon="-8.614127">
        <ele>81.782</ele>
        <time>2018-08-25T08:40:29Z</time>
      </trkpt>
      <trkpt lat="42.293008" lon="-8.614122">
        <ele>81.567</ele>
        <time>2018-08-25T08:40:31Z</time>
      </trkpt>
      <trkpt lat="42.293066" lon="-8.614114">
        <ele>81.661</ele>
        <time>2018-08-25T08:40:33Z</time>
      </trkpt>
      <trkpt lat="42.293121" lon="-8.614105">
        <ele>81.658</ele>
        <time>2018-08-25T08:40:35Z</time>
      </trkpt>
      <trkpt lat="42.293174" lon="-8.614099">
        <ele>81.716</ele>
        <time>2018-08-25T08:40:37Z</time>
      </trkpt>
      <trkpt lat="42.293234" lon="-8.614088">
        <ele>82.284</ele>
        <time>2018-08-25T08:40:39Z</time>
      </trkpt>
      <trkpt lat="42.293344" lon="-8.614074">
        <ele>83.674</ele>
        <time>2018-08-25T08:40:41Z</time>
      </trkpt>
      <trkpt lat="42.293406" lon="-8.614063">
        <ele>85.343</ele>
        <time>2018-08-25T08:40:44Z</time>
      </trkpt>
      <trkpt lat="42.293458" lon="-8.614049">
        <ele>86.564</ele>
        <time>2018-08-25T08:40:46Z</time>
      </trkpt>
      <trkpt lat="42.293511" lon="-8.614035">
        <ele>87.010</ele>
        <time>2018-08-25T08:40:48Z</time>
      </trkpt>
      <trkpt lat="42.293566" lon="-8.614006">
        <ele>87.108</ele>
        <time>2018-08-25T08:40:50Z</time>
      </trkpt>
      <trkpt lat="42.293619" lon="-8.613989">
        <ele>87.296</ele>
        <time>2018-08-25T08:40:52Z</time>
      </trkpt>
      <trkpt lat="42.293672" lon="-8.613973">
        <ele>87.232</ele>
        <time>2018-08-25T08:40:54Z</time>
      </trkpt>
      <trkpt lat="42.293725" lon="-8.613950">
        <ele>87.237</ele>
        <time>2018-08-25T08:40:56Z</time>
      </trkpt>
      <trkpt lat="42.293781" lon="-8.613936">
        <ele>86.921</ele>
        <time>2018-08-25T08:40:58Z</time>
      </trkpt>
      <trkpt lat="42.293844" lon="-8.613923">
        <ele>86.668</ele>
        <time>2018-08-25T08:41:00Z</time>
      </trkpt>
      <trkpt lat="42.293913" lon="-8.613913">
        <ele>86.866</ele>
        <time>2018-08-25T08:41:02Z</time>
      </trkpt>
      <trkpt lat="42.293978" lon="-8.613907">
        <ele>86.934</ele>
        <time>2018-08-25T08:41:04Z</time>
      </trkpt>
      <trkpt lat="42.294041" lon="-8.613900">
        <ele>87.324</ele>
        <time>2018-08-25T08:41:06Z</time>
      </trkpt>
      <trkpt lat="42.294104" lon="-8.613891">
        <ele>87.995</ele>
        <time>2018-08-25T08:41:08Z</time>
      </trkpt>
      <trkpt lat="42.294170" lon="-8.613857">
        <ele>87.649</ele>
        <time>2018-08-25T08:41:10Z</time>
      </trkpt>
      <trkpt lat="42.294230" lon="-8.613811">
        <ele>87.023</ele>
        <time>2018-08-25T08:41:12Z</time>
      </trkpt>
      <trkpt lat="42.294283" lon="-8.613761">
        <ele>86.508</ele>
        <time>2018-08-25T08:41:14Z</time>
      </trkpt>
      <trkpt lat="42.294334" lon="-8.613706">
        <ele>86.021</ele>
        <time>2018-08-25T08:41:16Z</time>
      </trkpt>
      <trkpt lat="42.294385" lon="-8.613651">
        <ele>85.597</ele>
        <time>2018-08-25T08:41:18Z</time>
      </trkpt>
      <trkpt lat="42.294440" lon="-8.613601">
        <ele>85.662</ele>
        <time>2018-08-25T08:41:20Z</time>
      </trkpt>
      <trkpt lat="42.294497" lon="-8.613559">
        <ele>85.786</ele>
        <time>2018-08-25T08:41:22Z</time>
      </trkpt>
      <trkpt lat="42.294548" lon="-8.613512">
        <ele>85.783</ele>
        <time>2018-08-25T08:41:24Z</time>
      </trkpt>
      <trkpt lat="42.294599" lon="-8.613464">
        <ele>85.751</ele>
        <time>2018-08-25T08:41:26Z</time>
      </trkpt>
      <trkpt lat="42.294650" lon="-8.613415">
        <ele>85.789</ele>
        <time>2018-08-25T08:41:28Z</time>
      </trkpt>
      <trkpt lat="42.294702" lon="-8.613365">
        <ele>85.839</ele>
        <time>2018-08-25T08:41:30Z</time>
      </trkpt>
      <trkpt lat="42.294755" lon="-8.613314">
        <ele>86.099</ele>
        <time>2018-08-25T08:41:32Z</time>
      </trkpt>
      <trkpt lat="42.294808" lon="-8.613267">
        <ele>86.207</ele>
        <time>2018-08-25T08:41:34Z</time>
      </trkpt>
      <trkpt lat="42.294860" lon="-8.613223">
        <ele>86.427</ele>
        <time>2018-08-25T08:41:36Z</time>
      </trkpt>
      <trkpt lat="42.294910" lon="-8.613183">
        <ele>86.508</ele>
        <time>2018-08-25T08:41:38Z</time>
      </trkpt>
      <trkpt lat="42.294959" lon="-8.613143">
        <ele>86.771</ele>
        <time>2018-08-25T08:41:40Z</time>
      </trkpt>
      <trkpt lat="42.295009" lon="-8.613101">
        <ele>87.097</ele>
        <time>2018-08-25T08:41:42Z</time>
      </trkpt>
      <trkpt lat="42.295064" lon="-8.613066">
        <ele>87.032</ele>
        <time>2018-08-25T08:41:44Z</time>
      </trkpt>
      <trkpt lat="42.295125" lon="-8.613042">
        <ele>87.026</ele>
        <time>2018-08-25T08:41:46Z</time>
      </trkpt>
      <trkpt lat="42.295187" lon="-8.613016">
        <ele>87.033</ele>
        <time>2018-08-25T08:41:48Z</time>
      </trkpt>
      <trkpt lat="42.295251" lon="-8.612994">
        <ele>86.671</ele>
        <time>2018-08-25T08:41:50Z</time>
      </trkpt>
      <trkpt lat="42.295314" lon="-8.612976">
        <ele>86.359</ele>
        <time>2018-08-25T08:41:52Z</time>
      </trkpt>
      <trkpt lat="42.295375" lon="-8.612957">
        <ele>86.299</ele>
        <time>2018-08-25T08:41:54Z</time>
      </trkpt>
      <trkpt lat="42.295435" lon="-8.612936">
        <ele>86.147</ele>
        <time>2018-08-25T08:41:56Z</time>
      </trkpt>
      <trkpt lat="42.295494" lon="-8.612909">
        <ele>86.229</ele>
        <time>2018-08-25T08:41:58Z</time>
      </trkpt>
      <trkpt lat="42.295553" lon="-8.612881">
        <ele>86.321</ele>
        <time>2018-08-25T08:42:00Z</time>
      </trkpt>
      <trkpt lat="42.295612" lon="-8.612851">
        <ele>86.408</ele>
        <time>2018-08-25T08:42:02Z</time>
      </trkpt>
      <trkpt lat="42.295667" lon="-8.612812">
        <ele>86.436</ele>
        <time>2018-08-25T08:42:04Z</time>
      </trkpt>
      <trkpt lat="42.295738" lon="-8.612762">
        <ele>86.482</ele>
        <time>2018-08-25T08:42:05Z</time>
      </trkpt>
      <trkpt lat="42.295780" lon="-8.612739">
        <ele>86.277</ele>
        <time>2018-08-25T08:42:07Z</time>
      </trkpt>
      <trkpt lat="42.295834" lon="-8.612705">
        <ele>86.091</ele>
        <time>2018-08-25T08:42:09Z</time>
      </trkpt>
      <trkpt lat="42.295891" lon="-8.612663">
        <ele>85.618</ele>
        <time>2018-08-25T08:42:11Z</time>
      </trkpt>
      <trkpt lat="42.295950" lon="-8.612619">
        <ele>85.196</ele>
        <time>2018-08-25T08:42:13Z</time>
      </trkpt>
      <trkpt lat="42.296025" lon="-8.612568">
        <ele>84.744</ele>
        <time>2018-08-25T08:42:14Z</time>
      </trkpt>
      <trkpt lat="42.296076" lon="-8.612533">
        <ele>84.284</ele>
        <time>2018-08-25T08:42:16Z</time>
      </trkpt>
      <trkpt lat="42.296125" lon="-8.612499">
        <ele>83.913</ele>
        <time>2018-08-25T08:42:18Z</time>
      </trkpt>
      <trkpt lat="42.296191" lon="-8.612450">
        <ele>83.743</ele>
        <time>2018-08-25T08:42:19Z</time>
      </trkpt>
      <trkpt lat="42.296232" lon="-8.612424">
        <ele>83.307</ele>
        <time>2018-08-25T08:42:21Z</time>
      </trkpt>
      <trkpt lat="42.296321" lon="-8.612364">
        <ele>83.008</ele>
        <time>2018-08-25T08:42:23Z</time>
      </trkpt>
      <trkpt lat="42.296386" lon="-8.612317">
        <ele>82.723</ele>
        <time>2018-08-25T08:42:25Z</time>
      </trkpt>
      <trkpt lat="42.296452" lon="-8.612260">
        <ele>82.429</ele>
        <time>2018-08-25T08:42:27Z</time>
      </trkpt>
      <trkpt lat="42.296519" lon="-8.612202">
        <ele>81.864</ele>
        <time>2018-08-25T08:42:29Z</time>
      </trkpt>
      <trkpt lat="42.296588" lon="-8.612149">
        <ele>81.228</ele>
        <time>2018-08-25T08:42:31Z</time>
      </trkpt>
      <trkpt lat="42.296650" lon="-8.612097">
        <ele>80.655</ele>
        <time>2018-08-25T08:42:33Z</time>
      </trkpt>
      <trkpt lat="42.296722" lon="-8.612057">
        <ele>79.923</ele>
        <time>2018-08-25T08:42:35Z</time>
      </trkpt>
      <trkpt lat="42.296796" lon="-8.612008">
        <ele>79.411</ele>
        <time>2018-08-25T08:42:37Z</time>
      </trkpt>
      <trkpt lat="42.296848" lon="-8.611980">
        <ele>79.281</ele>
        <time>2018-08-25T08:42:39Z</time>
      </trkpt>
      <trkpt lat="42.296897" lon="-8.611964">
        <ele>79.077</ele>
        <time>2018-08-25T08:42:41Z</time>
      </trkpt>
      <trkpt lat="42.296964" lon="-8.611953">
        <ele>78.961</ele>
        <time>2018-08-25T08:42:42Z</time>
      </trkpt>
      <trkpt lat="42.297037" lon="-8.611956">
        <ele>78.927</ele>
        <time>2018-08-25T08:42:44Z</time>
      </trkpt>
      <trkpt lat="42.297111" lon="-8.611980">
        <ele>78.908</ele>
        <time>2018-08-25T08:42:46Z</time>
      </trkpt>
      <trkpt lat="42.297180" lon="-8.612001">
        <ele>79.169</ele>
        <time>2018-08-25T08:42:49Z</time>
      </trkpt>
      <trkpt lat="42.297238" lon="-8.612018">
        <ele>79.285</ele>
        <time>2018-08-25T08:42:51Z</time>
      </trkpt>
      <trkpt lat="42.297297" lon="-8.612035">
        <ele>79.280</ele>
        <time>2018-08-25T08:42:53Z</time>
      </trkpt>
      <trkpt lat="42.297355" lon="-8.612054">
        <ele>79.414</ele>
        <time>2018-08-25T08:42:55Z</time>
      </trkpt>
      <trkpt lat="42.297411" lon="-8.612073">
        <ele>79.781</ele>
        <time>2018-08-25T08:42:57Z</time>
      </trkpt>
      <trkpt lat="42.297468" lon="-8.612095">
        <ele>80.389</ele>
        <time>2018-08-25T08:42:59Z</time>
      </trkpt>
      <trkpt lat="42.297522" lon="-8.612116">
        <ele>80.957</ele>
        <time>2018-08-25T08:43:01Z</time>
      </trkpt>
      <trkpt lat="42.297575" lon="-8.612125">
        <ele>81.667</ele>
        <time>2018-08-25T08:43:03Z</time>
      </trkpt>
      <trkpt lat="42.297631" lon="-8.612121">
        <ele>82.452</ele>
        <time>2018-08-25T08:43:05Z</time>
      </trkpt>
      <trkpt lat="42.297686" lon="-8.612115">
        <ele>83.453</ele>
        <time>2018-08-25T08:43:07Z</time>
      </trkpt>
      <trkpt lat="42.297740" lon="-8.612100">
        <ele>84.408</ele>
        <time>2018-08-25T08:43:09Z</time>
      </trkpt>
      <trkpt lat="42.297792" lon="-8.612082">
        <ele>85.008</ele>
        <time>2018-08-25T08:43:11Z</time>
      </trkpt>
      <trkpt lat="42.297844" lon="-8.612058">
        <ele>85.267</ele>
        <time>2018-08-25T08:43:13Z</time>
      </trkpt>
      <trkpt lat="42.297903" lon="-8.612035">
        <ele>85.443</ele>
        <time>2018-08-25T08:43:15Z</time>
      </trkpt>
      <trkpt lat="42.297956" lon="-8.612003">
        <ele>85.748</ele>
        <time>2018-08-25T08:43:17Z</time>
      </trkpt>
      <trkpt lat="42.298005" lon="-8.611967">
        <ele>86.282</ele>
        <time>2018-08-25T08:43:19Z</time>
      </trkpt>
      <trkpt lat="42.298052" lon="-8.611928">
        <ele>86.719</ele>
        <time>2018-08-25T08:43:21Z</time>
      </trkpt>
      <trkpt lat="42.298100" lon="-8.611891">
        <ele>86.847</ele>
        <time>2018-08-25T08:43:23Z</time>
      </trkpt>
      <trkpt lat="42.298148" lon="-8.611856">
        <ele>86.655</ele>
        <time>2018-08-25T08:43:25Z</time>
      </trkpt>
      <trkpt lat="42.298197" lon="-8.611823">
        <ele>86.535</ele>
        <time>2018-08-25T08:43:27Z</time>
      </trkpt>
      <trkpt lat="42.298245" lon="-8.611793">
        <ele>86.014</ele>
        <time>2018-08-25T08:43:29Z</time>
      </trkpt>
      <trkpt lat="42.298294" lon="-8.611762">
        <ele>85.754</ele>
        <time>2018-08-25T08:43:31Z</time>
      </trkpt>
      <trkpt lat="42.298343" lon="-8.611731">
        <ele>85.609</ele>
        <time>2018-08-25T08:43:33Z</time>
      </trkpt>
      <trkpt lat="42.298390" lon="-8.611693">
        <ele>85.508</ele>
        <time>2018-08-25T08:43:35Z</time>
      </trkpt>
      <trkpt lat="42.298437" lon="-8.611653">
        <ele>85.443</ele>
        <time>2018-08-25T08:43:37Z</time>
      </trkpt>
      <trkpt lat="42.298490" lon="-8.611617">
        <ele>85.489</ele>
        <time>2018-08-25T08:43:39Z</time>
      </trkpt>
      <trkpt lat="42.298541" lon="-8.611580">
        <ele>85.594</ele>
        <time>2018-08-25T08:43:41Z</time>
      </trkpt>
      <trkpt lat="42.298590" lon="-8.611549">
        <ele>85.568</ele>
        <time>2018-08-25T08:43:43Z</time>
      </trkpt>
      <trkpt lat="42.298636" lon="-8.611518">
        <ele>85.335</ele>
        <time>2018-08-25T08:43:45Z</time>
      </trkpt>
      <trkpt lat="42.298679" lon="-8.611486">
        <ele>85.293</ele>
        <time>2018-08-25T08:43:47Z</time>
      </trkpt>
      <trkpt lat="42.298723" lon="-8.611456">
        <ele>85.271</ele>
        <time>2018-08-25T08:43:49Z</time>
      </trkpt>
      <trkpt lat="42.298767" lon="-8.611425">
        <ele>85.291</ele>
        <time>2018-08-25T08:43:51Z</time>
      </trkpt>
      <trkpt lat="42.298811" lon="-8.611395">
        <ele>85.194</ele>
        <time>2018-08-25T08:43:53Z</time>
      </trkpt>
      <trkpt lat="42.298856" lon="-8.611365">
        <ele>84.957</ele>
        <time>2018-08-25T08:43:55Z</time>
      </trkpt>
      <trkpt lat="42.298900" lon="-8.611333">
        <ele>84.922</ele>
        <time>2018-08-25T08:43:57Z</time>
      </trkpt>
      <trkpt lat="42.298947" lon="-8.611306">
        <ele>84.908</ele>
        <time>2018-08-25T08:43:59Z</time>
      </trkpt>
      <trkpt lat="42.298995" lon="-8.611280">
        <ele>84.971</ele>
        <time>2018-08-25T08:44:01Z</time>
      </trkpt>
      <trkpt lat="42.299039" lon="-8.611247">
        <ele>84.717</ele>
        <time>2018-08-25T08:44:03Z</time>
      </trkpt>
      <trkpt lat="42.299083" lon="-8.611216">
        <ele>84.482</ele>
        <time>2018-08-25T08:44:05Z</time>
      </trkpt>
      <trkpt lat="42.299127" lon="-8.611184">
        <ele>84.276</ele>
        <time>2018-08-25T08:44:07Z</time>
      </trkpt>
      <trkpt lat="42.299172" lon="-8.611152">
        <ele>83.963</ele>
        <time>2018-08-25T08:44:09Z</time>
      </trkpt>
      <trkpt lat="42.299217" lon="-8.611119">
        <ele>83.771</ele>
        <time>2018-08-25T08:44:11Z</time>
      </trkpt>
      <trkpt lat="42.299260" lon="-8.611086">
        <ele>83.529</ele>
        <time>2018-08-25T08:44:13Z</time>
      </trkpt>
      <trkpt lat="42.299300" lon="-8.611056">
        <ele>83.389</ele>
        <time>2018-08-25T08:44:15Z</time>
      </trkpt>
      <trkpt lat="42.299358" lon="-8.611013">
        <ele>83.017</ele>
        <time>2018-08-25T08:44:18Z</time>
      </trkpt>
      <trkpt lat="42.299400" lon="-8.610988">
        <ele>82.487</ele>
        <time>2018-08-25T08:44:20Z</time>
      </trkpt>
      <trkpt lat="42.299450" lon="-8.610969">
        <ele>81.915</ele>
        <time>2018-08-25T08:44:22Z</time>
      </trkpt>
      <trkpt lat="42.299497" lon="-8.610954">
        <ele>81.608</ele>
        <time>2018-08-25T08:44:24Z</time>
      </trkpt>
      <trkpt lat="42.299564" lon="-8.610950">
        <ele>81.093</ele>
        <time>2018-08-25T08:44:27Z</time>
      </trkpt>
      <trkpt lat="42.299609" lon="-8.610972">
        <ele>81.169</ele>
        <time>2018-08-25T08:44:29Z</time>
      </trkpt>
      <trkpt lat="42.299651" lon="-8.611007">
        <ele>81.614</ele>
        <time>2018-08-25T08:44:31Z</time>
      </trkpt>
      <trkpt lat="42.299706" lon="-8.611054">
        <ele>82.398</ele>
        <time>2018-08-25T08:44:34Z</time>
      </trkpt>
      <trkpt lat="42.299743" lon="-8.611089">
        <ele>82.835</ele>
        <time>2018-08-25T08:44:36Z</time>
      </trkpt>
      <trkpt lat="42.299803" lon="-8.611125">
        <ele>83.493</ele>
        <time>2018-08-25T08:44:39Z</time>
      </trkpt>
      <trkpt lat="42.299849" lon="-8.611128">
        <ele>83.891</ele>
        <time>2018-08-25T08:44:41Z</time>
      </trkpt>
      <trkpt lat="42.299895" lon="-8.611124">
        <ele>84.171</ele>
        <time>2018-08-25T08:44:43Z</time>
      </trkpt>
      <trkpt lat="42.299941" lon="-8.611117">
        <ele>84.366</ele>
        <time>2018-08-25T08:44:45Z</time>
      </trkpt>
      <trkpt lat="42.299988" lon="-8.611110">
        <ele>84.229</ele>
        <time>2018-08-25T08:44:47Z</time>
      </trkpt>
      <trkpt lat="42.300033" lon="-8.611103">
        <ele>83.521</ele>
        <time>2018-08-25T08:44:49Z</time>
      </trkpt>
      <trkpt lat="42.300099" lon="-8.611086">
        <ele>83.108</ele>
        <time>2018-08-25T08:44:52Z</time>
      </trkpt>
      <trkpt lat="42.300161" lon="-8.611068">
        <ele>83.578</ele>
        <time>2018-08-25T08:44:55Z</time>
      </trkpt>
      <trkpt lat="42.300207" lon="-8.611059">
        <ele>84.354</ele>
        <time>2018-08-25T08:44:57Z</time>
      </trkpt>
      <trkpt lat="42.300256" lon="-8.611050">
        <ele>84.929</ele>
        <time>2018-08-25T08:44:59Z</time>
      </trkpt>
      <trkpt lat="42.300305" lon="-8.611038">
        <ele>85.883</ele>
        <time>2018-08-25T08:45:01Z</time>
      </trkpt>
      <trkpt lat="42.300350" lon="-8.611023">
        <ele>86.980</ele>
        <time>2018-08-25T08:45:03Z</time>
      </trkpt>
      <trkpt lat="42.300396" lon="-8.611009">
        <ele>87.978</ele>
        <time>2018-08-25T08:45:05Z</time>
      </trkpt>
      <trkpt lat="42.300445" lon="-8.610994">
        <ele>88.576</ele>
        <time>2018-08-25T08:45:07Z</time>
      </trkpt>
      <trkpt lat="42.300499" lon="-8.610984">
        <ele>88.826</ele>
        <time>2018-08-25T08:45:09Z</time>
      </trkpt>
      <trkpt lat="42.300557" lon="-8.610973">
        <ele>88.741</ele>
        <time>2018-08-25T08:45:11Z</time>
      </trkpt>
      <trkpt lat="42.300614" lon="-8.610959">
        <ele>88.681</ele>
        <time>2018-08-25T08:45:13Z</time>
      </trkpt>
      <trkpt lat="42.300670" lon="-8.610940">
        <ele>88.309</ele>
        <time>2018-08-25T08:45:15Z</time>
      </trkpt>
      <trkpt lat="42.300728" lon="-8.610923">
        <ele>88.208</ele>
        <time>2018-08-25T08:45:17Z</time>
      </trkpt>
      <trkpt lat="42.300780" lon="-8.610904">
        <ele>88.236</ele>
        <time>2018-08-25T08:45:19Z</time>
      </trkpt>
      <trkpt lat="42.300829" lon="-8.610883">
        <ele>88.192</ele>
        <time>2018-08-25T08:45:21Z</time>
      </trkpt>
      <trkpt lat="42.300877" lon="-8.610865">
        <ele>88.067</ele>
        <time>2018-08-25T08:45:23Z</time>
      </trkpt>
      <trkpt lat="42.300920" lon="-8.610847">
        <ele>87.431</ele>
        <time>2018-08-25T08:45:25Z</time>
      </trkpt>
      <trkpt lat="42.300984" lon="-8.610815">
        <ele>86.958</ele>
        <time>2018-08-25T08:45:28Z</time>
      </trkpt>
      <trkpt lat="42.301033" lon="-8.610794">
        <ele>86.786</ele>
        <time>2018-08-25T08:45:30Z</time>
      </trkpt>
      <trkpt lat="42.301084" lon="-8.610774">
        <ele>86.564</ele>
        <time>2018-08-25T08:45:32Z</time>
      </trkpt>
      <trkpt lat="42.301133" lon="-8.610758">
        <ele>86.434</ele>
        <time>2018-08-25T08:45:34Z</time>
      </trkpt>
      <trkpt lat="42.301197" lon="-8.610738">
        <ele>86.548</ele>
        <time>2018-08-25T08:45:37Z</time>
      </trkpt>
      <trkpt lat="42.301262" lon="-8.610721">
        <ele>86.861</ele>
        <time>2018-08-25T08:45:40Z</time>
      </trkpt>
      <trkpt lat="42.301308" lon="-8.610713">
        <ele>87.117</ele>
        <time>2018-08-25T08:45:42Z</time>
      </trkpt>
      <trkpt lat="42.301356" lon="-8.610703">
        <ele>87.508</ele>
        <time>2018-08-25T08:45:44Z</time>
      </trkpt>
      <trkpt lat="42.301406" lon="-8.610697">
        <ele>87.856</ele>
        <time>2018-08-25T08:45:46Z</time>
      </trkpt>
      <trkpt lat="42.301458" lon="-8.610701">
        <ele>88.172</ele>
        <time>2018-08-25T08:45:48Z</time>
      </trkpt>
      <trkpt lat="42.301511" lon="-8.610709">
        <ele>88.327</ele>
        <time>2018-08-25T08:45:50Z</time>
      </trkpt>
      <trkpt lat="42.301559" lon="-8.610719">
        <ele>88.691</ele>
        <time>2018-08-25T08:45:52Z</time>
      </trkpt>
      <trkpt lat="42.301604" lon="-8.610729">
        <ele>88.928</ele>
        <time>2018-08-25T08:45:54Z</time>
      </trkpt>
      <trkpt lat="42.301648" lon="-8.610743">
        <ele>89.596</ele>
        <time>2018-08-25T08:45:56Z</time>
      </trkpt>
      <trkpt lat="42.301711" lon="-8.610768">
        <ele>89.964</ele>
        <time>2018-08-25T08:45:59Z</time>
      </trkpt>
      <trkpt lat="42.301757" lon="-8.610779">
        <ele>89.994</ele>
        <time>2018-08-25T08:46:01Z</time>
      </trkpt>
      <trkpt lat="42.301804" lon="-8.610788">
        <ele>89.915</ele>
        <time>2018-08-25T08:46:03Z</time>
      </trkpt>
      <trkpt lat="42.301852" lon="-8.610798">
        <ele>90.065</ele>
        <time>2018-08-25T08:46:05Z</time>
      </trkpt>
      <trkpt lat="42.301898" lon="-8.610811">
        <ele>90.411</ele>
        <time>2018-08-25T08:46:07Z</time>
      </trkpt>
      <trkpt lat="42.301941" lon="-8.610832">
        <ele>91.108</ele>
        <time>2018-08-25T08:46:09Z</time>
      </trkpt>
      <trkpt lat="42.302001" lon="-8.610873">
        <ele>91.473</ele>
        <time>2018-08-25T08:46:12Z</time>
      </trkpt>
      <trkpt lat="42.302042" lon="-8.610906">
        <ele>92.079</ele>
        <time>2018-08-25T08:46:14Z</time>
      </trkpt>
      <trkpt lat="42.302084" lon="-8.610945">
        <ele>92.184</ele>
        <time>2018-08-25T08:46:16Z</time>
      </trkpt>
      <trkpt lat="42.302127" lon="-8.610994">
        <ele>92.168</ele>
        <time>2018-08-25T08:46:18Z</time>
      </trkpt>
      <trkpt lat="42.302166" lon="-8.611047">
        <ele>91.815</ele>
        <time>2018-08-25T08:46:20Z</time>
      </trkpt>
      <trkpt lat="42.302206" lon="-8.611100">
        <ele>91.433</ele>
        <time>2018-08-25T08:46:22Z</time>
      </trkpt>
      <trkpt lat="42.302252" lon="-8.611153">
        <ele>91.091</ele>
        <time>2018-08-25T08:46:24Z</time>
      </trkpt>
      <trkpt lat="42.302304" lon="-8.611195">
        <ele>90.661</ele>
        <time>2018-08-25T08:46:26Z</time>
      </trkpt>
      <trkpt lat="42.302376" lon="-8.611205">
        <ele>90.491</ele>
        <time>2018-08-25T08:46:27Z</time>
      </trkpt>
      <trkpt lat="42.302419" lon="-8.611144">
        <ele>90.881</ele>
        <time>2018-08-25T08:46:30Z</time>
      </trkpt>
      <trkpt lat="42.302461" lon="-8.611079">
        <ele>91.219</ele>
        <time>2018-08-25T08:46:33Z</time>
      </trkpt>
      <trkpt lat="42.302506" lon="-8.611019">
        <ele>91.308</ele>
        <time>2018-08-25T08:46:36Z</time>
      </trkpt>
      <trkpt lat="42.302552" lon="-8.610982">
        <ele>91.171</ele>
        <time>2018-08-25T08:46:39Z</time>
      </trkpt>
      <trkpt lat="42.302604" lon="-8.610945">
        <ele>90.577</ele>
        <time>2018-08-25T08:46:42Z</time>
      </trkpt>
      <trkpt lat="42.302663" lon="-8.610903">
        <ele>89.612</ele>
        <time>2018-08-25T08:46:45Z</time>
      </trkpt>
      <trkpt lat="42.302716" lon="-8.610885">
        <ele>89.066</ele>
        <time>2018-08-25T08:46:47Z</time>
      </trkpt>
      <trkpt lat="42.302774" lon="-8.610871">
        <ele>88.453</ele>
        <time>2018-08-25T08:46:49Z</time>
      </trkpt>
      <trkpt lat="42.302832" lon="-8.610861">
        <ele>87.811</ele>
        <time>2018-08-25T08:46:51Z</time>
      </trkpt>
      <trkpt lat="42.302889" lon="-8.610854">
        <ele>87.199</ele>
        <time>2018-08-25T08:46:53Z</time>
      </trkpt>
      <trkpt lat="42.302949" lon="-8.610853">
        <ele>86.989</ele>
        <time>2018-08-25T08:46:55Z</time>
      </trkpt>
      <trkpt lat="42.303003" lon="-8.610855">
        <ele>86.594</ele>
        <time>2018-08-25T08:46:57Z</time>
      </trkpt>
      <trkpt lat="42.303053" lon="-8.610860">
        <ele>86.257</ele>
        <time>2018-08-25T08:46:59Z</time>
      </trkpt>
      <trkpt lat="42.303098" lon="-8.610874">
        <ele>86.122</ele>
        <time>2018-08-25T08:47:01Z</time>
      </trkpt>
      <trkpt lat="42.303149" lon="-8.610888">
        <ele>85.508</ele>
        <time>2018-08-25T08:47:03Z</time>
      </trkpt>
      <trkpt lat="42.303209" lon="-8.610903">
        <ele>84.951</ele>
        <time>2018-08-25T08:47:05Z</time>
      </trkpt>
      <trkpt lat="42.303269" lon="-8.610913">
        <ele>83.917</ele>
        <time>2018-08-25T08:47:07Z</time>
      </trkpt>
      <trkpt lat="42.303328" lon="-8.610928">
        <ele>83.362</ele>
        <time>2018-08-25T08:47:09Z</time>
      </trkpt>
      <trkpt lat="42.303387" lon="-8.610956">
        <ele>83.156</ele>
        <time>2018-08-25T08:47:11Z</time>
      </trkpt>
      <trkpt lat="42.303447" lon="-8.610989">
        <ele>83.013</ele>
        <time>2018-08-25T08:47:13Z</time>
      </trkpt>
      <trkpt lat="42.303506" lon="-8.611020">
        <ele>82.861</ele>
        <time>2018-08-25T08:47:15Z</time>
      </trkpt>
      <trkpt lat="42.303573" lon="-8.611050">
        <ele>82.579</ele>
        <time>2018-08-25T08:47:17Z</time>
      </trkpt>
      <trkpt lat="42.303645" lon="-8.611079">
        <ele>82.189</ele>
        <time>2018-08-25T08:47:19Z</time>
      </trkpt>
      <trkpt lat="42.303710" lon="-8.611110">
        <ele>82.048</ele>
        <time>2018-08-25T08:47:21Z</time>
      </trkpt>
      <trkpt lat="42.303760" lon="-8.611139">
        <ele>82.161</ele>
        <time>2018-08-25T08:47:23Z</time>
      </trkpt>
      <trkpt lat="42.303821" lon="-8.611181">
        <ele>82.217</ele>
        <time>2018-08-25T08:47:26Z</time>
      </trkpt>
      <trkpt lat="42.303870" lon="-8.611209">
        <ele>82.308</ele>
        <time>2018-08-25T08:47:28Z</time>
      </trkpt>
      <trkpt lat="42.303922" lon="-8.611232">
        <ele>82.376</ele>
        <time>2018-08-25T08:47:30Z</time>
      </trkpt>
      <trkpt lat="42.303974" lon="-8.611252">
        <ele>82.322</ele>
        <time>2018-08-25T08:47:32Z</time>
      </trkpt>
      <trkpt lat="42.304021" lon="-8.611271">
        <ele>82.347</ele>
        <time>2018-08-25T08:47:34Z</time>
      </trkpt>
      <trkpt lat="42.304067" lon="-8.611295">
        <ele>82.071</ele>
        <time>2018-08-25T08:47:36Z</time>
      </trkpt>
      <trkpt lat="42.304109" lon="-8.611320">
        <ele>81.568</ele>
        <time>2018-08-25T08:47:38Z</time>
      </trkpt>
      <trkpt lat="42.304155" lon="-8.611340">
        <ele>80.666</ele>
        <time>2018-08-25T08:47:40Z</time>
      </trkpt>
      <trkpt lat="42.304204" lon="-8.611355">
        <ele>79.944</ele>
        <time>2018-08-25T08:47:42Z</time>
      </trkpt>
      <trkpt lat="42.304250" lon="-8.611366">
        <ele>79.294</ele>
        <time>2018-08-25T08:47:44Z</time>
      </trkpt>
      <trkpt lat="42.304295" lon="-8.611377">
        <ele>78.675</ele>
        <time>2018-08-25T08:47:46Z</time>
      </trkpt>
      <trkpt lat="42.304356" lon="-8.611396">
        <ele>77.928</ele>
        <time>2018-08-25T08:47:49Z</time>
      </trkpt>
      <trkpt lat="42.304409" lon="-8.611430">
        <ele>77.320</ele>
        <time>2018-08-25T08:47:52Z</time>
      </trkpt>
      <trkpt lat="42.304460" lon="-8.611465">
        <ele>76.508</ele>
        <time>2018-08-25T08:47:55Z</time>
      </trkpt>
      <trkpt lat="42.304508" lon="-8.611502">
        <ele>75.549</ele>
        <time>2018-08-25T08:47:58Z</time>
      </trkpt>
      <trkpt lat="42.304559" lon="-8.611541">
        <ele>74.855</ele>
        <time>2018-08-25T08:48:01Z</time>
      </trkpt>
      <trkpt lat="42.304607" lon="-8.611570">
        <ele>74.930</ele>
        <time>2018-08-25T08:48:04Z</time>
      </trkpt>
      <trkpt lat="42.304662" lon="-8.611599">
        <ele>75.814</ele>
        <time>2018-08-25T08:48:07Z</time>
      </trkpt>
      <trkpt lat="42.304728" lon="-8.611604">
        <ele>75.831</ele>
        <time>2018-08-25T08:48:10Z</time>
      </trkpt>
      <trkpt lat="42.304789" lon="-8.611601">
        <ele>75.549</ele>
        <time>2018-08-25T08:48:13Z</time>
      </trkpt>
      <trkpt lat="42.304850" lon="-8.611599">
        <ele>75.757</ele>
        <time>2018-08-25T08:48:16Z</time>
      </trkpt>
      <trkpt lat="42.304895" lon="-8.611598">
        <ele>75.537</ele>
        <time>2018-08-25T08:48:18Z</time>
      </trkpt>
      <trkpt lat="42.304953" lon="-8.611590">
        <ele>75.526</ele>
        <time>2018-08-25T08:48:21Z</time>
      </trkpt>
      <trkpt lat="42.305005" lon="-8.611580">
        <ele>75.447</ele>
        <time>2018-08-25T08:48:24Z</time>
      </trkpt>
      <trkpt lat="42.305055" lon="-8.611591">
        <ele>75.711</ele>
        <time>2018-08-25T08:48:27Z</time>
      </trkpt>
      <trkpt lat="42.305118" lon="-8.611590">
        <ele>75.908</ele>
        <time>2018-08-25T08:48:30Z</time>
      </trkpt>
      <trkpt lat="42.305185" lon="-8.611602">
        <ele>76.274</ele>
        <time>2018-08-25T08:48:33Z</time>
      </trkpt>
      <trkpt lat="42.305234" lon="-8.611610">
        <ele>75.860</ele>
        <time>2018-08-25T08:48:35Z</time>
      </trkpt>
      <trkpt lat="42.305281" lon="-8.611616">
        <ele>75.155</ele>
        <time>2018-08-25T08:48:37Z</time>
      </trkpt>
      <trkpt lat="42.305340" lon="-8.611620">
        <ele>74.249</ele>
        <time>2018-08-25T08:48:40Z</time>
      </trkpt>
      <trkpt lat="42.305394" lon="-8.611622">
        <ele>72.796</ele>
        <time>2018-08-25T08:48:43Z</time>
      </trkpt>
      <trkpt lat="42.305448" lon="-8.611620">
        <ele>71.624</ele>
        <time>2018-08-25T08:48:46Z</time>
      </trkpt>
      <trkpt lat="42.305495" lon="-8.611632">
        <ele>70.662</ele>
        <time>2018-08-25T08:48:49Z</time>
      </trkpt>
      <trkpt lat="42.305540" lon="-8.611658">
        <ele>69.962</ele>
        <time>2018-08-25T08:48:52Z</time>
      </trkpt>
      <trkpt lat="42.305597" lon="-8.611681">
        <ele>69.069</ele>
        <time>2018-08-25T08:48:55Z</time>
      </trkpt>
      <trkpt lat="42.305650" lon="-8.611691">
        <ele>68.204</ele>
        <time>2018-08-25T08:48:57Z</time>
      </trkpt>
      <trkpt lat="42.305699" lon="-8.611707">
        <ele>67.624</ele>
        <time>2018-08-25T08:48:59Z</time>
      </trkpt>
      <trkpt lat="42.305758" lon="-8.611728">
        <ele>66.608</ele>
        <time>2018-08-25T08:49:01Z</time>
      </trkpt>
      <trkpt lat="42.305853" lon="-8.611760">
        <ele>65.138</ele>
        <time>2018-08-25T08:49:02Z</time>
      </trkpt>
      <trkpt lat="42.305915" lon="-8.611773">
        <ele>63.224</ele>
        <time>2018-08-25T08:49:04Z</time>
      </trkpt>
      <trkpt lat="42.306001" lon="-8.611804">
        <ele>61.399</ele>
        <time>2018-08-25T08:49:06Z</time>
      </trkpt>
      <trkpt lat="42.306081" lon="-8.611830">
        <ele>60.043</ele>
        <time>2018-08-25T08:49:08Z</time>
      </trkpt>
      <trkpt lat="42.306125" lon="-8.611852">
        <ele>60.070</ele>
        <time>2018-08-25T08:49:09Z</time>
      </trkpt>
      <trkpt lat="42.306211" lon="-8.611882">
        <ele>59.988</ele>
        <time>2018-08-25T08:49:11Z</time>
      </trkpt>
      <trkpt lat="42.306256" lon="-8.611895">
        <ele>59.996</ele>
        <time>2018-08-25T08:49:12Z</time>
      </trkpt>
      <trkpt lat="42.306302" lon="-8.611906">
        <ele>60.236</ele>
        <time>2018-08-25T08:49:13Z</time>
      </trkpt>
      <trkpt lat="42.306350" lon="-8.611927">
        <ele>61.094</ele>
        <time>2018-08-25T08:49:14Z</time>
      </trkpt>
      <trkpt lat="42.306398" lon="-8.611949">
        <ele>61.957</ele>
        <time>2018-08-25T08:49:16Z</time>
      </trkpt>
      <trkpt lat="42.306454" lon="-8.611973">
        <ele>62.922</ele>
        <time>2018-08-25T08:49:18Z</time>
      </trkpt>
      <trkpt lat="42.306512" lon="-8.612004">
        <ele>63.908</ele>
        <time>2018-08-25T08:49:20Z</time>
      </trkpt>
      <trkpt lat="42.306565" lon="-8.612042">
        <ele>64.511</ele>
        <time>2018-08-25T08:49:22Z</time>
      </trkpt>
      <trkpt lat="42.306605" lon="-8.612080">
        <ele>63.897</ele>
        <time>2018-08-25T08:49:24Z</time>
      </trkpt>
      <trkpt lat="42.306651" lon="-8.612116">
        <ele>63.532</ele>
        <time>2018-08-25T08:49:26Z</time>
      </trkpt>
      <trkpt lat="42.306703" lon="-8.612156">
        <ele>63.156</ele>
        <time>2018-08-25T08:49:28Z</time>
      </trkpt>
      <trkpt lat="42.306767" lon="-8.612202">
        <ele>63.773</ele>
        <time>2018-08-25T08:49:30Z</time>
      </trkpt>
      <trkpt lat="42.306827" lon="-8.612238">
        <ele>64.681</ele>
        <time>2018-08-25T08:49:32Z</time>
      </trkpt>
      <trkpt lat="42.306889" lon="-8.612266">
        <ele>66.119</ele>
        <time>2018-08-25T08:49:34Z</time>
      </trkpt>
      <trkpt lat="42.306964" lon="-8.612290">
        <ele>67.969</ele>
        <time>2018-08-25T08:49:36Z</time>
      </trkpt>
      <trkpt lat="42.307037" lon="-8.612301">
        <ele>69.365</ele>
        <time>2018-08-25T08:49:38Z</time>
      </trkpt>
      <trkpt lat="42.307100" lon="-8.612300">
        <ele>70.468</ele>
        <time>2018-08-25T08:49:40Z</time>
      </trkpt>
      <trkpt lat="42.307157" lon="-8.612301">
        <ele>71.414</ele>
        <time>2018-08-25T08:49:42Z</time>
      </trkpt>
      <trkpt lat="42.307215" lon="-8.612296">
        <ele>71.908</ele>
        <time>2018-08-25T08:49:44Z</time>
      </trkpt>
      <trkpt lat="42.307276" lon="-8.612285">
        <ele>72.838</ele>
        <time>2018-08-25T08:49:46Z</time>
      </trkpt>
      <trkpt lat="42.307334" lon="-8.612265">
        <ele>73.674</ele>
        <time>2018-08-25T08:49:48Z</time>
      </trkpt>
      <trkpt lat="42.307386" lon="-8.612237">
        <ele>74.119</ele>
        <time>2018-08-25T08:49:50Z</time>
      </trkpt>
      <trkpt lat="42.307435" lon="-8.612223">
        <ele>74.763</ele>
        <time>2018-08-25T08:49:52Z</time>
      </trkpt>
      <trkpt lat="42.307489" lon="-8.612204">
        <ele>75.530</ele>
        <time>2018-08-25T08:49:54Z</time>
      </trkpt>
      <trkpt lat="42.307550" lon="-8.612186">
        <ele>75.868</ele>
        <time>2018-08-25T08:49:56Z</time>
      </trkpt>
      <trkpt lat="42.307605" lon="-8.612158">
        <ele>75.326</ele>
        <time>2018-08-25T08:49:58Z</time>
      </trkpt>
      <trkpt lat="42.307651" lon="-8.612119">
        <ele>74.316</ele>
        <time>2018-08-25T08:50:00Z</time>
      </trkpt>
      <trkpt lat="42.307691" lon="-8.612085">
        <ele>73.659</ele>
        <time>2018-08-25T08:50:02Z</time>
      </trkpt>
      <trkpt lat="42.307744" lon="-8.612053">
        <ele>72.303</ele>
        <time>2018-08-25T08:50:05Z</time>
      </trkpt>
      <trkpt lat="42.307800" lon="-8.612023">
        <ele>72.323</ele>
        <time>2018-08-25T08:50:08Z</time>
      </trkpt>
      <trkpt lat="42.307863" lon="-8.611988">
        <ele>73.508</ele>
        <time>2018-08-25T08:50:11Z</time>
      </trkpt>
      <trkpt lat="42.307907" lon="-8.611967">
        <ele>74.727</ele>
        <time>2018-08-25T08:50:13Z</time>
      </trkpt>
      <trkpt lat="42.307950" lon="-8.611941">
        <ele>75.953</ele>
        <time>2018-08-25T08:50:15Z</time>
      </trkpt>
      <trkpt lat="42.307992" lon="-8.611910">
        <ele>76.738</ele>
        <time>2018-08-25T08:50:17Z</time>
      </trkpt>
      <trkpt lat="42.308032" lon="-8.611874">
        <ele>76.912</ele>
        <time>2018-08-25T08:50:19Z</time>
      </trkpt>
      <trkpt lat="42.308065" lon="-8.611831">
        <ele>76.759</ele>
        <time>2018-08-25T08:50:21Z</time>
      </trkpt>
      <trkpt lat="42.308088" lon="-8.611754">
        <ele>75.387</ele>
        <time>2018-08-25T08:50:24Z</time>
      </trkpt>
      <trkpt lat="42.308105" lon="-8.611686">
        <ele>73.635</ele>
        <time>2018-08-25T08:50:27Z</time>
      </trkpt>
      <trkpt lat="42.308133" lon="-8.611616">
        <ele>70.915</ele>
        <time>2018-08-25T08:50:30Z</time>
      </trkpt>
      <trkpt lat="42.308145" lon="-8.611556">
        <ele>67.381</ele>
        <time>2018-08-25T08:50:32Z</time>
      </trkpt>
      <trkpt lat="42.308154" lon="-8.611467">
        <ele>63.361</ele>
        <time>2018-08-25T08:50:35Z</time>
      </trkpt>
      <trkpt lat="42.308171" lon="-8.611387">
        <ele>59.517</ele>
        <time>2018-08-25T08:50:38Z</time>
      </trkpt>
      <trkpt lat="42.308222" lon="-8.611340">
        <ele>56.508</ele>
        <time>2018-08-25T08:50:41Z</time>
      </trkpt>
      <trkpt lat="42.308276" lon="-8.611354">
        <ele>55.830</ele>
        <time>2018-08-25T08:50:43Z</time>
      </trkpt>
      <trkpt lat="42.308329" lon="-8.611379">
        <ele>56.856</ele>
        <time>2018-08-25T08:50:45Z</time>
      </trkpt>
      <trkpt lat="42.308388" lon="-8.611398">
        <ele>58.371</ele>
        <time>2018-08-25T08:50:47Z</time>
      </trkpt>
      <trkpt lat="42.308453" lon="-8.611401">
        <ele>60.735</ele>
        <time>2018-08-25T08:50:49Z</time>
      </trkpt>
      <trkpt lat="42.308507" lon="-8.611394">
        <ele>62.972</ele>
        <time>2018-08-25T08:50:51Z</time>
      </trkpt>
      <trkpt lat="42.308559" lon="-8.611369">
        <ele>64.430</ele>
        <time>2018-08-25T08:50:53Z</time>
      </trkpt>
      <trkpt lat="42.308607" lon="-8.611326">
        <ele>65.758</ele>
        <time>2018-08-25T08:50:55Z</time>
      </trkpt>
      <trkpt lat="42.308653" lon="-8.611280">
        <ele>67.028</ele>
        <time>2018-08-25T08:50:57Z</time>
      </trkpt>
      <trkpt lat="42.308696" lon="-8.611229">
        <ele>68.977</ele>
        <time>2018-08-25T08:50:59Z</time>
      </trkpt>
      <trkpt lat="42.308745" lon="-8.611193">
        <ele>71.161</ele>
        <time>2018-08-25T08:51:01Z</time>
      </trkpt>
      <trkpt lat="42.308790" lon="-8.611153">
        <ele>72.627</ele>
        <time>2018-08-25T08:51:03Z</time>
      </trkpt>
      <trkpt lat="42.308832" lon="-8.611093">
        <ele>73.908</ele>
        <time>2018-08-25T08:51:06Z</time>
      </trkpt>
      <trkpt lat="42.308884" lon="-8.611043">
        <ele>75.099</ele>
        <time>2018-08-25T08:51:09Z</time>
      </trkpt>
      <trkpt lat="42.308915" lon="-8.610998">
        <ele>76.015</ele>
        <time>2018-08-25T08:51:11Z</time>
      </trkpt>
      <trkpt lat="42.308969" lon="-8.610949">
        <ele>76.580</ele>
        <time>2018-08-25T08:51:14Z</time>
      </trkpt>
      <trkpt lat="42.309026" lon="-8.610916">
        <ele>76.454</ele>
        <time>2018-08-25T08:51:17Z</time>
      </trkpt>
      <trkpt lat="42.309089" lon="-8.610891">
        <ele>75.861</ele>
        <time>2018-08-25T08:51:20Z</time>
      </trkpt>
      <trkpt lat="42.309149" lon="-8.610857">
        <ele>75.119</ele>
        <time>2018-08-25T08:51:23Z</time>
      </trkpt>
      <trkpt lat="42.309209" lon="-8.610841">
        <ele>74.967</ele>
        <time>2018-08-25T08:51:26Z</time>
      </trkpt>
      <trkpt lat="42.309257" lon="-8.610799">
        <ele>75.317</ele>
        <time>2018-08-25T08:51:29Z</time>
      </trkpt>
      <trkpt lat="42.309291" lon="-8.610750">
        <ele>77.167</ele>
        <time>2018-08-25T08:51:32Z</time>
      </trkpt>
      <trkpt lat="42.309339" lon="-8.610739">
        <ele>79.781</ele>
        <time>2018-08-25T08:51:36Z</time>
      </trkpt>
      <trkpt lat="42.309396" lon="-8.610786">
        <ele>82.019</ele>
        <time>2018-08-25T08:51:39Z</time>
      </trkpt>
      <trkpt lat="42.309440" lon="-8.610829">
        <ele>83.808</ele>
        <time>2018-08-25T08:51:41Z</time>
      </trkpt>
      <trkpt lat="42.309485" lon="-8.610884">
        <ele>85.338</ele>
        <time>2018-08-25T08:51:43Z</time>
      </trkpt>
      <trkpt lat="42.309524" lon="-8.610946">
        <ele>86.754</ele>
        <time>2018-08-25T08:51:45Z</time>
      </trkpt>
      <trkpt lat="42.309561" lon="-8.610981">
        <ele>87.879</ele>
        <time>2018-08-25T08:51:47Z</time>
      </trkpt>
      <trkpt lat="42.309612" lon="-8.610999">
        <ele>87.823</ele>
        <time>2018-08-25T08:51:51Z</time>
      </trkpt>
      <trkpt lat="42.309664" lon="-8.611019">
        <ele>88.670</ele>
        <time>2018-08-25T08:51:54Z</time>
      </trkpt>
      <trkpt lat="42.309705" lon="-8.611047">
        <ele>90.248</ele>
        <time>2018-08-25T08:51:57Z</time>
      </trkpt>
      <trkpt lat="42.309733" lon="-8.611095">
        <ele>91.826</ele>
        <time>2018-08-25T08:52:01Z</time>
      </trkpt>
      <trkpt lat="42.309723" lon="-8.611161">
        <ele>93.286</ele>
        <time>2018-08-25T08:52:04Z</time>
      </trkpt>
      <trkpt lat="42.309677" lon="-8.611235">
        <ele>94.682</ele>
        <time>2018-08-25T08:52:08Z</time>
      </trkpt>
      <trkpt lat="42.309645" lon="-8.611282">
        <ele>96.043</ele>
        <time>2018-08-25T08:52:11Z</time>
      </trkpt>
      <trkpt lat="42.309630" lon="-8.611218">
        <ele>97.417</ele>
        <time>2018-08-25T08:54:27Z</time>
      </trkpt>
      <trkpt lat="42.309693" lon="-8.611206">
        <ele>99.908</ele>
        <time>2018-08-25T08:54:45Z</time>
      </trkpt>
      <trkpt lat="42.309738" lon="-8.611242">
        <ele>101.510</ele>
        <time>2018-08-25T08:54:47Z</time>
      </trkpt>
      <trkpt lat="42.309781" lon="-8.611296">
        <ele>102.646</ele>
        <time>2018-08-25T08:54:49Z</time>
      </trkpt>
      <trkpt lat="42.309817" lon="-8.611343">
        <ele>103.441</ele>
        <time>2018-08-25T08:54:51Z</time>
      </trkpt>
      <trkpt lat="42.309849" lon="-8.611403">
        <ele>103.735</ele>
        <time>2018-08-25T08:54:53Z</time>
      </trkpt>
      <trkpt lat="42.309872" lon="-8.611471">
        <ele>103.882</ele>
        <time>2018-08-25T08:54:55Z</time>
      </trkpt>
      <trkpt lat="42.309896" lon="-8.611539">
        <ele>104.170</ele>
        <time>2018-08-25T08:54:57Z</time>
      </trkpt>
      <trkpt lat="42.309922" lon="-8.611611">
        <ele>104.298</ele>
        <time>2018-08-25T08:54:59Z</time>
      </trkpt>
      <trkpt lat="42.309948" lon="-8.611686">
        <ele>104.498</ele>
        <time>2018-08-25T08:55:01Z</time>
      </trkpt>
      <trkpt lat="42.309982" lon="-8.611757">
        <ele>104.696</ele>
        <time>2018-08-25T08:55:03Z</time>
      </trkpt>
      <trkpt lat="42.310013" lon="-8.611825">
        <ele>104.831</ele>
        <time>2018-08-25T08:55:05Z</time>
      </trkpt>
      <trkpt lat="42.310042" lon="-8.611894">
        <ele>105.024</ele>
        <time>2018-08-25T08:55:07Z</time>
      </trkpt>
      <trkpt lat="42.310076" lon="-8.611967">
        <ele>105.108</ele>
        <time>2018-08-25T08:55:09Z</time>
      </trkpt>
      <trkpt lat="42.310111" lon="-8.612045">
        <ele>105.451</ele>
        <time>2018-08-25T08:55:11Z</time>
      </trkpt>
      <trkpt lat="42.310143" lon="-8.612128">
        <ele>105.817</ele>
        <time>2018-08-25T08:55:13Z</time>
      </trkpt>
      <trkpt lat="42.310169" lon="-8.612210">
        <ele>106.152</ele>
        <time>2018-08-25T08:55:15Z</time>
      </trkpt>
      <trkpt lat="42.310192" lon="-8.612295">
        <ele>106.236</ele>
        <time>2018-08-25T08:55:17Z</time>
      </trkpt>
      <trkpt lat="42.310216" lon="-8.612375">
        <ele>106.163</ele>
        <time>2018-08-25T08:55:19Z</time>
      </trkpt>
      <trkpt lat="42.310237" lon="-8.612463">
        <ele>106.071</ele>
        <time>2018-08-25T08:55:21Z</time>
      </trkpt>
      <trkpt lat="42.310256" lon="-8.612551">
        <ele>105.699</ele>
        <time>2018-08-25T08:55:23Z</time>
      </trkpt>
      <trkpt lat="42.310275" lon="-8.612638">
        <ele>105.129</ele>
        <time>2018-08-25T08:55:25Z</time>
      </trkpt>
      <trkpt lat="42.310298" lon="-8.612722">
        <ele>104.631</ele>
        <time>2018-08-25T08:55:27Z</time>
      </trkpt>
      <trkpt lat="42.310317" lon="-8.612810">
        <ele>104.261</ele>
        <time>2018-08-25T08:55:29Z</time>
      </trkpt>
      <trkpt lat="42.310329" lon="-8.612903">
        <ele>103.807</ele>
        <time>2018-08-25T08:55:31Z</time>
      </trkpt>
      <trkpt lat="42.310340" lon="-8.612992">
        <ele>103.408</ele>
        <time>2018-08-25T08:55:33Z</time>
      </trkpt>
      <trkpt lat="42.310356" lon="-8.613067">
        <ele>102.955</ele>
        <time>2018-08-25T08:55:35Z</time>
      </trkpt>
      <trkpt lat="42.310371" lon="-8.613137">
        <ele>102.221</ele>
        <time>2018-08-25T08:55:37Z</time>
      </trkpt>
      <trkpt lat="42.310386" lon="-8.613213">
        <ele>101.496</ele>
        <time>2018-08-25T08:55:39Z</time>
      </trkpt>
      <trkpt lat="42.310429" lon="-8.613364">
        <ele>100.540</ele>
        <time>2018-08-25T08:55:41Z</time>
      </trkpt>
      <trkpt lat="42.310457" lon="-8.613413">
        <ele>99.997</ele>
        <time>2018-08-25T08:55:42Z</time>
      </trkpt>
      <trkpt lat="42.310489" lon="-8.613457">
        <ele>99.545</ele>
        <time>2018-08-25T08:55:43Z</time>
      </trkpt>
      <trkpt lat="42.310550" lon="-8.613551">
        <ele>99.053</ele>
        <time>2018-08-25T08:55:45Z</time>
      </trkpt>
      <trkpt lat="42.310585" lon="-8.613600">
        <ele>98.623</ele>
        <time>2018-08-25T08:55:46Z</time>
      </trkpt>
      <trkpt lat="42.310626" lon="-8.613650">
        <ele>98.327</ele>
        <time>2018-08-25T08:55:47Z</time>
      </trkpt>
      <trkpt lat="42.310668" lon="-8.613702">
        <ele>97.968</ele>
        <time>2018-08-25T08:55:48Z</time>
      </trkpt>
      <trkpt lat="42.310710" lon="-8.613757">
        <ele>97.514</ele>
        <time>2018-08-25T08:55:49Z</time>
      </trkpt>
      <trkpt lat="42.310751" lon="-8.613813">
        <ele>97.108</ele>
        <time>2018-08-25T08:55:50Z</time>
      </trkpt>
      <trkpt lat="42.310790" lon="-8.613874">
        <ele>96.864</ele>
        <time>2018-08-25T08:55:51Z</time>
      </trkpt>
      <trkpt lat="42.310831" lon="-8.613943">
        <ele>96.650</ele>
        <time>2018-08-25T08:55:52Z</time>
      </trkpt>
      <trkpt lat="42.310877" lon="-8.614016">
        <ele>96.685</ele>
        <time>2018-08-25T08:55:53Z</time>
      </trkpt>
      <trkpt lat="42.310920" lon="-8.614084">
        <ele>96.549</ele>
        <time>2018-08-25T08:55:54Z</time>
      </trkpt>
      <trkpt lat="42.310971" lon="-8.614151">
        <ele>96.316</ele>
        <time>2018-08-25T08:55:55Z</time>
      </trkpt>
      <trkpt lat="42.311022" lon="-8.614221">
        <ele>96.164</ele>
        <time>2018-08-25T08:55:56Z</time>
      </trkpt>
      <trkpt lat="42.311073" lon="-8.614294">
        <ele>95.992</ele>
        <time>2018-08-25T08:55:57Z</time>
      </trkpt>
      <trkpt lat="42.311122" lon="-8.614372">
        <ele>95.662</ele>
        <time>2018-08-25T08:55:58Z</time>
      </trkpt>
      <trkpt lat="42.311169" lon="-8.614454">
        <ele>95.385</ele>
        <time>2018-08-25T08:55:59Z</time>
      </trkpt>
      <trkpt lat="42.311216" lon="-8.614535">
        <ele>95.089</ele>
        <time>2018-08-25T08:56:00Z</time>
      </trkpt>
      <trkpt lat="42.311265" lon="-8.614616">
        <ele>94.617</ele>
        <time>2018-08-25T08:56:01Z</time>
      </trkpt>
      <trkpt lat="42.311316" lon="-8.614697">
        <ele>94.208</ele>
        <time>2018-08-25T08:56:02Z</time>
      </trkpt>
      <trkpt lat="42.311371" lon="-8.614775">
        <ele>93.730</ele>
        <time>2018-08-25T08:56:03Z</time>
      </trkpt>
      <trkpt lat="42.311426" lon="-8.614857">
        <ele>93.296</ele>
        <time>2018-08-25T08:56:04Z</time>
      </trkpt>
      <trkpt lat="42.311485" lon="-8.614936">
        <ele>92.921</ele>
        <time>2018-08-25T08:56:05Z</time>
      </trkpt>
      <trkpt lat="42.311550" lon="-8.615009">
        <ele>92.755</ele>
        <time>2018-08-25T08:56:06Z</time>
      </trkpt>
      <trkpt lat="42.311624" lon="-8.615074">
        <ele>92.662</ele>
        <time>2018-08-25T08:56:07Z</time>
      </trkpt>
      <trkpt lat="42.311701" lon="-8.615127">
        <ele>92.550</ele>
        <time>2018-08-25T08:56:08Z</time>
      </trkpt>
      <trkpt lat="42.311776" lon="-8.615199">
        <ele>92.638</ele>
        <time>2018-08-25T08:56:09Z</time>
      </trkpt>
      <trkpt lat="42.311844" lon="-8.615283">
        <ele>92.798</ele>
        <time>2018-08-25T08:56:10Z</time>
      </trkpt>
      <trkpt lat="42.311909" lon="-8.615365">
        <ele>92.786</ele>
        <time>2018-08-25T08:56:11Z</time>
      </trkpt>
      <trkpt lat="42.311972" lon="-8.615443">
        <ele>92.560</ele>
        <time>2018-08-25T08:56:12Z</time>
      </trkpt>
      <trkpt lat="42.312036" lon="-8.615523">
        <ele>92.326</ele>
        <time>2018-08-25T08:56:13Z</time>
      </trkpt>
      <trkpt lat="42.312099" lon="-8.615604">
        <ele>92.108</ele>
        <time>2018-08-25T08:56:14Z</time>
      </trkpt>
      <trkpt lat="42.312160" lon="-8.615691">
        <ele>91.990</ele>
        <time>2018-08-25T08:56:15Z</time>
      </trkpt>
      <trkpt lat="42.312221" lon="-8.615780">
        <ele>91.656</ele>
        <time>2018-08-25T08:56:16Z</time>
      </trkpt>
      <trkpt lat="42.312284" lon="-8.615860">
        <ele>91.051</ele>
        <time>2018-08-25T08:56:17Z</time>
      </trkpt>
      <trkpt lat="42.312357" lon="-8.615942">
        <ele>90.565</ele>
        <time>2018-08-25T08:56:18Z</time>
      </trkpt>
      <trkpt lat="42.312431" lon="-8.616033">
        <ele>90.342</ele>
        <time>2018-08-25T08:56:19Z</time>
      </trkpt>
      <trkpt lat="42.312506" lon="-8.616111">
        <ele>90.070</ele>
        <time>2018-08-25T08:56:20Z</time>
      </trkpt>
      <trkpt lat="42.312587" lon="-8.616183">
        <ele>89.818</ele>
        <time>2018-08-25T08:56:21Z</time>
      </trkpt>
      <trkpt lat="42.312669" lon="-8.616251">
        <ele>89.658</ele>
        <time>2018-08-25T08:56:22Z</time>
      </trkpt>
      <trkpt lat="42.312751" lon="-8.616314">
        <ele>89.213</ele>
        <time>2018-08-25T08:56:23Z</time>
      </trkpt>
      <trkpt lat="42.312836" lon="-8.616366">
        <ele>88.843</ele>
        <time>2018-08-25T08:56:24Z</time>
      </trkpt>
      <trkpt lat="42.312929" lon="-8.616403">
        <ele>88.407</ele>
        <time>2018-08-25T08:56:25Z</time>
      </trkpt>
      <trkpt lat="42.313022" lon="-8.616432">
        <ele>88.008</ele>
        <time>2018-08-25T08:56:26Z</time>
      </trkpt>
      <trkpt lat="42.313112" lon="-8.616465">
        <ele>87.773</ele>
        <time>2018-08-25T08:56:27Z</time>
      </trkpt>
      <trkpt lat="42.313201" lon="-8.616504">
        <ele>87.469</ele>
        <time>2018-08-25T08:56:28Z</time>
      </trkpt>
      <trkpt lat="42.313295" lon="-8.616547">
        <ele>87.154</ele>
        <time>2018-08-25T08:56:29Z</time>
      </trkpt>
      <trkpt lat="42.313386" lon="-8.616580">
        <ele>86.868</ele>
        <time>2018-08-25T08:56:30Z</time>
      </trkpt>
      <trkpt lat="42.313488" lon="-8.616619">
        <ele>86.735</ele>
        <time>2018-08-25T08:56:31Z</time>
      </trkpt>
      <trkpt lat="42.313580" lon="-8.616647">
        <ele>86.693</ele>
        <time>2018-08-25T08:56:32Z</time>
      </trkpt>
      <trkpt lat="42.313669" lon="-8.616674">
        <ele>86.491</ele>
        <time>2018-08-25T08:56:33Z</time>
      </trkpt>
      <trkpt lat="42.313759" lon="-8.616700">
        <ele>86.191</ele>
        <time>2018-08-25T08:56:34Z</time>
      </trkpt>
      <trkpt lat="42.313846" lon="-8.616722">
        <ele>85.769</ele>
        <time>2018-08-25T08:56:35Z</time>
      </trkpt>
      <trkpt lat="42.313933" lon="-8.616741">
        <ele>85.304</ele>
        <time>2018-08-25T08:56:36Z</time>
      </trkpt>
      <trkpt lat="42.314020" lon="-8.616759">
        <ele>84.924</ele>
        <time>2018-08-25T08:56:37Z</time>
      </trkpt>
      <trkpt lat="42.314106" lon="-8.616779">
        <ele>84.508</ele>
        <time>2018-08-25T08:56:38Z</time>
      </trkpt>
      <trkpt lat="42.314192" lon="-8.616805">
        <ele>84.128</ele>
        <time>2018-08-25T08:56:39Z</time>
      </trkpt>
      <trkpt lat="42.314277" lon="-8.616831">
        <ele>83.724</ele>
        <time>2018-08-25T08:56:40Z</time>
      </trkpt>
      <trkpt lat="42.314364" lon="-8.616855">
        <ele>83.479</ele>
        <time>2018-08-25T08:56:41Z</time>
      </trkpt>
      <trkpt lat="42.314450" lon="-8.616878">
        <ele>83.093</ele>
        <time>2018-08-25T08:56:42Z</time>
      </trkpt>
      <trkpt lat="42.314537" lon="-8.616899">
        <ele>82.670</ele>
        <time>2018-08-25T08:56:43Z</time>
      </trkpt>
      <trkpt lat="42.314625" lon="-8.616922">
        <ele>82.228</ele>
        <time>2018-08-25T08:56:44Z</time>
      </trkpt>
      <trkpt lat="42.314713" lon="-8.616947">
        <ele>81.856</ele>
        <time>2018-08-25T08:56:45Z</time>
      </trkpt>
      <trkpt lat="42.314803" lon="-8.616972">
        <ele>81.676</ele>
        <time>2018-08-25T08:56:46Z</time>
      </trkpt>
      <trkpt lat="42.314891" lon="-8.617000">
        <ele>81.415</ele>
        <time>2018-08-25T08:56:47Z</time>
      </trkpt>
      <trkpt lat="42.314979" lon="-8.617030">
        <ele>81.265</ele>
        <time>2018-08-25T08:56:48Z</time>
      </trkpt>
      <trkpt lat="42.315066" lon="-8.617060">
        <ele>81.211</ele>
        <time>2018-08-25T08:56:49Z</time>
      </trkpt>
      <trkpt lat="42.315154" lon="-8.617087">
        <ele>81.208</ele>
        <time>2018-08-25T08:56:50Z</time>
      </trkpt>
      <trkpt lat="42.315242" lon="-8.617112">
        <ele>81.193</ele>
        <time>2018-08-25T08:56:51Z</time>
      </trkpt>
      <trkpt lat="42.315327" lon="-8.617135">
        <ele>81.029</ele>
        <time>2018-08-25T08:56:52Z</time>
      </trkpt>
      <trkpt lat="42.315410" lon="-8.617156">
        <ele>80.884</ele>
        <time>2018-08-25T08:56:53Z</time>
      </trkpt>
      <trkpt lat="42.315494" lon="-8.617177">
        <ele>80.698</ele>
        <time>2018-08-25T08:56:54Z</time>
      </trkpt>
      <trkpt lat="42.315581" lon="-8.617197">
        <ele>80.545</ele>
        <time>2018-08-25T08:56:55Z</time>
      </trkpt>
      <trkpt lat="42.315667" lon="-8.617211">
        <ele>80.323</ele>
        <time>2018-08-25T08:56:56Z</time>
      </trkpt>
      <trkpt lat="42.315752" lon="-8.617219">
        <ele>80.111</ele>
        <time>2018-08-25T08:56:57Z</time>
      </trkpt>
      <trkpt lat="42.315837" lon="-8.617222">
        <ele>80.091</ele>
        <time>2018-08-25T08:56:58Z</time>
      </trkpt>
      <trkpt lat="42.315916" lon="-8.617216">
        <ele>80.139</ele>
        <time>2018-08-25T08:56:59Z</time>
      </trkpt>
      <trkpt lat="42.315990" lon="-8.617202">
        <ele>80.101</ele>
        <time>2018-08-25T08:57:00Z</time>
      </trkpt>
      <trkpt lat="42.316059" lon="-8.617184">
        <ele>80.121</ele>
        <time>2018-08-25T08:57:01Z</time>
      </trkpt>
      <trkpt lat="42.316122" lon="-8.617162">
        <ele>80.208</ele>
        <time>2018-08-25T08:57:02Z</time>
      </trkpt>
      <trkpt lat="42.316178" lon="-8.617137">
        <ele>80.435</ele>
        <time>2018-08-25T08:57:03Z</time>
      </trkpt>
      <trkpt lat="42.316230" lon="-8.617107">
        <ele>80.511</ele>
        <time>2018-08-25T08:57:04Z</time>
      </trkpt>
      <trkpt lat="42.316278" lon="-8.617078">
        <ele>80.636</ele>
        <time>2018-08-25T08:57:05Z</time>
      </trkpt>
      <trkpt lat="42.316323" lon="-8.617051">
        <ele>80.730</ele>
        <time>2018-08-25T08:57:06Z</time>
      </trkpt>
      <trkpt lat="42.316363" lon="-8.617022">
        <ele>80.997</ele>
        <time>2018-08-25T08:57:07Z</time>
      </trkpt>
      <trkpt lat="42.316400" lon="-8.616988">
        <ele>81.075</ele>
        <time>2018-08-25T08:57:08Z</time>
      </trkpt>
      <trkpt lat="42.316468" lon="-8.616920">
        <ele>81.293</ele>
        <time>2018-08-25T08:57:10Z</time>
      </trkpt>
      <trkpt lat="42.316528" lon="-8.616850">
        <ele>81.413</ele>
        <time>2018-08-25T08:57:12Z</time>
      </trkpt>
      <trkpt lat="42.316579" lon="-8.616800">
        <ele>81.576</ele>
        <time>2018-08-25T08:57:15Z</time>
      </trkpt>
      <trkpt lat="42.316614" lon="-8.616758">
        <ele>81.390</ele>
        <time>2018-08-25T08:57:17Z</time>
      </trkpt>
      <trkpt lat="42.316654" lon="-8.616713">
        <ele>81.319</ele>
        <time>2018-08-25T08:57:19Z</time>
      </trkpt>
      <trkpt lat="42.316702" lon="-8.616670">
        <ele>81.608</ele>
        <time>2018-08-25T08:57:21Z</time>
      </trkpt>
      <trkpt lat="42.316751" lon="-8.616633">
        <ele>82.189</ele>
        <time>2018-08-25T08:57:23Z</time>
      </trkpt>
      <trkpt lat="42.316808" lon="-8.616605">
        <ele>82.925</ele>
        <time>2018-08-25T08:57:25Z</time>
      </trkpt>
      <trkpt lat="42.316863" lon="-8.616583">
        <ele>83.620</ele>
        <time>2018-08-25T08:57:27Z</time>
      </trkpt>
      <trkpt lat="42.316919" lon="-8.616565">
        <ele>84.834</ele>
        <time>2018-08-25T08:57:29Z</time>
      </trkpt>
      <trkpt lat="42.316967" lon="-8.616544">
        <ele>85.571</ele>
        <time>2018-08-25T08:57:31Z</time>
      </trkpt>
      <trkpt lat="42.317021" lon="-8.616522">
        <ele>86.319</ele>
        <time>2018-08-25T08:57:44Z</time>
      </trkpt>
      <trkpt lat="42.317077" lon="-8.616518">
        <ele>86.857</ele>
        <time>2018-08-25T08:58:40Z</time>
      </trkpt>
      <trkpt lat="42.317144" lon="-8.616505">
        <ele>87.187</ele>
        <time>2018-08-25T08:58:43Z</time>
      </trkpt>
      <trkpt lat="42.317188" lon="-8.616491">
        <ele>87.493</ele>
        <time>2018-08-25T08:58:45Z</time>
      </trkpt>
      <trkpt lat="42.317236" lon="-8.616485">
        <ele>87.665</ele>
        <time>2018-08-25T08:58:47Z</time>
      </trkpt>
      <trkpt lat="42.317293" lon="-8.616480">
        <ele>87.621</ele>
        <time>2018-08-25T08:58:49Z</time>
      </trkpt>
      <trkpt lat="42.317345" lon="-8.616477">
        <ele>87.608</ele>
        <time>2018-08-25T08:58:51Z</time>
      </trkpt>
      <trkpt lat="42.317410" lon="-8.616477">
        <ele>87.841</ele>
        <time>2018-08-25T08:58:54Z</time>
      </trkpt>
      <trkpt lat="42.317455" lon="-8.616479">
        <ele>87.957</ele>
        <time>2018-08-25T08:58:56Z</time>
      </trkpt>
      <trkpt lat="42.317512" lon="-8.616475">
        <ele>88.042</ele>
        <time>2018-08-25T08:58:58Z</time>
      </trkpt>
      <trkpt lat="42.317562" lon="-8.616478">
        <ele>88.416</ele>
        <time>2018-08-25T08:59:00Z</time>
      </trkpt>
      <trkpt lat="42.317611" lon="-8.616484">
        <ele>88.453</ele>
        <time>2018-08-25T08:59:02Z</time>
      </trkpt>
      <trkpt lat="42.317666" lon="-8.616481">
        <ele>88.381</ele>
        <time>2018-08-25T08:59:04Z</time>
      </trkpt>
      <trkpt lat="42.317713" lon="-8.616480">
        <ele>88.439</ele>
        <time>2018-08-25T08:59:06Z</time>
      </trkpt>
      <trkpt lat="42.317763" lon="-8.616478">
        <ele>88.299</ele>
        <time>2018-08-25T08:59:08Z</time>
      </trkpt>
      <trkpt lat="42.317811" lon="-8.616475">
        <ele>88.216</ele>
        <time>2018-08-25T08:59:10Z</time>
      </trkpt>
      <trkpt lat="42.317859" lon="-8.616470">
        <ele>88.276</ele>
        <time>2018-08-25T08:59:12Z</time>
      </trkpt>
      <trkpt lat="42.317910" lon="-8.616460">
        <ele>88.113</ele>
        <time>2018-08-25T08:59:14Z</time>
      </trkpt>
      <trkpt lat="42.317959" lon="-8.616452">
        <ele>88.108</ele>
        <time>2018-08-25T08:59:16Z</time>
      </trkpt>
      <trkpt lat="42.318008" lon="-8.616441">
        <ele>88.113</ele>
        <time>2018-08-25T08:59:18Z</time>
      </trkpt>
      <trkpt lat="42.318058" lon="-8.616425">
        <ele>88.179</ele>
        <time>2018-08-25T08:59:20Z</time>
      </trkpt>
      <trkpt lat="42.318117" lon="-8.616402">
        <ele>88.124</ele>
        <time>2018-08-25T08:59:22Z</time>
      </trkpt>
      <trkpt lat="42.318171" lon="-8.616373">
        <ele>88.088</ele>
        <time>2018-08-25T08:59:24Z</time>
      </trkpt>
      <trkpt lat="42.318231" lon="-8.616340">
        <ele>88.065</ele>
        <time>2018-08-25T08:59:26Z</time>
      </trkpt>
      <trkpt lat="42.318287" lon="-8.616305">
        <ele>87.993</ele>
        <time>2018-08-25T08:59:28Z</time>
      </trkpt>
      <trkpt lat="42.318337" lon="-8.616269">
        <ele>87.731</ele>
        <time>2018-08-25T08:59:30Z</time>
      </trkpt>
      <trkpt lat="42.318388" lon="-8.616230">
        <ele>87.341</ele>
        <time>2018-08-25T08:59:32Z</time>
      </trkpt>
      <trkpt lat="42.318439" lon="-8.616190">
        <ele>86.833</ele>
        <time>2018-08-25T08:59:34Z</time>
      </trkpt>
      <trkpt lat="42.318490" lon="-8.616142">
        <ele>86.223</ele>
        <time>2018-08-25T08:59:36Z</time>
      </trkpt>
      <trkpt lat="42.318541" lon="-8.616088">
        <ele>85.715</ele>
        <time>2018-08-25T08:59:38Z</time>
      </trkpt>
      <trkpt lat="42.318592" lon="-8.616030">
        <ele>85.308</ele>
        <time>2018-08-25T08:59:40Z</time>
      </trkpt>
      <trkpt lat="42.318682" lon="-8.615929">
        <ele>85.175</ele>
        <time>2018-08-25T08:59:42Z</time>
      </trkpt>
      <trkpt lat="42.318732" lon="-8.615853">
        <ele>84.781</ele>
        <time>2018-08-25T08:59:44Z</time>
      </trkpt>
      <trkpt lat="42.318785" lon="-8.615771">
        <ele>84.296</ele>
        <time>2018-08-25T08:59:46Z</time>
      </trkpt>
      <trkpt lat="42.318840" lon="-8.615680">
        <ele>83.620</ele>
        <time>2018-08-25T08:59:48Z</time>
      </trkpt>
      <trkpt lat="42.318888" lon="-8.615588">
        <ele>82.917</ele>
        <time>2018-08-25T08:59:50Z</time>
      </trkpt>
      <trkpt lat="42.318936" lon="-8.615490">
        <ele>82.395</ele>
        <time>2018-08-25T08:59:52Z</time>
      </trkpt>
      <trkpt lat="42.318982" lon="-8.615390">
        <ele>82.373</ele>
        <time>2018-08-25T08:59:54Z</time>
      </trkpt>
      <trkpt lat="42.319028" lon="-8.615297">
        <ele>82.543</ele>
        <time>2018-08-25T08:59:56Z</time>
      </trkpt>
      <trkpt lat="42.319078" lon="-8.615207">
        <ele>82.781</ele>
        <time>2018-08-25T08:59:58Z</time>
      </trkpt>
      <trkpt lat="42.319133" lon="-8.615120">
        <ele>82.961</ele>
        <time>2018-08-25T09:00:00Z</time>
      </trkpt>
      <trkpt lat="42.319191" lon="-8.615034">
        <ele>83.017</ele>
        <time>2018-08-25T09:00:02Z</time>
      </trkpt>
      <trkpt lat="42.319225" lon="-8.614993">
        <ele>83.108</ele>
        <time>2018-08-25T09:00:03Z</time>
      </trkpt>
      <trkpt lat="42.319260" lon="-8.614948">
        <ele>83.290</ele>
        <time>2018-08-25T09:00:04Z</time>
      </trkpt>
      <trkpt lat="42.319297" lon="-8.614904">
        <ele>83.336</ele>
        <time>2018-08-25T09:00:05Z</time>
      </trkpt>
      <trkpt lat="42.319336" lon="-8.614859">
        <ele>83.531</ele>
        <time>2018-08-25T09:00:06Z</time>
      </trkpt>
      <trkpt lat="42.319373" lon="-8.614815">
        <ele>83.625</ele>
        <time>2018-08-25T09:00:07Z</time>
      </trkpt>
      <trkpt lat="42.319408" lon="-8.614773">
        <ele>83.552</ele>
        <time>2018-08-25T09:00:08Z</time>
      </trkpt>
      <trkpt lat="42.319448" lon="-8.614737">
        <ele>83.550</ele>
        <time>2018-08-25T09:00:09Z</time>
      </trkpt>
      <trkpt lat="42.319488" lon="-8.614702">
        <ele>83.698</ele>
        <time>2018-08-25T09:00:10Z</time>
      </trkpt>
      <trkpt lat="42.319529" lon="-8.614671">
        <ele>83.788</ele>
        <time>2018-08-25T09:00:11Z</time>
      </trkpt>
      <trkpt lat="42.319570" lon="-8.614641">
        <ele>83.811</ele>
        <time>2018-08-25T09:00:12Z</time>
      </trkpt>
      <trkpt lat="42.319612" lon="-8.614614">
        <ele>83.721</ele>
        <time>2018-08-25T09:00:13Z</time>
      </trkpt>
      <trkpt lat="42.319654" lon="-8.614592">
        <ele>83.603</ele>
        <time>2018-08-25T09:00:14Z</time>
      </trkpt>
      <trkpt lat="42.319698" lon="-8.614572">
        <ele>83.508</ele>
        <time>2018-08-25T09:00:15Z</time>
      </trkpt>
      <trkpt lat="42.319743" lon="-8.614554">
        <ele>83.523</ele>
        <time>2018-08-25T09:00:16Z</time>
      </trkpt>
      <trkpt lat="42.319788" lon="-8.614539">
        <ele>83.799</ele>
        <time>2018-08-25T09:00:17Z</time>
      </trkpt>
      <trkpt lat="42.319833" lon="-8.614525">
        <ele>83.864</ele>
        <time>2018-08-25T09:00:18Z</time>
      </trkpt>
      <trkpt lat="42.319898" lon="-8.614502">
        <ele>84.238</ele>
        <time>2018-08-25T09:00:20Z</time>
      </trkpt>
      <trkpt lat="42.319991" lon="-8.614504">
        <ele>84.255</ele>
        <time>2018-08-25T09:00:22Z</time>
      </trkpt>
      <trkpt lat="42.320040" lon="-8.614509">
        <ele>84.053</ele>
        <time>2018-08-25T09:00:23Z</time>
      </trkpt>
      <trkpt lat="42.320087" lon="-8.614516">
        <ele>83.761</ele>
        <time>2018-08-25T09:00:24Z</time>
      </trkpt>
      <trkpt lat="42.320135" lon="-8.614529">
        <ele>83.541</ele>
        <time>2018-08-25T09:00:25Z</time>
      </trkpt>
      <trkpt lat="42.320180" lon="-8.614541">
        <ele>83.546</ele>
        <time>2018-08-25T09:00:26Z</time>
      </trkpt>
      <trkpt lat="42.320258" lon="-8.614554">
        <ele>83.688</ele>
        <time>2018-08-25T09:00:28Z</time>
      </trkpt>
      <trkpt lat="42.320335" lon="-8.614581">
        <ele>83.516</ele>
        <time>2018-08-25T09:00:30Z</time>
      </trkpt>
      <trkpt lat="42.320414" lon="-8.614617">
        <ele>83.508</ele>
        <time>2018-08-25T09:00:32Z</time>
      </trkpt>
      <trkpt lat="42.320495" lon="-8.614675">
        <ele>83.686</ele>
        <time>2018-08-25T09:00:34Z</time>
      </trkpt>
      <trkpt lat="42.320533" lon="-8.614707">
        <ele>83.842</ele>
        <time>2018-08-25T09:00:35Z</time>
      </trkpt>
      <trkpt lat="42.320608" lon="-8.614757">
        <ele>83.927</ele>
        <time>2018-08-25T09:00:37Z</time>
      </trkpt>
      <trkpt lat="42.320673" lon="-8.614820">
        <ele>84.011</ele>
        <time>2018-08-25T09:00:39Z</time>
      </trkpt>
      <trkpt lat="42.320730" lon="-8.614885">
        <ele>84.098</ele>
        <time>2018-08-25T09:00:41Z</time>
      </trkpt>
      <trkpt lat="42.320797" lon="-8.614944">
        <ele>84.186</ele>
        <time>2018-08-25T09:00:43Z</time>
      </trkpt>
      <trkpt lat="42.320845" lon="-8.615001">
        <ele>84.464</ele>
        <time>2018-08-25T09:00:45Z</time>
      </trkpt>
      <trkpt lat="42.320885" lon="-8.615046">
        <ele>84.594</ele>
        <time>2018-08-25T09:00:47Z</time>
      </trkpt>
      <trkpt lat="42.320933" lon="-8.615096">
        <ele>84.887</ele>
        <time>2018-08-25T09:00:49Z</time>
      </trkpt>
      <trkpt lat="42.320984" lon="-8.615143">
        <ele>85.142</ele>
        <time>2018-08-25T09:00:51Z</time>
      </trkpt>
      <trkpt lat="42.321033" lon="-8.615178">
        <ele>85.226</ele>
        <time>2018-08-25T09:00:53Z</time>
      </trkpt>
      <trkpt lat="42.321076" lon="-8.615215">
        <ele>85.308</ele>
        <time>2018-08-25T09:00:55Z</time>
      </trkpt>
      <trkpt lat="42.321123" lon="-8.615247">
        <ele>85.250</ele>
        <time>2018-08-25T09:00:57Z</time>
      </trkpt>
      <trkpt lat="42.321169" lon="-8.615272">
        <ele>85.156</ele>
        <time>2018-08-25T09:00:59Z</time>
      </trkpt>
      <trkpt lat="42.321216" lon="-8.615292">
        <ele>85.061</ele>
        <time>2018-08-25T09:01:01Z</time>
      </trkpt>
      <trkpt lat="42.321261" lon="-8.615304">
        <ele>84.965</ele>
        <time>2018-08-25T09:01:03Z</time>
      </trkpt>
      <trkpt lat="42.321310" lon="-8.615315">
        <ele>84.942</ele>
        <time>2018-08-25T09:01:05Z</time>
      </trkpt>
      <trkpt lat="42.321359" lon="-8.615323">
        <ele>84.810</ele>
        <time>2018-08-25T09:01:07Z</time>
      </trkpt>
      <trkpt lat="42.321407" lon="-8.615325">
        <ele>84.698</ele>
        <time>2018-08-25T09:01:09Z</time>
      </trkpt>
      <trkpt lat="42.321458" lon="-8.615323">
        <ele>84.588</ele>
        <time>2018-08-25T09:01:11Z</time>
      </trkpt>
      <trkpt lat="42.321508" lon="-8.615309">
        <ele>84.566</ele>
        <time>2018-08-25T09:01:13Z</time>
      </trkpt>
      <trkpt lat="42.321560" lon="-8.615289">
        <ele>84.629</ele>
        <time>2018-08-25T09:01:15Z</time>
      </trkpt>
      <trkpt lat="42.321613" lon="-8.615264">
        <ele>84.621</ele>
        <time>2018-08-25T09:01:17Z</time>
      </trkpt>
      <trkpt lat="42.321672" lon="-8.615225">
        <ele>84.508</ele>
        <time>2018-08-25T09:01:19Z</time>
      </trkpt>
      <trkpt lat="42.321734" lon="-8.615188">
        <ele>84.518</ele>
        <time>2018-08-25T09:01:21Z</time>
      </trkpt>
      <trkpt lat="42.321797" lon="-8.615151">
        <ele>84.624</ele>
        <time>2018-08-25T09:01:23Z</time>
      </trkpt>
      <trkpt lat="42.321858" lon="-8.615108">
        <ele>84.679</ele>
        <time>2018-08-25T09:01:25Z</time>
      </trkpt>
      <trkpt lat="42.321915" lon="-8.615062">
        <ele>84.683</ele>
        <time>2018-08-25T09:01:27Z</time>
      </trkpt>
      <trkpt lat="42.321985" lon="-8.615005">
        <ele>84.860</ele>
        <time>2018-08-25T09:01:28Z</time>
      </trkpt>
      <trkpt lat="42.322031" lon="-8.614967">
        <ele>84.918</ele>
        <time>2018-08-25T09:01:30Z</time>
      </trkpt>
      <trkpt lat="42.322099" lon="-8.614896">
        <ele>85.036</ele>
        <time>2018-08-25T09:01:32Z</time>
      </trkpt>
      <trkpt lat="42.322145" lon="-8.614853">
        <ele>85.026</ele>
        <time>2018-08-25T09:01:34Z</time>
      </trkpt>
      <trkpt lat="42.322184" lon="-8.614816">
        <ele>84.845</ele>
        <time>2018-08-25T09:01:36Z</time>
      </trkpt>
      <trkpt lat="42.322230" lon="-8.614770">
        <ele>84.747</ele>
        <time>2018-08-25T09:01:38Z</time>
      </trkpt>
      <trkpt lat="42.322281" lon="-8.614710">
        <ele>84.911</ele>
        <time>2018-08-25T09:01:40Z</time>
      </trkpt>
      <trkpt lat="42.322330" lon="-8.614643">
        <ele>85.008</ele>
        <time>2018-08-25T09:01:42Z</time>
      </trkpt>
      <trkpt lat="42.322385" lon="-8.614561">
        <ele>85.056</ele>
        <time>2018-08-25T09:01:43Z</time>
      </trkpt>
      <trkpt lat="42.322421" lon="-8.614475">
        <ele>84.962</ele>
        <time>2018-08-25T09:01:45Z</time>
      </trkpt>
      <trkpt lat="42.322460" lon="-8.614389">
        <ele>84.757</ele>
        <time>2018-08-25T09:01:47Z</time>
      </trkpt>
      <trkpt lat="42.322496" lon="-8.614297">
        <ele>84.391</ele>
        <time>2018-08-25T09:01:49Z</time>
      </trkpt>
      <trkpt lat="42.322527" lon="-8.614195">
        <ele>84.248</ele>
        <time>2018-08-25T09:01:51Z</time>
      </trkpt>
      <trkpt lat="42.322561" lon="-8.614094">
        <ele>84.396</ele>
        <time>2018-08-25T09:01:53Z</time>
      </trkpt>
      <trkpt lat="42.322594" lon="-8.613993">
        <ele>84.484</ele>
        <time>2018-08-25T09:01:55Z</time>
      </trkpt>
      <trkpt lat="42.322631" lon="-8.613887">
        <ele>85.334</ele>
        <time>2018-08-25T09:01:57Z</time>
      </trkpt>
      <trkpt lat="42.322668" lon="-8.613781">
        <ele>86.412</ele>
        <time>2018-08-25T09:01:59Z</time>
      </trkpt>
      <trkpt lat="42.322708" lon="-8.613679">
        <ele>87.032</ele>
        <time>2018-08-25T09:02:01Z</time>
      </trkpt>
      <trkpt lat="42.322751" lon="-8.613580">
        <ele>87.405</ele>
        <time>2018-08-25T09:02:03Z</time>
      </trkpt>
      <trkpt lat="42.322806" lon="-8.613492">
        <ele>87.908</ele>
        <time>2018-08-25T09:02:05Z</time>
      </trkpt>
      <trkpt lat="42.322869" lon="-8.613414">
        <ele>88.483</ele>
        <time>2018-08-25T09:02:07Z</time>
      </trkpt>
      <trkpt lat="42.322922" lon="-8.613333">
        <ele>88.629</ele>
        <time>2018-08-25T09:02:09Z</time>
      </trkpt>
      <trkpt lat="42.322968" lon="-8.613266">
        <ele>89.144</ele>
        <time>2018-08-25T09:02:12Z</time>
      </trkpt>
      <trkpt lat="42.323008" lon="-8.613217">
        <ele>89.548</ele>
        <time>2018-08-25T09:02:14Z</time>
      </trkpt>
      <trkpt lat="42.323070" lon="-8.613155">
        <ele>89.985</ele>
        <time>2018-08-25T09:02:15Z</time>
      </trkpt>
      <trkpt lat="42.323141" lon="-8.613096">
        <ele>90.133</ele>
        <time>2018-08-25T09:02:17Z</time>
      </trkpt>
      <trkpt lat="42.323214" lon="-8.613044">
        <ele>89.961</ele>
        <time>2018-08-25T09:02:19Z</time>
      </trkpt>
      <trkpt lat="42.323285" lon="-8.612999">
        <ele>89.861</ele>
        <time>2018-08-25T09:02:21Z</time>
      </trkpt>
      <trkpt lat="42.323347" lon="-8.612940">
        <ele>89.755</ele>
        <time>2018-08-25T09:02:23Z</time>
      </trkpt>
      <trkpt lat="42.323404" lon="-8.612878">
        <ele>89.507</ele>
        <time>2018-08-25T09:02:25Z</time>
      </trkpt>
      <trkpt lat="42.323470" lon="-8.612817">
        <ele>89.417</ele>
        <time>2018-08-25T09:02:27Z</time>
      </trkpt>
      <trkpt lat="42.323544" lon="-8.612761">
        <ele>89.608</ele>
        <time>2018-08-25T09:02:29Z</time>
      </trkpt>
      <trkpt lat="42.323619" lon="-8.612704">
        <ele>89.887</ele>
        <time>2018-08-25T09:02:31Z</time>
      </trkpt>
      <trkpt lat="42.323693" lon="-8.612656">
        <ele>90.123</ele>
        <time>2018-08-25T09:02:33Z</time>
      </trkpt>
      <trkpt lat="42.323761" lon="-8.612601">
        <ele>90.378</ele>
        <time>2018-08-25T09:02:35Z</time>
      </trkpt>
      <trkpt lat="42.323807" lon="-8.612559">
        <ele>90.532</ele>
        <time>2018-08-25T09:02:37Z</time>
      </trkpt>
      <trkpt lat="42.323846" lon="-8.612519">
        <ele>90.879</ele>
        <time>2018-08-25T09:02:39Z</time>
      </trkpt>
      <trkpt lat="42.323930" lon="-8.612441">
        <ele>91.097</ele>
        <time>2018-08-25T09:02:41Z</time>
      </trkpt>
      <trkpt lat="42.323992" lon="-8.612386">
        <ele>91.095</ele>
        <time>2018-08-25T09:02:43Z</time>
      </trkpt>
      <trkpt lat="42.324056" lon="-8.612337">
        <ele>91.125</ele>
        <time>2018-08-25T09:02:45Z</time>
      </trkpt>
      <trkpt lat="42.324121" lon="-8.612286">
        <ele>91.111</ele>
        <time>2018-08-25T09:02:47Z</time>
      </trkpt>
      <trkpt lat="42.324167" lon="-8.612242">
        <ele>91.021</ele>
        <time>2018-08-25T09:02:49Z</time>
      </trkpt>
      <trkpt lat="42.324203" lon="-8.612196">
        <ele>90.703</ele>
        <time>2018-08-25T09:02:51Z</time>
      </trkpt>
      <trkpt lat="42.324249" lon="-8.612127">
        <ele>90.308</ele>
        <time>2018-08-25T09:02:52Z</time>
      </trkpt>
      <trkpt lat="42.324285" lon="-8.612039">
        <ele>89.893</ele>
        <time>2018-08-25T09:02:54Z</time>
      </trkpt>
      <trkpt lat="42.324318" lon="-8.611931">
        <ele>89.119</ele>
        <time>2018-08-25T09:02:56Z</time>
      </trkpt>
      <trkpt lat="42.324337" lon="-8.611872">
        <ele>88.734</ele>
        <time>2018-08-25T09:02:57Z</time>
      </trkpt>
      <trkpt lat="42.324354" lon="-8.611814">
        <ele>88.488</ele>
        <time>2018-08-25T09:02:58Z</time>
      </trkpt>
      <trkpt lat="42.324367" lon="-8.611752">
        <ele>88.255</ele>
        <time>2018-08-25T09:02:59Z</time>
      </trkpt>
      <trkpt lat="42.324376" lon="-8.611683">
        <ele>87.913</ele>
        <time>2018-08-25T09:03:00Z</time>
      </trkpt>
      <trkpt lat="42.324387" lon="-8.611611">
        <ele>87.321</ele>
        <time>2018-08-25T09:03:01Z</time>
      </trkpt>
      <trkpt lat="42.324390" lon="-8.611529">
        <ele>86.791</ele>
        <time>2018-08-25T09:03:02Z</time>
      </trkpt>
      <trkpt lat="42.324385" lon="-8.611439">
        <ele>86.212</ele>
        <time>2018-08-25T09:03:03Z</time>
      </trkpt>
      <trkpt lat="42.324373" lon="-8.611346">
        <ele>85.732</ele>
        <time>2018-08-25T09:03:04Z</time>
      </trkpt>
      <trkpt lat="42.324354" lon="-8.611250">
        <ele>85.305</ele>
        <time>2018-08-25T09:03:05Z</time>
      </trkpt>
      <trkpt lat="42.324332" lon="-8.611154">
        <ele>84.908</ele>
        <time>2018-08-25T09:03:06Z</time>
      </trkpt>
      <trkpt lat="42.324310" lon="-8.611059">
        <ele>84.543</ele>
        <time>2018-08-25T09:03:07Z</time>
      </trkpt>
      <trkpt lat="42.324290" lon="-8.610966">
        <ele>84.289</ele>
        <time>2018-08-25T09:03:08Z</time>
      </trkpt>
      <trkpt lat="42.324271" lon="-8.610875">
        <ele>84.124</ele>
        <time>2018-08-25T09:03:09Z</time>
      </trkpt>
      <trkpt lat="42.324252" lon="-8.610786">
        <ele>84.028</ele>
        <time>2018-08-25T09:03:10Z</time>
      </trkpt>
      <trkpt lat="42.324237" lon="-8.610697">
        <ele>83.825</ele>
        <time>2018-08-25T09:03:11Z</time>
      </trkpt>
      <trkpt lat="42.324227" lon="-8.610612">
        <ele>83.623</ele>
        <time>2018-08-25T09:03:12Z</time>
      </trkpt>
      <trkpt lat="42.324219" lon="-8.610527">
        <ele>83.661</ele>
        <time>2018-08-25T09:03:13Z</time>
      </trkpt>
      <trkpt lat="42.324211" lon="-8.610446">
        <ele>83.561</ele>
        <time>2018-08-25T09:03:14Z</time>
      </trkpt>
      <trkpt lat="42.324207" lon="-8.610369">
        <ele>83.243</ele>
        <time>2018-08-25T09:03:15Z</time>
      </trkpt>
      <trkpt lat="42.324206" lon="-8.610293">
        <ele>83.064</ele>
        <time>2018-08-25T09:03:16Z</time>
      </trkpt>
      <trkpt lat="42.324207" lon="-8.610219">
        <ele>82.910</ele>
        <time>2018-08-25T09:03:17Z</time>
      </trkpt>
      <trkpt lat="42.324210" lon="-8.610149">
        <ele>83.108</ele>
        <time>2018-08-25T09:03:18Z</time>
      </trkpt>
      <trkpt lat="42.324213" lon="-8.610082">
        <ele>83.376</ele>
        <time>2018-08-25T09:03:19Z</time>
      </trkpt>
      <trkpt lat="42.324217" lon="-8.610021">
        <ele>83.422</ele>
        <time>2018-08-25T09:03:20Z</time>
      </trkpt>
      <trkpt lat="42.324235" lon="-8.609911">
        <ele>83.647</ele>
        <time>2018-08-25T09:03:22Z</time>
      </trkpt>
      <trkpt lat="42.324249" lon="-8.609838">
        <ele>83.921</ele>
        <time>2018-08-25T09:03:24Z</time>
      </trkpt>
      <trkpt lat="42.324261" lon="-8.609779">
        <ele>84.238</ele>
        <time>2018-08-25T09:03:26Z</time>
      </trkpt>
      <trkpt lat="42.324282" lon="-8.609706">
        <ele>84.566</ele>
        <time>2018-08-25T09:03:28Z</time>
      </trkpt>
      <trkpt lat="42.324306" lon="-8.609631">
        <ele>84.744</ele>
        <time>2018-08-25T09:03:30Z</time>
      </trkpt>
      <trkpt lat="42.324328" lon="-8.609553">
        <ele>84.924</ele>
        <time>2018-08-25T09:03:32Z</time>
      </trkpt>
      <trkpt lat="42.324352" lon="-8.609477">
        <ele>85.168</ele>
        <time>2018-08-25T09:03:34Z</time>
      </trkpt>
      <trkpt lat="42.324385" lon="-8.609404">
        <ele>85.342</ele>
        <time>2018-08-25T09:03:36Z</time>
      </trkpt>
      <trkpt lat="42.324423" lon="-8.609336">
        <ele>85.526</ele>
        <time>2018-08-25T09:03:38Z</time>
      </trkpt>
      <trkpt lat="42.324461" lon="-8.609270">
        <ele>85.608</ele>
        <time>2018-08-25T09:03:40Z</time>
      </trkpt>
      <trkpt lat="42.324502" lon="-8.609209">
        <ele>85.618</ele>
        <time>2018-08-25T09:03:42Z</time>
      </trkpt>
      <trkpt lat="42.324545" lon="-8.609148">
        <ele>85.684</ele>
        <time>2018-08-25T09:03:44Z</time>
      </trkpt>
      <trkpt lat="42.324589" lon="-8.609090">
        <ele>85.579</ele>
        <time>2018-08-25T09:03:46Z</time>
      </trkpt>
      <trkpt lat="42.324634" lon="-8.609034">
        <ele>85.423</ele>
        <time>2018-08-25T09:03:48Z</time>
      </trkpt>
      <trkpt lat="42.324679" lon="-8.608980">
        <ele>85.370</ele>
        <time>2018-08-25T09:03:50Z</time>
      </trkpt>
      <trkpt lat="42.324722" lon="-8.608921">
        <ele>85.398</ele>
        <time>2018-08-25T09:03:52Z</time>
      </trkpt>
      <trkpt lat="42.324766" lon="-8.608864">
        <ele>85.336</ele>
        <time>2018-08-25T09:03:54Z</time>
      </trkpt>
      <trkpt lat="42.324811" lon="-8.608808">
        <ele>85.366</ele>
        <time>2018-08-25T09:03:56Z</time>
      </trkpt>
      <trkpt lat="42.324852" lon="-8.608755">
        <ele>85.463</ele>
        <time>2018-08-25T09:03:58Z</time>
      </trkpt>
      <trkpt lat="42.324894" lon="-8.608706">
        <ele>85.444</ele>
        <time>2018-08-25T09:04:00Z</time>
      </trkpt>
      <trkpt lat="42.324937" lon="-8.608651">
        <ele>85.418</ele>
        <time>2018-08-25T09:04:02Z</time>
      </trkpt>
      <trkpt lat="42.324981" lon="-8.608594">
        <ele>85.408</ele>
        <time>2018-08-25T09:04:04Z</time>
      </trkpt>
      <trkpt lat="42.325026" lon="-8.608540">
        <ele>85.578</ele>
        <time>2018-08-25T09:04:06Z</time>
      </trkpt>
      <trkpt lat="42.325071" lon="-8.608483">
        <ele>85.854</ele>
        <time>2018-08-25T09:04:08Z</time>
      </trkpt>
      <trkpt lat="42.325114" lon="-8.608429">
        <ele>86.089</ele>
        <time>2018-08-25T09:04:10Z</time>
      </trkpt>
      <trkpt lat="42.325158" lon="-8.608380">
        <ele>86.273</ele>
        <time>2018-08-25T09:04:12Z</time>
      </trkpt>
      <trkpt lat="42.325206" lon="-8.608330">
        <ele>86.560</ele>
        <time>2018-08-25T09:04:14Z</time>
      </trkpt>
      <trkpt lat="42.325259" lon="-8.608280">
        <ele>86.858</ele>
        <time>2018-08-25T09:04:16Z</time>
      </trkpt>
      <trkpt lat="42.325311" lon="-8.608236">
        <ele>87.056</ele>
        <time>2018-08-25T09:04:18Z</time>
      </trkpt>
      <trkpt lat="42.325363" lon="-8.608194">
        <ele>86.966</ele>
        <time>2018-08-25T09:04:20Z</time>
      </trkpt>
      <trkpt lat="42.325412" lon="-8.608144">
        <ele>86.782</ele>
        <time>2018-08-25T09:04:22Z</time>
      </trkpt>
      <trkpt lat="42.325454" lon="-8.608092">
        <ele>86.343</ele>
        <time>2018-08-25T09:04:24Z</time>
      </trkpt>
      <trkpt lat="42.325495" lon="-8.608034">
        <ele>86.317</ele>
        <time>2018-08-25T09:04:26Z</time>
      </trkpt>
      <trkpt lat="42.325537" lon="-8.607983">
        <ele>86.508</ele>
        <time>2018-08-25T09:04:28Z</time>
      </trkpt>
      <trkpt lat="42.325583" lon="-8.607932">
        <ele>86.690</ele>
        <time>2018-08-25T09:04:30Z</time>
      </trkpt>
      <trkpt lat="42.325636" lon="-8.607877">
        <ele>86.956</ele>
        <time>2018-08-25T09:04:32Z</time>
      </trkpt>
      <trkpt lat="42.325689" lon="-8.607821">
        <ele>87.221</ele>
        <time>2018-08-25T09:04:34Z</time>
      </trkpt>
      <trkpt lat="42.325739" lon="-8.607764">
        <ele>87.435</ele>
        <time>2018-08-25T09:04:36Z</time>
      </trkpt>
      <trkpt lat="42.325786" lon="-8.607705">
        <ele>87.682</ele>
        <time>2018-08-25T09:04:38Z</time>
      </trkpt>
      <trkpt lat="42.325832" lon="-8.607646">
        <ele>88.020</ele>
        <time>2018-08-25T09:04:40Z</time>
      </trkpt>
      <trkpt lat="42.325878" lon="-8.607592">
        <ele>88.848</ele>
        <time>2018-08-25T09:04:42Z</time>
      </trkpt>
      <trkpt lat="42.325921" lon="-8.607531">
        <ele>89.318</ele>
        <time>2018-08-25T09:04:44Z</time>
      </trkpt>
      <trkpt lat="42.325961" lon="-8.607471">
        <ele>89.936</ele>
        <time>2018-08-25T09:04:46Z</time>
      </trkpt>
      <trkpt lat="42.325998" lon="-8.607418">
        <ele>90.417</ele>
        <time>2018-08-25T09:04:48Z</time>
      </trkpt>
      <trkpt lat="42.326034" lon="-8.607364">
        <ele>90.918</ele>
        <time>2018-08-25T09:04:50Z</time>
      </trkpt>
      <trkpt lat="42.326068" lon="-8.607302">
        <ele>91.308</ele>
        <time>2018-08-25T09:04:52Z</time>
      </trkpt>
      <trkpt lat="42.326104" lon="-8.607242">
        <ele>91.895</ele>
        <time>2018-08-25T09:04:54Z</time>
      </trkpt>
      <trkpt lat="42.326137" lon="-8.607179">
        <ele>92.071</ele>
        <time>2018-08-25T09:04:56Z</time>
      </trkpt>
      <trkpt lat="42.326170" lon="-8.607109">
        <ele>92.376</ele>
        <time>2018-08-25T09:04:58Z</time>
      </trkpt>
      <trkpt lat="42.326205" lon="-8.607044">
        <ele>92.560</ele>
        <time>2018-08-25T09:05:00Z</time>
      </trkpt>
      <trkpt lat="42.326234" lon="-8.606984">
        <ele>92.677</ele>
        <time>2018-08-25T09:05:02Z</time>
      </trkpt>
      <trkpt lat="42.326258" lon="-8.606931">
        <ele>92.695</ele>
        <time>2018-08-25T09:05:04Z</time>
      </trkpt>
      <trkpt lat="42.326288" lon="-8.606883">
        <ele>92.593</ele>
        <time>2018-08-25T09:05:06Z</time>
      </trkpt>
      <trkpt lat="42.326318" lon="-8.606835">
        <ele>92.473</ele>
        <time>2018-08-25T09:05:08Z</time>
      </trkpt>
      <trkpt lat="42.326347" lon="-8.606781">
        <ele>92.424</ele>
        <time>2018-08-25T09:05:10Z</time>
      </trkpt>
      <trkpt lat="42.326376" lon="-8.606727">
        <ele>92.604</ele>
        <time>2018-08-25T09:05:12Z</time>
      </trkpt>
      <trkpt lat="42.326402" lon="-8.606676">
        <ele>93.014</ele>
        <time>2018-08-25T09:05:14Z</time>
      </trkpt>
      <trkpt lat="42.326430" lon="-8.606622">
        <ele>93.408</ele>
        <time>2018-08-25T09:05:16Z</time>
      </trkpt>
      <trkpt lat="42.326457" lon="-8.606567">
        <ele>93.984</ele>
        <time>2018-08-25T09:05:18Z</time>
      </trkpt>
      <trkpt lat="42.326486" lon="-8.606514">
        <ele>94.360</ele>
        <time>2018-08-25T09:05:20Z</time>
      </trkpt>
      <trkpt lat="42.326516" lon="-8.606466">
        <ele>94.785</ele>
        <time>2018-08-25T09:05:22Z</time>
      </trkpt>
      <trkpt lat="42.326547" lon="-8.606420">
        <ele>95.289</ele>
        <time>2018-08-25T09:05:24Z</time>
      </trkpt>
      <trkpt lat="42.326579" lon="-8.606374">
        <ele>95.736</ele>
        <time>2018-08-25T09:05:26Z</time>
      </trkpt>
      <trkpt lat="42.326611" lon="-8.606331">
        <ele>96.154</ele>
        <time>2018-08-25T09:05:28Z</time>
      </trkpt>
      <trkpt lat="42.326645" lon="-8.606287">
        <ele>96.322</ele>
        <time>2018-08-25T09:05:30Z</time>
      </trkpt>
      <trkpt lat="42.326679" lon="-8.606240">
        <ele>96.362</ele>
        <time>2018-08-25T09:05:32Z</time>
      </trkpt>
      <trkpt lat="42.326717" lon="-8.606190">
        <ele>96.245</ele>
        <time>2018-08-25T09:05:34Z</time>
      </trkpt>
      <trkpt lat="42.326759" lon="-8.606144">
        <ele>96.247</ele>
        <time>2018-08-25T09:05:36Z</time>
      </trkpt>
      <trkpt lat="42.326806" lon="-8.606101">
        <ele>96.311</ele>
        <time>2018-08-25T09:05:38Z</time>
      </trkpt>
      <trkpt lat="42.326852" lon="-8.606057">
        <ele>96.408</ele>
        <time>2018-08-25T09:05:40Z</time>
      </trkpt>
      <trkpt lat="42.326899" lon="-8.606012">
        <ele>96.516</ele>
        <time>2018-08-25T09:05:42Z</time>
      </trkpt>
      <trkpt lat="42.326944" lon="-8.605968">
        <ele>96.492</ele>
        <time>2018-08-25T09:05:44Z</time>
      </trkpt>
      <trkpt lat="42.326989" lon="-8.605925">
        <ele>96.317</ele>
        <time>2018-08-25T09:05:46Z</time>
      </trkpt>
      <trkpt lat="42.327034" lon="-8.605886">
        <ele>96.141</ele>
        <time>2018-08-25T09:05:48Z</time>
      </trkpt>
      <trkpt lat="42.327079" lon="-8.605855">
        <ele>96.098</ele>
        <time>2018-08-25T09:05:50Z</time>
      </trkpt>
      <trkpt lat="42.327128" lon="-8.605826">
        <ele>95.976</ele>
        <time>2018-08-25T09:05:52Z</time>
      </trkpt>
      <trkpt lat="42.327177" lon="-8.605799">
        <ele>95.954</ele>
        <time>2018-08-25T09:05:54Z</time>
      </trkpt>
      <trkpt lat="42.327225" lon="-8.605771">
        <ele>95.944</ele>
        <time>2018-08-25T09:05:56Z</time>
      </trkpt>
      <trkpt lat="42.327272" lon="-8.605747">
        <ele>96.023</ele>
        <time>2018-08-25T09:05:58Z</time>
      </trkpt>
      <trkpt lat="42.327316" lon="-8.605726">
        <ele>96.183</ele>
        <time>2018-08-25T09:06:00Z</time>
      </trkpt>
      <trkpt lat="42.327361" lon="-8.605707">
        <ele>96.411</ele>
        <time>2018-08-25T09:06:02Z</time>
      </trkpt>
      <trkpt lat="42.327408" lon="-8.605692">
        <ele>96.708</ele>
        <time>2018-08-25T09:06:04Z</time>
      </trkpt>
      <trkpt lat="42.327455" lon="-8.605679">
        <ele>97.094</ele>
        <time>2018-08-25T09:06:06Z</time>
      </trkpt>
      <trkpt lat="42.327504" lon="-8.605668">
        <ele>97.230</ele>
        <time>2018-08-25T09:06:08Z</time>
      </trkpt>
      <trkpt lat="42.327552" lon="-8.605662">
        <ele>97.565</ele>
        <time>2018-08-25T09:06:10Z</time>
      </trkpt>
      <trkpt lat="42.327598" lon="-8.605658">
        <ele>97.779</ele>
        <time>2018-08-25T09:06:12Z</time>
      </trkpt>
      <trkpt lat="42.327663" lon="-8.605650">
        <ele>97.876</ele>
        <time>2018-08-25T09:06:15Z</time>
      </trkpt>
      <trkpt lat="42.327729" lon="-8.605641">
        <ele>97.994</ele>
        <time>2018-08-25T09:06:18Z</time>
      </trkpt>
      <trkpt lat="42.327775" lon="-8.605644">
        <ele>97.962</ele>
        <time>2018-08-25T09:06:20Z</time>
      </trkpt>
      <trkpt lat="42.327826" lon="-8.605649">
        <ele>97.822</ele>
        <time>2018-08-25T09:06:22Z</time>
      </trkpt>
      <trkpt lat="42.327882" lon="-8.605654">
        <ele>97.647</ele>
        <time>2018-08-25T09:06:24Z</time>
      </trkpt>
      <trkpt lat="42.327937" lon="-8.605656">
        <ele>97.529</ele>
        <time>2018-08-25T09:06:26Z</time>
      </trkpt>
      <trkpt lat="42.327993" lon="-8.605657">
        <ele>97.521</ele>
        <time>2018-08-25T09:06:28Z</time>
      </trkpt>
      <trkpt lat="42.328043" lon="-8.605655">
        <ele>97.508</ele>
        <time>2018-08-25T09:06:30Z</time>
      </trkpt>
      <trkpt lat="42.328107" lon="-8.605653">
        <ele>97.396</ele>
        <time>2018-08-25T09:06:33Z</time>
      </trkpt>
      <trkpt lat="42.328152" lon="-8.605659">
        <ele>97.082</ele>
        <time>2018-08-25T09:06:35Z</time>
      </trkpt>
      <trkpt lat="42.328206" lon="-8.605675">
        <ele>97.177</ele>
        <time>2018-08-25T09:06:37Z</time>
      </trkpt>
      <trkpt lat="42.328257" lon="-8.605697">
        <ele>97.191</ele>
        <time>2018-08-25T09:06:39Z</time>
      </trkpt>
      <trkpt lat="42.328306" lon="-8.605722">
        <ele>97.248</ele>
        <time>2018-08-25T09:06:41Z</time>
      </trkpt>
      <trkpt lat="42.328353" lon="-8.605745">
        <ele>97.396</ele>
        <time>2018-08-25T09:06:43Z</time>
      </trkpt>
      <trkpt lat="42.328403" lon="-8.605771">
        <ele>97.794</ele>
        <time>2018-08-25T09:06:45Z</time>
      </trkpt>
      <trkpt lat="42.328453" lon="-8.605801">
        <ele>98.284</ele>
        <time>2018-08-25T09:06:47Z</time>
      </trkpt>
      <trkpt lat="42.328504" lon="-8.605833">
        <ele>98.337</ele>
        <time>2018-08-25T09:06:49Z</time>
      </trkpt>
      <trkpt lat="42.328553" lon="-8.605867">
        <ele>98.549</ele>
        <time>2018-08-25T09:06:51Z</time>
      </trkpt>
      <trkpt lat="42.328603" lon="-8.605902">
        <ele>98.913</ele>
        <time>2018-08-25T09:06:53Z</time>
      </trkpt>
      <trkpt lat="42.328658" lon="-8.605940">
        <ele>99.408</ele>
        <time>2018-08-25T09:06:55Z</time>
      </trkpt>
      <trkpt lat="42.328713" lon="-8.605981">
        <ele>99.835</ele>
        <time>2018-08-25T09:06:57Z</time>
      </trkpt>
      <trkpt lat="42.328766" lon="-8.606024">
        <ele>100.271</ele>
        <time>2018-08-25T09:06:59Z</time>
      </trkpt>
      <trkpt lat="42.328814" lon="-8.606073">
        <ele>100.646</ele>
        <time>2018-08-25T09:07:01Z</time>
      </trkpt>
      <trkpt lat="42.328860" lon="-8.606123">
        <ele>101.090</ele>
        <time>2018-08-25T09:07:03Z</time>
      </trkpt>
      <trkpt lat="42.328906" lon="-8.606166">
        <ele>101.427</ele>
        <time>2018-08-25T09:07:05Z</time>
      </trkpt>
      <trkpt lat="42.328951" lon="-8.606198">
        <ele>101.875</ele>
        <time>2018-08-25T09:07:07Z</time>
      </trkpt>
      <trkpt lat="42.328994" lon="-8.606230">
        <ele>102.393</ele>
        <time>2018-08-25T09:07:09Z</time>
      </trkpt>
      <trkpt lat="42.329042" lon="-8.606265">
        <ele>102.843</ele>
        <time>2018-08-25T09:07:11Z</time>
      </trkpt>
      <trkpt lat="42.329094" lon="-8.606304">
        <ele>103.384</ele>
        <time>2018-08-25T09:07:13Z</time>
      </trkpt>
      <trkpt lat="42.329147" lon="-8.606339">
        <ele>103.807</ele>
        <time>2018-08-25T09:07:15Z</time>
      </trkpt>
      <trkpt lat="42.329197" lon="-8.606367">
        <ele>104.317</ele>
        <time>2018-08-25T09:07:17Z</time>
      </trkpt>
      <trkpt lat="42.329247" lon="-8.606395">
        <ele>104.908</ele>
        <time>2018-08-25T09:07:19Z</time>
      </trkpt>
      <trkpt lat="42.329301" lon="-8.606411">
        <ele>105.410</ele>
        <time>2018-08-25T09:07:21Z</time>
      </trkpt>
      <trkpt lat="42.329355" lon="-8.606428">
        <ele>105.936</ele>
        <time>2018-08-25T09:07:23Z</time>
      </trkpt>
      <trkpt lat="42.329407" lon="-8.606447">
        <ele>106.491</ele>
        <time>2018-08-25T09:07:25Z</time>
      </trkpt>
      <trkpt lat="42.329455" lon="-8.606470">
        <ele>107.065</ele>
        <time>2018-08-25T09:07:27Z</time>
      </trkpt>
      <trkpt lat="42.329500" lon="-8.606496">
        <ele>107.742</ele>
        <time>2018-08-25T09:07:29Z</time>
      </trkpt>
      <trkpt lat="42.329544" lon="-8.606522">
        <ele>108.360</ele>
        <time>2018-08-25T09:07:31Z</time>
      </trkpt>
      <trkpt lat="42.329593" lon="-8.606549">
        <ele>109.028</ele>
        <time>2018-08-25T09:07:33Z</time>
      </trkpt>
      <trkpt lat="42.329646" lon="-8.606573">
        <ele>109.728</ele>
        <time>2018-08-25T09:07:35Z</time>
      </trkpt>
      <trkpt lat="42.329698" lon="-8.606596">
        <ele>110.478</ele>
        <time>2018-08-25T09:07:37Z</time>
      </trkpt>
      <trkpt lat="42.329753" lon="-8.606619">
        <ele>111.033</ele>
        <time>2018-08-25T09:07:39Z</time>
      </trkpt>
      <trkpt lat="42.329807" lon="-8.606642">
        <ele>111.326</ele>
        <time>2018-08-25T09:07:41Z</time>
      </trkpt>
      <trkpt lat="42.329859" lon="-8.606660">
        <ele>111.608</ele>
        <time>2018-08-25T09:07:43Z</time>
      </trkpt>
      <trkpt lat="42.329909" lon="-8.606677">
        <ele>111.919</ele>
        <time>2018-08-25T09:07:45Z</time>
      </trkpt>
      <trkpt lat="42.329960" lon="-8.606693">
        <ele>112.265</ele>
        <time>2018-08-25T09:07:47Z</time>
      </trkpt>
      <trkpt lat="42.330013" lon="-8.606707">
        <ele>112.580</ele>
        <time>2018-08-25T09:07:49Z</time>
      </trkpt>
      <trkpt lat="42.330070" lon="-8.606714">
        <ele>112.924</ele>
        <time>2018-08-25T09:07:51Z</time>
      </trkpt>
      <trkpt lat="42.330129" lon="-8.606715">
        <ele>113.241</ele>
        <time>2018-08-25T09:07:53Z</time>
      </trkpt>
      <trkpt lat="42.330190" lon="-8.606713">
        <ele>113.489</ele>
        <time>2018-08-25T09:07:55Z</time>
      </trkpt>
      <trkpt lat="42.330252" lon="-8.606718">
        <ele>113.657</ele>
        <time>2018-08-25T09:07:57Z</time>
      </trkpt>
      <trkpt lat="42.330314" lon="-8.606722">
        <ele>113.687</ele>
        <time>2018-08-25T09:07:59Z</time>
      </trkpt>
      <trkpt lat="42.330375" lon="-8.606728">
        <ele>113.845</ele>
        <time>2018-08-25T09:08:01Z</time>
      </trkpt>
      <trkpt lat="42.330437" lon="-8.606736">
        <ele>114.047</ele>
        <time>2018-08-25T09:08:03Z</time>
      </trkpt>
      <trkpt lat="42.330501" lon="-8.606741">
        <ele>114.311</ele>
        <time>2018-08-25T09:08:05Z</time>
      </trkpt>
      <trkpt lat="42.330564" lon="-8.606748">
        <ele>114.608</ele>
        <time>2018-08-25T09:08:07Z</time>
      </trkpt>
      <trkpt lat="42.330626" lon="-8.606757">
        <ele>115.086</ele>
        <time>2018-08-25T09:08:09Z</time>
      </trkpt>
      <trkpt lat="42.330690" lon="-8.606761">
        <ele>115.452</ele>
        <time>2018-08-25T09:08:11Z</time>
      </trkpt>
      <trkpt lat="42.330753" lon="-8.606762">
        <ele>115.717</ele>
        <time>2018-08-25T09:08:13Z</time>
      </trkpt>
      <trkpt lat="42.330813" lon="-8.606765">
        <ele>116.071</ele>
        <time>2018-08-25T09:08:15Z</time>
      </trkpt>
      <trkpt lat="42.330874" lon="-8.606769">
        <ele>116.378</ele>
        <time>2018-08-25T09:08:17Z</time>
      </trkpt>
      <trkpt lat="42.330937" lon="-8.606775">
        <ele>116.766</ele>
        <time>2018-08-25T09:08:19Z</time>
      </trkpt>
      <trkpt lat="42.330999" lon="-8.606783">
        <ele>117.194</ele>
        <time>2018-08-25T09:08:21Z</time>
      </trkpt>
      <trkpt lat="42.331061" lon="-8.606794">
        <ele>117.544</ele>
        <time>2018-08-25T09:08:23Z</time>
      </trkpt>
      <trkpt lat="42.331123" lon="-8.606801">
        <ele>117.863</ele>
        <time>2018-08-25T09:08:25Z</time>
      </trkpt>
      <trkpt lat="42.331185" lon="-8.606798">
        <ele>118.044</ele>
        <time>2018-08-25T09:08:27Z</time>
      </trkpt>
      <trkpt lat="42.331242" lon="-8.606797">
        <ele>118.118</ele>
        <time>2018-08-25T09:08:29Z</time>
      </trkpt>
      <trkpt lat="42.331296" lon="-8.606800">
        <ele>118.108</ele>
        <time>2018-08-25T09:08:31Z</time>
      </trkpt>
      <trkpt lat="42.331349" lon="-8.606805">
        <ele>118.098</ele>
        <time>2018-08-25T09:08:33Z</time>
      </trkpt>
      <trkpt lat="42.331403" lon="-8.606805">
        <ele>117.994</ele>
        <time>2018-08-25T09:08:35Z</time>
      </trkpt>
      <trkpt lat="42.331451" lon="-8.606807">
        <ele>117.829</ele>
        <time>2018-08-25T09:08:37Z</time>
      </trkpt>
      <trkpt lat="42.331496" lon="-8.606811">
        <ele>117.733</ele>
        <time>2018-08-25T09:08:39Z</time>
      </trkpt>
      <trkpt lat="42.331541" lon="-8.606814">
        <ele>117.720</ele>
        <time>2018-08-25T09:08:41Z</time>
      </trkpt>
      <trkpt lat="42.331587" lon="-8.606812">
        <ele>117.688</ele>
        <time>2018-08-25T09:08:43Z</time>
      </trkpt>
      <trkpt lat="42.331636" lon="-8.606810">
        <ele>117.666</ele>
        <time>2018-08-25T09:08:45Z</time>
      </trkpt>
      <trkpt lat="42.331687" lon="-8.606809">
        <ele>117.776</ele>
        <time>2018-08-25T09:08:47Z</time>
      </trkpt>
      <trkpt lat="42.331742" lon="-8.606812">
        <ele>117.861</ele>
        <time>2018-08-25T09:08:49Z</time>
      </trkpt>
      <trkpt lat="42.331795" lon="-8.606810">
        <ele>117.821</ele>
        <time>2018-08-25T09:08:51Z</time>
      </trkpt>
      <trkpt lat="42.331908" lon="-8.606804">
        <ele>117.913</ele>
        <time>2018-08-25T09:08:53Z</time>
      </trkpt>
      <trkpt lat="42.331988" lon="-8.606808">
        <ele>118.108</ele>
        <time>2018-08-25T09:08:55Z</time>
      </trkpt>
      <trkpt lat="42.332065" lon="-8.606807">
        <ele>118.458</ele>
        <time>2018-08-25T09:08:57Z</time>
      </trkpt>
      <trkpt lat="42.332147" lon="-8.606799">
        <ele>118.564</ele>
        <time>2018-08-25T09:08:59Z</time>
      </trkpt>
      <trkpt lat="42.332235" lon="-8.606793">
        <ele>118.599</ele>
        <time>2018-08-25T09:09:01Z</time>
      </trkpt>
      <trkpt lat="42.332322" lon="-8.606795">
        <ele>118.123</ele>
        <time>2018-08-25T09:09:03Z</time>
      </trkpt>
      <trkpt lat="42.332413" lon="-8.606799">
        <ele>117.740</ele>
        <time>2018-08-25T09:09:05Z</time>
      </trkpt>
      <trkpt lat="42.332459" lon="-8.606798">
        <ele>117.518</ele>
        <time>2018-08-25T09:09:06Z</time>
      </trkpt>
      <trkpt lat="42.332547" lon="-8.606784">
        <ele>117.186</ele>
        <time>2018-08-25T09:09:08Z</time>
      </trkpt>
      <trkpt lat="42.332592" lon="-8.606771">
        <ele>116.866</ele>
        <time>2018-08-25T09:09:09Z</time>
      </trkpt>
      <trkpt lat="42.332637" lon="-8.606762">
        <ele>116.635</ele>
        <time>2018-08-25T09:09:10Z</time>
      </trkpt>
      <trkpt lat="42.332724" lon="-8.606746">
        <ele>116.386</ele>
        <time>2018-08-25T09:09:12Z</time>
      </trkpt>
      <trkpt lat="42.332769" lon="-8.606733">
        <ele>116.014</ele>
        <time>2018-08-25T09:09:13Z</time>
      </trkpt>
      <trkpt lat="42.332819" lon="-8.606721">
        <ele>115.808</ele>
        <time>2018-08-25T09:09:14Z</time>
      </trkpt>
      <trkpt lat="42.332870" lon="-8.606714">
        <ele>115.545</ele>
        <time>2018-08-25T09:09:15Z</time>
      </trkpt>
      <trkpt lat="42.332923" lon="-8.606714">
        <ele>115.181</ele>
        <time>2018-08-25T09:09:16Z</time>
      </trkpt>
      <trkpt lat="42.332978" lon="-8.606711">
        <ele>114.866</ele>
        <time>2018-08-25T09:09:17Z</time>
      </trkpt>
      <trkpt lat="42.333033" lon="-8.606703">
        <ele>114.520</ele>
        <time>2018-08-25T09:09:18Z</time>
      </trkpt>
      <trkpt lat="42.333090" lon="-8.606696">
        <ele>114.377</ele>
        <time>2018-08-25T09:09:19Z</time>
      </trkpt>
      <trkpt lat="42.333142" lon="-8.606676">
        <ele>114.135</ele>
        <time>2018-08-25T09:09:20Z</time>
      </trkpt>
      <trkpt lat="42.333196" lon="-8.606659">
        <ele>114.023</ele>
        <time>2018-08-25T09:09:21Z</time>
      </trkpt>
      <trkpt lat="42.333254" lon="-8.606649">
        <ele>113.933</ele>
        <time>2018-08-25T09:09:22Z</time>
      </trkpt>
      <trkpt lat="42.333314" lon="-8.606645">
        <ele>113.948</ele>
        <time>2018-08-25T09:09:23Z</time>
      </trkpt>
      <trkpt lat="42.333370" lon="-8.606638">
        <ele>113.961</ele>
        <time>2018-08-25T09:09:24Z</time>
      </trkpt>
      <trkpt lat="42.333427" lon="-8.606638">
        <ele>114.117</ele>
        <time>2018-08-25T09:09:25Z</time>
      </trkpt>
      <trkpt lat="42.333483" lon="-8.606637">
        <ele>114.108</ele>
        <time>2018-08-25T09:09:26Z</time>
      </trkpt>
      <trkpt lat="42.333541" lon="-8.606635">
        <ele>114.126</ele>
        <time>2018-08-25T09:09:27Z</time>
      </trkpt>
      <trkpt lat="42.333604" lon="-8.606639">
        <ele>114.092</ele>
        <time>2018-08-25T09:09:28Z</time>
      </trkpt>
      <trkpt lat="42.333665" lon="-8.606642">
        <ele>113.967</ele>
        <time>2018-08-25T09:09:29Z</time>
      </trkpt>
      <trkpt lat="42.333723" lon="-8.606642">
        <ele>113.891</ele>
        <time>2018-08-25T09:09:30Z</time>
      </trkpt>
      <trkpt lat="42.333784" lon="-8.606641">
        <ele>113.648</ele>
        <time>2018-08-25T09:09:31Z</time>
      </trkpt>
      <trkpt lat="42.333846" lon="-8.606633">
        <ele>113.346</ele>
        <time>2018-08-25T09:09:32Z</time>
      </trkpt>
      <trkpt lat="42.333913" lon="-8.606632">
        <ele>112.924</ele>
        <time>2018-08-25T09:09:33Z</time>
      </trkpt>
      <trkpt lat="42.333980" lon="-8.606625">
        <ele>112.864</ele>
        <time>2018-08-25T09:09:34Z</time>
      </trkpt>
      <trkpt lat="42.334047" lon="-8.606616">
        <ele>112.933</ele>
        <time>2018-08-25T09:09:35Z</time>
      </trkpt>
      <trkpt lat="42.334112" lon="-8.606604">
        <ele>113.123</ele>
        <time>2018-08-25T09:09:36Z</time>
      </trkpt>
      <trkpt lat="42.334172" lon="-8.606584">
        <ele>113.315</ele>
        <time>2018-08-25T09:09:37Z</time>
      </trkpt>
      <trkpt lat="42.334230" lon="-8.606569">
        <ele>113.508</ele>
        <time>2018-08-25T09:09:38Z</time>
      </trkpt>
      <trkpt lat="42.334288" lon="-8.606558">
        <ele>113.775</ele>
        <time>2018-08-25T09:09:39Z</time>
      </trkpt>
      <trkpt lat="42.334344" lon="-8.606549">
        <ele>113.881</ele>
        <time>2018-08-25T09:09:40Z</time>
      </trkpt>
      <trkpt lat="42.334416" lon="-8.606555">
        <ele>114.046</ele>
        <time>2018-08-25T09:09:41Z</time>
      </trkpt>
      <trkpt lat="42.334487" lon="-8.606566">
        <ele>114.090</ele>
        <time>2018-08-25T09:09:42Z</time>
      </trkpt>
      <trkpt lat="42.334554" lon="-8.606562">
        <ele>114.367</ele>
        <time>2018-08-25T09:09:43Z</time>
      </trkpt>
      <trkpt lat="42.334628" lon="-8.606566">
        <ele>115.275</ele>
        <time>2018-08-25T09:09:44Z</time>
      </trkpt>
      <trkpt lat="42.334707" lon="-8.606584">
        <ele>115.643</ele>
        <time>2018-08-25T09:09:45Z</time>
      </trkpt>
      <trkpt lat="42.334790" lon="-8.606619">
        <ele>116.043</ele>
        <time>2018-08-25T09:09:46Z</time>
      </trkpt>
      <trkpt lat="42.334871" lon="-8.606646">
        <ele>115.913</ele>
        <time>2018-08-25T09:09:47Z</time>
      </trkpt>
      <trkpt lat="42.334948" lon="-8.606672">
        <ele>115.643</ele>
        <time>2018-08-25T09:09:48Z</time>
      </trkpt>
      <trkpt lat="42.335026" lon="-8.606703">
        <ele>115.007</ele>
        <time>2018-08-25T09:09:49Z</time>
      </trkpt>
      <trkpt lat="42.335102" lon="-8.606735">
        <ele>114.508</ele>
        <time>2018-08-25T09:09:50Z</time>
      </trkpt>
      <trkpt lat="42.335180" lon="-8.606768">
        <ele>114.283</ele>
        <time>2018-08-25T09:09:51Z</time>
      </trkpt>
      <trkpt lat="42.335258" lon="-8.606803">
        <ele>114.099</ele>
        <time>2018-08-25T09:09:52Z</time>
      </trkpt>
      <trkpt lat="42.335342" lon="-8.606843">
        <ele>113.634</ele>
        <time>2018-08-25T09:09:53Z</time>
      </trkpt>
      <trkpt lat="42.335430" lon="-8.606886">
        <ele>113.188</ele>
        <time>2018-08-25T09:09:54Z</time>
      </trkpt>
      <trkpt lat="42.335516" lon="-8.606929">
        <ele>112.615</ele>
        <time>2018-08-25T09:09:55Z</time>
      </trkpt>
      <trkpt lat="42.335602" lon="-8.606974">
        <ele>112.183</ele>
        <time>2018-08-25T09:09:56Z</time>
      </trkpt>
      <trkpt lat="42.335683" lon="-8.607010">
        <ele>111.391</ele>
        <time>2018-08-25T09:09:57Z</time>
      </trkpt>
      <trkpt lat="42.335773" lon="-8.607058">
        <ele>110.611</ele>
        <time>2018-08-25T09:09:58Z</time>
      </trkpt>
      <trkpt lat="42.335862" lon="-8.607102">
        <ele>109.999</ele>
        <time>2018-08-25T09:09:59Z</time>
      </trkpt>
      <trkpt lat="42.335949" lon="-8.607146">
        <ele>109.207</ele>
        <time>2018-08-25T09:10:00Z</time>
      </trkpt>
      <trkpt lat="42.336037" lon="-8.607190">
        <ele>108.527</ele>
        <time>2018-08-25T09:10:01Z</time>
      </trkpt>
      <trkpt lat="42.336125" lon="-8.607236">
        <ele>107.908</ele>
        <time>2018-08-25T09:10:02Z</time>
      </trkpt>
      <trkpt lat="42.336212" lon="-8.607281">
        <ele>107.451</ele>
        <time>2018-08-25T09:10:03Z</time>
      </trkpt>
      <trkpt lat="42.336298" lon="-8.607324">
        <ele>106.947</ele>
        <time>2018-08-25T09:10:04Z</time>
      </trkpt>
      <trkpt lat="42.336385" lon="-8.607365">
        <ele>106.462</ele>
        <time>2018-08-25T09:10:05Z</time>
      </trkpt>
      <trkpt lat="42.336472" lon="-8.607406">
        <ele>105.836</ele>
        <time>2018-08-25T09:10:06Z</time>
      </trkpt>
      <trkpt lat="42.336562" lon="-8.607446">
        <ele>105.283</ele>
        <time>2018-08-25T09:10:07Z</time>
      </trkpt>
      <trkpt lat="42.336649" lon="-8.607485">
        <ele>104.741</ele>
        <time>2018-08-25T09:10:08Z</time>
      </trkpt>
      <trkpt lat="42.336736" lon="-8.607520">
        <ele>104.139</ele>
        <time>2018-08-25T09:10:09Z</time>
      </trkpt>
      <trkpt lat="42.336824" lon="-8.607554">
        <ele>103.519</ele>
        <time>2018-08-25T09:10:10Z</time>
      </trkpt>
      <trkpt lat="42.336913" lon="-8.607590">
        <ele>102.987</ele>
        <time>2018-08-25T09:10:11Z</time>
      </trkpt>
      <trkpt lat="42.337006" lon="-8.607623">
        <ele>102.342</ele>
        <time>2018-08-25T09:10:12Z</time>
      </trkpt>
      <trkpt lat="42.337094" lon="-8.607661">
        <ele>101.726</ele>
        <time>2018-08-25T09:10:13Z</time>
      </trkpt>
      <trkpt lat="42.337183" lon="-8.607699">
        <ele>101.108</ele>
        <time>2018-08-25T09:10:14Z</time>
      </trkpt>
      <trkpt lat="42.337270" lon="-8.607738">
        <ele>100.540</ele>
        <time>2018-08-25T09:10:15Z</time>
      </trkpt>
      <trkpt lat="42.337357" lon="-8.607775">
        <ele>99.956</ele>
        <time>2018-08-25T09:10:16Z</time>
      </trkpt>
      <trkpt lat="42.337445" lon="-8.607811">
        <ele>99.381</ele>
        <time>2018-08-25T09:10:17Z</time>
      </trkpt>
      <trkpt lat="42.337532" lon="-8.607849">
        <ele>98.865</ele>
        <time>2018-08-25T09:10:18Z</time>
      </trkpt>
      <trkpt lat="42.337618" lon="-8.607888">
        <ele>98.372</ele>
        <time>2018-08-25T09:10:19Z</time>
      </trkpt>
      <trkpt lat="42.337705" lon="-8.607927">
        <ele>97.880</ele>
        <time>2018-08-25T09:10:20Z</time>
      </trkpt>
      <trkpt lat="42.337792" lon="-8.607966">
        <ele>97.348</ele>
        <time>2018-08-25T09:10:21Z</time>
      </trkpt>
      <trkpt lat="42.337878" lon="-8.608003">
        <ele>96.938</ele>
        <time>2018-08-25T09:10:22Z</time>
      </trkpt>
      <trkpt lat="42.337965" lon="-8.608041">
        <ele>96.426</ele>
        <time>2018-08-25T09:10:23Z</time>
      </trkpt>
      <trkpt lat="42.338052" lon="-8.608083">
        <ele>95.947</ele>
        <time>2018-08-25T09:10:24Z</time>
      </trkpt>
      <trkpt lat="42.338139" lon="-8.608125">
        <ele>95.411</ele>
        <time>2018-08-25T09:10:25Z</time>
      </trkpt>
      <trkpt lat="42.338228" lon="-8.608168">
        <ele>95.008</ele>
        <time>2018-08-25T09:10:26Z</time>
      </trkpt>
      <trkpt lat="42.338318" lon="-8.608213">
        <ele>94.814</ele>
        <time>2018-08-25T09:10:27Z</time>
      </trkpt>
      <trkpt lat="42.338406" lon="-8.608257">
        <ele>94.590</ele>
        <time>2018-08-25T09:10:28Z</time>
      </trkpt>
      <trkpt lat="42.338493" lon="-8.608300">
        <ele>94.145</ele>
        <time>2018-08-25T09:10:29Z</time>
      </trkpt>
      <trkpt lat="42.338581" lon="-8.608341">
        <ele>93.799</ele>
        <time>2018-08-25T09:10:30Z</time>
      </trkpt>
      <trkpt lat="42.338669" lon="-8.608379">
        <ele>93.266</ele>
        <time>2018-08-25T09:10:31Z</time>
      </trkpt>
      <trkpt lat="42.338757" lon="-8.608418">
        <ele>92.734</ele>
        <time>2018-08-25T09:10:32Z</time>
      </trkpt>
      <trkpt lat="42.338847" lon="-8.608465">
        <ele>92.292</ele>
        <time>2018-08-25T09:10:33Z</time>
      </trkpt>
      <trkpt lat="42.338937" lon="-8.608513">
        <ele>91.722</ele>
        <time>2018-08-25T09:10:34Z</time>
      </trkpt>
      <trkpt lat="42.339026" lon="-8.608559">
        <ele>91.249</ele>
        <time>2018-08-25T09:10:35Z</time>
      </trkpt>
      <trkpt lat="42.339113" lon="-8.608602">
        <ele>90.702</ele>
        <time>2018-08-25T09:10:36Z</time>
      </trkpt>
      <trkpt lat="42.339199" lon="-8.608642">
        <ele>90.222</ele>
        <time>2018-08-25T09:10:37Z</time>
      </trkpt>
      <trkpt lat="42.339281" lon="-8.608680">
        <ele>89.508</ele>
        <time>2018-08-25T09:10:38Z</time>
      </trkpt>
      <trkpt lat="42.339361" lon="-8.608719">
        <ele>88.646</ele>
        <time>2018-08-25T09:10:39Z</time>
      </trkpt>
      <trkpt lat="42.339443" lon="-8.608759">
        <ele>87.932</ele>
        <time>2018-08-25T09:10:40Z</time>
      </trkpt>
      <trkpt lat="42.339526" lon="-8.608799">
        <ele>87.397</ele>
        <time>2018-08-25T09:10:41Z</time>
      </trkpt>
      <trkpt lat="42.339609" lon="-8.608838">
        <ele>86.891</ele>
        <time>2018-08-25T09:10:42Z</time>
      </trkpt>
      <trkpt lat="42.339691" lon="-8.608878">
        <ele>86.348</ele>
        <time>2018-08-25T09:10:43Z</time>
      </trkpt>
      <trkpt lat="42.339773" lon="-8.608918">
        <ele>85.836</ele>
        <time>2018-08-25T09:10:44Z</time>
      </trkpt>
      <trkpt lat="42.339857" lon="-8.608963">
        <ele>85.374</ele>
        <time>2018-08-25T09:10:45Z</time>
      </trkpt>
      <trkpt lat="42.339940" lon="-8.609006">
        <ele>84.854</ele>
        <time>2018-08-25T09:10:46Z</time>
      </trkpt>
      <trkpt lat="42.340023" lon="-8.609050">
        <ele>84.379</ele>
        <time>2018-08-25T09:10:47Z</time>
      </trkpt>
      <trkpt lat="42.340109" lon="-8.609092">
        <ele>83.705</ele>
        <time>2018-08-25T09:10:48Z</time>
      </trkpt>
      <trkpt lat="42.340192" lon="-8.609134">
        <ele>83.125</ele>
        <time>2018-08-25T09:10:49Z</time>
      </trkpt>
      <trkpt lat="42.340277" lon="-8.609178">
        <ele>82.408</ele>
        <time>2018-08-25T09:10:50Z</time>
      </trkpt>
      <trkpt lat="42.340362" lon="-8.609219">
        <ele>81.559</ele>
        <time>2018-08-25T09:10:51Z</time>
      </trkpt>
      <trkpt lat="42.340447" lon="-8.609259">
        <ele>80.815</ele>
        <time>2018-08-25T09:10:52Z</time>
      </trkpt>
      <trkpt lat="42.340530" lon="-8.609298">
        <ele>80.120</ele>
        <time>2018-08-25T09:10:53Z</time>
      </trkpt>
      <trkpt lat="42.340615" lon="-8.609335">
        <ele>79.584</ele>
        <time>2018-08-25T09:10:54Z</time>
      </trkpt>
      <trkpt lat="42.340702" lon="-8.609367">
        <ele>78.991</ele>
        <time>2018-08-25T09:10:55Z</time>
      </trkpt>
      <trkpt lat="42.340786" lon="-8.609400">
        <ele>78.349</ele>
        <time>2018-08-25T09:10:56Z</time>
      </trkpt>
      <trkpt lat="42.340868" lon="-8.609439">
        <ele>77.737</ele>
        <time>2018-08-25T09:10:57Z</time>
      </trkpt>
      <trkpt lat="42.340952" lon="-8.609478">
        <ele>77.337</ele>
        <time>2018-08-25T09:10:58Z</time>
      </trkpt>
      <trkpt lat="42.341032" lon="-8.609517">
        <ele>77.146</ele>
        <time>2018-08-25T09:10:59Z</time>
      </trkpt>
      <trkpt lat="42.341111" lon="-8.609552">
        <ele>76.888</ele>
        <time>2018-08-25T09:11:00Z</time>
      </trkpt>
      <trkpt lat="42.341188" lon="-8.609589">
        <ele>76.416</ele>
        <time>2018-08-25T09:11:01Z</time>
      </trkpt>
      <trkpt lat="42.341261" lon="-8.609625">
        <ele>76.008</ele>
        <time>2018-08-25T09:11:02Z</time>
      </trkpt>
      <trkpt lat="42.341334" lon="-8.609662">
        <ele>75.666</ele>
        <time>2018-08-25T09:11:03Z</time>
      </trkpt>
      <trkpt lat="42.341406" lon="-8.609694">
        <ele>75.242</ele>
        <time>2018-08-25T09:11:04Z</time>
      </trkpt>
      <trkpt lat="42.341478" lon="-8.609727">
        <ele>74.817</ele>
        <time>2018-08-25T09:11:05Z</time>
      </trkpt>
      <trkpt lat="42.341552" lon="-8.609758">
        <ele>74.491</ele>
        <time>2018-08-25T09:11:06Z</time>
      </trkpt>
      <trkpt lat="42.341624" lon="-8.609791">
        <ele>74.028</ele>
        <time>2018-08-25T09:11:07Z</time>
      </trkpt>
      <trkpt lat="42.341695" lon="-8.609829">
        <ele>73.736</ele>
        <time>2018-08-25T09:11:08Z</time>
      </trkpt>
      <trkpt lat="42.341768" lon="-8.609863">
        <ele>73.374</ele>
        <time>2018-08-25T09:11:09Z</time>
      </trkpt>
      <trkpt lat="42.341841" lon="-8.609887">
        <ele>72.914</ele>
        <time>2018-08-25T09:11:10Z</time>
      </trkpt>
      <trkpt lat="42.341909" lon="-8.609916">
        <ele>72.466</ele>
        <time>2018-08-25T09:11:11Z</time>
      </trkpt>
      <trkpt lat="42.341971" lon="-8.609954">
        <ele>72.029</ele>
        <time>2018-08-25T09:11:12Z</time>
      </trkpt>
      <trkpt lat="42.342026" lon="-8.610003">
        <ele>72.221</ele>
        <time>2018-08-25T09:11:13Z</time>
      </trkpt>
      <trkpt lat="42.342075" lon="-8.610052">
        <ele>72.508</ele>
        <time>2018-08-25T09:11:14Z</time>
      </trkpt>
      <trkpt lat="42.342122" lon="-8.610092">
        <ele>72.738</ele>
        <time>2018-08-25T09:11:15Z</time>
      </trkpt>
      <trkpt lat="42.342162" lon="-8.610128">
        <ele>72.884</ele>
        <time>2018-08-25T09:11:16Z</time>
      </trkpt>
      <trkpt lat="42.342193" lon="-8.610176">
        <ele>72.919</ele>
        <time>2018-08-25T09:11:17Z</time>
      </trkpt>
      <trkpt lat="42.342232" lon="-8.610236">
        <ele>72.763</ele>
        <time>2018-08-25T09:11:19Z</time>
      </trkpt>
      <trkpt lat="42.342261" lon="-8.610293">
        <ele>72.610</ele>
        <time>2018-08-25T09:11:21Z</time>
      </trkpt>
      <trkpt lat="42.342297" lon="-8.610357">
        <ele>72.968</ele>
        <time>2018-08-25T09:11:23Z</time>
      </trkpt>
      <trkpt lat="42.342330" lon="-8.610421">
        <ele>73.646</ele>
        <time>2018-08-25T09:11:25Z</time>
      </trkpt>
      <trkpt lat="42.342372" lon="-8.610508">
        <ele>73.966</ele>
        <time>2018-08-25T09:11:26Z</time>
      </trkpt>
      <trkpt lat="42.342410" lon="-8.610592">
        <ele>74.183</ele>
        <time>2018-08-25T09:11:28Z</time>
      </trkpt>
      <trkpt lat="42.342437" lon="-8.610683">
        <ele>74.125</ele>
        <time>2018-08-25T09:11:30Z</time>
      </trkpt>
      <trkpt lat="42.342464" lon="-8.610773">
        <ele>74.217</ele>
        <time>2018-08-25T09:11:32Z</time>
      </trkpt>
      <trkpt lat="42.342490" lon="-8.610860">
        <ele>74.308</ele>
        <time>2018-08-25T09:11:35Z</time>
      </trkpt>
      <trkpt lat="42.342511" lon="-8.610932">
        <ele>74.440</ele>
        <time>2018-08-25T09:11:37Z</time>
      </trkpt>
      <trkpt lat="42.342531" lon="-8.611007">
        <ele>74.416</ele>
        <time>2018-08-25T09:11:39Z</time>
      </trkpt>
      <trkpt lat="42.342559" lon="-8.611087">
        <ele>74.431</ele>
        <time>2018-08-25T09:11:41Z</time>
      </trkpt>
      <trkpt lat="42.342593" lon="-8.611168">
        <ele>74.495</ele>
        <time>2018-08-25T09:11:43Z</time>
      </trkpt>
      <trkpt lat="42.342659" lon="-8.611301">
        <ele>74.342</ele>
        <time>2018-08-25T09:11:45Z</time>
      </trkpt>
      <trkpt lat="42.342717" lon="-8.611376">
        <ele>74.410</ele>
        <time>2018-08-25T09:11:47Z</time>
      </trkpt>
      <trkpt lat="42.342772" lon="-8.611471">
        <ele>74.728</ele>
        <time>2018-08-25T09:11:49Z</time>
      </trkpt>
      <trkpt lat="42.342805" lon="-8.611518">
        <ele>74.658</ele>
        <time>2018-08-25T09:11:50Z</time>
      </trkpt>
      <trkpt lat="42.342846" lon="-8.611555">
        <ele>74.618</ele>
        <time>2018-08-25T09:11:51Z</time>
      </trkpt>
      <trkpt lat="42.342888" lon="-8.611588">
        <ele>74.698</ele>
        <time>2018-08-25T09:11:52Z</time>
      </trkpt>
      <trkpt lat="42.342932" lon="-8.611620">
        <ele>74.517</ele>
        <time>2018-08-25T09:11:53Z</time>
      </trkpt>
      <trkpt lat="42.342979" lon="-8.611648">
        <ele>74.408</ele>
        <time>2018-08-25T09:11:54Z</time>
      </trkpt>
      <trkpt lat="42.343028" lon="-8.611677">
        <ele>74.243</ele>
        <time>2018-08-25T09:11:55Z</time>
      </trkpt>
      <trkpt lat="42.343079" lon="-8.611707">
        <ele>74.059</ele>
        <time>2018-08-25T09:11:56Z</time>
      </trkpt>
      <trkpt lat="42.343132" lon="-8.611733">
        <ele>73.844</ele>
        <time>2018-08-25T09:11:57Z</time>
      </trkpt>
      <trkpt lat="42.343187" lon="-8.611751">
        <ele>73.658</ele>
        <time>2018-08-25T09:11:58Z</time>
      </trkpt>
      <trkpt lat="42.343240" lon="-8.611756">
        <ele>73.165</ele>
        <time>2018-08-25T09:11:59Z</time>
      </trkpt>
      <trkpt lat="42.343296" lon="-8.611771">
        <ele>72.613</ele>
        <time>2018-08-25T09:12:00Z</time>
      </trkpt>
      <trkpt lat="42.343354" lon="-8.611782">
        <ele>72.261</ele>
        <time>2018-08-25T09:12:01Z</time>
      </trkpt>
      <trkpt lat="42.343418" lon="-8.611790">
        <ele>72.071</ele>
        <time>2018-08-25T09:12:02Z</time>
      </trkpt>
      <trkpt lat="42.343482" lon="-8.611789">
        <ele>72.029</ele>
        <time>2018-08-25T09:12:03Z</time>
      </trkpt>
      <trkpt lat="42.343543" lon="-8.611785">
        <ele>72.000</ele>
        <time>2018-08-25T09:12:04Z</time>
      </trkpt>
      <trkpt lat="42.343600" lon="-8.611777">
        <ele>71.920</ele>
        <time>2018-08-25T09:12:05Z</time>
      </trkpt>
      <trkpt lat="42.343658" lon="-8.611766">
        <ele>71.908</ele>
        <time>2018-08-25T09:12:06Z</time>
      </trkpt>
      <trkpt lat="42.343714" lon="-8.611755">
        <ele>71.984</ele>
        <time>2018-08-25T09:12:07Z</time>
      </trkpt>
      <trkpt lat="42.343770" lon="-8.611740">
        <ele>71.660</ele>
        <time>2018-08-25T09:12:08Z</time>
      </trkpt>
      <trkpt lat="42.343828" lon="-8.611722">
        <ele>71.425</ele>
        <time>2018-08-25T09:12:09Z</time>
      </trkpt>
      <trkpt lat="42.343887" lon="-8.611707">
        <ele>71.479</ele>
        <time>2018-08-25T09:12:10Z</time>
      </trkpt>
      <trkpt lat="42.343950" lon="-8.611704">
        <ele>71.426</ele>
        <time>2018-08-25T09:12:11Z</time>
      </trkpt>
      <trkpt lat="42.344008" lon="-8.611693">
        <ele>71.564</ele>
        <time>2018-08-25T09:12:12Z</time>
      </trkpt>
      <trkpt lat="42.344067" lon="-8.611674">
        <ele>71.632</ele>
        <time>2018-08-25T09:12:13Z</time>
      </trkpt>
      <trkpt lat="42.344122" lon="-8.611645">
        <ele>71.782</ele>
        <time>2018-08-25T09:12:14Z</time>
      </trkpt>
      <trkpt lat="42.344176" lon="-8.611618">
        <ele>71.881</ele>
        <time>2018-08-25T09:12:15Z</time>
      </trkpt>
      <trkpt lat="42.344223" lon="-8.611596">
        <ele>71.961</ele>
        <time>2018-08-25T09:12:16Z</time>
      </trkpt>
      <trkpt lat="42.344268" lon="-8.611589">
        <ele>72.017</ele>
        <time>2018-08-25T09:12:17Z</time>
      </trkpt>
      <trkpt lat="42.344356" lon="-8.611587">
        <ele>72.008</ele>
        <time>2018-08-25T09:12:19Z</time>
      </trkpt>
      <trkpt lat="42.344402" lon="-8.611586">
        <ele>72.180</ele>
        <time>2018-08-25T09:12:20Z</time>
      </trkpt>
      <trkpt lat="42.344448" lon="-8.611584">
        <ele>72.536</ele>
        <time>2018-08-25T09:12:21Z</time>
      </trkpt>
      <trkpt lat="42.344522" lon="-8.611571">
        <ele>72.561</ele>
        <time>2018-08-25T09:12:23Z</time>
      </trkpt>
      <trkpt lat="42.344597" lon="-8.611560">
        <ele>72.585</ele>
        <time>2018-08-25T09:12:25Z</time>
      </trkpt>
      <trkpt lat="42.344677" lon="-8.611552">
        <ele>72.752</ele>
        <time>2018-08-25T09:12:27Z</time>
      </trkpt>
      <trkpt lat="42.344750" lon="-8.611564">
        <ele>72.650</ele>
        <time>2018-08-25T09:12:29Z</time>
      </trkpt>
      <trkpt lat="42.344825" lon="-8.611593">
        <ele>72.398</ele>
        <time>2018-08-25T09:12:31Z</time>
      </trkpt>
      <trkpt lat="42.344905" lon="-8.611626">
        <ele>71.968</ele>
        <time>2018-08-25T09:12:33Z</time>
      </trkpt>
      <trkpt lat="42.344984" lon="-8.611641">
        <ele>71.633</ele>
        <time>2018-08-25T09:12:35Z</time>
      </trkpt>
      <trkpt lat="42.345071" lon="-8.611665">
        <ele>71.423</ele>
        <time>2018-08-25T09:12:37Z</time>
      </trkpt>
      <trkpt lat="42.345117" lon="-8.611685">
        <ele>71.315</ele>
        <time>2018-08-25T09:12:38Z</time>
      </trkpt>
      <trkpt lat="42.345200" lon="-8.611713">
        <ele>71.308</ele>
        <time>2018-08-25T09:12:40Z</time>
      </trkpt>
      <trkpt lat="42.345280" lon="-8.611733">
        <ele>71.325</ele>
        <time>2018-08-25T09:12:42Z</time>
      </trkpt>
      <trkpt lat="42.345340" lon="-8.611741">
        <ele>71.491</ele>
        <time>2018-08-25T09:12:44Z</time>
      </trkpt>
      <trkpt lat="42.345434" lon="-8.611740">
        <ele>71.446</ele>
        <time>2018-08-25T09:12:46Z</time>
      </trkpt>
      <trkpt lat="42.345515" lon="-8.611747">
        <ele>71.440</ele>
        <time>2018-08-25T09:12:48Z</time>
      </trkpt>
      <trkpt lat="42.345594" lon="-8.611764">
        <ele>71.417</ele>
        <time>2018-08-25T09:12:50Z</time>
      </trkpt>
      <trkpt lat="42.345673" lon="-8.611780">
        <ele>71.475</ele>
        <time>2018-08-25T09:12:52Z</time>
      </trkpt>
      <trkpt lat="42.345754" lon="-8.611796">
        <ele>71.433</ele>
        <time>2018-08-25T09:12:54Z</time>
      </trkpt>
      <trkpt lat="42.345830" lon="-8.611817">
        <ele>71.593</ele>
        <time>2018-08-25T09:12:56Z</time>
      </trkpt>
      <trkpt lat="42.345912" lon="-8.611830">
        <ele>71.492</ele>
        <time>2018-08-25T09:12:58Z</time>
      </trkpt>
      <trkpt lat="42.345991" lon="-8.611847">
        <ele>71.473</ele>
        <time>2018-08-25T09:13:00Z</time>
      </trkpt>
      <trkpt lat="42.346065" lon="-8.611867">
        <ele>71.520</ele>
        <time>2018-08-25T09:13:02Z</time>
      </trkpt>
      <trkpt lat="42.346139" lon="-8.611885">
        <ele>71.508</ele>
        <time>2018-08-25T09:13:04Z</time>
      </trkpt>
      <trkpt lat="42.346215" lon="-8.611908">
        <ele>71.821</ele>
        <time>2018-08-25T09:13:06Z</time>
      </trkpt>
      <trkpt lat="42.346288" lon="-8.611923">
        <ele>71.997</ele>
        <time>2018-08-25T09:13:08Z</time>
      </trkpt>
      <trkpt lat="42.346358" lon="-8.611936">
        <ele>71.852</ele>
        <time>2018-08-25T09:13:10Z</time>
      </trkpt>
      <trkpt lat="42.346432" lon="-8.611956">
        <ele>71.786</ele>
        <time>2018-08-25T09:13:12Z</time>
      </trkpt>
      <trkpt lat="42.346515" lon="-8.611975">
        <ele>71.633</ele>
        <time>2018-08-25T09:13:14Z</time>
      </trkpt>
      <trkpt lat="42.346594" lon="-8.611991">
        <ele>71.561</ele>
        <time>2018-08-25T09:13:16Z</time>
      </trkpt>
      <trkpt lat="42.346676" lon="-8.612006">
        <ele>71.399</ele>
        <time>2018-08-25T09:13:18Z</time>
      </trkpt>
      <trkpt lat="42.346760" lon="-8.612027">
        <ele>71.249</ele>
        <time>2018-08-25T09:13:20Z</time>
      </trkpt>
      <trkpt lat="42.346842" lon="-8.612049">
        <ele>71.134</ele>
        <time>2018-08-25T09:13:22Z</time>
      </trkpt>
      <trkpt lat="42.346924" lon="-8.612068">
        <ele>71.155</ele>
        <time>2018-08-25T09:13:24Z</time>
      </trkpt>
      <trkpt lat="42.347002" lon="-8.612084">
        <ele>71.110</ele>
        <time>2018-08-25T09:13:26Z</time>
      </trkpt>
      <trkpt lat="42.347076" lon="-8.612107">
        <ele>71.108</ele>
        <time>2018-08-25T09:13:28Z</time>
      </trkpt>
      <trkpt lat="42.347151" lon="-8.612138">
        <ele>71.115</ele>
        <time>2018-08-25T09:13:30Z</time>
      </trkpt>
      <trkpt lat="42.347226" lon="-8.612169">
        <ele>71.171</ele>
        <time>2018-08-25T09:13:32Z</time>
      </trkpt>
      <trkpt lat="42.347279" lon="-8.612189">
        <ele>71.136</ele>
        <time>2018-08-25T09:13:35Z</time>
      </trkpt>
      <trkpt lat="42.347340" lon="-8.612220">
        <ele>71.130</ele>
        <time>2018-08-25T09:13:38Z</time>
      </trkpt>
      <trkpt lat="42.347397" lon="-8.612235">
        <ele>71.137</ele>
        <time>2018-08-25T09:13:41Z</time>
      </trkpt>
      <trkpt lat="42.347452" lon="-8.612262">
        <ele>71.125</ele>
        <time>2018-08-25T09:16:11Z</time>
      </trkpt>
      <trkpt lat="42.347486" lon="-8.612327">
        <ele>70.963</ele>
        <time>2018-08-25T09:18:12Z</time>
      </trkpt>
      <trkpt lat="42.347544" lon="-8.612385">
        <ele>70.593</ele>
        <time>2018-08-25T09:18:15Z</time>
      </trkpt>
      <trkpt lat="42.347603" lon="-8.612458">
        <ele>70.385</ele>
        <time>2018-08-25T09:18:16Z</time>
      </trkpt>
      <trkpt lat="42.347685" lon="-8.612556">
        <ele>70.089</ele>
        <time>2018-08-25T09:18:19Z</time>
      </trkpt>
      <trkpt lat="42.347747" lon="-8.612611">
        <ele>69.717</ele>
        <time>2018-08-25T09:18:21Z</time>
      </trkpt>
      <trkpt lat="42.347811" lon="-8.612673">
        <ele>69.408</ele>
        <time>2018-08-25T09:18:23Z</time>
      </trkpt>
      <trkpt lat="42.347874" lon="-8.612744">
        <ele>69.160</ele>
        <time>2018-08-25T09:18:25Z</time>
      </trkpt>
      <trkpt lat="42.347936" lon="-8.612824">
        <ele>68.946</ele>
        <time>2018-08-25T09:18:27Z</time>
      </trkpt>
      <trkpt lat="42.347992" lon="-8.612908">
        <ele>68.741</ele>
        <time>2018-08-25T09:18:29Z</time>
      </trkpt>
      <trkpt lat="42.348050" lon="-8.612980">
        <ele>68.575</ele>
        <time>2018-08-25T09:18:31Z</time>
      </trkpt>
      <trkpt lat="42.348119" lon="-8.613048">
        <ele>68.452</ele>
        <time>2018-08-25T09:18:33Z</time>
      </trkpt>
      <trkpt lat="42.348181" lon="-8.613118">
        <ele>68.320</ele>
        <time>2018-08-25T09:18:35Z</time>
      </trkpt>
      <trkpt lat="42.348247" lon="-8.613186">
        <ele>68.288</ele>
        <time>2018-08-25T09:18:37Z</time>
      </trkpt>
      <trkpt lat="42.348315" lon="-8.613263">
        <ele>68.258</ele>
        <time>2018-08-25T09:18:39Z</time>
      </trkpt>
      <trkpt lat="42.348373" lon="-8.613347">
        <ele>68.296</ele>
        <time>2018-08-25T09:18:41Z</time>
      </trkpt>
      <trkpt lat="42.348406" lon="-8.613389">
        <ele>68.231</ele>
        <time>2018-08-25T09:18:42Z</time>
      </trkpt>
      <trkpt lat="42.348445" lon="-8.613427">
        <ele>68.224</ele>
        <time>2018-08-25T09:18:43Z</time>
      </trkpt>
      <trkpt lat="42.348483" lon="-8.613466">
        <ele>68.208</ele>
        <time>2018-08-25T09:18:44Z</time>
      </trkpt>
      <trkpt lat="42.348516" lon="-8.613508">
        <ele>68.251</ele>
        <time>2018-08-25T09:18:45Z</time>
      </trkpt>
      <trkpt lat="42.348583" lon="-8.613582">
        <ele>68.247</ele>
        <time>2018-08-25T09:18:47Z</time>
      </trkpt>
      <trkpt lat="42.348651" lon="-8.613661">
        <ele>68.172</ele>
        <time>2018-08-25T09:18:49Z</time>
      </trkpt>
      <trkpt lat="42.348682" lon="-8.613711">
        <ele>68.046</ele>
        <time>2018-08-25T09:18:50Z</time>
      </trkpt>
      <trkpt lat="42.348715" lon="-8.613757">
        <ele>67.913</ele>
        <time>2018-08-25T09:18:51Z</time>
      </trkpt>
      <trkpt lat="42.348750" lon="-8.613797">
        <ele>67.811</ele>
        <time>2018-08-25T09:18:52Z</time>
      </trkpt>
      <trkpt lat="42.348814" lon="-8.613879">
        <ele>67.669</ele>
        <time>2018-08-25T09:18:54Z</time>
      </trkpt>
      <trkpt lat="42.348842" lon="-8.613927">
        <ele>67.419</ele>
        <time>2018-08-25T09:18:55Z</time>
      </trkpt>
      <trkpt lat="42.348869" lon="-8.613976">
        <ele>67.259</ele>
        <time>2018-08-25T09:18:56Z</time>
      </trkpt>
      <trkpt lat="42.348893" lon="-8.614028">
        <ele>67.003</ele>
        <time>2018-08-25T09:18:57Z</time>
      </trkpt>
      <trkpt lat="42.348916" lon="-8.614086">
        <ele>66.823</ele>
        <time>2018-08-25T09:18:58Z</time>
      </trkpt>
      <trkpt lat="42.348941" lon="-8.614143">
        <ele>66.708</ele>
        <time>2018-08-25T09:18:59Z</time>
      </trkpt>
      <trkpt lat="42.348969" lon="-8.614197">
        <ele>66.877</ele>
        <time>2018-08-25T09:19:00Z</time>
      </trkpt>
      <trkpt lat="42.348992" lon="-8.614253">
        <ele>66.963</ele>
        <time>2018-08-25T09:19:01Z</time>
      </trkpt>
      <trkpt lat="42.349012" lon="-8.614316">
        <ele>67.058</ele>
        <time>2018-08-25T09:19:02Z</time>
      </trkpt>
      <trkpt lat="42.349030" lon="-8.614384">
        <ele>66.962</ele>
        <time>2018-08-25T09:19:03Z</time>
      </trkpt>
      <trkpt lat="42.349047" lon="-8.614454">
        <ele>66.799</ele>
        <time>2018-08-25T09:19:04Z</time>
      </trkpt>
      <trkpt lat="42.349067" lon="-8.614526">
        <ele>66.577</ele>
        <time>2018-08-25T09:19:05Z</time>
      </trkpt>
      <trkpt lat="42.349086" lon="-8.614604">
        <ele>66.275</ele>
        <time>2018-08-25T09:19:06Z</time>
      </trkpt>
      <trkpt lat="42.349101" lon="-8.614688">
        <ele>65.825</ele>
        <time>2018-08-25T09:19:07Z</time>
      </trkpt>
      <trkpt lat="42.349114" lon="-8.614775">
        <ele>65.477</ele>
        <time>2018-08-25T09:19:08Z</time>
      </trkpt>
      <trkpt lat="42.349123" lon="-8.614867">
        <ele>65.161</ele>
        <time>2018-08-25T09:19:09Z</time>
      </trkpt>
      <trkpt lat="42.349133" lon="-8.614960">
        <ele>64.827</ele>
        <time>2018-08-25T09:19:10Z</time>
      </trkpt>
      <trkpt lat="42.349147" lon="-8.615050">
        <ele>64.508</ele>
        <time>2018-08-25T09:19:11Z</time>
      </trkpt>
      <trkpt lat="42.349164" lon="-8.615135">
        <ele>64.389</ele>
        <time>2018-08-25T09:19:12Z</time>
      </trkpt>
      <trkpt lat="42.349181" lon="-8.615223">
        <ele>64.145</ele>
        <time>2018-08-25T09:19:13Z</time>
      </trkpt>
      <trkpt lat="42.349193" lon="-8.615315">
        <ele>63.820</ele>
        <time>2018-08-25T09:19:14Z</time>
      </trkpt>
      <trkpt lat="42.349207" lon="-8.615399">
        <ele>63.694</ele>
        <time>2018-08-25T09:19:15Z</time>
      </trkpt>
      <trkpt lat="42.349223" lon="-8.615480">
        <ele>63.571</ele>
        <time>2018-08-25T09:19:16Z</time>
      </trkpt>
      <trkpt lat="42.349238" lon="-8.615563">
        <ele>63.429</ele>
        <time>2018-08-25T09:19:17Z</time>
      </trkpt>
      <trkpt lat="42.349256" lon="-8.615645">
        <ele>63.347</ele>
        <time>2018-08-25T09:19:18Z</time>
      </trkpt>
      <trkpt lat="42.349278" lon="-8.615723">
        <ele>63.277</ele>
        <time>2018-08-25T09:19:19Z</time>
      </trkpt>
      <trkpt lat="42.349300" lon="-8.615799">
        <ele>63.216</ele>
        <time>2018-08-25T09:19:20Z</time>
      </trkpt>
      <trkpt lat="42.349320" lon="-8.615871">
        <ele>63.376</ele>
        <time>2018-08-25T09:19:21Z</time>
      </trkpt>
      <trkpt lat="42.349333" lon="-8.615944">
        <ele>63.513</ele>
        <time>2018-08-25T09:19:22Z</time>
      </trkpt>
      <trkpt lat="42.349345" lon="-8.616013">
        <ele>63.608</ele>
        <time>2018-08-25T09:19:23Z</time>
      </trkpt>
      <trkpt lat="42.349361" lon="-8.616078">
        <ele>63.783</ele>
        <time>2018-08-25T09:19:24Z</time>
      </trkpt>
      <trkpt lat="42.349378" lon="-8.616139">
        <ele>63.889</ele>
        <time>2018-08-25T09:19:25Z</time>
      </trkpt>
      <trkpt lat="42.349393" lon="-8.616199">
        <ele>63.984</ele>
        <time>2018-08-25T09:19:26Z</time>
      </trkpt>
      <trkpt lat="42.349416" lon="-8.616314">
        <ele>64.068</ele>
        <time>2018-08-25T09:19:28Z</time>
      </trkpt>
      <trkpt lat="42.349443" lon="-8.616424">
        <ele>64.135</ele>
        <time>2018-08-25T09:19:30Z</time>
      </trkpt>
      <trkpt lat="42.349469" lon="-8.616534">
        <ele>64.223</ele>
        <time>2018-08-25T09:19:32Z</time>
      </trkpt>
      <trkpt lat="42.349497" lon="-8.616643">
        <ele>64.311</ele>
        <time>2018-08-25T09:19:34Z</time>
      </trkpt>
      <trkpt lat="42.349522" lon="-8.616750">
        <ele>64.461</ele>
        <time>2018-08-25T09:19:36Z</time>
      </trkpt>
      <trkpt lat="42.349544" lon="-8.616857">
        <ele>64.421</ele>
        <time>2018-08-25T09:19:38Z</time>
      </trkpt>
      <trkpt lat="42.349561" lon="-8.616967">
        <ele>64.441</ele>
        <time>2018-08-25T09:19:40Z</time>
      </trkpt>
      <trkpt lat="42.349586" lon="-8.617071">
        <ele>64.305</ele>
        <time>2018-08-25T09:19:42Z</time>
      </trkpt>
      <trkpt lat="42.349609" lon="-8.617181">
        <ele>64.008</ele>
        <time>2018-08-25T09:19:44Z</time>
      </trkpt>
      <trkpt lat="42.349635" lon="-8.617289">
        <ele>63.834</ele>
        <time>2018-08-25T09:19:46Z</time>
      </trkpt>
      <trkpt lat="42.349667" lon="-8.617395">
        <ele>63.720</ele>
        <time>2018-08-25T09:19:48Z</time>
      </trkpt>
      <trkpt lat="42.349695" lon="-8.617494">
        <ele>63.615</ele>
        <time>2018-08-25T09:19:50Z</time>
      </trkpt>
      <trkpt lat="42.349718" lon="-8.617592">
        <ele>63.599</ele>
        <time>2018-08-25T09:19:52Z</time>
      </trkpt>
      <trkpt lat="42.349740" lon="-8.617695">
        <ele>63.676</ele>
        <time>2018-08-25T09:19:54Z</time>
      </trkpt>
      <trkpt lat="42.349754" lon="-8.617800">
        <ele>63.864</ele>
        <time>2018-08-25T09:19:56Z</time>
      </trkpt>
      <trkpt lat="42.349774" lon="-8.617905">
        <ele>63.912</ele>
        <time>2018-08-25T09:19:58Z</time>
      </trkpt>
      <trkpt lat="42.349794" lon="-8.618007">
        <ele>64.022</ele>
        <time>2018-08-25T09:20:00Z</time>
      </trkpt>
      <trkpt lat="42.349819" lon="-8.618108">
        <ele>64.156</ele>
        <time>2018-08-25T09:20:02Z</time>
      </trkpt>
      <trkpt lat="42.349847" lon="-8.618208">
        <ele>64.259</ele>
        <time>2018-08-25T09:20:04Z</time>
      </trkpt>
      <trkpt lat="42.349870" lon="-8.618309">
        <ele>64.314</ele>
        <time>2018-08-25T09:20:06Z</time>
      </trkpt>
      <trkpt lat="42.349889" lon="-8.618417">
        <ele>64.608</ele>
        <time>2018-08-25T09:20:08Z</time>
      </trkpt>
      <trkpt lat="42.349913" lon="-8.618522">
        <ele>64.927</ele>
        <time>2018-08-25T09:20:10Z</time>
      </trkpt>
      <trkpt lat="42.349940" lon="-8.618625">
        <ele>65.233</ele>
        <time>2018-08-25T09:20:12Z</time>
      </trkpt>
      <trkpt lat="42.349956" lon="-8.618728">
        <ele>65.348</ele>
        <time>2018-08-25T09:20:14Z</time>
      </trkpt>
      <trkpt lat="42.349971" lon="-8.618841">
        <ele>65.432</ele>
        <time>2018-08-25T09:20:16Z</time>
      </trkpt>
      <trkpt lat="42.349994" lon="-8.618948">
        <ele>65.549</ele>
        <time>2018-08-25T09:20:18Z</time>
      </trkpt>
      <trkpt lat="42.350015" lon="-8.619050">
        <ele>65.637</ele>
        <time>2018-08-25T09:20:20Z</time>
      </trkpt>
      <trkpt lat="42.350039" lon="-8.619146">
        <ele>65.725</ele>
        <time>2018-08-25T09:20:22Z</time>
      </trkpt>
      <trkpt lat="42.350063" lon="-8.619244">
        <ele>65.835</ele>
        <time>2018-08-25T09:20:24Z</time>
      </trkpt>
      <trkpt lat="42.350089" lon="-8.619346">
        <ele>65.948</ele>
        <time>2018-08-25T09:20:26Z</time>
      </trkpt>
      <trkpt lat="42.350114" lon="-8.619447">
        <ele>66.161</ele>
        <time>2018-08-25T09:20:28Z</time>
      </trkpt>
      <trkpt lat="42.350145" lon="-8.619548">
        <ele>66.317</ele>
        <time>2018-08-25T09:20:30Z</time>
      </trkpt>
      <trkpt lat="42.350175" lon="-8.619650">
        <ele>66.508</ele>
        <time>2018-08-25T09:20:32Z</time>
      </trkpt>
      <trkpt lat="42.350193" lon="-8.619756">
        <ele>66.556</ele>
        <time>2018-08-25T09:20:34Z</time>
      </trkpt>
      <trkpt lat="42.350219" lon="-8.619857">
        <ele>66.562</ele>
        <time>2018-08-25T09:20:36Z</time>
      </trkpt>
      <trkpt lat="42.350242" lon="-8.619954">
        <ele>66.877</ele>
        <time>2018-08-25T09:20:38Z</time>
      </trkpt>
      <trkpt lat="42.350266" lon="-8.620057">
        <ele>67.041</ele>
        <time>2018-08-25T09:20:40Z</time>
      </trkpt>
      <trkpt lat="42.350294" lon="-8.620159">
        <ele>67.188</ele>
        <time>2018-08-25T09:20:42Z</time>
      </trkpt>
      <trkpt lat="42.350322" lon="-8.620263">
        <ele>67.136</ele>
        <time>2018-08-25T09:20:44Z</time>
      </trkpt>
      <trkpt lat="42.350350" lon="-8.620364">
        <ele>67.014</ele>
        <time>2018-08-25T09:20:46Z</time>
      </trkpt>
      <trkpt lat="42.350368" lon="-8.620468">
        <ele>67.034</ele>
        <time>2018-08-25T09:20:48Z</time>
      </trkpt>
      <trkpt lat="42.350381" lon="-8.620563">
        <ele>67.078</ele>
        <time>2018-08-25T09:20:51Z</time>
      </trkpt>
      <trkpt lat="42.350393" lon="-8.620638">
        <ele>67.033</ele>
        <time>2018-08-25T09:20:53Z</time>
      </trkpt>
      <trkpt lat="42.350404" lon="-8.620716">
        <ele>67.126</ele>
        <time>2018-08-25T09:20:55Z</time>
      </trkpt>
      <trkpt lat="42.350415" lon="-8.620793">
        <ele>67.208</ele>
        <time>2018-08-25T09:20:57Z</time>
      </trkpt>
      <trkpt lat="42.350428" lon="-8.620867">
        <ele>67.489</ele>
        <time>2018-08-25T09:20:59Z</time>
      </trkpt>
      <trkpt lat="42.350442" lon="-8.620939">
        <ele>67.575</ele>
        <time>2018-08-25T09:21:01Z</time>
      </trkpt>
      <trkpt lat="42.350458" lon="-8.621008">
        <ele>67.640</ele>
        <time>2018-08-25T09:21:03Z</time>
      </trkpt>
      <trkpt lat="42.350473" lon="-8.621075">
        <ele>67.984</ele>
        <time>2018-08-25T09:21:05Z</time>
      </trkpt>
      <trkpt lat="42.350489" lon="-8.621140">
        <ele>68.371</ele>
        <time>2018-08-25T09:21:07Z</time>
      </trkpt>
      <trkpt lat="42.350504" lon="-8.621202">
        <ele>68.789</ele>
        <time>2018-08-25T09:21:09Z</time>
      </trkpt>
      <trkpt lat="42.350520" lon="-8.621264">
        <ele>69.187</ele>
        <time>2018-08-25T09:21:11Z</time>
      </trkpt>
      <trkpt lat="42.350534" lon="-8.621328">
        <ele>69.537</ele>
        <time>2018-08-25T09:21:13Z</time>
      </trkpt>
      <trkpt lat="42.350548" lon="-8.621393">
        <ele>70.194</ele>
        <time>2018-08-25T09:21:15Z</time>
      </trkpt>
      <trkpt lat="42.350561" lon="-8.621460">
        <ele>70.557</ele>
        <time>2018-08-25T09:21:17Z</time>
      </trkpt>
      <trkpt lat="42.350572" lon="-8.621527">
        <ele>70.822</ele>
        <time>2018-08-25T09:21:19Z</time>
      </trkpt>
      <trkpt lat="42.350581" lon="-8.621593">
        <ele>71.208</ele>
        <time>2018-08-25T09:21:21Z</time>
      </trkpt>
      <trkpt lat="42.350584" lon="-8.621660">
        <ele>71.441</ele>
        <time>2018-08-25T09:21:23Z</time>
      </trkpt>
      <trkpt lat="42.350585" lon="-8.621729">
        <ele>71.717</ele>
        <time>2018-08-25T09:21:25Z</time>
      </trkpt>
      <trkpt lat="42.350589" lon="-8.621797">
        <ele>72.372</ele>
        <time>2018-08-25T09:21:27Z</time>
      </trkpt>
      <trkpt lat="42.350592" lon="-8.621867">
        <ele>73.066</ele>
        <time>2018-08-25T09:21:29Z</time>
      </trkpt>
      <trkpt lat="42.350595" lon="-8.621944">
        <ele>73.613</ele>
        <time>2018-08-25T09:21:31Z</time>
      </trkpt>
      <trkpt lat="42.350599" lon="-8.622022">
        <ele>74.241</ele>
        <time>2018-08-25T09:21:33Z</time>
      </trkpt>
      <trkpt lat="42.350598" lon="-8.622099">
        <ele>74.759</ele>
        <time>2018-08-25T09:21:35Z</time>
      </trkpt>
      <trkpt lat="42.350596" lon="-8.622171">
        <ele>75.019</ele>
        <time>2018-08-25T09:21:37Z</time>
      </trkpt>
      <trkpt lat="42.350592" lon="-8.622242">
        <ele>75.568</ele>
        <time>2018-08-25T09:21:39Z</time>
      </trkpt>
      <trkpt lat="42.350584" lon="-8.622312">
        <ele>75.742</ele>
        <time>2018-08-25T09:21:41Z</time>
      </trkpt>
      <trkpt lat="42.350576" lon="-8.622384">
        <ele>75.726</ele>
        <time>2018-08-25T09:21:43Z</time>
      </trkpt>
      <trkpt lat="42.350568" lon="-8.622459">
        <ele>75.708</ele>
        <time>2018-08-25T09:21:45Z</time>
      </trkpt>
      <trkpt lat="42.350562" lon="-8.622534">
        <ele>75.778</ele>
        <time>2018-08-25T09:21:47Z</time>
      </trkpt>
      <trkpt lat="42.350559" lon="-8.622607">
        <ele>75.634</ele>
        <time>2018-08-25T09:21:49Z</time>
      </trkpt>
      <trkpt lat="42.350556" lon="-8.622676">
        <ele>75.839</ele>
        <time>2018-08-25T09:21:51Z</time>
      </trkpt>
      <trkpt lat="42.350560" lon="-8.622742">
        <ele>76.053</ele>
        <time>2018-08-25T09:21:53Z</time>
      </trkpt>
      <trkpt lat="42.350566" lon="-8.622808">
        <ele>76.390</ele>
        <time>2018-08-25T09:21:55Z</time>
      </trkpt>
      <trkpt lat="42.350575" lon="-8.622875">
        <ele>76.698</ele>
        <time>2018-08-25T09:21:57Z</time>
      </trkpt>
      <trkpt lat="42.350587" lon="-8.622942">
        <ele>77.036</ele>
        <time>2018-08-25T09:21:59Z</time>
      </trkpt>
      <trkpt lat="42.350597" lon="-8.623010">
        <ele>77.696</ele>
        <time>2018-08-25T09:22:01Z</time>
      </trkpt>
      <trkpt lat="42.350612" lon="-8.623080">
        <ele>77.673</ele>
        <time>2018-08-25T09:22:03Z</time>
      </trkpt>
      <trkpt lat="42.350630" lon="-8.623149">
        <ele>77.585</ele>
        <time>2018-08-25T09:22:05Z</time>
      </trkpt>
      <trkpt lat="42.350648" lon="-8.623217">
        <ele>77.413</ele>
        <time>2018-08-25T09:22:07Z</time>
      </trkpt>
      <trkpt lat="42.350665" lon="-8.623283">
        <ele>77.308</ele>
        <time>2018-08-25T09:22:09Z</time>
      </trkpt>
      <trkpt lat="42.350689" lon="-8.623349">
        <ele>77.259</ele>
        <time>2018-08-25T09:22:11Z</time>
      </trkpt>
      <trkpt lat="42.350720" lon="-8.623412">
        <ele>77.065</ele>
        <time>2018-08-25T09:22:13Z</time>
      </trkpt>
      <trkpt lat="42.350749" lon="-8.623471">
        <ele>76.940</ele>
        <time>2018-08-25T09:22:15Z</time>
      </trkpt>
      <trkpt lat="42.350778" lon="-8.623530">
        <ele>76.724</ele>
        <time>2018-08-25T09:22:17Z</time>
      </trkpt>
      <trkpt lat="42.350806" lon="-8.623593">
        <ele>76.631</ele>
        <time>2018-08-25T09:22:19Z</time>
      </trkpt>
      <trkpt lat="42.350827" lon="-8.623661">
        <ele>76.419</ele>
        <time>2018-08-25T09:22:21Z</time>
      </trkpt>
      <trkpt lat="42.350851" lon="-8.623721">
        <ele>76.437</ele>
        <time>2018-08-25T09:22:23Z</time>
      </trkpt>
      <trkpt lat="42.350882" lon="-8.623773">
        <ele>76.477</ele>
        <time>2018-08-25T09:22:25Z</time>
      </trkpt>
      <trkpt lat="42.350923" lon="-8.623819">
        <ele>76.331</ele>
        <time>2018-08-25T09:22:27Z</time>
      </trkpt>
      <trkpt lat="42.350968" lon="-8.623862">
        <ele>76.161</ele>
        <time>2018-08-25T09:22:29Z</time>
      </trkpt>
      <trkpt lat="42.351016" lon="-8.623907">
        <ele>75.907</ele>
        <time>2018-08-25T09:22:31Z</time>
      </trkpt>
      <trkpt lat="42.351061" lon="-8.623951">
        <ele>75.808</ele>
        <time>2018-08-25T09:22:33Z</time>
      </trkpt>
      <trkpt lat="42.351107" lon="-8.623994">
        <ele>75.775</ele>
        <time>2018-08-25T09:22:35Z</time>
      </trkpt>
      <trkpt lat="42.351153" lon="-8.624033">
        <ele>75.511</ele>
        <time>2018-08-25T09:22:37Z</time>
      </trkpt>
      <trkpt lat="42.351198" lon="-8.624077">
        <ele>75.696</ele>
        <time>2018-08-25T09:22:39Z</time>
      </trkpt>
      <trkpt lat="42.351247" lon="-8.624119">
        <ele>75.730</ele>
        <time>2018-08-25T09:22:41Z</time>
      </trkpt>
      <trkpt lat="42.351299" lon="-8.624161">
        <ele>75.937</ele>
        <time>2018-08-25T09:22:43Z</time>
      </trkpt>
      <trkpt lat="42.351354" lon="-8.624207">
        <ele>76.085</ele>
        <time>2018-08-25T09:22:45Z</time>
      </trkpt>
      <trkpt lat="42.351412" lon="-8.624249">
        <ele>76.133</ele>
        <time>2018-08-25T09:22:47Z</time>
      </trkpt>
      <trkpt lat="42.351470" lon="-8.624291">
        <ele>76.123</ele>
        <time>2018-08-25T09:22:49Z</time>
      </trkpt>
      <trkpt lat="42.351529" lon="-8.624330">
        <ele>75.959</ele>
        <time>2018-08-25T09:22:51Z</time>
      </trkpt>
      <trkpt lat="42.351594" lon="-8.624360">
        <ele>75.603</ele>
        <time>2018-08-25T09:22:53Z</time>
      </trkpt>
      <trkpt lat="42.351655" lon="-8.624395">
        <ele>75.223</ele>
        <time>2018-08-25T09:22:55Z</time>
      </trkpt>
      <trkpt lat="42.351711" lon="-8.624437">
        <ele>74.908</ele>
        <time>2018-08-25T09:22:57Z</time>
      </trkpt>
      <trkpt lat="42.351765" lon="-8.624486">
        <ele>74.867</ele>
        <time>2018-08-25T09:22:59Z</time>
      </trkpt>
      <trkpt lat="42.351821" lon="-8.624542">
        <ele>74.943</ele>
        <time>2018-08-25T09:23:01Z</time>
      </trkpt>
      <trkpt lat="42.351889" lon="-8.624616">
        <ele>75.038</ele>
        <time>2018-08-25T09:23:02Z</time>
      </trkpt>
      <trkpt lat="42.351948" lon="-8.624679">
        <ele>74.912</ele>
        <time>2018-08-25T09:23:04Z</time>
      </trkpt>
      <trkpt lat="42.352011" lon="-8.624750">
        <ele>74.859</ele>
        <time>2018-08-25T09:23:06Z</time>
      </trkpt>
      <trkpt lat="42.352075" lon="-8.624838">
        <ele>74.567</ele>
        <time>2018-08-25T09:23:08Z</time>
      </trkpt>
      <trkpt lat="42.352110" lon="-8.624886">
        <ele>74.265</ele>
        <time>2018-08-25T09:23:09Z</time>
      </trkpt>
      <trkpt lat="42.352140" lon="-8.624940">
        <ele>73.755</ele>
        <time>2018-08-25T09:23:10Z</time>
      </trkpt>
      <trkpt lat="42.352168" lon="-8.624996">
        <ele>73.118</ele>
        <time>2018-08-25T09:23:11Z</time>
      </trkpt>
      <trkpt lat="42.352198" lon="-8.625050">
        <ele>72.498</ele>
        <time>2018-08-25T09:23:12Z</time>
      </trkpt>
      <trkpt lat="42.352230" lon="-8.625109">
        <ele>71.817</ele>
        <time>2018-08-25T09:23:13Z</time>
      </trkpt>
      <trkpt lat="42.352264" lon="-8.625169">
        <ele>71.208</ele>
        <time>2018-08-25T09:23:14Z</time>
      </trkpt>
      <trkpt lat="42.352303" lon="-8.625229">
        <ele>70.683</ele>
        <time>2018-08-25T09:23:15Z</time>
      </trkpt>
      <trkpt lat="42.352346" lon="-8.625291">
        <ele>70.249</ele>
        <time>2018-08-25T09:23:16Z</time>
      </trkpt>
      <trkpt lat="42.352391" lon="-8.625356">
        <ele>70.024</ele>
        <time>2018-08-25T09:23:17Z</time>
      </trkpt>
      <trkpt lat="42.352434" lon="-8.625420">
        <ele>69.918</ele>
        <time>2018-08-25T09:23:18Z</time>
      </trkpt>
      <trkpt lat="42.352478" lon="-8.625482">
        <ele>69.865</ele>
        <time>2018-08-25T09:23:19Z</time>
      </trkpt>
      <trkpt lat="42.352524" lon="-8.625540">
        <ele>69.853</ele>
        <time>2018-08-25T09:23:20Z</time>
      </trkpt>
      <trkpt lat="42.352572" lon="-8.625595">
        <ele>69.831</ele>
        <time>2018-08-25T09:23:21Z</time>
      </trkpt>
      <trkpt lat="42.352620" lon="-8.625649">
        <ele>69.981</ele>
        <time>2018-08-25T09:23:22Z</time>
      </trkpt>
      <trkpt lat="42.352663" lon="-8.625704">
        <ele>70.049</ele>
        <time>2018-08-25T09:23:23Z</time>
      </trkpt>
      <trkpt lat="42.352705" lon="-8.625758">
        <ele>70.102</ele>
        <time>2018-08-25T09:23:24Z</time>
      </trkpt>
      <trkpt lat="42.352748" lon="-8.625806">
        <ele>70.322</ele>
        <time>2018-08-25T09:23:25Z</time>
      </trkpt>
      <trkpt lat="42.352789" lon="-8.625848">
        <ele>70.408</ele>
        <time>2018-08-25T09:23:26Z</time>
      </trkpt>
      <trkpt lat="42.352830" lon="-8.625890">
        <ele>70.586</ele>
        <time>2018-08-25T09:23:27Z</time>
      </trkpt>
      <trkpt lat="42.352871" lon="-8.625932">
        <ele>70.772</ele>
        <time>2018-08-25T09:23:28Z</time>
      </trkpt>
      <trkpt lat="42.352908" lon="-8.625979">
        <ele>70.887</ele>
        <time>2018-08-25T09:23:29Z</time>
      </trkpt>
      <trkpt lat="42.352944" lon="-8.626022">
        <ele>70.961</ele>
        <time>2018-08-25T09:23:30Z</time>
      </trkpt>
      <trkpt lat="42.352980" lon="-8.626062">
        <ele>71.038</ele>
        <time>2018-08-25T09:23:31Z</time>
      </trkpt>
      <trkpt lat="42.353015" lon="-8.626100">
        <ele>71.036</ele>
        <time>2018-08-25T09:23:32Z</time>
      </trkpt>
      <trkpt lat="42.353085" lon="-8.626174">
        <ele>71.094</ele>
        <time>2018-08-25T09:23:34Z</time>
      </trkpt>
      <trkpt lat="42.353158" lon="-8.626242">
        <ele>71.184</ele>
        <time>2018-08-25T09:23:36Z</time>
      </trkpt>
      <trkpt lat="42.353232" lon="-8.626294">
        <ele>71.215</ele>
        <time>2018-08-25T09:23:38Z</time>
      </trkpt>
      <trkpt lat="42.353307" lon="-8.626343">
        <ele>71.365</ele>
        <time>2018-08-25T09:23:40Z</time>
      </trkpt>
      <trkpt lat="42.353384" lon="-8.626390">
        <ele>71.411</ele>
        <time>2018-08-25T09:23:42Z</time>
      </trkpt>
      <trkpt lat="42.353467" lon="-8.626431">
        <ele>71.408</ele>
        <time>2018-08-25T09:23:44Z</time>
      </trkpt>
      <trkpt lat="42.353550" lon="-8.626477">
        <ele>71.593</ele>
        <time>2018-08-25T09:23:46Z</time>
      </trkpt>
      <trkpt lat="42.353592" lon="-8.626500">
        <ele>71.589</ele>
        <time>2018-08-25T09:23:47Z</time>
      </trkpt>
      <trkpt lat="42.353635" lon="-8.626520">
        <ele>71.614</ele>
        <time>2018-08-25T09:23:48Z</time>
      </trkpt>
      <trkpt lat="42.353717" lon="-8.626561">
        <ele>71.738</ele>
        <time>2018-08-25T09:23:50Z</time>
      </trkpt>
      <trkpt lat="42.353792" lon="-8.626612">
        <ele>72.035</ele>
        <time>2018-08-25T09:23:52Z</time>
      </trkpt>
      <trkpt lat="42.353864" lon="-8.626646">
        <ele>72.193</ele>
        <time>2018-08-25T09:23:54Z</time>
      </trkpt>
      <trkpt lat="42.353937" lon="-8.626685">
        <ele>72.221</ele>
        <time>2018-08-25T09:23:56Z</time>
      </trkpt>
      <trkpt lat="42.354015" lon="-8.626721">
        <ele>72.341</ele>
        <time>2018-08-25T09:23:58Z</time>
      </trkpt>
      <trkpt lat="42.354093" lon="-8.626753">
        <ele>72.547</ele>
        <time>2018-08-25T09:24:00Z</time>
      </trkpt>
      <trkpt lat="42.354169" lon="-8.626780">
        <ele>72.529</ele>
        <time>2018-08-25T09:24:02Z</time>
      </trkpt>
      <trkpt lat="42.354247" lon="-8.626800">
        <ele>72.621</ele>
        <time>2018-08-25T09:24:04Z</time>
      </trkpt>
      <trkpt lat="42.354326" lon="-8.626818">
        <ele>72.708</ele>
        <time>2018-08-25T09:24:06Z</time>
      </trkpt>
      <trkpt lat="42.354405" lon="-8.626836">
        <ele>72.786</ele>
        <time>2018-08-25T09:24:08Z</time>
      </trkpt>
      <trkpt lat="42.354484" lon="-8.626856">
        <ele>72.842</ele>
        <time>2018-08-25T09:24:10Z</time>
      </trkpt>
      <trkpt lat="42.354563" lon="-8.626877">
        <ele>73.057</ele>
        <time>2018-08-25T09:24:12Z</time>
      </trkpt>
      <trkpt lat="42.354640" lon="-8.626896">
        <ele>73.131</ele>
        <time>2018-08-25T09:24:14Z</time>
      </trkpt>
      <trkpt lat="42.354716" lon="-8.626918">
        <ele>73.398</ele>
        <time>2018-08-25T09:24:16Z</time>
      </trkpt>
      <trkpt lat="42.354793" lon="-8.626940">
        <ele>73.536</ele>
        <time>2018-08-25T09:24:18Z</time>
      </trkpt>
      <trkpt lat="42.354871" lon="-8.626961">
        <ele>73.784</ele>
        <time>2018-08-25T09:24:20Z</time>
      </trkpt>
      <trkpt lat="42.354955" lon="-8.626974">
        <ele>74.144</ele>
        <time>2018-08-25T09:24:22Z</time>
      </trkpt>
      <trkpt lat="42.355039" lon="-8.626985">
        <ele>74.579</ele>
        <time>2018-08-25T09:24:24Z</time>
      </trkpt>
      <trkpt lat="42.355121" lon="-8.627000">
        <ele>74.705</ele>
        <time>2018-08-25T09:24:26Z</time>
      </trkpt>
      <trkpt lat="42.355203" lon="-8.627013">
        <ele>74.825</ele>
        <time>2018-08-25T09:24:28Z</time>
      </trkpt>
      <trkpt lat="42.355285" lon="-8.627029">
        <ele>74.908</ele>
        <time>2018-08-25T09:24:30Z</time>
      </trkpt>
      <trkpt lat="42.355367" lon="-8.627044">
        <ele>75.199</ele>
        <time>2018-08-25T09:24:32Z</time>
      </trkpt>
      <trkpt lat="42.355447" lon="-8.627063">
        <ele>75.315</ele>
        <time>2018-08-25T09:24:34Z</time>
      </trkpt>
      <trkpt lat="42.355526" lon="-8.627085">
        <ele>75.510</ele>
        <time>2018-08-25T09:24:36Z</time>
      </trkpt>
      <trkpt lat="42.355606" lon="-8.627106">
        <ele>75.624</ele>
        <time>2018-08-25T09:24:38Z</time>
      </trkpt>
      <trkpt lat="42.355683" lon="-8.627135">
        <ele>75.711</ele>
        <time>2018-08-25T09:24:40Z</time>
      </trkpt>
      <trkpt lat="42.355759" lon="-8.627176">
        <ele>75.759</ele>
        <time>2018-08-25T09:24:42Z</time>
      </trkpt>
      <trkpt lat="42.355838" lon="-8.627219">
        <ele>75.747</ele>
        <time>2018-08-25T09:24:44Z</time>
      </trkpt>
      <trkpt lat="42.355921" lon="-8.627254">
        <ele>75.647</ele>
        <time>2018-08-25T09:24:46Z</time>
      </trkpt>
      <trkpt lat="42.356001" lon="-8.627289">
        <ele>75.673</ele>
        <time>2018-08-25T09:24:48Z</time>
      </trkpt>
      <trkpt lat="42.356078" lon="-8.627337">
        <ele>75.785</ele>
        <time>2018-08-25T09:24:50Z</time>
      </trkpt>
      <trkpt lat="42.356157" lon="-8.627391">
        <ele>75.613</ele>
        <time>2018-08-25T09:24:52Z</time>
      </trkpt>
      <trkpt lat="42.356198" lon="-8.627418">
        <ele>75.508</ele>
        <time>2018-08-25T09:24:53Z</time>
      </trkpt>
      <trkpt lat="42.356241" lon="-8.627444">
        <ele>75.339</ele>
        <time>2018-08-25T09:24:54Z</time>
      </trkpt>
      <trkpt lat="42.356285" lon="-8.627469">
        <ele>75.165</ele>
        <time>2018-08-25T09:24:55Z</time>
      </trkpt>
      <trkpt lat="42.356330" lon="-8.627496">
        <ele>74.910</ele>
        <time>2018-08-25T09:24:56Z</time>
      </trkpt>
      <trkpt lat="42.356375" lon="-8.627526">
        <ele>74.774</ele>
        <time>2018-08-25T09:24:57Z</time>
      </trkpt>
      <trkpt lat="42.356423" lon="-8.627557">
        <ele>74.421</ele>
        <time>2018-08-25T09:24:58Z</time>
      </trkpt>
      <trkpt lat="42.356475" lon="-8.627589">
        <ele>74.169</ele>
        <time>2018-08-25T09:24:59Z</time>
      </trkpt>
      <trkpt lat="42.356529" lon="-8.627623">
        <ele>73.857</ele>
        <time>2018-08-25T09:25:00Z</time>
      </trkpt>
      <trkpt lat="42.356585" lon="-8.627659">
        <ele>73.417</ele>
        <time>2018-08-25T09:25:01Z</time>
      </trkpt>
      <trkpt lat="42.356642" lon="-8.627694">
        <ele>73.067</ele>
        <time>2018-08-25T09:25:02Z</time>
      </trkpt>
      <trkpt lat="42.356701" lon="-8.627730">
        <ele>72.681</ele>
        <time>2018-08-25T09:25:03Z</time>
      </trkpt>
      <trkpt lat="42.356761" lon="-8.627769">
        <ele>72.219</ele>
        <time>2018-08-25T09:25:04Z</time>
      </trkpt>
      <trkpt lat="42.356823" lon="-8.627810">
        <ele>71.808</ele>
        <time>2018-08-25T09:25:05Z</time>
      </trkpt>
      <trkpt lat="42.356887" lon="-8.627851">
        <ele>71.418</ele>
        <time>2018-08-25T09:25:06Z</time>
      </trkpt>
      <trkpt lat="42.356953" lon="-8.627891">
        <ele>71.024</ele>
        <time>2018-08-25T09:25:07Z</time>
      </trkpt>
      <trkpt lat="42.357019" lon="-8.627933">
        <ele>70.669</ele>
        <time>2018-08-25T09:25:08Z</time>
      </trkpt>
      <trkpt lat="42.357087" lon="-8.627977">
        <ele>70.243</ele>
        <time>2018-08-25T09:25:09Z</time>
      </trkpt>
      <trkpt lat="42.357156" lon="-8.628020">
        <ele>69.870</ele>
        <time>2018-08-25T09:25:10Z</time>
      </trkpt>
      <trkpt lat="42.357226" lon="-8.628063">
        <ele>69.428</ele>
        <time>2018-08-25T09:25:11Z</time>
      </trkpt>
      <trkpt lat="42.357296" lon="-8.628108">
        <ele>68.966</ele>
        <time>2018-08-25T09:25:12Z</time>
      </trkpt>
      <trkpt lat="42.357367" lon="-8.628156">
        <ele>68.596</ele>
        <time>2018-08-25T09:25:13Z</time>
      </trkpt>
      <trkpt lat="42.357438" lon="-8.628207">
        <ele>68.133</ele>
        <time>2018-08-25T09:25:14Z</time>
      </trkpt>
      <trkpt lat="42.357509" lon="-8.628258">
        <ele>67.723</ele>
        <time>2018-08-25T09:25:15Z</time>
      </trkpt>
      <trkpt lat="42.357580" lon="-8.628307">
        <ele>67.315</ele>
        <time>2018-08-25T09:25:16Z</time>
      </trkpt>
      <trkpt lat="42.357652" lon="-8.628352">
        <ele>66.908</ele>
        <time>2018-08-25T09:25:17Z</time>
      </trkpt>
      <trkpt lat="42.357725" lon="-8.628396">
        <ele>66.535</ele>
        <time>2018-08-25T09:25:18Z</time>
      </trkpt>
      <trkpt lat="42.357796" lon="-8.628442">
        <ele>66.181</ele>
        <time>2018-08-25T09:25:19Z</time>
      </trkpt>
      <trkpt lat="42.357866" lon="-8.628488">
        <ele>65.736</ele>
        <time>2018-08-25T09:25:20Z</time>
      </trkpt>
      <trkpt lat="42.357937" lon="-8.628531">
        <ele>65.480</ele>
        <time>2018-08-25T09:25:21Z</time>
      </trkpt>
      <trkpt lat="42.358007" lon="-8.628574">
        <ele>65.157</ele>
        <time>2018-08-25T09:25:22Z</time>
      </trkpt>
      <trkpt lat="42.358076" lon="-8.628616">
        <ele>64.955</ele>
        <time>2018-08-25T09:25:23Z</time>
      </trkpt>
      <trkpt lat="42.358144" lon="-8.628654">
        <ele>64.793</ele>
        <time>2018-08-25T09:25:24Z</time>
      </trkpt>
      <trkpt lat="42.358212" lon="-8.628691">
        <ele>64.523</ele>
        <time>2018-08-25T09:25:25Z</time>
      </trkpt>
      <trkpt lat="42.358279" lon="-8.628728">
        <ele>64.388</ele>
        <time>2018-08-25T09:25:26Z</time>
      </trkpt>
      <trkpt lat="42.358343" lon="-8.628762">
        <ele>64.224</ele>
        <time>2018-08-25T09:25:27Z</time>
      </trkpt>
      <trkpt lat="42.358405" lon="-8.628797">
        <ele>64.226</ele>
        <time>2018-08-25T09:25:28Z</time>
      </trkpt>
      <trkpt lat="42.358465" lon="-8.628830">
        <ele>64.208</ele>
        <time>2018-08-25T09:25:29Z</time>
      </trkpt>
      <trkpt lat="42.358523" lon="-8.628860">
        <ele>64.240</ele>
        <time>2018-08-25T09:25:30Z</time>
      </trkpt>
      <trkpt lat="42.358579" lon="-8.628893">
        <ele>64.276</ele>
        <time>2018-08-25T09:25:31Z</time>
      </trkpt>
      <trkpt lat="42.358632" lon="-8.628927">
        <ele>64.111</ele>
        <time>2018-08-25T09:25:32Z</time>
      </trkpt>
      <trkpt lat="42.358684" lon="-8.628959">
        <ele>64.035</ele>
        <time>2018-08-25T09:25:33Z</time>
      </trkpt>
      <trkpt lat="42.358735" lon="-8.628990">
        <ele>64.122</ele>
        <time>2018-08-25T09:25:34Z</time>
      </trkpt>
      <trkpt lat="42.358782" lon="-8.629020">
        <ele>64.160</ele>
        <time>2018-08-25T09:25:35Z</time>
      </trkpt>
      <trkpt lat="42.358828" lon="-8.629052">
        <ele>64.238</ele>
        <time>2018-08-25T09:25:36Z</time>
      </trkpt>
      <trkpt lat="42.358872" lon="-8.629079">
        <ele>64.338</ele>
        <time>2018-08-25T09:25:37Z</time>
      </trkpt>
      <trkpt lat="42.358914" lon="-8.629104">
        <ele>64.479</ele>
        <time>2018-08-25T09:25:38Z</time>
      </trkpt>
      <trkpt lat="42.358994" lon="-8.629150">
        <ele>64.505</ele>
        <time>2018-08-25T09:25:40Z</time>
      </trkpt>
      <trkpt lat="42.359074" lon="-8.629179">
        <ele>64.525</ele>
        <time>2018-08-25T09:25:42Z</time>
      </trkpt>
      <trkpt lat="42.359146" lon="-8.629209">
        <ele>64.508</ele>
        <time>2018-08-25T09:25:44Z</time>
      </trkpt>
      <trkpt lat="42.359216" lon="-8.629250">
        <ele>64.419</ele>
        <time>2018-08-25T09:25:46Z</time>
      </trkpt>
      <trkpt lat="42.359289" lon="-8.629295">
        <ele>64.335</ele>
        <time>2018-08-25T09:25:48Z</time>
      </trkpt>
      <trkpt lat="42.359365" lon="-8.629339">
        <ele>64.210</ele>
        <time>2018-08-25T09:25:50Z</time>
      </trkpt>
      <trkpt lat="42.359440" lon="-8.629389">
        <ele>63.994</ele>
        <time>2018-08-25T09:25:52Z</time>
      </trkpt>
      <trkpt lat="42.359513" lon="-8.629429">
        <ele>63.421</ele>
        <time>2018-08-25T09:25:54Z</time>
      </trkpt>
      <trkpt lat="42.359580" lon="-8.629467">
        <ele>62.999</ele>
        <time>2018-08-25T09:25:56Z</time>
      </trkpt>
      <trkpt lat="42.359643" lon="-8.629517">
        <ele>62.667</ele>
        <time>2018-08-25T09:25:58Z</time>
      </trkpt>
      <trkpt lat="42.359708" lon="-8.629564">
        <ele>62.487</ele>
        <time>2018-08-25T09:26:00Z</time>
      </trkpt>
      <trkpt lat="42.359775" lon="-8.629610">
        <ele>62.274</ele>
        <time>2018-08-25T09:26:02Z</time>
      </trkpt>
      <trkpt lat="42.359843" lon="-8.629652">
        <ele>62.156</ele>
        <time>2018-08-25T09:26:04Z</time>
      </trkpt>
      <trkpt lat="42.359906" lon="-8.629693">
        <ele>61.921</ele>
        <time>2018-08-25T09:26:07Z</time>
      </trkpt>
      <trkpt lat="42.359959" lon="-8.629728">
        <ele>61.608</ele>
        <time>2018-08-25T09:26:09Z</time>
      </trkpt>
      <trkpt lat="42.360012" lon="-8.629770">
        <ele>61.649</ele>
        <time>2018-08-25T09:26:11Z</time>
      </trkpt>
      <trkpt lat="42.360069" lon="-8.629817">
        <ele>61.625</ele>
        <time>2018-08-25T09:26:13Z</time>
      </trkpt>
      <trkpt lat="42.360131" lon="-8.629857">
        <ele>61.640</ele>
        <time>2018-08-25T09:26:15Z</time>
      </trkpt>
      <trkpt lat="42.360237" lon="-8.629919">
        <ele>61.524</ele>
        <time>2018-08-25T09:26:17Z</time>
      </trkpt>
      <trkpt lat="42.360303" lon="-8.629958">
        <ele>61.651</ele>
        <time>2018-08-25T09:26:19Z</time>
      </trkpt>
      <trkpt lat="42.360350" lon="-8.629997">
        <ele>61.969</ele>
        <time>2018-08-25T09:26:21Z</time>
      </trkpt>
      <trkpt lat="42.360398" lon="-8.630027">
        <ele>62.137</ele>
        <time>2018-08-25T09:26:22Z</time>
      </trkpt>
      <trkpt lat="42.360470" lon="-8.630059">
        <ele>62.477</ele>
        <time>2018-08-25T09:26:24Z</time>
      </trkpt>
      <trkpt lat="42.360540" lon="-8.630096">
        <ele>62.653</ele>
        <time>2018-08-25T09:26:26Z</time>
      </trkpt>
      <trkpt lat="42.360611" lon="-8.630131">
        <ele>62.704</ele>
        <time>2018-08-25T09:26:28Z</time>
      </trkpt>
      <trkpt lat="42.360679" lon="-8.630169">
        <ele>62.814</ele>
        <time>2018-08-25T09:26:30Z</time>
      </trkpt>
      <trkpt lat="42.360749" lon="-8.630202">
        <ele>62.908</ele>
        <time>2018-08-25T09:26:32Z</time>
      </trkpt>
      <trkpt lat="42.360817" lon="-8.630241">
        <ele>63.087</ele>
        <time>2018-08-25T09:26:34Z</time>
      </trkpt>
      <trkpt lat="42.360884" lon="-8.630290">
        <ele>63.183</ele>
        <time>2018-08-25T09:26:36Z</time>
      </trkpt>
      <trkpt lat="42.360953" lon="-8.630340">
        <ele>63.328</ele>
        <time>2018-08-25T09:26:38Z</time>
      </trkpt>
      <trkpt lat="42.361022" lon="-8.630382">
        <ele>63.472</ele>
        <time>2018-08-25T09:26:40Z</time>
      </trkpt>
      <trkpt lat="42.361092" lon="-8.630419">
        <ele>63.639</ele>
        <time>2018-08-25T09:26:42Z</time>
      </trkpt>
      <trkpt lat="42.361158" lon="-8.630461">
        <ele>63.787</ele>
        <time>2018-08-25T09:26:44Z</time>
      </trkpt>
      <trkpt lat="42.361222" lon="-8.630503">
        <ele>63.765</ele>
        <time>2018-08-25T09:26:46Z</time>
      </trkpt>
      <trkpt lat="42.361288" lon="-8.630549">
        <ele>64.055</ele>
        <time>2018-08-25T09:26:48Z</time>
      </trkpt>
      <trkpt lat="42.361353" lon="-8.630586">
        <ele>64.183</ele>
        <time>2018-08-25T09:26:51Z</time>
      </trkpt>
      <trkpt lat="42.361410" lon="-8.630618">
        <ele>64.125</ele>
        <time>2018-08-25T09:26:53Z</time>
      </trkpt>
      <trkpt lat="42.361471" lon="-8.630653">
        <ele>64.217</ele>
        <time>2018-08-25T09:26:55Z</time>
      </trkpt>
      <trkpt lat="42.361532" lon="-8.630692">
        <ele>64.408</ele>
        <time>2018-08-25T09:26:57Z</time>
      </trkpt>
      <trkpt lat="42.361593" lon="-8.630736">
        <ele>64.780</ele>
        <time>2018-08-25T09:26:59Z</time>
      </trkpt>
      <trkpt lat="42.361655" lon="-8.630777">
        <ele>64.996</ele>
        <time>2018-08-25T09:27:01Z</time>
      </trkpt>
      <trkpt lat="42.361715" lon="-8.630813">
        <ele>65.141</ele>
        <time>2018-08-25T09:27:03Z</time>
      </trkpt>
      <trkpt lat="42.361775" lon="-8.630850">
        <ele>65.495</ele>
        <time>2018-08-25T09:27:05Z</time>
      </trkpt>
      <trkpt lat="42.361833" lon="-8.630882">
        <ele>65.682</ele>
        <time>2018-08-25T09:27:07Z</time>
      </trkpt>
      <trkpt lat="42.361891" lon="-8.630910">
        <ele>65.840</ele>
        <time>2018-08-25T09:27:09Z</time>
      </trkpt>
      <trkpt lat="42.361945" lon="-8.630940">
        <ele>65.988</ele>
        <time>2018-08-25T09:27:11Z</time>
      </trkpt>
      <trkpt lat="42.361998" lon="-8.630971">
        <ele>65.998</ele>
        <time>2018-08-25T09:27:13Z</time>
      </trkpt>
      <trkpt lat="42.362050" lon="-8.631003">
        <ele>65.828</ele>
        <time>2018-08-25T09:27:15Z</time>
      </trkpt>
      <trkpt lat="42.362103" lon="-8.631033">
        <ele>65.789</ele>
        <time>2018-08-25T09:27:17Z</time>
      </trkpt>
      <trkpt lat="42.362155" lon="-8.631064">
        <ele>65.917</ele>
        <time>2018-08-25T09:27:19Z</time>
      </trkpt>
      <trkpt lat="42.362206" lon="-8.631095">
        <ele>66.008</ele>
        <time>2018-08-25T09:27:21Z</time>
      </trkpt>
      <trkpt lat="42.362255" lon="-8.631127">
        <ele>66.134</ele>
        <time>2018-08-25T09:27:23Z</time>
      </trkpt>
      <trkpt lat="42.362304" lon="-8.631158">
        <ele>66.180</ele>
        <time>2018-08-25T09:27:25Z</time>
      </trkpt>
      <trkpt lat="42.362354" lon="-8.631188">
        <ele>66.215</ele>
        <time>2018-08-25T09:27:27Z</time>
      </trkpt>
      <trkpt lat="42.362405" lon="-8.631215">
        <ele>66.339</ele>
        <time>2018-08-25T09:27:29Z</time>
      </trkpt>
      <trkpt lat="42.362455" lon="-8.631242">
        <ele>66.586</ele>
        <time>2018-08-25T09:27:31Z</time>
      </trkpt>
      <trkpt lat="42.362505" lon="-8.631269">
        <ele>66.824</ele>
        <time>2018-08-25T09:27:33Z</time>
      </trkpt>
      <trkpt lat="42.362555" lon="-8.631297">
        <ele>67.082</ele>
        <time>2018-08-25T09:27:35Z</time>
      </trkpt>
      <trkpt lat="42.362606" lon="-8.631329">
        <ele>67.442</ele>
        <time>2018-08-25T09:27:37Z</time>
      </trkpt>
      <trkpt lat="42.362657" lon="-8.631363">
        <ele>68.012</ele>
        <time>2018-08-25T09:27:39Z</time>
      </trkpt>
      <trkpt lat="42.362707" lon="-8.631395">
        <ele>68.632</ele>
        <time>2018-08-25T09:27:41Z</time>
      </trkpt>
      <trkpt lat="42.362756" lon="-8.631428">
        <ele>69.105</ele>
        <time>2018-08-25T09:27:43Z</time>
      </trkpt>
      <trkpt lat="42.362804" lon="-8.631458">
        <ele>69.508</ele>
        <time>2018-08-25T09:27:45Z</time>
      </trkpt>
      <trkpt lat="42.362852" lon="-8.631483">
        <ele>69.973</ele>
        <time>2018-08-25T09:27:47Z</time>
      </trkpt>
      <trkpt lat="42.362899" lon="-8.631511">
        <ele>70.489</ele>
        <time>2018-08-25T09:27:49Z</time>
      </trkpt>
      <trkpt lat="42.362947" lon="-8.631538">
        <ele>70.824</ele>
        <time>2018-08-25T09:27:51Z</time>
      </trkpt>
      <trkpt lat="42.362996" lon="-8.631567">
        <ele>71.348</ele>
        <time>2018-08-25T09:27:53Z</time>
      </trkpt>
      <trkpt lat="42.363048" lon="-8.631598">
        <ele>71.915</ele>
        <time>2018-08-25T09:27:55Z</time>
      </trkpt>
      <trkpt lat="42.363099" lon="-8.631627">
        <ele>72.463</ele>
        <time>2018-08-25T09:27:57Z</time>
      </trkpt>
      <trkpt lat="42.363150" lon="-8.631652">
        <ele>72.671</ele>
        <time>2018-08-25T09:27:59Z</time>
      </trkpt>
      <trkpt lat="42.363198" lon="-8.631678">
        <ele>72.761</ele>
        <time>2018-08-25T09:28:01Z</time>
      </trkpt>
      <trkpt lat="42.363248" lon="-8.631705">
        <ele>73.143</ele>
        <time>2018-08-25T09:28:03Z</time>
      </trkpt>
      <trkpt lat="42.363299" lon="-8.631731">
        <ele>73.664</ele>
        <time>2018-08-25T09:28:05Z</time>
      </trkpt>
      <trkpt lat="42.363349" lon="-8.631756">
        <ele>73.910</ele>
        <time>2018-08-25T09:28:07Z</time>
      </trkpt>
      <trkpt lat="42.363399" lon="-8.631787">
        <ele>74.308</ele>
        <time>2018-08-25T09:28:09Z</time>
      </trkpt>
      <trkpt lat="42.363447" lon="-8.631821">
        <ele>74.776</ele>
        <time>2018-08-25T09:28:11Z</time>
      </trkpt>
      <trkpt lat="42.363496" lon="-8.631853">
        <ele>75.122</ele>
        <time>2018-08-25T09:28:13Z</time>
      </trkpt>
      <trkpt lat="42.363545" lon="-8.631885">
        <ele>75.587</ele>
        <time>2018-08-25T09:28:15Z</time>
      </trkpt>
      <trkpt lat="42.363593" lon="-8.631919">
        <ele>75.971</ele>
        <time>2018-08-25T09:28:17Z</time>
      </trkpt>
      <trkpt lat="42.363640" lon="-8.631955">
        <ele>76.378</ele>
        <time>2018-08-25T09:28:19Z</time>
      </trkpt>
      <trkpt lat="42.363691" lon="-8.631982">
        <ele>76.566</ele>
        <time>2018-08-25T09:28:21Z</time>
      </trkpt>
      <trkpt lat="42.363743" lon="-8.632003">
        <ele>76.824</ele>
        <time>2018-08-25T09:28:23Z</time>
      </trkpt>
      <trkpt lat="42.363794" lon="-8.632032">
        <ele>77.174</ele>
        <time>2018-08-25T09:28:25Z</time>
      </trkpt>
      <trkpt lat="42.363846" lon="-8.632062">
        <ele>77.453</ele>
        <time>2018-08-25T09:28:27Z</time>
      </trkpt>
      <trkpt lat="42.363895" lon="-8.632095">
        <ele>77.604</ele>
        <time>2018-08-25T09:28:29Z</time>
      </trkpt>
      <trkpt lat="42.363942" lon="-8.632126">
        <ele>77.814</ele>
        <time>2018-08-25T09:28:31Z</time>
      </trkpt>
      <trkpt lat="42.363989" lon="-8.632159">
        <ele>78.008</ele>
        <time>2018-08-25T09:28:33Z</time>
      </trkpt>
      <trkpt lat="42.364038" lon="-8.632191">
        <ele>78.347</ele>
        <time>2018-08-25T09:28:35Z</time>
      </trkpt>
      <trkpt lat="42.364091" lon="-8.632222">
        <ele>78.543</ele>
        <time>2018-08-25T09:28:37Z</time>
      </trkpt>
      <trkpt lat="42.364142" lon="-8.632255">
        <ele>78.738</ele>
        <time>2018-08-25T09:28:39Z</time>
      </trkpt>
      <trkpt lat="42.364193" lon="-8.632286">
        <ele>78.952</ele>
        <time>2018-08-25T09:28:41Z</time>
      </trkpt>
      <trkpt lat="42.364241" lon="-8.632320">
        <ele>79.299</ele>
        <time>2018-08-25T09:28:43Z</time>
      </trkpt>
      <trkpt lat="42.364289" lon="-8.632353">
        <ele>79.247</ele>
        <time>2018-08-25T09:28:45Z</time>
      </trkpt>
      <trkpt lat="42.364336" lon="-8.632398">
        <ele>79.445</ele>
        <time>2018-08-25T09:28:47Z</time>
      </trkpt>
      <trkpt lat="42.364385" lon="-8.632442">
        <ele>79.425</ele>
        <time>2018-08-25T09:28:49Z</time>
      </trkpt>
      <trkpt lat="42.364435" lon="-8.632483">
        <ele>79.799</ele>
        <time>2018-08-25T09:28:51Z</time>
      </trkpt>
      <trkpt lat="42.364486" lon="-8.632518">
        <ele>80.007</ele>
        <time>2018-08-25T09:28:53Z</time>
      </trkpt>
      <trkpt lat="42.364534" lon="-8.632546">
        <ele>80.227</ele>
        <time>2018-08-25T09:28:55Z</time>
      </trkpt>
      <trkpt lat="42.364581" lon="-8.632574">
        <ele>80.408</ele>
        <time>2018-08-25T09:28:57Z</time>
      </trkpt>
      <trkpt lat="42.364627" lon="-8.632613">
        <ele>80.741</ele>
        <time>2018-08-25T09:28:59Z</time>
      </trkpt>
      <trkpt lat="42.364674" lon="-8.632648">
        <ele>81.197</ele>
        <time>2018-08-25T09:29:01Z</time>
      </trkpt>
      <trkpt lat="42.364724" lon="-8.632678">
        <ele>81.682</ele>
        <time>2018-08-25T09:29:03Z</time>
      </trkpt>
      <trkpt lat="42.364777" lon="-8.632700">
        <ele>82.196</ele>
        <time>2018-08-25T09:29:05Z</time>
      </trkpt>
      <trkpt lat="42.364830" lon="-8.632720">
        <ele>82.463</ele>
        <time>2018-08-25T09:29:07Z</time>
      </trkpt>
      <trkpt lat="42.364886" lon="-8.632741">
        <ele>82.811</ele>
        <time>2018-08-25T09:29:09Z</time>
      </trkpt>
      <trkpt lat="42.364938" lon="-8.632767">
        <ele>83.149</ele>
        <time>2018-08-25T09:29:11Z</time>
      </trkpt>
      <trkpt lat="42.364990" lon="-8.632796">
        <ele>83.519</ele>
        <time>2018-08-25T09:29:13Z</time>
      </trkpt>
      <trkpt lat="42.365045" lon="-8.632825">
        <ele>83.979</ele>
        <time>2018-08-25T09:29:15Z</time>
      </trkpt>
      <trkpt lat="42.365101" lon="-8.632854">
        <ele>84.305</ele>
        <time>2018-08-25T09:29:17Z</time>
      </trkpt>
      <trkpt lat="42.365160" lon="-8.632881">
        <ele>84.725</ele>
        <time>2018-08-25T09:29:19Z</time>
      </trkpt>
      <trkpt lat="42.365219" lon="-8.632909">
        <ele>85.108</ele>
        <time>2018-08-25T09:29:21Z</time>
      </trkpt>
      <trkpt lat="42.365276" lon="-8.632939">
        <ele>85.539</ele>
        <time>2018-08-25T09:29:23Z</time>
      </trkpt>
      <trkpt lat="42.365334" lon="-8.632966">
        <ele>85.825</ele>
        <time>2018-08-25T09:29:25Z</time>
      </trkpt>
      <trkpt lat="42.365393" lon="-8.632993">
        <ele>86.140</ele>
        <time>2018-08-25T09:29:27Z</time>
      </trkpt>
      <trkpt lat="42.365452" lon="-8.633017">
        <ele>86.384</ele>
        <time>2018-08-25T09:29:29Z</time>
      </trkpt>
      <trkpt lat="42.365513" lon="-8.633043">
        <ele>86.371</ele>
        <time>2018-08-25T09:29:31Z</time>
      </trkpt>
      <trkpt lat="42.365577" lon="-8.633068">
        <ele>86.549</ele>
        <time>2018-08-25T09:29:33Z</time>
      </trkpt>
      <trkpt lat="42.365640" lon="-8.633090">
        <ele>86.877</ele>
        <time>2018-08-25T09:29:35Z</time>
      </trkpt>
      <trkpt lat="42.365702" lon="-8.633110">
        <ele>87.097</ele>
        <time>2018-08-25T09:29:37Z</time>
      </trkpt>
      <trkpt lat="42.365765" lon="-8.633124">
        <ele>87.244</ele>
        <time>2018-08-25T09:29:39Z</time>
      </trkpt>
      <trkpt lat="42.365829" lon="-8.633140">
        <ele>87.305</ele>
        <time>2018-08-25T09:29:41Z</time>
      </trkpt>
      <trkpt lat="42.365896" lon="-8.633150">
        <ele>87.415</ele>
        <time>2018-08-25T09:29:43Z</time>
      </trkpt>
      <trkpt lat="42.365963" lon="-8.633163">
        <ele>87.508</ele>
        <time>2018-08-25T09:29:45Z</time>
      </trkpt>
      <trkpt lat="42.366029" lon="-8.633176">
        <ele>87.456</ele>
        <time>2018-08-25T09:29:47Z</time>
      </trkpt>
      <trkpt lat="42.366097" lon="-8.633191">
        <ele>87.522</ele>
        <time>2018-08-25T09:29:49Z</time>
      </trkpt>
      <trkpt lat="42.366214" lon="-8.633208">
        <ele>87.617</ele>
        <time>2018-08-25T09:29:51Z</time>
      </trkpt>
      <trkpt lat="42.366285" lon="-8.633223">
        <ele>87.691</ele>
        <time>2018-08-25T09:29:53Z</time>
      </trkpt>
      <trkpt lat="42.366356" lon="-8.633245">
        <ele>87.618</ele>
        <time>2018-08-25T09:29:55Z</time>
      </trkpt>
      <trkpt lat="42.366430" lon="-8.633262">
        <ele>87.676</ele>
        <time>2018-08-25T09:29:57Z</time>
      </trkpt>
      <trkpt lat="42.366504" lon="-8.633277">
        <ele>87.544</ele>
        <time>2018-08-25T09:29:59Z</time>
      </trkpt>
      <trkpt lat="42.366585" lon="-8.633289">
        <ele>87.484</ele>
        <time>2018-08-25T09:30:01Z</time>
      </trkpt>
      <trkpt lat="42.366665" lon="-8.633302">
        <ele>87.389</ele>
        <time>2018-08-25T09:30:03Z</time>
      </trkpt>
      <trkpt lat="42.366748" lon="-8.633315">
        <ele>87.206</ele>
        <time>2018-08-25T09:30:05Z</time>
      </trkpt>
      <trkpt lat="42.366831" lon="-8.633335">
        <ele>87.326</ele>
        <time>2018-08-25T09:30:07Z</time>
      </trkpt>
      <trkpt lat="42.366912" lon="-8.633345">
        <ele>87.408</ele>
        <time>2018-08-25T09:30:09Z</time>
      </trkpt>
      <trkpt lat="42.367000" lon="-8.633369">
        <ele>87.640</ele>
        <time>2018-08-25T09:30:11Z</time>
      </trkpt>
      <trkpt lat="42.367083" lon="-8.633388">
        <ele>87.866</ele>
        <time>2018-08-25T09:30:13Z</time>
      </trkpt>
      <trkpt lat="42.367165" lon="-8.633395">
        <ele>87.921</ele>
        <time>2018-08-25T09:30:15Z</time>
      </trkpt>
      <trkpt lat="42.367240" lon="-8.633405">
        <ele>88.225</ele>
        <time>2018-08-25T09:30:17Z</time>
      </trkpt>
      <trkpt lat="42.367290" lon="-8.633426">
        <ele>88.322</ele>
        <time>2018-08-25T09:30:19Z</time>
      </trkpt>
      <trkpt lat="42.367337" lon="-8.633437">
        <ele>88.490</ele>
        <time>2018-08-25T09:30:21Z</time>
      </trkpt>
      <trkpt lat="42.367401" lon="-8.633455">
        <ele>88.668</ele>
        <time>2018-08-25T09:30:22Z</time>
      </trkpt>
      <trkpt lat="42.367470" lon="-8.633474">
        <ele>88.748</ele>
        <time>2018-08-25T09:30:24Z</time>
      </trkpt>
      <trkpt lat="42.367523" lon="-8.633484">
        <ele>88.628</ele>
        <time>2018-08-25T09:30:26Z</time>
      </trkpt>
      <trkpt lat="42.367570" lon="-8.633501">
        <ele>88.589</ele>
        <time>2018-08-25T09:30:28Z</time>
      </trkpt>
      <trkpt lat="42.367625" lon="-8.633520">
        <ele>88.717</ele>
        <time>2018-08-25T09:30:30Z</time>
      </trkpt>
      <trkpt lat="42.367701" lon="-8.633541">
        <ele>88.808</ele>
        <time>2018-08-25T09:30:31Z</time>
      </trkpt>
      <trkpt lat="42.367752" lon="-8.633552">
        <ele>88.874</ele>
        <time>2018-08-25T09:30:33Z</time>
      </trkpt>
      <trkpt lat="42.367818" lon="-8.633578">
        <ele>88.920</ele>
        <time>2018-08-25T09:30:36Z</time>
      </trkpt>
      <trkpt lat="42.367877" lon="-8.633588">
        <ele>89.095</ele>
        <time>2018-08-25T09:30:38Z</time>
      </trkpt>
      <trkpt lat="42.367937" lon="-8.633598">
        <ele>89.239</ele>
        <time>2018-08-25T09:30:40Z</time>
      </trkpt>
      <trkpt lat="42.368007" lon="-8.633610">
        <ele>88.886</ele>
        <time>2018-08-25T09:30:42Z</time>
      </trkpt>
      <trkpt lat="42.368082" lon="-8.633615">
        <ele>89.084</ele>
        <time>2018-08-25T09:30:44Z</time>
      </trkpt>
      <trkpt lat="42.368153" lon="-8.633616">
        <ele>89.182</ele>
        <time>2018-08-25T09:30:46Z</time>
      </trkpt>
      <trkpt lat="42.368219" lon="-8.633614">
        <ele>89.532</ele>
        <time>2018-08-25T09:30:48Z</time>
      </trkpt>
      <trkpt lat="42.368281" lon="-8.633617">
        <ele>89.885</ele>
        <time>2018-08-25T09:30:50Z</time>
      </trkpt>
      <trkpt lat="42.368337" lon="-8.633623">
        <ele>90.189</ele>
        <time>2018-08-25T09:30:52Z</time>
      </trkpt>
      <trkpt lat="42.368392" lon="-8.633634">
        <ele>90.417</ele>
        <time>2018-08-25T09:30:54Z</time>
      </trkpt>
      <trkpt lat="42.368450" lon="-8.633645">
        <ele>90.708</ele>
        <time>2018-08-25T09:30:56Z</time>
      </trkpt>
      <trkpt lat="42.368505" lon="-8.633658">
        <ele>91.020</ele>
        <time>2018-08-25T09:30:58Z</time>
      </trkpt>
      <trkpt lat="42.368557" lon="-8.633673">
        <ele>91.256</ele>
        <time>2018-08-25T09:31:00Z</time>
      </trkpt>
      <trkpt lat="42.368610" lon="-8.633686">
        <ele>91.461</ele>
        <time>2018-08-25T09:31:02Z</time>
      </trkpt>
      <trkpt lat="42.368666" lon="-8.633701">
        <ele>91.635</ele>
        <time>2018-08-25T09:31:04Z</time>
      </trkpt>
      <trkpt lat="42.368721" lon="-8.633719">
        <ele>91.812</ele>
        <time>2018-08-25T09:31:06Z</time>
      </trkpt>
      <trkpt lat="42.368775" lon="-8.633727">
        <ele>92.180</ele>
        <time>2018-08-25T09:31:08Z</time>
      </trkpt>
      <trkpt lat="42.368840" lon="-8.633730">
        <ele>92.488</ele>
        <time>2018-08-25T09:31:11Z</time>
      </trkpt>
      <trkpt lat="42.368898" lon="-8.633730">
        <ele>92.938</ele>
        <time>2018-08-25T09:31:14Z</time>
      </trkpt>
      <trkpt lat="42.368952" lon="-8.633754">
        <ele>93.316</ele>
        <time>2018-08-25T09:31:17Z</time>
      </trkpt>
      <trkpt lat="42.369014" lon="-8.633782">
        <ele>93.776</ele>
        <time>2018-08-25T09:31:20Z</time>
      </trkpt>
      <trkpt lat="42.369068" lon="-8.633812">
        <ele>93.013</ele>
        <time>2018-08-25T09:31:23Z</time>
      </trkpt>
      <trkpt lat="42.369118" lon="-8.633848">
        <ele>91.008</ele>
        <time>2018-08-25T09:31:26Z</time>
      </trkpt>
      <trkpt lat="42.369166" lon="-8.633879">
        <ele>90.073</ele>
        <time>2018-08-25T09:31:28Z</time>
      </trkpt>
      <trkpt lat="42.369218" lon="-8.633906">
        <ele>89.639</ele>
        <time>2018-08-25T09:31:30Z</time>
      </trkpt>
      <trkpt lat="42.369266" lon="-8.633932">
        <ele>89.444</ele>
        <time>2018-08-25T09:31:32Z</time>
      </trkpt>
      <trkpt lat="42.369312" lon="-8.633959">
        <ele>89.218</ele>
        <time>2018-08-25T09:31:34Z</time>
      </trkpt>
      <trkpt lat="42.369358" lon="-8.633987">
        <ele>89.295</ele>
        <time>2018-08-25T09:31:36Z</time>
      </trkpt>
      <trkpt lat="42.369407" lon="-8.634016">
        <ele>89.373</ele>
        <time>2018-08-25T09:31:38Z</time>
      </trkpt>
      <trkpt lat="42.369459" lon="-8.634049">
        <ele>89.641</ele>
        <time>2018-08-25T09:31:40Z</time>
      </trkpt>
      <trkpt lat="42.369513" lon="-8.634081">
        <ele>89.981</ele>
        <time>2018-08-25T09:31:42Z</time>
      </trkpt>
      <trkpt lat="42.369565" lon="-8.634111">
        <ele>90.365</ele>
        <time>2018-08-25T09:31:44Z</time>
      </trkpt>
      <trkpt lat="42.369614" lon="-8.634144">
        <ele>90.568</ele>
        <time>2018-08-25T09:31:46Z</time>
      </trkpt>
      <trkpt lat="42.369662" lon="-8.634180">
        <ele>90.714</ele>
        <time>2018-08-25T09:31:48Z</time>
      </trkpt>
      <trkpt lat="42.369709" lon="-8.634221">
        <ele>90.808</ele>
        <time>2018-08-25T09:31:50Z</time>
      </trkpt>
      <trkpt lat="42.369756" lon="-8.634263">
        <ele>90.948</ele>
        <time>2018-08-25T09:31:52Z</time>
      </trkpt>
      <trkpt lat="42.369804" lon="-8.634303">
        <ele>91.024</ele>
        <time>2018-08-25T09:31:54Z</time>
      </trkpt>
      <trkpt lat="42.369854" lon="-8.634337">
        <ele>91.179</ele>
        <time>2018-08-25T09:31:56Z</time>
      </trkpt>
      <trkpt lat="42.369904" lon="-8.634366">
        <ele>91.293</ele>
        <time>2018-08-25T09:31:58Z</time>
      </trkpt>
      <trkpt lat="42.369953" lon="-8.634393">
        <ele>91.350</ele>
        <time>2018-08-25T09:32:00Z</time>
      </trkpt>
      <trkpt lat="42.370004" lon="-8.634418">
        <ele>91.428</ele>
        <time>2018-08-25T09:32:02Z</time>
      </trkpt>
      <trkpt lat="42.370053" lon="-8.634442">
        <ele>91.496</ele>
        <time>2018-08-25T09:32:04Z</time>
      </trkpt>
      <trkpt lat="42.370099" lon="-8.634465">
        <ele>91.516</ele>
        <time>2018-08-25T09:32:06Z</time>
      </trkpt>
      <trkpt lat="42.370147" lon="-8.634493">
        <ele>91.714</ele>
        <time>2018-08-25T09:32:08Z</time>
      </trkpt>
      <trkpt lat="42.370197" lon="-8.634524">
        <ele>91.854</ele>
        <time>2018-08-25T09:32:10Z</time>
      </trkpt>
      <trkpt lat="42.370248" lon="-8.634553">
        <ele>92.109</ele>
        <time>2018-08-25T09:32:12Z</time>
      </trkpt>
      <trkpt lat="42.370298" lon="-8.634578">
        <ele>92.308</ele>
        <time>2018-08-25T09:32:14Z</time>
      </trkpt>
      <trkpt lat="42.370344" lon="-8.634604">
        <ele>92.563</ele>
        <time>2018-08-25T09:32:16Z</time>
      </trkpt>
      <trkpt lat="42.370389" lon="-8.634631">
        <ele>92.729</ele>
        <time>2018-08-25T09:32:18Z</time>
      </trkpt>
      <trkpt lat="42.370432" lon="-8.634657">
        <ele>93.054</ele>
        <time>2018-08-25T09:32:20Z</time>
      </trkpt>
      <trkpt lat="42.370476" lon="-8.634682">
        <ele>93.328</ele>
        <time>2018-08-25T09:32:22Z</time>
      </trkpt>
      <trkpt lat="42.370522" lon="-8.634710">
        <ele>93.695</ele>
        <time>2018-08-25T09:32:24Z</time>
      </trkpt>
      <trkpt lat="42.370568" lon="-8.634737">
        <ele>93.973</ele>
        <time>2018-08-25T09:32:26Z</time>
      </trkpt>
      <trkpt lat="42.370615" lon="-8.634766">
        <ele>94.341</ele>
        <time>2018-08-25T09:32:28Z</time>
      </trkpt>
      <trkpt lat="42.370665" lon="-8.634794">
        <ele>94.761</ele>
        <time>2018-08-25T09:32:30Z</time>
      </trkpt>
      <trkpt lat="42.370715" lon="-8.634821">
        <ele>95.226</ele>
        <time>2018-08-25T09:32:32Z</time>
      </trkpt>
      <trkpt lat="42.370765" lon="-8.634851">
        <ele>95.647</ele>
        <time>2018-08-25T09:32:34Z</time>
      </trkpt>
      <trkpt lat="42.370815" lon="-8.634878">
        <ele>96.011</ele>
        <time>2018-08-25T09:32:36Z</time>
      </trkpt>
      <trkpt lat="42.370861" lon="-8.634907">
        <ele>96.408</ele>
        <time>2018-08-25T09:32:38Z</time>
      </trkpt>
      <trkpt lat="42.370905" lon="-8.634933">
        <ele>96.864</ele>
        <time>2018-08-25T09:32:40Z</time>
      </trkpt>
      <trkpt lat="42.370947" lon="-8.634961">
        <ele>97.240</ele>
        <time>2018-08-25T09:32:42Z</time>
      </trkpt>
      <trkpt lat="42.370990" lon="-8.634986">
        <ele>97.595</ele>
        <time>2018-08-25T09:32:44Z</time>
      </trkpt>
      <trkpt lat="42.371036" lon="-8.635010">
        <ele>97.989</ele>
        <time>2018-08-25T09:32:46Z</time>
      </trkpt>
      <trkpt lat="42.371077" lon="-8.635039">
        <ele>98.386</ele>
        <time>2018-08-25T09:32:48Z</time>
      </trkpt>
      <trkpt lat="42.371120" lon="-8.635062">
        <ele>98.734</ele>
        <time>2018-08-25T09:32:50Z</time>
      </trkpt>
      <trkpt lat="42.371167" lon="-8.635085">
        <ele>99.222</ele>
        <time>2018-08-25T09:32:52Z</time>
      </trkpt>
      <trkpt lat="42.371214" lon="-8.635108">
        <ele>99.712</ele>
        <time>2018-08-25T09:32:54Z</time>
      </trkpt>
      <trkpt lat="42.371263" lon="-8.635132">
        <ele>100.248</ele>
        <time>2018-08-25T09:32:56Z</time>
      </trkpt>
      <trkpt lat="42.371314" lon="-8.635152">
        <ele>100.661</ele>
        <time>2018-08-25T09:32:58Z</time>
      </trkpt>
      <trkpt lat="42.371364" lon="-8.635175">
        <ele>101.017</ele>
        <time>2018-08-25T09:33:00Z</time>
      </trkpt>
      <trkpt lat="42.371413" lon="-8.635199">
        <ele>101.308</ele>
        <time>2018-08-25T09:33:02Z</time>
      </trkpt>
      <trkpt lat="42.371464" lon="-8.635225">
        <ele>101.666</ele>
        <time>2018-08-25T09:33:04Z</time>
      </trkpt>
      <trkpt lat="42.371515" lon="-8.635255">
        <ele>101.992</ele>
        <time>2018-08-25T09:33:06Z</time>
      </trkpt>
      <trkpt lat="42.371566" lon="-8.635283">
        <ele>102.137</ele>
        <time>2018-08-25T09:33:08Z</time>
      </trkpt>
      <trkpt lat="42.371615" lon="-8.635309">
        <ele>102.191</ele>
        <time>2018-08-25T09:33:10Z</time>
      </trkpt>
      <trkpt lat="42.371665" lon="-8.635332">
        <ele>102.268</ele>
        <time>2018-08-25T09:33:12Z</time>
      </trkpt>
      <trkpt lat="42.371716" lon="-8.635352">
        <ele>102.386</ele>
        <time>2018-08-25T09:33:14Z</time>
      </trkpt>
      <trkpt lat="42.371767" lon="-8.635370">
        <ele>102.524</ele>
        <time>2018-08-25T09:33:16Z</time>
      </trkpt>
      <trkpt lat="42.371818" lon="-8.635386">
        <ele>102.834</ele>
        <time>2018-08-25T09:33:18Z</time>
      </trkpt>
      <trkpt lat="42.371870" lon="-8.635405">
        <ele>103.185</ele>
        <time>2018-08-25T09:33:20Z</time>
      </trkpt>
      <trkpt lat="42.371920" lon="-8.635422">
        <ele>103.389</ele>
        <time>2018-08-25T09:33:22Z</time>
      </trkpt>
      <trkpt lat="42.371970" lon="-8.635436">
        <ele>103.417</ele>
        <time>2018-08-25T09:33:24Z</time>
      </trkpt>
      <trkpt lat="42.372020" lon="-8.635445">
        <ele>103.308</ele>
        <time>2018-08-25T09:33:26Z</time>
      </trkpt>
      <trkpt lat="42.372071" lon="-8.635455">
        <ele>103.330</ele>
        <time>2018-08-25T09:33:28Z</time>
      </trkpt>
      <trkpt lat="42.372120" lon="-8.635468">
        <ele>103.296</ele>
        <time>2018-08-25T09:33:30Z</time>
      </trkpt>
      <trkpt lat="42.372166" lon="-8.635479">
        <ele>103.091</ele>
        <time>2018-08-25T09:33:32Z</time>
      </trkpt>
      <trkpt lat="42.372212" lon="-8.635486">
        <ele>102.875</ele>
        <time>2018-08-25T09:33:34Z</time>
      </trkpt>
      <trkpt lat="42.372263" lon="-8.635490">
        <ele>102.622</ele>
        <time>2018-08-25T09:33:36Z</time>
      </trkpt>
      <trkpt lat="42.372316" lon="-8.635488">
        <ele>102.810</ele>
        <time>2018-08-25T09:33:38Z</time>
      </trkpt>
      <trkpt lat="42.372371" lon="-8.635486">
        <ele>103.178</ele>
        <time>2018-08-25T09:33:40Z</time>
      </trkpt>
      <trkpt lat="42.372421" lon="-8.635480">
        <ele>103.648</ele>
        <time>2018-08-25T09:33:42Z</time>
      </trkpt>
      <trkpt lat="42.372469" lon="-8.635476">
        <ele>104.199</ele>
        <time>2018-08-25T09:33:44Z</time>
      </trkpt>
      <trkpt lat="42.372519" lon="-8.635475">
        <ele>104.607</ele>
        <time>2018-08-25T09:33:46Z</time>
      </trkpt>
      <trkpt lat="42.372569" lon="-8.635480">
        <ele>105.127</ele>
        <time>2018-08-25T09:33:48Z</time>
      </trkpt>
      <trkpt lat="42.372618" lon="-8.635483">
        <ele>105.508</ele>
        <time>2018-08-25T09:33:50Z</time>
      </trkpt>
      <trkpt lat="42.372669" lon="-8.635489">
        <ele>105.881</ele>
        <time>2018-08-25T09:33:52Z</time>
      </trkpt>
      <trkpt lat="42.372722" lon="-8.635496">
        <ele>106.177</ele>
        <time>2018-08-25T09:33:54Z</time>
      </trkpt>
      <trkpt lat="42.372777" lon="-8.635504">
        <ele>106.562</ele>
        <time>2018-08-25T09:33:56Z</time>
      </trkpt>
      <trkpt lat="42.372833" lon="-8.635512">
        <ele>106.986</ele>
        <time>2018-08-25T09:33:58Z</time>
      </trkpt>
      <trkpt lat="42.372886" lon="-8.635519">
        <ele>107.283</ele>
        <time>2018-08-25T09:34:00Z</time>
      </trkpt>
      <trkpt lat="42.372939" lon="-8.635527">
        <ele>107.581</ele>
        <time>2018-08-25T09:34:02Z</time>
      </trkpt>
      <trkpt lat="42.372993" lon="-8.635539">
        <ele>107.879</ele>
        <time>2018-08-25T09:34:04Z</time>
      </trkpt>
      <trkpt lat="42.373049" lon="-8.635550">
        <ele>108.279</ele>
        <time>2018-08-25T09:34:06Z</time>
      </trkpt>
      <trkpt lat="42.373106" lon="-8.635559">
        <ele>108.636</ele>
        <time>2018-08-25T09:34:08Z</time>
      </trkpt>
      <trkpt lat="42.373160" lon="-8.635569">
        <ele>108.917</ele>
        <time>2018-08-25T09:34:10Z</time>
      </trkpt>
      <trkpt lat="42.373213" lon="-8.635579">
        <ele>109.018</ele>
        <time>2018-08-25T09:34:12Z</time>
      </trkpt>
      <trkpt lat="42.373267" lon="-8.635592">
        <ele>109.008</ele>
        <time>2018-08-25T09:34:14Z</time>
      </trkpt>
      <trkpt lat="42.373319" lon="-8.635609">
        <ele>108.995</ele>
        <time>2018-08-25T09:34:16Z</time>
      </trkpt>
      <trkpt lat="42.373375" lon="-8.635624">
        <ele>108.941</ele>
        <time>2018-08-25T09:34:18Z</time>
      </trkpt>
      <trkpt lat="42.373431" lon="-8.635630">
        <ele>109.046</ele>
        <time>2018-08-25T09:34:20Z</time>
      </trkpt>
      <trkpt lat="42.373487" lon="-8.635634">
        <ele>108.980</ele>
        <time>2018-08-25T09:34:22Z</time>
      </trkpt>
      <trkpt lat="42.373544" lon="-8.635636">
        <ele>108.877</ele>
        <time>2018-08-25T09:34:24Z</time>
      </trkpt>
      <trkpt lat="42.373605" lon="-8.635635">
        <ele>108.775</ele>
        <time>2018-08-25T09:34:26Z</time>
      </trkpt>
      <trkpt lat="42.373664" lon="-8.635633">
        <ele>108.873</ele>
        <time>2018-08-25T09:34:28Z</time>
      </trkpt>
      <trkpt lat="42.373721" lon="-8.635631">
        <ele>108.983</ele>
        <time>2018-08-25T09:34:30Z</time>
      </trkpt>
      <trkpt lat="42.373776" lon="-8.635629">
        <ele>109.232</ele>
        <time>2018-08-25T09:34:32Z</time>
      </trkpt>
      <trkpt lat="42.373829" lon="-8.635628">
        <ele>109.492</ele>
        <time>2018-08-25T09:34:34Z</time>
      </trkpt>
      <trkpt lat="42.373880" lon="-8.635628">
        <ele>109.511</ele>
        <time>2018-08-25T09:34:36Z</time>
      </trkpt>
      <trkpt lat="42.373930" lon="-8.635629">
        <ele>109.608</ele>
        <time>2018-08-25T09:34:38Z</time>
      </trkpt>
      <trkpt lat="42.373981" lon="-8.635625">
        <ele>109.895</ele>
        <time>2018-08-25T09:34:40Z</time>
      </trkpt>
      <trkpt lat="42.374031" lon="-8.635618">
        <ele>109.731</ele>
        <time>2018-08-25T09:34:42Z</time>
      </trkpt>
      <trkpt lat="42.374080" lon="-8.635608">
        <ele>109.746</ele>
        <time>2018-08-25T09:34:44Z</time>
      </trkpt>
      <trkpt lat="42.374133" lon="-8.635591">
        <ele>109.940</ele>
        <time>2018-08-25T09:34:46Z</time>
      </trkpt>
      <trkpt lat="42.374190" lon="-8.635568">
        <ele>110.277</ele>
        <time>2018-08-25T09:34:48Z</time>
      </trkpt>
      <trkpt lat="42.374251" lon="-8.635542">
        <ele>110.675</ele>
        <time>2018-08-25T09:34:50Z</time>
      </trkpt>
      <trkpt lat="42.374314" lon="-8.635511">
        <ele>111.253</ele>
        <time>2018-08-25T09:34:52Z</time>
      </trkpt>
      <trkpt lat="42.374374" lon="-8.635481">
        <ele>111.933</ele>
        <time>2018-08-25T09:34:54Z</time>
      </trkpt>
      <trkpt lat="42.374429" lon="-8.635453">
        <ele>112.615</ele>
        <time>2018-08-25T09:34:56Z</time>
      </trkpt>
      <trkpt lat="42.374482" lon="-8.635423">
        <ele>113.265</ele>
        <time>2018-08-25T09:34:58Z</time>
      </trkpt>
      <trkpt lat="42.374536" lon="-8.635398">
        <ele>113.811</ele>
        <time>2018-08-25T09:35:00Z</time>
      </trkpt>
      <trkpt lat="42.374588" lon="-8.635374">
        <ele>114.308</ele>
        <time>2018-08-25T09:35:02Z</time>
      </trkpt>
      <trkpt lat="42.374641" lon="-8.635348">
        <ele>114.723</ele>
        <time>2018-08-25T09:35:04Z</time>
      </trkpt>
      <trkpt lat="42.374697" lon="-8.635324">
        <ele>115.229</ele>
        <time>2018-08-25T09:35:06Z</time>
      </trkpt>
      <trkpt lat="42.374754" lon="-8.635303">
        <ele>115.794</ele>
        <time>2018-08-25T09:35:08Z</time>
      </trkpt>
      <trkpt lat="42.374812" lon="-8.635279">
        <ele>116.278</ele>
        <time>2018-08-25T09:35:10Z</time>
      </trkpt>
      <trkpt lat="42.374870" lon="-8.635252">
        <ele>116.755</ele>
        <time>2018-08-25T09:35:12Z</time>
      </trkpt>
      <trkpt lat="42.374926" lon="-8.635223">
        <ele>117.113</ele>
        <time>2018-08-25T09:35:14Z</time>
      </trkpt>
      <trkpt lat="42.374982" lon="-8.635195">
        <ele>117.481</ele>
        <time>2018-08-25T09:35:16Z</time>
      </trkpt>
      <trkpt lat="42.375038" lon="-8.635167">
        <ele>117.781</ele>
        <time>2018-08-25T09:35:18Z</time>
      </trkpt>
      <trkpt lat="42.375096" lon="-8.635140">
        <ele>118.031</ele>
        <time>2018-08-25T09:35:20Z</time>
      </trkpt>
      <trkpt lat="42.375155" lon="-8.635113">
        <ele>118.361</ele>
        <time>2018-08-25T09:35:22Z</time>
      </trkpt>
      <trkpt lat="42.375213" lon="-8.635087">
        <ele>118.707</ele>
        <time>2018-08-25T09:35:24Z</time>
      </trkpt>
      <trkpt lat="42.375268" lon="-8.635059">
        <ele>119.008</ele>
        <time>2018-08-25T09:35:26Z</time>
      </trkpt>
      <trkpt lat="42.375326" lon="-8.635035">
        <ele>119.345</ele>
        <time>2018-08-25T09:35:28Z</time>
      </trkpt>
      <trkpt lat="42.375382" lon="-8.635010">
        <ele>119.571</ele>
        <time>2018-08-25T09:35:30Z</time>
      </trkpt>
      <trkpt lat="42.375435" lon="-8.634982">
        <ele>119.776</ele>
        <time>2018-08-25T09:35:32Z</time>
      </trkpt>
      <trkpt lat="42.375486" lon="-8.634954">
        <ele>119.930</ele>
        <time>2018-08-25T09:35:34Z</time>
      </trkpt>
      <trkpt lat="42.375534" lon="-8.634923">
        <ele>120.147</ele>
        <time>2018-08-25T09:35:36Z</time>
      </trkpt>
      <trkpt lat="42.375581" lon="-8.634894">
        <ele>120.455</ele>
        <time>2018-08-25T09:35:38Z</time>
      </trkpt>
      <trkpt lat="42.375628" lon="-8.634862">
        <ele>120.753</ele>
        <time>2018-08-25T09:35:40Z</time>
      </trkpt>
      <trkpt lat="42.375688" lon="-8.634833">
        <ele>121.273</ele>
        <time>2018-08-25T09:35:43Z</time>
      </trkpt>
      <trkpt lat="42.375735" lon="-8.634816">
        <ele>121.585</ele>
        <time>2018-08-25T09:35:46Z</time>
      </trkpt>
      <trkpt lat="42.375786" lon="-8.634812">
        <ele>121.989</ele>
        <time>2018-08-25T09:35:51Z</time>
      </trkpt>
      <trkpt lat="42.375843" lon="-8.634800">
        <ele>122.217</ele>
        <time>2018-08-25T09:35:55Z</time>
      </trkpt>
      <trkpt lat="42.375888" lon="-8.634778">
        <ele>121.908</ele>
        <time>2018-08-25T09:35:58Z</time>
      </trkpt>
      <trkpt lat="42.375933" lon="-8.634752">
        <ele>122.150</ele>
        <time>2018-08-25T09:36:58Z</time>
      </trkpt>
      <trkpt lat="42.375988" lon="-8.634731">
        <ele>122.146</ele>
        <time>2018-08-25T09:37:01Z</time>
      </trkpt>
      <trkpt lat="42.376051" lon="-8.634716">
        <ele>122.111</ele>
        <time>2018-08-25T09:37:03Z</time>
      </trkpt>
      <trkpt lat="42.376120" lon="-8.634708">
        <ele>122.135</ele>
        <time>2018-08-25T09:37:05Z</time>
      </trkpt>
      <trkpt lat="42.376207" lon="-8.634697">
        <ele>122.142</ele>
        <time>2018-08-25T09:37:06Z</time>
      </trkpt>
      <trkpt lat="42.376260" lon="-8.634685">
        <ele>122.170</ele>
        <time>2018-08-25T09:37:08Z</time>
      </trkpt>
      <trkpt lat="42.376308" lon="-8.634674">
        <ele>122.128</ele>
        <time>2018-08-25T09:37:10Z</time>
      </trkpt>
      <trkpt lat="42.376364" lon="-8.634667">
        <ele>122.128</ele>
        <time>2018-08-25T09:37:12Z</time>
      </trkpt>
      <trkpt lat="42.376420" lon="-8.634654">
        <ele>122.434</ele>
        <time>2018-08-25T09:37:14Z</time>
      </trkpt>
      <trkpt lat="42.376481" lon="-8.634644">
        <ele>122.555</ele>
        <time>2018-08-25T09:37:16Z</time>
      </trkpt>
      <trkpt lat="42.376544" lon="-8.634642">
        <ele>122.410</ele>
        <time>2018-08-25T09:37:18Z</time>
      </trkpt>
      <trkpt lat="42.376603" lon="-8.634641">
        <ele>122.308</ele>
        <time>2018-08-25T09:37:20Z</time>
      </trkpt>
      <trkpt lat="42.376667" lon="-8.634640">
        <ele>122.285</ele>
        <time>2018-08-25T09:37:22Z</time>
      </trkpt>
      <trkpt lat="42.376753" lon="-8.634638">
        <ele>122.211</ele>
        <time>2018-08-25T09:37:23Z</time>
      </trkpt>
      <trkpt lat="42.376828" lon="-8.634633">
        <ele>122.426</ele>
        <time>2018-08-25T09:37:25Z</time>
      </trkpt>
      <trkpt lat="42.376903" lon="-8.634626">
        <ele>122.530</ele>
        <time>2018-08-25T09:37:27Z</time>
      </trkpt>
      <trkpt lat="42.376972" lon="-8.634607">
        <ele>122.657</ele>
        <time>2018-08-25T09:37:29Z</time>
      </trkpt>
      <trkpt lat="42.377049" lon="-8.634590">
        <ele>122.885</ele>
        <time>2018-08-25T09:37:31Z</time>
      </trkpt>
      <trkpt lat="42.377105" lon="-8.634581">
        <ele>122.943</ele>
        <time>2018-08-25T09:37:33Z</time>
      </trkpt>
      <trkpt lat="42.377158" lon="-8.634573">
        <ele>123.043</ele>
        <time>2018-08-25T09:37:34Z</time>
      </trkpt>
      <trkpt lat="42.377236" lon="-8.634567">
        <ele>123.123</ele>
        <time>2018-08-25T09:37:36Z</time>
      </trkpt>
      <trkpt lat="42.377294" lon="-8.634569">
        <ele>123.183</ele>
        <time>2018-08-25T09:37:38Z</time>
      </trkpt>
      <trkpt lat="42.377346" lon="-8.634572">
        <ele>123.311</ele>
        <time>2018-08-25T09:37:40Z</time>
      </trkpt>
      <trkpt lat="42.377407" lon="-8.634574">
        <ele>123.508</ele>
        <time>2018-08-25T09:37:42Z</time>
      </trkpt>
      <trkpt lat="42.377471" lon="-8.634575">
        <ele>123.914</ele>
        <time>2018-08-25T09:37:44Z</time>
      </trkpt>
      <trkpt lat="42.377535" lon="-8.634576">
        <ele>124.370</ele>
        <time>2018-08-25T09:37:46Z</time>
      </trkpt>
      <trkpt lat="42.377598" lon="-8.634580">
        <ele>124.315</ele>
        <time>2018-08-25T09:37:48Z</time>
      </trkpt>
      <trkpt lat="42.377656" lon="-8.634583">
        <ele>124.279</ele>
        <time>2018-08-25T09:37:50Z</time>
      </trkpt>
      <trkpt lat="42.377712" lon="-8.634586">
        <ele>124.256</ele>
        <time>2018-08-25T09:37:52Z</time>
      </trkpt>
      <trkpt lat="42.377763" lon="-8.634584">
        <ele>124.174</ele>
        <time>2018-08-25T09:37:54Z</time>
      </trkpt>
      <trkpt lat="42.377812" lon="-8.634575">
        <ele>123.822</ele>
        <time>2018-08-25T09:37:56Z</time>
      </trkpt>
      <trkpt lat="42.377865" lon="-8.634565">
        <ele>123.622</ele>
        <time>2018-08-25T09:37:58Z</time>
      </trkpt>
      <trkpt lat="42.377923" lon="-8.634555">
        <ele>123.595</ele>
        <time>2018-08-25T09:38:00Z</time>
      </trkpt>
      <trkpt lat="42.377984" lon="-8.634547">
        <ele>123.249</ele>
        <time>2018-08-25T09:38:02Z</time>
      </trkpt>
      <trkpt lat="42.378048" lon="-8.634541">
        <ele>123.023</ele>
        <time>2018-08-25T09:38:04Z</time>
      </trkpt>
      <trkpt lat="42.378116" lon="-8.634535">
        <ele>122.908</ele>
        <time>2018-08-25T09:38:06Z</time>
      </trkpt>
      <trkpt lat="42.378236" lon="-8.634536">
        <ele>123.111</ele>
        <time>2018-08-25T09:38:08Z</time>
      </trkpt>
      <trkpt lat="42.378310" lon="-8.634533">
        <ele>123.547</ele>
        <time>2018-08-25T09:38:11Z</time>
      </trkpt>
      <trkpt lat="42.378391" lon="-8.634530">
        <ele>123.942</ele>
        <time>2018-08-25T09:38:12Z</time>
      </trkpt>
      <trkpt lat="42.378472" lon="-8.634536">
        <ele>124.196</ele>
        <time>2018-08-25T09:38:14Z</time>
      </trkpt>
      <trkpt lat="42.378552" lon="-8.634539">
        <ele>124.133</ele>
        <time>2018-08-25T09:38:16Z</time>
      </trkpt>
      <trkpt lat="42.378631" lon="-8.634543">
        <ele>123.851</ele>
        <time>2018-08-25T09:38:18Z</time>
      </trkpt>
      <trkpt lat="42.378712" lon="-8.634538">
        <ele>123.689</ele>
        <time>2018-08-25T09:38:20Z</time>
      </trkpt>
      <trkpt lat="42.378787" lon="-8.634533">
        <ele>123.779</ele>
        <time>2018-08-25T09:38:22Z</time>
      </trkpt>
      <trkpt lat="42.378858" lon="-8.634524">
        <ele>124.047</ele>
        <time>2018-08-25T09:38:25Z</time>
      </trkpt>
      <trkpt lat="42.378923" lon="-8.634511">
        <ele>124.129</ele>
        <time>2018-08-25T09:38:27Z</time>
      </trkpt>
      <trkpt lat="42.379007" lon="-8.634495">
        <ele>124.021</ele>
        <time>2018-08-25T09:38:28Z</time>
      </trkpt>
      <trkpt lat="42.379088" lon="-8.634488">
        <ele>124.208</ele>
        <time>2018-08-25T09:38:30Z</time>
      </trkpt>
      <trkpt lat="42.379168" lon="-8.634477">
        <ele>124.326</ele>
        <time>2018-08-25T09:38:32Z</time>
      </trkpt>
      <trkpt lat="42.379242" lon="-8.634470">
        <ele>124.432</ele>
        <time>2018-08-25T09:38:34Z</time>
      </trkpt>
      <trkpt lat="42.379310" lon="-8.634471">
        <ele>124.697</ele>
        <time>2018-08-25T09:38:37Z</time>
      </trkpt>
      <trkpt lat="42.379369" lon="-8.634475">
        <ele>124.861</ele>
        <time>2018-08-25T09:38:39Z</time>
      </trkpt>
      <trkpt lat="42.379446" lon="-8.634477">
        <ele>125.058</ele>
        <time>2018-08-25T09:38:40Z</time>
      </trkpt>
      <trkpt lat="42.379504" lon="-8.634474">
        <ele>125.156</ele>
        <time>2018-08-25T09:38:42Z</time>
      </trkpt>
      <trkpt lat="42.379556" lon="-8.634475">
        <ele>125.324</ele>
        <time>2018-08-25T09:38:44Z</time>
      </trkpt>
      <trkpt lat="42.379618" lon="-8.634481">
        <ele>125.684</ele>
        <time>2018-08-25T09:38:46Z</time>
      </trkpt>
      <trkpt lat="42.379684" lon="-8.634493">
        <ele>125.962</ele>
        <time>2018-08-25T09:38:48Z</time>
      </trkpt>
      <trkpt lat="42.379754" lon="-8.634500">
        <ele>126.183</ele>
        <time>2018-08-25T09:38:50Z</time>
      </trkpt>
      <trkpt lat="42.379823" lon="-8.634498">
        <ele>126.211</ele>
        <time>2018-08-25T09:38:52Z</time>
      </trkpt>
      <trkpt lat="42.379889" lon="-8.634494">
        <ele>126.208</ele>
        <time>2018-08-25T09:38:54Z</time>
      </trkpt>
      <trkpt lat="42.379953" lon="-8.634502">
        <ele>126.368</ele>
        <time>2018-08-25T09:38:56Z</time>
      </trkpt>
      <trkpt lat="42.380018" lon="-8.634520">
        <ele>126.434</ele>
        <time>2018-08-25T09:38:58Z</time>
      </trkpt>
      <trkpt lat="42.380081" lon="-8.634526">
        <ele>126.369</ele>
        <time>2018-08-25T09:39:00Z</time>
      </trkpt>
      <trkpt lat="42.380149" lon="-8.634509">
        <ele>126.553</ele>
        <time>2018-08-25T09:39:02Z</time>
      </trkpt>
      <trkpt lat="42.380216" lon="-8.634484">
        <ele>126.580</ele>
        <time>2018-08-25T09:39:04Z</time>
      </trkpt>
      <trkpt lat="42.380283" lon="-8.634463">
        <ele>126.518</ele>
        <time>2018-08-25T09:39:06Z</time>
      </trkpt>
      <trkpt lat="42.380350" lon="-8.634448">
        <ele>126.536</ele>
        <time>2018-08-25T09:39:08Z</time>
      </trkpt>
      <trkpt lat="42.380418" lon="-8.634432">
        <ele>126.646</ele>
        <time>2018-08-25T09:39:10Z</time>
      </trkpt>
      <trkpt lat="42.380482" lon="-8.634419">
        <ele>126.863</ele>
        <time>2018-08-25T09:39:12Z</time>
      </trkpt>
      <trkpt lat="42.380543" lon="-8.634416">
        <ele>127.044</ele>
        <time>2018-08-25T09:39:14Z</time>
      </trkpt>
      <trkpt lat="42.380601" lon="-8.634415">
        <ele>127.218</ele>
        <time>2018-08-25T09:39:16Z</time>
      </trkpt>
      <trkpt lat="42.380661" lon="-8.634419">
        <ele>127.508</ele>
        <time>2018-08-25T09:39:18Z</time>
      </trkpt>
      <trkpt lat="42.380716" lon="-8.634430">
        <ele>127.728</ele>
        <time>2018-08-25T09:39:20Z</time>
      </trkpt>
      <trkpt lat="42.380771" lon="-8.634438">
        <ele>127.994</ele>
        <time>2018-08-25T09:39:22Z</time>
      </trkpt>
      <trkpt lat="42.380831" lon="-8.634450">
        <ele>128.139</ele>
        <time>2018-08-25T09:39:24Z</time>
      </trkpt>
      <trkpt lat="42.380892" lon="-8.634464">
        <ele>128.433</ele>
        <time>2018-08-25T09:39:26Z</time>
      </trkpt>
      <trkpt lat="42.380953" lon="-8.634479">
        <ele>128.730</ele>
        <time>2018-08-25T09:39:28Z</time>
      </trkpt>
      <trkpt lat="42.381015" lon="-8.634487">
        <ele>129.018</ele>
        <time>2018-08-25T09:39:30Z</time>
      </trkpt>
      <trkpt lat="42.381076" lon="-8.634489">
        <ele>129.446</ele>
        <time>2018-08-25T09:39:32Z</time>
      </trkpt>
      <trkpt lat="42.381139" lon="-8.634489">
        <ele>129.696</ele>
        <time>2018-08-25T09:39:34Z</time>
      </trkpt>
      <trkpt lat="42.381205" lon="-8.634498">
        <ele>129.957</ele>
        <time>2018-08-25T09:39:36Z</time>
      </trkpt>
      <trkpt lat="42.381268" lon="-8.634512">
        <ele>130.000</ele>
        <time>2018-08-25T09:39:38Z</time>
      </trkpt>
      <trkpt lat="42.381332" lon="-8.634530">
        <ele>130.120</ele>
        <time>2018-08-25T09:39:40Z</time>
      </trkpt>
      <trkpt lat="42.381396" lon="-8.634549">
        <ele>130.208</ele>
        <time>2018-08-25T09:39:42Z</time>
      </trkpt>
      <trkpt lat="42.381460" lon="-8.634566">
        <ele>130.377</ele>
        <time>2018-08-25T09:39:44Z</time>
      </trkpt>
      <trkpt lat="42.381523" lon="-8.634582">
        <ele>130.363</ele>
        <time>2018-08-25T09:39:46Z</time>
      </trkpt>
      <trkpt lat="42.381583" lon="-8.634604">
        <ele>130.218</ele>
        <time>2018-08-25T09:39:48Z</time>
      </trkpt>
      <trkpt lat="42.381636" lon="-8.634623">
        <ele>129.962</ele>
        <time>2018-08-25T09:39:50Z</time>
      </trkpt>
      <trkpt lat="42.381691" lon="-8.634642">
        <ele>129.749</ele>
        <time>2018-08-25T09:39:53Z</time>
      </trkpt>
      <trkpt lat="42.381746" lon="-8.634675">
        <ele>129.977</ele>
        <time>2018-08-25T09:39:56Z</time>
      </trkpt>
      <trkpt lat="42.381792" lon="-8.634705">
        <ele>129.885</ele>
        <time>2018-08-25T09:39:58Z</time>
      </trkpt>
      <trkpt lat="42.381840" lon="-8.634743">
        <ele>129.875</ele>
        <time>2018-08-25T09:40:00Z</time>
      </trkpt>
      <trkpt lat="42.381893" lon="-8.634769">
        <ele>129.349</ele>
        <time>2018-08-25T09:40:02Z</time>
      </trkpt>
      <trkpt lat="42.381970" lon="-8.634790">
        <ele>128.902</ele>
        <time>2018-08-25T09:40:03Z</time>
      </trkpt>
      <trkpt lat="42.382055" lon="-8.634812">
        <ele>128.322</ele>
        <time>2018-08-25T09:40:05Z</time>
      </trkpt>
      <trkpt lat="42.382139" lon="-8.634839">
        <ele>127.908</ele>
        <time>2018-08-25T09:40:07Z</time>
      </trkpt>
      <trkpt lat="42.382189" lon="-8.634851">
        <ele>127.486</ele>
        <time>2018-08-25T09:40:08Z</time>
      </trkpt>
      <trkpt lat="42.382240" lon="-8.634868">
        <ele>126.912</ele>
        <time>2018-08-25T09:40:09Z</time>
      </trkpt>
      <trkpt lat="42.382294" lon="-8.634884">
        <ele>126.587</ele>
        <time>2018-08-25T09:40:10Z</time>
      </trkpt>
      <trkpt lat="42.382346" lon="-8.634898">
        <ele>126.331</ele>
        <time>2018-08-25T09:40:11Z</time>
      </trkpt>
      <trkpt lat="42.382400" lon="-8.634916">
        <ele>126.128</ele>
        <time>2018-08-25T09:40:12Z</time>
      </trkpt>
      <trkpt lat="42.382455" lon="-8.634933">
        <ele>125.956</ele>
        <time>2018-08-25T09:40:13Z</time>
      </trkpt>
      <trkpt lat="42.382511" lon="-8.634945">
        <ele>125.794</ele>
        <time>2018-08-25T09:40:14Z</time>
      </trkpt>
      <trkpt lat="42.382570" lon="-8.634956">
        <ele>125.574</ele>
        <time>2018-08-25T09:40:15Z</time>
      </trkpt>
      <trkpt lat="42.382626" lon="-8.634964">
        <ele>125.344</ele>
        <time>2018-08-25T09:40:16Z</time>
      </trkpt>
      <trkpt lat="42.382682" lon="-8.634974">
        <ele>125.105</ele>
        <time>2018-08-25T09:40:17Z</time>
      </trkpt>
      <trkpt lat="42.382738" lon="-8.634985">
        <ele>124.915</ele>
        <time>2018-08-25T09:40:18Z</time>
      </trkpt>
      <trkpt lat="42.382795" lon="-8.634998">
        <ele>124.708</ele>
        <time>2018-08-25T09:40:19Z</time>
      </trkpt>
      <trkpt lat="42.382849" lon="-8.635009">
        <ele>124.516</ele>
        <time>2018-08-25T09:40:20Z</time>
      </trkpt>
      <trkpt lat="42.382902" lon="-8.635022">
        <ele>124.232</ele>
        <time>2018-08-25T09:40:21Z</time>
      </trkpt>
      <trkpt lat="42.382954" lon="-8.635036">
        <ele>123.987</ele>
        <time>2018-08-25T09:40:22Z</time>
      </trkpt>
      <trkpt lat="42.383006" lon="-8.635047">
        <ele>123.771</ele>
        <time>2018-08-25T09:40:23Z</time>
      </trkpt>
      <trkpt lat="42.383054" lon="-8.635055">
        <ele>123.448</ele>
        <time>2018-08-25T09:40:24Z</time>
      </trkpt>
      <trkpt lat="42.383140" lon="-8.635069">
        <ele>123.286</ele>
        <time>2018-08-25T09:40:26Z</time>
      </trkpt>
      <trkpt lat="42.383198" lon="-8.635084">
        <ele>123.174</ele>
        <time>2018-08-25T09:40:28Z</time>
      </trkpt>
      <trkpt lat="42.383246" lon="-8.635094">
        <ele>123.064</ele>
        <time>2018-08-25T09:40:30Z</time>
      </trkpt>
      <trkpt lat="42.383307" lon="-8.635099">
        <ele>123.057</ele>
        <time>2018-08-25T09:40:32Z</time>
      </trkpt>
      <trkpt lat="42.383371" lon="-8.635101">
        <ele>122.800</ele>
        <time>2018-08-25T09:40:34Z</time>
      </trkpt>
      <trkpt lat="42.383444" lon="-8.635096">
        <ele>122.820</ele>
        <time>2018-08-25T09:40:36Z</time>
      </trkpt>
      <trkpt lat="42.383575" lon="-8.635088">
        <ele>122.908</ele>
        <time>2018-08-25T09:40:38Z</time>
      </trkpt>
      <trkpt lat="42.383635" lon="-8.635080">
        <ele>123.157</ele>
        <time>2018-08-25T09:40:40Z</time>
      </trkpt>
      <trkpt lat="42.383686" lon="-8.635083">
        <ele>123.383</ele>
        <time>2018-08-25T09:40:42Z</time>
      </trkpt>
      <trkpt lat="42.383742" lon="-8.635090">
        <ele>123.378</ele>
        <time>2018-08-25T09:40:44Z</time>
      </trkpt>
      <trkpt lat="42.383792" lon="-8.635102">
        <ele>123.492</ele>
        <time>2018-08-25T09:40:46Z</time>
      </trkpt>
      <trkpt lat="42.383840" lon="-8.635117">
        <ele>123.899</ele>
        <time>2018-08-25T09:40:48Z</time>
      </trkpt>
      <trkpt lat="42.383893" lon="-8.635128">
        <ele>124.677</ele>
        <time>2018-08-25T09:40:50Z</time>
      </trkpt>
      <trkpt lat="42.383954" lon="-8.635129">
        <ele>125.765</ele>
        <time>2018-08-25T09:40:52Z</time>
      </trkpt>
      <trkpt lat="42.384018" lon="-8.635122">
        <ele>126.815</ele>
        <time>2018-08-25T09:40:54Z</time>
      </trkpt>
      <trkpt lat="42.384082" lon="-8.635112">
        <ele>127.795</ele>
        <time>2018-08-25T09:40:56Z</time>
      </trkpt>
      <trkpt lat="42.384150" lon="-8.635097">
        <ele>128.249</ele>
        <time>2018-08-25T09:40:58Z</time>
      </trkpt>
      <trkpt lat="42.384216" lon="-8.635086">
        <ele>128.823</ele>
        <time>2018-08-25T09:41:00Z</time>
      </trkpt>
      <trkpt lat="42.384331" lon="-8.635078">
        <ele>129.508</ele>
        <time>2018-08-25T09:41:02Z</time>
      </trkpt>
      <trkpt lat="42.384411" lon="-8.635079">
        <ele>129.811</ele>
        <time>2018-08-25T09:41:04Z</time>
      </trkpt>
      <trkpt lat="42.384459" lon="-8.635080">
        <ele>129.717</ele>
        <time>2018-08-25T09:41:06Z</time>
      </trkpt>
      <trkpt lat="42.384526" lon="-8.635086">
        <ele>129.682</ele>
        <time>2018-08-25T09:41:08Z</time>
      </trkpt>
      <trkpt lat="42.384600" lon="-8.635096">
        <ele>129.496</ele>
        <time>2018-08-25T09:41:10Z</time>
      </trkpt>
      <trkpt lat="42.384730" lon="-8.635110">
        <ele>129.493</ele>
        <time>2018-08-25T09:41:12Z</time>
      </trkpt>
      <trkpt lat="42.384801" lon="-8.635103">
        <ele>129.221</ele>
        <time>2018-08-25T09:41:14Z</time>
      </trkpt>
      <trkpt lat="42.384874" lon="-8.635106">
        <ele>129.139</ele>
        <time>2018-08-25T09:41:16Z</time>
      </trkpt>
      <trkpt lat="42.384953" lon="-8.635101">
        <ele>129.099</ele>
        <time>2018-08-25T09:41:18Z</time>
      </trkpt>
      <trkpt lat="42.385030" lon="-8.635097">
        <ele>128.836</ele>
        <time>2018-08-25T09:41:20Z</time>
      </trkpt>
      <trkpt lat="42.385116" lon="-8.635091">
        <ele>128.317</ele>
        <time>2018-08-25T09:41:22Z</time>
      </trkpt>
      <trkpt lat="42.385163" lon="-8.635093">
        <ele>127.818</ele>
        <time>2018-08-25T09:41:23Z</time>
      </trkpt>
      <trkpt lat="42.385215" lon="-8.635094">
        <ele>127.408</ele>
        <time>2018-08-25T09:41:24Z</time>
      </trkpt>
      <trkpt lat="42.385269" lon="-8.635101">
        <ele>127.095</ele>
        <time>2018-08-25T09:41:25Z</time>
      </trkpt>
      <trkpt lat="42.385325" lon="-8.635106">
        <ele>126.681</ele>
        <time>2018-08-25T09:41:26Z</time>
      </trkpt>
      <trkpt lat="42.385386" lon="-8.635110">
        <ele>126.486</ele>
        <time>2018-08-25T09:41:27Z</time>
      </trkpt>
      <trkpt lat="42.385450" lon="-8.635115">
        <ele>126.220</ele>
        <time>2018-08-25T09:41:28Z</time>
      </trkpt>
      <trkpt lat="42.385516" lon="-8.635118">
        <ele>126.047</ele>
        <time>2018-08-25T09:41:29Z</time>
      </trkpt>
      <trkpt lat="42.385579" lon="-8.635119">
        <ele>125.855</ele>
        <time>2018-08-25T09:41:30Z</time>
      </trkpt>
      <trkpt lat="42.385641" lon="-8.635115">
        <ele>125.613</ele>
        <time>2018-08-25T09:41:31Z</time>
      </trkpt>
      <trkpt lat="42.385708" lon="-8.635113">
        <ele>125.453</ele>
        <time>2018-08-25T09:41:32Z</time>
      </trkpt>
      <trkpt lat="42.385775" lon="-8.635110">
        <ele>125.111</ele>
        <time>2018-08-25T09:41:33Z</time>
      </trkpt>
      <trkpt lat="42.385842" lon="-8.635109">
        <ele>124.921</ele>
        <time>2018-08-25T09:41:34Z</time>
      </trkpt>
      <trkpt lat="42.385906" lon="-8.635109">
        <ele>124.703</ele>
        <time>2018-08-25T09:41:35Z</time>
      </trkpt>
      <trkpt lat="42.385972" lon="-8.635109">
        <ele>124.508</ele>
        <time>2018-08-25T09:41:36Z</time>
      </trkpt>
      <trkpt lat="42.386037" lon="-8.635108">
        <ele>124.233</ele>
        <time>2018-08-25T09:41:37Z</time>
      </trkpt>
      <trkpt lat="42.386100" lon="-8.635111">
        <ele>124.089</ele>
        <time>2018-08-25T09:41:38Z</time>
      </trkpt>
      <trkpt lat="42.386161" lon="-8.635118">
        <ele>123.964</ele>
        <time>2018-08-25T09:41:39Z</time>
      </trkpt>
      <trkpt lat="42.386221" lon="-8.635121">
        <ele>123.778</ele>
        <time>2018-08-25T09:41:40Z</time>
      </trkpt>
      <trkpt lat="42.386286" lon="-8.635126">
        <ele>123.535</ele>
        <time>2018-08-25T09:41:41Z</time>
      </trkpt>
      <trkpt lat="42.386350" lon="-8.635131">
        <ele>123.383</ele>
        <time>2018-08-25T09:41:42Z</time>
      </trkpt>
      <trkpt lat="42.386415" lon="-8.635137">
        <ele>123.211</ele>
        <time>2018-08-25T09:41:43Z</time>
      </trkpt>
      <trkpt lat="42.386480" lon="-8.635140">
        <ele>123.141</ele>
        <time>2018-08-25T09:41:44Z</time>
      </trkpt>
      <trkpt lat="42.386542" lon="-8.635143">
        <ele>122.989</ele>
        <time>2018-08-25T09:41:45Z</time>
      </trkpt>
      <trkpt lat="42.386604" lon="-8.635142">
        <ele>122.706</ele>
        <time>2018-08-25T09:41:46Z</time>
      </trkpt>
      <trkpt lat="42.386664" lon="-8.635137">
        <ele>122.526</ele>
        <time>2018-08-25T09:41:47Z</time>
      </trkpt>
      <trkpt lat="42.386723" lon="-8.635131">
        <ele>122.308</ele>
        <time>2018-08-25T09:41:48Z</time>
      </trkpt>
      <trkpt lat="42.386784" lon="-8.635122">
        <ele>122.150</ele>
        <time>2018-08-25T09:41:49Z</time>
      </trkpt>
      <trkpt lat="42.386846" lon="-8.635116">
        <ele>121.926</ele>
        <time>2018-08-25T09:41:50Z</time>
      </trkpt>
      <trkpt lat="42.386901" lon="-8.635109">
        <ele>121.721</ele>
        <time>2018-08-25T09:41:51Z</time>
      </trkpt>
      <trkpt lat="42.386953" lon="-8.635103">
        <ele>121.465</ele>
        <time>2018-08-25T09:41:52Z</time>
      </trkpt>
      <trkpt lat="42.387006" lon="-8.635099">
        <ele>121.242</ele>
        <time>2018-08-25T09:41:53Z</time>
      </trkpt>
      <trkpt lat="42.387059" lon="-8.635096">
        <ele>121.170</ele>
        <time>2018-08-25T09:41:54Z</time>
      </trkpt>
      <trkpt lat="42.387109" lon="-8.635096">
        <ele>121.168</ele>
        <time>2018-08-25T09:41:55Z</time>
      </trkpt>
      <trkpt lat="42.387158" lon="-8.635095">
        <ele>121.298</ele>
        <time>2018-08-25T09:41:56Z</time>
      </trkpt>
      <trkpt lat="42.387205" lon="-8.635083">
        <ele>121.467</ele>
        <time>2018-08-25T09:41:57Z</time>
      </trkpt>
      <trkpt lat="42.387249" lon="-8.635062">
        <ele>121.781</ele>
        <time>2018-08-25T09:41:58Z</time>
      </trkpt>
      <trkpt lat="42.387309" lon="-8.635045">
        <ele>122.219</ele>
        <time>2018-08-25T09:42:00Z</time>
      </trkpt>
      <trkpt lat="42.387361" lon="-8.635017">
        <ele>122.908</ele>
        <time>2018-08-25T09:42:03Z</time>
      </trkpt>
      <trkpt lat="42.387416" lon="-8.634979">
        <ele>123.438</ele>
        <time>2018-08-25T09:42:04Z</time>
      </trkpt>
      <trkpt lat="42.387471" lon="-8.634904">
        <ele>123.464</ele>
        <time>2018-08-25T09:42:06Z</time>
      </trkpt>
      <trkpt lat="42.387516" lon="-8.634895">
        <ele>123.879</ele>
        <time>2018-08-25T09:42:09Z</time>
      </trkpt>
      <trkpt lat="42.387550" lon="-8.634950">
        <ele>124.643</ele>
        <time>2018-08-25T09:54:23Z</time>
      </trkpt>
      <trkpt lat="42.387535" lon="-8.635016">
        <ele>123.020</ele>
        <time>2018-08-25T09:56:37Z</time>
      </trkpt>
      <trkpt lat="42.387555" lon="-8.635074">
        <ele>121.798</ele>
        <time>2018-08-25T09:56:44Z</time>
      </trkpt>
      <trkpt lat="42.387606" lon="-8.635081">
        <ele>120.726</ele>
        <time>2018-08-25T09:56:50Z</time>
      </trkpt>
      <trkpt lat="42.387665" lon="-8.635089">
        <ele>120.316</ele>
        <time>2018-08-25T09:56:53Z</time>
      </trkpt>
      <trkpt lat="42.387710" lon="-8.635093">
        <ele>119.973</ele>
        <time>2018-08-25T09:56:55Z</time>
      </trkpt>
      <trkpt lat="42.387758" lon="-8.635096">
        <ele>119.685</ele>
        <time>2018-08-25T09:56:57Z</time>
      </trkpt>
      <trkpt lat="42.387810" lon="-8.635096">
        <ele>119.113</ele>
        <time>2018-08-25T09:56:59Z</time>
      </trkpt>
      <trkpt lat="42.387865" lon="-8.635095">
        <ele>118.908</ele>
        <time>2018-08-25T09:57:01Z</time>
      </trkpt>
      <trkpt lat="42.387924" lon="-8.635092">
        <ele>118.829</ele>
        <time>2018-08-25T09:57:03Z</time>
      </trkpt>
      <trkpt lat="42.387986" lon="-8.635090">
        <ele>119.365</ele>
        <time>2018-08-25T09:57:05Z</time>
      </trkpt>
      <trkpt lat="42.388041" lon="-8.635087">
        <ele>119.450</ele>
        <time>2018-08-25T09:57:07Z</time>
      </trkpt>
      <trkpt lat="42.388093" lon="-8.635089">
        <ele>119.574</ele>
        <time>2018-08-25T09:57:09Z</time>
      </trkpt>
      <trkpt lat="42.388147" lon="-8.635097">
        <ele>119.471</ele>
        <time>2018-08-25T09:57:11Z</time>
      </trkpt>
      <trkpt lat="42.388198" lon="-8.635101">
        <ele>119.299</ele>
        <time>2018-08-25T09:57:13Z</time>
      </trkpt>
      <trkpt lat="42.388249" lon="-8.635095">
        <ele>119.397</ele>
        <time>2018-08-25T09:57:15Z</time>
      </trkpt>
      <trkpt lat="42.388303" lon="-8.635082">
        <ele>119.747</ele>
        <time>2018-08-25T09:57:17Z</time>
      </trkpt>
      <trkpt lat="42.388355" lon="-8.635067">
        <ele>119.683</ele>
        <time>2018-08-25T09:57:19Z</time>
      </trkpt>
      <trkpt lat="42.388411" lon="-8.635056">
        <ele>119.425</ele>
        <time>2018-08-25T09:57:21Z</time>
      </trkpt>
      <trkpt lat="42.388466" lon="-8.635061">
        <ele>119.517</ele>
        <time>2018-08-25T09:57:23Z</time>
      </trkpt>
      <trkpt lat="42.388517" lon="-8.635075">
        <ele>119.808</ele>
        <time>2018-08-25T09:57:25Z</time>
      </trkpt>
      <trkpt lat="42.388569" lon="-8.635092">
        <ele>119.910</ele>
        <time>2018-08-25T09:57:27Z</time>
      </trkpt>
      <trkpt lat="42.388621" lon="-8.635110">
        <ele>120.146</ele>
        <time>2018-08-25T09:57:29Z</time>
      </trkpt>
      <trkpt lat="42.388686" lon="-8.635114">
        <ele>120.211</ele>
        <time>2018-08-25T09:57:31Z</time>
      </trkpt>
      <trkpt lat="42.388758" lon="-8.635112">
        <ele>120.455</ele>
        <time>2018-08-25T09:57:33Z</time>
      </trkpt>
      <trkpt lat="42.388832" lon="-8.635100">
        <ele>120.622</ele>
        <time>2018-08-25T09:57:35Z</time>
      </trkpt>
      <trkpt lat="42.388908" lon="-8.635076">
        <ele>121.260</ele>
        <time>2018-08-25T09:57:37Z</time>
      </trkpt>
      <trkpt lat="42.388987" lon="-8.635060">
        <ele>121.448</ele>
        <time>2018-08-25T09:57:39Z</time>
      </trkpt>
      <trkpt lat="42.389064" lon="-8.635050">
        <ele>121.248</ele>
        <time>2018-08-25T09:57:41Z</time>
      </trkpt>
      <trkpt lat="42.389137" lon="-8.635040">
        <ele>121.011</ele>
        <time>2018-08-25T09:57:43Z</time>
      </trkpt>
      <trkpt lat="42.389217" lon="-8.635028">
        <ele>121.621</ele>
        <time>2018-08-25T09:57:45Z</time>
      </trkpt>
      <trkpt lat="42.389315" lon="-8.635027">
        <ele>122.203</ele>
        <time>2018-08-25T09:57:46Z</time>
      </trkpt>
      <trkpt lat="42.389363" lon="-8.635032">
        <ele>122.708</ele>
        <time>2018-08-25T09:57:48Z</time>
      </trkpt>
      <trkpt lat="42.389425" lon="-8.635040">
        <ele>123.123</ele>
        <time>2018-08-25T09:57:50Z</time>
      </trkpt>
      <trkpt lat="42.389487" lon="-8.635043">
        <ele>123.329</ele>
        <time>2018-08-25T09:57:52Z</time>
      </trkpt>
      <trkpt lat="42.389547" lon="-8.635056">
        <ele>123.814</ele>
        <time>2018-08-25T09:57:54Z</time>
      </trkpt>
      <trkpt lat="42.389610" lon="-8.635069">
        <ele>124.388</ele>
        <time>2018-08-25T09:57:56Z</time>
      </trkpt>
      <trkpt lat="42.389669" lon="-8.635077">
        <ele>124.865</ele>
        <time>2018-08-25T09:57:58Z</time>
      </trkpt>
      <trkpt lat="42.389729" lon="-8.635088">
        <ele>125.273</ele>
        <time>2018-08-25T09:58:00Z</time>
      </trkpt>
      <trkpt lat="42.389796" lon="-8.635095">
        <ele>125.091</ele>
        <time>2018-08-25T09:58:02Z</time>
      </trkpt>
      <trkpt lat="42.389867" lon="-8.635093">
        <ele>125.131</ele>
        <time>2018-08-25T09:58:04Z</time>
      </trkpt>
      <trkpt lat="42.389999" lon="-8.635069">
        <ele>125.631</ele>
        <time>2018-08-25T09:58:06Z</time>
      </trkpt>
      <trkpt lat="42.390086" lon="-8.635057">
        <ele>126.161</ele>
        <time>2018-08-25T09:58:08Z</time>
      </trkpt>
      <trkpt lat="42.390171" lon="-8.635045">
        <ele>126.507</ele>
        <time>2018-08-25T09:58:10Z</time>
      </trkpt>
      <trkpt lat="42.390246" lon="-8.635055">
        <ele>127.108</ele>
        <time>2018-08-25T09:58:12Z</time>
      </trkpt>
      <trkpt lat="42.390320" lon="-8.635066">
        <ele>127.745</ele>
        <time>2018-08-25T09:58:14Z</time>
      </trkpt>
      <trkpt lat="42.390428" lon="-8.635071">
        <ele>127.521</ele>
        <time>2018-08-25T09:58:17Z</time>
      </trkpt>
      <trkpt lat="42.390510" lon="-8.635052">
        <ele>127.186</ele>
        <time>2018-08-25T09:58:19Z</time>
      </trkpt>
      <trkpt lat="42.390591" lon="-8.635045">
        <ele>126.380</ele>
        <time>2018-08-25T09:58:21Z</time>
      </trkpt>
      <trkpt lat="42.390651" lon="-8.635048">
        <ele>125.497</ele>
        <time>2018-08-25T09:58:23Z</time>
      </trkpt>
      <trkpt lat="42.390706" lon="-8.635060">
        <ele>124.845</ele>
        <time>2018-08-25T09:58:25Z</time>
      </trkpt>
      <trkpt lat="42.390769" lon="-8.635076">
        <ele>124.393</ele>
        <time>2018-08-25T09:58:27Z</time>
      </trkpt>
      <trkpt lat="42.390838" lon="-8.635089">
        <ele>123.933</ele>
        <time>2018-08-25T09:58:29Z</time>
      </trkpt>
      <trkpt lat="42.390925" lon="-8.635099">
        <ele>123.768</ele>
        <time>2018-08-25T09:58:30Z</time>
      </trkpt>
      <trkpt lat="42.391007" lon="-8.635105">
        <ele>123.442</ele>
        <time>2018-08-25T09:58:32Z</time>
      </trkpt>
      <trkpt lat="42.391086" lon="-8.635114">
        <ele>123.126</ele>
        <time>2018-08-25T09:58:34Z</time>
      </trkpt>
      <trkpt lat="42.391162" lon="-8.635109">
        <ele>122.708</ele>
        <time>2018-08-25T09:58:36Z</time>
      </trkpt>
      <trkpt lat="42.391241" lon="-8.635123">
        <ele>122.278</ele>
        <time>2018-08-25T09:58:38Z</time>
      </trkpt>
      <trkpt lat="42.391319" lon="-8.635147">
        <ele>121.624</ele>
        <time>2018-08-25T09:58:40Z</time>
      </trkpt>
      <trkpt lat="42.391393" lon="-8.635154">
        <ele>121.159</ele>
        <time>2018-08-25T09:58:42Z</time>
      </trkpt>
      <trkpt lat="42.391471" lon="-8.635157">
        <ele>120.783</ele>
        <time>2018-08-25T09:58:44Z</time>
      </trkpt>
      <trkpt lat="42.391555" lon="-8.635162">
        <ele>120.310</ele>
        <time>2018-08-25T09:58:46Z</time>
      </trkpt>
      <trkpt lat="42.391643" lon="-8.635170">
        <ele>119.768</ele>
        <time>2018-08-25T09:58:48Z</time>
      </trkpt>
      <trkpt lat="42.391689" lon="-8.635172">
        <ele>119.156</ele>
        <time>2018-08-25T09:58:49Z</time>
      </trkpt>
      <trkpt lat="42.391739" lon="-8.635167">
        <ele>118.536</ele>
        <time>2018-08-25T09:58:50Z</time>
      </trkpt>
      <trkpt lat="42.391789" lon="-8.635166">
        <ele>118.034</ele>
        <time>2018-08-25T09:58:51Z</time>
      </trkpt>
      <trkpt lat="42.391841" lon="-8.635162">
        <ele>117.455</ele>
        <time>2018-08-25T09:58:52Z</time>
      </trkpt>
      <trkpt lat="42.391931" lon="-8.635153">
        <ele>116.810</ele>
        <time>2018-08-25T09:58:54Z</time>
      </trkpt>
      <trkpt lat="42.391981" lon="-8.635151">
        <ele>116.408</ele>
        <time>2018-08-25T09:58:55Z</time>
      </trkpt>
      <trkpt lat="42.392031" lon="-8.635150">
        <ele>116.225</ele>
        <time>2018-08-25T09:58:56Z</time>
      </trkpt>
      <trkpt lat="42.392078" lon="-8.635160">
        <ele>116.041</ele>
        <time>2018-08-25T09:58:57Z</time>
      </trkpt>
      <trkpt lat="42.392126" lon="-8.635164">
        <ele>115.816</ele>
        <time>2018-08-25T09:58:58Z</time>
      </trkpt>
      <trkpt lat="42.392174" lon="-8.635160">
        <ele>115.690</ele>
        <time>2018-08-25T09:58:59Z</time>
      </trkpt>
      <trkpt lat="42.392219" lon="-8.635152">
        <ele>115.597</ele>
        <time>2018-08-25T09:59:00Z</time>
      </trkpt>
      <trkpt lat="42.392264" lon="-8.635143">
        <ele>115.455</ele>
        <time>2018-08-25T09:59:01Z</time>
      </trkpt>
      <trkpt lat="42.392309" lon="-8.635133">
        <ele>115.333</ele>
        <time>2018-08-25T09:59:02Z</time>
      </trkpt>
      <trkpt lat="42.392354" lon="-8.635127">
        <ele>115.323</ele>
        <time>2018-08-25T09:59:03Z</time>
      </trkpt>
      <trkpt lat="42.392440" lon="-8.635122">
        <ele>115.219</ele>
        <time>2018-08-25T09:59:05Z</time>
      </trkpt>
      <trkpt lat="42.392526" lon="-8.635118">
        <ele>115.009</ele>
        <time>2018-08-25T09:59:07Z</time>
      </trkpt>
      <trkpt lat="42.392606" lon="-8.635127">
        <ele>114.819</ele>
        <time>2018-08-25T09:59:09Z</time>
      </trkpt>
      <trkpt lat="42.392696" lon="-8.635137">
        <ele>114.608</ele>
        <time>2018-08-25T09:59:11Z</time>
      </trkpt>
      <trkpt lat="42.392744" lon="-8.635141">
        <ele>114.593</ele>
        <time>2018-08-25T09:59:12Z</time>
      </trkpt>
      <trkpt lat="42.392792" lon="-8.635140">
        <ele>114.499</ele>
        <time>2018-08-25T09:59:13Z</time>
      </trkpt>
      <trkpt lat="42.392840" lon="-8.635142">
        <ele>114.384</ele>
        <time>2018-08-25T09:59:14Z</time>
      </trkpt>
      <trkpt lat="42.392896" lon="-8.635143">
        <ele>114.498</ele>
        <time>2018-08-25T09:59:15Z</time>
      </trkpt>
      <trkpt lat="42.392947" lon="-8.635147">
        <ele>114.485</ele>
        <time>2018-08-25T09:59:16Z</time>
      </trkpt>
      <trkpt lat="42.392993" lon="-8.635148">
        <ele>114.363</ele>
        <time>2018-08-25T09:59:17Z</time>
      </trkpt>
      <trkpt lat="42.393078" lon="-8.635143">
        <ele>114.231</ele>
        <time>2018-08-25T09:59:19Z</time>
      </trkpt>
      <trkpt lat="42.393165" lon="-8.635141">
        <ele>114.171</ele>
        <time>2018-08-25T09:59:21Z</time>
      </trkpt>
      <trkpt lat="42.393248" lon="-8.635141">
        <ele>113.815</ele>
        <time>2018-08-25T09:59:23Z</time>
      </trkpt>
      <trkpt lat="42.393335" lon="-8.635131">
        <ele>113.465</ele>
        <time>2018-08-25T09:59:25Z</time>
      </trkpt>
      <trkpt lat="42.393423" lon="-8.635121">
        <ele>112.811</ele>
        <time>2018-08-25T09:59:27Z</time>
      </trkpt>
      <trkpt lat="42.393512" lon="-8.635119">
        <ele>112.208</ele>
        <time>2018-08-25T09:59:29Z</time>
      </trkpt>
      <trkpt lat="42.393557" lon="-8.635117">
        <ele>111.793</ele>
        <time>2018-08-25T09:59:30Z</time>
      </trkpt>
      <trkpt lat="42.393602" lon="-8.635116">
        <ele>111.389</ele>
        <time>2018-08-25T09:59:31Z</time>
      </trkpt>
      <trkpt lat="42.393687" lon="-8.635118">
        <ele>110.974</ele>
        <time>2018-08-25T09:59:33Z</time>
      </trkpt>
      <trkpt lat="42.393778" lon="-8.635116">
        <ele>110.318</ele>
        <time>2018-08-25T09:59:35Z</time>
      </trkpt>
      <trkpt lat="42.393865" lon="-8.635127">
        <ele>109.875</ele>
        <time>2018-08-25T09:59:37Z</time>
      </trkpt>
      <trkpt lat="42.393948" lon="-8.635131">
        <ele>109.463</ele>
        <time>2018-08-25T09:59:39Z</time>
      </trkpt>
      <trkpt lat="42.394037" lon="-8.635129">
        <ele>109.061</ele>
        <time>2018-08-25T09:59:41Z</time>
      </trkpt>
      <trkpt lat="42.394123" lon="-8.635131">
        <ele>108.671</ele>
        <time>2018-08-25T09:59:43Z</time>
      </trkpt>
      <trkpt lat="42.394208" lon="-8.635130">
        <ele>108.346</ele>
        <time>2018-08-25T09:59:45Z</time>
      </trkpt>
      <trkpt lat="42.394290" lon="-8.635134">
        <ele>108.188</ele>
        <time>2018-08-25T09:59:47Z</time>
      </trkpt>
      <trkpt lat="42.394377" lon="-8.635131">
        <ele>107.916</ele>
        <time>2018-08-25T09:59:49Z</time>
      </trkpt>
      <trkpt lat="42.394422" lon="-8.635132">
        <ele>107.808</ele>
        <time>2018-08-25T09:59:50Z</time>
      </trkpt>
      <trkpt lat="42.394468" lon="-8.635138">
        <ele>107.696</ele>
        <time>2018-08-25T09:59:51Z</time>
      </trkpt>
      <trkpt lat="42.394556" lon="-8.635155">
        <ele>107.362</ele>
        <time>2018-08-25T09:59:53Z</time>
      </trkpt>
      <trkpt lat="42.394639" lon="-8.635164">
        <ele>107.097</ele>
        <time>2018-08-25T09:59:55Z</time>
      </trkpt>
      <trkpt lat="42.394721" lon="-8.635172">
        <ele>106.821</ele>
        <time>2018-08-25T09:59:57Z</time>
      </trkpt>
      <trkpt lat="42.394804" lon="-8.635177">
        <ele>106.588</ele>
        <time>2018-08-25T09:59:59Z</time>
      </trkpt>
      <trkpt lat="42.394893" lon="-8.635177">
        <ele>106.376</ele>
        <time>2018-08-25T10:00:01Z</time>
      </trkpt>
      <trkpt lat="42.394938" lon="-8.635177">
        <ele>106.394</ele>
        <time>2018-08-25T10:00:02Z</time>
      </trkpt>
      <trkpt lat="42.394984" lon="-8.635178">
        <ele>106.454</ele>
        <time>2018-08-25T10:00:03Z</time>
      </trkpt>
      <trkpt lat="42.395032" lon="-8.635173">
        <ele>106.454</ele>
        <time>2018-08-25T10:00:04Z</time>
      </trkpt>
      <trkpt lat="42.395080" lon="-8.635170">
        <ele>106.356</ele>
        <time>2018-08-25T10:00:05Z</time>
      </trkpt>
      <trkpt lat="42.395130" lon="-8.635168">
        <ele>106.211</ele>
        <time>2018-08-25T10:00:06Z</time>
      </trkpt>
      <trkpt lat="42.395181" lon="-8.635171">
        <ele>106.208</ele>
        <time>2018-08-25T10:00:07Z</time>
      </trkpt>
      <trkpt lat="42.395233" lon="-8.635172">
        <ele>106.157</ele>
        <time>2018-08-25T10:00:08Z</time>
      </trkpt>
      <trkpt lat="42.395288" lon="-8.635172">
        <ele>105.943</ele>
        <time>2018-08-25T10:00:09Z</time>
      </trkpt>
      <trkpt lat="42.395343" lon="-8.635177">
        <ele>105.888</ele>
        <time>2018-08-25T10:00:10Z</time>
      </trkpt>
      <trkpt lat="42.395398" lon="-8.635183">
        <ele>105.792</ele>
        <time>2018-08-25T10:00:11Z</time>
      </trkpt>
      <trkpt lat="42.395453" lon="-8.635187">
        <ele>105.789</ele>
        <time>2018-08-25T10:00:12Z</time>
      </trkpt>
      <trkpt lat="42.395506" lon="-8.635192">
        <ele>105.777</ele>
        <time>2018-08-25T10:00:13Z</time>
      </trkpt>
      <trkpt lat="42.395563" lon="-8.635205">
        <ele>105.635</ele>
        <time>2018-08-25T10:00:14Z</time>
      </trkpt>
      <trkpt lat="42.395615" lon="-8.635212">
        <ele>105.515</ele>
        <time>2018-08-25T10:00:15Z</time>
      </trkpt>
      <trkpt lat="42.395665" lon="-8.635221">
        <ele>105.371</ele>
        <time>2018-08-25T10:00:16Z</time>
      </trkpt>
      <trkpt lat="42.395715" lon="-8.635232">
        <ele>105.141</ele>
        <time>2018-08-25T10:00:17Z</time>
      </trkpt>
      <trkpt lat="42.395764" lon="-8.635246">
        <ele>105.015</ele>
        <time>2018-08-25T10:00:18Z</time>
      </trkpt>
      <trkpt lat="42.395810" lon="-8.635259">
        <ele>104.908</ele>
        <time>2018-08-25T10:00:19Z</time>
      </trkpt>
      <trkpt lat="42.395858" lon="-8.635271">
        <ele>104.889</ele>
        <time>2018-08-25T10:00:20Z</time>
      </trkpt>
      <trkpt lat="42.395905" lon="-8.635283">
        <ele>104.755</ele>
        <time>2018-08-25T10:00:21Z</time>
      </trkpt>
      <trkpt lat="42.395954" lon="-8.635291">
        <ele>104.710</ele>
        <time>2018-08-25T10:00:22Z</time>
      </trkpt>
      <trkpt lat="42.396003" lon="-8.635296">
        <ele>104.714</ele>
        <time>2018-08-25T10:00:23Z</time>
      </trkpt>
      <trkpt lat="42.396055" lon="-8.635291">
        <ele>104.931</ele>
        <time>2018-08-25T10:00:24Z</time>
      </trkpt>
      <trkpt lat="42.396107" lon="-8.635288">
        <ele>105.039</ele>
        <time>2018-08-25T10:00:25Z</time>
      </trkpt>
      <trkpt lat="42.396159" lon="-8.635283">
        <ele>105.447</ele>
        <time>2018-08-25T10:00:26Z</time>
      </trkpt>
      <trkpt lat="42.396209" lon="-8.635285">
        <ele>105.627</ele>
        <time>2018-08-25T10:00:27Z</time>
      </trkpt>
      <trkpt lat="42.396259" lon="-8.635291">
        <ele>105.743</ele>
        <time>2018-08-25T10:00:28Z</time>
      </trkpt>
      <trkpt lat="42.396309" lon="-8.635299">
        <ele>105.764</ele>
        <time>2018-08-25T10:00:29Z</time>
      </trkpt>
      <trkpt lat="42.396359" lon="-8.635309">
        <ele>105.610</ele>
        <time>2018-08-25T10:00:30Z</time>
      </trkpt>
      <trkpt lat="42.396410" lon="-8.635320">
        <ele>105.408</ele>
        <time>2018-08-25T10:00:31Z</time>
      </trkpt>
      <trkpt lat="42.396461" lon="-8.635331">
        <ele>105.196</ele>
        <time>2018-08-25T10:00:32Z</time>
      </trkpt>
      <trkpt lat="42.396514" lon="-8.635344">
        <ele>104.862</ele>
        <time>2018-08-25T10:00:33Z</time>
      </trkpt>
      <trkpt lat="42.396564" lon="-8.635366">
        <ele>104.317</ele>
        <time>2018-08-25T10:00:34Z</time>
      </trkpt>
      <trkpt lat="42.396615" lon="-8.635396">
        <ele>103.661</ele>
        <time>2018-08-25T10:00:35Z</time>
      </trkpt>
      <trkpt lat="42.396671" lon="-8.635423">
        <ele>103.048</ele>
        <time>2018-08-25T10:00:36Z</time>
      </trkpt>
      <trkpt lat="42.396729" lon="-8.635455">
        <ele>102.526</ele>
        <time>2018-08-25T10:00:37Z</time>
      </trkpt>
      <trkpt lat="42.396791" lon="-8.635489">
        <ele>102.024</ele>
        <time>2018-08-25T10:00:38Z</time>
      </trkpt>
      <trkpt lat="42.396856" lon="-8.635526">
        <ele>101.614</ele>
        <time>2018-08-25T10:00:39Z</time>
      </trkpt>
      <trkpt lat="42.396924" lon="-8.635564">
        <ele>101.354</ele>
        <time>2018-08-25T10:00:40Z</time>
      </trkpt>
      <trkpt lat="42.396994" lon="-8.635603">
        <ele>100.956</ele>
        <time>2018-08-25T10:00:41Z</time>
      </trkpt>
      <trkpt lat="42.397069" lon="-8.635639">
        <ele>100.311</ele>
        <time>2018-08-25T10:00:42Z</time>
      </trkpt>
      <trkpt lat="42.397144" lon="-8.635674">
        <ele>99.808</ele>
        <time>2018-08-25T10:00:43Z</time>
      </trkpt>
      <trkpt lat="42.397216" lon="-8.635719">
        <ele>99.277</ele>
        <time>2018-08-25T10:00:44Z</time>
      </trkpt>
      <trkpt lat="42.397286" lon="-8.635761">
        <ele>98.643</ele>
        <time>2018-08-25T10:00:45Z</time>
      </trkpt>
      <trkpt lat="42.397355" lon="-8.635805">
        <ele>98.148</ele>
        <time>2018-08-25T10:00:46Z</time>
      </trkpt>
      <trkpt lat="42.397422" lon="-8.635849">
        <ele>97.782</ele>
        <time>2018-08-25T10:00:47Z</time>
      </trkpt>
      <trkpt lat="42.397492" lon="-8.635890">
        <ele>97.559</ele>
        <time>2018-08-25T10:00:48Z</time>
      </trkpt>
      <trkpt lat="42.397561" lon="-8.635928">
        <ele>97.317</ele>
        <time>2018-08-25T10:00:49Z</time>
      </trkpt>
      <trkpt lat="42.397631" lon="-8.635962">
        <ele>97.145</ele>
        <time>2018-08-25T10:00:50Z</time>
      </trkpt>
      <trkpt lat="42.397701" lon="-8.635994">
        <ele>96.955</ele>
        <time>2018-08-25T10:00:51Z</time>
      </trkpt>
      <trkpt lat="42.397770" lon="-8.636025">
        <ele>96.713</ele>
        <time>2018-08-25T10:00:52Z</time>
      </trkpt>
      <trkpt lat="42.397837" lon="-8.636056">
        <ele>96.543</ele>
        <time>2018-08-25T10:00:53Z</time>
      </trkpt>
      <trkpt lat="42.397903" lon="-8.636083">
        <ele>96.307</ele>
        <time>2018-08-25T10:00:54Z</time>
      </trkpt>
      <trkpt lat="42.397971" lon="-8.636105">
        <ele>96.108</ele>
        <time>2018-08-25T10:00:55Z</time>
      </trkpt>
      <trkpt lat="42.398033" lon="-8.636133">
        <ele>95.923</ele>
        <time>2018-08-25T10:00:56Z</time>
      </trkpt>
      <trkpt lat="42.398091" lon="-8.636159">
        <ele>95.799</ele>
        <time>2018-08-25T10:00:57Z</time>
      </trkpt>
      <trkpt lat="42.398147" lon="-8.636190">
        <ele>95.544</ele>
        <time>2018-08-25T10:00:58Z</time>
      </trkpt>
      <trkpt lat="42.398205" lon="-8.636222">
        <ele>95.298</ele>
        <time>2018-08-25T10:00:59Z</time>
      </trkpt>
      <trkpt lat="42.398263" lon="-8.636250">
        <ele>95.195</ele>
        <time>2018-08-25T10:01:00Z</time>
      </trkpt>
      <trkpt lat="42.398318" lon="-8.636274">
        <ele>94.963</ele>
        <time>2018-08-25T10:01:01Z</time>
      </trkpt>
      <trkpt lat="42.398370" lon="-8.636300">
        <ele>94.831</ele>
        <time>2018-08-25T10:01:02Z</time>
      </trkpt>
      <trkpt lat="42.398418" lon="-8.636331">
        <ele>94.771</ele>
        <time>2018-08-25T10:01:03Z</time>
      </trkpt>
      <trkpt lat="42.398466" lon="-8.636357">
        <ele>94.521</ele>
        <time>2018-08-25T10:01:04Z</time>
      </trkpt>
      <trkpt lat="42.398511" lon="-8.636382">
        <ele>94.441</ele>
        <time>2018-08-25T10:01:05Z</time>
      </trkpt>
      <trkpt lat="42.398553" lon="-8.636412">
        <ele>94.305</ele>
        <time>2018-08-25T10:01:06Z</time>
      </trkpt>
      <trkpt lat="42.398595" lon="-8.636445">
        <ele>94.208</ele>
        <time>2018-08-25T10:01:07Z</time>
      </trkpt>
      <trkpt lat="42.398641" lon="-8.636478">
        <ele>94.374</ele>
        <time>2018-08-25T10:01:08Z</time>
      </trkpt>
      <trkpt lat="42.398688" lon="-8.636509">
        <ele>94.520</ele>
        <time>2018-08-25T10:01:09Z</time>
      </trkpt>
      <trkpt lat="42.398727" lon="-8.636548">
        <ele>94.855</ele>
        <time>2018-08-25T10:01:10Z</time>
      </trkpt>
      <trkpt lat="42.398771" lon="-8.636582">
        <ele>95.059</ele>
        <time>2018-08-25T10:01:11Z</time>
      </trkpt>
      <trkpt lat="42.398821" lon="-8.636613">
        <ele>95.176</ele>
        <time>2018-08-25T10:01:12Z</time>
      </trkpt>
      <trkpt lat="42.398876" lon="-8.636640">
        <ele>95.344</ele>
        <time>2018-08-25T10:01:13Z</time>
      </trkpt>
      <trkpt lat="42.398930" lon="-8.636671">
        <ele>95.592</ele>
        <time>2018-08-25T10:01:14Z</time>
      </trkpt>
      <trkpt lat="42.398978" lon="-8.636698">
        <ele>95.692</ele>
        <time>2018-08-25T10:01:15Z</time>
      </trkpt>
      <trkpt lat="42.399027" lon="-8.636721">
        <ele>95.697</ele>
        <time>2018-08-25T10:01:16Z</time>
      </trkpt>
      <trkpt lat="42.399074" lon="-8.636739">
        <ele>95.623</ele>
        <time>2018-08-25T10:01:17Z</time>
      </trkpt>
      <trkpt lat="42.399116" lon="-8.636764">
        <ele>95.525</ele>
        <time>2018-08-25T10:01:18Z</time>
      </trkpt>
      <trkpt lat="42.399197" lon="-8.636813">
        <ele>95.508</ele>
        <time>2018-08-25T10:01:20Z</time>
      </trkpt>
      <trkpt lat="42.399241" lon="-8.636834">
        <ele>95.531</ele>
        <time>2018-08-25T10:01:21Z</time>
      </trkpt>
      <trkpt lat="42.399286" lon="-8.636854">
        <ele>95.417</ele>
        <time>2018-08-25T10:01:22Z</time>
      </trkpt>
      <trkpt lat="42.399329" lon="-8.636873">
        <ele>95.292</ele>
        <time>2018-08-25T10:01:23Z</time>
      </trkpt>
      <trkpt lat="42.399412" lon="-8.636907">
        <ele>94.776</ele>
        <time>2018-08-25T10:01:25Z</time>
      </trkpt>
      <trkpt lat="42.399494" lon="-8.636962">
        <ele>94.633</ele>
        <time>2018-08-25T10:01:27Z</time>
      </trkpt>
      <trkpt lat="42.399569" lon="-8.637006">
        <ele>94.731</ele>
        <time>2018-08-25T10:01:29Z</time>
      </trkpt>
      <trkpt lat="42.399647" lon="-8.637051">
        <ele>95.049</ele>
        <time>2018-08-25T10:01:31Z</time>
      </trkpt>
      <trkpt lat="42.399729" lon="-8.637094">
        <ele>95.069</ele>
        <time>2018-08-25T10:01:33Z</time>
      </trkpt>
      <trkpt lat="42.399816" lon="-8.637136">
        <ele>95.249</ele>
        <time>2018-08-25T10:01:35Z</time>
      </trkpt>
      <trkpt lat="42.399862" lon="-8.637155">
        <ele>95.402</ele>
        <time>2018-08-25T10:01:36Z</time>
      </trkpt>
      <trkpt lat="42.399906" lon="-8.637176">
        <ele>95.622</ele>
        <time>2018-08-25T10:01:37Z</time>
      </trkpt>
      <trkpt lat="42.399987" lon="-8.637214">
        <ele>95.708</ele>
        <time>2018-08-25T10:01:39Z</time>
      </trkpt>
      <trkpt lat="42.400032" lon="-8.637227">
        <ele>95.636</ele>
        <time>2018-08-25T10:01:41Z</time>
      </trkpt>
      <trkpt lat="42.400069" lon="-8.637191">
        <ele>94.822</ele>
        <time>2018-08-25T10:01:47Z</time>
      </trkpt>
      <trkpt lat="42.400043" lon="-8.637135">
        <ele>94.337</ele>
        <time>2018-08-25T10:01:50Z</time>
      </trkpt>
      <trkpt lat="42.400008" lon="-8.637078">
        <ele>94.151</ele>
        <time>2018-08-25T10:01:52Z</time>
      </trkpt>
      <trkpt lat="42.399968" lon="-8.637009">
        <ele>94.028</ele>
        <time>2018-08-25T10:01:54Z</time>
      </trkpt>
      <trkpt lat="42.399937" lon="-8.636952">
        <ele>93.966</ele>
        <time>2018-08-25T10:01:56Z</time>
      </trkpt>
      <trkpt lat="42.399905" lon="-8.636897">
        <ele>94.114</ele>
        <time>2018-08-25T10:01:58Z</time>
      </trkpt>
      <trkpt lat="42.399874" lon="-8.636838">
        <ele>94.374</ele>
        <time>2018-08-25T10:02:00Z</time>
      </trkpt>
      <trkpt lat="42.399839" lon="-8.636763">
        <ele>94.468</ele>
        <time>2018-08-25T10:02:03Z</time>
      </trkpt>
      <trkpt lat="42.399815" lon="-8.636709">
        <ele>93.942</ele>
        <time>2018-08-25T10:02:05Z</time>
      </trkpt>
      <trkpt lat="42.399786" lon="-8.636658">
        <ele>92.726</ele>
        <time>2018-08-25T10:02:07Z</time>
      </trkpt>
      <trkpt lat="42.399750" lon="-8.636590">
        <ele>90.708</ele>
        <time>2018-08-25T10:02:10Z</time>
      </trkpt>
      <trkpt lat="42.399722" lon="-8.636516">
        <ele>89.158</ele>
        <time>2018-08-25T10:02:14Z</time>
      </trkpt>
      <trkpt lat="42.399726" lon="-8.636450">
        <ele>87.994</ele>
        <time>2018-08-25T10:02:17Z</time>
      </trkpt>
      <trkpt lat="42.399774" lon="-8.636410">
        <ele>86.629</ele>
        <time>2018-08-25T10:02:21Z</time>
      </trkpt>
      <trkpt lat="42.399499" lon="-8.636330">
        <ele>82.683</ele>
        <time>2018-08-25T10:04:29Z</time>
      </trkpt>
      <trkpt lat="42.399622" lon="-8.636298">
        <ele>78.650</ele>
        <time>2018-08-25T10:04:30Z</time>
      </trkpt>
      <trkpt lat="42.399649" lon="-8.636347">
        <ele>74.678</ele>
        <time>2018-08-25T10:07:37Z</time>
      </trkpt>
      <trkpt lat="42.399671" lon="-8.636280">
        <ele>70.686</ele>
        <time>2018-08-25T10:08:23Z</time>
      </trkpt>
      <trkpt lat="42.399719" lon="-8.636214">
        <ele>66.666</ele>
        <time>2018-08-25T10:08:44Z</time>
      </trkpt>
      <trkpt lat="42.399735" lon="-8.636153">
        <ele>62.657</ele>
        <time>2018-08-25T10:08:50Z</time>
      </trkpt>
      <trkpt lat="42.399752" lon="-8.636090">
        <ele>58.600</ele>
        <time>2018-08-25T10:08:53Z</time>
      </trkpt>
      <trkpt lat="42.399770" lon="-8.636023">
        <ele>54.620</ele>
        <time>2018-08-25T10:08:56Z</time>
      </trkpt>
      <trkpt lat="42.399787" lon="-8.635948">
        <ele>50.608</ele>
        <time>2018-08-25T10:09:00Z</time>
      </trkpt>
      <trkpt lat="42.399800" lon="-8.635876">
        <ele>46.617</ele>
        <time>2018-08-25T10:09:05Z</time>
      </trkpt>
      <trkpt lat="42.399811" lon="-8.635795">
        <ele>42.673</ele>
        <time>2018-08-25T10:09:20Z</time>
      </trkpt>
      <trkpt lat="42.399770" lon="-8.635831">
        <ele>38.688</ele>
        <time>2018-08-25T10:17:36Z</time>
      </trkpt>
      <trkpt lat="42.399778" lon="-8.635952">
        <ele>34.612</ele>
        <time>2018-08-25T10:20:32Z</time>
      </trkpt>
      <trkpt lat="42.399810" lon="-8.636027">
        <ele>32.679</ele>
        <time>2018-08-25T10:22:47Z</time>
      </trkpt>
      <trkpt lat="42.399807" lon="-8.636098">
        <ele>32.787</ele>
        <time>2018-08-25T10:23:28Z</time>
      </trkpt>
      <trkpt lat="42.399831" lon="-8.636166">
        <ele>34.165</ele>
        <time>2018-08-25T10:23:35Z</time>
      </trkpt>
      <trkpt lat="42.399861" lon="-8.636223">
        <ele>36.215</ele>
        <time>2018-08-25T10:23:38Z</time>
      </trkpt>
      <trkpt lat="42.399895" lon="-8.636278">
        <ele>40.273</ele>
        <time>2018-08-25T10:23:41Z</time>
      </trkpt>
      <trkpt lat="42.399930" lon="-8.636339">
        <ele>44.285</ele>
        <time>2018-08-25T10:23:44Z</time>
      </trkpt>
      <trkpt lat="42.399969" lon="-8.636395">
        <ele>48.213</ele>
        <time>2018-08-25T10:23:47Z</time>
      </trkpt>
      <trkpt lat="42.400006" lon="-8.636431">
        <ele>52.208</ele>
        <time>2018-08-25T10:23:49Z</time>
      </trkpt>
      <trkpt lat="42.400035" lon="-8.636510">
        <ele>55.119</ele>
        <time>2018-08-25T10:23:52Z</time>
      </trkpt>
      <trkpt lat="42.400028" lon="-8.636593">
        <ele>57.375</ele>
        <time>2018-08-25T10:23:54Z</time>
      </trkpt>
      <trkpt lat="42.399994" lon="-8.636785">
        <ele>59.510</ele>
        <time>2018-08-25T10:23:56Z</time>
      </trkpt>
      <trkpt lat="42.399990" lon="-8.636849">
        <ele>61.274</ele>
        <time>2018-08-25T10:23:57Z</time>
      </trkpt>
      <trkpt lat="42.399993" lon="-8.636967">
        <ele>62.771</ele>
        <time>2018-08-25T10:23:59Z</time>
      </trkpt>
      <trkpt lat="42.400005" lon="-8.637057">
        <ele>64.099</ele>
        <time>2018-08-25T10:24:02Z</time>
      </trkpt>
      <trkpt lat="42.400025" lon="-8.637118">
        <ele>65.177</ele>
        <time>2018-08-25T10:24:04Z</time>
      </trkpt>
      <trkpt lat="42.400059" lon="-8.637173">
        <ele>66.227</ele>
        <time>2018-08-25T10:24:06Z</time>
      </trkpt>
      <trkpt lat="42.400137" lon="-8.637249">
        <ele>66.831</ele>
        <time>2018-08-25T10:24:07Z</time>
      </trkpt>
      <trkpt lat="42.400180" lon="-8.637287">
        <ele>67.361</ele>
        <time>2018-08-25T10:24:09Z</time>
      </trkpt>
      <trkpt lat="42.400242" lon="-8.637340">
        <ele>67.807</ele>
        <time>2018-08-25T10:24:10Z</time>
      </trkpt>
      <trkpt lat="42.400316" lon="-8.637392">
        <ele>68.508</ele>
        <time>2018-08-25T10:24:12Z</time>
      </trkpt>
      <trkpt lat="42.400370" lon="-8.637426">
        <ele>69.095</ele>
        <time>2018-08-25T10:24:14Z</time>
      </trkpt>
      <trkpt lat="42.400414" lon="-8.637448">
        <ele>69.491</ele>
        <time>2018-08-25T10:24:16Z</time>
      </trkpt>
      <trkpt lat="42.400469" lon="-8.637476">
        <ele>69.736</ele>
        <time>2018-08-25T10:24:18Z</time>
      </trkpt>
      <trkpt lat="42.400527" lon="-8.637504">
        <ele>70.080</ele>
        <time>2018-08-25T10:24:20Z</time>
      </trkpt>
      <trkpt lat="42.400589" lon="-8.637533">
        <ele>70.467</ele>
        <time>2018-08-25T10:24:22Z</time>
      </trkpt>
      <trkpt lat="42.400648" lon="-8.637561">
        <ele>70.775</ele>
        <time>2018-08-25T10:24:24Z</time>
      </trkpt>
      <trkpt lat="42.400704" lon="-8.637588">
        <ele>71.073</ele>
        <time>2018-08-25T10:24:26Z</time>
      </trkpt>
      <trkpt lat="42.400758" lon="-8.637611">
        <ele>71.343</ele>
        <time>2018-08-25T10:24:28Z</time>
      </trkpt>
      <trkpt lat="42.400810" lon="-8.637632">
        <ele>71.559</ele>
        <time>2018-08-25T10:24:30Z</time>
      </trkpt>
      <trkpt lat="42.400861" lon="-8.637651">
        <ele>71.503</ele>
        <time>2018-08-25T10:24:32Z</time>
      </trkpt>
      <trkpt lat="42.400917" lon="-8.637675">
        <ele>71.723</ele>
        <time>2018-08-25T10:24:34Z</time>
      </trkpt>
      <trkpt lat="42.400977" lon="-8.637702">
        <ele>71.708</ele>
        <time>2018-08-25T10:24:36Z</time>
      </trkpt>
      <trkpt lat="42.401043" lon="-8.637730">
        <ele>71.837</ele>
        <time>2018-08-25T10:24:38Z</time>
      </trkpt>
      <trkpt lat="42.401108" lon="-8.637759">
        <ele>71.983</ele>
        <time>2018-08-25T10:24:40Z</time>
      </trkpt>
      <trkpt lat="42.401168" lon="-8.637790">
        <ele>72.128</ele>
        <time>2018-08-25T10:24:42Z</time>
      </trkpt>
      <trkpt lat="42.401228" lon="-8.637820">
        <ele>72.332</ele>
        <time>2018-08-25T10:24:44Z</time>
      </trkpt>
      <trkpt lat="42.401293" lon="-8.637854">
        <ele>72.459</ele>
        <time>2018-08-25T10:24:46Z</time>
      </trkpt>
      <trkpt lat="42.401354" lon="-8.637890">
        <ele>72.777</ele>
        <time>2018-08-25T10:24:48Z</time>
      </trkpt>
      <trkpt lat="42.401418" lon="-8.637924">
        <ele>73.035</ele>
        <time>2018-08-25T10:24:50Z</time>
      </trkpt>
      <trkpt lat="42.401489" lon="-8.637954">
        <ele>73.475</ele>
        <time>2018-08-25T10:24:52Z</time>
      </trkpt>
      <trkpt lat="42.401582" lon="-8.637989">
        <ele>73.769</ele>
        <time>2018-08-25T10:24:53Z</time>
      </trkpt>
      <trkpt lat="42.401642" lon="-8.638020">
        <ele>74.204</ele>
        <time>2018-08-25T10:24:55Z</time>
      </trkpt>
      <trkpt lat="42.401690" lon="-8.638036">
        <ele>74.624</ele>
        <time>2018-08-25T10:24:57Z</time>
      </trkpt>
      <trkpt lat="42.401760" lon="-8.638061">
        <ele>74.808</ele>
        <time>2018-08-25T10:24:58Z</time>
      </trkpt>
      <trkpt lat="42.401819" lon="-8.638095">
        <ele>74.878</ele>
        <time>2018-08-25T10:25:01Z</time>
      </trkpt>
      <trkpt lat="42.401865" lon="-8.638126">
        <ele>74.974</ele>
        <time>2018-08-25T10:25:03Z</time>
      </trkpt>
      <trkpt lat="42.401916" lon="-8.638165">
        <ele>74.939</ele>
        <time>2018-08-25T10:25:05Z</time>
      </trkpt>
      <trkpt lat="42.401976" lon="-8.638216">
        <ele>74.943</ele>
        <time>2018-08-25T10:25:07Z</time>
      </trkpt>
      <trkpt lat="42.402036" lon="-8.638267">
        <ele>75.060</ele>
        <time>2018-08-25T10:25:09Z</time>
      </trkpt>
      <trkpt lat="42.402095" lon="-8.638307">
        <ele>75.178</ele>
        <time>2018-08-25T10:25:11Z</time>
      </trkpt>
      <trkpt lat="42.402160" lon="-8.638342">
        <ele>75.316</ele>
        <time>2018-08-25T10:25:13Z</time>
      </trkpt>
      <trkpt lat="42.402225" lon="-8.638381">
        <ele>75.576</ele>
        <time>2018-08-25T10:25:15Z</time>
      </trkpt>
      <trkpt lat="42.402288" lon="-8.638430">
        <ele>75.894</ele>
        <time>2018-08-25T10:25:17Z</time>
      </trkpt>
      <trkpt lat="42.402347" lon="-8.638480">
        <ele>76.157</ele>
        <time>2018-08-25T10:25:19Z</time>
      </trkpt>
      <trkpt lat="42.402409" lon="-8.638521">
        <ele>76.222</ele>
        <time>2018-08-25T10:25:21Z</time>
      </trkpt>
      <trkpt lat="42.402469" lon="-8.638559">
        <ele>76.208</ele>
        <time>2018-08-25T10:25:23Z</time>
      </trkpt>
      <trkpt lat="42.402530" lon="-8.638595">
        <ele>76.351</ele>
        <time>2018-08-25T10:25:25Z</time>
      </trkpt>
      <trkpt lat="42.402592" lon="-8.638627">
        <ele>76.337</ele>
        <time>2018-08-25T10:25:27Z</time>
      </trkpt>
      <trkpt lat="42.402657" lon="-8.638655">
        <ele>76.292</ele>
        <time>2018-08-25T10:25:29Z</time>
      </trkpt>
      <trkpt lat="42.402760" lon="-8.638693">
        <ele>76.296</ele>
        <time>2018-08-25T10:25:30Z</time>
      </trkpt>
      <trkpt lat="42.402831" lon="-8.638716">
        <ele>76.253</ele>
        <time>2018-08-25T10:25:32Z</time>
      </trkpt>
      <trkpt lat="42.402902" lon="-8.638751">
        <ele>76.171</ele>
        <time>2018-08-25T10:25:34Z</time>
      </trkpt>
      <trkpt lat="42.402956" lon="-8.638778">
        <ele>76.139</ele>
        <time>2018-08-25T10:25:36Z</time>
      </trkpt>
      <trkpt lat="42.403042" lon="-8.638811">
        <ele>76.469</ele>
        <time>2018-08-25T10:25:38Z</time>
      </trkpt>
      <trkpt lat="42.403143" lon="-8.638871">
        <ele>77.083</ele>
        <time>2018-08-25T10:25:41Z</time>
      </trkpt>
      <trkpt lat="42.403211" lon="-8.638912">
        <ele>77.525</ele>
        <time>2018-08-25T10:25:43Z</time>
      </trkpt>
      <trkpt lat="42.403264" lon="-8.638940">
        <ele>77.917</ele>
        <time>2018-08-25T10:25:45Z</time>
      </trkpt>
      <trkpt lat="42.403310" lon="-8.638964">
        <ele>78.208</ele>
        <time>2018-08-25T10:25:47Z</time>
      </trkpt>
      <trkpt lat="42.403407" lon="-8.639034">
        <ele>78.640</ele>
        <time>2018-08-25T10:25:49Z</time>
      </trkpt>
      <trkpt lat="42.403504" lon="-8.639085">
        <ele>79.036</ele>
        <time>2018-08-25T10:25:52Z</time>
      </trkpt>
      <trkpt lat="42.403569" lon="-8.639117">
        <ele>79.011</ele>
        <time>2018-08-25T10:25:54Z</time>
      </trkpt>
      <trkpt lat="42.403637" lon="-8.639151">
        <ele>79.145</ele>
        <time>2018-08-25T10:25:56Z</time>
      </trkpt>
      <trkpt lat="42.403700" lon="-8.639197">
        <ele>79.412</ele>
        <time>2018-08-25T10:25:58Z</time>
      </trkpt>
      <trkpt lat="42.403771" lon="-8.639230">
        <ele>79.260</ele>
        <time>2018-08-25T10:26:00Z</time>
      </trkpt>
      <trkpt lat="42.403842" lon="-8.639268">
        <ele>79.298</ele>
        <time>2018-08-25T10:26:02Z</time>
      </trkpt>
      <trkpt lat="42.403916" lon="-8.639304">
        <ele>79.168</ele>
        <time>2018-08-25T10:26:04Z</time>
      </trkpt>
      <trkpt lat="42.403995" lon="-8.639329">
        <ele>79.119</ele>
        <time>2018-08-25T10:26:06Z</time>
      </trkpt>
      <trkpt lat="42.404073" lon="-8.639360">
        <ele>79.009</ele>
        <time>2018-08-25T10:26:08Z</time>
      </trkpt>
      <trkpt lat="42.404153" lon="-8.639395">
        <ele>78.919</ele>
        <time>2018-08-25T10:26:10Z</time>
      </trkpt>
      <trkpt lat="42.404233" lon="-8.639434">
        <ele>78.708</ele>
        <time>2018-08-25T10:26:12Z</time>
      </trkpt>
      <trkpt lat="42.404277" lon="-8.639449">
        <ele>78.673</ele>
        <time>2018-08-25T10:26:13Z</time>
      </trkpt>
      <trkpt lat="42.404323" lon="-8.639469">
        <ele>78.799</ele>
        <time>2018-08-25T10:26:14Z</time>
      </trkpt>
      <trkpt lat="42.404368" lon="-8.639485">
        <ele>78.984</ele>
        <time>2018-08-25T10:26:15Z</time>
      </trkpt>
      <trkpt lat="42.404450" lon="-8.639524">
        <ele>79.138</ele>
        <time>2018-08-25T10:26:17Z</time>
      </trkpt>
      <trkpt lat="42.404537" lon="-8.639561">
        <ele>79.285</ele>
        <time>2018-08-25T10:26:19Z</time>
      </trkpt>
      <trkpt lat="42.404583" lon="-8.639580">
        <ele>79.383</ele>
        <time>2018-08-25T10:26:20Z</time>
      </trkpt>
      <trkpt lat="42.404629" lon="-8.639603">
        <ele>79.541</ele>
        <time>2018-08-25T10:26:21Z</time>
      </trkpt>
      <trkpt lat="42.404674" lon="-8.639625">
        <ele>79.721</ele>
        <time>2018-08-25T10:26:22Z</time>
      </trkpt>
      <trkpt lat="42.404718" lon="-8.639643">
        <ele>79.943</ele>
        <time>2018-08-25T10:26:23Z</time>
      </trkpt>
      <trkpt lat="42.404763" lon="-8.639656">
        <ele>80.064</ele>
        <time>2018-08-25T10:26:24Z</time>
      </trkpt>
      <trkpt lat="42.404808" lon="-8.639667">
        <ele>80.110</ele>
        <time>2018-08-25T10:26:25Z</time>
      </trkpt>
      <trkpt lat="42.404895" lon="-8.639687">
        <ele>80.308</ele>
        <time>2018-08-25T10:26:27Z</time>
      </trkpt>
      <trkpt lat="42.404978" lon="-8.639712">
        <ele>80.696</ele>
        <time>2018-08-25T10:26:29Z</time>
      </trkpt>
      <trkpt lat="42.405062" lon="-8.639735">
        <ele>80.972</ele>
        <time>2018-08-25T10:26:31Z</time>
      </trkpt>
      <trkpt lat="42.405145" lon="-8.639753">
        <ele>81.287</ele>
        <time>2018-08-25T10:26:33Z</time>
      </trkpt>
      <trkpt lat="42.405224" lon="-8.639776">
        <ele>81.491</ele>
        <time>2018-08-25T10:26:35Z</time>
      </trkpt>
      <trkpt lat="42.405300" lon="-8.639801">
        <ele>81.568</ele>
        <time>2018-08-25T10:26:37Z</time>
      </trkpt>
      <trkpt lat="42.405376" lon="-8.639834">
        <ele>81.686</ele>
        <time>2018-08-25T10:26:39Z</time>
      </trkpt>
      <trkpt lat="42.405452" lon="-8.639847">
        <ele>81.484</ele>
        <time>2018-08-25T10:26:41Z</time>
      </trkpt>
      <trkpt lat="42.405526" lon="-8.639884">
        <ele>81.194</ele>
        <time>2018-08-25T10:26:43Z</time>
      </trkpt>
      <trkpt lat="42.405604" lon="-8.639898">
        <ele>80.961</ele>
        <time>2018-08-25T10:26:45Z</time>
      </trkpt>
      <trkpt lat="42.405664" lon="-8.639907">
        <ele>80.821</ele>
        <time>2018-08-25T10:26:47Z</time>
      </trkpt>
      <trkpt lat="42.405719" lon="-8.639909">
        <ele>80.713</ele>
        <time>2018-08-25T10:26:48Z</time>
      </trkpt>
      <trkpt lat="42.405800" lon="-8.639912">
        <ele>80.208</ele>
        <time>2018-08-25T10:26:50Z</time>
      </trkpt>
      <trkpt lat="42.405845" lon="-8.639920">
        <ele>79.888</ele>
        <time>2018-08-25T10:26:52Z</time>
      </trkpt>
      <trkpt lat="42.405912" lon="-8.639924">
        <ele>79.784</ele>
        <time>2018-08-25T10:26:53Z</time>
      </trkpt>
      <trkpt lat="42.405987" lon="-8.639914">
        <ele>79.799</ele>
        <time>2018-08-25T10:26:55Z</time>
      </trkpt>
      <trkpt lat="42.406059" lon="-8.639929">
        <ele>79.993</ele>
        <time>2018-08-25T10:26:57Z</time>
      </trkpt>
      <trkpt lat="42.406138" lon="-8.639931">
        <ele>79.860</ele>
        <time>2018-08-25T10:26:59Z</time>
      </trkpt>
      <trkpt lat="42.406213" lon="-8.639925">
        <ele>79.718</ele>
        <time>2018-08-25T10:27:01Z</time>
      </trkpt>
      <trkpt lat="42.406288" lon="-8.639938">
        <ele>80.066</ele>
        <time>2018-08-25T10:27:03Z</time>
      </trkpt>
      <trkpt lat="42.406348" lon="-8.639924">
        <ele>80.256</ele>
        <time>2018-08-25T10:27:05Z</time>
      </trkpt>
      <trkpt lat="42.406400" lon="-8.639920">
        <ele>80.389</ele>
        <time>2018-08-25T10:27:06Z</time>
      </trkpt>
      <trkpt lat="42.406476" lon="-8.639923">
        <ele>80.506</ele>
        <time>2018-08-25T10:27:08Z</time>
      </trkpt>
      <trkpt lat="42.406550" lon="-8.639914">
        <ele>80.626</ele>
        <time>2018-08-25T10:27:10Z</time>
      </trkpt>
      <trkpt lat="42.406614" lon="-8.639909">
        <ele>80.708</ele>
        <time>2018-08-25T10:27:12Z</time>
      </trkpt>
      <trkpt lat="42.406672" lon="-8.639907">
        <ele>80.890</ele>
        <time>2018-08-25T10:27:13Z</time>
      </trkpt>
      <trkpt lat="42.406755" lon="-8.639902">
        <ele>81.226</ele>
        <time>2018-08-25T10:27:15Z</time>
      </trkpt>
      <trkpt lat="42.406835" lon="-8.639896">
        <ele>81.681</ele>
        <time>2018-08-25T10:27:17Z</time>
      </trkpt>
      <trkpt lat="42.406917" lon="-8.639888">
        <ele>81.815</ele>
        <time>2018-08-25T10:27:19Z</time>
      </trkpt>
      <trkpt lat="42.407000" lon="-8.639887">
        <ele>82.142</ele>
        <time>2018-08-25T10:27:21Z</time>
      </trkpt>
      <trkpt lat="42.407081" lon="-8.639869">
        <ele>82.170</ele>
        <time>2018-08-25T10:27:23Z</time>
      </trkpt>
      <trkpt lat="42.407169" lon="-8.639849">
        <ele>81.898</ele>
        <time>2018-08-25T10:27:25Z</time>
      </trkpt>
      <trkpt lat="42.407215" lon="-8.639840">
        <ele>81.748</ele>
        <time>2018-08-25T10:27:26Z</time>
      </trkpt>
      <trkpt lat="42.407303" lon="-8.639833">
        <ele>81.952</ele>
        <time>2018-08-25T10:27:28Z</time>
      </trkpt>
      <trkpt lat="42.407352" lon="-8.639830">
        <ele>82.253</ele>
        <time>2018-08-25T10:27:29Z</time>
      </trkpt>
      <trkpt lat="42.407399" lon="-8.639829">
        <ele>82.308</ele>
        <time>2018-08-25T10:27:30Z</time>
      </trkpt>
      <trkpt lat="42.407448" lon="-8.639828">
        <ele>82.408</ele>
        <time>2018-08-25T10:27:31Z</time>
      </trkpt>
      <trkpt lat="42.407533" lon="-8.639809">
        <ele>82.397</ele>
        <time>2018-08-25T10:27:33Z</time>
      </trkpt>
      <trkpt lat="42.407579" lon="-8.639800">
        <ele>82.283</ele>
        <time>2018-08-25T10:27:34Z</time>
      </trkpt>
      <trkpt lat="42.407644" lon="-8.639784">
        <ele>82.288</ele>
        <time>2018-08-25T10:27:36Z</time>
      </trkpt>
      <trkpt lat="42.407703" lon="-8.639771">
        <ele>82.382</ele>
        <time>2018-08-25T10:27:37Z</time>
      </trkpt>
      <trkpt lat="42.407762" lon="-8.639763">
        <ele>82.079</ele>
        <time>2018-08-25T10:27:39Z</time>
      </trkpt>
      <trkpt lat="42.407818" lon="-8.639753">
        <ele>81.837</ele>
        <time>2018-08-25T10:27:40Z</time>
      </trkpt>
      <trkpt lat="42.407897" lon="-8.639736">
        <ele>81.785</ele>
        <time>2018-08-25T10:27:42Z</time>
      </trkpt>
      <trkpt lat="42.407982" lon="-8.639708">
        <ele>82.025</ele>
        <time>2018-08-25T10:27:44Z</time>
      </trkpt>
      <trkpt lat="42.408028" lon="-8.639695">
        <ele>82.262</ele>
        <time>2018-08-25T10:27:45Z</time>
      </trkpt>
      <trkpt lat="42.408115" lon="-8.639674">
        <ele>82.383</ele>
        <time>2018-08-25T10:27:47Z</time>
      </trkpt>
      <trkpt lat="42.408199" lon="-8.639651">
        <ele>82.511</ele>
        <time>2018-08-25T10:27:49Z</time>
      </trkpt>
      <trkpt lat="42.408279" lon="-8.639627">
        <ele>82.708</ele>
        <time>2018-08-25T10:27:51Z</time>
      </trkpt>
      <trkpt lat="42.408357" lon="-8.639606">
        <ele>82.918</ele>
        <time>2018-08-25T10:27:53Z</time>
      </trkpt>
      <trkpt lat="42.408437" lon="-8.639586">
        <ele>83.064</ele>
        <time>2018-08-25T10:27:55Z</time>
      </trkpt>
      <trkpt lat="42.408514" lon="-8.639573">
        <ele>83.159</ele>
        <time>2018-08-25T10:27:57Z</time>
      </trkpt>
      <trkpt lat="42.408590" lon="-8.639566">
        <ele>83.073</ele>
        <time>2018-08-25T10:27:59Z</time>
      </trkpt>
      <trkpt lat="42.408666" lon="-8.639568">
        <ele>83.020</ele>
        <time>2018-08-25T10:28:01Z</time>
      </trkpt>
      <trkpt lat="42.408745" lon="-8.639557">
        <ele>83.198</ele>
        <time>2018-08-25T10:28:03Z</time>
      </trkpt>
      <trkpt lat="42.408828" lon="-8.639530">
        <ele>82.816</ele>
        <time>2018-08-25T10:28:05Z</time>
      </trkpt>
      <trkpt lat="42.408876" lon="-8.639504">
        <ele>82.436</ele>
        <time>2018-08-25T10:28:06Z</time>
      </trkpt>
      <trkpt lat="42.408919" lon="-8.639486">
        <ele>82.111</ele>
        <time>2018-08-25T10:28:07Z</time>
      </trkpt>
      <trkpt lat="42.408969" lon="-8.639466">
        <ele>81.921</ele>
        <time>2018-08-25T10:28:08Z</time>
      </trkpt>
      <trkpt lat="42.409017" lon="-8.639452">
        <ele>81.803</ele>
        <time>2018-08-25T10:28:09Z</time>
      </trkpt>
      <trkpt lat="42.409064" lon="-8.639444">
        <ele>81.708</ele>
        <time>2018-08-25T10:28:10Z</time>
      </trkpt>
      <trkpt lat="42.409141" lon="-8.639443">
        <ele>81.813</ele>
        <time>2018-08-25T10:28:12Z</time>
      </trkpt>
      <trkpt lat="42.409201" lon="-8.639455">
        <ele>82.259</ele>
        <time>2018-08-25T10:28:14Z</time>
      </trkpt>
      <trkpt lat="42.409268" lon="-8.639456">
        <ele>82.254</ele>
        <time>2018-08-25T10:28:17Z</time>
      </trkpt>
      <trkpt lat="42.409323" lon="-8.639444">
        <ele>82.518</ele>
        <time>2018-08-25T10:28:19Z</time>
      </trkpt>
      <trkpt lat="42.409403" lon="-8.639424">
        <ele>82.565</ele>
        <time>2018-08-25T10:28:20Z</time>
      </trkpt>
      <trkpt lat="42.409479" lon="-8.639399">
        <ele>82.493</ele>
        <time>2018-08-25T10:28:22Z</time>
      </trkpt>
      <trkpt lat="42.409561" lon="-8.639382">
        <ele>82.391</ele>
        <time>2018-08-25T10:28:24Z</time>
      </trkpt>
      <trkpt lat="42.409651" lon="-8.639351">
        <ele>82.061</ele>
        <time>2018-08-25T10:28:26Z</time>
      </trkpt>
      <trkpt lat="42.409696" lon="-8.639332">
        <ele>81.812</ele>
        <time>2018-08-25T10:28:27Z</time>
      </trkpt>
      <trkpt lat="42.409743" lon="-8.639321">
        <ele>81.832</ele>
        <time>2018-08-25T10:28:28Z</time>
      </trkpt>
      <trkpt lat="42.409789" lon="-8.639319">
        <ele>81.705</ele>
        <time>2018-08-25T10:28:29Z</time>
      </trkpt>
      <trkpt lat="42.409835" lon="-8.639315">
        <ele>81.408</ele>
        <time>2018-08-25T10:28:30Z</time>
      </trkpt>
      <trkpt lat="42.409881" lon="-8.639308">
        <ele>81.123</ele>
        <time>2018-08-25T10:28:31Z</time>
      </trkpt>
      <trkpt lat="42.409927" lon="-8.639300">
        <ele>80.859</ele>
        <time>2018-08-25T10:28:32Z</time>
      </trkpt>
      <trkpt lat="42.409973" lon="-8.639290">
        <ele>80.674</ele>
        <time>2018-08-25T10:28:33Z</time>
      </trkpt>
      <trkpt lat="42.410023" lon="-8.639285">
        <ele>80.348</ele>
        <time>2018-08-25T10:28:34Z</time>
      </trkpt>
      <trkpt lat="42.410069" lon="-8.639288">
        <ele>80.195</ele>
        <time>2018-08-25T10:28:35Z</time>
      </trkpt>
      <trkpt lat="42.410115" lon="-8.639284">
        <ele>79.923</ele>
        <time>2018-08-25T10:28:36Z</time>
      </trkpt>
      <trkpt lat="42.410198" lon="-8.639286">
        <ele>79.761</ele>
        <time>2018-08-25T10:28:38Z</time>
      </trkpt>
      <trkpt lat="42.410252" lon="-8.639291">
        <ele>79.461</ele>
        <time>2018-08-25T10:28:40Z</time>
      </trkpt>
      <trkpt lat="42.410338" lon="-8.639296">
        <ele>79.275</ele>
        <time>2018-08-25T10:28:41Z</time>
      </trkpt>
      <trkpt lat="42.410407" lon="-8.639264">
        <ele>78.328</ele>
        <time>2018-08-25T10:28:43Z</time>
      </trkpt>
      <trkpt lat="42.410483" lon="-8.639231">
        <ele>77.820</ele>
        <time>2018-08-25T10:28:45Z</time>
      </trkpt>
      <trkpt lat="42.410527" lon="-8.639191">
        <ele>77.408</ele>
        <time>2018-08-25T10:28:46Z</time>
      </trkpt>
      <trkpt lat="42.410567" lon="-8.639162">
        <ele>77.379</ele>
        <time>2018-08-25T10:28:47Z</time>
      </trkpt>
      <trkpt lat="42.410651" lon="-8.639135">
        <ele>77.525</ele>
        <time>2018-08-25T10:28:49Z</time>
      </trkpt>
      <trkpt lat="42.410730" lon="-8.639090">
        <ele>77.970</ele>
        <time>2018-08-25T10:28:51Z</time>
      </trkpt>
      <trkpt lat="42.410808" lon="-8.639078">
        <ele>78.314</ele>
        <time>2018-08-25T10:28:53Z</time>
      </trkpt>
      <trkpt lat="42.410885" lon="-8.639064">
        <ele>78.971</ele>
        <time>2018-08-25T10:28:55Z</time>
      </trkpt>
      <trkpt lat="42.410970" lon="-8.639030">
        <ele>79.019</ele>
        <time>2018-08-25T10:28:57Z</time>
      </trkpt>
      <trkpt lat="42.411016" lon="-8.639012">
        <ele>79.137</ele>
        <time>2018-08-25T10:28:58Z</time>
      </trkpt>
      <trkpt lat="42.411099" lon="-8.638982">
        <ele>79.187</ele>
        <time>2018-08-25T10:29:00Z</time>
      </trkpt>
      <trkpt lat="42.411184" lon="-8.638954">
        <ele>79.196</ele>
        <time>2018-08-25T10:29:02Z</time>
      </trkpt>
      <trkpt lat="42.411273" lon="-8.638945">
        <ele>78.931</ele>
        <time>2018-08-25T10:29:04Z</time>
      </trkpt>
      <trkpt lat="42.411356" lon="-8.638949">
        <ele>78.824</ele>
        <time>2018-08-25T10:29:06Z</time>
      </trkpt>
      <trkpt lat="42.411438" lon="-8.638945">
        <ele>78.908</ele>
        <time>2018-08-25T10:29:08Z</time>
      </trkpt>
      <trkpt lat="42.411523" lon="-8.638927">
        <ele>78.991</ele>
        <time>2018-08-25T10:29:10Z</time>
      </trkpt>
      <trkpt lat="42.411603" lon="-8.638902">
        <ele>79.287</ele>
        <time>2018-08-25T10:29:12Z</time>
      </trkpt>
      <trkpt lat="42.411681" lon="-8.638879">
        <ele>79.382</ele>
        <time>2018-08-25T10:29:14Z</time>
      </trkpt>
      <trkpt lat="42.411761" lon="-8.638850">
        <ele>79.396</ele>
        <time>2018-08-25T10:29:16Z</time>
      </trkpt>
      <trkpt lat="42.411843" lon="-8.638825">
        <ele>79.353</ele>
        <time>2018-08-25T10:29:18Z</time>
      </trkpt>
      <trkpt lat="42.411924" lon="-8.638809">
        <ele>79.251</ele>
        <time>2018-08-25T10:29:20Z</time>
      </trkpt>
      <trkpt lat="42.412000" lon="-8.638794">
        <ele>79.299</ele>
        <time>2018-08-25T10:29:22Z</time>
      </trkpt>
      <trkpt lat="42.412077" lon="-8.638783">
        <ele>79.219</ele>
        <time>2018-08-25T10:29:24Z</time>
      </trkpt>
      <trkpt lat="42.412152" lon="-8.638775">
        <ele>79.372</ele>
        <time>2018-08-25T10:29:26Z</time>
      </trkpt>
      <trkpt lat="42.412227" lon="-8.638762">
        <ele>79.413</ele>
        <time>2018-08-25T10:29:28Z</time>
      </trkpt>
      <trkpt lat="42.412304" lon="-8.638735">
        <ele>79.414</ele>
        <time>2018-08-25T10:29:30Z</time>
      </trkpt>
      <trkpt lat="42.412375" lon="-8.638688">
        <ele>79.408</ele>
        <time>2018-08-25T10:29:32Z</time>
      </trkpt>
      <trkpt lat="42.412447" lon="-8.638624">
        <ele>79.659</ele>
        <time>2018-08-25T10:29:34Z</time>
      </trkpt>
      <trkpt lat="42.412513" lon="-8.638558">
        <ele>79.875</ele>
        <time>2018-08-25T10:29:36Z</time>
      </trkpt>
      <trkpt lat="42.412582" lon="-8.638519">
        <ele>79.810</ele>
        <time>2018-08-25T10:29:38Z</time>
      </trkpt>
      <trkpt lat="42.412660" lon="-8.638521">
        <ele>79.894</ele>
        <time>2018-08-25T10:29:40Z</time>
      </trkpt>
      <trkpt lat="42.412735" lon="-8.638552">
        <ele>79.841</ele>
        <time>2018-08-25T10:29:42Z</time>
      </trkpt>
      <trkpt lat="42.412808" lon="-8.638605">
        <ele>79.819</ele>
        <time>2018-08-25T10:29:44Z</time>
      </trkpt>
      <trkpt lat="42.412895" lon="-8.638613">
        <ele>79.967</ele>
        <time>2018-08-25T10:29:46Z</time>
      </trkpt>
      <trkpt lat="42.412975" lon="-8.638609">
        <ele>80.167</ele>
        <time>2018-08-25T10:29:48Z</time>
      </trkpt>
      <trkpt lat="42.413056" lon="-8.638612">
        <ele>80.397</ele>
        <time>2018-08-25T10:29:50Z</time>
      </trkpt>
      <trkpt lat="42.413143" lon="-8.638590">
        <ele>80.423</ele>
        <time>2018-08-25T10:29:52Z</time>
      </trkpt>
      <trkpt lat="42.413229" lon="-8.638565">
        <ele>80.325</ele>
        <time>2018-08-25T10:29:54Z</time>
      </trkpt>
      <trkpt lat="42.413291" lon="-8.638551">
        <ele>80.108</ele>
        <time>2018-08-25T10:29:56Z</time>
      </trkpt>
      <trkpt lat="42.413346" lon="-8.638540">
        <ele>79.981</ele>
        <time>2018-08-25T10:29:57Z</time>
      </trkpt>
      <trkpt lat="42.413402" lon="-8.638526">
        <ele>79.787</ele>
        <time>2018-08-25T10:29:59Z</time>
      </trkpt>
      <trkpt lat="42.413454" lon="-8.638503">
        <ele>79.662</ele>
        <time>2018-08-25T10:30:01Z</time>
      </trkpt>
      <trkpt lat="42.413550" lon="-8.638478">
        <ele>79.736</ele>
        <time>2018-08-25T10:30:02Z</time>
      </trkpt>
      <trkpt lat="42.413634" lon="-8.638467">
        <ele>80.053</ele>
        <time>2018-08-25T10:30:04Z</time>
      </trkpt>
      <trkpt lat="42.413713" lon="-8.638443">
        <ele>80.351</ele>
        <time>2018-08-25T10:30:06Z</time>
      </trkpt>
      <trkpt lat="42.413769" lon="-8.638435">
        <ele>80.469</ele>
        <time>2018-08-25T10:30:09Z</time>
      </trkpt>
      <trkpt lat="42.413815" lon="-8.638425">
        <ele>80.159</ele>
        <time>2018-08-25T10:30:11Z</time>
      </trkpt>
      <trkpt lat="42.413883" lon="-8.638409">
        <ele>80.135</ele>
        <time>2018-08-25T10:30:13Z</time>
      </trkpt>
      <trkpt lat="42.413957" lon="-8.638391">
        <ele>80.286</ele>
        <time>2018-08-25T10:30:15Z</time>
      </trkpt>
      <trkpt lat="42.414028" lon="-8.638376">
        <ele>80.014</ele>
        <time>2018-08-25T10:30:17Z</time>
      </trkpt>
      <trkpt lat="42.414159" lon="-8.638343">
        <ele>79.708</ele>
        <time>2018-08-25T10:30:19Z</time>
      </trkpt>
      <trkpt lat="42.414206" lon="-8.638326">
        <ele>79.325</ele>
        <time>2018-08-25T10:30:21Z</time>
      </trkpt>
      <trkpt lat="42.414277" lon="-8.638303">
        <ele>79.171</ele>
        <time>2018-08-25T10:30:22Z</time>
      </trkpt>
      <trkpt lat="42.414363" lon="-8.638283">
        <ele>79.256</ele>
        <time>2018-08-25T10:30:24Z</time>
      </trkpt>
      <trkpt lat="42.414445" lon="-8.638254">
        <ele>79.250</ele>
        <time>2018-08-25T10:30:26Z</time>
      </trkpt>
      <trkpt lat="42.414527" lon="-8.638245">
        <ele>79.227</ele>
        <time>2018-08-25T10:30:28Z</time>
      </trkpt>
      <trkpt lat="42.414599" lon="-8.638230">
        <ele>79.365</ele>
        <time>2018-08-25T10:30:30Z</time>
      </trkpt>
      <trkpt lat="42.414663" lon="-8.638221">
        <ele>79.993</ele>
        <time>2018-08-25T10:30:33Z</time>
      </trkpt>
      <trkpt lat="42.414714" lon="-8.638214">
        <ele>80.383</ele>
        <time>2018-08-25T10:30:35Z</time>
      </trkpt>
      <trkpt lat="42.414771" lon="-8.638209">
        <ele>80.761</ele>
        <time>2018-08-25T10:30:37Z</time>
      </trkpt>
      <trkpt lat="42.414895" lon="-8.638196">
        <ele>81.121</ele>
        <time>2018-08-25T10:30:39Z</time>
      </trkpt>
      <trkpt lat="42.414966" lon="-8.638179">
        <ele>81.313</ele>
        <time>2018-08-25T10:30:41Z</time>
      </trkpt>
      <trkpt lat="42.415035" lon="-8.638161">
        <ele>81.508</ele>
        <time>2018-08-25T10:30:43Z</time>
      </trkpt>
      <trkpt lat="42.415108" lon="-8.638154">
        <ele>81.758</ele>
        <time>2018-08-25T10:30:45Z</time>
      </trkpt>
      <trkpt lat="42.415181" lon="-8.638151">
        <ele>82.034</ele>
        <time>2018-08-25T10:30:47Z</time>
      </trkpt>
      <trkpt lat="42.415228" lon="-8.638147">
        <ele>82.349</ele>
        <time>2018-08-25T10:30:49Z</time>
      </trkpt>
      <trkpt lat="42.415299" lon="-8.638150">
        <ele>82.243</ele>
        <time>2018-08-25T10:30:50Z</time>
      </trkpt>
      <trkpt lat="42.415361" lon="-8.638157">
        <ele>81.970</ele>
        <time>2018-08-25T10:30:52Z</time>
      </trkpt>
      <trkpt lat="42.415422" lon="-8.638165">
        <ele>81.788</ele>
        <time>2018-08-25T10:30:53Z</time>
      </trkpt>
      <trkpt lat="42.415502" lon="-8.638174">
        <ele>81.526</ele>
        <time>2018-08-25T10:30:55Z</time>
      </trkpt>
      <trkpt lat="42.415559" lon="-8.638169">
        <ele>81.586</ele>
        <time>2018-08-25T10:30:57Z</time>
      </trkpt>
      <trkpt lat="42.415609" lon="-8.638153">
        <ele>81.555</ele>
        <time>2018-08-25T10:30:59Z</time>
      </trkpt>
      <trkpt lat="42.415687" lon="-8.638120">
        <ele>81.507</ele>
        <time>2018-08-25T10:31:00Z</time>
      </trkpt>
      <trkpt lat="42.415762" lon="-8.638073">
        <ele>81.417</ele>
        <time>2018-08-25T10:31:02Z</time>
      </trkpt>
      <trkpt lat="42.415803" lon="-8.638045">
        <ele>81.208</ele>
        <time>2018-08-25T10:31:03Z</time>
      </trkpt>
      <trkpt lat="42.415855" lon="-8.637995">
        <ele>81.017</ele>
        <time>2018-08-25T10:31:05Z</time>
      </trkpt>
      <trkpt lat="42.415891" lon="-8.637952">
        <ele>80.833</ele>
        <time>2018-08-25T10:31:07Z</time>
      </trkpt>
      <trkpt lat="42.415917" lon="-8.637894">
        <ele>80.858</ele>
        <time>2018-08-25T10:31:09Z</time>
      </trkpt>
      <trkpt lat="42.415939" lon="-8.637837">
        <ele>80.722</ele>
        <time>2018-08-25T10:31:11Z</time>
      </trkpt>
      <trkpt lat="42.415991" lon="-8.637789">
        <ele>80.539</ele>
        <time>2018-08-25T10:31:14Z</time>
      </trkpt>
      <trkpt lat="42.416097" lon="-8.637725">
        <ele>80.617</ele>
        <time>2018-08-25T10:31:16Z</time>
      </trkpt>
      <trkpt lat="42.416157" lon="-8.637651">
        <ele>80.795</ele>
        <time>2018-08-25T10:31:18Z</time>
      </trkpt>
      <trkpt lat="42.416197" lon="-8.637581">
        <ele>80.565</ele>
        <time>2018-08-25T10:31:20Z</time>
      </trkpt>
      <trkpt lat="42.416249" lon="-8.637534">
        <ele>80.366</ele>
        <time>2018-08-25T10:31:23Z</time>
      </trkpt>
      <trkpt lat="42.416316" lon="-8.637532">
        <ele>80.129</ele>
        <time>2018-08-25T10:31:24Z</time>
      </trkpt>
      <trkpt lat="42.416350" lon="-8.637612">
        <ele>80.121</ele>
        <time>2018-08-25T10:31:27Z</time>
      </trkpt>
      <trkpt lat="42.416350" lon="-8.637700">
        <ele>80.108</ele>
        <time>2018-08-25T10:31:29Z</time>
      </trkpt>
      <trkpt lat="42.416356" lon="-8.637801">
        <ele>80.988</ele>
        <time>2018-08-25T10:31:31Z</time>
      </trkpt>
      <trkpt lat="42.416390" lon="-8.637887">
        <ele>81.964</ele>
        <time>2018-08-25T10:31:33Z</time>
      </trkpt>
      <trkpt lat="42.416446" lon="-8.637932">
        <ele>81.989</ele>
        <time>2018-08-25T10:31:35Z</time>
      </trkpt>
      <trkpt lat="42.416517" lon="-8.637951">
        <ele>81.633</ele>
        <time>2018-08-25T10:31:37Z</time>
      </trkpt>
      <trkpt lat="42.416596" lon="-8.637963">
        <ele>81.270</ele>
        <time>2018-08-25T10:31:39Z</time>
      </trkpt>
      <trkpt lat="42.416649" lon="-8.637975">
        <ele>80.878</ele>
        <time>2018-08-25T10:31:41Z</time>
      </trkpt>
      <trkpt lat="42.416720" lon="-8.638009">
        <ele>79.526</ele>
        <time>2018-08-25T10:31:43Z</time>
      </trkpt>
      <trkpt lat="42.416855" lon="-8.638105">
        <ele>78.836</ele>
        <time>2018-08-25T10:31:45Z</time>
      </trkpt>
      <trkpt lat="42.416906" lon="-8.638040">
        <ele>78.042</ele>
        <time>2018-08-25T10:31:46Z</time>
      </trkpt>
      <trkpt lat="42.416953" lon="-8.638022">
        <ele>77.522</ele>
        <time>2018-08-25T10:31:47Z</time>
      </trkpt>
      <trkpt lat="42.417038" lon="-8.637982">
        <ele>76.514</ele>
        <time>2018-08-25T10:31:49Z</time>
      </trkpt>
      <trkpt lat="42.417117" lon="-8.637922">
        <ele>75.508</ele>
        <time>2018-08-25T10:31:51Z</time>
      </trkpt>
      <trkpt lat="42.417157" lon="-8.637893">
        <ele>75.136</ele>
        <time>2018-08-25T10:31:52Z</time>
      </trkpt>
      <trkpt lat="42.417227" lon="-8.637839">
        <ele>74.882</ele>
        <time>2018-08-25T10:31:54Z</time>
      </trkpt>
      <trkpt lat="42.417302" lon="-8.637789">
        <ele>74.677</ele>
        <time>2018-08-25T10:31:56Z</time>
      </trkpt>
      <trkpt lat="42.417378" lon="-8.637746">
        <ele>74.421</ele>
        <time>2018-08-25T10:31:58Z</time>
      </trkpt>
      <trkpt lat="42.417452" lon="-8.637679">
        <ele>74.228</ele>
        <time>2018-08-25T10:32:00Z</time>
      </trkpt>
      <trkpt lat="42.417531" lon="-8.637620">
        <ele>74.016</ele>
        <time>2018-08-25T10:32:02Z</time>
      </trkpt>
      <trkpt lat="42.417600" lon="-8.637588">
        <ele>73.754</ele>
        <time>2018-08-25T10:32:04Z</time>
      </trkpt>
      <trkpt lat="42.417656" lon="-8.637565">
        <ele>73.574</ele>
        <time>2018-08-25T10:32:06Z</time>
      </trkpt>
      <trkpt lat="42.417701" lon="-8.637601">
        <ele>74.075</ele>
        <time>2018-08-25T10:32:09Z</time>
      </trkpt>
      <trkpt lat="42.417736" lon="-8.637656">
        <ele>75.028</ele>
        <time>2018-08-25T10:32:11Z</time>
      </trkpt>
      <trkpt lat="42.417768" lon="-8.637724">
        <ele>75.920</ele>
        <time>2018-08-25T10:32:13Z</time>
      </trkpt>
      <trkpt lat="42.417817" lon="-8.637780">
        <ele>76.708</ele>
        <time>2018-08-25T10:32:15Z</time>
      </trkpt>
      <trkpt lat="42.417877" lon="-8.637809">
        <ele>77.279</ele>
        <time>2018-08-25T10:32:17Z</time>
      </trkpt>
      <trkpt lat="42.417929" lon="-8.637827">
        <ele>77.825</ele>
        <time>2018-08-25T10:32:19Z</time>
      </trkpt>
      <trkpt lat="42.417988" lon="-8.637838">
        <ele>78.490</ele>
        <time>2018-08-25T10:32:22Z</time>
      </trkpt>
      <trkpt lat="42.418052" lon="-8.637829">
        <ele>79.214</ele>
        <time>2018-08-25T10:32:25Z</time>
      </trkpt>
      <trkpt lat="42.418099" lon="-8.637839">
        <ele>79.941</ele>
        <time>2018-08-25T10:32:27Z</time>
      </trkpt>
      <trkpt lat="42.418151" lon="-8.637855">
        <ele>81.119</ele>
        <time>2018-08-25T10:32:29Z</time>
      </trkpt>
      <trkpt lat="42.418203" lon="-8.637870">
        <ele>81.917</ele>
        <time>2018-08-25T10:32:31Z</time>
      </trkpt>
      <trkpt lat="42.418262" lon="-8.637875">
        <ele>82.327</ele>
        <time>2018-08-25T10:32:33Z</time>
      </trkpt>
      <trkpt lat="42.418327" lon="-8.637876">
        <ele>82.555</ele>
        <time>2018-08-25T10:32:35Z</time>
      </trkpt>
      <trkpt lat="42.418415" lon="-8.637874">
        <ele>82.507</ele>
        <time>2018-08-25T10:32:36Z</time>
      </trkpt>
      <trkpt lat="42.418506" lon="-8.637875">
        <ele>82.217</ele>
        <time>2018-08-25T10:32:38Z</time>
      </trkpt>
      <trkpt lat="42.418596" lon="-8.637882">
        <ele>81.708</ele>
        <time>2018-08-25T10:32:40Z</time>
      </trkpt>
      <trkpt lat="42.418682" lon="-8.637897">
        <ele>81.347</ele>
        <time>2018-08-25T10:32:42Z</time>
      </trkpt>
      <trkpt lat="42.418771" lon="-8.637913">
        <ele>80.933</ele>
        <time>2018-08-25T10:32:44Z</time>
      </trkpt>
      <trkpt lat="42.418818" lon="-8.637924">
        <ele>80.668</ele>
        <time>2018-08-25T10:32:45Z</time>
      </trkpt>
      <trkpt lat="42.418866" lon="-8.637934">
        <ele>80.382</ele>
        <time>2018-08-25T10:32:46Z</time>
      </trkpt>
      <trkpt lat="42.418914" lon="-8.637944">
        <ele>80.059</ele>
        <time>2018-08-25T10:32:47Z</time>
      </trkpt>
      <trkpt lat="42.418961" lon="-8.637949">
        <ele>79.737</ele>
        <time>2018-08-25T10:32:48Z</time>
      </trkpt>
      <trkpt lat="42.419009" lon="-8.637950">
        <ele>79.555</ele>
        <time>2018-08-25T10:32:49Z</time>
      </trkpt>
      <trkpt lat="42.419059" lon="-8.637951">
        <ele>79.355</ele>
        <time>2018-08-25T10:32:50Z</time>
      </trkpt>
      <trkpt lat="42.419113" lon="-8.637953">
        <ele>79.041</ele>
        <time>2018-08-25T10:32:51Z</time>
      </trkpt>
      <trkpt lat="42.419171" lon="-8.637958">
        <ele>78.681</ele>
        <time>2018-08-25T10:32:52Z</time>
      </trkpt>
      <trkpt lat="42.419232" lon="-8.637961">
        <ele>78.209</ele>
        <time>2018-08-25T10:32:53Z</time>
      </trkpt>
      <trkpt lat="42.419292" lon="-8.637966">
        <ele>77.808</ele>
        <time>2018-08-25T10:32:54Z</time>
      </trkpt>
      <trkpt lat="42.419352" lon="-8.637973">
        <ele>77.426</ele>
        <time>2018-08-25T10:32:55Z</time>
      </trkpt>
      <trkpt lat="42.419410" lon="-8.637983">
        <ele>77.062</ele>
        <time>2018-08-25T10:32:56Z</time>
      </trkpt>
      <trkpt lat="42.419467" lon="-8.637991">
        <ele>76.697</ele>
        <time>2018-08-25T10:32:57Z</time>
      </trkpt>
      <trkpt lat="42.419526" lon="-8.637996">
        <ele>76.251</ele>
        <time>2018-08-25T10:32:58Z</time>
      </trkpt>
      <trkpt lat="42.419587" lon="-8.638004">
        <ele>75.868</ele>
        <time>2018-08-25T10:32:59Z</time>
      </trkpt>
      <trkpt lat="42.419649" lon="-8.638020">
        <ele>75.626</ele>
        <time>2018-08-25T10:33:00Z</time>
      </trkpt>
      <trkpt lat="42.419712" lon="-8.638036">
        <ele>75.484</ele>
        <time>2018-08-25T10:33:01Z</time>
      </trkpt>
      <trkpt lat="42.419775" lon="-8.638047">
        <ele>75.274</ele>
        <time>2018-08-25T10:33:02Z</time>
      </trkpt>
      <trkpt lat="42.419838" lon="-8.638056">
        <ele>75.072</ele>
        <time>2018-08-25T10:33:03Z</time>
      </trkpt>
      <trkpt lat="42.419904" lon="-8.638064">
        <ele>74.813</ele>
        <time>2018-08-25T10:33:04Z</time>
      </trkpt>
      <trkpt lat="42.419970" lon="-8.638074">
        <ele>74.514</ele>
        <time>2018-08-25T10:33:05Z</time>
      </trkpt>
      <trkpt lat="42.420031" lon="-8.638087">
        <ele>74.308</ele>
        <time>2018-08-25T10:33:06Z</time>
      </trkpt>
      <trkpt lat="42.420090" lon="-8.638099">
        <ele>74.249</ele>
        <time>2018-08-25T10:33:07Z</time>
      </trkpt>
      <trkpt lat="42.420151" lon="-8.638105">
        <ele>74.095</ele>
        <time>2018-08-25T10:33:08Z</time>
      </trkpt>
      <trkpt lat="42.420209" lon="-8.638109">
        <ele>73.790</ele>
        <time>2018-08-25T10:33:09Z</time>
      </trkpt>
      <trkpt lat="42.420260" lon="-8.638116">
        <ele>73.374</ele>
        <time>2018-08-25T10:33:10Z</time>
      </trkpt>
      <trkpt lat="42.420308" lon="-8.638123">
        <ele>73.191</ele>
        <time>2018-08-25T10:33:11Z</time>
      </trkpt>
      <trkpt lat="42.420392" lon="-8.638128">
        <ele>72.949</ele>
        <time>2018-08-25T10:33:13Z</time>
      </trkpt>
      <trkpt lat="42.420464" lon="-8.638139">
        <ele>72.727</ele>
        <time>2018-08-25T10:33:15Z</time>
      </trkpt>
      <trkpt lat="42.420535" lon="-8.638148">
        <ele>72.757</ele>
        <time>2018-08-25T10:33:17Z</time>
      </trkpt>
      <trkpt lat="42.420601" lon="-8.638153">
        <ele>72.245</ele>
        <time>2018-08-25T10:33:20Z</time>
      </trkpt>
      <trkpt lat="42.420651" lon="-8.638162">
        <ele>71.647</ele>
        <time>2018-08-25T10:33:22Z</time>
      </trkpt>
      <trkpt lat="42.420708" lon="-8.638168">
        <ele>70.911</ele>
        <time>2018-08-25T10:33:24Z</time>
      </trkpt>
      <trkpt lat="42.420763" lon="-8.638177">
        <ele>69.908</ele>
        <time>2018-08-25T10:33:26Z</time>
      </trkpt>
      <trkpt lat="42.420826" lon="-8.638181">
        <ele>69.246</ele>
        <time>2018-08-25T10:33:28Z</time>
      </trkpt>
      <trkpt lat="42.420899" lon="-8.638188">
        <ele>69.292</ele>
        <time>2018-08-25T10:33:30Z</time>
      </trkpt>
      <trkpt lat="42.420969" lon="-8.638197">
        <ele>69.667</ele>
        <time>2018-08-25T10:33:32Z</time>
      </trkpt>
      <trkpt lat="42.421028" lon="-8.638208">
        <ele>70.351</ele>
        <time>2018-08-25T10:33:34Z</time>
      </trkpt>
      <trkpt lat="42.421081" lon="-8.638213">
        <ele>71.038</ele>
        <time>2018-08-25T10:33:36Z</time>
      </trkpt>
      <trkpt lat="42.421130" lon="-8.638222">
        <ele>71.286</ele>
        <time>2018-08-25T10:33:38Z</time>
      </trkpt>
      <trkpt lat="42.421176" lon="-8.638237">
        <ele>71.454</ele>
        <time>2018-08-25T10:33:40Z</time>
      </trkpt>
      <trkpt lat="42.421223" lon="-8.638258">
        <ele>71.184</ele>
        <time>2018-08-25T10:33:42Z</time>
      </trkpt>
      <trkpt lat="42.421284" lon="-8.638290">
        <ele>71.661</ele>
        <time>2018-08-25T10:33:45Z</time>
      </trkpt>
      <trkpt lat="42.421333" lon="-8.638307">
        <ele>72.221</ele>
        <time>2018-08-25T10:33:47Z</time>
      </trkpt>
      <trkpt lat="42.421383" lon="-8.638326">
        <ele>72.713</ele>
        <time>2018-08-25T10:33:49Z</time>
      </trkpt>
      <trkpt lat="42.421433" lon="-8.638339">
        <ele>72.808</ele>
        <time>2018-08-25T10:33:51Z</time>
      </trkpt>
      <trkpt lat="42.421483" lon="-8.638339">
        <ele>72.828</ele>
        <time>2018-08-25T10:33:53Z</time>
      </trkpt>
      <trkpt lat="42.421541" lon="-8.638308">
        <ele>72.954</ele>
        <time>2018-08-25T10:33:55Z</time>
      </trkpt>
      <trkpt lat="42.421594" lon="-8.638273">
        <ele>73.329</ele>
        <time>2018-08-25T10:33:57Z</time>
      </trkpt>
      <trkpt lat="42.421646" lon="-8.638229">
        <ele>73.823</ele>
        <time>2018-08-25T10:33:59Z</time>
      </trkpt>
      <trkpt lat="42.421700" lon="-8.638183">
        <ele>74.150</ele>
        <time>2018-08-25T10:34:02Z</time>
      </trkpt>
      <trkpt lat="42.421745" lon="-8.638169">
        <ele>74.488</ele>
        <time>2018-08-25T10:34:04Z</time>
      </trkpt>
      <trkpt lat="42.421826" lon="-8.638153">
        <ele>75.016</ele>
        <time>2018-08-25T10:34:13Z</time>
      </trkpt>
      <trkpt lat="42.421879" lon="-8.638130">
        <ele>75.546</ele>
        <time>2018-08-25T10:34:17Z</time>
      </trkpt>
      <trkpt lat="42.421928" lon="-8.638134">
        <ele>79.511</ele>
        <time>2018-08-25T10:34:21Z</time>
      </trkpt>
      <trkpt lat="42.421761" lon="-8.638379">
        <ele>83.521</ele>
        <time>2018-08-25T10:34:22Z</time>
      </trkpt>
      <trkpt lat="42.421654" lon="-8.638556">
        <ele>87.503</ele>
        <time>2018-08-25T10:34:23Z</time>
      </trkpt>
      <trkpt lat="42.421438" lon="-8.638914">
        <ele>90.608</ele>
        <time>2018-08-25T10:34:24Z</time>
      </trkpt>
      <trkpt lat="42.421607" lon="-8.638491">
        <ele>92.223</ele>
        <time>2018-08-25T10:34:25Z</time>
      </trkpt>
      <trkpt lat="42.421660" lon="-8.638582">
        <ele>93.559</ele>
        <time>2018-08-25T10:34:27Z</time>
      </trkpt>
      <trkpt lat="42.421752" lon="-8.638661">
        <ele>94.684</ele>
        <time>2018-08-25T10:34:29Z</time>
      </trkpt>
      <trkpt lat="42.421801" lon="-8.638703">
        <ele>95.678</ele>
        <time>2018-08-25T10:34:31Z</time>
      </trkpt>
      <trkpt lat="42.421927" lon="-8.638768">
        <ele>96.085</ele>
        <time>2018-08-25T10:34:33Z</time>
      </trkpt>
      <trkpt lat="42.421982" lon="-8.638783">
        <ele>96.013</ele>
        <time>2018-08-25T10:34:34Z</time>
      </trkpt>
      <trkpt lat="42.422030" lon="-8.638789">
        <ele>95.851</ele>
        <time>2018-08-25T10:34:35Z</time>
      </trkpt>
      <trkpt lat="42.422079" lon="-8.638797">
        <ele>95.781</ele>
        <time>2018-08-25T10:34:36Z</time>
      </trkpt>
      <trkpt lat="42.422127" lon="-8.638806">
        <ele>95.768</ele>
        <time>2018-08-25T10:34:37Z</time>
      </trkpt>
      <trkpt lat="42.422175" lon="-8.638828">
        <ele>95.642</ele>
        <time>2018-08-25T10:34:38Z</time>
      </trkpt>
      <trkpt lat="42.422262" lon="-8.638861">
        <ele>95.326</ele>
        <time>2018-08-25T10:34:40Z</time>
      </trkpt>
      <trkpt lat="42.422340" lon="-8.638894">
        <ele>94.408</ele>
        <time>2018-08-25T10:34:42Z</time>
      </trkpt>
      <trkpt lat="42.422421" lon="-8.638923">
        <ele>92.948</ele>
        <time>2018-08-25T10:34:44Z</time>
      </trkpt>
      <trkpt lat="42.422506" lon="-8.638951">
        <ele>91.324</ele>
        <time>2018-08-25T10:34:46Z</time>
      </trkpt>
      <trkpt lat="42.422603" lon="-8.638964">
        <ele>90.999</ele>
        <time>2018-08-25T10:34:48Z</time>
      </trkpt>
      <trkpt lat="42.422654" lon="-8.638979">
        <ele>90.643</ele>
        <time>2018-08-25T10:34:49Z</time>
      </trkpt>
      <trkpt lat="42.422707" lon="-8.638990">
        <ele>90.660</ele>
        <time>2018-08-25T10:34:50Z</time>
      </trkpt>
      <trkpt lat="42.422796" lon="-8.639018">
        <ele>90.478</ele>
        <time>2018-08-25T10:34:52Z</time>
      </trkpt>
      <trkpt lat="42.422844" lon="-8.639030">
        <ele>90.056</ele>
        <time>2018-08-25T10:34:53Z</time>
      </trkpt>
      <trkpt lat="42.422914" lon="-8.639064">
        <ele>88.626</ele>
        <time>2018-08-25T10:34:56Z</time>
      </trkpt>
      <trkpt lat="42.422993" lon="-8.639093">
        <ele>87.432</ele>
        <time>2018-08-25T10:34:57Z</time>
      </trkpt>
      <trkpt lat="42.423080" lon="-8.639122">
        <ele>86.092</ele>
        <time>2018-08-25T10:34:59Z</time>
      </trkpt>
      <trkpt lat="42.423126" lon="-8.639132">
        <ele>85.011</ele>
        <time>2018-08-25T10:35:00Z</time>
      </trkpt>
      <trkpt lat="42.423177" lon="-8.639144">
        <ele>83.908</ele>
        <time>2018-08-25T10:35:02Z</time>
      </trkpt>
      <trkpt lat="42.423241" lon="-8.639157">
        <ele>82.635</ele>
        <time>2018-08-25T10:35:04Z</time>
      </trkpt>
      <trkpt lat="42.423296" lon="-8.639157">
        <ele>81.731</ele>
        <time>2018-08-25T10:35:06Z</time>
      </trkpt>
      <trkpt lat="42.423350" lon="-8.639157">
        <ele>80.986</ele>
        <time>2018-08-25T10:35:10Z</time>
      </trkpt>
      <trkpt lat="42.423416" lon="-8.639173">
        <ele>79.640</ele>
        <time>2018-08-25T10:35:13Z</time>
      </trkpt>
      <trkpt lat="42.423487" lon="-8.639194">
        <ele>78.377</ele>
        <time>2018-08-25T10:35:15Z</time>
      </trkpt>
      <trkpt lat="42.423617" lon="-8.639240">
        <ele>77.255</ele>
        <time>2018-08-25T10:35:17Z</time>
      </trkpt>
      <trkpt lat="42.423664" lon="-8.639262">
        <ele>76.393</ele>
        <time>2018-08-25T10:35:19Z</time>
      </trkpt>
      <trkpt lat="42.423718" lon="-8.639292">
        <ele>75.533</ele>
        <time>2018-08-25T10:35:21Z</time>
      </trkpt>
      <trkpt lat="42.423771" lon="-8.639322">
        <ele>74.777</ele>
        <time>2018-08-25T10:35:23Z</time>
      </trkpt>
      <trkpt lat="42.423839" lon="-8.639351">
        <ele>74.061</ele>
        <time>2018-08-25T10:35:25Z</time>
      </trkpt>
      <trkpt lat="42.423911" lon="-8.639385">
        <ele>73.427</ele>
        <time>2018-08-25T10:35:27Z</time>
      </trkpt>
      <trkpt lat="42.423975" lon="-8.639422">
        <ele>72.108</ele>
        <time>2018-08-25T10:35:29Z</time>
      </trkpt>
      <trkpt lat="42.424049" lon="-8.639468">
        <ele>71.139</ele>
        <time>2018-08-25T10:35:31Z</time>
      </trkpt>
      <trkpt lat="42.424144" lon="-8.639538">
        <ele>70.745</ele>
        <time>2018-08-25T10:35:32Z</time>
      </trkpt>
      <trkpt lat="42.424178" lon="-8.639579">
        <ele>69.670</ele>
        <time>2018-08-25T10:35:34Z</time>
      </trkpt>
      <trkpt lat="42.424198" lon="-8.639640">
        <ele>68.134</ele>
        <time>2018-08-25T10:35:36Z</time>
      </trkpt>
      <trkpt lat="42.424206" lon="-8.639706">
        <ele>65.871</ele>
        <time>2018-08-25T10:35:38Z</time>
      </trkpt>
      <trkpt lat="42.424214" lon="-8.639774">
        <ele>63.229</ele>
        <time>2018-08-25T10:35:41Z</time>
      </trkpt>
      <trkpt lat="42.424225" lon="-8.639834">
        <ele>61.647</ele>
        <time>2018-08-25T10:35:49Z</time>
      </trkpt>
      <trkpt lat="42.424250" lon="-8.639996">
        <ele>59.997</ele>
        <time>2018-08-25T10:35:52Z</time>
      </trkpt>
      <trkpt lat="42.424284" lon="-8.640098">
        <ele>58.727</ele>
        <time>2018-08-25T10:35:54Z</time>
      </trkpt>
      <trkpt lat="42.424302" lon="-8.640215">
        <ele>57.968</ele>
        <time>2018-08-25T10:35:56Z</time>
      </trkpt>
      <trkpt lat="42.424312" lon="-8.640279">
        <ele>57.414</ele>
        <time>2018-08-25T10:35:57Z</time>
      </trkpt>
      <trkpt lat="42.424325" lon="-8.640345">
        <ele>57.208</ele>
        <time>2018-08-25T10:35:58Z</time>
      </trkpt>
      <trkpt lat="42.424335" lon="-8.640416">
        <ele>56.914</ele>
        <time>2018-08-25T10:35:59Z</time>
      </trkpt>
      <trkpt lat="42.424345" lon="-8.640488">
        <ele>56.940</ele>
        <time>2018-08-25T10:36:00Z</time>
      </trkpt>
      <trkpt lat="42.424356" lon="-8.640561">
        <ele>56.925</ele>
        <time>2018-08-25T10:36:01Z</time>
      </trkpt>
      <trkpt lat="42.424371" lon="-8.640630">
        <ele>56.949</ele>
        <time>2018-08-25T10:36:02Z</time>
      </trkpt>
      <trkpt lat="42.424385" lon="-8.640701">
        <ele>57.026</ele>
        <time>2018-08-25T10:36:03Z</time>
      </trkpt>
      <trkpt lat="42.424398" lon="-8.640772">
        <ele>57.054</ele>
        <time>2018-08-25T10:36:04Z</time>
      </trkpt>
      <trkpt lat="42.424401" lon="-8.640851">
        <ele>56.772</ele>
        <time>2018-08-25T10:36:05Z</time>
      </trkpt>
      <trkpt lat="42.424399" lon="-8.640918">
        <ele>54.742</ele>
        <time>2018-08-25T10:36:06Z</time>
      </trkpt>
      <trkpt lat="42.424415" lon="-8.640981">
        <ele>53.151</ele>
        <time>2018-08-25T10:36:07Z</time>
      </trkpt>
      <trkpt lat="42.424429" lon="-8.641055">
        <ele>52.001</ele>
        <time>2018-08-25T10:36:08Z</time>
      </trkpt>
      <trkpt lat="42.424449" lon="-8.641118">
        <ele>51.411</ele>
        <time>2018-08-25T10:36:09Z</time>
      </trkpt>
      <trkpt lat="42.424467" lon="-8.641184">
        <ele>50.908</ele>
        <time>2018-08-25T10:36:10Z</time>
      </trkpt>
      <trkpt lat="42.424487" lon="-8.641245">
        <ele>50.517</ele>
        <time>2018-08-25T10:36:11Z</time>
      </trkpt>
      <trkpt lat="42.424539" lon="-8.641345">
        <ele>50.743</ele>
        <time>2018-08-25T10:36:13Z</time>
      </trkpt>
      <trkpt lat="42.424566" lon="-8.641401">
        <ele>51.588</ele>
        <time>2018-08-25T10:36:14Z</time>
      </trkpt>
      <trkpt lat="42.424620" lon="-8.641492">
        <ele>52.992</ele>
        <time>2018-08-25T10:36:16Z</time>
      </trkpt>
      <trkpt lat="42.424660" lon="-8.641586">
        <ele>54.379</ele>
        <time>2018-08-25T10:36:18Z</time>
      </trkpt>
      <trkpt lat="42.424675" lon="-8.641644">
        <ele>55.327</ele>
        <time>2018-08-25T10:36:19Z</time>
      </trkpt>
      <trkpt lat="42.424688" lon="-8.641710">
        <ele>56.195</ele>
        <time>2018-08-25T10:36:20Z</time>
      </trkpt>
      <trkpt lat="42.424704" lon="-8.641773">
        <ele>56.335</ele>
        <time>2018-08-25T10:36:21Z</time>
      </trkpt>
      <trkpt lat="42.424717" lon="-8.641835">
        <ele>56.388</ele>
        <time>2018-08-25T10:36:22Z</time>
      </trkpt>
      <trkpt lat="42.424734" lon="-8.641895">
        <ele>56.524</ele>
        <time>2018-08-25T10:36:23Z</time>
      </trkpt>
      <trkpt lat="42.424753" lon="-8.641956">
        <ele>56.726</ele>
        <time>2018-08-25T10:36:24Z</time>
      </trkpt>
      <trkpt lat="42.424773" lon="-8.642019">
        <ele>57.108</ele>
        <time>2018-08-25T10:36:25Z</time>
      </trkpt>
      <trkpt lat="42.424792" lon="-8.642081">
        <ele>57.640</ele>
        <time>2018-08-25T10:36:26Z</time>
      </trkpt>
      <trkpt lat="42.424806" lon="-8.642143">
        <ele>58.256</ele>
        <time>2018-08-25T10:36:27Z</time>
      </trkpt>
      <trkpt lat="42.424816" lon="-8.642205">
        <ele>58.821</ele>
        <time>2018-08-25T10:36:29Z</time>
      </trkpt>
      <trkpt lat="42.424826" lon="-8.642283">
        <ele>59.555</ele>
        <time>2018-08-25T10:36:32Z</time>
      </trkpt>
      <trkpt lat="42.424860" lon="-8.642362">
        <ele>60.952</ele>
        <time>2018-08-25T10:36:35Z</time>
      </trkpt>
      <trkpt lat="42.424880" lon="-8.642430">
        <ele>61.960</ele>
        <time>2018-08-25T10:36:37Z</time>
      </trkpt>
      <trkpt lat="42.424906" lon="-8.642496">
        <ele>63.758</ele>
        <time>2018-08-25T10:36:39Z</time>
      </trkpt>
      <trkpt lat="42.424946" lon="-8.642542">
        <ele>65.148</ele>
        <time>2018-08-25T10:36:42Z</time>
      </trkpt>
      <trkpt lat="42.425006" lon="-8.642548">
        <ele>66.114</ele>
        <time>2018-08-25T10:36:45Z</time>
      </trkpt>
      <trkpt lat="42.425052" lon="-8.642541">
        <ele>66.854</ele>
        <time>2018-08-25T10:36:47Z</time>
      </trkpt>
      <trkpt lat="42.425120" lon="-8.642532">
        <ele>66.909</ele>
        <time>2018-08-25T10:36:49Z</time>
      </trkpt>
      <trkpt lat="42.425188" lon="-8.642511">
        <ele>66.108</ele>
        <time>2018-08-25T10:36:51Z</time>
      </trkpt>
      <trkpt lat="42.425255" lon="-8.642489">
        <ele>64.843</ele>
        <time>2018-08-25T10:36:53Z</time>
      </trkpt>
      <trkpt lat="42.425380" lon="-8.642470">
        <ele>63.299</ele>
        <time>2018-08-25T10:36:55Z</time>
      </trkpt>
      <trkpt lat="42.425428" lon="-8.642472">
        <ele>62.214</ele>
        <time>2018-08-25T10:36:56Z</time>
      </trkpt>
      <trkpt lat="42.425478" lon="-8.642475">
        <ele>61.678</ele>
        <time>2018-08-25T10:36:57Z</time>
      </trkpt>
      <trkpt lat="42.425527" lon="-8.642476">
        <ele>61.265</ele>
        <time>2018-08-25T10:36:58Z</time>
      </trkpt>
      <trkpt lat="42.425580" lon="-8.642475">
        <ele>61.093</ele>
        <time>2018-08-25T10:36:59Z</time>
      </trkpt>
      <trkpt lat="42.425631" lon="-8.642472">
        <ele>60.741</ele>
        <time>2018-08-25T10:37:00Z</time>
      </trkpt>
      <trkpt lat="42.425678" lon="-8.642481">
        <ele>60.471</ele>
        <time>2018-08-25T10:37:01Z</time>
      </trkpt>
      <trkpt lat="42.425758" lon="-8.642497">
        <ele>59.774</ele>
        <time>2018-08-25T10:37:03Z</time>
      </trkpt>
      <trkpt lat="42.425852" lon="-8.642503">
        <ele>58.856</ele>
        <time>2018-08-25T10:37:05Z</time>
      </trkpt>
      <trkpt lat="42.425904" lon="-8.642503">
        <ele>58.321</ele>
        <time>2018-08-25T10:37:06Z</time>
      </trkpt>
      <trkpt lat="42.425953" lon="-8.642513">
        <ele>57.908</ele>
        <time>2018-08-25T10:37:07Z</time>
      </trkpt>
      <trkpt lat="42.426037" lon="-8.642521">
        <ele>57.329</ele>
        <time>2018-08-25T10:37:09Z</time>
      </trkpt>
      <trkpt lat="42.426129" lon="-8.642532">
        <ele>56.775</ele>
        <time>2018-08-25T10:37:11Z</time>
      </trkpt>
      <trkpt lat="42.426209" lon="-8.642556">
        <ele>55.670</ele>
        <time>2018-08-25T10:37:13Z</time>
      </trkpt>
      <trkpt lat="42.426284" lon="-8.642570">
        <ele>54.174</ele>
        <time>2018-08-25T10:37:15Z</time>
      </trkpt>
      <trkpt lat="42.426329" lon="-8.642569">
        <ele>52.491</ele>
        <time>2018-08-25T10:37:16Z</time>
      </trkpt>
      <trkpt lat="42.426375" lon="-8.642572">
        <ele>51.169</ele>
        <time>2018-08-25T10:37:17Z</time>
      </trkpt>
      <trkpt lat="42.426423" lon="-8.642578">
        <ele>50.397</ele>
        <time>2018-08-25T10:37:18Z</time>
      </trkpt>
      <trkpt lat="42.426475" lon="-8.642576">
        <ele>49.867</ele>
        <time>2018-08-25T10:37:19Z</time>
      </trkpt>
      <trkpt lat="42.426553" lon="-8.642568">
        <ele>48.812</ele>
        <time>2018-08-25T10:37:21Z</time>
      </trkpt>
      <trkpt lat="42.426612" lon="-8.642546">
        <ele>47.832</ele>
        <time>2018-08-25T10:37:24Z</time>
      </trkpt>
      <trkpt lat="42.426668" lon="-8.642524">
        <ele>47.105</ele>
        <time>2018-08-25T10:37:26Z</time>
      </trkpt>
      <trkpt lat="42.426726" lon="-8.642501">
        <ele>45.808</ele>
        <time>2018-08-25T10:37:28Z</time>
      </trkpt>
      <trkpt lat="42.426775" lon="-8.642484">
        <ele>44.083</ele>
        <time>2018-08-25T10:37:30Z</time>
      </trkpt>
      <trkpt lat="42.426824" lon="-8.642456">
        <ele>42.789</ele>
        <time>2018-08-25T10:37:32Z</time>
      </trkpt>
      <trkpt lat="42.426874" lon="-8.642409">
        <ele>41.984</ele>
        <time>2018-08-25T10:37:34Z</time>
      </trkpt>
      <trkpt lat="42.426924" lon="-8.642373">
        <ele>41.078</ele>
        <time>2018-08-25T10:37:36Z</time>
      </trkpt>
      <trkpt lat="42.427020" lon="-8.642340">
        <ele>40.435</ele>
        <time>2018-08-25T10:37:37Z</time>
      </trkpt>
      <trkpt lat="42.427066" lon="-8.642341">
        <ele>39.553</ele>
        <time>2018-08-25T10:37:39Z</time>
      </trkpt>
      <trkpt lat="42.427125" lon="-8.642336">
        <ele>38.451</ele>
        <time>2018-08-25T10:37:41Z</time>
      </trkpt>
      <trkpt lat="42.427190" lon="-8.642320">
        <ele>37.831</ele>
        <time>2018-08-25T10:37:43Z</time>
      </trkpt>
      <trkpt lat="42.427254" lon="-8.642289">
        <ele>37.228</ele>
        <time>2018-08-25T10:37:45Z</time>
      </trkpt>
      <trkpt lat="42.427296" lon="-8.642262">
        <ele>36.889</ele>
        <time>2018-08-25T10:37:47Z</time>
      </trkpt>
      <trkpt lat="42.427348" lon="-8.642241">
        <ele>36.617</ele>
        <time>2018-08-25T10:37:49Z</time>
      </trkpt>
      <trkpt lat="42.427482" lon="-8.642197">
        <ele>36.408</ele>
        <time>2018-08-25T10:37:50Z</time>
      </trkpt>
      <trkpt lat="42.427528" lon="-8.642183">
        <ele>36.374</ele>
        <time>2018-08-25T10:37:51Z</time>
      </trkpt>
      <trkpt lat="42.427583" lon="-8.642193">
        <ele>35.330</ele>
        <time>2018-08-25T10:37:55Z</time>
      </trkpt>
      <trkpt lat="42.427647" lon="-8.642233">
        <ele>38.535</ele>
        <time>2018-08-25T10:37:57Z</time>
      </trkpt>
      <trkpt lat="42.427701" lon="-8.642244">
        <ele>40.669</ele>
        <time>2018-08-25T10:37:58Z</time>
      </trkpt>
      <trkpt lat="42.427750" lon="-8.642262">
        <ele>42.326</ele>
        <time>2018-08-25T10:37:59Z</time>
      </trkpt>
      <trkpt lat="42.427792" lon="-8.642284">
        <ele>43.514</ele>
        <time>2018-08-25T10:38:00Z</time>
      </trkpt>
      <trkpt lat="42.427881" lon="-8.642362">
        <ele>44.352</ele>
        <time>2018-08-25T10:38:01Z</time>
      </trkpt>
      <trkpt lat="42.427919" lon="-8.642454">
        <ele>44.472</ele>
        <time>2018-08-25T10:38:03Z</time>
      </trkpt>
      <trkpt lat="42.427955" lon="-8.642536">
        <ele>42.941</ele>
        <time>2018-08-25T10:38:06Z</time>
      </trkpt>
      <trkpt lat="42.428002" lon="-8.642692">
        <ele>42.281</ele>
        <time>2018-08-25T10:38:08Z</time>
      </trkpt>
      <trkpt lat="42.428023" lon="-8.642748">
        <ele>42.009</ele>
        <time>2018-08-25T10:38:09Z</time>
      </trkpt>
      <trkpt lat="42.428049" lon="-8.642803">
        <ele>42.308</ele>
        <time>2018-08-25T10:38:10Z</time>
      </trkpt>
      <trkpt lat="42.428074" lon="-8.642912">
        <ele>42.526</ele>
        <time>2018-08-25T10:38:12Z</time>
      </trkpt>
      <trkpt lat="42.428083" lon="-8.642979">
        <ele>42.862</ele>
        <time>2018-08-25T10:38:14Z</time>
      </trkpt>
      <trkpt lat="42.428097" lon="-8.643053">
        <ele>42.697</ele>
        <time>2018-08-25T10:38:16Z</time>
      </trkpt>
      <trkpt lat="42.428122" lon="-8.643124">
        <ele>41.871</ele>
        <time>2018-08-25T10:38:18Z</time>
      </trkpt>
      <trkpt lat="42.428157" lon="-8.643226">
        <ele>41.148</ele>
        <time>2018-08-25T10:38:19Z</time>
      </trkpt>
      <trkpt lat="42.428178" lon="-8.643282">
        <ele>40.966</ele>
        <time>2018-08-25T10:38:21Z</time>
      </trkpt>
      <trkpt lat="42.428202" lon="-8.643350">
        <ele>40.844</ele>
        <time>2018-08-25T10:38:23Z</time>
      </trkpt>
      <trkpt lat="42.428221" lon="-8.643451">
        <ele>41.174</ele>
        <time>2018-08-25T10:38:24Z</time>
      </trkpt>
      <trkpt lat="42.428213" lon="-8.643537">
        <ele>42.295</ele>
        <time>2018-08-25T10:38:26Z</time>
      </trkpt>
      <trkpt lat="42.428216" lon="-8.643609">
        <ele>43.149</ele>
        <time>2018-08-25T10:38:27Z</time>
      </trkpt>
      <trkpt lat="42.428225" lon="-8.643682">
        <ele>43.823</ele>
        <time>2018-08-25T10:38:29Z</time>
      </trkpt>
      <trkpt lat="42.428238" lon="-8.643771">
        <ele>44.208</ele>
        <time>2018-08-25T10:38:32Z</time>
      </trkpt>
      <trkpt lat="42.428268" lon="-8.643836">
        <ele>45.631</ele>
        <time>2018-08-25T10:38:34Z</time>
      </trkpt>
      <trkpt lat="42.428319" lon="-8.643858">
        <ele>47.937</ele>
        <time>2018-08-25T10:38:36Z</time>
      </trkpt>
      <trkpt lat="42.428375" lon="-8.643861">
        <ele>51.372</ele>
        <time>2018-08-25T10:38:38Z</time>
      </trkpt>
      <trkpt lat="42.428420" lon="-8.643844">
        <ele>54.886</ele>
        <time>2018-08-25T10:38:40Z</time>
      </trkpt>
      <trkpt lat="42.428468" lon="-8.643870">
        <ele>58.873</ele>
        <time>2018-08-25T10:38:44Z</time>
      </trkpt>
      <trkpt lat="42.428522" lon="-8.643905">
        <ele>62.811</ele>
        <time>2018-08-25T10:38:47Z</time>
      </trkpt>
      <trkpt lat="42.428581" lon="-8.643930">
        <ele>66.889</ele>
        <time>2018-08-25T10:38:50Z</time>
      </trkpt>
      <trkpt lat="42.428641" lon="-8.643904">
        <ele>69.789</ele>
        <time>2018-08-25T10:38:53Z</time>
      </trkpt>
      <trkpt lat="42.428691" lon="-8.643881">
        <ele>70.956</ele>
        <time>2018-08-25T10:38:56Z</time>
      </trkpt>
      <trkpt lat="42.428744" lon="-8.643854">
        <ele>71.559</ele>
        <time>2018-08-25T10:38:58Z</time>
      </trkpt>
      <trkpt lat="42.428806" lon="-8.643830">
        <ele>71.714</ele>
        <time>2018-08-25T10:39:00Z</time>
      </trkpt>
      <trkpt lat="42.428869" lon="-8.643813">
        <ele>71.308</ele>
        <time>2018-08-25T10:39:02Z</time>
      </trkpt>
      <trkpt lat="42.428941" lon="-8.643792">
        <ele>71.177</ele>
        <time>2018-08-25T10:39:04Z</time>
      </trkpt>
      <trkpt lat="42.429008" lon="-8.643768">
        <ele>71.233</ele>
        <time>2018-08-25T10:39:06Z</time>
      </trkpt>
      <trkpt lat="42.429072" lon="-8.643749">
        <ele>70.738</ele>
        <time>2018-08-25T10:39:08Z</time>
      </trkpt>
      <trkpt lat="42.429141" lon="-8.643728">
        <ele>70.972</ele>
        <time>2018-08-25T10:39:10Z</time>
      </trkpt>
      <trkpt lat="42.429198" lon="-8.643709">
        <ele>71.149</ele>
        <time>2018-08-25T10:39:12Z</time>
      </trkpt>
      <trkpt lat="42.429245" lon="-8.643694">
        <ele>71.227</ele>
        <time>2018-08-25T10:39:14Z</time>
      </trkpt>
      <trkpt lat="42.429302" lon="-8.643675">
        <ele>71.595</ele>
        <time>2018-08-25T10:39:16Z</time>
      </trkpt>
      <trkpt lat="42.429360" lon="-8.643655">
        <ele>71.925</ele>
        <time>2018-08-25T10:39:18Z</time>
      </trkpt>
      <trkpt lat="42.429414" lon="-8.643633">
        <ele>72.334</ele>
        <time>2018-08-25T10:39:20Z</time>
      </trkpt>
      <trkpt lat="42.429466" lon="-8.643610">
        <ele>72.455</ele>
        <time>2018-08-25T10:39:22Z</time>
      </trkpt>
      <trkpt lat="42.429519" lon="-8.643605">
        <ele>72.510</ele>
        <time>2018-08-25T10:39:24Z</time>
      </trkpt>
      <trkpt lat="42.429560" lon="-8.643638">
        <ele>75.008</ele>
        <time>2018-08-25T10:39:27Z</time>
      </trkpt>
      <trkpt lat="42.429601" lon="-8.643662">
        <ele>77.125</ele>
        <time>2018-08-25T10:39:31Z</time>
      </trkpt>
      <trkpt lat="42.429638" lon="-8.643615">
        <ele>77.731</ele>
        <time>2018-08-25T10:39:34Z</time>
      </trkpt>
      <trkpt lat="42.429678" lon="-8.643526">
        <ele>79.976</ele>
        <time>2018-08-25T10:39:38Z</time>
      </trkpt>
      <trkpt lat="42.429749" lon="-8.643469">
        <ele>81.840</ele>
        <time>2018-08-25T10:39:50Z</time>
      </trkpt>
      <trkpt lat="42.429813" lon="-8.643486">
        <ele>82.787</ele>
        <time>2018-08-25T10:39:55Z</time>
      </trkpt>
      <trkpt lat="42.429876" lon="-8.643514">
        <ele>82.465</ele>
        <time>2018-08-25T10:39:57Z</time>
      </trkpt>
      <trkpt lat="42.429936" lon="-8.643537">
        <ele>80.893</ele>
        <time>2018-08-25T10:39:59Z</time>
      </trkpt>
      <trkpt lat="42.429986" lon="-8.643564">
        <ele>79.763</ele>
        <time>2018-08-25T10:40:01Z</time>
      </trkpt>
      <trkpt lat="42.430023" lon="-8.643603">
        <ele>79.273</ele>
        <time>2018-08-25T10:40:03Z</time>
      </trkpt>
      <trkpt lat="42.430048" lon="-8.643664">
        <ele>79.685</ele>
        <time>2018-08-25T10:40:05Z</time>
      </trkpt>
      <trkpt lat="42.430060" lon="-8.643737">
        <ele>80.713</ele>
        <time>2018-08-25T10:40:07Z</time>
      </trkpt>
      <trkpt lat="42.430073" lon="-8.643803">
        <ele>81.708</ele>
        <time>2018-08-25T10:40:09Z</time>
      </trkpt>
      <trkpt lat="42.430104" lon="-8.643858">
        <ele>82.939</ele>
        <time>2018-08-25T10:40:11Z</time>
      </trkpt>
      <trkpt lat="42.430135" lon="-8.643918">
        <ele>84.345</ele>
        <time>2018-08-25T10:40:13Z</time>
      </trkpt>
      <trkpt lat="42.430169" lon="-8.643971">
        <ele>85.320</ele>
        <time>2018-08-25T10:40:15Z</time>
      </trkpt>
      <trkpt lat="42.430207" lon="-8.644014">
        <ele>86.224</ele>
        <time>2018-08-25T10:40:17Z</time>
      </trkpt>
      <trkpt lat="42.430253" lon="-8.644048">
        <ele>86.071</ele>
        <time>2018-08-25T10:40:19Z</time>
      </trkpt>
      <trkpt lat="42.430301" lon="-8.644069">
        <ele>85.819</ele>
        <time>2018-08-25T10:40:21Z</time>
      </trkpt>
      <trkpt lat="42.430346" lon="-8.644084">
        <ele>85.867</ele>
        <time>2018-08-25T10:40:23Z</time>
      </trkpt>
      <trkpt lat="42.430391" lon="-8.644098">
        <ele>86.057</ele>
        <time>2018-08-25T10:40:25Z</time>
      </trkpt>
      <trkpt lat="42.430446" lon="-8.644127">
        <ele>86.384</ele>
        <time>2018-08-25T10:40:28Z</time>
      </trkpt>
      <trkpt lat="42.430491" lon="-8.644142">
        <ele>85.907</ele>
        <time>2018-08-25T10:40:31Z</time>
      </trkpt>
      <trkpt lat="42.430547" lon="-8.644162">
        <ele>85.117</ele>
        <time>2018-08-25T10:40:35Z</time>
      </trkpt>
      <trkpt lat="42.430592" lon="-8.644171">
        <ele>83.108</ele>
        <time>2018-08-25T10:40:39Z</time>
      </trkpt>
      <trkpt lat="42.430631" lon="-8.644222">
        <ele>81.830</ele>
        <time>2018-08-25T10:40:43Z</time>
      </trkpt>
      <trkpt lat="42.430673" lon="-8.644263">
        <ele>81.676</ele>
        <time>2018-08-25T10:40:46Z</time>
      </trkpt>
      <trkpt lat="42.430713" lon="-8.644312">
        <ele>81.211</ele>
        <time>2018-08-25T10:40:49Z</time>
      </trkpt>
      <trkpt lat="42.430754" lon="-8.644359">
        <ele>81.845</ele>
        <time>2018-08-25T10:41:11Z</time>
      </trkpt>
      <trkpt lat="42.430803" lon="-8.644325">
        <ele>83.122</ele>
        <time>2018-08-25T10:41:24Z</time>
      </trkpt>
      <trkpt lat="42.430860" lon="-8.644316">
        <ele>83.530</ele>
        <time>2018-08-25T10:41:51Z</time>
      </trkpt>
      <trkpt lat="42.430923" lon="-8.644316">
        <ele>84.468</ele>
        <time>2018-08-25T10:41:54Z</time>
      </trkpt>
      <trkpt lat="42.430974" lon="-8.644318">
        <ele>85.068</ele>
        <time>2018-08-25T10:41:56Z</time>
      </trkpt>
      <trkpt lat="42.431025" lon="-8.644301">
        <ele>85.375</ele>
        <time>2018-08-25T10:41:58Z</time>
      </trkpt>
      <trkpt lat="42.431144" lon="-8.644218">
        <ele>85.828</ele>
        <time>2018-08-25T10:42:11Z</time>
      </trkpt>
      <trkpt lat="42.431189" lon="-8.644263">
        <ele>85.920</ele>
        <time>2018-08-25T10:42:17Z</time>
      </trkpt>
      <trkpt lat="42.431235" lon="-8.644280">
        <ele>86.008</ele>
        <time>2018-08-25T10:42:20Z</time>
      </trkpt>
      <trkpt lat="42.431278" lon="-8.644255">
        <ele>86.139</ele>
        <time>2018-08-25T10:42:24Z</time>
      </trkpt>
      <trkpt lat="42.431325" lon="-8.644240">
        <ele>86.675</ele>
        <time>2018-08-25T10:42:28Z</time>
      </trkpt>
      <trkpt lat="42.431373" lon="-8.644220">
        <ele>87.220</ele>
        <time>2018-08-25T10:42:31Z</time>
      </trkpt>
      <trkpt lat="42.431420" lon="-8.644191">
        <ele>87.674</ele>
        <time>2018-08-25T10:42:34Z</time>
      </trkpt>
      <trkpt lat="42.431479" lon="-8.644179">
        <ele>88.111</ele>
        <time>2018-08-25T10:42:37Z</time>
      </trkpt>
      <trkpt lat="42.431541" lon="-8.644193">
        <ele>88.799</ele>
        <time>2018-08-25T10:42:40Z</time>
      </trkpt>
      <trkpt lat="42.431589" lon="-8.644236">
        <ele>89.167</ele>
        <time>2018-08-25T10:42:43Z</time>
      </trkpt>
      <trkpt lat="42.431539" lon="-8.644245">
        <ele>90.997</ele>
        <time>2018-08-25T10:42:51Z</time>
      </trkpt>
      <trkpt lat="42.431494" lon="-8.644178">
        <ele>93.154</ele>
        <time>2018-08-25T10:42:54Z</time>
      </trkpt>
      <trkpt lat="42.431467" lon="-8.644113">
        <ele>94.556</ele>
        <time>2018-08-25T10:42:56Z</time>
      </trkpt>
      <trkpt lat="42.431441" lon="-8.644055">
        <ele>96.611</ele>
        <time>2018-08-25T10:42:58Z</time>
      </trkpt>
      <trkpt lat="42.431425" lon="-8.643986">
        <ele>100.008</ele>
        <time>2018-08-25T10:43:02Z</time>
      </trkpt>
      <trkpt lat="42.431439" lon="-8.643921">
        <ele>103.077</ele>
        <time>2018-08-25T10:43:06Z</time>
      </trkpt>
      <trkpt lat="42.431452" lon="-8.643999">
        <ele>102.363</ele>
        <time>2018-08-25T10:43:13Z</time>
      </trkpt>
      <trkpt lat="42.431467" lon="-8.644076">
        <ele>101.558</ele>
        <time>2018-08-25T10:43:16Z</time>
      </trkpt>
      <trkpt lat="42.431490" lon="-8.644145">
        <ele>100.132</ele>
        <time>2018-08-25T10:43:19Z</time>
      </trkpt>
      <trkpt lat="42.431516" lon="-8.644210">
        <ele>98.739</ele>
        <time>2018-08-25T10:43:22Z</time>
      </trkpt>
      <trkpt lat="42.431541" lon="-8.644270">
        <ele>97.177</ele>
        <time>2018-08-25T10:43:25Z</time>
      </trkpt>
      <trkpt lat="42.431576" lon="-8.644326">
        <ele>95.865</ele>
        <time>2018-08-25T10:43:28Z</time>
      </trkpt>
      <trkpt lat="42.431636" lon="-8.644365">
        <ele>94.515</ele>
        <time>2018-08-25T10:43:31Z</time>
      </trkpt>
      <trkpt lat="42.431701" lon="-8.644365">
        <ele>93.327</ele>
        <time>2018-08-25T10:43:34Z</time>
      </trkpt>
      <trkpt lat="42.431759" lon="-8.644360">
        <ele>92.368</ele>
        <time>2018-08-25T10:43:37Z</time>
      </trkpt>
      <trkpt lat="42.431810" lon="-8.644353">
        <ele>91.314</ele>
        <time>2018-08-25T10:43:40Z</time>
      </trkpt>
      <trkpt lat="42.431870" lon="-8.644334">
        <ele>90.108</ele>
        <time>2018-08-25T10:43:47Z</time>
      </trkpt>
      <trkpt lat="42.431914" lon="-8.644307">
        <ele>89.034</ele>
        <time>2018-08-25T10:43:52Z</time>
      </trkpt>
      <trkpt lat="42.431968" lon="-8.644265">
        <ele>87.480</ele>
        <time>2018-08-25T10:43:55Z</time>
      </trkpt>
      <trkpt lat="42.432028" lon="-8.644206">
        <ele>85.865</ele>
        <time>2018-08-25T10:43:57Z</time>
      </trkpt>
      <trkpt lat="42.432095" lon="-8.644143">
        <ele>84.869</ele>
        <time>2018-08-25T10:43:59Z</time>
      </trkpt>
      <trkpt lat="42.432176" lon="-8.644068">
        <ele>83.826</ele>
        <time>2018-08-25T10:44:03Z</time>
      </trkpt>
      <trkpt lat="42.432237" lon="-8.644031">
        <ele>84.464</ele>
        <time>2018-08-25T10:47:51Z</time>
      </trkpt>
      <trkpt lat="42.432292" lon="-8.643961">
        <ele>83.932</ele>
        <time>2018-08-25T10:47:55Z</time>
      </trkpt>
      <trkpt lat="42.432336" lon="-8.643917">
        <ele>84.032</ele>
        <time>2018-08-25T10:47:57Z</time>
      </trkpt>
      <trkpt lat="42.432387" lon="-8.643878">
        <ele>84.723</ele>
        <time>2018-08-25T10:47:59Z</time>
      </trkpt>
      <trkpt lat="42.432437" lon="-8.643843">
        <ele>85.083</ele>
        <time>2018-08-25T10:48:01Z</time>
      </trkpt>
      <trkpt lat="42.432482" lon="-8.643814">
        <ele>86.011</ele>
        <time>2018-08-25T10:48:03Z</time>
      </trkpt>
      <trkpt lat="42.432535" lon="-8.643792">
        <ele>87.008</ele>
        <time>2018-08-25T10:48:06Z</time>
      </trkpt>
      <trkpt lat="42.432587" lon="-8.643783">
        <ele>86.564</ele>
        <time>2018-08-25T10:48:09Z</time>
      </trkpt>
      <trkpt lat="42.432682" lon="-8.643786">
        <ele>86.460</ele>
        <time>2018-08-25T10:48:36Z</time>
      </trkpt>
      <trkpt lat="42.432724" lon="-8.643812">
        <ele>85.875</ele>
        <time>2018-08-25T10:48:44Z</time>
      </trkpt>
      <trkpt lat="42.432783" lon="-8.643789">
        <ele>84.979</ele>
        <time>2018-08-25T10:48:52Z</time>
      </trkpt>
      <trkpt lat="42.432807" lon="-8.643734">
        <ele>82.896</ele>
        <time>2018-08-25T10:48:55Z</time>
      </trkpt>
      <trkpt lat="42.432831" lon="-8.643675">
        <ele>81.144</ele>
        <time>2018-08-25T10:48:58Z</time>
      </trkpt>
      <trkpt lat="42.432844" lon="-8.643615">
        <ele>80.192</ele>
        <time>2018-08-25T10:49:00Z</time>
      </trkpt>
      <trkpt lat="42.432849" lon="-8.643554">
        <ele>79.442</ele>
        <time>2018-08-25T10:49:02Z</time>
      </trkpt>
      <trkpt lat="42.432850" lon="-8.643487">
        <ele>78.846</ele>
        <time>2018-08-25T10:49:04Z</time>
      </trkpt>
      <trkpt lat="42.432845" lon="-8.643417">
        <ele>78.388</ele>
        <time>2018-08-25T10:49:06Z</time>
      </trkpt>
      <trkpt lat="42.432841" lon="-8.643349">
        <ele>77.816</ele>
        <time>2018-08-25T10:49:08Z</time>
      </trkpt>
      <trkpt lat="42.432847" lon="-8.643246">
        <ele>78.308</ele>
        <time>2018-08-25T10:49:12Z</time>
      </trkpt>
      <trkpt lat="42.432855" lon="-8.643172">
        <ele>79.026</ele>
        <time>2018-08-25T10:49:15Z</time>
      </trkpt>
      <trkpt lat="42.432847" lon="-8.643096">
        <ele>79.042</ele>
        <time>2018-08-25T10:49:18Z</time>
      </trkpt>
      <trkpt lat="42.432838" lon="-8.643021">
        <ele>77.697</ele>
        <time>2018-08-25T10:49:21Z</time>
      </trkpt>
      <trkpt lat="42.432854" lon="-8.642930">
        <ele>76.291</ele>
        <time>2018-08-25T10:49:24Z</time>
      </trkpt>
      <trkpt lat="42.432860" lon="-8.642869">
        <ele>74.918</ele>
        <time>2018-08-25T10:49:26Z</time>
      </trkpt>
      <trkpt lat="42.432865" lon="-8.642804">
        <ele>72.896</ele>
        <time>2018-08-25T10:49:28Z</time>
      </trkpt>
      <trkpt lat="42.432865" lon="-8.642736">
        <ele>70.784</ele>
        <time>2018-08-25T10:49:30Z</time>
      </trkpt>
      <trkpt lat="42.432868" lon="-8.642667">
        <ele>69.794</ele>
        <time>2018-08-25T10:49:32Z</time>
      </trkpt>
      <trkpt lat="42.432882" lon="-8.642602">
        <ele>69.182</ele>
        <time>2018-08-25T10:49:34Z</time>
      </trkpt>
      <trkpt lat="42.432893" lon="-8.642541">
        <ele>68.543</ele>
        <time>2018-08-25T10:49:36Z</time>
      </trkpt>
      <trkpt lat="42.432898" lon="-8.642479">
        <ele>67.917</ele>
        <time>2018-08-25T10:49:38Z</time>
      </trkpt>
      <trkpt lat="42.432898" lon="-8.642414">
        <ele>67.308</ele>
        <time>2018-08-25T10:49:40Z</time>
      </trkpt>
      <trkpt lat="42.432902" lon="-8.642349">
        <ele>66.750</ele>
        <time>2018-08-25T10:49:42Z</time>
      </trkpt>
      <trkpt lat="42.432910" lon="-8.642286">
        <ele>66.016</ele>
        <time>2018-08-25T10:49:44Z</time>
      </trkpt>
      <trkpt lat="42.432915" lon="-8.642223">
        <ele>65.131</ele>
        <time>2018-08-25T10:49:46Z</time>
      </trkpt>
      <trkpt lat="42.432914" lon="-8.642154">
        <ele>64.335</ele>
        <time>2018-08-25T10:49:48Z</time>
      </trkpt>
      <trkpt lat="42.432914" lon="-8.642007">
        <ele>63.632</ele>
        <time>2018-08-25T10:49:50Z</time>
      </trkpt>
      <trkpt lat="42.432917" lon="-8.641890">
        <ele>62.950</ele>
        <time>2018-08-25T10:49:52Z</time>
      </trkpt>
      <trkpt lat="42.432915" lon="-8.641828">
        <ele>62.468</ele>
        <time>2018-08-25T10:49:54Z</time>
      </trkpt>
      <trkpt lat="42.432905" lon="-8.641748">
        <ele>61.588</ele>
        <time>2018-08-25T10:49:57Z</time>
      </trkpt>
      <trkpt lat="42.432893" lon="-8.641666">
        <ele>61.185</ele>
        <time>2018-08-25T10:50:04Z</time>
      </trkpt>
      <trkpt lat="42.432884" lon="-8.641591">
        <ele>61.489</ele>
        <time>2018-08-25T10:50:10Z</time>
      </trkpt>
      <trkpt lat="42.432894" lon="-8.641531">
        <ele>62.217</ele>
        <time>2018-08-25T10:50:12Z</time>
      </trkpt>
      <trkpt lat="42.432896" lon="-8.641457">
        <ele>62.908</ele>
        <time>2018-08-25T10:50:14Z</time>
      </trkpt>
      <trkpt lat="42.432892" lon="-8.641375">
        <ele>63.580</ele>
        <time>2018-08-25T10:50:16Z</time>
      </trkpt>
      <trkpt lat="42.432878" lon="-8.641288">
        <ele>63.386</ele>
        <time>2018-08-25T10:50:18Z</time>
      </trkpt>
      <trkpt lat="42.432864" lon="-8.641202">
        <ele>62.821</ele>
        <time>2018-08-25T10:50:20Z</time>
      </trkpt>
      <trkpt lat="42.432850" lon="-8.641115">
        <ele>62.215</ele>
        <time>2018-08-25T10:50:22Z</time>
      </trkpt>
      <trkpt lat="42.432831" lon="-8.641022">
        <ele>61.732</ele>
        <time>2018-08-25T10:50:24Z</time>
      </trkpt>
      <trkpt lat="42.432813" lon="-8.640928">
        <ele>61.270</ele>
        <time>2018-08-25T10:50:26Z</time>
      </trkpt>
      <trkpt lat="42.432796" lon="-8.640829">
        <ele>60.878</ele>
        <time>2018-08-25T10:50:28Z</time>
      </trkpt>
      <trkpt lat="42.432788" lon="-8.640740">
        <ele>60.558</ele>
        <time>2018-08-25T10:50:30Z</time>
      </trkpt>
      <trkpt lat="42.432774" lon="-8.640639">
        <ele>60.116</ele>
        <time>2018-08-25T10:50:32Z</time>
      </trkpt>
      <trkpt lat="42.432756" lon="-8.640545">
        <ele>59.976</ele>
        <time>2018-08-25T10:50:34Z</time>
      </trkpt>
      <trkpt lat="42.432734" lon="-8.640460">
        <ele>60.013</ele>
        <time>2018-08-25T10:50:36Z</time>
      </trkpt>
      <trkpt lat="42.432713" lon="-8.640374">
        <ele>60.408</ele>
        <time>2018-08-25T10:50:38Z</time>
      </trkpt>
      <trkpt lat="42.432697" lon="-8.640284">
        <ele>61.223</ele>
        <time>2018-08-25T10:50:40Z</time>
      </trkpt>
      <trkpt lat="42.432681" lon="-8.640197">
        <ele>62.279</ele>
        <time>2018-08-25T10:50:42Z</time>
      </trkpt>
      <trkpt lat="42.432664" lon="-8.640109">
        <ele>62.374</ele>
        <time>2018-08-25T10:50:44Z</time>
      </trkpt>
      <trkpt lat="42.432641" lon="-8.640021">
        <ele>61.628</ele>
        <time>2018-08-25T10:50:46Z</time>
      </trkpt>
      <trkpt lat="42.432613" lon="-8.639936">
        <ele>60.965</ele>
        <time>2018-08-25T10:50:48Z</time>
      </trkpt>
      <trkpt lat="42.432585" lon="-8.639854">
        <ele>60.313</ele>
        <time>2018-08-25T10:50:50Z</time>
      </trkpt>
      <trkpt lat="42.432555" lon="-8.639745">
        <ele>59.971</ele>
        <time>2018-08-25T10:50:51Z</time>
      </trkpt>
      <trkpt lat="42.432532" lon="-8.639646">
        <ele>59.331</ele>
        <time>2018-08-25T10:50:53Z</time>
      </trkpt>
      <trkpt lat="42.432511" lon="-8.639550">
        <ele>58.639</ele>
        <time>2018-08-25T10:50:55Z</time>
      </trkpt>
      <trkpt lat="42.432483" lon="-8.639462">
        <ele>57.801</ele>
        <time>2018-08-25T10:50:57Z</time>
      </trkpt>
      <trkpt lat="42.432458" lon="-8.639374">
        <ele>56.621</ele>
        <time>2018-08-25T10:51:00Z</time>
      </trkpt>
      <trkpt lat="42.432428" lon="-8.639305">
        <ele>55.708</ele>
        <time>2018-08-25T10:51:02Z</time>
      </trkpt>
      <trkpt lat="42.432398" lon="-8.639224">
        <ele>55.235</ele>
        <time>2018-08-25T10:51:04Z</time>
      </trkpt>
      <trkpt lat="42.432374" lon="-8.639141">
        <ele>54.921</ele>
        <time>2018-08-25T10:51:06Z</time>
      </trkpt>
      <trkpt lat="42.432350" lon="-8.639061">
        <ele>54.956</ele>
        <time>2018-08-25T10:51:08Z</time>
      </trkpt>
      <trkpt lat="42.432332" lon="-8.638977">
        <ele>54.940</ele>
        <time>2018-08-25T10:51:10Z</time>
      </trkpt>
      <trkpt lat="42.432317" lon="-8.638895">
        <ele>55.067</ele>
        <time>2018-08-25T10:51:12Z</time>
      </trkpt>
      <trkpt lat="42.432303" lon="-8.638817">
        <ele>55.055</ele>
        <time>2018-08-25T10:51:14Z</time>
      </trkpt>
      <trkpt lat="42.432285" lon="-8.638742">
        <ele>55.153</ele>
        <time>2018-08-25T10:51:16Z</time>
      </trkpt>
      <trkpt lat="42.432266" lon="-8.638685">
        <ele>55.383</ele>
        <time>2018-08-25T10:51:18Z</time>
      </trkpt>
      <trkpt lat="42.432240" lon="-8.638625">
        <ele>55.856</ele>
        <time>2018-08-25T10:51:20Z</time>
      </trkpt>
      <trkpt lat="42.432213" lon="-8.638571">
        <ele>56.259</ele>
        <time>2018-08-25T10:51:22Z</time>
      </trkpt>
      <trkpt lat="42.432200" lon="-8.638508">
        <ele>56.214</ele>
        <time>2018-08-25T10:51:25Z</time>
      </trkpt>
      <trkpt lat="42.432240" lon="-8.638578">
        <ele>54.808</ele>
        <time>2018-08-25T10:51:31Z</time>
      </trkpt>
      <trkpt lat="42.432263" lon="-8.638655">
        <ele>52.987</ele>
        <time>2018-08-25T10:51:33Z</time>
      </trkpt>
      <trkpt lat="42.432280" lon="-8.638732">
        <ele>51.483</ele>
        <time>2018-08-25T10:51:35Z</time>
      </trkpt>
      <trkpt lat="42.432290" lon="-8.638808">
        <ele>50.068</ele>
        <time>2018-08-25T10:51:37Z</time>
      </trkpt>
      <trkpt lat="42.432296" lon="-8.638871">
        <ele>48.952</ele>
        <time>2018-08-25T10:51:39Z</time>
      </trkpt>
      <trkpt lat="42.432307" lon="-8.638933">
        <ele>47.779</ele>
        <time>2018-08-25T10:51:41Z</time>
      </trkpt>
      <trkpt lat="42.432325" lon="-8.638999">
        <ele>46.097</ele>
        <time>2018-08-25T10:51:43Z</time>
      </trkpt>
      <trkpt lat="42.432348" lon="-8.639062">
        <ele>43.665</ele>
        <time>2018-08-25T10:51:45Z</time>
      </trkpt>
      <trkpt lat="42.432358" lon="-8.639130">
        <ele>41.665</ele>
        <time>2018-08-25T10:51:47Z</time>
      </trkpt>
      <trkpt lat="42.432375" lon="-8.639200">
        <ele>39.934</ele>
        <time>2018-08-25T10:51:49Z</time>
      </trkpt>
      <trkpt lat="42.432401" lon="-8.639269">
        <ele>37.955</ele>
        <time>2018-08-25T10:51:51Z</time>
      </trkpt>
      <trkpt lat="42.432429" lon="-8.639346">
        <ele>36.810</ele>
        <time>2018-08-25T10:51:53Z</time>
      </trkpt>
      <trkpt lat="42.432458" lon="-8.639431">
        <ele>36.608</ele>
        <time>2018-08-25T10:51:55Z</time>
      </trkpt>
      <trkpt lat="42.432488" lon="-8.639524">
        <ele>37.365</ele>
        <time>2018-08-25T10:51:57Z</time>
      </trkpt>
      <trkpt lat="42.432520" lon="-8.639602">
        <ele>37.421</ele>
        <time>2018-08-25T10:51:59Z</time>
      </trkpt>
      <trkpt lat="42.432557" lon="-8.639670">
        <ele>36.916</ele>
        <time>2018-08-25T10:52:01Z</time>
      </trkpt>
      <trkpt lat="42.432592" lon="-8.639747">
        <ele>36.680</ele>
        <time>2018-08-25T10:52:03Z</time>
      </trkpt>
      <trkpt lat="42.432617" lon="-8.639837">
        <ele>37.497</ele>
        <time>2018-08-25T10:52:05Z</time>
      </trkpt>
      <trkpt lat="42.432636" lon="-8.639926">
        <ele>38.335</ele>
        <time>2018-08-25T10:52:07Z</time>
      </trkpt>
      <trkpt lat="42.432655" lon="-8.640014">
        <ele>38.943</ele>
        <time>2018-08-25T10:52:09Z</time>
      </trkpt>
      <trkpt lat="42.432675" lon="-8.640103">
        <ele>39.263</ele>
        <time>2018-08-25T10:52:11Z</time>
      </trkpt>
      <trkpt lat="42.432693" lon="-8.640192">
        <ele>39.421</ele>
        <time>2018-08-25T10:52:13Z</time>
      </trkpt>
      <trkpt lat="42.432709" lon="-8.640276">
        <ele>39.241</ele>
        <time>2018-08-25T10:52:15Z</time>
      </trkpt>
      <trkpt lat="42.432726" lon="-8.640353">
        <ele>38.905</ele>
        <time>2018-08-25T10:52:17Z</time>
      </trkpt>
      <trkpt lat="42.432746" lon="-8.640423">
        <ele>38.508</ele>
        <time>2018-08-25T10:52:19Z</time>
      </trkpt>
      <trkpt lat="42.432767" lon="-8.640493">
        <ele>37.884</ele>
        <time>2018-08-25T10:52:21Z</time>
      </trkpt>
      <trkpt lat="42.432788" lon="-8.640564">
        <ele>36.850</ele>
        <time>2018-08-25T10:52:23Z</time>
      </trkpt>
      <trkpt lat="42.432811" lon="-8.640636">
        <ele>35.455</ele>
        <time>2018-08-25T10:52:25Z</time>
      </trkpt>
      <trkpt lat="42.432836" lon="-8.640707">
        <ele>33.769</ele>
        <time>2018-08-25T10:52:27Z</time>
      </trkpt>
      <trkpt lat="42.432856" lon="-8.640779">
        <ele>32.076</ele>
        <time>2018-08-25T10:52:29Z</time>
      </trkpt>
      <trkpt lat="42.432869" lon="-8.640861">
        <ele>31.424</ele>
        <time>2018-08-25T10:52:31Z</time>
      </trkpt>
      <trkpt lat="42.432877" lon="-8.640950">
        <ele>31.942</ele>
        <time>2018-08-25T10:52:33Z</time>
      </trkpt>
      <trkpt lat="42.432884" lon="-8.641037">
        <ele>32.662</ele>
        <time>2018-08-25T10:52:35Z</time>
      </trkpt>
      <trkpt lat="42.432891" lon="-8.641124">
        <ele>33.626</ele>
        <time>2018-08-25T10:52:37Z</time>
      </trkpt>
      <trkpt lat="42.432899" lon="-8.641209">
        <ele>34.747</ele>
        <time>2018-08-25T10:52:39Z</time>
      </trkpt>
      <trkpt lat="42.432907" lon="-8.641290">
        <ele>35.311</ele>
        <time>2018-08-25T10:52:41Z</time>
      </trkpt>
      <trkpt lat="42.432914" lon="-8.641368">
        <ele>35.008</ele>
        <time>2018-08-25T10:52:43Z</time>
      </trkpt>
      <trkpt lat="42.432916" lon="-8.641442">
        <ele>34.944</ele>
        <time>2018-08-25T10:52:45Z</time>
      </trkpt>
      <trkpt lat="42.432917" lon="-8.641525">
        <ele>35.740</ele>
        <time>2018-08-25T10:52:48Z</time>
      </trkpt>
      <trkpt lat="42.432933" lon="-8.641586">
        <ele>37.185</ele>
        <time>2018-08-25T10:52:51Z</time>
      </trkpt>
      <trkpt lat="42.432961" lon="-8.641650">
        <ele>38.289</ele>
        <time>2018-08-25T10:52:54Z</time>
      </trkpt>
      <trkpt lat="42.432981" lon="-8.641723">
        <ele>38.836</ele>
        <time>2018-08-25T10:52:57Z</time>
      </trkpt>
      <trkpt lat="42.432992" lon="-8.641796">
        <ele>38.624</ele>
        <time>2018-08-25T10:53:00Z</time>
      </trkpt>
      <trkpt lat="42.433000" lon="-8.641870">
        <ele>38.572</ele>
        <time>2018-08-25T10:53:03Z</time>
      </trkpt>
      <trkpt lat="42.433007" lon="-8.641942">
        <ele>38.142</ele>
        <time>2018-08-25T10:53:06Z</time>
      </trkpt>
      <trkpt lat="42.433015" lon="-8.642009">
        <ele>37.593</ele>
        <time>2018-08-25T10:53:09Z</time>
      </trkpt>
      <trkpt lat="42.433011" lon="-8.642100">
        <ele>37.265</ele>
        <time>2018-08-25T10:53:12Z</time>
      </trkpt>
      <trkpt lat="42.433006" lon="-8.642169">
        <ele>36.921</ele>
        <time>2018-08-25T10:53:14Z</time>
      </trkpt>
      <trkpt lat="42.432996" lon="-8.642238">
        <ele>36.908</ele>
        <time>2018-08-25T10:53:16Z</time>
      </trkpt>
      <trkpt lat="42.432984" lon="-8.642308">
        <ele>37.191</ele>
        <time>2018-08-25T10:53:18Z</time>
      </trkpt>
      <trkpt lat="42.432977" lon="-8.642374">
        <ele>37.167</ele>
        <time>2018-08-25T10:53:20Z</time>
      </trkpt>
      <trkpt lat="42.432977" lon="-8.642445">
        <ele>36.832</ele>
        <time>2018-08-25T10:53:22Z</time>
      </trkpt>
      <trkpt lat="42.432975" lon="-8.642515">
        <ele>36.836</ele>
        <time>2018-08-25T10:53:24Z</time>
      </trkpt>
      <trkpt lat="42.432967" lon="-8.642585">
        <ele>35.763</ele>
        <time>2018-08-25T10:53:26Z</time>
      </trkpt>
      <trkpt lat="42.432981" lon="-8.642673">
        <ele>33.581</ele>
        <time>2018-08-25T10:53:29Z</time>
      </trkpt>
      <trkpt lat="42.432998" lon="-8.642759">
        <ele>31.769</ele>
        <time>2018-08-25T10:53:32Z</time>
      </trkpt>
      <trkpt lat="42.432987" lon="-8.642827">
        <ele>31.259</ele>
        <time>2018-08-25T10:53:34Z</time>
      </trkpt>
      <trkpt lat="42.432971" lon="-8.642892">
        <ele>30.922</ele>
        <time>2018-08-25T10:53:36Z</time>
      </trkpt>
      <trkpt lat="42.432972" lon="-8.642977">
        <ele>30.562</ele>
        <time>2018-08-25T10:53:39Z</time>
      </trkpt>
      <trkpt lat="42.432980" lon="-8.643065">
        <ele>29.308</ele>
        <time>2018-08-25T10:53:42Z</time>
      </trkpt>
      <trkpt lat="42.432989" lon="-8.643152">
        <ele>27.508</ele>
        <time>2018-08-25T10:53:45Z</time>
      </trkpt>
      <trkpt lat="42.433012" lon="-8.643230">
        <ele>25.284</ele>
        <time>2018-08-25T10:53:48Z</time>
      </trkpt>
      <trkpt lat="42.433032" lon="-8.643321">
        <ele>22.690</ele>
        <time>2018-08-25T10:53:51Z</time>
      </trkpt>
      <trkpt lat="42.433047" lon="-8.643484">
        <ele>20.365</ele>
        <time>2018-08-25T10:53:53Z</time>
      </trkpt>
      <trkpt lat="42.433055" lon="-8.643569">
        <ele>18.229</ele>
        <time>2018-08-25T10:53:56Z</time>
      </trkpt>
      <trkpt lat="42.433071" lon="-8.643662">
        <ele>16.796</ele>
        <time>2018-08-25T10:53:57Z</time>
      </trkpt>
      <trkpt lat="42.433097" lon="-8.643762">
        <ele>15.154</ele>
        <time>2018-08-25T10:53:59Z</time>
      </trkpt>
      <trkpt lat="42.433108" lon="-8.643882">
        <ele>14.082</ele>
        <time>2018-08-25T10:54:01Z</time>
      </trkpt>
      <trkpt lat="42.433121" lon="-8.643962">
        <ele>12.622</ele>
        <time>2018-08-25T10:54:04Z</time>
      </trkpt>
      <trkpt lat="42.433133" lon="-8.644042">
        <ele>11.048</ele>
        <time>2018-08-25T10:54:07Z</time>
      </trkpt>
      <trkpt lat="42.433142" lon="-8.644107">
        <ele>10.561</ele>
        <time>2018-08-25T10:54:09Z</time>
      </trkpt>
      <trkpt lat="42.433159" lon="-8.644183">
        <ele>10.817</ele>
        <time>2018-08-25T10:54:11Z</time>
      </trkpt>
      <trkpt lat="42.433195" lon="-8.644261">
        <ele>11.208</ele>
        <time>2018-08-25T10:54:13Z</time>
      </trkpt>
      <trkpt lat="42.433244" lon="-8.644336">
        <ele>11.866</ele>
        <time>2018-08-25T10:54:15Z</time>
      </trkpt>
      <trkpt lat="42.433295" lon="-8.644399">
        <ele>10.882</ele>
        <time>2018-08-25T10:54:17Z</time>
      </trkpt>
      <trkpt lat="42.433342" lon="-8.644448">
        <ele>8.917</ele>
        <time>2018-08-25T10:54:19Z</time>
      </trkpt>
      <trkpt lat="42.433375" lon="-8.644494">
        <ele>6.911</ele>
        <time>2018-08-25T10:54:21Z</time>
      </trkpt>
      <trkpt lat="42.433412" lon="-8.644566">
        <ele>3.958</ele>
        <time>2018-08-25T10:54:24Z</time>
      </trkpt>
      <trkpt lat="42.433440" lon="-8.644618">
        <ele>0.686</ele>
        <time>2018-08-25T10:54:26Z</time>
      </trkpt>
      <trkpt lat="42.433468" lon="-8.644668">
        <ele>-2.554</ele>
        <time>2018-08-25T10:54:28Z</time>
      </trkpt>
      <trkpt lat="42.433497" lon="-8.644739">
        <ele>-4.934</ele>
        <time>2018-08-25T10:54:31Z</time>
      </trkpt>
      <trkpt lat="42.433517" lon="-8.644806">
        <ele>-7.455</ele>
        <time>2018-08-25T10:54:34Z</time>
      </trkpt>
      <trkpt lat="42.433546" lon="-8.644860">
        <ele>-9.407</ele>
        <time>2018-08-25T10:54:37Z</time>
      </trkpt>
      <trkpt lat="42.433523" lon="-8.644935">
        <ele>-12.417</ele>
        <time>2018-08-25T10:54:45Z</time>
      </trkpt>
      <trkpt lat="42.433485" lon="-8.644983">
        <ele>-13.708</ele>
        <time>2018-08-25T10:54:48Z</time>
      </trkpt>
      <trkpt lat="42.433438" lon="-8.645013">
        <ele>-15.367</ele>
        <time>2018-08-25T10:54:51Z</time>
      </trkpt>
      <trkpt lat="42.433381" lon="-8.645026">
        <ele>-17.083</ele>
        <time>2018-08-25T10:54:54Z</time>
      </trkpt>
      <trkpt lat="42.433323" lon="-8.645019">
        <ele>-19.598</ele>
        <time>2018-08-25T10:54:58Z</time>
      </trkpt>
      <trkpt lat="42.433285" lon="-8.644960">
        <ele>-23.012</ele>
        <time>2018-08-25T10:55:01Z</time>
      </trkpt>
      <trkpt lat="42.433276" lon="-8.644900">
        <ele>-26.919</ele>
        <time>2018-08-25T10:55:03Z</time>
      </trkpt>
      <trkpt lat="42.433263" lon="-8.644841">
        <ele>-30.937</ele>
        <time>2018-08-25T10:55:05Z</time>
      </trkpt>
      <trkpt lat="42.433236" lon="-8.644775">
        <ele>-34.965</ele>
        <time>2018-08-25T10:55:08Z</time>
      </trkpt>
      <trkpt lat="42.433189" lon="-8.644733">
        <ele>-39.035</ele>
        <time>2018-08-25T10:55:11Z</time>
      </trkpt>
      <trkpt lat="42.433124" lon="-8.644721">
        <ele>-41.146</ele>
        <time>2018-08-25T10:55:14Z</time>
      </trkpt>
      <trkpt lat="42.433078" lon="-8.644720">
        <ele>-42.788</ele>
        <time>2018-08-25T10:55:16Z</time>
      </trkpt>
      <trkpt lat="42.433011" lon="-8.644731">
        <ele>-43.716</ele>
        <time>2018-08-25T10:55:19Z</time>
      </trkpt>
      <trkpt lat="42.432962" lon="-8.644734">
        <ele>-44.108</ele>
        <time>2018-08-25T10:55:21Z</time>
      </trkpt>
      <trkpt lat="42.432904" lon="-8.644755">
        <ele>-44.556</ele>
        <time>2018-08-25T10:55:23Z</time>
      </trkpt>
      <trkpt lat="42.432845" lon="-8.644781">
        <ele>-42.732</ele>
        <time>2018-08-25T10:55:25Z</time>
      </trkpt>
      <trkpt lat="42.432781" lon="-8.644782">
        <ele>-40.027</ele>
        <time>2018-08-25T10:55:27Z</time>
      </trkpt>
      <trkpt lat="42.432724" lon="-8.644789">
        <ele>-37.511</ele>
        <time>2018-08-25T10:55:29Z</time>
      </trkpt>
      <trkpt lat="42.432674" lon="-8.644795">
        <ele>-35.998</ele>
        <time>2018-08-25T10:55:31Z</time>
      </trkpt>
      <trkpt lat="42.432622" lon="-8.644796">
        <ele>-33.466</ele>
        <time>2018-08-25T10:55:33Z</time>
      </trkpt>
      <trkpt lat="42.432566" lon="-8.644794">
        <ele>-29.964</ele>
        <time>2018-08-25T10:55:35Z</time>
      </trkpt>
      <trkpt lat="42.432515" lon="-8.644793">
        <ele>-25.954</ele>
        <time>2018-08-25T10:55:37Z</time>
      </trkpt>
      <trkpt lat="42.432458" lon="-8.644790">
        <ele>-22.097</ele>
        <time>2018-08-25T10:55:39Z</time>
      </trkpt>
      <trkpt lat="42.432391" lon="-8.644792">
        <ele>-18.023</ele>
        <time>2018-08-25T10:55:41Z</time>
      </trkpt>
      <trkpt lat="42.432317" lon="-8.644801">
        <ele>-14.725</ele>
        <time>2018-08-25T10:55:43Z</time>
      </trkpt>
      <trkpt lat="42.432245" lon="-8.644802">
        <ele>-11.808</ele>
        <time>2018-08-25T10:55:45Z</time>
      </trkpt>
      <trkpt lat="42.432181" lon="-8.644798">
        <ele>-9.311</ele>
        <time>2018-08-25T10:55:47Z</time>
      </trkpt>
      <trkpt lat="42.432132" lon="-8.644795">
        <ele>-5.237</ele>
        <time>2018-08-25T10:55:48Z</time>
      </trkpt>
      <trkpt lat="42.432059" lon="-8.644797">
        <ele>-1.362</ele>
        <time>2018-08-25T10:55:50Z</time>
      </trkpt>
      <trkpt lat="42.431992" lon="-8.644796">
        <ele>2.836</ele>
        <time>2018-08-25T10:55:53Z</time>
      </trkpt>
      <trkpt lat="42.431943" lon="-8.644803">
        <ele>6.753</ele>
        <time>2018-08-25T10:55:57Z</time>
      </trkpt>
      <trkpt lat="42.431898" lon="-8.644819">
        <ele>9.891</ele>
        <time>2018-08-25T10:56:00Z</time>
      </trkpt>
      <trkpt lat="42.431850" lon="-8.644808">
        <ele>12.899</ele>
        <time>2018-08-25T10:56:03Z</time>
      </trkpt>
      <trkpt lat="42.431808" lon="-8.644787">
        <ele>15.389</ele>
        <time>2018-08-25T10:56:05Z</time>
      </trkpt>
      <trkpt lat="42.431755" lon="-8.644766">
        <ele>17.431</ele>
        <time>2018-08-25T10:56:07Z</time>
      </trkpt>
      <trkpt lat="42.431702" lon="-8.644739">
        <ele>19.261</ele>
        <time>2018-08-25T10:56:09Z</time>
      </trkpt>
      <trkpt lat="42.431654" lon="-8.644708">
        <ele>21.507</ele>
        <time>2018-08-25T10:56:12Z</time>
      </trkpt>
      <trkpt lat="42.431602" lon="-8.644685">
        <ele>23.708</ele>
        <time>2018-08-25T10:56:14Z</time>
      </trkpt>
      <trkpt lat="42.431554" lon="-8.644666">
        <ele>27.145</ele>
        <time>2018-08-25T10:56:39Z</time>
      </trkpt>
      <trkpt lat="42.431561" lon="-8.644728">
        <ele>28.741</ele>
        <time>2018-08-25T10:56:53Z</time>
      </trkpt>
      <trkpt lat="42.431585" lon="-8.644787">
        <ele>29.676</ele>
        <time>2018-08-25T10:56:58Z</time>
      </trkpt>
      <trkpt lat="42.431601" lon="-8.644848">
        <ele>30.210</ele>
        <time>2018-08-25T10:57:04Z</time>
      </trkpt>
      <trkpt lat="42.431595" lon="-8.644916">
        <ele>27.517</ele>
        <time>2018-08-25T10:57:06Z</time>
      </trkpt>
      <trkpt lat="42.431601" lon="-8.644980">
        <ele>24.965</ele>
        <time>2018-08-25T10:57:08Z</time>
      </trkpt>
      <trkpt lat="42.431619" lon="-8.645060">
        <ele>25.893</ele>
        <time>2018-08-25T10:57:11Z</time>
      </trkpt>
      <trkpt lat="42.431673" lon="-8.645121">
        <ele>26.183</ele>
        <time>2018-08-25T10:57:14Z</time>
      </trkpt>
      <trkpt lat="42.431733" lon="-8.645152">
        <ele>26.026</ele>
        <time>2018-08-25T10:57:16Z</time>
      </trkpt>
      <trkpt lat="42.431786" lon="-8.645172">
        <ele>25.947</ele>
        <time>2018-08-25T10:57:18Z</time>
      </trkpt>
      <trkpt lat="42.431852" lon="-8.645188">
        <ele>25.311</ele>
        <time>2018-08-25T10:57:21Z</time>
      </trkpt>
      <trkpt lat="42.431914" lon="-8.645201">
        <ele>24.608</ele>
        <time>2018-08-25T10:57:23Z</time>
      </trkpt>
      <trkpt lat="42.431965" lon="-8.645221">
        <ele>24.054</ele>
        <time>2018-08-25T10:57:25Z</time>
      </trkpt>
      <trkpt lat="42.432009" lon="-8.645255">
        <ele>23.060</ele>
        <time>2018-08-25T10:57:27Z</time>
      </trkpt>
      <trkpt lat="42.432051" lon="-8.645294">
        <ele>22.615</ele>
        <time>2018-08-25T10:57:29Z</time>
      </trkpt>
      <trkpt lat="42.432088" lon="-8.645332">
        <ele>21.789</ele>
        <time>2018-08-25T10:57:31Z</time>
      </trkpt>
      <trkpt lat="42.432127" lon="-8.645368">
        <ele>20.616</ele>
        <time>2018-08-25T10:57:33Z</time>
      </trkpt>
      <trkpt lat="42.432171" lon="-8.645401">
        <ele>19.584</ele>
        <time>2018-08-25T10:57:35Z</time>
      </trkpt>
      <trkpt lat="42.432213" lon="-8.645442">
        <ele>18.652</ele>
        <time>2018-08-25T10:57:37Z</time>
      </trkpt>
      <trkpt lat="42.432254" lon="-8.645471">
        <ele>17.962</ele>
        <time>2018-08-25T10:57:39Z</time>
      </trkpt>
      <trkpt lat="42.432311" lon="-8.645481">
        <ele>17.287</ele>
        <time>2018-08-25T10:57:42Z</time>
      </trkpt>
      <trkpt lat="42.432377" lon="-8.645493">
        <ele>17.342</ele>
        <time>2018-08-25T10:57:47Z</time>
      </trkpt>
      <trkpt lat="42.432389" lon="-8.645586">
        <ele>19.326</ele>
        <time>2018-08-25T10:57:51Z</time>
      </trkpt>
      <trkpt lat="42.432403" lon="-8.645656">
        <ele>21.208</ele>
        <time>2018-08-25T10:57:53Z</time>
      </trkpt>
      <trkpt lat="42.432412" lon="-8.645730">
        <ele>22.630</ele>
        <time>2018-08-25T10:57:55Z</time>
      </trkpt>
      <trkpt lat="42.432415" lon="-8.645799">
        <ele>23.766</ele>
        <time>2018-08-25T10:57:57Z</time>
      </trkpt>
      <trkpt lat="42.432419" lon="-8.645861">
        <ele>24.881</ele>
        <time>2018-08-25T10:57:59Z</time>
      </trkpt>
      <trkpt lat="42.432418" lon="-8.645946">
        <ele>25.715</ele>
        <time>2018-08-25T10:58:02Z</time>
      </trkpt>
      <trkpt lat="42.432430" lon="-8.646018">
        <ele>26.132</ele>
        <time>2018-08-25T10:58:05Z</time>
      </trkpt>
      <trkpt lat="42.432459" lon="-8.646084">
        <ele>25.650</ele>
        <time>2018-08-25T10:58:08Z</time>
      </trkpt>
      <trkpt lat="42.432471" lon="-8.646145">
        <ele>25.238</ele>
        <time>2018-08-25T10:58:10Z</time>
      </trkpt>
      <trkpt lat="42.432444" lon="-8.646234">
        <ele>28.358</ele>
        <time>2018-08-25T10:58:12Z</time>
      </trkpt>
      <trkpt lat="42.432408" lon="-8.646292">
        <ele>31.593</ele>
        <time>2018-08-25T10:58:14Z</time>
      </trkpt>
      <trkpt lat="42.432356" lon="-8.646334">
        <ele>34.465</ele>
        <time>2018-08-25T10:58:16Z</time>
      </trkpt>
      <trkpt lat="42.432296" lon="-8.646368">
        <ele>36.221</ele>
        <time>2018-08-25T10:58:18Z</time>
      </trkpt>
      <trkpt lat="42.432246" lon="-8.646388">
        <ele>38.608</ele>
        <time>2018-08-25T10:58:20Z</time>
      </trkpt>
      <trkpt lat="42.432194" lon="-8.646415">
        <ele>39.981</ele>
        <time>2018-08-25T10:58:23Z</time>
      </trkpt>
      <trkpt lat="42.432143" lon="-8.646464">
        <ele>40.857</ele>
        <time>2018-08-25T10:58:28Z</time>
      </trkpt>
      <trkpt lat="42.432087" lon="-8.646518">
        <ele>42.262</ele>
        <time>2018-08-25T10:58:31Z</time>
      </trkpt>
      <trkpt lat="42.432050" lon="-8.646554">
        <ele>43.346</ele>
        <time>2018-08-25T10:58:33Z</time>
      </trkpt>
      <trkpt lat="42.432012" lon="-8.646603">
        <ele>43.993</ele>
        <time>2018-08-25T10:58:36Z</time>
      </trkpt>
      <trkpt lat="42.431971" lon="-8.646666">
        <ele>43.911</ele>
        <time>2018-08-25T10:58:40Z</time>
      </trkpt>
      <trkpt lat="42.431937" lon="-8.646716">
        <ele>45.179</ele>
        <time>2018-08-25T10:58:48Z</time>
      </trkpt>
      <trkpt lat="42.431894" lon="-8.646756">
        <ele>47.079</ele>
        <time>2018-08-25T10:58:51Z</time>
      </trkpt>
      <trkpt lat="42.431865" lon="-8.646809">
        <ele>47.976</ele>
        <time>2018-08-25T10:59:00Z</time>
      </trkpt>
      <trkpt lat="42.431821" lon="-8.646828">
        <ele>47.290</ele>
        <time>2018-08-25T10:59:05Z</time>
      </trkpt>
      <trkpt lat="42.431793" lon="-8.646893">
        <ele>47.419</ele>
        <time>2018-08-25T10:59:10Z</time>
      </trkpt>
      <trkpt lat="42.431749" lon="-8.646938">
        <ele>48.008</ele>
        <time>2018-08-25T10:59:13Z</time>
      </trkpt>
      <trkpt lat="42.431685" lon="-8.646947">
        <ele>48.569</ele>
        <time>2018-08-25T10:59:17Z</time>
      </trkpt>
      <trkpt lat="42.431633" lon="-8.646929">
        <ele>49.145</ele>
        <time>2018-08-25T10:59:20Z</time>
      </trkpt>
      <trkpt lat="42.431571" lon="-8.646936">
        <ele>50.880</ele>
        <time>2018-08-25T10:59:24Z</time>
      </trkpt>
      <trkpt lat="42.431536" lon="-8.646997">
        <ele>53.034</ele>
        <time>2018-08-25T10:59:30Z</time>
      </trkpt>
      <trkpt lat="42.431514" lon="-8.646924">
        <ele>56.051</ele>
        <time>2018-08-25T10:59:37Z</time>
      </trkpt>
      <trkpt lat="42.431526" lon="-8.646864">
        <ele>58.129</ele>
        <time>2018-08-25T10:59:42Z</time>
      </trkpt>
      <trkpt lat="42.431540" lon="-8.646936">
        <ele>61.087</ele>
        <time>2018-08-25T11:13:21Z</time>
      </trkpt>
      <trkpt lat="42.431512" lon="-8.647005">
        <ele>62.317</ele>
        <time>2018-08-25T11:13:24Z</time>
      </trkpt>
      <trkpt lat="42.431491" lon="-8.647088">
        <ele>62.991</ele>
        <time>2018-08-25T11:13:27Z</time>
      </trkpt>
      <trkpt lat="42.431470" lon="-8.647172">
        <ele>63.781</ele>
        <time>2018-08-25T11:13:30Z</time>
      </trkpt>
      <trkpt lat="42.431433" lon="-8.647246">
        <ele>64.519</ele>
        <time>2018-08-25T11:13:33Z</time>
      </trkpt>
      <trkpt lat="42.431414" lon="-8.647302">
        <ele>65.108</ele>
        <time>2018-08-25T11:13:35Z</time>
      </trkpt>
      <trkpt lat="42.431390" lon="-8.647376">
        <ele>65.461</ele>
        <time>2018-08-25T11:13:38Z</time>
      </trkpt>
      <trkpt lat="42.431348" lon="-8.647439">
        <ele>66.127</ele>
        <time>2018-08-25T11:13:41Z</time>
      </trkpt>
      <trkpt lat="42.431308" lon="-8.647486">
        <ele>66.242</ele>
        <time>2018-08-25T11:13:43Z</time>
      </trkpt>
      <trkpt lat="42.431266" lon="-8.647547">
        <ele>66.126</ele>
        <time>2018-08-25T11:13:45Z</time>
      </trkpt>
      <trkpt lat="42.431230" lon="-8.647608">
        <ele>66.033</ele>
        <time>2018-08-25T11:13:47Z</time>
      </trkpt>
      <trkpt lat="42.431198" lon="-8.647663">
        <ele>66.011</ele>
        <time>2018-08-25T11:13:49Z</time>
      </trkpt>
      <trkpt lat="42.431172" lon="-8.647718">
        <ele>66.769</ele>
        <time>2018-08-25T11:13:51Z</time>
      </trkpt>
      <trkpt lat="42.431140" lon="-8.647765">
        <ele>67.299</ele>
        <time>2018-08-25T11:13:53Z</time>
      </trkpt>
      <trkpt lat="42.431105" lon="-8.647818">
        <ele>67.616</ele>
        <time>2018-08-25T11:13:55Z</time>
      </trkpt>
      <trkpt lat="42.431067" lon="-8.647880">
        <ele>68.076</ele>
        <time>2018-08-25T11:13:57Z</time>
      </trkpt>
      <trkpt lat="42.431026" lon="-8.647938">
        <ele>68.213</ele>
        <time>2018-08-25T11:13:59Z</time>
      </trkpt>
      <trkpt lat="42.430987" lon="-8.647992">
        <ele>68.308</ele>
        <time>2018-08-25T11:14:01Z</time>
      </trkpt>
      <trkpt lat="42.430951" lon="-8.648041">
        <ele>68.583</ele>
        <time>2018-08-25T11:14:03Z</time>
      </trkpt>
      <trkpt lat="42.430920" lon="-8.648089">
        <ele>68.589</ele>
        <time>2018-08-25T11:14:05Z</time>
      </trkpt>
      <trkpt lat="42.430892" lon="-8.648139">
        <ele>68.544</ele>
        <time>2018-08-25T11:14:07Z</time>
      </trkpt>
      <trkpt lat="42.430855" lon="-8.648213">
        <ele>68.518</ele>
        <time>2018-08-25T11:14:10Z</time>
      </trkpt>
      <trkpt lat="42.430805" lon="-8.648273">
        <ele>68.735</ele>
        <time>2018-08-25T11:14:13Z</time>
      </trkpt>
      <trkpt lat="42.430771" lon="-8.648316">
        <ele>69.263</ele>
        <time>2018-08-25T11:14:15Z</time>
      </trkpt>
      <trkpt lat="42.430741" lon="-8.648362">
        <ele>69.961</ele>
        <time>2018-08-25T11:14:17Z</time>
      </trkpt>
      <trkpt lat="42.430706" lon="-8.648412">
        <ele>70.361</ele>
        <time>2018-08-25T11:14:19Z</time>
      </trkpt>
      <trkpt lat="42.430665" lon="-8.648470">
        <ele>70.475</ele>
        <time>2018-08-25T11:14:21Z</time>
      </trkpt>
      <trkpt lat="42.430626" lon="-8.648528">
        <ele>70.428</ele>
        <time>2018-08-25T11:14:23Z</time>
      </trkpt>
      <trkpt lat="42.430588" lon="-8.648588">
        <ele>70.420</ele>
        <time>2018-08-25T11:14:25Z</time>
      </trkpt>
      <trkpt lat="42.430543" lon="-8.648643">
        <ele>70.408</ele>
        <time>2018-08-25T11:14:27Z</time>
      </trkpt>
      <trkpt lat="42.430498" lon="-8.648696">
        <ele>70.059</ele>
        <time>2018-08-25T11:14:29Z</time>
      </trkpt>
      <trkpt lat="42.430452" lon="-8.648743">
        <ele>69.615</ele>
        <time>2018-08-25T11:14:31Z</time>
      </trkpt>
      <trkpt lat="42.430407" lon="-8.648784">
        <ele>69.310</ele>
        <time>2018-08-25T11:14:33Z</time>
      </trkpt>
      <trkpt lat="42.430377" lon="-8.648833">
        <ele>69.394</ele>
        <time>2018-08-25T11:14:35Z</time>
      </trkpt>
      <trkpt lat="42.430346" lon="-8.648913">
        <ele>69.221</ele>
        <time>2018-08-25T11:14:38Z</time>
      </trkpt>
      <trkpt lat="42.430305" lon="-8.648951">
        <ele>68.889</ele>
        <time>2018-08-25T11:14:40Z</time>
      </trkpt>
      <trkpt lat="42.430251" lon="-8.648962">
        <ele>68.247</ele>
        <time>2018-08-25T11:14:42Z</time>
      </trkpt>
      <trkpt lat="42.430204" lon="-8.648935">
        <ele>67.537</ele>
        <time>2018-08-25T11:14:44Z</time>
      </trkpt>
      <trkpt lat="42.430177" lon="-8.648880">
        <ele>66.566</ele>
        <time>2018-08-25T11:14:47Z</time>
      </trkpt>
      <trkpt lat="42.430214" lon="-8.648822">
        <ele>65.529</ele>
        <time>2018-08-25T11:14:52Z</time>
      </trkpt>
      <trkpt lat="42.430266" lon="-8.648759">
        <ele>64.821</ele>
        <time>2018-08-25T11:14:55Z</time>
      </trkpt>
      <trkpt lat="42.430308" lon="-8.648705">
        <ele>64.708</ele>
        <time>2018-08-25T11:14:57Z</time>
      </trkpt>
      <trkpt lat="42.430350" lon="-8.648647">
        <ele>64.648</ele>
        <time>2018-08-25T11:14:59Z</time>
      </trkpt>
      <trkpt lat="42.430391" lon="-8.648592">
        <ele>64.384</ele>
        <time>2018-08-25T11:15:01Z</time>
      </trkpt>
      <trkpt lat="42.430438" lon="-8.648547">
        <ele>63.959</ele>
        <time>2018-08-25T11:15:03Z</time>
      </trkpt>
      <trkpt lat="42.430485" lon="-8.648501">
        <ele>63.613</ele>
        <time>2018-08-25T11:15:05Z</time>
      </trkpt>
      <trkpt lat="42.430525" lon="-8.648455">
        <ele>63.140</ele>
        <time>2018-08-25T11:15:07Z</time>
      </trkpt>
      <trkpt lat="42.430567" lon="-8.648407">
        <ele>62.818</ele>
        <time>2018-08-25T11:15:09Z</time>
      </trkpt>
      <trkpt lat="42.430607" lon="-8.648362">
        <ele>62.886</ele>
        <time>2018-08-25T11:15:11Z</time>
      </trkpt>
      <trkpt lat="42.430639" lon="-8.648317">
        <ele>62.736</ele>
        <time>2018-08-25T11:15:13Z</time>
      </trkpt>
      <trkpt lat="42.430671" lon="-8.648269">
        <ele>62.578</ele>
        <time>2018-08-25T11:15:15Z</time>
      </trkpt>
      <trkpt lat="42.430701" lon="-8.648213">
        <ele>61.633</ele>
        <time>2018-08-25T11:15:17Z</time>
      </trkpt>
      <trkpt lat="42.430731" lon="-8.648159">
        <ele>60.826</ele>
        <time>2018-08-25T11:15:19Z</time>
      </trkpt>
      <trkpt lat="42.430768" lon="-8.648111">
        <ele>60.308</ele>
        <time>2018-08-25T11:15:21Z</time>
      </trkpt>
      <trkpt lat="42.430810" lon="-8.648066">
        <ele>60.149</ele>
        <time>2018-08-25T11:15:23Z</time>
      </trkpt>
      <trkpt lat="42.430851" lon="-8.648012">
        <ele>60.185</ele>
        <time>2018-08-25T11:15:25Z</time>
      </trkpt>
      <trkpt lat="42.430890" lon="-8.647954">
        <ele>60.130</ele>
        <time>2018-08-25T11:15:27Z</time>
      </trkpt>
      <trkpt lat="42.430930" lon="-8.647897">
        <ele>60.184</ele>
        <time>2018-08-25T11:15:29Z</time>
      </trkpt>
      <trkpt lat="42.430964" lon="-8.647834">
        <ele>60.311</ele>
        <time>2018-08-25T11:15:31Z</time>
      </trkpt>
      <trkpt lat="42.430998" lon="-8.647768">
        <ele>60.679</ele>
        <time>2018-08-25T11:15:33Z</time>
      </trkpt>
      <trkpt lat="42.431031" lon="-8.647704">
        <ele>60.777</ele>
        <time>2018-08-25T11:15:35Z</time>
      </trkpt>
      <trkpt lat="42.431062" lon="-8.647639">
        <ele>60.897</ele>
        <time>2018-08-25T11:15:37Z</time>
      </trkpt>
      <trkpt lat="42.431091" lon="-8.647574">
        <ele>61.235</ele>
        <time>2018-08-25T11:15:39Z</time>
      </trkpt>
      <trkpt lat="42.431125" lon="-8.647514">
        <ele>61.586</ele>
        <time>2018-08-25T11:15:41Z</time>
      </trkpt>
      <trkpt lat="42.431160" lon="-8.647455">
        <ele>61.414</ele>
        <time>2018-08-25T11:15:43Z</time>
      </trkpt>
      <trkpt lat="42.431192" lon="-8.647396">
        <ele>61.208</ele>
        <time>2018-08-25T11:15:45Z</time>
      </trkpt>
      <trkpt lat="42.431225" lon="-8.647340">
        <ele>60.675</ele>
        <time>2018-08-25T11:15:47Z</time>
      </trkpt>
      <trkpt lat="42.431272" lon="-8.647277">
        <ele>58.731</ele>
        <time>2018-08-25T11:15:50Z</time>
      </trkpt>
      <trkpt lat="42.431326" lon="-8.647224">
        <ele>57.846</ele>
        <time>2018-08-25T11:15:53Z</time>
      </trkpt>
      <trkpt lat="42.431376" lon="-8.647170">
        <ele>57.570</ele>
        <time>2018-08-25T11:15:56Z</time>
      </trkpt>
      <trkpt lat="42.431411" lon="-8.647124">
        <ele>57.687</ele>
        <time>2018-08-25T11:15:58Z</time>
      </trkpt>
      <trkpt lat="42.431433" lon="-8.647064">
        <ele>57.865</ele>
        <time>2018-08-25T11:16:00Z</time>
      </trkpt>
      <trkpt lat="42.431420" lon="-8.646980">
        <ele>57.833</ele>
        <time>2018-08-25T11:16:03Z</time>
      </trkpt>
      <trkpt lat="42.431398" lon="-8.646914">
        <ele>57.533</ele>
        <time>2018-08-25T11:16:05Z</time>
      </trkpt>
      <trkpt lat="42.431373" lon="-8.646861">
        <ele>57.698</ele>
        <time>2018-08-25T11:16:07Z</time>
      </trkpt>
      <trkpt lat="42.431331" lon="-8.646815">
        <ele>57.315</ele>
        <time>2018-08-25T11:16:10Z</time>
      </trkpt>
      <trkpt lat="42.431271" lon="-8.646780">
        <ele>56.426</ele>
        <time>2018-08-25T11:16:13Z</time>
      </trkpt>
      <trkpt lat="42.431227" lon="-8.646767">
        <ele>55.408</ele>
        <time>2018-08-25T11:16:15Z</time>
      </trkpt>
      <trkpt lat="42.431166" lon="-8.646768">
        <ele>54.011</ele>
        <time>2018-08-25T11:16:18Z</time>
      </trkpt>
      <trkpt lat="42.431130" lon="-8.646725">
        <ele>52.227</ele>
        <time>2018-08-25T11:16:22Z</time>
      </trkpt>
      <trkpt lat="42.431166" lon="-8.646673">
        <ele>51.152</ele>
        <time>2018-08-25T11:16:28Z</time>
      </trkpt>
      <trkpt lat="42.431214" lon="-8.646636">
        <ele>50.296</ele>
        <time>2018-08-25T11:16:31Z</time>
      </trkpt>
      <trkpt lat="42.431253" lon="-8.646599">
        <ele>49.463</ele>
        <time>2018-08-25T11:16:33Z</time>
      </trkpt>
      <trkpt lat="42.431302" lon="-8.646571">
        <ele>48.461</ele>
        <time>2018-08-25T11:16:35Z</time>
      </trkpt>
      <trkpt lat="42.431358" lon="-8.646534">
        <ele>47.349</ele>
        <time>2018-08-25T11:16:37Z</time>
      </trkpt>
      <trkpt lat="42.431391" lon="-8.646479">
        <ele>46.519</ele>
        <time>2018-08-25T11:16:39Z</time>
      </trkpt>
      <trkpt lat="42.431425" lon="-8.646407">
        <ele>45.429</ele>
        <time>2018-08-25T11:16:41Z</time>
      </trkpt>
      <trkpt lat="42.431464" lon="-8.646355">
        <ele>44.400</ele>
        <time>2018-08-25T11:16:43Z</time>
      </trkpt>
      <trkpt lat="42.431526" lon="-8.646338">
        <ele>43.420</ele>
        <time>2018-08-25T11:16:46Z</time>
      </trkpt>
      <trkpt lat="42.431586" lon="-8.646370">
        <ele>44.008</ele>
        <time>2018-08-25T11:16:49Z</time>
      </trkpt>
      <trkpt lat="42.431630" lon="-8.646431">
        <ele>45.074</ele>
        <time>2018-08-25T11:16:52Z</time>
      </trkpt>
      <trkpt lat="42.431660" lon="-8.646489">
        <ele>45.810</ele>
        <time>2018-08-25T11:16:54Z</time>
      </trkpt>
      <trkpt lat="42.431688" lon="-8.646541">
        <ele>46.795</ele>
        <time>2018-08-25T11:16:56Z</time>
      </trkpt>
      <trkpt lat="42.431719" lon="-8.646598">
        <ele>48.379</ele>
        <time>2018-08-25T11:16:58Z</time>
      </trkpt>
      <trkpt lat="42.431743" lon="-8.646652">
        <ele>50.446</ele>
        <time>2018-08-25T11:17:00Z</time>
      </trkpt>
      <trkpt lat="42.431775" lon="-8.646704">
        <ele>52.694</ele>
        <time>2018-08-25T11:17:03Z</time>
      </trkpt>
      <trkpt lat="42.431824" lon="-8.646710">
        <ele>54.922</ele>
        <time>2018-08-25T11:17:07Z</time>
      </trkpt>
      <trkpt lat="42.431870" lon="-8.646663">
        <ele>56.492</ele>
        <time>2018-08-25T11:17:10Z</time>
      </trkpt>
      <trkpt lat="42.431908" lon="-8.646617">
        <ele>56.854</ele>
        <time>2018-08-25T11:17:12Z</time>
      </trkpt>
      <trkpt lat="42.431952" lon="-8.646570">
        <ele>56.956</ele>
        <time>2018-08-25T11:17:14Z</time>
      </trkpt>
      <trkpt lat="42.431990" lon="-8.646536">
        <ele>56.511</ele>
        <time>2018-08-25T11:17:16Z</time>
      </trkpt>
      <trkpt lat="42.432036" lon="-8.646494">
        <ele>54.708</ele>
        <time>2018-08-25T11:17:20Z</time>
      </trkpt>
      <trkpt lat="42.432095" lon="-8.646449">
        <ele>50.887</ele>
        <time>2018-08-25T11:17:23Z</time>
      </trkpt>
      <trkpt lat="42.432150" lon="-8.646429">
        <ele>46.933</ele>
        <time>2018-08-25T11:17:25Z</time>
      </trkpt>
      <trkpt lat="42.432199" lon="-8.646433">
        <ele>43.858</ele>
        <time>2018-08-25T11:17:27Z</time>
      </trkpt>
      <trkpt lat="42.432245" lon="-8.646449">
        <ele>40.582</ele>
        <time>2018-08-25T11:17:30Z</time>
      </trkpt>
      <trkpt lat="42.432302" lon="-8.646467">
        <ele>37.419</ele>
        <time>2018-08-25T11:17:33Z</time>
      </trkpt>
      <trkpt lat="42.432349" lon="-8.646483">
        <ele>34.927</ele>
        <time>2018-08-25T11:17:35Z</time>
      </trkpt>
      <trkpt lat="42.432409" lon="-8.646479">
        <ele>32.815</ele>
        <time>2018-08-25T11:17:37Z</time>
      </trkpt>
      <trkpt lat="42.432479" lon="-8.646472">
        <ele>30.185</ele>
        <time>2018-08-25T11:17:39Z</time>
      </trkpt>
      <trkpt lat="42.432545" lon="-8.646466">
        <ele>28.378</ele>
        <time>2018-08-25T11:17:41Z</time>
      </trkpt>
      <trkpt lat="42.432605" lon="-8.646442">
        <ele>27.033</ele>
        <time>2018-08-25T11:17:43Z</time>
      </trkpt>
      <trkpt lat="42.432721" lon="-8.646389">
        <ele>26.026</ele>
        <time>2018-08-25T11:17:44Z</time>
      </trkpt>
      <trkpt lat="42.432797" lon="-8.646350">
        <ele>24.808</ele>
        <time>2018-08-25T11:17:46Z</time>
      </trkpt>
      <trkpt lat="42.432878" lon="-8.646303">
        <ele>23.449</ele>
        <time>2018-08-25T11:17:48Z</time>
      </trkpt>
      <trkpt lat="42.432938" lon="-8.646273">
        <ele>22.245</ele>
        <time>2018-08-25T11:17:50Z</time>
      </trkpt>
      <trkpt lat="42.432994" lon="-8.646242">
        <ele>21.320</ele>
        <time>2018-08-25T11:17:51Z</time>
      </trkpt>
      <trkpt lat="42.433038" lon="-8.646219">
        <ele>20.534</ele>
        <time>2018-08-25T11:17:52Z</time>
      </trkpt>
      <trkpt lat="42.433082" lon="-8.646196">
        <ele>19.611</ele>
        <time>2018-08-25T11:17:53Z</time>
      </trkpt>
      <trkpt lat="42.433124" lon="-8.646175">
        <ele>18.829</ele>
        <time>2018-08-25T11:17:54Z</time>
      </trkpt>
      <trkpt lat="42.433206" lon="-8.646148">
        <ele>17.927</ele>
        <time>2018-08-25T11:17:56Z</time>
      </trkpt>
      <trkpt lat="42.433256" lon="-8.646148">
        <ele>16.727</ele>
        <time>2018-08-25T11:17:58Z</time>
      </trkpt>
      <trkpt lat="42.433317" lon="-8.646141">
        <ele>14.731</ele>
        <time>2018-08-25T11:18:00Z</time>
      </trkpt>
      <trkpt lat="42.433393" lon="-8.646129">
        <ele>15.961</ele>
        <time>2018-08-25T11:18:02Z</time>
      </trkpt>
      <trkpt lat="42.433455" lon="-8.646120">
        <ele>16.407</ele>
        <time>2018-08-25T11:18:04Z</time>
      </trkpt>
      <trkpt lat="42.433508" lon="-8.646126">
        <ele>16.908</ele>
        <time>2018-08-25T11:18:06Z</time>
      </trkpt>
      <trkpt lat="42.433556" lon="-8.646127">
        <ele>16.745</ele>
        <time>2018-08-25T11:18:08Z</time>
      </trkpt>
      <trkpt lat="42.433602" lon="-8.646117">
        <ele>16.271</ele>
        <time>2018-08-25T11:18:10Z</time>
      </trkpt>
      <trkpt lat="42.433652" lon="-8.646094">
        <ele>15.466</ele>
        <time>2018-08-25T11:18:12Z</time>
      </trkpt>
      <trkpt lat="42.433706" lon="-8.646056">
        <ele>15.160</ele>
        <time>2018-08-25T11:18:14Z</time>
      </trkpt>
      <trkpt lat="42.433766" lon="-8.646005">
        <ele>14.977</ele>
        <time>2018-08-25T11:18:16Z</time>
      </trkpt>
      <trkpt lat="42.433825" lon="-8.645951">
        <ele>16.315</ele>
        <time>2018-08-25T11:18:18Z</time>
      </trkpt>
      <trkpt lat="42.433906" lon="-8.645851">
        <ele>17.283</ele>
        <time>2018-08-25T11:18:19Z</time>
      </trkpt>
      <trkpt lat="42.433952" lon="-8.645787">
        <ele>18.513</ele>
        <time>2018-08-25T11:18:21Z</time>
      </trkpt>
      <trkpt lat="42.433987" lon="-8.645717">
        <ele>18.653</ele>
        <time>2018-08-25T11:18:23Z</time>
      </trkpt>
      <trkpt lat="42.434012" lon="-8.645655">
        <ele>18.604</ele>
        <time>2018-08-25T11:18:25Z</time>
      </trkpt>
      <trkpt lat="42.434021" lon="-8.645572">
        <ele>17.914</ele>
        <time>2018-08-25T11:18:28Z</time>
      </trkpt>
      <trkpt lat="42.434037" lon="-8.645509">
        <ele>16.208</ele>
        <time>2018-08-25T11:18:30Z</time>
      </trkpt>
      <trkpt lat="42.434087" lon="-8.645334">
        <ele>14.517</ele>
        <time>2018-08-25T11:18:32Z</time>
      </trkpt>
      <trkpt lat="42.434115" lon="-8.645219">
        <ele>13.263</ele>
        <time>2018-08-25T11:18:34Z</time>
      </trkpt>
      <trkpt lat="42.434149" lon="-8.645111">
        <ele>12.048</ele>
        <time>2018-08-25T11:18:36Z</time>
      </trkpt>
      <trkpt lat="42.434189" lon="-8.645052">
        <ele>11.862</ele>
        <time>2018-08-25T11:18:39Z</time>
      </trkpt>
      <trkpt lat="42.434202" lon="-8.644966">
        <ele>12.079</ele>
        <time>2018-08-25T11:18:40Z</time>
      </trkpt>
      <trkpt lat="42.434210" lon="-8.644869">
        <ele>14.337</ele>
        <time>2018-08-25T11:18:43Z</time>
      </trkpt>
      <trkpt lat="42.434235" lon="-8.644792">
        <ele>16.565</ele>
        <time>2018-08-25T11:18:45Z</time>
      </trkpt>
      <trkpt lat="42.434277" lon="-8.644729">
        <ele>18.155</ele>
        <time>2018-08-25T11:18:47Z</time>
      </trkpt>
      <trkpt lat="42.434326" lon="-8.644664">
        <ele>19.648</ele>
        <time>2018-08-25T11:18:49Z</time>
      </trkpt>
      <trkpt lat="42.434371" lon="-8.644600">
        <ele>20.861</ele>
        <time>2018-08-25T11:18:51Z</time>
      </trkpt>
      <trkpt lat="42.434419" lon="-8.644544">
        <ele>22.317</ele>
        <time>2018-08-25T11:18:53Z</time>
      </trkpt>
      <trkpt lat="42.434464" lon="-8.644492">
        <ele>24.208</ele>
        <time>2018-08-25T11:18:55Z</time>
      </trkpt>
      <trkpt lat="42.434507" lon="-8.644441">
        <ele>26.246</ele>
        <time>2018-08-25T11:18:57Z</time>
      </trkpt>
      <trkpt lat="42.434552" lon="-8.644376">
        <ele>27.692</ele>
        <time>2018-08-25T11:18:59Z</time>
      </trkpt>
      <trkpt lat="42.434595" lon="-8.644303">
        <ele>29.427</ele>
        <time>2018-08-25T11:19:01Z</time>
      </trkpt>
      <trkpt lat="42.434634" lon="-8.644242">
        <ele>31.121</ele>
        <time>2018-08-25T11:19:03Z</time>
      </trkpt>
      <trkpt lat="42.434682" lon="-8.644208">
        <ele>32.738</ele>
        <time>2018-08-25T11:19:06Z</time>
      </trkpt>
      <trkpt lat="42.434710" lon="-8.644260">
        <ele>35.176</ele>
        <time>2018-08-25T11:20:56Z</time>
      </trkpt>
      <trkpt lat="42.434739" lon="-8.644321">
        <ele>36.934</ele>
        <time>2018-08-25T11:21:00Z</time>
      </trkpt>
      <trkpt lat="42.434777" lon="-8.644388">
        <ele>37.954</ele>
        <time>2018-08-25T11:21:03Z</time>
      </trkpt>
      <trkpt lat="42.434839" lon="-8.644422">
        <ele>39.621</ele>
        <time>2018-08-25T11:21:06Z</time>
      </trkpt>
      <trkpt lat="42.434902" lon="-8.644414">
        <ele>41.341</ele>
        <time>2018-08-25T11:21:09Z</time>
      </trkpt>
      <trkpt lat="42.434945" lon="-8.644388">
        <ele>42.905</ele>
        <time>2018-08-25T11:21:12Z</time>
      </trkpt>
      <trkpt lat="42.434991" lon="-8.644372">
        <ele>44.408</ele>
        <time>2018-08-25T11:21:16Z</time>
      </trkpt>
      <trkpt lat="42.435049" lon="-8.644427">
        <ele>46.384</ele>
        <time>2018-08-25T11:21:31Z</time>
      </trkpt>
      <trkpt lat="42.435100" lon="-8.644442">
        <ele>48.050</ele>
        <time>2018-08-25T11:21:38Z</time>
      </trkpt>
      <trkpt lat="42.435152" lon="-8.644434">
        <ele>49.665</ele>
        <time>2018-08-25T11:21:41Z</time>
      </trkpt>
      <trkpt lat="42.435216" lon="-8.644399">
        <ele>50.819</ele>
        <time>2018-08-25T11:21:44Z</time>
      </trkpt>
      <trkpt lat="42.435257" lon="-8.644369">
        <ele>51.726</ele>
        <time>2018-08-25T11:21:46Z</time>
      </trkpt>
      <trkpt lat="42.435304" lon="-8.644319">
        <ele>52.554</ele>
        <time>2018-08-25T11:21:49Z</time>
      </trkpt>
      <trkpt lat="42.435353" lon="-8.644271">
        <ele>53.162</ele>
        <time>2018-08-25T11:21:52Z</time>
      </trkpt>
      <trkpt lat="42.435393" lon="-8.644235">
        <ele>53.452</ele>
        <time>2018-08-25T11:21:54Z</time>
      </trkpt>
      <trkpt lat="42.435436" lon="-8.644188">
        <ele>53.764</ele>
        <time>2018-08-25T11:21:56Z</time>
      </trkpt>
      <trkpt lat="42.435476" lon="-8.644146">
        <ele>53.806</ele>
        <time>2018-08-25T11:21:58Z</time>
      </trkpt>
      <trkpt lat="42.435518" lon="-8.644106">
        <ele>54.016</ele>
        <time>2018-08-25T11:22:00Z</time>
      </trkpt>
      <trkpt lat="42.435569" lon="-8.644060">
        <ele>54.408</ele>
        <time>2018-08-25T11:22:02Z</time>
      </trkpt>
      <trkpt lat="42.435628" lon="-8.644006">
        <ele>54.738</ele>
        <time>2018-08-25T11:22:04Z</time>
      </trkpt>
      <trkpt lat="42.435682" lon="-8.643949">
        <ele>54.814</ele>
        <time>2018-08-25T11:22:06Z</time>
      </trkpt>
      <trkpt lat="42.435731" lon="-8.643896">
        <ele>54.949</ele>
        <time>2018-08-25T11:22:08Z</time>
      </trkpt>
      <trkpt lat="42.435781" lon="-8.643846">
        <ele>55.263</ele>
        <time>2018-08-25T11:22:10Z</time>
      </trkpt>
      <trkpt lat="42.435824" lon="-8.643806">
        <ele>55.440</ele>
        <time>2018-08-25T11:22:12Z</time>
      </trkpt>
      <trkpt lat="42.435864" lon="-8.643765">
        <ele>55.698</ele>
        <time>2018-08-25T11:22:14Z</time>
      </trkpt>
      <trkpt lat="42.435905" lon="-8.643729">
        <ele>55.936</ele>
        <time>2018-08-25T11:22:16Z</time>
      </trkpt>
      <trkpt lat="42.435944" lon="-8.643691">
        <ele>56.376</ele>
        <time>2018-08-25T11:22:18Z</time>
      </trkpt>
      <trkpt lat="42.435983" lon="-8.643659">
        <ele>56.629</ele>
        <time>2018-08-25T11:22:20Z</time>
      </trkpt>
      <trkpt lat="42.436026" lon="-8.643625">
        <ele>56.800</ele>
        <time>2018-08-25T11:22:22Z</time>
      </trkpt>
      <trkpt lat="42.436072" lon="-8.643587">
        <ele>57.620</ele>
        <time>2018-08-25T11:22:24Z</time>
      </trkpt>
      <trkpt lat="42.436118" lon="-8.643551">
        <ele>58.108</ele>
        <time>2018-08-25T11:22:26Z</time>
      </trkpt>
      <trkpt lat="42.436166" lon="-8.643517">
        <ele>58.574</ele>
        <time>2018-08-25T11:22:28Z</time>
      </trkpt>
      <trkpt lat="42.436217" lon="-8.643487">
        <ele>58.890</ele>
        <time>2018-08-25T11:22:30Z</time>
      </trkpt>
      <trkpt lat="42.436268" lon="-8.643459">
        <ele>58.915</ele>
        <time>2018-08-25T11:22:32Z</time>
      </trkpt>
      <trkpt lat="42.436319" lon="-8.643439">
        <ele>58.969</ele>
        <time>2018-08-25T11:22:34Z</time>
      </trkpt>
      <trkpt lat="42.436365" lon="-8.643426">
        <ele>58.816</ele>
        <time>2018-08-25T11:22:36Z</time>
      </trkpt>
      <trkpt lat="42.436419" lon="-8.643414">
        <ele>59.134</ele>
        <time>2018-08-25T11:22:43Z</time>
      </trkpt>
      <trkpt lat="42.436465" lon="-8.643395">
        <ele>58.572</ele>
        <time>2018-08-25T11:22:48Z</time>
      </trkpt>
      <trkpt lat="42.436525" lon="-8.643408">
        <ele>55.912</ele>
        <time>2018-08-25T11:22:51Z</time>
      </trkpt>
      <trkpt lat="42.436584" lon="-8.643444">
        <ele>54.212</ele>
        <time>2018-08-25T11:22:53Z</time>
      </trkpt>
      <trkpt lat="42.436624" lon="-8.643494">
        <ele>52.732</ele>
        <time>2018-08-25T11:22:55Z</time>
      </trkpt>
      <trkpt lat="42.436634" lon="-8.643568">
        <ele>51.805</ele>
        <time>2018-08-25T11:22:58Z</time>
      </trkpt>
      <trkpt lat="42.436630" lon="-8.643652">
        <ele>51.008</ele>
        <time>2018-08-25T11:23:01Z</time>
      </trkpt>
      <trkpt lat="42.436635" lon="-8.643741">
        <ele>50.493</ele>
        <time>2018-08-25T11:23:04Z</time>
      </trkpt>
      <trkpt lat="42.436651" lon="-8.643810">
        <ele>50.559</ele>
        <time>2018-08-25T11:23:06Z</time>
      </trkpt>
      <trkpt lat="42.436695" lon="-8.643950">
        <ele>50.114</ele>
        <time>2018-08-25T11:23:08Z</time>
      </trkpt>
      <trkpt lat="42.436717" lon="-8.644021">
        <ele>50.068</ele>
        <time>2018-08-25T11:23:10Z</time>
      </trkpt>
      <trkpt lat="42.436738" lon="-8.644091">
        <ele>50.035</ele>
        <time>2018-08-25T11:23:11Z</time>
      </trkpt>
      <trkpt lat="42.436763" lon="-8.644177">
        <ele>49.913</ele>
        <time>2018-08-25T11:23:14Z</time>
      </trkpt>
      <trkpt lat="42.436778" lon="-8.644249">
        <ele>49.911</ele>
        <time>2018-08-25T11:23:16Z</time>
      </trkpt>
      <trkpt lat="42.436791" lon="-8.644329">
        <ele>50.641</ele>
        <time>2018-08-25T11:23:18Z</time>
      </trkpt>
      <trkpt lat="42.436808" lon="-8.644401">
        <ele>51.477</ele>
        <time>2018-08-25T11:23:20Z</time>
      </trkpt>
      <trkpt lat="42.436839" lon="-8.644448">
        <ele>51.861</ele>
        <time>2018-08-25T11:23:22Z</time>
      </trkpt>
      <trkpt lat="42.436906" lon="-8.644453">
        <ele>51.927</ele>
        <time>2018-08-25T11:23:25Z</time>
      </trkpt>
      <trkpt lat="42.436957" lon="-8.644431">
        <ele>52.208</ele>
        <time>2018-08-25T11:23:27Z</time>
      </trkpt>
      <trkpt lat="42.437016" lon="-8.644398">
        <ele>52.649</ele>
        <time>2018-08-25T11:23:29Z</time>
      </trkpt>
      <trkpt lat="42.437067" lon="-8.644371">
        <ele>52.865</ele>
        <time>2018-08-25T11:23:31Z</time>
      </trkpt>
      <trkpt lat="42.437119" lon="-8.644349">
        <ele>53.270</ele>
        <time>2018-08-25T11:23:34Z</time>
      </trkpt>
      <trkpt lat="42.437165" lon="-8.644335">
        <ele>53.064</ele>
        <time>2018-08-25T11:23:46Z</time>
      </trkpt>
      <trkpt lat="42.437215" lon="-8.644383">
        <ele>52.721</ele>
        <time>2018-08-25T11:23:49Z</time>
      </trkpt>
      <trkpt lat="42.437278" lon="-8.644472">
        <ele>52.699</ele>
        <time>2018-08-25T11:23:50Z</time>
      </trkpt>
      <trkpt lat="42.437331" lon="-8.644562">
        <ele>52.557</ele>
        <time>2018-08-25T11:23:52Z</time>
      </trkpt>
      <trkpt lat="42.437374" lon="-8.644624">
        <ele>52.697</ele>
        <time>2018-08-25T11:23:54Z</time>
      </trkpt>
      <trkpt lat="42.437415" lon="-8.644672">
        <ele>52.674</ele>
        <time>2018-08-25T11:23:55Z</time>
      </trkpt>
      <trkpt lat="42.437478" lon="-8.644759">
        <ele>52.956</ele>
        <time>2018-08-25T11:23:57Z</time>
      </trkpt>
      <trkpt lat="42.437503" lon="-8.644817">
        <ele>53.121</ele>
        <time>2018-08-25T11:23:58Z</time>
      </trkpt>
      <trkpt lat="42.437528" lon="-8.644869">
        <ele>53.508</ele>
        <time>2018-08-25T11:23:59Z</time>
      </trkpt>
      <trkpt lat="42.437580" lon="-8.644956">
        <ele>53.919</ele>
        <time>2018-08-25T11:24:01Z</time>
      </trkpt>
      <trkpt lat="42.437638" lon="-8.645034">
        <ele>54.595</ele>
        <time>2018-08-25T11:24:03Z</time>
      </trkpt>
      <trkpt lat="42.437686" lon="-8.645083">
        <ele>54.980</ele>
        <time>2018-08-25T11:24:05Z</time>
      </trkpt>
      <trkpt lat="42.437733" lon="-8.645121">
        <ele>55.194</ele>
        <time>2018-08-25T11:24:06Z</time>
      </trkpt>
      <trkpt lat="42.437785" lon="-8.645174">
        <ele>55.411</ele>
        <time>2018-08-25T11:24:09Z</time>
      </trkpt>
      <trkpt lat="42.437833" lon="-8.645214">
        <ele>55.699</ele>
        <time>2018-08-25T11:24:11Z</time>
      </trkpt>
      <trkpt lat="42.437904" lon="-8.645248">
        <ele>55.737</ele>
        <time>2018-08-25T11:24:12Z</time>
      </trkpt>
      <trkpt lat="42.437987" lon="-8.645246">
        <ele>55.827</ele>
        <time>2018-08-25T11:24:14Z</time>
      </trkpt>
      <trkpt lat="42.438071" lon="-8.645242">
        <ele>56.527</ele>
        <time>2018-08-25T11:24:16Z</time>
      </trkpt>
      <trkpt lat="42.438128" lon="-8.645246">
        <ele>56.768</ele>
        <time>2018-08-25T11:24:18Z</time>
      </trkpt>
      <trkpt lat="42.438181" lon="-8.645243">
        <ele>56.714</ele>
        <time>2018-08-25T11:24:20Z</time>
      </trkpt>
      <trkpt lat="42.438239" lon="-8.645236">
        <ele>56.608</ele>
        <time>2018-08-25T11:24:22Z</time>
      </trkpt>
      <trkpt lat="42.438354" lon="-8.645226">
        <ele>56.554</ele>
        <time>2018-08-25T11:24:24Z</time>
      </trkpt>
      <trkpt lat="42.438432" lon="-8.645225">
        <ele>56.540</ele>
        <time>2018-08-25T11:24:26Z</time>
      </trkpt>
      <trkpt lat="42.438511" lon="-8.645220">
        <ele>56.525</ele>
        <time>2018-08-25T11:24:28Z</time>
      </trkpt>
      <trkpt lat="42.438595" lon="-8.645211">
        <ele>56.699</ele>
        <time>2018-08-25T11:24:30Z</time>
      </trkpt>
      <trkpt lat="42.438674" lon="-8.645205">
        <ele>56.616</ele>
        <time>2018-08-25T11:24:32Z</time>
      </trkpt>
      <trkpt lat="42.438756" lon="-8.645210">
        <ele>56.594</ele>
        <time>2018-08-25T11:24:34Z</time>
      </trkpt>
      <trkpt lat="42.438838" lon="-8.645217">
        <ele>56.542</ele>
        <time>2018-08-25T11:24:36Z</time>
      </trkpt>
      <trkpt lat="42.438919" lon="-8.645226">
        <ele>56.532</ele>
        <time>2018-08-25T11:24:38Z</time>
      </trkpt>
      <trkpt lat="42.439000" lon="-8.645234">
        <ele>56.657</ele>
        <time>2018-08-25T11:24:40Z</time>
      </trkpt>
      <trkpt lat="42.439068" lon="-8.645246">
        <ele>56.500</ele>
        <time>2018-08-25T11:24:43Z</time>
      </trkpt>
      <trkpt lat="42.439124" lon="-8.645264">
        <ele>56.320</ele>
        <time>2018-08-25T11:24:45Z</time>
      </trkpt>
      <trkpt lat="42.439188" lon="-8.645274">
        <ele>55.708</ele>
        <time>2018-08-25T11:24:47Z</time>
      </trkpt>
      <trkpt lat="42.439271" lon="-8.645278">
        <ele>55.357</ele>
        <time>2018-08-25T11:24:48Z</time>
      </trkpt>
      <trkpt lat="42.439353" lon="-8.645278">
        <ele>54.933</ele>
        <time>2018-08-25T11:24:50Z</time>
      </trkpt>
      <trkpt lat="42.439436" lon="-8.645290">
        <ele>54.518</ele>
        <time>2018-08-25T11:24:52Z</time>
      </trkpt>
      <trkpt lat="42.439519" lon="-8.645308">
        <ele>54.422</ele>
        <time>2018-08-25T11:24:54Z</time>
      </trkpt>
      <trkpt lat="42.439599" lon="-8.645327">
        <ele>54.379</ele>
        <time>2018-08-25T11:24:56Z</time>
      </trkpt>
      <trkpt lat="42.439681" lon="-8.645337">
        <ele>54.297</ele>
        <time>2018-08-25T11:24:58Z</time>
      </trkpt>
      <trkpt lat="42.439765" lon="-8.645349">
        <ele>53.985</ele>
        <time>2018-08-25T11:25:00Z</time>
      </trkpt>
      <trkpt lat="42.439847" lon="-8.645364">
        <ele>53.755</ele>
        <time>2018-08-25T11:25:02Z</time>
      </trkpt>
      <trkpt lat="42.439929" lon="-8.645379">
        <ele>53.618</ele>
        <time>2018-08-25T11:25:04Z</time>
      </trkpt>
      <trkpt lat="42.440016" lon="-8.645392">
        <ele>53.598</ele>
        <time>2018-08-25T11:25:06Z</time>
      </trkpt>
      <trkpt lat="42.440097" lon="-8.645404">
        <ele>53.217</ele>
        <time>2018-08-25T11:25:08Z</time>
      </trkpt>
      <trkpt lat="42.440177" lon="-8.645399">
        <ele>52.608</ele>
        <time>2018-08-25T11:25:10Z</time>
      </trkpt>
      <trkpt lat="42.440263" lon="-8.645389">
        <ele>52.383</ele>
        <time>2018-08-25T11:25:12Z</time>
      </trkpt>
      <trkpt lat="42.440336" lon="-8.645378">
        <ele>52.429</ele>
        <time>2018-08-25T11:25:14Z</time>
      </trkpt>
      <trkpt lat="42.440415" lon="-8.645359">
        <ele>52.364</ele>
        <time>2018-08-25T11:25:16Z</time>
      </trkpt>
      <trkpt lat="42.440487" lon="-8.645325">
        <ele>51.928</ele>
        <time>2018-08-25T11:25:18Z</time>
      </trkpt>
      <trkpt lat="42.440546" lon="-8.645269">
        <ele>52.025</ele>
        <time>2018-08-25T11:25:20Z</time>
      </trkpt>
      <trkpt lat="42.440618" lon="-8.645215">
        <ele>52.063</ele>
        <time>2018-08-25T11:25:22Z</time>
      </trkpt>
      <trkpt lat="42.440684" lon="-8.645157">
        <ele>52.161</ele>
        <time>2018-08-25T11:25:24Z</time>
      </trkpt>
      <trkpt lat="42.440748" lon="-8.645095">
        <ele>52.261</ele>
        <time>2018-08-25T11:25:26Z</time>
      </trkpt>
      <trkpt lat="42.440819" lon="-8.645045">
        <ele>52.222</ele>
        <time>2018-08-25T11:25:28Z</time>
      </trkpt>
      <trkpt lat="42.440872" lon="-8.645009">
        <ele>52.162</ele>
        <time>2018-08-25T11:25:30Z</time>
      </trkpt>
      <trkpt lat="42.440921" lon="-8.644982">
        <ele>51.908</ele>
        <time>2018-08-25T11:25:32Z</time>
      </trkpt>
      <trkpt lat="42.440989" lon="-8.644951">
        <ele>51.808</ele>
        <time>2018-08-25T11:25:33Z</time>
      </trkpt>
      <trkpt lat="42.441068" lon="-8.644924">
        <ele>51.854</ele>
        <time>2018-08-25T11:25:35Z</time>
      </trkpt>
      <trkpt lat="42.441149" lon="-8.644895">
        <ele>51.890</ele>
        <time>2018-08-25T11:25:37Z</time>
      </trkpt>
      <trkpt lat="42.441229" lon="-8.644864">
        <ele>51.735</ele>
        <time>2018-08-25T11:25:39Z</time>
      </trkpt>
      <trkpt lat="42.441313" lon="-8.644834">
        <ele>51.669</ele>
        <time>2018-08-25T11:25:41Z</time>
      </trkpt>
      <trkpt lat="42.441395" lon="-8.644803">
        <ele>51.766</ele>
        <time>2018-08-25T11:25:43Z</time>
      </trkpt>
      <trkpt lat="42.441474" lon="-8.644765">
        <ele>51.644</ele>
        <time>2018-08-25T11:25:45Z</time>
      </trkpt>
      <trkpt lat="42.441551" lon="-8.644734">
        <ele>51.422</ele>
        <time>2018-08-25T11:25:47Z</time>
      </trkpt>
      <trkpt lat="42.441626" lon="-8.644702">
        <ele>51.172</ele>
        <time>2018-08-25T11:25:49Z</time>
      </trkpt>
      <trkpt lat="42.441702" lon="-8.644673">
        <ele>50.769</ele>
        <time>2018-08-25T11:25:51Z</time>
      </trkpt>
      <trkpt lat="42.441786" lon="-8.644641">
        <ele>50.304</ele>
        <time>2018-08-25T11:25:53Z</time>
      </trkpt>
      <trkpt lat="42.441866" lon="-8.644610">
        <ele>49.824</ele>
        <time>2018-08-25T11:25:55Z</time>
      </trkpt>
      <trkpt lat="42.441946" lon="-8.644581">
        <ele>49.308</ele>
        <time>2018-08-25T11:25:57Z</time>
      </trkpt>
      <trkpt lat="42.442029" lon="-8.644557">
        <ele>48.758</ele>
        <time>2018-08-25T11:25:59Z</time>
      </trkpt>
      <trkpt lat="42.442111" lon="-8.644536">
        <ele>48.144</ele>
        <time>2018-08-25T11:26:01Z</time>
      </trkpt>
      <trkpt lat="42.442194" lon="-8.644511">
        <ele>47.679</ele>
        <time>2018-08-25T11:26:03Z</time>
      </trkpt>
      <trkpt lat="42.442278" lon="-8.644485">
        <ele>47.123</ele>
        <time>2018-08-25T11:26:05Z</time>
      </trkpt>
      <trkpt lat="42.442360" lon="-8.644465">
        <ele>46.660</ele>
        <time>2018-08-25T11:26:07Z</time>
      </trkpt>
      <trkpt lat="42.442445" lon="-8.644449">
        <ele>46.178</ele>
        <time>2018-08-25T11:26:09Z</time>
      </trkpt>
      <trkpt lat="42.442530" lon="-8.644431">
        <ele>45.886</ele>
        <time>2018-08-25T11:26:11Z</time>
      </trkpt>
      <trkpt lat="42.442616" lon="-8.644412">
        <ele>45.556</ele>
        <time>2018-08-25T11:26:13Z</time>
      </trkpt>
      <trkpt lat="42.442701" lon="-8.644392">
        <ele>45.213</ele>
        <time>2018-08-25T11:26:15Z</time>
      </trkpt>
      <trkpt lat="42.442783" lon="-8.644378">
        <ele>44.943</ele>
        <time>2018-08-25T11:26:17Z</time>
      </trkpt>
      <trkpt lat="42.442862" lon="-8.644353">
        <ele>44.707</ele>
        <time>2018-08-25T11:26:19Z</time>
      </trkpt>
      <trkpt lat="42.442945" lon="-8.644335">
        <ele>44.408</ele>
        <time>2018-08-25T11:26:21Z</time>
      </trkpt>
      <trkpt lat="42.443027" lon="-8.644324">
        <ele>44.163</ele>
        <time>2018-08-25T11:26:23Z</time>
      </trkpt>
      <trkpt lat="42.443102" lon="-8.644314">
        <ele>44.029</ele>
        <time>2018-08-25T11:26:25Z</time>
      </trkpt>
      <trkpt lat="42.443185" lon="-8.644312">
        <ele>43.844</ele>
        <time>2018-08-25T11:26:27Z</time>
      </trkpt>
      <trkpt lat="42.443267" lon="-8.644295">
        <ele>43.928</ele>
        <time>2018-08-25T11:26:29Z</time>
      </trkpt>
      <trkpt lat="42.443349" lon="-8.644267">
        <ele>44.355</ele>
        <time>2018-08-25T11:26:31Z</time>
      </trkpt>
      <trkpt lat="42.443432" lon="-8.644250">
        <ele>44.753</ele>
        <time>2018-08-25T11:26:33Z</time>
      </trkpt>
      <trkpt lat="42.443513" lon="-8.644230">
        <ele>45.071</ele>
        <time>2018-08-25T11:26:35Z</time>
      </trkpt>
      <trkpt lat="42.443593" lon="-8.644216">
        <ele>45.291</ele>
        <time>2018-08-25T11:26:37Z</time>
      </trkpt>
      <trkpt lat="42.443652" lon="-8.644206">
        <ele>45.383</ele>
        <time>2018-08-25T11:26:39Z</time>
      </trkpt>
      <trkpt lat="42.443702" lon="-8.644189">
        <ele>45.225</ele>
        <time>2018-08-25T11:26:41Z</time>
      </trkpt>
      <trkpt lat="42.443770" lon="-8.644167">
        <ele>45.017</ele>
        <time>2018-08-25T11:26:42Z</time>
      </trkpt>
      <trkpt lat="42.443843" lon="-8.644151">
        <ele>44.608</ele>
        <time>2018-08-25T11:26:44Z</time>
      </trkpt>
      <trkpt lat="42.443904" lon="-8.644139">
        <ele>44.350</ele>
        <time>2018-08-25T11:26:47Z</time>
      </trkpt>
      <trkpt lat="42.443952" lon="-8.644127">
        <ele>44.476</ele>
        <time>2018-08-25T11:26:49Z</time>
      </trkpt>
      <trkpt lat="42.443997" lon="-8.644117">
        <ele>44.611</ele>
        <time>2018-08-25T11:26:51Z</time>
      </trkpt>
      <trkpt lat="42.444050" lon="-8.644089">
        <ele>44.975</ele>
        <time>2018-08-25T11:26:54Z</time>
      </trkpt>
      <trkpt lat="42.444071" lon="-8.644000">
        <ele>45.372</ele>
        <time>2018-08-25T11:26:57Z</time>
      </trkpt>
      <trkpt lat="42.444042" lon="-8.643858">
        <ele>45.280</ele>
        <time>2018-08-25T11:26:59Z</time>
      </trkpt>
      <trkpt lat="42.444014" lon="-8.643786">
        <ele>45.238</ele>
        <time>2018-08-25T11:27:01Z</time>
      </trkpt>
      <trkpt lat="42.443986" lon="-8.643725">
        <ele>44.978</ele>
        <time>2018-08-25T11:27:04Z</time>
      </trkpt>
      <trkpt lat="42.443975" lon="-8.643661">
        <ele>44.246</ele>
        <time>2018-08-25T11:27:10Z</time>
      </trkpt>
      <trkpt lat="42.444028" lon="-8.643592">
        <ele>44.288</ele>
        <time>2018-08-25T11:27:13Z</time>
      </trkpt>
      <trkpt lat="42.444079" lon="-8.643541">
        <ele>44.116</ele>
        <time>2018-08-25T11:27:15Z</time>
      </trkpt>
      <trkpt lat="42.444141" lon="-8.643493">
        <ele>44.108</ele>
        <time>2018-08-25T11:27:17Z</time>
      </trkpt>
      <trkpt lat="42.444203" lon="-8.643448">
        <ele>43.936</ele>
        <time>2018-08-25T11:27:19Z</time>
      </trkpt>
      <trkpt lat="42.444274" lon="-8.643397">
        <ele>43.412</ele>
        <time>2018-08-25T11:27:21Z</time>
      </trkpt>
      <trkpt lat="42.444349" lon="-8.643362">
        <ele>42.517</ele>
        <time>2018-08-25T11:27:23Z</time>
      </trkpt>
      <trkpt lat="42.444421" lon="-8.643338">
        <ele>41.651</ele>
        <time>2018-08-25T11:27:25Z</time>
      </trkpt>
      <trkpt lat="42.444487" lon="-8.643314">
        <ele>40.858</ele>
        <time>2018-08-25T11:27:27Z</time>
      </trkpt>
      <trkpt lat="42.444565" lon="-8.643291">
        <ele>40.426</ele>
        <time>2018-08-25T11:27:28Z</time>
      </trkpt>
      <trkpt lat="42.444631" lon="-8.643289">
        <ele>39.464</ele>
        <time>2018-08-25T11:27:31Z</time>
      </trkpt>
      <trkpt lat="42.444688" lon="-8.643284">
        <ele>38.034</ele>
        <time>2018-08-25T11:27:33Z</time>
      </trkpt>
      <trkpt lat="42.444752" lon="-8.643267">
        <ele>37.026</ele>
        <time>2018-08-25T11:27:35Z</time>
      </trkpt>
      <trkpt lat="42.444818" lon="-8.643235">
        <ele>36.647</ele>
        <time>2018-08-25T11:27:37Z</time>
      </trkpt>
      <trkpt lat="42.444872" lon="-8.643204">
        <ele>36.511</ele>
        <time>2018-08-25T11:27:39Z</time>
      </trkpt>
      <trkpt lat="42.444925" lon="-8.643167">
        <ele>37.208</ele>
        <time>2018-08-25T11:27:41Z</time>
      </trkpt>
      <trkpt lat="42.444968" lon="-8.643134">
        <ele>37.694</ele>
        <time>2018-08-25T11:27:43Z</time>
      </trkpt>
      <trkpt lat="42.445018" lon="-8.643092">
        <ele>37.640</ele>
        <time>2018-08-25T11:27:46Z</time>
      </trkpt>
      <trkpt lat="42.445062" lon="-8.643065">
        <ele>36.625</ele>
        <time>2018-08-25T11:27:49Z</time>
      </trkpt>
      <trkpt lat="42.445105" lon="-8.643045">
        <ele>35.159</ele>
        <time>2018-08-25T11:27:52Z</time>
      </trkpt>
      <trkpt lat="42.445160" lon="-8.643027">
        <ele>34.016</ele>
        <time>2018-08-25T11:27:55Z</time>
      </trkpt>
      <trkpt lat="42.445206" lon="-8.643012">
        <ele>33.514</ele>
        <time>2018-08-25T11:27:57Z</time>
      </trkpt>
      <trkpt lat="42.445269" lon="-8.642990">
        <ele>32.992</ele>
        <time>2018-08-25T11:28:00Z</time>
      </trkpt>
      <trkpt lat="42.445314" lon="-8.642965">
        <ele>32.282</ele>
        <time>2018-08-25T11:28:03Z</time>
      </trkpt>
      <trkpt lat="42.445364" lon="-8.642946">
        <ele>31.274</ele>
        <time>2018-08-25T11:28:06Z</time>
      </trkpt>
      <trkpt lat="42.445416" lon="-8.642929">
        <ele>30.656</ele>
        <time>2018-08-25T11:28:09Z</time>
      </trkpt>
      <trkpt lat="42.445465" lon="-8.642920">
        <ele>30.721</ele>
        <time>2018-08-25T11:28:12Z</time>
      </trkpt>
      <trkpt lat="42.445510" lon="-8.642903">
        <ele>31.308</ele>
        <time>2018-08-25T11:28:15Z</time>
      </trkpt>
      <trkpt lat="42.445568" lon="-8.642881">
        <ele>31.679</ele>
        <time>2018-08-25T11:28:18Z</time>
      </trkpt>
      <trkpt lat="42.445631" lon="-8.642860">
        <ele>32.415</ele>
        <time>2018-08-25T11:28:21Z</time>
      </trkpt>
      <trkpt lat="42.445696" lon="-8.642838">
        <ele>33.170</ele>
        <time>2018-08-25T11:28:24Z</time>
      </trkpt>
      <trkpt lat="42.445745" lon="-8.642821">
        <ele>34.014</ele>
        <time>2018-08-25T11:28:26Z</time>
      </trkpt>
      <trkpt lat="42.445790" lon="-8.642798">
        <ele>35.251</ele>
        <time>2018-08-25T11:28:28Z</time>
      </trkpt>
      <trkpt lat="42.445836" lon="-8.642779">
        <ele>36.089</ele>
        <time>2018-08-25T11:28:30Z</time>
      </trkpt>
      <trkpt lat="42.445882" lon="-8.642757">
        <ele>36.657</ele>
        <time>2018-08-25T11:28:32Z</time>
      </trkpt>
      <trkpt lat="42.445936" lon="-8.642740">
        <ele>36.617</ele>
        <time>2018-08-25T11:28:34Z</time>
      </trkpt>
      <trkpt lat="42.445988" lon="-8.642725">
        <ele>36.866</ele>
        <time>2018-08-25T11:28:36Z</time>
      </trkpt>
      <trkpt lat="42.446045" lon="-8.642718">
        <ele>37.529</ele>
        <time>2018-08-25T11:28:38Z</time>
      </trkpt>
      <trkpt lat="42.446102" lon="-8.642713">
        <ele>37.921</ele>
        <time>2018-08-25T11:28:40Z</time>
      </trkpt>
      <trkpt lat="42.446167" lon="-8.642706">
        <ele>38.208</ele>
        <time>2018-08-25T11:28:42Z</time>
      </trkpt>
      <trkpt lat="42.446233" lon="-8.642703">
        <ele>38.328</ele>
        <time>2018-08-25T11:28:44Z</time>
      </trkpt>
      <trkpt lat="42.446299" lon="-8.642702">
        <ele>38.784</ele>
        <time>2018-08-25T11:28:46Z</time>
      </trkpt>
      <trkpt lat="42.446366" lon="-8.642709">
        <ele>39.369</ele>
        <time>2018-08-25T11:28:48Z</time>
      </trkpt>
      <trkpt lat="42.446429" lon="-8.642719">
        <ele>40.183</ele>
        <time>2018-08-25T11:28:50Z</time>
      </trkpt>
      <trkpt lat="42.446486" lon="-8.642730">
        <ele>40.730</ele>
        <time>2018-08-25T11:28:52Z</time>
      </trkpt>
      <trkpt lat="42.446541" lon="-8.642742">
        <ele>41.188</ele>
        <time>2018-08-25T11:28:54Z</time>
      </trkpt>
      <trkpt lat="42.446598" lon="-8.642756">
        <ele>41.546</ele>
        <time>2018-08-25T11:28:56Z</time>
      </trkpt>
      <trkpt lat="42.446650" lon="-8.642764">
        <ele>41.826</ele>
        <time>2018-08-25T11:28:58Z</time>
      </trkpt>
      <trkpt lat="42.446701" lon="-8.642766">
        <ele>42.189</ele>
        <time>2018-08-25T11:29:00Z</time>
      </trkpt>
      <trkpt lat="42.446750" lon="-8.642755">
        <ele>42.906</ele>
        <time>2018-08-25T11:29:02Z</time>
      </trkpt>
      <trkpt lat="42.446794" lon="-8.642743">
        <ele>43.626</ele>
        <time>2018-08-25T11:29:04Z</time>
      </trkpt>
      <trkpt lat="42.446856" lon="-8.642731">
        <ele>44.408</ele>
        <time>2018-08-25T11:29:07Z</time>
      </trkpt>
      <trkpt lat="42.446908" lon="-8.642731">
        <ele>45.090</ele>
        <time>2018-08-25T11:29:09Z</time>
      </trkpt>
      <trkpt lat="42.446965" lon="-8.642735">
        <ele>45.356</ele>
        <time>2018-08-25T11:29:11Z</time>
      </trkpt>
      <trkpt lat="42.447025" lon="-8.642744">
        <ele>45.331</ele>
        <time>2018-08-25T11:29:13Z</time>
      </trkpt>
      <trkpt lat="42.447083" lon="-8.642755">
        <ele>45.425</ele>
        <time>2018-08-25T11:29:15Z</time>
      </trkpt>
      <trkpt lat="42.447147" lon="-8.642762">
        <ele>46.072</ele>
        <time>2018-08-25T11:29:17Z</time>
      </trkpt>
      <trkpt lat="42.447216" lon="-8.642770">
        <ele>47.440</ele>
        <time>2018-08-25T11:29:19Z</time>
      </trkpt>
      <trkpt lat="42.447281" lon="-8.642779">
        <ele>48.718</ele>
        <time>2018-08-25T11:29:21Z</time>
      </trkpt>
      <trkpt lat="42.447336" lon="-8.642792">
        <ele>49.878</ele>
        <time>2018-08-25T11:29:23Z</time>
      </trkpt>
      <trkpt lat="42.447382" lon="-8.642808">
        <ele>51.017</ele>
        <time>2018-08-25T11:29:25Z</time>
      </trkpt>
      <trkpt lat="42.447442" lon="-8.642819">
        <ele>52.487</ele>
        <time>2018-08-25T11:29:28Z</time>
      </trkpt>
      <trkpt lat="42.447510" lon="-8.642829">
        <ele>53.315</ele>
        <time>2018-08-25T11:29:31Z</time>
      </trkpt>
      <trkpt lat="42.447564" lon="-8.642828">
        <ele>54.008</ele>
        <time>2018-08-25T11:29:33Z</time>
      </trkpt>
      <trkpt lat="42.447618" lon="-8.642828">
        <ele>54.223</ele>
        <time>2018-08-25T11:29:35Z</time>
      </trkpt>
      <trkpt lat="42.447663" lon="-8.642834">
        <ele>54.319</ele>
        <time>2018-08-25T11:29:37Z</time>
      </trkpt>
      <trkpt lat="42.447718" lon="-8.642838">
        <ele>54.434</ele>
        <time>2018-08-25T11:29:39Z</time>
      </trkpt>
      <trkpt lat="42.447779" lon="-8.642835">
        <ele>55.098</ele>
        <time>2018-08-25T11:29:41Z</time>
      </trkpt>
      <trkpt lat="42.447888" lon="-8.642824">
        <ele>55.235</ele>
        <time>2018-08-25T11:29:43Z</time>
      </trkpt>
      <trkpt lat="42.447977" lon="-8.642788">
        <ele>55.123</ele>
        <time>2018-08-25T11:29:45Z</time>
      </trkpt>
      <trkpt lat="42.448027" lon="-8.642757">
        <ele>55.091</ele>
        <time>2018-08-25T11:29:46Z</time>
      </trkpt>
      <trkpt lat="42.448076" lon="-8.642722">
        <ele>54.821</ele>
        <time>2018-08-25T11:29:47Z</time>
      </trkpt>
      <trkpt lat="42.448123" lon="-8.642686">
        <ele>54.568</ele>
        <time>2018-08-25T11:29:48Z</time>
      </trkpt>
      <trkpt lat="42.448171" lon="-8.642646">
        <ele>54.242</ele>
        <time>2018-08-25T11:29:49Z</time>
      </trkpt>
      <trkpt lat="42.448218" lon="-8.642603">
        <ele>54.026</ele>
        <time>2018-08-25T11:29:50Z</time>
      </trkpt>
      <trkpt lat="42.448268" lon="-8.642565">
        <ele>53.708</ele>
        <time>2018-08-25T11:29:51Z</time>
      </trkpt>
      <trkpt lat="42.448318" lon="-8.642531">
        <ele>53.428</ele>
        <time>2018-08-25T11:29:52Z</time>
      </trkpt>
      <trkpt lat="42.448368" lon="-8.642499">
        <ele>53.114</ele>
        <time>2018-08-25T11:29:53Z</time>
      </trkpt>
      <trkpt lat="42.448412" lon="-8.642469">
        <ele>52.869</ele>
        <time>2018-08-25T11:29:54Z</time>
      </trkpt>
      <trkpt lat="42.448454" lon="-8.642436">
        <ele>52.653</ele>
        <time>2018-08-25T11:29:55Z</time>
      </trkpt>
      <trkpt lat="42.448503" lon="-8.642398">
        <ele>52.590</ele>
        <time>2018-08-25T11:29:56Z</time>
      </trkpt>
      <trkpt lat="42.448554" lon="-8.642366">
        <ele>52.188</ele>
        <time>2018-08-25T11:29:57Z</time>
      </trkpt>
      <trkpt lat="42.448606" lon="-8.642336">
        <ele>51.446</ele>
        <time>2018-08-25T11:29:58Z</time>
      </trkpt>
      <trkpt lat="42.448665" lon="-8.642301">
        <ele>51.186</ele>
        <time>2018-08-25T11:29:59Z</time>
      </trkpt>
      <trkpt lat="42.448726" lon="-8.642273">
        <ele>50.829</ele>
        <time>2018-08-25T11:30:00Z</time>
      </trkpt>
      <trkpt lat="42.448787" lon="-8.642245">
        <ele>50.500</ele>
        <time>2018-08-25T11:30:01Z</time>
      </trkpt>
      <trkpt lat="42.448852" lon="-8.642217">
        <ele>50.320</ele>
        <time>2018-08-25T11:30:02Z</time>
      </trkpt>
      <trkpt lat="42.448919" lon="-8.642189">
        <ele>50.408</ele>
        <time>2018-08-25T11:30:03Z</time>
      </trkpt>
      <trkpt lat="42.448985" lon="-8.642166">
        <ele>50.444</ele>
        <time>2018-08-25T11:30:04Z</time>
      </trkpt>
      <trkpt lat="42.449051" lon="-8.642146">
        <ele>50.450</ele>
        <time>2018-08-25T11:30:05Z</time>
      </trkpt>
      <trkpt lat="42.449117" lon="-8.642127">
        <ele>50.355</ele>
        <time>2018-08-25T11:30:06Z</time>
      </trkpt>
      <trkpt lat="42.449182" lon="-8.642106">
        <ele>50.289</ele>
        <time>2018-08-25T11:30:07Z</time>
      </trkpt>
      <trkpt lat="42.449248" lon="-8.642085">
        <ele>50.126</ele>
        <time>2018-08-25T11:30:08Z</time>
      </trkpt>
      <trkpt lat="42.449311" lon="-8.642068">
        <ele>49.974</ele>
        <time>2018-08-25T11:30:09Z</time>
      </trkpt>
      <trkpt lat="42.449376" lon="-8.642055">
        <ele>49.952</ele>
        <time>2018-08-25T11:30:10Z</time>
      </trkpt>
      <trkpt lat="42.449440" lon="-8.642043">
        <ele>50.132</ele>
        <time>2018-08-25T11:30:11Z</time>
      </trkpt>
      <trkpt lat="42.449500" lon="-8.642027">
        <ele>50.321</ele>
        <time>2018-08-25T11:30:12Z</time>
      </trkpt>
      <trkpt lat="42.449559" lon="-8.642007">
        <ele>50.341</ele>
        <time>2018-08-25T11:30:13Z</time>
      </trkpt>
      <trkpt lat="42.449617" lon="-8.641983">
        <ele>50.205</ele>
        <time>2018-08-25T11:30:14Z</time>
      </trkpt>
      <trkpt lat="42.449675" lon="-8.641962">
        <ele>50.108</ele>
        <time>2018-08-25T11:30:15Z</time>
      </trkpt>
      <trkpt lat="42.449735" lon="-8.641943">
        <ele>50.014</ele>
        <time>2018-08-25T11:30:16Z</time>
      </trkpt>
      <trkpt lat="42.449797" lon="-8.641926">
        <ele>50.330</ele>
        <time>2018-08-25T11:30:17Z</time>
      </trkpt>
      <trkpt lat="42.449857" lon="-8.641904">
        <ele>50.975</ele>
        <time>2018-08-25T11:30:18Z</time>
      </trkpt>
      <trkpt lat="42.449913" lon="-8.641880">
        <ele>51.579</ele>
        <time>2018-08-25T11:30:19Z</time>
      </trkpt>
      <trkpt lat="42.449964" lon="-8.641861">
        <ele>51.876</ele>
        <time>2018-08-25T11:30:20Z</time>
      </trkpt>
      <trkpt lat="42.450010" lon="-8.641845">
        <ele>52.044</ele>
        <time>2018-08-25T11:30:21Z</time>
      </trkpt>
      <trkpt lat="42.450098" lon="-8.641809">
        <ele>51.882</ele>
        <time>2018-08-25T11:30:23Z</time>
      </trkpt>
      <trkpt lat="42.450180" lon="-8.641793">
        <ele>51.672</ele>
        <time>2018-08-25T11:30:25Z</time>
      </trkpt>
      <trkpt lat="42.450262" lon="-8.641790">
        <ele>51.345</ele>
        <time>2018-08-25T11:30:27Z</time>
      </trkpt>
      <trkpt lat="42.450343" lon="-8.641774">
        <ele>50.847</ele>
        <time>2018-08-25T11:30:29Z</time>
      </trkpt>
      <trkpt lat="42.450420" lon="-8.641754">
        <ele>50.411</ele>
        <time>2018-08-25T11:30:31Z</time>
      </trkpt>
      <trkpt lat="42.450498" lon="-8.641737">
        <ele>50.008</ele>
        <time>2018-08-25T11:30:33Z</time>
      </trkpt>
      <trkpt lat="42.450571" lon="-8.641721">
        <ele>49.566</ele>
        <time>2018-08-25T11:30:35Z</time>
      </trkpt>
      <trkpt lat="42.450653" lon="-8.641692">
        <ele>49.022</ele>
        <time>2018-08-25T11:30:37Z</time>
      </trkpt>
      <trkpt lat="42.450698" lon="-8.641677">
        <ele>48.657</ele>
        <time>2018-08-25T11:30:38Z</time>
      </trkpt>
      <trkpt lat="42.450746" lon="-8.641661">
        <ele>48.361</ele>
        <time>2018-08-25T11:30:39Z</time>
      </trkpt>
      <trkpt lat="42.450795" lon="-8.641646">
        <ele>48.088</ele>
        <time>2018-08-25T11:30:41Z</time>
      </trkpt>
      <trkpt lat="42.450905" lon="-8.641611">
        <ele>47.976</ele>
        <time>2018-08-25T11:30:43Z</time>
      </trkpt>
      <trkpt lat="42.450985" lon="-8.641598">
        <ele>47.744</ele>
        <time>2018-08-25T11:30:45Z</time>
      </trkpt>
      <trkpt lat="42.451047" lon="-8.641583">
        <ele>47.794</ele>
        <time>2018-08-25T11:30:47Z</time>
      </trkpt>
      <trkpt lat="42.451106" lon="-8.641567">
        <ele>47.637</ele>
        <time>2018-08-25T11:30:48Z</time>
      </trkpt>
      <trkpt lat="42.451152" lon="-8.641552">
        <ele>47.349</ele>
        <time>2018-08-25T11:30:50Z</time>
      </trkpt>
      <trkpt lat="42.451207" lon="-8.641538">
        <ele>46.913</ele>
        <time>2018-08-25T11:30:52Z</time>
      </trkpt>
      <trkpt lat="42.451273" lon="-8.641525">
        <ele>46.508</ele>
        <time>2018-08-25T11:30:54Z</time>
      </trkpt>
      <trkpt lat="42.451336" lon="-8.641519">
        <ele>45.945</ele>
        <time>2018-08-25T11:30:56Z</time>
      </trkpt>
      <trkpt lat="42.451404" lon="-8.641511">
        <ele>45.211</ele>
        <time>2018-08-25T11:30:58Z</time>
      </trkpt>
      <trkpt lat="42.451471" lon="-8.641500">
        <ele>45.076</ele>
        <time>2018-08-25T11:31:00Z</time>
      </trkpt>
      <trkpt lat="42.451563" lon="-8.641475">
        <ele>44.770</ele>
        <time>2018-08-25T11:31:01Z</time>
      </trkpt>
      <trkpt lat="42.451632" lon="-8.641461">
        <ele>44.417</ele>
        <time>2018-08-25T11:31:04Z</time>
      </trkpt>
      <trkpt lat="42.451697" lon="-8.641450">
        <ele>44.255</ele>
        <time>2018-08-25T11:31:06Z</time>
      </trkpt>
      <trkpt lat="42.451775" lon="-8.641444">
        <ele>44.953</ele>
        <time>2018-08-25T11:31:08Z</time>
      </trkpt>
      <trkpt lat="42.451867" lon="-8.641451">
        <ele>45.593</ele>
        <time>2018-08-25T11:31:09Z</time>
      </trkpt>
      <trkpt lat="42.451938" lon="-8.641483">
        <ele>46.335</ele>
        <time>2018-08-25T11:31:11Z</time>
      </trkpt>
      <trkpt lat="42.452046" lon="-8.641528">
        <ele>46.786</ele>
        <time>2018-08-25T11:31:14Z</time>
      </trkpt>
      <trkpt lat="42.452090" lon="-8.641553">
        <ele>46.914</ele>
        <time>2018-08-25T11:31:16Z</time>
      </trkpt>
      <trkpt lat="42.452145" lon="-8.641585">
        <ele>47.108</ele>
        <time>2018-08-25T11:31:18Z</time>
      </trkpt>
      <trkpt lat="42.452205" lon="-8.641617">
        <ele>47.475</ele>
        <time>2018-08-25T11:31:20Z</time>
      </trkpt>
      <trkpt lat="42.452273" lon="-8.641648">
        <ele>47.771</ele>
        <time>2018-08-25T11:31:22Z</time>
      </trkpt>
      <trkpt lat="42.452343" lon="-8.641681">
        <ele>47.986</ele>
        <time>2018-08-25T11:31:24Z</time>
      </trkpt>
      <trkpt lat="42.452409" lon="-8.641712">
        <ele>47.940</ele>
        <time>2018-08-25T11:31:26Z</time>
      </trkpt>
      <trkpt lat="42.452518" lon="-8.641758">
        <ele>47.947</ele>
        <time>2018-08-25T11:31:28Z</time>
      </trkpt>
      <trkpt lat="42.452587" lon="-8.641780">
        <ele>47.595</ele>
        <time>2018-08-25T11:31:31Z</time>
      </trkpt>
      <trkpt lat="42.452637" lon="-8.641793">
        <ele>47.193</ele>
        <time>2018-08-25T11:31:33Z</time>
      </trkpt>
      <trkpt lat="42.452690" lon="-8.641816">
        <ele>46.763</ele>
        <time>2018-08-25T11:31:35Z</time>
      </trkpt>
      <trkpt lat="42.452745" lon="-8.641835">
        <ele>46.297</ele>
        <time>2018-08-25T11:31:37Z</time>
      </trkpt>
      <trkpt lat="42.452793" lon="-8.641849">
        <ele>45.323</ele>
        <time>2018-08-25T11:31:39Z</time>
      </trkpt>
      <trkpt lat="42.452853" lon="-8.641873">
        <ele>44.225</ele>
        <time>2018-08-25T11:31:41Z</time>
      </trkpt>
      <trkpt lat="42.452913" lon="-8.641910">
        <ele>42.808</ele>
        <time>2018-08-25T11:31:43Z</time>
      </trkpt>
      <trkpt lat="42.452971" lon="-8.641939">
        <ele>41.361</ele>
        <time>2018-08-25T11:31:45Z</time>
      </trkpt>
      <trkpt lat="42.453028" lon="-8.641959">
        <ele>39.737</ele>
        <time>2018-08-25T11:31:47Z</time>
      </trkpt>
      <trkpt lat="42.453090" lon="-8.641994">
        <ele>38.462</ele>
        <time>2018-08-25T11:31:49Z</time>
      </trkpt>
      <trkpt lat="42.453216" lon="-8.642085">
        <ele>37.086</ele>
        <time>2018-08-25T11:31:51Z</time>
      </trkpt>
      <trkpt lat="42.453261" lon="-8.642114">
        <ele>35.563</ele>
        <time>2018-08-25T11:31:53Z</time>
      </trkpt>
      <trkpt lat="42.453314" lon="-8.642143">
        <ele>33.641</ele>
        <time>2018-08-25T11:31:55Z</time>
      </trkpt>
      <trkpt lat="42.453357" lon="-8.642175">
        <ele>31.359</ele>
        <time>2018-08-25T11:31:57Z</time>
      </trkpt>
      <trkpt lat="42.453401" lon="-8.642207">
        <ele>28.989</ele>
        <time>2018-08-25T11:31:59Z</time>
      </trkpt>
      <trkpt lat="42.453451" lon="-8.642238">
        <ele>26.813</ele>
        <time>2018-08-25T11:32:01Z</time>
      </trkpt>
      <trkpt lat="42.453511" lon="-8.642276">
        <ele>25.843</ele>
        <time>2018-08-25T11:32:03Z</time>
      </trkpt>
      <trkpt lat="42.453577" lon="-8.642330">
        <ele>26.307</ele>
        <time>2018-08-25T11:32:05Z</time>
      </trkpt>
      <trkpt lat="42.453615" lon="-8.642371">
        <ele>27.708</ele>
        <time>2018-08-25T11:32:06Z</time>
      </trkpt>
      <trkpt lat="42.453652" lon="-8.642417">
        <ele>29.613</ele>
        <time>2018-08-25T11:32:07Z</time>
      </trkpt>
      <trkpt lat="42.453690" lon="-8.642459">
        <ele>31.759</ele>
        <time>2018-08-25T11:32:08Z</time>
      </trkpt>
      <trkpt lat="42.453781" lon="-8.642545">
        <ele>33.414</ele>
        <time>2018-08-25T11:32:09Z</time>
      </trkpt>
      <trkpt lat="42.453835" lon="-8.642579">
        <ele>34.818</ele>
        <time>2018-08-25T11:32:11Z</time>
      </trkpt>
      <trkpt lat="42.453884" lon="-8.642609">
        <ele>35.715</ele>
        <time>2018-08-25T11:32:12Z</time>
      </trkpt>
      <trkpt lat="42.453926" lon="-8.642648">
        <ele>36.623</ele>
        <time>2018-08-25T11:32:14Z</time>
      </trkpt>
      <trkpt lat="42.453984" lon="-8.642699">
        <ele>36.511</ele>
        <time>2018-08-25T11:32:17Z</time>
      </trkpt>
      <trkpt lat="42.454037" lon="-8.642738">
        <ele>36.221</ele>
        <time>2018-08-25T11:32:19Z</time>
      </trkpt>
      <trkpt lat="42.454095" lon="-8.642780">
        <ele>35.789</ele>
        <time>2018-08-25T11:32:21Z</time>
      </trkpt>
      <trkpt lat="42.454157" lon="-8.642820">
        <ele>35.706</ele>
        <time>2018-08-25T11:32:23Z</time>
      </trkpt>
      <trkpt lat="42.454232" lon="-8.642862">
        <ele>36.426</ele>
        <time>2018-08-25T11:32:25Z</time>
      </trkpt>
      <trkpt lat="42.454308" lon="-8.642908">
        <ele>37.808</ele>
        <time>2018-08-25T11:32:27Z</time>
      </trkpt>
      <trkpt lat="42.454372" lon="-8.642952">
        <ele>38.880</ele>
        <time>2018-08-25T11:32:29Z</time>
      </trkpt>
      <trkpt lat="42.454430" lon="-8.642991">
        <ele>39.726</ele>
        <time>2018-08-25T11:32:31Z</time>
      </trkpt>
      <trkpt lat="42.454489" lon="-8.643026">
        <ele>40.681</ele>
        <time>2018-08-25T11:32:33Z</time>
      </trkpt>
      <trkpt lat="42.454549" lon="-8.643069">
        <ele>41.545</ele>
        <time>2018-08-25T11:32:35Z</time>
      </trkpt>
      <trkpt lat="42.454610" lon="-8.643126">
        <ele>42.362</ele>
        <time>2018-08-25T11:32:37Z</time>
      </trkpt>
      <trkpt lat="42.454677" lon="-8.643184">
        <ele>43.140</ele>
        <time>2018-08-25T11:32:39Z</time>
      </trkpt>
      <trkpt lat="42.454743" lon="-8.643233">
        <ele>43.788</ele>
        <time>2018-08-25T11:32:41Z</time>
      </trkpt>
      <trkpt lat="42.454827" lon="-8.643281">
        <ele>44.278</ele>
        <time>2018-08-25T11:32:42Z</time>
      </trkpt>
      <trkpt lat="42.454905" lon="-8.643312">
        <ele>44.668</ele>
        <time>2018-08-25T11:32:44Z</time>
      </trkpt>
      <trkpt lat="42.454981" lon="-8.643351">
        <ele>45.142</ele>
        <time>2018-08-25T11:32:46Z</time>
      </trkpt>
      <trkpt lat="42.455057" lon="-8.643397">
        <ele>45.626</ele>
        <time>2018-08-25T11:32:48Z</time>
      </trkpt>
      <trkpt lat="42.455114" lon="-8.643433">
        <ele>46.108</ele>
        <time>2018-08-25T11:32:50Z</time>
      </trkpt>
      <trkpt lat="42.455166" lon="-8.643465">
        <ele>46.488</ele>
        <time>2018-08-25T11:32:51Z</time>
      </trkpt>
      <trkpt lat="42.455231" lon="-8.643506">
        <ele>46.834</ele>
        <time>2018-08-25T11:32:54Z</time>
      </trkpt>
      <trkpt lat="42.455294" lon="-8.643546">
        <ele>47.019</ele>
        <time>2018-08-25T11:32:55Z</time>
      </trkpt>
      <trkpt lat="42.455387" lon="-8.643611">
        <ele>47.273</ele>
        <time>2018-08-25T11:32:58Z</time>
      </trkpt>
      <trkpt lat="42.455457" lon="-8.643648">
        <ele>47.460</ele>
        <time>2018-08-25T11:33:00Z</time>
      </trkpt>
      <trkpt lat="42.455547" lon="-8.643679">
        <ele>47.998</ele>
        <time>2018-08-25T11:33:02Z</time>
      </trkpt>
      <trkpt lat="42.455595" lon="-8.643694">
        <ele>48.576</ele>
        <time>2018-08-25T11:33:03Z</time>
      </trkpt>
      <trkpt lat="42.455640" lon="-8.643721">
        <ele>49.256</ele>
        <time>2018-08-25T11:33:05Z</time>
      </trkpt>
      <trkpt lat="42.455706" lon="-8.643753">
        <ele>50.138</ele>
        <time>2018-08-25T11:33:07Z</time>
      </trkpt>
      <trkpt lat="42.455785" lon="-8.643796">
        <ele>50.770</ele>
        <time>2018-08-25T11:33:08Z</time>
      </trkpt>
      <trkpt lat="42.455848" lon="-8.643839">
        <ele>51.217</ele>
        <time>2018-08-25T11:33:10Z</time>
      </trkpt>
      <trkpt lat="42.455921" lon="-8.643864">
        <ele>51.208</ele>
        <time>2018-08-25T11:33:12Z</time>
      </trkpt>
      <trkpt lat="42.455987" lon="-8.643897">
        <ele>51.235</ele>
        <time>2018-08-25T11:33:14Z</time>
      </trkpt>
      <trkpt lat="42.456038" lon="-8.643922">
        <ele>50.771</ele>
        <time>2018-08-25T11:33:16Z</time>
      </trkpt>
      <trkpt lat="42.456083" lon="-8.643949">
        <ele>50.496</ele>
        <time>2018-08-25T11:33:18Z</time>
      </trkpt>
      <trkpt lat="42.456130" lon="-8.643987">
        <ele>50.580</ele>
        <time>2018-08-25T11:33:20Z</time>
      </trkpt>
      <trkpt lat="42.456185" lon="-8.644029">
        <ele>50.527</ele>
        <time>2018-08-25T11:33:22Z</time>
      </trkpt>
      <trkpt lat="42.456294" lon="-8.644092">
        <ele>50.635</ele>
        <time>2018-08-25T11:33:24Z</time>
      </trkpt>
      <trkpt lat="42.456360" lon="-8.644123">
        <ele>50.823</ele>
        <time>2018-08-25T11:33:26Z</time>
      </trkpt>
      <trkpt lat="42.456409" lon="-8.644148">
        <ele>51.113</ele>
        <time>2018-08-25T11:33:28Z</time>
      </trkpt>
      <trkpt lat="42.456452" lon="-8.644179">
        <ele>51.217</ele>
        <time>2018-08-25T11:33:30Z</time>
      </trkpt>
      <trkpt lat="42.456507" lon="-8.644214">
        <ele>51.487</ele>
        <time>2018-08-25T11:33:32Z</time>
      </trkpt>
      <trkpt lat="42.456562" lon="-8.644255">
        <ele>51.115</ele>
        <time>2018-08-25T11:33:34Z</time>
      </trkpt>
      <trkpt lat="42.456617" lon="-8.644294">
        <ele>50.608</ele>
        <time>2018-08-25T11:33:36Z</time>
      </trkpt>
      <trkpt lat="42.456674" lon="-8.644329">
        <ele>49.943</ele>
        <time>2018-08-25T11:33:38Z</time>
      </trkpt>
      <trkpt lat="42.456720" lon="-8.644359">
        <ele>49.259</ele>
        <time>2018-08-25T11:33:40Z</time>
      </trkpt>
      <trkpt lat="42.456783" lon="-8.644371">
        <ele>48.074</ele>
        <time>2018-08-25T11:33:43Z</time>
      </trkpt>
      <trkpt lat="42.456877" lon="-8.644299">
        <ele>46.788</ele>
        <time>2018-08-25T11:33:45Z</time>
      </trkpt>
      <trkpt lat="42.456918" lon="-8.644272">
        <ele>45.795</ele>
        <time>2018-08-25T11:33:46Z</time>
      </trkpt>
      <trkpt lat="42.456961" lon="-8.644252">
        <ele>44.913</ele>
        <time>2018-08-25T11:33:47Z</time>
      </trkpt>
      <trkpt lat="42.457021" lon="-8.644228">
        <ele>43.961</ele>
        <time>2018-08-25T11:33:49Z</time>
      </trkpt>
      <trkpt lat="42.457064" lon="-8.644208">
        <ele>43.171</ele>
        <time>2018-08-25T11:33:51Z</time>
      </trkpt>
      <trkpt lat="42.457113" lon="-8.644211">
        <ele>42.324</ele>
        <time>2018-08-25T11:33:53Z</time>
      </trkpt>
      <trkpt lat="42.457165" lon="-8.644214">
        <ele>41.604</ele>
        <time>2018-08-25T11:33:55Z</time>
      </trkpt>
      <trkpt lat="42.457220" lon="-8.644217">
        <ele>41.114</ele>
        <time>2018-08-25T11:33:57Z</time>
      </trkpt>
      <trkpt lat="42.457273" lon="-8.644218">
        <ele>40.808</ele>
        <time>2018-08-25T11:33:59Z</time>
      </trkpt>
      <trkpt lat="42.457332" lon="-8.644208">
        <ele>41.144</ele>
        <time>2018-08-25T11:34:01Z</time>
      </trkpt>
      <trkpt lat="42.457393" lon="-8.644196">
        <ele>41.890</ele>
        <time>2018-08-25T11:34:03Z</time>
      </trkpt>
      <trkpt lat="42.457450" lon="-8.644182">
        <ele>42.625</ele>
        <time>2018-08-25T11:34:05Z</time>
      </trkpt>
      <trkpt lat="42.457506" lon="-8.644163">
        <ele>43.579</ele>
        <time>2018-08-25T11:34:07Z</time>
      </trkpt>
      <trkpt lat="42.457560" lon="-8.644148">
        <ele>44.756</ele>
        <time>2018-08-25T11:34:09Z</time>
      </trkpt>
      <trkpt lat="42.457615" lon="-8.644136">
        <ele>46.034</ele>
        <time>2018-08-25T11:34:11Z</time>
      </trkpt>
      <trkpt lat="42.457674" lon="-8.644132">
        <ele>47.342</ele>
        <time>2018-08-25T11:34:13Z</time>
      </trkpt>
      <trkpt lat="42.457719" lon="-8.644136">
        <ele>48.362</ele>
        <time>2018-08-25T11:34:15Z</time>
      </trkpt>
      <trkpt lat="42.457772" lon="-8.644151">
        <ele>49.591</ele>
        <time>2018-08-25T11:34:18Z</time>
      </trkpt>
      <trkpt lat="42.457820" lon="-8.644166">
        <ele>50.481</ele>
        <time>2018-08-25T11:34:21Z</time>
      </trkpt>
      <trkpt lat="42.457863" lon="-8.644187">
        <ele>51.319</ele>
        <time>2018-08-25T11:34:24Z</time>
      </trkpt>
      <trkpt lat="42.457913" lon="-8.644218">
        <ele>52.208</ele>
        <time>2018-08-25T11:34:28Z</time>
      </trkpt>
      <trkpt lat="42.457960" lon="-8.644241">
        <ele>52.241</ele>
        <time>2018-08-25T11:34:32Z</time>
      </trkpt>
      <trkpt lat="42.458011" lon="-8.644247">
        <ele>52.877</ele>
        <time>2018-08-25T11:34:36Z</time>
      </trkpt>
      <trkpt lat="42.457971" lon="-8.644277">
        <ele>55.522</ele>
        <time>2018-08-25T11:43:36Z</time>
      </trkpt>
      <trkpt lat="42.457907" lon="-8.644251">
        <ele>58.866</ele>
        <time>2018-08-25T11:43:44Z</time>
      </trkpt>
      <trkpt lat="42.457907" lon="-8.644251">
        <ele>58.823</ele>
        <time>2018-08-25T11:43:44Z</time>
      </trkpt>
      <trkpt lat="42.457907" lon="-8.644251">
        <ele>58.871</ele>
        <time>2018-08-25T11:43:44Z</time>
      </trkpt>
      <trkpt lat="42.457907" lon="-8.644251">
        <ele>58.839</ele>
        <time>2018-08-25T11:43:44Z</time>
      </trkpt>
      <trkpt lat="42.457945" lon="-8.644290">
        <ele>59.739</ele>
        <time>2018-08-25T11:44:10Z</time>
      </trkpt>
      <trkpt lat="42.457991" lon="-8.644283">
        <ele>59.431</ele>
        <time>2018-08-25T11:44:16Z</time>
      </trkpt>
      <trkpt lat="42.458045" lon="-8.644287">
        <ele>60.661</ele>
        <time>2018-08-25T11:44:57Z</time>
      </trkpt>
      <trkpt lat="42.458100" lon="-8.644301">
        <ele>61.207</ele>
        <time>2018-08-25T11:45:00Z</time>
      </trkpt>
      <trkpt lat="42.458148" lon="-8.644313">
        <ele>61.608</ele>
        <time>2018-08-25T11:45:02Z</time>
      </trkpt>
      <trkpt lat="42.458200" lon="-8.644322">
        <ele>61.685</ele>
        <time>2018-08-25T11:45:04Z</time>
      </trkpt>
      <trkpt lat="42.458260" lon="-8.644321">
        <ele>60.961</ele>
        <time>2018-08-25T11:45:07Z</time>
      </trkpt>
      <trkpt lat="42.458307" lon="-8.644317">
        <ele>60.456</ele>
        <time>2018-08-25T11:45:09Z</time>
      </trkpt>
      <trkpt lat="42.458354" lon="-8.644314">
        <ele>60.060</ele>
        <time>2018-08-25T11:45:11Z</time>
      </trkpt>
      <trkpt lat="42.458419" lon="-8.644308">
        <ele>59.627</ele>
        <time>2018-08-25T11:45:14Z</time>
      </trkpt>
      <trkpt lat="42.458485" lon="-8.644305">
        <ele>59.075</ele>
        <time>2018-08-25T11:45:17Z</time>
      </trkpt>
      <trkpt lat="42.458544" lon="-8.644304">
        <ele>58.553</ele>
        <time>2018-08-25T11:45:20Z</time>
      </trkpt>
      <trkpt lat="42.458591" lon="-8.644303">
        <ele>57.923</ele>
        <time>2018-08-25T11:45:23Z</time>
      </trkpt>
      <trkpt lat="42.458642" lon="-8.644310">
        <ele>57.792</ele>
        <time>2018-08-25T11:45:26Z</time>
      </trkpt>
      <trkpt lat="42.458698" lon="-8.644306">
        <ele>57.373</ele>
        <time>2018-08-25T11:45:29Z</time>
      </trkpt>
      <trkpt lat="42.458752" lon="-8.644311">
        <ele>58.020</ele>
        <time>2018-08-25T11:45:32Z</time>
      </trkpt>
      <trkpt lat="42.458799" lon="-8.644318">
        <ele>58.808</ele>
        <time>2018-08-25T11:45:35Z</time>
      </trkpt>
      <trkpt lat="42.458863" lon="-8.644318">
        <ele>59.921</ele>
        <time>2018-08-25T11:45:38Z</time>
      </trkpt>
      <trkpt lat="42.458923" lon="-8.644335">
        <ele>61.157</ele>
        <time>2018-08-25T11:45:41Z</time>
      </trkpt>
      <trkpt lat="42.458976" lon="-8.644359">
        <ele>62.752</ele>
        <time>2018-08-25T11:45:44Z</time>
      </trkpt>
      <trkpt lat="42.459025" lon="-8.644379">
        <ele>64.046</ele>
        <time>2018-08-25T11:45:47Z</time>
      </trkpt>
      <trkpt lat="42.459073" lon="-8.644397">
        <ele>64.313</ele>
        <time>2018-08-25T11:45:51Z</time>
      </trkpt>
      <trkpt lat="42.459118" lon="-8.644413">
        <ele>64.771</ele>
        <time>2018-08-25T11:45:54Z</time>
      </trkpt>
      <trkpt lat="42.459171" lon="-8.644430">
        <ele>65.059</ele>
        <time>2018-08-25T11:45:57Z</time>
      </trkpt>
      <trkpt lat="42.459236" lon="-8.644441">
        <ele>65.139</ele>
        <time>2018-08-25T11:46:00Z</time>
      </trkpt>
      <trkpt lat="42.459300" lon="-8.644455">
        <ele>64.666</ele>
        <time>2018-08-25T11:46:03Z</time>
      </trkpt>
      <trkpt lat="42.459351" lon="-8.644465">
        <ele>64.229</ele>
        <time>2018-08-25T11:46:05Z</time>
      </trkpt>
      <trkpt lat="42.459408" lon="-8.644475">
        <ele>63.421</ele>
        <time>2018-08-25T11:46:07Z</time>
      </trkpt>
      <trkpt lat="42.459491" lon="-8.644496">
        <ele>62.508</ele>
        <time>2018-08-25T11:46:08Z</time>
      </trkpt>
      <trkpt lat="42.459573" lon="-8.644526">
        <ele>61.498</ele>
        <time>2018-08-25T11:46:10Z</time>
      </trkpt>
      <trkpt lat="42.459619" lon="-8.644539">
        <ele>60.564</ele>
        <time>2018-08-25T11:46:11Z</time>
      </trkpt>
      <trkpt lat="42.459671" lon="-8.644553">
        <ele>59.759</ele>
        <time>2018-08-25T11:46:12Z</time>
      </trkpt>
      <trkpt lat="42.459720" lon="-8.644569">
        <ele>59.223</ele>
        <time>2018-08-25T11:46:13Z</time>
      </trkpt>
      <trkpt lat="42.459807" lon="-8.644597">
        <ele>58.720</ele>
        <time>2018-08-25T11:46:15Z</time>
      </trkpt>
      <trkpt lat="42.459855" lon="-8.644610">
        <ele>58.238</ele>
        <time>2018-08-25T11:46:16Z</time>
      </trkpt>
      <trkpt lat="42.459914" lon="-8.644624">
        <ele>57.816</ele>
        <time>2018-08-25T11:46:17Z</time>
      </trkpt>
      <trkpt lat="42.459974" lon="-8.644634">
        <ele>57.386</ele>
        <time>2018-08-25T11:46:18Z</time>
      </trkpt>
      <trkpt lat="42.460030" lon="-8.644645">
        <ele>57.046</ele>
        <time>2018-08-25T11:46:19Z</time>
      </trkpt>
      <trkpt lat="42.460083" lon="-8.644646">
        <ele>56.388</ele>
        <time>2018-08-25T11:46:20Z</time>
      </trkpt>
      <trkpt lat="42.460135" lon="-8.644656">
        <ele>55.716</ele>
        <time>2018-08-25T11:46:22Z</time>
      </trkpt>
      <trkpt lat="42.460199" lon="-8.644664">
        <ele>55.208</ele>
        <time>2018-08-25T11:46:24Z</time>
      </trkpt>
      <trkpt lat="42.460264" lon="-8.644669">
        <ele>54.536</ele>
        <time>2018-08-25T11:46:26Z</time>
      </trkpt>
      <trkpt lat="42.460331" lon="-8.644678">
        <ele>53.712</ele>
        <time>2018-08-25T11:46:28Z</time>
      </trkpt>
      <trkpt lat="42.460401" lon="-8.644684">
        <ele>52.757</ele>
        <time>2018-08-25T11:46:30Z</time>
      </trkpt>
      <trkpt lat="42.460546" lon="-8.644667">
        <ele>51.871</ele>
        <time>2018-08-25T11:46:32Z</time>
      </trkpt>
      <trkpt lat="42.460590" lon="-8.644645">
        <ele>51.248</ele>
        <time>2018-08-25T11:46:33Z</time>
      </trkpt>
      <trkpt lat="42.460671" lon="-8.644601">
        <ele>50.616</ele>
        <time>2018-08-25T11:46:35Z</time>
      </trkpt>
      <trkpt lat="42.460712" lon="-8.644562">
        <ele>50.284</ele>
        <time>2018-08-25T11:46:37Z</time>
      </trkpt>
      <trkpt lat="42.460758" lon="-8.644513">
        <ele>50.284</ele>
        <time>2018-08-25T11:46:39Z</time>
      </trkpt>
      <trkpt lat="42.460811" lon="-8.644465">
        <ele>50.347</ele>
        <time>2018-08-25T11:46:41Z</time>
      </trkpt>
      <trkpt lat="42.460869" lon="-8.644428">
        <ele>50.529</ele>
        <time>2018-08-25T11:46:43Z</time>
      </trkpt>
      <trkpt lat="42.460926" lon="-8.644391">
        <ele>50.921</ele>
        <time>2018-08-25T11:46:45Z</time>
      </trkpt>
      <trkpt lat="42.460982" lon="-8.644352">
        <ele>51.908</ele>
        <time>2018-08-25T11:46:47Z</time>
      </trkpt>
      <trkpt lat="42.461040" lon="-8.644309">
        <ele>52.616</ele>
        <time>2018-08-25T11:46:49Z</time>
      </trkpt>
      <trkpt lat="42.461088" lon="-8.644270">
        <ele>52.812</ele>
        <time>2018-08-25T11:46:51Z</time>
      </trkpt>
      <trkpt lat="42.461133" lon="-8.644245">
        <ele>53.097</ele>
        <time>2018-08-25T11:46:53Z</time>
      </trkpt>
      <trkpt lat="42.461183" lon="-8.644223">
        <ele>53.781</ele>
        <time>2018-08-25T11:46:55Z</time>
      </trkpt>
      <trkpt lat="42.461242" lon="-8.644200">
        <ele>55.158</ele>
        <time>2018-08-25T11:46:57Z</time>
      </trkpt>
      <trkpt lat="42.461303" lon="-8.644176">
        <ele>56.396</ele>
        <time>2018-08-25T11:46:59Z</time>
      </trkpt>
      <trkpt lat="42.461362" lon="-8.644150">
        <ele>57.264</ele>
        <time>2018-08-25T11:47:01Z</time>
      </trkpt>
      <trkpt lat="42.461415" lon="-8.644124">
        <ele>57.944</ele>
        <time>2018-08-25T11:47:03Z</time>
      </trkpt>
      <trkpt lat="42.461460" lon="-8.644095">
        <ele>58.559</ele>
        <time>2018-08-25T11:47:05Z</time>
      </trkpt>
      <trkpt lat="42.461517" lon="-8.644052">
        <ele>59.103</ele>
        <time>2018-08-25T11:47:08Z</time>
      </trkpt>
      <trkpt lat="42.461574" lon="-8.644016">
        <ele>59.423</ele>
        <time>2018-08-25T11:47:11Z</time>
      </trkpt>
      <trkpt lat="42.461628" lon="-8.644002">
        <ele>60.208</ele>
        <time>2018-08-25T11:47:14Z</time>
      </trkpt>
      <trkpt lat="42.461681" lon="-8.644010">
        <ele>60.917</ele>
        <time>2018-08-25T11:47:17Z</time>
      </trkpt>
      <trkpt lat="42.461736" lon="-8.644023">
        <ele>61.653</ele>
        <time>2018-08-25T11:47:20Z</time>
      </trkpt>
      <trkpt lat="42.461789" lon="-8.644041">
        <ele>61.948</ele>
        <time>2018-08-25T11:47:24Z</time>
      </trkpt>
      <trkpt lat="42.461840" lon="-8.644077">
        <ele>62.842</ele>
        <time>2018-08-25T11:47:28Z</time>
      </trkpt>
      <trkpt lat="42.461881" lon="-8.644108">
        <ele>63.939</ele>
        <time>2018-08-25T11:47:31Z</time>
      </trkpt>
      <trkpt lat="42.461921" lon="-8.644151">
        <ele>65.187</ele>
        <time>2018-08-25T11:47:34Z</time>
      </trkpt>
      <trkpt lat="42.461958" lon="-8.644188">
        <ele>66.065</ele>
        <time>2018-08-25T11:47:37Z</time>
      </trkpt>
      <trkpt lat="42.461999" lon="-8.644220">
        <ele>67.045</ele>
        <time>2018-08-25T11:47:40Z</time>
      </trkpt>
      <trkpt lat="42.462051" lon="-8.644246">
        <ele>67.815</ele>
        <time>2018-08-25T11:47:44Z</time>
      </trkpt>
      <trkpt lat="42.462098" lon="-8.644255">
        <ele>67.865</ele>
        <time>2018-08-25T11:47:48Z</time>
      </trkpt>
      <trkpt lat="42.462147" lon="-8.644276">
        <ele>67.811</ele>
        <time>2018-08-25T11:47:52Z</time>
      </trkpt>
      <trkpt lat="42.462199" lon="-8.644290">
        <ele>68.608</ele>
        <time>2018-08-25T11:47:56Z</time>
      </trkpt>
      <trkpt lat="42.462255" lon="-8.644290">
        <ele>70.023</ele>
        <time>2018-08-25T11:48:00Z</time>
      </trkpt>
      <trkpt lat="42.462302" lon="-8.644290">
        <ele>71.419</ele>
        <time>2018-08-25T11:48:03Z</time>
      </trkpt>
      <trkpt lat="42.462348" lon="-8.644292">
        <ele>73.194</ele>
        <time>2018-08-25T11:48:06Z</time>
      </trkpt>
      <trkpt lat="42.462403" lon="-8.644297">
        <ele>74.288</ele>
        <time>2018-08-25T11:48:10Z</time>
      </trkpt>
      <trkpt lat="42.462458" lon="-8.644307">
        <ele>74.695</ele>
        <time>2018-08-25T11:48:14Z</time>
      </trkpt>
      <trkpt lat="42.462515" lon="-8.644300">
        <ele>74.483</ele>
        <time>2018-08-25T11:48:18Z</time>
      </trkpt>
      <trkpt lat="42.462564" lon="-8.644297">
        <ele>74.541</ele>
        <time>2018-08-25T11:48:21Z</time>
      </trkpt>
      <trkpt lat="42.462623" lon="-8.644307">
        <ele>74.721</ele>
        <time>2018-08-25T11:48:24Z</time>
      </trkpt>
      <trkpt lat="42.462683" lon="-8.644314">
        <ele>74.982</ele>
        <time>2018-08-25T11:48:27Z</time>
      </trkpt>
      <trkpt lat="42.462742" lon="-8.644316">
        <ele>75.943</ele>
        <time>2018-08-25T11:48:30Z</time>
      </trkpt>
      <trkpt lat="42.462806" lon="-8.644306">
        <ele>77.217</ele>
        <time>2018-08-25T11:48:33Z</time>
      </trkpt>
      <trkpt lat="42.462875" lon="-8.644309">
        <ele>78.408</ele>
        <time>2018-08-25T11:48:36Z</time>
      </trkpt>
      <trkpt lat="42.462924" lon="-8.644314">
        <ele>79.580</ele>
        <time>2018-08-25T11:48:38Z</time>
      </trkpt>
      <trkpt lat="42.462970" lon="-8.644318">
        <ele>80.576</ele>
        <time>2018-08-25T11:48:40Z</time>
      </trkpt>
      <trkpt lat="42.463033" lon="-8.644324">
        <ele>81.941</ele>
        <time>2018-08-25T11:48:43Z</time>
      </trkpt>
      <trkpt lat="42.463089" lon="-8.644322">
        <ele>82.815</ele>
        <time>2018-08-25T11:48:46Z</time>
      </trkpt>
      <trkpt lat="42.463148" lon="-8.644316">
        <ele>83.642</ele>
        <time>2018-08-25T11:48:49Z</time>
      </trkpt>
      <trkpt lat="42.463207" lon="-8.644314">
        <ele>84.460</ele>
        <time>2018-08-25T11:48:52Z</time>
      </trkpt>
      <trkpt lat="42.463268" lon="-8.644310">
        <ele>84.868</ele>
        <time>2018-08-25T11:48:55Z</time>
      </trkpt>
      <trkpt lat="42.463333" lon="-8.644301">
        <ele>85.328</ele>
        <time>2018-08-25T11:48:58Z</time>
      </trkpt>
      <trkpt lat="42.463395" lon="-8.644286">
        <ele>85.872</ele>
        <time>2018-08-25T11:49:01Z</time>
      </trkpt>
      <trkpt lat="42.463454" lon="-8.644270">
        <ele>86.113</ele>
        <time>2018-08-25T11:49:04Z</time>
      </trkpt>
      <trkpt lat="42.463511" lon="-8.644258">
        <ele>86.214</ele>
        <time>2018-08-25T11:49:07Z</time>
      </trkpt>
      <trkpt lat="42.463570" lon="-8.644273">
        <ele>86.208</ele>
        <time>2018-08-25T11:49:10Z</time>
      </trkpt>
      <trkpt lat="42.463623" lon="-8.644303">
        <ele>86.189</ele>
        <time>2018-08-25T11:49:13Z</time>
      </trkpt>
      <trkpt lat="42.463676" lon="-8.644329">
        <ele>86.255</ele>
        <time>2018-08-25T11:49:16Z</time>
      </trkpt>
      <trkpt lat="42.463736" lon="-8.644353">
        <ele>86.480</ele>
        <time>2018-08-25T11:49:19Z</time>
      </trkpt>
      <trkpt lat="42.463778" lon="-8.644378">
        <ele>86.644</ele>
        <time>2018-08-25T11:49:21Z</time>
      </trkpt>
      <trkpt lat="42.463818" lon="-8.644410">
        <ele>86.911</ele>
        <time>2018-08-25T11:49:23Z</time>
      </trkpt>
      <trkpt lat="42.463858" lon="-8.644448">
        <ele>87.629</ele>
        <time>2018-08-25T11:49:25Z</time>
      </trkpt>
      <trkpt lat="42.463899" lon="-8.644487">
        <ele>88.357</ele>
        <time>2018-08-25T11:49:27Z</time>
      </trkpt>
      <trkpt lat="42.463936" lon="-8.644526">
        <ele>89.027</ele>
        <time>2018-08-25T11:49:29Z</time>
      </trkpt>
      <trkpt lat="42.463984" lon="-8.644574">
        <ele>89.734</ele>
        <time>2018-08-25T11:49:32Z</time>
      </trkpt>
      <trkpt lat="42.464009" lon="-8.644629">
        <ele>90.155</ele>
        <time>2018-08-25T11:49:36Z</time>
      </trkpt>
      <trkpt lat="42.464021" lon="-8.644704">
        <ele>89.310</ele>
        <time>2018-08-25T11:49:41Z</time>
      </trkpt>
      <trkpt lat="42.464055" lon="-8.644834">
        <ele>87.808</ele>
        <time>2018-08-25T11:49:43Z</time>
      </trkpt>
      <trkpt lat="42.464073" lon="-8.644911">
        <ele>86.385</ele>
        <time>2018-08-25T11:49:45Z</time>
      </trkpt>
      <trkpt lat="42.464084" lon="-8.644981">
        <ele>85.291</ele>
        <time>2018-08-25T11:49:46Z</time>
      </trkpt>
      <trkpt lat="42.464102" lon="-8.645083">
        <ele>83.916</ele>
        <time>2018-08-25T11:49:48Z</time>
      </trkpt>
      <trkpt lat="42.464117" lon="-8.645158">
        <ele>82.750</ele>
        <time>2018-08-25T11:49:50Z</time>
      </trkpt>
      <trkpt lat="42.464136" lon="-8.645284">
        <ele>81.897</ele>
        <time>2018-08-25T11:49:52Z</time>
      </trkpt>
      <trkpt lat="42.464153" lon="-8.645349">
        <ele>81.185</ele>
        <time>2018-08-25T11:49:53Z</time>
      </trkpt>
      <trkpt lat="42.464172" lon="-8.645412">
        <ele>80.483</ele>
        <time>2018-08-25T11:49:54Z</time>
      </trkpt>
      <trkpt lat="42.464189" lon="-8.645473">
        <ele>79.473</ele>
        <time>2018-08-25T11:49:55Z</time>
      </trkpt>
      <trkpt lat="42.464207" lon="-8.645538">
        <ele>78.475</ele>
        <time>2018-08-25T11:49:56Z</time>
      </trkpt>
      <trkpt lat="42.464228" lon="-8.645605">
        <ele>77.428</ele>
        <time>2018-08-25T11:49:57Z</time>
      </trkpt>
      <trkpt lat="42.464252" lon="-8.645669">
        <ele>76.420</ele>
        <time>2018-08-25T11:49:58Z</time>
      </trkpt>
      <trkpt lat="42.464278" lon="-8.645728">
        <ele>75.508</ele>
        <time>2018-08-25T11:49:59Z</time>
      </trkpt>
      <trkpt lat="42.464309" lon="-8.645783">
        <ele>74.679</ele>
        <time>2018-08-25T11:50:00Z</time>
      </trkpt>
      <trkpt lat="42.464345" lon="-8.645827">
        <ele>73.715</ele>
        <time>2018-08-25T11:50:01Z</time>
      </trkpt>
      <trkpt lat="42.464388" lon="-8.645866">
        <ele>73.030</ele>
        <time>2018-08-25T11:50:02Z</time>
      </trkpt>
      <trkpt lat="42.464434" lon="-8.645901">
        <ele>72.494</ele>
        <time>2018-08-25T11:50:03Z</time>
      </trkpt>
      <trkpt lat="42.464477" lon="-8.645939">
        <ele>71.871</ele>
        <time>2018-08-25T11:50:04Z</time>
      </trkpt>
      <trkpt lat="42.464517" lon="-8.645977">
        <ele>71.359</ele>
        <time>2018-08-25T11:50:05Z</time>
      </trkpt>
      <trkpt lat="42.464592" lon="-8.646026">
        <ele>70.757</ele>
        <time>2018-08-25T11:50:07Z</time>
      </trkpt>
      <trkpt lat="42.464668" lon="-8.646049">
        <ele>70.587</ele>
        <time>2018-08-25T11:50:09Z</time>
      </trkpt>
      <trkpt lat="42.464724" lon="-8.646045">
        <ele>70.395</ele>
        <time>2018-08-25T11:50:11Z</time>
      </trkpt>
      <trkpt lat="42.464783" lon="-8.646027">
        <ele>70.049</ele>
        <time>2018-08-25T11:50:33Z</time>
      </trkpt>
      <trkpt lat="42.464878" lon="-8.646127">
        <ele>69.623</ele>
        <time>2018-08-25T11:50:38Z</time>
      </trkpt>
      <trkpt lat="42.464914" lon="-8.646237">
        <ele>69.408</ele>
        <time>2018-08-25T11:50:40Z</time>
      </trkpt>
      <trkpt lat="42.464938" lon="-8.646352">
        <ele>69.261</ele>
        <time>2018-08-25T11:50:42Z</time>
      </trkpt>
      <trkpt lat="42.464944" lon="-8.646415">
        <ele>69.017</ele>
        <time>2018-08-25T11:50:43Z</time>
      </trkpt>
      <trkpt lat="42.464931" lon="-8.646494">
        <ele>69.272</ele>
        <time>2018-08-25T11:50:44Z</time>
      </trkpt>
      <trkpt lat="42.464935" lon="-8.646564">
        <ele>69.956</ele>
        <time>2018-08-25T11:50:45Z</time>
      </trkpt>
      <trkpt lat="42.464982" lon="-8.646652">
        <ele>70.113</ele>
        <time>2018-08-25T11:50:47Z</time>
      </trkpt>
      <trkpt lat="42.465035" lon="-8.646733">
        <ele>69.561</ele>
        <time>2018-08-25T11:50:49Z</time>
      </trkpt>
      <trkpt lat="42.465082" lon="-8.646827">
        <ele>69.319</ele>
        <time>2018-08-25T11:50:51Z</time>
      </trkpt>
      <trkpt lat="42.465126" lon="-8.646921">
        <ele>69.019</ele>
        <time>2018-08-25T11:50:53Z</time>
      </trkpt>
      <trkpt lat="42.465167" lon="-8.647011">
        <ele>68.594</ele>
        <time>2018-08-25T11:50:55Z</time>
      </trkpt>
      <trkpt lat="42.465206" lon="-8.647105">
        <ele>68.057</ele>
        <time>2018-08-25T11:50:57Z</time>
      </trkpt>
      <trkpt lat="42.465248" lon="-8.647193">
        <ele>67.722</ele>
        <time>2018-08-25T11:50:59Z</time>
      </trkpt>
      <trkpt lat="42.465299" lon="-8.647271">
        <ele>67.708</ele>
        <time>2018-08-25T11:51:01Z</time>
      </trkpt>
      <trkpt lat="42.465360" lon="-8.647346">
        <ele>67.851</ele>
        <time>2018-08-25T11:51:03Z</time>
      </trkpt>
      <trkpt lat="42.465427" lon="-8.647418">
        <ele>68.037</ele>
        <time>2018-08-25T11:51:05Z</time>
      </trkpt>
      <trkpt lat="42.465480" lon="-8.647464">
        <ele>67.962</ele>
        <time>2018-08-25T11:51:07Z</time>
      </trkpt>
      <trkpt lat="42.465563" lon="-8.647525">
        <ele>67.926</ele>
        <time>2018-08-25T11:51:09Z</time>
      </trkpt>
      <trkpt lat="42.465634" lon="-8.647571">
        <ele>68.033</ele>
        <time>2018-08-25T11:51:11Z</time>
      </trkpt>
      <trkpt lat="42.465704" lon="-8.647616">
        <ele>68.291</ele>
        <time>2018-08-25T11:51:13Z</time>
      </trkpt>
      <trkpt lat="42.465760" lon="-8.647667">
        <ele>68.869</ele>
        <time>2018-08-25T11:51:16Z</time>
      </trkpt>
      <trkpt lat="42.465823" lon="-8.647719">
        <ele>69.349</ele>
        <time>2018-08-25T11:51:17Z</time>
      </trkpt>
      <trkpt lat="42.465885" lon="-8.647772">
        <ele>69.643</ele>
        <time>2018-08-25T11:51:19Z</time>
      </trkpt>
      <trkpt lat="42.465944" lon="-8.647838">
        <ele>69.964</ele>
        <time>2018-08-25T11:51:21Z</time>
      </trkpt>
      <trkpt lat="42.466011" lon="-8.647903">
        <ele>70.110</ele>
        <time>2018-08-25T11:51:23Z</time>
      </trkpt>
      <trkpt lat="42.466084" lon="-8.647955">
        <ele>70.008</ele>
        <time>2018-08-25T11:51:25Z</time>
      </trkpt>
      <trkpt lat="42.466159" lon="-8.648002">
        <ele>70.056</ele>
        <time>2018-08-25T11:51:27Z</time>
      </trkpt>
      <trkpt lat="42.466238" lon="-8.648035">
        <ele>70.092</ele>
        <time>2018-08-25T11:51:29Z</time>
      </trkpt>
      <trkpt lat="42.466319" lon="-8.648075">
        <ele>69.927</ele>
        <time>2018-08-25T11:51:31Z</time>
      </trkpt>
      <trkpt lat="42.466363" lon="-8.648089">
        <ele>69.711</ele>
        <time>2018-08-25T11:51:32Z</time>
      </trkpt>
      <trkpt lat="42.466407" lon="-8.648102">
        <ele>69.428</ele>
        <time>2018-08-25T11:51:33Z</time>
      </trkpt>
      <trkpt lat="42.466451" lon="-8.648120">
        <ele>69.236</ele>
        <time>2018-08-25T11:51:34Z</time>
      </trkpt>
      <trkpt lat="42.466494" lon="-8.648140">
        <ele>69.164</ele>
        <time>2018-08-25T11:51:35Z</time>
      </trkpt>
      <trkpt lat="42.466538" lon="-8.648157">
        <ele>69.024</ele>
        <time>2018-08-25T11:51:36Z</time>
      </trkpt>
      <trkpt lat="42.466583" lon="-8.648172">
        <ele>68.989</ele>
        <time>2018-08-25T11:51:37Z</time>
      </trkpt>
      <trkpt lat="42.466627" lon="-8.648189">
        <ele>68.806</ele>
        <time>2018-08-25T11:51:38Z</time>
      </trkpt>
      <trkpt lat="42.466671" lon="-8.648210">
        <ele>68.826</ele>
        <time>2018-08-25T11:51:39Z</time>
      </trkpt>
      <trkpt lat="42.466715" lon="-8.648232">
        <ele>68.808</ele>
        <time>2018-08-25T11:51:40Z</time>
      </trkpt>
      <trkpt lat="42.466759" lon="-8.648252">
        <ele>68.840</ele>
        <time>2018-08-25T11:51:41Z</time>
      </trkpt>
      <trkpt lat="42.466803" lon="-8.648271">
        <ele>68.826</ele>
        <time>2018-08-25T11:51:42Z</time>
      </trkpt>
      <trkpt lat="42.466887" lon="-8.648308">
        <ele>68.761</ele>
        <time>2018-08-25T11:51:44Z</time>
      </trkpt>
      <trkpt lat="42.466974" lon="-8.648336">
        <ele>68.685</ele>
        <time>2018-08-25T11:51:46Z</time>
      </trkpt>
      <trkpt lat="42.467060" lon="-8.648355">
        <ele>68.582</ele>
        <time>2018-08-25T11:51:48Z</time>
      </trkpt>
      <trkpt lat="42.467147" lon="-8.648371">
        <ele>68.480</ele>
        <time>2018-08-25T11:51:50Z</time>
      </trkpt>
      <trkpt lat="42.467239" lon="-8.648368">
        <ele>68.268</ele>
        <time>2018-08-25T11:51:52Z</time>
      </trkpt>
      <trkpt lat="42.467324" lon="-8.648360">
        <ele>67.998</ele>
        <time>2018-08-25T11:51:54Z</time>
      </trkpt>
      <trkpt lat="42.467407" lon="-8.648335">
        <ele>67.657</ele>
        <time>2018-08-25T11:51:56Z</time>
      </trkpt>
      <trkpt lat="42.467484" lon="-8.648301">
        <ele>67.100</ele>
        <time>2018-08-25T11:51:58Z</time>
      </trkpt>
      <trkpt lat="42.467561" lon="-8.648262">
        <ele>66.920</ele>
        <time>2018-08-25T11:52:00Z</time>
      </trkpt>
      <trkpt lat="42.467636" lon="-8.648224">
        <ele>66.908</ele>
        <time>2018-08-25T11:52:02Z</time>
      </trkpt>
      <trkpt lat="42.467714" lon="-8.648199">
        <ele>67.087</ele>
        <time>2018-08-25T11:52:04Z</time>
      </trkpt>
      <trkpt lat="42.467793" lon="-8.648186">
        <ele>67.293</ele>
        <time>2018-08-25T11:52:06Z</time>
      </trkpt>
      <trkpt lat="42.467871" lon="-8.648186">
        <ele>67.328</ele>
        <time>2018-08-25T11:52:08Z</time>
      </trkpt>
      <trkpt lat="42.467983" lon="-8.648204">
        <ele>67.382</ele>
        <time>2018-08-25T11:52:11Z</time>
      </trkpt>
      <trkpt lat="42.468046" lon="-8.648215">
        <ele>67.319</ele>
        <time>2018-08-25T11:52:13Z</time>
      </trkpt>
      <trkpt lat="42.468094" lon="-8.648223">
        <ele>68.367</ele>
        <time>2018-08-25T11:52:15Z</time>
      </trkpt>
      <trkpt lat="42.468147" lon="-8.648227">
        <ele>69.415</ele>
        <time>2018-08-25T11:52:17Z</time>
      </trkpt>
      <trkpt lat="42.468205" lon="-8.648232">
        <ele>70.515</ele>
        <time>2018-08-25T11:52:19Z</time>
      </trkpt>
      <trkpt lat="42.468269" lon="-8.648238">
        <ele>71.837</ele>
        <time>2018-08-25T11:52:21Z</time>
      </trkpt>
      <trkpt lat="42.468335" lon="-8.648242">
        <ele>73.049</ele>
        <time>2018-08-25T11:52:23Z</time>
      </trkpt>
      <trkpt lat="42.468403" lon="-8.648244">
        <ele>74.013</ele>
        <time>2018-08-25T11:52:25Z</time>
      </trkpt>
      <trkpt lat="42.468475" lon="-8.648244">
        <ele>75.008</ele>
        <time>2018-08-25T11:52:27Z</time>
      </trkpt>
      <trkpt lat="42.468546" lon="-8.648236">
        <ele>75.515</ele>
        <time>2018-08-25T11:52:29Z</time>
      </trkpt>
      <trkpt lat="42.468617" lon="-8.648226">
        <ele>75.921</ele>
        <time>2018-08-25T11:52:31Z</time>
      </trkpt>
      <trkpt lat="42.468690" lon="-8.648224">
        <ele>76.216</ele>
        <time>2018-08-25T11:52:33Z</time>
      </trkpt>
      <trkpt lat="42.468761" lon="-8.648227">
        <ele>76.580</ele>
        <time>2018-08-25T11:52:35Z</time>
      </trkpt>
      <trkpt lat="42.468823" lon="-8.648242">
        <ele>77.097</ele>
        <time>2018-08-25T11:52:37Z</time>
      </trkpt>
      <trkpt lat="42.468886" lon="-8.648265">
        <ele>77.525</ele>
        <time>2018-08-25T11:52:39Z</time>
      </trkpt>
      <trkpt lat="42.468951" lon="-8.648286">
        <ele>78.073</ele>
        <time>2018-08-25T11:52:41Z</time>
      </trkpt>
      <trkpt lat="42.469019" lon="-8.648314">
        <ele>78.243</ele>
        <time>2018-08-25T11:52:43Z</time>
      </trkpt>
      <trkpt lat="42.469079" lon="-8.648345">
        <ele>78.169</ele>
        <time>2018-08-25T11:52:45Z</time>
      </trkpt>
      <trkpt lat="42.469135" lon="-8.648375">
        <ele>78.004</ele>
        <time>2018-08-25T11:52:47Z</time>
      </trkpt>
      <trkpt lat="42.469186" lon="-8.648411">
        <ele>78.424</ele>
        <time>2018-08-25T11:52:49Z</time>
      </trkpt>
      <trkpt lat="42.469234" lon="-8.648445">
        <ele>78.208</ele>
        <time>2018-08-25T11:52:51Z</time>
      </trkpt>
      <trkpt lat="42.469290" lon="-8.648442">
        <ele>77.738</ele>
        <time>2018-08-25T11:52:53Z</time>
      </trkpt>
      <trkpt lat="42.469327" lon="-8.648407">
        <ele>77.144</ele>
        <time>2018-08-25T11:52:55Z</time>
      </trkpt>
      <trkpt lat="42.469362" lon="-8.648357">
        <ele>76.699</ele>
        <time>2018-08-25T11:52:58Z</time>
      </trkpt>
      <trkpt lat="42.469409" lon="-8.648355">
        <ele>76.713</ele>
        <time>2018-08-25T11:53:01Z</time>
      </trkpt>
      <trkpt lat="42.469465" lon="-8.648364">
        <ele>76.430</ele>
        <time>2018-08-25T11:53:04Z</time>
      </trkpt>
      <trkpt lat="42.469528" lon="-8.648376">
        <ele>76.218</ele>
        <time>2018-08-25T11:53:07Z</time>
      </trkpt>
      <trkpt lat="42.469591" lon="-8.648393">
        <ele>76.066</ele>
        <time>2018-08-25T11:53:10Z</time>
      </trkpt>
      <trkpt lat="42.469637" lon="-8.648401">
        <ele>75.856</ele>
        <time>2018-08-25T11:53:12Z</time>
      </trkpt>
      <trkpt lat="42.469687" lon="-8.648414">
        <ele>75.973</ele>
        <time>2018-08-25T11:53:14Z</time>
      </trkpt>
      <trkpt lat="42.469732" lon="-8.648421">
        <ele>75.985</ele>
        <time>2018-08-25T11:53:16Z</time>
      </trkpt>
      <trkpt lat="42.469780" lon="-8.648423">
        <ele>76.213</ele>
        <time>2018-08-25T11:53:18Z</time>
      </trkpt>
      <trkpt lat="42.469830" lon="-8.648425">
        <ele>76.508</ele>
        <time>2018-08-25T11:53:20Z</time>
      </trkpt>
      <trkpt lat="42.469880" lon="-8.648429">
        <ele>76.539</ele>
        <time>2018-08-25T11:53:22Z</time>
      </trkpt>
      <trkpt lat="42.469927" lon="-8.648433">
        <ele>76.585</ele>
        <time>2018-08-25T11:53:24Z</time>
      </trkpt>
      <trkpt lat="42.469973" lon="-8.648436">
        <ele>76.540</ele>
        <time>2018-08-25T11:53:26Z</time>
      </trkpt>
      <trkpt lat="42.470022" lon="-8.648442">
        <ele>76.584</ele>
        <time>2018-08-25T11:53:28Z</time>
      </trkpt>
      <trkpt lat="42.470071" lon="-8.648448">
        <ele>76.561</ele>
        <time>2018-08-25T11:53:30Z</time>
      </trkpt>
      <trkpt lat="42.470118" lon="-8.648452">
        <ele>76.639</ele>
        <time>2018-08-25T11:53:32Z</time>
      </trkpt>
      <trkpt lat="42.470167" lon="-8.648452">
        <ele>76.597</ele>
        <time>2018-08-25T11:53:34Z</time>
      </trkpt>
      <trkpt lat="42.470215" lon="-8.648450">
        <ele>76.537</ele>
        <time>2018-08-25T11:53:36Z</time>
      </trkpt>
      <trkpt lat="42.470264" lon="-8.648448">
        <ele>76.711</ele>
        <time>2018-08-25T11:53:38Z</time>
      </trkpt>
      <trkpt lat="42.470313" lon="-8.648443">
        <ele>77.321</ele>
        <time>2018-08-25T11:53:40Z</time>
      </trkpt>
      <trkpt lat="42.470363" lon="-8.648439">
        <ele>77.603</ele>
        <time>2018-08-25T11:53:42Z</time>
      </trkpt>
      <trkpt lat="42.470412" lon="-8.648435">
        <ele>77.708</ele>
        <time>2018-08-25T11:53:44Z</time>
      </trkpt>
      <trkpt lat="42.470459" lon="-8.648434">
        <ele>78.143</ele>
        <time>2018-08-25T11:53:46Z</time>
      </trkpt>
      <trkpt lat="42.470505" lon="-8.648435">
        <ele>78.469</ele>
        <time>2018-08-25T11:53:48Z</time>
      </trkpt>
      <trkpt lat="42.470550" lon="-8.648438">
        <ele>78.764</ele>
        <time>2018-08-25T11:53:50Z</time>
      </trkpt>
      <trkpt lat="42.470596" lon="-8.648443">
        <ele>79.168</ele>
        <time>2018-08-25T11:53:52Z</time>
      </trkpt>
      <trkpt lat="42.470642" lon="-8.648446">
        <ele>79.535</ele>
        <time>2018-08-25T11:53:54Z</time>
      </trkpt>
      <trkpt lat="42.470687" lon="-8.648445">
        <ele>79.943</ele>
        <time>2018-08-25T11:53:56Z</time>
      </trkpt>
      <trkpt lat="42.470732" lon="-8.648442">
        <ele>80.331</ele>
        <time>2018-08-25T11:53:58Z</time>
      </trkpt>
      <trkpt lat="42.470780" lon="-8.648442">
        <ele>80.591</ele>
        <time>2018-08-25T11:54:00Z</time>
      </trkpt>
      <trkpt lat="42.470827" lon="-8.648441">
        <ele>80.744</ele>
        <time>2018-08-25T11:54:02Z</time>
      </trkpt>
      <trkpt lat="42.470890" lon="-8.648428">
        <ele>80.805</ele>
        <time>2018-08-25T11:54:05Z</time>
      </trkpt>
      <trkpt lat="42.470954" lon="-8.648415">
        <ele>81.315</ele>
        <time>2018-08-25T11:54:08Z</time>
      </trkpt>
      <trkpt lat="42.471018" lon="-8.648410">
        <ele>81.808</ele>
        <time>2018-08-25T11:54:11Z</time>
      </trkpt>
      <trkpt lat="42.471080" lon="-8.648409">
        <ele>82.566</ele>
        <time>2018-08-25T11:54:14Z</time>
      </trkpt>
      <trkpt lat="42.471142" lon="-8.648405">
        <ele>82.832</ele>
        <time>2018-08-25T11:54:17Z</time>
      </trkpt>
      <trkpt lat="42.471201" lon="-8.648385">
        <ele>83.217</ele>
        <time>2018-08-25T11:54:20Z</time>
      </trkpt>
      <trkpt lat="42.471254" lon="-8.648362">
        <ele>83.541</ele>
        <time>2018-08-25T11:54:23Z</time>
      </trkpt>
      <trkpt lat="42.471303" lon="-8.648346">
        <ele>84.478</ele>
        <time>2018-08-25T11:54:26Z</time>
      </trkpt>
      <trkpt lat="42.471362" lon="-8.648351">
        <ele>85.466</ele>
        <time>2018-08-25T11:54:30Z</time>
      </trkpt>
      <trkpt lat="42.471407" lon="-8.648390">
        <ele>85.884</ele>
        <time>2018-08-25T11:54:33Z</time>
      </trkpt>
      <trkpt lat="42.471460" lon="-8.648447">
        <ele>85.944</ele>
        <time>2018-08-25T11:54:36Z</time>
      </trkpt>
      <trkpt lat="42.471496" lon="-8.648499">
        <ele>86.065</ele>
        <time>2018-08-25T11:54:38Z</time>
      </trkpt>
      <trkpt lat="42.471530" lon="-8.648551">
        <ele>85.968</ele>
        <time>2018-08-25T11:54:40Z</time>
      </trkpt>
      <trkpt lat="42.471567" lon="-8.648615">
        <ele>85.614</ele>
        <time>2018-08-25T11:54:43Z</time>
      </trkpt>
      <trkpt lat="42.471606" lon="-8.648669">
        <ele>85.308</ele>
        <time>2018-08-25T11:54:46Z</time>
      </trkpt>
      <trkpt lat="42.471648" lon="-8.648709">
        <ele>84.798</ele>
        <time>2018-08-25T11:54:49Z</time>
      </trkpt>
      <trkpt lat="42.471694" lon="-8.648747">
        <ele>84.054</ele>
        <time>2018-08-25T11:54:52Z</time>
      </trkpt>
      <trkpt lat="42.471756" lon="-8.648792">
        <ele>83.339</ele>
        <time>2018-08-25T11:54:55Z</time>
      </trkpt>
      <trkpt lat="42.471861" lon="-8.648856">
        <ele>82.933</ele>
        <time>2018-08-25T11:54:57Z</time>
      </trkpt>
      <trkpt lat="42.471938" lon="-8.648892">
        <ele>82.850</ele>
        <time>2018-08-25T11:54:59Z</time>
      </trkpt>
      <trkpt lat="42.471996" lon="-8.648912">
        <ele>83.158</ele>
        <time>2018-08-25T11:55:02Z</time>
      </trkpt>
      <trkpt lat="42.472062" lon="-8.648939">
        <ele>83.446</ele>
        <time>2018-08-25T11:55:05Z</time>
      </trkpt>
      <trkpt lat="42.472111" lon="-8.648962">
        <ele>83.796</ele>
        <time>2018-08-25T11:55:07Z</time>
      </trkpt>
      <trkpt lat="42.472164" lon="-8.648988">
        <ele>84.053</ele>
        <time>2018-08-25T11:55:09Z</time>
      </trkpt>
      <trkpt lat="42.472218" lon="-8.649018">
        <ele>84.304</ele>
        <time>2018-08-25T11:55:11Z</time>
      </trkpt>
      <trkpt lat="42.472273" lon="-8.649047">
        <ele>84.514</ele>
        <time>2018-08-25T11:55:13Z</time>
      </trkpt>
      <trkpt lat="42.472329" lon="-8.649072">
        <ele>84.708</ele>
        <time>2018-08-25T11:55:15Z</time>
      </trkpt>
      <trkpt lat="42.472384" lon="-8.649101">
        <ele>85.097</ele>
        <time>2018-08-25T11:55:17Z</time>
      </trkpt>
      <trkpt lat="42.472441" lon="-8.649133">
        <ele>85.423</ele>
        <time>2018-08-25T11:55:19Z</time>
      </trkpt>
      <trkpt lat="42.472500" lon="-8.649160">
        <ele>85.818</ele>
        <time>2018-08-25T11:55:21Z</time>
      </trkpt>
      <trkpt lat="42.472555" lon="-8.649182">
        <ele>86.292</ele>
        <time>2018-08-25T11:55:23Z</time>
      </trkpt>
      <trkpt lat="42.472612" lon="-8.649207">
        <ele>86.769</ele>
        <time>2018-08-25T11:55:25Z</time>
      </trkpt>
      <trkpt lat="42.472667" lon="-8.649231">
        <ele>87.287</ele>
        <time>2018-08-25T11:55:27Z</time>
      </trkpt>
      <trkpt lat="42.472720" lon="-8.649250">
        <ele>87.495</ele>
        <time>2018-08-25T11:55:29Z</time>
      </trkpt>
      <trkpt lat="42.472833" lon="-8.649282">
        <ele>87.565</ele>
        <time>2018-08-25T11:55:31Z</time>
      </trkpt>
      <trkpt lat="42.472906" lon="-8.649307">
        <ele>87.585</ele>
        <time>2018-08-25T11:55:33Z</time>
      </trkpt>
      <trkpt lat="42.472987" lon="-8.649337">
        <ele>87.489</ele>
        <time>2018-08-25T11:55:35Z</time>
      </trkpt>
      <trkpt lat="42.473047" lon="-8.649354">
        <ele>87.417</ele>
        <time>2018-08-25T11:55:37Z</time>
      </trkpt>
      <trkpt lat="42.473135" lon="-8.649374">
        <ele>87.308</ele>
        <time>2018-08-25T11:55:39Z</time>
      </trkpt>
      <trkpt lat="42.473197" lon="-8.649391">
        <ele>87.570</ele>
        <time>2018-08-25T11:55:42Z</time>
      </trkpt>
      <trkpt lat="42.473246" lon="-8.649410">
        <ele>87.766</ele>
        <time>2018-08-25T11:55:44Z</time>
      </trkpt>
      <trkpt lat="42.473296" lon="-8.649432">
        <ele>87.931</ele>
        <time>2018-08-25T11:55:46Z</time>
      </trkpt>
      <trkpt lat="42.473348" lon="-8.649457">
        <ele>88.055</ele>
        <time>2018-08-25T11:55:48Z</time>
      </trkpt>
      <trkpt lat="42.473398" lon="-8.649489">
        <ele>88.162</ele>
        <time>2018-08-25T11:55:50Z</time>
      </trkpt>
      <trkpt lat="42.473449" lon="-8.649527">
        <ele>88.410</ele>
        <time>2018-08-25T11:55:52Z</time>
      </trkpt>
      <trkpt lat="42.473499" lon="-8.649564">
        <ele>88.618</ele>
        <time>2018-08-25T11:55:54Z</time>
      </trkpt>
      <trkpt lat="42.473548" lon="-8.649597">
        <ele>88.988</ele>
        <time>2018-08-25T11:55:56Z</time>
      </trkpt>
      <trkpt lat="42.473597" lon="-8.649625">
        <ele>89.228</ele>
        <time>2018-08-25T11:55:58Z</time>
      </trkpt>
      <trkpt lat="42.473644" lon="-8.649640">
        <ele>89.689</ele>
        <time>2018-08-25T11:56:00Z</time>
      </trkpt>
      <trkpt lat="42.473692" lon="-8.649646">
        <ele>89.917</ele>
        <time>2018-08-25T11:56:02Z</time>
      </trkpt>
      <trkpt lat="42.473744" lon="-8.649642">
        <ele>90.108</ele>
        <time>2018-08-25T11:56:04Z</time>
      </trkpt>
      <trkpt lat="42.473796" lon="-8.649629">
        <ele>90.134</ele>
        <time>2018-08-25T11:56:06Z</time>
      </trkpt>
      <trkpt lat="42.473847" lon="-8.649617">
        <ele>90.170</ele>
        <time>2018-08-25T11:56:08Z</time>
      </trkpt>
      <trkpt lat="42.473898" lon="-8.649608">
        <ele>90.015</ele>
        <time>2018-08-25T11:56:10Z</time>
      </trkpt>
      <trkpt lat="42.473960" lon="-8.649585">
        <ele>90.139</ele>
        <time>2018-08-25T11:56:13Z</time>
      </trkpt>
      <trkpt lat="42.474023" lon="-8.649563">
        <ele>90.086</ele>
        <time>2018-08-25T11:56:16Z</time>
      </trkpt>
      <trkpt lat="42.474069" lon="-8.649559">
        <ele>90.154</ele>
        <time>2018-08-25T11:56:18Z</time>
      </trkpt>
      <trkpt lat="42.474120" lon="-8.649558">
        <ele>90.132</ele>
        <time>2018-08-25T11:56:20Z</time>
      </trkpt>
      <trkpt lat="42.474168" lon="-8.649561">
        <ele>90.182</ele>
        <time>2018-08-25T11:56:22Z</time>
      </trkpt>
      <trkpt lat="42.474215" lon="-8.649569">
        <ele>90.137</ele>
        <time>2018-08-25T11:56:24Z</time>
      </trkpt>
      <trkpt lat="42.474263" lon="-8.649589">
        <ele>90.149</ele>
        <time>2018-08-25T11:56:26Z</time>
      </trkpt>
      <trkpt lat="42.474313" lon="-8.649616">
        <ele>90.113</ele>
        <time>2018-08-25T11:56:28Z</time>
      </trkpt>
      <trkpt lat="42.474366" lon="-8.649651">
        <ele>90.308</ele>
        <time>2018-08-25T11:56:30Z</time>
      </trkpt>
      <trkpt lat="42.474424" lon="-8.649691">
        <ele>90.665</ele>
        <time>2018-08-25T11:56:32Z</time>
      </trkpt>
      <trkpt lat="42.474519" lon="-8.649755">
        <ele>90.721</ele>
        <time>2018-08-25T11:56:33Z</time>
      </trkpt>
      <trkpt lat="42.474596" lon="-8.649806">
        <ele>90.736</ele>
        <time>2018-08-25T11:56:35Z</time>
      </trkpt>
      <trkpt lat="42.474642" lon="-8.649829">
        <ele>90.790</ele>
        <time>2018-08-25T11:56:36Z</time>
      </trkpt>
      <trkpt lat="42.474688" lon="-8.649846">
        <ele>90.877</ele>
        <time>2018-08-25T11:56:37Z</time>
      </trkpt>
      <trkpt lat="42.474734" lon="-8.649856">
        <ele>90.875</ele>
        <time>2018-08-25T11:56:38Z</time>
      </trkpt>
      <trkpt lat="42.474817" lon="-8.649878">
        <ele>90.673</ele>
        <time>2018-08-25T11:56:40Z</time>
      </trkpt>
      <trkpt lat="42.474900" lon="-8.649897">
        <ele>90.333</ele>
        <time>2018-08-25T11:56:42Z</time>
      </trkpt>
      <trkpt lat="42.474958" lon="-8.649905">
        <ele>89.988</ele>
        <time>2018-08-25T11:56:44Z</time>
      </trkpt>
      <trkpt lat="42.475020" lon="-8.649905">
        <ele>89.224</ele>
        <time>2018-08-25T11:56:47Z</time>
      </trkpt>
      <trkpt lat="42.475083" lon="-8.649910">
        <ele>87.926</ele>
        <time>2018-08-25T11:56:50Z</time>
      </trkpt>
      <trkpt lat="42.475147" lon="-8.649922">
        <ele>86.308</ele>
        <time>2018-08-25T11:56:53Z</time>
      </trkpt>
      <trkpt lat="42.475195" lon="-8.649943">
        <ele>84.940</ele>
        <time>2018-08-25T11:56:55Z</time>
      </trkpt>
      <trkpt lat="42.475246" lon="-8.649963">
        <ele>83.926</ele>
        <time>2018-08-25T11:56:57Z</time>
      </trkpt>
      <trkpt lat="42.475296" lon="-8.649978">
        <ele>83.151</ele>
        <time>2018-08-25T11:56:59Z</time>
      </trkpt>
      <trkpt lat="42.475350" lon="-8.649995">
        <ele>82.245</ele>
        <time>2018-08-25T11:57:01Z</time>
      </trkpt>
      <trkpt lat="42.475406" lon="-8.650011">
        <ele>80.942</ele>
        <time>2018-08-25T11:57:03Z</time>
      </trkpt>
      <trkpt lat="42.475471" lon="-8.650019">
        <ele>79.630</ele>
        <time>2018-08-25T11:57:05Z</time>
      </trkpt>
      <trkpt lat="42.475539" lon="-8.650023">
        <ele>78.468</ele>
        <time>2018-08-25T11:57:07Z</time>
      </trkpt>
      <trkpt lat="42.475616" lon="-8.650028">
        <ele>77.938</ele>
        <time>2018-08-25T11:57:09Z</time>
      </trkpt>
      <trkpt lat="42.475694" lon="-8.650037">
        <ele>77.275</ele>
        <time>2018-08-25T11:57:11Z</time>
      </trkpt>
      <trkpt lat="42.475768" lon="-8.650046">
        <ele>76.428</ele>
        <time>2018-08-25T11:57:13Z</time>
      </trkpt>
      <trkpt lat="42.475848" lon="-8.650048">
        <ele>75.520</ele>
        <time>2018-08-25T11:57:15Z</time>
      </trkpt>
      <trkpt lat="42.476021" lon="-8.650049">
        <ele>74.608</ele>
        <time>2018-08-25T11:57:17Z</time>
      </trkpt>
      <trkpt lat="42.476066" lon="-8.650047">
        <ele>73.969</ele>
        <time>2018-08-25T11:57:18Z</time>
      </trkpt>
      <trkpt lat="42.476115" lon="-8.650050">
        <ele>73.525</ele>
        <time>2018-08-25T11:57:19Z</time>
      </trkpt>
      <trkpt lat="42.476161" lon="-8.650050">
        <ele>73.150</ele>
        <time>2018-08-25T11:57:20Z</time>
      </trkpt>
      <trkpt lat="42.476206" lon="-8.650046">
        <ele>72.484</ele>
        <time>2018-08-25T11:57:21Z</time>
      </trkpt>
      <trkpt lat="42.476254" lon="-8.650039">
        <ele>71.771</ele>
        <time>2018-08-25T11:57:22Z</time>
      </trkpt>
      <trkpt lat="42.476302" lon="-8.650037">
        <ele>70.959</ele>
        <time>2018-08-25T11:57:23Z</time>
      </trkpt>
      <trkpt lat="42.476349" lon="-8.650041">
        <ele>70.427</ele>
        <time>2018-08-25T11:57:24Z</time>
      </trkpt>
      <trkpt lat="42.476431" lon="-8.650063">
        <ele>69.937</ele>
        <time>2018-08-25T11:57:26Z</time>
      </trkpt>
      <trkpt lat="42.476509" lon="-8.650084">
        <ele>69.217</ele>
        <time>2018-08-25T11:57:28Z</time>
      </trkpt>
      <trkpt lat="42.476558" lon="-8.650095">
        <ele>68.987</ele>
        <time>2018-08-25T11:57:29Z</time>
      </trkpt>
      <trkpt lat="42.476605" lon="-8.650109">
        <ele>68.815</ele>
        <time>2018-08-25T11:57:30Z</time>
      </trkpt>
      <trkpt lat="42.476649" lon="-8.650128">
        <ele>68.508</ele>
        <time>2018-08-25T11:57:31Z</time>
      </trkpt>
      <trkpt lat="42.476698" lon="-8.650145">
        <ele>68.723</ele>
        <time>2018-08-25T11:57:32Z</time>
      </trkpt>
      <trkpt lat="42.476744" lon="-8.650165">
        <ele>69.419</ele>
        <time>2018-08-25T11:57:33Z</time>
      </trkpt>
      <trkpt lat="42.476790" lon="-8.650191">
        <ele>69.444</ele>
        <time>2018-08-25T11:57:34Z</time>
      </trkpt>
      <trkpt lat="42.476835" lon="-8.650220">
        <ele>69.478</ele>
        <time>2018-08-25T11:57:35Z</time>
      </trkpt>
      <trkpt lat="42.476878" lon="-8.650249">
        <ele>69.555</ele>
        <time>2018-08-25T11:57:36Z</time>
      </trkpt>
      <trkpt lat="42.476919" lon="-8.650283">
        <ele>69.773</ele>
        <time>2018-08-25T11:57:37Z</time>
      </trkpt>
      <trkpt lat="42.476955" lon="-8.650323">
        <ele>70.471</ele>
        <time>2018-08-25T11:57:38Z</time>
      </trkpt>
      <trkpt lat="42.477022" lon="-8.650398">
        <ele>70.941</ele>
        <time>2018-08-25T11:57:40Z</time>
      </trkpt>
      <trkpt lat="42.477091" lon="-8.650451">
        <ele>71.545</ele>
        <time>2018-08-25T11:57:42Z</time>
      </trkpt>
      <trkpt lat="42.477165" lon="-8.650494">
        <ele>71.947</ele>
        <time>2018-08-25T11:57:44Z</time>
      </trkpt>
      <trkpt lat="42.477242" lon="-8.650514">
        <ele>72.111</ele>
        <time>2018-08-25T11:57:46Z</time>
      </trkpt>
      <trkpt lat="42.477318" lon="-8.650531">
        <ele>72.008</ele>
        <time>2018-08-25T11:57:48Z</time>
      </trkpt>
      <trkpt lat="42.477421" lon="-8.650545">
        <ele>72.886</ele>
        <time>2018-08-25T11:57:51Z</time>
      </trkpt>
      <trkpt lat="42.477482" lon="-8.650543">
        <ele>74.022</ele>
        <time>2018-08-25T11:57:54Z</time>
      </trkpt>
      <trkpt lat="42.477550" lon="-8.650553">
        <ele>74.577</ele>
        <time>2018-08-25T11:57:57Z</time>
      </trkpt>
      <trkpt lat="42.477604" lon="-8.650562">
        <ele>75.011</ele>
        <time>2018-08-25T11:57:59Z</time>
      </trkpt>
      <trkpt lat="42.477664" lon="-8.650572">
        <ele>76.088</ele>
        <time>2018-08-25T11:58:01Z</time>
      </trkpt>
      <trkpt lat="42.477733" lon="-8.650587">
        <ele>77.646</ele>
        <time>2018-08-25T11:58:03Z</time>
      </trkpt>
      <trkpt lat="42.477825" lon="-8.650612">
        <ele>78.764</ele>
        <time>2018-08-25T11:58:04Z</time>
      </trkpt>
      <trkpt lat="42.477889" lon="-8.650645">
        <ele>80.164</ele>
        <time>2018-08-25T11:58:07Z</time>
      </trkpt>
      <trkpt lat="42.477941" lon="-8.650665">
        <ele>81.252</ele>
        <time>2018-08-25T11:58:09Z</time>
      </trkpt>
      <trkpt lat="42.478001" lon="-8.650683">
        <ele>82.353</ele>
        <time>2018-08-25T11:58:11Z</time>
      </trkpt>
      <trkpt lat="42.478063" lon="-8.650697">
        <ele>83.608</ele>
        <time>2018-08-25T11:58:13Z</time>
      </trkpt>
      <trkpt lat="42.478132" lon="-8.650708">
        <ele>85.008</ele>
        <time>2018-08-25T11:58:15Z</time>
      </trkpt>
      <trkpt lat="42.478235" lon="-8.650731">
        <ele>85.947</ele>
        <time>2018-08-25T11:58:16Z</time>
      </trkpt>
      <trkpt lat="42.478314" lon="-8.650757">
        <ele>86.893</ele>
        <time>2018-08-25T11:58:18Z</time>
      </trkpt>
      <trkpt lat="42.478376" lon="-8.650793">
        <ele>87.838</ele>
        <time>2018-08-25T11:58:21Z</time>
      </trkpt>
      <trkpt lat="42.478427" lon="-8.650814">
        <ele>88.522</ele>
        <time>2018-08-25T11:58:23Z</time>
      </trkpt>
      <trkpt lat="42.478482" lon="-8.650829">
        <ele>88.939</ele>
        <time>2018-08-25T11:58:25Z</time>
      </trkpt>
      <trkpt lat="42.478539" lon="-8.650839">
        <ele>89.067</ele>
        <time>2018-08-25T11:58:27Z</time>
      </trkpt>
      <trkpt lat="42.478600" lon="-8.650844">
        <ele>88.925</ele>
        <time>2018-08-25T11:58:29Z</time>
      </trkpt>
      <trkpt lat="42.478664" lon="-8.650843">
        <ele>88.945</ele>
        <time>2018-08-25T11:58:31Z</time>
      </trkpt>
      <trkpt lat="42.478730" lon="-8.650847">
        <ele>89.061</ele>
        <time>2018-08-25T11:58:33Z</time>
      </trkpt>
      <trkpt lat="42.478796" lon="-8.650857">
        <ele>89.121</ele>
        <time>2018-08-25T11:58:35Z</time>
      </trkpt>
      <trkpt lat="42.478862" lon="-8.650873">
        <ele>89.213</ele>
        <time>2018-08-25T11:58:37Z</time>
      </trkpt>
      <trkpt lat="42.478928" lon="-8.650889">
        <ele>89.408</ele>
        <time>2018-08-25T11:58:39Z</time>
      </trkpt>
      <trkpt lat="42.478999" lon="-8.650904">
        <ele>89.638</ele>
        <time>2018-08-25T11:58:41Z</time>
      </trkpt>
      <trkpt lat="42.479142" lon="-8.650940">
        <ele>89.744</ele>
        <time>2018-08-25T11:58:43Z</time>
      </trkpt>
      <trkpt lat="42.479186" lon="-8.650951">
        <ele>89.989</ele>
        <time>2018-08-25T11:58:44Z</time>
      </trkpt>
      <trkpt lat="42.479267" lon="-8.650975">
        <ele>90.383</ele>
        <time>2018-08-25T11:58:46Z</time>
      </trkpt>
      <trkpt lat="42.479344" lon="-8.651013">
        <ele>90.680</ele>
        <time>2018-08-25T11:58:48Z</time>
      </trkpt>
      <trkpt lat="42.479417" lon="-8.651056">
        <ele>91.268</ele>
        <time>2018-08-25T11:58:50Z</time>
      </trkpt>
      <trkpt lat="42.479490" lon="-8.651083">
        <ele>91.676</ele>
        <time>2018-08-25T11:58:52Z</time>
      </trkpt>
      <trkpt lat="42.479558" lon="-8.651120">
        <ele>91.936</ele>
        <time>2018-08-25T11:58:54Z</time>
      </trkpt>
      <trkpt lat="42.479615" lon="-8.651157">
        <ele>92.393</ele>
        <time>2018-08-25T11:58:57Z</time>
      </trkpt>
      <trkpt lat="42.479663" lon="-8.651178">
        <ele>92.765</ele>
        <time>2018-08-25T11:58:59Z</time>
      </trkpt>
      <trkpt lat="42.479716" lon="-8.651196">
        <ele>93.021</ele>
        <time>2018-08-25T11:59:01Z</time>
      </trkpt>
      <trkpt lat="42.479773" lon="-8.651212">
        <ele>93.108</ele>
        <time>2018-08-25T11:59:03Z</time>
      </trkpt>
      <trkpt lat="42.479835" lon="-8.651224">
        <ele>93.221</ele>
        <time>2018-08-25T11:59:05Z</time>
      </trkpt>
      <trkpt lat="42.479898" lon="-8.651230">
        <ele>92.877</ele>
        <time>2018-08-25T11:59:07Z</time>
      </trkpt>
      <trkpt lat="42.479957" lon="-8.651228">
        <ele>92.822</ele>
        <time>2018-08-25T11:59:09Z</time>
      </trkpt>
      <trkpt lat="42.480010" lon="-8.651216">
        <ele>92.436</ele>
        <time>2018-08-25T11:59:11Z</time>
      </trkpt>
      <trkpt lat="42.480061" lon="-8.651199">
        <ele>91.933</ele>
        <time>2018-08-25T11:59:13Z</time>
      </trkpt>
      <trkpt lat="42.480111" lon="-8.651188">
        <ele>91.551</ele>
        <time>2018-08-25T11:59:15Z</time>
      </trkpt>
      <trkpt lat="42.480164" lon="-8.651174">
        <ele>91.089</ele>
        <time>2018-08-25T11:59:17Z</time>
      </trkpt>
      <trkpt lat="42.480280" lon="-8.651111">
        <ele>90.549</ele>
        <time>2018-08-25T11:59:19Z</time>
      </trkpt>
      <trkpt lat="42.480362" lon="-8.651051">
        <ele>90.056</ele>
        <time>2018-08-25T11:59:21Z</time>
      </trkpt>
      <trkpt lat="42.480403" lon="-8.651022">
        <ele>89.159</ele>
        <time>2018-08-25T11:59:23Z</time>
      </trkpt>
      <trkpt lat="42.480448" lon="-8.650987">
        <ele>88.214</ele>
        <time>2018-08-25T11:59:25Z</time>
      </trkpt>
      <trkpt lat="42.480503" lon="-8.650940">
        <ele>87.308</ele>
        <time>2018-08-25T11:59:27Z</time>
      </trkpt>
      <trkpt lat="42.480567" lon="-8.650888">
        <ele>86.437</ele>
        <time>2018-08-25T11:59:29Z</time>
      </trkpt>
      <trkpt lat="42.480626" lon="-8.650837">
        <ele>85.423</ele>
        <time>2018-08-25T11:59:31Z</time>
      </trkpt>
      <trkpt lat="42.480669" lon="-8.650797">
        <ele>84.388</ele>
        <time>2018-08-25T11:59:33Z</time>
      </trkpt>
      <trkpt lat="42.480714" lon="-8.650763">
        <ele>83.392</ele>
        <time>2018-08-25T11:59:35Z</time>
      </trkpt>
      <trkpt lat="42.480771" lon="-8.650733">
        <ele>81.919</ele>
        <time>2018-08-25T11:59:38Z</time>
      </trkpt>
      <trkpt lat="42.480822" lon="-8.650719">
        <ele>81.097</ele>
        <time>2018-08-25T11:59:40Z</time>
      </trkpt>
      <trkpt lat="42.480879" lon="-8.650714">
        <ele>80.235</ele>
        <time>2018-08-25T11:59:42Z</time>
      </trkpt>
      <trkpt lat="42.480930" lon="-8.650724">
        <ele>79.065</ele>
        <time>2018-08-25T11:59:44Z</time>
      </trkpt>
      <trkpt lat="42.480994" lon="-8.650752">
        <ele>78.135</ele>
        <time>2018-08-25T11:59:46Z</time>
      </trkpt>
      <trkpt lat="42.481126" lon="-8.650788">
        <ele>77.586</ele>
        <time>2018-08-25T11:59:48Z</time>
      </trkpt>
      <trkpt lat="42.481192" lon="-8.650794">
        <ele>77.014</ele>
        <time>2018-08-25T11:59:51Z</time>
      </trkpt>
      <trkpt lat="42.481249" lon="-8.650796">
        <ele>76.508</ele>
        <time>2018-08-25T11:59:53Z</time>
      </trkpt>
      <trkpt lat="42.481306" lon="-8.650807">
        <ele>76.315</ele>
        <time>2018-08-25T11:59:55Z</time>
      </trkpt>
      <trkpt lat="42.481358" lon="-8.650826">
        <ele>76.071</ele>
        <time>2018-08-25T11:59:57Z</time>
      </trkpt>
      <trkpt lat="42.481403" lon="-8.650846">
        <ele>75.826</ele>
        <time>2018-08-25T11:59:59Z</time>
      </trkpt>
      <trkpt lat="42.481468" lon="-8.650860">
        <ele>74.880</ele>
        <time>2018-08-25T12:00:02Z</time>
      </trkpt>
      <trkpt lat="42.481534" lon="-8.650864">
        <ele>73.497</ele>
        <time>2018-08-25T12:00:05Z</time>
      </trkpt>
      <trkpt lat="42.481580" lon="-8.650873">
        <ele>72.545</ele>
        <time>2018-08-25T12:00:07Z</time>
      </trkpt>
      <trkpt lat="42.481627" lon="-8.650892">
        <ele>71.893</ele>
        <time>2018-08-25T12:00:09Z</time>
      </trkpt>
      <trkpt lat="42.481674" lon="-8.650916">
        <ele>71.683</ele>
        <time>2018-08-25T12:00:11Z</time>
      </trkpt>
      <trkpt lat="42.481726" lon="-8.650934">
        <ele>71.835</ele>
        <time>2018-08-25T12:00:13Z</time>
      </trkpt>
      <trkpt lat="42.481778" lon="-8.650948">
        <ele>71.686</ele>
        <time>2018-08-25T12:00:15Z</time>
      </trkpt>
      <trkpt lat="42.481829" lon="-8.650961">
        <ele>70.914</ele>
        <time>2018-08-25T12:00:17Z</time>
      </trkpt>
      <trkpt lat="42.481875" lon="-8.650976">
        <ele>70.208</ele>
        <time>2018-08-25T12:00:19Z</time>
      </trkpt>
      <trkpt lat="42.481920" lon="-8.650989">
        <ele>69.725</ele>
        <time>2018-08-25T12:00:21Z</time>
      </trkpt>
      <trkpt lat="42.481968" lon="-8.650999">
        <ele>69.611</ele>
        <time>2018-08-25T12:00:23Z</time>
      </trkpt>
      <trkpt lat="42.482018" lon="-8.651006">
        <ele>69.976</ele>
        <time>2018-08-25T12:00:25Z</time>
      </trkpt>
      <trkpt lat="42.482076" lon="-8.651008">
        <ele>70.340</ele>
        <time>2018-08-25T12:00:27Z</time>
      </trkpt>
      <trkpt lat="42.482135" lon="-8.651008">
        <ele>70.977</ele>
        <time>2018-08-25T12:00:29Z</time>
      </trkpt>
      <trkpt lat="42.482195" lon="-8.651005">
        <ele>71.215</ele>
        <time>2018-08-25T12:00:31Z</time>
      </trkpt>
      <trkpt lat="42.482252" lon="-8.650999">
        <ele>71.273</ele>
        <time>2018-08-25T12:00:33Z</time>
      </trkpt>
      <trkpt lat="42.482304" lon="-8.650994">
        <ele>71.153</ele>
        <time>2018-08-25T12:00:35Z</time>
      </trkpt>
      <trkpt lat="42.482353" lon="-8.650992">
        <ele>70.983</ele>
        <time>2018-08-25T12:00:37Z</time>
      </trkpt>
      <trkpt lat="42.482400" lon="-8.650993">
        <ele>70.925</ele>
        <time>2018-08-25T12:00:39Z</time>
      </trkpt>
      <trkpt lat="42.482447" lon="-8.650991">
        <ele>71.217</ele>
        <time>2018-08-25T12:00:41Z</time>
      </trkpt>
      <trkpt lat="42.482494" lon="-8.650990">
        <ele>71.908</ele>
        <time>2018-08-25T12:00:43Z</time>
      </trkpt>
      <trkpt lat="42.482545" lon="-8.650982">
        <ele>73.350</ele>
        <time>2018-08-25T12:00:45Z</time>
      </trkpt>
      <trkpt lat="42.482602" lon="-8.650971">
        <ele>75.236</ele>
        <time>2018-08-25T12:00:47Z</time>
      </trkpt>
      <trkpt lat="42.482660" lon="-8.650961">
        <ele>77.411</ele>
        <time>2018-08-25T12:00:49Z</time>
      </trkpt>
      <trkpt lat="42.482716" lon="-8.650949">
        <ele>79.325</ele>
        <time>2018-08-25T12:00:51Z</time>
      </trkpt>
      <trkpt lat="42.482771" lon="-8.650938">
        <ele>80.932</ele>
        <time>2018-08-25T12:00:53Z</time>
      </trkpt>
      <trkpt lat="42.482823" lon="-8.650927">
        <ele>82.180</ele>
        <time>2018-08-25T12:00:55Z</time>
      </trkpt>
      <trkpt lat="42.482875" lon="-8.650915">
        <ele>83.468</ele>
        <time>2018-08-25T12:00:57Z</time>
      </trkpt>
      <trkpt lat="42.482928" lon="-8.650904">
        <ele>85.158</ele>
        <time>2018-08-25T12:00:59Z</time>
      </trkpt>
      <trkpt lat="42.482983" lon="-8.650896">
        <ele>86.398</ele>
        <time>2018-08-25T12:01:01Z</time>
      </trkpt>
      <trkpt lat="42.483041" lon="-8.650895">
        <ele>87.515</ele>
        <time>2018-08-25T12:01:03Z</time>
      </trkpt>
      <trkpt lat="42.483097" lon="-8.650897">
        <ele>88.526</ele>
        <time>2018-08-25T12:01:05Z</time>
      </trkpt>
      <trkpt lat="42.483150" lon="-8.650900">
        <ele>89.208</ele>
        <time>2018-08-25T12:01:07Z</time>
      </trkpt>
      <trkpt lat="42.483203" lon="-8.650904">
        <ele>89.841</ele>
        <time>2018-08-25T12:01:09Z</time>
      </trkpt>
      <trkpt lat="42.483254" lon="-8.650902">
        <ele>90.347</ele>
        <time>2018-08-25T12:01:11Z</time>
      </trkpt>
      <trkpt lat="42.483306" lon="-8.650898">
        <ele>90.642</ele>
        <time>2018-08-25T12:01:13Z</time>
      </trkpt>
      <trkpt lat="42.483371" lon="-8.650887">
        <ele>90.616</ele>
        <time>2018-08-25T12:01:16Z</time>
      </trkpt>
      <trkpt lat="42.483435" lon="-8.650878">
        <ele>90.313</ele>
        <time>2018-08-25T12:01:19Z</time>
      </trkpt>
      <trkpt lat="42.483483" lon="-8.650869">
        <ele>90.271</ele>
        <time>2018-08-25T12:01:21Z</time>
      </trkpt>
      <trkpt lat="42.483532" lon="-8.650861">
        <ele>90.229</ele>
        <time>2018-08-25T12:01:23Z</time>
      </trkpt>
      <trkpt lat="42.483588" lon="-8.650850">
        <ele>90.289</ele>
        <time>2018-08-25T12:01:25Z</time>
      </trkpt>
      <trkpt lat="42.483644" lon="-8.650841">
        <ele>90.316</ele>
        <time>2018-08-25T12:01:27Z</time>
      </trkpt>
      <trkpt lat="42.483696" lon="-8.650827">
        <ele>90.676</ele>
        <time>2018-08-25T12:01:29Z</time>
      </trkpt>
      <trkpt lat="42.483747" lon="-8.650809">
        <ele>91.613</ele>
        <time>2018-08-25T12:01:31Z</time>
      </trkpt>
      <trkpt lat="42.483794" lon="-8.650790">
        <ele>91.808</ele>
        <time>2018-08-25T12:01:33Z</time>
      </trkpt>
      <trkpt lat="42.483847" lon="-8.650783">
        <ele>92.213</ele>
        <time>2018-08-25T12:01:35Z</time>
      </trkpt>
      <trkpt lat="42.483904" lon="-8.650785">
        <ele>92.839</ele>
        <time>2018-08-25T12:01:37Z</time>
      </trkpt>
      <trkpt lat="42.483960" lon="-8.650788">
        <ele>93.294</ele>
        <time>2018-08-25T12:01:39Z</time>
      </trkpt>
      <trkpt lat="42.484016" lon="-8.650793">
        <ele>93.638</ele>
        <time>2018-08-25T12:01:41Z</time>
      </trkpt>
      <trkpt lat="42.484069" lon="-8.650797">
        <ele>94.175</ele>
        <time>2018-08-25T12:01:43Z</time>
      </trkpt>
      <trkpt lat="42.484126" lon="-8.650799">
        <ele>94.513</ele>
        <time>2018-08-25T12:01:45Z</time>
      </trkpt>
      <trkpt lat="42.484186" lon="-8.650799">
        <ele>94.851</ele>
        <time>2018-08-25T12:01:47Z</time>
      </trkpt>
      <trkpt lat="42.484243" lon="-8.650793">
        <ele>94.981</ele>
        <time>2018-08-25T12:01:49Z</time>
      </trkpt>
      <trkpt lat="42.484295" lon="-8.650792">
        <ele>95.228</ele>
        <time>2018-08-25T12:01:51Z</time>
      </trkpt>
      <trkpt lat="42.484347" lon="-8.650791">
        <ele>95.489</ele>
        <time>2018-08-25T12:01:53Z</time>
      </trkpt>
      <trkpt lat="42.484403" lon="-8.650791">
        <ele>95.517</ele>
        <time>2018-08-25T12:01:55Z</time>
      </trkpt>
      <trkpt lat="42.484461" lon="-8.650793">
        <ele>95.608</ele>
        <time>2018-08-25T12:01:57Z</time>
      </trkpt>
      <trkpt lat="42.484528" lon="-8.650802">
        <ele>96.044</ele>
        <time>2018-08-25T12:01:59Z</time>
      </trkpt>
      <trkpt lat="42.484594" lon="-8.650809">
        <ele>96.690</ele>
        <time>2018-08-25T12:02:01Z</time>
      </trkpt>
      <trkpt lat="42.484655" lon="-8.650807">
        <ele>97.175</ele>
        <time>2018-08-25T12:02:03Z</time>
      </trkpt>
      <trkpt lat="42.484711" lon="-8.650797">
        <ele>97.359</ele>
        <time>2018-08-25T12:02:05Z</time>
      </trkpt>
      <trkpt lat="42.484766" lon="-8.650783">
        <ele>97.676</ele>
        <time>2018-08-25T12:02:07Z</time>
      </trkpt>
      <trkpt lat="42.484823" lon="-8.650772">
        <ele>97.964</ele>
        <time>2018-08-25T12:02:09Z</time>
      </trkpt>
      <trkpt lat="42.484878" lon="-8.650763">
        <ele>97.792</ele>
        <time>2018-08-25T12:02:11Z</time>
      </trkpt>
      <trkpt lat="42.484933" lon="-8.650751">
        <ele>97.952</ele>
        <time>2018-08-25T12:02:13Z</time>
      </trkpt>
      <trkpt lat="42.484982" lon="-8.650733">
        <ele>98.183</ele>
        <time>2018-08-25T12:02:15Z</time>
      </trkpt>
      <trkpt lat="42.485026" lon="-8.650716">
        <ele>98.425</ele>
        <time>2018-08-25T12:02:17Z</time>
      </trkpt>
      <trkpt lat="42.485071" lon="-8.650706">
        <ele>98.917</ele>
        <time>2018-08-25T12:02:19Z</time>
      </trkpt>
      <trkpt lat="42.485116" lon="-8.650691">
        <ele>99.408</ele>
        <time>2018-08-25T12:02:21Z</time>
      </trkpt>
      <trkpt lat="42.485161" lon="-8.650675">
        <ele>99.950</ele>
        <time>2018-08-25T12:02:23Z</time>
      </trkpt>
      <trkpt lat="42.485226" lon="-8.650660">
        <ele>100.516</ele>
        <time>2018-08-25T12:02:26Z</time>
      </trkpt>
      <trkpt lat="42.485285" lon="-8.650653">
        <ele>101.131</ele>
        <time>2018-08-25T12:02:29Z</time>
      </trkpt>
      <trkpt lat="42.485348" lon="-8.650648">
        <ele>101.795</ele>
        <time>2018-08-25T12:02:32Z</time>
      </trkpt>
      <trkpt lat="42.485403" lon="-8.650644">
        <ele>102.292</ele>
        <time>2018-08-25T12:02:34Z</time>
      </trkpt>
      <trkpt lat="42.485456" lon="-8.650644">
        <ele>102.630</ele>
        <time>2018-08-25T12:02:36Z</time>
      </trkpt>
      <trkpt lat="42.485509" lon="-8.650642">
        <ele>102.998</ele>
        <time>2018-08-25T12:02:38Z</time>
      </trkpt>
      <trkpt lat="42.485559" lon="-8.650637">
        <ele>103.118</ele>
        <time>2018-08-25T12:02:40Z</time>
      </trkpt>
      <trkpt lat="42.485621" lon="-8.650633">
        <ele>103.236</ele>
        <time>2018-08-25T12:02:43Z</time>
      </trkpt>
      <trkpt lat="42.485668" lon="-8.650629">
        <ele>103.117</ele>
        <time>2018-08-25T12:02:45Z</time>
      </trkpt>
      <trkpt lat="42.485722" lon="-8.650624">
        <ele>103.118</ele>
        <time>2018-08-25T12:02:47Z</time>
      </trkpt>
      <trkpt lat="42.485772" lon="-8.650625">
        <ele>103.208</ele>
        <time>2018-08-25T12:02:49Z</time>
      </trkpt>
      <trkpt lat="42.485841" lon="-8.650636">
        <ele>103.425</ele>
        <time>2018-08-25T12:02:52Z</time>
      </trkpt>
      <trkpt lat="42.485893" lon="-8.650639">
        <ele>103.341</ele>
        <time>2018-08-25T12:02:54Z</time>
      </trkpt>
      <trkpt lat="42.485943" lon="-8.650640">
        <ele>103.356</ele>
        <time>2018-08-25T12:02:56Z</time>
      </trkpt>
      <trkpt lat="42.486005" lon="-8.650633">
        <ele>103.780</ele>
        <time>2018-08-25T12:02:59Z</time>
      </trkpt>
      <trkpt lat="42.486056" lon="-8.650625">
        <ele>104.027</ele>
        <time>2018-08-25T12:03:02Z</time>
      </trkpt>
      <trkpt lat="42.486109" lon="-8.650611">
        <ele>104.485</ele>
        <time>2018-08-25T12:03:05Z</time>
      </trkpt>
      <trkpt lat="42.486162" lon="-8.650586">
        <ele>104.173</ele>
        <time>2018-08-25T12:03:08Z</time>
      </trkpt>
      <trkpt lat="42.486207" lon="-8.650555">
        <ele>103.973</ele>
        <time>2018-08-25T12:03:10Z</time>
      </trkpt>
      <trkpt lat="42.486253" lon="-8.650528">
        <ele>103.631</ele>
        <time>2018-08-25T12:03:12Z</time>
      </trkpt>
      <trkpt lat="42.486304" lon="-8.650501">
        <ele>104.461</ele>
        <time>2018-08-25T12:03:14Z</time>
      </trkpt>
      <trkpt lat="42.486352" lon="-8.650470">
        <ele>105.407</ele>
        <time>2018-08-25T12:03:16Z</time>
      </trkpt>
      <trkpt lat="42.486398" lon="-8.650434">
        <ele>106.208</ele>
        <time>2018-08-25T12:03:18Z</time>
      </trkpt>
      <trkpt lat="42.486451" lon="-8.650387">
        <ele>107.245</ele>
        <time>2018-08-25T12:03:21Z</time>
      </trkpt>
      <trkpt lat="42.486501" lon="-8.650356">
        <ele>108.221</ele>
        <time>2018-08-25T12:03:24Z</time>
      </trkpt>
      <trkpt lat="42.486562" lon="-8.650329">
        <ele>109.016</ele>
        <time>2018-08-25T12:03:27Z</time>
      </trkpt>
      <trkpt lat="42.486623" lon="-8.650299">
        <ele>109.210</ele>
        <time>2018-08-25T12:03:30Z</time>
      </trkpt>
      <trkpt lat="42.486679" lon="-8.650262">
        <ele>108.667</ele>
        <time>2018-08-25T12:03:33Z</time>
      </trkpt>
      <trkpt lat="42.486749" lon="-8.650216">
        <ele>107.985</ele>
        <time>2018-08-25T12:03:34Z</time>
      </trkpt>
      <trkpt lat="42.486796" lon="-8.650202">
        <ele>107.363</ele>
        <time>2018-08-25T12:03:37Z</time>
      </trkpt>
      <trkpt lat="42.486841" lon="-8.650194">
        <ele>106.743</ele>
        <time>2018-08-25T12:03:40Z</time>
      </trkpt>
      <trkpt lat="42.486895" lon="-8.650192">
        <ele>106.553</ele>
        <time>2018-08-25T12:03:44Z</time>
      </trkpt>
      <trkpt lat="42.486941" lon="-8.650176">
        <ele>106.404</ele>
        <time>2018-08-25T12:03:46Z</time>
      </trkpt>
      <trkpt lat="42.487001" lon="-8.650156">
        <ele>106.314</ele>
        <time>2018-08-25T12:03:49Z</time>
      </trkpt>
      <trkpt lat="42.487051" lon="-8.650148">
        <ele>106.208</ele>
        <time>2018-08-25T12:03:51Z</time>
      </trkpt>
      <trkpt lat="42.487110" lon="-8.650135">
        <ele>106.157</ele>
        <time>2018-08-25T12:03:53Z</time>
      </trkpt>
      <trkpt lat="42.487170" lon="-8.650115">
        <ele>106.263</ele>
        <time>2018-08-25T12:03:55Z</time>
      </trkpt>
      <trkpt lat="42.487243" lon="-8.650093">
        <ele>105.818</ele>
        <time>2018-08-25T12:03:57Z</time>
      </trkpt>
      <trkpt lat="42.487317" lon="-8.650079">
        <ele>105.072</ele>
        <time>2018-08-25T12:03:59Z</time>
      </trkpt>
      <trkpt lat="42.487388" lon="-8.650070">
        <ele>104.619</ele>
        <time>2018-08-25T12:04:01Z</time>
      </trkpt>
      <trkpt lat="42.487453" lon="-8.650064">
        <ele>104.887</ele>
        <time>2018-08-25T12:04:03Z</time>
      </trkpt>
      <trkpt lat="42.487514" lon="-8.650055">
        <ele>104.635</ele>
        <time>2018-08-25T12:04:05Z</time>
      </trkpt>
      <trkpt lat="42.487565" lon="-8.650050">
        <ele>104.725</ele>
        <time>2018-08-25T12:04:07Z</time>
      </trkpt>
      <trkpt lat="42.487613" lon="-8.650045">
        <ele>104.864</ele>
        <time>2018-08-25T12:04:09Z</time>
      </trkpt>
      <trkpt lat="42.487678" lon="-8.650046">
        <ele>105.506</ele>
        <time>2018-08-25T12:04:12Z</time>
      </trkpt>
      <trkpt lat="42.487727" lon="-8.650047">
        <ele>106.416</ele>
        <time>2018-08-25T12:04:14Z</time>
      </trkpt>
      <trkpt lat="42.487786" lon="-8.650053">
        <ele>107.508</ele>
        <time>2018-08-25T12:04:17Z</time>
      </trkpt>
      <trkpt lat="42.487849" lon="-8.650072">
        <ele>108.128</ele>
        <time>2018-08-25T12:04:21Z</time>
      </trkpt>
      <trkpt lat="42.487916" lon="-8.650084">
        <ele>108.274</ele>
        <time>2018-08-25T12:04:24Z</time>
      </trkpt>
      <trkpt lat="42.487981" lon="-8.650089">
        <ele>108.369</ele>
        <time>2018-08-25T12:04:27Z</time>
      </trkpt>
      <trkpt lat="42.488042" lon="-8.650099">
        <ele>109.013</ele>
        <time>2018-08-25T12:04:30Z</time>
      </trkpt>
      <trkpt lat="42.488099" lon="-8.650107">
        <ele>109.390</ele>
        <time>2018-08-25T12:04:33Z</time>
      </trkpt>
      <trkpt lat="42.488148" lon="-8.650110">
        <ele>109.258</ele>
        <time>2018-08-25T12:04:36Z</time>
      </trkpt>
      <trkpt lat="42.488207" lon="-8.650105">
        <ele>109.986</ele>
        <time>2018-08-25T12:04:39Z</time>
      </trkpt>
      <trkpt lat="42.488261" lon="-8.650085">
        <ele>110.986</ele>
        <time>2018-08-25T12:04:42Z</time>
      </trkpt>
      <trkpt lat="42.488317" lon="-8.650074">
        <ele>111.017</ele>
        <time>2018-08-25T12:04:45Z</time>
      </trkpt>
      <trkpt lat="42.488369" lon="-8.650075">
        <ele>111.287</ele>
        <time>2018-08-25T12:04:48Z</time>
      </trkpt>
      <trkpt lat="42.488429" lon="-8.650080">
        <ele>111.115</ele>
        <time>2018-08-25T12:04:51Z</time>
      </trkpt>
      <trkpt lat="42.488493" lon="-8.650086">
        <ele>110.308</ele>
        <time>2018-08-25T12:04:54Z</time>
      </trkpt>
      <trkpt lat="42.488558" lon="-8.650096">
        <ele>108.983</ele>
        <time>2018-08-25T12:04:57Z</time>
      </trkpt>
      <trkpt lat="42.488624" lon="-8.650094">
        <ele>108.319</ele>
        <time>2018-08-25T12:05:00Z</time>
      </trkpt>
      <trkpt lat="42.488686" lon="-8.650085">
        <ele>108.094</ele>
        <time>2018-08-25T12:05:03Z</time>
      </trkpt>
      <trkpt lat="42.488752" lon="-8.650081">
        <ele>109.248</ele>
        <time>2018-08-25T12:05:06Z</time>
      </trkpt>
      <trkpt lat="42.488798" lon="-8.650064">
        <ele>110.075</ele>
        <time>2018-08-25T12:05:08Z</time>
      </trkpt>
      <trkpt lat="42.488844" lon="-8.650042">
        <ele>110.783</ele>
        <time>2018-08-25T12:05:10Z</time>
      </trkpt>
      <trkpt lat="42.488896" lon="-8.650020">
        <ele>111.161</ele>
        <time>2018-08-25T12:05:14Z</time>
      </trkpt>
      <trkpt lat="42.488943" lon="-8.649994">
        <ele>110.721</ele>
        <time>2018-08-25T12:05:17Z</time>
      </trkpt>
      <trkpt lat="42.489006" lon="-8.649948">
        <ele>109.216</ele>
        <time>2018-08-25T12:05:20Z</time>
      </trkpt>
      <trkpt lat="42.489055" lon="-8.649905">
        <ele>107.476</ele>
        <time>2018-08-25T12:05:22Z</time>
      </trkpt>
      <trkpt lat="42.489108" lon="-8.649866">
        <ele>105.713</ele>
        <time>2018-08-25T12:05:24Z</time>
      </trkpt>
      <trkpt lat="42.489157" lon="-8.649833">
        <ele>104.508</ele>
        <time>2018-08-25T12:05:26Z</time>
      </trkpt>
      <trkpt lat="42.489203" lon="-8.649806">
        <ele>103.953</ele>
        <time>2018-08-25T12:05:28Z</time>
      </trkpt>
      <trkpt lat="42.489246" lon="-8.649776">
        <ele>103.629</ele>
        <time>2018-08-25T12:05:30Z</time>
      </trkpt>
      <trkpt lat="42.489289" lon="-8.649748">
        <ele>102.924</ele>
        <time>2018-08-25T12:05:32Z</time>
      </trkpt>
      <trkpt lat="42.489347" lon="-8.649710">
        <ele>101.568</ele>
        <time>2018-08-25T12:05:35Z</time>
      </trkpt>
      <trkpt lat="42.489390" lon="-8.649685">
        <ele>100.845</ele>
        <time>2018-08-25T12:05:37Z</time>
      </trkpt>
      <trkpt lat="42.489443" lon="-8.649657">
        <ele>100.743</ele>
        <time>2018-08-25T12:05:39Z</time>
      </trkpt>
      <trkpt lat="42.489495" lon="-8.649635">
        <ele>101.231</ele>
        <time>2018-08-25T12:05:41Z</time>
      </trkpt>
      <trkpt lat="42.489543" lon="-8.649615">
        <ele>102.231</ele>
        <time>2018-08-25T12:05:43Z</time>
      </trkpt>
      <trkpt lat="42.489587" lon="-8.649599">
        <ele>102.664</ele>
        <time>2018-08-25T12:05:45Z</time>
      </trkpt>
      <trkpt lat="42.489644" lon="-8.649582">
        <ele>102.406</ele>
        <time>2018-08-25T12:05:48Z</time>
      </trkpt>
      <trkpt lat="42.489704" lon="-8.649563">
        <ele>102.116</ele>
        <time>2018-08-25T12:05:51Z</time>
      </trkpt>
      <trkpt lat="42.489767" lon="-8.649538">
        <ele>102.008</ele>
        <time>2018-08-25T12:05:54Z</time>
      </trkpt>
      <trkpt lat="42.489812" lon="-8.649523">
        <ele>102.598</ele>
        <time>2018-08-25T12:05:56Z</time>
      </trkpt>
      <trkpt lat="42.489864" lon="-8.649512">
        <ele>103.534</ele>
        <time>2018-08-25T12:05:58Z</time>
      </trkpt>
      <trkpt lat="42.489913" lon="-8.649501">
        <ele>104.689</ele>
        <time>2018-08-25T12:06:00Z</time>
      </trkpt>
      <trkpt lat="42.489959" lon="-8.649488">
        <ele>105.493</ele>
        <time>2018-08-25T12:06:02Z</time>
      </trkpt>
      <trkpt lat="42.490010" lon="-8.649475">
        <ele>106.150</ele>
        <time>2018-08-25T12:06:04Z</time>
      </trkpt>
      <trkpt lat="42.490065" lon="-8.649459">
        <ele>106.888</ele>
        <time>2018-08-25T12:06:06Z</time>
      </trkpt>
      <trkpt lat="42.490115" lon="-8.649439">
        <ele>107.326</ele>
        <time>2018-08-25T12:06:08Z</time>
      </trkpt>
      <trkpt lat="42.490160" lon="-8.649420">
        <ele>107.326</ele>
        <time>2018-08-25T12:06:10Z</time>
      </trkpt>
      <trkpt lat="42.490222" lon="-8.649393">
        <ele>107.413</ele>
        <time>2018-08-25T12:06:13Z</time>
      </trkpt>
      <trkpt lat="42.490281" lon="-8.649372">
        <ele>107.943</ele>
        <time>2018-08-25T12:06:16Z</time>
      </trkpt>
      <trkpt lat="42.490341" lon="-8.649361">
        <ele>108.407</ele>
        <time>2018-08-25T12:06:19Z</time>
      </trkpt>
      <trkpt lat="42.490387" lon="-8.649360">
        <ele>109.108</ele>
        <time>2018-08-25T12:06:21Z</time>
      </trkpt>
      <trkpt lat="42.490441" lon="-8.649363">
        <ele>109.823</ele>
        <time>2018-08-25T12:06:23Z</time>
      </trkpt>
      <trkpt lat="42.490493" lon="-8.649362">
        <ele>110.229</ele>
        <time>2018-08-25T12:06:25Z</time>
      </trkpt>
      <trkpt lat="42.490544" lon="-8.649356">
        <ele>110.534</ele>
        <time>2018-08-25T12:06:27Z</time>
      </trkpt>
      <trkpt lat="42.490590" lon="-8.649347">
        <ele>110.358</ele>
        <time>2018-08-25T12:06:29Z</time>
      </trkpt>
      <trkpt lat="42.490658" lon="-8.649333">
        <ele>110.085</ele>
        <time>2018-08-25T12:06:32Z</time>
      </trkpt>
      <trkpt lat="42.490712" lon="-8.649313">
        <ele>109.633</ele>
        <time>2018-08-25T12:06:34Z</time>
      </trkpt>
      <trkpt lat="42.490767" lon="-8.649289">
        <ele>108.911</ele>
        <time>2018-08-25T12:06:36Z</time>
      </trkpt>
      <trkpt lat="42.490820" lon="-8.649265">
        <ele>108.431</ele>
        <time>2018-08-25T12:06:38Z</time>
      </trkpt>
      <trkpt lat="42.490868" lon="-8.649240">
        <ele>108.117</ele>
        <time>2018-08-25T12:06:40Z</time>
      </trkpt>
      <trkpt lat="42.490912" lon="-8.649219">
        <ele>108.487</ele>
        <time>2018-08-25T12:06:42Z</time>
      </trkpt>
      <trkpt lat="42.490976" lon="-8.649195">
        <ele>109.515</ele>
        <time>2018-08-25T12:06:45Z</time>
      </trkpt>
      <trkpt lat="42.491021" lon="-8.649178">
        <ele>110.208</ele>
        <time>2018-08-25T12:06:47Z</time>
      </trkpt>
      <trkpt lat="42.491066" lon="-8.649155">
        <ele>110.543</ele>
        <time>2018-08-25T12:06:49Z</time>
      </trkpt>
      <trkpt lat="42.491125" lon="-8.649118">
        <ele>111.189</ele>
        <time>2018-08-25T12:06:52Z</time>
      </trkpt>
      <trkpt lat="42.491194" lon="-8.649079">
        <ele>112.284</ele>
        <time>2018-08-25T12:06:56Z</time>
      </trkpt>
      <trkpt lat="42.491250" lon="-8.649038">
        <ele>113.158</ele>
        <time>2018-08-25T12:06:59Z</time>
      </trkpt>
      <trkpt lat="42.491292" lon="-8.649006">
        <ele>113.825</ele>
        <time>2018-08-25T12:07:01Z</time>
      </trkpt>
      <trkpt lat="42.491339" lon="-8.648977">
        <ele>114.163</ele>
        <time>2018-08-25T12:07:03Z</time>
      </trkpt>
      <trkpt lat="42.491387" lon="-8.648950">
        <ele>114.271</ele>
        <time>2018-08-25T12:07:05Z</time>
      </trkpt>
      <trkpt lat="42.491433" lon="-8.648926">
        <ele>113.831</ele>
        <time>2018-08-25T12:07:07Z</time>
      </trkpt>
      <trkpt lat="42.491480" lon="-8.648900">
        <ele>113.352</ele>
        <time>2018-08-25T12:07:09Z</time>
      </trkpt>
      <trkpt lat="42.491525" lon="-8.648871">
        <ele>113.053</ele>
        <time>2018-08-25T12:07:11Z</time>
      </trkpt>
      <trkpt lat="42.491565" lon="-8.648842">
        <ele>112.908</ele>
        <time>2018-08-25T12:07:13Z</time>
      </trkpt>
      <trkpt lat="42.491614" lon="-8.648806">
        <ele>113.208</ele>
        <time>2018-08-25T12:07:16Z</time>
      </trkpt>
      <trkpt lat="42.491665" lon="-8.648784">
        <ele>113.857</ele>
        <time>2018-08-25T12:07:19Z</time>
      </trkpt>
      <trkpt lat="42.491717" lon="-8.648774">
        <ele>114.763</ele>
        <time>2018-08-25T12:07:22Z</time>
      </trkpt>
      <trkpt lat="42.491775" lon="-8.648760">
        <ele>115.748</ele>
        <time>2018-08-25T12:07:26Z</time>
      </trkpt>
      <trkpt lat="42.491818" lon="-8.648741">
        <ele>116.352</ele>
        <time>2018-08-25T12:07:29Z</time>
      </trkpt>
      <trkpt lat="42.491862" lon="-8.648721">
        <ele>116.619</ele>
        <time>2018-08-25T12:07:32Z</time>
      </trkpt>
      <trkpt lat="42.491909" lon="-8.648706">
        <ele>117.347</ele>
        <time>2018-08-25T12:07:35Z</time>
      </trkpt>
      <trkpt lat="42.491956" lon="-8.648690">
        <ele>118.145</ele>
        <time>2018-08-25T12:07:38Z</time>
      </trkpt>
      <trkpt lat="42.492004" lon="-8.648667">
        <ele>119.365</ele>
        <time>2018-08-25T12:07:41Z</time>
      </trkpt>
      <trkpt lat="42.492060" lon="-8.648640">
        <ele>119.995</ele>
        <time>2018-08-25T12:07:44Z</time>
      </trkpt>
      <trkpt lat="42.492114" lon="-8.648605">
        <ele>120.349</ele>
        <time>2018-08-25T12:07:47Z</time>
      </trkpt>
      <trkpt lat="42.492156" lon="-8.648579">
        <ele>120.223</ele>
        <time>2018-08-25T12:07:49Z</time>
      </trkpt>
      <trkpt lat="42.492203" lon="-8.648559">
        <ele>120.008</ele>
        <time>2018-08-25T12:07:51Z</time>
      </trkpt>
      <trkpt lat="42.492248" lon="-8.648545">
        <ele>119.861</ele>
        <time>2018-08-25T12:07:53Z</time>
      </trkpt>
      <trkpt lat="42.492292" lon="-8.648533">
        <ele>119.567</ele>
        <time>2018-08-25T12:07:55Z</time>
      </trkpt>
      <trkpt lat="42.492338" lon="-8.648523">
        <ele>119.362</ele>
        <time>2018-08-25T12:07:57Z</time>
      </trkpt>
      <trkpt lat="42.492404" lon="-8.648505">
        <ele>119.496</ele>
        <time>2018-08-25T12:08:00Z</time>
      </trkpt>
      <trkpt lat="42.492452" lon="-8.648486">
        <ele>119.663</ele>
        <time>2018-08-25T12:08:02Z</time>
      </trkpt>
      <trkpt lat="42.492499" lon="-8.648465">
        <ele>119.871</ele>
        <time>2018-08-25T12:08:04Z</time>
      </trkpt>
      <trkpt lat="42.492545" lon="-8.648447">
        <ele>120.269</ele>
        <time>2018-08-25T12:08:06Z</time>
      </trkpt>
      <trkpt lat="42.492602" lon="-8.648441">
        <ele>120.749</ele>
        <time>2018-08-25T12:08:09Z</time>
      </trkpt>
      <trkpt lat="42.492658" lon="-8.648445">
        <ele>122.069</ele>
        <time>2018-08-25T12:08:12Z</time>
      </trkpt>
      <trkpt lat="42.492713" lon="-8.648447">
        <ele>123.204</ele>
        <time>2018-08-25T12:08:15Z</time>
      </trkpt>
      <trkpt lat="42.492767" lon="-8.648456">
        <ele>123.924</ele>
        <time>2018-08-25T12:08:18Z</time>
      </trkpt>
      <trkpt lat="42.492820" lon="-8.648464">
        <ele>124.408</ele>
        <time>2018-08-25T12:08:21Z</time>
      </trkpt>
      <trkpt lat="42.492879" lon="-8.648466">
        <ele>124.778</ele>
        <time>2018-08-25T12:08:24Z</time>
      </trkpt>
      <trkpt lat="42.492938" lon="-8.648468">
        <ele>124.514</ele>
        <time>2018-08-25T12:08:27Z</time>
      </trkpt>
      <trkpt lat="42.492993" lon="-8.648474">
        <ele>124.729</ele>
        <time>2018-08-25T12:08:30Z</time>
      </trkpt>
      <trkpt lat="42.493046" lon="-8.648477">
        <ele>124.253</ele>
        <time>2018-08-25T12:08:33Z</time>
      </trkpt>
      <trkpt lat="42.493109" lon="-8.648474">
        <ele>124.070</ele>
        <time>2018-08-25T12:08:36Z</time>
      </trkpt>
      <trkpt lat="42.493158" lon="-8.648476">
        <ele>124.878</ele>
        <time>2018-08-25T12:08:38Z</time>
      </trkpt>
      <trkpt lat="42.493208" lon="-8.648480">
        <ele>125.386</ele>
        <time>2018-08-25T12:08:40Z</time>
      </trkpt>
      <trkpt lat="42.493329" lon="-8.648496">
        <ele>127.196</ele>
        <time>2018-08-25T12:09:31Z</time>
      </trkpt>
      <trkpt lat="42.493385" lon="-8.648480">
        <ele>128.589</ele>
        <time>2018-08-25T12:09:36Z</time>
      </trkpt>
      <trkpt lat="42.493436" lon="-8.648456">
        <ele>129.206</ele>
        <time>2018-08-25T12:09:39Z</time>
      </trkpt>
      <trkpt lat="42.493488" lon="-8.648435">
        <ele>129.526</ele>
        <time>2018-08-25T12:09:42Z</time>
      </trkpt>
      <trkpt lat="42.493550" lon="-8.648420">
        <ele>130.008</ele>
        <time>2018-08-25T12:09:45Z</time>
      </trkpt>
      <trkpt lat="42.493596" lon="-8.648416">
        <ele>130.160</ele>
        <time>2018-08-25T12:09:47Z</time>
      </trkpt>
      <trkpt lat="42.493645" lon="-8.648417">
        <ele>130.136</ele>
        <time>2018-08-25T12:09:49Z</time>
      </trkpt>
      <trkpt lat="42.493705" lon="-8.648416">
        <ele>130.021</ele>
        <time>2018-08-25T12:09:51Z</time>
      </trkpt>
      <trkpt lat="42.493771" lon="-8.648410">
        <ele>129.855</ele>
        <time>2018-08-25T12:09:53Z</time>
      </trkpt>
      <trkpt lat="42.493839" lon="-8.648401">
        <ele>129.762</ele>
        <time>2018-08-25T12:09:55Z</time>
      </trkpt>
      <trkpt lat="42.493910" lon="-8.648393">
        <ele>129.060</ele>
        <time>2018-08-25T12:09:57Z</time>
      </trkpt>
      <trkpt lat="42.493985" lon="-8.648387">
        <ele>128.668</ele>
        <time>2018-08-25T12:09:59Z</time>
      </trkpt>
      <trkpt lat="42.494156" lon="-8.648388">
        <ele>128.798</ele>
        <time>2018-08-25T12:10:01Z</time>
      </trkpt>
      <trkpt lat="42.494207" lon="-8.648395">
        <ele>129.138</ele>
        <time>2018-08-25T12:10:02Z</time>
      </trkpt>
      <trkpt lat="42.494254" lon="-8.648403">
        <ele>129.370</ele>
        <time>2018-08-25T12:10:03Z</time>
      </trkpt>
      <trkpt lat="42.494302" lon="-8.648410">
        <ele>129.317</ele>
        <time>2018-08-25T12:10:04Z</time>
      </trkpt>
      <trkpt lat="42.494393" lon="-8.648422">
        <ele>129.408</ele>
        <time>2018-08-25T12:10:06Z</time>
      </trkpt>
      <trkpt lat="42.494451" lon="-8.648433">
        <ele>129.785</ele>
        <time>2018-08-25T12:10:07Z</time>
      </trkpt>
      <trkpt lat="42.494506" lon="-8.648451">
        <ele>130.141</ele>
        <time>2018-08-25T12:10:09Z</time>
      </trkpt>
      <trkpt lat="42.494565" lon="-8.648483">
        <ele>130.716</ele>
        <time>2018-08-25T12:10:11Z</time>
      </trkpt>
      <trkpt lat="42.494721" lon="-8.648573">
        <ele>132.770</ele>
        <time>2018-08-25T12:10:13Z</time>
      </trkpt>
      <trkpt lat="42.494778" lon="-8.648602">
        <ele>134.277</ele>
        <time>2018-08-25T12:10:14Z</time>
      </trkpt>
      <trkpt lat="42.494831" lon="-8.648629">
        <ele>134.825</ele>
        <time>2018-08-25T12:10:15Z</time>
      </trkpt>
      <trkpt lat="42.494888" lon="-8.648649">
        <ele>135.143</ele>
        <time>2018-08-25T12:10:16Z</time>
      </trkpt>
      <trkpt lat="42.494944" lon="-8.648668">
        <ele>134.853</ele>
        <time>2018-08-25T12:10:17Z</time>
      </trkpt>
      <trkpt lat="42.494997" lon="-8.648678">
        <ele>134.539</ele>
        <time>2018-08-25T12:10:18Z</time>
      </trkpt>
      <trkpt lat="42.495046" lon="-8.648680">
        <ele>134.001</ele>
        <time>2018-08-25T12:10:19Z</time>
      </trkpt>
      <trkpt lat="42.495137" lon="-8.648685">
        <ele>132.521</ele>
        <time>2018-08-25T12:10:21Z</time>
      </trkpt>
      <trkpt lat="42.495191" lon="-8.648695">
        <ele>132.008</ele>
        <time>2018-08-25T12:10:23Z</time>
      </trkpt>
      <trkpt lat="42.495253" lon="-8.648703">
        <ele>131.655</ele>
        <time>2018-08-25T12:10:25Z</time>
      </trkpt>
      <trkpt lat="42.495316" lon="-8.648712">
        <ele>131.351</ele>
        <time>2018-08-25T12:10:27Z</time>
      </trkpt>
      <trkpt lat="42.495383" lon="-8.648731">
        <ele>131.146</ele>
        <time>2018-08-25T12:10:29Z</time>
      </trkpt>
      <trkpt lat="42.495464" lon="-8.648757">
        <ele>130.940</ele>
        <time>2018-08-25T12:10:31Z</time>
      </trkpt>
      <trkpt lat="42.495544" lon="-8.648783">
        <ele>130.877</ele>
        <time>2018-08-25T12:10:33Z</time>
      </trkpt>
      <trkpt lat="42.495618" lon="-8.648807">
        <ele>130.815</ele>
        <time>2018-08-25T12:10:35Z</time>
      </trkpt>
      <trkpt lat="42.495683" lon="-8.648832">
        <ele>130.913</ele>
        <time>2018-08-25T12:10:38Z</time>
      </trkpt>
      <trkpt lat="42.495778" lon="-8.648892">
        <ele>130.863</ele>
        <time>2018-08-25T12:10:56Z</time>
      </trkpt>
      <trkpt lat="42.495831" lon="-8.648893">
        <ele>130.285</ele>
        <time>2018-08-25T12:11:02Z</time>
      </trkpt>
      <trkpt lat="42.495884" lon="-8.648914">
        <ele>129.089</ele>
        <time>2018-08-25T12:11:05Z</time>
      </trkpt>
      <trkpt lat="42.495941" lon="-8.648936">
        <ele>127.717</ele>
        <time>2018-08-25T12:11:08Z</time>
      </trkpt>
      <trkpt lat="42.495993" lon="-8.648957">
        <ele>126.608</ele>
        <time>2018-08-25T12:11:11Z</time>
      </trkpt>
      <trkpt lat="42.496047" lon="-8.648970">
        <ele>126.220</ele>
        <time>2018-08-25T12:11:15Z</time>
      </trkpt>
      <trkpt lat="42.496097" lon="-8.648977">
        <ele>126.496</ele>
        <time>2018-08-25T12:11:18Z</time>
      </trkpt>
      <trkpt lat="42.496164" lon="-8.648978">
        <ele>127.061</ele>
        <time>2018-08-25T12:11:21Z</time>
      </trkpt>
      <trkpt lat="42.496224" lon="-8.648983">
        <ele>127.835</ele>
        <time>2018-08-25T12:11:24Z</time>
      </trkpt>
      <trkpt lat="42.496274" lon="-8.648997">
        <ele>128.012</ele>
        <time>2018-08-25T12:11:27Z</time>
      </trkpt>
      <trkpt lat="42.496320" lon="-8.649023">
        <ele>128.250</ele>
        <time>2018-08-25T12:11:30Z</time>
      </trkpt>
      <trkpt lat="42.496364" lon="-8.649052">
        <ele>128.298</ele>
        <time>2018-08-25T12:11:33Z</time>
      </trkpt>
      <trkpt lat="42.496412" lon="-8.649080">
        <ele>127.918</ele>
        <time>2018-08-25T12:11:36Z</time>
      </trkpt>
      <trkpt lat="42.496479" lon="-8.649117">
        <ele>129.169</ele>
        <time>2018-08-25T12:11:44Z</time>
      </trkpt>
      <trkpt lat="42.496528" lon="-8.649145">
        <ele>130.604</ele>
        <time>2018-08-25T12:11:50Z</time>
      </trkpt>
      <trkpt lat="42.496594" lon="-8.649168">
        <ele>132.724</ele>
        <time>2018-08-25T12:12:07Z</time>
      </trkpt>
      <trkpt lat="42.496645" lon="-8.649173">
        <ele>134.108</ele>
        <time>2018-08-25T12:12:14Z</time>
      </trkpt>
      <trkpt lat="42.496701" lon="-8.649177">
        <ele>134.668</ele>
        <time>2018-08-25T12:12:19Z</time>
      </trkpt>
      <trkpt lat="42.496748" lon="-8.649169">
        <ele>134.614</ele>
        <time>2018-08-25T12:12:26Z</time>
      </trkpt>
      <trkpt lat="42.496797" lon="-8.649141">
        <ele>135.019</ele>
        <time>2018-08-25T12:12:32Z</time>
      </trkpt>
      <trkpt lat="42.496845" lon="-8.649124">
        <ele>135.363</ele>
        <time>2018-08-25T12:12:38Z</time>
      </trkpt>
      <trkpt lat="42.496893" lon="-8.649108">
        <ele>136.040</ele>
        <time>2018-08-25T12:12:45Z</time>
      </trkpt>
      <trkpt lat="42.496942" lon="-8.649103">
        <ele>136.788</ele>
        <time>2018-08-25T12:12:56Z</time>
      </trkpt>
      <trkpt lat="42.496988" lon="-8.649089">
        <ele>137.346</ele>
        <time>2018-08-25T12:12:59Z</time>
      </trkpt>
      <trkpt lat="42.497039" lon="-8.649067">
        <ele>138.196</ele>
        <time>2018-08-25T12:13:02Z</time>
      </trkpt>
      <trkpt lat="42.497089" lon="-8.649048">
        <ele>138.831</ele>
        <time>2018-08-25T12:13:05Z</time>
      </trkpt>
      <trkpt lat="42.497134" lon="-8.649029">
        <ele>139.161</ele>
        <time>2018-08-25T12:13:08Z</time>
      </trkpt>
      <trkpt lat="42.497179" lon="-8.649011">
        <ele>139.107</ele>
        <time>2018-08-25T12:13:11Z</time>
      </trkpt>
      <trkpt lat="42.497233" lon="-8.648991">
        <ele>139.608</ele>
        <time>2018-08-25T12:13:14Z</time>
      </trkpt>
      <trkpt lat="42.497289" lon="-8.648971">
        <ele>140.195</ele>
        <time>2018-08-25T12:13:17Z</time>
      </trkpt>
      <trkpt lat="42.497351" lon="-8.648954">
        <ele>140.771</ele>
        <time>2018-08-25T12:13:20Z</time>
      </trkpt>
      <trkpt lat="42.497413" lon="-8.648931">
        <ele>141.556</ele>
        <time>2018-08-25T12:13:23Z</time>
      </trkpt>
      <trkpt lat="42.497466" lon="-8.648913">
        <ele>142.150</ele>
        <time>2018-08-25T12:13:26Z</time>
      </trkpt>
      <trkpt lat="42.497524" lon="-8.648920">
        <ele>142.977</ele>
        <time>2018-08-25T12:13:30Z</time>
      </trkpt>
      <trkpt lat="42.497584" lon="-8.648929">
        <ele>144.115</ele>
        <time>2018-08-25T12:13:34Z</time>
      </trkpt>
      <trkpt lat="42.497632" lon="-8.648941">
        <ele>145.183</ele>
        <time>2018-08-25T12:13:37Z</time>
      </trkpt>
      <trkpt lat="42.497685" lon="-8.648970">
        <ele>146.473</ele>
        <time>2018-08-25T12:13:41Z</time>
      </trkpt>
      <trkpt lat="42.497735" lon="-8.649013">
        <ele>147.331</ele>
        <time>2018-08-25T12:13:45Z</time>
      </trkpt>
      <trkpt lat="42.497790" lon="-8.649043">
        <ele>148.461</ele>
        <time>2018-08-25T12:13:49Z</time>
      </trkpt>
      <trkpt lat="42.497839" lon="-8.649071">
        <ele>149.707</ele>
        <time>2018-08-25T12:13:53Z</time>
      </trkpt>
      <trkpt lat="42.497882" lon="-8.649091">
        <ele>150.508</ele>
        <time>2018-08-25T12:13:57Z</time>
      </trkpt>
      <trkpt lat="42.497930" lon="-8.649124">
        <ele>151.195</ele>
        <time>2018-08-25T12:14:02Z</time>
      </trkpt>
      <trkpt lat="42.497985" lon="-8.649146">
        <ele>152.681</ele>
        <time>2018-08-25T12:14:06Z</time>
      </trkpt>
      <trkpt lat="42.498031" lon="-8.649152">
        <ele>154.276</ele>
        <time>2018-08-25T12:14:09Z</time>
      </trkpt>
      <trkpt lat="42.498085" lon="-8.649139">
        <ele>156.060</ele>
        <time>2018-08-25T12:14:13Z</time>
      </trkpt>
      <trkpt lat="42.498133" lon="-8.649137">
        <ele>156.987</ele>
        <time>2018-08-25T12:14:17Z</time>
      </trkpt>
      <trkpt lat="42.498191" lon="-8.649140">
        <ele>157.495</ele>
        <time>2018-08-25T12:14:21Z</time>
      </trkpt>
      <trkpt lat="42.498236" lon="-8.649147">
        <ele>158.113</ele>
        <time>2018-08-25T12:14:24Z</time>
      </trkpt>
      <trkpt lat="42.498296" lon="-8.649158">
        <ele>159.763</ele>
        <time>2018-08-25T12:14:28Z</time>
      </trkpt>
      <trkpt lat="42.498352" lon="-8.649177">
        <ele>160.728</ele>
        <time>2018-08-25T12:14:32Z</time>
      </trkpt>
      <trkpt lat="42.498398" lon="-8.649190">
        <ele>160.689</ele>
        <time>2018-08-25T12:14:35Z</time>
      </trkpt>
      <trkpt lat="42.498449" lon="-8.649194">
        <ele>160.217</ele>
        <time>2018-08-25T12:14:38Z</time>
      </trkpt>
      <trkpt lat="42.498495" lon="-8.649198">
        <ele>160.408</ele>
        <time>2018-08-25T12:14:41Z</time>
      </trkpt>
      <trkpt lat="42.498539" lon="-8.649214">
        <ele>161.114</ele>
        <time>2018-08-25T12:14:44Z</time>
      </trkpt>
      <trkpt lat="42.498593" lon="-8.649250">
        <ele>162.020</ele>
        <time>2018-08-25T12:14:48Z</time>
      </trkpt>
      <trkpt lat="42.498639" lon="-8.649280">
        <ele>163.065</ele>
        <time>2018-08-25T12:14:51Z</time>
      </trkpt>
      <trkpt lat="42.498685" lon="-8.649308">
        <ele>163.759</ele>
        <time>2018-08-25T12:14:54Z</time>
      </trkpt>
      <trkpt lat="42.498738" lon="-8.649331">
        <ele>164.486</ele>
        <time>2018-08-25T12:14:57Z</time>
      </trkpt>
      <trkpt lat="42.498805" lon="-8.649353">
        <ele>164.654</ele>
        <time>2018-08-25T12:15:00Z</time>
      </trkpt>
      <trkpt lat="42.498852" lon="-8.649378">
        <ele>164.522</ele>
        <time>2018-08-25T12:15:02Z</time>
      </trkpt>
      <trkpt lat="42.498894" lon="-8.649401">
        <ele>164.782</ele>
        <time>2018-08-25T12:15:04Z</time>
      </trkpt>
      <trkpt lat="42.498936" lon="-8.649425">
        <ele>164.927</ele>
        <time>2018-08-25T12:15:06Z</time>
      </trkpt>
      <trkpt lat="42.498997" lon="-8.649453">
        <ele>165.368</ele>
        <time>2018-08-25T12:15:09Z</time>
      </trkpt>
      <trkpt lat="42.499044" lon="-8.649473">
        <ele>164.814</ele>
        <time>2018-08-25T12:15:12Z</time>
      </trkpt>
      <trkpt lat="42.499096" lon="-8.649491">
        <ele>164.408</ele>
        <time>2018-08-25T12:15:15Z</time>
      </trkpt>
      <trkpt lat="42.499158" lon="-8.649518">
        <ele>164.354</ele>
        <time>2018-08-25T12:15:18Z</time>
      </trkpt>
      <trkpt lat="42.499221" lon="-8.649548">
        <ele>164.360</ele>
        <time>2018-08-25T12:15:21Z</time>
      </trkpt>
      <trkpt lat="42.499269" lon="-8.649564">
        <ele>164.125</ele>
        <time>2018-08-25T12:15:23Z</time>
      </trkpt>
      <trkpt lat="42.499318" lon="-8.649582">
        <ele>163.929</ele>
        <time>2018-08-25T12:15:25Z</time>
      </trkpt>
      <trkpt lat="42.499366" lon="-8.649601">
        <ele>163.436</ele>
        <time>2018-08-25T12:15:27Z</time>
      </trkpt>
      <trkpt lat="42.499427" lon="-8.649626">
        <ele>163.174</ele>
        <time>2018-08-25T12:15:30Z</time>
      </trkpt>
      <trkpt lat="42.499473" lon="-8.649615">
        <ele>162.622</ele>
        <time>2018-08-25T12:15:33Z</time>
      </trkpt>
      <trkpt lat="42.499513" lon="-8.649556">
        <ele>161.332</ele>
        <time>2018-08-25T12:15:37Z</time>
      </trkpt>
      <trkpt lat="42.499570" lon="-8.649505">
        <ele>160.295</ele>
        <time>2018-08-25T12:15:57Z</time>
      </trkpt>
      <trkpt lat="42.499615" lon="-8.649489">
        <ele>160.149</ele>
        <time>2018-08-25T12:17:14Z</time>
      </trkpt>
      <trkpt lat="42.499673" lon="-8.649471">
        <ele>160.023</ele>
        <time>2018-08-25T12:17:17Z</time>
      </trkpt>
      <trkpt lat="42.499718" lon="-8.649464">
        <ele>160.008</ele>
        <time>2018-08-25T12:17:19Z</time>
      </trkpt>
      <trkpt lat="42.499777" lon="-8.649453">
        <ele>160.031</ele>
        <time>2018-08-25T12:17:22Z</time>
      </trkpt>
      <trkpt lat="42.499825" lon="-8.649444">
        <ele>160.287</ele>
        <time>2018-08-25T12:17:26Z</time>
      </trkpt>
      <trkpt lat="42.499872" lon="-8.649419">
        <ele>160.782</ele>
        <time>2018-08-25T12:17:35Z</time>
      </trkpt>
      <trkpt lat="42.499929" lon="-8.649411">
        <ele>161.866</ele>
        <time>2018-08-25T12:17:40Z</time>
      </trkpt>
      <trkpt lat="42.499975" lon="-8.649413">
        <ele>162.943</ele>
        <time>2018-08-25T12:17:43Z</time>
      </trkpt>
      <trkpt lat="42.500030" lon="-8.649426">
        <ele>163.851</ele>
        <time>2018-08-25T12:17:47Z</time>
      </trkpt>
      <trkpt lat="42.500082" lon="-8.649443">
        <ele>164.029</ele>
        <time>2018-08-25T12:17:52Z</time>
      </trkpt>
      <trkpt lat="42.500131" lon="-8.649470">
        <ele>163.929</ele>
        <time>2018-08-25T12:17:57Z</time>
      </trkpt>
      <trkpt lat="42.500173" lon="-8.649500">
        <ele>164.013</ele>
        <time>2018-08-25T12:18:01Z</time>
      </trkpt>
      <trkpt lat="42.500218" lon="-8.649526">
        <ele>163.843</ele>
        <time>2018-08-25T12:18:05Z</time>
      </trkpt>
      <trkpt lat="42.500266" lon="-8.649561">
        <ele>163.107</ele>
        <time>2018-08-25T12:18:09Z</time>
      </trkpt>
      <trkpt lat="42.500317" lon="-8.649587">
        <ele>162.408</ele>
        <time>2018-08-25T12:18:14Z</time>
      </trkpt>
      <trkpt lat="42.500367" lon="-8.649593">
        <ele>161.413</ele>
        <time>2018-08-25T12:18:18Z</time>
      </trkpt>
      <trkpt lat="42.500413" lon="-8.649605">
        <ele>160.449</ele>
        <time>2018-08-25T12:18:22Z</time>
      </trkpt>
      <trkpt lat="42.500459" lon="-8.649636">
        <ele>159.924</ele>
        <time>2018-08-25T12:18:26Z</time>
      </trkpt>
      <trkpt lat="42.500499" lon="-8.649669">
        <ele>159.968</ele>
        <time>2018-08-25T12:18:29Z</time>
      </trkpt>
      <trkpt lat="42.500552" lon="-8.649700">
        <ele>160.415</ele>
        <time>2018-08-25T12:18:32Z</time>
      </trkpt>
      <trkpt lat="42.500620" lon="-8.649740">
        <ele>161.343</ele>
        <time>2018-08-25T12:18:36Z</time>
      </trkpt>
      <trkpt lat="42.500674" lon="-8.649763">
        <ele>161.681</ele>
        <time>2018-08-25T12:18:40Z</time>
      </trkpt>
      <trkpt lat="42.500721" lon="-8.649766">
        <ele>161.611</ele>
        <time>2018-08-25T12:18:43Z</time>
      </trkpt>
      <trkpt lat="42.500780" lon="-8.649768">
        <ele>160.865</ele>
        <time>2018-08-25T12:18:46Z</time>
      </trkpt>
      <trkpt lat="42.500834" lon="-8.649773">
        <ele>159.368</ele>
        <time>2018-08-25T12:18:49Z</time>
      </trkpt>
      <trkpt lat="42.500881" lon="-8.649777">
        <ele>158.314</ele>
        <time>2018-08-25T12:18:52Z</time>
      </trkpt>
      <trkpt lat="42.500939" lon="-8.649773">
        <ele>157.908</ele>
        <time>2018-08-25T12:18:55Z</time>
      </trkpt>
      <trkpt lat="42.501008" lon="-8.649763">
        <ele>157.018</ele>
        <time>2018-08-25T12:18:58Z</time>
      </trkpt>
      <trkpt lat="42.501060" lon="-8.649759">
        <ele>156.324</ele>
        <time>2018-08-25T12:19:00Z</time>
      </trkpt>
      <trkpt lat="42.501106" lon="-8.649762">
        <ele>155.919</ele>
        <time>2018-08-25T12:19:02Z</time>
      </trkpt>
      <trkpt lat="42.501154" lon="-8.649772">
        <ele>155.863</ele>
        <time>2018-08-25T12:19:04Z</time>
      </trkpt>
      <trkpt lat="42.501206" lon="-8.649786">
        <ele>157.110</ele>
        <time>2018-08-25T12:19:06Z</time>
      </trkpt>
      <trkpt lat="42.501258" lon="-8.649803">
        <ele>158.258</ele>
        <time>2018-08-25T12:19:08Z</time>
      </trkpt>
      <trkpt lat="42.501315" lon="-8.649829">
        <ele>159.366</ele>
        <time>2018-08-25T12:19:11Z</time>
      </trkpt>
      <trkpt lat="42.501356" lon="-8.649853">
        <ele>160.776</ele>
        <time>2018-08-25T12:19:14Z</time>
      </trkpt>
      <trkpt lat="42.501406" lon="-8.649896">
        <ele>162.254</ele>
        <time>2018-08-25T12:19:18Z</time>
      </trkpt>
      <trkpt lat="42.501451" lon="-8.649943">
        <ele>163.456</ele>
        <time>2018-08-25T12:19:21Z</time>
      </trkpt>
      <trkpt lat="42.501499" lon="-8.649987">
        <ele>164.311</ele>
        <time>2018-08-25T12:19:24Z</time>
      </trkpt>
      <trkpt lat="42.501553" lon="-8.650036">
        <ele>165.408</ele>
        <time>2018-08-25T12:19:27Z</time>
      </trkpt>
      <trkpt lat="42.501591" lon="-8.650069">
        <ele>166.587</ele>
        <time>2018-08-25T12:19:29Z</time>
      </trkpt>
      <trkpt lat="42.501648" lon="-8.650101">
        <ele>166.853</ele>
        <time>2018-08-25T12:19:32Z</time>
      </trkpt>
      <trkpt lat="42.501696" lon="-8.650126">
        <ele>166.458</ele>
        <time>2018-08-25T12:19:35Z</time>
      </trkpt>
      <trkpt lat="42.501747" lon="-8.650149">
        <ele>166.362</ele>
        <time>2018-08-25T12:19:38Z</time>
      </trkpt>
      <trkpt lat="42.501800" lon="-8.650179">
        <ele>166.389</ele>
        <time>2018-08-25T12:19:41Z</time>
      </trkpt>
      <trkpt lat="42.501857" lon="-8.650216">
        <ele>165.527</ele>
        <time>2018-08-25T12:19:44Z</time>
      </trkpt>
      <trkpt lat="42.501901" lon="-8.650248">
        <ele>164.525</ele>
        <time>2018-08-25T12:19:46Z</time>
      </trkpt>
      <trkpt lat="42.501949" lon="-8.650279">
        <ele>163.115</ele>
        <time>2018-08-25T12:19:48Z</time>
      </trkpt>
      <trkpt lat="42.502000" lon="-8.650304">
        <ele>161.432</ele>
        <time>2018-08-25T12:19:50Z</time>
      </trkpt>
      <trkpt lat="42.502055" lon="-8.650326">
        <ele>160.292</ele>
        <time>2018-08-25T12:19:52Z</time>
      </trkpt>
      <trkpt lat="42.502111" lon="-8.650355">
        <ele>159.811</ele>
        <time>2018-08-25T12:19:54Z</time>
      </trkpt>
      <trkpt lat="42.502164" lon="-8.650383">
        <ele>159.508</ele>
        <time>2018-08-25T12:19:56Z</time>
      </trkpt>
      <trkpt lat="42.502216" lon="-8.650407">
        <ele>159.815</ele>
        <time>2018-08-25T12:19:58Z</time>
      </trkpt>
      <trkpt lat="42.502276" lon="-8.650440">
        <ele>160.581</ele>
        <time>2018-08-25T12:20:01Z</time>
      </trkpt>
      <trkpt lat="42.502320" lon="-8.650460">
        <ele>161.516</ele>
        <time>2018-08-25T12:20:03Z</time>
      </trkpt>
      <trkpt lat="42.502368" lon="-8.650483">
        <ele>162.770</ele>
        <time>2018-08-25T12:20:05Z</time>
      </trkpt>
      <trkpt lat="42.502419" lon="-8.650510">
        <ele>163.627</ele>
        <time>2018-08-25T12:20:07Z</time>
      </trkpt>
      <trkpt lat="42.502469" lon="-8.650540">
        <ele>164.745</ele>
        <time>2018-08-25T12:20:09Z</time>
      </trkpt>
      <trkpt lat="42.502517" lon="-8.650571">
        <ele>165.323</ele>
        <time>2018-08-25T12:20:11Z</time>
      </trkpt>
      <trkpt lat="42.502560" lon="-8.650600">
        <ele>165.593</ele>
        <time>2018-08-25T12:20:13Z</time>
      </trkpt>
      <trkpt lat="42.502619" lon="-8.650628">
        <ele>165.855</ele>
        <time>2018-08-25T12:20:16Z</time>
      </trkpt>
      <trkpt lat="42.502666" lon="-8.650653">
        <ele>166.307</ele>
        <time>2018-08-25T12:20:19Z</time>
      </trkpt>
      <trkpt lat="42.502726" lon="-8.650679">
        <ele>167.017</ele>
        <time>2018-08-25T12:20:22Z</time>
      </trkpt>
      <trkpt lat="42.502776" lon="-8.650698">
        <ele>167.408</ele>
        <time>2018-08-25T12:20:24Z</time>
      </trkpt>
      <trkpt lat="42.502829" lon="-8.650716">
        <ele>168.097</ele>
        <time>2018-08-25T12:20:26Z</time>
      </trkpt>
      <trkpt lat="42.502877" lon="-8.650734">
        <ele>168.633</ele>
        <time>2018-08-25T12:20:28Z</time>
      </trkpt>
      <trkpt lat="42.502920" lon="-8.650752">
        <ele>169.248</ele>
        <time>2018-08-25T12:20:30Z</time>
      </trkpt>
      <trkpt lat="42.502982" lon="-8.650777">
        <ele>169.612</ele>
        <time>2018-08-25T12:20:33Z</time>
      </trkpt>
      <trkpt lat="42.503025" lon="-8.650795">
        <ele>169.399</ele>
        <time>2018-08-25T12:20:35Z</time>
      </trkpt>
      <trkpt lat="42.503072" lon="-8.650820">
        <ele>169.397</ele>
        <time>2018-08-25T12:20:37Z</time>
      </trkpt>
      <trkpt lat="42.503120" lon="-8.650843">
        <ele>168.965</ele>
        <time>2018-08-25T12:20:39Z</time>
      </trkpt>
      <trkpt lat="42.503167" lon="-8.650861">
        <ele>168.675</ele>
        <time>2018-08-25T12:20:41Z</time>
      </trkpt>
      <trkpt lat="42.503214" lon="-8.650870">
        <ele>168.619</ele>
        <time>2018-08-25T12:20:43Z</time>
      </trkpt>
      <trkpt lat="42.503262" lon="-8.650874">
        <ele>168.909</ele>
        <time>2018-08-25T12:20:45Z</time>
      </trkpt>
      <trkpt lat="42.503310" lon="-8.650877">
        <ele>169.219</ele>
        <time>2018-08-25T12:20:47Z</time>
      </trkpt>
      <trkpt lat="42.503359" lon="-8.650880">
        <ele>169.308</ele>
        <time>2018-08-25T12:20:49Z</time>
      </trkpt>
      <trkpt lat="42.503408" lon="-8.650886">
        <ele>169.913</ele>
        <time>2018-08-25T12:20:51Z</time>
      </trkpt>
      <trkpt lat="42.503458" lon="-8.650897">
        <ele>170.549</ele>
        <time>2018-08-25T12:20:53Z</time>
      </trkpt>
      <trkpt lat="42.503505" lon="-8.650913">
        <ele>171.344</ele>
        <time>2018-08-25T12:20:55Z</time>
      </trkpt>
      <trkpt lat="42.503551" lon="-8.650924">
        <ele>171.858</ele>
        <time>2018-08-25T12:20:57Z</time>
      </trkpt>
      <trkpt lat="42.503613" lon="-8.650932">
        <ele>172.415</ele>
        <time>2018-08-25T12:21:00Z</time>
      </trkpt>
      <trkpt lat="42.503671" lon="-8.650936">
        <ele>173.133</ele>
        <time>2018-08-25T12:21:03Z</time>
      </trkpt>
      <trkpt lat="42.503732" lon="-8.650926">
        <ele>173.561</ele>
        <time>2018-08-25T12:21:06Z</time>
      </trkpt>
      <trkpt lat="42.503793" lon="-8.650919">
        <ele>174.111</ele>
        <time>2018-08-25T12:21:09Z</time>
      </trkpt>
      <trkpt lat="42.503850" lon="-8.650913">
        <ele>174.421</ele>
        <time>2018-08-25T12:21:12Z</time>
      </trkpt>
      <trkpt lat="42.503898" lon="-8.650902">
        <ele>174.641</ele>
        <time>2018-08-25T12:21:15Z</time>
      </trkpt>
      <trkpt lat="42.503961" lon="-8.650878">
        <ele>174.605</ele>
        <time>2018-08-25T12:21:18Z</time>
      </trkpt>
      <trkpt lat="42.504017" lon="-8.650855">
        <ele>174.808</ele>
        <time>2018-08-25T12:21:21Z</time>
      </trkpt>
      <trkpt lat="42.504071" lon="-8.650811">
        <ele>175.254</ele>
        <time>2018-08-25T12:21:24Z</time>
      </trkpt>
      <trkpt lat="42.504119" lon="-8.650753">
        <ele>176.280</ele>
        <time>2018-08-25T12:21:27Z</time>
      </trkpt>
      <trkpt lat="42.504155" lon="-8.650714">
        <ele>177.355</ele>
        <time>2018-08-25T12:21:29Z</time>
      </trkpt>
      <trkpt lat="42.504191" lon="-8.650675">
        <ele>178.339</ele>
        <time>2018-08-25T12:21:31Z</time>
      </trkpt>
      <trkpt lat="42.504245" lon="-8.650619">
        <ele>179.396</ele>
        <time>2018-08-25T12:21:34Z</time>
      </trkpt>
      <trkpt lat="42.504279" lon="-8.650578">
        <ele>180.124</ele>
        <time>2018-08-25T12:21:36Z</time>
      </trkpt>
      <trkpt lat="42.504318" lon="-8.650521">
        <ele>180.462</ele>
        <time>2018-08-25T12:21:39Z</time>
      </trkpt>
      <trkpt lat="42.504374" lon="-8.650444">
        <ele>180.642</ele>
        <time>2018-08-25T12:22:49Z</time>
      </trkpt>
      <trkpt lat="42.504410" lon="-8.650387">
        <ele>180.554</ele>
        <time>2018-08-25T12:22:53Z</time>
      </trkpt>
      <trkpt lat="42.504441" lon="-8.650334">
        <ele>180.456</ele>
        <time>2018-08-25T12:22:55Z</time>
      </trkpt>
      <trkpt lat="42.504469" lon="-8.650284">
        <ele>180.411</ele>
        <time>2018-08-25T12:22:57Z</time>
      </trkpt>
      <trkpt lat="42.504504" lon="-8.650213">
        <ele>180.208</ele>
        <time>2018-08-25T12:23:00Z</time>
      </trkpt>
      <trkpt lat="42.504547" lon="-8.650136">
        <ele>179.857</ele>
        <time>2018-08-25T12:23:03Z</time>
      </trkpt>
      <trkpt lat="42.504626" lon="-8.650016">
        <ele>179.153</ele>
        <time>2018-08-25T12:23:05Z</time>
      </trkpt>
      <trkpt lat="42.504663" lon="-8.649921">
        <ele>178.358</ele>
        <time>2018-08-25T12:23:07Z</time>
      </trkpt>
      <trkpt lat="42.504692" lon="-8.649825">
        <ele>177.642</ele>
        <time>2018-08-25T12:23:09Z</time>
      </trkpt>
      <trkpt lat="42.504766" lon="-8.649745">
        <ele>176.889</ele>
        <time>2018-08-25T12:23:11Z</time>
      </trkpt>
      <trkpt lat="42.504828" lon="-8.649713">
        <ele>176.797</ele>
        <time>2018-08-25T12:23:12Z</time>
      </trkpt>
      <trkpt lat="42.504882" lon="-8.649714">
        <ele>176.825</ele>
        <time>2018-08-25T12:23:13Z</time>
      </trkpt>
      <trkpt lat="42.504927" lon="-8.649722">
        <ele>176.765</ele>
        <time>2018-08-25T12:23:14Z</time>
      </trkpt>
      <trkpt lat="42.504974" lon="-8.649717">
        <ele>176.626</ele>
        <time>2018-08-25T12:23:15Z</time>
      </trkpt>
      <trkpt lat="42.505029" lon="-8.649694">
        <ele>176.747</ele>
        <time>2018-08-25T12:23:16Z</time>
      </trkpt>
      <trkpt lat="42.505091" lon="-8.649672">
        <ele>176.011</ele>
        <time>2018-08-25T12:23:17Z</time>
      </trkpt>
      <trkpt lat="42.505168" lon="-8.649637">
        <ele>175.308</ele>
        <time>2018-08-25T12:23:18Z</time>
      </trkpt>
      <trkpt lat="42.505232" lon="-8.649594">
        <ele>174.774</ele>
        <time>2018-08-25T12:23:19Z</time>
      </trkpt>
      <trkpt lat="42.505295" lon="-8.649550">
        <ele>174.210</ele>
        <time>2018-08-25T12:23:20Z</time>
      </trkpt>
      <trkpt lat="42.505352" lon="-8.649505">
        <ele>174.225</ele>
        <time>2018-08-25T12:23:21Z</time>
      </trkpt>
      <trkpt lat="42.505409" lon="-8.649464">
        <ele>174.269</ele>
        <time>2018-08-25T12:23:22Z</time>
      </trkpt>
      <trkpt lat="42.505470" lon="-8.649425">
        <ele>174.286</ele>
        <time>2018-08-25T12:23:23Z</time>
      </trkpt>
      <trkpt lat="42.505533" lon="-8.649389">
        <ele>173.964</ele>
        <time>2018-08-25T12:23:24Z</time>
      </trkpt>
      <trkpt lat="42.505602" lon="-8.649360">
        <ele>173.342</ele>
        <time>2018-08-25T12:23:25Z</time>
      </trkpt>
      <trkpt lat="42.505672" lon="-8.649335">
        <ele>173.212</ele>
        <time>2018-08-25T12:23:26Z</time>
      </trkpt>
      <trkpt lat="42.505745" lon="-8.649309">
        <ele>172.999</ele>
        <time>2018-08-25T12:23:27Z</time>
      </trkpt>
      <trkpt lat="42.505814" lon="-8.649293">
        <ele>172.607</ele>
        <time>2018-08-25T12:23:28Z</time>
      </trkpt>
      <trkpt lat="42.505883" lon="-8.649276">
        <ele>172.427</ele>
        <time>2018-08-25T12:23:29Z</time>
      </trkpt>
      <trkpt lat="42.505956" lon="-8.649261">
        <ele>172.308</ele>
        <time>2018-08-25T12:23:30Z</time>
      </trkpt>
      <trkpt lat="42.506033" lon="-8.649244">
        <ele>172.151</ele>
        <time>2018-08-25T12:23:31Z</time>
      </trkpt>
      <trkpt lat="42.506108" lon="-8.649224">
        <ele>171.967</ele>
        <time>2018-08-25T12:23:32Z</time>
      </trkpt>
      <trkpt lat="42.506184" lon="-8.649199">
        <ele>171.612</ele>
        <time>2018-08-25T12:23:33Z</time>
      </trkpt>
      <trkpt lat="42.506263" lon="-8.649168">
        <ele>171.336</ele>
        <time>2018-08-25T12:23:34Z</time>
      </trkpt>
      <trkpt lat="42.506347" lon="-8.649133">
        <ele>171.013</ele>
        <time>2018-08-25T12:23:35Z</time>
      </trkpt>
      <trkpt lat="42.506433" lon="-8.649102">
        <ele>170.791</ele>
        <time>2018-08-25T12:23:36Z</time>
      </trkpt>
      <trkpt lat="42.506520" lon="-8.649080">
        <ele>170.559</ele>
        <time>2018-08-25T12:23:37Z</time>
      </trkpt>
      <trkpt lat="42.506607" lon="-8.649061">
        <ele>170.349</ele>
        <time>2018-08-25T12:23:38Z</time>
      </trkpt>
      <trkpt lat="42.506695" lon="-8.649040">
        <ele>170.042</ele>
        <time>2018-08-25T12:23:39Z</time>
      </trkpt>
      <trkpt lat="42.506783" lon="-8.649022">
        <ele>169.722</ele>
        <time>2018-08-25T12:23:40Z</time>
      </trkpt>
      <trkpt lat="42.506870" lon="-8.649007">
        <ele>169.414</ele>
        <time>2018-08-25T12:23:41Z</time>
      </trkpt>
      <trkpt lat="42.506954" lon="-8.648988">
        <ele>169.208</ele>
        <time>2018-08-25T12:23:42Z</time>
      </trkpt>
      <trkpt lat="42.507041" lon="-8.648967">
        <ele>169.066</ele>
        <time>2018-08-25T12:23:43Z</time>
      </trkpt>
      <trkpt lat="42.507129" lon="-8.648955">
        <ele>169.022</ele>
        <time>2018-08-25T12:23:44Z</time>
      </trkpt>
      <trkpt lat="42.507217" lon="-8.648943">
        <ele>169.157</ele>
        <time>2018-08-25T12:23:45Z</time>
      </trkpt>
      <trkpt lat="42.507304" lon="-8.648927">
        <ele>169.181</ele>
        <time>2018-08-25T12:23:46Z</time>
      </trkpt>
      <trkpt lat="42.507396" lon="-8.648913">
        <ele>169.178</ele>
        <time>2018-08-25T12:23:47Z</time>
      </trkpt>
      <trkpt lat="42.507491" lon="-8.648902">
        <ele>168.986</ele>
        <time>2018-08-25T12:23:48Z</time>
      </trkpt>
      <trkpt lat="42.507583" lon="-8.648908">
        <ele>168.574</ele>
        <time>2018-08-25T12:23:49Z</time>
      </trkpt>
      <trkpt lat="42.507671" lon="-8.648931">
        <ele>168.114</ele>
        <time>2018-08-25T12:23:50Z</time>
      </trkpt>
      <trkpt lat="42.507747" lon="-8.648954">
        <ele>167.742</ele>
        <time>2018-08-25T12:23:51Z</time>
      </trkpt>
      <trkpt lat="42.507814" lon="-8.648988">
        <ele>167.122</ele>
        <time>2018-08-25T12:23:52Z</time>
      </trkpt>
      <trkpt lat="42.507858" lon="-8.649043">
        <ele>166.614</ele>
        <time>2018-08-25T12:23:55Z</time>
      </trkpt>
      <trkpt lat="42.507898" lon="-8.649084">
        <ele>165.708</ele>
        <time>2018-08-25T12:23:59Z</time>
      </trkpt>
      <trkpt lat="42.507958" lon="-8.649121">
        <ele>164.896</ele>
        <time>2018-08-25T12:24:02Z</time>
      </trkpt>
      <trkpt lat="42.508009" lon="-8.649144">
        <ele>164.552</ele>
        <time>2018-08-25T12:24:04Z</time>
      </trkpt>
      <trkpt lat="42.508056" lon="-8.649179">
        <ele>164.677</ele>
        <time>2018-08-25T12:24:06Z</time>
      </trkpt>
      <trkpt lat="42.508101" lon="-8.649216">
        <ele>164.511</ele>
        <time>2018-08-25T12:24:08Z</time>
      </trkpt>
      <trkpt lat="42.508182" lon="-8.649271">
        <ele>164.338</ele>
        <time>2018-08-25T12:24:09Z</time>
      </trkpt>
      <trkpt lat="42.508241" lon="-8.649304">
        <ele>163.746</ele>
        <time>2018-08-25T12:24:11Z</time>
      </trkpt>
      <trkpt lat="42.508293" lon="-8.649334">
        <ele>163.034</ele>
        <time>2018-08-25T12:24:13Z</time>
      </trkpt>
      <trkpt lat="42.508349" lon="-8.649377">
        <ele>162.444</ele>
        <time>2018-08-25T12:24:15Z</time>
      </trkpt>
      <trkpt lat="42.508405" lon="-8.649434">
        <ele>161.712</ele>
        <time>2018-08-25T12:24:17Z</time>
      </trkpt>
      <trkpt lat="42.508464" lon="-8.649485">
        <ele>161.132</ele>
        <time>2018-08-25T12:24:19Z</time>
      </trkpt>
      <trkpt lat="42.508540" lon="-8.649532">
        <ele>160.605</ele>
        <time>2018-08-25T12:24:20Z</time>
      </trkpt>
      <trkpt lat="42.508612" lon="-8.649564">
        <ele>159.608</ele>
        <time>2018-08-25T12:24:22Z</time>
      </trkpt>
      <trkpt lat="42.508656" lon="-8.649587">
        <ele>158.483</ele>
        <time>2018-08-25T12:24:24Z</time>
      </trkpt>
      <trkpt lat="42.508707" lon="-8.649615">
        <ele>156.319</ele>
        <time>2018-08-25T12:24:26Z</time>
      </trkpt>
      <trkpt lat="42.508795" lon="-8.649645">
        <ele>154.314</ele>
        <time>2018-08-25T12:24:27Z</time>
      </trkpt>
      <trkpt lat="42.508849" lon="-8.649652">
        <ele>152.698</ele>
        <time>2018-08-25T12:24:28Z</time>
      </trkpt>
      <trkpt lat="42.508913" lon="-8.649648">
        <ele>150.915</ele>
        <time>2018-08-25T12:24:29Z</time>
      </trkpt>
      <trkpt lat="42.508989" lon="-8.649641">
        <ele>149.753</ele>
        <time>2018-08-25T12:24:30Z</time>
      </trkpt>
      <trkpt lat="42.509066" lon="-8.649632">
        <ele>148.971</ele>
        <time>2018-08-25T12:24:31Z</time>
      </trkpt>
      <trkpt lat="42.509145" lon="-8.649622">
        <ele>148.581</ele>
        <time>2018-08-25T12:24:32Z</time>
      </trkpt>
      <trkpt lat="42.509226" lon="-8.649611">
        <ele>148.182</ele>
        <time>2018-08-25T12:24:33Z</time>
      </trkpt>
      <trkpt lat="42.509311" lon="-8.649601">
        <ele>147.743</ele>
        <time>2018-08-25T12:24:34Z</time>
      </trkpt>
      <trkpt lat="42.509403" lon="-8.649593">
        <ele>147.317</ele>
        <time>2018-08-25T12:24:35Z</time>
      </trkpt>
      <trkpt lat="42.509494" lon="-8.649585">
        <ele>146.708</ele>
        <time>2018-08-25T12:24:36Z</time>
      </trkpt>
      <trkpt lat="42.509588" lon="-8.649580">
        <ele>146.190</ele>
        <time>2018-08-25T12:24:37Z</time>
      </trkpt>
      <trkpt lat="42.509679" lon="-8.649578">
        <ele>145.686</ele>
        <time>2018-08-25T12:24:38Z</time>
      </trkpt>
      <trkpt lat="42.509771" lon="-8.649587">
        <ele>145.161</ele>
        <time>2018-08-25T12:24:39Z</time>
      </trkpt>
      <trkpt lat="42.509859" lon="-8.649604">
        <ele>144.615</ele>
        <time>2018-08-25T12:24:40Z</time>
      </trkpt>
      <trkpt lat="42.509947" lon="-8.649633">
        <ele>144.392</ele>
        <time>2018-08-25T12:24:41Z</time>
      </trkpt>
      <trkpt lat="42.510034" lon="-8.649650">
        <ele>144.370</ele>
        <time>2018-08-25T12:24:42Z</time>
      </trkpt>
      <trkpt lat="42.510114" lon="-8.649669">
        <ele>144.398</ele>
        <time>2018-08-25T12:24:43Z</time>
      </trkpt>
      <trkpt lat="42.510192" lon="-8.649691">
        <ele>144.428</ele>
        <time>2018-08-25T12:24:44Z</time>
      </trkpt>
      <trkpt lat="42.510265" lon="-8.649713">
        <ele>144.651</ele>
        <time>2018-08-25T12:24:45Z</time>
      </trkpt>
      <trkpt lat="42.510339" lon="-8.649735">
        <ele>144.901</ele>
        <time>2018-08-25T12:24:46Z</time>
      </trkpt>
      <trkpt lat="42.510416" lon="-8.649753">
        <ele>145.111</ele>
        <time>2018-08-25T12:24:47Z</time>
      </trkpt>
      <trkpt lat="42.510494" lon="-8.649775">
        <ele>145.108</ele>
        <time>2018-08-25T12:24:48Z</time>
      </trkpt>
      <trkpt lat="42.510585" lon="-8.649787">
        <ele>145.077</ele>
        <time>2018-08-25T12:24:49Z</time>
      </trkpt>
      <trkpt lat="42.510671" lon="-8.649806">
        <ele>144.273</ele>
        <time>2018-08-25T12:24:50Z</time>
      </trkpt>
      <trkpt lat="42.510756" lon="-8.649828">
        <ele>143.258</ele>
        <time>2018-08-25T12:24:51Z</time>
      </trkpt>
      <trkpt lat="42.510839" lon="-8.649854">
        <ele>142.152</ele>
        <time>2018-08-25T12:24:52Z</time>
      </trkpt>
      <trkpt lat="42.510925" lon="-8.649899">
        <ele>141.319</ele>
        <time>2018-08-25T12:24:53Z</time>
      </trkpt>
      <trkpt lat="42.511011" lon="-8.649940">
        <ele>140.127</ele>
        <time>2018-08-25T12:24:54Z</time>
      </trkpt>
      <trkpt lat="42.511095" lon="-8.649982">
        <ele>139.225</ele>
        <time>2018-08-25T12:24:55Z</time>
      </trkpt>
      <trkpt lat="42.511179" lon="-8.650023">
        <ele>138.345</ele>
        <time>2018-08-25T12:24:56Z</time>
      </trkpt>
      <trkpt lat="42.511261" lon="-8.650064">
        <ele>137.134</ele>
        <time>2018-08-25T12:24:57Z</time>
      </trkpt>
      <trkpt lat="42.511344" lon="-8.650102">
        <ele>136.055</ele>
        <time>2018-08-25T12:24:58Z</time>
      </trkpt>
      <trkpt lat="42.511425" lon="-8.650134">
        <ele>135.110</ele>
        <time>2018-08-25T12:24:59Z</time>
      </trkpt>
      <trkpt lat="42.511504" lon="-8.650148">
        <ele>134.208</ele>
        <time>2018-08-25T12:25:00Z</time>
      </trkpt>
      <trkpt lat="42.511585" lon="-8.650151">
        <ele>133.495</ele>
        <time>2018-08-25T12:25:01Z</time>
      </trkpt>
      <trkpt lat="42.511669" lon="-8.650147">
        <ele>132.741</ele>
        <time>2018-08-25T12:25:02Z</time>
      </trkpt>
      <trkpt lat="42.511755" lon="-8.650130">
        <ele>132.116</ele>
        <time>2018-08-25T12:25:03Z</time>
      </trkpt>
      <trkpt lat="42.511837" lon="-8.650090">
        <ele>131.410</ele>
        <time>2018-08-25T12:25:04Z</time>
      </trkpt>
      <trkpt lat="42.511932" lon="-8.650056">
        <ele>130.727</ele>
        <time>2018-08-25T12:25:05Z</time>
      </trkpt>
      <trkpt lat="42.512032" lon="-8.650023">
        <ele>130.175</ele>
        <time>2018-08-25T12:25:06Z</time>
      </trkpt>
      <trkpt lat="42.512138" lon="-8.649986">
        <ele>129.593</ele>
        <time>2018-08-25T12:25:07Z</time>
      </trkpt>
      <trkpt lat="42.512241" lon="-8.649963">
        <ele>129.083</ele>
        <time>2018-08-25T12:25:08Z</time>
      </trkpt>
      <trkpt lat="42.512334" lon="-8.649939">
        <ele>128.679</ele>
        <time>2018-08-25T12:25:09Z</time>
      </trkpt>
      <trkpt lat="42.512422" lon="-8.649919">
        <ele>128.605</ele>
        <time>2018-08-25T12:25:10Z</time>
      </trkpt>
      <trkpt lat="42.512507" lon="-8.649900">
        <ele>128.825</ele>
        <time>2018-08-25T12:25:11Z</time>
      </trkpt>
      <trkpt lat="42.512588" lon="-8.649881">
        <ele>129.008</ele>
        <time>2018-08-25T12:25:12Z</time>
      </trkpt>
      <trkpt lat="42.512668" lon="-8.649861">
        <ele>129.239</ele>
        <time>2018-08-25T12:25:13Z</time>
      </trkpt>
      <trkpt lat="42.512745" lon="-8.649841">
        <ele>129.345</ele>
        <time>2018-08-25T12:25:14Z</time>
      </trkpt>
      <trkpt lat="42.512818" lon="-8.649818">
        <ele>129.330</ele>
        <time>2018-08-25T12:25:15Z</time>
      </trkpt>
      <trkpt lat="42.512887" lon="-8.649794">
        <ele>129.294</ele>
        <time>2018-08-25T12:25:16Z</time>
      </trkpt>
      <trkpt lat="42.512955" lon="-8.649767">
        <ele>129.221</ele>
        <time>2018-08-25T12:25:17Z</time>
      </trkpt>
      <trkpt lat="42.513019" lon="-8.649737">
        <ele>129.279</ele>
        <time>2018-08-25T12:25:18Z</time>
      </trkpt>
      <trkpt lat="42.513075" lon="-8.649704">
        <ele>129.297</ele>
        <time>2018-08-25T12:25:19Z</time>
      </trkpt>
      <trkpt lat="42.513127" lon="-8.649671">
        <ele>129.127</ele>
        <time>2018-08-25T12:25:20Z</time>
      </trkpt>
      <trkpt lat="42.513175" lon="-8.649637">
        <ele>129.015</ele>
        <time>2018-08-25T12:25:21Z</time>
      </trkpt>
      <trkpt lat="42.513219" lon="-8.649602">
        <ele>129.065</ele>
        <time>2018-08-25T12:25:22Z</time>
      </trkpt>
      <trkpt lat="42.513258" lon="-8.649564">
        <ele>129.011</ele>
        <time>2018-08-25T12:25:23Z</time>
      </trkpt>
      <trkpt lat="42.513298" lon="-8.649528">
        <ele>128.908</ele>
        <time>2018-08-25T12:25:24Z</time>
      </trkpt>
      <trkpt lat="42.513361" lon="-8.649460">
        <ele>128.853</ele>
        <time>2018-08-25T12:25:26Z</time>
      </trkpt>
      <trkpt lat="42.513408" lon="-8.649416">
        <ele>128.819</ele>
        <time>2018-08-25T12:25:29Z</time>
      </trkpt>
      <trkpt lat="42.513457" lon="-8.649368">
        <ele>129.034</ele>
        <time>2018-08-25T12:25:32Z</time>
      </trkpt>
      <trkpt lat="42.513506" lon="-8.649317">
        <ele>129.148</ele>
        <time>2018-08-25T12:25:35Z</time>
      </trkpt>
      <trkpt lat="42.513548" lon="-8.649286">
        <ele>129.155</ele>
        <time>2018-08-25T12:25:37Z</time>
      </trkpt>
      <trkpt lat="42.513593" lon="-8.649253">
        <ele>129.373</ele>
        <time>2018-08-25T12:25:39Z</time>
      </trkpt>
      <trkpt lat="42.513640" lon="-8.649212">
        <ele>129.181</ele>
        <time>2018-08-25T12:25:41Z</time>
      </trkpt>
      <trkpt lat="42.513689" lon="-8.649168">
        <ele>129.851</ele>
        <time>2018-08-25T12:25:43Z</time>
      </trkpt>
      <trkpt lat="42.513743" lon="-8.649124">
        <ele>130.297</ele>
        <time>2018-08-25T12:25:45Z</time>
      </trkpt>
      <trkpt lat="42.513801" lon="-8.649086">
        <ele>130.123</ele>
        <time>2018-08-25T12:25:47Z</time>
      </trkpt>
      <trkpt lat="42.513858" lon="-8.649058">
        <ele>130.125</ele>
        <time>2018-08-25T12:25:49Z</time>
      </trkpt>
      <trkpt lat="42.513919" lon="-8.649028">
        <ele>130.208</ele>
        <time>2018-08-25T12:25:51Z</time>
      </trkpt>
      <trkpt lat="42.513981" lon="-8.648999">
        <ele>130.351</ele>
        <time>2018-08-25T12:25:53Z</time>
      </trkpt>
      <trkpt lat="42.514043" lon="-8.648977">
        <ele>130.677</ele>
        <time>2018-08-25T12:25:55Z</time>
      </trkpt>
      <trkpt lat="42.514102" lon="-8.648956">
        <ele>130.972</ele>
        <time>2018-08-25T12:25:57Z</time>
      </trkpt>
      <trkpt lat="42.514162" lon="-8.648928">
        <ele>131.066</ele>
        <time>2018-08-25T12:25:59Z</time>
      </trkpt>
      <trkpt lat="42.514223" lon="-8.648899">
        <ele>131.153</ele>
        <time>2018-08-25T12:26:01Z</time>
      </trkpt>
      <trkpt lat="42.514282" lon="-8.648867">
        <ele>131.281</ele>
        <time>2018-08-25T12:26:03Z</time>
      </trkpt>
      <trkpt lat="42.514339" lon="-8.648829">
        <ele>131.299</ele>
        <time>2018-08-25T12:26:05Z</time>
      </trkpt>
      <trkpt lat="42.514400" lon="-8.648790">
        <ele>131.139</ele>
        <time>2018-08-25T12:26:07Z</time>
      </trkpt>
      <trkpt lat="42.514460" lon="-8.648750">
        <ele>130.962</ele>
        <time>2018-08-25T12:26:09Z</time>
      </trkpt>
      <trkpt lat="42.514516" lon="-8.648710">
        <ele>131.083</ele>
        <time>2018-08-25T12:26:11Z</time>
      </trkpt>
      <trkpt lat="42.514569" lon="-8.648679">
        <ele>131.211</ele>
        <time>2018-08-25T12:26:13Z</time>
      </trkpt>
      <trkpt lat="42.514617" lon="-8.648658">
        <ele>131.508</ele>
        <time>2018-08-25T12:26:15Z</time>
      </trkpt>
      <trkpt lat="42.514661" lon="-8.648638">
        <ele>131.838</ele>
        <time>2018-08-25T12:26:17Z</time>
      </trkpt>
      <trkpt lat="42.514705" lon="-8.648615">
        <ele>132.294</ele>
        <time>2018-08-25T12:26:19Z</time>
      </trkpt>
      <trkpt lat="42.514750" lon="-8.648591">
        <ele>132.769</ele>
        <time>2018-08-25T12:26:21Z</time>
      </trkpt>
      <trkpt lat="42.514792" lon="-8.648562">
        <ele>133.033</ele>
        <time>2018-08-25T12:26:23Z</time>
      </trkpt>
      <trkpt lat="42.514850" lon="-8.648531">
        <ele>133.140</ele>
        <time>2018-08-25T12:26:26Z</time>
      </trkpt>
      <trkpt lat="42.514910" lon="-8.648501">
        <ele>132.998</ele>
        <time>2018-08-25T12:26:29Z</time>
      </trkpt>
      <trkpt lat="42.514976" lon="-8.648476">
        <ele>132.946</ele>
        <time>2018-08-25T12:26:32Z</time>
      </trkpt>
      <trkpt lat="42.515022" lon="-8.648442">
        <ele>132.866</ele>
        <time>2018-08-25T12:26:34Z</time>
      </trkpt>
      <trkpt lat="42.515070" lon="-8.648415">
        <ele>132.779</ele>
        <time>2018-08-25T12:26:36Z</time>
      </trkpt>
      <trkpt lat="42.515128" lon="-8.648392">
        <ele>132.605</ele>
        <time>2018-08-25T12:26:38Z</time>
      </trkpt>
      <trkpt lat="42.515193" lon="-8.648356">
        <ele>132.525</ele>
        <time>2018-08-25T12:26:40Z</time>
      </trkpt>
      <trkpt lat="42.515285" lon="-8.648298">
        <ele>132.408</ele>
        <time>2018-08-25T12:26:41Z</time>
      </trkpt>
      <trkpt lat="42.515357" lon="-8.648247">
        <ele>132.339</ele>
        <time>2018-08-25T12:26:43Z</time>
      </trkpt>
      <trkpt lat="42.515432" lon="-8.648196">
        <ele>132.195</ele>
        <time>2018-08-25T12:26:45Z</time>
      </trkpt>
      <trkpt lat="42.515508" lon="-8.648138">
        <ele>132.070</ele>
        <time>2018-08-25T12:26:47Z</time>
      </trkpt>
      <trkpt lat="42.515584" lon="-8.648085">
        <ele>131.744</ele>
        <time>2018-08-25T12:26:49Z</time>
      </trkpt>
      <trkpt lat="42.515626" lon="-8.648058">
        <ele>131.441</ele>
        <time>2018-08-25T12:26:50Z</time>
      </trkpt>
      <trkpt lat="42.515667" lon="-8.648028">
        <ele>131.279</ele>
        <time>2018-08-25T12:26:51Z</time>
      </trkpt>
      <trkpt lat="42.515709" lon="-8.647998">
        <ele>131.147</ele>
        <time>2018-08-25T12:26:52Z</time>
      </trkpt>
      <trkpt lat="42.515752" lon="-8.647969">
        <ele>131.057</ele>
        <time>2018-08-25T12:26:53Z</time>
      </trkpt>
      <trkpt lat="42.515794" lon="-8.647942">
        <ele>130.938</ele>
        <time>2018-08-25T12:26:54Z</time>
      </trkpt>
      <trkpt lat="42.515835" lon="-8.647916">
        <ele>130.970</ele>
        <time>2018-08-25T12:26:55Z</time>
      </trkpt>
      <trkpt lat="42.515906" lon="-8.647859">
        <ele>130.917</ele>
        <time>2018-08-25T12:26:57Z</time>
      </trkpt>
      <trkpt lat="42.515949" lon="-8.647818">
        <ele>130.708</ele>
        <time>2018-08-25T12:26:59Z</time>
      </trkpt>
      <trkpt lat="42.515990" lon="-8.647779">
        <ele>130.585</ele>
        <time>2018-08-25T12:27:00Z</time>
      </trkpt>
      <trkpt lat="42.516037" lon="-8.647733">
        <ele>130.331</ele>
        <time>2018-08-25T12:27:02Z</time>
      </trkpt>
      <trkpt lat="42.516077" lon="-8.647689">
        <ele>130.276</ele>
        <time>2018-08-25T12:27:04Z</time>
      </trkpt>
      <trkpt lat="42.516139" lon="-8.647632">
        <ele>130.160</ele>
        <time>2018-08-25T12:27:05Z</time>
      </trkpt>
      <trkpt lat="42.516208" lon="-8.647577">
        <ele>130.177</ele>
        <time>2018-08-25T12:27:07Z</time>
      </trkpt>
      <trkpt lat="42.516282" lon="-8.647528">
        <ele>130.155</ele>
        <time>2018-08-25T12:27:09Z</time>
      </trkpt>
      <trkpt lat="42.516362" lon="-8.647493">
        <ele>130.183</ele>
        <time>2018-08-25T12:27:11Z</time>
      </trkpt>
      <trkpt lat="42.516444" lon="-8.647474">
        <ele>130.173</ele>
        <time>2018-08-25T12:27:13Z</time>
      </trkpt>
      <trkpt lat="42.516527" lon="-8.647464">
        <ele>130.371</ele>
        <time>2018-08-25T12:27:15Z</time>
      </trkpt>
      <trkpt lat="42.516602" lon="-8.647446">
        <ele>130.441</ele>
        <time>2018-08-25T12:27:17Z</time>
      </trkpt>
      <trkpt lat="42.516660" lon="-8.647432">
        <ele>130.515</ele>
        <time>2018-08-25T12:27:19Z</time>
      </trkpt>
      <trkpt lat="42.516751" lon="-8.647404">
        <ele>130.508</ele>
        <time>2018-08-25T12:27:21Z</time>
      </trkpt>
      <trkpt lat="42.516827" lon="-8.647368">
        <ele>130.579</ele>
        <time>2018-08-25T12:27:23Z</time>
      </trkpt>
      <trkpt lat="42.516888" lon="-8.647327">
        <ele>130.415</ele>
        <time>2018-08-25T12:27:26Z</time>
      </trkpt>
      <trkpt lat="42.516953" lon="-8.647288">
        <ele>130.370</ele>
        <time>2018-08-25T12:27:27Z</time>
      </trkpt>
      <trkpt lat="42.517001" lon="-8.647254">
        <ele>130.224</ele>
        <time>2018-08-25T12:27:29Z</time>
      </trkpt>
      <trkpt lat="42.517046" lon="-8.647221">
        <ele>130.161</ele>
        <time>2018-08-25T12:27:30Z</time>
      </trkpt>
      <trkpt lat="42.517111" lon="-8.647172">
        <ele>130.059</ele>
        <time>2018-08-25T12:27:32Z</time>
      </trkpt>
      <trkpt lat="42.517176" lon="-8.647117">
        <ele>129.857</ele>
        <time>2018-08-25T12:27:34Z</time>
      </trkpt>
      <trkpt lat="42.517241" lon="-8.647060">
        <ele>129.617</ele>
        <time>2018-08-25T12:27:36Z</time>
      </trkpt>
      <trkpt lat="42.517308" lon="-8.647010">
        <ele>129.511</ele>
        <time>2018-08-25T12:27:38Z</time>
      </trkpt>
      <trkpt lat="42.517350" lon="-8.646984">
        <ele>129.421</ele>
        <time>2018-08-25T12:27:40Z</time>
      </trkpt>
      <trkpt lat="42.517414" lon="-8.646946">
        <ele>129.303</ele>
        <time>2018-08-25T12:27:41Z</time>
      </trkpt>
      <trkpt lat="42.517488" lon="-8.646881">
        <ele>128.808</ele>
        <time>2018-08-25T12:27:43Z</time>
      </trkpt>
      <trkpt lat="42.517555" lon="-8.646813">
        <ele>128.183</ele>
        <time>2018-08-25T12:27:45Z</time>
      </trkpt>
      <trkpt lat="42.517622" lon="-8.646731">
        <ele>127.459</ele>
        <time>2018-08-25T12:27:47Z</time>
      </trkpt>
      <trkpt lat="42.517684" lon="-8.646645">
        <ele>126.734</ele>
        <time>2018-08-25T12:27:49Z</time>
      </trkpt>
      <trkpt lat="42.517719" lon="-8.646603">
        <ele>126.118</ele>
        <time>2018-08-25T12:27:50Z</time>
      </trkpt>
      <trkpt lat="42.517789" lon="-8.646528">
        <ele>125.245</ele>
        <time>2018-08-25T12:27:52Z</time>
      </trkpt>
      <trkpt lat="42.517820" lon="-8.646481">
        <ele>124.693</ele>
        <time>2018-08-25T12:27:53Z</time>
      </trkpt>
      <trkpt lat="42.517851" lon="-8.646434">
        <ele>124.171</ele>
        <time>2018-08-25T12:27:54Z</time>
      </trkpt>
      <trkpt lat="42.517884" lon="-8.646392">
        <ele>123.711</ele>
        <time>2018-08-25T12:27:55Z</time>
      </trkpt>
      <trkpt lat="42.517952" lon="-8.646314">
        <ele>123.385</ele>
        <time>2018-08-25T12:27:57Z</time>
      </trkpt>
      <trkpt lat="42.518017" lon="-8.646231">
        <ele>123.189</ele>
        <time>2018-08-25T12:27:59Z</time>
      </trkpt>
      <trkpt lat="42.518078" lon="-8.646145">
        <ele>122.817</ele>
        <time>2018-08-25T12:28:01Z</time>
      </trkpt>
      <trkpt lat="42.518103" lon="-8.646092">
        <ele>122.508</ele>
        <time>2018-08-25T12:28:02Z</time>
      </trkpt>
      <trkpt lat="42.518124" lon="-8.646025">
        <ele>122.430</ele>
        <time>2018-08-25T12:28:03Z</time>
      </trkpt>
      <trkpt lat="42.518147" lon="-8.645961">
        <ele>122.596</ele>
        <time>2018-08-25T12:28:04Z</time>
      </trkpt>
      <trkpt lat="42.518172" lon="-8.645904">
        <ele>123.021</ele>
        <time>2018-08-25T12:28:05Z</time>
      </trkpt>
      <trkpt lat="42.518212" lon="-8.645798">
        <ele>123.315</ele>
        <time>2018-08-25T12:28:07Z</time>
      </trkpt>
      <trkpt lat="42.518262" lon="-8.645701">
        <ele>123.462</ele>
        <time>2018-08-25T12:28:09Z</time>
      </trkpt>
      <trkpt lat="42.518306" lon="-8.645607">
        <ele>123.420</ele>
        <time>2018-08-25T12:28:11Z</time>
      </trkpt>
      <trkpt lat="42.518340" lon="-8.645518">
        <ele>123.468</ele>
        <time>2018-08-25T12:28:13Z</time>
      </trkpt>
      <trkpt lat="42.518384" lon="-8.645438">
        <ele>123.358</ele>
        <time>2018-08-25T12:28:15Z</time>
      </trkpt>
      <trkpt lat="42.518412" lon="-8.645356">
        <ele>122.956</ele>
        <time>2018-08-25T12:28:18Z</time>
      </trkpt>
      <trkpt lat="42.518431" lon="-8.645297">
        <ele>122.659</ele>
        <time>2018-08-25T12:28:20Z</time>
      </trkpt>
      <trkpt lat="42.518461" lon="-8.645219">
        <ele>121.814</ele>
        <time>2018-08-25T12:28:23Z</time>
      </trkpt>
      <trkpt lat="42.518490" lon="-8.645155">
        <ele>121.108</ele>
        <time>2018-08-25T12:28:25Z</time>
      </trkpt>
      <trkpt lat="42.518525" lon="-8.645077">
        <ele>120.797</ele>
        <time>2018-08-25T12:28:27Z</time>
      </trkpt>
      <trkpt lat="42.518562" lon="-8.645004">
        <ele>120.233</ele>
        <time>2018-08-25T12:28:29Z</time>
      </trkpt>
      <trkpt lat="42.518598" lon="-8.644942">
        <ele>120.288</ele>
        <time>2018-08-25T12:28:31Z</time>
      </trkpt>
      <trkpt lat="42.518631" lon="-8.644898">
        <ele>120.182</ele>
        <time>2018-08-25T12:28:33Z</time>
      </trkpt>
      <trkpt lat="42.518699" lon="-8.644839">
        <ele>120.149</ele>
        <time>2018-08-25T12:29:09Z</time>
      </trkpt>
      <trkpt lat="42.518749" lon="-8.644881">
        <ele>120.297</ele>
        <time>2018-08-25T12:29:14Z</time>
      </trkpt>
      <trkpt lat="42.518793" lon="-8.645017">
        <ele>120.465</ele>
        <time>2018-08-25T12:29:16Z</time>
      </trkpt>
      <trkpt lat="42.518793" lon="-8.645133">
        <ele>120.335</ele>
        <time>2018-08-25T12:29:18Z</time>
      </trkpt>
      <trkpt lat="42.518793" lon="-8.645197">
        <ele>120.243</ele>
        <time>2018-08-25T12:29:19Z</time>
      </trkpt>
      <trkpt lat="42.518794" lon="-8.645263">
        <ele>120.064</ele>
        <time>2018-08-25T12:29:20Z</time>
      </trkpt>
      <trkpt lat="42.518805" lon="-8.645323">
        <ele>119.710</ele>
        <time>2018-08-25T12:29:21Z</time>
      </trkpt>
      <trkpt lat="42.518843" lon="-8.645382">
        <ele>119.508</ele>
        <time>2018-08-25T12:29:23Z</time>
      </trkpt>
      <trkpt lat="42.518907" lon="-8.645407">
        <ele>119.436</ele>
        <time>2018-08-25T12:29:26Z</time>
      </trkpt>
      <trkpt lat="42.518980" lon="-8.645410">
        <ele>119.462</ele>
        <time>2018-08-25T12:29:27Z</time>
      </trkpt>
      <trkpt lat="42.519054" lon="-8.645403">
        <ele>119.237</ele>
        <time>2018-08-25T12:29:29Z</time>
      </trkpt>
      <trkpt lat="42.519135" lon="-8.645399">
        <ele>119.171</ele>
        <time>2018-08-25T12:29:31Z</time>
      </trkpt>
      <trkpt lat="42.519222" lon="-8.645394">
        <ele>118.898</ele>
        <time>2018-08-25T12:29:33Z</time>
      </trkpt>
      <trkpt lat="42.519267" lon="-8.645394">
        <ele>118.696</ele>
        <time>2018-08-25T12:29:34Z</time>
      </trkpt>
      <trkpt lat="42.519312" lon="-8.645394">
        <ele>118.464</ele>
        <time>2018-08-25T12:29:35Z</time>
      </trkpt>
      <trkpt lat="42.519360" lon="-8.645394">
        <ele>118.264</ele>
        <time>2018-08-25T12:29:36Z</time>
      </trkpt>
      <trkpt lat="42.519409" lon="-8.645392">
        <ele>118.019</ele>
        <time>2018-08-25T12:29:37Z</time>
      </trkpt>
      <trkpt lat="42.519458" lon="-8.645397">
        <ele>117.909</ele>
        <time>2018-08-25T12:29:38Z</time>
      </trkpt>
      <trkpt lat="42.519511" lon="-8.645407">
        <ele>117.719</ele>
        <time>2018-08-25T12:29:39Z</time>
      </trkpt>
      <trkpt lat="42.519568" lon="-8.645421">
        <ele>117.408</ele>
        <time>2018-08-25T12:29:40Z</time>
      </trkpt>
      <trkpt lat="42.519624" lon="-8.645424">
        <ele>117.083</ele>
        <time>2018-08-25T12:29:41Z</time>
      </trkpt>
      <trkpt lat="42.519681" lon="-8.645418">
        <ele>116.989</ele>
        <time>2018-08-25T12:29:42Z</time>
      </trkpt>
      <trkpt lat="42.519735" lon="-8.645404">
        <ele>116.884</ele>
        <time>2018-08-25T12:29:43Z</time>
      </trkpt>
      <trkpt lat="42.519796" lon="-8.645397">
        <ele>116.598</ele>
        <time>2018-08-25T12:29:45Z</time>
      </trkpt>
      <trkpt lat="42.519852" lon="-8.645428">
        <ele>116.155</ele>
        <time>2018-08-25T12:29:48Z</time>
      </trkpt>
      <trkpt lat="42.519887" lon="-8.645484">
        <ele>115.923</ele>
        <time>2018-08-25T12:29:52Z</time>
      </trkpt>
      <trkpt lat="42.519906" lon="-8.645543">
        <ele>116.111</ele>
        <time>2018-08-25T12:29:56Z</time>
      </trkpt>
      <trkpt lat="42.519919" lon="-8.645626">
        <ele>115.881</ele>
        <time>2018-08-25T12:30:00Z</time>
      </trkpt>
      <trkpt lat="42.519928" lon="-8.645714">
        <ele>115.474</ele>
        <time>2018-08-25T12:30:03Z</time>
      </trkpt>
      <trkpt lat="42.519929" lon="-8.645786">
        <ele>115.056</ele>
        <time>2018-08-25T12:30:05Z</time>
      </trkpt>
      <trkpt lat="42.519926" lon="-8.645860">
        <ele>114.521</ele>
        <time>2018-08-25T12:30:07Z</time>
      </trkpt>
      <trkpt lat="42.519907" lon="-8.645946">
        <ele>113.908</ele>
        <time>2018-08-25T12:30:10Z</time>
      </trkpt>
      <trkpt lat="42.519882" lon="-8.645997">
        <ele>113.349</ele>
        <time>2018-08-25T12:30:12Z</time>
      </trkpt>
      <trkpt lat="42.519844" lon="-8.646065">
        <ele>112.955</ele>
        <time>2018-08-25T12:30:32Z</time>
      </trkpt>
      <trkpt lat="42.519878" lon="-8.646004">
        <ele>112.760</ele>
        <time>2018-08-25T12:30:38Z</time>
      </trkpt>
      <trkpt lat="42.519900" lon="-8.645945">
        <ele>112.684</ele>
        <time>2018-08-25T12:30:40Z</time>
      </trkpt>
      <trkpt lat="42.519921" lon="-8.645871">
        <ele>112.551</ele>
        <time>2018-08-25T12:30:42Z</time>
      </trkpt>
      <trkpt lat="42.519934" lon="-8.645786">
        <ele>112.529</ele>
        <time>2018-08-25T12:30:44Z</time>
      </trkpt>
      <trkpt lat="42.519934" lon="-8.645700">
        <ele>112.667</ele>
        <time>2018-08-25T12:30:46Z</time>
      </trkpt>
      <trkpt lat="42.519922" lon="-8.645616">
        <ele>112.897</ele>
        <time>2018-08-25T12:30:48Z</time>
      </trkpt>
      <trkpt lat="42.519885" lon="-8.645465">
        <ele>112.651</ele>
        <time>2018-08-25T12:30:50Z</time>
      </trkpt>
      <trkpt lat="42.519888" lon="-8.645364">
        <ele>112.701</ele>
        <time>2018-08-25T12:30:52Z</time>
      </trkpt>
      <trkpt lat="42.519921" lon="-8.645271">
        <ele>112.611</ele>
        <time>2018-08-25T12:30:54Z</time>
      </trkpt>
      <trkpt lat="42.519966" lon="-8.645189">
        <ele>112.608</ele>
        <time>2018-08-25T12:30:56Z</time>
      </trkpt>
      <trkpt lat="42.520010" lon="-8.645113">
        <ele>112.867</ele>
        <time>2018-08-25T12:30:58Z</time>
      </trkpt>
      <trkpt lat="42.520066" lon="-8.645042">
        <ele>113.013</ele>
        <time>2018-08-25T12:31:00Z</time>
      </trkpt>
      <trkpt lat="42.520151" lon="-8.644940">
        <ele>113.318</ele>
        <time>2018-08-25T12:31:03Z</time>
      </trkpt>
      <trkpt lat="42.520186" lon="-8.644898">
        <ele>113.222</ele>
        <time>2018-08-25T12:31:05Z</time>
      </trkpt>
      <trkpt lat="42.520231" lon="-8.644845">
        <ele>112.859</ele>
        <time>2018-08-25T12:31:07Z</time>
      </trkpt>
      <trkpt lat="42.520300" lon="-8.644767">
        <ele>112.497</ele>
        <time>2018-08-25T12:31:08Z</time>
      </trkpt>
      <trkpt lat="42.520378" lon="-8.644706">
        <ele>112.185</ele>
        <time>2018-08-25T12:31:10Z</time>
      </trkpt>
      <trkpt lat="42.520418" lon="-8.644678">
        <ele>112.055</ele>
        <time>2018-08-25T12:31:11Z</time>
      </trkpt>
      <trkpt lat="42.520461" lon="-8.644653">
        <ele>111.979</ele>
        <time>2018-08-25T12:31:12Z</time>
      </trkpt>
      <trkpt lat="42.520506" lon="-8.644634">
        <ele>111.805</ele>
        <time>2018-08-25T12:31:13Z</time>
      </trkpt>
      <trkpt lat="42.520551" lon="-8.644621">
        <ele>111.725</ele>
        <time>2018-08-25T12:31:14Z</time>
      </trkpt>
      <trkpt lat="42.520640" lon="-8.644596">
        <ele>111.508</ele>
        <time>2018-08-25T12:31:16Z</time>
      </trkpt>
      <trkpt lat="42.520686" lon="-8.644582">
        <ele>111.399</ele>
        <time>2018-08-25T12:31:17Z</time>
      </trkpt>
      <trkpt lat="42.520731" lon="-8.644571">
        <ele>111.245</ele>
        <time>2018-08-25T12:31:18Z</time>
      </trkpt>
      <trkpt lat="42.520817" lon="-8.644556">
        <ele>111.010</ele>
        <time>2018-08-25T12:31:20Z</time>
      </trkpt>
      <trkpt lat="42.520878" lon="-8.644562">
        <ele>110.964</ele>
        <time>2018-08-25T12:31:22Z</time>
      </trkpt>
      <trkpt lat="42.520923" lon="-8.644598">
        <ele>110.941</ele>
        <time>2018-08-25T12:31:24Z</time>
      </trkpt>
      <trkpt lat="42.520969" lon="-8.644648">
        <ele>110.679</ele>
        <time>2018-08-25T12:31:26Z</time>
      </trkpt>
      <trkpt lat="42.521040" lon="-8.644735">
        <ele>110.327</ele>
        <time>2018-08-25T12:31:27Z</time>
      </trkpt>
      <trkpt lat="42.521094" lon="-8.644803">
        <ele>109.897</ele>
        <time>2018-08-25T12:31:29Z</time>
      </trkpt>
      <trkpt lat="42.521154" lon="-8.644860">
        <ele>109.438</ele>
        <time>2018-08-25T12:31:31Z</time>
      </trkpt>
      <trkpt lat="42.521216" lon="-8.644905">
        <ele>109.470</ele>
        <time>2018-08-25T12:31:34Z</time>
      </trkpt>
      <trkpt lat="42.521264" lon="-8.644934">
        <ele>109.417</ele>
        <time>2018-08-25T12:31:36Z</time>
      </trkpt>
      <trkpt lat="42.521305" lon="-8.644962">
        <ele>109.508</ele>
        <time>2018-08-25T12:31:38Z</time>
      </trkpt>
      <trkpt lat="42.521362" lon="-8.645004">
        <ele>109.435</ele>
        <time>2018-08-25T12:31:41Z</time>
      </trkpt>
      <trkpt lat="42.521405" lon="-8.645032">
        <ele>109.191</ele>
        <time>2018-08-25T12:31:43Z</time>
      </trkpt>
      <trkpt lat="42.521460" lon="-8.645054">
        <ele>108.956</ele>
        <time>2018-08-25T12:31:45Z</time>
      </trkpt>
      <trkpt lat="42.521520" lon="-8.645068">
        <ele>108.640</ele>
        <time>2018-08-25T12:31:47Z</time>
      </trkpt>
      <trkpt lat="42.521581" lon="-8.645075">
        <ele>108.487</ele>
        <time>2018-08-25T12:31:49Z</time>
      </trkpt>
      <trkpt lat="42.521641" lon="-8.645070">
        <ele>108.445</ele>
        <time>2018-08-25T12:31:51Z</time>
      </trkpt>
      <trkpt lat="42.521702" lon="-8.645061">
        <ele>109.133</ele>
        <time>2018-08-25T12:31:53Z</time>
      </trkpt>
      <trkpt lat="42.521758" lon="-8.645055">
        <ele>109.793</ele>
        <time>2018-08-25T12:31:55Z</time>
      </trkpt>
      <trkpt lat="42.521806" lon="-8.645049">
        <ele>110.323</ele>
        <time>2018-08-25T12:31:57Z</time>
      </trkpt>
      <trkpt lat="42.521853" lon="-8.645045">
        <ele>110.983</ele>
        <time>2018-08-25T12:31:59Z</time>
      </trkpt>
      <trkpt lat="42.521899" lon="-8.645045">
        <ele>111.611</ele>
        <time>2018-08-25T12:32:01Z</time>
      </trkpt>
      <trkpt lat="42.521960" lon="-8.645044">
        <ele>112.408</ele>
        <time>2018-08-25T12:32:04Z</time>
      </trkpt>
      <trkpt lat="42.522010" lon="-8.645041">
        <ele>113.374</ele>
        <time>2018-08-25T12:32:07Z</time>
      </trkpt>
      <trkpt lat="42.522062" lon="-8.645040">
        <ele>114.380</ele>
        <time>2018-08-25T12:32:11Z</time>
      </trkpt>
      <trkpt lat="42.522111" lon="-8.645039">
        <ele>115.285</ele>
        <time>2018-08-25T12:32:14Z</time>
      </trkpt>
      <trkpt lat="42.522165" lon="-8.645043">
        <ele>116.049</ele>
        <time>2018-08-25T12:32:17Z</time>
      </trkpt>
      <trkpt lat="42.522216" lon="-8.645047">
        <ele>117.166</ele>
        <time>2018-08-25T12:32:20Z</time>
      </trkpt>
      <trkpt lat="42.522265" lon="-8.645049">
        <ele>119.164</ele>
        <time>2018-08-25T12:32:23Z</time>
      </trkpt>
      <trkpt lat="42.522312" lon="-8.645060">
        <ele>120.952</ele>
        <time>2018-08-25T12:32:26Z</time>
      </trkpt>
      <trkpt lat="42.522359" lon="-8.645070">
        <ele>122.642</ele>
        <time>2018-08-25T12:32:29Z</time>
      </trkpt>
      <trkpt lat="42.522417" lon="-8.645086">
        <ele>124.763</ele>
        <time>2018-08-25T12:32:33Z</time>
      </trkpt>
      <trkpt lat="42.522470" lon="-8.645111">
        <ele>126.344</ele>
        <time>2018-08-25T12:32:37Z</time>
      </trkpt>
      <trkpt lat="42.522515" lon="-8.645136">
        <ele>127.818</ele>
        <time>2018-08-25T12:32:41Z</time>
      </trkpt>
      <trkpt lat="42.522564" lon="-8.645163">
        <ele>128.708</ele>
        <time>2018-08-25T12:32:45Z</time>
      </trkpt>
      <trkpt lat="42.522604" lon="-8.645194">
        <ele>128.938</ele>
        <time>2018-08-25T12:32:48Z</time>
      </trkpt>
      <trkpt lat="42.522652" lon="-8.645222">
        <ele>129.124</ele>
        <time>2018-08-25T12:32:51Z</time>
      </trkpt>
      <trkpt lat="42.522694" lon="-8.645253">
        <ele>129.639</ele>
        <time>2018-08-25T12:32:54Z</time>
      </trkpt>
      <trkpt lat="42.522730" lon="-8.645292">
        <ele>130.323</ele>
        <time>2018-08-25T12:32:57Z</time>
      </trkpt>
      <trkpt lat="42.522767" lon="-8.645335">
        <ele>131.090</ele>
        <time>2018-08-25T12:33:00Z</time>
      </trkpt>
      <trkpt lat="42.522804" lon="-8.645382">
        <ele>131.378</ele>
        <time>2018-08-25T12:33:03Z</time>
      </trkpt>
      <trkpt lat="42.522849" lon="-8.645418">
        <ele>131.566</ele>
        <time>2018-08-25T12:33:06Z</time>
      </trkpt>
      <trkpt lat="42.522895" lon="-8.645443">
        <ele>132.266</ele>
        <time>2018-08-25T12:33:09Z</time>
      </trkpt>
      <trkpt lat="42.522944" lon="-8.645459">
        <ele>133.049</ele>
        <time>2018-08-25T12:33:13Z</time>
      </trkpt>
      <trkpt lat="42.522996" lon="-8.645474">
        <ele>133.602</ele>
        <time>2018-08-25T12:33:17Z</time>
      </trkpt>
      <trkpt lat="42.523050" lon="-8.645492">
        <ele>134.622</ele>
        <time>2018-08-25T12:33:21Z</time>
      </trkpt>
      <trkpt lat="42.523093" lon="-8.645512">
        <ele>135.308</ele>
        <time>2018-08-25T12:33:26Z</time>
      </trkpt>
      <trkpt lat="42.523145" lon="-8.645522">
        <ele>136.296</ele>
        <time>2018-08-25T12:33:30Z</time>
      </trkpt>
      <trkpt lat="42.523194" lon="-8.645529">
        <ele>136.942</ele>
        <time>2018-08-25T12:33:34Z</time>
      </trkpt>
      <trkpt lat="42.523240" lon="-8.645556">
        <ele>137.447</ele>
        <time>2018-08-25T12:33:40Z</time>
      </trkpt>
      <trkpt lat="42.523284" lon="-8.645587">
        <ele>138.221</ele>
        <time>2018-08-25T12:33:45Z</time>
      </trkpt>
      <trkpt lat="42.523327" lon="-8.645630">
        <ele>139.788</ele>
        <time>2018-08-25T12:33:51Z</time>
      </trkpt>
      <trkpt lat="42.523357" lon="-8.645681">
        <ele>140.746</ele>
        <time>2018-08-25T12:33:55Z</time>
      </trkpt>
      <trkpt lat="42.523383" lon="-8.645741">
        <ele>141.024</ele>
        <time>2018-08-25T12:33:59Z</time>
      </trkpt>
      <trkpt lat="42.523404" lon="-8.645797">
        <ele>141.314</ele>
        <time>2018-08-25T12:34:03Z</time>
      </trkpt>
      <trkpt lat="42.523426" lon="-8.645862">
        <ele>141.556</ele>
        <time>2018-08-25T12:34:07Z</time>
      </trkpt>
      <trkpt lat="42.523448" lon="-8.645930">
        <ele>141.659</ele>
        <time>2018-08-25T12:34:11Z</time>
      </trkpt>
      <trkpt lat="42.523468" lon="-8.645992">
        <ele>141.914</ele>
        <time>2018-08-25T12:34:15Z</time>
      </trkpt>
      <trkpt lat="42.523474" lon="-8.646057">
        <ele>142.208</ele>
        <time>2018-08-25T12:34:20Z</time>
      </trkpt>
      <trkpt lat="42.523471" lon="-8.646123">
        <ele>143.197</ele>
        <time>2018-08-25T12:34:25Z</time>
      </trkpt>
      <trkpt lat="42.523462" lon="-8.646189">
        <ele>144.343</ele>
        <time>2018-08-25T12:34:29Z</time>
      </trkpt>
      <trkpt lat="42.523441" lon="-8.646264">
        <ele>145.568</ele>
        <time>2018-08-25T12:34:33Z</time>
      </trkpt>
      <trkpt lat="42.523419" lon="-8.646338">
        <ele>146.312</ele>
        <time>2018-08-25T12:34:37Z</time>
      </trkpt>
      <trkpt lat="42.523405" lon="-8.646408">
        <ele>146.769</ele>
        <time>2018-08-25T12:34:41Z</time>
      </trkpt>
      <trkpt lat="42.523402" lon="-8.646477">
        <ele>147.457</ele>
        <time>2018-08-25T12:34:45Z</time>
      </trkpt>
      <trkpt lat="42.523408" lon="-8.646546">
        <ele>147.855</ele>
        <time>2018-08-25T12:34:50Z</time>
      </trkpt>
      <trkpt lat="42.523419" lon="-8.646607">
        <ele>148.035</ele>
        <time>2018-08-25T12:34:54Z</time>
      </trkpt>
      <trkpt lat="42.523472" lon="-8.646615">
        <ele>147.495</ele>
        <time>2018-08-25T12:34:59Z</time>
      </trkpt>
      <trkpt lat="42.523522" lon="-8.646588">
        <ele>146.449</ele>
        <time>2018-08-25T12:35:02Z</time>
      </trkpt>
      <trkpt lat="42.523583" lon="-8.646555">
        <ele>145.523</ele>
        <time>2018-08-25T12:35:05Z</time>
      </trkpt>
      <trkpt lat="42.523631" lon="-8.646529">
        <ele>144.608</ele>
        <time>2018-08-25T12:35:07Z</time>
      </trkpt>
      <trkpt lat="42.523681" lon="-8.646504">
        <ele>143.421</ele>
        <time>2018-08-25T12:35:09Z</time>
      </trkpt>
      <trkpt lat="42.523731" lon="-8.646475">
        <ele>142.377</ele>
        <time>2018-08-25T12:35:11Z</time>
      </trkpt>
      <trkpt lat="42.523780" lon="-8.646447">
        <ele>141.782</ele>
        <time>2018-08-25T12:35:13Z</time>
      </trkpt>
      <trkpt lat="42.523833" lon="-8.646420">
        <ele>141.446</ele>
        <time>2018-08-25T12:35:15Z</time>
      </trkpt>
      <trkpt lat="42.523885" lon="-8.646400">
        <ele>141.253</ele>
        <time>2018-08-25T12:35:17Z</time>
      </trkpt>
      <trkpt lat="42.523947" lon="-8.646396">
        <ele>140.411</ele>
        <time>2018-08-25T12:35:19Z</time>
      </trkpt>
      <trkpt lat="42.524084" lon="-8.646430">
        <ele>139.439</ele>
        <time>2018-08-25T12:35:21Z</time>
      </trkpt>
      <trkpt lat="42.524132" lon="-8.646446">
        <ele>138.319</ele>
        <time>2018-08-25T12:35:23Z</time>
      </trkpt>
      <trkpt lat="42.524241" lon="-8.646464">
        <ele>137.274</ele>
        <time>2018-08-25T12:35:25Z</time>
      </trkpt>
      <trkpt lat="42.524287" lon="-8.646468">
        <ele>136.156</ele>
        <time>2018-08-25T12:35:26Z</time>
      </trkpt>
      <trkpt lat="42.524332" lon="-8.646491">
        <ele>135.121</ele>
        <time>2018-08-25T12:35:27Z</time>
      </trkpt>
      <trkpt lat="42.524375" lon="-8.646512">
        <ele>134.308</ele>
        <time>2018-08-25T12:35:28Z</time>
      </trkpt>
      <trkpt lat="42.524419" lon="-8.646525">
        <ele>133.499</ele>
        <time>2018-08-25T12:35:30Z</time>
      </trkpt>
      <trkpt lat="42.524500" lon="-8.646443">
        <ele>132.255</ele>
        <time>2018-08-25T12:35:33Z</time>
      </trkpt>
      <trkpt lat="42.524496" lon="-8.646380">
        <ele>131.330</ele>
        <time>2018-08-25T12:35:34Z</time>
      </trkpt>
      <trkpt lat="42.524498" lon="-8.646315">
        <ele>130.824</ele>
        <time>2018-08-25T12:35:35Z</time>
      </trkpt>
      <trkpt lat="42.524510" lon="-8.646199">
        <ele>130.371</ele>
        <time>2018-08-25T12:35:37Z</time>
      </trkpt>
      <trkpt lat="42.524529" lon="-8.646088">
        <ele>129.689</ele>
        <time>2018-08-25T12:35:39Z</time>
      </trkpt>
      <trkpt lat="42.524544" lon="-8.646030">
        <ele>129.077</ele>
        <time>2018-08-25T12:35:40Z</time>
      </trkpt>
      <trkpt lat="42.524575" lon="-8.645982">
        <ele>128.587</ele>
        <time>2018-08-25T12:35:41Z</time>
      </trkpt>
      <trkpt lat="42.524624" lon="-8.645943">
        <ele>128.264</ele>
        <time>2018-08-25T12:35:42Z</time>
      </trkpt>
      <trkpt lat="42.524679" lon="-8.645911">
        <ele>128.106</ele>
        <time>2018-08-25T12:35:43Z</time>
      </trkpt>
      <trkpt lat="42.524731" lon="-8.645885">
        <ele>127.916</ele>
        <time>2018-08-25T12:35:44Z</time>
      </trkpt>
      <trkpt lat="42.524782" lon="-8.645858">
        <ele>127.508</ele>
        <time>2018-08-25T12:35:45Z</time>
      </trkpt>
      <trkpt lat="42.524835" lon="-8.645831">
        <ele>126.948</ele>
        <time>2018-08-25T12:35:46Z</time>
      </trkpt>
      <trkpt lat="42.524891" lon="-8.645799">
        <ele>126.474</ele>
        <time>2018-08-25T12:35:47Z</time>
      </trkpt>
      <trkpt lat="42.524946" lon="-8.645769">
        <ele>126.119</ele>
        <time>2018-08-25T12:35:48Z</time>
      </trkpt>
      <trkpt lat="42.525002" lon="-8.645742">
        <ele>125.993</ele>
        <time>2018-08-25T12:35:49Z</time>
      </trkpt>
      <trkpt lat="42.525054" lon="-8.645714">
        <ele>125.870</ele>
        <time>2018-08-25T12:35:50Z</time>
      </trkpt>
      <trkpt lat="42.525103" lon="-8.645685">
        <ele>125.778</ele>
        <time>2018-08-25T12:35:51Z</time>
      </trkpt>
      <trkpt lat="42.525150" lon="-8.645656">
        <ele>125.466</ele>
        <time>2018-08-25T12:35:52Z</time>
      </trkpt>
      <trkpt lat="42.525196" lon="-8.645628">
        <ele>125.246</ele>
        <time>2018-08-25T12:35:53Z</time>
      </trkpt>
      <trkpt lat="42.525272" lon="-8.645569">
        <ele>124.869</ele>
        <time>2018-08-25T12:35:55Z</time>
      </trkpt>
      <trkpt lat="42.525343" lon="-8.645516">
        <ele>124.404</ele>
        <time>2018-08-25T12:35:57Z</time>
      </trkpt>
      <trkpt lat="42.525415" lon="-8.645448">
        <ele>124.424</ele>
        <time>2018-08-25T12:35:59Z</time>
      </trkpt>
      <trkpt lat="42.525489" lon="-8.645391">
        <ele>124.408</ele>
        <time>2018-08-25T12:36:01Z</time>
      </trkpt>
      <trkpt lat="42.525564" lon="-8.645340">
        <ele>124.368</ele>
        <time>2018-08-25T12:36:03Z</time>
      </trkpt>
      <trkpt lat="42.525618" lon="-8.645282">
        <ele>124.054</ele>
        <time>2018-08-25T12:36:06Z</time>
      </trkpt>
      <trkpt lat="42.525664" lon="-8.645233">
        <ele>123.729</ele>
        <time>2018-08-25T12:36:08Z</time>
      </trkpt>
      <trkpt lat="42.525731" lon="-8.645152">
        <ele>123.553</ele>
        <time>2018-08-25T12:36:09Z</time>
      </trkpt>
      <trkpt lat="42.525779" lon="-8.645089">
        <ele>123.340</ele>
        <time>2018-08-25T12:36:12Z</time>
      </trkpt>
      <trkpt lat="42.525815" lon="-8.645042">
        <ele>122.818</ele>
        <time>2018-08-25T12:36:14Z</time>
      </trkpt>
      <trkpt lat="42.525850" lon="-8.644985">
        <ele>122.276</ele>
        <time>2018-08-25T12:36:16Z</time>
      </trkpt>
      <trkpt lat="42.525899" lon="-8.644923">
        <ele>121.476</ele>
        <time>2018-08-25T12:36:18Z</time>
      </trkpt>
      <trkpt lat="42.525951" lon="-8.644880">
        <ele>121.342</ele>
        <time>2018-08-25T12:36:20Z</time>
      </trkpt>
      <trkpt lat="42.525995" lon="-8.644844">
        <ele>121.422</ele>
        <time>2018-08-25T12:36:22Z</time>
      </trkpt>
      <trkpt lat="42.526049" lon="-8.644797">
        <ele>121.614</ele>
        <time>2018-08-25T12:36:25Z</time>
      </trkpt>
      <trkpt lat="42.526113" lon="-8.644767">
        <ele>121.608</ele>
        <time>2018-08-25T12:36:28Z</time>
      </trkpt>
      <trkpt lat="42.526166" lon="-8.644754">
        <ele>121.626</ele>
        <time>2018-08-25T12:36:30Z</time>
      </trkpt>
      <trkpt lat="42.526215" lon="-8.644745">
        <ele>121.652</ele>
        <time>2018-08-25T12:36:32Z</time>
      </trkpt>
      <trkpt lat="42.526262" lon="-8.644741">
        <ele>121.887</ele>
        <time>2018-08-25T12:36:34Z</time>
      </trkpt>
      <trkpt lat="42.526328" lon="-8.644723">
        <ele>122.071</ele>
        <time>2018-08-25T12:36:37Z</time>
      </trkpt>
      <trkpt lat="42.526377" lon="-8.644713">
        <ele>122.328</ele>
        <time>2018-08-25T12:36:39Z</time>
      </trkpt>
      <trkpt lat="42.526431" lon="-8.644709">
        <ele>122.166</ele>
        <time>2018-08-25T12:36:41Z</time>
      </trkpt>
      <trkpt lat="42.526493" lon="-8.644735">
        <ele>121.754</ele>
        <time>2018-08-25T12:36:44Z</time>
      </trkpt>
      <trkpt lat="42.526544" lon="-8.644815">
        <ele>121.264</ele>
        <time>2018-08-25T12:36:46Z</time>
      </trkpt>
      <trkpt lat="42.526561" lon="-8.644904">
        <ele>120.471</ele>
        <time>2018-08-25T12:36:48Z</time>
      </trkpt>
      <trkpt lat="42.526622" lon="-8.644985">
        <ele>119.741</ele>
        <time>2018-08-25T12:36:50Z</time>
      </trkpt>
      <trkpt lat="42.526670" lon="-8.645006">
        <ele>119.215</ele>
        <time>2018-08-25T12:36:51Z</time>
      </trkpt>
      <trkpt lat="42.526718" lon="-8.645009">
        <ele>118.708</ele>
        <time>2018-08-25T12:36:52Z</time>
      </trkpt>
      <trkpt lat="42.526767" lon="-8.644998">
        <ele>118.329</ele>
        <time>2018-08-25T12:36:53Z</time>
      </trkpt>
      <trkpt lat="42.526817" lon="-8.644985">
        <ele>118.085</ele>
        <time>2018-08-25T12:36:54Z</time>
      </trkpt>
      <trkpt lat="42.526865" lon="-8.644976">
        <ele>117.640</ele>
        <time>2018-08-25T12:36:55Z</time>
      </trkpt>
      <trkpt lat="42.526948" lon="-8.644967">
        <ele>116.974</ele>
        <time>2018-08-25T12:36:57Z</time>
      </trkpt>
      <trkpt lat="42.527028" lon="-8.644963">
        <ele>116.071</ele>
        <time>2018-08-25T12:36:59Z</time>
      </trkpt>
      <trkpt lat="42.527080" lon="-8.644969">
        <ele>115.459</ele>
        <time>2018-08-25T12:37:00Z</time>
      </trkpt>
      <trkpt lat="42.527141" lon="-8.644974">
        <ele>114.897</ele>
        <time>2018-08-25T12:37:01Z</time>
      </trkpt>
      <trkpt lat="42.527206" lon="-8.644985">
        <ele>114.387</ele>
        <time>2018-08-25T12:37:02Z</time>
      </trkpt>
      <trkpt lat="42.527272" lon="-8.645000">
        <ele>113.949</ele>
        <time>2018-08-25T12:37:03Z</time>
      </trkpt>
      <trkpt lat="42.527339" lon="-8.645016">
        <ele>113.502</ele>
        <time>2018-08-25T12:37:04Z</time>
      </trkpt>
      <trkpt lat="42.527407" lon="-8.645032">
        <ele>113.122</ele>
        <time>2018-08-25T12:37:05Z</time>
      </trkpt>
      <trkpt lat="42.527477" lon="-8.645050">
        <ele>112.708</ele>
        <time>2018-08-25T12:37:06Z</time>
      </trkpt>
      <trkpt lat="42.527552" lon="-8.645067">
        <ele>112.326</ele>
        <time>2018-08-25T12:37:07Z</time>
      </trkpt>
      <trkpt lat="42.527627" lon="-8.645081">
        <ele>111.992</ele>
        <time>2018-08-25T12:37:08Z</time>
      </trkpt>
      <trkpt lat="42.527703" lon="-8.645097">
        <ele>111.687</ele>
        <time>2018-08-25T12:37:09Z</time>
      </trkpt>
      <trkpt lat="42.527776" lon="-8.645112">
        <ele>111.531</ele>
        <time>2018-08-25T12:37:10Z</time>
      </trkpt>
      <trkpt lat="42.527854" lon="-8.645132">
        <ele>111.468</ele>
        <time>2018-08-25T12:37:11Z</time>
      </trkpt>
      <trkpt lat="42.527935" lon="-8.645147">
        <ele>111.256</ele>
        <time>2018-08-25T12:37:12Z</time>
      </trkpt>
      <trkpt lat="42.528016" lon="-8.645163">
        <ele>110.944</ele>
        <time>2018-08-25T12:37:13Z</time>
      </trkpt>
      <trkpt lat="42.528098" lon="-8.645179">
        <ele>110.614</ele>
        <time>2018-08-25T12:37:14Z</time>
      </trkpt>
      <trkpt lat="42.528174" lon="-8.645195">
        <ele>110.354</ele>
        <time>2018-08-25T12:37:15Z</time>
      </trkpt>
      <trkpt lat="42.528251" lon="-8.645224">
        <ele>110.056</ele>
        <time>2018-08-25T12:37:16Z</time>
      </trkpt>
      <trkpt lat="42.528325" lon="-8.645269">
        <ele>109.611</ele>
        <time>2018-08-25T12:37:17Z</time>
      </trkpt>
      <trkpt lat="42.528384" lon="-8.645336">
        <ele>109.508</ele>
        <time>2018-08-25T12:37:18Z</time>
      </trkpt>
      <trkpt lat="42.528425" lon="-8.645409">
        <ele>109.367</ele>
        <time>2018-08-25T12:37:19Z</time>
      </trkpt>
      <trkpt lat="42.528452" lon="-8.645482">
        <ele>109.283</ele>
        <time>2018-08-25T12:37:20Z</time>
      </trkpt>
      <trkpt lat="42.528463" lon="-8.645549">
        <ele>109.558</ele>
        <time>2018-08-25T12:37:21Z</time>
      </trkpt>
      <trkpt lat="42.528491" lon="-8.645667">
        <ele>110.232</ele>
        <time>2018-08-25T12:37:23Z</time>
      </trkpt>
      <trkpt lat="42.528480" lon="-8.645732">
        <ele>110.329</ele>
        <time>2018-08-25T12:37:24Z</time>
      </trkpt>
      <trkpt lat="42.528474" lon="-8.645807">
        <ele>109.817</ele>
        <time>2018-08-25T12:37:25Z</time>
      </trkpt>
      <trkpt lat="42.528471" lon="-8.645876">
        <ele>109.635</ele>
        <time>2018-08-25T12:37:26Z</time>
      </trkpt>
      <trkpt lat="42.528469" lon="-8.645993">
        <ele>109.335</ele>
        <time>2018-08-25T12:37:28Z</time>
      </trkpt>
      <trkpt lat="42.528481" lon="-8.646110">
        <ele>109.027</ele>
        <time>2018-08-25T12:37:30Z</time>
      </trkpt>
      <trkpt lat="42.528530" lon="-8.646210">
        <ele>108.868</ele>
        <time>2018-08-25T12:37:32Z</time>
      </trkpt>
      <trkpt lat="42.528579" lon="-8.646265">
        <ele>108.514</ele>
        <time>2018-08-25T12:37:35Z</time>
      </trkpt>
      <trkpt lat="42.528673" lon="-8.646330">
        <ele>108.508</ele>
        <time>2018-08-25T12:37:37Z</time>
      </trkpt>
      <trkpt lat="42.528755" lon="-8.646351">
        <ele>108.764</ele>
        <time>2018-08-25T12:37:39Z</time>
      </trkpt>
      <trkpt lat="42.528818" lon="-8.646364">
        <ele>109.330</ele>
        <time>2018-08-25T12:37:42Z</time>
      </trkpt>
      <trkpt lat="42.528868" lon="-8.646365">
        <ele>109.675</ele>
        <time>2018-08-25T12:37:44Z</time>
      </trkpt>
      <trkpt lat="42.528922" lon="-8.646356">
        <ele>109.629</ele>
        <time>2018-08-25T12:37:46Z</time>
      </trkpt>
      <trkpt lat="42.528980" lon="-8.646354">
        <ele>110.276</ele>
        <time>2018-08-25T12:37:48Z</time>
      </trkpt>
      <trkpt lat="42.529036" lon="-8.646362">
        <ele>110.814</ele>
        <time>2018-08-25T12:37:50Z</time>
      </trkpt>
      <trkpt lat="42.529153" lon="-8.646397">
        <ele>111.882</ele>
        <time>2018-08-25T12:37:52Z</time>
      </trkpt>
      <trkpt lat="42.529209" lon="-8.646393">
        <ele>115.852</ele>
        <time>2018-08-25T12:37:54Z</time>
      </trkpt>
      <trkpt lat="42.529262" lon="-8.646383">
        <ele>119.793</ele>
        <time>2018-08-25T12:37:55Z</time>
      </trkpt>
      <trkpt lat="42.529340" lon="-8.646389">
        <ele>122.865</ele>
        <time>2018-08-25T12:37:57Z</time>
      </trkpt>
      <trkpt lat="42.529420" lon="-8.646395">
        <ele>125.221</ele>
        <time>2018-08-25T12:37:59Z</time>
      </trkpt>
      <trkpt lat="42.529466" lon="-8.646395">
        <ele>126.808</ele>
        <time>2018-08-25T12:38:00Z</time>
      </trkpt>
      <trkpt lat="42.529514" lon="-8.646390">
        <ele>127.931</ele>
        <time>2018-08-25T12:38:01Z</time>
      </trkpt>
      <trkpt lat="42.529562" lon="-8.646384">
        <ele>128.717</ele>
        <time>2018-08-25T12:38:02Z</time>
      </trkpt>
      <trkpt lat="42.529612" lon="-8.646378">
        <ele>129.262</ele>
        <time>2018-08-25T12:38:03Z</time>
      </trkpt>
      <trkpt lat="42.529701" lon="-8.646370">
        <ele>129.636</ele>
        <time>2018-08-25T12:38:05Z</time>
      </trkpt>
      <trkpt lat="42.529785" lon="-8.646360">
        <ele>130.113</ele>
        <time>2018-08-25T12:38:07Z</time>
      </trkpt>
      <trkpt lat="42.529864" lon="-8.646373">
        <ele>130.641</ele>
        <time>2018-08-25T12:38:09Z</time>
      </trkpt>
      <trkpt lat="42.529941" lon="-8.646383">
        <ele>131.229</ele>
        <time>2018-08-25T12:38:11Z</time>
      </trkpt>
      <trkpt lat="42.530021" lon="-8.646395">
        <ele>131.859</ele>
        <time>2018-08-25T12:38:13Z</time>
      </trkpt>
      <trkpt lat="42.530104" lon="-8.646414">
        <ele>132.133</ele>
        <time>2018-08-25T12:38:15Z</time>
      </trkpt>
      <trkpt lat="42.530187" lon="-8.646441">
        <ele>132.023</ele>
        <time>2018-08-25T12:38:17Z</time>
      </trkpt>
      <trkpt lat="42.530232" lon="-8.646450">
        <ele>131.915</ele>
        <time>2018-08-25T12:38:18Z</time>
      </trkpt>
      <trkpt lat="42.530277" lon="-8.646455">
        <ele>131.908</ele>
        <time>2018-08-25T12:38:19Z</time>
      </trkpt>
      <trkpt lat="42.530368" lon="-8.646463">
        <ele>131.955</ele>
        <time>2018-08-25T12:38:21Z</time>
      </trkpt>
      <trkpt lat="42.530415" lon="-8.646467">
        <ele>131.861</ele>
        <time>2018-08-25T12:38:22Z</time>
      </trkpt>
      <trkpt lat="42.530463" lon="-8.646472">
        <ele>131.666</ele>
        <time>2018-08-25T12:38:23Z</time>
      </trkpt>
      <trkpt lat="42.530509" lon="-8.646468">
        <ele>131.410</ele>
        <time>2018-08-25T12:38:24Z</time>
      </trkpt>
      <trkpt lat="42.530554" lon="-8.646457">
        <ele>131.317</ele>
        <time>2018-08-25T12:38:25Z</time>
      </trkpt>
      <trkpt lat="42.530598" lon="-8.646443">
        <ele>131.265</ele>
        <time>2018-08-25T12:38:26Z</time>
      </trkpt>
      <trkpt lat="42.530683" lon="-8.646421">
        <ele>130.733</ele>
        <time>2018-08-25T12:38:28Z</time>
      </trkpt>
      <trkpt lat="42.530765" lon="-8.646391">
        <ele>130.093</ele>
        <time>2018-08-25T12:38:30Z</time>
      </trkpt>
      <trkpt lat="42.530844" lon="-8.646357">
        <ele>129.117</ele>
        <time>2018-08-25T12:38:32Z</time>
      </trkpt>
      <trkpt lat="42.530935" lon="-8.646339">
        <ele>128.187</ele>
        <time>2018-08-25T12:38:34Z</time>
      </trkpt>
      <trkpt lat="42.530982" lon="-8.646333">
        <ele>127.115</ele>
        <time>2018-08-25T12:38:35Z</time>
      </trkpt>
      <trkpt lat="42.531028" lon="-8.646318">
        <ele>126.408</ele>
        <time>2018-08-25T12:38:36Z</time>
      </trkpt>
      <trkpt lat="42.531076" lon="-8.646299">
        <ele>125.883</ele>
        <time>2018-08-25T12:38:37Z</time>
      </trkpt>
      <trkpt lat="42.531128" lon="-8.646279">
        <ele>125.429</ele>
        <time>2018-08-25T12:38:38Z</time>
      </trkpt>
      <trkpt lat="42.531182" lon="-8.646259">
        <ele>125.184</ele>
        <time>2018-08-25T12:38:39Z</time>
      </trkpt>
      <trkpt lat="42.531238" lon="-8.646237">
        <ele>124.898</ele>
        <time>2018-08-25T12:38:40Z</time>
      </trkpt>
      <trkpt lat="42.531295" lon="-8.646213">
        <ele>124.695</ele>
        <time>2018-08-25T12:38:41Z</time>
      </trkpt>
      <trkpt lat="42.531354" lon="-8.646188">
        <ele>124.433</ele>
        <time>2018-08-25T12:38:42Z</time>
      </trkpt>
      <trkpt lat="42.531415" lon="-8.646167">
        <ele>124.251</ele>
        <time>2018-08-25T12:38:43Z</time>
      </trkpt>
      <trkpt lat="42.531477" lon="-8.646148">
        <ele>124.141</ele>
        <time>2018-08-25T12:38:44Z</time>
      </trkpt>
      <trkpt lat="42.531538" lon="-8.646131">
        <ele>124.069</ele>
        <time>2018-08-25T12:38:45Z</time>
      </trkpt>
      <trkpt lat="42.531597" lon="-8.646117">
        <ele>123.904</ele>
        <time>2018-08-25T12:38:46Z</time>
      </trkpt>
      <trkpt lat="42.531654" lon="-8.646102">
        <ele>123.924</ele>
        <time>2018-08-25T12:38:47Z</time>
      </trkpt>
      <trkpt lat="42.531711" lon="-8.646088">
        <ele>124.008</ele>
        <time>2018-08-25T12:38:48Z</time>
      </trkpt>
      <trkpt lat="42.531769" lon="-8.646080">
        <ele>124.138</ele>
        <time>2018-08-25T12:38:49Z</time>
      </trkpt>
      <trkpt lat="42.531827" lon="-8.646080">
        <ele>124.154</ele>
        <time>2018-08-25T12:38:50Z</time>
      </trkpt>
      <trkpt lat="42.531885" lon="-8.646084">
        <ele>124.189</ele>
        <time>2018-08-25T12:38:51Z</time>
      </trkpt>
      <trkpt lat="42.531943" lon="-8.646085">
        <ele>124.083</ele>
        <time>2018-08-25T12:38:52Z</time>
      </trkpt>
      <trkpt lat="42.531999" lon="-8.646084">
        <ele>124.010</ele>
        <time>2018-08-25T12:38:53Z</time>
      </trkpt>
      <trkpt lat="42.532055" lon="-8.646080">
        <ele>124.018</ele>
        <time>2018-08-25T12:38:54Z</time>
      </trkpt>
      <trkpt lat="42.532110" lon="-8.646077">
        <ele>124.086</ele>
        <time>2018-08-25T12:38:55Z</time>
      </trkpt>
      <trkpt lat="42.532163" lon="-8.646075">
        <ele>123.966</ele>
        <time>2018-08-25T12:38:56Z</time>
      </trkpt>
      <trkpt lat="42.532216" lon="-8.646070">
        <ele>123.812</ele>
        <time>2018-08-25T12:38:57Z</time>
      </trkpt>
      <trkpt lat="42.532267" lon="-8.646060">
        <ele>123.832</ele>
        <time>2018-08-25T12:38:58Z</time>
      </trkpt>
      <trkpt lat="42.532317" lon="-8.646050">
        <ele>123.705</ele>
        <time>2018-08-25T12:38:59Z</time>
      </trkpt>
      <trkpt lat="42.532366" lon="-8.646043">
        <ele>123.608</ele>
        <time>2018-08-25T12:39:00Z</time>
      </trkpt>
      <trkpt lat="42.532415" lon="-8.646034">
        <ele>123.673</ele>
        <time>2018-08-25T12:39:01Z</time>
      </trkpt>
      <trkpt lat="42.532463" lon="-8.646020">
        <ele>123.629</ele>
        <time>2018-08-25T12:39:02Z</time>
      </trkpt>
      <trkpt lat="42.532509" lon="-8.646004">
        <ele>123.694</ele>
        <time>2018-08-25T12:39:03Z</time>
      </trkpt>
      <trkpt lat="42.532554" lon="-8.645991">
        <ele>123.668</ele>
        <time>2018-08-25T12:39:04Z</time>
      </trkpt>
      <trkpt lat="42.532599" lon="-8.645979">
        <ele>123.565</ele>
        <time>2018-08-25T12:39:05Z</time>
      </trkpt>
      <trkpt lat="42.532684" lon="-8.645977">
        <ele>122.573</ele>
        <time>2018-08-25T12:39:07Z</time>
      </trkpt>
      <trkpt lat="42.532761" lon="-8.645938">
        <ele>121.661</ele>
        <time>2018-08-25T12:39:09Z</time>
      </trkpt>
      <trkpt lat="42.532832" lon="-8.645880">
        <ele>120.871</ele>
        <time>2018-08-25T12:39:11Z</time>
      </trkpt>
      <trkpt lat="42.532904" lon="-8.645820">
        <ele>120.149</ele>
        <time>2018-08-25T12:39:13Z</time>
      </trkpt>
      <trkpt lat="42.532980" lon="-8.645761">
        <ele>119.602</ele>
        <time>2018-08-25T12:39:15Z</time>
      </trkpt>
      <trkpt lat="42.533055" lon="-8.645707">
        <ele>119.222</ele>
        <time>2018-08-25T12:39:17Z</time>
      </trkpt>
      <trkpt lat="42.533134" lon="-8.645666">
        <ele>118.608</ele>
        <time>2018-08-25T12:39:19Z</time>
      </trkpt>
      <trkpt lat="42.533199" lon="-8.645638">
        <ele>117.926</ele>
        <time>2018-08-25T12:39:22Z</time>
      </trkpt>
      <trkpt lat="42.533255" lon="-8.645602">
        <ele>116.952</ele>
        <time>2018-08-25T12:39:24Z</time>
      </trkpt>
      <trkpt lat="42.533310" lon="-8.645562">
        <ele>116.137</ele>
        <time>2018-08-25T12:39:26Z</time>
      </trkpt>
      <trkpt lat="42.533361" lon="-8.645530">
        <ele>115.681</ele>
        <time>2018-08-25T12:39:28Z</time>
      </trkpt>
      <trkpt lat="42.533415" lon="-8.645503">
        <ele>115.588</ele>
        <time>2018-08-25T12:39:30Z</time>
      </trkpt>
      <trkpt lat="42.533482" lon="-8.645499">
        <ele>114.946</ele>
        <time>2018-08-25T12:39:32Z</time>
      </trkpt>
      <trkpt lat="42.533613" lon="-8.645493">
        <ele>114.554</ele>
        <time>2018-08-25T12:39:34Z</time>
      </trkpt>
      <trkpt lat="42.533703" lon="-8.645484">
        <ele>113.634</ele>
        <time>2018-08-25T12:39:36Z</time>
      </trkpt>
      <trkpt lat="42.533749" lon="-8.645482">
        <ele>112.731</ele>
        <time>2018-08-25T12:39:37Z</time>
      </trkpt>
      <trkpt lat="42.533836" lon="-8.645457">
        <ele>112.061</ele>
        <time>2018-08-25T12:39:39Z</time>
      </trkpt>
      <trkpt lat="42.533889" lon="-8.645442">
        <ele>111.607</ele>
        <time>2018-08-25T12:39:40Z</time>
      </trkpt>
      <trkpt lat="42.533943" lon="-8.645431">
        <ele>111.308</ele>
        <time>2018-08-25T12:39:41Z</time>
      </trkpt>
      <trkpt lat="42.533997" lon="-8.645421">
        <ele>111.055</ele>
        <time>2018-08-25T12:39:42Z</time>
      </trkpt>
      <trkpt lat="42.534048" lon="-8.645413">
        <ele>110.871</ele>
        <time>2018-08-25T12:39:43Z</time>
      </trkpt>
      <trkpt lat="42.534098" lon="-8.645409">
        <ele>110.526</ele>
        <time>2018-08-25T12:39:44Z</time>
      </trkpt>
      <trkpt lat="42.534145" lon="-8.645408">
        <ele>110.280</ele>
        <time>2018-08-25T12:39:45Z</time>
      </trkpt>
      <trkpt lat="42.534228" lon="-8.645425">
        <ele>109.877</ele>
        <time>2018-08-25T12:39:47Z</time>
      </trkpt>
      <trkpt lat="42.534306" lon="-8.645444">
        <ele>109.275</ele>
        <time>2018-08-25T12:39:49Z</time>
      </trkpt>
      <trkpt lat="42.534393" lon="-8.645450">
        <ele>108.993</ele>
        <time>2018-08-25T12:39:51Z</time>
      </trkpt>
      <trkpt lat="42.534438" lon="-8.645445">
        <ele>108.523</ele>
        <time>2018-08-25T12:39:52Z</time>
      </trkpt>
      <trkpt lat="42.534485" lon="-8.645443">
        <ele>108.298</ele>
        <time>2018-08-25T12:39:53Z</time>
      </trkpt>
      <trkpt lat="42.534573" lon="-8.645447">
        <ele>107.915</ele>
        <time>2018-08-25T12:39:55Z</time>
      </trkpt>
      <trkpt lat="42.534664" lon="-8.645437">
        <ele>107.726</ele>
        <time>2018-08-25T12:39:57Z</time>
      </trkpt>
      <trkpt lat="42.534710" lon="-8.645431">
        <ele>107.508</ele>
        <time>2018-08-25T12:39:58Z</time>
      </trkpt>
      <trkpt lat="42.534801" lon="-8.645432">
        <ele>107.411</ele>
        <time>2018-08-25T12:40:00Z</time>
      </trkpt>
      <trkpt lat="42.534846" lon="-8.645431">
        <ele>107.427</ele>
        <time>2018-08-25T12:40:01Z</time>
      </trkpt>
      <trkpt lat="42.534902" lon="-8.645412">
        <ele>107.532</ele>
        <time>2018-08-25T12:40:05Z</time>
      </trkpt>
      <trkpt lat="42.535003" lon="-8.645411">
        <ele>107.636</ele>
        <time>2018-08-25T12:40:07Z</time>
      </trkpt>
      <trkpt lat="42.535080" lon="-8.645417">
        <ele>107.843</ele>
        <time>2018-08-25T12:40:09Z</time>
      </trkpt>
      <trkpt lat="42.535134" lon="-8.645442">
        <ele>108.461</ele>
        <time>2018-08-25T12:40:11Z</time>
      </trkpt>
      <trkpt lat="42.535180" lon="-8.645498">
        <ele>108.519</ele>
        <time>2018-08-25T12:40:13Z</time>
      </trkpt>
      <trkpt lat="42.535225" lon="-8.645547">
        <ele>108.389</ele>
        <time>2018-08-25T12:40:15Z</time>
      </trkpt>
      <trkpt lat="42.535271" lon="-8.645574">
        <ele>107.939</ele>
        <time>2018-08-25T12:40:17Z</time>
      </trkpt>
      <trkpt lat="42.535378" lon="-8.645594">
        <ele>107.401</ele>
        <time>2018-08-25T12:40:19Z</time>
      </trkpt>
      <trkpt lat="42.535443" lon="-8.645570">
        <ele>107.321</ele>
        <time>2018-08-25T12:40:22Z</time>
      </trkpt>
      <trkpt lat="42.535505" lon="-8.645557">
        <ele>107.008</ele>
        <time>2018-08-25T12:40:24Z</time>
      </trkpt>
      <trkpt lat="42.535567" lon="-8.645551">
        <ele>106.765</ele>
        <time>2018-08-25T12:40:26Z</time>
      </trkpt>
      <trkpt lat="42.535701" lon="-8.645542">
        <ele>107.241</ele>
        <time>2018-08-25T12:40:28Z</time>
      </trkpt>
      <trkpt lat="42.535745" lon="-8.645530">
        <ele>107.326</ele>
        <time>2018-08-25T12:40:29Z</time>
      </trkpt>
      <trkpt lat="42.535793" lon="-8.645520">
        <ele>107.210</ele>
        <time>2018-08-25T12:40:30Z</time>
      </trkpt>
      <trkpt lat="42.535843" lon="-8.645512">
        <ele>107.087</ele>
        <time>2018-08-25T12:40:31Z</time>
      </trkpt>
      <trkpt lat="42.535892" lon="-8.645501">
        <ele>106.785</ele>
        <time>2018-08-25T12:40:32Z</time>
      </trkpt>
      <trkpt lat="42.535940" lon="-8.645496">
        <ele>106.373</ele>
        <time>2018-08-25T12:40:33Z</time>
      </trkpt>
      <trkpt lat="42.535986" lon="-8.645485">
        <ele>105.973</ele>
        <time>2018-08-25T12:40:34Z</time>
      </trkpt>
      <trkpt lat="42.536058" lon="-8.645442">
        <ele>105.924</ele>
        <time>2018-08-25T12:40:36Z</time>
      </trkpt>
      <trkpt lat="42.536133" lon="-8.645396">
        <ele>105.404</ele>
        <time>2018-08-25T12:40:38Z</time>
      </trkpt>
      <trkpt lat="42.536195" lon="-8.645350">
        <ele>104.914</ele>
        <time>2018-08-25T12:40:41Z</time>
      </trkpt>
      <trkpt lat="42.536294" lon="-8.645278">
        <ele>104.408</ele>
        <time>2018-08-25T12:40:43Z</time>
      </trkpt>
      <trkpt lat="42.536364" lon="-8.645242">
        <ele>104.044</ele>
        <time>2018-08-25T12:40:45Z</time>
      </trkpt>
      <trkpt lat="42.536435" lon="-8.645205">
        <ele>103.750</ele>
        <time>2018-08-25T12:40:47Z</time>
      </trkpt>
      <trkpt lat="42.536489" lon="-8.645175">
        <ele>103.465</ele>
        <time>2018-08-25T12:40:49Z</time>
      </trkpt>
      <trkpt lat="42.536554" lon="-8.645160">
        <ele>103.149</ele>
        <time>2018-08-25T12:40:52Z</time>
      </trkpt>
      <trkpt lat="42.536603" lon="-8.645164">
        <ele>102.976</ele>
        <time>2018-08-25T12:40:54Z</time>
      </trkpt>
      <trkpt lat="42.536664" lon="-8.645181">
        <ele>102.794</ele>
        <time>2018-08-25T12:40:56Z</time>
      </trkpt>
      <trkpt lat="42.536759" lon="-8.645222">
        <ele>102.552</ele>
        <time>2018-08-25T12:40:57Z</time>
      </trkpt>
      <trkpt lat="42.536834" lon="-8.645265">
        <ele>102.632</ele>
        <time>2018-08-25T12:40:59Z</time>
      </trkpt>
      <trkpt lat="42.536876" lon="-8.645290">
        <ele>102.789</ele>
        <time>2018-08-25T12:41:00Z</time>
      </trkpt>
      <trkpt lat="42.536919" lon="-8.645317">
        <ele>102.706</ele>
        <time>2018-08-25T12:41:01Z</time>
      </trkpt>
      <trkpt lat="42.536959" lon="-8.645350">
        <ele>102.726</ele>
        <time>2018-08-25T12:41:02Z</time>
      </trkpt>
      <trkpt lat="42.537001" lon="-8.645386">
        <ele>102.408</ele>
        <time>2018-08-25T12:41:04Z</time>
      </trkpt>
      <trkpt lat="42.537059" lon="-8.645427">
        <ele>102.340</ele>
        <time>2018-08-25T12:41:06Z</time>
      </trkpt>
      <trkpt lat="42.537203" lon="-8.645458">
        <ele>101.686</ele>
        <time>2018-08-25T12:41:08Z</time>
      </trkpt>
      <trkpt lat="42.537258" lon="-8.645456">
        <ele>101.121</ele>
        <time>2018-08-25T12:41:09Z</time>
      </trkpt>
      <trkpt lat="42.537309" lon="-8.645449">
        <ele>100.575</ele>
        <time>2018-08-25T12:41:10Z</time>
      </trkpt>
      <trkpt lat="42.537359" lon="-8.645447">
        <ele>100.352</ele>
        <time>2018-08-25T12:41:11Z</time>
      </trkpt>
      <trkpt lat="42.537410" lon="-8.645443">
        <ele>100.170</ele>
        <time>2018-08-25T12:41:12Z</time>
      </trkpt>
      <trkpt lat="42.537461" lon="-8.645433">
        <ele>100.078</ele>
        <time>2018-08-25T12:41:13Z</time>
      </trkpt>
      <trkpt lat="42.537512" lon="-8.645412">
        <ele>99.948</ele>
        <time>2018-08-25T12:41:14Z</time>
      </trkpt>
      <trkpt lat="42.537559" lon="-8.645398">
        <ele>100.138</ele>
        <time>2018-08-25T12:41:15Z</time>
      </trkpt>
      <trkpt lat="42.537643" lon="-8.645383">
        <ele>100.170</ele>
        <time>2018-08-25T12:41:17Z</time>
      </trkpt>
      <trkpt lat="42.537726" lon="-8.645369">
        <ele>100.117</ele>
        <time>2018-08-25T12:41:19Z</time>
      </trkpt>
      <trkpt lat="42.537770" lon="-8.645349">
        <ele>100.108</ele>
        <time>2018-08-25T12:41:20Z</time>
      </trkpt>
      <trkpt lat="42.537816" lon="-8.645329">
        <ele>100.185</ele>
        <time>2018-08-25T12:41:21Z</time>
      </trkpt>
      <trkpt lat="42.537861" lon="-8.645305">
        <ele>100.221</ele>
        <time>2018-08-25T12:41:22Z</time>
      </trkpt>
      <trkpt lat="42.537906" lon="-8.645279">
        <ele>100.336</ele>
        <time>2018-08-25T12:41:23Z</time>
      </trkpt>
      <trkpt lat="42.537947" lon="-8.645251">
        <ele>100.460</ele>
        <time>2018-08-25T12:41:24Z</time>
      </trkpt>
      <trkpt lat="42.538023" lon="-8.645201">
        <ele>100.697</ele>
        <time>2018-08-25T12:41:26Z</time>
      </trkpt>
      <trkpt lat="42.538080" lon="-8.645166">
        <ele>100.845</ele>
        <time>2018-08-25T12:41:28Z</time>
      </trkpt>
      <trkpt lat="42.538165" lon="-8.645113">
        <ele>100.963</ele>
        <time>2018-08-25T12:41:30Z</time>
      </trkpt>
      <trkpt lat="42.538238" lon="-8.645053">
        <ele>101.073</ele>
        <time>2018-08-25T12:41:32Z</time>
      </trkpt>
      <trkpt lat="42.538277" lon="-8.645023">
        <ele>101.169</ele>
        <time>2018-08-25T12:41:33Z</time>
      </trkpt>
      <trkpt lat="42.538350" lon="-8.644973">
        <ele>101.004</ele>
        <time>2018-08-25T12:41:35Z</time>
      </trkpt>
      <trkpt lat="42.538410" lon="-8.644943">
        <ele>100.924</ele>
        <time>2018-08-25T12:41:38Z</time>
      </trkpt>
      <trkpt lat="42.538460" lon="-8.644915">
        <ele>100.908</ele>
        <time>2018-08-25T12:41:40Z</time>
      </trkpt>
      <trkpt lat="42.538540" lon="-8.644862">
        <ele>101.088</ele>
        <time>2018-08-25T12:41:41Z</time>
      </trkpt>
      <trkpt lat="42.538580" lon="-8.644829">
        <ele>101.284</ele>
        <time>2018-08-25T12:41:43Z</time>
      </trkpt>
      <trkpt lat="42.538631" lon="-8.644782">
        <ele>101.279</ele>
        <time>2018-08-25T12:41:45Z</time>
      </trkpt>
      <trkpt lat="42.538680" lon="-8.644728">
        <ele>100.923</ele>
        <time>2018-08-25T12:41:47Z</time>
      </trkpt>
      <trkpt lat="42.538723" lon="-8.644673">
        <ele>100.730</ele>
        <time>2018-08-25T12:41:49Z</time>
      </trkpt>
      <trkpt lat="42.538754" lon="-8.644609">
        <ele>100.788</ele>
        <time>2018-08-25T12:41:51Z</time>
      </trkpt>
      <trkpt lat="42.538805" lon="-8.644457">
        <ele>100.726</ele>
        <time>2018-08-25T12:41:53Z</time>
      </trkpt>
      <trkpt lat="42.538842" lon="-8.644394">
        <ele>101.046</ele>
        <time>2018-08-25T12:41:56Z</time>
      </trkpt>
      <trkpt lat="42.538892" lon="-8.644343">
        <ele>100.379</ele>
        <time>2018-08-25T12:41:59Z</time>
      </trkpt>
      <trkpt lat="42.538947" lon="-8.644287">
        <ele>99.605</ele>
        <time>2018-08-25T12:42:02Z</time>
      </trkpt>
      <trkpt lat="42.538992" lon="-8.644234">
        <ele>98.425</ele>
        <time>2018-08-25T12:42:04Z</time>
      </trkpt>
      <trkpt lat="42.539103" lon="-8.644108">
        <ele>97.608</ele>
        <time>2018-08-25T12:42:06Z</time>
      </trkpt>
      <trkpt lat="42.539164" lon="-8.644038">
        <ele>97.299</ele>
        <time>2018-08-25T12:42:08Z</time>
      </trkpt>
      <trkpt lat="42.539204" lon="-8.644008">
        <ele>96.825</ele>
        <time>2018-08-25T12:42:10Z</time>
      </trkpt>
      <trkpt lat="42.539253" lon="-8.643978">
        <ele>96.820</ele>
        <time>2018-08-25T12:42:12Z</time>
      </trkpt>
      <trkpt lat="42.539308" lon="-8.643951">
        <ele>96.944</ele>
        <time>2018-08-25T12:42:14Z</time>
      </trkpt>
      <trkpt lat="42.539360" lon="-8.643931">
        <ele>97.251</ele>
        <time>2018-08-25T12:42:16Z</time>
      </trkpt>
      <trkpt lat="42.539422" lon="-8.643901">
        <ele>97.669</ele>
        <time>2018-08-25T12:42:19Z</time>
      </trkpt>
      <trkpt lat="42.539468" lon="-8.643889">
        <ele>97.887</ele>
        <time>2018-08-25T12:42:21Z</time>
      </trkpt>
      <trkpt lat="42.539520" lon="-8.643872">
        <ele>98.077</ele>
        <time>2018-08-25T12:42:23Z</time>
      </trkpt>
      <trkpt lat="42.539579" lon="-8.643850">
        <ele>98.178</ele>
        <time>2018-08-25T12:42:25Z</time>
      </trkpt>
      <trkpt lat="42.539639" lon="-8.643830">
        <ele>97.933</ele>
        <time>2018-08-25T12:42:27Z</time>
      </trkpt>
      <trkpt lat="42.539698" lon="-8.643812">
        <ele>97.726</ele>
        <time>2018-08-25T12:42:29Z</time>
      </trkpt>
      <trkpt lat="42.539758" lon="-8.643792">
        <ele>97.508</ele>
        <time>2018-08-25T12:42:31Z</time>
      </trkpt>
      <trkpt lat="42.539817" lon="-8.643769">
        <ele>97.639</ele>
        <time>2018-08-25T12:42:33Z</time>
      </trkpt>
      <trkpt lat="42.539871" lon="-8.643745">
        <ele>98.055</ele>
        <time>2018-08-25T12:42:35Z</time>
      </trkpt>
      <trkpt lat="42.539928" lon="-8.643723">
        <ele>98.450</ele>
        <time>2018-08-25T12:42:37Z</time>
      </trkpt>
      <trkpt lat="42.539990" lon="-8.643704">
        <ele>98.594</ele>
        <time>2018-08-25T12:42:39Z</time>
      </trkpt>
      <trkpt lat="42.540052" lon="-8.643686">
        <ele>98.611</ele>
        <time>2018-08-25T12:42:41Z</time>
      </trkpt>
      <trkpt lat="42.540109" lon="-8.643670">
        <ele>98.799</ele>
        <time>2018-08-25T12:42:43Z</time>
      </trkpt>
      <trkpt lat="42.540163" lon="-8.643651">
        <ele>98.817</ele>
        <time>2018-08-25T12:42:45Z</time>
      </trkpt>
      <trkpt lat="42.540219" lon="-8.643630">
        <ele>99.037</ele>
        <time>2018-08-25T12:42:47Z</time>
      </trkpt>
      <trkpt lat="42.540278" lon="-8.643607">
        <ele>99.085</ele>
        <time>2018-08-25T12:42:49Z</time>
      </trkpt>
      <trkpt lat="42.540333" lon="-8.643584">
        <ele>98.989</ele>
        <time>2018-08-25T12:42:51Z</time>
      </trkpt>
      <trkpt lat="42.540386" lon="-8.643564">
        <ele>98.917</ele>
        <time>2018-08-25T12:42:53Z</time>
      </trkpt>
      <trkpt lat="42.540432" lon="-8.643547">
        <ele>99.008</ele>
        <time>2018-08-25T12:42:55Z</time>
      </trkpt>
      <trkpt lat="42.540491" lon="-8.643532">
        <ele>99.410</ele>
        <time>2018-08-25T12:42:58Z</time>
      </trkpt>
      <trkpt lat="42.540540" lon="-8.643509">
        <ele>99.956</ele>
        <time>2018-08-25T12:43:01Z</time>
      </trkpt>
      <trkpt lat="42.540585" lon="-8.643480">
        <ele>100.181</ele>
        <time>2018-08-25T12:43:04Z</time>
      </trkpt>
      <trkpt lat="42.540637" lon="-8.643451">
        <ele>100.375</ele>
        <time>2018-08-25T12:43:07Z</time>
      </trkpt>
      <trkpt lat="42.540687" lon="-8.643434">
        <ele>99.762</ele>
        <time>2018-08-25T12:43:09Z</time>
      </trkpt>
      <trkpt lat="42.540757" lon="-8.643413">
        <ele>98.770</ele>
        <time>2018-08-25T12:43:11Z</time>
      </trkpt>
      <trkpt lat="42.540854" lon="-8.643385">
        <ele>98.378</ele>
        <time>2018-08-25T12:43:12Z</time>
      </trkpt>
      <trkpt lat="42.540923" lon="-8.643357">
        <ele>97.888</ele>
        <time>2018-08-25T12:43:14Z</time>
      </trkpt>
      <trkpt lat="42.540977" lon="-8.643345">
        <ele>97.641</ele>
        <time>2018-08-25T12:43:16Z</time>
      </trkpt>
      <trkpt lat="42.541039" lon="-8.643332">
        <ele>97.481</ele>
        <time>2018-08-25T12:43:19Z</time>
      </trkpt>
      <trkpt lat="42.541106" lon="-8.643318">
        <ele>97.209</ele>
        <time>2018-08-25T12:43:22Z</time>
      </trkpt>
      <trkpt lat="42.541156" lon="-8.643299">
        <ele>96.908</ele>
        <time>2018-08-25T12:43:24Z</time>
      </trkpt>
      <trkpt lat="42.541209" lon="-8.643274">
        <ele>96.866</ele>
        <time>2018-08-25T12:43:26Z</time>
      </trkpt>
      <trkpt lat="42.541265" lon="-8.643246">
        <ele>96.712</ele>
        <time>2018-08-25T12:43:28Z</time>
      </trkpt>
      <trkpt lat="42.541322" lon="-8.643212">
        <ele>96.657</ele>
        <time>2018-08-25T12:43:30Z</time>
      </trkpt>
      <trkpt lat="42.541375" lon="-8.643174">
        <ele>96.691</ele>
        <time>2018-08-25T12:43:32Z</time>
      </trkpt>
      <trkpt lat="42.541427" lon="-8.643134">
        <ele>96.628</ele>
        <time>2018-08-25T12:43:34Z</time>
      </trkpt>
      <trkpt lat="42.541473" lon="-8.643090">
        <ele>96.656</ele>
        <time>2018-08-25T12:43:36Z</time>
      </trkpt>
      <trkpt lat="42.541515" lon="-8.643044">
        <ele>96.764</ele>
        <time>2018-08-25T12:43:38Z</time>
      </trkpt>
      <trkpt lat="42.541558" lon="-8.642999">
        <ele>96.954</ele>
        <time>2018-08-25T12:43:40Z</time>
      </trkpt>
      <trkpt lat="42.541608" lon="-8.642959">
        <ele>97.284</ele>
        <time>2018-08-25T12:43:42Z</time>
      </trkpt>
      <trkpt lat="42.541665" lon="-8.642927">
        <ele>97.407</ele>
        <time>2018-08-25T12:43:44Z</time>
      </trkpt>
      <trkpt lat="42.541726" lon="-8.642904">
        <ele>97.617</ele>
        <time>2018-08-25T12:43:46Z</time>
      </trkpt>
      <trkpt lat="42.541788" lon="-8.642886">
        <ele>97.908</ele>
        <time>2018-08-25T12:43:48Z</time>
      </trkpt>
      <trkpt lat="42.541846" lon="-8.642867">
        <ele>98.240</ele>
        <time>2018-08-25T12:43:50Z</time>
      </trkpt>
      <trkpt lat="42.541899" lon="-8.642846">
        <ele>98.696</ele>
        <time>2018-08-25T12:43:52Z</time>
      </trkpt>
      <trkpt lat="42.541953" lon="-8.642826">
        <ele>99.041</ele>
        <time>2018-08-25T12:43:54Z</time>
      </trkpt>
      <trkpt lat="42.542010" lon="-8.642804">
        <ele>99.475</ele>
        <time>2018-08-25T12:43:56Z</time>
      </trkpt>
      <trkpt lat="42.542068" lon="-8.642783">
        <ele>99.972</ele>
        <time>2018-08-25T12:43:58Z</time>
      </trkpt>
      <trkpt lat="42.542177" lon="-8.642740">
        <ele>100.340</ele>
        <time>2018-08-25T12:44:00Z</time>
      </trkpt>
      <trkpt lat="42.542255" lon="-8.642700">
        <ele>100.638</ele>
        <time>2018-08-25T12:44:02Z</time>
      </trkpt>
      <trkpt lat="42.542340" lon="-8.642664">
        <ele>101.198</ele>
        <time>2018-08-25T12:44:04Z</time>
      </trkpt>
      <trkpt lat="42.542429" lon="-8.642634">
        <ele>101.875</ele>
        <time>2018-08-25T12:44:06Z</time>
      </trkpt>
      <trkpt lat="42.542477" lon="-8.642615">
        <ele>102.428</ele>
        <time>2018-08-25T12:44:07Z</time>
      </trkpt>
      <trkpt lat="42.542528" lon="-8.642597">
        <ele>102.920</ele>
        <time>2018-08-25T12:44:08Z</time>
      </trkpt>
      <trkpt lat="42.542580" lon="-8.642582">
        <ele>103.308</ele>
        <time>2018-08-25T12:44:09Z</time>
      </trkpt>
      <trkpt lat="42.542633" lon="-8.642574">
        <ele>103.739</ele>
        <time>2018-08-25T12:44:10Z</time>
      </trkpt>
      <trkpt lat="42.542685" lon="-8.642571">
        <ele>103.995</ele>
        <time>2018-08-25T12:44:11Z</time>
      </trkpt>
      <trkpt lat="42.542736" lon="-8.642572">
        <ele>104.280</ele>
        <time>2018-08-25T12:44:12Z</time>
      </trkpt>
      <trkpt lat="42.542783" lon="-8.642576">
        <ele>104.674</ele>
        <time>2018-08-25T12:44:13Z</time>
      </trkpt>
      <trkpt lat="42.542841" lon="-8.642580">
        <ele>105.431</ele>
        <time>2018-08-25T12:44:16Z</time>
      </trkpt>
      <trkpt lat="42.542887" lon="-8.642595">
        <ele>106.649</ele>
        <time>2018-08-25T12:44:19Z</time>
      </trkpt>
      <trkpt lat="42.542929" lon="-8.642624">
        <ele>107.697</ele>
        <time>2018-08-25T12:44:22Z</time>
      </trkpt>
      <trkpt lat="42.542984" lon="-8.642660">
        <ele>108.787</ele>
        <time>2018-08-25T12:44:25Z</time>
      </trkpt>
      <trkpt lat="42.543043" lon="-8.642702">
        <ele>110.753</ele>
        <time>2018-08-25T12:44:28Z</time>
      </trkpt>
      <trkpt lat="42.543086" lon="-8.642725">
        <ele>112.804</ele>
        <time>2018-08-25T12:44:30Z</time>
      </trkpt>
      <trkpt lat="42.543151" lon="-8.642739">
        <ele>115.014</ele>
        <time>2018-08-25T12:44:33Z</time>
      </trkpt>
      <trkpt lat="42.543210" lon="-8.642756">
        <ele>116.908</ele>
        <time>2018-08-25T12:44:36Z</time>
      </trkpt>
      <trkpt lat="42.543267" lon="-8.642782">
        <ele>119.577</ele>
        <time>2018-08-25T12:44:39Z</time>
      </trkpt>
      <trkpt lat="42.543311" lon="-8.642798">
        <ele>122.573</ele>
        <time>2018-08-25T12:44:41Z</time>
      </trkpt>
      <trkpt lat="42.543357" lon="-8.642811">
        <ele>125.078</ele>
        <time>2018-08-25T12:44:43Z</time>
      </trkpt>
      <trkpt lat="42.543418" lon="-8.642831">
        <ele>127.042</ele>
        <time>2018-08-25T12:44:46Z</time>
      </trkpt>
      <trkpt lat="42.543463" lon="-8.642846">
        <ele>128.419</ele>
        <time>2018-08-25T12:44:48Z</time>
      </trkpt>
      <trkpt lat="42.543518" lon="-8.642856">
        <ele>129.147</ele>
        <time>2018-08-25T12:44:50Z</time>
      </trkpt>
      <trkpt lat="42.543657" lon="-8.642866">
        <ele>129.115</ele>
        <time>2018-08-25T12:44:52Z</time>
      </trkpt>
      <trkpt lat="42.543717" lon="-8.642843">
        <ele>129.425</ele>
        <time>2018-08-25T12:44:54Z</time>
      </trkpt>
      <trkpt lat="42.543773" lon="-8.642830">
        <ele>130.083</ele>
        <time>2018-08-25T12:44:55Z</time>
      </trkpt>
      <trkpt lat="42.543824" lon="-8.642816">
        <ele>130.525</ele>
        <time>2018-08-25T12:44:56Z</time>
      </trkpt>
      <trkpt lat="42.543886" lon="-8.642789">
        <ele>130.517</ele>
        <time>2018-08-25T12:44:57Z</time>
      </trkpt>
      <trkpt lat="42.543946" lon="-8.642743">
        <ele>129.808</ele>
        <time>2018-08-25T12:44:58Z</time>
      </trkpt>
      <trkpt lat="42.544007" lon="-8.642695">
        <ele>128.430</ele>
        <time>2018-08-25T12:44:59Z</time>
      </trkpt>
      <trkpt lat="42.544067" lon="-8.642648">
        <ele>127.066</ele>
        <time>2018-08-25T12:45:00Z</time>
      </trkpt>
      <trkpt lat="42.544117" lon="-8.642600">
        <ele>125.971</ele>
        <time>2018-08-25T12:45:01Z</time>
      </trkpt>
      <trkpt lat="42.544162" lon="-8.642555">
        <ele>124.955</ele>
        <time>2018-08-25T12:45:02Z</time>
      </trkpt>
      <trkpt lat="42.544206" lon="-8.642525">
        <ele>124.122</ele>
        <time>2018-08-25T12:45:03Z</time>
      </trkpt>
      <trkpt lat="42.544251" lon="-8.642491">
        <ele>123.220</ele>
        <time>2018-08-25T12:45:04Z</time>
      </trkpt>
      <trkpt lat="42.544302" lon="-8.642464">
        <ele>121.748</ele>
        <time>2018-08-25T12:45:05Z</time>
      </trkpt>
      <trkpt lat="42.544351" lon="-8.642440">
        <ele>120.098</ele>
        <time>2018-08-25T12:45:06Z</time>
      </trkpt>
      <trkpt lat="42.544398" lon="-8.642421">
        <ele>118.348</ele>
        <time>2018-08-25T12:45:07Z</time>
      </trkpt>
      <trkpt lat="42.544463" lon="-8.642399">
        <ele>116.661</ele>
        <time>2018-08-25T12:45:09Z</time>
      </trkpt>
      <trkpt lat="42.544510" lon="-8.642384">
        <ele>115.217</ele>
        <time>2018-08-25T12:45:11Z</time>
      </trkpt>
      <trkpt lat="42.544557" lon="-8.642368">
        <ele>114.308</ele>
        <time>2018-08-25T12:45:13Z</time>
      </trkpt>
      <trkpt lat="42.544619" lon="-8.642350">
        <ele>114.366</ele>
        <time>2018-08-25T12:45:16Z</time>
      </trkpt>
      <trkpt lat="42.544684" lon="-8.642339">
        <ele>114.182</ele>
        <time>2018-08-25T12:45:19Z</time>
      </trkpt>
      <trkpt lat="42.544729" lon="-8.642337">
        <ele>113.977</ele>
        <time>2018-08-25T12:45:21Z</time>
      </trkpt>
      <trkpt lat="42.544795" lon="-8.642338">
        <ele>114.411</ele>
        <time>2018-08-25T12:45:24Z</time>
      </trkpt>
      <trkpt lat="42.544844" lon="-8.642330">
        <ele>112.788</ele>
        <time>2018-08-25T12:45:26Z</time>
      </trkpt>
      <trkpt lat="42.544903" lon="-8.642326">
        <ele>112.226</ele>
        <time>2018-08-25T12:45:30Z</time>
      </trkpt>
      <trkpt lat="42.544960" lon="-8.642321">
        <ele>111.884</ele>
        <time>2018-08-25T12:45:33Z</time>
      </trkpt>
      <trkpt lat="42.545038" lon="-8.642321">
        <ele>111.734</ele>
        <time>2018-08-25T12:45:34Z</time>
      </trkpt>
      <trkpt lat="42.545102" lon="-8.642320">
        <ele>111.715</ele>
        <time>2018-08-25T12:45:37Z</time>
      </trkpt>
      <trkpt lat="42.545176" lon="-8.642313">
        <ele>111.765</ele>
        <time>2018-08-25T12:45:38Z</time>
      </trkpt>
      <trkpt lat="42.545262" lon="-8.642312">
        <ele>111.311</ele>
        <time>2018-08-25T12:45:40Z</time>
      </trkpt>
      <trkpt lat="42.545307" lon="-8.642322">
        <ele>110.908</ele>
        <time>2018-08-25T12:45:41Z</time>
      </trkpt>
      <trkpt lat="42.545395" lon="-8.642357">
        <ele>110.673</ele>
        <time>2018-08-25T12:45:43Z</time>
      </trkpt>
      <trkpt lat="42.545440" lon="-8.642390">
        <ele>110.719</ele>
        <time>2018-08-25T12:45:44Z</time>
      </trkpt>
      <trkpt lat="42.545488" lon="-8.642420">
        <ele>110.914</ele>
        <time>2018-08-25T12:45:45Z</time>
      </trkpt>
      <trkpt lat="42.545536" lon="-8.642447">
        <ele>111.028</ele>
        <time>2018-08-25T12:45:46Z</time>
      </trkpt>
      <trkpt lat="42.545582" lon="-8.642480">
        <ele>111.225</ele>
        <time>2018-08-25T12:45:47Z</time>
      </trkpt>
      <trkpt lat="42.545635" lon="-8.642515">
        <ele>111.693</ele>
        <time>2018-08-25T12:45:48Z</time>
      </trkpt>
      <trkpt lat="42.545680" lon="-8.642543">
        <ele>112.191</ele>
        <time>2018-08-25T12:45:49Z</time>
      </trkpt>
      <trkpt lat="42.545760" lon="-8.642566">
        <ele>112.711</ele>
        <time>2018-08-25T12:45:51Z</time>
      </trkpt>
      <trkpt lat="42.545838" lon="-8.642560">
        <ele>113.516</ele>
        <time>2018-08-25T12:45:53Z</time>
      </trkpt>
      <trkpt lat="42.545928" lon="-8.642551">
        <ele>114.476</ele>
        <time>2018-08-25T12:45:55Z</time>
      </trkpt>
      <trkpt lat="42.545981" lon="-8.642545">
        <ele>115.013</ele>
        <time>2018-08-25T12:45:56Z</time>
      </trkpt>
      <trkpt lat="42.546041" lon="-8.642538">
        <ele>115.908</ele>
        <time>2018-08-25T12:45:57Z</time>
      </trkpt>
      <trkpt lat="42.546093" lon="-8.642525">
        <ele>116.763</ele>
        <time>2018-08-25T12:45:58Z</time>
      </trkpt>
      <trkpt lat="42.546150" lon="-8.642501">
        <ele>117.059</ele>
        <time>2018-08-25T12:45:59Z</time>
      </trkpt>
      <trkpt lat="42.546206" lon="-8.642483">
        <ele>116.564</ele>
        <time>2018-08-25T12:46:00Z</time>
      </trkpt>
      <trkpt lat="42.546260" lon="-8.642470">
        <ele>115.768</ele>
        <time>2018-08-25T12:46:01Z</time>
      </trkpt>
      <trkpt lat="42.546308" lon="-8.642461">
        <ele>115.555</ele>
        <time>2018-08-25T12:46:02Z</time>
      </trkpt>
      <trkpt lat="42.546355" lon="-8.642455">
        <ele>115.723</ele>
        <time>2018-08-25T12:46:03Z</time>
      </trkpt>
      <trkpt lat="42.546402" lon="-8.642450">
        <ele>116.081</ele>
        <time>2018-08-25T12:46:04Z</time>
      </trkpt>
      <trkpt lat="42.546494" lon="-8.642430">
        <ele>116.191</ele>
        <time>2018-08-25T12:46:06Z</time>
      </trkpt>
      <trkpt lat="42.546564" lon="-8.642422">
        <ele>115.811</ele>
        <time>2018-08-25T12:46:08Z</time>
      </trkpt>
      <trkpt lat="42.546642" lon="-8.642421">
        <ele>114.921</ele>
        <time>2018-08-25T12:46:10Z</time>
      </trkpt>
      <trkpt lat="42.546721" lon="-8.642421">
        <ele>113.703</ele>
        <time>2018-08-25T12:46:12Z</time>
      </trkpt>
      <trkpt lat="42.546805" lon="-8.642421">
        <ele>112.608</ele>
        <time>2018-08-25T12:46:14Z</time>
      </trkpt>
      <trkpt lat="42.546882" lon="-8.642417">
        <ele>110.983</ele>
        <time>2018-08-25T12:46:16Z</time>
      </trkpt>
      <trkpt lat="42.546952" lon="-8.642415">
        <ele>109.449</ele>
        <time>2018-08-25T12:46:18Z</time>
      </trkpt>
      <trkpt lat="42.547016" lon="-8.642411">
        <ele>108.354</ele>
        <time>2018-08-25T12:46:20Z</time>
      </trkpt>
      <trkpt lat="42.547080" lon="-8.642407">
        <ele>107.358</ele>
        <time>2018-08-25T12:46:22Z</time>
      </trkpt>
      <trkpt lat="42.547141" lon="-8.642402">
        <ele>106.385</ele>
        <time>2018-08-25T12:46:24Z</time>
      </trkpt>
      <trkpt lat="42.547210" lon="-8.642397">
        <ele>105.053</ele>
        <time>2018-08-25T12:46:26Z</time>
      </trkpt>
      <trkpt lat="42.547314" lon="-8.642388">
        <ele>104.161</ele>
        <time>2018-08-25T12:46:27Z</time>
      </trkpt>
      <trkpt lat="42.547362" lon="-8.642381">
        <ele>103.241</ele>
        <time>2018-08-25T12:46:28Z</time>
      </trkpt>
      <trkpt lat="42.547414" lon="-8.642379">
        <ele>102.573</ele>
        <time>2018-08-25T12:46:29Z</time>
      </trkpt>
      <trkpt lat="42.547465" lon="-8.642382">
        <ele>101.985</ele>
        <time>2018-08-25T12:46:30Z</time>
      </trkpt>
      <trkpt lat="42.547512" lon="-8.642388">
        <ele>101.413</ele>
        <time>2018-08-25T12:46:31Z</time>
      </trkpt>
      <trkpt lat="42.547561" lon="-8.642398">
        <ele>101.108</ele>
        <time>2018-08-25T12:46:32Z</time>
      </trkpt>
      <trkpt lat="42.547607" lon="-8.642413">
        <ele>101.249</ele>
        <time>2018-08-25T12:46:33Z</time>
      </trkpt>
      <trkpt lat="42.547685" lon="-8.642453">
        <ele>102.115</ele>
        <time>2018-08-25T12:46:35Z</time>
      </trkpt>
      <trkpt lat="42.547742" lon="-8.642439">
        <ele>103.260</ele>
        <time>2018-08-25T12:46:38Z</time>
      </trkpt>
      <trkpt lat="42.547796" lon="-8.642398">
        <ele>101.894</ele>
        <time>2018-08-25T12:46:41Z</time>
      </trkpt>
      <trkpt lat="42.547838" lon="-8.642347">
        <ele>100.521</ele>
        <time>2018-08-25T12:46:44Z</time>
      </trkpt>
      <trkpt lat="42.547889" lon="-8.642288">
        <ele>98.159</ele>
        <time>2018-08-25T12:46:47Z</time>
      </trkpt>
      <trkpt lat="42.547934" lon="-8.642243">
        <ele>96.897</ele>
        <time>2018-08-25T12:46:50Z</time>
      </trkpt>
      <trkpt lat="42.547973" lon="-8.642194">
        <ele>96.537</ele>
        <time>2018-08-25T12:46:53Z</time>
      </trkpt>
      <trkpt lat="42.548001" lon="-8.642138">
        <ele>96.287</ele>
        <time>2018-08-25T12:46:56Z</time>
      </trkpt>
      <trkpt lat="42.548041" lon="-8.642082">
        <ele>96.242</ele>
        <time>2018-08-25T12:47:00Z</time>
      </trkpt>
      <trkpt lat="42.548081" lon="-8.642044">
        <ele>96.026</ele>
        <time>2018-08-25T12:47:03Z</time>
      </trkpt>
      <trkpt lat="42.548120" lon="-8.641997">
        <ele>95.908</ele>
        <time>2018-08-25T12:47:07Z</time>
      </trkpt>
      <trkpt lat="42.548162" lon="-8.641956">
        <ele>96.630</ele>
        <time>2018-08-25T12:47:53Z</time>
      </trkpt>
      <trkpt lat="42.548210" lon="-8.641880">
        <ele>97.176</ele>
        <time>2018-08-25T12:47:56Z</time>
      </trkpt>
      <trkpt lat="42.548251" lon="-8.641809">
        <ele>97.021</ele>
        <time>2018-08-25T12:47:58Z</time>
      </trkpt>
      <trkpt lat="42.548293" lon="-8.641739">
        <ele>96.695</ele>
        <time>2018-08-25T12:48:00Z</time>
      </trkpt>
      <trkpt lat="42.548332" lon="-8.641676">
        <ele>96.062</ele>
        <time>2018-08-25T12:48:02Z</time>
      </trkpt>
      <trkpt lat="42.548368" lon="-8.641626">
        <ele>95.630</ele>
        <time>2018-08-25T12:48:04Z</time>
      </trkpt>
      <trkpt lat="42.548405" lon="-8.641584">
        <ele>95.418</ele>
        <time>2018-08-25T12:48:06Z</time>
      </trkpt>
      <trkpt lat="42.548448" lon="-8.641534">
        <ele>95.478</ele>
        <time>2018-08-25T12:48:08Z</time>
      </trkpt>
      <trkpt lat="42.548531" lon="-8.641414">
        <ele>95.285</ele>
        <time>2018-08-25T12:48:10Z</time>
      </trkpt>
      <trkpt lat="42.548586" lon="-8.641319">
        <ele>94.089</ele>
        <time>2018-08-25T12:48:12Z</time>
      </trkpt>
      <trkpt lat="42.548620" lon="-8.641276">
        <ele>92.917</ele>
        <time>2018-08-25T12:48:13Z</time>
      </trkpt>
      <trkpt lat="42.548652" lon="-8.641228">
        <ele>91.908</ele>
        <time>2018-08-25T12:48:14Z</time>
      </trkpt>
      <trkpt lat="42.548701" lon="-8.641167">
        <ele>91.140</ele>
        <time>2018-08-25T12:48:16Z</time>
      </trkpt>
      <trkpt lat="42.548739" lon="-8.641124">
        <ele>90.836</ele>
        <time>2018-08-25T12:48:18Z</time>
      </trkpt>
      <trkpt lat="42.548782" lon="-8.641076">
        <ele>90.671</ele>
        <time>2018-08-25T12:48:20Z</time>
      </trkpt>
      <trkpt lat="42.548881" lon="-8.640964">
        <ele>90.575</ele>
        <time>2018-08-25T12:48:22Z</time>
      </trkpt>
      <trkpt lat="42.548944" lon="-8.640901">
        <ele>90.462</ele>
        <time>2018-08-25T12:48:24Z</time>
      </trkpt>
      <trkpt lat="42.549013" lon="-8.640835">
        <ele>90.260</ele>
        <time>2018-08-25T12:48:26Z</time>
      </trkpt>
      <trkpt lat="42.549083" lon="-8.640764">
        <ele>90.028</ele>
        <time>2018-08-25T12:48:28Z</time>
      </trkpt>
      <trkpt lat="42.549146" lon="-8.640691">
        <ele>89.998</ele>
        <time>2018-08-25T12:48:30Z</time>
      </trkpt>
      <trkpt lat="42.549208" lon="-8.640623">
        <ele>89.846</ele>
        <time>2018-08-25T12:48:32Z</time>
      </trkpt>
      <trkpt lat="42.549267" lon="-8.640555">
        <ele>89.888</ele>
        <time>2018-08-25T12:48:34Z</time>
      </trkpt>
      <trkpt lat="42.549325" lon="-8.640487">
        <ele>89.716</ele>
        <time>2018-08-25T12:48:36Z</time>
      </trkpt>
      <trkpt lat="42.549400" lon="-8.640388">
        <ele>89.708</ele>
        <time>2018-08-25T12:48:39Z</time>
      </trkpt>
      <trkpt lat="42.549440" lon="-8.640313">
        <ele>90.016</ele>
        <time>2018-08-25T12:48:42Z</time>
      </trkpt>
      <trkpt lat="42.549484" lon="-8.640181">
        <ele>90.382</ele>
        <time>2018-08-25T12:48:44Z</time>
      </trkpt>
      <trkpt lat="42.549484" lon="-8.640079">
        <ele>90.577</ele>
        <time>2018-08-25T12:48:46Z</time>
      </trkpt>
      <trkpt lat="42.549471" lon="-8.639970">
        <ele>90.661</ele>
        <time>2018-08-25T12:48:48Z</time>
      </trkpt>
      <trkpt lat="42.549452" lon="-8.639857">
        <ele>90.778</ele>
        <time>2018-08-25T12:48:50Z</time>
      </trkpt>
      <trkpt lat="42.549433" lon="-8.639750">
        <ele>90.726</ele>
        <time>2018-08-25T12:48:52Z</time>
      </trkpt>
      <trkpt lat="42.549421" lon="-8.639659">
        <ele>90.574</ele>
        <time>2018-08-25T12:48:55Z</time>
      </trkpt>
      <trkpt lat="42.549428" lon="-8.639589">
        <ele>90.294</ele>
        <time>2018-08-25T12:48:57Z</time>
      </trkpt>
      <trkpt lat="42.549471" lon="-8.639493">
        <ele>90.053</ele>
        <time>2018-08-25T12:48:58Z</time>
      </trkpt>
      <trkpt lat="42.549553" lon="-8.639452">
        <ele>89.904</ele>
        <time>2018-08-25T12:49:00Z</time>
      </trkpt>
      <trkpt lat="42.549599" lon="-8.639440">
        <ele>90.014</ele>
        <time>2018-08-25T12:49:01Z</time>
      </trkpt>
      <trkpt lat="42.549643" lon="-8.639425">
        <ele>90.208</ele>
        <time>2018-08-25T12:49:02Z</time>
      </trkpt>
      <trkpt lat="42.549729" lon="-8.639385">
        <ele>90.267</ele>
        <time>2018-08-25T12:49:04Z</time>
      </trkpt>
      <trkpt lat="42.549816" lon="-8.639352">
        <ele>89.863</ele>
        <time>2018-08-25T12:49:06Z</time>
      </trkpt>
      <trkpt lat="42.549860" lon="-8.639334">
        <ele>89.518</ele>
        <time>2018-08-25T12:49:07Z</time>
      </trkpt>
      <trkpt lat="42.549944" lon="-8.639307">
        <ele>89.362</ele>
        <time>2018-08-25T12:49:09Z</time>
      </trkpt>
      <trkpt lat="42.550024" lon="-8.639290">
        <ele>89.199</ele>
        <time>2018-08-25T12:49:11Z</time>
      </trkpt>
      <trkpt lat="42.550081" lon="-8.639278">
        <ele>88.997</ele>
        <time>2018-08-25T12:49:13Z</time>
      </trkpt>
      <trkpt lat="42.550146" lon="-8.639259">
        <ele>88.655</ele>
        <time>2018-08-25T12:49:16Z</time>
      </trkpt>
      <trkpt lat="42.550198" lon="-8.639237">
        <ele>88.335</ele>
        <time>2018-08-25T12:49:18Z</time>
      </trkpt>
      <trkpt lat="42.550260" lon="-8.639212">
        <ele>88.113</ele>
        <time>2018-08-25T12:49:20Z</time>
      </trkpt>
      <trkpt lat="42.550325" lon="-8.639187">
        <ele>87.943</ele>
        <time>2018-08-25T12:49:22Z</time>
      </trkpt>
      <trkpt lat="42.550426" lon="-8.639151">
        <ele>87.707</ele>
        <time>2018-08-25T12:49:23Z</time>
      </trkpt>
      <trkpt lat="42.550482" lon="-8.639132">
        <ele>87.508</ele>
        <time>2018-08-25T12:49:25Z</time>
      </trkpt>
      <trkpt lat="42.550530" lon="-8.639115">
        <ele>87.513</ele>
        <time>2018-08-25T12:49:27Z</time>
      </trkpt>
      <trkpt lat="42.550585" lon="-8.639097">
        <ele>88.069</ele>
        <time>2018-08-25T12:49:29Z</time>
      </trkpt>
      <trkpt lat="42.550644" lon="-8.639078">
        <ele>88.874</ele>
        <time>2018-08-25T12:49:31Z</time>
      </trkpt>
      <trkpt lat="42.550702" lon="-8.639060">
        <ele>89.778</ele>
        <time>2018-08-25T12:49:33Z</time>
      </trkpt>
      <trkpt lat="42.550759" lon="-8.639048">
        <ele>90.555</ele>
        <time>2018-08-25T12:49:35Z</time>
      </trkpt>
      <trkpt lat="42.550816" lon="-8.639036">
        <ele>91.763</ele>
        <time>2018-08-25T12:49:37Z</time>
      </trkpt>
      <trkpt lat="42.550879" lon="-8.639013">
        <ele>92.351</ele>
        <time>2018-08-25T12:49:39Z</time>
      </trkpt>
      <trkpt lat="42.550980" lon="-8.638969">
        <ele>92.631</ele>
        <time>2018-08-25T12:49:40Z</time>
      </trkpt>
      <trkpt lat="42.551036" lon="-8.638945">
        <ele>92.646</ele>
        <time>2018-08-25T12:49:42Z</time>
      </trkpt>
      <trkpt lat="42.551081" lon="-8.638934">
        <ele>92.888</ele>
        <time>2018-08-25T12:49:44Z</time>
      </trkpt>
      <trkpt lat="42.551131" lon="-8.638924">
        <ele>92.716</ele>
        <time>2018-08-25T12:49:46Z</time>
      </trkpt>
      <trkpt lat="42.551181" lon="-8.638915">
        <ele>92.408</ele>
        <time>2018-08-25T12:49:48Z</time>
      </trkpt>
      <trkpt lat="42.551235" lon="-8.638902">
        <ele>92.026</ele>
        <time>2018-08-25T12:49:50Z</time>
      </trkpt>
      <trkpt lat="42.551288" lon="-8.638886">
        <ele>91.832</ele>
        <time>2018-08-25T12:49:52Z</time>
      </trkpt>
      <trkpt lat="42.551347" lon="-8.638866">
        <ele>91.817</ele>
        <time>2018-08-25T12:49:54Z</time>
      </trkpt>
      <trkpt lat="42.551414" lon="-8.638848">
        <ele>91.911</ele>
        <time>2018-08-25T12:49:56Z</time>
      </trkpt>
      <trkpt lat="42.551481" lon="-8.638833">
        <ele>91.988</ele>
        <time>2018-08-25T12:49:58Z</time>
      </trkpt>
      <trkpt lat="42.551553" lon="-8.638819">
        <ele>92.046</ele>
        <time>2018-08-25T12:50:00Z</time>
      </trkpt>
      <trkpt lat="42.551623" lon="-8.638804">
        <ele>92.114</ele>
        <time>2018-08-25T12:50:02Z</time>
      </trkpt>
      <trkpt lat="42.551690" lon="-8.638792">
        <ele>92.354</ele>
        <time>2018-08-25T12:50:04Z</time>
      </trkpt>
      <trkpt lat="42.551754" lon="-8.638781">
        <ele>92.667</ele>
        <time>2018-08-25T12:50:06Z</time>
      </trkpt>
      <trkpt lat="42.551812" lon="-8.638770">
        <ele>92.781</ele>
        <time>2018-08-25T12:50:08Z</time>
      </trkpt>
      <trkpt lat="42.551872" lon="-8.638758">
        <ele>92.719</ele>
        <time>2018-08-25T12:50:10Z</time>
      </trkpt>
      <trkpt lat="42.551936" lon="-8.638748">
        <ele>92.708</ele>
        <time>2018-08-25T12:50:12Z</time>
      </trkpt>
      <trkpt lat="42.552004" lon="-8.638739">
        <ele>92.778</ele>
        <time>2018-08-25T12:50:14Z</time>
      </trkpt>
      <trkpt lat="42.552073" lon="-8.638732">
        <ele>92.754</ele>
        <time>2018-08-25T12:50:16Z</time>
      </trkpt>
      <trkpt lat="42.552143" lon="-8.638725">
        <ele>92.879</ele>
        <time>2018-08-25T12:50:18Z</time>
      </trkpt>
      <trkpt lat="42.552212" lon="-8.638720">
        <ele>93.083</ele>
        <time>2018-08-25T12:50:20Z</time>
      </trkpt>
      <trkpt lat="42.552280" lon="-8.638714">
        <ele>93.360</ele>
        <time>2018-08-25T12:50:22Z</time>
      </trkpt>
      <trkpt lat="42.552348" lon="-8.638706">
        <ele>93.658</ele>
        <time>2018-08-25T12:50:24Z</time>
      </trkpt>
      <trkpt lat="42.552419" lon="-8.638697">
        <ele>93.736</ele>
        <time>2018-08-25T12:50:26Z</time>
      </trkpt>
      <trkpt lat="42.552486" lon="-8.638688">
        <ele>93.776</ele>
        <time>2018-08-25T12:50:28Z</time>
      </trkpt>
      <trkpt lat="42.552553" lon="-8.638679">
        <ele>93.757</ele>
        <time>2018-08-25T12:50:30Z</time>
      </trkpt>
      <trkpt lat="42.552626" lon="-8.638667">
        <ele>93.700</ele>
        <time>2018-08-25T12:50:32Z</time>
      </trkpt>
      <trkpt lat="42.552699" lon="-8.638652">
        <ele>93.720</ele>
        <time>2018-08-25T12:50:34Z</time>
      </trkpt>
      <trkpt lat="42.552773" lon="-8.638637">
        <ele>93.608</ele>
        <time>2018-08-25T12:50:36Z</time>
      </trkpt>
      <trkpt lat="42.552838" lon="-8.638623">
        <ele>93.687</ele>
        <time>2018-08-25T12:50:38Z</time>
      </trkpt>
      <trkpt lat="42.552890" lon="-8.638615">
        <ele>93.583</ele>
        <time>2018-08-25T12:50:40Z</time>
      </trkpt>
      <trkpt lat="42.552943" lon="-8.638603">
        <ele>93.388</ele>
        <time>2018-08-25T12:50:42Z</time>
      </trkpt>
      <trkpt lat="42.553037" lon="-8.638578">
        <ele>93.112</ele>
        <time>2018-08-25T12:50:43Z</time>
      </trkpt>
      <trkpt lat="42.553119" lon="-8.638566">
        <ele>93.139</ele>
        <time>2018-08-25T12:50:45Z</time>
      </trkpt>
      <trkpt lat="42.553204" lon="-8.638552">
        <ele>93.387</ele>
        <time>2018-08-25T12:50:47Z</time>
      </trkpt>
      <trkpt lat="42.553295" lon="-8.638525">
        <ele>93.445</ele>
        <time>2018-08-25T12:50:49Z</time>
      </trkpt>
      <trkpt lat="42.553346" lon="-8.638512">
        <ele>93.355</ele>
        <time>2018-08-25T12:50:50Z</time>
      </trkpt>
      <trkpt lat="42.553399" lon="-8.638502">
        <ele>93.113</ele>
        <time>2018-08-25T12:50:51Z</time>
      </trkpt>
      <trkpt lat="42.553451" lon="-8.638496">
        <ele>92.943</ele>
        <time>2018-08-25T12:50:52Z</time>
      </trkpt>
      <trkpt lat="42.553503" lon="-8.638490">
        <ele>92.707</ele>
        <time>2018-08-25T12:50:53Z</time>
      </trkpt>
      <trkpt lat="42.553555" lon="-8.638481">
        <ele>92.408</ele>
        <time>2018-08-25T12:50:54Z</time>
      </trkpt>
      <trkpt lat="42.553605" lon="-8.638472">
        <ele>92.573</ele>
        <time>2018-08-25T12:50:55Z</time>
      </trkpt>
      <trkpt lat="42.553656" lon="-8.638459">
        <ele>92.679</ele>
        <time>2018-08-25T12:50:56Z</time>
      </trkpt>
      <trkpt lat="42.553706" lon="-8.638449">
        <ele>92.564</ele>
        <time>2018-08-25T12:50:57Z</time>
      </trkpt>
      <trkpt lat="42.553752" lon="-8.638441">
        <ele>92.428</ele>
        <time>2018-08-25T12:50:58Z</time>
      </trkpt>
      <trkpt lat="42.553840" lon="-8.638416">
        <ele>92.145</ele>
        <time>2018-08-25T12:51:00Z</time>
      </trkpt>
      <trkpt lat="42.553884" lon="-8.638400">
        <ele>91.723</ele>
        <time>2018-08-25T12:51:01Z</time>
      </trkpt>
      <trkpt lat="42.553965" lon="-8.638368">
        <ele>91.271</ele>
        <time>2018-08-25T12:51:03Z</time>
      </trkpt>
      <trkpt lat="42.554037" lon="-8.638344">
        <ele>91.121</ele>
        <time>2018-08-25T12:51:05Z</time>
      </trkpt>
      <trkpt lat="42.554116" lon="-8.638315">
        <ele>91.153</ele>
        <time>2018-08-25T12:51:07Z</time>
      </trkpt>
      <trkpt lat="42.554198" lon="-8.638272">
        <ele>91.004</ele>
        <time>2018-08-25T12:51:09Z</time>
      </trkpt>
      <trkpt lat="42.554280" lon="-8.638225">
        <ele>90.914</ele>
        <time>2018-08-25T12:51:11Z</time>
      </trkpt>
      <trkpt lat="42.554324" lon="-8.638207">
        <ele>90.808</ele>
        <time>2018-08-25T12:51:12Z</time>
      </trkpt>
      <trkpt lat="42.554386" lon="-8.638181">
        <ele>90.877</ele>
        <time>2018-08-25T12:51:14Z</time>
      </trkpt>
      <trkpt lat="42.554438" lon="-8.638153">
        <ele>90.833</ele>
        <time>2018-08-25T12:51:15Z</time>
      </trkpt>
      <trkpt lat="42.554512" lon="-8.638108">
        <ele>90.678</ele>
        <time>2018-08-25T12:51:17Z</time>
      </trkpt>
      <trkpt lat="42.554587" lon="-8.638061">
        <ele>90.352</ele>
        <time>2018-08-25T12:51:19Z</time>
      </trkpt>
      <trkpt lat="42.554631" lon="-8.638040">
        <ele>90.059</ele>
        <time>2018-08-25T12:51:21Z</time>
      </trkpt>
      <trkpt lat="42.554682" lon="-8.638014">
        <ele>89.717</ele>
        <time>2018-08-25T12:51:23Z</time>
      </trkpt>
      <trkpt lat="42.554735" lon="-8.637985">
        <ele>89.485</ele>
        <time>2018-08-25T12:51:25Z</time>
      </trkpt>
      <trkpt lat="42.554788" lon="-8.637951">
        <ele>89.115</ele>
        <time>2018-08-25T12:51:27Z</time>
      </trkpt>
      <trkpt lat="42.554844" lon="-8.637916">
        <ele>89.067</ele>
        <time>2018-08-25T12:51:29Z</time>
      </trkpt>
      <trkpt lat="42.554899" lon="-8.637891">
        <ele>88.681</ele>
        <time>2018-08-25T12:51:31Z</time>
      </trkpt>
      <trkpt lat="42.554946" lon="-8.637872">
        <ele>88.219</ele>
        <time>2018-08-25T12:51:33Z</time>
      </trkpt>
      <trkpt lat="42.554992" lon="-8.637853">
        <ele>87.908</ele>
        <time>2018-08-25T12:51:35Z</time>
      </trkpt>
      <trkpt lat="42.555032" lon="-8.637812">
        <ele>87.768</ele>
        <time>2018-08-25T12:51:37Z</time>
      </trkpt>
      <trkpt lat="42.555067" lon="-8.637763">
        <ele>87.674</ele>
        <time>2018-08-25T12:51:40Z</time>
      </trkpt>
      <trkpt lat="42.555117" lon="-8.637728">
        <ele>87.399</ele>
        <time>2018-08-25T12:52:02Z</time>
      </trkpt>
      <trkpt lat="42.555162" lon="-8.637730">
        <ele>87.193</ele>
        <time>2018-08-25T12:52:04Z</time>
      </trkpt>
      <trkpt lat="42.555208" lon="-8.637735">
        <ele>87.050</ele>
        <time>2018-08-25T12:52:06Z</time>
      </trkpt>
      <trkpt lat="42.555269" lon="-8.637722">
        <ele>86.698</ele>
        <time>2018-08-25T12:52:09Z</time>
      </trkpt>
      <trkpt lat="42.555308" lon="-8.637688">
        <ele>86.146</ele>
        <time>2018-08-25T12:52:11Z</time>
      </trkpt>
      <trkpt lat="42.555411" lon="-8.637613">
        <ele>85.476</ele>
        <time>2018-08-25T12:52:13Z</time>
      </trkpt>
      <trkpt lat="42.555501" lon="-8.637601">
        <ele>85.082</ele>
        <time>2018-08-25T12:52:15Z</time>
      </trkpt>
      <trkpt lat="42.555548" lon="-8.637598">
        <ele>84.843</ele>
        <time>2018-08-25T12:52:16Z</time>
      </trkpt>
      <trkpt lat="42.555594" lon="-8.637595">
        <ele>84.717</ele>
        <time>2018-08-25T12:52:17Z</time>
      </trkpt>
      <trkpt lat="42.555640" lon="-8.637594">
        <ele>84.608</ele>
        <time>2018-08-25T12:52:18Z</time>
      </trkpt>
      <trkpt lat="42.555688" lon="-8.637592">
        <ele>84.540</ele>
        <time>2018-08-25T12:52:19Z</time>
      </trkpt>
      <trkpt lat="42.555734" lon="-8.637587">
        <ele>84.576</ele>
        <time>2018-08-25T12:52:20Z</time>
      </trkpt>
      <trkpt lat="42.555779" lon="-8.637581">
        <ele>84.741</ele>
        <time>2018-08-25T12:52:21Z</time>
      </trkpt>
      <trkpt lat="42.555866" lon="-8.637572">
        <ele>84.865</ele>
        <time>2018-08-25T12:52:23Z</time>
      </trkpt>
      <trkpt lat="42.555912" lon="-8.637561">
        <ele>84.882</ele>
        <time>2018-08-25T12:52:24Z</time>
      </trkpt>
      <trkpt lat="42.555959" lon="-8.637553">
        <ele>84.860</ele>
        <time>2018-08-25T12:52:25Z</time>
      </trkpt>
      <trkpt lat="42.556009" lon="-8.637551">
        <ele>84.958</ele>
        <time>2018-08-25T12:52:26Z</time>
      </trkpt>
      <trkpt lat="42.556060" lon="-8.637549">
        <ele>85.038</ele>
        <time>2018-08-25T12:52:27Z</time>
      </trkpt>
      <trkpt lat="42.556113" lon="-8.637545">
        <ele>85.074</ele>
        <time>2018-08-25T12:52:28Z</time>
      </trkpt>
      <trkpt lat="42.556165" lon="-8.637542">
        <ele>85.056</ele>
        <time>2018-08-25T12:52:29Z</time>
      </trkpt>
      <trkpt lat="42.556215" lon="-8.637538">
        <ele>85.021</ele>
        <time>2018-08-25T12:52:30Z</time>
      </trkpt>
      <trkpt lat="42.556264" lon="-8.637535">
        <ele>85.008</ele>
        <time>2018-08-25T12:52:31Z</time>
      </trkpt>
      <trkpt lat="42.556310" lon="-8.637534">
        <ele>85.149</ele>
        <time>2018-08-25T12:52:32Z</time>
      </trkpt>
      <trkpt lat="42.556391" lon="-8.637529">
        <ele>85.095</ele>
        <time>2018-08-25T12:52:34Z</time>
      </trkpt>
      <trkpt lat="42.556455" lon="-8.637528">
        <ele>85.170</ele>
        <time>2018-08-25T12:52:37Z</time>
      </trkpt>
      <trkpt lat="42.556507" lon="-8.637528">
        <ele>85.154</ele>
        <time>2018-08-25T12:52:39Z</time>
      </trkpt>
      <trkpt lat="42.556556" lon="-8.637524">
        <ele>85.341</ele>
        <time>2018-08-25T12:52:41Z</time>
      </trkpt>
      <trkpt lat="42.556608" lon="-8.637522">
        <ele>85.599</ele>
        <time>2018-08-25T12:52:43Z</time>
      </trkpt>
      <trkpt lat="42.556662" lon="-8.637518">
        <ele>85.787</ele>
        <time>2018-08-25T12:52:45Z</time>
      </trkpt>
      <trkpt lat="42.556722" lon="-8.637513">
        <ele>85.937</ele>
        <time>2018-08-25T12:52:47Z</time>
      </trkpt>
      <trkpt lat="42.556779" lon="-8.637504">
        <ele>86.086</ele>
        <time>2018-08-25T12:52:49Z</time>
      </trkpt>
      <trkpt lat="42.556829" lon="-8.637494">
        <ele>86.160</ele>
        <time>2018-08-25T12:52:51Z</time>
      </trkpt>
      <trkpt lat="42.556893" lon="-8.637475">
        <ele>86.126</ele>
        <time>2018-08-25T12:52:54Z</time>
      </trkpt>
      <trkpt lat="42.556944" lon="-8.637457">
        <ele>86.208</ele>
        <time>2018-08-25T12:52:57Z</time>
      </trkpt>
      <trkpt lat="42.556994" lon="-8.637445">
        <ele>86.450</ele>
        <time>2018-08-25T12:53:01Z</time>
      </trkpt>
      <trkpt lat="42.557036" lon="-8.637479">
        <ele>86.956</ele>
        <time>2018-08-25T12:53:04Z</time>
      </trkpt>
      <trkpt lat="42.557018" lon="-8.637560">
        <ele>88.841</ele>
        <time>2018-08-25T12:53:07Z</time>
      </trkpt>
      <trkpt lat="42.556965" lon="-8.637608">
        <ele>89.685</ele>
        <time>2018-08-25T12:53:09Z</time>
      </trkpt>
      <trkpt lat="42.556899" lon="-8.637619">
        <ele>90.272</ele>
        <time>2018-08-25T12:53:11Z</time>
      </trkpt>
      <trkpt lat="42.556824" lon="-8.637616">
        <ele>89.990</ele>
        <time>2018-08-25T12:53:13Z</time>
      </trkpt>
      <trkpt lat="42.556755" lon="-8.637614">
        <ele>89.588</ele>
        <time>2018-08-25T12:53:15Z</time>
      </trkpt>
      <trkpt lat="42.556686" lon="-8.637611">
        <ele>88.948</ele>
        <time>2018-08-25T12:53:17Z</time>
      </trkpt>
      <trkpt lat="42.556624" lon="-8.637616">
        <ele>88.216</ele>
        <time>2018-08-25T12:53:19Z</time>
      </trkpt>
      <trkpt lat="42.556559" lon="-8.637624">
        <ele>87.276</ele>
        <time>2018-08-25T12:53:21Z</time>
      </trkpt>
      <trkpt lat="42.556499" lon="-8.637617">
        <ele>86.313</ele>
        <time>2018-08-25T12:53:23Z</time>
      </trkpt>
      <trkpt lat="42.556437" lon="-8.637614">
        <ele>85.908</ele>
        <time>2018-08-25T12:53:25Z</time>
      </trkpt>
      <trkpt lat="42.556379" lon="-8.637613">
        <ele>85.583</ele>
        <time>2018-08-25T12:53:27Z</time>
      </trkpt>
      <trkpt lat="42.556320" lon="-8.637618">
        <ele>85.379</ele>
        <time>2018-08-25T12:53:29Z</time>
      </trkpt>
      <trkpt lat="42.556261" lon="-8.637632">
        <ele>85.274</ele>
        <time>2018-08-25T12:53:31Z</time>
      </trkpt>
      <trkpt lat="42.556126" lon="-8.637652">
        <ele>84.798</ele>
        <time>2018-08-25T12:53:33Z</time>
      </trkpt>
      <trkpt lat="42.556057" lon="-8.637659">
        <ele>84.245</ele>
        <time>2018-08-25T12:53:36Z</time>
      </trkpt>
      <trkpt lat="42.555951" lon="-8.637673">
        <ele>84.043</ele>
        <time>2018-08-25T12:53:38Z</time>
      </trkpt>
      <trkpt lat="42.555879" lon="-8.637682">
        <ele>83.911</ele>
        <time>2018-08-25T12:53:40Z</time>
      </trkpt>
      <trkpt lat="42.555801" lon="-8.637702">
        <ele>83.931</ele>
        <time>2018-08-25T12:53:42Z</time>
      </trkpt>
      <trkpt lat="42.555721" lon="-8.637714">
        <ele>84.132</ele>
        <time>2018-08-25T12:53:44Z</time>
      </trkpt>
      <trkpt lat="42.555639" lon="-8.637714">
        <ele>84.492</ele>
        <time>2018-08-25T12:53:46Z</time>
      </trkpt>
      <trkpt lat="42.555557" lon="-8.637720">
        <ele>84.711</ele>
        <time>2018-08-25T12:53:48Z</time>
      </trkpt>
      <trkpt lat="42.555469" lon="-8.637732">
        <ele>85.108</ele>
        <time>2018-08-25T12:53:50Z</time>
      </trkpt>
      <trkpt lat="42.555389" lon="-8.637733">
        <ele>85.575</ele>
        <time>2018-08-25T12:53:52Z</time>
      </trkpt>
      <trkpt lat="42.555321" lon="-8.637741">
        <ele>86.061</ele>
        <time>2018-08-25T12:53:55Z</time>
      </trkpt>
      <trkpt lat="42.555266" lon="-8.637751">
        <ele>86.426</ele>
        <time>2018-08-25T12:53:57Z</time>
      </trkpt>
      <trkpt lat="42.555209" lon="-8.637758">
        <ele>86.860</ele>
        <time>2018-08-25T12:53:59Z</time>
      </trkpt>
      <trkpt lat="42.555151" lon="-8.637778">
        <ele>87.247</ele>
        <time>2018-08-25T12:54:01Z</time>
      </trkpt>
      <trkpt lat="42.555098" lon="-8.637818">
        <ele>87.775</ele>
        <time>2018-08-25T12:54:03Z</time>
      </trkpt>
      <trkpt lat="42.555047" lon="-8.637861">
        <ele>87.973</ele>
        <time>2018-08-25T12:54:05Z</time>
      </trkpt>
      <trkpt lat="42.555007" lon="-8.637911">
        <ele>88.273</ele>
        <time>2018-08-25T12:54:07Z</time>
      </trkpt>
      <trkpt lat="42.554975" lon="-8.637977">
        <ele>88.488</ele>
        <time>2018-08-25T12:54:09Z</time>
      </trkpt>
      <trkpt lat="42.554958" lon="-8.638060">
        <ele>88.424</ele>
        <time>2018-08-25T12:54:11Z</time>
      </trkpt>
      <trkpt lat="42.554954" lon="-8.638239">
        <ele>88.226</ele>
        <time>2018-08-25T12:54:13Z</time>
      </trkpt>
      <trkpt lat="42.554957" lon="-8.638348">
        <ele>88.008</ele>
        <time>2018-08-25T12:54:15Z</time>
      </trkpt>
      <trkpt lat="42.554966" lon="-8.638461">
        <ele>88.020</ele>
        <time>2018-08-25T12:54:17Z</time>
      </trkpt>
      <trkpt lat="42.554969" lon="-8.638570">
        <ele>87.936</ele>
        <time>2018-08-25T12:54:19Z</time>
      </trkpt>
      <trkpt lat="42.554972" lon="-8.638670">
        <ele>87.911</ele>
        <time>2018-08-25T12:54:21Z</time>
      </trkpt>
      <trkpt lat="42.554983" lon="-8.638751">
        <ele>87.985</ele>
        <time>2018-08-25T12:54:24Z</time>
      </trkpt>
      <trkpt lat="42.554988" lon="-8.638813">
        <ele>87.922</ele>
        <time>2018-08-25T12:54:26Z</time>
      </trkpt>
      <trkpt lat="42.554994" lon="-8.638880">
        <ele>87.930</ele>
        <time>2018-08-25T12:54:28Z</time>
      </trkpt>
      <trkpt lat="42.555001" lon="-8.638950">
        <ele>87.948</ele>
        <time>2018-08-25T12:54:30Z</time>
      </trkpt>
      <trkpt lat="42.555007" lon="-8.639018">
        <ele>87.988</ele>
        <time>2018-08-25T12:54:32Z</time>
      </trkpt>
      <trkpt lat="42.555013" lon="-8.639101">
        <ele>88.172</ele>
        <time>2018-08-25T12:54:35Z</time>
      </trkpt>
      <trkpt lat="42.555017" lon="-8.639189">
        <ele>88.113</ele>
        <time>2018-08-25T12:54:38Z</time>
      </trkpt>
      <trkpt lat="42.555030" lon="-8.639308">
        <ele>88.114</ele>
        <time>2018-08-25T12:54:39Z</time>
      </trkpt>
      <trkpt lat="42.555037" lon="-8.639397">
        <ele>88.008</ele>
        <time>2018-08-25T12:54:42Z</time>
      </trkpt>
      <trkpt lat="42.555040" lon="-8.639469">
        <ele>88.059</ele>
        <time>2018-08-25T12:54:44Z</time>
      </trkpt>
      <trkpt lat="42.555044" lon="-8.639543">
        <ele>88.015</ele>
        <time>2018-08-25T12:54:46Z</time>
      </trkpt>
      <trkpt lat="42.555046" lon="-8.639621">
        <ele>87.960</ele>
        <time>2018-08-25T12:54:48Z</time>
      </trkpt>
      <trkpt lat="42.555054" lon="-8.639698">
        <ele>87.984</ele>
        <time>2018-08-25T12:54:50Z</time>
      </trkpt>
      <trkpt lat="42.555064" lon="-8.639769">
        <ele>87.881</ele>
        <time>2018-08-25T12:54:52Z</time>
      </trkpt>
      <trkpt lat="42.555078" lon="-8.639836">
        <ele>87.699</ele>
        <time>2018-08-25T12:54:54Z</time>
      </trkpt>
      <trkpt lat="42.555091" lon="-8.639905">
        <ele>87.547</ele>
        <time>2018-08-25T12:54:56Z</time>
      </trkpt>
      <trkpt lat="42.555102" lon="-8.639980">
        <ele>87.797</ele>
        <time>2018-08-25T12:54:58Z</time>
      </trkpt>
      <trkpt lat="42.555112" lon="-8.640063">
        <ele>87.982</ele>
        <time>2018-08-25T12:55:00Z</time>
      </trkpt>
      <trkpt lat="42.555122" lon="-8.640171">
        <ele>88.043</ele>
        <time>2018-08-25T12:55:01Z</time>
      </trkpt>
      <trkpt lat="42.555131" lon="-8.640274">
        <ele>87.917</ele>
        <time>2018-08-25T12:55:03Z</time>
      </trkpt>
      <trkpt lat="42.555148" lon="-8.640384">
        <ele>87.908</ele>
        <time>2018-08-25T12:55:05Z</time>
      </trkpt>
      <trkpt lat="42.555160" lon="-8.640465">
        <ele>87.840</ele>
        <time>2018-08-25T12:55:07Z</time>
      </trkpt>
      <trkpt lat="42.555169" lon="-8.640531">
        <ele>87.656</ele>
        <time>2018-08-25T12:55:09Z</time>
      </trkpt>
      <trkpt lat="42.555178" lon="-8.640615">
        <ele>87.351</ele>
        <time>2018-08-25T12:55:11Z</time>
      </trkpt>
      <trkpt lat="42.555180" lon="-8.640704">
        <ele>87.075</ele>
        <time>2018-08-25T12:55:13Z</time>
      </trkpt>
      <trkpt lat="42.555182" lon="-8.640803">
        <ele>87.012</ele>
        <time>2018-08-25T12:55:15Z</time>
      </trkpt>
      <trkpt lat="42.555183" lon="-8.640905">
        <ele>87.320</ele>
        <time>2018-08-25T12:55:17Z</time>
      </trkpt>
      <trkpt lat="42.555183" lon="-8.640991">
        <ele>87.498</ele>
        <time>2018-08-25T12:55:19Z</time>
      </trkpt>
      <trkpt lat="42.555170" lon="-8.641160">
        <ele>87.588</ele>
        <time>2018-08-25T12:55:21Z</time>
      </trkpt>
      <trkpt lat="42.555168" lon="-8.641265">
        <ele>87.756</ele>
        <time>2018-08-25T12:55:23Z</time>
      </trkpt>
      <trkpt lat="42.555171" lon="-8.641368">
        <ele>87.959</ele>
        <time>2018-08-25T12:55:25Z</time>
      </trkpt>
      <trkpt lat="42.555182" lon="-8.641445">
        <ele>88.214</ele>
        <time>2018-08-25T12:55:27Z</time>
      </trkpt>
      <trkpt lat="42.555188" lon="-8.641536">
        <ele>88.708</ele>
        <time>2018-08-25T12:55:30Z</time>
      </trkpt>
      <trkpt lat="42.555193" lon="-8.641605">
        <ele>89.157</ele>
        <time>2018-08-25T12:55:32Z</time>
      </trkpt>
      <trkpt lat="42.555202" lon="-8.641692">
        <ele>89.443</ele>
        <time>2018-08-25T12:55:34Z</time>
      </trkpt>
      <trkpt lat="42.555233" lon="-8.641759">
        <ele>89.888</ele>
        <time>2018-08-25T12:55:36Z</time>
      </trkpt>
      <trkpt lat="42.555279" lon="-8.641798">
        <ele>90.142</ele>
        <time>2018-08-25T12:55:38Z</time>
      </trkpt>
      <trkpt lat="42.555344" lon="-8.641817">
        <ele>90.429</ele>
        <time>2018-08-25T12:55:40Z</time>
      </trkpt>
      <trkpt lat="42.555413" lon="-8.641833">
        <ele>90.687</ele>
        <time>2018-08-25T12:55:42Z</time>
      </trkpt>
      <trkpt lat="42.555483" lon="-8.641841">
        <ele>90.915</ele>
        <time>2018-08-25T12:55:44Z</time>
      </trkpt>
      <trkpt lat="42.555556" lon="-8.641851">
        <ele>91.245</ele>
        <time>2018-08-25T12:55:46Z</time>
      </trkpt>
      <trkpt lat="42.555625" lon="-8.641857">
        <ele>91.451</ele>
        <time>2018-08-25T12:55:48Z</time>
      </trkpt>
      <trkpt lat="42.555689" lon="-8.641860">
        <ele>91.601</ele>
        <time>2018-08-25T12:55:50Z</time>
      </trkpt>
      <trkpt lat="42.555748" lon="-8.641861">
        <ele>91.711</ele>
        <time>2018-08-25T12:55:52Z</time>
      </trkpt>
      <trkpt lat="42.555803" lon="-8.641860">
        <ele>91.808</ele>
        <time>2018-08-25T12:55:54Z</time>
      </trkpt>
      <trkpt lat="42.555860" lon="-8.641859">
        <ele>91.967</ele>
        <time>2018-08-25T12:55:56Z</time>
      </trkpt>
      <trkpt lat="42.555920" lon="-8.641857">
        <ele>91.913</ele>
        <time>2018-08-25T12:55:58Z</time>
      </trkpt>
      <trkpt lat="42.555982" lon="-8.641857">
        <ele>91.978</ele>
        <time>2018-08-25T12:56:00Z</time>
      </trkpt>
      <trkpt lat="42.556047" lon="-8.641858">
        <ele>91.932</ele>
        <time>2018-08-25T12:56:02Z</time>
      </trkpt>
      <trkpt lat="42.556114" lon="-8.641857">
        <ele>92.029</ele>
        <time>2018-08-25T12:56:04Z</time>
      </trkpt>
      <trkpt lat="42.556182" lon="-8.641857">
        <ele>92.057</ele>
        <time>2018-08-25T12:56:06Z</time>
      </trkpt>
      <trkpt lat="42.556249" lon="-8.641860">
        <ele>92.065</ele>
        <time>2018-08-25T12:56:08Z</time>
      </trkpt>
      <trkpt lat="42.556311" lon="-8.641861">
        <ele>92.275</ele>
        <time>2018-08-25T12:56:10Z</time>
      </trkpt>
      <trkpt lat="42.556375" lon="-8.641861">
        <ele>92.654</ele>
        <time>2018-08-25T12:56:12Z</time>
      </trkpt>
      <trkpt lat="42.556441" lon="-8.641862">
        <ele>92.956</ele>
        <time>2018-08-25T12:56:14Z</time>
      </trkpt>
      <trkpt lat="42.556505" lon="-8.641865">
        <ele>93.311</ele>
        <time>2018-08-25T12:56:16Z</time>
      </trkpt>
      <trkpt lat="42.556571" lon="-8.641870">
        <ele>93.708</ele>
        <time>2018-08-25T12:56:18Z</time>
      </trkpt>
      <trkpt lat="42.556634" lon="-8.641874">
        <ele>94.037</ele>
        <time>2018-08-25T12:56:20Z</time>
      </trkpt>
      <trkpt lat="42.556695" lon="-8.641875">
        <ele>94.323</ele>
        <time>2018-08-25T12:56:22Z</time>
      </trkpt>
      <trkpt lat="42.556760" lon="-8.641877">
        <ele>94.528</ele>
        <time>2018-08-25T12:56:24Z</time>
      </trkpt>
      <trkpt lat="42.556830" lon="-8.641881">
        <ele>94.682</ele>
        <time>2018-08-25T12:56:26Z</time>
      </trkpt>
      <trkpt lat="42.556897" lon="-8.641888">
        <ele>94.539</ele>
        <time>2018-08-25T12:56:28Z</time>
      </trkpt>
      <trkpt lat="42.557013" lon="-8.641903">
        <ele>94.377</ele>
        <time>2018-08-25T12:56:30Z</time>
      </trkpt>
      <trkpt lat="42.557088" lon="-8.641916">
        <ele>94.285</ele>
        <time>2018-08-25T12:56:32Z</time>
      </trkpt>
      <trkpt lat="42.557161" lon="-8.641925">
        <ele>94.235</ele>
        <time>2018-08-25T12:56:34Z</time>
      </trkpt>
      <trkpt lat="42.557217" lon="-8.641931">
        <ele>94.231</ele>
        <time>2018-08-25T12:56:36Z</time>
      </trkpt>
      <trkpt lat="42.557265" lon="-8.641936">
        <ele>94.061</ele>
        <time>2018-08-25T12:56:38Z</time>
      </trkpt>
      <trkpt lat="42.557319" lon="-8.641944">
        <ele>93.707</ele>
        <time>2018-08-25T12:56:40Z</time>
      </trkpt>
      <trkpt lat="42.557380" lon="-8.641954">
        <ele>93.408</ele>
        <time>2018-08-25T12:56:42Z</time>
      </trkpt>
      <trkpt lat="42.557444" lon="-8.641966">
        <ele>93.195</ele>
        <time>2018-08-25T12:56:44Z</time>
      </trkpt>
      <trkpt lat="42.557511" lon="-8.641977">
        <ele>92.921</ele>
        <time>2018-08-25T12:56:46Z</time>
      </trkpt>
      <trkpt lat="42.557577" lon="-8.641986">
        <ele>92.836</ele>
        <time>2018-08-25T12:56:48Z</time>
      </trkpt>
      <trkpt lat="42.557643" lon="-8.641993">
        <ele>92.780</ele>
        <time>2018-08-25T12:56:50Z</time>
      </trkpt>
      <trkpt lat="42.557703" lon="-8.641992">
        <ele>92.647</ele>
        <time>2018-08-25T12:56:52Z</time>
      </trkpt>
      <trkpt lat="42.557757" lon="-8.641986">
        <ele>92.325</ele>
        <time>2018-08-25T12:56:54Z</time>
      </trkpt>
      <trkpt lat="42.557803" lon="-8.641970">
        <ele>91.933</ele>
        <time>2018-08-25T12:56:56Z</time>
      </trkpt>
      <trkpt lat="42.557849" lon="-8.641907">
        <ele>91.413</ele>
        <time>2018-08-25T12:56:59Z</time>
      </trkpt>
      <trkpt lat="42.557879" lon="-8.641771">
        <ele>91.787</ele>
        <time>2018-08-25T12:57:01Z</time>
      </trkpt>
      <trkpt lat="42.557924" lon="-8.641702">
        <ele>91.542</ele>
        <time>2018-08-25T12:57:04Z</time>
      </trkpt>
      <trkpt lat="42.557975" lon="-8.641660">
        <ele>92.126</ele>
        <time>2018-08-25T12:57:06Z</time>
      </trkpt>
      <trkpt lat="42.558038" lon="-8.641636">
        <ele>91.508</ele>
        <time>2018-08-25T12:57:08Z</time>
      </trkpt>
      <trkpt lat="42.558163" lon="-8.641649">
        <ele>91.290</ele>
        <time>2018-08-25T12:57:10Z</time>
      </trkpt>
      <trkpt lat="42.558227" lon="-8.641692">
        <ele>91.496</ele>
        <time>2018-08-25T12:57:13Z</time>
      </trkpt>
      <trkpt lat="42.558329" lon="-8.641747">
        <ele>91.571</ele>
        <time>2018-08-25T12:57:15Z</time>
      </trkpt>
      <trkpt lat="42.558397" lon="-8.641781">
        <ele>91.525</ele>
        <time>2018-08-25T12:57:17Z</time>
      </trkpt>
      <trkpt lat="42.558470" lon="-8.641825">
        <ele>91.452</ele>
        <time>2018-08-25T12:57:19Z</time>
      </trkpt>
      <trkpt lat="42.558540" lon="-8.641865">
        <ele>91.210</ele>
        <time>2018-08-25T12:57:21Z</time>
      </trkpt>
      <trkpt lat="42.558608" lon="-8.641890">
        <ele>91.288</ele>
        <time>2018-08-25T12:57:23Z</time>
      </trkpt>
      <trkpt lat="42.558682" lon="-8.641915">
        <ele>91.128</ele>
        <time>2018-08-25T12:57:25Z</time>
      </trkpt>
      <trkpt lat="42.558755" lon="-8.641939">
        <ele>91.154</ele>
        <time>2018-08-25T12:57:27Z</time>
      </trkpt>
      <trkpt lat="42.558832" lon="-8.641966">
        <ele>91.056</ele>
        <time>2018-08-25T12:57:29Z</time>
      </trkpt>
      <trkpt lat="42.558911" lon="-8.641994">
        <ele>91.011</ele>
        <time>2018-08-25T12:57:31Z</time>
      </trkpt>
      <trkpt lat="42.558987" lon="-8.642024">
        <ele>91.108</ele>
        <time>2018-08-25T12:57:33Z</time>
      </trkpt>
      <trkpt lat="42.559085" lon="-8.642079">
        <ele>91.247</ele>
        <time>2018-08-25T12:57:36Z</time>
      </trkpt>
      <trkpt lat="42.559147" lon="-8.642134">
        <ele>91.533</ele>
        <time>2018-08-25T12:57:38Z</time>
      </trkpt>
      <trkpt lat="42.559190" lon="-8.642181">
        <ele>91.888</ele>
        <time>2018-08-25T12:57:40Z</time>
      </trkpt>
      <trkpt lat="42.559224" lon="-8.642229">
        <ele>92.032</ele>
        <time>2018-08-25T12:57:42Z</time>
      </trkpt>
      <trkpt lat="42.559262" lon="-8.642286">
        <ele>92.269</ele>
        <time>2018-08-25T12:57:44Z</time>
      </trkpt>
      <trkpt lat="42.559304" lon="-8.642348">
        <ele>92.527</ele>
        <time>2018-08-25T12:57:46Z</time>
      </trkpt>
      <trkpt lat="42.559351" lon="-8.642411">
        <ele>92.625</ele>
        <time>2018-08-25T12:57:48Z</time>
      </trkpt>
      <trkpt lat="42.559422" lon="-8.642506">
        <ele>92.625</ele>
        <time>2018-08-25T12:57:49Z</time>
      </trkpt>
      <trkpt lat="42.559477" lon="-8.642588">
        <ele>92.471</ele>
        <time>2018-08-25T12:57:51Z</time>
      </trkpt>
      <trkpt lat="42.559535" lon="-8.642670">
        <ele>92.241</ele>
        <time>2018-08-25T12:57:53Z</time>
      </trkpt>
      <trkpt lat="42.559566" lon="-8.642715">
        <ele>91.915</ele>
        <time>2018-08-25T12:57:55Z</time>
      </trkpt>
      <trkpt lat="42.559605" lon="-8.642767">
        <ele>91.508</ele>
        <time>2018-08-25T12:57:57Z</time>
      </trkpt>
      <trkpt lat="42.559646" lon="-8.642820">
        <ele>91.069</ele>
        <time>2018-08-25T12:57:59Z</time>
      </trkpt>
      <trkpt lat="42.559688" lon="-8.642874">
        <ele>90.435</ele>
        <time>2018-08-25T12:58:01Z</time>
      </trkpt>
      <trkpt lat="42.559733" lon="-8.642927">
        <ele>89.960</ele>
        <time>2018-08-25T12:58:03Z</time>
      </trkpt>
      <trkpt lat="42.559785" lon="-8.642979">
        <ele>89.634</ele>
        <time>2018-08-25T12:58:05Z</time>
      </trkpt>
      <trkpt lat="42.559842" lon="-8.643025">
        <ele>89.561</ele>
        <time>2018-08-25T12:58:07Z</time>
      </trkpt>
      <trkpt lat="42.559904" lon="-8.643063">
        <ele>89.339</ele>
        <time>2018-08-25T12:58:09Z</time>
      </trkpt>
      <trkpt lat="42.560000" lon="-8.643115">
        <ele>89.157</ele>
        <time>2018-08-25T12:58:10Z</time>
      </trkpt>
      <trkpt lat="42.560072" lon="-8.643144">
        <ele>89.067</ele>
        <time>2018-08-25T12:58:12Z</time>
      </trkpt>
      <trkpt lat="42.560149" lon="-8.643170">
        <ele>88.961</ele>
        <time>2018-08-25T12:58:14Z</time>
      </trkpt>
      <trkpt lat="42.560230" lon="-8.643190">
        <ele>88.921</ele>
        <time>2018-08-25T12:58:16Z</time>
      </trkpt>
      <trkpt lat="42.560298" lon="-8.643207">
        <ele>88.713</ele>
        <time>2018-08-25T12:58:19Z</time>
      </trkpt>
      <trkpt lat="42.560354" lon="-8.643221">
        <ele>88.508</ele>
        <time>2018-08-25T12:58:21Z</time>
      </trkpt>
      <trkpt lat="42.560441" lon="-8.643242">
        <ele>88.438</ele>
        <time>2018-08-25T12:58:22Z</time>
      </trkpt>
      <trkpt lat="42.560516" lon="-8.643261">
        <ele>88.294</ele>
        <time>2018-08-25T12:58:24Z</time>
      </trkpt>
      <trkpt lat="42.560593" lon="-8.643277">
        <ele>87.959</ele>
        <time>2018-08-25T12:58:26Z</time>
      </trkpt>
      <trkpt lat="42.560667" lon="-8.643291">
        <ele>87.773</ele>
        <time>2018-08-25T12:58:28Z</time>
      </trkpt>
      <trkpt lat="42.560723" lon="-8.643302">
        <ele>87.470</ele>
        <time>2018-08-25T12:58:30Z</time>
      </trkpt>
      <trkpt lat="42.560775" lon="-8.643314">
        <ele>87.268</ele>
        <time>2018-08-25T12:58:31Z</time>
      </trkpt>
      <trkpt lat="42.560849" lon="-8.643332">
        <ele>87.056</ele>
        <time>2018-08-25T12:58:33Z</time>
      </trkpt>
      <trkpt lat="42.560924" lon="-8.643351">
        <ele>86.836</ele>
        <time>2018-08-25T12:58:35Z</time>
      </trkpt>
      <trkpt lat="42.560997" lon="-8.643363">
        <ele>86.898</ele>
        <time>2018-08-25T12:58:37Z</time>
      </trkpt>
      <trkpt lat="42.561070" lon="-8.643378">
        <ele>86.815</ele>
        <time>2018-08-25T12:58:39Z</time>
      </trkpt>
      <trkpt lat="42.561142" lon="-8.643393">
        <ele>86.826</ele>
        <time>2018-08-25T12:58:41Z</time>
      </trkpt>
      <trkpt lat="42.561216" lon="-8.643407">
        <ele>86.908</ele>
        <time>2018-08-25T12:58:43Z</time>
      </trkpt>
      <trkpt lat="42.561291" lon="-8.643422">
        <ele>86.941</ele>
        <time>2018-08-25T12:58:45Z</time>
      </trkpt>
      <trkpt lat="42.561367" lon="-8.643430">
        <ele>86.947</ele>
        <time>2018-08-25T12:58:47Z</time>
      </trkpt>
      <trkpt lat="42.561443" lon="-8.643436">
        <ele>87.062</ele>
        <time>2018-08-25T12:58:49Z</time>
      </trkpt>
      <trkpt lat="42.561520" lon="-8.643443">
        <ele>87.196</ele>
        <time>2018-08-25T12:58:51Z</time>
      </trkpt>
      <trkpt lat="42.561603" lon="-8.643446">
        <ele>87.123</ele>
        <time>2018-08-25T12:58:53Z</time>
      </trkpt>
      <trkpt lat="42.561682" lon="-8.643444">
        <ele>87.061</ele>
        <time>2018-08-25T12:58:55Z</time>
      </trkpt>
      <trkpt lat="42.561751" lon="-8.643443">
        <ele>86.819</ele>
        <time>2018-08-25T12:58:58Z</time>
      </trkpt>
      <trkpt lat="42.561807" lon="-8.643443">
        <ele>86.779</ele>
        <time>2018-08-25T12:59:00Z</time>
      </trkpt>
      <trkpt lat="42.561874" lon="-8.643443">
        <ele>86.782</ele>
        <time>2018-08-25T12:59:02Z</time>
      </trkpt>
      <trkpt lat="42.561971" lon="-8.643437">
        <ele>86.743</ele>
        <time>2018-08-25T12:59:03Z</time>
      </trkpt>
      <trkpt lat="42.562046" lon="-8.643430">
        <ele>86.817</ele>
        <time>2018-08-25T12:59:05Z</time>
      </trkpt>
      <trkpt lat="42.562123" lon="-8.643424">
        <ele>86.808</ele>
        <time>2018-08-25T12:59:07Z</time>
      </trkpt>
      <trkpt lat="42.562199" lon="-8.643424">
        <ele>86.620</ele>
        <time>2018-08-25T12:59:09Z</time>
      </trkpt>
      <trkpt lat="42.562280" lon="-8.643421">
        <ele>86.336</ele>
        <time>2018-08-25T12:59:11Z</time>
      </trkpt>
      <trkpt lat="42.562361" lon="-8.643416">
        <ele>85.961</ele>
        <time>2018-08-25T12:59:13Z</time>
      </trkpt>
      <trkpt lat="42.562420" lon="-8.643413">
        <ele>85.565</ele>
        <time>2018-08-25T12:59:15Z</time>
      </trkpt>
      <trkpt lat="42.562472" lon="-8.643408">
        <ele>85.282</ele>
        <time>2018-08-25T12:59:17Z</time>
      </trkpt>
      <trkpt lat="42.562524" lon="-8.643398">
        <ele>85.210</ele>
        <time>2018-08-25T12:59:19Z</time>
      </trkpt>
      <trkpt lat="42.562577" lon="-8.643390">
        <ele>85.598</ele>
        <time>2018-08-25T12:59:21Z</time>
      </trkpt>
      <trkpt lat="42.562629" lon="-8.643384">
        <ele>85.938</ele>
        <time>2018-08-25T12:59:23Z</time>
      </trkpt>
      <trkpt lat="42.562686" lon="-8.643378">
        <ele>86.595</ele>
        <time>2018-08-25T12:59:25Z</time>
      </trkpt>
      <trkpt lat="42.562751" lon="-8.643374">
        <ele>86.949</ele>
        <time>2018-08-25T12:59:27Z</time>
      </trkpt>
      <trkpt lat="42.562824" lon="-8.643365">
        <ele>87.323</ele>
        <time>2018-08-25T12:59:29Z</time>
      </trkpt>
      <trkpt lat="42.562900" lon="-8.643357">
        <ele>87.708</ele>
        <time>2018-08-25T12:59:31Z</time>
      </trkpt>
      <trkpt lat="42.562974" lon="-8.643358">
        <ele>88.391</ele>
        <time>2018-08-25T12:59:33Z</time>
      </trkpt>
      <trkpt lat="42.563040" lon="-8.643357">
        <ele>88.077</ele>
        <time>2018-08-25T12:59:35Z</time>
      </trkpt>
      <trkpt lat="42.563113" lon="-8.643358">
        <ele>87.412</ele>
        <time>2018-08-25T12:59:37Z</time>
      </trkpt>
      <trkpt lat="42.563183" lon="-8.643364">
        <ele>86.736</ele>
        <time>2018-08-25T12:59:39Z</time>
      </trkpt>
      <trkpt lat="42.563245" lon="-8.643364">
        <ele>85.533</ele>
        <time>2018-08-25T12:59:41Z</time>
      </trkpt>
      <trkpt lat="42.563310" lon="-8.643359">
        <ele>84.431</ele>
        <time>2018-08-25T12:59:43Z</time>
      </trkpt>
      <trkpt lat="42.563388" lon="-8.643357">
        <ele>84.329</ele>
        <time>2018-08-25T12:59:45Z</time>
      </trkpt>
      <trkpt lat="42.563458" lon="-8.643358">
        <ele>83.879</ele>
        <time>2018-08-25T12:59:47Z</time>
      </trkpt>
      <trkpt lat="42.563515" lon="-8.643362">
        <ele>83.699</ele>
        <time>2018-08-25T12:59:49Z</time>
      </trkpt>
      <trkpt lat="42.563564" lon="-8.643348">
        <ele>83.907</ele>
        <time>2018-08-25T12:59:51Z</time>
      </trkpt>
      <trkpt lat="42.563601" lon="-8.643313">
        <ele>84.127</ele>
        <time>2018-08-25T12:59:53Z</time>
      </trkpt>
      <trkpt lat="42.563632" lon="-8.643266">
        <ele>84.508</ele>
        <time>2018-08-25T12:59:55Z</time>
      </trkpt>
      <trkpt lat="42.563665" lon="-8.643210">
        <ele>84.891</ele>
        <time>2018-08-25T12:59:57Z</time>
      </trkpt>
      <trkpt lat="42.563713" lon="-8.643126">
        <ele>85.097</ele>
        <time>2018-08-25T12:59:58Z</time>
      </trkpt>
      <trkpt lat="42.563760" lon="-8.643046">
        <ele>85.152</ele>
        <time>2018-08-25T13:00:00Z</time>
      </trkpt>
      <trkpt lat="42.563813" lon="-8.642966">
        <ele>85.336</ele>
        <time>2018-08-25T13:00:02Z</time>
      </trkpt>
      <trkpt lat="42.563851" lon="-8.642893">
        <ele>85.783</ele>
        <time>2018-08-25T13:00:05Z</time>
      </trkpt>
      <trkpt lat="42.563880" lon="-8.642836">
        <ele>85.851</ele>
        <time>2018-08-25T13:00:07Z</time>
      </trkpt>
      <trkpt lat="42.563918" lon="-8.642778">
        <ele>85.919</ele>
        <time>2018-08-25T13:00:09Z</time>
      </trkpt>
      <trkpt lat="42.563960" lon="-8.642720">
        <ele>85.939</ele>
        <time>2018-08-25T13:00:11Z</time>
      </trkpt>
      <trkpt lat="42.564007" lon="-8.642663">
        <ele>86.098</ele>
        <time>2018-08-25T13:00:13Z</time>
      </trkpt>
      <trkpt lat="42.564060" lon="-8.642608">
        <ele>85.915</ele>
        <time>2018-08-25T13:00:15Z</time>
      </trkpt>
      <trkpt lat="42.564114" lon="-8.642562">
        <ele>85.826</ele>
        <time>2018-08-25T13:00:17Z</time>
      </trkpt>
      <trkpt lat="42.564168" lon="-8.642522">
        <ele>85.708</ele>
        <time>2018-08-25T13:00:19Z</time>
      </trkpt>
      <trkpt lat="42.564225" lon="-8.642490">
        <ele>85.731</ele>
        <time>2018-08-25T13:00:21Z</time>
      </trkpt>
      <trkpt lat="42.564283" lon="-8.642464">
        <ele>85.777</ele>
        <time>2018-08-25T13:00:23Z</time>
      </trkpt>
      <trkpt lat="42.564340" lon="-8.642442">
        <ele>85.942</ele>
        <time>2018-08-25T13:00:25Z</time>
      </trkpt>
      <trkpt lat="42.564394" lon="-8.642422">
        <ele>86.396</ele>
        <time>2018-08-25T13:00:27Z</time>
      </trkpt>
      <trkpt lat="42.564445" lon="-8.642399">
        <ele>86.573</ele>
        <time>2018-08-25T13:00:29Z</time>
      </trkpt>
      <trkpt lat="42.564488" lon="-8.642376">
        <ele>86.421</ele>
        <time>2018-08-25T13:00:31Z</time>
      </trkpt>
      <trkpt lat="42.564534" lon="-8.642315">
        <ele>85.469</ele>
        <time>2018-08-25T13:00:34Z</time>
      </trkpt>
      <trkpt lat="42.564558" lon="-8.642259">
        <ele>85.299</ele>
        <time>2018-08-25T13:00:37Z</time>
      </trkpt>
      <trkpt lat="42.564574" lon="-8.642181">
        <ele>85.347</ele>
        <time>2018-08-25T13:00:40Z</time>
      </trkpt>
      <trkpt lat="42.564585" lon="-8.642121">
        <ele>85.429</ele>
        <time>2018-08-25T13:00:42Z</time>
      </trkpt>
      <trkpt lat="42.564599" lon="-8.642059">
        <ele>85.821</ele>
        <time>2018-08-25T13:00:44Z</time>
      </trkpt>
      <trkpt lat="42.564614" lon="-8.641991">
        <ele>86.308</ele>
        <time>2018-08-25T13:00:46Z</time>
      </trkpt>
      <trkpt lat="42.564639" lon="-8.641927">
        <ele>87.586</ele>
        <time>2018-08-25T13:00:48Z</time>
      </trkpt>
      <trkpt lat="42.564672" lon="-8.641876">
        <ele>88.662</ele>
        <time>2018-08-25T13:00:50Z</time>
      </trkpt>
      <trkpt lat="42.564713" lon="-8.641842">
        <ele>90.047</ele>
        <time>2018-08-25T13:00:52Z</time>
      </trkpt>
      <trkpt lat="42.564760" lon="-8.641821">
        <ele>91.081</ele>
        <time>2018-08-25T13:00:54Z</time>
      </trkpt>
      <trkpt lat="42.564813" lon="-8.641812">
        <ele>91.638</ele>
        <time>2018-08-25T13:00:56Z</time>
      </trkpt>
      <trkpt lat="42.564868" lon="-8.641807">
        <ele>92.156</ele>
        <time>2018-08-25T13:00:58Z</time>
      </trkpt>
      <trkpt lat="42.564927" lon="-8.641806">
        <ele>92.854</ele>
        <time>2018-08-25T13:01:00Z</time>
      </trkpt>
      <trkpt lat="42.564986" lon="-8.641807">
        <ele>93.574</ele>
        <time>2018-08-25T13:01:02Z</time>
      </trkpt>
      <trkpt lat="42.565043" lon="-8.641806">
        <ele>94.144</ele>
        <time>2018-08-25T13:01:04Z</time>
      </trkpt>
      <trkpt lat="42.565096" lon="-8.641805">
        <ele>94.905</ele>
        <time>2018-08-25T13:01:06Z</time>
      </trkpt>
      <trkpt lat="42.565161" lon="-8.641784">
        <ele>94.515</ele>
        <time>2018-08-25T13:01:09Z</time>
      </trkpt>
      <trkpt lat="42.565212" lon="-8.641767">
        <ele>93.708</ele>
        <time>2018-08-25T13:01:11Z</time>
      </trkpt>
      <trkpt lat="42.565277" lon="-8.641758">
        <ele>93.186</ele>
        <time>2018-08-25T13:01:13Z</time>
      </trkpt>
      <trkpt lat="42.565338" lon="-8.641750">
        <ele>92.592</ele>
        <time>2018-08-25T13:01:15Z</time>
      </trkpt>
      <trkpt lat="42.565401" lon="-8.641737">
        <ele>92.247</ele>
        <time>2018-08-25T13:01:17Z</time>
      </trkpt>
      <trkpt lat="42.565506" lon="-8.641707">
        <ele>92.071</ele>
        <time>2018-08-25T13:01:18Z</time>
      </trkpt>
      <trkpt lat="42.565570" lon="-8.641689">
        <ele>91.798</ele>
        <time>2018-08-25T13:01:20Z</time>
      </trkpt>
      <trkpt lat="42.565614" lon="-8.641671">
        <ele>91.046</ele>
        <time>2018-08-25T13:01:22Z</time>
      </trkpt>
      <trkpt lat="42.565660" lon="-8.641654">
        <ele>90.494</ele>
        <time>2018-08-25T13:01:24Z</time>
      </trkpt>
      <trkpt lat="42.565710" lon="-8.641627">
        <ele>89.884</ele>
        <time>2018-08-25T13:01:26Z</time>
      </trkpt>
      <trkpt lat="42.565774" lon="-8.641599">
        <ele>89.995</ele>
        <time>2018-08-25T13:01:28Z</time>
      </trkpt>
      <trkpt lat="42.565836" lon="-8.641561">
        <ele>89.649</ele>
        <time>2018-08-25T13:01:30Z</time>
      </trkpt>
      <trkpt lat="42.565884" lon="-8.641512">
        <ele>89.223</ele>
        <time>2018-08-25T13:01:32Z</time>
      </trkpt>
      <trkpt lat="42.565919" lon="-8.641469">
        <ele>89.108</ele>
        <time>2018-08-25T13:01:34Z</time>
      </trkpt>
      <trkpt lat="42.565948" lon="-8.641401">
        <ele>89.151</ele>
        <time>2018-08-25T13:01:37Z</time>
      </trkpt>
      <trkpt lat="42.565954" lon="-8.641340">
        <ele>88.957</ele>
        <time>2018-08-25T13:01:40Z</time>
      </trkpt>
      <trkpt lat="42.565944" lon="-8.641266">
        <ele>88.982</ele>
        <time>2018-08-25T13:01:44Z</time>
      </trkpt>
      <trkpt lat="42.565942" lon="-8.641186">
        <ele>88.976</ele>
        <time>2018-08-25T13:01:47Z</time>
      </trkpt>
      <trkpt lat="42.565959" lon="-8.641120">
        <ele>88.843</ele>
        <time>2018-08-25T13:01:49Z</time>
      </trkpt>
      <trkpt lat="42.566020" lon="-8.640979">
        <ele>88.821</ele>
        <time>2018-08-25T13:01:51Z</time>
      </trkpt>
      <trkpt lat="42.566071" lon="-8.640947">
        <ele>89.299</ele>
        <time>2018-08-25T13:01:53Z</time>
      </trkpt>
      <trkpt lat="42.566158" lon="-8.640943">
        <ele>89.469</ele>
        <time>2018-08-25T13:01:55Z</time>
      </trkpt>
      <trkpt lat="42.566200" lon="-8.640967">
        <ele>89.695</ele>
        <time>2018-08-25T13:01:56Z</time>
      </trkpt>
      <trkpt lat="42.566236" lon="-8.641010">
        <ele>89.949</ele>
        <time>2018-08-25T13:01:58Z</time>
      </trkpt>
      <trkpt lat="42.566278" lon="-8.641059">
        <ele>90.123</ele>
        <time>2018-08-25T13:02:00Z</time>
      </trkpt>
      <trkpt lat="42.566345" lon="-8.641119">
        <ele>90.108</ele>
        <time>2018-08-25T13:02:01Z</time>
      </trkpt>
      <trkpt lat="42.566418" lon="-8.641169">
        <ele>90.141</ele>
        <time>2018-08-25T13:02:03Z</time>
      </trkpt>
      <trkpt lat="42.566501" lon="-8.641196">
        <ele>90.257</ele>
        <time>2018-08-25T13:02:05Z</time>
      </trkpt>
      <trkpt lat="42.566586" lon="-8.641202">
        <ele>90.232</ele>
        <time>2018-08-25T13:02:07Z</time>
      </trkpt>
      <trkpt lat="42.566632" lon="-8.641203">
        <ele>90.236</ele>
        <time>2018-08-25T13:02:08Z</time>
      </trkpt>
      <trkpt lat="42.566679" lon="-8.641205">
        <ele>90.243</ele>
        <time>2018-08-25T13:02:09Z</time>
      </trkpt>
      <trkpt lat="42.566766" lon="-8.641208">
        <ele>90.351</ele>
        <time>2018-08-25T13:02:11Z</time>
      </trkpt>
      <trkpt lat="42.566853" lon="-8.641213">
        <ele>90.449</ele>
        <time>2018-08-25T13:02:13Z</time>
      </trkpt>
      <trkpt lat="42.566932" lon="-8.641210">
        <ele>90.619</ele>
        <time>2018-08-25T13:02:15Z</time>
      </trkpt>
      <trkpt lat="42.567007" lon="-8.641209">
        <ele>90.959</ele>
        <time>2018-08-25T13:02:17Z</time>
      </trkpt>
      <trkpt lat="42.567072" lon="-8.641217">
        <ele>91.203</ele>
        <time>2018-08-25T13:02:20Z</time>
      </trkpt>
      <trkpt lat="42.567124" lon="-8.641221">
        <ele>91.423</ele>
        <time>2018-08-25T13:02:22Z</time>
      </trkpt>
      <trkpt lat="42.567181" lon="-8.641221">
        <ele>91.608</ele>
        <time>2018-08-25T13:02:24Z</time>
      </trkpt>
      <trkpt lat="42.567246" lon="-8.641223">
        <ele>91.837</ele>
        <time>2018-08-25T13:02:26Z</time>
      </trkpt>
      <trkpt lat="42.567310" lon="-8.641227">
        <ele>92.013</ele>
        <time>2018-08-25T13:02:28Z</time>
      </trkpt>
      <trkpt lat="42.567372" lon="-8.641230">
        <ele>92.458</ele>
        <time>2018-08-25T13:02:30Z</time>
      </trkpt>
      <trkpt lat="42.567431" lon="-8.641235">
        <ele>92.832</ele>
        <time>2018-08-25T13:02:32Z</time>
      </trkpt>
      <trkpt lat="42.567490" lon="-8.641239">
        <ele>93.299</ele>
        <time>2018-08-25T13:02:34Z</time>
      </trkpt>
      <trkpt lat="42.567548" lon="-8.641243">
        <ele>93.597</ele>
        <time>2018-08-25T13:02:36Z</time>
      </trkpt>
      <trkpt lat="42.567608" lon="-8.641244">
        <ele>93.745</ele>
        <time>2018-08-25T13:02:38Z</time>
      </trkpt>
      <trkpt lat="42.567669" lon="-8.641247">
        <ele>93.865</ele>
        <time>2018-08-25T13:02:40Z</time>
      </trkpt>
      <trkpt lat="42.567728" lon="-8.641251">
        <ele>94.023</ele>
        <time>2018-08-25T13:02:42Z</time>
      </trkpt>
      <trkpt lat="42.567782" lon="-8.641255">
        <ele>94.183</ele>
        <time>2018-08-25T13:02:44Z</time>
      </trkpt>
      <trkpt lat="42.567832" lon="-8.641254">
        <ele>94.211</ele>
        <time>2018-08-25T13:02:46Z</time>
      </trkpt>
      <trkpt lat="42.567881" lon="-8.641254">
        <ele>94.308</ele>
        <time>2018-08-25T13:02:48Z</time>
      </trkpt>
      <trkpt lat="42.567929" lon="-8.641259">
        <ele>94.544</ele>
        <time>2018-08-25T13:02:50Z</time>
      </trkpt>
      <trkpt lat="42.567977" lon="-8.641265">
        <ele>94.770</ele>
        <time>2018-08-25T13:02:52Z</time>
      </trkpt>
      <trkpt lat="42.568027" lon="-8.641269">
        <ele>94.995</ele>
        <time>2018-08-25T13:02:54Z</time>
      </trkpt>
      <trkpt lat="42.568077" lon="-8.641276">
        <ele>95.259</ele>
        <time>2018-08-25T13:02:56Z</time>
      </trkpt>
      <trkpt lat="42.568126" lon="-8.641282">
        <ele>95.586</ele>
        <time>2018-08-25T13:02:58Z</time>
      </trkpt>
      <trkpt lat="42.568174" lon="-8.641289">
        <ele>95.944</ele>
        <time>2018-08-25T13:03:00Z</time>
      </trkpt>
      <trkpt lat="42.568222" lon="-8.641295">
        <ele>96.272</ele>
        <time>2018-08-25T13:03:02Z</time>
      </trkpt>
      <trkpt lat="42.568270" lon="-8.641299">
        <ele>96.442</ele>
        <time>2018-08-25T13:03:04Z</time>
      </trkpt>
      <trkpt lat="42.568317" lon="-8.641303">
        <ele>96.674</ele>
        <time>2018-08-25T13:03:06Z</time>
      </trkpt>
      <trkpt lat="42.568366" lon="-8.641304">
        <ele>96.756</ele>
        <time>2018-08-25T13:03:08Z</time>
      </trkpt>
      <trkpt lat="42.568415" lon="-8.641307">
        <ele>97.021</ele>
        <time>2018-08-25T13:03:10Z</time>
      </trkpt>
      <trkpt lat="42.568465" lon="-8.641313">
        <ele>97.208</ele>
        <time>2018-08-25T13:03:12Z</time>
      </trkpt>
      <trkpt lat="42.568516" lon="-8.641319">
        <ele>97.579</ele>
        <time>2018-08-25T13:03:14Z</time>
      </trkpt>
      <trkpt lat="42.568566" lon="-8.641327">
        <ele>97.935</ele>
        <time>2018-08-25T13:03:16Z</time>
      </trkpt>
      <trkpt lat="42.568614" lon="-8.641335">
        <ele>98.470</ele>
        <time>2018-08-25T13:03:18Z</time>
      </trkpt>
      <trkpt lat="42.568664" lon="-8.641342">
        <ele>98.954</ele>
        <time>2018-08-25T13:03:20Z</time>
      </trkpt>
      <trkpt lat="42.568718" lon="-8.641350">
        <ele>99.331</ele>
        <time>2018-08-25T13:03:22Z</time>
      </trkpt>
      <trkpt lat="42.568774" lon="-8.641359">
        <ele>99.779</ele>
        <time>2018-08-25T13:03:24Z</time>
      </trkpt>
      <trkpt lat="42.568826" lon="-8.641369">
        <ele>100.217</ele>
        <time>2018-08-25T13:03:26Z</time>
      </trkpt>
      <trkpt lat="42.568878" lon="-8.641377">
        <ele>100.777</ele>
        <time>2018-08-25T13:03:28Z</time>
      </trkpt>
      <trkpt lat="42.568935" lon="-8.641386">
        <ele>101.178</ele>
        <time>2018-08-25T13:03:30Z</time>
      </trkpt>
      <trkpt lat="42.568999" lon="-8.641395">
        <ele>101.533</ele>
        <time>2018-08-25T13:03:32Z</time>
      </trkpt>
      <trkpt lat="42.569062" lon="-8.641402">
        <ele>101.726</ele>
        <time>2018-08-25T13:03:34Z</time>
      </trkpt>
      <trkpt lat="42.569124" lon="-8.641409">
        <ele>101.908</ele>
        <time>2018-08-25T13:03:36Z</time>
      </trkpt>
      <trkpt lat="42.569185" lon="-8.641414">
        <ele>102.169</ele>
        <time>2018-08-25T13:03:38Z</time>
      </trkpt>
      <trkpt lat="42.569248" lon="-8.641417">
        <ele>102.385</ele>
        <time>2018-08-25T13:03:40Z</time>
      </trkpt>
      <trkpt lat="42.569314" lon="-8.641416">
        <ele>102.590</ele>
        <time>2018-08-25T13:03:42Z</time>
      </trkpt>
      <trkpt lat="42.569386" lon="-8.641416">
        <ele>102.654</ele>
        <time>2018-08-25T13:03:44Z</time>
      </trkpt>
      <trkpt lat="42.569460" lon="-8.641417">
        <ele>102.871</ele>
        <time>2018-08-25T13:03:46Z</time>
      </trkpt>
      <trkpt lat="42.569528" lon="-8.641418">
        <ele>103.199</ele>
        <time>2018-08-25T13:03:48Z</time>
      </trkpt>
      <trkpt lat="42.569594" lon="-8.641418">
        <ele>103.017</ele>
        <time>2018-08-25T13:03:50Z</time>
      </trkpt>
      <trkpt lat="42.569656" lon="-8.641418">
        <ele>103.127</ele>
        <time>2018-08-25T13:03:52Z</time>
      </trkpt>
      <trkpt lat="42.569723" lon="-8.641420">
        <ele>102.682</ele>
        <time>2018-08-25T13:03:54Z</time>
      </trkpt>
      <trkpt lat="42.569826" lon="-8.641429">
        <ele>102.443</ele>
        <time>2018-08-25T13:03:55Z</time>
      </trkpt>
      <trkpt lat="42.569889" lon="-8.641439">
        <ele>102.217</ele>
        <time>2018-08-25T13:03:57Z</time>
      </trkpt>
      <trkpt lat="42.569946" lon="-8.641449">
        <ele>101.908</ele>
        <time>2018-08-25T13:03:59Z</time>
      </trkpt>
      <trkpt lat="42.570028" lon="-8.641460">
        <ele>102.120</ele>
        <time>2018-08-25T13:04:00Z</time>
      </trkpt>
      <trkpt lat="42.570079" lon="-8.641465">
        <ele>101.536</ele>
        <time>2018-08-25T13:04:02Z</time>
      </trkpt>
      <trkpt lat="42.570135" lon="-8.641473">
        <ele>100.681</ele>
        <time>2018-08-25T13:04:04Z</time>
      </trkpt>
      <trkpt lat="42.570196" lon="-8.641482">
        <ele>99.035</ele>
        <time>2018-08-25T13:04:06Z</time>
      </trkpt>
      <trkpt lat="42.570252" lon="-8.641489">
        <ele>98.282</ele>
        <time>2018-08-25T13:04:08Z</time>
      </trkpt>
      <trkpt lat="42.570306" lon="-8.641488">
        <ele>97.720</ele>
        <time>2018-08-25T13:04:10Z</time>
      </trkpt>
      <trkpt lat="42.570367" lon="-8.641485">
        <ele>97.368</ele>
        <time>2018-08-25T13:04:12Z</time>
      </trkpt>
      <trkpt lat="42.570426" lon="-8.641483">
        <ele>96.948</ele>
        <time>2018-08-25T13:04:14Z</time>
      </trkpt>
      <trkpt lat="42.570475" lon="-8.641477">
        <ele>96.582</ele>
        <time>2018-08-25T13:04:16Z</time>
      </trkpt>
      <trkpt lat="42.570529" lon="-8.641473">
        <ele>96.143</ele>
        <time>2018-08-25T13:04:19Z</time>
      </trkpt>
      <trkpt lat="42.570579" lon="-8.641473">
        <ele>95.817</ele>
        <time>2018-08-25T13:04:22Z</time>
      </trkpt>
      <trkpt lat="42.570624" lon="-8.641486">
        <ele>95.908</ele>
        <time>2018-08-25T13:04:25Z</time>
      </trkpt>
      <trkpt lat="42.570646" lon="-8.641569">
        <ele>95.550</ele>
        <time>2018-08-25T13:04:28Z</time>
      </trkpt>
      <trkpt lat="42.570634" lon="-8.641642">
        <ele>95.296</ele>
        <time>2018-08-25T13:04:30Z</time>
      </trkpt>
      <trkpt lat="42.570610" lon="-8.641717">
        <ele>94.561</ele>
        <time>2018-08-25T13:04:32Z</time>
      </trkpt>
      <trkpt lat="42.570581" lon="-8.641789">
        <ele>93.995</ele>
        <time>2018-08-25T13:04:34Z</time>
      </trkpt>
      <trkpt lat="42.570558" lon="-8.641847">
        <ele>93.282</ele>
        <time>2018-08-25T13:04:36Z</time>
      </trkpt>
      <trkpt lat="42.570548" lon="-8.641907">
        <ele>92.440</ele>
        <time>2018-08-25T13:04:39Z</time>
      </trkpt>
      <trkpt lat="42.570560" lon="-8.641970">
        <ele>91.658</ele>
        <time>2018-08-25T13:04:42Z</time>
      </trkpt>
      <trkpt lat="42.570574" lon="-8.642045">
        <ele>90.578</ele>
        <time>2018-08-25T13:04:45Z</time>
      </trkpt>
      <trkpt lat="42.570591" lon="-8.642107">
        <ele>89.632</ele>
        <time>2018-08-25T13:04:47Z</time>
      </trkpt>
      <trkpt lat="42.570606" lon="-8.642175">
        <ele>88.592</ele>
        <time>2018-08-25T13:04:49Z</time>
      </trkpt>
      <trkpt lat="42.570615" lon="-8.642251">
        <ele>87.311</ele>
        <time>2018-08-25T13:04:51Z</time>
      </trkpt>
      <trkpt lat="42.570631" lon="-8.642319">
        <ele>86.308</ele>
        <time>2018-08-25T13:04:53Z</time>
      </trkpt>
      <trkpt lat="42.570670" lon="-8.642402">
        <ele>85.645</ele>
        <time>2018-08-25T13:04:54Z</time>
      </trkpt>
      <trkpt lat="42.570755" lon="-8.642469">
        <ele>84.941</ele>
        <time>2018-08-25T13:04:57Z</time>
      </trkpt>
      <trkpt lat="42.570840" lon="-8.642517">
        <ele>84.426</ele>
        <time>2018-08-25T13:04:59Z</time>
      </trkpt>
      <trkpt lat="42.570897" lon="-8.642538">
        <ele>84.030</ele>
        <time>2018-08-25T13:05:00Z</time>
      </trkpt>
      <trkpt lat="42.570960" lon="-8.642563">
        <ele>83.737</ele>
        <time>2018-08-25T13:05:01Z</time>
      </trkpt>
      <trkpt lat="42.571027" lon="-8.642583">
        <ele>83.575</ele>
        <time>2018-08-25T13:05:02Z</time>
      </trkpt>
      <trkpt lat="42.571094" lon="-8.642607">
        <ele>83.343</ele>
        <time>2018-08-25T13:05:03Z</time>
      </trkpt>
      <trkpt lat="42.571164" lon="-8.642630">
        <ele>83.253</ele>
        <time>2018-08-25T13:05:04Z</time>
      </trkpt>
      <trkpt lat="42.571234" lon="-8.642654">
        <ele>83.129</ele>
        <time>2018-08-25T13:05:05Z</time>
      </trkpt>
      <trkpt lat="42.571300" lon="-8.642674">
        <ele>83.000</ele>
        <time>2018-08-25T13:05:06Z</time>
      </trkpt>
      <trkpt lat="42.571360" lon="-8.642693">
        <ele>82.920</ele>
        <time>2018-08-25T13:05:07Z</time>
      </trkpt>
      <trkpt lat="42.571413" lon="-8.642713">
        <ele>82.808</ele>
        <time>2018-08-25T13:05:08Z</time>
      </trkpt>
      <trkpt lat="42.571460" lon="-8.642728">
        <ele>82.894</ele>
        <time>2018-08-25T13:05:09Z</time>
      </trkpt>
      <trkpt lat="42.571519" lon="-8.642749">
        <ele>82.670</ele>
        <time>2018-08-25T13:05:11Z</time>
      </trkpt>
      <trkpt lat="42.571571" lon="-8.642769">
        <ele>82.445</ele>
        <time>2018-08-25T13:05:12Z</time>
      </trkpt>
      <trkpt lat="42.571646" lon="-8.642801">
        <ele>82.289</ele>
        <time>2018-08-25T13:05:14Z</time>
      </trkpt>
      <trkpt lat="42.571736" lon="-8.642822">
        <ele>82.416</ele>
        <time>2018-08-25T13:05:16Z</time>
      </trkpt>
      <trkpt lat="42.571787" lon="-8.642840">
        <ele>82.584</ele>
        <time>2018-08-25T13:05:17Z</time>
      </trkpt>
      <trkpt lat="42.571836" lon="-8.642871">
        <ele>81.632</ele>
        <time>2018-08-25T13:05:18Z</time>
      </trkpt>
      <trkpt lat="42.571888" lon="-8.642904">
        <ele>80.642</ele>
        <time>2018-08-25T13:05:19Z</time>
      </trkpt>
      <trkpt lat="42.571937" lon="-8.642940">
        <ele>80.286</ele>
        <time>2018-08-25T13:05:20Z</time>
      </trkpt>
      <trkpt lat="42.571985" lon="-8.642972">
        <ele>79.760</ele>
        <time>2018-08-25T13:05:21Z</time>
      </trkpt>
      <trkpt lat="42.572033" lon="-8.642994">
        <ele>79.126</ele>
        <time>2018-08-25T13:05:22Z</time>
      </trkpt>
      <trkpt lat="42.572082" lon="-8.643009">
        <ele>78.508</ele>
        <time>2018-08-25T13:05:23Z</time>
      </trkpt>
      <trkpt lat="42.572132" lon="-8.643020">
        <ele>78.140</ele>
        <time>2018-08-25T13:05:24Z</time>
      </trkpt>
      <trkpt lat="42.572181" lon="-8.643027">
        <ele>77.946</ele>
        <time>2018-08-25T13:05:25Z</time>
      </trkpt>
      <trkpt lat="42.572231" lon="-8.643030">
        <ele>77.811</ele>
        <time>2018-08-25T13:05:26Z</time>
      </trkpt>
      <trkpt lat="42.572279" lon="-8.643031">
        <ele>77.775</ele>
        <time>2018-08-25T13:05:27Z</time>
      </trkpt>
      <trkpt lat="42.572327" lon="-8.643023">
        <ele>77.772</ele>
        <time>2018-08-25T13:05:28Z</time>
      </trkpt>
      <trkpt lat="42.572374" lon="-8.643005">
        <ele>77.860</ele>
        <time>2018-08-25T13:05:29Z</time>
      </trkpt>
      <trkpt lat="42.572421" lon="-8.642989">
        <ele>77.838</ele>
        <time>2018-08-25T13:05:30Z</time>
      </trkpt>
      <trkpt lat="42.572468" lon="-8.642983">
        <ele>77.618</ele>
        <time>2018-08-25T13:05:31Z</time>
      </trkpt>
      <trkpt lat="42.572514" lon="-8.642981">
        <ele>77.559</ele>
        <time>2018-08-25T13:05:32Z</time>
      </trkpt>
      <trkpt lat="42.572599" lon="-8.642992">
        <ele>77.503</ele>
        <time>2018-08-25T13:05:34Z</time>
      </trkpt>
      <trkpt lat="42.572680" lon="-8.643013">
        <ele>77.323</ele>
        <time>2018-08-25T13:05:36Z</time>
      </trkpt>
      <trkpt lat="42.572754" lon="-8.643035">
        <ele>77.008</ele>
        <time>2018-08-25T13:05:38Z</time>
      </trkpt>
      <trkpt lat="42.572826" lon="-8.643058">
        <ele>76.727</ele>
        <time>2018-08-25T13:05:40Z</time>
      </trkpt>
      <trkpt lat="42.572904" lon="-8.643074">
        <ele>76.633</ele>
        <time>2018-08-25T13:05:42Z</time>
      </trkpt>
      <trkpt lat="42.572984" lon="-8.643087">
        <ele>76.448</ele>
        <time>2018-08-25T13:05:44Z</time>
      </trkpt>
      <trkpt lat="42.573063" lon="-8.643101">
        <ele>76.252</ele>
        <time>2018-08-25T13:05:46Z</time>
      </trkpt>
      <trkpt lat="42.573140" lon="-8.643110">
        <ele>76.199</ele>
        <time>2018-08-25T13:05:48Z</time>
      </trkpt>
      <trkpt lat="42.573198" lon="-8.643120">
        <ele>76.197</ele>
        <time>2018-08-25T13:05:50Z</time>
      </trkpt>
      <trkpt lat="42.573252" lon="-8.643130">
        <ele>76.195</ele>
        <time>2018-08-25T13:05:51Z</time>
      </trkpt>
      <trkpt lat="42.573332" lon="-8.643138">
        <ele>76.125</ele>
        <time>2018-08-25T13:05:53Z</time>
      </trkpt>
      <trkpt lat="42.573413" lon="-8.643146">
        <ele>76.143</ele>
        <time>2018-08-25T13:05:55Z</time>
      </trkpt>
      <trkpt lat="42.573493" lon="-8.643153">
        <ele>76.264</ele>
        <time>2018-08-25T13:05:57Z</time>
      </trkpt>
      <trkpt lat="42.573553" lon="-8.643161">
        <ele>76.210</ele>
        <time>2018-08-25T13:05:59Z</time>
      </trkpt>
      <trkpt lat="42.573601" lon="-8.643162">
        <ele>75.908</ele>
        <time>2018-08-25T13:06:01Z</time>
      </trkpt>
      <trkpt lat="42.573651" lon="-8.643160">
        <ele>75.786</ele>
        <time>2018-08-25T13:06:03Z</time>
      </trkpt>
      <trkpt lat="42.573700" lon="-8.643161">
        <ele>75.732</ele>
        <time>2018-08-25T13:06:05Z</time>
      </trkpt>
      <trkpt lat="42.573748" lon="-8.643169">
        <ele>76.377</ele>
        <time>2018-08-25T13:06:07Z</time>
      </trkpt>
      <trkpt lat="42.573832" lon="-8.643188">
        <ele>77.061</ele>
        <time>2018-08-25T13:06:08Z</time>
      </trkpt>
      <trkpt lat="42.573913" lon="-8.643222">
        <ele>77.488</ele>
        <time>2018-08-25T13:06:10Z</time>
      </trkpt>
      <trkpt lat="42.573989" lon="-8.643264">
        <ele>77.466</ele>
        <time>2018-08-25T13:06:12Z</time>
      </trkpt>
      <trkpt lat="42.574054" lon="-8.643297">
        <ele>77.474</ele>
        <time>2018-08-25T13:06:15Z</time>
      </trkpt>
      <trkpt lat="42.574163" lon="-8.643346">
        <ele>77.434</ele>
        <time>2018-08-25T13:06:17Z</time>
      </trkpt>
      <trkpt lat="42.574237" lon="-8.643366">
        <ele>77.549</ele>
        <time>2018-08-25T13:06:19Z</time>
      </trkpt>
      <trkpt lat="42.574315" lon="-8.643376">
        <ele>77.502</ele>
        <time>2018-08-25T13:06:21Z</time>
      </trkpt>
      <trkpt lat="42.574391" lon="-8.643369">
        <ele>77.422</ele>
        <time>2018-08-25T13:06:23Z</time>
      </trkpt>
      <trkpt lat="42.574447" lon="-8.643356">
        <ele>77.108</ele>
        <time>2018-08-25T13:06:25Z</time>
      </trkpt>
      <trkpt lat="42.574496" lon="-8.643342">
        <ele>76.646</ele>
        <time>2018-08-25T13:06:27Z</time>
      </trkpt>
      <trkpt lat="42.574554" lon="-8.643324">
        <ele>76.152</ele>
        <time>2018-08-25T13:06:29Z</time>
      </trkpt>
      <trkpt lat="42.574617" lon="-8.643298">
        <ele>75.987</ele>
        <time>2018-08-25T13:06:31Z</time>
      </trkpt>
      <trkpt lat="42.574679" lon="-8.643279">
        <ele>76.141</ele>
        <time>2018-08-25T13:06:33Z</time>
      </trkpt>
      <trkpt lat="42.574799" lon="-8.643234">
        <ele>76.788</ele>
        <time>2018-08-25T13:06:35Z</time>
      </trkpt>
      <trkpt lat="42.574864" lon="-8.643209">
        <ele>77.396</ele>
        <time>2018-08-25T13:06:38Z</time>
      </trkpt>
      <trkpt lat="42.574918" lon="-8.643199">
        <ele>77.674</ele>
        <time>2018-08-25T13:06:40Z</time>
      </trkpt>
      <trkpt lat="42.575037" lon="-8.643189">
        <ele>78.094</ele>
        <time>2018-08-25T13:06:42Z</time>
      </trkpt>
      <trkpt lat="42.575095" lon="-8.643188">
        <ele>78.721</ele>
        <time>2018-08-25T13:06:44Z</time>
      </trkpt>
      <trkpt lat="42.575148" lon="-8.643191">
        <ele>79.441</ele>
        <time>2018-08-25T13:06:45Z</time>
      </trkpt>
      <trkpt lat="42.575218" lon="-8.643182">
        <ele>79.905</ele>
        <time>2018-08-25T13:06:48Z</time>
      </trkpt>
      <trkpt lat="42.575295" lon="-8.643153">
        <ele>80.108</ele>
        <time>2018-08-25T13:06:49Z</time>
      </trkpt>
      <trkpt lat="42.575368" lon="-8.643119">
        <ele>80.744</ele>
        <time>2018-08-25T13:06:51Z</time>
      </trkpt>
      <trkpt lat="42.575432" lon="-8.643109">
        <ele>80.750</ele>
        <time>2018-08-25T13:06:53Z</time>
      </trkpt>
      <trkpt lat="42.575495" lon="-8.643104">
        <ele>80.475</ele>
        <time>2018-08-25T13:06:54Z</time>
      </trkpt>
      <trkpt lat="42.575576" lon="-8.643114">
        <ele>80.399</ele>
        <time>2018-08-25T13:06:56Z</time>
      </trkpt>
      <trkpt lat="42.575659" lon="-8.643126">
        <ele>80.296</ele>
        <time>2018-08-25T13:06:58Z</time>
      </trkpt>
      <trkpt lat="42.575704" lon="-8.643138">
        <ele>80.224</ele>
        <time>2018-08-25T13:07:00Z</time>
      </trkpt>
      <trkpt lat="42.575755" lon="-8.643151">
        <ele>80.022</ele>
        <time>2018-08-25T13:07:02Z</time>
      </trkpt>
      <trkpt lat="42.575864" lon="-8.643176">
        <ele>79.882</ele>
        <time>2018-08-25T13:07:04Z</time>
      </trkpt>
      <trkpt lat="42.575931" lon="-8.643191">
        <ele>79.849</ele>
        <time>2018-08-25T13:07:07Z</time>
      </trkpt>
      <trkpt lat="42.575985" lon="-8.643197">
        <ele>79.902</ele>
        <time>2018-08-25T13:07:09Z</time>
      </trkpt>
      <trkpt lat="42.576043" lon="-8.643197">
        <ele>80.122</ele>
        <time>2018-08-25T13:07:11Z</time>
      </trkpt>
      <trkpt lat="42.576104" lon="-8.643194">
        <ele>80.108</ele>
        <time>2018-08-25T13:07:13Z</time>
      </trkpt>
      <trkpt lat="42.576168" lon="-8.643187">
        <ele>79.776</ele>
        <time>2018-08-25T13:07:15Z</time>
      </trkpt>
      <trkpt lat="42.576231" lon="-8.643177">
        <ele>79.172</ele>
        <time>2018-08-25T13:07:17Z</time>
      </trkpt>
      <trkpt lat="42.576298" lon="-8.643170">
        <ele>78.787</ele>
        <time>2018-08-25T13:07:19Z</time>
      </trkpt>
      <trkpt lat="42.576366" lon="-8.643164">
        <ele>79.161</ele>
        <time>2018-08-25T13:07:21Z</time>
      </trkpt>
      <trkpt lat="42.576504" lon="-8.643152">
        <ele>79.868</ele>
        <time>2018-08-25T13:07:23Z</time>
      </trkpt>
      <trkpt lat="42.576562" lon="-8.643145">
        <ele>80.576</ele>
        <time>2018-08-25T13:07:25Z</time>
      </trkpt>
      <trkpt lat="42.576613" lon="-8.643135">
        <ele>81.024</ele>
        <time>2018-08-25T13:07:27Z</time>
      </trkpt>
      <trkpt lat="42.576670" lon="-8.643122">
        <ele>81.394</ele>
        <time>2018-08-25T13:07:29Z</time>
      </trkpt>
      <trkpt lat="42.576730" lon="-8.643107">
        <ele>81.473</ele>
        <time>2018-08-25T13:07:31Z</time>
      </trkpt>
      <trkpt lat="42.576795" lon="-8.643100">
        <ele>82.585</ele>
        <time>2018-08-25T13:07:33Z</time>
      </trkpt>
      <trkpt lat="42.576854" lon="-8.643105">
        <ele>84.913</ele>
        <time>2018-08-25T13:07:35Z</time>
      </trkpt>
      <trkpt lat="42.576909" lon="-8.643121">
        <ele>87.108</ele>
        <time>2018-08-25T13:07:37Z</time>
      </trkpt>
      <trkpt lat="42.576998" lon="-8.643154">
        <ele>88.719</ele>
        <time>2018-08-25T13:07:38Z</time>
      </trkpt>
      <trkpt lat="42.577080" lon="-8.643187">
        <ele>89.725</ele>
        <time>2018-08-25T13:07:40Z</time>
      </trkpt>
      <trkpt lat="42.577170" lon="-8.643205">
        <ele>89.710</ele>
        <time>2018-08-25T13:07:42Z</time>
      </trkpt>
      <trkpt lat="42.577215" lon="-8.643211">
        <ele>89.434</ele>
        <time>2018-08-25T13:07:43Z</time>
      </trkpt>
      <trkpt lat="42.577260" lon="-8.643216">
        <ele>88.911</ele>
        <time>2018-08-25T13:07:44Z</time>
      </trkpt>
      <trkpt lat="42.577308" lon="-8.643216">
        <ele>88.499</ele>
        <time>2018-08-25T13:07:46Z</time>
      </trkpt>
      <trkpt lat="42.577361" lon="-8.643214">
        <ele>88.357</ele>
        <time>2018-08-25T13:07:48Z</time>
      </trkpt>
      <trkpt lat="42.577418" lon="-8.643218">
        <ele>88.317</ele>
        <time>2018-08-25T13:07:50Z</time>
      </trkpt>
      <trkpt lat="42.577476" lon="-8.643226">
        <ele>88.442</ele>
        <time>2018-08-25T13:07:52Z</time>
      </trkpt>
      <trkpt lat="42.577539" lon="-8.643235">
        <ele>88.522</ele>
        <time>2018-08-25T13:07:54Z</time>
      </trkpt>
      <trkpt lat="42.577673" lon="-8.643251">
        <ele>88.414</ele>
        <time>2018-08-25T13:07:56Z</time>
      </trkpt>
      <trkpt lat="42.577763" lon="-8.643269">
        <ele>88.208</ele>
        <time>2018-08-25T13:07:58Z</time>
      </trkpt>
      <trkpt lat="42.577808" lon="-8.643274">
        <ele>88.036</ele>
        <time>2018-08-25T13:07:59Z</time>
      </trkpt>
      <trkpt lat="42.577871" lon="-8.643288">
        <ele>87.812</ele>
        <time>2018-08-25T13:08:01Z</time>
      </trkpt>
      <trkpt lat="42.577922" lon="-8.643292">
        <ele>87.677</ele>
        <time>2018-08-25T13:08:03Z</time>
      </trkpt>
      <trkpt lat="42.577978" lon="-8.643293">
        <ele>87.461</ele>
        <time>2018-08-25T13:08:05Z</time>
      </trkpt>
      <trkpt lat="42.578036" lon="-8.643296">
        <ele>87.228</ele>
        <time>2018-08-25T13:08:07Z</time>
      </trkpt>
      <trkpt lat="42.578102" lon="-8.643298">
        <ele>86.796</ele>
        <time>2018-08-25T13:08:09Z</time>
      </trkpt>
      <trkpt lat="42.578235" lon="-8.643302">
        <ele>86.474</ele>
        <time>2018-08-25T13:08:11Z</time>
      </trkpt>
      <trkpt lat="42.578280" lon="-8.643303">
        <ele>86.184</ele>
        <time>2018-08-25T13:08:13Z</time>
      </trkpt>
      <trkpt lat="42.578350" lon="-8.643302">
        <ele>85.836</ele>
        <time>2018-08-25T13:08:14Z</time>
      </trkpt>
      <trkpt lat="42.578429" lon="-8.643306">
        <ele>85.417</ele>
        <time>2018-08-25T13:08:16Z</time>
      </trkpt>
      <trkpt lat="42.578476" lon="-8.643305">
        <ele>85.018</ele>
        <time>2018-08-25T13:08:18Z</time>
      </trkpt>
      <trkpt lat="42.578546" lon="-8.643306">
        <ele>84.708</ele>
        <time>2018-08-25T13:08:19Z</time>
      </trkpt>
      <trkpt lat="42.578625" lon="-8.643303">
        <ele>84.525</ele>
        <time>2018-08-25T13:08:21Z</time>
      </trkpt>
      <trkpt lat="42.578703" lon="-8.643296">
        <ele>84.431</ele>
        <time>2018-08-25T13:08:23Z</time>
      </trkpt>
      <trkpt lat="42.578780" lon="-8.643295">
        <ele>84.596</ele>
        <time>2018-08-25T13:08:25Z</time>
      </trkpt>
      <trkpt lat="42.578849" lon="-8.643295">
        <ele>84.530</ele>
        <time>2018-08-25T13:08:28Z</time>
      </trkpt>
      <trkpt lat="42.578905" lon="-8.643293">
        <ele>84.517</ele>
        <time>2018-08-25T13:08:30Z</time>
      </trkpt>
      <trkpt lat="42.578964" lon="-8.643292">
        <ele>84.575</ele>
        <time>2018-08-25T13:08:32Z</time>
      </trkpt>
      <trkpt lat="42.579096" lon="-8.643284">
        <ele>84.623</ele>
        <time>2018-08-25T13:08:34Z</time>
      </trkpt>
      <trkpt lat="42.579155" lon="-8.643283">
        <ele>84.643</ele>
        <time>2018-08-25T13:08:36Z</time>
      </trkpt>
      <trkpt lat="42.579247" lon="-8.643279">
        <ele>84.835</ele>
        <time>2018-08-25T13:08:38Z</time>
      </trkpt>
      <trkpt lat="42.579359" lon="-8.643274">
        <ele>85.086</ele>
        <time>2018-08-25T13:08:41Z</time>
      </trkpt>
      <trkpt lat="42.579430" lon="-8.643272">
        <ele>85.214</ele>
        <time>2018-08-25T13:08:44Z</time>
      </trkpt>
      <trkpt lat="42.579487" lon="-8.643271">
        <ele>85.408</ele>
        <time>2018-08-25T13:08:46Z</time>
      </trkpt>
      <trkpt lat="42.579546" lon="-8.643271">
        <ele>85.595</ele>
        <time>2018-08-25T13:08:48Z</time>
      </trkpt>
      <trkpt lat="42.579607" lon="-8.643271">
        <ele>85.581</ele>
        <time>2018-08-25T13:08:50Z</time>
      </trkpt>
      <trkpt lat="42.579669" lon="-8.643268">
        <ele>85.146</ele>
        <time>2018-08-25T13:08:52Z</time>
      </trkpt>
      <trkpt lat="42.579729" lon="-8.643263">
        <ele>84.520</ele>
        <time>2018-08-25T13:08:54Z</time>
      </trkpt>
      <trkpt lat="42.579786" lon="-8.643259">
        <ele>84.087</ele>
        <time>2018-08-25T13:08:56Z</time>
      </trkpt>
      <trkpt lat="42.579840" lon="-8.643256">
        <ele>83.755</ele>
        <time>2018-08-25T13:08:58Z</time>
      </trkpt>
      <trkpt lat="42.579890" lon="-8.643257">
        <ele>83.633</ele>
        <time>2018-08-25T13:09:00Z</time>
      </trkpt>
      <trkpt lat="42.579941" lon="-8.643262">
        <ele>83.823</ele>
        <time>2018-08-25T13:09:02Z</time>
      </trkpt>
      <trkpt lat="42.579996" lon="-8.643273">
        <ele>84.352</ele>
        <time>2018-08-25T13:09:04Z</time>
      </trkpt>
      <trkpt lat="42.580054" lon="-8.643289">
        <ele>85.053</ele>
        <time>2018-08-25T13:09:06Z</time>
      </trkpt>
      <trkpt lat="42.580113" lon="-8.643305">
        <ele>85.908</ele>
        <time>2018-08-25T13:09:08Z</time>
      </trkpt>
      <trkpt lat="42.580174" lon="-8.643320">
        <ele>86.308</ele>
        <time>2018-08-25T13:09:10Z</time>
      </trkpt>
      <trkpt lat="42.580236" lon="-8.643345">
        <ele>87.567</ele>
        <time>2018-08-25T13:09:12Z</time>
      </trkpt>
      <trkpt lat="42.580298" lon="-8.643393">
        <ele>89.013</ele>
        <time>2018-08-25T13:09:14Z</time>
      </trkpt>
      <trkpt lat="42.580354" lon="-8.643459">
        <ele>89.718</ele>
        <time>2018-08-25T13:09:16Z</time>
      </trkpt>
      <trkpt lat="42.580407" lon="-8.643529">
        <ele>90.642</ele>
        <time>2018-08-25T13:09:18Z</time>
      </trkpt>
      <trkpt lat="42.580458" lon="-8.643599">
        <ele>91.069</ele>
        <time>2018-08-25T13:09:20Z</time>
      </trkpt>
      <trkpt lat="42.580507" lon="-8.643669">
        <ele>91.167</ele>
        <time>2018-08-25T13:09:22Z</time>
      </trkpt>
      <trkpt lat="42.580554" lon="-8.643740">
        <ele>91.235</ele>
        <time>2018-08-25T13:09:24Z</time>
      </trkpt>
      <trkpt lat="42.580605" lon="-8.643814">
        <ele>91.195</ele>
        <time>2018-08-25T13:09:26Z</time>
      </trkpt>
      <trkpt lat="42.580661" lon="-8.643888">
        <ele>91.082</ele>
        <time>2018-08-25T13:09:28Z</time>
      </trkpt>
      <trkpt lat="42.580717" lon="-8.643953">
        <ele>90.843</ele>
        <time>2018-08-25T13:09:30Z</time>
      </trkpt>
      <trkpt lat="42.580776" lon="-8.644014">
        <ele>90.417</ele>
        <time>2018-08-25T13:09:32Z</time>
      </trkpt>
      <trkpt lat="42.580835" lon="-8.644069">
        <ele>90.008</ele>
        <time>2018-08-25T13:09:34Z</time>
      </trkpt>
      <trkpt lat="42.580931" lon="-8.644148">
        <ele>89.730</ele>
        <time>2018-08-25T13:09:35Z</time>
      </trkpt>
      <trkpt lat="42.580984" lon="-8.644184">
        <ele>89.476</ele>
        <time>2018-08-25T13:09:37Z</time>
      </trkpt>
      <trkpt lat="42.581029" lon="-8.644213">
        <ele>89.141</ele>
        <time>2018-08-25T13:09:39Z</time>
      </trkpt>
      <trkpt lat="42.581079" lon="-8.644250">
        <ele>88.795</ele>
        <time>2018-08-25T13:09:41Z</time>
      </trkpt>
      <trkpt lat="42.581132" lon="-8.644290">
        <ele>88.332</ele>
        <time>2018-08-25T13:09:43Z</time>
      </trkpt>
      <trkpt lat="42.581190" lon="-8.644338">
        <ele>87.710</ele>
        <time>2018-08-25T13:09:45Z</time>
      </trkpt>
      <trkpt lat="42.581255" lon="-8.644391">
        <ele>87.038</ele>
        <time>2018-08-25T13:09:47Z</time>
      </trkpt>
      <trkpt lat="42.581389" lon="-8.644484">
        <ele>86.768</ele>
        <time>2018-08-25T13:09:49Z</time>
      </trkpt>
      <trkpt lat="42.581461" lon="-8.644527">
        <ele>86.739</ele>
        <time>2018-08-25T13:09:51Z</time>
      </trkpt>
      <trkpt lat="42.581506" lon="-8.644566">
        <ele>87.101</ele>
        <time>2018-08-25T13:09:52Z</time>
      </trkpt>
      <trkpt lat="42.581551" lon="-8.644600">
        <ele>87.221</ele>
        <time>2018-08-25T13:09:53Z</time>
      </trkpt>
      <trkpt lat="42.581595" lon="-8.644629">
        <ele>86.908</ele>
        <time>2018-08-25T13:09:54Z</time>
      </trkpt>
      <trkpt lat="42.581675" lon="-8.644672">
        <ele>86.645</ele>
        <time>2018-08-25T13:09:56Z</time>
      </trkpt>
      <trkpt lat="42.581757" lon="-8.644709">
        <ele>85.341</ele>
        <time>2018-08-25T13:09:58Z</time>
      </trkpt>
      <trkpt lat="42.581841" lon="-8.644735">
        <ele>84.356</ele>
        <time>2018-08-25T13:10:00Z</time>
      </trkpt>
      <trkpt lat="42.581921" lon="-8.644751">
        <ele>83.390</ele>
        <time>2018-08-25T13:10:02Z</time>
      </trkpt>
      <trkpt lat="42.581965" lon="-8.644762">
        <ele>82.547</ele>
        <time>2018-08-25T13:10:03Z</time>
      </trkpt>
      <trkpt lat="42.582056" lon="-8.644765">
        <ele>82.145</ele>
        <time>2018-08-25T13:10:05Z</time>
      </trkpt>
      <trkpt lat="42.582106" lon="-8.644756">
        <ele>81.813</ele>
        <time>2018-08-25T13:10:06Z</time>
      </trkpt>
      <trkpt lat="42.582155" lon="-8.644742">
        <ele>81.443</ele>
        <time>2018-08-25T13:10:07Z</time>
      </trkpt>
      <trkpt lat="42.582203" lon="-8.644724">
        <ele>81.064</ele>
        <time>2018-08-25T13:10:08Z</time>
      </trkpt>
      <trkpt lat="42.582249" lon="-8.644704">
        <ele>80.806</ele>
        <time>2018-08-25T13:10:09Z</time>
      </trkpt>
      <trkpt lat="42.582294" lon="-8.644686">
        <ele>80.616</ele>
        <time>2018-08-25T13:10:10Z</time>
      </trkpt>
      <trkpt lat="42.582372" lon="-8.644636">
        <ele>80.208</ele>
        <time>2018-08-25T13:10:12Z</time>
      </trkpt>
      <trkpt lat="42.582445" lon="-8.644574">
        <ele>80.068</ele>
        <time>2018-08-25T13:10:14Z</time>
      </trkpt>
      <trkpt lat="42.582512" lon="-8.644514">
        <ele>79.944</ele>
        <time>2018-08-25T13:10:16Z</time>
      </trkpt>
      <trkpt lat="42.582570" lon="-8.644481">
        <ele>79.919</ele>
        <time>2018-08-25T13:10:19Z</time>
      </trkpt>
      <trkpt lat="42.582623" lon="-8.644476">
        <ele>79.993</ele>
        <time>2018-08-25T13:10:21Z</time>
      </trkpt>
      <trkpt lat="42.582676" lon="-8.644486">
        <ele>80.080</ele>
        <time>2018-08-25T13:10:23Z</time>
      </trkpt>
      <trkpt lat="42.582729" lon="-8.644510">
        <ele>80.248</ele>
        <time>2018-08-25T13:10:25Z</time>
      </trkpt>
      <trkpt lat="42.582782" lon="-8.644537">
        <ele>80.496</ele>
        <time>2018-08-25T13:10:27Z</time>
      </trkpt>
      <trkpt lat="42.582837" lon="-8.644560">
        <ele>80.616</ele>
        <time>2018-08-25T13:10:29Z</time>
      </trkpt>
      <trkpt lat="42.582892" lon="-8.644581">
        <ele>80.813</ele>
        <time>2018-08-25T13:10:31Z</time>
      </trkpt>
      <trkpt lat="42.582943" lon="-8.644599">
        <ele>81.143</ele>
        <time>2018-08-25T13:10:33Z</time>
      </trkpt>
      <trkpt lat="42.582991" lon="-8.644607">
        <ele>81.307</ele>
        <time>2018-08-25T13:10:35Z</time>
      </trkpt>
      <trkpt lat="42.583036" lon="-8.644605">
        <ele>81.508</ele>
        <time>2018-08-25T13:10:37Z</time>
      </trkpt>
      <trkpt lat="42.583103" lon="-8.644595">
        <ele>81.793</ele>
        <time>2018-08-25T13:10:40Z</time>
      </trkpt>
      <trkpt lat="42.583150" lon="-8.644592">
        <ele>81.779</ele>
        <time>2018-08-25T13:10:42Z</time>
      </trkpt>
      <trkpt lat="42.583209" lon="-8.644594">
        <ele>82.054</ele>
        <time>2018-08-25T13:10:45Z</time>
      </trkpt>
      <trkpt lat="42.583274" lon="-8.644578">
        <ele>82.728</ele>
        <time>2018-08-25T13:10:48Z</time>
      </trkpt>
      <trkpt lat="42.583327" lon="-8.644579">
        <ele>83.135</ele>
        <time>2018-08-25T13:10:50Z</time>
      </trkpt>
      <trkpt lat="42.583384" lon="-8.644598">
        <ele>83.453</ele>
        <time>2018-08-25T13:10:52Z</time>
      </trkpt>
      <trkpt lat="42.583445" lon="-8.644627">
        <ele>83.811</ele>
        <time>2018-08-25T13:10:54Z</time>
      </trkpt>
      <trkpt lat="42.583506" lon="-8.644659">
        <ele>84.281</ele>
        <time>2018-08-25T13:10:56Z</time>
      </trkpt>
      <trkpt lat="42.583565" lon="-8.644693">
        <ele>84.772</ele>
        <time>2018-08-25T13:10:58Z</time>
      </trkpt>
      <trkpt lat="42.583619" lon="-8.644724">
        <ele>85.413</ele>
        <time>2018-08-25T13:11:00Z</time>
      </trkpt>
      <trkpt lat="42.583671" lon="-8.644751">
        <ele>86.114</ele>
        <time>2018-08-25T13:11:02Z</time>
      </trkpt>
      <trkpt lat="42.583722" lon="-8.644779">
        <ele>86.708</ele>
        <time>2018-08-25T13:11:04Z</time>
      </trkpt>
      <trkpt lat="42.583775" lon="-8.644808">
        <ele>87.449</ele>
        <time>2018-08-25T13:11:06Z</time>
      </trkpt>
      <trkpt lat="42.583831" lon="-8.644841">
        <ele>87.795</ele>
        <time>2018-08-25T13:11:08Z</time>
      </trkpt>
      <trkpt lat="42.583886" lon="-8.644878">
        <ele>87.890</ele>
        <time>2018-08-25T13:11:10Z</time>
      </trkpt>
      <trkpt lat="42.583938" lon="-8.644921">
        <ele>87.954</ele>
        <time>2018-08-25T13:11:12Z</time>
      </trkpt>
      <trkpt lat="42.583988" lon="-8.644967">
        <ele>87.951</ele>
        <time>2018-08-25T13:11:14Z</time>
      </trkpt>
      <trkpt lat="42.584039" lon="-8.645017">
        <ele>87.719</ele>
        <time>2018-08-25T13:11:16Z</time>
      </trkpt>
      <trkpt lat="42.584090" lon="-8.645064">
        <ele>87.537</ele>
        <time>2018-08-25T13:11:18Z</time>
      </trkpt>
      <trkpt lat="42.584136" lon="-8.645109">
        <ele>87.777</ele>
        <time>2018-08-25T13:11:20Z</time>
      </trkpt>
      <trkpt lat="42.584175" lon="-8.645149">
        <ele>87.997</ele>
        <time>2018-08-25T13:11:22Z</time>
      </trkpt>
      <trkpt lat="42.584212" lon="-8.645190">
        <ele>88.223</ele>
        <time>2018-08-25T13:11:24Z</time>
      </trkpt>
      <trkpt lat="42.584251" lon="-8.645229">
        <ele>88.725</ele>
        <time>2018-08-25T13:11:26Z</time>
      </trkpt>
      <trkpt lat="42.584299" lon="-8.645271">
        <ele>89.308</ele>
        <time>2018-08-25T13:11:28Z</time>
      </trkpt>
      <trkpt lat="42.584356" lon="-8.645316">
        <ele>90.141</ele>
        <time>2018-08-25T13:11:30Z</time>
      </trkpt>
      <trkpt lat="42.584408" lon="-8.645359">
        <ele>91.027</ele>
        <time>2018-08-25T13:11:32Z</time>
      </trkpt>
      <trkpt lat="42.584459" lon="-8.645406">
        <ele>91.862</ele>
        <time>2018-08-25T13:11:34Z</time>
      </trkpt>
      <trkpt lat="42.584512" lon="-8.645462">
        <ele>92.486</ele>
        <time>2018-08-25T13:11:36Z</time>
      </trkpt>
      <trkpt lat="42.584561" lon="-8.645513">
        <ele>92.793</ele>
        <time>2018-08-25T13:11:38Z</time>
      </trkpt>
      <trkpt lat="42.584609" lon="-8.645558">
        <ele>92.541</ele>
        <time>2018-08-25T13:11:40Z</time>
      </trkpt>
      <trkpt lat="42.584654" lon="-8.645601">
        <ele>91.949</ele>
        <time>2018-08-25T13:11:42Z</time>
      </trkpt>
      <trkpt lat="42.584695" lon="-8.645639">
        <ele>91.359</ele>
        <time>2018-08-25T13:11:44Z</time>
      </trkpt>
      <trkpt lat="42.584740" lon="-8.645672">
        <ele>90.648</ele>
        <time>2018-08-25T13:11:46Z</time>
      </trkpt>
      <trkpt lat="42.584788" lon="-8.645699">
        <ele>89.961</ele>
        <time>2018-08-25T13:11:48Z</time>
      </trkpt>
      <trkpt lat="42.584839" lon="-8.645720">
        <ele>89.117</ele>
        <time>2018-08-25T13:11:50Z</time>
      </trkpt>
      <trkpt lat="42.584896" lon="-8.645735">
        <ele>88.508</ele>
        <time>2018-08-25T13:11:52Z</time>
      </trkpt>
      <trkpt lat="42.584960" lon="-8.645744">
        <ele>87.876</ele>
        <time>2018-08-25T13:11:54Z</time>
      </trkpt>
      <trkpt lat="42.585024" lon="-8.645750">
        <ele>87.242</ele>
        <time>2018-08-25T13:11:56Z</time>
      </trkpt>
      <trkpt lat="42.585089" lon="-8.645756">
        <ele>86.587</ele>
        <time>2018-08-25T13:11:58Z</time>
      </trkpt>
      <trkpt lat="42.585154" lon="-8.645756">
        <ele>86.031</ele>
        <time>2018-08-25T13:12:00Z</time>
      </trkpt>
      <trkpt lat="42.585217" lon="-8.645757">
        <ele>85.528</ele>
        <time>2018-08-25T13:12:02Z</time>
      </trkpt>
      <trkpt lat="42.585279" lon="-8.645760">
        <ele>85.086</ele>
        <time>2018-08-25T13:12:04Z</time>
      </trkpt>
      <trkpt lat="42.585342" lon="-8.645764">
        <ele>84.784</ele>
        <time>2018-08-25T13:12:06Z</time>
      </trkpt>
      <trkpt lat="42.585410" lon="-8.645764">
        <ele>84.324</ele>
        <time>2018-08-25T13:12:08Z</time>
      </trkpt>
      <trkpt lat="42.585478" lon="-8.645756">
        <ele>83.835</ele>
        <time>2018-08-25T13:12:10Z</time>
      </trkpt>
      <trkpt lat="42.585547" lon="-8.645749">
        <ele>83.586</ele>
        <time>2018-08-25T13:12:12Z</time>
      </trkpt>
      <trkpt lat="42.585618" lon="-8.645745">
        <ele>83.114</ele>
        <time>2018-08-25T13:12:14Z</time>
      </trkpt>
      <trkpt lat="42.585760" lon="-8.645735">
        <ele>83.008</ele>
        <time>2018-08-25T13:12:16Z</time>
      </trkpt>
      <trkpt lat="42.585826" lon="-8.645743">
        <ele>83.055</ele>
        <time>2018-08-25T13:12:19Z</time>
      </trkpt>
      <trkpt lat="42.585878" lon="-8.645758">
        <ele>83.151</ele>
        <time>2018-08-25T13:12:21Z</time>
      </trkpt>
      <trkpt lat="42.585935" lon="-8.645774">
        <ele>83.416</ele>
        <time>2018-08-25T13:12:23Z</time>
      </trkpt>
      <trkpt lat="42.585991" lon="-8.645790">
        <ele>84.080</ele>
        <time>2018-08-25T13:12:25Z</time>
      </trkpt>
      <trkpt lat="42.586053" lon="-8.645802">
        <ele>84.957</ele>
        <time>2018-08-25T13:12:27Z</time>
      </trkpt>
      <trkpt lat="42.586187" lon="-8.645818">
        <ele>85.675</ele>
        <time>2018-08-25T13:12:29Z</time>
      </trkpt>
      <trkpt lat="42.586265" lon="-8.645816">
        <ele>86.063</ele>
        <time>2018-08-25T13:12:31Z</time>
      </trkpt>
      <trkpt lat="42.586332" lon="-8.645809">
        <ele>86.423</ele>
        <time>2018-08-25T13:12:34Z</time>
      </trkpt>
      <trkpt lat="42.586387" lon="-8.645802">
        <ele>86.676</ele>
        <time>2018-08-25T13:12:36Z</time>
      </trkpt>
      <trkpt lat="42.586446" lon="-8.645790">
        <ele>86.590</ele>
        <time>2018-08-25T13:12:38Z</time>
      </trkpt>
      <trkpt lat="42.586507" lon="-8.645773">
        <ele>86.419</ele>
        <time>2018-08-25T13:12:40Z</time>
      </trkpt>
      <trkpt lat="42.586568" lon="-8.645746">
        <ele>86.408</ele>
        <time>2018-08-25T13:12:42Z</time>
      </trkpt>
      <trkpt lat="42.586633" lon="-8.645713">
        <ele>86.079</ele>
        <time>2018-08-25T13:12:44Z</time>
      </trkpt>
      <trkpt lat="42.586695" lon="-8.645676">
        <ele>85.775</ele>
        <time>2018-08-25T13:12:46Z</time>
      </trkpt>
      <trkpt lat="42.586756" lon="-8.645636">
        <ele>85.440</ele>
        <time>2018-08-25T13:12:48Z</time>
      </trkpt>
      <trkpt lat="42.586815" lon="-8.645600">
        <ele>85.274</ele>
        <time>2018-08-25T13:12:50Z</time>
      </trkpt>
      <trkpt lat="42.586875" lon="-8.645569">
        <ele>85.121</ele>
        <time>2018-08-25T13:12:52Z</time>
      </trkpt>
      <trkpt lat="42.586931" lon="-8.645545">
        <ele>85.079</ele>
        <time>2018-08-25T13:12:54Z</time>
      </trkpt>
      <trkpt lat="42.586987" lon="-8.645524">
        <ele>85.097</ele>
        <time>2018-08-25T13:12:56Z</time>
      </trkpt>
      <trkpt lat="42.587044" lon="-8.645508">
        <ele>84.977</ele>
        <time>2018-08-25T13:12:58Z</time>
      </trkpt>
      <trkpt lat="42.587102" lon="-8.645490">
        <ele>85.088</ele>
        <time>2018-08-25T13:13:00Z</time>
      </trkpt>
      <trkpt lat="42.587159" lon="-8.645470">
        <ele>85.224</ele>
        <time>2018-08-25T13:13:02Z</time>
      </trkpt>
      <trkpt lat="42.587214" lon="-8.645452">
        <ele>85.726</ele>
        <time>2018-08-25T13:13:04Z</time>
      </trkpt>
      <trkpt lat="42.587265" lon="-8.645432">
        <ele>86.408</ele>
        <time>2018-08-25T13:13:06Z</time>
      </trkpt>
      <trkpt lat="42.587316" lon="-8.645411">
        <ele>86.920</ele>
        <time>2018-08-25T13:13:08Z</time>
      </trkpt>
      <trkpt lat="42.587361" lon="-8.645388">
        <ele>87.766</ele>
        <time>2018-08-25T13:13:10Z</time>
      </trkpt>
      <trkpt lat="42.587405" lon="-8.645368">
        <ele>89.111</ele>
        <time>2018-08-25T13:13:12Z</time>
      </trkpt>
      <trkpt lat="42.587457" lon="-8.645347">
        <ele>89.695</ele>
        <time>2018-08-25T13:13:14Z</time>
      </trkpt>
      <trkpt lat="42.587514" lon="-8.645326">
        <ele>89.712</ele>
        <time>2018-08-25T13:13:16Z</time>
      </trkpt>
      <trkpt lat="42.587572" lon="-8.645307">
        <ele>89.480</ele>
        <time>2018-08-25T13:13:18Z</time>
      </trkpt>
      <trkpt lat="42.587631" lon="-8.645292">
        <ele>89.038</ele>
        <time>2018-08-25T13:13:20Z</time>
      </trkpt>
      <trkpt lat="42.587692" lon="-8.645271">
        <ele>88.778</ele>
        <time>2018-08-25T13:13:22Z</time>
      </trkpt>
      <trkpt lat="42.587753" lon="-8.645240">
        <ele>88.318</ele>
        <time>2018-08-25T13:13:24Z</time>
      </trkpt>
      <trkpt lat="42.587822" lon="-8.645220">
        <ele>86.498</ele>
        <time>2018-08-25T13:13:26Z</time>
      </trkpt>
      <trkpt lat="42.587885" lon="-8.645209">
        <ele>84.417</ele>
        <time>2018-08-25T13:13:28Z</time>
      </trkpt>
      <trkpt lat="42.587941" lon="-8.645201">
        <ele>82.708</ele>
        <time>2018-08-25T13:13:30Z</time>
      </trkpt>
      <trkpt lat="42.587997" lon="-8.645199">
        <ele>81.953</ele>
        <time>2018-08-25T13:13:32Z</time>
      </trkpt>
      <trkpt lat="42.588065" lon="-8.645205">
        <ele>81.329</ele>
        <time>2018-08-25T13:13:34Z</time>
      </trkpt>
      <trkpt lat="42.588134" lon="-8.645214">
        <ele>81.434</ele>
        <time>2018-08-25T13:13:36Z</time>
      </trkpt>
      <trkpt lat="42.588208" lon="-8.645231">
        <ele>81.528</ele>
        <time>2018-08-25T13:13:38Z</time>
      </trkpt>
      <trkpt lat="42.588279" lon="-8.645260">
        <ele>81.055</ele>
        <time>2018-08-25T13:13:40Z</time>
      </trkpt>
      <trkpt lat="42.588324" lon="-8.645296">
        <ele>80.533</ele>
        <time>2018-08-25T13:13:42Z</time>
      </trkpt>
      <trkpt lat="42.588374" lon="-8.645335">
        <ele>80.021</ele>
        <time>2018-08-25T13:13:44Z</time>
      </trkpt>
      <trkpt lat="42.588436" lon="-8.645357">
        <ele>79.691</ele>
        <time>2018-08-25T13:13:46Z</time>
      </trkpt>
      <trkpt lat="42.588501" lon="-8.645370">
        <ele>79.345</ele>
        <time>2018-08-25T13:13:48Z</time>
      </trkpt>
      <trkpt lat="42.588560" lon="-8.645373">
        <ele>79.147</ele>
        <time>2018-08-25T13:13:50Z</time>
      </trkpt>
      <trkpt lat="42.588619" lon="-8.645370">
        <ele>79.011</ele>
        <time>2018-08-25T13:13:52Z</time>
      </trkpt>
      <trkpt lat="42.588678" lon="-8.645368">
        <ele>79.008</ele>
        <time>2018-08-25T13:13:54Z</time>
      </trkpt>
      <trkpt lat="42.588734" lon="-8.645367">
        <ele>79.316</ele>
        <time>2018-08-25T13:13:56Z</time>
      </trkpt>
      <trkpt lat="42.588793" lon="-8.645367">
        <ele>79.832</ele>
        <time>2018-08-25T13:13:58Z</time>
      </trkpt>
      <trkpt lat="42.588856" lon="-8.645368">
        <ele>79.697</ele>
        <time>2018-08-25T13:14:00Z</time>
      </trkpt>
      <trkpt lat="42.588921" lon="-8.645372">
        <ele>79.521</ele>
        <time>2018-08-25T13:14:02Z</time>
      </trkpt>
      <trkpt lat="42.588987" lon="-8.645380">
        <ele>79.438</ele>
        <time>2018-08-25T13:14:04Z</time>
      </trkpt>
      <trkpt lat="42.589042" lon="-8.645391">
        <ele>79.776</ele>
        <time>2018-08-25T13:14:06Z</time>
      </trkpt>
      <trkpt lat="42.589094" lon="-8.645396">
        <ele>80.054</ele>
        <time>2018-08-25T13:14:08Z</time>
      </trkpt>
      <trkpt lat="42.589145" lon="-8.645396">
        <ele>80.124</ele>
        <time>2018-08-25T13:14:10Z</time>
      </trkpt>
      <trkpt lat="42.589194" lon="-8.645399">
        <ele>80.297</ele>
        <time>2018-08-25T13:14:12Z</time>
      </trkpt>
      <trkpt lat="42.589240" lon="-8.645408">
        <ele>80.823</ele>
        <time>2018-08-25T13:14:14Z</time>
      </trkpt>
      <trkpt lat="42.589286" lon="-8.645417">
        <ele>81.325</ele>
        <time>2018-08-25T13:14:16Z</time>
      </trkpt>
      <trkpt lat="42.589345" lon="-8.645423">
        <ele>81.508</ele>
        <time>2018-08-25T13:14:19Z</time>
      </trkpt>
      <trkpt lat="42.589366" lon="-8.645477">
        <ele>81.441</ele>
        <time>2018-08-25T13:16:14Z</time>
      </trkpt>
      <trkpt lat="42.589411" lon="-8.645454">
        <ele>81.717</ele>
        <time>2018-08-25T13:16:19Z</time>
      </trkpt>
      <trkpt lat="42.589475" lon="-8.645433">
        <ele>82.452</ele>
        <time>2018-08-25T13:16:22Z</time>
      </trkpt>
      <trkpt lat="42.589534" lon="-8.645417">
        <ele>82.726</ele>
        <time>2018-08-25T13:16:24Z</time>
      </trkpt>
      <trkpt lat="42.589592" lon="-8.645394">
        <ele>83.043</ele>
        <time>2018-08-25T13:16:26Z</time>
      </trkpt>
      <trkpt lat="42.589644" lon="-8.645367">
        <ele>83.171</ele>
        <time>2018-08-25T13:16:28Z</time>
      </trkpt>
      <trkpt lat="42.589694" lon="-8.645336">
        <ele>83.139</ele>
        <time>2018-08-25T13:16:30Z</time>
      </trkpt>
      <trkpt lat="42.589740" lon="-8.645301">
        <ele>82.849</ele>
        <time>2018-08-25T13:16:32Z</time>
      </trkpt>
      <trkpt lat="42.589790" lon="-8.645264">
        <ele>82.555</ele>
        <time>2018-08-25T13:16:34Z</time>
      </trkpt>
      <trkpt lat="42.589841" lon="-8.645222">
        <ele>82.307</ele>
        <time>2018-08-25T13:16:36Z</time>
      </trkpt>
      <trkpt lat="42.589889" lon="-8.645186">
        <ele>82.217</ele>
        <time>2018-08-25T13:16:38Z</time>
      </trkpt>
      <trkpt lat="42.589938" lon="-8.645154">
        <ele>82.308</ele>
        <time>2018-08-25T13:16:40Z</time>
      </trkpt>
      <trkpt lat="42.589990" lon="-8.645122">
        <ele>82.487</ele>
        <time>2018-08-25T13:16:42Z</time>
      </trkpt>
      <trkpt lat="42.590043" lon="-8.645086">
        <ele>82.523</ele>
        <time>2018-08-25T13:16:44Z</time>
      </trkpt>
      <trkpt lat="42.590092" lon="-8.645052">
        <ele>82.458</ele>
        <time>2018-08-25T13:16:46Z</time>
      </trkpt>
      <trkpt lat="42.590138" lon="-8.645021">
        <ele>82.272</ele>
        <time>2018-08-25T13:16:48Z</time>
      </trkpt>
      <trkpt lat="42.590190" lon="-8.644985">
        <ele>82.119</ele>
        <time>2018-08-25T13:16:50Z</time>
      </trkpt>
      <trkpt lat="42.590247" lon="-8.644949">
        <ele>82.197</ele>
        <time>2018-08-25T13:16:52Z</time>
      </trkpt>
      <trkpt lat="42.590305" lon="-8.644911">
        <ele>82.285</ele>
        <time>2018-08-25T13:16:54Z</time>
      </trkpt>
      <trkpt lat="42.590363" lon="-8.644872">
        <ele>82.295</ele>
        <time>2018-08-25T13:16:56Z</time>
      </trkpt>
      <trkpt lat="42.590414" lon="-8.644834">
        <ele>82.138</ele>
        <time>2018-08-25T13:16:58Z</time>
      </trkpt>
      <trkpt lat="42.590463" lon="-8.644792">
        <ele>82.170</ele>
        <time>2018-08-25T13:17:00Z</time>
      </trkpt>
      <trkpt lat="42.590515" lon="-8.644745">
        <ele>82.317</ele>
        <time>2018-08-25T13:17:02Z</time>
      </trkpt>
      <trkpt lat="42.590569" lon="-8.644696">
        <ele>82.408</ele>
        <time>2018-08-25T13:17:04Z</time>
      </trkpt>
      <trkpt lat="42.590625" lon="-8.644646">
        <ele>82.485</ele>
        <time>2018-08-25T13:17:06Z</time>
      </trkpt>
      <trkpt lat="42.590682" lon="-8.644601">
        <ele>82.411</ele>
        <time>2018-08-25T13:17:08Z</time>
      </trkpt>
      <trkpt lat="42.590731" lon="-8.644558">
        <ele>82.336</ele>
        <time>2018-08-25T13:17:10Z</time>
      </trkpt>
      <trkpt lat="42.590780" lon="-8.644513">
        <ele>82.220</ele>
        <time>2018-08-25T13:17:12Z</time>
      </trkpt>
      <trkpt lat="42.590829" lon="-8.644468">
        <ele>82.217</ele>
        <time>2018-08-25T13:17:14Z</time>
      </trkpt>
      <trkpt lat="42.590878" lon="-8.644422">
        <ele>82.155</ele>
        <time>2018-08-25T13:17:16Z</time>
      </trkpt>
      <trkpt lat="42.590931" lon="-8.644373">
        <ele>82.163</ele>
        <time>2018-08-25T13:17:18Z</time>
      </trkpt>
      <trkpt lat="42.590984" lon="-8.644327">
        <ele>82.273</ele>
        <time>2018-08-25T13:17:20Z</time>
      </trkpt>
      <trkpt lat="42.591035" lon="-8.644277">
        <ele>82.235</ele>
        <time>2018-08-25T13:17:22Z</time>
      </trkpt>
      <trkpt lat="42.591081" lon="-8.644226">
        <ele>82.286</ele>
        <time>2018-08-25T13:17:24Z</time>
      </trkpt>
      <trkpt lat="42.591122" lon="-8.644185">
        <ele>82.314</ele>
        <time>2018-08-25T13:17:26Z</time>
      </trkpt>
      <trkpt lat="42.591161" lon="-8.644145">
        <ele>82.508</ele>
        <time>2018-08-25T13:17:28Z</time>
      </trkpt>
      <trkpt lat="42.591204" lon="-8.644103">
        <ele>82.635</ele>
        <time>2018-08-25T13:17:30Z</time>
      </trkpt>
      <trkpt lat="42.591251" lon="-8.644061">
        <ele>82.761</ele>
        <time>2018-08-25T13:17:32Z</time>
      </trkpt>
      <trkpt lat="42.591304" lon="-8.644016">
        <ele>82.926</ele>
        <time>2018-08-25T13:17:34Z</time>
      </trkpt>
      <trkpt lat="42.591362" lon="-8.643983">
        <ele>82.980</ele>
        <time>2018-08-25T13:17:36Z</time>
      </trkpt>
      <trkpt lat="42.591422" lon="-8.643964">
        <ele>82.817</ele>
        <time>2018-08-25T13:17:38Z</time>
      </trkpt>
      <trkpt lat="42.591485" lon="-8.643953">
        <ele>82.655</ele>
        <time>2018-08-25T13:17:40Z</time>
      </trkpt>
      <trkpt lat="42.591546" lon="-8.643943">
        <ele>82.473</ele>
        <time>2018-08-25T13:17:42Z</time>
      </trkpt>
      <trkpt lat="42.591602" lon="-8.643934">
        <ele>82.383</ele>
        <time>2018-08-25T13:17:44Z</time>
      </trkpt>
      <trkpt lat="42.591662" lon="-8.643935">
        <ele>82.253</ele>
        <time>2018-08-25T13:17:46Z</time>
      </trkpt>
      <trkpt lat="42.591719" lon="-8.643946">
        <ele>82.304</ele>
        <time>2018-08-25T13:17:48Z</time>
      </trkpt>
      <trkpt lat="42.591772" lon="-8.643966">
        <ele>82.614</ele>
        <time>2018-08-25T13:17:50Z</time>
      </trkpt>
      <trkpt lat="42.591827" lon="-8.643988">
        <ele>83.008</ele>
        <time>2018-08-25T13:17:52Z</time>
      </trkpt>
      <trkpt lat="42.591886" lon="-8.644014">
        <ele>83.087</ele>
        <time>2018-08-25T13:17:54Z</time>
      </trkpt>
      <trkpt lat="42.591941" lon="-8.644041">
        <ele>83.153</ele>
        <time>2018-08-25T13:17:56Z</time>
      </trkpt>
      <trkpt lat="42.591993" lon="-8.644064">
        <ele>83.228</ele>
        <time>2018-08-25T13:17:58Z</time>
      </trkpt>
      <trkpt lat="42.592048" lon="-8.644078">
        <ele>83.662</ele>
        <time>2018-08-25T13:18:00Z</time>
      </trkpt>
      <trkpt lat="42.592101" lon="-8.644082">
        <ele>83.749</ele>
        <time>2018-08-25T13:18:02Z</time>
      </trkpt>
      <trkpt lat="42.592150" lon="-8.644085">
        <ele>83.837</ele>
        <time>2018-08-25T13:18:04Z</time>
      </trkpt>
      <trkpt lat="42.592197" lon="-8.644094">
        <ele>83.875</ele>
        <time>2018-08-25T13:18:06Z</time>
      </trkpt>
      <trkpt lat="42.592242" lon="-8.644109">
        <ele>84.215</ele>
        <time>2018-08-25T13:18:08Z</time>
      </trkpt>
      <trkpt lat="42.592288" lon="-8.644129">
        <ele>84.456</ele>
        <time>2018-08-25T13:18:10Z</time>
      </trkpt>
      <trkpt lat="42.592338" lon="-8.644144">
        <ele>84.759</ele>
        <time>2018-08-25T13:18:12Z</time>
      </trkpt>
      <trkpt lat="42.592386" lon="-8.644153">
        <ele>84.914</ele>
        <time>2018-08-25T13:18:14Z</time>
      </trkpt>
      <trkpt lat="42.592433" lon="-8.644161">
        <ele>85.108</ele>
        <time>2018-08-25T13:18:16Z</time>
      </trkpt>
      <trkpt lat="42.592479" lon="-8.644165">
        <ele>85.717</ele>
        <time>2018-08-25T13:18:18Z</time>
      </trkpt>
      <trkpt lat="42.592542" lon="-8.644166">
        <ele>86.593</ele>
        <time>2018-08-25T13:18:21Z</time>
      </trkpt>
      <trkpt lat="42.592609" lon="-8.644167">
        <ele>87.198</ele>
        <time>2018-08-25T13:18:24Z</time>
      </trkpt>
      <trkpt lat="42.592674" lon="-8.644157">
        <ele>87.382</ele>
        <time>2018-08-25T13:18:27Z</time>
      </trkpt>
      <trkpt lat="42.592717" lon="-8.644141">
        <ele>87.449</ele>
        <time>2018-08-25T13:18:29Z</time>
      </trkpt>
      <trkpt lat="42.592763" lon="-8.644120">
        <ele>87.387</ele>
        <time>2018-08-25T13:18:31Z</time>
      </trkpt>
      <trkpt lat="42.592809" lon="-8.644098">
        <ele>87.215</ele>
        <time>2018-08-25T13:18:33Z</time>
      </trkpt>
      <trkpt lat="42.592857" lon="-8.644082">
        <ele>87.115</ele>
        <time>2018-08-25T13:18:35Z</time>
      </trkpt>
      <trkpt lat="42.592905" lon="-8.644071">
        <ele>87.018</ele>
        <time>2018-08-25T13:18:37Z</time>
      </trkpt>
      <trkpt lat="42.592950" lon="-8.644063">
        <ele>87.098</ele>
        <time>2018-08-25T13:18:39Z</time>
      </trkpt>
      <trkpt lat="42.593009" lon="-8.644051">
        <ele>86.917</ele>
        <time>2018-08-25T13:18:42Z</time>
      </trkpt>
      <trkpt lat="42.593066" lon="-8.644031">
        <ele>86.908</ele>
        <time>2018-08-25T13:18:45Z</time>
      </trkpt>
      <trkpt lat="42.593121" lon="-8.644008">
        <ele>87.023</ele>
        <time>2018-08-25T13:18:48Z</time>
      </trkpt>
      <trkpt lat="42.593178" lon="-8.643989">
        <ele>87.059</ele>
        <time>2018-08-25T13:18:51Z</time>
      </trkpt>
      <trkpt lat="42.593236" lon="-8.643965">
        <ele>87.074</ele>
        <time>2018-08-25T13:18:54Z</time>
      </trkpt>
      <trkpt lat="42.593297" lon="-8.643940">
        <ele>86.628</ele>
        <time>2018-08-25T13:18:57Z</time>
      </trkpt>
      <trkpt lat="42.593353" lon="-8.643911">
        <ele>86.485</ele>
        <time>2018-08-25T13:19:00Z</time>
      </trkpt>
      <trkpt lat="42.593408" lon="-8.643885">
        <ele>86.463</ele>
        <time>2018-08-25T13:19:03Z</time>
      </trkpt>
      <trkpt lat="42.593464" lon="-8.643858">
        <ele>86.511</ele>
        <time>2018-08-25T13:19:06Z</time>
      </trkpt>
      <trkpt lat="42.593519" lon="-8.643831">
        <ele>86.441</ele>
        <time>2018-08-25T13:19:09Z</time>
      </trkpt>
      <trkpt lat="42.593572" lon="-8.643808">
        <ele>86.359</ele>
        <time>2018-08-25T13:19:12Z</time>
      </trkpt>
      <trkpt lat="42.593622" lon="-8.643785">
        <ele>86.203</ele>
        <time>2018-08-25T13:19:15Z</time>
      </trkpt>
      <trkpt lat="42.593673" lon="-8.643763">
        <ele>86.223</ele>
        <time>2018-08-25T13:19:18Z</time>
      </trkpt>
      <trkpt lat="42.593722" lon="-8.643742">
        <ele>86.008</ele>
        <time>2018-08-25T13:19:21Z</time>
      </trkpt>
      <trkpt lat="42.593769" lon="-8.643721">
        <ele>86.627</ele>
        <time>2018-08-25T13:19:24Z</time>
      </trkpt>
      <trkpt lat="42.593821" lon="-8.643702">
        <ele>86.993</ele>
        <time>2018-08-25T13:19:27Z</time>
      </trkpt>
      <trkpt lat="42.593883" lon="-8.643681">
        <ele>87.038</ele>
        <time>2018-08-25T13:19:30Z</time>
      </trkpt>
      <trkpt lat="42.593947" lon="-8.643668">
        <ele>87.222</ele>
        <time>2018-08-25T13:19:33Z</time>
      </trkpt>
      <trkpt lat="42.594005" lon="-8.643648">
        <ele>87.559</ele>
        <time>2018-08-25T13:19:36Z</time>
      </trkpt>
      <trkpt lat="42.594058" lon="-8.643627">
        <ele>87.637</ele>
        <time>2018-08-25T13:19:39Z</time>
      </trkpt>
      <trkpt lat="42.594112" lon="-8.643610">
        <ele>87.675</ele>
        <time>2018-08-25T13:19:42Z</time>
      </trkpt>
      <trkpt lat="42.594174" lon="-8.643590">
        <ele>87.915</ele>
        <time>2018-08-25T13:19:45Z</time>
      </trkpt>
      <trkpt lat="42.594237" lon="-8.643573">
        <ele>88.334</ele>
        <time>2018-08-25T13:19:48Z</time>
      </trkpt>
      <trkpt lat="42.594281" lon="-8.643556">
        <ele>88.555</ele>
        <time>2018-08-25T13:19:50Z</time>
      </trkpt>
      <trkpt lat="42.594344" lon="-8.643531">
        <ele>88.510</ele>
        <time>2018-08-25T13:19:53Z</time>
      </trkpt>
      <trkpt lat="42.594390" lon="-8.643513">
        <ele>88.508</ele>
        <time>2018-08-25T13:19:55Z</time>
      </trkpt>
      <trkpt lat="42.594434" lon="-8.643496">
        <ele>88.555</ele>
        <time>2018-08-25T13:19:57Z</time>
      </trkpt>
      <trkpt lat="42.594478" lon="-8.643478">
        <ele>88.621</ele>
        <time>2018-08-25T13:19:59Z</time>
      </trkpt>
      <trkpt lat="42.594540" lon="-8.643470">
        <ele>88.856</ele>
        <time>2018-08-25T13:20:02Z</time>
      </trkpt>
      <trkpt lat="42.594600" lon="-8.643471">
        <ele>89.630</ele>
        <time>2018-08-25T13:20:05Z</time>
      </trkpt>
      <trkpt lat="42.594663" lon="-8.643476">
        <ele>90.187</ele>
        <time>2018-08-25T13:20:08Z</time>
      </trkpt>
      <trkpt lat="42.594708" lon="-8.643478">
        <ele>90.275</ele>
        <time>2018-08-25T13:20:10Z</time>
      </trkpt>
      <trkpt lat="42.594755" lon="-8.643484">
        <ele>90.623</ele>
        <time>2018-08-25T13:20:12Z</time>
      </trkpt>
      <trkpt lat="42.594801" lon="-8.643495">
        <ele>91.213</ele>
        <time>2018-08-25T13:20:14Z</time>
      </trkpt>
      <trkpt lat="42.594845" lon="-8.643508">
        <ele>92.065</ele>
        <time>2018-08-25T13:20:16Z</time>
      </trkpt>
      <trkpt lat="42.594908" lon="-8.643526">
        <ele>92.968</ele>
        <time>2018-08-25T13:20:19Z</time>
      </trkpt>
      <trkpt lat="42.594965" lon="-8.643540">
        <ele>93.714</ele>
        <time>2018-08-25T13:20:22Z</time>
      </trkpt>
      <trkpt lat="42.595024" lon="-8.643557">
        <ele>94.508</ele>
        <time>2018-08-25T13:20:25Z</time>
      </trkpt>
      <trkpt lat="42.595083" lon="-8.643570">
        <ele>95.238</ele>
        <time>2018-08-25T13:20:28Z</time>
      </trkpt>
      <trkpt lat="42.595132" lon="-8.643581">
        <ele>95.944</ele>
        <time>2018-08-25T13:20:31Z</time>
      </trkpt>
      <trkpt lat="42.595192" lon="-8.643588">
        <ele>96.839</ele>
        <time>2018-08-25T13:20:34Z</time>
      </trkpt>
      <trkpt lat="42.595254" lon="-8.643594">
        <ele>97.723</ele>
        <time>2018-08-25T13:20:37Z</time>
      </trkpt>
      <trkpt lat="42.595311" lon="-8.643602">
        <ele>98.590</ele>
        <time>2018-08-25T13:20:40Z</time>
      </trkpt>
      <trkpt lat="42.595367" lon="-8.643608">
        <ele>99.178</ele>
        <time>2018-08-25T13:20:43Z</time>
      </trkpt>
      <trkpt lat="42.595424" lon="-8.643607">
        <ele>99.776</ele>
        <time>2018-08-25T13:20:46Z</time>
      </trkpt>
      <trkpt lat="42.595481" lon="-8.643610">
        <ele>100.646</ele>
        <time>2018-08-25T13:20:49Z</time>
      </trkpt>
      <trkpt lat="42.595528" lon="-8.643611">
        <ele>101.419</ele>
        <time>2018-08-25T13:20:51Z</time>
      </trkpt>
      <trkpt lat="42.595590" lon="-8.643612">
        <ele>101.609</ele>
        <time>2018-08-25T13:20:53Z</time>
      </trkpt>
      <trkpt lat="42.595656" lon="-8.643621">
        <ele>101.719</ele>
        <time>2018-08-25T13:20:55Z</time>
      </trkpt>
      <trkpt lat="42.595716" lon="-8.643629">
        <ele>101.908</ele>
        <time>2018-08-25T13:20:57Z</time>
      </trkpt>
      <trkpt lat="42.595771" lon="-8.643633">
        <ele>101.943</ele>
        <time>2018-08-25T13:20:59Z</time>
      </trkpt>
      <trkpt lat="42.595826" lon="-8.643631">
        <ele>101.529</ele>
        <time>2018-08-25T13:21:01Z</time>
      </trkpt>
      <trkpt lat="42.595882" lon="-8.643624">
        <ele>101.134</ele>
        <time>2018-08-25T13:21:03Z</time>
      </trkpt>
      <trkpt lat="42.595944" lon="-8.643616">
        <ele>100.918</ele>
        <time>2018-08-25T13:21:05Z</time>
      </trkpt>
      <trkpt lat="42.596007" lon="-8.643606">
        <ele>100.995</ele>
        <time>2018-08-25T13:21:07Z</time>
      </trkpt>
      <trkpt lat="42.596061" lon="-8.643598">
        <ele>102.083</ele>
        <time>2018-08-25T13:21:09Z</time>
      </trkpt>
      <trkpt lat="42.596115" lon="-8.643585">
        <ele>101.471</ele>
        <time>2018-08-25T13:21:11Z</time>
      </trkpt>
      <trkpt lat="42.596165" lon="-8.643582">
        <ele>101.241</ele>
        <time>2018-08-25T13:21:13Z</time>
      </trkpt>
      <trkpt lat="42.596229" lon="-8.643592">
        <ele>100.263</ele>
        <time>2018-08-25T13:21:16Z</time>
      </trkpt>
      <trkpt lat="42.596277" lon="-8.643598">
        <ele>99.444</ele>
        <time>2018-08-25T13:21:18Z</time>
      </trkpt>
      <trkpt lat="42.596336" lon="-8.643602">
        <ele>99.018</ele>
        <time>2018-08-25T13:21:20Z</time>
      </trkpt>
      <trkpt lat="42.596426" lon="-8.643604">
        <ele>98.908</ele>
        <time>2018-08-25T13:21:21Z</time>
      </trkpt>
      <trkpt lat="42.596518" lon="-8.643605">
        <ele>98.928</ele>
        <time>2018-08-25T13:21:23Z</time>
      </trkpt>
      <trkpt lat="42.596568" lon="-8.643604">
        <ele>99.064</ele>
        <time>2018-08-25T13:21:24Z</time>
      </trkpt>
      <trkpt lat="42.596619" lon="-8.643599">
        <ele>99.189</ele>
        <time>2018-08-25T13:21:25Z</time>
      </trkpt>
      <trkpt lat="42.596668" lon="-8.643598">
        <ele>99.293</ele>
        <time>2018-08-25T13:21:26Z</time>
      </trkpt>
      <trkpt lat="42.596720" lon="-8.643596">
        <ele>99.480</ele>
        <time>2018-08-25T13:21:27Z</time>
      </trkpt>
      <trkpt lat="42.596778" lon="-8.643590">
        <ele>99.618</ele>
        <time>2018-08-25T13:21:28Z</time>
      </trkpt>
      <trkpt lat="42.596842" lon="-8.643580">
        <ele>99.826</ele>
        <time>2018-08-25T13:21:29Z</time>
      </trkpt>
      <trkpt lat="42.596908" lon="-8.643568">
        <ele>99.856</ele>
        <time>2018-08-25T13:21:30Z</time>
      </trkpt>
      <trkpt lat="42.596973" lon="-8.643562">
        <ele>99.649</ele>
        <time>2018-08-25T13:21:31Z</time>
      </trkpt>
      <trkpt lat="42.597041" lon="-8.643558">
        <ele>99.302</ele>
        <time>2018-08-25T13:21:32Z</time>
      </trkpt>
      <trkpt lat="42.597104" lon="-8.643551">
        <ele>99.022</ele>
        <time>2018-08-25T13:21:33Z</time>
      </trkpt>
      <trkpt lat="42.597160" lon="-8.643546">
        <ele>98.608</ele>
        <time>2018-08-25T13:21:34Z</time>
      </trkpt>
      <trkpt lat="42.597208" lon="-8.643552">
        <ele>98.336</ele>
        <time>2018-08-25T13:21:35Z</time>
      </trkpt>
      <trkpt lat="42.597271" lon="-8.643556">
        <ele>97.682</ele>
        <time>2018-08-25T13:21:38Z</time>
      </trkpt>
      <trkpt lat="42.597316" lon="-8.643509">
        <ele>96.747</ele>
        <time>2018-08-25T13:21:41Z</time>
      </trkpt>
      <trkpt lat="42.597326" lon="-8.643435">
        <ele>95.121</ele>
        <time>2018-08-25T13:21:44Z</time>
      </trkpt>
      <trkpt lat="42.597330" lon="-8.643367">
        <ele>94.248</ele>
        <time>2018-08-25T13:21:47Z</time>
      </trkpt>
      <trkpt lat="42.597339" lon="-8.643281">
        <ele>93.176</ele>
        <time>2018-08-25T13:21:50Z</time>
      </trkpt>
      <trkpt lat="42.597358" lon="-8.643208">
        <ele>92.154</ele>
        <time>2018-08-25T13:21:53Z</time>
      </trkpt>
      <trkpt lat="42.597396" lon="-8.643164">
        <ele>90.984</ele>
        <time>2018-08-25T13:21:55Z</time>
      </trkpt>
      <trkpt lat="42.597514" lon="-8.643087">
        <ele>90.275</ele>
        <time>2018-08-25T13:21:57Z</time>
      </trkpt>
      <trkpt lat="42.597588" lon="-8.643083">
        <ele>90.428</ele>
        <time>2018-08-25T13:21:59Z</time>
      </trkpt>
      <trkpt lat="42.597692" lon="-8.643072">
        <ele>90.620</ele>
        <time>2018-08-25T13:22:02Z</time>
      </trkpt>
      <trkpt lat="42.597771" lon="-8.643064">
        <ele>91.008</ele>
        <time>2018-08-25T13:22:04Z</time>
      </trkpt>
      <trkpt lat="42.597851" lon="-8.643059">
        <ele>91.359</ele>
        <time>2018-08-25T13:22:06Z</time>
      </trkpt>
      <trkpt lat="42.597942" lon="-8.643034">
        <ele>91.515</ele>
        <time>2018-08-25T13:22:08Z</time>
      </trkpt>
      <trkpt lat="42.597993" lon="-8.643026">
        <ele>91.680</ele>
        <time>2018-08-25T13:22:09Z</time>
      </trkpt>
      <trkpt lat="42.598044" lon="-8.643020">
        <ele>91.784</ele>
        <time>2018-08-25T13:22:10Z</time>
      </trkpt>
      <trkpt lat="42.598094" lon="-8.643012">
        <ele>91.851</ele>
        <time>2018-08-25T13:22:11Z</time>
      </trkpt>
      <trkpt lat="42.598145" lon="-8.642998">
        <ele>91.889</ele>
        <time>2018-08-25T13:22:12Z</time>
      </trkpt>
      <trkpt lat="42.598198" lon="-8.642987">
        <ele>91.797</ele>
        <time>2018-08-25T13:22:13Z</time>
      </trkpt>
      <trkpt lat="42.598254" lon="-8.642980">
        <ele>91.477</ele>
        <time>2018-08-25T13:22:14Z</time>
      </trkpt>
      <trkpt lat="42.598308" lon="-8.642969">
        <ele>91.249</ele>
        <time>2018-08-25T13:22:15Z</time>
      </trkpt>
      <trkpt lat="42.598362" lon="-8.642958">
        <ele>91.002</ele>
        <time>2018-08-25T13:22:16Z</time>
      </trkpt>
      <trkpt lat="42.598416" lon="-8.642950">
        <ele>90.722</ele>
        <time>2018-08-25T13:22:17Z</time>
      </trkpt>
      <trkpt lat="42.598470" lon="-8.642946">
        <ele>90.408</ele>
        <time>2018-08-25T13:22:18Z</time>
      </trkpt>
      <trkpt lat="42.598524" lon="-8.642944">
        <ele>90.156</ele>
        <time>2018-08-25T13:22:19Z</time>
      </trkpt>
      <trkpt lat="42.598576" lon="-8.642940">
        <ele>89.962</ele>
        <time>2018-08-25T13:22:20Z</time>
      </trkpt>
      <trkpt lat="42.598629" lon="-8.642935">
        <ele>89.777</ele>
        <time>2018-08-25T13:22:21Z</time>
      </trkpt>
      <trkpt lat="42.598683" lon="-8.642931">
        <ele>89.571</ele>
        <time>2018-08-25T13:22:22Z</time>
      </trkpt>
      <trkpt lat="42.598737" lon="-8.642929">
        <ele>89.278</ele>
        <time>2018-08-25T13:22:23Z</time>
      </trkpt>
      <trkpt lat="42.598791" lon="-8.642928">
        <ele>88.966</ele>
        <time>2018-08-25T13:22:24Z</time>
      </trkpt>
      <trkpt lat="42.598845" lon="-8.642927">
        <ele>88.694</ele>
        <time>2018-08-25T13:22:25Z</time>
      </trkpt>
      <trkpt lat="42.598900" lon="-8.642926">
        <ele>88.424</ele>
        <time>2018-08-25T13:22:26Z</time>
      </trkpt>
      <trkpt lat="42.598954" lon="-8.642924">
        <ele>88.269</ele>
        <time>2018-08-25T13:22:27Z</time>
      </trkpt>
      <trkpt lat="42.599009" lon="-8.642920">
        <ele>88.004</ele>
        <time>2018-08-25T13:22:28Z</time>
      </trkpt>
      <trkpt lat="42.599064" lon="-8.642915">
        <ele>87.824</ele>
        <time>2018-08-25T13:22:29Z</time>
      </trkpt>
      <trkpt lat="42.599119" lon="-8.642911">
        <ele>87.508</ele>
        <time>2018-08-25T13:22:30Z</time>
      </trkpt>
      <trkpt lat="42.599173" lon="-8.642906">
        <ele>87.228</ele>
        <time>2018-08-25T13:22:31Z</time>
      </trkpt>
      <trkpt lat="42.599224" lon="-8.642899">
        <ele>87.034</ele>
        <time>2018-08-25T13:22:32Z</time>
      </trkpt>
      <trkpt lat="42.599275" lon="-8.642890">
        <ele>86.999</ele>
        <time>2018-08-25T13:22:33Z</time>
      </trkpt>
      <trkpt lat="42.599324" lon="-8.642881">
        <ele>86.993</ele>
        <time>2018-08-25T13:22:34Z</time>
      </trkpt>
      <trkpt lat="42.599371" lon="-8.642873">
        <ele>87.090</ele>
        <time>2018-08-25T13:22:35Z</time>
      </trkpt>
      <trkpt lat="42.599418" lon="-8.642866">
        <ele>87.138</ele>
        <time>2018-08-25T13:22:36Z</time>
      </trkpt>
      <trkpt lat="42.599463" lon="-8.642862">
        <ele>87.146</ele>
        <time>2018-08-25T13:22:37Z</time>
      </trkpt>
      <trkpt lat="42.599509" lon="-8.642858">
        <ele>87.076</ele>
        <time>2018-08-25T13:22:38Z</time>
      </trkpt>
      <trkpt lat="42.599594" lon="-8.642850">
        <ele>86.743</ele>
        <time>2018-08-25T13:22:40Z</time>
      </trkpt>
      <trkpt lat="42.599671" lon="-8.642834">
        <ele>86.664</ele>
        <time>2018-08-25T13:22:42Z</time>
      </trkpt>
      <trkpt lat="42.599752" lon="-8.642815">
        <ele>86.210</ele>
        <time>2018-08-25T13:22:44Z</time>
      </trkpt>
      <trkpt lat="42.599835" lon="-8.642802">
        <ele>85.908</ele>
        <time>2018-08-25T13:22:46Z</time>
      </trkpt>
      <trkpt lat="42.599920" lon="-8.642796">
        <ele>85.626</ele>
        <time>2018-08-25T13:22:48Z</time>
      </trkpt>
      <trkpt lat="42.599966" lon="-8.642793">
        <ele>85.392</ele>
        <time>2018-08-25T13:22:49Z</time>
      </trkpt>
      <trkpt lat="42.600012" lon="-8.642792">
        <ele>85.227</ele>
        <time>2018-08-25T13:22:50Z</time>
      </trkpt>
      <trkpt lat="42.600103" lon="-8.642787">
        <ele>85.141</ele>
        <time>2018-08-25T13:22:52Z</time>
      </trkpt>
      <trkpt lat="42.600148" lon="-8.642783">
        <ele>85.088</ele>
        <time>2018-08-25T13:22:53Z</time>
      </trkpt>
      <trkpt lat="42.600237" lon="-8.642774">
        <ele>84.886</ele>
        <time>2018-08-25T13:22:55Z</time>
      </trkpt>
      <trkpt lat="42.600285" lon="-8.642772">
        <ele>84.544</ele>
        <time>2018-08-25T13:22:56Z</time>
      </trkpt>
      <trkpt lat="42.600339" lon="-8.642769">
        <ele>83.924</ele>
        <time>2018-08-25T13:22:57Z</time>
      </trkpt>
      <trkpt lat="42.600391" lon="-8.642760">
        <ele>83.583</ele>
        <time>2018-08-25T13:22:58Z</time>
      </trkpt>
      <trkpt lat="42.600446" lon="-8.642753">
        <ele>83.325</ele>
        <time>2018-08-25T13:22:59Z</time>
      </trkpt>
      <trkpt lat="42.600495" lon="-8.642742">
        <ele>82.917</ele>
        <time>2018-08-25T13:23:00Z</time>
      </trkpt>
      <trkpt lat="42.600540" lon="-8.642734">
        <ele>82.508</ele>
        <time>2018-08-25T13:23:01Z</time>
      </trkpt>
      <trkpt lat="42.600587" lon="-8.642724">
        <ele>82.290</ele>
        <time>2018-08-25T13:23:02Z</time>
      </trkpt>
      <trkpt lat="42.600640" lon="-8.642709">
        <ele>81.966</ele>
        <time>2018-08-25T13:23:03Z</time>
      </trkpt>
      <trkpt lat="42.600695" lon="-8.642700">
        <ele>81.911</ele>
        <time>2018-08-25T13:23:04Z</time>
      </trkpt>
      <trkpt lat="42.600746" lon="-8.642690">
        <ele>82.295</ele>
        <time>2018-08-25T13:23:05Z</time>
      </trkpt>
      <trkpt lat="42.600799" lon="-8.642676">
        <ele>83.022</ele>
        <time>2018-08-25T13:23:06Z</time>
      </trkpt>
      <trkpt lat="42.600855" lon="-8.642664">
        <ele>83.990</ele>
        <time>2018-08-25T13:23:07Z</time>
      </trkpt>
      <trkpt lat="42.600910" lon="-8.642652">
        <ele>84.598</ele>
        <time>2018-08-25T13:23:08Z</time>
      </trkpt>
      <trkpt lat="42.600964" lon="-8.642643">
        <ele>84.898</ele>
        <time>2018-08-25T13:23:09Z</time>
      </trkpt>
      <trkpt lat="42.601015" lon="-8.642632">
        <ele>85.196</ele>
        <time>2018-08-25T13:23:10Z</time>
      </trkpt>
      <trkpt lat="42.601067" lon="-8.642616">
        <ele>85.431</ele>
        <time>2018-08-25T13:23:11Z</time>
      </trkpt>
      <trkpt lat="42.601125" lon="-8.642602">
        <ele>85.724</ele>
        <time>2018-08-25T13:23:12Z</time>
      </trkpt>
      <trkpt lat="42.601184" lon="-8.642596">
        <ele>85.908</ele>
        <time>2018-08-25T13:23:13Z</time>
      </trkpt>
      <trkpt lat="42.601247" lon="-8.642585">
        <ele>86.011</ele>
        <time>2018-08-25T13:23:14Z</time>
      </trkpt>
      <trkpt lat="42.601307" lon="-8.642572">
        <ele>85.917</ele>
        <time>2018-08-25T13:23:15Z</time>
      </trkpt>
      <trkpt lat="42.601365" lon="-8.642570">
        <ele>85.962</ele>
        <time>2018-08-25T13:23:16Z</time>
      </trkpt>
      <trkpt lat="42.601422" lon="-8.642573">
        <ele>86.016</ele>
        <time>2018-08-25T13:23:17Z</time>
      </trkpt>
      <trkpt lat="42.601475" lon="-8.642580">
        <ele>86.363</ele>
        <time>2018-08-25T13:23:18Z</time>
      </trkpt>
      <trkpt lat="42.601523" lon="-8.642579">
        <ele>86.641</ele>
        <time>2018-08-25T13:23:19Z</time>
      </trkpt>
      <trkpt lat="42.601569" lon="-8.642567">
        <ele>86.889</ele>
        <time>2018-08-25T13:23:20Z</time>
      </trkpt>
      <trkpt lat="42.601615" lon="-8.642555">
        <ele>87.049</ele>
        <time>2018-08-25T13:23:21Z</time>
      </trkpt>
      <trkpt lat="42.601666" lon="-8.642543">
        <ele>87.382</ele>
        <time>2018-08-25T13:23:22Z</time>
      </trkpt>
      <trkpt lat="42.601720" lon="-8.642529">
        <ele>87.543</ele>
        <time>2018-08-25T13:23:23Z</time>
      </trkpt>
      <trkpt lat="42.601772" lon="-8.642515">
        <ele>87.717</ele>
        <time>2018-08-25T13:23:24Z</time>
      </trkpt>
      <trkpt lat="42.601818" lon="-8.642501">
        <ele>87.908</ele>
        <time>2018-08-25T13:23:25Z</time>
      </trkpt>
      <trkpt lat="42.601863" lon="-8.642484">
        <ele>88.010</ele>
        <time>2018-08-25T13:23:26Z</time>
      </trkpt>
      <trkpt lat="42.601943" lon="-8.642507">
        <ele>88.366</ele>
        <time>2018-08-25T13:23:28Z</time>
      </trkpt>
      <trkpt lat="42.601988" lon="-8.642539">
        <ele>88.681</ele>
        <time>2018-08-25T13:23:29Z</time>
      </trkpt>
      <trkpt lat="42.602038" lon="-8.642554">
        <ele>88.995</ele>
        <time>2018-08-25T13:23:30Z</time>
      </trkpt>
      <trkpt lat="42.602086" lon="-8.642560">
        <ele>89.282</ele>
        <time>2018-08-25T13:23:31Z</time>
      </trkpt>
      <trkpt lat="42.602133" lon="-8.642557">
        <ele>89.550</ele>
        <time>2018-08-25T13:23:32Z</time>
      </trkpt>
      <trkpt lat="42.602184" lon="-8.642545">
        <ele>89.838</ele>
        <time>2018-08-25T13:23:33Z</time>
      </trkpt>
      <trkpt lat="42.602236" lon="-8.642530">
        <ele>90.178</ele>
        <time>2018-08-25T13:23:34Z</time>
      </trkpt>
      <trkpt lat="42.602281" lon="-8.642514">
        <ele>90.511</ele>
        <time>2018-08-25T13:23:35Z</time>
      </trkpt>
      <trkpt lat="42.602362" lon="-8.642485">
        <ele>91.021</ele>
        <time>2018-08-25T13:23:37Z</time>
      </trkpt>
      <trkpt lat="42.602408" lon="-8.642460">
        <ele>91.403</ele>
        <time>2018-08-25T13:23:39Z</time>
      </trkpt>
      <trkpt lat="42.602460" lon="-8.642445">
        <ele>92.408</ele>
        <time>2018-08-25T13:23:41Z</time>
      </trkpt>
      <trkpt lat="42.602521" lon="-8.642432">
        <ele>92.613</ele>
        <time>2018-08-25T13:23:43Z</time>
      </trkpt>
      <trkpt lat="42.602634" lon="-8.642387">
        <ele>91.649</ele>
        <time>2018-08-25T13:23:44Z</time>
      </trkpt>
      <trkpt lat="42.602690" lon="-8.642361">
        <ele>89.784</ele>
        <time>2018-08-25T13:23:45Z</time>
      </trkpt>
      <trkpt lat="42.602737" lon="-8.642344">
        <ele>88.448</ele>
        <time>2018-08-25T13:23:46Z</time>
      </trkpt>
      <trkpt lat="42.602786" lon="-8.642334">
        <ele>86.685</ele>
        <time>2018-08-25T13:23:47Z</time>
      </trkpt>
      <trkpt lat="42.602839" lon="-8.642319">
        <ele>83.933</ele>
        <time>2018-08-25T13:23:49Z</time>
      </trkpt>
      <trkpt lat="42.602901" lon="-8.642316">
        <ele>82.041</ele>
        <time>2018-08-25T13:23:51Z</time>
      </trkpt>
      <trkpt lat="42.602972" lon="-8.642322">
        <ele>81.021</ele>
        <time>2018-08-25T13:23:53Z</time>
      </trkpt>
      <trkpt lat="42.603045" lon="-8.642330">
        <ele>79.854</ele>
        <time>2018-08-25T13:23:55Z</time>
      </trkpt>
      <trkpt lat="42.603116" lon="-8.642337">
        <ele>78.756</ele>
        <time>2018-08-25T13:23:57Z</time>
      </trkpt>
      <trkpt lat="42.603193" lon="-8.642342">
        <ele>78.211</ele>
        <time>2018-08-25T13:23:59Z</time>
      </trkpt>
      <trkpt lat="42.603303" lon="-8.642344">
        <ele>78.108</ele>
        <time>2018-08-25T13:24:00Z</time>
      </trkpt>
      <trkpt lat="42.603383" lon="-8.642322">
        <ele>77.967</ele>
        <time>2018-08-25T13:24:02Z</time>
      </trkpt>
      <trkpt lat="42.603427" lon="-8.642305">
        <ele>77.713</ele>
        <time>2018-08-25T13:24:03Z</time>
      </trkpt>
      <trkpt lat="42.603503" lon="-8.642281">
        <ele>77.558</ele>
        <time>2018-08-25T13:24:05Z</time>
      </trkpt>
      <trkpt lat="42.603547" lon="-8.642261">
        <ele>77.572</ele>
        <time>2018-08-25T13:24:16Z</time>
      </trkpt>
      <trkpt lat="42.603596" lon="-8.642222">
        <ele>77.749</ele>
        <time>2018-08-25T13:24:19Z</time>
      </trkpt>
      <trkpt lat="42.603636" lon="-8.642188">
        <ele>78.387</ele>
        <time>2018-08-25T13:24:21Z</time>
      </trkpt>
      <trkpt lat="42.603685" lon="-8.642113">
        <ele>79.795</ele>
        <time>2018-08-25T13:24:24Z</time>
      </trkpt>
      <trkpt lat="42.603755" lon="-8.642052">
        <ele>80.765</ele>
        <time>2018-08-25T13:24:26Z</time>
      </trkpt>
      <trkpt lat="42.603852" lon="-8.641980">
        <ele>81.491</ele>
        <time>2018-08-25T13:24:27Z</time>
      </trkpt>
      <trkpt lat="42.603893" lon="-8.641951">
        <ele>82.381</ele>
        <time>2018-08-25T13:24:29Z</time>
      </trkpt>
      <trkpt lat="42.603943" lon="-8.641912">
        <ele>83.719</ele>
        <time>2018-08-25T13:24:31Z</time>
      </trkpt>
      <trkpt lat="42.603999" lon="-8.641900">
        <ele>85.808</ele>
        <time>2018-08-25T13:24:33Z</time>
      </trkpt>
      <trkpt lat="42.604055" lon="-8.641911">
        <ele>88.371</ele>
        <time>2018-08-25T13:24:35Z</time>
      </trkpt>
      <trkpt lat="42.604122" lon="-8.641943">
        <ele>90.577</ele>
        <time>2018-08-25T13:24:37Z</time>
      </trkpt>
      <trkpt lat="42.604193" lon="-8.641996">
        <ele>92.342</ele>
        <time>2018-08-25T13:24:39Z</time>
      </trkpt>
      <trkpt lat="42.604249" lon="-8.642053">
        <ele>93.856</ele>
        <time>2018-08-25T13:24:41Z</time>
      </trkpt>
      <trkpt lat="42.604321" lon="-8.642135">
        <ele>94.883</ele>
        <time>2018-08-25T13:24:42Z</time>
      </trkpt>
      <trkpt lat="42.604382" lon="-8.642198">
        <ele>95.791</ele>
        <time>2018-08-25T13:24:44Z</time>
      </trkpt>
      <trkpt lat="42.604448" lon="-8.642257">
        <ele>96.569</ele>
        <time>2018-08-25T13:24:46Z</time>
      </trkpt>
      <trkpt lat="42.604504" lon="-8.642335">
        <ele>97.259</ele>
        <time>2018-08-25T13:24:48Z</time>
      </trkpt>
      <trkpt lat="42.604573" lon="-8.642402">
        <ele>98.168</ele>
        <time>2018-08-25T13:24:50Z</time>
      </trkpt>
      <trkpt lat="42.604615" lon="-8.642430">
        <ele>98.742</ele>
        <time>2018-08-25T13:24:51Z</time>
      </trkpt>
      <trkpt lat="42.604662" lon="-8.642452">
        <ele>98.626</ele>
        <time>2018-08-25T13:24:52Z</time>
      </trkpt>
      <trkpt lat="42.604738" lon="-8.642512">
        <ele>98.308</ele>
        <time>2018-08-25T13:24:54Z</time>
      </trkpt>
      <trkpt lat="42.604805" lon="-8.642582">
        <ele>98.358</ele>
        <time>2018-08-25T13:24:56Z</time>
      </trkpt>
      <trkpt lat="42.604875" lon="-8.642651">
        <ele>98.734</ele>
        <time>2018-08-25T13:24:58Z</time>
      </trkpt>
      <trkpt lat="42.604955" lon="-8.642707">
        <ele>99.689</ele>
        <time>2018-08-25T13:25:00Z</time>
      </trkpt>
      <trkpt lat="42.604996" lon="-8.642736">
        <ele>100.423</ele>
        <time>2018-08-25T13:25:01Z</time>
      </trkpt>
      <trkpt lat="42.605037" lon="-8.642802">
        <ele>102.490</ele>
        <time>2018-08-25T13:25:03Z</time>
      </trkpt>
      <trkpt lat="42.605090" lon="-8.642842">
        <ele>104.368</ele>
        <time>2018-08-25T13:25:04Z</time>
      </trkpt>
      <trkpt lat="42.605133" lon="-8.642863">
        <ele>106.346</ele>
        <time>2018-08-25T13:25:05Z</time>
      </trkpt>
      <trkpt lat="42.605172" lon="-8.642896">
        <ele>107.946</ele>
        <time>2018-08-25T13:25:06Z</time>
      </trkpt>
      <trkpt lat="42.605224" lon="-8.642943">
        <ele>109.663</ele>
        <time>2018-08-25T13:25:08Z</time>
      </trkpt>
      <trkpt lat="42.605263" lon="-8.642981">
        <ele>111.344</ele>
        <time>2018-08-25T13:25:10Z</time>
      </trkpt>
      <trkpt lat="42.605356" lon="-8.643054">
        <ele>113.118</ele>
        <time>2018-08-25T13:25:12Z</time>
      </trkpt>
      <trkpt lat="42.605402" lon="-8.643100">
        <ele>115.708</ele>
        <time>2018-08-25T13:25:14Z</time>
      </trkpt>
      <trkpt lat="42.605441" lon="-8.643148">
        <ele>117.868</ele>
        <time>2018-08-25T13:25:15Z</time>
      </trkpt>
      <trkpt lat="42.605500" lon="-8.643213">
        <ele>120.114</ele>
        <time>2018-08-25T13:25:17Z</time>
      </trkpt>
      <trkpt lat="42.605562" lon="-8.643289">
        <ele>122.249</ele>
        <time>2018-08-25T13:25:19Z</time>
      </trkpt>
      <trkpt lat="42.605607" lon="-8.643352">
        <ele>123.693</ele>
        <time>2018-08-25T13:25:21Z</time>
      </trkpt>
      <trkpt lat="42.605661" lon="-8.643383">
        <ele>122.410</ele>
        <time>2018-08-25T13:25:23Z</time>
      </trkpt>
      <trkpt lat="42.605783" lon="-8.643447">
        <ele>120.058</ele>
        <time>2018-08-25T13:25:25Z</time>
      </trkpt>
      <trkpt lat="42.605861" lon="-8.643498">
        <ele>117.086</ele>
        <time>2018-08-25T13:25:27Z</time>
      </trkpt>
      <trkpt lat="42.605913" lon="-8.643546">
        <ele>114.676</ele>
        <time>2018-08-25T13:25:29Z</time>
      </trkpt>
      <trkpt lat="42.605960" lon="-8.643591">
        <ele>112.444</ele>
        <time>2018-08-25T13:25:30Z</time>
      </trkpt>
      <trkpt lat="42.606026" lon="-8.643649">
        <ele>110.205</ele>
        <time>2018-08-25T13:25:32Z</time>
      </trkpt>
      <trkpt lat="42.606096" lon="-8.643717">
        <ele>108.115</ele>
        <time>2018-08-25T13:25:34Z</time>
      </trkpt>
      <trkpt lat="42.606144" lon="-8.643769">
        <ele>106.308</ele>
        <time>2018-08-25T13:25:36Z</time>
      </trkpt>
      <trkpt lat="42.606174" lon="-8.643819">
        <ele>104.726</ele>
        <time>2018-08-25T13:25:38Z</time>
      </trkpt>
      <trkpt lat="42.606209" lon="-8.643885">
        <ele>103.192</ele>
        <time>2018-08-25T13:25:40Z</time>
      </trkpt>
      <trkpt lat="42.606247" lon="-8.643953">
        <ele>100.787</ele>
        <time>2018-08-25T13:25:42Z</time>
      </trkpt>
      <trkpt lat="42.606294" lon="-8.644001">
        <ele>99.671</ele>
        <time>2018-08-25T13:25:44Z</time>
      </trkpt>
      <trkpt lat="42.606383" lon="-8.644105">
        <ele>98.628</ele>
        <time>2018-08-25T13:25:46Z</time>
      </trkpt>
      <trkpt lat="42.606451" lon="-8.644170">
        <ele>98.096</ele>
        <time>2018-08-25T13:25:48Z</time>
      </trkpt>
      <trkpt lat="42.606488" lon="-8.644206">
        <ele>97.634</ele>
        <time>2018-08-25T13:25:49Z</time>
      </trkpt>
      <trkpt lat="42.606525" lon="-8.644241">
        <ele>97.334</ele>
        <time>2018-08-25T13:25:51Z</time>
      </trkpt>
      <trkpt lat="42.606574" lon="-8.644290">
        <ele>97.447</ele>
        <time>2018-08-25T13:25:53Z</time>
      </trkpt>
      <trkpt lat="42.606622" lon="-8.644341">
        <ele>97.829</ele>
        <time>2018-08-25T13:25:55Z</time>
      </trkpt>
      <trkpt lat="42.606667" lon="-8.644380">
        <ele>98.221</ele>
        <time>2018-08-25T13:25:57Z</time>
      </trkpt>
      <trkpt lat="42.606722" lon="-8.644420">
        <ele>97.808</ele>
        <time>2018-08-25T13:26:00Z</time>
      </trkpt>
      <trkpt lat="42.606731" lon="-8.644484">
        <ele>96.846</ele>
        <time>2018-08-25T13:26:25Z</time>
      </trkpt>
      <trkpt lat="42.606685" lon="-8.644506">
        <ele>95.552</ele>
        <time>2018-08-25T13:26:39Z</time>
      </trkpt>
      <trkpt lat="42.606649" lon="-8.644548">
        <ele>94.527</ele>
        <time>2018-08-25T13:26:46Z</time>
      </trkpt>
      <trkpt lat="42.606707" lon="-8.644568">
        <ele>93.731</ele>
        <time>2018-08-25T13:26:54Z</time>
      </trkpt>
      <trkpt lat="42.606810" lon="-8.644561">
        <ele>92.418</ele>
        <time>2018-08-25T13:27:06Z</time>
      </trkpt>
      <trkpt lat="42.606822" lon="-8.644479">
        <ele>92.956</ele>
        <time>2018-08-25T13:27:09Z</time>
      </trkpt>
      <trkpt lat="42.606834" lon="-8.644406">
        <ele>93.474</ele>
        <time>2018-08-25T13:27:13Z</time>
      </trkpt>
      <trkpt lat="42.606809" lon="-8.644342">
        <ele>93.784</ele>
        <time>2018-08-25T13:27:20Z</time>
      </trkpt>
      <trkpt lat="42.606750" lon="-8.644285">
        <ele>93.968</ele>
        <time>2018-08-25T13:27:23Z</time>
      </trkpt>
      <trkpt lat="42.606708" lon="-8.644260">
        <ele>94.042</ele>
        <time>2018-08-25T13:27:29Z</time>
      </trkpt>
      <trkpt lat="42.606780" lon="-8.644326">
        <ele>90.026</ele>
        <time>2018-08-25T13:29:58Z</time>
      </trkpt>
      <trkpt lat="42.606200" lon="-8.645469">
        <ele>89.108</ele>
        <time>2018-08-25T13:30:18Z</time>
      </trkpt>
      <trkpt lat="42.606622" lon="-8.644835">
        <ele>93.188</ele>
        <time>2018-08-25T13:30:19Z</time>
      </trkpt>
      <trkpt lat="42.606731" lon="-8.644591">
        <ele>95.034</ele>
        <time>2018-08-25T13:30:25Z</time>
      </trkpt>
      <trkpt lat="42.606776" lon="-8.644523">
        <ele>93.959</ele>
        <time>2018-08-25T13:30:26Z</time>
      </trkpt>
      <trkpt lat="42.606825" lon="-8.644533">
        <ele>93.443</ele>
        <time>2018-08-25T13:30:31Z</time>
      </trkpt>
      <trkpt lat="42.606841" lon="-8.644472">
        <ele>92.110</ele>
        <time>2018-08-25T13:30:55Z</time>
      </trkpt>
      <trkpt lat="42.606795" lon="-8.644460">
        <ele>92.028</ele>
        <time>2018-08-25T13:31:04Z</time>
      </trkpt>
      <trkpt lat="42.606760" lon="-8.644516">
        <ele>92.046</ele>
        <time>2018-08-25T13:31:08Z</time>
      </trkpt>
      <trkpt lat="42.606736" lon="-8.644598">
        <ele>92.116</ele>
        <time>2018-08-25T13:31:13Z</time>
      </trkpt>
      <trkpt lat="42.606723" lon="-8.644667">
        <ele>92.265</ele>
        <time>2018-08-25T13:31:18Z</time>
      </trkpt>
      <trkpt lat="42.606709" lon="-8.644729">
        <ele>92.368</ele>
        <time>2018-08-25T13:31:23Z</time>
      </trkpt>
      <trkpt lat="42.606689" lon="-8.644801">
        <ele>92.414</ele>
        <time>2018-08-25T13:31:28Z</time>
      </trkpt>
      <trkpt lat="42.606641" lon="-8.644939">
        <ele>92.508</ele>
        <time>2018-08-25T13:31:33Z</time>
      </trkpt>
      <trkpt lat="42.606750" lon="-8.644320">
        <ele>88.528</ele>
        <time>2018-08-25T13:32:15Z</time>
      </trkpt>
      <trkpt lat="42.607154" lon="-8.644910">
        <ele>92.524</ele>
        <time>2018-08-25T13:39:28Z</time>
      </trkpt>
      <trkpt lat="42.607189" lon="-8.644981">
        <ele>96.549</ele>
        <time>2018-08-25T13:39:29Z</time>
      </trkpt>
      <trkpt lat="42.607205" lon="-8.645043">
        <ele>100.543</ele>
        <time>2018-08-25T13:39:31Z</time>
      </trkpt>
      <trkpt lat="42.607140" lon="-8.645088">
        <ele>103.590</ele>
        <time>2018-08-25T13:39:33Z</time>
      </trkpt>
      <trkpt lat="42.607092" lon="-8.645083">
        <ele>105.128</ele>
        <time>2018-08-25T13:39:34Z</time>
      </trkpt>
      <trkpt lat="42.607035" lon="-8.645056">
        <ele>103.316</ele>
        <time>2018-08-25T13:39:36Z</time>
      </trkpt>
      <trkpt lat="42.606974" lon="-8.645017">
        <ele>99.366</ele>
        <time>2018-08-25T13:39:39Z</time>
      </trkpt>
      <trkpt lat="42.606928" lon="-8.644980">
        <ele>95.333</ele>
        <time>2018-08-25T13:39:42Z</time>
      </trkpt>
      <trkpt lat="42.606885" lon="-8.644932">
        <ele>91.323</ele>
        <time>2018-08-25T13:39:45Z</time>
      </trkpt>
      <trkpt lat="42.606840" lon="-8.644880">
        <ele>87.315</ele>
        <time>2018-08-25T13:39:47Z</time>
      </trkpt>
      <trkpt lat="42.606795" lon="-8.644820">
        <ele>83.308</ele>
        <time>2018-08-25T13:39:49Z</time>
      </trkpt>
      <trkpt lat="42.606760" lon="-8.644774">
        <ele>79.395</ele>
        <time>2018-08-25T13:39:51Z</time>
      </trkpt>
      <trkpt lat="42.606730" lon="-8.644711">
        <ele>75.361</ele>
        <time>2018-08-25T13:39:55Z</time>
      </trkpt>
      <trkpt lat="42.606703" lon="-8.644661">
        <ele>71.396</ele>
        <time>2018-08-25T13:39:58Z</time>
      </trkpt>
      <trkpt lat="42.606672" lon="-8.644588">
        <ele>67.340</ele>
        <time>2018-08-25T13:40:02Z</time>
      </trkpt>
      <trkpt lat="42.606636" lon="-8.644533">
        <ele>63.377</ele>
        <time>2018-08-25T13:40:04Z</time>
      </trkpt>
      <trkpt lat="42.606593" lon="-8.644449">
        <ele>59.315</ele>
        <time>2018-08-25T13:40:06Z</time>
      </trkpt>
      <trkpt lat="42.606638" lon="-8.644376">
        <ele>63.373</ele>
        <time>2018-08-25T13:40:08Z</time>
      </trkpt>
      <trkpt lat="42.606706" lon="-8.644338">
        <ele>67.393</ele>
        <time>2018-08-25T13:40:09Z</time>
      </trkpt>
      <trkpt lat="42.606810" lon="-8.644282">
        <ele>71.373</ele>
        <time>2018-08-25T13:40:10Z</time>
      </trkpt>
      <trkpt lat="42.606910" lon="-8.644321">
        <ele>75.385</ele>
        <time>2018-08-25T13:40:12Z</time>
      </trkpt>
      <trkpt lat="42.606931" lon="-8.644405">
        <ele>79.313</ele>
        <time>2018-08-25T13:40:15Z</time>
      </trkpt>
      <trkpt lat="42.606897" lon="-8.644482">
        <ele>80.108</ele>
        <time>2018-08-25T13:40:17Z</time>
      </trkpt>
      <trkpt lat="42.606867" lon="-8.644546">
        <ele>80.339</ele>
        <time>2018-08-25T13:40:20Z</time>
      </trkpt>
      <trkpt lat="42.606861" lon="-8.644615">
        <ele>84.315</ele>
        <time>2018-08-25T13:41:09Z</time>
      </trkpt>
      <trkpt lat="42.606870" lon="-8.644686">
        <ele>87.580</ele>
        <time>2018-08-25T13:41:12Z</time>
      </trkpt>
      <trkpt lat="42.606870" lon="-8.644753">
        <ele>89.384</ele>
        <time>2018-08-25T13:41:15Z</time>
      </trkpt>
      <trkpt lat="42.606928" lon="-8.644801">
        <ele>90.511</ele>
        <time>2018-08-25T13:41:19Z</time>
      </trkpt>
      <trkpt lat="42.607009" lon="-8.644828">
        <ele>93.779</ele>
        <time>2018-08-25T13:41:21Z</time>
      </trkpt>
      <trkpt lat="42.607075" lon="-8.644874">
        <ele>95.717</ele>
        <time>2018-08-25T13:41:23Z</time>
      </trkpt>
      <trkpt lat="42.607154" lon="-8.644909">
        <ele>97.337</ele>
        <time>2018-08-25T13:41:26Z</time>
      </trkpt>
      <trkpt lat="42.607200" lon="-8.644912">
        <ele>98.785</ele>
        <time>2018-08-25T13:41:28Z</time>
      </trkpt>
      <trkpt lat="42.607257" lon="-8.644927">
        <ele>98.489</ele>
        <time>2018-08-25T13:41:30Z</time>
      </trkpt>
      <trkpt lat="42.607317" lon="-8.644952">
        <ele>97.617</ele>
        <time>2018-08-25T13:41:32Z</time>
      </trkpt>
      <trkpt lat="42.607370" lon="-8.644984">
        <ele>97.008</ele>
        <time>2018-08-25T13:41:34Z</time>
      </trkpt>
      <trkpt lat="42.607421" lon="-8.645023">
        <ele>96.480</ele>
        <time>2018-08-25T13:41:36Z</time>
      </trkpt>
      <trkpt lat="42.607463" lon="-8.645060">
        <ele>96.066</ele>
        <time>2018-08-25T13:41:38Z</time>
      </trkpt>
      <trkpt lat="42.607507" lon="-8.645095">
        <ele>95.861</ele>
        <time>2018-08-25T13:41:40Z</time>
      </trkpt>
      <trkpt lat="42.607564" lon="-8.645144">
        <ele>97.045</ele>
        <time>2018-08-25T13:41:43Z</time>
      </trkpt>
      <trkpt lat="42.607617" lon="-8.645180">
        <ele>99.332</ele>
        <time>2018-08-25T13:41:46Z</time>
      </trkpt>
      <trkpt lat="42.607671" lon="-8.645201">
        <ele>99.710</ele>
        <time>2018-08-25T13:41:48Z</time>
      </trkpt>
      <trkpt lat="42.607741" lon="-8.645208">
        <ele>98.668</ele>
        <time>2018-08-25T13:41:50Z</time>
      </trkpt>
      <trkpt lat="42.607809" lon="-8.645208">
        <ele>97.168</ele>
        <time>2018-08-25T13:41:52Z</time>
      </trkpt>
      <trkpt lat="42.607865" lon="-8.645204">
        <ele>95.246</ele>
        <time>2018-08-25T13:41:54Z</time>
      </trkpt>
      <trkpt lat="42.607923" lon="-8.645187">
        <ele>93.788</ele>
        <time>2018-08-25T13:41:57Z</time>
      </trkpt>
      <trkpt lat="42.607982" lon="-8.645163">
        <ele>92.516</ele>
        <time>2018-08-25T13:42:00Z</time>
      </trkpt>
      <trkpt lat="42.608037" lon="-8.645154">
        <ele>90.908</ele>
        <time>2018-08-25T13:42:02Z</time>
      </trkpt>
      <trkpt lat="42.608089" lon="-8.645146">
        <ele>89.936</ele>
        <time>2018-08-25T13:42:04Z</time>
      </trkpt>
      <trkpt lat="42.608152" lon="-8.645173">
        <ele>90.422</ele>
        <time>2018-08-25T13:42:07Z</time>
      </trkpt>
      <trkpt lat="42.608173" lon="-8.645234">
        <ele>90.267</ele>
        <time>2018-08-25T13:42:10Z</time>
      </trkpt>
      <trkpt lat="42.608198" lon="-8.645334">
        <ele>90.051</ele>
        <time>2018-08-25T13:42:11Z</time>
      </trkpt>
      <trkpt lat="42.608228" lon="-8.645389">
        <ele>88.438</ele>
        <time>2018-08-25T13:42:13Z</time>
      </trkpt>
      <trkpt lat="42.608271" lon="-8.645453">
        <ele>86.966</ele>
        <time>2018-08-25T13:42:16Z</time>
      </trkpt>
      <trkpt lat="42.608311" lon="-8.645483">
        <ele>86.624</ele>
        <time>2018-08-25T13:42:22Z</time>
      </trkpt>
      <trkpt lat="42.608323" lon="-8.645420">
        <ele>85.784</ele>
        <time>2018-08-25T13:42:29Z</time>
      </trkpt>
      <trkpt lat="42.608335" lon="-8.645354">
        <ele>85.189</ele>
        <time>2018-08-25T13:42:43Z</time>
      </trkpt>
      <trkpt lat="42.608290" lon="-8.645351">
        <ele>86.606</ele>
        <time>2018-08-25T14:33:48Z</time>
      </trkpt>
      <trkpt lat="42.608272" lon="-8.645290">
        <ele>89.826</ele>
        <time>2018-08-25T14:34:53Z</time>
      </trkpt>
      <trkpt lat="42.608279" lon="-8.645222">
        <ele>93.408</ele>
        <time>2018-08-25T14:34:57Z</time>
      </trkpt>
      <trkpt lat="42.608337" lon="-8.645190">
        <ele>96.190</ele>
        <time>2018-08-25T14:35:00Z</time>
      </trkpt>
      <trkpt lat="42.608400" lon="-8.645177">
        <ele>98.556</ele>
        <time>2018-08-25T14:35:03Z</time>
      </trkpt>
      <trkpt lat="42.608454" lon="-8.645159">
        <ele>100.651</ele>
        <time>2018-08-25T14:35:06Z</time>
      </trkpt>
      <trkpt lat="42.608503" lon="-8.645133">
        <ele>102.455</ele>
        <time>2018-08-25T14:35:09Z</time>
      </trkpt>
      <trkpt lat="42.608553" lon="-8.645113">
        <ele>104.132</ele>
        <time>2018-08-25T14:35:12Z</time>
      </trkpt>
      <trkpt lat="42.608605" lon="-8.645107">
        <ele>105.890</ele>
        <time>2018-08-25T14:35:15Z</time>
      </trkpt>
      <trkpt lat="42.608665" lon="-8.645092">
        <ele>106.568</ele>
        <time>2018-08-25T14:35:18Z</time>
      </trkpt>
      <trkpt lat="42.608714" lon="-8.645075">
        <ele>107.378</ele>
        <time>2018-08-25T14:35:21Z</time>
      </trkpt>
      <trkpt lat="42.608764" lon="-8.645053">
        <ele>108.316</ele>
        <time>2018-08-25T14:35:24Z</time>
      </trkpt>
      <trkpt lat="42.608819" lon="-8.645034">
        <ele>109.376</ele>
        <time>2018-08-25T14:35:27Z</time>
      </trkpt>
      <trkpt lat="42.608866" lon="-8.645019">
        <ele>111.413</ele>
        <time>2018-08-25T14:35:30Z</time>
      </trkpt>
      <trkpt lat="42.608916" lon="-8.645012">
        <ele>113.408</ele>
        <time>2018-08-25T14:35:33Z</time>
      </trkpt>
      <trkpt lat="42.608971" lon="-8.645008">
        <ele>115.383</ele>
        <time>2018-08-25T14:35:36Z</time>
      </trkpt>
      <trkpt lat="42.609027" lon="-8.645006">
        <ele>117.489</ele>
        <time>2018-08-25T14:35:39Z</time>
      </trkpt>
      <trkpt lat="42.609077" lon="-8.644995">
        <ele>117.244</ele>
        <time>2018-08-25T14:35:41Z</time>
      </trkpt>
      <trkpt lat="42.609137" lon="-8.644976">
        <ele>115.278</ele>
        <time>2018-08-25T14:35:43Z</time>
      </trkpt>
      <trkpt lat="42.609195" lon="-8.644961">
        <ele>113.565</ele>
        <time>2018-08-25T14:35:45Z</time>
      </trkpt>
      <trkpt lat="42.609254" lon="-8.644947">
        <ele>110.833</ele>
        <time>2018-08-25T14:35:47Z</time>
      </trkpt>
      <trkpt lat="42.609313" lon="-8.644921">
        <ele>107.381</ele>
        <time>2018-08-25T14:35:49Z</time>
      </trkpt>
      <trkpt lat="42.609375" lon="-8.644897">
        <ele>104.941</ele>
        <time>2018-08-25T14:35:51Z</time>
      </trkpt>
      <trkpt lat="42.609436" lon="-8.644870">
        <ele>103.186</ele>
        <time>2018-08-25T14:35:53Z</time>
      </trkpt>
      <trkpt lat="42.609479" lon="-8.644846">
        <ele>101.360</ele>
        <time>2018-08-25T14:35:55Z</time>
      </trkpt>
      <trkpt lat="42.609552" lon="-8.644819">
        <ele>99.126</ele>
        <time>2018-08-25T14:36:18Z</time>
      </trkpt>
      <trkpt lat="42.609589" lon="-8.644780">
        <ele>96.908</ele>
        <time>2018-08-25T14:36:23Z</time>
      </trkpt>
      <trkpt lat="42.609635" lon="-8.644748">
        <ele>95.220</ele>
        <time>2018-08-25T14:36:25Z</time>
      </trkpt>
      <trkpt lat="42.609712" lon="-8.644697">
        <ele>94.076</ele>
        <time>2018-08-25T14:36:26Z</time>
      </trkpt>
      <trkpt lat="42.609764" lon="-8.644655">
        <ele>93.121</ele>
        <time>2018-08-25T14:36:28Z</time>
      </trkpt>
      <trkpt lat="42.609826" lon="-8.644611">
        <ele>92.495</ele>
        <time>2018-08-25T14:36:30Z</time>
      </trkpt>
      <trkpt lat="42.609897" lon="-8.644537">
        <ele>92.142</ele>
        <time>2018-08-25T14:36:32Z</time>
      </trkpt>
      <trkpt lat="42.609934" lon="-8.644501">
        <ele>92.010</ele>
        <time>2018-08-25T14:36:33Z</time>
      </trkpt>
      <trkpt lat="42.609974" lon="-8.644468">
        <ele>91.978</ele>
        <time>2018-08-25T14:36:34Z</time>
      </trkpt>
      <trkpt lat="42.610017" lon="-8.644436">
        <ele>91.778</ele>
        <time>2018-08-25T14:36:35Z</time>
      </trkpt>
      <trkpt lat="42.610065" lon="-8.644405">
        <ele>91.525</ele>
        <time>2018-08-25T14:36:36Z</time>
      </trkpt>
      <trkpt lat="42.610117" lon="-8.644384">
        <ele>91.426</ele>
        <time>2018-08-25T14:36:37Z</time>
      </trkpt>
      <trkpt lat="42.610169" lon="-8.644373">
        <ele>91.208</ele>
        <time>2018-08-25T14:36:38Z</time>
      </trkpt>
      <trkpt lat="42.610223" lon="-8.644369">
        <ele>90.708</ele>
        <time>2018-08-25T14:36:39Z</time>
      </trkpt>
      <trkpt lat="42.610275" lon="-8.644374">
        <ele>90.214</ele>
        <time>2018-08-25T14:36:40Z</time>
      </trkpt>
      <trkpt lat="42.610325" lon="-8.644386">
        <ele>89.710</ele>
        <time>2018-08-25T14:36:41Z</time>
      </trkpt>
      <trkpt lat="42.610373" lon="-8.644396">
        <ele>89.335</ele>
        <time>2018-08-25T14:36:42Z</time>
      </trkpt>
      <trkpt lat="42.610419" lon="-8.644403">
        <ele>89.029</ele>
        <time>2018-08-25T14:36:43Z</time>
      </trkpt>
      <trkpt lat="42.610467" lon="-8.644407">
        <ele>88.836</ele>
        <time>2018-08-25T14:36:44Z</time>
      </trkpt>
      <trkpt lat="42.610551" lon="-8.644416">
        <ele>89.054</ele>
        <time>2018-08-25T14:36:46Z</time>
      </trkpt>
      <trkpt lat="42.610645" lon="-8.644414">
        <ele>89.422</ele>
        <time>2018-08-25T14:36:48Z</time>
      </trkpt>
      <trkpt lat="42.610713" lon="-8.644426">
        <ele>90.092</ele>
        <time>2018-08-25T14:36:51Z</time>
      </trkpt>
      <trkpt lat="42.610763" lon="-8.644438">
        <ele>90.097</ele>
        <time>2018-08-25T14:36:53Z</time>
      </trkpt>
      <trkpt lat="42.610816" lon="-8.644446">
        <ele>89.923</ele>
        <time>2018-08-25T14:36:55Z</time>
      </trkpt>
      <trkpt lat="42.610869" lon="-8.644449">
        <ele>89.725</ele>
        <time>2018-08-25T14:36:57Z</time>
      </trkpt>
      <trkpt lat="42.610918" lon="-8.644448">
        <ele>89.308</ele>
        <time>2018-08-25T14:36:59Z</time>
      </trkpt>
      <trkpt lat="42.610963" lon="-8.644440">
        <ele>88.811</ele>
        <time>2018-08-25T14:37:01Z</time>
      </trkpt>
      <trkpt lat="42.611010" lon="-8.644422">
        <ele>88.357</ele>
        <time>2018-08-25T14:37:03Z</time>
      </trkpt>
      <trkpt lat="42.611063" lon="-8.644398">
        <ele>87.822</ele>
        <time>2018-08-25T14:37:05Z</time>
      </trkpt>
      <trkpt lat="42.611116" lon="-8.644372">
        <ele>87.436</ele>
        <time>2018-08-25T14:37:07Z</time>
      </trkpt>
      <trkpt lat="42.611169" lon="-8.644345">
        <ele>87.053</ele>
        <time>2018-08-25T14:37:09Z</time>
      </trkpt>
      <trkpt lat="42.611223" lon="-8.644316">
        <ele>86.831</ele>
        <time>2018-08-25T14:37:11Z</time>
      </trkpt>
      <trkpt lat="42.611279" lon="-8.644288">
        <ele>86.799</ele>
        <time>2018-08-25T14:37:13Z</time>
      </trkpt>
      <trkpt lat="42.611332" lon="-8.644261">
        <ele>86.779</ele>
        <time>2018-08-25T14:37:15Z</time>
      </trkpt>
      <trkpt lat="42.611386" lon="-8.644229">
        <ele>87.061</ele>
        <time>2018-08-25T14:37:17Z</time>
      </trkpt>
      <trkpt lat="42.611447" lon="-8.644199">
        <ele>86.721</ele>
        <time>2018-08-25T14:37:19Z</time>
      </trkpt>
      <trkpt lat="42.611506" lon="-8.644181">
        <ele>86.313</ele>
        <time>2018-08-25T14:37:21Z</time>
      </trkpt>
      <trkpt lat="42.611566" lon="-8.644168">
        <ele>85.608</ele>
        <time>2018-08-25T14:37:23Z</time>
      </trkpt>
      <trkpt lat="42.611615" lon="-8.644165">
        <ele>84.918</ele>
        <time>2018-08-25T14:37:25Z</time>
      </trkpt>
      <trkpt lat="42.611663" lon="-8.644161">
        <ele>84.514</ele>
        <time>2018-08-25T14:37:27Z</time>
      </trkpt>
      <trkpt lat="42.611717" lon="-8.644158">
        <ele>84.039</ele>
        <time>2018-08-25T14:37:29Z</time>
      </trkpt>
      <trkpt lat="42.611775" lon="-8.644151">
        <ele>83.583</ele>
        <time>2018-08-25T14:37:31Z</time>
      </trkpt>
      <trkpt lat="42.611835" lon="-8.644140">
        <ele>83.340</ele>
        <time>2018-08-25T14:37:33Z</time>
      </trkpt>
      <trkpt lat="42.611889" lon="-8.644132">
        <ele>83.338</ele>
        <time>2018-08-25T14:37:35Z</time>
      </trkpt>
      <trkpt lat="42.611940" lon="-8.644128">
        <ele>83.456</ele>
        <time>2018-08-25T14:37:37Z</time>
      </trkpt>
      <trkpt lat="42.611994" lon="-8.644128">
        <ele>83.616</ele>
        <time>2018-08-25T14:37:39Z</time>
      </trkpt>
      <trkpt lat="42.612048" lon="-8.644130">
        <ele>84.094</ele>
        <time>2018-08-25T14:37:41Z</time>
      </trkpt>
      <trkpt lat="42.612100" lon="-8.644140">
        <ele>84.457</ele>
        <time>2018-08-25T14:37:43Z</time>
      </trkpt>
      <trkpt lat="42.612153" lon="-8.644152">
        <ele>84.422</ele>
        <time>2018-08-25T14:37:45Z</time>
      </trkpt>
      <trkpt lat="42.612205" lon="-8.644166">
        <ele>84.508</ele>
        <time>2018-08-25T14:37:47Z</time>
      </trkpt>
      <trkpt lat="42.612256" lon="-8.644186">
        <ele>84.731</ele>
        <time>2018-08-25T14:37:49Z</time>
      </trkpt>
      <trkpt lat="42.612304" lon="-8.644207">
        <ele>85.077</ele>
        <time>2018-08-25T14:37:51Z</time>
      </trkpt>
      <trkpt lat="42.612349" lon="-8.644227">
        <ele>85.362</ele>
        <time>2018-08-25T14:37:53Z</time>
      </trkpt>
      <trkpt lat="42.612394" lon="-8.644249">
        <ele>85.586</ele>
        <time>2018-08-25T14:37:55Z</time>
      </trkpt>
      <trkpt lat="42.612440" lon="-8.644273">
        <ele>85.643</ele>
        <time>2018-08-25T14:37:57Z</time>
      </trkpt>
      <trkpt lat="42.612485" lon="-8.644294">
        <ele>85.721</ele>
        <time>2018-08-25T14:37:59Z</time>
      </trkpt>
      <trkpt lat="42.612529" lon="-8.644313">
        <ele>85.999</ele>
        <time>2018-08-25T14:38:01Z</time>
      </trkpt>
      <trkpt lat="42.612573" lon="-8.644329">
        <ele>86.189</ele>
        <time>2018-08-25T14:38:03Z</time>
      </trkpt>
      <trkpt lat="42.612618" lon="-8.644346">
        <ele>86.182</ele>
        <time>2018-08-25T14:38:05Z</time>
      </trkpt>
      <trkpt lat="42.612684" lon="-8.644368">
        <ele>86.343</ele>
        <time>2018-08-25T14:38:08Z</time>
      </trkpt>
      <trkpt lat="42.612728" lon="-8.644383">
        <ele>86.317</ele>
        <time>2018-08-25T14:38:10Z</time>
      </trkpt>
      <trkpt lat="42.612773" lon="-8.644398">
        <ele>86.408</ele>
        <time>2018-08-25T14:38:12Z</time>
      </trkpt>
      <trkpt lat="42.612818" lon="-8.644414">
        <ele>86.640</ele>
        <time>2018-08-25T14:38:14Z</time>
      </trkpt>
      <trkpt lat="42.612861" lon="-8.644431">
        <ele>86.786</ele>
        <time>2018-08-25T14:38:16Z</time>
      </trkpt>
      <trkpt lat="42.612926" lon="-8.644455">
        <ele>86.731</ele>
        <time>2018-08-25T14:38:19Z</time>
      </trkpt>
      <trkpt lat="42.612971" lon="-8.644469">
        <ele>86.415</ele>
        <time>2018-08-25T14:38:21Z</time>
      </trkpt>
      <trkpt lat="42.613034" lon="-8.644481">
        <ele>86.782</ele>
        <time>2018-08-25T14:38:24Z</time>
      </trkpt>
      <trkpt lat="42.613090" lon="-8.644497">
        <ele>87.120</ele>
        <time>2018-08-25T14:38:27Z</time>
      </trkpt>
      <trkpt lat="42.613143" lon="-8.644512">
        <ele>87.688</ele>
        <time>2018-08-25T14:38:30Z</time>
      </trkpt>
      <trkpt lat="42.613195" lon="-8.644530">
        <ele>88.348</ele>
        <time>2018-08-25T14:38:33Z</time>
      </trkpt>
      <trkpt lat="42.613242" lon="-8.644542">
        <ele>88.922</ele>
        <time>2018-08-25T14:38:36Z</time>
      </trkpt>
      <trkpt lat="42.613297" lon="-8.644554">
        <ele>89.762</ele>
        <time>2018-08-25T14:38:40Z</time>
      </trkpt>
      <trkpt lat="42.613342" lon="-8.644563">
        <ele>90.408</ele>
        <time>2018-08-25T14:38:43Z</time>
      </trkpt>
      <trkpt lat="42.613406" lon="-8.644573">
        <ele>91.308</ele>
        <time>2018-08-25T14:38:48Z</time>
      </trkpt>
      <trkpt lat="42.613451" lon="-8.644624">
        <ele>92.274</ele>
        <time>2018-08-25T14:38:51Z</time>
      </trkpt>
      <trkpt lat="42.613484" lon="-8.644671">
        <ele>92.880</ele>
        <time>2018-08-25T14:38:53Z</time>
      </trkpt>
      <trkpt lat="42.613512" lon="-8.644720">
        <ele>93.415</ele>
        <time>2018-08-25T14:38:55Z</time>
      </trkpt>
      <trkpt lat="42.613553" lon="-8.644778">
        <ele>93.819</ele>
        <time>2018-08-25T14:38:58Z</time>
      </trkpt>
      <trkpt lat="42.613627" lon="-8.644823">
        <ele>94.726</ele>
        <time>2018-08-25T14:39:46Z</time>
      </trkpt>
      <trkpt lat="42.613678" lon="-8.644841">
        <ele>95.694</ele>
        <time>2018-08-25T14:39:51Z</time>
      </trkpt>
      <trkpt lat="42.613723" lon="-8.644849">
        <ele>96.052</ele>
        <time>2018-08-25T14:39:54Z</time>
      </trkpt>
      <trkpt lat="42.613780" lon="-8.644845">
        <ele>96.332</ele>
        <time>2018-08-25T14:39:58Z</time>
      </trkpt>
      <trkpt lat="42.613826" lon="-8.644847">
        <ele>96.811</ele>
        <time>2018-08-25T14:40:01Z</time>
      </trkpt>
      <trkpt lat="42.613875" lon="-8.644846">
        <ele>97.021</ele>
        <time>2018-08-25T14:40:04Z</time>
      </trkpt>
      <trkpt lat="42.613926" lon="-8.644838">
        <ele>97.403</ele>
        <time>2018-08-25T14:40:07Z</time>
      </trkpt>
      <trkpt lat="42.613975" lon="-8.644830">
        <ele>97.808</ele>
        <time>2018-08-25T14:40:10Z</time>
      </trkpt>
      <trkpt lat="42.614032" lon="-8.644817">
        <ele>98.283</ele>
        <time>2018-08-25T14:40:14Z</time>
      </trkpt>
      <trkpt lat="42.614083" lon="-8.644793">
        <ele>98.589</ele>
        <time>2018-08-25T14:40:17Z</time>
      </trkpt>
      <trkpt lat="42.614151" lon="-8.644762">
        <ele>98.314</ele>
        <time>2018-08-25T14:40:20Z</time>
      </trkpt>
      <trkpt lat="42.614207" lon="-8.644750">
        <ele>98.468</ele>
        <time>2018-08-25T14:40:22Z</time>
      </trkpt>
      <trkpt lat="42.614252" lon="-8.644743">
        <ele>98.465</ele>
        <time>2018-08-25T14:40:24Z</time>
      </trkpt>
      <trkpt lat="42.614301" lon="-8.644735">
        <ele>98.353</ele>
        <time>2018-08-25T14:40:27Z</time>
      </trkpt>
      <trkpt lat="42.614356" lon="-8.644730">
        <ele>98.321</ele>
        <time>2018-08-25T14:40:30Z</time>
      </trkpt>
      <trkpt lat="42.614417" lon="-8.644722">
        <ele>98.621</ele>
        <time>2018-08-25T14:40:33Z</time>
      </trkpt>
      <trkpt lat="42.614476" lon="-8.644712">
        <ele>98.924</ele>
        <time>2018-08-25T14:40:36Z</time>
      </trkpt>
      <trkpt lat="42.614538" lon="-8.644701">
        <ele>99.104</ele>
        <time>2018-08-25T14:40:39Z</time>
      </trkpt>
      <trkpt lat="42.614597" lon="-8.644693">
        <ele>99.314</ele>
        <time>2018-08-25T14:40:42Z</time>
      </trkpt>
      <trkpt lat="42.614655" lon="-8.644686">
        <ele>99.508</ele>
        <time>2018-08-25T14:40:45Z</time>
      </trkpt>
      <trkpt lat="42.614717" lon="-8.644677">
        <ele>99.324</ele>
        <time>2018-08-25T14:40:48Z</time>
      </trkpt>
      <trkpt lat="42.614762" lon="-8.644670">
        <ele>99.170</ele>
        <time>2018-08-25T14:40:50Z</time>
      </trkpt>
      <trkpt lat="42.614813" lon="-8.644659">
        <ele>98.925</ele>
        <time>2018-08-25T14:40:52Z</time>
      </trkpt>
      <trkpt lat="42.614870" lon="-8.644648">
        <ele>98.769</ele>
        <time>2018-08-25T14:40:54Z</time>
      </trkpt>
      <trkpt lat="42.614933" lon="-8.644641">
        <ele>98.616</ele>
        <time>2018-08-25T14:40:56Z</time>
      </trkpt>
      <trkpt lat="42.614996" lon="-8.644638">
        <ele>98.584</ele>
        <time>2018-08-25T14:40:58Z</time>
      </trkpt>
      <trkpt lat="42.615064" lon="-8.644634">
        <ele>98.232</ele>
        <time>2018-08-25T14:41:00Z</time>
      </trkpt>
      <trkpt lat="42.615164" lon="-8.644618">
        <ele>97.892</ele>
        <time>2018-08-25T14:41:01Z</time>
      </trkpt>
      <trkpt lat="42.615239" lon="-8.644602">
        <ele>97.494</ele>
        <time>2018-08-25T14:41:03Z</time>
      </trkpt>
      <trkpt lat="42.615310" lon="-8.644590">
        <ele>97.157</ele>
        <time>2018-08-25T14:41:05Z</time>
      </trkpt>
      <trkpt lat="42.615378" lon="-8.644566">
        <ele>97.022</ele>
        <time>2018-08-25T14:41:08Z</time>
      </trkpt>
      <trkpt lat="42.615427" lon="-8.644549">
        <ele>96.908</ele>
        <time>2018-08-25T14:41:10Z</time>
      </trkpt>
      <trkpt lat="42.615473" lon="-8.644536">
        <ele>96.731</ele>
        <time>2018-08-25T14:41:12Z</time>
      </trkpt>
      <trkpt lat="42.615535" lon="-8.644520">
        <ele>96.487</ele>
        <time>2018-08-25T14:41:15Z</time>
      </trkpt>
      <trkpt lat="42.615591" lon="-8.644507">
        <ele>95.982</ele>
        <time>2018-08-25T14:41:18Z</time>
      </trkpt>
      <trkpt lat="42.615642" lon="-8.644496">
        <ele>95.576</ele>
        <time>2018-08-25T14:41:21Z</time>
      </trkpt>
      <trkpt lat="42.615707" lon="-8.644491">
        <ele>95.663</ele>
        <time>2018-08-25T14:41:24Z</time>
      </trkpt>
      <trkpt lat="42.615763" lon="-8.644490">
        <ele>95.051</ele>
        <time>2018-08-25T14:41:26Z</time>
      </trkpt>
      <trkpt lat="42.615816" lon="-8.644491">
        <ele>94.919</ele>
        <time>2018-08-25T14:41:28Z</time>
      </trkpt>
      <trkpt lat="42.615884" lon="-8.644500">
        <ele>95.359</ele>
        <time>2018-08-25T14:41:31Z</time>
      </trkpt>
      <trkpt lat="42.615948" lon="-8.644508">
        <ele>96.074</ele>
        <time>2018-08-25T14:41:34Z</time>
      </trkpt>
      <trkpt lat="42.615994" lon="-8.644515">
        <ele>96.456</ele>
        <time>2018-08-25T14:41:36Z</time>
      </trkpt>
      <trkpt lat="42.616059" lon="-8.644525">
        <ele>96.921</ele>
        <time>2018-08-25T14:41:39Z</time>
      </trkpt>
      <trkpt lat="42.616106" lon="-8.644545">
        <ele>97.508</ele>
        <time>2018-08-25T14:41:41Z</time>
      </trkpt>
      <trkpt lat="42.616160" lon="-8.644582">
        <ele>98.289</ele>
        <time>2018-08-25T14:41:44Z</time>
      </trkpt>
      <trkpt lat="42.616200" lon="-8.644612">
        <ele>98.755</ele>
        <time>2018-08-25T14:41:47Z</time>
      </trkpt>
      <trkpt lat="42.616246" lon="-8.644610">
        <ele>99.210</ele>
        <time>2018-08-25T14:41:51Z</time>
      </trkpt>
      <trkpt lat="42.616255" lon="-8.644546">
        <ele>99.514</ele>
        <time>2018-08-25T14:42:13Z</time>
      </trkpt>
      <trkpt lat="42.616252" lon="-8.644474">
        <ele>99.841</ele>
        <time>2018-08-25T14:42:21Z</time>
      </trkpt>
      <trkpt lat="42.616260" lon="-8.644538">
        <ele>100.779</ele>
        <time>2018-08-25T14:43:54Z</time>
      </trkpt>
      <trkpt lat="42.616298" lon="-8.644572">
        <ele>101.247</ele>
        <time>2018-08-25T14:43:58Z</time>
      </trkpt>
      <trkpt lat="42.616345" lon="-8.644590">
        <ele>101.677</ele>
        <time>2018-08-25T14:44:04Z</time>
      </trkpt>
      <trkpt lat="42.616390" lon="-8.644578">
        <ele>101.095</ele>
        <time>2018-08-25T14:51:29Z</time>
      </trkpt>
      <trkpt lat="42.616434" lon="-8.644600">
        <ele>99.949</ele>
        <time>2018-08-25T14:51:34Z</time>
      </trkpt>
      <trkpt lat="42.616499" lon="-8.644606">
        <ele>99.123</ele>
        <time>2018-08-25T14:51:37Z</time>
      </trkpt>
      <trkpt lat="42.616563" lon="-8.644637">
        <ele>98.308</ele>
        <time>2018-08-25T14:51:40Z</time>
      </trkpt>
      <trkpt lat="42.616610" lon="-8.644658">
        <ele>97.841</ele>
        <time>2018-08-25T14:51:42Z</time>
      </trkpt>
      <trkpt lat="42.616656" lon="-8.644678">
        <ele>97.517</ele>
        <time>2018-08-25T14:51:44Z</time>
      </trkpt>
      <trkpt lat="42.616714" lon="-8.644702">
        <ele>97.472</ele>
        <time>2018-08-25T14:51:47Z</time>
      </trkpt>
      <trkpt lat="42.616776" lon="-8.644714">
        <ele>97.236</ele>
        <time>2018-08-25T14:51:50Z</time>
      </trkpt>
      <trkpt lat="42.616822" lon="-8.644712">
        <ele>96.973</ele>
        <time>2018-08-25T14:51:52Z</time>
      </trkpt>
      <trkpt lat="42.616873" lon="-8.644715">
        <ele>96.361</ele>
        <time>2018-08-25T14:51:54Z</time>
      </trkpt>
      <trkpt lat="42.616931" lon="-8.644716">
        <ele>95.769</ele>
        <time>2018-08-25T14:51:56Z</time>
      </trkpt>
      <trkpt lat="42.616987" lon="-8.644718">
        <ele>95.349</ele>
        <time>2018-08-25T14:51:58Z</time>
      </trkpt>
      <trkpt lat="42.617038" lon="-8.644715">
        <ele>95.065</ele>
        <time>2018-08-25T14:52:00Z</time>
      </trkpt>
      <trkpt lat="42.617100" lon="-8.644712">
        <ele>94.768</ele>
        <time>2018-08-25T14:52:03Z</time>
      </trkpt>
      <trkpt lat="42.617152" lon="-8.644707">
        <ele>94.614</ele>
        <time>2018-08-25T14:52:06Z</time>
      </trkpt>
      <trkpt lat="42.617217" lon="-8.644705">
        <ele>94.208</ele>
        <time>2018-08-25T14:52:09Z</time>
      </trkpt>
      <trkpt lat="42.617288" lon="-8.644708">
        <ele>93.898</ele>
        <time>2018-08-25T14:52:12Z</time>
      </trkpt>
      <trkpt lat="42.617343" lon="-8.644702">
        <ele>93.684</ele>
        <time>2018-08-25T14:52:14Z</time>
      </trkpt>
      <trkpt lat="42.617396" lon="-8.644698">
        <ele>93.149</ele>
        <time>2018-08-25T14:52:16Z</time>
      </trkpt>
      <trkpt lat="42.617447" lon="-8.644691">
        <ele>92.833</ele>
        <time>2018-08-25T14:52:18Z</time>
      </trkpt>
      <trkpt lat="42.617502" lon="-8.644681">
        <ele>92.780</ele>
        <time>2018-08-25T14:52:20Z</time>
      </trkpt>
      <trkpt lat="42.617558" lon="-8.644668">
        <ele>92.738</ele>
        <time>2018-08-25T14:52:22Z</time>
      </trkpt>
      <trkpt lat="42.617615" lon="-8.644656">
        <ele>92.536</ele>
        <time>2018-08-25T14:52:24Z</time>
      </trkpt>
      <trkpt lat="42.617671" lon="-8.644641">
        <ele>92.336</ele>
        <time>2018-08-25T14:52:26Z</time>
      </trkpt>
      <trkpt lat="42.617730" lon="-8.644630">
        <ele>92.078</ele>
        <time>2018-08-25T14:52:28Z</time>
      </trkpt>
      <trkpt lat="42.617789" lon="-8.644622">
        <ele>91.433</ele>
        <time>2018-08-25T14:52:30Z</time>
      </trkpt>
      <trkpt lat="42.617845" lon="-8.644618">
        <ele>90.826</ele>
        <time>2018-08-25T14:52:32Z</time>
      </trkpt>
      <trkpt lat="42.617901" lon="-8.644617">
        <ele>90.208</ele>
        <time>2018-08-25T14:52:34Z</time>
      </trkpt>
      <trkpt lat="42.617955" lon="-8.644613">
        <ele>89.539</ele>
        <time>2018-08-25T14:52:36Z</time>
      </trkpt>
      <trkpt lat="42.618006" lon="-8.644609">
        <ele>88.895</ele>
        <time>2018-08-25T14:52:38Z</time>
      </trkpt>
      <trkpt lat="42.618057" lon="-8.644603">
        <ele>88.310</ele>
        <time>2018-08-25T14:52:40Z</time>
      </trkpt>
      <trkpt lat="42.618111" lon="-8.644599">
        <ele>87.884</ele>
        <time>2018-08-25T14:52:42Z</time>
      </trkpt>
      <trkpt lat="42.618164" lon="-8.644598">
        <ele>87.331</ele>
        <time>2018-08-25T14:52:44Z</time>
      </trkpt>
      <trkpt lat="42.618230" lon="-8.644595">
        <ele>86.729</ele>
        <time>2018-08-25T14:52:47Z</time>
      </trkpt>
      <trkpt lat="42.618291" lon="-8.644589">
        <ele>86.337</ele>
        <time>2018-08-25T14:52:50Z</time>
      </trkpt>
      <trkpt lat="42.618357" lon="-8.644602">
        <ele>85.537</ele>
        <time>2018-08-25T14:52:53Z</time>
      </trkpt>
      <trkpt lat="42.618405" lon="-8.644615">
        <ele>85.019</ele>
        <time>2018-08-25T14:52:55Z</time>
      </trkpt>
      <trkpt lat="42.618450" lon="-8.644620">
        <ele>84.609</ele>
        <time>2018-08-25T14:52:57Z</time>
      </trkpt>
      <trkpt lat="42.618496" lon="-8.644631">
        <ele>85.019</ele>
        <time>2018-08-25T14:52:59Z</time>
      </trkpt>
      <trkpt lat="42.618580" lon="-8.644644">
        <ele>85.308</ele>
        <time>2018-08-25T14:53:06Z</time>
      </trkpt>
      <trkpt lat="42.618638" lon="-8.644648">
        <ele>85.873</ele>
        <time>2018-08-25T14:53:32Z</time>
      </trkpt>
      <trkpt lat="42.618700" lon="-8.644637">
        <ele>86.129</ele>
        <time>2018-08-25T14:53:35Z</time>
      </trkpt>
      <trkpt lat="42.618749" lon="-8.644625">
        <ele>86.114</ele>
        <time>2018-08-25T14:53:37Z</time>
      </trkpt>
      <trkpt lat="42.618800" lon="-8.644618">
        <ele>85.978</ele>
        <time>2018-08-25T14:53:39Z</time>
      </trkpt>
      <trkpt lat="42.618850" lon="-8.644611">
        <ele>85.765</ele>
        <time>2018-08-25T14:53:41Z</time>
      </trkpt>
      <trkpt lat="42.618899" lon="-8.644621">
        <ele>85.593</ele>
        <time>2018-08-25T14:53:43Z</time>
      </trkpt>
      <trkpt lat="42.618953" lon="-8.644664">
        <ele>85.191</ele>
        <time>2018-08-25T14:53:45Z</time>
      </trkpt>
      <trkpt lat="42.619006" lon="-8.644709">
        <ele>84.741</ele>
        <time>2018-08-25T14:53:47Z</time>
      </trkpt>
      <trkpt lat="42.619067" lon="-8.644743">
        <ele>84.336</ele>
        <time>2018-08-25T14:53:49Z</time>
      </trkpt>
      <trkpt lat="42.619137" lon="-8.644770">
        <ele>83.917</ele>
        <time>2018-08-25T14:53:51Z</time>
      </trkpt>
      <trkpt lat="42.619204" lon="-8.644782">
        <ele>83.418</ele>
        <time>2018-08-25T14:53:53Z</time>
      </trkpt>
      <trkpt lat="42.619285" lon="-8.644784">
        <ele>82.808</ele>
        <time>2018-08-25T14:53:54Z</time>
      </trkpt>
      <trkpt lat="42.619348" lon="-8.644772">
        <ele>81.925</ele>
        <time>2018-08-25T14:53:57Z</time>
      </trkpt>
      <trkpt lat="42.619399" lon="-8.644767">
        <ele>81.161</ele>
        <time>2018-08-25T14:53:59Z</time>
      </trkpt>
      <trkpt lat="42.619450" lon="-8.644762">
        <ele>80.286</ele>
        <time>2018-08-25T14:54:01Z</time>
      </trkpt>
      <trkpt lat="42.619495" lon="-8.644754">
        <ele>79.090</ele>
        <time>2018-08-25T14:54:03Z</time>
      </trkpt>
      <trkpt lat="42.619555" lon="-8.644725">
        <ele>77.767</ele>
        <time>2018-08-25T14:54:06Z</time>
      </trkpt>
      <trkpt lat="42.619611" lon="-8.644686">
        <ele>77.095</ele>
        <time>2018-08-25T14:54:08Z</time>
      </trkpt>
      <trkpt lat="42.619674" lon="-8.644641">
        <ele>76.453</ele>
        <time>2018-08-25T14:54:10Z</time>
      </trkpt>
      <trkpt lat="42.619737" lon="-8.644596">
        <ele>75.673</ele>
        <time>2018-08-25T14:54:12Z</time>
      </trkpt>
      <trkpt lat="42.619794" lon="-8.644555">
        <ele>74.585</ele>
        <time>2018-08-25T14:54:14Z</time>
      </trkpt>
      <trkpt lat="42.619843" lon="-8.644528">
        <ele>73.889</ele>
        <time>2018-08-25T14:54:16Z</time>
      </trkpt>
      <trkpt lat="42.619906" lon="-8.644512">
        <ele>72.317</ele>
        <time>2018-08-25T14:54:19Z</time>
      </trkpt>
      <trkpt lat="42.619961" lon="-8.644499">
        <ele>71.308</ele>
        <time>2018-08-25T14:54:22Z</time>
      </trkpt>
      <trkpt lat="42.620025" lon="-8.644486">
        <ele>70.310</ele>
        <time>2018-08-25T14:54:25Z</time>
      </trkpt>
      <trkpt lat="42.620070" lon="-8.644485">
        <ele>69.566</ele>
        <time>2018-08-25T14:54:27Z</time>
      </trkpt>
      <trkpt lat="42.620117" lon="-8.644489">
        <ele>68.851</ele>
        <time>2018-08-25T14:54:29Z</time>
      </trkpt>
      <trkpt lat="42.620172" lon="-8.644490">
        <ele>68.175</ele>
        <time>2018-08-25T14:54:31Z</time>
      </trkpt>
      <trkpt lat="42.620242" lon="-8.644485">
        <ele>67.422</ele>
        <time>2018-08-25T14:54:33Z</time>
      </trkpt>
      <trkpt lat="42.620288" lon="-8.644480">
        <ele>66.880</ele>
        <time>2018-08-25T14:54:34Z</time>
      </trkpt>
      <trkpt lat="42.620333" lon="-8.644474">
        <ele>66.028</ele>
        <time>2018-08-25T14:54:35Z</time>
      </trkpt>
      <trkpt lat="42.620410" lon="-8.644461">
        <ele>64.758</ele>
        <time>2018-08-25T14:54:37Z</time>
      </trkpt>
      <trkpt lat="42.620470" lon="-8.644449">
        <ele>63.444</ele>
        <time>2018-08-25T14:54:39Z</time>
      </trkpt>
      <trkpt lat="42.620528" lon="-8.644435">
        <ele>62.305</ele>
        <time>2018-08-25T14:54:41Z</time>
      </trkpt>
      <trkpt lat="42.620595" lon="-8.644406">
        <ele>61.215</ele>
        <time>2018-08-25T14:54:44Z</time>
      </trkpt>
      <trkpt lat="42.620653" lon="-8.644381">
        <ele>60.008</ele>
        <time>2018-08-25T14:54:46Z</time>
      </trkpt>
      <trkpt lat="42.620713" lon="-8.644355">
        <ele>59.156</ele>
        <time>2018-08-25T14:54:48Z</time>
      </trkpt>
      <trkpt lat="42.620771" lon="-8.644331">
        <ele>58.182</ele>
        <time>2018-08-25T14:54:50Z</time>
      </trkpt>
      <trkpt lat="42.620817" lon="-8.644307">
        <ele>57.387</ele>
        <time>2018-08-25T14:54:52Z</time>
      </trkpt>
      <trkpt lat="42.620865" lon="-8.644271">
        <ele>57.671</ele>
        <time>2018-08-25T14:54:54Z</time>
      </trkpt>
      <trkpt lat="42.620920" lon="-8.644231">
        <ele>57.688</ele>
        <time>2018-08-25T14:54:56Z</time>
      </trkpt>
      <trkpt lat="42.620980" lon="-8.644192">
        <ele>57.486</ele>
        <time>2018-08-25T14:54:58Z</time>
      </trkpt>
      <trkpt lat="42.621045" lon="-8.644150">
        <ele>56.594</ele>
        <time>2018-08-25T14:55:00Z</time>
      </trkpt>
      <trkpt lat="42.621113" lon="-8.644097">
        <ele>56.264</ele>
        <time>2018-08-25T14:55:02Z</time>
      </trkpt>
      <trkpt lat="42.621179" lon="-8.644056">
        <ele>55.625</ele>
        <time>2018-08-25T14:55:04Z</time>
      </trkpt>
      <trkpt lat="42.621246" lon="-8.644022">
        <ele>55.026</ele>
        <time>2018-08-25T14:55:06Z</time>
      </trkpt>
      <trkpt lat="42.621318" lon="-8.643986">
        <ele>54.508</ele>
        <time>2018-08-25T14:55:08Z</time>
      </trkpt>
      <trkpt lat="42.621390" lon="-8.643948">
        <ele>54.008</ele>
        <time>2018-08-25T14:55:10Z</time>
      </trkpt>
      <trkpt lat="42.621462" lon="-8.643910">
        <ele>54.414</ele>
        <time>2018-08-25T14:55:12Z</time>
      </trkpt>
      <trkpt lat="42.621530" lon="-8.643875">
        <ele>55.260</ele>
        <time>2018-08-25T14:55:14Z</time>
      </trkpt>
      <trkpt lat="42.621592" lon="-8.643847">
        <ele>55.765</ele>
        <time>2018-08-25T14:55:16Z</time>
      </trkpt>
      <trkpt lat="42.621650" lon="-8.643828">
        <ele>55.999</ele>
        <time>2018-08-25T14:55:18Z</time>
      </trkpt>
      <trkpt lat="42.621707" lon="-8.643816">
        <ele>56.166</ele>
        <time>2018-08-25T14:55:20Z</time>
      </trkpt>
      <trkpt lat="42.621771" lon="-8.643800">
        <ele>56.684</ele>
        <time>2018-08-25T14:55:22Z</time>
      </trkpt>
      <trkpt lat="42.621828" lon="-8.643764">
        <ele>57.852</ele>
        <time>2018-08-25T14:55:24Z</time>
      </trkpt>
      <trkpt lat="42.621876" lon="-8.643722">
        <ele>59.262</ele>
        <time>2018-08-25T14:55:26Z</time>
      </trkpt>
      <trkpt lat="42.621921" lon="-8.643686">
        <ele>60.752</ele>
        <time>2018-08-25T14:55:28Z</time>
      </trkpt>
      <trkpt lat="42.621964" lon="-8.643660">
        <ele>62.053</ele>
        <time>2018-08-25T14:55:30Z</time>
      </trkpt>
      <trkpt lat="42.622026" lon="-8.643628">
        <ele>63.408</ele>
        <time>2018-08-25T14:55:33Z</time>
      </trkpt>
      <trkpt lat="42.622079" lon="-8.643608">
        <ele>64.608</ele>
        <time>2018-08-25T14:55:35Z</time>
      </trkpt>
      <trkpt lat="42.622132" lon="-8.643594">
        <ele>65.027</ele>
        <time>2018-08-25T14:55:37Z</time>
      </trkpt>
      <trkpt lat="42.622187" lon="-8.643585">
        <ele>64.993</ele>
        <time>2018-08-25T14:55:39Z</time>
      </trkpt>
      <trkpt lat="42.622242" lon="-8.643584">
        <ele>65.318</ele>
        <time>2018-08-25T14:55:41Z</time>
      </trkpt>
      <trkpt lat="42.622298" lon="-8.643581">
        <ele>65.972</ele>
        <time>2018-08-25T14:55:43Z</time>
      </trkpt>
      <trkpt lat="42.622361" lon="-8.643577">
        <ele>66.279</ele>
        <time>2018-08-25T14:55:45Z</time>
      </trkpt>
      <trkpt lat="42.622429" lon="-8.643574">
        <ele>66.827</ele>
        <time>2018-08-25T14:55:47Z</time>
      </trkpt>
      <trkpt lat="42.622497" lon="-8.643566">
        <ele>67.225</ele>
        <time>2018-08-25T14:55:49Z</time>
      </trkpt>
      <trkpt lat="42.622556" lon="-8.643548">
        <ele>68.195</ele>
        <time>2018-08-25T14:55:51Z</time>
      </trkpt>
      <trkpt lat="42.622602" lon="-8.643529">
        <ele>68.877</ele>
        <time>2018-08-25T14:55:53Z</time>
      </trkpt>
      <trkpt lat="42.622662" lon="-8.643506">
        <ele>69.261</ele>
        <time>2018-08-25T14:55:55Z</time>
      </trkpt>
      <trkpt lat="42.622734" lon="-8.643486">
        <ele>69.527</ele>
        <time>2018-08-25T14:55:57Z</time>
      </trkpt>
      <trkpt lat="42.622812" lon="-8.643471">
        <ele>69.808</ele>
        <time>2018-08-25T14:55:59Z</time>
      </trkpt>
      <trkpt lat="42.622886" lon="-8.643466">
        <ele>70.229</ele>
        <time>2018-08-25T14:56:01Z</time>
      </trkpt>
      <trkpt lat="42.622948" lon="-8.643474">
        <ele>71.045</ele>
        <time>2018-08-25T14:56:03Z</time>
      </trkpt>
      <trkpt lat="42.623003" lon="-8.643495">
        <ele>71.890</ele>
        <time>2018-08-25T14:56:05Z</time>
      </trkpt>
      <trkpt lat="42.623051" lon="-8.643524">
        <ele>72.844</ele>
        <time>2018-08-25T14:56:07Z</time>
      </trkpt>
      <trkpt lat="42.623105" lon="-8.643554">
        <ele>74.431</ele>
        <time>2018-08-25T14:56:09Z</time>
      </trkpt>
      <trkpt lat="42.623162" lon="-8.643581">
        <ele>76.329</ele>
        <time>2018-08-25T14:56:11Z</time>
      </trkpt>
      <trkpt lat="42.623217" lon="-8.643619">
        <ele>78.317</ele>
        <time>2018-08-25T14:56:13Z</time>
      </trkpt>
      <trkpt lat="42.623278" lon="-8.643663">
        <ele>80.077</ele>
        <time>2018-08-25T14:56:15Z</time>
      </trkpt>
      <trkpt lat="42.623345" lon="-8.643701">
        <ele>81.554</ele>
        <time>2018-08-25T14:56:17Z</time>
      </trkpt>
      <trkpt lat="42.623409" lon="-8.643733">
        <ele>82.856</ele>
        <time>2018-08-25T14:56:19Z</time>
      </trkpt>
      <trkpt lat="42.623474" lon="-8.643760">
        <ele>83.711</ele>
        <time>2018-08-25T14:56:21Z</time>
      </trkpt>
      <trkpt lat="42.623545" lon="-8.643790">
        <ele>84.308</ele>
        <time>2018-08-25T14:56:23Z</time>
      </trkpt>
      <trkpt lat="42.623621" lon="-8.643826">
        <ele>84.947</ele>
        <time>2018-08-25T14:56:25Z</time>
      </trkpt>
      <trkpt lat="42.623695" lon="-8.643854">
        <ele>85.523</ele>
        <time>2018-08-25T14:56:27Z</time>
      </trkpt>
      <trkpt lat="42.623766" lon="-8.643872">
        <ele>86.448</ele>
        <time>2018-08-25T14:56:29Z</time>
      </trkpt>
      <trkpt lat="42.623834" lon="-8.643873">
        <ele>88.012</ele>
        <time>2018-08-25T14:56:31Z</time>
      </trkpt>
      <trkpt lat="42.623896" lon="-8.643867">
        <ele>89.149</ele>
        <time>2018-08-25T14:56:33Z</time>
      </trkpt>
      <trkpt lat="42.623958" lon="-8.643860">
        <ele>89.817</ele>
        <time>2018-08-25T14:56:35Z</time>
      </trkpt>
      <trkpt lat="42.624022" lon="-8.643851">
        <ele>90.015</ele>
        <time>2018-08-25T14:56:37Z</time>
      </trkpt>
      <trkpt lat="42.624080" lon="-8.643842">
        <ele>90.375</ele>
        <time>2018-08-25T14:56:39Z</time>
      </trkpt>
      <trkpt lat="42.624139" lon="-8.643835">
        <ele>90.724</ele>
        <time>2018-08-25T14:56:41Z</time>
      </trkpt>
      <trkpt lat="42.624191" lon="-8.643832">
        <ele>90.904</ele>
        <time>2018-08-25T14:56:43Z</time>
      </trkpt>
      <trkpt lat="42.624241" lon="-8.643829">
        <ele>91.414</ele>
        <time>2018-08-25T14:56:45Z</time>
      </trkpt>
      <trkpt lat="42.624291" lon="-8.643832">
        <ele>91.708</ele>
        <time>2018-08-25T14:56:47Z</time>
      </trkpt>
      <trkpt lat="42.624339" lon="-8.643831">
        <ele>92.264</ele>
        <time>2018-08-25T14:56:49Z</time>
      </trkpt>
      <trkpt lat="42.624388" lon="-8.643839">
        <ele>92.730</ele>
        <time>2018-08-25T14:56:51Z</time>
      </trkpt>
      <trkpt lat="42.624442" lon="-8.643845">
        <ele>92.935</ele>
        <time>2018-08-25T14:56:53Z</time>
      </trkpt>
      <trkpt lat="42.624499" lon="-8.643843">
        <ele>93.299</ele>
        <time>2018-08-25T14:56:55Z</time>
      </trkpt>
      <trkpt lat="42.624558" lon="-8.643843">
        <ele>93.246</ele>
        <time>2018-08-25T14:56:57Z</time>
      </trkpt>
      <trkpt lat="42.624616" lon="-8.643846">
        <ele>92.864</ele>
        <time>2018-08-25T14:56:59Z</time>
      </trkpt>
      <trkpt lat="42.624671" lon="-8.643855">
        <ele>92.532</ele>
        <time>2018-08-25T14:57:01Z</time>
      </trkpt>
      <trkpt lat="42.624725" lon="-8.643866">
        <ele>92.162</ele>
        <time>2018-08-25T14:57:03Z</time>
      </trkpt>
      <trkpt lat="42.624779" lon="-8.643881">
        <ele>91.842</ele>
        <time>2018-08-25T14:57:05Z</time>
      </trkpt>
      <trkpt lat="42.624832" lon="-8.643895">
        <ele>91.522</ele>
        <time>2018-08-25T14:57:07Z</time>
      </trkpt>
      <trkpt lat="42.624884" lon="-8.643908">
        <ele>91.014</ele>
        <time>2018-08-25T14:57:09Z</time>
      </trkpt>
      <trkpt lat="42.624937" lon="-8.643921">
        <ele>90.608</ele>
        <time>2018-08-25T14:57:11Z</time>
      </trkpt>
      <trkpt lat="42.624992" lon="-8.643929">
        <ele>90.176</ele>
        <time>2018-08-25T14:57:13Z</time>
      </trkpt>
      <trkpt lat="42.625042" lon="-8.643934">
        <ele>89.712</ele>
        <time>2018-08-25T14:57:15Z</time>
      </trkpt>
      <trkpt lat="42.625112" lon="-8.643937">
        <ele>89.127</ele>
        <time>2018-08-25T14:57:18Z</time>
      </trkpt>
      <trkpt lat="42.625170" lon="-8.643927">
        <ele>89.081</ele>
        <time>2018-08-25T14:57:20Z</time>
      </trkpt>
      <trkpt lat="42.625230" lon="-8.643923">
        <ele>89.198</ele>
        <time>2018-08-25T14:57:22Z</time>
      </trkpt>
      <trkpt lat="42.625287" lon="-8.643920">
        <ele>89.326</ele>
        <time>2018-08-25T14:57:24Z</time>
      </trkpt>
      <trkpt lat="42.625339" lon="-8.643919">
        <ele>89.384</ele>
        <time>2018-08-25T14:57:26Z</time>
      </trkpt>
      <trkpt lat="42.625390" lon="-8.643919">
        <ele>89.364</ele>
        <time>2018-08-25T14:57:28Z</time>
      </trkpt>
      <trkpt lat="42.625438" lon="-8.643915">
        <ele>89.561</ele>
        <time>2018-08-25T14:57:30Z</time>
      </trkpt>
      <trkpt lat="42.625484" lon="-8.643913">
        <ele>89.521</ele>
        <time>2018-08-25T14:57:32Z</time>
      </trkpt>
      <trkpt lat="42.625545" lon="-8.643916">
        <ele>90.213</ele>
        <time>2018-08-25T14:57:35Z</time>
      </trkpt>
      <trkpt lat="42.625603" lon="-8.643927">
        <ele>91.308</ele>
        <time>2018-08-25T14:57:38Z</time>
      </trkpt>
      <trkpt lat="42.625663" lon="-8.643948">
        <ele>92.128</ele>
        <time>2018-08-25T14:57:41Z</time>
      </trkpt>
      <trkpt lat="42.625717" lon="-8.643985">
        <ele>92.744</ele>
        <time>2018-08-25T14:57:44Z</time>
      </trkpt>
      <trkpt lat="42.625767" lon="-8.644021">
        <ele>93.579</ele>
        <time>2018-08-25T14:57:47Z</time>
      </trkpt>
      <trkpt lat="42.625811" lon="-8.644060">
        <ele>94.283</ele>
        <time>2018-08-25T14:57:50Z</time>
      </trkpt>
      <trkpt lat="42.625852" lon="-8.644095">
        <ele>94.740</ele>
        <time>2018-08-25T14:57:53Z</time>
      </trkpt>
      <trkpt lat="42.625891" lon="-8.644133">
        <ele>95.568</ele>
        <time>2018-08-25T14:57:56Z</time>
      </trkpt>
      <trkpt lat="42.625933" lon="-8.644173">
        <ele>96.686</ele>
        <time>2018-08-25T14:57:59Z</time>
      </trkpt>
      <trkpt lat="42.625972" lon="-8.644211">
        <ele>97.326</ele>
        <time>2018-08-25T14:58:03Z</time>
      </trkpt>
      <trkpt lat="42.626027" lon="-8.644239">
        <ele>97.923</ele>
        <time>2018-08-25T14:58:06Z</time>
      </trkpt>
      <trkpt lat="42.626070" lon="-8.644275">
        <ele>98.383</ele>
        <time>2018-08-25T14:58:08Z</time>
      </trkpt>
      <trkpt lat="42.626120" lon="-8.644322">
        <ele>98.511</ele>
        <time>2018-08-25T14:58:10Z</time>
      </trkpt>
      <trkpt lat="42.626172" lon="-8.644398">
        <ele>98.708</ele>
        <time>2018-08-25T14:58:12Z</time>
      </trkpt>
      <trkpt lat="42.626225" lon="-8.644485">
        <ele>98.774</ele>
        <time>2018-08-25T14:58:14Z</time>
      </trkpt>
      <trkpt lat="42.626336" lon="-8.644627">
        <ele>98.910</ele>
        <time>2018-08-25T14:58:16Z</time>
      </trkpt>
      <trkpt lat="42.626373" lon="-8.644668">
        <ele>98.975</ele>
        <time>2018-08-25T14:58:17Z</time>
      </trkpt>
      <trkpt lat="42.626448" lon="-8.644720">
        <ele>98.989</ele>
        <time>2018-08-25T14:58:19Z</time>
      </trkpt>
      <trkpt lat="42.626516" lon="-8.644748">
        <ele>98.956</ele>
        <time>2018-08-25T14:58:22Z</time>
      </trkpt>
      <trkpt lat="42.626574" lon="-8.644762">
        <ele>99.054</ele>
        <time>2018-08-25T14:58:24Z</time>
      </trkpt>
      <trkpt lat="42.626623" lon="-8.644777">
        <ele>99.252</ele>
        <time>2018-08-25T14:58:26Z</time>
      </trkpt>
      <trkpt lat="42.626670" lon="-8.644794">
        <ele>99.512</ele>
        <time>2018-08-25T14:58:28Z</time>
      </trkpt>
      <trkpt lat="42.626720" lon="-8.644811">
        <ele>99.783</ele>
        <time>2018-08-25T14:58:30Z</time>
      </trkpt>
      <trkpt lat="42.626775" lon="-8.644829">
        <ele>100.425</ele>
        <time>2018-08-25T14:58:32Z</time>
      </trkpt>
      <trkpt lat="42.626831" lon="-8.644852">
        <ele>101.117</ele>
        <time>2018-08-25T14:58:34Z</time>
      </trkpt>
      <trkpt lat="42.626886" lon="-8.644866">
        <ele>101.508</ele>
        <time>2018-08-25T14:58:36Z</time>
      </trkpt>
      <trkpt lat="42.626948" lon="-8.644876">
        <ele>101.540</ele>
        <time>2018-08-25T14:58:38Z</time>
      </trkpt>
      <trkpt lat="42.627014" lon="-8.644889">
        <ele>100.946</ele>
        <time>2018-08-25T14:58:40Z</time>
      </trkpt>
      <trkpt lat="42.627092" lon="-8.644901">
        <ele>99.811</ele>
        <time>2018-08-25T14:58:42Z</time>
      </trkpt>
      <trkpt lat="42.627167" lon="-8.644912">
        <ele>99.185</ele>
        <time>2018-08-25T14:58:44Z</time>
      </trkpt>
      <trkpt lat="42.627236" lon="-8.644920">
        <ele>99.072</ele>
        <time>2018-08-25T14:58:46Z</time>
      </trkpt>
      <trkpt lat="42.627296" lon="-8.644929">
        <ele>98.880</ele>
        <time>2018-08-25T14:58:48Z</time>
      </trkpt>
      <trkpt lat="42.627350" lon="-8.644941">
        <ele>98.998</ele>
        <time>2018-08-25T14:58:50Z</time>
      </trkpt>
      <trkpt lat="42.627402" lon="-8.644955">
        <ele>99.148</ele>
        <time>2018-08-25T14:58:52Z</time>
      </trkpt>
      <trkpt lat="42.627451" lon="-8.644973">
        <ele>99.482</ele>
        <time>2018-08-25T14:58:54Z</time>
      </trkpt>
      <trkpt lat="42.627499" lon="-8.644994">
        <ele>99.643</ele>
        <time>2018-08-25T14:58:56Z</time>
      </trkpt>
      <trkpt lat="42.627542" lon="-8.645015">
        <ele>100.117</ele>
        <time>2018-08-25T14:58:58Z</time>
      </trkpt>
      <trkpt lat="42.627587" lon="-8.645035">
        <ele>101.108</ele>
        <time>2018-08-25T14:59:00Z</time>
      </trkpt>
      <trkpt lat="42.627639" lon="-8.645058">
        <ele>101.870</ele>
        <time>2018-08-25T14:59:02Z</time>
      </trkpt>
      <trkpt lat="42.627698" lon="-8.645077">
        <ele>102.546</ele>
        <time>2018-08-25T14:59:04Z</time>
      </trkpt>
      <trkpt lat="42.627759" lon="-8.645093">
        <ele>103.331</ele>
        <time>2018-08-25T14:59:06Z</time>
      </trkpt>
      <trkpt lat="42.627821" lon="-8.645101">
        <ele>104.155</ele>
        <time>2018-08-25T14:59:08Z</time>
      </trkpt>
      <trkpt lat="42.627885" lon="-8.645101">
        <ele>104.452</ele>
        <time>2018-08-25T14:59:10Z</time>
      </trkpt>
      <trkpt lat="42.627948" lon="-8.645097">
        <ele>104.430</ele>
        <time>2018-08-25T14:59:12Z</time>
      </trkpt>
      <trkpt lat="42.628008" lon="-8.645095">
        <ele>104.478</ele>
        <time>2018-08-25T14:59:14Z</time>
      </trkpt>
      <trkpt lat="42.628065" lon="-8.645092">
        <ele>104.268</ele>
        <time>2018-08-25T14:59:16Z</time>
      </trkpt>
      <trkpt lat="42.628121" lon="-8.645087">
        <ele>103.987</ele>
        <time>2018-08-25T14:59:18Z</time>
      </trkpt>
      <trkpt lat="42.628174" lon="-8.645085">
        <ele>103.742</ele>
        <time>2018-08-25T14:59:20Z</time>
      </trkpt>
      <trkpt lat="42.628228" lon="-8.645087">
        <ele>103.426</ele>
        <time>2018-08-25T14:59:22Z</time>
      </trkpt>
      <trkpt lat="42.628285" lon="-8.645088">
        <ele>103.208</ele>
        <time>2018-08-25T14:59:24Z</time>
      </trkpt>
      <trkpt lat="42.628342" lon="-8.645087">
        <ele>103.560</ele>
        <time>2018-08-25T14:59:26Z</time>
      </trkpt>
      <trkpt lat="42.628399" lon="-8.645084">
        <ele>103.946</ele>
        <time>2018-08-25T14:59:28Z</time>
      </trkpt>
      <trkpt lat="42.628453" lon="-8.645073">
        <ele>104.391</ele>
        <time>2018-08-25T14:59:30Z</time>
      </trkpt>
      <trkpt lat="42.628507" lon="-8.645063">
        <ele>104.765</ele>
        <time>2018-08-25T14:59:32Z</time>
      </trkpt>
      <trkpt lat="42.628560" lon="-8.645058">
        <ele>105.652</ele>
        <time>2018-08-25T14:59:34Z</time>
      </trkpt>
      <trkpt lat="42.628608" lon="-8.645059">
        <ele>106.490</ele>
        <time>2018-08-25T14:59:36Z</time>
      </trkpt>
      <trkpt lat="42.628657" lon="-8.645067">
        <ele>107.338</ele>
        <time>2018-08-25T14:59:38Z</time>
      </trkpt>
      <trkpt lat="42.628711" lon="-8.645078">
        <ele>108.368</ele>
        <time>2018-08-25T14:59:40Z</time>
      </trkpt>
      <trkpt lat="42.628768" lon="-8.645079">
        <ele>109.494</ele>
        <time>2018-08-25T14:59:42Z</time>
      </trkpt>
      <trkpt lat="42.628820" lon="-8.645076">
        <ele>110.257</ele>
        <time>2018-08-25T14:59:44Z</time>
      </trkpt>
      <trkpt lat="42.628881" lon="-8.645080">
        <ele>110.822</ele>
        <time>2018-08-25T14:59:46Z</time>
      </trkpt>
      <trkpt lat="42.628959" lon="-8.645078">
        <ele>111.108</ele>
        <time>2018-08-25T14:59:48Z</time>
      </trkpt>
      <trkpt lat="42.629043" lon="-8.645061">
        <ele>110.651</ele>
        <time>2018-08-25T14:59:50Z</time>
      </trkpt>
      <trkpt lat="42.629112" lon="-8.645053">
        <ele>110.427</ele>
        <time>2018-08-25T14:59:52Z</time>
      </trkpt>
      <trkpt lat="42.629175" lon="-8.645051">
        <ele>110.542</ele>
        <time>2018-08-25T14:59:54Z</time>
      </trkpt>
      <trkpt lat="42.629234" lon="-8.645048">
        <ele>110.756</ele>
        <time>2018-08-25T14:59:56Z</time>
      </trkpt>
      <trkpt lat="42.629293" lon="-8.645034">
        <ele>110.723</ele>
        <time>2018-08-25T14:59:58Z</time>
      </trkpt>
      <trkpt lat="42.629352" lon="-8.645021">
        <ele>109.971</ele>
        <time>2018-08-25T15:00:00Z</time>
      </trkpt>
      <trkpt lat="42.629408" lon="-8.645015">
        <ele>109.329</ele>
        <time>2018-08-25T15:00:02Z</time>
      </trkpt>
      <trkpt lat="42.629471" lon="-8.645021">
        <ele>108.289</ele>
        <time>2018-08-25T15:00:04Z</time>
      </trkpt>
      <trkpt lat="42.629541" lon="-8.645029">
        <ele>107.268</ele>
        <time>2018-08-25T15:00:06Z</time>
      </trkpt>
      <trkpt lat="42.629602" lon="-8.645032">
        <ele>106.042</ele>
        <time>2018-08-25T15:00:08Z</time>
      </trkpt>
      <trkpt lat="42.629656" lon="-8.645036">
        <ele>104.726</ele>
        <time>2018-08-25T15:00:10Z</time>
      </trkpt>
      <trkpt lat="42.629701" lon="-8.645038">
        <ele>103.608</ele>
        <time>2018-08-25T15:00:12Z</time>
      </trkpt>
      <trkpt lat="42.629749" lon="-8.645038">
        <ele>102.798</ele>
        <time>2018-08-25T15:00:14Z</time>
      </trkpt>
      <trkpt lat="42.629809" lon="-8.645021">
        <ele>101.414</ele>
        <time>2018-08-25T15:00:16Z</time>
      </trkpt>
      <trkpt lat="42.629879" lon="-8.644995">
        <ele>100.639</ele>
        <time>2018-08-25T15:00:18Z</time>
      </trkpt>
      <trkpt lat="42.629952" lon="-8.644971">
        <ele>100.333</ele>
        <time>2018-08-25T15:00:20Z</time>
      </trkpt>
      <trkpt lat="42.630022" lon="-8.644954">
        <ele>100.390</ele>
        <time>2018-08-25T15:00:22Z</time>
      </trkpt>
      <trkpt lat="42.630166" lon="-8.644907">
        <ele>100.138</ele>
        <time>2018-08-25T15:00:24Z</time>
      </trkpt>
      <trkpt lat="42.630210" lon="-8.644882">
        <ele>99.826</ele>
        <time>2018-08-25T15:00:25Z</time>
      </trkpt>
      <trkpt lat="42.630295" lon="-8.644856">
        <ele>99.496</ele>
        <time>2018-08-25T15:00:27Z</time>
      </trkpt>
      <trkpt lat="42.630356" lon="-8.644839">
        <ele>99.249</ele>
        <time>2018-08-25T15:00:30Z</time>
      </trkpt>
      <trkpt lat="42.630405" lon="-8.644836">
        <ele>98.902</ele>
        <time>2018-08-25T15:01:23Z</time>
      </trkpt>
      <trkpt lat="42.630460" lon="-8.644825">
        <ele>98.722</ele>
        <time>2018-08-25T15:01:28Z</time>
      </trkpt>
      <trkpt lat="42.630509" lon="-8.644805">
        <ele>98.208</ele>
        <time>2018-08-25T15:01:31Z</time>
      </trkpt>
      <trkpt lat="42.630552" lon="-8.644781">
        <ele>97.666</ele>
        <time>2018-08-25T15:01:34Z</time>
      </trkpt>
      <trkpt lat="42.630589" lon="-8.644744">
        <ele>96.852</ele>
        <time>2018-08-25T15:01:37Z</time>
      </trkpt>
      <trkpt lat="42.630633" lon="-8.644710">
        <ele>96.527</ele>
        <time>2018-08-25T15:01:40Z</time>
      </trkpt>
      <trkpt lat="42.630691" lon="-8.644696">
        <ele>96.591</ele>
        <time>2018-08-25T15:01:43Z</time>
      </trkpt>
      <trkpt lat="42.630736" lon="-8.644682">
        <ele>96.498</ele>
        <time>2018-08-25T15:01:45Z</time>
      </trkpt>
      <trkpt lat="42.630780" lon="-8.644667">
        <ele>96.456</ele>
        <time>2018-08-25T15:01:47Z</time>
      </trkpt>
      <trkpt lat="42.630844" lon="-8.644634">
        <ele>96.514</ele>
        <time>2018-08-25T15:01:50Z</time>
      </trkpt>
      <trkpt lat="42.630894" lon="-8.644617">
        <ele>96.974</ele>
        <time>2018-08-25T15:01:52Z</time>
      </trkpt>
      <trkpt lat="42.630944" lon="-8.644604">
        <ele>97.456</ele>
        <time>2018-08-25T15:01:54Z</time>
      </trkpt>
      <trkpt lat="42.631002" lon="-8.644600">
        <ele>97.859</ele>
        <time>2018-08-25T15:01:56Z</time>
      </trkpt>
      <trkpt lat="42.631060" lon="-8.644603">
        <ele>98.214</ele>
        <time>2018-08-25T15:01:58Z</time>
      </trkpt>
      <trkpt lat="42.631112" lon="-8.644605">
        <ele>98.708</ele>
        <time>2018-08-25T15:02:00Z</time>
      </trkpt>
      <trkpt lat="42.631164" lon="-8.644609">
        <ele>99.547</ele>
        <time>2018-08-25T15:02:02Z</time>
      </trkpt>
      <trkpt lat="42.631215" lon="-8.644613">
        <ele>100.013</ele>
        <time>2018-08-25T15:02:04Z</time>
      </trkpt>
      <trkpt lat="42.631263" lon="-8.644612">
        <ele>100.718</ele>
        <time>2018-08-25T15:02:06Z</time>
      </trkpt>
      <trkpt lat="42.631310" lon="-8.644606">
        <ele>101.192</ele>
        <time>2018-08-25T15:02:08Z</time>
      </trkpt>
      <trkpt lat="42.631357" lon="-8.644599">
        <ele>101.359</ele>
        <time>2018-08-25T15:02:10Z</time>
      </trkpt>
      <trkpt lat="42.631405" lon="-8.644583">
        <ele>101.867</ele>
        <time>2018-08-25T15:02:12Z</time>
      </trkpt>
      <trkpt lat="42.631463" lon="-8.644573">
        <ele>101.555</ele>
        <time>2018-08-25T15:02:15Z</time>
      </trkpt>
      <trkpt lat="42.631515" lon="-8.644571">
        <ele>101.315</ele>
        <time>2018-08-25T15:02:18Z</time>
      </trkpt>
      <trkpt lat="42.631561" lon="-8.644561">
        <ele>101.476</ele>
        <time>2018-08-25T15:02:21Z</time>
      </trkpt>
      <trkpt lat="42.631610" lon="-8.644542">
        <ele>101.690</ele>
        <time>2018-08-25T15:02:24Z</time>
      </trkpt>
      <trkpt lat="42.631663" lon="-8.644521">
        <ele>101.619</ele>
        <time>2018-08-25T15:02:27Z</time>
      </trkpt>
      <trkpt lat="42.631715" lon="-8.644491">
        <ele>101.708</ele>
        <time>2018-08-25T15:02:30Z</time>
      </trkpt>
      <trkpt lat="42.631766" lon="-8.644475">
        <ele>101.779</ele>
        <time>2018-08-25T15:02:33Z</time>
      </trkpt>
      <trkpt lat="42.631821" lon="-8.644481">
        <ele>102.145</ele>
        <time>2018-08-25T15:02:36Z</time>
      </trkpt>
      <trkpt lat="42.631879" lon="-8.644507">
        <ele>104.890</ele>
        <time>2018-08-25T15:02:39Z</time>
      </trkpt>
      <trkpt lat="42.631930" lon="-8.644545">
        <ele>104.254</ele>
        <time>2018-08-25T15:02:41Z</time>
      </trkpt>
      <trkpt lat="42.631976" lon="-8.644588">
        <ele>103.671</ele>
        <time>2018-08-25T15:02:43Z</time>
      </trkpt>
      <trkpt lat="42.632016" lon="-8.644631">
        <ele>104.159</ele>
        <time>2018-08-25T15:02:45Z</time>
      </trkpt>
      <trkpt lat="42.632050" lon="-8.644671">
        <ele>104.777</ele>
        <time>2018-08-25T15:02:47Z</time>
      </trkpt>
      <trkpt lat="42.632090" lon="-8.644715">
        <ele>105.027</ele>
        <time>2018-08-25T15:02:50Z</time>
      </trkpt>
      <trkpt lat="42.632137" lon="-8.644760">
        <ele>105.544</ele>
        <time>2018-08-25T15:02:53Z</time>
      </trkpt>
      <trkpt lat="42.632185" lon="-8.644825">
        <ele>106.005</ele>
        <time>2018-08-25T15:02:56Z</time>
      </trkpt>
      <trkpt lat="42.632223" lon="-8.644886">
        <ele>106.715</ele>
        <time>2018-08-25T15:02:59Z</time>
      </trkpt>
      <trkpt lat="42.632255" lon="-8.644937">
        <ele>107.308</ele>
        <time>2018-08-25T15:03:02Z</time>
      </trkpt>
      <trkpt lat="42.632295" lon="-8.644985">
        <ele>108.096</ele>
        <time>2018-08-25T15:03:05Z</time>
      </trkpt>
      <trkpt lat="42.632337" lon="-8.645040">
        <ele>108.782</ele>
        <time>2018-08-25T15:03:08Z</time>
      </trkpt>
      <trkpt lat="42.632382" lon="-8.645087">
        <ele>109.687</ele>
        <time>2018-08-25T15:03:11Z</time>
      </trkpt>
      <trkpt lat="42.632433" lon="-8.645114">
        <ele>110.781</ele>
        <time>2018-08-25T15:03:14Z</time>
      </trkpt>
      <trkpt lat="42.632488" lon="-8.645115">
        <ele>111.918</ele>
        <time>2018-08-25T15:03:17Z</time>
      </trkpt>
      <trkpt lat="42.632539" lon="-8.645104">
        <ele>113.116</ele>
        <time>2018-08-25T15:03:20Z</time>
      </trkpt>
      <trkpt lat="42.632596" lon="-8.645083">
        <ele>113.924</ele>
        <time>2018-08-25T15:03:24Z</time>
      </trkpt>
      <trkpt lat="42.632647" lon="-8.645077">
        <ele>114.814</ele>
        <time>2018-08-25T15:03:27Z</time>
      </trkpt>
      <trkpt lat="42.632699" lon="-8.645070">
        <ele>115.593</ele>
        <time>2018-08-25T15:03:30Z</time>
      </trkpt>
      <trkpt lat="42.632754" lon="-8.645064">
        <ele>116.065</ele>
        <time>2018-08-25T15:03:33Z</time>
      </trkpt>
      <trkpt lat="42.632815" lon="-8.645062">
        <ele>116.221</ele>
        <time>2018-08-25T15:03:36Z</time>
      </trkpt>
      <trkpt lat="42.632873" lon="-8.645063">
        <ele>116.808</ele>
        <time>2018-08-25T15:03:39Z</time>
      </trkpt>
      <trkpt lat="42.632922" lon="-8.645064">
        <ele>118.051</ele>
        <time>2018-08-25T15:03:42Z</time>
      </trkpt>
      <trkpt lat="42.632970" lon="-8.645058">
        <ele>119.337</ele>
        <time>2018-08-25T15:03:45Z</time>
      </trkpt>
      <trkpt lat="42.633021" lon="-8.645046">
        <ele>120.442</ele>
        <time>2018-08-25T15:03:48Z</time>
      </trkpt>
      <trkpt lat="42.633068" lon="-8.645028">
        <ele>121.226</ele>
        <time>2018-08-25T15:03:51Z</time>
      </trkpt>
      <trkpt lat="42.633116" lon="-8.645005">
        <ele>121.973</ele>
        <time>2018-08-25T15:03:54Z</time>
      </trkpt>
      <trkpt lat="42.633174" lon="-8.644980">
        <ele>122.951</ele>
        <time>2018-08-25T15:03:57Z</time>
      </trkpt>
      <trkpt lat="42.633234" lon="-8.644961">
        <ele>123.669</ele>
        <time>2018-08-25T15:04:00Z</time>
      </trkpt>
      <trkpt lat="42.633292" lon="-8.644946">
        <ele>124.229</ele>
        <time>2018-08-25T15:04:03Z</time>
      </trkpt>
      <trkpt lat="42.633348" lon="-8.644931">
        <ele>124.923</ele>
        <time>2018-08-25T15:04:06Z</time>
      </trkpt>
      <trkpt lat="42.633419" lon="-8.644917">
        <ele>125.783</ele>
        <time>2018-08-25T15:04:09Z</time>
      </trkpt>
      <trkpt lat="42.633474" lon="-8.644903">
        <ele>126.311</ele>
        <time>2018-08-25T15:04:11Z</time>
      </trkpt>
      <trkpt lat="42.633530" lon="-8.644887">
        <ele>126.608</ele>
        <time>2018-08-25T15:04:13Z</time>
      </trkpt>
      <trkpt lat="42.633581" lon="-8.644872">
        <ele>127.194</ele>
        <time>2018-08-25T15:04:15Z</time>
      </trkpt>
      <trkpt lat="42.633627" lon="-8.644857">
        <ele>127.720</ele>
        <time>2018-08-25T15:04:17Z</time>
      </trkpt>
      <trkpt lat="42.633686" lon="-8.644839">
        <ele>128.355</ele>
        <time>2018-08-25T15:04:20Z</time>
      </trkpt>
      <trkpt lat="42.633737" lon="-8.644824">
        <ele>128.699</ele>
        <time>2018-08-25T15:04:23Z</time>
      </trkpt>
      <trkpt lat="42.633782" lon="-8.644815">
        <ele>129.126</ele>
        <time>2018-08-25T15:04:25Z</time>
      </trkpt>
      <trkpt lat="42.633845" lon="-8.644806">
        <ele>129.334</ele>
        <time>2018-08-25T15:04:28Z</time>
      </trkpt>
      <trkpt lat="42.633909" lon="-8.644791">
        <ele>128.992</ele>
        <time>2018-08-25T15:04:31Z</time>
      </trkpt>
      <trkpt lat="42.633953" lon="-8.644771">
        <ele>128.792</ele>
        <time>2018-08-25T15:04:33Z</time>
      </trkpt>
      <trkpt lat="42.633997" lon="-8.644747">
        <ele>128.774</ele>
        <time>2018-08-25T15:04:35Z</time>
      </trkpt>
      <trkpt lat="42.634059" lon="-8.644718">
        <ele>128.756</ele>
        <time>2018-08-25T15:04:38Z</time>
      </trkpt>
      <trkpt lat="42.634115" lon="-8.644704">
        <ele>128.421</ele>
        <time>2018-08-25T15:04:40Z</time>
      </trkpt>
      <trkpt lat="42.634167" lon="-8.644691">
        <ele>128.308</ele>
        <time>2018-08-25T15:04:42Z</time>
      </trkpt>
      <trkpt lat="42.634218" lon="-8.644674">
        <ele>128.689</ele>
        <time>2018-08-25T15:04:44Z</time>
      </trkpt>
      <trkpt lat="42.634263" lon="-8.644658">
        <ele>129.725</ele>
        <time>2018-08-25T15:04:46Z</time>
      </trkpt>
      <trkpt lat="42.634322" lon="-8.644638">
        <ele>130.620</ele>
        <time>2018-08-25T15:04:49Z</time>
      </trkpt>
      <trkpt lat="42.634373" lon="-8.644628">
        <ele>131.074</ele>
        <time>2018-08-25T15:04:51Z</time>
      </trkpt>
      <trkpt lat="42.634437" lon="-8.644613">
        <ele>131.191</ele>
        <time>2018-08-25T15:04:53Z</time>
      </trkpt>
      <trkpt lat="42.634504" lon="-8.644600">
        <ele>131.279</ele>
        <time>2018-08-25T15:04:55Z</time>
      </trkpt>
      <trkpt lat="42.634570" lon="-8.644587">
        <ele>131.287</ele>
        <time>2018-08-25T15:04:57Z</time>
      </trkpt>
      <trkpt lat="42.634635" lon="-8.644570">
        <ele>131.557</ele>
        <time>2018-08-25T15:04:59Z</time>
      </trkpt>
      <trkpt lat="42.634701" lon="-8.644560">
        <ele>131.646</ele>
        <time>2018-08-25T15:05:01Z</time>
      </trkpt>
      <trkpt lat="42.634781" lon="-8.644560">
        <ele>131.188</ele>
        <time>2018-08-25T15:05:03Z</time>
      </trkpt>
      <trkpt lat="42.634860" lon="-8.644554">
        <ele>132.316</ele>
        <time>2018-08-25T15:05:05Z</time>
      </trkpt>
      <trkpt lat="42.634935" lon="-8.644551">
        <ele>133.008</ele>
        <time>2018-08-25T15:05:07Z</time>
      </trkpt>
      <trkpt lat="42.635016" lon="-8.644555">
        <ele>132.966</ele>
        <time>2018-08-25T15:05:09Z</time>
      </trkpt>
      <trkpt lat="42.635095" lon="-8.644565">
        <ele>132.362</ele>
        <time>2018-08-25T15:05:11Z</time>
      </trkpt>
      <trkpt lat="42.635167" lon="-8.644565">
        <ele>131.747</ele>
        <time>2018-08-25T15:05:13Z</time>
      </trkpt>
      <trkpt lat="42.635239" lon="-8.644564">
        <ele>131.171</ele>
        <time>2018-08-25T15:05:15Z</time>
      </trkpt>
      <trkpt lat="42.635314" lon="-8.644570">
        <ele>130.178</ele>
        <time>2018-08-25T15:05:17Z</time>
      </trkpt>
      <trkpt lat="42.635396" lon="-8.644574">
        <ele>129.436</ele>
        <time>2018-08-25T15:05:19Z</time>
      </trkpt>
      <trkpt lat="42.635470" lon="-8.644571">
        <ele>129.934</ele>
        <time>2018-08-25T15:05:21Z</time>
      </trkpt>
      <trkpt lat="42.635540" lon="-8.644565">
        <ele>130.874</ele>
        <time>2018-08-25T15:05:23Z</time>
      </trkpt>
      <trkpt lat="42.635601" lon="-8.644561">
        <ele>131.777</ele>
        <time>2018-08-25T15:05:25Z</time>
      </trkpt>
      <trkpt lat="42.635662" lon="-8.644558">
        <ele>132.061</ele>
        <time>2018-08-25T15:05:27Z</time>
      </trkpt>
      <trkpt lat="42.635728" lon="-8.644555">
        <ele>132.227</ele>
        <time>2018-08-25T15:05:29Z</time>
      </trkpt>
      <trkpt lat="42.635796" lon="-8.644552">
        <ele>132.608</ele>
        <time>2018-08-25T15:05:31Z</time>
      </trkpt>
      <trkpt lat="42.635863" lon="-8.644561">
        <ele>132.359</ele>
        <time>2018-08-25T15:05:33Z</time>
      </trkpt>
      <trkpt lat="42.635934" lon="-8.644568">
        <ele>132.045</ele>
        <time>2018-08-25T15:05:35Z</time>
      </trkpt>
      <trkpt lat="42.636006" lon="-8.644564">
        <ele>132.110</ele>
        <time>2018-08-25T15:05:37Z</time>
      </trkpt>
      <trkpt lat="42.636075" lon="-8.644557">
        <ele>132.434</ele>
        <time>2018-08-25T15:05:39Z</time>
      </trkpt>
      <trkpt lat="42.636143" lon="-8.644550">
        <ele>133.041</ele>
        <time>2018-08-25T15:05:41Z</time>
      </trkpt>
      <trkpt lat="42.636210" lon="-8.644540">
        <ele>133.939</ele>
        <time>2018-08-25T15:05:43Z</time>
      </trkpt>
      <trkpt lat="42.636332" lon="-8.644529">
        <ele>134.447</ele>
        <time>2018-08-25T15:05:45Z</time>
      </trkpt>
      <trkpt lat="42.636403" lon="-8.644549">
        <ele>134.377</ele>
        <time>2018-08-25T15:05:48Z</time>
      </trkpt>
      <trkpt lat="42.636465" lon="-8.644555">
        <ele>134.564</ele>
        <time>2018-08-25T15:05:50Z</time>
      </trkpt>
      <trkpt lat="42.636533" lon="-8.644559">
        <ele>134.606</ele>
        <time>2018-08-25T15:05:52Z</time>
      </trkpt>
      <trkpt lat="42.636602" lon="-8.644572">
        <ele>134.216</ele>
        <time>2018-08-25T15:05:54Z</time>
      </trkpt>
      <trkpt lat="42.636671" lon="-8.644589">
        <ele>133.508</ele>
        <time>2018-08-25T15:05:56Z</time>
      </trkpt>
      <trkpt lat="42.636739" lon="-8.644604">
        <ele>132.798</ele>
        <time>2018-08-25T15:05:58Z</time>
      </trkpt>
      <trkpt lat="42.636804" lon="-8.644612">
        <ele>132.234</ele>
        <time>2018-08-25T15:06:00Z</time>
      </trkpt>
      <trkpt lat="42.636855" lon="-8.644611">
        <ele>131.629</ele>
        <time>2018-08-25T15:06:02Z</time>
      </trkpt>
      <trkpt lat="42.636910" lon="-8.644623">
        <ele>130.083</ele>
        <time>2018-08-25T15:06:06Z</time>
      </trkpt>
      <trkpt lat="42.636952" lon="-8.644650">
        <ele>127.480</ele>
        <time>2018-08-25T15:06:09Z</time>
      </trkpt>
      <trkpt lat="42.637015" lon="-8.644665">
        <ele>126.018</ele>
        <time>2018-08-25T15:25:58Z</time>
      </trkpt>
      <trkpt lat="42.637035" lon="-8.644721">
        <ele>124.416</ele>
        <time>2018-08-25T15:28:49Z</time>
      </trkpt>
      <trkpt lat="42.637084" lon="-8.644740">
        <ele>123.946</ele>
        <time>2018-08-25T15:48:43Z</time>
      </trkpt>
      <trkpt lat="42.637126" lon="-8.644701">
        <ele>123.414</ele>
        <time>2018-08-25T15:48:46Z</time>
      </trkpt>
      <trkpt lat="42.637166" lon="-8.644665">
        <ele>122.954</ele>
        <time>2018-08-25T15:48:49Z</time>
      </trkpt>
      <trkpt lat="42.637209" lon="-8.644633">
        <ele>122.209</ele>
        <time>2018-08-25T15:48:53Z</time>
      </trkpt>
      <trkpt lat="42.637253" lon="-8.644616">
        <ele>121.808</ele>
        <time>2018-08-25T15:48:56Z</time>
      </trkpt>
      <trkpt lat="42.637303" lon="-8.644607">
        <ele>121.383</ele>
        <time>2018-08-25T15:48:59Z</time>
      </trkpt>
      <trkpt lat="42.637351" lon="-8.644596">
        <ele>120.649</ele>
        <time>2018-08-25T15:49:02Z</time>
      </trkpt>
      <trkpt lat="42.637400" lon="-8.644590">
        <ele>119.834</ele>
        <time>2018-08-25T15:49:05Z</time>
      </trkpt>
      <trkpt lat="42.637457" lon="-8.644596">
        <ele>119.138</ele>
        <time>2018-08-25T15:49:09Z</time>
      </trkpt>
      <trkpt lat="42.637510" lon="-8.644601">
        <ele>118.895</ele>
        <time>2018-08-25T15:49:12Z</time>
      </trkpt>
      <trkpt lat="42.637572" lon="-8.644612">
        <ele>118.273</ele>
        <time>2018-08-25T15:49:15Z</time>
      </trkpt>
      <trkpt lat="42.637634" lon="-8.644636">
        <ele>117.781</ele>
        <time>2018-08-25T15:49:18Z</time>
      </trkpt>
      <trkpt lat="42.637692" lon="-8.644650">
        <ele>117.531</ele>
        <time>2018-08-25T15:49:21Z</time>
      </trkpt>
      <trkpt lat="42.637749" lon="-8.644654">
        <ele>117.939</ele>
        <time>2018-08-25T15:49:25Z</time>
      </trkpt>
      <trkpt lat="42.637810" lon="-8.644656">
        <ele>118.101</ele>
        <time>2018-08-25T15:49:29Z</time>
      </trkpt>
      <trkpt lat="42.637866" lon="-8.644653">
        <ele>118.321</ele>
        <time>2018-08-25T15:49:32Z</time>
      </trkpt>
      <trkpt lat="42.637932" lon="-8.644659">
        <ele>118.508</ele>
        <time>2018-08-25T15:49:35Z</time>
      </trkpt>
      <trkpt lat="42.637977" lon="-8.644670">
        <ele>118.745</ele>
        <time>2018-08-25T15:49:37Z</time>
      </trkpt>
      <trkpt lat="42.638030" lon="-8.644674">
        <ele>119.091</ele>
        <time>2018-08-25T15:49:39Z</time>
      </trkpt>
      <trkpt lat="42.638079" lon="-8.644675">
        <ele>119.286</ele>
        <time>2018-08-25T15:49:41Z</time>
      </trkpt>
      <trkpt lat="42.638138" lon="-8.644670">
        <ele>119.630</ele>
        <time>2018-08-25T15:49:44Z</time>
      </trkpt>
      <trkpt lat="42.638186" lon="-8.644675">
        <ele>120.087</ele>
        <time>2018-08-25T15:49:47Z</time>
      </trkpt>
      <trkpt lat="42.638231" lon="-8.644679">
        <ele>120.485</ele>
        <time>2018-08-25T15:49:50Z</time>
      </trkpt>
      <trkpt lat="42.638290" lon="-8.644670">
        <ele>120.823</ele>
        <time>2018-08-25T15:49:53Z</time>
      </trkpt>
      <trkpt lat="42.638339" lon="-8.644648">
        <ele>120.773</ele>
        <time>2018-08-25T15:49:55Z</time>
      </trkpt>
      <trkpt lat="42.638386" lon="-8.644620">
        <ele>120.767</ele>
        <time>2018-08-25T15:49:57Z</time>
      </trkpt>
      <trkpt lat="42.638438" lon="-8.644578">
        <ele>119.881</ele>
        <time>2018-08-25T15:50:00Z</time>
      </trkpt>
      <trkpt lat="42.638489" lon="-8.644545">
        <ele>119.119</ele>
        <time>2018-08-25T15:50:03Z</time>
      </trkpt>
      <trkpt lat="42.638540" lon="-8.644522">
        <ele>119.008</ele>
        <time>2018-08-25T15:50:06Z</time>
      </trkpt>
      <trkpt lat="42.638597" lon="-8.644497">
        <ele>118.728</ele>
        <time>2018-08-25T15:50:09Z</time>
      </trkpt>
      <trkpt lat="42.638652" lon="-8.644471">
        <ele>118.784</ele>
        <time>2018-08-25T15:50:12Z</time>
      </trkpt>
      <trkpt lat="42.638699" lon="-8.644453">
        <ele>118.999</ele>
        <time>2018-08-25T15:50:15Z</time>
      </trkpt>
      <trkpt lat="42.638746" lon="-8.644445">
        <ele>118.653</ele>
        <time>2018-08-25T15:50:18Z</time>
      </trkpt>
      <trkpt lat="42.638804" lon="-8.644433">
        <ele>118.620</ele>
        <time>2018-08-25T15:50:21Z</time>
      </trkpt>
      <trkpt lat="42.638864" lon="-8.644428">
        <ele>118.678</ele>
        <time>2018-08-25T15:50:24Z</time>
      </trkpt>
      <trkpt lat="42.638924" lon="-8.644433">
        <ele>118.876</ele>
        <time>2018-08-25T15:50:27Z</time>
      </trkpt>
      <trkpt lat="42.638969" lon="-8.644430">
        <ele>118.826</ele>
        <time>2018-08-25T15:50:29Z</time>
      </trkpt>
      <trkpt lat="42.639016" lon="-8.644421">
        <ele>119.061</ele>
        <time>2018-08-25T15:50:31Z</time>
      </trkpt>
      <trkpt lat="42.639079" lon="-8.644395">
        <ele>119.521</ele>
        <time>2018-08-25T15:50:34Z</time>
      </trkpt>
      <trkpt lat="42.639131" lon="-8.644368">
        <ele>119.413</ele>
        <time>2018-08-25T15:50:37Z</time>
      </trkpt>
      <trkpt lat="42.639180" lon="-8.644337">
        <ele>119.608</ele>
        <time>2018-08-25T15:50:40Z</time>
      </trkpt>
      <trkpt lat="42.639223" lon="-8.644313">
        <ele>119.328</ele>
        <time>2018-08-25T15:50:42Z</time>
      </trkpt>
      <trkpt lat="42.639270" lon="-8.644289">
        <ele>119.064</ele>
        <time>2018-08-25T15:50:44Z</time>
      </trkpt>
      <trkpt lat="42.639316" lon="-8.644268">
        <ele>118.869</ele>
        <time>2018-08-25T15:50:46Z</time>
      </trkpt>
      <trkpt lat="42.639374" lon="-8.644240">
        <ele>118.573</ele>
        <time>2018-08-25T15:50:49Z</time>
      </trkpt>
      <trkpt lat="42.639429" lon="-8.644223">
        <ele>118.450</ele>
        <time>2018-08-25T15:50:52Z</time>
      </trkpt>
      <trkpt lat="42.639485" lon="-8.644200">
        <ele>119.058</ele>
        <time>2018-08-25T15:50:55Z</time>
      </trkpt>
      <trkpt lat="42.639541" lon="-8.644179">
        <ele>120.026</ele>
        <time>2018-08-25T15:50:58Z</time>
      </trkpt>
      <trkpt lat="42.639592" lon="-8.644151">
        <ele>120.156</ele>
        <time>2018-08-25T15:51:01Z</time>
      </trkpt>
      <trkpt lat="42.639639" lon="-8.644107">
        <ele>120.947</ele>
        <time>2018-08-25T15:51:04Z</time>
      </trkpt>
      <trkpt lat="42.639684" lon="-8.644053">
        <ele>122.229</ele>
        <time>2018-08-25T15:51:07Z</time>
      </trkpt>
      <trkpt lat="42.639717" lon="-8.644006">
        <ele>122.821</ele>
        <time>2018-08-25T15:51:10Z</time>
      </trkpt>
      <trkpt lat="42.639754" lon="-8.643947">
        <ele>122.608</ele>
        <time>2018-08-25T15:51:13Z</time>
      </trkpt>
      <trkpt lat="42.639818" lon="-8.643841">
        <ele>121.916</ele>
        <time>2018-08-25T15:51:15Z</time>
      </trkpt>
      <trkpt lat="42.639869" lon="-8.643760">
        <ele>121.572</ele>
        <time>2018-08-25T15:51:17Z</time>
      </trkpt>
      <trkpt lat="42.639938" lon="-8.643701">
        <ele>121.087</ele>
        <time>2018-08-25T15:51:19Z</time>
      </trkpt>
      <trkpt lat="42.640006" lon="-8.643644">
        <ele>120.611</ele>
        <time>2018-08-25T15:51:21Z</time>
      </trkpt>
      <trkpt lat="42.640066" lon="-8.643602">
        <ele>120.168</ele>
        <time>2018-08-25T15:51:24Z</time>
      </trkpt>
      <trkpt lat="42.640113" lon="-8.643568">
        <ele>119.896</ele>
        <time>2018-08-25T15:51:26Z</time>
      </trkpt>
      <trkpt lat="42.640165" lon="-8.643531">
        <ele>119.724</ele>
        <time>2018-08-25T15:51:28Z</time>
      </trkpt>
      <trkpt lat="42.640220" lon="-8.643495">
        <ele>119.814</ele>
        <time>2018-08-25T15:51:30Z</time>
      </trkpt>
      <trkpt lat="42.640272" lon="-8.643467">
        <ele>119.836</ele>
        <time>2018-08-25T15:51:32Z</time>
      </trkpt>
      <trkpt lat="42.640320" lon="-8.643440">
        <ele>120.117</ele>
        <time>2018-08-25T15:51:34Z</time>
      </trkpt>
      <trkpt lat="42.640363" lon="-8.643413">
        <ele>120.818</ele>
        <time>2018-08-25T15:51:36Z</time>
      </trkpt>
      <trkpt lat="42.640419" lon="-8.643377">
        <ele>121.408</ele>
        <time>2018-08-25T15:51:39Z</time>
      </trkpt>
      <trkpt lat="42.640477" lon="-8.643345">
        <ele>121.955</ele>
        <time>2018-08-25T15:51:42Z</time>
      </trkpt>
      <trkpt lat="42.640535" lon="-8.643320">
        <ele>122.491</ele>
        <time>2018-08-25T15:51:45Z</time>
      </trkpt>
      <trkpt lat="42.640581" lon="-8.643300">
        <ele>122.966</ele>
        <time>2018-08-25T15:51:48Z</time>
      </trkpt>
      <trkpt lat="42.640630" lon="-8.643285">
        <ele>123.680</ele>
        <time>2018-08-25T15:51:51Z</time>
      </trkpt>
      <trkpt lat="42.640683" lon="-8.643267">
        <ele>124.347</ele>
        <time>2018-08-25T15:51:54Z</time>
      </trkpt>
      <trkpt lat="42.640727" lon="-8.643249">
        <ele>125.135</ele>
        <time>2018-08-25T15:51:57Z</time>
      </trkpt>
      <trkpt lat="42.640779" lon="-8.643219">
        <ele>125.773</ele>
        <time>2018-08-25T15:52:00Z</time>
      </trkpt>
      <trkpt lat="42.640833" lon="-8.643197">
        <ele>126.343</ele>
        <time>2018-08-25T15:52:03Z</time>
      </trkpt>
      <trkpt lat="42.640888" lon="-8.643181">
        <ele>126.651</ele>
        <time>2018-08-25T15:52:06Z</time>
      </trkpt>
      <trkpt lat="42.640934" lon="-8.643172">
        <ele>126.801</ele>
        <time>2018-08-25T15:52:09Z</time>
      </trkpt>
      <trkpt lat="42.640978" lon="-8.643162">
        <ele>126.611</ele>
        <time>2018-08-25T15:52:13Z</time>
      </trkpt>
      <trkpt lat="42.641028" lon="-8.643118">
        <ele>127.108</ele>
        <time>2018-08-25T15:52:17Z</time>
      </trkpt>
      <trkpt lat="42.641072" lon="-8.643093">
        <ele>127.647</ele>
        <time>2018-08-25T15:52:20Z</time>
      </trkpt>
      <trkpt lat="42.641117" lon="-8.643087">
        <ele>127.913</ele>
        <time>2018-08-25T15:52:23Z</time>
      </trkpt>
      <trkpt lat="42.641163" lon="-8.643073">
        <ele>128.188</ele>
        <time>2018-08-25T15:52:27Z</time>
      </trkpt>
      <trkpt lat="42.641218" lon="-8.643051">
        <ele>128.552</ele>
        <time>2018-08-25T15:52:32Z</time>
      </trkpt>
      <trkpt lat="42.641268" lon="-8.643033">
        <ele>128.959</ele>
        <time>2018-08-25T15:52:36Z</time>
      </trkpt>
      <trkpt lat="42.641321" lon="-8.643021">
        <ele>129.157</ele>
        <time>2018-08-25T15:52:40Z</time>
      </trkpt>
      <trkpt lat="42.641373" lon="-8.643004">
        <ele>129.115</ele>
        <time>2018-08-25T15:52:44Z</time>
      </trkpt>
      <trkpt lat="42.641423" lon="-8.642987">
        <ele>130.235</ele>
        <time>2018-08-25T15:52:48Z</time>
      </trkpt>
      <trkpt lat="42.641473" lon="-8.642973">
        <ele>132.651</ele>
        <time>2018-08-25T15:52:52Z</time>
      </trkpt>
      <trkpt lat="42.641526" lon="-8.642968">
        <ele>135.301</ele>
        <time>2018-08-25T15:52:57Z</time>
      </trkpt>
      <trkpt lat="42.641571" lon="-8.642974">
        <ele>137.311</ele>
        <time>2018-08-25T15:53:04Z</time>
      </trkpt>
      <trkpt lat="42.641622" lon="-8.642962">
        <ele>138.608</ele>
        <time>2018-08-25T15:53:09Z</time>
      </trkpt>
      <trkpt lat="42.641673" lon="-8.642955">
        <ele>140.137</ele>
        <time>2018-08-25T15:53:14Z</time>
      </trkpt>
      <trkpt lat="42.641720" lon="-8.642949">
        <ele>141.543</ele>
        <time>2018-08-25T15:53:19Z</time>
      </trkpt>
      <trkpt lat="42.641772" lon="-8.642945">
        <ele>143.158</ele>
        <time>2018-08-25T15:53:26Z</time>
      </trkpt>
      <trkpt lat="42.641826" lon="-8.642951">
        <ele>144.442</ele>
        <time>2018-08-25T15:53:32Z</time>
      </trkpt>
      <trkpt lat="42.641873" lon="-8.642957">
        <ele>145.649</ele>
        <time>2018-08-25T15:53:37Z</time>
      </trkpt>
      <trkpt lat="42.641917" lon="-8.642966">
        <ele>147.327</ele>
        <time>2018-08-25T15:53:43Z</time>
      </trkpt>
      <trkpt lat="42.641961" lon="-8.643003">
        <ele>149.055</ele>
        <time>2018-08-25T15:53:49Z</time>
      </trkpt>
      <trkpt lat="42.642011" lon="-8.643009">
        <ele>150.885</ele>
        <time>2018-08-25T15:53:53Z</time>
      </trkpt>
      <trkpt lat="42.642063" lon="-8.643029">
        <ele>152.853</ele>
        <time>2018-08-25T15:54:06Z</time>
      </trkpt>
      <trkpt lat="42.642109" lon="-8.643025">
        <ele>154.204</ele>
        <time>2018-08-25T15:54:14Z</time>
      </trkpt>
      <trkpt lat="42.642158" lon="-8.643011">
        <ele>154.614</ele>
        <time>2018-08-25T15:54:22Z</time>
      </trkpt>
      <trkpt lat="42.642222" lon="-8.642994">
        <ele>154.408</ele>
        <time>2018-08-25T15:54:29Z</time>
      </trkpt>
      <trkpt lat="42.642268" lon="-8.643004">
        <ele>154.477</ele>
        <time>2018-08-25T15:54:36Z</time>
      </trkpt>
      <trkpt lat="42.642327" lon="-8.643021">
        <ele>155.253</ele>
        <time>2018-08-25T15:54:41Z</time>
      </trkpt>
      <trkpt lat="42.642374" lon="-8.643015">
        <ele>156.188</ele>
        <time>2018-08-25T15:54:44Z</time>
      </trkpt>
      <trkpt lat="42.642425" lon="-8.643004">
        <ele>157.152</ele>
        <time>2018-08-25T15:54:47Z</time>
      </trkpt>
      <trkpt lat="42.642473" lon="-8.643003">
        <ele>158.079</ele>
        <time>2018-08-25T15:54:50Z</time>
      </trkpt>
      <trkpt lat="42.642517" lon="-8.643015">
        <ele>157.637</ele>
        <time>2018-08-25T15:54:53Z</time>
      </trkpt>
      <trkpt lat="42.642577" lon="-8.643061">
        <ele>157.025</ele>
        <time>2018-08-25T15:54:56Z</time>
      </trkpt>
      <trkpt lat="42.642615" lon="-8.643102">
        <ele>156.195</ele>
        <time>2018-08-25T15:54:58Z</time>
      </trkpt>
      <trkpt lat="42.642647" lon="-8.643149">
        <ele>155.367</ele>
        <time>2018-08-25T15:55:00Z</time>
      </trkpt>
      <trkpt lat="42.642678" lon="-8.643195">
        <ele>154.581</ele>
        <time>2018-08-25T15:55:02Z</time>
      </trkpt>
      <trkpt lat="42.642709" lon="-8.643239">
        <ele>154.319</ele>
        <time>2018-08-25T15:55:04Z</time>
      </trkpt>
      <trkpt lat="42.642751" lon="-8.643299">
        <ele>153.808</ele>
        <time>2018-08-25T15:55:07Z</time>
      </trkpt>
      <trkpt lat="42.642795" lon="-8.643342">
        <ele>153.478</ele>
        <time>2018-08-25T15:55:10Z</time>
      </trkpt>
      <trkpt lat="42.642846" lon="-8.643360">
        <ele>153.224</ele>
        <time>2018-08-25T15:55:13Z</time>
      </trkpt>
      <trkpt lat="42.642893" lon="-8.643370">
        <ele>153.279</ele>
        <time>2018-08-25T15:55:16Z</time>
      </trkpt>
      <trkpt lat="42.642939" lon="-8.643377">
        <ele>153.943</ele>
        <time>2018-08-25T15:55:19Z</time>
      </trkpt>
      <trkpt lat="42.642999" lon="-8.643375">
        <ele>155.110</ele>
        <time>2018-08-25T15:55:23Z</time>
      </trkpt>
      <trkpt lat="42.643044" lon="-8.643371">
        <ele>156.228</ele>
        <time>2018-08-25T15:55:26Z</time>
      </trkpt>
      <trkpt lat="42.643090" lon="-8.643367">
        <ele>157.426</ele>
        <time>2018-08-25T15:55:29Z</time>
      </trkpt>
      <trkpt lat="42.643136" lon="-8.643369">
        <ele>158.716</ele>
        <time>2018-08-25T15:55:32Z</time>
      </trkpt>
      <trkpt lat="42.643184" lon="-8.643366">
        <ele>160.273</ele>
        <time>2018-08-25T15:55:35Z</time>
      </trkpt>
      <trkpt lat="42.643243" lon="-8.643375">
        <ele>161.885</ele>
        <time>2018-08-25T15:55:39Z</time>
      </trkpt>
      <trkpt lat="42.643302" lon="-8.643374">
        <ele>163.713</ele>
        <time>2018-08-25T15:55:43Z</time>
      </trkpt>
      <trkpt lat="42.643358" lon="-8.643371">
        <ele>165.508</ele>
        <time>2018-08-25T15:55:46Z</time>
      </trkpt>
      <trkpt lat="42.643413" lon="-8.643363">
        <ele>167.369</ele>
        <time>2018-08-25T15:55:49Z</time>
      </trkpt>
      <trkpt lat="42.643460" lon="-8.643358">
        <ele>169.065</ele>
        <time>2018-08-25T15:55:52Z</time>
      </trkpt>
      <trkpt lat="42.643507" lon="-8.643359">
        <ele>170.510</ele>
        <time>2018-08-25T15:55:55Z</time>
      </trkpt>
      <trkpt lat="42.643561" lon="-8.643351">
        <ele>171.584</ele>
        <time>2018-08-25T15:55:58Z</time>
      </trkpt>
      <trkpt lat="42.643621" lon="-8.643348">
        <ele>172.261</ele>
        <time>2018-08-25T15:56:01Z</time>
      </trkpt>
      <trkpt lat="42.643680" lon="-8.643342">
        <ele>172.129</ele>
        <time>2018-08-25T15:56:04Z</time>
      </trkpt>
      <trkpt lat="42.643739" lon="-8.643331">
        <ele>171.557</ele>
        <time>2018-08-25T15:56:07Z</time>
      </trkpt>
      <trkpt lat="42.643798" lon="-8.643308">
        <ele>171.427</ele>
        <time>2018-08-25T15:56:10Z</time>
      </trkpt>
      <trkpt lat="42.643862" lon="-8.643300">
        <ele>171.495</ele>
        <time>2018-08-25T15:56:13Z</time>
      </trkpt>
      <trkpt lat="42.643925" lon="-8.643288">
        <ele>171.549</ele>
        <time>2018-08-25T15:56:16Z</time>
      </trkpt>
      <trkpt lat="42.643980" lon="-8.643270">
        <ele>171.823</ele>
        <time>2018-08-25T15:56:19Z</time>
      </trkpt>
      <trkpt lat="42.644032" lon="-8.643253">
        <ele>172.108</ele>
        <time>2018-08-25T15:56:22Z</time>
      </trkpt>
      <trkpt lat="42.644077" lon="-8.643237">
        <ele>172.731</ele>
        <time>2018-08-25T15:56:25Z</time>
      </trkpt>
      <trkpt lat="42.644135" lon="-8.643226">
        <ele>173.297</ele>
        <time>2018-08-25T15:56:29Z</time>
      </trkpt>
      <trkpt lat="42.644191" lon="-8.643218">
        <ele>173.642</ele>
        <time>2018-08-25T15:56:32Z</time>
      </trkpt>
      <trkpt lat="42.644259" lon="-8.643212">
        <ele>173.866</ele>
        <time>2018-08-25T15:56:35Z</time>
      </trkpt>
      <trkpt lat="42.644309" lon="-8.643206">
        <ele>174.013</ele>
        <time>2018-08-25T15:56:37Z</time>
      </trkpt>
      <trkpt lat="42.644354" lon="-8.643197">
        <ele>174.281</ele>
        <time>2018-08-25T15:56:39Z</time>
      </trkpt>
      <trkpt lat="42.644413" lon="-8.643182">
        <ele>174.479</ele>
        <time>2018-08-25T15:56:42Z</time>
      </trkpt>
      <trkpt lat="42.644466" lon="-8.643181">
        <ele>174.879</ele>
        <time>2018-08-25T15:56:45Z</time>
      </trkpt>
      <trkpt lat="42.644525" lon="-8.643182">
        <ele>175.575</ele>
        <time>2018-08-25T15:56:49Z</time>
      </trkpt>
      <trkpt lat="42.644582" lon="-8.643182">
        <ele>176.428</ele>
        <time>2018-08-25T15:56:53Z</time>
      </trkpt>
      <trkpt lat="42.644639" lon="-8.643195">
        <ele>177.620</ele>
        <time>2018-08-25T15:56:57Z</time>
      </trkpt>
      <trkpt lat="42.644690" lon="-8.643210">
        <ele>178.508</ele>
        <time>2018-08-25T15:57:00Z</time>
      </trkpt>
      <trkpt lat="42.644744" lon="-8.643229">
        <ele>178.729</ele>
        <time>2018-08-25T15:57:03Z</time>
      </trkpt>
      <trkpt lat="42.644792" lon="-8.643245">
        <ele>178.415</ele>
        <time>2018-08-25T15:57:06Z</time>
      </trkpt>
      <trkpt lat="42.644837" lon="-8.643262">
        <ele>178.040</ele>
        <time>2018-08-25T15:57:10Z</time>
      </trkpt>
      <trkpt lat="42.644883" lon="-8.643293">
        <ele>177.564</ele>
        <time>2018-08-25T15:57:14Z</time>
      </trkpt>
      <trkpt lat="42.644929" lon="-8.643320">
        <ele>177.391</ele>
        <time>2018-08-25T15:57:17Z</time>
      </trkpt>
      <trkpt lat="42.644980" lon="-8.643356">
        <ele>177.399</ele>
        <time>2018-08-25T15:57:20Z</time>
      </trkpt>
      <trkpt lat="42.645036" lon="-8.643376">
        <ele>177.977</ele>
        <time>2018-08-25T15:57:23Z</time>
      </trkpt>
      <trkpt lat="42.645082" lon="-8.643396">
        <ele>178.737</ele>
        <time>2018-08-25T15:57:26Z</time>
      </trkpt>
      <trkpt lat="42.645138" lon="-8.643401">
        <ele>179.825</ele>
        <time>2018-08-25T15:57:30Z</time>
      </trkpt>
      <trkpt lat="42.645184" lon="-8.643391">
        <ele>180.726</ele>
        <time>2018-08-25T15:57:33Z</time>
      </trkpt>
      <trkpt lat="42.645234" lon="-8.643377">
        <ele>181.408</ele>
        <time>2018-08-25T15:57:37Z</time>
      </trkpt>
      <trkpt lat="42.645280" lon="-8.643379">
        <ele>181.808</ele>
        <time>2018-08-25T15:57:40Z</time>
      </trkpt>
      <trkpt lat="42.645338" lon="-8.643390">
        <ele>181.934</ele>
        <time>2018-08-25T15:57:43Z</time>
      </trkpt>
      <trkpt lat="42.645399" lon="-8.643398">
        <ele>181.920</ele>
        <time>2018-08-25T15:57:46Z</time>
      </trkpt>
      <trkpt lat="42.645446" lon="-8.643408">
        <ele>181.575</ele>
        <time>2018-08-25T15:57:48Z</time>
      </trkpt>
      <trkpt lat="42.645495" lon="-8.643416">
        <ele>180.859</ele>
        <time>2018-08-25T15:57:50Z</time>
      </trkpt>
      <trkpt lat="42.645545" lon="-8.643428">
        <ele>180.686</ele>
        <time>2018-08-25T15:57:52Z</time>
      </trkpt>
      <trkpt lat="42.645609" lon="-8.643443">
        <ele>179.864</ele>
        <time>2018-08-25T15:57:55Z</time>
      </trkpt>
      <trkpt lat="42.645657" lon="-8.643462">
        <ele>178.732</ele>
        <time>2018-08-25T15:57:58Z</time>
      </trkpt>
      <trkpt lat="42.645699" lon="-8.643489">
        <ele>177.742</ele>
        <time>2018-08-25T15:58:01Z</time>
      </trkpt>
      <trkpt lat="42.645744" lon="-8.643514">
        <ele>177.121</ele>
        <time>2018-08-25T15:58:04Z</time>
      </trkpt>
      <trkpt lat="42.645797" lon="-8.643537">
        <ele>176.741</ele>
        <time>2018-08-25T15:58:07Z</time>
      </trkpt>
      <trkpt lat="42.645858" lon="-8.643554">
        <ele>176.505</ele>
        <time>2018-08-25T15:58:10Z</time>
      </trkpt>
      <trkpt lat="42.645916" lon="-8.643560">
        <ele>176.508</ele>
        <time>2018-08-25T15:58:13Z</time>
      </trkpt>
      <trkpt lat="42.645964" lon="-8.643557">
        <ele>176.324</ele>
        <time>2018-08-25T15:58:16Z</time>
      </trkpt>
      <trkpt lat="42.646024" lon="-8.643551">
        <ele>175.950</ele>
        <time>2018-08-25T15:58:19Z</time>
      </trkpt>
      <trkpt lat="42.646071" lon="-8.643555">
        <ele>175.735</ele>
        <time>2018-08-25T15:58:21Z</time>
      </trkpt>
      <trkpt lat="42.646120" lon="-8.643550">
        <ele>175.559</ele>
        <time>2018-08-25T15:58:23Z</time>
      </trkpt>
      <trkpt lat="42.646184" lon="-8.643538">
        <ele>175.546</ele>
        <time>2018-08-25T15:58:26Z</time>
      </trkpt>
      <trkpt lat="42.646242" lon="-8.643532">
        <ele>175.554</ele>
        <time>2018-08-25T15:58:29Z</time>
      </trkpt>
      <trkpt lat="42.646288" lon="-8.643530">
        <ele>175.522</ele>
        <time>2018-08-25T15:58:31Z</time>
      </trkpt>
      <trkpt lat="42.646334" lon="-8.643536">
        <ele>175.662</ele>
        <time>2018-08-25T15:58:33Z</time>
      </trkpt>
      <trkpt lat="42.646398" lon="-8.643549">
        <ele>175.729</ele>
        <time>2018-08-25T15:58:36Z</time>
      </trkpt>
      <trkpt lat="42.646451" lon="-8.643554">
        <ele>175.700</ele>
        <time>2018-08-25T15:58:39Z</time>
      </trkpt>
      <trkpt lat="42.646510" lon="-8.643568">
        <ele>175.920</ele>
        <time>2018-08-25T15:58:42Z</time>
      </trkpt>
      <trkpt lat="42.646558" lon="-8.643578">
        <ele>176.008</ele>
        <time>2018-08-25T15:58:44Z</time>
      </trkpt>
      <trkpt lat="42.646604" lon="-8.643586">
        <ele>176.044</ele>
        <time>2018-08-25T15:58:46Z</time>
      </trkpt>
      <trkpt lat="42.646663" lon="-8.643603">
        <ele>175.930</ele>
        <time>2018-08-25T15:58:49Z</time>
      </trkpt>
      <trkpt lat="42.646729" lon="-8.643617">
        <ele>175.745</ele>
        <time>2018-08-25T15:58:52Z</time>
      </trkpt>
      <trkpt lat="42.646791" lon="-8.643627">
        <ele>175.419</ele>
        <time>2018-08-25T15:58:55Z</time>
      </trkpt>
      <trkpt lat="42.646855" lon="-8.643639">
        <ele>175.026</ele>
        <time>2018-08-25T15:58:58Z</time>
      </trkpt>
      <trkpt lat="42.646918" lon="-8.643651">
        <ele>174.674</ele>
        <time>2018-08-25T15:59:01Z</time>
      </trkpt>
      <trkpt lat="42.646962" lon="-8.643673">
        <ele>174.352</ele>
        <time>2018-08-25T15:59:04Z</time>
      </trkpt>
      <trkpt lat="42.647011" lon="-8.643718">
        <ele>173.842</ele>
        <time>2018-08-25T15:59:08Z</time>
      </trkpt>
      <trkpt lat="42.647053" lon="-8.643761">
        <ele>173.527</ele>
        <time>2018-08-25T15:59:11Z</time>
      </trkpt>
      <trkpt lat="42.647097" lon="-8.643800">
        <ele>173.268</ele>
        <time>2018-08-25T15:59:14Z</time>
      </trkpt>
      <trkpt lat="42.647134" lon="-8.643846">
        <ele>173.414</ele>
        <time>2018-08-25T15:59:17Z</time>
      </trkpt>
      <trkpt lat="42.647174" lon="-8.643912">
        <ele>173.808</ele>
        <time>2018-08-25T15:59:20Z</time>
      </trkpt>
      <trkpt lat="42.647205" lon="-8.643956">
        <ele>174.214</ele>
        <time>2018-08-25T15:59:22Z</time>
      </trkpt>
      <trkpt lat="42.647258" lon="-8.644016">
        <ele>174.680</ele>
        <time>2018-08-25T15:59:25Z</time>
      </trkpt>
      <trkpt lat="42.647296" lon="-8.644063">
        <ele>175.095</ele>
        <time>2018-08-25T15:59:27Z</time>
      </trkpt>
      <trkpt lat="42.647333" lon="-8.644116">
        <ele>175.399</ele>
        <time>2018-08-25T15:59:29Z</time>
      </trkpt>
      <trkpt lat="42.647372" lon="-8.644169">
        <ele>175.596</ele>
        <time>2018-08-25T15:59:31Z</time>
      </trkpt>
      <trkpt lat="42.647412" lon="-8.644218">
        <ele>175.674</ele>
        <time>2018-08-25T15:59:33Z</time>
      </trkpt>
      <trkpt lat="42.647453" lon="-8.644262">
        <ele>175.722</ele>
        <time>2018-08-25T15:59:35Z</time>
      </trkpt>
      <trkpt lat="42.647492" lon="-8.644303">
        <ele>175.842</ele>
        <time>2018-08-25T15:59:37Z</time>
      </trkpt>
      <trkpt lat="42.647528" lon="-8.644341">
        <ele>175.837</ele>
        <time>2018-08-25T15:59:39Z</time>
      </trkpt>
      <trkpt lat="42.647566" lon="-8.644375">
        <ele>175.749</ele>
        <time>2018-08-25T15:59:41Z</time>
      </trkpt>
      <trkpt lat="42.647603" lon="-8.644409">
        <ele>175.713</ele>
        <time>2018-08-25T15:59:43Z</time>
      </trkpt>
      <trkpt lat="42.647660" lon="-8.644459">
        <ele>175.608</ele>
        <time>2018-08-25T15:59:46Z</time>
      </trkpt>
      <trkpt lat="42.647702" lon="-8.644491">
        <ele>175.755</ele>
        <time>2018-08-25T15:59:48Z</time>
      </trkpt>
      <trkpt lat="42.647741" lon="-8.644525">
        <ele>175.991</ele>
        <time>2018-08-25T15:59:50Z</time>
      </trkpt>
      <trkpt lat="42.647792" lon="-8.644562">
        <ele>176.216</ele>
        <time>2018-08-25T15:59:53Z</time>
      </trkpt>
      <trkpt lat="42.647845" lon="-8.644589">
        <ele>176.590</ele>
        <time>2018-08-25T15:59:56Z</time>
      </trkpt>
      <trkpt lat="42.647905" lon="-8.644612">
        <ele>176.637</ele>
        <time>2018-08-25T15:59:59Z</time>
      </trkpt>
      <trkpt lat="42.647970" lon="-8.644632">
        <ele>176.575</ele>
        <time>2018-08-25T16:00:02Z</time>
      </trkpt>
      <trkpt lat="42.648035" lon="-8.644643">
        <ele>176.483</ele>
        <time>2018-08-25T16:00:05Z</time>
      </trkpt>
      <trkpt lat="42.648103" lon="-8.644647">
        <ele>176.023</ele>
        <time>2018-08-25T16:00:08Z</time>
      </trkpt>
      <trkpt lat="42.648151" lon="-8.644654">
        <ele>175.514</ele>
        <time>2018-08-25T16:00:10Z</time>
      </trkpt>
      <trkpt lat="42.648199" lon="-8.644664">
        <ele>174.954</ele>
        <time>2018-08-25T16:00:12Z</time>
      </trkpt>
      <trkpt lat="42.648245" lon="-8.644670">
        <ele>174.309</ele>
        <time>2018-08-25T16:00:14Z</time>
      </trkpt>
      <trkpt lat="42.648293" lon="-8.644680">
        <ele>173.908</ele>
        <time>2018-08-25T16:00:16Z</time>
      </trkpt>
      <trkpt lat="42.648340" lon="-8.644696">
        <ele>173.673</ele>
        <time>2018-08-25T16:00:18Z</time>
      </trkpt>
      <trkpt lat="42.648385" lon="-8.644717">
        <ele>173.459</ele>
        <time>2018-08-25T16:00:20Z</time>
      </trkpt>
      <trkpt lat="42.648429" lon="-8.644741">
        <ele>173.274</ele>
        <time>2018-08-25T16:00:22Z</time>
      </trkpt>
      <trkpt lat="42.648473" lon="-8.644766">
        <ele>173.188</ele>
        <time>2018-08-25T16:00:24Z</time>
      </trkpt>
      <trkpt lat="42.648518" lon="-8.644793">
        <ele>172.735</ele>
        <time>2018-08-25T16:00:26Z</time>
      </trkpt>
      <trkpt lat="42.648562" lon="-8.644819">
        <ele>172.343</ele>
        <time>2018-08-25T16:00:28Z</time>
      </trkpt>
      <trkpt lat="42.648605" lon="-8.644843">
        <ele>172.041</ele>
        <time>2018-08-25T16:00:30Z</time>
      </trkpt>
      <trkpt lat="42.648649" lon="-8.644867">
        <ele>171.841</ele>
        <time>2018-08-25T16:00:32Z</time>
      </trkpt>
      <trkpt lat="42.648693" lon="-8.644887">
        <ele>171.648</ele>
        <time>2018-08-25T16:00:34Z</time>
      </trkpt>
      <trkpt lat="42.648760" lon="-8.644910">
        <ele>171.561</ele>
        <time>2018-08-25T16:00:37Z</time>
      </trkpt>
      <trkpt lat="42.648807" lon="-8.644925">
        <ele>171.717</ele>
        <time>2018-08-25T16:00:39Z</time>
      </trkpt>
      <trkpt lat="42.648853" lon="-8.644933">
        <ele>172.408</ele>
        <time>2018-08-25T16:00:41Z</time>
      </trkpt>
      <trkpt lat="42.648899" lon="-8.644933">
        <ele>173.316</ele>
        <time>2018-08-25T16:00:43Z</time>
      </trkpt>
      <trkpt lat="42.648945" lon="-8.644930">
        <ele>174.212</ele>
        <time>2018-08-25T16:00:45Z</time>
      </trkpt>
      <trkpt lat="42.648991" lon="-8.644937">
        <ele>175.267</ele>
        <time>2018-08-25T16:00:47Z</time>
      </trkpt>
      <trkpt lat="42.649051" lon="-8.644955">
        <ele>176.481</ele>
        <time>2018-08-25T16:00:50Z</time>
      </trkpt>
      <trkpt lat="42.649102" lon="-8.644973">
        <ele>177.658</ele>
        <time>2018-08-25T16:00:53Z</time>
      </trkpt>
      <trkpt lat="42.649147" lon="-8.644994">
        <ele>178.956</ele>
        <time>2018-08-25T16:00:56Z</time>
      </trkpt>
      <trkpt lat="42.649193" lon="-8.645007">
        <ele>180.264</ele>
        <time>2018-08-25T16:00:59Z</time>
      </trkpt>
      <trkpt lat="42.649246" lon="-8.645025">
        <ele>181.274</ele>
        <time>2018-08-25T16:01:02Z</time>
      </trkpt>
      <trkpt lat="42.649291" lon="-8.645041">
        <ele>181.833</ele>
        <time>2018-08-25T16:01:05Z</time>
      </trkpt>
      <trkpt lat="42.649330" lon="-8.645089">
        <ele>181.623</ele>
        <time>2018-08-25T16:01:08Z</time>
      </trkpt>
      <trkpt lat="42.649362" lon="-8.645134">
        <ele>182.015</ele>
        <time>2018-08-25T16:01:11Z</time>
      </trkpt>
      <trkpt lat="42.649403" lon="-8.645183">
        <ele>182.608</ele>
        <time>2018-08-25T16:01:24Z</time>
      </trkpt>
      <trkpt lat="42.649389" lon="-8.645258">
        <ele>183.025</ele>
        <time>2018-08-25T16:01:29Z</time>
      </trkpt>
      <trkpt lat="42.649357" lon="-8.645301">
        <ele>183.371</ele>
        <time>2018-08-25T16:01:31Z</time>
      </trkpt>
      <trkpt lat="42.649325" lon="-8.645368">
        <ele>183.316</ele>
        <time>2018-08-25T16:01:34Z</time>
      </trkpt>
      <trkpt lat="42.649327" lon="-8.645436">
        <ele>183.580</ele>
        <time>2018-08-25T16:01:37Z</time>
      </trkpt>
      <trkpt lat="42.649339" lon="-8.645519">
        <ele>183.677</ele>
        <time>2018-08-25T16:01:40Z</time>
      </trkpt>
      <trkpt lat="42.649358" lon="-8.645576">
        <ele>183.725</ele>
        <time>2018-08-25T16:01:42Z</time>
      </trkpt>
      <trkpt lat="42.649383" lon="-8.645634">
        <ele>183.933</ele>
        <time>2018-08-25T16:01:44Z</time>
      </trkpt>
      <trkpt lat="42.649411" lon="-8.645683">
        <ele>184.033</ele>
        <time>2018-08-25T16:01:46Z</time>
      </trkpt>
      <trkpt lat="42.649443" lon="-8.645727">
        <ele>184.161</ele>
        <time>2018-08-25T16:01:48Z</time>
      </trkpt>
      <trkpt lat="42.649486" lon="-8.645797">
        <ele>183.921</ele>
        <time>2018-08-25T16:01:51Z</time>
      </trkpt>
      <trkpt lat="42.649511" lon="-8.645855">
        <ele>183.613</ele>
        <time>2018-08-25T16:01:53Z</time>
      </trkpt>
      <trkpt lat="42.649536" lon="-8.645934">
        <ele>183.508</ele>
        <time>2018-08-25T16:01:56Z</time>
      </trkpt>
      <trkpt lat="42.649563" lon="-8.645989">
        <ele>183.558</ele>
        <time>2018-08-25T16:01:59Z</time>
      </trkpt>
      <trkpt lat="42.649620" lon="-8.646022">
        <ele>182.874</ele>
        <time>2018-08-25T16:02:03Z</time>
      </trkpt>
      <trkpt lat="42.649670" lon="-8.646044">
        <ele>182.189</ele>
        <time>2018-08-25T16:02:05Z</time>
      </trkpt>
      <trkpt lat="42.649716" lon="-8.646078">
        <ele>181.433</ele>
        <time>2018-08-25T16:02:07Z</time>
      </trkpt>
      <trkpt lat="42.649757" lon="-8.646118">
        <ele>181.280</ele>
        <time>2018-08-25T16:02:09Z</time>
      </trkpt>
      <trkpt lat="42.649796" lon="-8.646161">
        <ele>181.238</ele>
        <time>2018-08-25T16:02:11Z</time>
      </trkpt>
      <trkpt lat="42.649839" lon="-8.646207">
        <ele>181.336</ele>
        <time>2018-08-25T16:02:13Z</time>
      </trkpt>
      <trkpt lat="42.649883" lon="-8.646248">
        <ele>181.386</ele>
        <time>2018-08-25T16:02:15Z</time>
      </trkpt>
      <trkpt lat="42.649927" lon="-8.646291">
        <ele>181.472</ele>
        <time>2018-08-25T16:02:17Z</time>
      </trkpt>
      <trkpt lat="42.649969" lon="-8.646333">
        <ele>181.313</ele>
        <time>2018-08-25T16:02:19Z</time>
      </trkpt>
      <trkpt lat="42.650010" lon="-8.646379">
        <ele>181.214</ele>
        <time>2018-08-25T16:02:21Z</time>
      </trkpt>
      <trkpt lat="42.650049" lon="-8.646433">
        <ele>181.108</ele>
        <time>2018-08-25T16:02:23Z</time>
      </trkpt>
      <trkpt lat="42.650086" lon="-8.646492">
        <ele>181.119</ele>
        <time>2018-08-25T16:02:25Z</time>
      </trkpt>
      <trkpt lat="42.650118" lon="-8.646552">
        <ele>180.945</ele>
        <time>2018-08-25T16:02:27Z</time>
      </trkpt>
      <trkpt lat="42.650148" lon="-8.646606">
        <ele>180.620</ele>
        <time>2018-08-25T16:02:29Z</time>
      </trkpt>
      <trkpt lat="42.650180" lon="-8.646657">
        <ele>180.364</ele>
        <time>2018-08-25T16:02:31Z</time>
      </trkpt>
      <trkpt lat="42.650214" lon="-8.646699">
        <ele>179.911</ele>
        <time>2018-08-25T16:02:33Z</time>
      </trkpt>
      <trkpt lat="42.650257" lon="-8.646726">
        <ele>179.529</ele>
        <time>2018-08-25T16:02:35Z</time>
      </trkpt>
      <trkpt lat="42.650307" lon="-8.646736">
        <ele>179.237</ele>
        <time>2018-08-25T16:02:37Z</time>
      </trkpt>
      <trkpt lat="42.650361" lon="-8.646739">
        <ele>179.357</ele>
        <time>2018-08-25T16:02:39Z</time>
      </trkpt>
      <trkpt lat="42.650415" lon="-8.646737">
        <ele>179.288</ele>
        <time>2018-08-25T16:02:41Z</time>
      </trkpt>
      <trkpt lat="42.650474" lon="-8.646748">
        <ele>179.124</ele>
        <time>2018-08-25T16:02:43Z</time>
      </trkpt>
      <trkpt lat="42.650523" lon="-8.646784">
        <ele>178.826</ele>
        <time>2018-08-25T16:02:45Z</time>
      </trkpt>
      <trkpt lat="42.650563" lon="-8.646828">
        <ele>178.108</ele>
        <time>2018-08-25T16:02:47Z</time>
      </trkpt>
      <trkpt lat="42.650614" lon="-8.646853">
        <ele>177.660</ele>
        <time>2018-08-25T16:02:49Z</time>
      </trkpt>
      <trkpt lat="42.650667" lon="-8.646847">
        <ele>176.946</ele>
        <time>2018-08-25T16:02:51Z</time>
      </trkpt>
      <trkpt lat="42.650709" lon="-8.646818">
        <ele>176.491</ele>
        <time>2018-08-25T16:02:53Z</time>
      </trkpt>
      <trkpt lat="42.650741" lon="-8.646769">
        <ele>175.915</ele>
        <time>2018-08-25T16:02:55Z</time>
      </trkpt>
      <trkpt lat="42.650771" lon="-8.646713">
        <ele>175.762</ele>
        <time>2018-08-25T16:02:57Z</time>
      </trkpt>
      <trkpt lat="42.650807" lon="-8.646652">
        <ele>176.430</ele>
        <time>2018-08-25T16:02:59Z</time>
      </trkpt>
      <trkpt lat="42.650839" lon="-8.646578">
        <ele>177.068</ele>
        <time>2018-08-25T16:03:01Z</time>
      </trkpt>
      <trkpt lat="42.650867" lon="-8.646510">
        <ele>177.478</ele>
        <time>2018-08-25T16:03:03Z</time>
      </trkpt>
      <trkpt lat="42.650900" lon="-8.646445">
        <ele>178.416</ele>
        <time>2018-08-25T16:03:05Z</time>
      </trkpt>
      <trkpt lat="42.650945" lon="-8.646394">
        <ele>179.076</ele>
        <time>2018-08-25T16:03:07Z</time>
      </trkpt>
      <trkpt lat="42.650996" lon="-8.646372">
        <ele>179.413</ele>
        <time>2018-08-25T16:03:09Z</time>
      </trkpt>
      <trkpt lat="42.651062" lon="-8.646373">
        <ele>179.608</ele>
        <time>2018-08-25T16:03:11Z</time>
      </trkpt>
      <trkpt lat="42.651134" lon="-8.646398">
        <ele>180.063</ele>
        <time>2018-08-25T16:03:13Z</time>
      </trkpt>
      <trkpt lat="42.651213" lon="-8.646425">
        <ele>180.289</ele>
        <time>2018-08-25T16:03:15Z</time>
      </trkpt>
      <trkpt lat="42.651287" lon="-8.646449">
        <ele>180.064</ele>
        <time>2018-08-25T16:03:17Z</time>
      </trkpt>
      <trkpt lat="42.651355" lon="-8.646470">
        <ele>180.018</ele>
        <time>2018-08-25T16:03:19Z</time>
      </trkpt>
      <trkpt lat="42.651413" lon="-8.646479">
        <ele>180.695</ele>
        <time>2018-08-25T16:03:21Z</time>
      </trkpt>
      <trkpt lat="42.651459" lon="-8.646481">
        <ele>181.813</ele>
        <time>2018-08-25T16:03:23Z</time>
      </trkpt>
      <trkpt lat="42.651522" lon="-8.646490">
        <ele>183.691</ele>
        <time>2018-08-25T16:03:26Z</time>
      </trkpt>
      <trkpt lat="42.651580" lon="-8.646464">
        <ele>185.471</ele>
        <time>2018-08-25T16:03:28Z</time>
      </trkpt>
      <trkpt lat="42.651648" lon="-8.646422">
        <ele>186.861</ele>
        <time>2018-08-25T16:03:30Z</time>
      </trkpt>
      <trkpt lat="42.651712" lon="-8.646375">
        <ele>187.221</ele>
        <time>2018-08-25T16:03:32Z</time>
      </trkpt>
      <trkpt lat="42.651786" lon="-8.646305">
        <ele>187.213</ele>
        <time>2018-08-25T16:03:33Z</time>
      </trkpt>
      <trkpt lat="42.651817" lon="-8.646260">
        <ele>187.408</ele>
        <time>2018-08-25T16:03:34Z</time>
      </trkpt>
      <trkpt lat="42.651837" lon="-8.646203">
        <ele>187.888</ele>
        <time>2018-08-25T16:03:36Z</time>
      </trkpt>
      <trkpt lat="42.651854" lon="-8.646123">
        <ele>188.294</ele>
        <time>2018-08-25T16:04:10Z</time>
      </trkpt>
      <trkpt lat="42.651883" lon="-8.646073">
        <ele>187.789</ele>
        <time>2018-08-25T16:04:16Z</time>
      </trkpt>
      <trkpt lat="42.651916" lon="-8.646011">
        <ele>187.163</ele>
        <time>2018-08-25T16:04:18Z</time>
      </trkpt>
      <trkpt lat="42.651949" lon="-8.645937">
        <ele>187.020</ele>
        <time>2018-08-25T16:04:20Z</time>
      </trkpt>
      <trkpt lat="42.651978" lon="-8.645865">
        <ele>187.138</ele>
        <time>2018-08-25T16:04:22Z</time>
      </trkpt>
      <trkpt lat="42.652001" lon="-8.645797">
        <ele>187.356</ele>
        <time>2018-08-25T16:04:24Z</time>
      </trkpt>
      <trkpt lat="42.652019" lon="-8.645738">
        <ele>187.396</ele>
        <time>2018-08-25T16:04:26Z</time>
      </trkpt>
      <trkpt lat="42.652048" lon="-8.645656">
        <ele>187.389</ele>
        <time>2018-08-25T16:04:29Z</time>
      </trkpt>
      <trkpt lat="42.652074" lon="-8.645598">
        <ele>187.406</ele>
        <time>2018-08-25T16:04:31Z</time>
      </trkpt>
      <trkpt lat="42.652107" lon="-8.645538">
        <ele>187.826</ele>
        <time>2018-08-25T16:04:33Z</time>
      </trkpt>
      <trkpt lat="42.652147" lon="-8.645495">
        <ele>188.008</ele>
        <time>2018-08-25T16:04:35Z</time>
      </trkpt>
      <trkpt lat="42.652193" lon="-8.645479">
        <ele>188.230</ele>
        <time>2018-08-25T16:04:37Z</time>
      </trkpt>
      <trkpt lat="42.652239" lon="-8.645465">
        <ele>188.386</ele>
        <time>2018-08-25T16:04:39Z</time>
      </trkpt>
      <trkpt lat="42.652285" lon="-8.645452">
        <ele>188.211</ele>
        <time>2018-08-25T16:04:41Z</time>
      </trkpt>
      <trkpt lat="42.652332" lon="-8.645440">
        <ele>188.445</ele>
        <time>2018-08-25T16:04:43Z</time>
      </trkpt>
      <trkpt lat="42.652379" lon="-8.645431">
        <ele>188.582</ele>
        <time>2018-08-25T16:04:45Z</time>
      </trkpt>
      <trkpt lat="42.652425" lon="-8.645422">
        <ele>188.590</ele>
        <time>2018-08-25T16:04:47Z</time>
      </trkpt>
      <trkpt lat="42.652474" lon="-8.645416">
        <ele>188.428</ele>
        <time>2018-08-25T16:04:49Z</time>
      </trkpt>
      <trkpt lat="42.652521" lon="-8.645399">
        <ele>188.468</ele>
        <time>2018-08-25T16:04:51Z</time>
      </trkpt>
      <trkpt lat="42.652578" lon="-8.645372">
        <ele>188.643</ele>
        <time>2018-08-25T16:04:54Z</time>
      </trkpt>
      <trkpt lat="42.652630" lon="-8.645327">
        <ele>188.664</ele>
        <time>2018-08-25T16:04:57Z</time>
      </trkpt>
      <trkpt lat="42.652673" lon="-8.645270">
        <ele>189.310</ele>
        <time>2018-08-25T16:05:00Z</time>
      </trkpt>
      <trkpt lat="42.652718" lon="-8.645207">
        <ele>190.008</ele>
        <time>2018-08-25T16:05:03Z</time>
      </trkpt>
      <trkpt lat="42.652763" lon="-8.645150">
        <ele>190.846</ele>
        <time>2018-08-25T16:05:06Z</time>
      </trkpt>
      <trkpt lat="42.652808" lon="-8.645107">
        <ele>191.662</ele>
        <time>2018-08-25T16:05:09Z</time>
      </trkpt>
      <trkpt lat="42.652857" lon="-8.645058">
        <ele>192.527</ele>
        <time>2018-08-25T16:05:12Z</time>
      </trkpt>
      <trkpt lat="42.652899" lon="-8.645004">
        <ele>193.281</ele>
        <time>2018-08-25T16:05:15Z</time>
      </trkpt>
      <trkpt lat="42.652947" lon="-8.644959">
        <ele>193.638</ele>
        <time>2018-08-25T16:05:18Z</time>
      </trkpt>
      <trkpt lat="42.652989" lon="-8.644914">
        <ele>193.986</ele>
        <time>2018-08-25T16:05:21Z</time>
      </trkpt>
      <trkpt lat="42.653031" lon="-8.644865">
        <ele>194.374</ele>
        <time>2018-08-25T16:05:24Z</time>
      </trkpt>
      <trkpt lat="42.653069" lon="-8.644813">
        <ele>194.754</ele>
        <time>2018-08-25T16:05:27Z</time>
      </trkpt>
      <trkpt lat="42.653110" lon="-8.644769">
        <ele>195.184</ele>
        <time>2018-08-25T16:05:30Z</time>
      </trkpt>
      <trkpt lat="42.653166" lon="-8.644731">
        <ele>195.407</ele>
        <time>2018-08-25T16:05:33Z</time>
      </trkpt>
      <trkpt lat="42.653206" lon="-8.644703">
        <ele>195.817</ele>
        <time>2018-08-25T16:05:35Z</time>
      </trkpt>
      <trkpt lat="42.653249" lon="-8.644681">
        <ele>196.208</ele>
        <time>2018-08-25T16:05:37Z</time>
      </trkpt>
      <trkpt lat="42.653300" lon="-8.644656">
        <ele>196.540</ele>
        <time>2018-08-25T16:05:39Z</time>
      </trkpt>
      <trkpt lat="42.653345" lon="-8.644619">
        <ele>196.896</ele>
        <time>2018-08-25T16:05:41Z</time>
      </trkpt>
      <trkpt lat="42.653387" lon="-8.644588">
        <ele>196.871</ele>
        <time>2018-08-25T16:05:43Z</time>
      </trkpt>
      <trkpt lat="42.653429" lon="-8.644560">
        <ele>196.665</ele>
        <time>2018-08-25T16:05:45Z</time>
      </trkpt>
      <trkpt lat="42.653470" lon="-8.644529">
        <ele>196.322</ele>
        <time>2018-08-25T16:05:47Z</time>
      </trkpt>
      <trkpt lat="42.653523" lon="-8.644482">
        <ele>196.360</ele>
        <time>2018-08-25T16:05:50Z</time>
      </trkpt>
      <trkpt lat="42.653556" lon="-8.644424">
        <ele>196.588</ele>
        <time>2018-08-25T16:05:53Z</time>
      </trkpt>
      <trkpt lat="42.653588" lon="-8.644374">
        <ele>196.818</ele>
        <time>2018-08-25T16:05:56Z</time>
      </trkpt>
      <trkpt lat="42.653629" lon="-8.644313">
        <ele>197.262</ele>
        <time>2018-08-25T16:05:59Z</time>
      </trkpt>
      <trkpt lat="42.653664" lon="-8.644241">
        <ele>197.683</ele>
        <time>2018-08-25T16:06:02Z</time>
      </trkpt>
      <trkpt lat="42.653704" lon="-8.644176">
        <ele>198.011</ele>
        <time>2018-08-25T16:06:05Z</time>
      </trkpt>
      <trkpt lat="42.653747" lon="-8.644132">
        <ele>198.508</ele>
        <time>2018-08-25T16:06:08Z</time>
      </trkpt>
      <trkpt lat="42.653792" lon="-8.644124">
        <ele>198.668</ele>
        <time>2018-08-25T16:06:11Z</time>
      </trkpt>
      <trkpt lat="42.653842" lon="-8.644127">
        <ele>198.914</ele>
        <time>2018-08-25T16:06:14Z</time>
      </trkpt>
      <trkpt lat="42.653902" lon="-8.644132">
        <ele>198.939</ele>
        <time>2018-08-25T16:06:17Z</time>
      </trkpt>
      <trkpt lat="42.653964" lon="-8.644148">
        <ele>198.973</ele>
        <time>2018-08-25T16:06:20Z</time>
      </trkpt>
      <trkpt lat="42.654029" lon="-8.644170">
        <ele>199.280</ele>
        <time>2018-08-25T16:06:23Z</time>
      </trkpt>
      <trkpt lat="42.654093" lon="-8.644195">
        <ele>199.858</ele>
        <time>2018-08-25T16:06:26Z</time>
      </trkpt>
      <trkpt lat="42.654153" lon="-8.644191">
        <ele>200.246</ele>
        <time>2018-08-25T16:06:29Z</time>
      </trkpt>
      <trkpt lat="42.654210" lon="-8.644161">
        <ele>200.366</ele>
        <time>2018-08-25T16:06:32Z</time>
      </trkpt>
      <trkpt lat="42.654266" lon="-8.644124">
        <ele>200.446</ele>
        <time>2018-08-25T16:06:35Z</time>
      </trkpt>
      <trkpt lat="42.654318" lon="-8.644092">
        <ele>200.588</ele>
        <time>2018-08-25T16:06:38Z</time>
      </trkpt>
      <trkpt lat="42.654375" lon="-8.644047">
        <ele>200.616</ele>
        <time>2018-08-25T16:06:41Z</time>
      </trkpt>
      <trkpt lat="42.654415" lon="-8.644014">
        <ele>200.408</ele>
        <time>2018-08-25T16:06:43Z</time>
      </trkpt>
      <trkpt lat="42.654458" lon="-8.643979">
        <ele>200.246</ele>
        <time>2018-08-25T16:06:45Z</time>
      </trkpt>
      <trkpt lat="42.654498" lon="-8.643945">
        <ele>200.082</ele>
        <time>2018-08-25T16:06:47Z</time>
      </trkpt>
      <trkpt lat="42.654554" lon="-8.643901">
        <ele>199.367</ele>
        <time>2018-08-25T16:06:50Z</time>
      </trkpt>
      <trkpt lat="42.654596" lon="-8.643869">
        <ele>198.681</ele>
        <time>2018-08-25T16:06:52Z</time>
      </trkpt>
      <trkpt lat="42.654637" lon="-8.643829">
        <ele>198.148</ele>
        <time>2018-08-25T16:06:54Z</time>
      </trkpt>
      <trkpt lat="42.654689" lon="-8.643728">
        <ele>197.366</ele>
        <time>2018-08-25T16:06:56Z</time>
      </trkpt>
      <trkpt lat="42.654706" lon="-8.643629">
        <ele>196.764</ele>
        <time>2018-08-25T16:06:58Z</time>
      </trkpt>
      <trkpt lat="42.654704" lon="-8.643532">
        <ele>195.974</ele>
        <time>2018-08-25T16:07:01Z</time>
      </trkpt>
      <trkpt lat="42.654699" lon="-8.643431">
        <ele>195.369</ele>
        <time>2018-08-25T16:07:02Z</time>
      </trkpt>
      <trkpt lat="42.654720" lon="-8.643355">
        <ele>195.204</ele>
        <time>2018-08-25T16:07:04Z</time>
      </trkpt>
      <trkpt lat="42.654742" lon="-8.643290">
        <ele>195.424</ele>
        <time>2018-08-25T16:07:06Z</time>
      </trkpt>
      <trkpt lat="42.654772" lon="-8.643225">
        <ele>195.708</ele>
        <time>2018-08-25T16:07:08Z</time>
      </trkpt>
      <trkpt lat="42.654804" lon="-8.643167">
        <ele>195.968</ele>
        <time>2018-08-25T16:07:10Z</time>
      </trkpt>
      <trkpt lat="42.654844" lon="-8.643111">
        <ele>196.164</ele>
        <time>2018-08-25T16:07:12Z</time>
      </trkpt>
      <trkpt lat="42.654892" lon="-8.643062">
        <ele>196.449</ele>
        <time>2018-08-25T16:07:14Z</time>
      </trkpt>
      <trkpt lat="42.654946" lon="-8.643026">
        <ele>197.113</ele>
        <time>2018-08-25T16:07:16Z</time>
      </trkpt>
      <trkpt lat="42.654993" lon="-8.643000">
        <ele>197.950</ele>
        <time>2018-08-25T16:07:18Z</time>
      </trkpt>
      <trkpt lat="42.655049" lon="-8.642971">
        <ele>199.118</ele>
        <time>2018-08-25T16:07:21Z</time>
      </trkpt>
      <trkpt lat="42.655100" lon="-8.642968">
        <ele>200.376</ele>
        <time>2018-08-25T16:07:24Z</time>
      </trkpt>
      <trkpt lat="42.655153" lon="-8.642997">
        <ele>200.846</ele>
        <time>2018-08-25T16:07:27Z</time>
      </trkpt>
      <trkpt lat="42.655205" lon="-8.643040">
        <ele>201.326</ele>
        <time>2018-08-25T16:07:30Z</time>
      </trkpt>
      <trkpt lat="42.655261" lon="-8.643065">
        <ele>202.147</ele>
        <time>2018-08-25T16:07:33Z</time>
      </trkpt>
      <trkpt lat="42.655315" lon="-8.643073">
        <ele>202.911</ele>
        <time>2018-08-25T16:07:36Z</time>
      </trkpt>
      <trkpt lat="42.655381" lon="-8.643051">
        <ele>203.008</ele>
        <time>2018-08-25T16:07:39Z</time>
      </trkpt>
      <trkpt lat="42.655418" lon="-8.643009">
        <ele>203.174</ele>
        <time>2018-08-25T16:07:41Z</time>
      </trkpt>
      <trkpt lat="42.655444" lon="-8.642923">
        <ele>202.940</ele>
        <time>2018-08-25T16:07:44Z</time>
      </trkpt>
      <trkpt lat="42.655457" lon="-8.642853">
        <ele>202.795</ele>
        <time>2018-08-25T16:07:46Z</time>
      </trkpt>
      <trkpt lat="42.655469" lon="-8.642771">
        <ele>202.969</ele>
        <time>2018-08-25T16:07:48Z</time>
      </trkpt>
      <trkpt lat="42.655483" lon="-8.642614">
        <ele>203.126</ele>
        <time>2018-08-25T16:07:50Z</time>
      </trkpt>
      <trkpt lat="42.655490" lon="-8.642511">
        <ele>203.064</ele>
        <time>2018-08-25T16:07:52Z</time>
      </trkpt>
      <trkpt lat="42.655500" lon="-8.642399">
        <ele>203.152</ele>
        <time>2018-08-25T16:07:54Z</time>
      </trkpt>
      <trkpt lat="42.655541" lon="-8.642345">
        <ele>203.482</ele>
        <time>2018-08-25T16:07:55Z</time>
      </trkpt>
      <trkpt lat="42.655586" lon="-8.642295">
        <ele>203.072</ele>
        <time>2018-08-25T16:07:56Z</time>
      </trkpt>
      <trkpt lat="42.655625" lon="-8.642253">
        <ele>202.813</ele>
        <time>2018-08-25T16:07:57Z</time>
      </trkpt>
      <trkpt lat="42.655661" lon="-8.642206">
        <ele>202.714</ele>
        <time>2018-08-25T16:07:58Z</time>
      </trkpt>
      <trkpt lat="42.655700" lon="-8.642165">
        <ele>202.708</ele>
        <time>2018-08-25T16:07:59Z</time>
      </trkpt>
      <trkpt lat="42.655736" lon="-8.642126">
        <ele>202.799</ele>
        <time>2018-08-25T16:08:00Z</time>
      </trkpt>
      <trkpt lat="42.655773" lon="-8.642084">
        <ele>202.955</ele>
        <time>2018-08-25T16:08:01Z</time>
      </trkpt>
      <trkpt lat="42.655812" lon="-8.642052">
        <ele>203.210</ele>
        <time>2018-08-25T16:08:02Z</time>
      </trkpt>
      <trkpt lat="42.655886" lon="-8.642073">
        <ele>204.274</ele>
        <time>2018-08-25T16:08:04Z</time>
      </trkpt>
      <trkpt lat="42.655931" lon="-8.642125">
        <ele>205.081</ele>
        <time>2018-08-25T16:08:06Z</time>
      </trkpt>
      <trkpt lat="42.655973" lon="-8.642164">
        <ele>205.579</ele>
        <time>2018-08-25T16:08:08Z</time>
      </trkpt>
      <trkpt lat="42.656026" lon="-8.642198">
        <ele>205.857</ele>
        <time>2018-08-25T16:08:10Z</time>
      </trkpt>
      <trkpt lat="42.656077" lon="-8.642229">
        <ele>206.017</ele>
        <time>2018-08-25T16:08:12Z</time>
      </trkpt>
      <trkpt lat="42.656133" lon="-8.642260">
        <ele>206.196</ele>
        <time>2018-08-25T16:08:14Z</time>
      </trkpt>
      <trkpt lat="42.656245" lon="-8.642304">
        <ele>206.331</ele>
        <time>2018-08-25T16:08:16Z</time>
      </trkpt>
      <trkpt lat="42.656311" lon="-8.642316">
        <ele>206.924</ele>
        <time>2018-08-25T16:08:19Z</time>
      </trkpt>
      <trkpt lat="42.656368" lon="-8.642331">
        <ele>207.308</ele>
        <time>2018-08-25T16:08:21Z</time>
      </trkpt>
      <trkpt lat="42.656426" lon="-8.642347">
        <ele>207.681</ele>
        <time>2018-08-25T16:08:23Z</time>
      </trkpt>
      <trkpt lat="42.656488" lon="-8.642367">
        <ele>207.897</ele>
        <time>2018-08-25T16:08:25Z</time>
      </trkpt>
      <trkpt lat="42.656565" lon="-8.642393">
        <ele>208.072</ele>
        <time>2018-08-25T16:08:26Z</time>
      </trkpt>
      <trkpt lat="42.656616" lon="-8.642422">
        <ele>208.326</ele>
        <time>2018-08-25T16:08:28Z</time>
      </trkpt>
      <trkpt lat="42.656661" lon="-8.642449">
        <ele>208.563</ele>
        <time>2018-08-25T16:08:30Z</time>
      </trkpt>
      <trkpt lat="42.656713" lon="-8.642480">
        <ele>208.761</ele>
        <time>2018-08-25T16:08:32Z</time>
      </trkpt>
      <trkpt lat="42.656817" lon="-8.642529">
        <ele>208.889</ele>
        <time>2018-08-25T16:08:34Z</time>
      </trkpt>
      <trkpt lat="42.656920" lon="-8.642563">
        <ele>208.939</ele>
        <time>2018-08-25T16:08:37Z</time>
      </trkpt>
      <trkpt lat="42.656995" lon="-8.642600">
        <ele>209.182</ele>
        <time>2018-08-25T16:08:39Z</time>
      </trkpt>
      <trkpt lat="42.657048" lon="-8.642638">
        <ele>209.343</ele>
        <time>2018-08-25T16:08:41Z</time>
      </trkpt>
      <trkpt lat="42.657091" lon="-8.642681">
        <ele>209.517</ele>
        <time>2018-08-25T16:08:43Z</time>
      </trkpt>
      <trkpt lat="42.657182" lon="-8.642761">
        <ele>209.608</ele>
        <time>2018-08-25T16:08:45Z</time>
      </trkpt>
      <trkpt lat="42.657251" lon="-8.642795">
        <ele>209.550</ele>
        <time>2018-08-25T16:08:47Z</time>
      </trkpt>
      <trkpt lat="42.657304" lon="-8.642765">
        <ele>209.196</ele>
        <time>2018-08-25T16:08:49Z</time>
      </trkpt>
      <trkpt lat="42.657350" lon="-8.642712">
        <ele>208.961</ele>
        <time>2018-08-25T16:08:50Z</time>
      </trkpt>
      <trkpt lat="42.657413" lon="-8.642634">
        <ele>208.735</ele>
        <time>2018-08-25T16:08:52Z</time>
      </trkpt>
      <trkpt lat="42.657456" lon="-8.642538">
        <ele>208.732</ele>
        <time>2018-08-25T16:08:54Z</time>
      </trkpt>
      <trkpt lat="42.657496" lon="-8.642459">
        <ele>208.670</ele>
        <time>2018-08-25T16:08:57Z</time>
      </trkpt>
      <trkpt lat="42.657530" lon="-8.642393">
        <ele>208.428</ele>
        <time>2018-08-25T16:08:59Z</time>
      </trkpt>
      <trkpt lat="42.657569" lon="-8.642302">
        <ele>208.288</ele>
        <time>2018-08-25T16:09:00Z</time>
      </trkpt>
      <trkpt lat="42.657580" lon="-8.642198">
        <ele>208.036</ele>
        <time>2018-08-25T16:09:02Z</time>
      </trkpt>
      <trkpt lat="42.657590" lon="-8.642137">
        <ele>207.717</ele>
        <time>2018-08-25T16:09:04Z</time>
      </trkpt>
      <trkpt lat="42.657618" lon="-8.642078">
        <ele>207.418</ele>
        <time>2018-08-25T16:09:06Z</time>
      </trkpt>
      <trkpt lat="42.657656" lon="-8.642022">
        <ele>207.008</ele>
        <time>2018-08-25T16:09:08Z</time>
      </trkpt>
      <trkpt lat="42.657694" lon="-8.641951">
        <ele>206.625</ele>
        <time>2018-08-25T16:09:10Z</time>
      </trkpt>
      <trkpt lat="42.657737" lon="-8.641852">
        <ele>206.131</ele>
        <time>2018-08-25T16:09:11Z</time>
      </trkpt>
      <trkpt lat="42.657778" lon="-8.641744">
        <ele>205.666</ele>
        <time>2018-08-25T16:09:13Z</time>
      </trkpt>
      <trkpt lat="42.657803" lon="-8.641692">
        <ele>205.230</ele>
        <time>2018-08-25T16:09:14Z</time>
      </trkpt>
      <trkpt lat="42.657829" lon="-8.641639">
        <ele>204.987</ele>
        <time>2018-08-25T16:09:15Z</time>
      </trkpt>
      <trkpt lat="42.657854" lon="-8.641583">
        <ele>204.785</ele>
        <time>2018-08-25T16:09:16Z</time>
      </trkpt>
      <trkpt lat="42.657883" lon="-8.641530">
        <ele>204.773</ele>
        <time>2018-08-25T16:09:17Z</time>
      </trkpt>
      <trkpt lat="42.657907" lon="-8.641476">
        <ele>204.723</ele>
        <time>2018-08-25T16:09:18Z</time>
      </trkpt>
      <trkpt lat="42.657927" lon="-8.641420">
        <ele>204.729</ele>
        <time>2018-08-25T16:09:19Z</time>
      </trkpt>
      <trkpt lat="42.657958" lon="-8.641307">
        <ele>204.700</ele>
        <time>2018-08-25T16:09:21Z</time>
      </trkpt>
      <trkpt lat="42.657972" lon="-8.641197">
        <ele>204.720</ele>
        <time>2018-08-25T16:09:23Z</time>
      </trkpt>
      <trkpt lat="42.657976" lon="-8.641101">
        <ele>204.308</ele>
        <time>2018-08-25T16:09:25Z</time>
      </trkpt>
      <trkpt lat="42.657985" lon="-8.641033">
        <ele>203.854</ele>
        <time>2018-08-25T16:09:27Z</time>
      </trkpt>
      <trkpt lat="42.657994" lon="-8.640966">
        <ele>203.260</ele>
        <time>2018-08-25T16:09:29Z</time>
      </trkpt>
      <trkpt lat="42.658006" lon="-8.640876">
        <ele>202.755</ele>
        <time>2018-08-25T16:09:31Z</time>
      </trkpt>
      <trkpt lat="42.658018" lon="-8.640773">
        <ele>202.339</ele>
        <time>2018-08-25T16:09:33Z</time>
      </trkpt>
      <trkpt lat="42.658045" lon="-8.640593">
        <ele>202.296</ele>
        <time>2018-08-25T16:09:35Z</time>
      </trkpt>
      <trkpt lat="42.658065" lon="-8.640518">
        <ele>202.334</ele>
        <time>2018-08-25T16:09:37Z</time>
      </trkpt>
      <trkpt lat="42.658082" lon="-8.640452">
        <ele>203.092</ele>
        <time>2018-08-25T16:09:39Z</time>
      </trkpt>
      <trkpt lat="42.658097" lon="-8.640376">
        <ele>203.452</ele>
        <time>2018-08-25T16:09:41Z</time>
      </trkpt>
      <trkpt lat="42.658114" lon="-8.640232">
        <ele>203.657</ele>
        <time>2018-08-25T16:09:43Z</time>
      </trkpt>
      <trkpt lat="42.658125" lon="-8.640134">
        <ele>203.600</ele>
        <time>2018-08-25T16:09:45Z</time>
      </trkpt>
      <trkpt lat="42.658167" lon="-8.640034">
        <ele>203.120</ele>
        <time>2018-08-25T16:09:47Z</time>
      </trkpt>
      <trkpt lat="42.658202" lon="-8.639983">
        <ele>202.808</ele>
        <time>2018-08-25T16:09:48Z</time>
      </trkpt>
      <trkpt lat="42.658241" lon="-8.639948">
        <ele>202.627</ele>
        <time>2018-08-25T16:09:49Z</time>
      </trkpt>
      <trkpt lat="42.658280" lon="-8.639914">
        <ele>202.453</ele>
        <time>2018-08-25T16:09:50Z</time>
      </trkpt>
      <trkpt lat="42.658325" lon="-8.639893">
        <ele>202.258</ele>
        <time>2018-08-25T16:09:51Z</time>
      </trkpt>
      <trkpt lat="42.658374" lon="-8.639884">
        <ele>202.252</ele>
        <time>2018-08-25T16:09:52Z</time>
      </trkpt>
      <trkpt lat="42.658423" lon="-8.639873">
        <ele>202.259</ele>
        <time>2018-08-25T16:09:53Z</time>
      </trkpt>
      <trkpt lat="42.658502" lon="-8.639834">
        <ele>202.247</ele>
        <time>2018-08-25T16:09:55Z</time>
      </trkpt>
      <trkpt lat="42.658541" lon="-8.639794">
        <ele>202.235</ele>
        <time>2018-08-25T16:09:56Z</time>
      </trkpt>
      <trkpt lat="42.658579" lon="-8.639736">
        <ele>202.075</ele>
        <time>2018-08-25T16:09:57Z</time>
      </trkpt>
      <trkpt lat="42.658607" lon="-8.639672">
        <ele>201.773</ele>
        <time>2018-08-25T16:09:58Z</time>
      </trkpt>
      <trkpt lat="42.658630" lon="-8.639599">
        <ele>201.485</ele>
        <time>2018-08-25T16:09:59Z</time>
      </trkpt>
      <trkpt lat="42.658650" lon="-8.639520">
        <ele>201.213</ele>
        <time>2018-08-25T16:10:00Z</time>
      </trkpt>
      <trkpt lat="42.658671" lon="-8.639441">
        <ele>200.808</ele>
        <time>2018-08-25T16:10:01Z</time>
      </trkpt>
      <trkpt lat="42.658687" lon="-8.639369">
        <ele>200.239</ele>
        <time>2018-08-25T16:10:02Z</time>
      </trkpt>
      <trkpt lat="42.658684" lon="-8.639306">
        <ele>199.835</ele>
        <time>2018-08-25T16:10:03Z</time>
      </trkpt>
      <trkpt lat="42.658625" lon="-8.639209">
        <ele>199.470</ele>
        <time>2018-08-25T16:10:05Z</time>
      </trkpt>
      <trkpt lat="42.658579" lon="-8.639172">
        <ele>199.084</ele>
        <time>2018-08-25T16:10:06Z</time>
      </trkpt>
      <trkpt lat="42.658533" lon="-8.639139">
        <ele>198.411</ele>
        <time>2018-08-25T16:10:07Z</time>
      </trkpt>
      <trkpt lat="42.658486" lon="-8.639109">
        <ele>198.099</ele>
        <time>2018-08-25T16:10:08Z</time>
      </trkpt>
      <trkpt lat="42.658442" lon="-8.639078">
        <ele>197.767</ele>
        <time>2018-08-25T16:10:09Z</time>
      </trkpt>
      <trkpt lat="42.658398" lon="-8.639044">
        <ele>197.527</ele>
        <time>2018-08-25T16:10:10Z</time>
      </trkpt>
      <trkpt lat="42.658357" lon="-8.639007">
        <ele>197.236</ele>
        <time>2018-08-25T16:10:11Z</time>
      </trkpt>
      <trkpt lat="42.658317" lon="-8.638966">
        <ele>196.917</ele>
        <time>2018-08-25T16:10:12Z</time>
      </trkpt>
      <trkpt lat="42.658281" lon="-8.638917">
        <ele>196.818</ele>
        <time>2018-08-25T16:10:13Z</time>
      </trkpt>
      <trkpt lat="42.658249" lon="-8.638862">
        <ele>196.808</ele>
        <time>2018-08-25T16:10:14Z</time>
      </trkpt>
      <trkpt lat="42.658221" lon="-8.638802">
        <ele>196.825</ele>
        <time>2018-08-25T16:10:15Z</time>
      </trkpt>
      <trkpt lat="42.658196" lon="-8.638741">
        <ele>196.761</ele>
        <time>2018-08-25T16:10:16Z</time>
      </trkpt>
      <trkpt lat="42.658170" lon="-8.638678">
        <ele>196.546</ele>
        <time>2018-08-25T16:10:17Z</time>
      </trkpt>
      <trkpt lat="42.658143" lon="-8.638609">
        <ele>196.430</ele>
        <time>2018-08-25T16:10:18Z</time>
      </trkpt>
      <trkpt lat="42.658123" lon="-8.638530">
        <ele>196.557</ele>
        <time>2018-08-25T16:10:19Z</time>
      </trkpt>
      <trkpt lat="42.658109" lon="-8.638458">
        <ele>196.565</ele>
        <time>2018-08-25T16:10:20Z</time>
      </trkpt>
      <trkpt lat="42.658077" lon="-8.638351">
        <ele>196.253</ele>
        <time>2018-08-25T16:10:22Z</time>
      </trkpt>
      <trkpt lat="42.658051" lon="-8.638282">
        <ele>195.983</ele>
        <time>2018-08-25T16:10:24Z</time>
      </trkpt>
      <trkpt lat="42.658024" lon="-8.638209">
        <ele>195.865</ele>
        <time>2018-08-25T16:10:27Z</time>
      </trkpt>
      <trkpt lat="42.657998" lon="-8.638144">
        <ele>195.868</ele>
        <time>2018-08-25T16:10:30Z</time>
      </trkpt>
      <trkpt lat="42.657992" lon="-8.638051">
        <ele>195.814</ele>
        <time>2018-08-25T16:10:33Z</time>
      </trkpt>
      <trkpt lat="42.658004" lon="-8.637944">
        <ele>195.808</ele>
        <time>2018-08-25T16:10:34Z</time>
      </trkpt>
      <trkpt lat="42.658059" lon="-8.637871">
        <ele>195.888</ele>
        <time>2018-08-25T16:10:36Z</time>
      </trkpt>
      <trkpt lat="42.658101" lon="-8.637847">
        <ele>196.044</ele>
        <time>2018-08-25T16:10:37Z</time>
      </trkpt>
      <trkpt lat="42.658183" lon="-8.637818">
        <ele>196.119</ele>
        <time>2018-08-25T16:10:39Z</time>
      </trkpt>
      <trkpt lat="42.658263" lon="-8.637794">
        <ele>196.243</ele>
        <time>2018-08-25T16:10:41Z</time>
      </trkpt>
      <trkpt lat="42.658341" lon="-8.637766">
        <ele>196.470</ele>
        <time>2018-08-25T16:10:43Z</time>
      </trkpt>
      <trkpt lat="42.658382" lon="-8.637672">
        <ele>196.638</ele>
        <time>2018-08-25T16:10:45Z</time>
      </trkpt>
      <trkpt lat="42.658391" lon="-8.637601">
        <ele>196.786</ele>
        <time>2018-08-25T16:10:47Z</time>
      </trkpt>
      <trkpt lat="42.658409" lon="-8.637502">
        <ele>196.836</ele>
        <time>2018-08-25T16:10:48Z</time>
      </trkpt>
      <trkpt lat="42.658423" lon="-8.637390">
        <ele>196.771</ele>
        <time>2018-08-25T16:10:50Z</time>
      </trkpt>
      <trkpt lat="42.658426" lon="-8.637327">
        <ele>196.541</ele>
        <time>2018-08-25T16:10:52Z</time>
      </trkpt>
      <trkpt lat="42.658427" lon="-8.637244">
        <ele>196.315</ele>
        <time>2018-08-25T16:10:54Z</time>
      </trkpt>
      <trkpt lat="42.658431" lon="-8.637162">
        <ele>196.408</ele>
        <time>2018-08-25T16:10:56Z</time>
      </trkpt>
      <trkpt lat="42.658434" lon="-8.637080">
        <ele>196.419</ele>
        <time>2018-08-25T16:10:58Z</time>
      </trkpt>
      <trkpt lat="42.658437" lon="-8.636998">
        <ele>196.435</ele>
        <time>2018-08-25T16:11:00Z</time>
      </trkpt>
      <trkpt lat="42.658446" lon="-8.636919">
        <ele>196.260</ele>
        <time>2018-08-25T16:11:02Z</time>
      </trkpt>
      <trkpt lat="42.658469" lon="-8.636847">
        <ele>195.964</ele>
        <time>2018-08-25T16:11:04Z</time>
      </trkpt>
      <trkpt lat="42.658510" lon="-8.636789">
        <ele>195.461</ele>
        <time>2018-08-25T16:11:06Z</time>
      </trkpt>
      <trkpt lat="42.658558" lon="-8.636739">
        <ele>194.959</ele>
        <time>2018-08-25T16:11:08Z</time>
      </trkpt>
      <trkpt lat="42.658603" lon="-8.636695">
        <ele>194.427</ele>
        <time>2018-08-25T16:11:10Z</time>
      </trkpt>
      <trkpt lat="42.658646" lon="-8.636649">
        <ele>193.977</ele>
        <time>2018-08-25T16:11:12Z</time>
      </trkpt>
      <trkpt lat="42.658685" lon="-8.636595">
        <ele>193.555</ele>
        <time>2018-08-25T16:11:14Z</time>
      </trkpt>
      <trkpt lat="42.658721" lon="-8.636530">
        <ele>193.407</ele>
        <time>2018-08-25T16:11:16Z</time>
      </trkpt>
      <trkpt lat="42.658750" lon="-8.636448">
        <ele>193.317</ele>
        <time>2018-08-25T16:11:18Z</time>
      </trkpt>
      <trkpt lat="42.658773" lon="-8.636358">
        <ele>193.408</ele>
        <time>2018-08-25T16:11:20Z</time>
      </trkpt>
      <trkpt lat="42.658793" lon="-8.636270">
        <ele>193.417</ele>
        <time>2018-08-25T16:11:22Z</time>
      </trkpt>
      <trkpt lat="42.658810" lon="-8.636183">
        <ele>193.573</ele>
        <time>2018-08-25T16:11:24Z</time>
      </trkpt>
      <trkpt lat="42.658824" lon="-8.636096">
        <ele>193.688</ele>
        <time>2018-08-25T16:11:26Z</time>
      </trkpt>
      <trkpt lat="42.658836" lon="-8.636009">
        <ele>193.672</ele>
        <time>2018-08-25T16:11:28Z</time>
      </trkpt>
      <trkpt lat="42.658848" lon="-8.635922">
        <ele>193.799</ele>
        <time>2018-08-25T16:11:30Z</time>
      </trkpt>
      <trkpt lat="42.658864" lon="-8.635839">
        <ele>193.867</ele>
        <time>2018-08-25T16:11:32Z</time>
      </trkpt>
      <trkpt lat="42.658880" lon="-8.635754">
        <ele>194.215</ele>
        <time>2018-08-25T16:11:34Z</time>
      </trkpt>
      <trkpt lat="42.658894" lon="-8.635674">
        <ele>194.535</ele>
        <time>2018-08-25T16:11:36Z</time>
      </trkpt>
      <trkpt lat="42.658905" lon="-8.635592">
        <ele>194.875</ele>
        <time>2018-08-25T16:11:38Z</time>
      </trkpt>
      <trkpt lat="42.658914" lon="-8.635507">
        <ele>195.128</ele>
        <time>2018-08-25T16:11:40Z</time>
      </trkpt>
      <trkpt lat="42.658925" lon="-8.635427">
        <ele>195.220</ele>
        <time>2018-08-25T16:11:42Z</time>
      </trkpt>
      <trkpt lat="42.658950" lon="-8.635352">
        <ele>195.108</ele>
        <time>2018-08-25T16:11:44Z</time>
      </trkpt>
      <trkpt lat="42.658998" lon="-8.635316">
        <ele>195.199</ele>
        <time>2018-08-25T16:11:46Z</time>
      </trkpt>
      <trkpt lat="42.659049" lon="-8.635313">
        <ele>195.375</ele>
        <time>2018-08-25T16:11:48Z</time>
      </trkpt>
      <trkpt lat="42.659095" lon="-8.635312">
        <ele>195.940</ele>
        <time>2018-08-25T16:11:50Z</time>
      </trkpt>
      <trkpt lat="42.659143" lon="-8.635314">
        <ele>196.464</ele>
        <time>2018-08-25T16:11:52Z</time>
      </trkpt>
      <trkpt lat="42.659195" lon="-8.635312">
        <ele>197.051</ele>
        <time>2018-08-25T16:11:54Z</time>
      </trkpt>
      <trkpt lat="42.659242" lon="-8.635303">
        <ele>197.499</ele>
        <time>2018-08-25T16:11:56Z</time>
      </trkpt>
      <trkpt lat="42.659286" lon="-8.635284">
        <ele>197.727</ele>
        <time>2018-08-25T16:11:58Z</time>
      </trkpt>
      <trkpt lat="42.659332" lon="-8.635258">
        <ele>197.737</ele>
        <time>2018-08-25T16:12:00Z</time>
      </trkpt>
      <trkpt lat="42.659388" lon="-8.635229">
        <ele>197.759</ele>
        <time>2018-08-25T16:12:02Z</time>
      </trkpt>
      <trkpt lat="42.659444" lon="-8.635206">
        <ele>197.703</ele>
        <time>2018-08-25T16:12:04Z</time>
      </trkpt>
      <trkpt lat="42.659500" lon="-8.635194">
        <ele>197.723</ele>
        <time>2018-08-25T16:12:06Z</time>
      </trkpt>
      <trkpt lat="42.659551" lon="-8.635203">
        <ele>197.708</ele>
        <time>2018-08-25T16:12:08Z</time>
      </trkpt>
      <trkpt lat="42.659607" lon="-8.635232">
        <ele>197.687</ele>
        <time>2018-08-25T16:12:10Z</time>
      </trkpt>
      <trkpt lat="42.659661" lon="-8.635273">
        <ele>197.833</ele>
        <time>2018-08-25T16:12:12Z</time>
      </trkpt>
      <trkpt lat="42.659718" lon="-8.635313">
        <ele>197.948</ele>
        <time>2018-08-25T16:12:14Z</time>
      </trkpt>
      <trkpt lat="42.659775" lon="-8.635353">
        <ele>198.022</ele>
        <time>2018-08-25T16:12:16Z</time>
      </trkpt>
      <trkpt lat="42.659831" lon="-8.635396">
        <ele>198.149</ele>
        <time>2018-08-25T16:12:18Z</time>
      </trkpt>
      <trkpt lat="42.659889" lon="-8.635430">
        <ele>198.127</ele>
        <time>2018-08-25T16:12:20Z</time>
      </trkpt>
      <trkpt lat="42.659941" lon="-8.635465">
        <ele>198.125</ele>
        <time>2018-08-25T16:12:22Z</time>
      </trkpt>
      <trkpt lat="42.659990" lon="-8.635507">
        <ele>198.175</ele>
        <time>2018-08-25T16:12:24Z</time>
      </trkpt>
      <trkpt lat="42.660046" lon="-8.635548">
        <ele>198.126</ele>
        <time>2018-08-25T16:12:26Z</time>
      </trkpt>
      <trkpt lat="42.660101" lon="-8.635591">
        <ele>198.147</ele>
        <time>2018-08-25T16:12:28Z</time>
      </trkpt>
      <trkpt lat="42.660156" lon="-8.635632">
        <ele>198.311</ele>
        <time>2018-08-25T16:12:30Z</time>
      </trkpt>
      <trkpt lat="42.660217" lon="-8.635669">
        <ele>198.508</ele>
        <time>2018-08-25T16:12:32Z</time>
      </trkpt>
      <trkpt lat="42.660276" lon="-8.635715">
        <ele>198.464</ele>
        <time>2018-08-25T16:12:34Z</time>
      </trkpt>
      <trkpt lat="42.660331" lon="-8.635770">
        <ele>198.460</ele>
        <time>2018-08-25T16:12:36Z</time>
      </trkpt>
      <trkpt lat="42.660379" lon="-8.635831">
        <ele>198.525</ele>
        <time>2018-08-25T16:12:38Z</time>
      </trkpt>
      <trkpt lat="42.660421" lon="-8.635885">
        <ele>198.679</ele>
        <time>2018-08-25T16:12:40Z</time>
      </trkpt>
      <trkpt lat="42.660467" lon="-8.635928">
        <ele>198.756</ele>
        <time>2018-08-25T16:12:42Z</time>
      </trkpt>
      <trkpt lat="42.660516" lon="-8.635959">
        <ele>198.824</ele>
        <time>2018-08-25T16:12:44Z</time>
      </trkpt>
      <trkpt lat="42.660565" lon="-8.635987">
        <ele>198.712</ele>
        <time>2018-08-25T16:12:46Z</time>
      </trkpt>
      <trkpt lat="42.660612" lon="-8.636013">
        <ele>198.482</ele>
        <time>2018-08-25T16:12:48Z</time>
      </trkpt>
      <trkpt lat="42.660661" lon="-8.636044">
        <ele>197.982</ele>
        <time>2018-08-25T16:12:50Z</time>
      </trkpt>
      <trkpt lat="42.660715" lon="-8.636084">
        <ele>197.243</ele>
        <time>2018-08-25T16:12:52Z</time>
      </trkpt>
      <trkpt lat="42.660768" lon="-8.636130">
        <ele>196.517</ele>
        <time>2018-08-25T16:12:54Z</time>
      </trkpt>
      <trkpt lat="42.660816" lon="-8.636177">
        <ele>196.008</ele>
        <time>2018-08-25T16:12:56Z</time>
      </trkpt>
      <trkpt lat="42.660862" lon="-8.636220">
        <ele>195.530</ele>
        <time>2018-08-25T16:12:58Z</time>
      </trkpt>
      <trkpt lat="42.660913" lon="-8.636253">
        <ele>194.926</ele>
        <time>2018-08-25T16:13:00Z</time>
      </trkpt>
      <trkpt lat="42.660969" lon="-8.636266">
        <ele>194.021</ele>
        <time>2018-08-25T16:13:02Z</time>
      </trkpt>
      <trkpt lat="42.661023" lon="-8.636280">
        <ele>193.285</ele>
        <time>2018-08-25T16:13:04Z</time>
      </trkpt>
      <trkpt lat="42.661089" lon="-8.636302">
        <ele>192.622</ele>
        <time>2018-08-25T16:13:06Z</time>
      </trkpt>
      <trkpt lat="42.661161" lon="-8.636315">
        <ele>192.390</ele>
        <time>2018-08-25T16:13:08Z</time>
      </trkpt>
      <trkpt lat="42.661237" lon="-8.636311">
        <ele>192.198</ele>
        <time>2018-08-25T16:13:10Z</time>
      </trkpt>
      <trkpt lat="42.661310" lon="-8.636307">
        <ele>191.968</ele>
        <time>2018-08-25T16:13:12Z</time>
      </trkpt>
      <trkpt lat="42.661371" lon="-8.636296">
        <ele>191.641</ele>
        <time>2018-08-25T16:13:14Z</time>
      </trkpt>
      <trkpt lat="42.661419" lon="-8.636282">
        <ele>191.381</ele>
        <time>2018-08-25T16:13:16Z</time>
      </trkpt>
      <trkpt lat="42.661479" lon="-8.636252">
        <ele>191.009</ele>
        <time>2018-08-25T16:13:19Z</time>
      </trkpt>
      <trkpt lat="42.661537" lon="-8.636203">
        <ele>191.008</ele>
        <time>2018-08-25T16:13:22Z</time>
      </trkpt>
      <trkpt lat="42.661572" lon="-8.636160">
        <ele>190.856</ele>
        <time>2018-08-25T16:13:24Z</time>
      </trkpt>
      <trkpt lat="42.661609" lon="-8.636115">
        <ele>190.832</ele>
        <time>2018-08-25T16:13:26Z</time>
      </trkpt>
      <trkpt lat="42.661647" lon="-8.636068">
        <ele>191.277</ele>
        <time>2018-08-25T16:13:28Z</time>
      </trkpt>
      <trkpt lat="42.661684" lon="-8.636025">
        <ele>191.931</ele>
        <time>2018-08-25T16:13:30Z</time>
      </trkpt>
      <trkpt lat="42.661728" lon="-8.635973">
        <ele>192.688</ele>
        <time>2018-08-25T16:13:32Z</time>
      </trkpt>
      <trkpt lat="42.661779" lon="-8.635909">
        <ele>193.326</ele>
        <time>2018-08-25T16:13:34Z</time>
      </trkpt>
      <trkpt lat="42.661842" lon="-8.635819">
        <ele>194.074</ele>
        <time>2018-08-25T16:13:35Z</time>
      </trkpt>
      <trkpt lat="42.661900" lon="-8.635729">
        <ele>194.874</ele>
        <time>2018-08-25T16:13:37Z</time>
      </trkpt>
      <trkpt lat="42.661939" lon="-8.635676">
        <ele>195.455</ele>
        <time>2018-08-25T16:13:38Z</time>
      </trkpt>
      <trkpt lat="42.661976" lon="-8.635618">
        <ele>195.807</ele>
        <time>2018-08-25T16:13:39Z</time>
      </trkpt>
      <trkpt lat="42.662016" lon="-8.635555">
        <ele>195.717</ele>
        <time>2018-08-25T16:13:40Z</time>
      </trkpt>
      <trkpt lat="42.662059" lon="-8.635496">
        <ele>195.108</ele>
        <time>2018-08-25T16:13:41Z</time>
      </trkpt>
      <trkpt lat="42.662108" lon="-8.635442">
        <ele>194.187</ele>
        <time>2018-08-25T16:13:42Z</time>
      </trkpt>
      <trkpt lat="42.662163" lon="-8.635394">
        <ele>193.143</ele>
        <time>2018-08-25T16:13:43Z</time>
      </trkpt>
      <trkpt lat="42.662216" lon="-8.635353">
        <ele>192.238</ele>
        <time>2018-08-25T16:13:44Z</time>
      </trkpt>
      <trkpt lat="42.662267" lon="-8.635319">
        <ele>191.152</ele>
        <time>2018-08-25T16:13:45Z</time>
      </trkpt>
      <trkpt lat="42.662315" lon="-8.635284">
        <ele>190.289</ele>
        <time>2018-08-25T16:13:46Z</time>
      </trkpt>
      <trkpt lat="42.662362" lon="-8.635252">
        <ele>189.527</ele>
        <time>2018-08-25T16:13:47Z</time>
      </trkpt>
      <trkpt lat="42.662404" lon="-8.635221">
        <ele>188.925</ele>
        <time>2018-08-25T16:13:48Z</time>
      </trkpt>
      <trkpt lat="42.662457" lon="-8.635184">
        <ele>188.165</ele>
        <time>2018-08-25T16:13:50Z</time>
      </trkpt>
      <trkpt lat="42.662534" lon="-8.635127">
        <ele>187.542</ele>
        <time>2018-08-25T16:13:52Z</time>
      </trkpt>
      <trkpt lat="42.662602" lon="-8.635034">
        <ele>187.122</ele>
        <time>2018-08-25T16:13:54Z</time>
      </trkpt>
      <trkpt lat="42.662641" lon="-8.634975">
        <ele>186.514</ele>
        <time>2018-08-25T16:13:55Z</time>
      </trkpt>
      <trkpt lat="42.662692" lon="-8.634919">
        <ele>185.808</ele>
        <time>2018-08-25T16:13:56Z</time>
      </trkpt>
      <trkpt lat="42.662750" lon="-8.634863">
        <ele>184.896</ele>
        <time>2018-08-25T16:13:57Z</time>
      </trkpt>
      <trkpt lat="42.662807" lon="-8.634798">
        <ele>183.982</ele>
        <time>2018-08-25T16:13:58Z</time>
      </trkpt>
      <trkpt lat="42.662861" lon="-8.634726">
        <ele>183.427</ele>
        <time>2018-08-25T16:13:59Z</time>
      </trkpt>
      <trkpt lat="42.662914" lon="-8.634652">
        <ele>182.831</ele>
        <time>2018-08-25T16:14:00Z</time>
      </trkpt>
      <trkpt lat="42.662971" lon="-8.634585">
        <ele>182.188</ele>
        <time>2018-08-25T16:14:01Z</time>
      </trkpt>
      <trkpt lat="42.663034" lon="-8.634529">
        <ele>181.596</ele>
        <time>2018-08-25T16:14:02Z</time>
      </trkpt>
      <trkpt lat="42.663099" lon="-8.634485">
        <ele>181.154</ele>
        <time>2018-08-25T16:14:03Z</time>
      </trkpt>
      <trkpt lat="42.663161" lon="-8.634443">
        <ele>181.084</ele>
        <time>2018-08-25T16:14:04Z</time>
      </trkpt>
      <trkpt lat="42.663221" lon="-8.634401">
        <ele>181.394</ele>
        <time>2018-08-25T16:14:05Z</time>
      </trkpt>
      <trkpt lat="42.663272" lon="-8.634359">
        <ele>181.457</ele>
        <time>2018-08-25T16:14:06Z</time>
      </trkpt>
      <trkpt lat="42.663320" lon="-8.634314">
        <ele>181.922</ele>
        <time>2018-08-25T16:14:07Z</time>
      </trkpt>
      <trkpt lat="42.663363" lon="-8.634273">
        <ele>182.508</ele>
        <time>2018-08-25T16:14:08Z</time>
      </trkpt>
      <trkpt lat="42.663404" lon="-8.634235">
        <ele>183.131</ele>
        <time>2018-08-25T16:14:09Z</time>
      </trkpt>
      <trkpt lat="42.663442" lon="-8.634201">
        <ele>183.557</ele>
        <time>2018-08-25T16:14:10Z</time>
      </trkpt>
      <trkpt lat="42.663499" lon="-8.634158">
        <ele>183.922</ele>
        <time>2018-08-25T16:14:13Z</time>
      </trkpt>
      <trkpt lat="42.663542" lon="-8.634127">
        <ele>184.016</ele>
        <time>2018-08-25T16:14:15Z</time>
      </trkpt>
      <trkpt lat="42.663590" lon="-8.634087">
        <ele>184.183</ele>
        <time>2018-08-25T16:14:17Z</time>
      </trkpt>
      <trkpt lat="42.663637" lon="-8.634047">
        <ele>184.161</ele>
        <time>2018-08-25T16:14:19Z</time>
      </trkpt>
      <trkpt lat="42.663685" lon="-8.634005">
        <ele>183.989</ele>
        <time>2018-08-25T16:14:21Z</time>
      </trkpt>
      <trkpt lat="42.663734" lon="-8.633958">
        <ele>183.969</ele>
        <time>2018-08-25T16:14:23Z</time>
      </trkpt>
      <trkpt lat="42.663779" lon="-8.633918">
        <ele>183.812</ele>
        <time>2018-08-25T16:14:25Z</time>
      </trkpt>
      <trkpt lat="42.663824" lon="-8.633885">
        <ele>183.732</ele>
        <time>2018-08-25T16:14:27Z</time>
      </trkpt>
      <trkpt lat="42.663866" lon="-8.633859">
        <ele>183.605</ele>
        <time>2018-08-25T16:14:29Z</time>
      </trkpt>
      <trkpt lat="42.663909" lon="-8.633839">
        <ele>183.408</ele>
        <time>2018-08-25T16:14:31Z</time>
      </trkpt>
      <trkpt lat="42.663954" lon="-8.633823">
        <ele>183.293</ele>
        <time>2018-08-25T16:14:33Z</time>
      </trkpt>
      <trkpt lat="42.664001" lon="-8.633806">
        <ele>183.149</ele>
        <time>2018-08-25T16:14:35Z</time>
      </trkpt>
      <trkpt lat="42.664049" lon="-8.633787">
        <ele>183.174</ele>
        <time>2018-08-25T16:14:37Z</time>
      </trkpt>
      <trkpt lat="42.664098" lon="-8.633764">
        <ele>183.128</ele>
        <time>2018-08-25T16:14:39Z</time>
      </trkpt>
      <trkpt lat="42.664147" lon="-8.633744">
        <ele>183.165</ele>
        <time>2018-08-25T16:14:41Z</time>
      </trkpt>
      <trkpt lat="42.664199" lon="-8.633722">
        <ele>183.293</ele>
        <time>2018-08-25T16:14:43Z</time>
      </trkpt>
      <trkpt lat="42.664250" lon="-8.633702">
        <ele>183.441</ele>
        <time>2018-08-25T16:14:45Z</time>
      </trkpt>
      <trkpt lat="42.664301" lon="-8.633682">
        <ele>183.571</ele>
        <time>2018-08-25T16:14:47Z</time>
      </trkpt>
      <trkpt lat="42.664354" lon="-8.633655">
        <ele>183.642</ele>
        <time>2018-08-25T16:14:49Z</time>
      </trkpt>
      <trkpt lat="42.664406" lon="-8.633627">
        <ele>183.622</ele>
        <time>2018-08-25T16:14:51Z</time>
      </trkpt>
      <trkpt lat="42.664458" lon="-8.633601">
        <ele>183.614</ele>
        <time>2018-08-25T16:14:53Z</time>
      </trkpt>
      <trkpt lat="42.664513" lon="-8.633569">
        <ele>183.708</ele>
        <time>2018-08-25T16:14:55Z</time>
      </trkpt>
      <trkpt lat="42.664567" lon="-8.633538">
        <ele>183.726</ele>
        <time>2018-08-25T16:14:57Z</time>
      </trkpt>
      <trkpt lat="42.664622" lon="-8.633509">
        <ele>183.832</ele>
        <time>2018-08-25T16:14:59Z</time>
      </trkpt>
      <trkpt lat="42.664681" lon="-8.633481">
        <ele>183.757</ele>
        <time>2018-08-25T16:15:01Z</time>
      </trkpt>
      <trkpt lat="42.664738" lon="-8.633461">
        <ele>183.761</ele>
        <time>2018-08-25T16:15:03Z</time>
      </trkpt>
      <trkpt lat="42.664792" lon="-8.633443">
        <ele>183.558</ele>
        <time>2018-08-25T16:15:05Z</time>
      </trkpt>
      <trkpt lat="42.664849" lon="-8.633425">
        <ele>183.256</ele>
        <time>2018-08-25T16:15:07Z</time>
      </trkpt>
      <trkpt lat="42.664906" lon="-8.633406">
        <ele>182.724</ele>
        <time>2018-08-25T16:15:09Z</time>
      </trkpt>
      <trkpt lat="42.664969" lon="-8.633388">
        <ele>182.584</ele>
        <time>2018-08-25T16:15:11Z</time>
      </trkpt>
      <trkpt lat="42.665033" lon="-8.633374">
        <ele>182.247</ele>
        <time>2018-08-25T16:15:13Z</time>
      </trkpt>
      <trkpt lat="42.665101" lon="-8.633357">
        <ele>181.929</ele>
        <time>2018-08-25T16:15:15Z</time>
      </trkpt>
      <trkpt lat="42.665169" lon="-8.633338">
        <ele>181.621</ele>
        <time>2018-08-25T16:15:17Z</time>
      </trkpt>
      <trkpt lat="42.665237" lon="-8.633320">
        <ele>181.308</ele>
        <time>2018-08-25T16:15:19Z</time>
      </trkpt>
      <trkpt lat="42.665322" lon="-8.633299">
        <ele>181.256</ele>
        <time>2018-08-25T16:15:20Z</time>
      </trkpt>
      <trkpt lat="42.665396" lon="-8.633281">
        <ele>181.152</ele>
        <time>2018-08-25T16:15:22Z</time>
      </trkpt>
      <trkpt lat="42.665475" lon="-8.633265">
        <ele>180.937</ele>
        <time>2018-08-25T16:15:24Z</time>
      </trkpt>
      <trkpt lat="42.665558" lon="-8.633248">
        <ele>180.571</ele>
        <time>2018-08-25T16:15:26Z</time>
      </trkpt>
      <trkpt lat="42.665646" lon="-8.633225">
        <ele>180.638</ele>
        <time>2018-08-25T16:15:28Z</time>
      </trkpt>
      <trkpt lat="42.665691" lon="-8.633212">
        <ele>180.616</ele>
        <time>2018-08-25T16:15:29Z</time>
      </trkpt>
      <trkpt lat="42.665735" lon="-8.633200">
        <ele>180.714</ele>
        <time>2018-08-25T16:15:30Z</time>
      </trkpt>
      <trkpt lat="42.665822" lon="-8.633186">
        <ele>180.784</ele>
        <time>2018-08-25T16:15:32Z</time>
      </trkpt>
      <trkpt lat="42.665902" lon="-8.633163">
        <ele>180.979</ele>
        <time>2018-08-25T16:15:34Z</time>
      </trkpt>
      <trkpt lat="42.665955" lon="-8.633142">
        <ele>181.305</ele>
        <time>2018-08-25T16:15:36Z</time>
      </trkpt>
      <trkpt lat="42.666005" lon="-8.633133">
        <ele>181.725</ele>
        <time>2018-08-25T16:15:38Z</time>
      </trkpt>
      <trkpt lat="42.666061" lon="-8.633124">
        <ele>181.808</ele>
        <time>2018-08-25T16:15:40Z</time>
      </trkpt>
      <trkpt lat="42.666122" lon="-8.633121">
        <ele>181.869</ele>
        <time>2018-08-25T16:15:42Z</time>
      </trkpt>
      <trkpt lat="42.666181" lon="-8.633117">
        <ele>181.755</ele>
        <time>2018-08-25T16:15:44Z</time>
      </trkpt>
      <trkpt lat="42.666237" lon="-8.633109">
        <ele>181.570</ele>
        <time>2018-08-25T16:15:46Z</time>
      </trkpt>
      <trkpt lat="42.666292" lon="-8.633108">
        <ele>181.534</ele>
        <time>2018-08-25T16:15:48Z</time>
      </trkpt>
      <trkpt lat="42.666350" lon="-8.633104">
        <ele>181.841</ele>
        <time>2018-08-25T16:15:50Z</time>
      </trkpt>
      <trkpt lat="42.666408" lon="-8.633102">
        <ele>182.349</ele>
        <time>2018-08-25T16:15:52Z</time>
      </trkpt>
      <trkpt lat="42.666466" lon="-8.633106">
        <ele>183.057</ele>
        <time>2018-08-25T16:15:54Z</time>
      </trkpt>
      <trkpt lat="42.666522" lon="-8.633111">
        <ele>183.537</ele>
        <time>2018-08-25T16:15:56Z</time>
      </trkpt>
      <trkpt lat="42.666574" lon="-8.633108">
        <ele>183.777</ele>
        <time>2018-08-25T16:15:58Z</time>
      </trkpt>
      <trkpt lat="42.666625" lon="-8.633099">
        <ele>183.961</ele>
        <time>2018-08-25T16:16:00Z</time>
      </trkpt>
      <trkpt lat="42.666675" lon="-8.633093">
        <ele>184.227</ele>
        <time>2018-08-25T16:16:02Z</time>
      </trkpt>
      <trkpt lat="42.666724" lon="-8.633092">
        <ele>184.508</ele>
        <time>2018-08-25T16:16:04Z</time>
      </trkpt>
      <trkpt lat="42.666772" lon="-8.633091">
        <ele>184.759</ele>
        <time>2018-08-25T16:16:06Z</time>
      </trkpt>
      <trkpt lat="42.666820" lon="-8.633091">
        <ele>185.145</ele>
        <time>2018-08-25T16:16:08Z</time>
      </trkpt>
      <trkpt lat="42.666868" lon="-8.633090">
        <ele>185.510</ele>
        <time>2018-08-25T16:16:10Z</time>
      </trkpt>
      <trkpt lat="42.666918" lon="-8.633091">
        <ele>186.114</ele>
        <time>2018-08-25T16:16:12Z</time>
      </trkpt>
      <trkpt lat="42.666968" lon="-8.633093">
        <ele>186.811</ele>
        <time>2018-08-25T16:16:14Z</time>
      </trkpt>
      <trkpt lat="42.667015" lon="-8.633095">
        <ele>187.479</ele>
        <time>2018-08-25T16:16:16Z</time>
      </trkpt>
      <trkpt lat="42.667062" lon="-8.633097">
        <ele>187.917</ele>
        <time>2018-08-25T16:16:18Z</time>
      </trkpt>
      <trkpt lat="42.667126" lon="-8.633091">
        <ele>188.477</ele>
        <time>2018-08-25T16:16:21Z</time>
      </trkpt>
      <trkpt lat="42.667198" lon="-8.633106">
        <ele>188.677</ele>
        <time>2018-08-25T16:16:28Z</time>
      </trkpt>
      <trkpt lat="42.667236" lon="-8.633138">
        <ele>189.161</ele>
        <time>2018-08-25T16:16:32Z</time>
      </trkpt>
      <trkpt lat="42.667249" lon="-8.633232">
        <ele>189.627</ele>
        <time>2018-08-25T16:16:35Z</time>
      </trkpt>
      <trkpt lat="42.667244" lon="-8.633310">
        <ele>190.008</ele>
        <time>2018-08-25T16:16:37Z</time>
      </trkpt>
      <trkpt lat="42.667234" lon="-8.633391">
        <ele>189.959</ele>
        <time>2018-08-25T16:16:39Z</time>
      </trkpt>
      <trkpt lat="42.667223" lon="-8.633468">
        <ele>189.985</ele>
        <time>2018-08-25T16:16:41Z</time>
      </trkpt>
      <trkpt lat="42.667210" lon="-8.633544">
        <ele>189.860</ele>
        <time>2018-08-25T16:16:43Z</time>
      </trkpt>
      <trkpt lat="42.667199" lon="-8.633617">
        <ele>189.634</ele>
        <time>2018-08-25T16:16:45Z</time>
      </trkpt>
      <trkpt lat="42.667191" lon="-8.633688">
        <ele>189.521</ele>
        <time>2018-08-25T16:16:47Z</time>
      </trkpt>
      <trkpt lat="42.667192" lon="-8.633751">
        <ele>189.729</ele>
        <time>2018-08-25T16:16:50Z</time>
      </trkpt>
      <trkpt lat="42.667253" lon="-8.633776">
        <ele>189.967</ele>
        <time>2018-08-25T16:16:55Z</time>
      </trkpt>
      <trkpt lat="42.667328" lon="-8.633766">
        <ele>190.027</ele>
        <time>2018-08-25T16:16:56Z</time>
      </trkpt>
      <trkpt lat="42.667408" lon="-8.633771">
        <ele>189.953</ele>
        <time>2018-08-25T16:16:58Z</time>
      </trkpt>
      <trkpt lat="42.667491" lon="-8.633777">
        <ele>189.504</ele>
        <time>2018-08-25T16:17:00Z</time>
      </trkpt>
      <trkpt lat="42.667575" lon="-8.633788">
        <ele>188.814</ele>
        <time>2018-08-25T16:17:02Z</time>
      </trkpt>
      <trkpt lat="42.667622" lon="-8.633797">
        <ele>188.008</ele>
        <time>2018-08-25T16:17:03Z</time>
      </trkpt>
      <trkpt lat="42.667678" lon="-8.633805">
        <ele>187.427</ele>
        <time>2018-08-25T16:17:04Z</time>
      </trkpt>
      <trkpt lat="42.667739" lon="-8.633803">
        <ele>186.743</ele>
        <time>2018-08-25T16:17:05Z</time>
      </trkpt>
      <trkpt lat="42.667802" lon="-8.633801">
        <ele>186.238</ele>
        <time>2018-08-25T16:17:06Z</time>
      </trkpt>
      <trkpt lat="42.667863" lon="-8.633801">
        <ele>185.762</ele>
        <time>2018-08-25T16:17:07Z</time>
      </trkpt>
      <trkpt lat="42.667922" lon="-8.633806">
        <ele>185.229</ele>
        <time>2018-08-25T16:17:08Z</time>
      </trkpt>
      <trkpt lat="42.667980" lon="-8.633813">
        <ele>184.817</ele>
        <time>2018-08-25T16:17:09Z</time>
      </trkpt>
      <trkpt lat="42.668036" lon="-8.633819">
        <ele>184.565</ele>
        <time>2018-08-25T16:17:10Z</time>
      </trkpt>
      <trkpt lat="42.668091" lon="-8.633826">
        <ele>184.265</ele>
        <time>2018-08-25T16:17:11Z</time>
      </trkpt>
      <trkpt lat="42.668148" lon="-8.633836">
        <ele>183.926</ele>
        <time>2018-08-25T16:17:12Z</time>
      </trkpt>
      <trkpt lat="42.668208" lon="-8.633842">
        <ele>183.647</ele>
        <time>2018-08-25T16:17:13Z</time>
      </trkpt>
      <trkpt lat="42.668270" lon="-8.633848">
        <ele>183.311</ele>
        <time>2018-08-25T16:17:14Z</time>
      </trkpt>
      <trkpt lat="42.668332" lon="-8.633852">
        <ele>183.008</ele>
        <time>2018-08-25T16:17:15Z</time>
      </trkpt>
      <trkpt lat="42.668393" lon="-8.633855">
        <ele>182.764</ele>
        <time>2018-08-25T16:17:16Z</time>
      </trkpt>
      <trkpt lat="42.668454" lon="-8.633856">
        <ele>182.520</ele>
        <time>2018-08-25T16:17:17Z</time>
      </trkpt>
      <trkpt lat="42.668515" lon="-8.633856">
        <ele>182.265</ele>
        <time>2018-08-25T16:17:18Z</time>
      </trkpt>
      <trkpt lat="42.668576" lon="-8.633855">
        <ele>181.849</ele>
        <time>2018-08-25T16:17:19Z</time>
      </trkpt>
      <trkpt lat="42.668635" lon="-8.633853">
        <ele>181.436</ele>
        <time>2018-08-25T16:17:20Z</time>
      </trkpt>
      <trkpt lat="42.668688" lon="-8.633846">
        <ele>180.844</ele>
        <time>2018-08-25T16:17:21Z</time>
      </trkpt>
      <trkpt lat="42.668741" lon="-8.633840">
        <ele>180.292</ele>
        <time>2018-08-25T16:17:22Z</time>
      </trkpt>
      <trkpt lat="42.668798" lon="-8.633839">
        <ele>179.782</ele>
        <time>2018-08-25T16:17:23Z</time>
      </trkpt>
      <trkpt lat="42.668856" lon="-8.633838">
        <ele>179.095</ele>
        <time>2018-08-25T16:17:24Z</time>
      </trkpt>
      <trkpt lat="42.668916" lon="-8.633834">
        <ele>178.449</ele>
        <time>2018-08-25T16:17:25Z</time>
      </trkpt>
      <trkpt lat="42.668977" lon="-8.633831">
        <ele>177.923</ele>
        <time>2018-08-25T16:17:26Z</time>
      </trkpt>
      <trkpt lat="42.669039" lon="-8.633835">
        <ele>177.408</ele>
        <time>2018-08-25T16:17:27Z</time>
      </trkpt>
      <trkpt lat="42.669104" lon="-8.633839">
        <ele>176.941</ele>
        <time>2018-08-25T16:17:28Z</time>
      </trkpt>
      <trkpt lat="42.669171" lon="-8.633837">
        <ele>176.447</ele>
        <time>2018-08-25T16:17:29Z</time>
      </trkpt>
      <trkpt lat="42.669239" lon="-8.633831">
        <ele>175.972</ele>
        <time>2018-08-25T16:17:30Z</time>
      </trkpt>
      <trkpt lat="42.669306" lon="-8.633828">
        <ele>175.586</ele>
        <time>2018-08-25T16:17:31Z</time>
      </trkpt>
      <trkpt lat="42.669375" lon="-8.633823">
        <ele>175.213</ele>
        <time>2018-08-25T16:17:32Z</time>
      </trkpt>
      <trkpt lat="42.669447" lon="-8.633813">
        <ele>174.971</ele>
        <time>2018-08-25T16:17:33Z</time>
      </trkpt>
      <trkpt lat="42.669518" lon="-8.633807">
        <ele>174.649</ele>
        <time>2018-08-25T16:17:34Z</time>
      </trkpt>
      <trkpt lat="42.669589" lon="-8.633799">
        <ele>174.399</ele>
        <time>2018-08-25T16:17:35Z</time>
      </trkpt>
      <trkpt lat="42.669661" lon="-8.633788">
        <ele>174.093</ele>
        <time>2018-08-25T16:17:36Z</time>
      </trkpt>
      <trkpt lat="42.669734" lon="-8.633776">
        <ele>173.765</ele>
        <time>2018-08-25T16:17:37Z</time>
      </trkpt>
      <trkpt lat="42.669807" lon="-8.633765">
        <ele>173.221</ele>
        <time>2018-08-25T16:17:38Z</time>
      </trkpt>
      <trkpt lat="42.669879" lon="-8.633756">
        <ele>172.708</ele>
        <time>2018-08-25T16:17:39Z</time>
      </trkpt>
      <trkpt lat="42.669950" lon="-8.633747">
        <ele>172.131</ele>
        <time>2018-08-25T16:17:40Z</time>
      </trkpt>
      <trkpt lat="42.670020" lon="-8.633737">
        <ele>171.717</ele>
        <time>2018-08-25T16:17:41Z</time>
      </trkpt>
      <trkpt lat="42.670087" lon="-8.633723">
        <ele>171.322</ele>
        <time>2018-08-25T16:17:42Z</time>
      </trkpt>
      <trkpt lat="42.670152" lon="-8.633708">
        <ele>170.976</ele>
        <time>2018-08-25T16:17:43Z</time>
      </trkpt>
      <trkpt lat="42.670216" lon="-8.633691">
        <ele>170.653</ele>
        <time>2018-08-25T16:17:44Z</time>
      </trkpt>
      <trkpt lat="42.670278" lon="-8.633667">
        <ele>170.221</ele>
        <time>2018-08-25T16:17:45Z</time>
      </trkpt>
      <trkpt lat="42.670338" lon="-8.633644">
        <ele>169.879</ele>
        <time>2018-08-25T16:17:46Z</time>
      </trkpt>
      <trkpt lat="42.670398" lon="-8.633620">
        <ele>169.659</ele>
        <time>2018-08-25T16:17:47Z</time>
      </trkpt>
      <trkpt lat="42.670456" lon="-8.633598">
        <ele>169.586</ele>
        <time>2018-08-25T16:17:48Z</time>
      </trkpt>
      <trkpt lat="42.670509" lon="-8.633579">
        <ele>169.460</ele>
        <time>2018-08-25T16:17:49Z</time>
      </trkpt>
      <trkpt lat="42.670558" lon="-8.633560">
        <ele>169.326</ele>
        <time>2018-08-25T16:17:50Z</time>
      </trkpt>
      <trkpt lat="42.670602" lon="-8.633540">
        <ele>169.208</ele>
        <time>2018-08-25T16:17:51Z</time>
      </trkpt>
      <trkpt lat="42.670688" lon="-8.633509">
        <ele>169.190</ele>
        <time>2018-08-25T16:17:53Z</time>
      </trkpt>
      <trkpt lat="42.670773" lon="-8.633481">
        <ele>168.836</ele>
        <time>2018-08-25T16:17:55Z</time>
      </trkpt>
      <trkpt lat="42.670816" lon="-8.633463">
        <ele>168.451</ele>
        <time>2018-08-25T16:17:56Z</time>
      </trkpt>
      <trkpt lat="42.670864" lon="-8.633446">
        <ele>168.065</ele>
        <time>2018-08-25T16:17:57Z</time>
      </trkpt>
      <trkpt lat="42.670919" lon="-8.633433">
        <ele>167.482</ele>
        <time>2018-08-25T16:17:58Z</time>
      </trkpt>
      <trkpt lat="42.670982" lon="-8.633428">
        <ele>166.760</ele>
        <time>2018-08-25T16:17:59Z</time>
      </trkpt>
      <trkpt lat="42.671051" lon="-8.633423">
        <ele>166.058</ele>
        <time>2018-08-25T16:18:00Z</time>
      </trkpt>
      <trkpt lat="42.671123" lon="-8.633409">
        <ele>165.618</ele>
        <time>2018-08-25T16:18:01Z</time>
      </trkpt>
      <trkpt lat="42.671199" lon="-8.633384">
        <ele>165.167</ele>
        <time>2018-08-25T16:18:02Z</time>
      </trkpt>
      <trkpt lat="42.671276" lon="-8.633363">
        <ele>164.681</ele>
        <time>2018-08-25T16:18:03Z</time>
      </trkpt>
      <trkpt lat="42.671355" lon="-8.633348">
        <ele>164.219</ele>
        <time>2018-08-25T16:18:04Z</time>
      </trkpt>
      <trkpt lat="42.671436" lon="-8.633327">
        <ele>163.908</ele>
        <time>2018-08-25T16:18:05Z</time>
      </trkpt>
      <trkpt lat="42.671513" lon="-8.633298">
        <ele>163.658</ele>
        <time>2018-08-25T16:18:06Z</time>
      </trkpt>
      <trkpt lat="42.671587" lon="-8.633267">
        <ele>163.124</ele>
        <time>2018-08-25T16:18:07Z</time>
      </trkpt>
      <trkpt lat="42.671660" lon="-8.633237">
        <ele>162.619</ele>
        <time>2018-08-25T16:18:08Z</time>
      </trkpt>
      <trkpt lat="42.671733" lon="-8.633212">
        <ele>162.353</ele>
        <time>2018-08-25T16:18:09Z</time>
      </trkpt>
      <trkpt lat="42.671803" lon="-8.633189">
        <ele>162.070</ele>
        <time>2018-08-25T16:18:10Z</time>
      </trkpt>
      <trkpt lat="42.671868" lon="-8.633167">
        <ele>161.768</ele>
        <time>2018-08-25T16:18:11Z</time>
      </trkpt>
      <trkpt lat="42.671928" lon="-8.633148">
        <ele>161.486</ele>
        <time>2018-08-25T16:18:12Z</time>
      </trkpt>
      <trkpt lat="42.671985" lon="-8.633134">
        <ele>161.216</ele>
        <time>2018-08-25T16:18:13Z</time>
      </trkpt>
      <trkpt lat="42.672039" lon="-8.633127">
        <ele>161.151</ele>
        <time>2018-08-25T16:18:14Z</time>
      </trkpt>
      <trkpt lat="42.672090" lon="-8.633124">
        <ele>161.001</ele>
        <time>2018-08-25T16:18:15Z</time>
      </trkpt>
      <trkpt lat="42.672173" lon="-8.633097">
        <ele>161.111</ele>
        <time>2018-08-25T16:18:17Z</time>
      </trkpt>
      <trkpt lat="42.672219" lon="-8.633077">
        <ele>161.008</ele>
        <time>2018-08-25T16:18:20Z</time>
      </trkpt>
      <trkpt lat="42.672267" lon="-8.633059">
        <ele>160.977</ele>
        <time>2018-08-25T16:18:24Z</time>
      </trkpt>
      <trkpt lat="42.672325" lon="-8.633031">
        <ele>161.093</ele>
        <time>2018-08-25T16:18:28Z</time>
      </trkpt>
      <trkpt lat="42.672376" lon="-8.633007">
        <ele>161.368</ele>
        <time>2018-08-25T16:18:31Z</time>
      </trkpt>
      <trkpt lat="42.672422" lon="-8.632987">
        <ele>161.782</ele>
        <time>2018-08-25T16:18:34Z</time>
      </trkpt>
      <trkpt lat="42.672481" lon="-8.632973">
        <ele>162.039</ele>
        <time>2018-08-25T16:18:38Z</time>
      </trkpt>
      <trkpt lat="42.672531" lon="-8.632972">
        <ele>162.547</ele>
        <time>2018-08-25T16:18:41Z</time>
      </trkpt>
      <trkpt lat="42.672586" lon="-8.632971">
        <ele>162.825</ele>
        <time>2018-08-25T16:18:44Z</time>
      </trkpt>
      <trkpt lat="42.672643" lon="-8.632975">
        <ele>163.395</ele>
        <time>2018-08-25T16:18:47Z</time>
      </trkpt>
      <trkpt lat="42.672698" lon="-8.632981">
        <ele>163.459</ele>
        <time>2018-08-25T16:18:50Z</time>
      </trkpt>
      <trkpt lat="42.672762" lon="-8.632991">
        <ele>163.703</ele>
        <time>2018-08-25T16:18:53Z</time>
      </trkpt>
      <trkpt lat="42.672814" lon="-8.632998">
        <ele>164.023</ele>
        <time>2018-08-25T16:18:55Z</time>
      </trkpt>
      <trkpt lat="42.672862" lon="-8.633009">
        <ele>164.208</ele>
        <time>2018-08-25T16:18:57Z</time>
      </trkpt>
      <trkpt lat="42.672918" lon="-8.633026">
        <ele>164.117</ele>
        <time>2018-08-25T16:19:00Z</time>
      </trkpt>
      <trkpt lat="42.672967" lon="-8.633030">
        <ele>163.863</ele>
        <time>2018-08-25T16:19:03Z</time>
      </trkpt>
      <trkpt lat="42.673015" lon="-8.633057">
        <ele>163.438</ele>
        <time>2018-08-25T16:19:06Z</time>
      </trkpt>
      <trkpt lat="42.673069" lon="-8.633110">
        <ele>162.862</ele>
        <time>2018-08-25T16:19:09Z</time>
      </trkpt>
      <trkpt lat="42.673108" lon="-8.633150">
        <ele>162.289</ele>
        <time>2018-08-25T16:19:11Z</time>
      </trkpt>
      <trkpt lat="42.673160" lon="-8.633186">
        <ele>161.787</ele>
        <time>2018-08-25T16:19:14Z</time>
      </trkpt>
      <trkpt lat="42.673213" lon="-8.633207">
        <ele>161.335</ele>
        <time>2018-08-25T16:19:17Z</time>
      </trkpt>
      <trkpt lat="42.673267" lon="-8.633221">
        <ele>161.335</ele>
        <time>2018-08-25T16:19:21Z</time>
      </trkpt>
      <trkpt lat="42.673314" lon="-8.633226">
        <ele>162.261</ele>
        <time>2018-08-25T16:19:26Z</time>
      </trkpt>
      <trkpt lat="42.673266" lon="-8.633199">
        <ele>163.421</ele>
        <time>2018-08-25T16:21:19Z</time>
      </trkpt>
      <trkpt lat="42.673314" lon="-8.633184">
        <ele>165.313</ele>
        <time>2018-08-25T16:24:59Z</time>
      </trkpt>
      <trkpt lat="42.673371" lon="-8.633184">
        <ele>166.508</ele>
        <time>2018-08-25T16:25:03Z</time>
      </trkpt>
      <trkpt lat="42.673431" lon="-8.633193">
        <ele>167.758</ele>
        <time>2018-08-25T16:25:07Z</time>
      </trkpt>
      <trkpt lat="42.673488" lon="-8.633197">
        <ele>168.274</ele>
        <time>2018-08-25T16:25:10Z</time>
      </trkpt>
      <trkpt lat="42.673556" lon="-8.633195">
        <ele>168.559</ele>
        <time>2018-08-25T16:25:13Z</time>
      </trkpt>
      <trkpt lat="42.673605" lon="-8.633190">
        <ele>169.153</ele>
        <time>2018-08-25T16:25:15Z</time>
      </trkpt>
      <trkpt lat="42.673657" lon="-8.633186">
        <ele>169.590</ele>
        <time>2018-08-25T16:25:17Z</time>
      </trkpt>
      <trkpt lat="42.673711" lon="-8.633187">
        <ele>169.978</ele>
        <time>2018-08-25T16:25:19Z</time>
      </trkpt>
      <trkpt lat="42.673764" lon="-8.633187">
        <ele>170.126</ele>
        <time>2018-08-25T16:25:21Z</time>
      </trkpt>
      <trkpt lat="42.673815" lon="-8.633185">
        <ele>170.376</ele>
        <time>2018-08-25T16:25:23Z</time>
      </trkpt>
      <trkpt lat="42.673865" lon="-8.633184">
        <ele>170.575</ele>
        <time>2018-08-25T16:25:25Z</time>
      </trkpt>
      <trkpt lat="42.673916" lon="-8.633190">
        <ele>170.528</ele>
        <time>2018-08-25T16:25:27Z</time>
      </trkpt>
      <trkpt lat="42.673970" lon="-8.633201">
        <ele>170.420</ele>
        <time>2018-08-25T16:25:29Z</time>
      </trkpt>
      <trkpt lat="42.674024" lon="-8.633211">
        <ele>170.408</ele>
        <time>2018-08-25T16:25:31Z</time>
      </trkpt>
      <trkpt lat="42.674077" lon="-8.633217">
        <ele>170.629</ele>
        <time>2018-08-25T16:25:33Z</time>
      </trkpt>
      <trkpt lat="42.674131" lon="-8.633224">
        <ele>171.015</ele>
        <time>2018-08-25T16:25:35Z</time>
      </trkpt>
      <trkpt lat="42.674184" lon="-8.633229">
        <ele>171.640</ele>
        <time>2018-08-25T16:25:37Z</time>
      </trkpt>
      <trkpt lat="42.674233" lon="-8.633235">
        <ele>172.244</ele>
        <time>2018-08-25T16:25:39Z</time>
      </trkpt>
      <trkpt lat="42.674297" lon="-8.633252">
        <ele>172.721</ele>
        <time>2018-08-25T16:25:42Z</time>
      </trkpt>
      <trkpt lat="42.674347" lon="-8.633270">
        <ele>172.139</ele>
        <time>2018-08-25T16:25:44Z</time>
      </trkpt>
      <trkpt lat="42.674406" lon="-8.633293">
        <ele>171.187</ele>
        <time>2018-08-25T16:25:46Z</time>
      </trkpt>
      <trkpt lat="42.674459" lon="-8.633316">
        <ele>170.497</ele>
        <time>2018-08-25T16:25:48Z</time>
      </trkpt>
      <trkpt lat="42.674505" lon="-8.633344">
        <ele>170.351</ele>
        <time>2018-08-25T16:25:50Z</time>
      </trkpt>
      <trkpt lat="42.674551" lon="-8.633391">
        <ele>170.901</ele>
        <time>2018-08-25T16:25:52Z</time>
      </trkpt>
      <trkpt lat="42.674589" lon="-8.633445">
        <ele>171.511</ele>
        <time>2018-08-25T16:25:54Z</time>
      </trkpt>
      <trkpt lat="42.674628" lon="-8.633506">
        <ele>172.408</ele>
        <time>2018-08-25T16:25:56Z</time>
      </trkpt>
      <trkpt lat="42.674666" lon="-8.633569">
        <ele>173.837</ele>
        <time>2018-08-25T16:25:58Z</time>
      </trkpt>
      <trkpt lat="42.674698" lon="-8.633630">
        <ele>174.813</ele>
        <time>2018-08-25T16:26:00Z</time>
      </trkpt>
      <trkpt lat="42.674723" lon="-8.633692">
        <ele>175.328</ele>
        <time>2018-08-25T16:26:02Z</time>
      </trkpt>
      <trkpt lat="42.674738" lon="-8.633763">
        <ele>175.672</ele>
        <time>2018-08-25T16:26:04Z</time>
      </trkpt>
      <trkpt lat="42.674751" lon="-8.633841">
        <ele>175.799</ele>
        <time>2018-08-25T16:26:06Z</time>
      </trkpt>
      <trkpt lat="42.674760" lon="-8.633924">
        <ele>175.947</ele>
        <time>2018-08-25T16:26:08Z</time>
      </trkpt>
      <trkpt lat="42.674765" lon="-8.633994">
        <ele>175.965</ele>
        <time>2018-08-25T16:26:10Z</time>
      </trkpt>
      <trkpt lat="42.674767" lon="-8.634063">
        <ele>175.525</ele>
        <time>2018-08-25T16:26:12Z</time>
      </trkpt>
      <trkpt lat="42.674769" lon="-8.634133">
        <ele>174.916</ele>
        <time>2018-08-25T16:26:14Z</time>
      </trkpt>
      <trkpt lat="42.674773" lon="-8.634199">
        <ele>174.776</ele>
        <time>2018-08-25T16:26:16Z</time>
      </trkpt>
      <trkpt lat="42.674776" lon="-8.634263">
        <ele>174.413</ele>
        <time>2018-08-25T16:26:18Z</time>
      </trkpt>
      <trkpt lat="42.674776" lon="-8.634326">
        <ele>174.008</ele>
        <time>2018-08-25T16:26:20Z</time>
      </trkpt>
      <trkpt lat="42.674775" lon="-8.634389">
        <ele>173.513</ele>
        <time>2018-08-25T16:26:22Z</time>
      </trkpt>
      <trkpt lat="42.674776" lon="-8.634452">
        <ele>172.749</ele>
        <time>2018-08-25T16:26:24Z</time>
      </trkpt>
      <trkpt lat="42.674783" lon="-8.634517">
        <ele>172.174</ele>
        <time>2018-08-25T16:26:26Z</time>
      </trkpt>
      <trkpt lat="42.674799" lon="-8.634593">
        <ele>172.788</ele>
        <time>2018-08-25T16:26:29Z</time>
      </trkpt>
      <trkpt lat="42.674810" lon="-8.634666">
        <ele>173.415</ele>
        <time>2018-08-25T16:26:32Z</time>
      </trkpt>
      <trkpt lat="42.674816" lon="-8.634753">
        <ele>173.993</ele>
        <time>2018-08-25T16:26:35Z</time>
      </trkpt>
      <trkpt lat="42.674823" lon="-8.634813">
        <ele>173.981</ele>
        <time>2018-08-25T16:26:37Z</time>
      </trkpt>
      <trkpt lat="42.674834" lon="-8.634874">
        <ele>174.041</ele>
        <time>2018-08-25T16:26:39Z</time>
      </trkpt>
      <trkpt lat="42.674855" lon="-8.634956">
        <ele>173.931</ele>
        <time>2018-08-25T16:26:42Z</time>
      </trkpt>
      <trkpt lat="42.674873" lon="-8.635017">
        <ele>173.461</ele>
        <time>2018-08-25T16:26:44Z</time>
      </trkpt>
      <trkpt lat="42.674888" lon="-8.635076">
        <ele>173.007</ele>
        <time>2018-08-25T16:26:46Z</time>
      </trkpt>
      <trkpt lat="42.674902" lon="-8.635141">
        <ele>172.608</ele>
        <time>2018-08-25T16:26:48Z</time>
      </trkpt>
      <trkpt lat="42.674917" lon="-8.635215">
        <ele>172.455</ele>
        <time>2018-08-25T16:26:50Z</time>
      </trkpt>
      <trkpt lat="42.674930" lon="-8.635283">
        <ele>172.461</ele>
        <time>2018-08-25T16:26:52Z</time>
      </trkpt>
      <trkpt lat="42.674940" lon="-8.635349">
        <ele>172.636</ele>
        <time>2018-08-25T16:26:54Z</time>
      </trkpt>
      <trkpt lat="42.674949" lon="-8.635417">
        <ele>172.920</ele>
        <time>2018-08-25T16:26:56Z</time>
      </trkpt>
      <trkpt lat="42.674963" lon="-8.635485">
        <ele>173.147</ele>
        <time>2018-08-25T16:26:58Z</time>
      </trkpt>
      <trkpt lat="42.674985" lon="-8.635559">
        <ele>172.815</ele>
        <time>2018-08-25T16:27:00Z</time>
      </trkpt>
      <trkpt lat="42.675010" lon="-8.635635">
        <ele>172.553</ele>
        <time>2018-08-25T16:27:02Z</time>
      </trkpt>
      <trkpt lat="42.675042" lon="-8.635712">
        <ele>172.133</ele>
        <time>2018-08-25T16:27:04Z</time>
      </trkpt>
      <trkpt lat="42.675075" lon="-8.635790">
        <ele>172.037</ele>
        <time>2018-08-25T16:27:06Z</time>
      </trkpt>
      <trkpt lat="42.675102" lon="-8.635870">
        <ele>171.949</ele>
        <time>2018-08-25T16:27:08Z</time>
      </trkpt>
      <trkpt lat="42.675125" lon="-8.635943">
        <ele>172.113</ele>
        <time>2018-08-25T16:27:10Z</time>
      </trkpt>
      <trkpt lat="42.675148" lon="-8.636015">
        <ele>172.308</ele>
        <time>2018-08-25T16:27:12Z</time>
      </trkpt>
      <trkpt lat="42.675172" lon="-8.636090">
        <ele>173.065</ele>
        <time>2018-08-25T16:27:14Z</time>
      </trkpt>
      <trkpt lat="42.675192" lon="-8.636158">
        <ele>173.781</ele>
        <time>2018-08-25T16:27:16Z</time>
      </trkpt>
      <trkpt lat="42.675210" lon="-8.636227">
        <ele>174.536</ele>
        <time>2018-08-25T16:27:18Z</time>
      </trkpt>
      <trkpt lat="42.675229" lon="-8.636297">
        <ele>175.560</ele>
        <time>2018-08-25T16:27:20Z</time>
      </trkpt>
      <trkpt lat="42.675245" lon="-8.636369">
        <ele>176.327</ele>
        <time>2018-08-25T16:27:22Z</time>
      </trkpt>
      <trkpt lat="42.675259" lon="-8.636442">
        <ele>176.835</ele>
        <time>2018-08-25T16:27:24Z</time>
      </trkpt>
      <trkpt lat="42.675273" lon="-8.636515">
        <ele>177.343</ele>
        <time>2018-08-25T16:27:26Z</time>
      </trkpt>
      <trkpt lat="42.675289" lon="-8.636594">
        <ele>177.973</ele>
        <time>2018-08-25T16:27:28Z</time>
      </trkpt>
      <trkpt lat="42.675311" lon="-8.636680">
        <ele>178.056</ele>
        <time>2018-08-25T16:27:30Z</time>
      </trkpt>
      <trkpt lat="42.675334" lon="-8.636753">
        <ele>178.159</ele>
        <time>2018-08-25T16:27:32Z</time>
      </trkpt>
      <trkpt lat="42.675353" lon="-8.636821">
        <ele>178.214</ele>
        <time>2018-08-25T16:27:34Z</time>
      </trkpt>
      <trkpt lat="42.675370" lon="-8.636891">
        <ele>178.508</ele>
        <time>2018-08-25T16:27:36Z</time>
      </trkpt>
      <trkpt lat="42.675384" lon="-8.636962">
        <ele>178.787</ele>
        <time>2018-08-25T16:27:38Z</time>
      </trkpt>
      <trkpt lat="42.675402" lon="-8.637020">
        <ele>178.763</ele>
        <time>2018-08-25T16:27:40Z</time>
      </trkpt>
      <trkpt lat="42.675438" lon="-8.637092">
        <ele>178.898</ele>
        <time>2018-08-25T16:27:43Z</time>
      </trkpt>
      <trkpt lat="42.675476" lon="-8.637157">
        <ele>178.892</ele>
        <time>2018-08-25T16:27:45Z</time>
      </trkpt>
      <trkpt lat="42.675523" lon="-8.637242">
        <ele>178.329</ele>
        <time>2018-08-25T16:27:47Z</time>
      </trkpt>
      <trkpt lat="42.675570" lon="-8.637325">
        <ele>178.227</ele>
        <time>2018-08-25T16:27:49Z</time>
      </trkpt>
      <trkpt lat="42.675633" lon="-8.637432">
        <ele>178.315</ele>
        <time>2018-08-25T16:27:50Z</time>
      </trkpt>
      <trkpt lat="42.675678" lon="-8.637498">
        <ele>179.395</ele>
        <time>2018-08-25T16:27:53Z</time>
      </trkpt>
      <trkpt lat="42.675714" lon="-8.637553">
        <ele>180.024</ele>
        <time>2018-08-25T16:27:55Z</time>
      </trkpt>
      <trkpt lat="42.675758" lon="-8.637606">
        <ele>180.804</ele>
        <time>2018-08-25T16:27:57Z</time>
      </trkpt>
      <trkpt lat="42.675805" lon="-8.637668">
        <ele>181.914</ele>
        <time>2018-08-25T16:27:59Z</time>
      </trkpt>
      <trkpt lat="42.675847" lon="-8.637734">
        <ele>182.708</ele>
        <time>2018-08-25T16:28:01Z</time>
      </trkpt>
      <trkpt lat="42.675885" lon="-8.637803">
        <ele>183.254</ele>
        <time>2018-08-25T16:28:03Z</time>
      </trkpt>
      <trkpt lat="42.675922" lon="-8.637876">
        <ele>183.540</ele>
        <time>2018-08-25T16:28:05Z</time>
      </trkpt>
      <trkpt lat="42.675965" lon="-8.637950">
        <ele>183.865</ele>
        <time>2018-08-25T16:28:07Z</time>
      </trkpt>
      <trkpt lat="42.676013" lon="-8.638028">
        <ele>183.479</ele>
        <time>2018-08-25T16:28:09Z</time>
      </trkpt>
      <trkpt lat="42.676072" lon="-8.638127">
        <ele>183.486</ele>
        <time>2018-08-25T16:28:10Z</time>
      </trkpt>
      <trkpt lat="42.676108" lon="-8.638190">
        <ele>183.724</ele>
        <time>2018-08-25T16:28:12Z</time>
      </trkpt>
      <trkpt lat="42.676139" lon="-8.638252">
        <ele>184.182</ele>
        <time>2018-08-25T16:28:14Z</time>
      </trkpt>
      <trkpt lat="42.676173" lon="-8.638322">
        <ele>184.942</ele>
        <time>2018-08-25T16:28:16Z</time>
      </trkpt>
      <trkpt lat="42.676212" lon="-8.638394">
        <ele>185.673</ele>
        <time>2018-08-25T16:28:18Z</time>
      </trkpt>
      <trkpt lat="42.676250" lon="-8.638468">
        <ele>186.285</ele>
        <time>2018-08-25T16:28:20Z</time>
      </trkpt>
      <trkpt lat="42.676290" lon="-8.638537">
        <ele>186.713</ele>
        <time>2018-08-25T16:28:22Z</time>
      </trkpt>
      <trkpt lat="42.676319" lon="-8.638605">
        <ele>187.508</ele>
        <time>2018-08-25T16:28:24Z</time>
      </trkpt>
      <trkpt lat="42.676351" lon="-8.638660">
        <ele>188.439</ele>
        <time>2018-08-25T16:28:26Z</time>
      </trkpt>
      <trkpt lat="42.676396" lon="-8.638680">
        <ele>189.285</ele>
        <time>2018-08-25T16:28:28Z</time>
      </trkpt>
      <trkpt lat="42.676449" lon="-8.638669">
        <ele>189.720</ele>
        <time>2018-08-25T16:28:30Z</time>
      </trkpt>
      <trkpt lat="42.676514" lon="-8.638649">
        <ele>189.944</ele>
        <time>2018-08-25T16:28:32Z</time>
      </trkpt>
      <trkpt lat="42.676581" lon="-8.638622">
        <ele>190.161</ele>
        <time>2018-08-25T16:28:34Z</time>
      </trkpt>
      <trkpt lat="42.676648" lon="-8.638588">
        <ele>190.079</ele>
        <time>2018-08-25T16:28:36Z</time>
      </trkpt>
      <trkpt lat="42.676712" lon="-8.638545">
        <ele>190.227</ele>
        <time>2018-08-25T16:28:38Z</time>
      </trkpt>
      <trkpt lat="42.676786" lon="-8.638482">
        <ele>190.457</ele>
        <time>2018-08-25T16:28:39Z</time>
      </trkpt>
      <trkpt lat="42.676838" lon="-8.638403">
        <ele>190.797</ele>
        <time>2018-08-25T16:28:41Z</time>
      </trkpt>
      <trkpt lat="42.676877" lon="-8.638309">
        <ele>190.423</ele>
        <time>2018-08-25T16:28:43Z</time>
      </trkpt>
      <trkpt lat="42.676912" lon="-8.638239">
        <ele>189.525</ele>
        <time>2018-08-25T16:28:46Z</time>
      </trkpt>
      <trkpt lat="42.676932" lon="-8.638172">
        <ele>189.208</ele>
        <time>2018-08-25T16:28:49Z</time>
      </trkpt>
      <trkpt lat="42.676958" lon="-8.638091">
        <ele>189.581</ele>
        <time>2018-08-25T16:28:52Z</time>
      </trkpt>
      <trkpt lat="42.676982" lon="-8.637990">
        <ele>189.797</ele>
        <time>2018-08-25T16:28:53Z</time>
      </trkpt>
      <trkpt lat="42.676995" lon="-8.637882">
        <ele>189.732</ele>
        <time>2018-08-25T16:28:55Z</time>
      </trkpt>
      <trkpt lat="42.677026" lon="-8.637767">
        <ele>189.576</ele>
        <time>2018-08-25T16:28:57Z</time>
      </trkpt>
      <trkpt lat="42.677045" lon="-8.637706">
        <ele>189.183</ele>
        <time>2018-08-25T16:28:58Z</time>
      </trkpt>
      <trkpt lat="42.677059" lon="-8.637644">
        <ele>188.671</ele>
        <time>2018-08-25T16:28:59Z</time>
      </trkpt>
      <trkpt lat="42.677078" lon="-8.637576">
        <ele>187.959</ele>
        <time>2018-08-25T16:29:00Z</time>
      </trkpt>
      <trkpt lat="42.677103" lon="-8.637509">
        <ele>187.139</ele>
        <time>2018-08-25T16:29:01Z</time>
      </trkpt>
      <trkpt lat="42.677128" lon="-8.637446">
        <ele>186.452</ele>
        <time>2018-08-25T16:29:02Z</time>
      </trkpt>
      <trkpt lat="42.677155" lon="-8.637383">
        <ele>185.753</ele>
        <time>2018-08-25T16:29:03Z</time>
      </trkpt>
      <trkpt lat="42.677183" lon="-8.637326">
        <ele>185.108</ele>
        <time>2018-08-25T16:29:04Z</time>
      </trkpt>
      <trkpt lat="42.677212" lon="-8.637276">
        <ele>184.608</ele>
        <time>2018-08-25T16:29:05Z</time>
      </trkpt>
      <trkpt lat="42.677244" lon="-8.637229">
        <ele>184.147</ele>
        <time>2018-08-25T16:29:06Z</time>
      </trkpt>
      <trkpt lat="42.677280" lon="-8.637189">
        <ele>183.433</ele>
        <time>2018-08-25T16:29:07Z</time>
      </trkpt>
      <trkpt lat="42.677323" lon="-8.637154">
        <ele>182.688</ele>
        <time>2018-08-25T16:29:08Z</time>
      </trkpt>
      <trkpt lat="42.677372" lon="-8.637122">
        <ele>181.882</ele>
        <time>2018-08-25T16:29:09Z</time>
      </trkpt>
      <trkpt lat="42.677421" lon="-8.637096">
        <ele>181.189</ele>
        <time>2018-08-25T16:29:10Z</time>
      </trkpt>
      <trkpt lat="42.677504" lon="-8.637068">
        <ele>180.017</ele>
        <time>2018-08-25T16:29:12Z</time>
      </trkpt>
      <trkpt lat="42.677573" lon="-8.637057">
        <ele>178.385</ele>
        <time>2018-08-25T16:29:15Z</time>
      </trkpt>
      <trkpt lat="42.677627" lon="-8.637056">
        <ele>176.665</ele>
        <time>2018-08-25T16:29:17Z</time>
      </trkpt>
      <trkpt lat="42.677688" lon="-8.637055">
        <ele>174.667</ele>
        <time>2018-08-25T16:29:19Z</time>
      </trkpt>
      <trkpt lat="42.677752" lon="-8.637050">
        <ele>172.681</ele>
        <time>2018-08-25T16:29:21Z</time>
      </trkpt>
      <trkpt lat="42.677839" lon="-8.637044">
        <ele>171.019</ele>
        <time>2018-08-25T16:29:22Z</time>
      </trkpt>
      <trkpt lat="42.677891" lon="-8.637031">
        <ele>169.808</ele>
        <time>2018-08-25T16:29:23Z</time>
      </trkpt>
      <trkpt lat="42.677955" lon="-8.637015">
        <ele>168.798</ele>
        <time>2018-08-25T16:29:24Z</time>
      </trkpt>
      <trkpt lat="42.678023" lon="-8.636999">
        <ele>167.834</ele>
        <time>2018-08-25T16:29:25Z</time>
      </trkpt>
      <trkpt lat="42.678088" lon="-8.636977">
        <ele>167.289</ele>
        <time>2018-08-25T16:29:26Z</time>
      </trkpt>
      <trkpt lat="42.678151" lon="-8.636956">
        <ele>166.693</ele>
        <time>2018-08-25T16:29:27Z</time>
      </trkpt>
      <trkpt lat="42.678218" lon="-8.636939">
        <ele>165.820</ele>
        <time>2018-08-25T16:29:28Z</time>
      </trkpt>
      <trkpt lat="42.678282" lon="-8.636928">
        <ele>165.078</ele>
        <time>2018-08-25T16:29:29Z</time>
      </trkpt>
      <trkpt lat="42.678343" lon="-8.636923">
        <ele>164.336</ele>
        <time>2018-08-25T16:29:30Z</time>
      </trkpt>
      <trkpt lat="42.678404" lon="-8.636924">
        <ele>163.696</ele>
        <time>2018-08-25T16:29:31Z</time>
      </trkpt>
      <trkpt lat="42.678469" lon="-8.636937">
        <ele>162.597</ele>
        <time>2018-08-25T16:29:32Z</time>
      </trkpt>
      <trkpt lat="42.678529" lon="-8.636957">
        <ele>161.423</ele>
        <time>2018-08-25T16:29:33Z</time>
      </trkpt>
      <trkpt lat="42.678585" lon="-8.636984">
        <ele>160.425</ele>
        <time>2018-08-25T16:29:34Z</time>
      </trkpt>
      <trkpt lat="42.678637" lon="-8.637026">
        <ele>159.208</ele>
        <time>2018-08-25T16:29:35Z</time>
      </trkpt>
      <trkpt lat="42.678675" lon="-8.637075">
        <ele>157.941</ele>
        <time>2018-08-25T16:29:36Z</time>
      </trkpt>
      <trkpt lat="42.678710" lon="-8.637139">
        <ele>156.647</ele>
        <time>2018-08-25T16:29:37Z</time>
      </trkpt>
      <trkpt lat="42.678745" lon="-8.637202">
        <ele>155.482</ele>
        <time>2018-08-25T16:29:38Z</time>
      </trkpt>
      <trkpt lat="42.678773" lon="-8.637261">
        <ele>154.836</ele>
        <time>2018-08-25T16:29:39Z</time>
      </trkpt>
      <trkpt lat="42.678795" lon="-8.637315">
        <ele>154.613</ele>
        <time>2018-08-25T16:29:40Z</time>
      </trkpt>
      <trkpt lat="42.678836" lon="-8.637384">
        <ele>154.321</ele>
        <time>2018-08-25T16:29:43Z</time>
      </trkpt>
      <trkpt lat="42.678891" lon="-8.637396">
        <ele>153.729</ele>
        <time>2018-08-25T16:29:45Z</time>
      </trkpt>
      <trkpt lat="42.678948" lon="-8.637363">
        <ele>153.139</ele>
        <time>2018-08-25T16:29:47Z</time>
      </trkpt>
      <trkpt lat="42.678982" lon="-8.637298">
        <ele>151.648</ele>
        <time>2018-08-25T16:29:49Z</time>
      </trkpt>
      <trkpt lat="42.679004" lon="-8.637241">
        <ele>150.461</ele>
        <time>2018-08-25T16:29:51Z</time>
      </trkpt>
      <trkpt lat="42.679027" lon="-8.637175">
        <ele>148.917</ele>
        <time>2018-08-25T16:29:54Z</time>
      </trkpt>
      <trkpt lat="42.679079" lon="-8.637186">
        <ele>147.508</ele>
        <time>2018-08-25T16:30:10Z</time>
      </trkpt>
      <trkpt lat="42.679102" lon="-8.637256">
        <ele>146.416</ele>
        <time>2018-08-25T16:30:12Z</time>
      </trkpt>
      <trkpt lat="42.679128" lon="-8.637316">
        <ele>145.762</ele>
        <time>2018-08-25T16:30:14Z</time>
      </trkpt>
      <trkpt lat="42.679176" lon="-8.637338">
        <ele>144.927</ele>
        <time>2018-08-25T16:30:16Z</time>
      </trkpt>
      <trkpt lat="42.679250" lon="-8.637316">
        <ele>144.481</ele>
        <time>2018-08-25T16:30:17Z</time>
      </trkpt>
      <trkpt lat="42.679294" lon="-8.637269">
        <ele>143.758</ele>
        <time>2018-08-25T16:30:19Z</time>
      </trkpt>
      <trkpt lat="42.679333" lon="-8.637234">
        <ele>143.016</ele>
        <time>2018-08-25T16:30:22Z</time>
      </trkpt>
      <trkpt lat="42.679380" lon="-8.637177">
        <ele>142.774</ele>
        <time>2018-08-25T16:30:25Z</time>
      </trkpt>
      <trkpt lat="42.679413" lon="-8.637134">
        <ele>142.174</ele>
        <time>2018-08-25T16:30:27Z</time>
      </trkpt>
      <trkpt lat="42.679446" lon="-8.637091">
        <ele>141.628</ele>
        <time>2018-08-25T16:30:29Z</time>
      </trkpt>
      <trkpt lat="42.679490" lon="-8.637054">
        <ele>141.189</ele>
        <time>2018-08-25T16:30:31Z</time>
      </trkpt>
      <trkpt lat="42.679598" lon="-8.636992">
        <ele>140.617</ele>
        <time>2018-08-25T16:30:33Z</time>
      </trkpt>
      <trkpt lat="42.679640" lon="-8.636968">
        <ele>140.108</ele>
        <time>2018-08-25T16:30:34Z</time>
      </trkpt>
      <trkpt lat="42.679690" lon="-8.636948">
        <ele>139.384</ele>
        <time>2018-08-25T16:30:35Z</time>
      </trkpt>
      <trkpt lat="42.679746" lon="-8.636919">
        <ele>138.960</ele>
        <time>2018-08-25T16:30:36Z</time>
      </trkpt>
      <trkpt lat="42.679804" lon="-8.636884">
        <ele>138.735</ele>
        <time>2018-08-25T16:30:37Z</time>
      </trkpt>
      <trkpt lat="42.679860" lon="-8.636847">
        <ele>138.399</ele>
        <time>2018-08-25T16:30:38Z</time>
      </trkpt>
      <trkpt lat="42.679911" lon="-8.636806">
        <ele>137.666</ele>
        <time>2018-08-25T16:30:39Z</time>
      </trkpt>
      <trkpt lat="42.679956" lon="-8.636767">
        <ele>137.094</ele>
        <time>2018-08-25T16:30:40Z</time>
      </trkpt>
      <trkpt lat="42.679994" lon="-8.636726">
        <ele>136.522</ele>
        <time>2018-08-25T16:30:41Z</time>
      </trkpt>
      <trkpt lat="42.680027" lon="-8.636681">
        <ele>136.132</ele>
        <time>2018-08-25T16:30:42Z</time>
      </trkpt>
      <trkpt lat="42.680072" lon="-8.636608">
        <ele>135.794</ele>
        <time>2018-08-25T16:30:44Z</time>
      </trkpt>
      <trkpt lat="42.680107" lon="-8.636534">
        <ele>136.157</ele>
        <time>2018-08-25T16:30:46Z</time>
      </trkpt>
      <trkpt lat="42.680146" lon="-8.636448">
        <ele>136.622</ele>
        <time>2018-08-25T16:30:48Z</time>
      </trkpt>
      <trkpt lat="42.680200" lon="-8.636327">
        <ele>137.108</ele>
        <time>2018-08-25T16:30:49Z</time>
      </trkpt>
      <trkpt lat="42.680234" lon="-8.636272">
        <ele>137.491</ele>
        <time>2018-08-25T16:30:50Z</time>
      </trkpt>
      <trkpt lat="42.680278" lon="-8.636229">
        <ele>137.417</ele>
        <time>2018-08-25T16:30:51Z</time>
      </trkpt>
      <trkpt lat="42.680318" lon="-8.636194">
        <ele>137.152</ele>
        <time>2018-08-25T16:30:52Z</time>
      </trkpt>
      <trkpt lat="42.680363" lon="-8.636167">
        <ele>135.666</ele>
        <time>2018-08-25T16:30:54Z</time>
      </trkpt>
      <trkpt lat="42.680411" lon="-8.636141">
        <ele>133.963</ele>
        <time>2018-08-25T16:30:56Z</time>
      </trkpt>
      <trkpt lat="42.680456" lon="-8.636120">
        <ele>132.441</ele>
        <time>2018-08-25T16:30:58Z</time>
      </trkpt>
      <trkpt lat="42.680509" lon="-8.636106">
        <ele>131.499</ele>
        <time>2018-08-25T16:31:00Z</time>
      </trkpt>
      <trkpt lat="42.680565" lon="-8.636080">
        <ele>130.589</ele>
        <time>2018-08-25T16:31:02Z</time>
      </trkpt>
      <trkpt lat="42.680645" lon="-8.636043">
        <ele>129.856</ele>
        <time>2018-08-25T16:31:03Z</time>
      </trkpt>
      <trkpt lat="42.680738" lon="-8.636043">
        <ele>129.059</ele>
        <time>2018-08-25T16:31:05Z</time>
      </trkpt>
      <trkpt lat="42.680785" lon="-8.636056">
        <ele>128.314</ele>
        <time>2018-08-25T16:31:06Z</time>
      </trkpt>
      <trkpt lat="42.680859" lon="-8.636098">
        <ele>127.408</ele>
        <time>2018-08-25T16:31:08Z</time>
      </trkpt>
      <trkpt lat="42.680918" lon="-8.636126">
        <ele>126.727</ele>
        <time>2018-08-25T16:31:10Z</time>
      </trkpt>
      <trkpt lat="42.680960" lon="-8.636147">
        <ele>126.133</ele>
        <time>2018-08-25T16:31:12Z</time>
      </trkpt>
      <trkpt lat="42.681013" lon="-8.636177">
        <ele>125.728</ele>
        <time>2018-08-25T16:31:15Z</time>
      </trkpt>
      <trkpt lat="42.681060" lon="-8.636203">
        <ele>125.592</ele>
        <time>2018-08-25T16:31:18Z</time>
      </trkpt>
      <trkpt lat="42.681109" lon="-8.636229">
        <ele>125.759</ele>
        <time>2018-08-25T16:31:21Z</time>
      </trkpt>
      <trkpt lat="42.681162" lon="-8.636266">
        <ele>126.377</ele>
        <time>2018-08-25T16:31:24Z</time>
      </trkpt>
      <trkpt lat="42.681211" lon="-8.636306">
        <ele>126.815</ele>
        <time>2018-08-25T16:31:27Z</time>
      </trkpt>
      <trkpt lat="42.681266" lon="-8.636331">
        <ele>127.815</ele>
        <time>2018-08-25T16:31:30Z</time>
      </trkpt>
      <trkpt lat="42.681328" lon="-8.636357">
        <ele>128.595</ele>
        <time>2018-08-25T16:31:33Z</time>
      </trkpt>
      <trkpt lat="42.681374" lon="-8.636384">
        <ele>129.249</ele>
        <time>2018-08-25T16:31:36Z</time>
      </trkpt>
      <trkpt lat="42.681413" lon="-8.636422">
        <ele>130.123</ele>
        <time>2018-08-25T16:31:39Z</time>
      </trkpt>
      <trkpt lat="42.681455" lon="-8.636458">
        <ele>130.508</ele>
        <time>2018-08-25T16:31:42Z</time>
      </trkpt>
      <trkpt lat="42.681506" lon="-8.636499">
        <ele>130.961</ele>
        <time>2018-08-25T16:31:46Z</time>
      </trkpt>
      <trkpt lat="42.681561" lon="-8.636525">
        <ele>131.897</ele>
        <time>2018-08-25T16:31:50Z</time>
      </trkpt>
      <trkpt lat="42.681609" lon="-8.636548">
        <ele>132.662</ele>
        <time>2018-08-25T16:31:53Z</time>
      </trkpt>
      <trkpt lat="42.681677" lon="-8.636572">
        <ele>133.536</ele>
        <time>2018-08-25T16:31:56Z</time>
      </trkpt>
      <trkpt lat="42.681740" lon="-8.636590">
        <ele>134.583</ele>
        <time>2018-08-25T16:31:58Z</time>
      </trkpt>
      <trkpt lat="42.681813" lon="-8.636613">
        <ele>135.511</ele>
        <time>2018-08-25T16:32:00Z</time>
      </trkpt>
      <trkpt lat="42.681891" lon="-8.636632">
        <ele>136.439</ele>
        <time>2018-08-25T16:32:02Z</time>
      </trkpt>
      <trkpt lat="42.681955" lon="-8.636653">
        <ele>136.579</ele>
        <time>2018-08-25T16:32:04Z</time>
      </trkpt>
      <trkpt lat="42.682014" lon="-8.636678">
        <ele>136.291</ele>
        <time>2018-08-25T16:32:06Z</time>
      </trkpt>
      <trkpt lat="42.682064" lon="-8.636706">
        <ele>136.381</ele>
        <time>2018-08-25T16:32:08Z</time>
      </trkpt>
      <trkpt lat="42.682113" lon="-8.636748">
        <ele>136.119</ele>
        <time>2018-08-25T16:32:11Z</time>
      </trkpt>
      <trkpt lat="42.682156" lon="-8.636797">
        <ele>136.408</ele>
        <time>2018-08-25T16:32:15Z</time>
      </trkpt>
      <trkpt lat="42.682195" lon="-8.636850">
        <ele>136.811</ele>
        <time>2018-08-25T16:32:20Z</time>
      </trkpt>
      <trkpt lat="42.682232" lon="-8.636891">
        <ele>137.457</ele>
        <time>2018-08-25T16:32:24Z</time>
      </trkpt>
      <trkpt lat="42.682272" lon="-8.636943">
        <ele>137.842</ele>
        <time>2018-08-25T16:32:28Z</time>
      </trkpt>
      <trkpt lat="42.682311" lon="-8.636975">
        <ele>137.976</ele>
        <time>2018-08-25T16:32:31Z</time>
      </trkpt>
      <trkpt lat="42.682358" lon="-8.637001">
        <ele>138.263</ele>
        <time>2018-08-25T16:32:34Z</time>
      </trkpt>
      <trkpt lat="42.682406" lon="-8.637011">
        <ele>137.931</ele>
        <time>2018-08-25T16:32:37Z</time>
      </trkpt>
      <trkpt lat="42.682487" lon="-8.637011">
        <ele>137.319</ele>
        <time>2018-08-25T16:33:33Z</time>
      </trkpt>
      <trkpt lat="42.682587" lon="-8.637020">
        <ele>136.979</ele>
        <time>2018-08-25T16:33:36Z</time>
      </trkpt>
      <trkpt lat="42.682633" lon="-8.637040">
        <ele>136.741</ele>
        <time>2018-08-25T16:33:37Z</time>
      </trkpt>
      <trkpt lat="42.682688" lon="-8.637060">
        <ele>136.681</ele>
        <time>2018-08-25T16:33:38Z</time>
      </trkpt>
      <trkpt lat="42.682744" lon="-8.637078">
        <ele>136.409</ele>
        <time>2018-08-25T16:33:39Z</time>
      </trkpt>
      <trkpt lat="42.682797" lon="-8.637098">
        <ele>136.208</ele>
        <time>2018-08-25T16:33:40Z</time>
      </trkpt>
      <trkpt lat="42.682851" lon="-8.637119">
        <ele>135.946</ele>
        <time>2018-08-25T16:33:41Z</time>
      </trkpt>
      <trkpt lat="42.682904" lon="-8.637132">
        <ele>135.782</ele>
        <time>2018-08-25T16:33:42Z</time>
      </trkpt>
      <trkpt lat="42.682953" lon="-8.637136">
        <ele>135.697</ele>
        <time>2018-08-25T16:33:43Z</time>
      </trkpt>
      <trkpt lat="42.683018" lon="-8.637132">
        <ele>135.791</ele>
        <time>2018-08-25T16:33:45Z</time>
      </trkpt>
      <trkpt lat="42.683075" lon="-8.637117">
        <ele>135.828</ele>
        <time>2018-08-25T16:33:46Z</time>
      </trkpt>
      <trkpt lat="42.683127" lon="-8.637077">
        <ele>136.096</ele>
        <time>2018-08-25T16:33:48Z</time>
      </trkpt>
      <trkpt lat="42.683170" lon="-8.637028">
        <ele>136.084</ele>
        <time>2018-08-25T16:33:49Z</time>
      </trkpt>
      <trkpt lat="42.683233" lon="-8.636940">
        <ele>135.634</ele>
        <time>2018-08-25T16:33:51Z</time>
      </trkpt>
      <trkpt lat="42.683274" lon="-8.636895">
        <ele>134.797</ele>
        <time>2018-08-25T16:33:52Z</time>
      </trkpt>
      <trkpt lat="42.683314" lon="-8.636851">
        <ele>133.923</ele>
        <time>2018-08-25T16:33:53Z</time>
      </trkpt>
      <trkpt lat="42.683353" lon="-8.636811">
        <ele>133.325</ele>
        <time>2018-08-25T16:33:54Z</time>
      </trkpt>
      <trkpt lat="42.683393" lon="-8.636777">
        <ele>132.708</ele>
        <time>2018-08-25T16:33:55Z</time>
      </trkpt>
      <trkpt lat="42.683438" lon="-8.636748">
        <ele>131.971</ele>
        <time>2018-08-25T16:33:56Z</time>
      </trkpt>
      <trkpt lat="42.683484" lon="-8.636725">
        <ele>130.927</ele>
        <time>2018-08-25T16:33:57Z</time>
      </trkpt>
      <trkpt lat="42.683567" lon="-8.636700">
        <ele>129.532</ele>
        <time>2018-08-25T16:33:59Z</time>
      </trkpt>
      <trkpt lat="42.683646" lon="-8.636685">
        <ele>128.176</ele>
        <time>2018-08-25T16:34:01Z</time>
      </trkpt>
      <trkpt lat="42.683728" lon="-8.636658">
        <ele>126.633</ele>
        <time>2018-08-25T16:34:03Z</time>
      </trkpt>
      <trkpt lat="42.683808" lon="-8.636631">
        <ele>125.371</ele>
        <time>2018-08-25T16:34:05Z</time>
      </trkpt>
      <trkpt lat="42.683877" lon="-8.636603">
        <ele>123.559</ele>
        <time>2018-08-25T16:34:08Z</time>
      </trkpt>
      <trkpt lat="42.683929" lon="-8.636586">
        <ele>122.069</ele>
        <time>2018-08-25T16:34:10Z</time>
      </trkpt>
      <trkpt lat="42.683974" lon="-8.636571">
        <ele>120.697</ele>
        <time>2018-08-25T16:34:12Z</time>
      </trkpt>
      <trkpt lat="42.684031" lon="-8.636563">
        <ele>119.523</ele>
        <time>2018-08-25T16:34:15Z</time>
      </trkpt>
      <trkpt lat="42.684101" lon="-8.636556">
        <ele>118.525</ele>
        <time>2018-08-25T16:34:18Z</time>
      </trkpt>
      <trkpt lat="42.684194" lon="-8.636544">
        <ele>117.708</ele>
        <time>2018-08-25T16:34:19Z</time>
      </trkpt>
      <trkpt lat="42.684256" lon="-8.636556">
        <ele>116.991</ele>
        <time>2018-08-25T16:34:21Z</time>
      </trkpt>
      <trkpt lat="42.684314" lon="-8.636578">
        <ele>116.387</ele>
        <time>2018-08-25T16:34:24Z</time>
      </trkpt>
      <trkpt lat="42.684381" lon="-8.636596">
        <ele>117.792</ele>
        <time>2018-08-25T16:34:27Z</time>
      </trkpt>
      <trkpt lat="42.684430" lon="-8.636597">
        <ele>119.026</ele>
        <time>2018-08-25T16:34:29Z</time>
      </trkpt>
      <trkpt lat="42.684477" lon="-8.636601">
        <ele>120.093</ele>
        <time>2018-08-25T16:34:31Z</time>
      </trkpt>
      <trkpt lat="42.684536" lon="-8.636620">
        <ele>120.691</ele>
        <time>2018-08-25T16:34:34Z</time>
      </trkpt>
      <trkpt lat="42.684584" lon="-8.636649">
        <ele>121.449</ele>
        <time>2018-08-25T16:34:37Z</time>
      </trkpt>
      <trkpt lat="42.684629" lon="-8.636686">
        <ele>122.679</ele>
        <time>2018-08-25T16:34:40Z</time>
      </trkpt>
      <trkpt lat="42.684677" lon="-8.636723">
        <ele>123.338</ele>
        <time>2018-08-25T16:34:43Z</time>
      </trkpt>
      <trkpt lat="42.684723" lon="-8.636763">
        <ele>123.670</ele>
        <time>2018-08-25T16:34:46Z</time>
      </trkpt>
      <trkpt lat="42.684771" lon="-8.636797">
        <ele>123.517</ele>
        <time>2018-08-25T16:34:49Z</time>
      </trkpt>
      <trkpt lat="42.684827" lon="-8.636821">
        <ele>123.408</ele>
        <time>2018-08-25T16:34:53Z</time>
      </trkpt>
      <trkpt lat="42.684875" lon="-8.636841">
        <ele>123.515</ele>
        <time>2018-08-25T16:34:56Z</time>
      </trkpt>
      <trkpt lat="42.684923" lon="-8.636865">
        <ele>123.631</ele>
        <time>2018-08-25T16:34:59Z</time>
      </trkpt>
      <trkpt lat="42.684970" lon="-8.636891">
        <ele>123.636</ele>
        <time>2018-08-25T16:35:02Z</time>
      </trkpt>
      <trkpt lat="42.685016" lon="-8.636911">
        <ele>123.370</ele>
        <time>2018-08-25T16:35:05Z</time>
      </trkpt>
      <trkpt lat="42.685072" lon="-8.636925">
        <ele>123.077</ele>
        <time>2018-08-25T16:35:08Z</time>
      </trkpt>
      <trkpt lat="42.685148" lon="-8.636923">
        <ele>123.025</ele>
        <time>2018-08-25T16:35:09Z</time>
      </trkpt>
      <trkpt lat="42.685226" lon="-8.636947">
        <ele>123.193</ele>
        <time>2018-08-25T16:35:11Z</time>
      </trkpt>
      <trkpt lat="42.685271" lon="-8.637003">
        <ele>122.973</ele>
        <time>2018-08-25T16:35:14Z</time>
      </trkpt>
      <trkpt lat="42.685296" lon="-8.637060">
        <ele>122.754</ele>
        <time>2018-08-25T16:35:17Z</time>
      </trkpt>
      <trkpt lat="42.685336" lon="-8.637148">
        <ele>122.756</ele>
        <time>2018-08-25T16:36:16Z</time>
      </trkpt>
      <trkpt lat="42.685381" lon="-8.637169">
        <ele>123.211</ele>
        <time>2018-08-25T16:36:21Z</time>
      </trkpt>
      <trkpt lat="42.685428" lon="-8.637150">
        <ele>123.308</ele>
        <time>2018-08-25T16:36:25Z</time>
      </trkpt>
      <trkpt lat="42.685473" lon="-8.637123">
        <ele>123.657</ele>
        <time>2018-08-25T16:36:29Z</time>
      </trkpt>
      <trkpt lat="42.685516" lon="-8.637098">
        <ele>123.793</ele>
        <time>2018-08-25T16:36:32Z</time>
      </trkpt>
      <trkpt lat="42.685573" lon="-8.637081">
        <ele>123.698</ele>
        <time>2018-08-25T16:36:36Z</time>
      </trkpt>
      <trkpt lat="42.685618" lon="-8.637077">
        <ele>123.992</ele>
        <time>2018-08-25T16:36:39Z</time>
      </trkpt>
      <trkpt lat="42.685669" lon="-8.637087">
        <ele>124.449</ele>
        <time>2018-08-25T16:36:42Z</time>
      </trkpt>
      <trkpt lat="42.685719" lon="-8.637110">
        <ele>124.457</ele>
        <time>2018-08-25T16:36:45Z</time>
      </trkpt>
      <trkpt lat="42.685761" lon="-8.637131">
        <ele>124.775</ele>
        <time>2018-08-25T16:36:48Z</time>
      </trkpt>
      <trkpt lat="42.685807" lon="-8.637153">
        <ele>124.715</ele>
        <time>2018-08-25T16:36:51Z</time>
      </trkpt>
      <trkpt lat="42.685850" lon="-8.637176">
        <ele>124.436</ele>
        <time>2018-08-25T16:36:54Z</time>
      </trkpt>
      <trkpt lat="42.685903" lon="-8.637212">
        <ele>124.317</ele>
        <time>2018-08-25T16:36:58Z</time>
      </trkpt>
      <trkpt lat="42.685955" lon="-8.637251">
        <ele>124.718</ele>
        <time>2018-08-25T16:37:02Z</time>
      </trkpt>
      <trkpt lat="42.685998" lon="-8.637293">
        <ele>125.208</ele>
        <time>2018-08-25T16:37:06Z</time>
      </trkpt>
      <trkpt lat="42.686043" lon="-8.637331">
        <ele>125.525</ele>
        <time>2018-08-25T16:37:10Z</time>
      </trkpt>
      <trkpt lat="42.686087" lon="-8.637370">
        <ele>125.451</ele>
        <time>2018-08-25T16:37:13Z</time>
      </trkpt>
      <trkpt lat="42.686131" lon="-8.637399">
        <ele>124.866</ele>
        <time>2018-08-25T16:37:16Z</time>
      </trkpt>
      <trkpt lat="42.686175" lon="-8.637417">
        <ele>124.260</ele>
        <time>2018-08-25T16:37:19Z</time>
      </trkpt>
      <trkpt lat="42.686228" lon="-8.637439">
        <ele>123.997</ele>
        <time>2018-08-25T16:37:23Z</time>
      </trkpt>
      <trkpt lat="42.686275" lon="-8.637468">
        <ele>124.155</ele>
        <time>2018-08-25T16:37:27Z</time>
      </trkpt>
      <trkpt lat="42.686321" lon="-8.637484">
        <ele>124.043</ele>
        <time>2018-08-25T16:37:31Z</time>
      </trkpt>
      <trkpt lat="42.686374" lon="-8.637501">
        <ele>123.673</ele>
        <time>2018-08-25T16:37:35Z</time>
      </trkpt>
      <trkpt lat="42.686425" lon="-8.637542">
        <ele>123.355</ele>
        <time>2018-08-25T16:37:39Z</time>
      </trkpt>
      <trkpt lat="42.686469" lon="-8.637609">
        <ele>122.907</ele>
        <time>2018-08-25T16:37:42Z</time>
      </trkpt>
      <trkpt lat="42.686500" lon="-8.637666">
        <ele>122.417</ele>
        <time>2018-08-25T16:37:44Z</time>
      </trkpt>
      <trkpt lat="42.686533" lon="-8.637727">
        <ele>122.008</ele>
        <time>2018-08-25T16:37:46Z</time>
      </trkpt>
      <trkpt lat="42.686572" lon="-8.637773">
        <ele>122.077</ele>
        <time>2018-08-25T16:37:48Z</time>
      </trkpt>
      <trkpt lat="42.686634" lon="-8.637781">
        <ele>121.873</ele>
        <time>2018-08-25T16:37:51Z</time>
      </trkpt>
      <trkpt lat="42.686681" lon="-8.637765">
        <ele>121.458</ele>
        <time>2018-08-25T16:37:53Z</time>
      </trkpt>
      <trkpt lat="42.686724" lon="-8.637740">
        <ele>120.932</ele>
        <time>2018-08-25T16:37:55Z</time>
      </trkpt>
      <trkpt lat="42.686773" lon="-8.637700">
        <ele>119.939</ele>
        <time>2018-08-25T16:37:58Z</time>
      </trkpt>
      <trkpt lat="42.686821" lon="-8.637659">
        <ele>119.127</ele>
        <time>2018-08-25T16:38:01Z</time>
      </trkpt>
      <trkpt lat="42.686878" lon="-8.637634">
        <ele>118.545</ele>
        <time>2018-08-25T16:38:03Z</time>
      </trkpt>
      <trkpt lat="42.686933" lon="-8.637619">
        <ele>117.975</ele>
        <time>2018-08-25T16:38:05Z</time>
      </trkpt>
      <trkpt lat="42.686994" lon="-8.637624">
        <ele>117.436</ele>
        <time>2018-08-25T16:38:08Z</time>
      </trkpt>
      <trkpt lat="42.687044" lon="-8.637651">
        <ele>117.617</ele>
        <time>2018-08-25T16:38:11Z</time>
      </trkpt>
      <trkpt lat="42.687105" lon="-8.637687">
        <ele>118.418</ele>
        <time>2018-08-25T16:38:14Z</time>
      </trkpt>
      <trkpt lat="42.687155" lon="-8.637707">
        <ele>118.608</ele>
        <time>2018-08-25T16:38:16Z</time>
      </trkpt>
      <trkpt lat="42.687208" lon="-8.637722">
        <ele>117.995</ele>
        <time>2018-08-25T16:38:18Z</time>
      </trkpt>
      <trkpt lat="42.687270" lon="-8.637728">
        <ele>116.621</ele>
        <time>2018-08-25T16:38:20Z</time>
      </trkpt>
      <trkpt lat="42.687328" lon="-8.637722">
        <ele>115.386</ele>
        <time>2018-08-25T16:38:22Z</time>
      </trkpt>
      <trkpt lat="42.687380" lon="-8.637714">
        <ele>114.130</ele>
        <time>2018-08-25T16:38:24Z</time>
      </trkpt>
      <trkpt lat="42.687442" lon="-8.637723">
        <ele>112.847</ele>
        <time>2018-08-25T16:38:27Z</time>
      </trkpt>
      <trkpt lat="42.687493" lon="-8.637744">
        <ele>112.025</ele>
        <time>2018-08-25T16:38:30Z</time>
      </trkpt>
      <trkpt lat="42.687543" lon="-8.637748">
        <ele>112.033</ele>
        <time>2018-08-25T16:38:32Z</time>
      </trkpt>
      <trkpt lat="42.687607" lon="-8.637753">
        <ele>111.443</ele>
        <time>2018-08-25T16:38:34Z</time>
      </trkpt>
      <trkpt lat="42.687668" lon="-8.637768">
        <ele>110.279</ele>
        <time>2018-08-25T16:38:36Z</time>
      </trkpt>
      <trkpt lat="42.687715" lon="-8.637794">
        <ele>109.005</ele>
        <time>2018-08-25T16:38:38Z</time>
      </trkpt>
      <trkpt lat="42.687755" lon="-8.637829">
        <ele>108.325</ele>
        <time>2018-08-25T16:38:40Z</time>
      </trkpt>
      <trkpt lat="42.687800" lon="-8.637876">
        <ele>108.608</ele>
        <time>2018-08-25T16:38:42Z</time>
      </trkpt>
      <trkpt lat="42.687855" lon="-8.637924">
        <ele>110.059</ele>
        <time>2018-08-25T16:38:44Z</time>
      </trkpt>
      <trkpt lat="42.687911" lon="-8.637970">
        <ele>111.125</ele>
        <time>2018-08-25T16:38:46Z</time>
      </trkpt>
      <trkpt lat="42.687961" lon="-8.638011">
        <ele>111.640</ele>
        <time>2018-08-25T16:38:48Z</time>
      </trkpt>
      <trkpt lat="42.688001" lon="-8.638054">
        <ele>111.514</ele>
        <time>2018-08-25T16:38:50Z</time>
      </trkpt>
      <trkpt lat="42.688034" lon="-8.638100">
        <ele>111.961</ele>
        <time>2018-08-25T16:38:52Z</time>
      </trkpt>
      <trkpt lat="42.688071" lon="-8.638170">
        <ele>112.139</ele>
        <time>2018-08-25T16:38:55Z</time>
      </trkpt>
      <trkpt lat="42.688110" lon="-8.638238">
        <ele>112.167</ele>
        <time>2018-08-25T16:38:58Z</time>
      </trkpt>
      <trkpt lat="42.688139" lon="-8.638286">
        <ele>111.987</ele>
        <time>2018-08-25T16:39:00Z</time>
      </trkpt>
      <trkpt lat="42.688176" lon="-8.638324">
        <ele>112.036</ele>
        <time>2018-08-25T16:39:02Z</time>
      </trkpt>
      <trkpt lat="42.688225" lon="-8.638340">
        <ele>112.117</ele>
        <time>2018-08-25T16:39:04Z</time>
      </trkpt>
      <trkpt lat="42.688274" lon="-8.638326">
        <ele>112.218</ele>
        <time>2018-08-25T16:39:06Z</time>
      </trkpt>
      <trkpt lat="42.688317" lon="-8.638293">
        <ele>112.008</ele>
        <time>2018-08-25T16:39:08Z</time>
      </trkpt>
      <trkpt lat="42.688371" lon="-8.638249">
        <ele>112.115</ele>
        <time>2018-08-25T16:39:11Z</time>
      </trkpt>
      <trkpt lat="42.688419" lon="-8.638229">
        <ele>112.581</ele>
        <time>2018-08-25T16:39:13Z</time>
      </trkpt>
      <trkpt lat="42.688471" lon="-8.638214">
        <ele>112.656</ele>
        <time>2018-08-25T16:39:15Z</time>
      </trkpt>
      <trkpt lat="42.688522" lon="-8.638205">
        <ele>112.770</ele>
        <time>2018-08-25T16:39:17Z</time>
      </trkpt>
      <trkpt lat="42.688595" lon="-8.638195">
        <ele>112.997</ele>
        <time>2018-08-25T16:39:21Z</time>
      </trkpt>
      <trkpt lat="42.688641" lon="-8.638189">
        <ele>112.835</ele>
        <time>2018-08-25T16:39:23Z</time>
      </trkpt>
      <trkpt lat="42.688694" lon="-8.638175">
        <ele>112.493</ele>
        <time>2018-08-25T16:39:25Z</time>
      </trkpt>
      <trkpt lat="42.688745" lon="-8.638154">
        <ele>111.743</ele>
        <time>2018-08-25T16:39:27Z</time>
      </trkpt>
      <trkpt lat="42.688803" lon="-8.638131">
        <ele>110.793</ele>
        <time>2018-08-25T16:39:29Z</time>
      </trkpt>
      <trkpt lat="42.688859" lon="-8.638108">
        <ele>109.665</ele>
        <time>2018-08-25T16:39:31Z</time>
      </trkpt>
      <trkpt lat="42.688910" lon="-8.638080">
        <ele>108.421</ele>
        <time>2018-08-25T16:39:33Z</time>
      </trkpt>
      <trkpt lat="42.688966" lon="-8.638060">
        <ele>106.808</ele>
        <time>2018-08-25T16:39:35Z</time>
      </trkpt>
      <trkpt lat="42.689031" lon="-8.638046">
        <ele>105.161</ele>
        <time>2018-08-25T16:39:37Z</time>
      </trkpt>
      <trkpt lat="42.689101" lon="-8.638037">
        <ele>103.177</ele>
        <time>2018-08-25T16:39:39Z</time>
      </trkpt>
      <trkpt lat="42.689170" lon="-8.638051">
        <ele>101.682</ele>
        <time>2018-08-25T16:39:41Z</time>
      </trkpt>
      <trkpt lat="42.689240" lon="-8.638081">
        <ele>100.416</ele>
        <time>2018-08-25T16:39:43Z</time>
      </trkpt>
      <trkpt lat="42.689316" lon="-8.638111">
        <ele>99.873</ele>
        <time>2018-08-25T16:39:45Z</time>
      </trkpt>
      <trkpt lat="42.689376" lon="-8.638148">
        <ele>99.271</ele>
        <time>2018-08-25T16:39:47Z</time>
      </trkpt>
      <trkpt lat="42.689441" lon="-8.638194">
        <ele>99.299</ele>
        <time>2018-08-25T16:39:52Z</time>
      </trkpt>
      <trkpt lat="42.689489" lon="-8.638221">
        <ele>98.759</ele>
        <time>2018-08-25T16:39:56Z</time>
      </trkpt>
      <trkpt lat="42.689539" lon="-8.638243">
        <ele>97.929</ele>
        <time>2018-08-25T16:39:58Z</time>
      </trkpt>
      <trkpt lat="42.689627" lon="-8.638274">
        <ele>96.900</ele>
        <time>2018-08-25T16:39:59Z</time>
      </trkpt>
      <trkpt lat="42.689717" lon="-8.638287">
        <ele>95.620</ele>
        <time>2018-08-25T16:40:01Z</time>
      </trkpt>
      <trkpt lat="42.689765" lon="-8.638296">
        <ele>94.608</ele>
        <time>2018-08-25T16:40:02Z</time>
      </trkpt>
      <trkpt lat="42.689826" lon="-8.638313">
        <ele>93.564</ele>
        <time>2018-08-25T16:40:05Z</time>
      </trkpt>
      <trkpt lat="42.689875" lon="-8.638332">
        <ele>92.770</ele>
        <time>2018-08-25T16:40:07Z</time>
      </trkpt>
      <trkpt lat="42.689936" lon="-8.638353">
        <ele>92.215</ele>
        <time>2018-08-25T16:40:09Z</time>
      </trkpt>
      <trkpt lat="42.690067" lon="-8.638416">
        <ele>91.899</ele>
        <time>2018-08-25T16:40:11Z</time>
      </trkpt>
      <trkpt lat="42.690110" lon="-8.638452">
        <ele>91.886</ele>
        <time>2018-08-25T16:40:12Z</time>
      </trkpt>
      <trkpt lat="42.690151" lon="-8.638493">
        <ele>92.094</ele>
        <time>2018-08-25T16:40:13Z</time>
      </trkpt>
      <trkpt lat="42.690199" lon="-8.638541">
        <ele>92.752</ele>
        <time>2018-08-25T16:40:15Z</time>
      </trkpt>
      <trkpt lat="42.690246" lon="-8.638584">
        <ele>92.642</ele>
        <time>2018-08-25T16:40:17Z</time>
      </trkpt>
      <trkpt lat="42.690293" lon="-8.638605">
        <ele>93.524</ele>
        <time>2018-08-25T16:40:19Z</time>
      </trkpt>
      <trkpt lat="42.690365" lon="-8.638610">
        <ele>96.204</ele>
        <time>2018-08-25T16:40:21Z</time>
      </trkpt>
      <trkpt lat="42.690429" lon="-8.638591">
        <ele>97.814</ele>
        <time>2018-08-25T16:40:23Z</time>
      </trkpt>
      <trkpt lat="42.690481" lon="-8.638552">
        <ele>98.508</ele>
        <time>2018-08-25T16:40:25Z</time>
      </trkpt>
      <trkpt lat="42.690519" lon="-8.638498">
        <ele>98.434</ele>
        <time>2018-08-25T16:40:27Z</time>
      </trkpt>
      <trkpt lat="42.690569" lon="-8.638366">
        <ele>98.240</ele>
        <time>2018-08-25T16:40:29Z</time>
      </trkpt>
      <trkpt lat="42.690603" lon="-8.638271">
        <ele>98.075</ele>
        <time>2018-08-25T16:40:31Z</time>
      </trkpt>
      <trkpt lat="42.690629" lon="-8.638203">
        <ele>97.829</ele>
        <time>2018-08-25T16:40:33Z</time>
      </trkpt>
      <trkpt lat="42.690653" lon="-8.638148">
        <ele>97.616</ele>
        <time>2018-08-25T16:40:35Z</time>
      </trkpt>
      <trkpt lat="42.690679" lon="-8.638091">
        <ele>97.614</ele>
        <time>2018-08-25T16:40:37Z</time>
      </trkpt>
      <trkpt lat="42.690713" lon="-8.638033">
        <ele>97.832</ele>
        <time>2018-08-25T16:40:39Z</time>
      </trkpt>
      <trkpt lat="42.690747" lon="-8.637971">
        <ele>98.262</ele>
        <time>2018-08-25T16:40:41Z</time>
      </trkpt>
      <trkpt lat="42.690779" lon="-8.637901">
        <ele>98.555</ele>
        <time>2018-08-25T16:40:43Z</time>
      </trkpt>
      <trkpt lat="42.690809" lon="-8.637828">
        <ele>98.907</ele>
        <time>2018-08-25T16:40:45Z</time>
      </trkpt>
      <trkpt lat="42.690841" lon="-8.637758">
        <ele>99.517</ele>
        <time>2018-08-25T16:40:47Z</time>
      </trkpt>
      <trkpt lat="42.690874" lon="-8.637692">
        <ele>100.108</ele>
        <time>2018-08-25T16:40:49Z</time>
      </trkpt>
      <trkpt lat="42.690909" lon="-8.637630">
        <ele>100.737</ele>
        <time>2018-08-25T16:40:51Z</time>
      </trkpt>
      <trkpt lat="42.690949" lon="-8.637582">
        <ele>101.223</ele>
        <time>2018-08-25T16:40:53Z</time>
      </trkpt>
      <trkpt lat="42.690995" lon="-8.637559">
        <ele>101.758</ele>
        <time>2018-08-25T16:40:55Z</time>
      </trkpt>
      <trkpt lat="42.691045" lon="-8.637558">
        <ele>102.262</ele>
        <time>2018-08-25T16:40:57Z</time>
      </trkpt>
      <trkpt lat="42.691093" lon="-8.637565">
        <ele>102.819</ele>
        <time>2018-08-25T16:40:59Z</time>
      </trkpt>
      <trkpt lat="42.691138" lon="-8.637573">
        <ele>103.247</ele>
        <time>2018-08-25T16:41:01Z</time>
      </trkpt>
      <trkpt lat="42.691183" lon="-8.637588">
        <ele>103.615</ele>
        <time>2018-08-25T16:41:03Z</time>
      </trkpt>
      <trkpt lat="42.691230" lon="-8.637598">
        <ele>103.985</ele>
        <time>2018-08-25T16:41:05Z</time>
      </trkpt>
      <trkpt lat="42.691276" lon="-8.637600">
        <ele>104.185</ele>
        <time>2018-08-25T16:41:07Z</time>
      </trkpt>
      <trkpt lat="42.691343" lon="-8.637612">
        <ele>104.689</ele>
        <time>2018-08-25T16:41:10Z</time>
      </trkpt>
      <trkpt lat="42.691389" lon="-8.637619">
        <ele>105.117</ele>
        <time>2018-08-25T16:41:12Z</time>
      </trkpt>
      <trkpt lat="42.691435" lon="-8.637620">
        <ele>105.708</ele>
        <time>2018-08-25T16:41:14Z</time>
      </trkpt>
      <trkpt lat="42.691483" lon="-8.637609">
        <ele>106.020</ele>
        <time>2018-08-25T16:41:16Z</time>
      </trkpt>
      <trkpt lat="42.691533" lon="-8.637588">
        <ele>106.296</ele>
        <time>2018-08-25T16:41:18Z</time>
      </trkpt>
      <trkpt lat="42.691582" lon="-8.637568">
        <ele>106.521</ele>
        <time>2018-08-25T16:41:20Z</time>
      </trkpt>
      <trkpt lat="42.691630" lon="-8.637550">
        <ele>106.975</ele>
        <time>2018-08-25T16:41:22Z</time>
      </trkpt>
      <trkpt lat="42.691678" lon="-8.637533">
        <ele>107.392</ele>
        <time>2018-08-25T16:41:24Z</time>
      </trkpt>
      <trkpt lat="42.691726" lon="-8.637516">
        <ele>107.680</ele>
        <time>2018-08-25T16:41:26Z</time>
      </trkpt>
      <trkpt lat="42.691788" lon="-8.637491">
        <ele>107.678</ele>
        <time>2018-08-25T16:41:29Z</time>
      </trkpt>
      <trkpt lat="42.691836" lon="-8.637457">
        <ele>107.448</ele>
        <time>2018-08-25T16:41:32Z</time>
      </trkpt>
      <trkpt lat="42.691890" lon="-8.637416">
        <ele>107.135</ele>
        <time>2018-08-25T16:41:35Z</time>
      </trkpt>
      <trkpt lat="42.691935" lon="-8.637395">
        <ele>106.886</ele>
        <time>2018-08-25T16:41:37Z</time>
      </trkpt>
      <trkpt lat="42.691982" lon="-8.637391">
        <ele>106.114</ele>
        <time>2018-08-25T16:41:39Z</time>
      </trkpt>
      <trkpt lat="42.692030" lon="-8.637400">
        <ele>105.408</ele>
        <time>2018-08-25T16:41:41Z</time>
      </trkpt>
      <trkpt lat="42.692076" lon="-8.637413">
        <ele>104.735</ele>
        <time>2018-08-25T16:41:43Z</time>
      </trkpt>
      <trkpt lat="42.692135" lon="-8.637437">
        <ele>103.961</ele>
        <time>2018-08-25T16:41:46Z</time>
      </trkpt>
      <trkpt lat="42.692196" lon="-8.637458">
        <ele>103.166</ele>
        <time>2018-08-25T16:41:49Z</time>
      </trkpt>
      <trkpt lat="42.692263" lon="-8.637467">
        <ele>102.130</ele>
        <time>2018-08-25T16:41:52Z</time>
      </trkpt>
      <trkpt lat="42.692316" lon="-8.637467">
        <ele>101.247</ele>
        <time>2018-08-25T16:41:54Z</time>
      </trkpt>
      <trkpt lat="42.692377" lon="-8.637459">
        <ele>100.515</ele>
        <time>2018-08-25T16:41:56Z</time>
      </trkpt>
      <trkpt lat="42.692446" lon="-8.637439">
        <ele>100.413</ele>
        <time>2018-08-25T16:41:58Z</time>
      </trkpt>
      <trkpt lat="42.692516" lon="-8.637416">
        <ele>100.493</ele>
        <time>2018-08-25T16:42:00Z</time>
      </trkpt>
      <trkpt lat="42.692585" lon="-8.637412">
        <ele>100.526</ele>
        <time>2018-08-25T16:42:02Z</time>
      </trkpt>
      <trkpt lat="42.692641" lon="-8.637432">
        <ele>100.347</ele>
        <time>2018-08-25T16:42:04Z</time>
      </trkpt>
      <trkpt lat="42.692689" lon="-8.637474">
        <ele>100.311</ele>
        <time>2018-08-25T16:42:06Z</time>
      </trkpt>
      <trkpt lat="42.692742" lon="-8.637537">
        <ele>100.808</ele>
        <time>2018-08-25T16:42:08Z</time>
      </trkpt>
      <trkpt lat="42.692799" lon="-8.637599">
        <ele>101.424</ele>
        <time>2018-08-25T16:42:10Z</time>
      </trkpt>
      <trkpt lat="42.692858" lon="-8.637643">
        <ele>101.850</ele>
        <time>2018-08-25T16:42:12Z</time>
      </trkpt>
      <trkpt lat="42.692916" lon="-8.637676">
        <ele>102.195</ele>
        <time>2018-08-25T16:42:14Z</time>
      </trkpt>
      <trkpt lat="42.692971" lon="-8.637701">
        <ele>102.439</ele>
        <time>2018-08-25T16:42:16Z</time>
      </trkpt>
      <trkpt lat="42.693025" lon="-8.637720">
        <ele>102.676</ele>
        <time>2018-08-25T16:42:18Z</time>
      </trkpt>
      <trkpt lat="42.693076" lon="-8.637735">
        <ele>102.764</ele>
        <time>2018-08-25T16:42:20Z</time>
      </trkpt>
      <trkpt lat="42.693124" lon="-8.637751">
        <ele>103.032</ele>
        <time>2018-08-25T16:42:22Z</time>
      </trkpt>
      <trkpt lat="42.693170" lon="-8.637772">
        <ele>103.622</ele>
        <time>2018-08-25T16:42:24Z</time>
      </trkpt>
      <trkpt lat="42.693232" lon="-8.637804">
        <ele>104.529</ele>
        <time>2018-08-25T16:42:27Z</time>
      </trkpt>
      <trkpt lat="42.693295" lon="-8.637839">
        <ele>106.100</ele>
        <time>2018-08-25T16:42:30Z</time>
      </trkpt>
      <trkpt lat="42.693337" lon="-8.637862">
        <ele>107.620</ele>
        <time>2018-08-25T16:42:32Z</time>
      </trkpt>
      <trkpt lat="42.693383" lon="-8.637882">
        <ele>108.008</ele>
        <time>2018-08-25T16:42:35Z</time>
      </trkpt>
      <trkpt lat="42.693430" lon="-8.637899">
        <ele>108.394</ele>
        <time>2018-08-25T16:42:44Z</time>
      </trkpt>
      <trkpt lat="42.693491" lon="-8.637910">
        <ele>108.790</ele>
        <time>2018-08-25T16:42:47Z</time>
      </trkpt>
      <trkpt lat="42.693542" lon="-8.637930">
        <ele>109.175</ele>
        <time>2018-08-25T16:42:49Z</time>
      </trkpt>
      <trkpt lat="42.693592" lon="-8.637959">
        <ele>109.389</ele>
        <time>2018-08-25T16:42:51Z</time>
      </trkpt>
      <trkpt lat="42.693646" lon="-8.637990">
        <ele>109.526</ele>
        <time>2018-08-25T16:42:53Z</time>
      </trkpt>
      <trkpt lat="42.693702" lon="-8.638013">
        <ele>109.894</ele>
        <time>2018-08-25T16:42:55Z</time>
      </trkpt>
      <trkpt lat="42.693757" lon="-8.638037">
        <ele>110.092</ele>
        <time>2018-08-25T16:42:57Z</time>
      </trkpt>
      <trkpt lat="42.693810" lon="-8.638060">
        <ele>110.172</ele>
        <time>2018-08-25T16:42:59Z</time>
      </trkpt>
      <trkpt lat="42.693862" lon="-8.638085">
        <ele>110.074</ele>
        <time>2018-08-25T16:43:01Z</time>
      </trkpt>
      <trkpt lat="42.693916" lon="-8.638108">
        <ele>109.756</ele>
        <time>2018-08-25T16:43:03Z</time>
      </trkpt>
      <trkpt lat="42.693969" lon="-8.638123">
        <ele>109.521</ele>
        <time>2018-08-25T16:43:05Z</time>
      </trkpt>
      <trkpt lat="42.694025" lon="-8.638135">
        <ele>109.308</ele>
        <time>2018-08-25T16:43:07Z</time>
      </trkpt>
      <trkpt lat="42.694084" lon="-8.638141">
        <ele>109.219</ele>
        <time>2018-08-25T16:43:09Z</time>
      </trkpt>
      <trkpt lat="42.694143" lon="-8.638152">
        <ele>108.995</ele>
        <time>2018-08-25T16:43:11Z</time>
      </trkpt>
      <trkpt lat="42.694208" lon="-8.638168">
        <ele>108.610</ele>
        <time>2018-08-25T16:43:13Z</time>
      </trkpt>
      <trkpt lat="42.694273" lon="-8.638185">
        <ele>108.454</ele>
        <time>2018-08-25T16:43:15Z</time>
      </trkpt>
      <trkpt lat="42.694338" lon="-8.638204">
        <ele>108.451</ele>
        <time>2018-08-25T16:43:17Z</time>
      </trkpt>
      <trkpt lat="42.694405" lon="-8.638221">
        <ele>108.699</ele>
        <time>2018-08-25T16:43:19Z</time>
      </trkpt>
      <trkpt lat="42.694468" lon="-8.638229">
        <ele>108.987</ele>
        <time>2018-08-25T16:43:21Z</time>
      </trkpt>
      <trkpt lat="42.694521" lon="-8.638230">
        <ele>109.147</ele>
        <time>2018-08-25T16:43:23Z</time>
      </trkpt>
      <trkpt lat="42.694586" lon="-8.638229">
        <ele>109.647</ele>
        <time>2018-08-25T16:43:26Z</time>
      </trkpt>
      <trkpt lat="42.694653" lon="-8.638224">
        <ele>109.729</ele>
        <time>2018-08-25T16:43:29Z</time>
      </trkpt>
      <trkpt lat="42.694703" lon="-8.638222">
        <ele>110.221</ele>
        <time>2018-08-25T16:43:31Z</time>
      </trkpt>
      <trkpt lat="42.694756" lon="-8.638224">
        <ele>110.508</ele>
        <time>2018-08-25T16:43:33Z</time>
      </trkpt>
      <trkpt lat="42.694810" lon="-8.638223">
        <ele>110.776</ele>
        <time>2018-08-25T16:43:35Z</time>
      </trkpt>
      <trkpt lat="42.694864" lon="-8.638215">
        <ele>110.912</ele>
        <time>2018-08-25T16:43:37Z</time>
      </trkpt>
      <trkpt lat="42.694922" lon="-8.638213">
        <ele>111.167</ele>
        <time>2018-08-25T16:43:39Z</time>
      </trkpt>
      <trkpt lat="42.694988" lon="-8.638212">
        <ele>111.361</ele>
        <time>2018-08-25T16:43:41Z</time>
      </trkpt>
      <trkpt lat="42.695050" lon="-8.638215">
        <ele>111.658</ele>
        <time>2018-08-25T16:43:43Z</time>
      </trkpt>
      <trkpt lat="42.695109" lon="-8.638219">
        <ele>111.836</ele>
        <time>2018-08-25T16:43:45Z</time>
      </trkpt>
      <trkpt lat="42.695176" lon="-8.638225">
        <ele>111.964</ele>
        <time>2018-08-25T16:43:47Z</time>
      </trkpt>
      <trkpt lat="42.695297" lon="-8.638229">
        <ele>111.934</ele>
        <time>2018-08-25T16:43:49Z</time>
      </trkpt>
      <trkpt lat="42.695357" lon="-8.638231">
        <ele>112.143</ele>
        <time>2018-08-25T16:43:51Z</time>
      </trkpt>
      <trkpt lat="42.695403" lon="-8.638236">
        <ele>112.264</ele>
        <time>2018-08-25T16:43:53Z</time>
      </trkpt>
      <trkpt lat="42.695457" lon="-8.638237">
        <ele>112.210</ele>
        <time>2018-08-25T16:43:55Z</time>
      </trkpt>
      <trkpt lat="42.695516" lon="-8.638244">
        <ele>111.808</ele>
        <time>2018-08-25T16:43:57Z</time>
      </trkpt>
      <trkpt lat="42.695580" lon="-8.638257">
        <ele>111.766</ele>
        <time>2018-08-25T16:43:59Z</time>
      </trkpt>
      <trkpt lat="42.695646" lon="-8.638277">
        <ele>111.662</ele>
        <time>2018-08-25T16:44:01Z</time>
      </trkpt>
      <trkpt lat="42.695707" lon="-8.638315">
        <ele>111.787</ele>
        <time>2018-08-25T16:44:03Z</time>
      </trkpt>
      <trkpt lat="42.695755" lon="-8.638372">
        <ele>112.391</ele>
        <time>2018-08-25T16:44:05Z</time>
      </trkpt>
      <trkpt lat="42.695797" lon="-8.638437">
        <ele>113.428</ele>
        <time>2018-08-25T16:44:07Z</time>
      </trkpt>
      <trkpt lat="42.695837" lon="-8.638487">
        <ele>114.256</ele>
        <time>2018-08-25T16:44:09Z</time>
      </trkpt>
      <trkpt lat="42.695876" lon="-8.638533">
        <ele>114.864</ele>
        <time>2018-08-25T16:44:11Z</time>
      </trkpt>
      <trkpt lat="42.695913" lon="-8.638580">
        <ele>115.464</ele>
        <time>2018-08-25T16:44:13Z</time>
      </trkpt>
      <trkpt lat="42.695955" lon="-8.638634">
        <ele>115.723</ele>
        <time>2018-08-25T16:44:15Z</time>
      </trkpt>
      <trkpt lat="42.695985" lon="-8.638696">
        <ele>116.483</ele>
        <time>2018-08-25T16:44:17Z</time>
      </trkpt>
      <trkpt lat="42.696013" lon="-8.638760">
        <ele>116.911</ele>
        <time>2018-08-25T16:44:19Z</time>
      </trkpt>
      <trkpt lat="42.696048" lon="-8.638818">
        <ele>117.408</ele>
        <time>2018-08-25T16:44:21Z</time>
      </trkpt>
      <trkpt lat="42.696082" lon="-8.638870">
        <ele>118.084</ele>
        <time>2018-08-25T16:44:23Z</time>
      </trkpt>
      <trkpt lat="42.696115" lon="-8.638920">
        <ele>118.520</ele>
        <time>2018-08-25T16:44:25Z</time>
      </trkpt>
      <trkpt lat="42.696149" lon="-8.638966">
        <ele>118.935</ele>
        <time>2018-08-25T16:44:27Z</time>
      </trkpt>
      <trkpt lat="42.696187" lon="-8.639007">
        <ele>119.219</ele>
        <time>2018-08-25T16:44:29Z</time>
      </trkpt>
      <trkpt lat="42.696228" lon="-8.639039">
        <ele>119.236</ele>
        <time>2018-08-25T16:44:31Z</time>
      </trkpt>
      <trkpt lat="42.696273" lon="-8.639070">
        <ele>119.424</ele>
        <time>2018-08-25T16:44:33Z</time>
      </trkpt>
      <trkpt lat="42.696319" lon="-8.639105">
        <ele>119.662</ele>
        <time>2018-08-25T16:44:35Z</time>
      </trkpt>
      <trkpt lat="42.696365" lon="-8.639138">
        <ele>119.872</ele>
        <time>2018-08-25T16:44:37Z</time>
      </trkpt>
      <trkpt lat="42.696405" lon="-8.639167">
        <ele>120.159</ele>
        <time>2018-08-25T16:44:39Z</time>
      </trkpt>
      <trkpt lat="42.696464" lon="-8.639209">
        <ele>120.603</ele>
        <time>2018-08-25T16:44:42Z</time>
      </trkpt>
      <trkpt lat="42.696513" lon="-8.639257">
        <ele>121.323</ele>
        <time>2018-08-25T16:44:45Z</time>
      </trkpt>
      <trkpt lat="42.696547" lon="-8.639324">
        <ele>121.908</ele>
        <time>2018-08-25T16:44:48Z</time>
      </trkpt>
      <trkpt lat="42.696574" lon="-8.639450">
        <ele>122.317</ele>
        <time>2018-08-25T16:44:51Z</time>
      </trkpt>
      <trkpt lat="42.696549" lon="-8.639546">
        <ele>122.683</ele>
        <time>2018-08-25T16:44:53Z</time>
      </trkpt>
      <trkpt lat="42.696525" lon="-8.639639">
        <ele>123.088</ele>
        <time>2018-08-25T16:44:55Z</time>
      </trkpt>
      <trkpt lat="42.696507" lon="-8.639721">
        <ele>123.212</ele>
        <time>2018-08-25T16:44:58Z</time>
      </trkpt>
      <trkpt lat="42.696491" lon="-8.639804">
        <ele>123.459</ele>
        <time>2018-08-25T16:45:01Z</time>
      </trkpt>
      <trkpt lat="42.696487" lon="-8.639888">
        <ele>123.477</ele>
        <time>2018-08-25T16:45:04Z</time>
      </trkpt>
      <trkpt lat="42.696500" lon="-8.640051">
        <ele>123.225</ele>
        <time>2018-08-25T16:45:07Z</time>
      </trkpt>
      <trkpt lat="42.696505" lon="-8.640135">
        <ele>122.555</ele>
        <time>2018-08-25T16:45:10Z</time>
      </trkpt>
      <trkpt lat="42.696513" lon="-8.640210">
        <ele>122.168</ele>
        <time>2018-08-25T16:45:12Z</time>
      </trkpt>
      <trkpt lat="42.696534" lon="-8.640282">
        <ele>121.742</ele>
        <time>2018-08-25T16:45:14Z</time>
      </trkpt>
      <trkpt lat="42.696562" lon="-8.640354">
        <ele>121.626</ele>
        <time>2018-08-25T16:45:16Z</time>
      </trkpt>
      <trkpt lat="42.696597" lon="-8.640428">
        <ele>121.608</ele>
        <time>2018-08-25T16:45:18Z</time>
      </trkpt>
      <trkpt lat="42.696651" lon="-8.640516">
        <ele>121.668</ele>
        <time>2018-08-25T16:45:19Z</time>
      </trkpt>
      <trkpt lat="42.696701" lon="-8.640566">
        <ele>121.534</ele>
        <time>2018-08-25T16:45:21Z</time>
      </trkpt>
      <trkpt lat="42.696756" lon="-8.640607">
        <ele>121.499</ele>
        <time>2018-08-25T16:45:22Z</time>
      </trkpt>
      <trkpt lat="42.696816" lon="-8.640642">
        <ele>121.213</ele>
        <time>2018-08-25T16:45:24Z</time>
      </trkpt>
      <trkpt lat="42.696869" lon="-8.640670">
        <ele>120.860</ele>
        <time>2018-08-25T16:45:26Z</time>
      </trkpt>
      <trkpt lat="42.696929" lon="-8.640701">
        <ele>120.548</ele>
        <time>2018-08-25T16:45:28Z</time>
      </trkpt>
      <trkpt lat="42.696982" lon="-8.640729">
        <ele>120.226</ele>
        <time>2018-08-25T16:45:30Z</time>
      </trkpt>
      <trkpt lat="42.697028" lon="-8.640751">
        <ele>120.056</ele>
        <time>2018-08-25T16:45:32Z</time>
      </trkpt>
      <trkpt lat="42.697071" lon="-8.640773">
        <ele>119.896</ele>
        <time>2018-08-25T16:45:34Z</time>
      </trkpt>
      <trkpt lat="42.697113" lon="-8.640794">
        <ele>119.731</ele>
        <time>2018-08-25T16:45:36Z</time>
      </trkpt>
      <trkpt lat="42.697157" lon="-8.640813">
        <ele>119.524</ele>
        <time>2018-08-25T16:45:38Z</time>
      </trkpt>
      <trkpt lat="42.697203" lon="-8.640831">
        <ele>119.408</ele>
        <time>2018-08-25T16:45:40Z</time>
      </trkpt>
      <trkpt lat="42.697252" lon="-8.640852">
        <ele>119.441</ele>
        <time>2018-08-25T16:45:42Z</time>
      </trkpt>
      <trkpt lat="42.697300" lon="-8.640871">
        <ele>119.577</ele>
        <time>2018-08-25T16:45:44Z</time>
      </trkpt>
      <trkpt lat="42.697363" lon="-8.640891">
        <ele>119.632</ele>
        <time>2018-08-25T16:45:47Z</time>
      </trkpt>
      <trkpt lat="42.697419" lon="-8.640908">
        <ele>119.826</ele>
        <time>2018-08-25T16:45:50Z</time>
      </trkpt>
      <trkpt lat="42.697472" lon="-8.640923">
        <ele>120.093</ele>
        <time>2018-08-25T16:45:53Z</time>
      </trkpt>
      <trkpt lat="42.697529" lon="-8.640944">
        <ele>120.451</ele>
        <time>2018-08-25T16:45:56Z</time>
      </trkpt>
      <trkpt lat="42.697583" lon="-8.640956">
        <ele>120.289</ele>
        <time>2018-08-25T16:45:59Z</time>
      </trkpt>
      <trkpt lat="42.697634" lon="-8.640954">
        <ele>119.949</ele>
        <time>2018-08-25T16:46:02Z</time>
      </trkpt>
      <trkpt lat="42.697681" lon="-8.640963">
        <ele>119.961</ele>
        <time>2018-08-25T16:46:05Z</time>
      </trkpt>
      <trkpt lat="42.697737" lon="-8.640963">
        <ele>119.721</ele>
        <time>2018-08-25T16:46:09Z</time>
      </trkpt>
      <trkpt lat="42.697783" lon="-8.640957">
        <ele>119.413</ele>
        <time>2018-08-25T16:46:12Z</time>
      </trkpt>
      <trkpt lat="42.697834" lon="-8.640968">
        <ele>118.708</ele>
        <time>2018-08-25T16:46:15Z</time>
      </trkpt>
      <trkpt lat="42.697886" lon="-8.640971">
        <ele>118.268</ele>
        <time>2018-08-25T16:46:18Z</time>
      </trkpt>
      <trkpt lat="42.697932" lon="-8.640964">
        <ele>117.494</ele>
        <time>2018-08-25T16:46:21Z</time>
      </trkpt>
      <trkpt lat="42.697981" lon="-8.640957">
        <ele>116.529</ele>
        <time>2018-08-25T16:46:24Z</time>
      </trkpt>
      <trkpt lat="42.698035" lon="-8.640951">
        <ele>115.793</ele>
        <time>2018-08-25T16:46:27Z</time>
      </trkpt>
      <trkpt lat="42.698089" lon="-8.640947">
        <ele>114.940</ele>
        <time>2018-08-25T16:46:30Z</time>
      </trkpt>
      <trkpt lat="42.698134" lon="-8.640947">
        <ele>114.498</ele>
        <time>2018-08-25T16:46:33Z</time>
      </trkpt>
      <trkpt lat="42.698190" lon="-8.640957">
        <ele>113.326</ele>
        <time>2018-08-25T16:46:37Z</time>
      </trkpt>
      <trkpt lat="42.698246" lon="-8.640970">
        <ele>112.296</ele>
        <time>2018-08-25T16:46:40Z</time>
      </trkpt>
      <trkpt lat="42.698307" lon="-8.640969">
        <ele>110.926</ele>
        <time>2018-08-25T16:46:43Z</time>
      </trkpt>
      <trkpt lat="42.698368" lon="-8.640969">
        <ele>109.947</ele>
        <time>2018-08-25T16:46:46Z</time>
      </trkpt>
      <trkpt lat="42.698415" lon="-8.640958">
        <ele>109.511</ele>
        <time>2018-08-25T16:46:48Z</time>
      </trkpt>
      <trkpt lat="42.698466" lon="-8.640941">
        <ele>109.308</ele>
        <time>2018-08-25T16:46:50Z</time>
      </trkpt>
      <trkpt lat="42.698514" lon="-8.640921">
        <ele>109.514</ele>
        <time>2018-08-25T16:46:52Z</time>
      </trkpt>
      <trkpt lat="42.698575" lon="-8.640889">
        <ele>109.430</ele>
        <time>2018-08-25T16:46:55Z</time>
      </trkpt>
      <trkpt lat="42.698630" lon="-8.640860">
        <ele>109.165</ele>
        <time>2018-08-25T16:46:58Z</time>
      </trkpt>
      <trkpt lat="42.698680" lon="-8.640835">
        <ele>108.629</ele>
        <time>2018-08-25T16:47:01Z</time>
      </trkpt>
      <trkpt lat="42.698728" lon="-8.640810">
        <ele>108.246</ele>
        <time>2018-08-25T16:47:04Z</time>
      </trkpt>
      <trkpt lat="42.698782" lon="-8.640774">
        <ele>108.194</ele>
        <time>2018-08-25T16:47:07Z</time>
      </trkpt>
      <trkpt lat="42.698838" lon="-8.640718">
        <ele>107.892</ele>
        <time>2018-08-25T16:47:10Z</time>
      </trkpt>
      <trkpt lat="42.698878" lon="-8.640675">
        <ele>107.722</ele>
        <time>2018-08-25T16:47:12Z</time>
      </trkpt>
      <trkpt lat="42.698925" lon="-8.640638">
        <ele>108.136</ele>
        <time>2018-08-25T16:47:14Z</time>
      </trkpt>
      <trkpt lat="42.698970" lon="-8.640601">
        <ele>108.517</ele>
        <time>2018-08-25T16:47:16Z</time>
      </trkpt>
      <trkpt lat="42.699011" lon="-8.640571">
        <ele>108.918</ele>
        <time>2018-08-25T16:47:18Z</time>
      </trkpt>
      <trkpt lat="42.699064" lon="-8.640515">
        <ele>110.008</ele>
        <time>2018-08-25T16:47:21Z</time>
      </trkpt>
      <trkpt lat="42.699100" lon="-8.640471">
        <ele>111.335</ele>
        <time>2018-08-25T16:47:23Z</time>
      </trkpt>
      <trkpt lat="42.699138" lon="-8.640429">
        <ele>112.151</ele>
        <time>2018-08-25T16:47:25Z</time>
      </trkpt>
      <trkpt lat="42.699185" lon="-8.640369">
        <ele>113.016</ele>
        <time>2018-08-25T16:47:28Z</time>
      </trkpt>
      <trkpt lat="42.699217" lon="-8.640321">
        <ele>113.660</ele>
        <time>2018-08-25T16:47:30Z</time>
      </trkpt>
      <trkpt lat="42.699247" lon="-8.640267">
        <ele>113.927</ele>
        <time>2018-08-25T16:47:32Z</time>
      </trkpt>
      <trkpt lat="42.699277" lon="-8.640188">
        <ele>114.365</ele>
        <time>2018-08-25T16:47:35Z</time>
      </trkpt>
      <trkpt lat="42.699307" lon="-8.640106">
        <ele>114.983</ele>
        <time>2018-08-25T16:47:38Z</time>
      </trkpt>
      <trkpt lat="42.699359" lon="-8.640053">
        <ele>115.663</ele>
        <time>2018-08-25T16:47:41Z</time>
      </trkpt>
      <trkpt lat="42.699405" lon="-8.640052">
        <ele>116.311</ele>
        <time>2018-08-25T16:47:44Z</time>
      </trkpt>
      <trkpt lat="42.699457" lon="-8.640080">
        <ele>116.921</ele>
        <time>2018-08-25T16:47:47Z</time>
      </trkpt>
      <trkpt lat="42.699500" lon="-8.640103">
        <ele>117.503</ele>
        <time>2018-08-25T16:47:49Z</time>
      </trkpt>
      <trkpt lat="42.699546" lon="-8.640122">
        <ele>117.908</ele>
        <time>2018-08-25T16:47:51Z</time>
      </trkpt>
      <trkpt lat="42.699595" lon="-8.640136">
        <ele>118.283</ele>
        <time>2018-08-25T16:47:53Z</time>
      </trkpt>
      <trkpt lat="42.699646" lon="-8.640152">
        <ele>118.249</ele>
        <time>2018-08-25T16:47:55Z</time>
      </trkpt>
      <trkpt lat="42.699699" lon="-8.640174">
        <ele>118.254</ele>
        <time>2018-08-25T16:47:57Z</time>
      </trkpt>
      <trkpt lat="42.699754" lon="-8.640194">
        <ele>118.178</ele>
        <time>2018-08-25T16:47:59Z</time>
      </trkpt>
      <trkpt lat="42.699814" lon="-8.640205">
        <ele>118.055</ele>
        <time>2018-08-25T16:48:01Z</time>
      </trkpt>
      <trkpt lat="42.699872" lon="-8.640205">
        <ele>118.073</ele>
        <time>2018-08-25T16:48:03Z</time>
      </trkpt>
      <trkpt lat="42.699924" lon="-8.640196">
        <ele>118.491</ele>
        <time>2018-08-25T16:48:05Z</time>
      </trkpt>
      <trkpt lat="42.699984" lon="-8.640174">
        <ele>118.321</ele>
        <time>2018-08-25T16:48:08Z</time>
      </trkpt>
      <trkpt lat="42.700043" lon="-8.640148">
        <ele>118.332</ele>
        <time>2018-08-25T16:48:11Z</time>
      </trkpt>
      <trkpt lat="42.700089" lon="-8.640144">
        <ele>118.292</ele>
        <time>2018-08-25T16:48:13Z</time>
      </trkpt>
      <trkpt lat="42.700137" lon="-8.640144">
        <ele>118.111</ele>
        <time>2018-08-25T16:48:15Z</time>
      </trkpt>
      <trkpt lat="42.700184" lon="-8.640141">
        <ele>118.108</ele>
        <time>2018-08-25T16:48:17Z</time>
      </trkpt>
      <trkpt lat="42.700230" lon="-8.640154">
        <ele>118.135</ele>
        <time>2018-08-25T16:48:19Z</time>
      </trkpt>
      <trkpt lat="42.700276" lon="-8.640168">
        <ele>118.161</ele>
        <time>2018-08-25T16:48:21Z</time>
      </trkpt>
      <trkpt lat="42.700328" lon="-8.640171">
        <ele>118.266</ele>
        <time>2018-08-25T16:48:23Z</time>
      </trkpt>
      <trkpt lat="42.700380" lon="-8.640167">
        <ele>118.330</ele>
        <time>2018-08-25T16:48:25Z</time>
      </trkpt>
      <trkpt lat="42.700432" lon="-8.640161">
        <ele>118.327</ele>
        <time>2018-08-25T16:48:27Z</time>
      </trkpt>
      <trkpt lat="42.700485" lon="-8.640159">
        <ele>118.365</ele>
        <time>2018-08-25T16:48:29Z</time>
      </trkpt>
      <trkpt lat="42.700539" lon="-8.640153">
        <ele>118.323</ele>
        <time>2018-08-25T16:48:31Z</time>
      </trkpt>
      <trkpt lat="42.700592" lon="-8.640141">
        <ele>118.213</ele>
        <time>2018-08-25T16:48:33Z</time>
      </trkpt>
      <trkpt lat="42.700642" lon="-8.640119">
        <ele>117.941</ele>
        <time>2018-08-25T16:48:35Z</time>
      </trkpt>
      <trkpt lat="42.700694" lon="-8.640099">
        <ele>117.581</ele>
        <time>2018-08-25T16:48:37Z</time>
      </trkpt>
      <trkpt lat="42.700755" lon="-8.640081">
        <ele>116.909</ele>
        <time>2018-08-25T16:48:39Z</time>
      </trkpt>
      <trkpt lat="42.700873" lon="-8.640049">
        <ele>116.408</ele>
        <time>2018-08-25T16:48:41Z</time>
      </trkpt>
      <trkpt lat="42.700965" lon="-8.640033">
        <ele>115.966</ele>
        <time>2018-08-25T16:48:43Z</time>
      </trkpt>
      <trkpt lat="42.701046" lon="-8.640068">
        <ele>115.232</ele>
        <time>2018-08-25T16:48:45Z</time>
      </trkpt>
      <trkpt lat="42.701091" lon="-8.640101">
        <ele>114.447</ele>
        <time>2018-08-25T16:48:46Z</time>
      </trkpt>
      <trkpt lat="42.701142" lon="-8.640144">
        <ele>113.761</ele>
        <time>2018-08-25T16:48:47Z</time>
      </trkpt>
      <trkpt lat="42.701199" lon="-8.640191">
        <ele>113.478</ele>
        <time>2018-08-25T16:48:48Z</time>
      </trkpt>
      <trkpt lat="42.701260" lon="-8.640243">
        <ele>113.556</ele>
        <time>2018-08-25T16:48:49Z</time>
      </trkpt>
      <trkpt lat="42.701314" lon="-8.640311">
        <ele>114.394</ele>
        <time>2018-08-25T16:48:50Z</time>
      </trkpt>
      <trkpt lat="42.701353" lon="-8.640387">
        <ele>114.934</ele>
        <time>2018-08-25T16:48:51Z</time>
      </trkpt>
      <trkpt lat="42.701373" lon="-8.640472">
        <ele>115.385</ele>
        <time>2018-08-25T16:48:52Z</time>
      </trkpt>
      <trkpt lat="42.701380" lon="-8.640549">
        <ele>116.189</ele>
        <time>2018-08-25T16:48:53Z</time>
      </trkpt>
      <trkpt lat="42.701379" lon="-8.640619">
        <ele>116.817</ele>
        <time>2018-08-25T16:48:54Z</time>
      </trkpt>
      <trkpt lat="42.701406" lon="-8.640713">
        <ele>116.108</ele>
        <time>2018-08-25T16:48:56Z</time>
      </trkpt>
      <trkpt lat="42.701457" lon="-8.640791">
        <ele>115.740</ele>
        <time>2018-08-25T16:48:58Z</time>
      </trkpt>
      <trkpt lat="42.701512" lon="-8.640838">
        <ele>115.736</ele>
        <time>2018-08-25T16:49:01Z</time>
      </trkpt>
      <trkpt lat="42.701549" lon="-8.640879">
        <ele>115.761</ele>
        <time>2018-08-25T16:49:03Z</time>
      </trkpt>
      <trkpt lat="42.701588" lon="-8.640952">
        <ele>115.645</ele>
        <time>2018-08-25T16:49:06Z</time>
      </trkpt>
      <trkpt lat="42.701612" lon="-8.641030">
        <ele>115.862</ele>
        <time>2018-08-25T16:49:09Z</time>
      </trkpt>
      <trkpt lat="42.701620" lon="-8.641103">
        <ele>116.280</ele>
        <time>2018-08-25T16:49:12Z</time>
      </trkpt>
      <trkpt lat="42.701622" lon="-8.641173">
        <ele>116.548</ele>
        <time>2018-08-25T16:49:15Z</time>
      </trkpt>
      <trkpt lat="42.701617" lon="-8.641245">
        <ele>116.968</ele>
        <time>2018-08-25T16:49:18Z</time>
      </trkpt>
      <trkpt lat="42.701613" lon="-8.641327">
        <ele>117.477</ele>
        <time>2018-08-25T16:49:21Z</time>
      </trkpt>
      <trkpt lat="42.701596" lon="-8.641406">
        <ele>117.361</ele>
        <time>2018-08-25T16:49:24Z</time>
      </trkpt>
      <trkpt lat="42.701576" lon="-8.641481">
        <ele>117.327</ele>
        <time>2018-08-25T16:49:27Z</time>
      </trkpt>
      <trkpt lat="42.701556" lon="-8.641557">
        <ele>117.308</ele>
        <time>2018-08-25T16:49:30Z</time>
      </trkpt>
      <trkpt lat="42.701542" lon="-8.641643">
        <ele>117.489</ele>
        <time>2018-08-25T16:49:33Z</time>
      </trkpt>
      <trkpt lat="42.701530" lon="-8.641705">
        <ele>117.575</ele>
        <time>2018-08-25T16:49:35Z</time>
      </trkpt>
      <trkpt lat="42.701507" lon="-8.641789">
        <ele>117.530</ele>
        <time>2018-08-25T16:49:38Z</time>
      </trkpt>
      <trkpt lat="42.701490" lon="-8.641874">
        <ele>117.314</ele>
        <time>2018-08-25T16:49:41Z</time>
      </trkpt>
      <trkpt lat="42.701478" lon="-8.641934">
        <ele>117.381</ele>
        <time>2018-08-25T16:49:43Z</time>
      </trkpt>
      <trkpt lat="42.701474" lon="-8.642003">
        <ele>117.219</ele>
        <time>2018-08-25T16:49:46Z</time>
      </trkpt>
      <trkpt lat="42.701506" lon="-8.642064">
        <ele>117.127</ele>
        <time>2018-08-25T16:49:49Z</time>
      </trkpt>
      <trkpt lat="42.701559" lon="-8.642096">
        <ele>117.227</ele>
        <time>2018-08-25T16:49:52Z</time>
      </trkpt>
      <trkpt lat="42.701601" lon="-8.642118">
        <ele>117.352</ele>
        <time>2018-08-25T16:49:54Z</time>
      </trkpt>
      <trkpt lat="42.701648" lon="-8.642144">
        <ele>117.453</ele>
        <time>2018-08-25T16:49:56Z</time>
      </trkpt>
      <trkpt lat="42.701692" lon="-8.642171">
        <ele>118.008</ele>
        <time>2018-08-25T16:49:58Z</time>
      </trkpt>
      <trkpt lat="42.701733" lon="-8.642200">
        <ele>118.608</ele>
        <time>2018-08-25T16:50:00Z</time>
      </trkpt>
      <trkpt lat="42.701773" lon="-8.642231">
        <ele>119.147</ele>
        <time>2018-08-25T16:50:02Z</time>
      </trkpt>
      <trkpt lat="42.701826" lon="-8.642268">
        <ele>120.623</ele>
        <time>2018-08-25T16:50:05Z</time>
      </trkpt>
      <trkpt lat="42.701885" lon="-8.642282">
        <ele>122.218</ele>
        <time>2018-08-25T16:50:08Z</time>
      </trkpt>
      <trkpt lat="42.701947" lon="-8.642265">
        <ele>123.592</ele>
        <time>2018-08-25T16:50:11Z</time>
      </trkpt>
      <trkpt lat="42.701991" lon="-8.642247">
        <ele>124.689</ele>
        <time>2018-08-25T16:50:13Z</time>
      </trkpt>
      <trkpt lat="42.702035" lon="-8.642226">
        <ele>125.617</ele>
        <time>2018-08-25T16:50:15Z</time>
      </trkpt>
      <trkpt lat="42.702079" lon="-8.642214">
        <ele>126.475</ele>
        <time>2018-08-25T16:50:17Z</time>
      </trkpt>
      <trkpt lat="42.702130" lon="-8.642202">
        <ele>127.025</ele>
        <time>2018-08-25T16:50:19Z</time>
      </trkpt>
      <trkpt lat="42.702182" lon="-8.642190">
        <ele>127.429</ele>
        <time>2018-08-25T16:50:21Z</time>
      </trkpt>
      <trkpt lat="42.702235" lon="-8.642176">
        <ele>127.600</ele>
        <time>2018-08-25T16:50:23Z</time>
      </trkpt>
      <trkpt lat="42.702288" lon="-8.642155">
        <ele>127.620</ele>
        <time>2018-08-25T16:50:25Z</time>
      </trkpt>
      <trkpt lat="42.702332" lon="-8.642132">
        <ele>127.808</ele>
        <time>2018-08-25T16:50:27Z</time>
      </trkpt>
      <trkpt lat="42.702377" lon="-8.642119">
        <ele>127.664</ele>
        <time>2018-08-25T16:50:29Z</time>
      </trkpt>
      <trkpt lat="42.702426" lon="-8.642113">
        <ele>127.410</ele>
        <time>2018-08-25T16:50:31Z</time>
      </trkpt>
      <trkpt lat="42.702475" lon="-8.642105">
        <ele>127.485</ele>
        <time>2018-08-25T16:50:33Z</time>
      </trkpt>
      <trkpt lat="42.702541" lon="-8.642095">
        <ele>127.689</ele>
        <time>2018-08-25T16:50:36Z</time>
      </trkpt>
      <trkpt lat="42.702592" lon="-8.642090">
        <ele>127.726</ele>
        <time>2018-08-25T16:50:38Z</time>
      </trkpt>
      <trkpt lat="42.702648" lon="-8.642092">
        <ele>127.754</ele>
        <time>2018-08-25T16:50:40Z</time>
      </trkpt>
      <trkpt lat="42.702702" lon="-8.642097">
        <ele>127.682</ele>
        <time>2018-08-25T16:50:42Z</time>
      </trkpt>
      <trkpt lat="42.702756" lon="-8.642100">
        <ele>127.322</ele>
        <time>2018-08-25T16:50:44Z</time>
      </trkpt>
      <trkpt lat="42.702813" lon="-8.642109">
        <ele>127.132</ele>
        <time>2018-08-25T16:50:46Z</time>
      </trkpt>
      <trkpt lat="42.702868" lon="-8.642120">
        <ele>126.992</ele>
        <time>2018-08-25T16:50:48Z</time>
      </trkpt>
      <trkpt lat="42.702922" lon="-8.642127">
        <ele>126.711</ele>
        <time>2018-08-25T16:50:50Z</time>
      </trkpt>
      <trkpt lat="42.702974" lon="-8.642137">
        <ele>126.508</ele>
        <time>2018-08-25T16:50:52Z</time>
      </trkpt>
      <trkpt lat="42.703024" lon="-8.642146">
        <ele>126.185</ele>
        <time>2018-08-25T16:50:54Z</time>
      </trkpt>
      <trkpt lat="42.703086" lon="-8.642153">
        <ele>125.121</ele>
        <time>2018-08-25T16:50:57Z</time>
      </trkpt>
      <trkpt lat="42.703131" lon="-8.642158">
        <ele>124.636</ele>
        <time>2018-08-25T16:50:59Z</time>
      </trkpt>
      <trkpt lat="42.703178" lon="-8.642164">
        <ele>124.690</ele>
        <time>2018-08-25T16:51:01Z</time>
      </trkpt>
      <trkpt lat="42.703243" lon="-8.642175">
        <ele>124.997</ele>
        <time>2018-08-25T16:51:04Z</time>
      </trkpt>
      <trkpt lat="42.703306" lon="-8.642181">
        <ele>125.045</ele>
        <time>2018-08-25T16:51:07Z</time>
      </trkpt>
      <trkpt lat="42.703354" lon="-8.642190">
        <ele>124.983</ele>
        <time>2018-08-25T16:51:09Z</time>
      </trkpt>
      <trkpt lat="42.703403" lon="-8.642194">
        <ele>124.943</ele>
        <time>2018-08-25T16:51:11Z</time>
      </trkpt>
      <trkpt lat="42.703450" lon="-8.642199">
        <ele>124.849</ele>
        <time>2018-08-25T16:51:13Z</time>
      </trkpt>
      <trkpt lat="42.703499" lon="-8.642199">
        <ele>124.702</ele>
        <time>2018-08-25T16:51:15Z</time>
      </trkpt>
      <trkpt lat="42.703547" lon="-8.642202">
        <ele>124.722</ele>
        <time>2018-08-25T16:51:17Z</time>
      </trkpt>
      <trkpt lat="42.703595" lon="-8.642206">
        <ele>124.608</ele>
        <time>2018-08-25T16:51:19Z</time>
      </trkpt>
      <trkpt lat="42.703647" lon="-8.642207">
        <ele>124.476</ele>
        <time>2018-08-25T16:51:21Z</time>
      </trkpt>
      <trkpt lat="42.703704" lon="-8.642211">
        <ele>123.892</ele>
        <time>2018-08-25T16:51:23Z</time>
      </trkpt>
      <trkpt lat="42.703758" lon="-8.642219">
        <ele>123.537</ele>
        <time>2018-08-25T16:51:25Z</time>
      </trkpt>
      <trkpt lat="42.703814" lon="-8.642237">
        <ele>123.571</ele>
        <time>2018-08-25T16:51:27Z</time>
      </trkpt>
      <trkpt lat="42.703868" lon="-8.642255">
        <ele>123.338</ele>
        <time>2018-08-25T16:51:29Z</time>
      </trkpt>
      <trkpt lat="42.703915" lon="-8.642265">
        <ele>123.076</ele>
        <time>2018-08-25T16:51:31Z</time>
      </trkpt>
      <trkpt lat="42.703962" lon="-8.642274">
        <ele>122.524</ele>
        <time>2018-08-25T16:51:33Z</time>
      </trkpt>
      <trkpt lat="42.704013" lon="-8.642286">
        <ele>122.194</ele>
        <time>2018-08-25T16:51:35Z</time>
      </trkpt>
      <trkpt lat="42.704062" lon="-8.642298">
        <ele>121.633</ele>
        <time>2018-08-25T16:51:37Z</time>
      </trkpt>
      <trkpt lat="42.704110" lon="-8.642304">
        <ele>120.823</ele>
        <time>2018-08-25T16:51:39Z</time>
      </trkpt>
      <trkpt lat="42.704159" lon="-8.642302">
        <ele>120.015</ele>
        <time>2018-08-25T16:51:41Z</time>
      </trkpt>
      <trkpt lat="42.704213" lon="-8.642296">
        <ele>119.108</ele>
        <time>2018-08-25T16:51:43Z</time>
      </trkpt>
      <trkpt lat="42.704280" lon="-8.642289">
        <ele>118.535</ele>
        <time>2018-08-25T16:51:45Z</time>
      </trkpt>
      <trkpt lat="42.704371" lon="-8.642290">
        <ele>117.991</ele>
        <time>2018-08-25T16:51:46Z</time>
      </trkpt>
      <trkpt lat="42.704452" lon="-8.642313">
        <ele>117.276</ele>
        <time>2018-08-25T16:51:48Z</time>
      </trkpt>
      <trkpt lat="42.704514" lon="-8.642333">
        <ele>116.430</ele>
        <time>2018-08-25T16:51:50Z</time>
      </trkpt>
      <trkpt lat="42.704572" lon="-8.642342">
        <ele>115.817</ele>
        <time>2018-08-25T16:51:51Z</time>
      </trkpt>
      <trkpt lat="42.704622" lon="-8.642350">
        <ele>115.445</ele>
        <time>2018-08-25T16:51:52Z</time>
      </trkpt>
      <trkpt lat="42.704678" lon="-8.642361">
        <ele>114.963</ele>
        <time>2018-08-25T16:51:53Z</time>
      </trkpt>
      <trkpt lat="42.704732" lon="-8.642363">
        <ele>114.443</ele>
        <time>2018-08-25T16:51:54Z</time>
      </trkpt>
      <trkpt lat="42.704786" lon="-8.642350">
        <ele>113.967</ele>
        <time>2018-08-25T16:51:55Z</time>
      </trkpt>
      <trkpt lat="42.704848" lon="-8.642347">
        <ele>113.181</ele>
        <time>2018-08-25T16:51:56Z</time>
      </trkpt>
      <trkpt lat="42.704906" lon="-8.642346">
        <ele>112.519</ele>
        <time>2018-08-25T16:51:57Z</time>
      </trkpt>
      <trkpt lat="42.704964" lon="-8.642347">
        <ele>112.108</ele>
        <time>2018-08-25T16:51:58Z</time>
      </trkpt>
      <trkpt lat="42.705023" lon="-8.642353">
        <ele>111.898</ele>
        <time>2018-08-25T16:51:59Z</time>
      </trkpt>
      <trkpt lat="42.705084" lon="-8.642361">
        <ele>111.334</ele>
        <time>2018-08-25T16:52:00Z</time>
      </trkpt>
      <trkpt lat="42.705146" lon="-8.642368">
        <ele>110.879</ele>
        <time>2018-08-25T16:52:01Z</time>
      </trkpt>
      <trkpt lat="42.705208" lon="-8.642374">
        <ele>110.493</ele>
        <time>2018-08-25T16:52:02Z</time>
      </trkpt>
      <trkpt lat="42.705262" lon="-8.642377">
        <ele>110.180</ele>
        <time>2018-08-25T16:52:03Z</time>
      </trkpt>
      <trkpt lat="42.705309" lon="-8.642375">
        <ele>109.558</ele>
        <time>2018-08-25T16:52:05Z</time>
      </trkpt>
      <trkpt lat="42.705361" lon="-8.642395">
        <ele>109.446</ele>
        <time>2018-08-25T16:52:07Z</time>
      </trkpt>
      <trkpt lat="42.705439" lon="-8.642469">
        <ele>109.596</ele>
        <time>2018-08-25T16:52:08Z</time>
      </trkpt>
      <trkpt lat="42.705472" lon="-8.642521">
        <ele>109.611</ele>
        <time>2018-08-25T16:52:09Z</time>
      </trkpt>
      <trkpt lat="42.705498" lon="-8.642578">
        <ele>109.721</ele>
        <time>2018-08-25T16:52:10Z</time>
      </trkpt>
      <trkpt lat="42.705522" lon="-8.642633">
        <ele>109.703</ele>
        <time>2018-08-25T16:52:11Z</time>
      </trkpt>
      <trkpt lat="42.705552" lon="-8.642689">
        <ele>109.408</ele>
        <time>2018-08-25T16:52:13Z</time>
      </trkpt>
      <trkpt lat="42.705606" lon="-8.642774">
        <ele>109.013</ele>
        <time>2018-08-25T16:52:14Z</time>
      </trkpt>
      <trkpt lat="42.705665" lon="-8.642881">
        <ele>108.149</ele>
        <time>2018-08-25T16:52:16Z</time>
      </trkpt>
      <trkpt lat="42.705704" lon="-8.642939">
        <ele>107.234</ele>
        <time>2018-08-25T16:52:17Z</time>
      </trkpt>
      <trkpt lat="42.705737" lon="-8.642994">
        <ele>106.528</ele>
        <time>2018-08-25T16:52:18Z</time>
      </trkpt>
      <trkpt lat="42.705768" lon="-8.643057">
        <ele>105.765</ele>
        <time>2018-08-25T16:52:19Z</time>
      </trkpt>
      <trkpt lat="42.705790" lon="-8.643115">
        <ele>105.353</ele>
        <time>2018-08-25T16:52:20Z</time>
      </trkpt>
      <trkpt lat="42.705813" lon="-8.643173">
        <ele>104.991</ele>
        <time>2018-08-25T16:52:21Z</time>
      </trkpt>
      <trkpt lat="42.705835" lon="-8.643234">
        <ele>104.621</ele>
        <time>2018-08-25T16:52:22Z</time>
      </trkpt>
      <trkpt lat="42.705848" lon="-8.643296">
        <ele>104.786</ele>
        <time>2018-08-25T16:52:24Z</time>
      </trkpt>
      <trkpt lat="42.705851" lon="-8.643390">
        <ele>105.060</ele>
        <time>2018-08-25T16:52:25Z</time>
      </trkpt>
      <trkpt lat="42.705852" lon="-8.643496">
        <ele>107.126</ele>
        <time>2018-08-25T16:52:27Z</time>
      </trkpt>
      <trkpt lat="42.705846" lon="-8.643558">
        <ele>109.108</ele>
        <time>2018-08-25T16:52:28Z</time>
      </trkpt>
      <trkpt lat="42.705844" lon="-8.643628">
        <ele>110.150</ele>
        <time>2018-08-25T16:52:29Z</time>
      </trkpt>
      <trkpt lat="42.705841" lon="-8.643703">
        <ele>110.966</ele>
        <time>2018-08-25T16:52:30Z</time>
      </trkpt>
      <trkpt lat="42.705844" lon="-8.643778">
        <ele>111.471</ele>
        <time>2018-08-25T16:52:31Z</time>
      </trkpt>
      <trkpt lat="42.705852" lon="-8.643852">
        <ele>111.755</ele>
        <time>2018-08-25T16:52:32Z</time>
      </trkpt>
      <trkpt lat="42.705865" lon="-8.643920">
        <ele>111.572</ele>
        <time>2018-08-25T16:52:33Z</time>
      </trkpt>
      <trkpt lat="42.705878" lon="-8.643986">
        <ele>111.620</ele>
        <time>2018-08-25T16:52:34Z</time>
      </trkpt>
      <trkpt lat="42.705895" lon="-8.644053">
        <ele>111.768</ele>
        <time>2018-08-25T16:52:35Z</time>
      </trkpt>
      <trkpt lat="42.705916" lon="-8.644117">
        <ele>111.738</ele>
        <time>2018-08-25T16:52:36Z</time>
      </trkpt>
      <trkpt lat="42.705938" lon="-8.644187">
        <ele>111.741</ele>
        <time>2018-08-25T16:52:37Z</time>
      </trkpt>
      <trkpt lat="42.705964" lon="-8.644268">
        <ele>111.581</ele>
        <time>2018-08-25T16:52:38Z</time>
      </trkpt>
      <trkpt lat="42.705988" lon="-8.644335">
        <ele>111.309</ele>
        <time>2018-08-25T16:52:39Z</time>
      </trkpt>
      <trkpt lat="42.706028" lon="-8.644391">
        <ele>110.408</ele>
        <time>2018-08-25T16:52:41Z</time>
      </trkpt>
      <trkpt lat="42.706086" lon="-8.644445">
        <ele>107.666</ele>
        <time>2018-08-25T16:52:43Z</time>
      </trkpt>
      <trkpt lat="42.706146" lon="-8.644490">
        <ele>104.192</ele>
        <time>2018-08-25T16:52:45Z</time>
      </trkpt>
      <trkpt lat="42.706200" lon="-8.644522">
        <ele>101.097</ele>
        <time>2018-08-25T16:52:47Z</time>
      </trkpt>
      <trkpt lat="42.706252" lon="-8.644542">
        <ele>98.131</ele>
        <time>2018-08-25T16:52:49Z</time>
      </trkpt>
      <trkpt lat="42.706314" lon="-8.644572">
        <ele>95.478</ele>
        <time>2018-08-25T16:52:51Z</time>
      </trkpt>
      <trkpt lat="42.706378" lon="-8.644627">
        <ele>92.646</ele>
        <time>2018-08-25T16:52:53Z</time>
      </trkpt>
      <trkpt lat="42.706423" lon="-8.644694">
        <ele>92.014</ele>
        <time>2018-08-25T16:52:55Z</time>
      </trkpt>
      <trkpt lat="42.706444" lon="-8.644765">
        <ele>91.874</ele>
        <time>2018-08-25T16:52:57Z</time>
      </trkpt>
      <trkpt lat="42.706447" lon="-8.644830">
        <ele>91.589</ele>
        <time>2018-08-25T16:52:59Z</time>
      </trkpt>
      <trkpt lat="42.706439" lon="-8.644909">
        <ele>91.306</ele>
        <time>2018-08-25T16:53:02Z</time>
      </trkpt>
      <trkpt lat="42.706424" lon="-8.644980">
        <ele>91.126</ele>
        <time>2018-08-25T16:53:05Z</time>
      </trkpt>
      <trkpt lat="42.706405" lon="-8.645053">
        <ele>90.908</ele>
        <time>2018-08-25T16:53:08Z</time>
      </trkpt>
      <trkpt lat="42.706391" lon="-8.645132">
        <ele>90.530</ele>
        <time>2018-08-25T16:53:11Z</time>
      </trkpt>
      <trkpt lat="42.706382" lon="-8.645211">
        <ele>90.746</ele>
        <time>2018-08-25T16:53:14Z</time>
      </trkpt>
      <trkpt lat="42.706382" lon="-8.645298">
        <ele>90.841</ele>
        <time>2018-08-25T16:53:17Z</time>
      </trkpt>
      <trkpt lat="42.706386" lon="-8.645383">
        <ele>90.635</ele>
        <time>2018-08-25T16:53:20Z</time>
      </trkpt>
      <trkpt lat="42.706395" lon="-8.645465">
        <ele>90.352</ele>
        <time>2018-08-25T16:53:23Z</time>
      </trkpt>
      <trkpt lat="42.706409" lon="-8.645553">
        <ele>90.550</ele>
        <time>2018-08-25T16:53:26Z</time>
      </trkpt>
      <trkpt lat="42.706428" lon="-8.645636">
        <ele>91.538</ele>
        <time>2018-08-25T16:53:29Z</time>
      </trkpt>
      <trkpt lat="42.706445" lon="-8.645713">
        <ele>92.268</ele>
        <time>2018-08-25T16:53:32Z</time>
      </trkpt>
      <trkpt lat="42.706460" lon="-8.645786">
        <ele>91.874</ele>
        <time>2018-08-25T16:53:34Z</time>
      </trkpt>
      <trkpt lat="42.706484" lon="-8.645906">
        <ele>91.356</ele>
        <time>2018-08-25T16:53:35Z</time>
      </trkpt>
      <trkpt lat="42.706499" lon="-8.645964">
        <ele>90.721</ele>
        <time>2018-08-25T16:53:36Z</time>
      </trkpt>
      <trkpt lat="42.706529" lon="-8.646032">
        <ele>89.708</ele>
        <time>2018-08-25T16:53:37Z</time>
      </trkpt>
      <trkpt lat="42.706551" lon="-8.646108">
        <ele>88.739</ele>
        <time>2018-08-25T16:53:38Z</time>
      </trkpt>
      <trkpt lat="42.706574" lon="-8.646190">
        <ele>87.765</ele>
        <time>2018-08-25T16:53:39Z</time>
      </trkpt>
      <trkpt lat="42.706601" lon="-8.646267">
        <ele>86.360</ele>
        <time>2018-08-25T16:53:40Z</time>
      </trkpt>
      <trkpt lat="42.706622" lon="-8.646337">
        <ele>84.914</ele>
        <time>2018-08-25T16:53:41Z</time>
      </trkpt>
      <trkpt lat="42.706635" lon="-8.646399">
        <ele>84.051</ele>
        <time>2018-08-25T16:53:42Z</time>
      </trkpt>
      <trkpt lat="42.706647" lon="-8.646458">
        <ele>83.529</ele>
        <time>2018-08-25T16:53:43Z</time>
      </trkpt>
      <trkpt lat="42.706658" lon="-8.646520">
        <ele>83.377</ele>
        <time>2018-08-25T16:53:44Z</time>
      </trkpt>
      <trkpt lat="42.706670" lon="-8.646586">
        <ele>83.017</ele>
        <time>2018-08-25T16:53:45Z</time>
      </trkpt>
      <trkpt lat="42.706685" lon="-8.646652">
        <ele>82.726</ele>
        <time>2018-08-25T16:53:46Z</time>
      </trkpt>
      <trkpt lat="42.706708" lon="-8.646731">
        <ele>82.747</ele>
        <time>2018-08-25T16:53:47Z</time>
      </trkpt>
      <trkpt lat="42.706721" lon="-8.646819">
        <ele>83.311</ele>
        <time>2018-08-25T16:53:48Z</time>
      </trkpt>
      <trkpt lat="42.706728" lon="-8.646904">
        <ele>83.508</ele>
        <time>2018-08-25T16:53:49Z</time>
      </trkpt>
      <trkpt lat="42.706733" lon="-8.646989">
        <ele>83.724</ele>
        <time>2018-08-25T16:53:50Z</time>
      </trkpt>
      <trkpt lat="42.706736" lon="-8.647072">
        <ele>83.960</ele>
        <time>2018-08-25T16:53:51Z</time>
      </trkpt>
      <trkpt lat="42.706741" lon="-8.647161">
        <ele>84.265</ele>
        <time>2018-08-25T16:53:52Z</time>
      </trkpt>
      <trkpt lat="42.706737" lon="-8.647245">
        <ele>84.819</ele>
        <time>2018-08-25T16:53:53Z</time>
      </trkpt>
      <trkpt lat="42.706734" lon="-8.647317">
        <ele>85.586</ele>
        <time>2018-08-25T16:53:54Z</time>
      </trkpt>
      <trkpt lat="42.706727" lon="-8.647380">
        <ele>86.214</ele>
        <time>2018-08-25T16:53:56Z</time>
      </trkpt>
      <trkpt lat="42.706745" lon="-8.647437">
        <ele>86.462</ele>
        <time>2018-08-25T16:53:59Z</time>
      </trkpt>
      <trkpt lat="42.706804" lon="-8.647460">
        <ele>86.762</ele>
        <time>2018-08-25T16:54:02Z</time>
      </trkpt>
      <trkpt lat="42.706871" lon="-8.647459">
        <ele>87.115</ele>
        <time>2018-08-25T16:54:05Z</time>
      </trkpt>
      <trkpt lat="42.706938" lon="-8.647464">
        <ele>87.865</ele>
        <time>2018-08-25T16:54:08Z</time>
      </trkpt>
      <trkpt lat="42.706988" lon="-8.647470">
        <ele>88.411</ele>
        <time>2018-08-25T16:54:10Z</time>
      </trkpt>
      <trkpt lat="42.707043" lon="-8.647470">
        <ele>88.708</ele>
        <time>2018-08-25T16:54:12Z</time>
      </trkpt>
      <trkpt lat="42.707101" lon="-8.647472">
        <ele>88.723</ele>
        <time>2018-08-25T16:54:14Z</time>
      </trkpt>
      <trkpt lat="42.707158" lon="-8.647473">
        <ele>88.899</ele>
        <time>2018-08-25T16:54:16Z</time>
      </trkpt>
      <trkpt lat="42.707219" lon="-8.647476">
        <ele>88.784</ele>
        <time>2018-08-25T16:54:18Z</time>
      </trkpt>
      <trkpt lat="42.707277" lon="-8.647496">
        <ele>88.168</ele>
        <time>2018-08-25T16:54:20Z</time>
      </trkpt>
      <trkpt lat="42.707324" lon="-8.647534">
        <ele>87.955</ele>
        <time>2018-08-25T16:54:22Z</time>
      </trkpt>
      <trkpt lat="42.707374" lon="-8.647553">
        <ele>87.793</ele>
        <time>2018-08-25T16:54:24Z</time>
      </trkpt>
      <trkpt lat="42.707439" lon="-8.647558">
        <ele>87.621</ele>
        <time>2018-08-25T16:54:27Z</time>
      </trkpt>
      <trkpt lat="42.707500" lon="-8.647542">
        <ele>87.781</ele>
        <time>2018-08-25T16:54:30Z</time>
      </trkpt>
      <trkpt lat="42.707557" lon="-8.647525">
        <ele>87.711</ele>
        <time>2018-08-25T16:54:33Z</time>
      </trkpt>
      <trkpt lat="42.707604" lon="-8.647514">
        <ele>87.721</ele>
        <time>2018-08-25T16:54:36Z</time>
      </trkpt>
      <trkpt lat="42.707650" lon="-8.647506">
        <ele>87.603</ele>
        <time>2018-08-25T16:54:39Z</time>
      </trkpt>
      <trkpt lat="42.707714" lon="-8.647490">
        <ele>87.508</ele>
        <time>2018-08-25T16:54:42Z</time>
      </trkpt>
      <trkpt lat="42.707766" lon="-8.647478">
        <ele>87.563</ele>
        <time>2018-08-25T16:54:44Z</time>
      </trkpt>
      <trkpt lat="42.707818" lon="-8.647465">
        <ele>87.519</ele>
        <time>2018-08-25T16:54:46Z</time>
      </trkpt>
      <trkpt lat="42.707866" lon="-8.647451">
        <ele>87.434</ele>
        <time>2018-08-25T16:54:48Z</time>
      </trkpt>
      <trkpt lat="42.707929" lon="-8.647433">
        <ele>87.398</ele>
        <time>2018-08-25T16:54:51Z</time>
      </trkpt>
      <trkpt lat="42.707984" lon="-8.647411">
        <ele>87.135</ele>
        <time>2018-08-25T16:54:54Z</time>
      </trkpt>
      <trkpt lat="42.708051" lon="-8.647394">
        <ele>86.953</ele>
        <time>2018-08-25T16:54:57Z</time>
      </trkpt>
      <trkpt lat="42.708109" lon="-8.647376">
        <ele>86.861</ele>
        <time>2018-08-25T16:54:59Z</time>
      </trkpt>
      <trkpt lat="42.708169" lon="-8.647359">
        <ele>86.841</ele>
        <time>2018-08-25T16:55:01Z</time>
      </trkpt>
      <trkpt lat="42.708232" lon="-8.647342">
        <ele>86.857</ele>
        <time>2018-08-25T16:55:03Z</time>
      </trkpt>
      <trkpt lat="42.708296" lon="-8.647314">
        <ele>86.800</ele>
        <time>2018-08-25T16:55:05Z</time>
      </trkpt>
      <trkpt lat="42.708408" lon="-8.647270">
        <ele>86.720</ele>
        <time>2018-08-25T16:55:07Z</time>
      </trkpt>
      <trkpt lat="42.708466" lon="-8.647252">
        <ele>86.608</ele>
        <time>2018-08-25T16:55:09Z</time>
      </trkpt>
      <trkpt lat="42.708517" lon="-8.647244">
        <ele>86.647</ele>
        <time>2018-08-25T16:55:11Z</time>
      </trkpt>
      <trkpt lat="42.708574" lon="-8.647237">
        <ele>86.693</ele>
        <time>2018-08-25T16:55:13Z</time>
      </trkpt>
      <trkpt lat="42.708634" lon="-8.647233">
        <ele>86.528</ele>
        <time>2018-08-25T16:55:15Z</time>
      </trkpt>
      <trkpt lat="42.708696" lon="-8.647215">
        <ele>86.492</ele>
        <time>2018-08-25T16:55:17Z</time>
      </trkpt>
      <trkpt lat="42.708754" lon="-8.647187">
        <ele>86.129</ele>
        <time>2018-08-25T16:55:19Z</time>
      </trkpt>
      <trkpt lat="42.708815" lon="-8.647168">
        <ele>86.157</ele>
        <time>2018-08-25T16:55:21Z</time>
      </trkpt>
      <trkpt lat="42.708876" lon="-8.647150">
        <ele>86.185</ele>
        <time>2018-08-25T16:55:23Z</time>
      </trkpt>
      <trkpt lat="42.708937" lon="-8.647131">
        <ele>86.395</ele>
        <time>2018-08-25T16:55:25Z</time>
      </trkpt>
      <trkpt lat="42.709000" lon="-8.647116">
        <ele>86.571</ele>
        <time>2018-08-25T16:55:27Z</time>
      </trkpt>
      <trkpt lat="42.709058" lon="-8.647102">
        <ele>86.741</ele>
        <time>2018-08-25T16:55:29Z</time>
      </trkpt>
      <trkpt lat="42.709111" lon="-8.647090">
        <ele>87.315</ele>
        <time>2018-08-25T16:55:31Z</time>
      </trkpt>
      <trkpt lat="42.709165" lon="-8.647087">
        <ele>87.808</ele>
        <time>2018-08-25T16:55:33Z</time>
      </trkpt>
      <trkpt lat="42.709225" lon="-8.647097">
        <ele>88.329</ele>
        <time>2018-08-25T16:55:35Z</time>
      </trkpt>
      <trkpt lat="42.709290" lon="-8.647120">
        <ele>88.595</ele>
        <time>2018-08-25T16:55:37Z</time>
      </trkpt>
      <trkpt lat="42.709356" lon="-8.647149">
        <ele>88.720</ele>
        <time>2018-08-25T16:55:39Z</time>
      </trkpt>
      <trkpt lat="42.709418" lon="-8.647178">
        <ele>88.834</ele>
        <time>2018-08-25T16:55:41Z</time>
      </trkpt>
      <trkpt lat="42.709476" lon="-8.647199">
        <ele>89.091</ele>
        <time>2018-08-25T16:55:43Z</time>
      </trkpt>
      <trkpt lat="42.709535" lon="-8.647218">
        <ele>89.129</ele>
        <time>2018-08-25T16:55:45Z</time>
      </trkpt>
      <trkpt lat="42.709592" lon="-8.647237">
        <ele>89.197</ele>
        <time>2018-08-25T16:55:47Z</time>
      </trkpt>
      <trkpt lat="42.709655" lon="-8.647251">
        <ele>89.297</ele>
        <time>2018-08-25T16:55:49Z</time>
      </trkpt>
      <trkpt lat="42.709726" lon="-8.647253">
        <ele>89.221</ele>
        <time>2018-08-25T16:55:51Z</time>
      </trkpt>
      <trkpt lat="42.709815" lon="-8.647252">
        <ele>89.241</ele>
        <time>2018-08-25T16:55:52Z</time>
      </trkpt>
      <trkpt lat="42.709892" lon="-8.647251">
        <ele>89.005</ele>
        <time>2018-08-25T16:55:54Z</time>
      </trkpt>
      <trkpt lat="42.709960" lon="-8.647253">
        <ele>88.608</ele>
        <time>2018-08-25T16:55:57Z</time>
      </trkpt>
      <trkpt lat="42.710020" lon="-8.647261">
        <ele>88.364</ele>
        <time>2018-08-25T16:55:59Z</time>
      </trkpt>
      <trkpt lat="42.710092" lon="-8.647273">
        <ele>88.040</ele>
        <time>2018-08-25T16:56:01Z</time>
      </trkpt>
      <trkpt lat="42.710169" lon="-8.647279">
        <ele>87.745</ele>
        <time>2018-08-25T16:56:03Z</time>
      </trkpt>
      <trkpt lat="42.710244" lon="-8.647273">
        <ele>87.469</ele>
        <time>2018-08-25T16:56:05Z</time>
      </trkpt>
      <trkpt lat="42.710312" lon="-8.647263">
        <ele>87.296</ele>
        <time>2018-08-25T16:56:07Z</time>
      </trkpt>
      <trkpt lat="42.710381" lon="-8.647247">
        <ele>87.084</ele>
        <time>2018-08-25T16:56:09Z</time>
      </trkpt>
      <trkpt lat="42.710454" lon="-8.647232">
        <ele>86.842</ele>
        <time>2018-08-25T16:56:11Z</time>
      </trkpt>
      <trkpt lat="42.710526" lon="-8.647217">
        <ele>86.662</ele>
        <time>2018-08-25T16:56:13Z</time>
      </trkpt>
      <trkpt lat="42.710597" lon="-8.647195">
        <ele>86.623</ele>
        <time>2018-08-25T16:56:15Z</time>
      </trkpt>
      <trkpt lat="42.710667" lon="-8.647177">
        <ele>86.683</ele>
        <time>2018-08-25T16:56:17Z</time>
      </trkpt>
      <trkpt lat="42.710792" lon="-8.647159">
        <ele>86.511</ele>
        <time>2018-08-25T16:56:19Z</time>
      </trkpt>
      <trkpt lat="42.710853" lon="-8.647156">
        <ele>86.408</ele>
        <time>2018-08-25T16:56:21Z</time>
      </trkpt>
      <trkpt lat="42.710907" lon="-8.647148">
        <ele>86.334</ele>
        <time>2018-08-25T16:56:23Z</time>
      </trkpt>
      <trkpt lat="42.710968" lon="-8.647134">
        <ele>86.050</ele>
        <time>2018-08-25T16:56:25Z</time>
      </trkpt>
      <trkpt lat="42.711028" lon="-8.647120">
        <ele>85.685</ele>
        <time>2018-08-25T16:56:27Z</time>
      </trkpt>
      <trkpt lat="42.711087" lon="-8.647105">
        <ele>85.119</ele>
        <time>2018-08-25T16:56:29Z</time>
      </trkpt>
      <trkpt lat="42.711140" lon="-8.647090">
        <ele>84.466</ele>
        <time>2018-08-25T16:56:31Z</time>
      </trkpt>
      <trkpt lat="42.711190" lon="-8.647088">
        <ele>83.524</ele>
        <time>2018-08-25T16:56:33Z</time>
      </trkpt>
      <trkpt lat="42.711253" lon="-8.647088">
        <ele>83.112</ele>
        <time>2018-08-25T16:56:36Z</time>
      </trkpt>
      <trkpt lat="42.711307" lon="-8.647077">
        <ele>82.822</ele>
        <time>2018-08-25T16:56:39Z</time>
      </trkpt>
      <trkpt lat="42.711356" lon="-8.647066">
        <ele>83.039</ele>
        <time>2018-08-25T16:56:41Z</time>
      </trkpt>
      <trkpt lat="42.711404" lon="-8.647061">
        <ele>83.101</ele>
        <time>2018-08-25T16:56:43Z</time>
      </trkpt>
      <trkpt lat="42.711457" lon="-8.647062">
        <ele>83.021</ele>
        <time>2018-08-25T16:56:45Z</time>
      </trkpt>
      <trkpt lat="42.711519" lon="-8.647062">
        <ele>82.908</ele>
        <time>2018-08-25T16:56:47Z</time>
      </trkpt>
      <trkpt lat="42.711583" lon="-8.647059">
        <ele>82.865</ele>
        <time>2018-08-25T16:56:49Z</time>
      </trkpt>
      <trkpt lat="42.711644" lon="-8.647054">
        <ele>82.411</ele>
        <time>2018-08-25T16:56:51Z</time>
      </trkpt>
      <trkpt lat="42.711707" lon="-8.647048">
        <ele>82.246</ele>
        <time>2018-08-25T16:56:53Z</time>
      </trkpt>
      <trkpt lat="42.711773" lon="-8.647042">
        <ele>81.990</ele>
        <time>2018-08-25T16:56:55Z</time>
      </trkpt>
      <trkpt lat="42.711840" lon="-8.647050">
        <ele>81.767</ele>
        <time>2018-08-25T16:56:57Z</time>
      </trkpt>
      <trkpt lat="42.711926" lon="-8.647066">
        <ele>81.595</ele>
        <time>2018-08-25T16:56:58Z</time>
      </trkpt>
      <trkpt lat="42.712008" lon="-8.647077">
        <ele>81.343</ele>
        <time>2018-08-25T16:57:00Z</time>
      </trkpt>
      <trkpt lat="42.712093" lon="-8.647088">
        <ele>81.013</ele>
        <time>2018-08-25T16:57:02Z</time>
      </trkpt>
      <trkpt lat="42.712180" lon="-8.647104">
        <ele>80.829</ele>
        <time>2018-08-25T16:57:04Z</time>
      </trkpt>
      <trkpt lat="42.712227" lon="-8.647111">
        <ele>80.700</ele>
        <time>2018-08-25T16:57:05Z</time>
      </trkpt>
      <trkpt lat="42.712311" lon="-8.647123">
        <ele>80.720</ele>
        <time>2018-08-25T16:57:07Z</time>
      </trkpt>
      <trkpt lat="42.712371" lon="-8.647136">
        <ele>80.908</ele>
        <time>2018-08-25T16:57:09Z</time>
      </trkpt>
      <trkpt lat="42.712423" lon="-8.647140">
        <ele>81.164</ele>
        <time>2018-08-25T16:57:11Z</time>
      </trkpt>
      <trkpt lat="42.712485" lon="-8.647142">
        <ele>81.330</ele>
        <time>2018-08-25T16:57:13Z</time>
      </trkpt>
      <trkpt lat="42.712551" lon="-8.647147">
        <ele>81.585</ele>
        <time>2018-08-25T16:57:15Z</time>
      </trkpt>
      <trkpt lat="42.712618" lon="-8.647156">
        <ele>81.739</ele>
        <time>2018-08-25T16:57:17Z</time>
      </trkpt>
      <trkpt lat="42.712700" lon="-8.647171">
        <ele>81.896</ele>
        <time>2018-08-25T16:57:18Z</time>
      </trkpt>
      <trkpt lat="42.712776" lon="-8.647190">
        <ele>81.814</ele>
        <time>2018-08-25T16:57:20Z</time>
      </trkpt>
      <trkpt lat="42.712855" lon="-8.647221">
        <ele>81.912</ele>
        <time>2018-08-25T16:57:22Z</time>
      </trkpt>
      <trkpt lat="42.712929" lon="-8.647258">
        <ele>82.072</ele>
        <time>2018-08-25T16:57:24Z</time>
      </trkpt>
      <trkpt lat="42.712982" lon="-8.647278">
        <ele>82.187</ele>
        <time>2018-08-25T16:57:26Z</time>
      </trkpt>
      <trkpt lat="42.713066" lon="-8.647284">
        <ele>82.342</ele>
        <time>2018-08-25T16:57:28Z</time>
      </trkpt>
      <trkpt lat="42.713131" lon="-8.647283">
        <ele>82.426</ele>
        <time>2018-08-25T16:57:31Z</time>
      </trkpt>
      <trkpt lat="42.713177" lon="-8.647305">
        <ele>82.408</ele>
        <time>2018-08-25T16:57:33Z</time>
      </trkpt>
      <trkpt lat="42.713232" lon="-8.647324">
        <ele>82.210</ele>
        <time>2018-08-25T16:57:35Z</time>
      </trkpt>
      <trkpt lat="42.713296" lon="-8.647340">
        <ele>82.326</ele>
        <time>2018-08-25T16:57:37Z</time>
      </trkpt>
      <trkpt lat="42.713415" lon="-8.647374">
        <ele>82.671</ele>
        <time>2018-08-25T16:57:39Z</time>
      </trkpt>
      <trkpt lat="42.713464" lon="-8.647407">
        <ele>82.875</ele>
        <time>2018-08-25T16:57:41Z</time>
      </trkpt>
      <trkpt lat="42.713508" lon="-8.647436">
        <ele>83.062</ele>
        <time>2018-08-25T16:57:43Z</time>
      </trkpt>
      <trkpt lat="42.713556" lon="-8.647472">
        <ele>83.280</ele>
        <time>2018-08-25T16:57:45Z</time>
      </trkpt>
      <trkpt lat="42.713610" lon="-8.647509">
        <ele>83.388</ele>
        <time>2018-08-25T16:57:47Z</time>
      </trkpt>
      <trkpt lat="42.713715" lon="-8.647564">
        <ele>83.478</ele>
        <time>2018-08-25T16:57:49Z</time>
      </trkpt>
      <trkpt lat="42.713777" lon="-8.647608">
        <ele>83.441</ele>
        <time>2018-08-25T16:57:52Z</time>
      </trkpt>
      <trkpt lat="42.713829" lon="-8.647637">
        <ele>83.481</ele>
        <time>2018-08-25T16:57:54Z</time>
      </trkpt>
      <trkpt lat="42.713884" lon="-8.647671">
        <ele>83.309</ele>
        <time>2018-08-25T16:57:56Z</time>
      </trkpt>
      <trkpt lat="42.713939" lon="-8.647711">
        <ele>83.308</ele>
        <time>2018-08-25T16:57:58Z</time>
      </trkpt>
      <trkpt lat="42.714001" lon="-8.647752">
        <ele>83.516</ele>
        <time>2018-08-25T16:58:00Z</time>
      </trkpt>
      <trkpt lat="42.714069" lon="-8.647782">
        <ele>83.792</ele>
        <time>2018-08-25T16:58:02Z</time>
      </trkpt>
      <trkpt lat="42.714133" lon="-8.647807">
        <ele>83.897</ele>
        <time>2018-08-25T16:58:04Z</time>
      </trkpt>
      <trkpt lat="42.714195" lon="-8.647839">
        <ele>84.161</ele>
        <time>2018-08-25T16:58:06Z</time>
      </trkpt>
      <trkpt lat="42.714307" lon="-8.647884">
        <ele>84.398</ele>
        <time>2018-08-25T16:58:08Z</time>
      </trkpt>
      <trkpt lat="42.714358" lon="-8.647916">
        <ele>84.616</ele>
        <time>2018-08-25T16:58:10Z</time>
      </trkpt>
      <trkpt lat="42.714407" lon="-8.647946">
        <ele>84.964</ele>
        <time>2018-08-25T16:58:11Z</time>
      </trkpt>
      <trkpt lat="42.714478" lon="-8.647978">
        <ele>85.184</ele>
        <time>2018-08-25T16:58:13Z</time>
      </trkpt>
      <trkpt lat="42.714552" lon="-8.648004">
        <ele>85.343</ele>
        <time>2018-08-25T16:58:15Z</time>
      </trkpt>
      <trkpt lat="42.714597" lon="-8.648020">
        <ele>85.564</ele>
        <time>2018-08-25T16:58:17Z</time>
      </trkpt>
      <trkpt lat="42.714658" lon="-8.648051">
        <ele>85.710</ele>
        <time>2018-08-25T16:58:18Z</time>
      </trkpt>
      <trkpt lat="42.714726" lon="-8.648083">
        <ele>85.808</ele>
        <time>2018-08-25T16:58:20Z</time>
      </trkpt>
      <trkpt lat="42.714780" lon="-8.648101">
        <ele>85.736</ele>
        <time>2018-08-25T16:58:22Z</time>
      </trkpt>
      <trkpt lat="42.714830" lon="-8.648117">
        <ele>85.732</ele>
        <time>2018-08-25T16:58:23Z</time>
      </trkpt>
      <trkpt lat="42.714893" lon="-8.648143">
        <ele>85.537</ele>
        <time>2018-08-25T16:58:26Z</time>
      </trkpt>
      <trkpt lat="42.714944" lon="-8.648158">
        <ele>85.461</ele>
        <time>2018-08-25T16:58:28Z</time>
      </trkpt>
      <trkpt lat="42.715005" lon="-8.648170">
        <ele>85.348</ele>
        <time>2018-08-25T16:58:30Z</time>
      </trkpt>
      <trkpt lat="42.715117" lon="-8.648190">
        <ele>85.256</ele>
        <time>2018-08-25T16:58:32Z</time>
      </trkpt>
      <trkpt lat="42.715179" lon="-8.648204">
        <ele>85.034</ele>
        <time>2018-08-25T16:58:35Z</time>
      </trkpt>
      <trkpt lat="42.715236" lon="-8.648215">
        <ele>85.064</ele>
        <time>2018-08-25T16:58:37Z</time>
      </trkpt>
      <trkpt lat="42.715313" lon="-8.648230">
        <ele>85.088</ele>
        <time>2018-08-25T16:58:38Z</time>
      </trkpt>
      <trkpt lat="42.715385" lon="-8.648242">
        <ele>85.224</ele>
        <time>2018-08-25T16:58:41Z</time>
      </trkpt>
      <trkpt lat="42.715439" lon="-8.648255">
        <ele>85.226</ele>
        <time>2018-08-25T16:58:43Z</time>
      </trkpt>
      <trkpt lat="42.715497" lon="-8.648276">
        <ele>85.108</ele>
        <time>2018-08-25T16:58:45Z</time>
      </trkpt>
      <trkpt lat="42.715621" lon="-8.648313">
        <ele>85.010</ele>
        <time>2018-08-25T16:58:47Z</time>
      </trkpt>
      <trkpt lat="42.715669" lon="-8.648324">
        <ele>85.036</ele>
        <time>2018-08-25T16:58:49Z</time>
      </trkpt>
      <trkpt lat="42.715733" lon="-8.648334">
        <ele>85.031</ele>
        <time>2018-08-25T16:58:51Z</time>
      </trkpt>
      <trkpt lat="42.715804" lon="-8.648345">
        <ele>84.815</ele>
        <time>2018-08-25T16:58:53Z</time>
      </trkpt>
      <trkpt lat="42.715875" lon="-8.648358">
        <ele>84.752</ele>
        <time>2018-08-25T16:58:55Z</time>
      </trkpt>
      <trkpt lat="42.715945" lon="-8.648375">
        <ele>84.630</ele>
        <time>2018-08-25T16:58:57Z</time>
      </trkpt>
      <trkpt lat="42.716014" lon="-8.648398">
        <ele>84.428</ele>
        <time>2018-08-25T16:58:59Z</time>
      </trkpt>
      <trkpt lat="42.716095" lon="-8.648421">
        <ele>84.238</ele>
        <time>2018-08-25T16:59:00Z</time>
      </trkpt>
      <trkpt lat="42.716172" lon="-8.648430">
        <ele>84.242</ele>
        <time>2018-08-25T16:59:02Z</time>
      </trkpt>
      <trkpt lat="42.716241" lon="-8.648440">
        <ele>84.122</ele>
        <time>2018-08-25T16:59:05Z</time>
      </trkpt>
      <trkpt lat="42.716298" lon="-8.648448">
        <ele>84.114</ele>
        <time>2018-08-25T16:59:07Z</time>
      </trkpt>
      <trkpt lat="42.716356" lon="-8.648461">
        <ele>84.108</ele>
        <time>2018-08-25T16:59:09Z</time>
      </trkpt>
      <trkpt lat="42.716420" lon="-8.648476">
        <ele>84.386</ele>
        <time>2018-08-25T16:59:11Z</time>
      </trkpt>
      <trkpt lat="42.716498" lon="-8.648491">
        <ele>84.512</ele>
        <time>2018-08-25T16:59:12Z</time>
      </trkpt>
      <trkpt lat="42.716569" lon="-8.648511">
        <ele>84.717</ele>
        <time>2018-08-25T16:59:14Z</time>
      </trkpt>
      <trkpt lat="42.716636" lon="-8.648536">
        <ele>84.611</ele>
        <time>2018-08-25T16:59:16Z</time>
      </trkpt>
      <trkpt lat="42.716704" lon="-8.648569">
        <ele>84.368</ele>
        <time>2018-08-25T16:59:18Z</time>
      </trkpt>
      <trkpt lat="42.716760" lon="-8.648579">
        <ele>84.196</ele>
        <time>2018-08-25T16:59:20Z</time>
      </trkpt>
      <trkpt lat="42.716807" lon="-8.648590">
        <ele>83.954</ele>
        <time>2018-08-25T16:59:22Z</time>
      </trkpt>
      <trkpt lat="42.716918" lon="-8.648597">
        <ele>83.964</ele>
        <time>2018-08-25T16:59:24Z</time>
      </trkpt>
      <trkpt lat="42.716964" lon="-8.648596">
        <ele>83.875</ele>
        <time>2018-08-25T16:59:25Z</time>
      </trkpt>
      <trkpt lat="42.717047" lon="-8.648584">
        <ele>83.728</ele>
        <time>2018-08-25T16:59:27Z</time>
      </trkpt>
      <trkpt lat="42.717128" lon="-8.648561">
        <ele>83.720</ele>
        <time>2018-08-25T16:59:29Z</time>
      </trkpt>
      <trkpt lat="42.717173" lon="-8.648553">
        <ele>83.808</ele>
        <time>2018-08-25T16:59:31Z</time>
      </trkpt>
      <trkpt lat="42.717234" lon="-8.648554">
        <ele>83.969</ele>
        <time>2018-08-25T16:59:32Z</time>
      </trkpt>
      <trkpt lat="42.717307" lon="-8.648543">
        <ele>84.095</ele>
        <time>2018-08-25T16:59:34Z</time>
      </trkpt>
      <trkpt lat="42.717382" lon="-8.648557">
        <ele>84.240</ele>
        <time>2018-08-25T16:59:36Z</time>
      </trkpt>
      <trkpt lat="42.717464" lon="-8.648569">
        <ele>84.314</ele>
        <time>2018-08-25T16:59:38Z</time>
      </trkpt>
      <trkpt lat="42.717542" lon="-8.648562">
        <ele>84.491</ele>
        <time>2018-08-25T16:59:40Z</time>
      </trkpt>
      <trkpt lat="42.717624" lon="-8.648557">
        <ele>84.619</ele>
        <time>2018-08-25T16:59:42Z</time>
      </trkpt>
      <trkpt lat="42.717682" lon="-8.648556">
        <ele>84.837</ele>
        <time>2018-08-25T16:59:44Z</time>
      </trkpt>
      <trkpt lat="42.717736" lon="-8.648565">
        <ele>84.947</ele>
        <time>2018-08-25T16:59:45Z</time>
      </trkpt>
      <trkpt lat="42.717791" lon="-8.648582">
        <ele>85.257</ele>
        <time>2018-08-25T16:59:47Z</time>
      </trkpt>
      <trkpt lat="42.717874" lon="-8.648616">
        <ele>85.500</ele>
        <time>2018-08-25T16:59:49Z</time>
      </trkpt>
      <trkpt lat="42.717927" lon="-8.648641">
        <ele>85.820</ele>
        <time>2018-08-25T16:59:51Z</time>
      </trkpt>
      <trkpt lat="42.717971" lon="-8.648667">
        <ele>86.008</ele>
        <time>2018-08-25T16:59:53Z</time>
      </trkpt>
      <trkpt lat="42.718022" lon="-8.648692">
        <ele>86.087</ele>
        <time>2018-08-25T16:59:55Z</time>
      </trkpt>
      <trkpt lat="42.718078" lon="-8.648718">
        <ele>85.993</ele>
        <time>2018-08-25T16:59:57Z</time>
      </trkpt>
      <trkpt lat="42.718134" lon="-8.648744">
        <ele>85.958</ele>
        <time>2018-08-25T16:59:59Z</time>
      </trkpt>
      <trkpt lat="42.718185" lon="-8.648759">
        <ele>85.772</ele>
        <time>2018-08-25T17:00:01Z</time>
      </trkpt>
      <trkpt lat="42.718230" lon="-8.648774">
        <ele>85.799</ele>
        <time>2018-08-25T17:00:03Z</time>
      </trkpt>
      <trkpt lat="42.718295" lon="-8.648809">
        <ele>85.367</ele>
        <time>2018-08-25T17:00:06Z</time>
      </trkpt>
      <trkpt lat="42.718378" lon="-8.648904">
        <ele>84.285</ele>
        <time>2018-08-25T17:00:08Z</time>
      </trkpt>
      <trkpt lat="42.718413" lon="-8.648961">
        <ele>83.375</ele>
        <time>2018-08-25T17:00:10Z</time>
      </trkpt>
      <trkpt lat="42.718451" lon="-8.649038">
        <ele>82.012</ele>
        <time>2018-08-25T17:00:13Z</time>
      </trkpt>
      <trkpt lat="42.718504" lon="-8.649103">
        <ele>80.732</ele>
        <time>2018-08-25T17:00:14Z</time>
      </trkpt>
      <trkpt lat="42.718585" lon="-8.649139">
        <ele>79.405</ele>
        <time>2018-08-25T17:00:16Z</time>
      </trkpt>
      <trkpt lat="42.718671" lon="-8.649115">
        <ele>78.108</ele>
        <time>2018-08-25T17:00:18Z</time>
      </trkpt>
      <trkpt lat="42.718753" lon="-8.649098">
        <ele>76.813</ele>
        <time>2018-08-25T17:00:20Z</time>
      </trkpt>
      <trkpt lat="42.718798" lon="-8.649114">
        <ele>75.859</ele>
        <time>2018-08-25T17:00:21Z</time>
      </trkpt>
      <trkpt lat="42.718844" lon="-8.649143">
        <ele>74.594</ele>
        <time>2018-08-25T17:00:23Z</time>
      </trkpt>
      <trkpt lat="42.718890" lon="-8.649157">
        <ele>73.788</ele>
        <time>2018-08-25T17:00:25Z</time>
      </trkpt>
      <trkpt lat="42.718937" lon="-8.649162">
        <ele>73.525</ele>
        <time>2018-08-25T17:00:29Z</time>
      </trkpt>
      <trkpt lat="42.719000" lon="-8.649146">
        <ele>74.063</ele>
        <time>2018-08-25T17:00:33Z</time>
      </trkpt>
      <trkpt lat="42.719057" lon="-8.649152">
        <ele>74.361</ele>
        <time>2018-08-25T17:00:35Z</time>
      </trkpt>
      <trkpt lat="42.719112" lon="-8.649141">
        <ele>74.731</ele>
        <time>2018-08-25T17:00:37Z</time>
      </trkpt>
      <trkpt lat="42.719175" lon="-8.649117">
        <ele>75.281</ele>
        <time>2018-08-25T17:00:39Z</time>
      </trkpt>
      <trkpt lat="42.719239" lon="-8.649098">
        <ele>75.861</ele>
        <time>2018-08-25T17:00:41Z</time>
      </trkpt>
      <trkpt lat="42.719298" lon="-8.649081">
        <ele>76.617</ele>
        <time>2018-08-25T17:00:43Z</time>
      </trkpt>
      <trkpt lat="42.719351" lon="-8.649061">
        <ele>77.608</ele>
        <time>2018-08-25T17:00:45Z</time>
      </trkpt>
      <trkpt lat="42.719402" lon="-8.649038">
        <ele>78.730</ele>
        <time>2018-08-25T17:00:47Z</time>
      </trkpt>
      <trkpt lat="42.719448" lon="-8.649013">
        <ele>79.596</ele>
        <time>2018-08-25T17:00:49Z</time>
      </trkpt>
      <trkpt lat="42.719496" lon="-8.648980">
        <ele>80.191</ele>
        <time>2018-08-25T17:00:51Z</time>
      </trkpt>
      <trkpt lat="42.719546" lon="-8.648950">
        <ele>80.365</ele>
        <time>2018-08-25T17:00:53Z</time>
      </trkpt>
      <trkpt lat="42.719593" lon="-8.648942">
        <ele>80.372</ele>
        <time>2018-08-25T17:00:55Z</time>
      </trkpt>
      <trkpt lat="42.719637" lon="-8.648956">
        <ele>80.410</ele>
        <time>2018-08-25T17:00:57Z</time>
      </trkpt>
      <trkpt lat="42.719684" lon="-8.648993">
        <ele>80.548</ele>
        <time>2018-08-25T17:01:00Z</time>
      </trkpt>
      <trkpt lat="42.719716" lon="-8.649072">
        <ele>80.328</ele>
        <time>2018-08-25T17:01:03Z</time>
      </trkpt>
      <trkpt lat="42.719737" lon="-8.649131">
        <ele>80.358</ele>
        <time>2018-08-25T17:01:05Z</time>
      </trkpt>
      <trkpt lat="42.719757" lon="-8.649188">
        <ele>80.452</ele>
        <time>2018-08-25T17:01:07Z</time>
      </trkpt>
      <trkpt lat="42.719780" lon="-8.649271">
        <ele>81.017</ele>
        <time>2018-08-25T17:01:10Z</time>
      </trkpt>
      <trkpt lat="42.719796" lon="-8.649329">
        <ele>81.508</ele>
        <time>2018-08-25T17:01:12Z</time>
      </trkpt>
      <trkpt lat="42.719817" lon="-8.649384">
        <ele>81.947</ele>
        <time>2018-08-25T17:01:14Z</time>
      </trkpt>
      <trkpt lat="42.719845" lon="-8.649435">
        <ele>82.273</ele>
        <time>2018-08-25T17:01:16Z</time>
      </trkpt>
      <trkpt lat="42.719892" lon="-8.649497">
        <ele>82.858</ele>
        <time>2018-08-25T17:01:19Z</time>
      </trkpt>
      <trkpt lat="42.719945" lon="-8.649535">
        <ele>83.022</ele>
        <time>2018-08-25T17:01:22Z</time>
      </trkpt>
      <trkpt lat="42.719999" lon="-8.649547">
        <ele>83.159</ele>
        <time>2018-08-25T17:01:25Z</time>
      </trkpt>
      <trkpt lat="42.720045" lon="-8.649543">
        <ele>83.227</ele>
        <time>2018-08-25T17:01:28Z</time>
      </trkpt>
      <trkpt lat="42.720091" lon="-8.649532">
        <ele>83.465</ele>
        <time>2018-08-25T17:01:31Z</time>
      </trkpt>
      <trkpt lat="42.720142" lon="-8.649511">
        <ele>83.715</ele>
        <time>2018-08-25T17:01:34Z</time>
      </trkpt>
      <trkpt lat="42.720194" lon="-8.649522">
        <ele>82.076</ele>
        <time>2018-08-25T17:01:37Z</time>
      </trkpt>
      <trkpt lat="42.720236" lon="-8.649551">
        <ele>80.990</ele>
        <time>2018-08-25T17:01:40Z</time>
      </trkpt>
      <trkpt lat="42.720268" lon="-8.649614">
        <ele>79.119</ele>
        <time>2018-08-25T17:01:44Z</time>
      </trkpt>
      <trkpt lat="42.720294" lon="-8.649665">
        <ele>77.508</ele>
        <time>2018-08-25T17:01:47Z</time>
      </trkpt>
      <trkpt lat="42.720328" lon="-8.649713">
        <ele>76.519</ele>
        <time>2018-08-25T17:01:50Z</time>
      </trkpt>
      <trkpt lat="42.720368" lon="-8.649759">
        <ele>76.595</ele>
        <time>2018-08-25T17:01:53Z</time>
      </trkpt>
      <trkpt lat="42.720410" lon="-8.649800">
        <ele>76.120</ele>
        <time>2018-08-25T17:01:56Z</time>
      </trkpt>
      <trkpt lat="42.720452" lon="-8.649841">
        <ele>75.524</ele>
        <time>2018-08-25T17:01:59Z</time>
      </trkpt>
      <trkpt lat="42.720505" lon="-8.649891">
        <ele>75.381</ele>
        <time>2018-08-25T17:02:02Z</time>
      </trkpt>
      <trkpt lat="42.720544" lon="-8.649932">
        <ele>75.369</ele>
        <time>2018-08-25T17:02:04Z</time>
      </trkpt>
      <trkpt lat="42.720589" lon="-8.649977">
        <ele>75.797</ele>
        <time>2018-08-25T17:02:06Z</time>
      </trkpt>
      <trkpt lat="42.720633" lon="-8.650024">
        <ele>76.347</ele>
        <time>2018-08-25T17:02:08Z</time>
      </trkpt>
      <trkpt lat="42.720676" lon="-8.650067">
        <ele>76.935</ele>
        <time>2018-08-25T17:02:10Z</time>
      </trkpt>
      <trkpt lat="42.720719" lon="-8.650101">
        <ele>77.286</ele>
        <time>2018-08-25T17:02:12Z</time>
      </trkpt>
      <trkpt lat="42.720762" lon="-8.650132">
        <ele>77.314</ele>
        <time>2018-08-25T17:02:14Z</time>
      </trkpt>
      <trkpt lat="42.720819" lon="-8.650166">
        <ele>77.408</ele>
        <time>2018-08-25T17:02:16Z</time>
      </trkpt>
      <trkpt lat="42.720904" lon="-8.650195">
        <ele>77.565</ele>
        <time>2018-08-25T17:02:17Z</time>
      </trkpt>
      <trkpt lat="42.720977" lon="-8.650190">
        <ele>77.811</ele>
        <time>2018-08-25T17:02:19Z</time>
      </trkpt>
      <trkpt lat="42.721079" lon="-8.650166">
        <ele>78.466</ele>
        <time>2018-08-25T17:02:22Z</time>
      </trkpt>
      <trkpt lat="42.721146" lon="-8.650140">
        <ele>79.130</ele>
        <time>2018-08-25T17:02:25Z</time>
      </trkpt>
      <trkpt lat="42.721188" lon="-8.650110">
        <ele>79.797</ele>
        <time>2018-08-25T17:02:27Z</time>
      </trkpt>
      <trkpt lat="42.721244" lon="-8.650056">
        <ele>80.695</ele>
        <time>2018-08-25T17:02:30Z</time>
      </trkpt>
      <trkpt lat="42.721284" lon="-8.650022">
        <ele>81.213</ele>
        <time>2018-08-25T17:02:32Z</time>
      </trkpt>
      <trkpt lat="42.721327" lon="-8.649994">
        <ele>81.823</ele>
        <time>2018-08-25T17:02:34Z</time>
      </trkpt>
      <trkpt lat="42.721372" lon="-8.649970">
        <ele>82.531</ele>
        <time>2018-08-25T17:02:36Z</time>
      </trkpt>
      <trkpt lat="42.721417" lon="-8.649949">
        <ele>83.361</ele>
        <time>2018-08-25T17:02:38Z</time>
      </trkpt>
      <trkpt lat="42.721465" lon="-8.649928">
        <ele>84.107</ele>
        <time>2018-08-25T17:02:40Z</time>
      </trkpt>
      <trkpt lat="42.721515" lon="-8.649907">
        <ele>84.708</ele>
        <time>2018-08-25T17:02:42Z</time>
      </trkpt>
      <trkpt lat="42.721566" lon="-8.649894">
        <ele>85.095</ele>
        <time>2018-08-25T17:02:44Z</time>
      </trkpt>
      <trkpt lat="42.721624" lon="-8.649876">
        <ele>85.171</ele>
        <time>2018-08-25T17:02:46Z</time>
      </trkpt>
      <trkpt lat="42.721694" lon="-8.649849">
        <ele>85.536</ele>
        <time>2018-08-25T17:02:48Z</time>
      </trkpt>
      <trkpt lat="42.721766" lon="-8.649827">
        <ele>86.190</ele>
        <time>2018-08-25T17:02:50Z</time>
      </trkpt>
      <trkpt lat="42.721833" lon="-8.649807">
        <ele>86.877</ele>
        <time>2018-08-25T17:02:52Z</time>
      </trkpt>
      <trkpt lat="42.721893" lon="-8.649797">
        <ele>87.375</ele>
        <time>2018-08-25T17:02:54Z</time>
      </trkpt>
      <trkpt lat="42.721949" lon="-8.649796">
        <ele>87.863</ele>
        <time>2018-08-25T17:02:56Z</time>
      </trkpt>
      <trkpt lat="42.721998" lon="-8.649773">
        <ele>88.043</ele>
        <time>2018-08-25T17:02:58Z</time>
      </trkpt>
      <trkpt lat="42.722052" lon="-8.649745">
        <ele>88.135</ele>
        <time>2018-08-25T17:03:00Z</time>
      </trkpt>
      <trkpt lat="42.722106" lon="-8.649749">
        <ele>88.186</ele>
        <time>2018-08-25T17:03:02Z</time>
      </trkpt>
      <trkpt lat="42.722152" lon="-8.649778">
        <ele>87.814</ele>
        <time>2018-08-25T17:03:04Z</time>
      </trkpt>
      <trkpt lat="42.722203" lon="-8.649814">
        <ele>87.308</ele>
        <time>2018-08-25T17:03:06Z</time>
      </trkpt>
      <trkpt lat="42.722255" lon="-8.649853">
        <ele>86.785</ele>
        <time>2018-08-25T17:03:08Z</time>
      </trkpt>
      <trkpt lat="42.722305" lon="-8.649885">
        <ele>86.161</ele>
        <time>2018-08-25T17:03:10Z</time>
      </trkpt>
      <trkpt lat="42.722353" lon="-8.649917">
        <ele>85.696</ele>
        <time>2018-08-25T17:03:12Z</time>
      </trkpt>
      <trkpt lat="42.722400" lon="-8.649950">
        <ele>85.090</ele>
        <time>2018-08-25T17:03:14Z</time>
      </trkpt>
      <trkpt lat="42.722445" lon="-8.649983">
        <ele>84.787</ele>
        <time>2018-08-25T17:03:16Z</time>
      </trkpt>
      <trkpt lat="42.722500" lon="-8.650022">
        <ele>84.585</ele>
        <time>2018-08-25T17:03:19Z</time>
      </trkpt>
      <trkpt lat="42.722546" lon="-8.650052">
        <ele>84.013</ele>
        <time>2018-08-25T17:03:22Z</time>
      </trkpt>
      <trkpt lat="42.722607" lon="-8.650101">
        <ele>83.343</ele>
        <time>2018-08-25T17:03:25Z</time>
      </trkpt>
      <trkpt lat="42.722681" lon="-8.650141">
        <ele>82.775</ele>
        <time>2018-08-25T17:03:26Z</time>
      </trkpt>
      <trkpt lat="42.722772" lon="-8.650161">
        <ele>81.928</ele>
        <time>2018-08-25T17:03:28Z</time>
      </trkpt>
      <trkpt lat="42.722834" lon="-8.650167">
        <ele>81.220</ele>
        <time>2018-08-25T17:03:29Z</time>
      </trkpt>
      <trkpt lat="42.722902" lon="-8.650184">
        <ele>80.508</ele>
        <time>2018-08-25T17:03:30Z</time>
      </trkpt>
      <trkpt lat="42.722966" lon="-8.650211">
        <ele>80.029</ele>
        <time>2018-08-25T17:03:31Z</time>
      </trkpt>
      <trkpt lat="42.723021" lon="-8.650245">
        <ele>79.625</ele>
        <time>2018-08-25T17:03:32Z</time>
      </trkpt>
      <trkpt lat="42.723070" lon="-8.650275">
        <ele>79.290</ele>
        <time>2018-08-25T17:03:33Z</time>
      </trkpt>
      <trkpt lat="42.723116" lon="-8.650304">
        <ele>78.844</ele>
        <time>2018-08-25T17:03:34Z</time>
      </trkpt>
      <trkpt lat="42.723191" lon="-8.650355">
        <ele>78.191</ele>
        <time>2018-08-25T17:03:36Z</time>
      </trkpt>
      <trkpt lat="42.723262" lon="-8.650422">
        <ele>77.389</ele>
        <time>2018-08-25T17:03:38Z</time>
      </trkpt>
      <trkpt lat="42.723351" lon="-8.650478">
        <ele>76.847</ele>
        <time>2018-08-25T17:03:40Z</time>
      </trkpt>
      <trkpt lat="42.723404" lon="-8.650498">
        <ele>76.597</ele>
        <time>2018-08-25T17:03:41Z</time>
      </trkpt>
      <trkpt lat="42.723456" lon="-8.650510">
        <ele>76.298</ele>
        <time>2018-08-25T17:03:42Z</time>
      </trkpt>
      <trkpt lat="42.723506" lon="-8.650515">
        <ele>75.815</ele>
        <time>2018-08-25T17:03:43Z</time>
      </trkpt>
      <trkpt lat="42.723557" lon="-8.650521">
        <ele>75.326</ele>
        <time>2018-08-25T17:03:44Z</time>
      </trkpt>
      <trkpt lat="42.723611" lon="-8.650536">
        <ele>74.908</ele>
        <time>2018-08-25T17:03:45Z</time>
      </trkpt>
      <trkpt lat="42.723663" lon="-8.650546">
        <ele>74.511</ele>
        <time>2018-08-25T17:03:46Z</time>
      </trkpt>
      <trkpt lat="42.723715" lon="-8.650545">
        <ele>74.397</ele>
        <time>2018-08-25T17:03:47Z</time>
      </trkpt>
      <trkpt lat="42.723762" lon="-8.650537">
        <ele>74.082</ele>
        <time>2018-08-25T17:03:48Z</time>
      </trkpt>
      <trkpt lat="42.723811" lon="-8.650514">
        <ele>73.676</ele>
        <time>2018-08-25T17:03:49Z</time>
      </trkpt>
      <trkpt lat="42.723858" lon="-8.650483">
        <ele>73.173</ele>
        <time>2018-08-25T17:03:50Z</time>
      </trkpt>
      <trkpt lat="42.723900" lon="-8.650455">
        <ele>72.671</ele>
        <time>2018-08-25T17:03:51Z</time>
      </trkpt>
      <trkpt lat="42.723962" lon="-8.650438">
        <ele>71.839</ele>
        <time>2018-08-25T17:03:54Z</time>
      </trkpt>
      <trkpt lat="42.724040" lon="-8.650498">
        <ele>70.359</ele>
        <time>2018-08-25T17:03:57Z</time>
      </trkpt>
      <trkpt lat="42.724103" lon="-8.650520">
        <ele>70.187</ele>
        <time>2018-08-25T17:04:00Z</time>
      </trkpt>
      <trkpt lat="42.724162" lon="-8.650509">
        <ele>70.142</ele>
        <time>2018-08-25T17:04:02Z</time>
      </trkpt>
      <trkpt lat="42.724217" lon="-8.650491">
        <ele>71.026</ele>
        <time>2018-08-25T17:04:04Z</time>
      </trkpt>
      <trkpt lat="42.724265" lon="-8.650477">
        <ele>71.508</ele>
        <time>2018-08-25T17:04:06Z</time>
      </trkpt>
      <trkpt lat="42.724329" lon="-8.650479">
        <ele>72.570</ele>
        <time>2018-08-25T17:04:09Z</time>
      </trkpt>
      <trkpt lat="42.724395" lon="-8.650484">
        <ele>73.596</ele>
        <time>2018-08-25T17:04:12Z</time>
      </trkpt>
      <trkpt lat="42.724442" lon="-8.650477">
        <ele>74.241</ele>
        <time>2018-08-25T17:04:14Z</time>
      </trkpt>
      <trkpt lat="42.724551" lon="-8.650455">
        <ele>74.765</ele>
        <time>2018-08-25T17:04:16Z</time>
      </trkpt>
      <trkpt lat="42.724597" lon="-8.650443">
        <ele>74.772</ele>
        <time>2018-08-25T17:04:18Z</time>
      </trkpt>
      <trkpt lat="42.724706" lon="-8.650432">
        <ele>74.030</ele>
        <time>2018-08-25T17:04:20Z</time>
      </trkpt>
      <trkpt lat="42.724750" lon="-8.650418">
        <ele>73.138</ele>
        <time>2018-08-25T17:04:21Z</time>
      </trkpt>
      <trkpt lat="42.724832" lon="-8.650384">
        <ele>72.358</ele>
        <time>2018-08-25T17:04:23Z</time>
      </trkpt>
      <trkpt lat="42.724898" lon="-8.650378">
        <ele>70.865</ele>
        <time>2018-08-25T17:04:26Z</time>
      </trkpt>
      <trkpt lat="42.724949" lon="-8.650386">
        <ele>69.668</ele>
        <time>2018-08-25T17:04:28Z</time>
      </trkpt>
      <trkpt lat="42.724996" lon="-8.650399">
        <ele>68.614</ele>
        <time>2018-08-25T17:04:30Z</time>
      </trkpt>
      <trkpt lat="42.725063" lon="-8.650419">
        <ele>67.308</ele>
        <time>2018-08-25T17:04:33Z</time>
      </trkpt>
      <trkpt lat="42.725140" lon="-8.650417">
        <ele>66.228</ele>
        <time>2018-08-25T17:04:34Z</time>
      </trkpt>
      <trkpt lat="42.725186" lon="-8.650397">
        <ele>65.134</ele>
        <time>2018-08-25T17:04:36Z</time>
      </trkpt>
      <trkpt lat="42.725242" lon="-8.650390">
        <ele>64.229</ele>
        <time>2018-08-25T17:04:38Z</time>
      </trkpt>
      <trkpt lat="42.725293" lon="-8.650417">
        <ele>63.083</ele>
        <time>2018-08-25T17:04:40Z</time>
      </trkpt>
      <trkpt lat="42.725360" lon="-8.650464">
        <ele>61.850</ele>
        <time>2018-08-25T17:04:41Z</time>
      </trkpt>
      <trkpt lat="42.725420" lon="-8.650492">
        <ele>60.918</ele>
        <time>2018-08-25T17:04:44Z</time>
      </trkpt>
      <trkpt lat="42.725527" lon="-8.650504">
        <ele>60.176</ele>
        <time>2018-08-25T17:04:46Z</time>
      </trkpt>
      <trkpt lat="42.725636" lon="-8.650523">
        <ele>59.346</ele>
        <time>2018-08-25T17:04:49Z</time>
      </trkpt>
      <trkpt lat="42.725693" lon="-8.650539">
        <ele>58.175</ele>
        <time>2018-08-25T17:04:52Z</time>
      </trkpt>
      <trkpt lat="42.725762" lon="-8.650625">
        <ele>56.528</ele>
        <time>2018-08-25T17:04:54Z</time>
      </trkpt>
      <trkpt lat="42.725823" lon="-8.650694">
        <ele>55.220</ele>
        <time>2018-08-25T17:04:56Z</time>
      </trkpt>
      <trkpt lat="42.725865" lon="-8.650723">
        <ele>54.208</ele>
        <time>2018-08-25T17:04:57Z</time>
      </trkpt>
      <trkpt lat="42.725909" lon="-8.650746">
        <ele>52.939</ele>
        <time>2018-08-25T17:04:58Z</time>
      </trkpt>
      <trkpt lat="42.725955" lon="-8.650768">
        <ele>51.865</ele>
        <time>2018-08-25T17:04:59Z</time>
      </trkpt>
      <trkpt lat="42.726001" lon="-8.650788">
        <ele>52.110</ele>
        <time>2018-08-25T17:05:01Z</time>
      </trkpt>
      <trkpt lat="42.726064" lon="-8.650819">
        <ele>52.864</ele>
        <time>2018-08-25T17:05:04Z</time>
      </trkpt>
      <trkpt lat="42.726095" lon="-8.650867">
        <ele>53.451</ele>
        <time>2018-08-25T17:05:06Z</time>
      </trkpt>
      <trkpt lat="42.726091" lon="-8.650958">
        <ele>53.919</ele>
        <time>2018-08-25T17:05:09Z</time>
      </trkpt>
      <trkpt lat="42.726069" lon="-8.651016">
        <ele>53.747</ele>
        <time>2018-08-25T17:05:11Z</time>
      </trkpt>
      <trkpt lat="42.726047" lon="-8.651083">
        <ele>53.617</ele>
        <time>2018-08-25T17:05:13Z</time>
      </trkpt>
      <trkpt lat="42.726022" lon="-8.651149">
        <ele>53.411</ele>
        <time>2018-08-25T17:05:15Z</time>
      </trkpt>
      <trkpt lat="42.725997" lon="-8.651219">
        <ele>53.421</ele>
        <time>2018-08-25T17:05:17Z</time>
      </trkpt>
      <trkpt lat="42.725974" lon="-8.651289">
        <ele>53.703</ele>
        <time>2018-08-25T17:05:20Z</time>
      </trkpt>
      <trkpt lat="42.725959" lon="-8.651365">
        <ele>53.308</ele>
        <time>2018-08-25T17:05:24Z</time>
      </trkpt>
      <trkpt lat="42.725902" lon="-8.651469">
        <ele>52.573</ele>
        <time>2018-08-25T17:05:26Z</time>
      </trkpt>
      <trkpt lat="42.725869" lon="-8.651579">
        <ele>51.829</ele>
        <time>2018-08-25T17:05:28Z</time>
      </trkpt>
      <trkpt lat="42.725862" lon="-8.651649">
        <ele>51.294</ele>
        <time>2018-08-25T17:05:29Z</time>
      </trkpt>
      <trkpt lat="42.725859" lon="-8.651719">
        <ele>50.948</ele>
        <time>2018-08-25T17:05:30Z</time>
      </trkpt>
      <trkpt lat="42.725858" lon="-8.651781">
        <ele>50.615</ele>
        <time>2018-08-25T17:05:31Z</time>
      </trkpt>
      <trkpt lat="42.725855" lon="-8.651899">
        <ele>50.233</ele>
        <time>2018-08-25T17:05:33Z</time>
      </trkpt>
      <trkpt lat="42.725840" lon="-8.652003">
        <ele>49.521</ele>
        <time>2018-08-25T17:05:35Z</time>
      </trkpt>
      <trkpt lat="42.725833" lon="-8.652088">
        <ele>48.331</ele>
        <time>2018-08-25T17:05:38Z</time>
      </trkpt>
      <trkpt lat="42.725824" lon="-8.652157">
        <ele>47.788</ele>
        <time>2018-08-25T17:05:40Z</time>
      </trkpt>
      <trkpt lat="42.725804" lon="-8.652239">
        <ele>47.424</ele>
        <time>2018-08-25T17:05:43Z</time>
      </trkpt>
      <trkpt lat="42.725773" lon="-8.652286">
        <ele>47.626</ele>
        <time>2018-08-25T17:05:47Z</time>
      </trkpt>
      <trkpt lat="42.725685" lon="-8.652330">
        <ele>47.708</ele>
        <time>2018-08-25T17:05:50Z</time>
      </trkpt>
      <trkpt lat="42.725634" lon="-8.652339">
        <ele>47.630</ele>
        <time>2018-08-25T17:05:51Z</time>
      </trkpt>
      <trkpt lat="42.725577" lon="-8.652336">
        <ele>47.566</ele>
        <time>2018-08-25T17:05:52Z</time>
      </trkpt>
      <trkpt lat="42.725520" lon="-8.652324">
        <ele>47.541</ele>
        <time>2018-08-25T17:05:54Z</time>
      </trkpt>
      <trkpt lat="42.725478" lon="-8.652367">
        <ele>48.145</ele>
        <time>2018-08-25T17:05:57Z</time>
      </trkpt>
      <trkpt lat="42.725456" lon="-8.652430">
        <ele>47.762</ele>
        <time>2018-08-25T17:06:01Z</time>
      </trkpt>
      <trkpt lat="42.725454" lon="-8.652492">
        <ele>47.510</ele>
        <time>2018-08-25T17:06:04Z</time>
      </trkpt>
      <trkpt lat="42.725457" lon="-8.652555">
        <ele>47.578</ele>
        <time>2018-08-25T17:06:06Z</time>
      </trkpt>
      <trkpt lat="42.725460" lon="-8.652619">
        <ele>47.728</ele>
        <time>2018-08-25T17:06:08Z</time>
      </trkpt>
      <trkpt lat="42.725466" lon="-8.652700">
        <ele>48.163</ele>
        <time>2018-08-25T17:06:11Z</time>
      </trkpt>
      <trkpt lat="42.725480" lon="-8.652768">
        <ele>48.644</ele>
        <time>2018-08-25T17:06:17Z</time>
      </trkpt>
      <trkpt lat="42.725503" lon="-8.652836">
        <ele>48.918</ele>
        <time>2018-08-25T17:06:23Z</time>
      </trkpt>
      <trkpt lat="42.725519" lon="-8.652894">
        <ele>49.308</ele>
        <time>2018-08-25T17:06:28Z</time>
      </trkpt>
      <trkpt lat="42.725529" lon="-8.652960">
        <ele>50.598</ele>
        <time>2018-08-25T17:06:42Z</time>
      </trkpt>
      <trkpt lat="42.725531" lon="-8.653025">
        <ele>52.064</ele>
        <time>2018-08-25T17:06:45Z</time>
      </trkpt>
      <trkpt lat="42.725530" lon="-8.653096">
        <ele>52.829</ele>
        <time>2018-08-25T17:06:47Z</time>
      </trkpt>
      <trkpt lat="42.725529" lon="-8.653181">
        <ele>53.833</ele>
        <time>2018-08-25T17:06:49Z</time>
      </trkpt>
      <trkpt lat="42.725531" lon="-8.653268">
        <ele>54.780</ele>
        <time>2018-08-25T17:06:51Z</time>
      </trkpt>
      <trkpt lat="42.725529" lon="-8.653354">
        <ele>55.268</ele>
        <time>2018-08-25T17:06:53Z</time>
      </trkpt>
      <trkpt lat="42.725536" lon="-8.653436">
        <ele>55.936</ele>
        <time>2018-08-25T17:06:56Z</time>
      </trkpt>
      <trkpt lat="42.725531" lon="-8.653501">
        <ele>56.596</ele>
        <time>2018-08-25T17:06:59Z</time>
      </trkpt>
      <trkpt lat="42.725521" lon="-8.653590">
        <ele>58.066</ele>
        <time>2018-08-25T17:07:02Z</time>
      </trkpt>
      <trkpt lat="42.725521" lon="-8.653675">
        <ele>59.129</ele>
        <time>2018-08-25T17:07:05Z</time>
      </trkpt>
      <trkpt lat="42.725542" lon="-8.653746">
        <ele>59.721</ele>
        <time>2018-08-25T17:07:09Z</time>
      </trkpt>
      <trkpt lat="42.725582" lon="-8.653783">
        <ele>60.108</ele>
        <time>2018-08-25T17:07:27Z</time>
      </trkpt>
      <trkpt lat="42.725610" lon="-8.653837">
        <ele>60.188</ele>
        <time>2018-08-25T17:07:30Z</time>
      </trkpt>
      <trkpt lat="42.725614" lon="-8.653914">
        <ele>59.964</ele>
        <time>2018-08-25T17:07:32Z</time>
      </trkpt>
      <trkpt lat="42.725609" lon="-8.654020">
        <ele>59.869</ele>
        <time>2018-08-25T17:07:33Z</time>
      </trkpt>
      <trkpt lat="42.725596" lon="-8.654121">
        <ele>59.833</ele>
        <time>2018-08-25T17:07:35Z</time>
      </trkpt>
      <trkpt lat="42.725587" lon="-8.654233">
        <ele>60.130</ele>
        <time>2018-08-25T17:07:37Z</time>
      </trkpt>
      <trkpt lat="42.725579" lon="-8.654308">
        <ele>60.248</ele>
        <time>2018-08-25T17:07:39Z</time>
      </trkpt>
      <trkpt lat="42.725571" lon="-8.654372">
        <ele>60.286</ele>
        <time>2018-08-25T17:07:41Z</time>
      </trkpt>
      <trkpt lat="42.725563" lon="-8.654461">
        <ele>60.276</ele>
        <time>2018-08-25T17:07:42Z</time>
      </trkpt>
      <trkpt lat="42.725557" lon="-8.654560">
        <ele>60.242</ele>
        <time>2018-08-25T17:07:44Z</time>
      </trkpt>
      <trkpt lat="42.725545" lon="-8.654658">
        <ele>60.222</ele>
        <time>2018-08-25T17:07:46Z</time>
      </trkpt>
      <trkpt lat="42.725533" lon="-8.654763">
        <ele>60.114</ele>
        <time>2018-08-25T17:07:48Z</time>
      </trkpt>
      <trkpt lat="42.725525" lon="-8.654875">
        <ele>60.008</ele>
        <time>2018-08-25T17:07:50Z</time>
      </trkpt>
      <trkpt lat="42.725514" lon="-8.654988">
        <ele>59.726</ele>
        <time>2018-08-25T17:07:52Z</time>
      </trkpt>
      <trkpt lat="42.725507" lon="-8.655099">
        <ele>59.442</ele>
        <time>2018-08-25T17:07:54Z</time>
      </trkpt>
      <trkpt lat="42.725496" lon="-8.655202">
        <ele>59.257</ele>
        <time>2018-08-25T17:07:56Z</time>
      </trkpt>
      <trkpt lat="42.725482" lon="-8.655348">
        <ele>59.091</ele>
        <time>2018-08-25T17:07:59Z</time>
      </trkpt>
      <trkpt lat="42.725471" lon="-8.655452">
        <ele>58.888</ele>
        <time>2018-08-25T17:08:01Z</time>
      </trkpt>
      <trkpt lat="42.725477" lon="-8.655561">
        <ele>58.716</ele>
        <time>2018-08-25T17:08:03Z</time>
      </trkpt>
      <trkpt lat="42.725496" lon="-8.655635">
        <ele>58.784</ele>
        <time>2018-08-25T17:08:05Z</time>
      </trkpt>
      <trkpt lat="42.725529" lon="-8.655694">
        <ele>58.824</ele>
        <time>2018-08-25T17:08:06Z</time>
      </trkpt>
      <trkpt lat="42.725568" lon="-8.655756">
        <ele>59.016</ele>
        <time>2018-08-25T17:08:08Z</time>
      </trkpt>
      <trkpt lat="42.725579" lon="-8.655820">
        <ele>59.576</ele>
        <time>2018-08-25T17:08:10Z</time>
      </trkpt>
      <trkpt lat="42.725574" lon="-8.655887">
        <ele>60.013</ele>
        <time>2018-08-25T17:08:12Z</time>
      </trkpt>
      <trkpt lat="42.725529" lon="-8.655995">
        <ele>60.208</ele>
        <time>2018-08-25T17:08:14Z</time>
      </trkpt>
      <trkpt lat="42.725485" lon="-8.656016">
        <ele>60.193</ele>
        <time>2018-08-25T17:08:16Z</time>
      </trkpt>
      <trkpt lat="42.725446" lon="-8.656058">
        <ele>60.059</ele>
        <time>2018-08-25T17:08:18Z</time>
      </trkpt>
      <trkpt lat="42.725457" lon="-8.656122">
        <ele>60.024</ele>
        <time>2018-08-25T17:08:20Z</time>
      </trkpt>
      <trkpt lat="42.725499" lon="-8.656152">
        <ele>59.758</ele>
        <time>2018-08-25T17:08:22Z</time>
      </trkpt>
      <trkpt lat="42.725565" lon="-8.656148">
        <ele>59.335</ele>
        <time>2018-08-25T17:08:25Z</time>
      </trkpt>
      <trkpt lat="42.725653" lon="-8.656215">
        <ele>58.353</ele>
        <time>2018-08-25T17:08:27Z</time>
      </trkpt>
      <trkpt lat="42.725675" lon="-8.656312">
        <ele>57.011</ele>
        <time>2018-08-25T17:08:29Z</time>
      </trkpt>
      <trkpt lat="42.725682" lon="-8.656414">
        <ele>56.331</ele>
        <time>2018-08-25T17:08:31Z</time>
      </trkpt>
      <trkpt lat="42.725694" lon="-8.656501">
        <ele>55.472</ele>
        <time>2018-08-25T17:08:34Z</time>
      </trkpt>
      <trkpt lat="42.725714" lon="-8.656568">
        <ele>54.713</ele>
        <time>2018-08-25T17:08:36Z</time>
      </trkpt>
      <trkpt lat="42.725733" lon="-8.656645">
        <ele>54.014</ele>
        <time>2018-08-25T17:08:38Z</time>
      </trkpt>
      <trkpt lat="42.725752" lon="-8.656709">
        <ele>53.408</ele>
        <time>2018-08-25T17:08:40Z</time>
      </trkpt>
      <trkpt lat="42.725772" lon="-8.656772">
        <ele>52.849</ele>
        <time>2018-08-25T17:08:42Z</time>
      </trkpt>
      <trkpt lat="42.725795" lon="-8.656842">
        <ele>52.765</ele>
        <time>2018-08-25T17:08:44Z</time>
      </trkpt>
      <trkpt lat="42.725820" lon="-8.656918">
        <ele>52.730</ele>
        <time>2018-08-25T17:08:46Z</time>
      </trkpt>
      <trkpt lat="42.725844" lon="-8.656999">
        <ele>52.894</ele>
        <time>2018-08-25T17:08:48Z</time>
      </trkpt>
      <trkpt lat="42.725866" lon="-8.657076">
        <ele>52.851</ele>
        <time>2018-08-25T17:08:50Z</time>
      </trkpt>
      <trkpt lat="42.725888" lon="-8.657148">
        <ele>52.859</ele>
        <time>2018-08-25T17:08:52Z</time>
      </trkpt>
      <trkpt lat="42.725909" lon="-8.657218">
        <ele>51.947</ele>
        <time>2018-08-25T17:08:54Z</time>
      </trkpt>
      <trkpt lat="42.725938" lon="-8.657292">
        <ele>51.217</ele>
        <time>2018-08-25T17:08:56Z</time>
      </trkpt>
      <trkpt lat="42.725967" lon="-8.657348">
        <ele>50.984</ele>
        <time>2018-08-25T17:08:58Z</time>
      </trkpt>
      <trkpt lat="42.725994" lon="-8.657416">
        <ele>51.107</ele>
        <time>2018-08-25T17:09:01Z</time>
      </trkpt>
      <trkpt lat="42.726005" lon="-8.657481">
        <ele>51.617</ele>
        <time>2018-08-25T17:09:03Z</time>
      </trkpt>
      <trkpt lat="42.726012" lon="-8.657545">
        <ele>52.108</ele>
        <time>2018-08-25T17:09:05Z</time>
      </trkpt>
      <trkpt lat="42.726028" lon="-8.657611">
        <ele>52.650</ele>
        <time>2018-08-25T17:09:07Z</time>
      </trkpt>
      <trkpt lat="42.726047" lon="-8.657691">
        <ele>53.296</ele>
        <time>2018-08-25T17:09:09Z</time>
      </trkpt>
      <trkpt lat="42.726101" lon="-8.657824">
        <ele>53.961</ele>
        <time>2018-08-25T17:09:11Z</time>
      </trkpt>
      <trkpt lat="42.726141" lon="-8.657900">
        <ele>54.815</ele>
        <time>2018-08-25T17:09:14Z</time>
      </trkpt>
      <trkpt lat="42.726170" lon="-8.657964">
        <ele>55.482</ele>
        <time>2018-08-25T17:09:16Z</time>
      </trkpt>
      <trkpt lat="42.726201" lon="-8.658042">
        <ele>55.980</ele>
        <time>2018-08-25T17:09:18Z</time>
      </trkpt>
      <trkpt lat="42.726234" lon="-8.658126">
        <ele>56.168</ele>
        <time>2018-08-25T17:09:20Z</time>
      </trkpt>
      <trkpt lat="42.726266" lon="-8.658210">
        <ele>56.458</ele>
        <time>2018-08-25T17:09:22Z</time>
      </trkpt>
      <trkpt lat="42.726295" lon="-8.658294">
        <ele>56.993</ele>
        <time>2018-08-25T17:09:24Z</time>
      </trkpt>
      <trkpt lat="42.726327" lon="-8.658367">
        <ele>57.465</ele>
        <time>2018-08-25T17:09:26Z</time>
      </trkpt>
      <trkpt lat="42.726372" lon="-8.658408">
        <ele>57.821</ele>
        <time>2018-08-25T17:09:28Z</time>
      </trkpt>
      <trkpt lat="42.726420" lon="-8.658415">
        <ele>58.308</ele>
        <time>2018-08-25T17:09:30Z</time>
      </trkpt>
      <trkpt lat="42.726469" lon="-8.658410">
        <ele>58.771</ele>
        <time>2018-08-25T17:09:32Z</time>
      </trkpt>
      <trkpt lat="42.726519" lon="-8.658402">
        <ele>58.917</ele>
        <time>2018-08-25T17:09:34Z</time>
      </trkpt>
      <trkpt lat="42.726572" lon="-8.658407">
        <ele>59.072</ele>
        <time>2018-08-25T17:09:36Z</time>
      </trkpt>
      <trkpt lat="42.726633" lon="-8.658432">
        <ele>59.146</ele>
        <time>2018-08-25T17:09:38Z</time>
      </trkpt>
      <trkpt lat="42.726703" lon="-8.658498">
        <ele>59.013</ele>
        <time>2018-08-25T17:09:39Z</time>
      </trkpt>
      <trkpt lat="42.726735" lon="-8.658606">
        <ele>59.251</ele>
        <time>2018-08-25T17:09:41Z</time>
      </trkpt>
      <trkpt lat="42.726752" lon="-8.658677">
        <ele>59.549</ele>
        <time>2018-08-25T17:09:43Z</time>
      </trkpt>
      <trkpt lat="42.726764" lon="-8.658741">
        <ele>59.659</ele>
        <time>2018-08-25T17:09:45Z</time>
      </trkpt>
      <trkpt lat="42.726773" lon="-8.658812">
        <ele>59.686</ele>
        <time>2018-08-25T17:09:47Z</time>
      </trkpt>
      <trkpt lat="42.726786" lon="-8.658886">
        <ele>59.760</ele>
        <time>2018-08-25T17:09:49Z</time>
      </trkpt>
      <trkpt lat="42.726802" lon="-8.658969">
        <ele>59.726</ele>
        <time>2018-08-25T17:09:51Z</time>
      </trkpt>
      <trkpt lat="42.726828" lon="-8.659119">
        <ele>59.708</ele>
        <time>2018-08-25T17:09:53Z</time>
      </trkpt>
      <trkpt lat="42.726842" lon="-8.659211">
        <ele>59.770</ele>
        <time>2018-08-25T17:09:56Z</time>
      </trkpt>
      <trkpt lat="42.726861" lon="-8.659345">
        <ele>59.676</ele>
        <time>2018-08-25T17:09:58Z</time>
      </trkpt>
      <trkpt lat="42.726869" lon="-8.659419">
        <ele>59.421</ele>
        <time>2018-08-25T17:10:00Z</time>
      </trkpt>
      <trkpt lat="42.726877" lon="-8.659532">
        <ele>59.245</ele>
        <time>2018-08-25T17:10:02Z</time>
      </trkpt>
      <trkpt lat="42.726885" lon="-8.659624">
        <ele>59.052</ele>
        <time>2018-08-25T17:10:04Z</time>
      </trkpt>
      <trkpt lat="42.726918" lon="-8.659706">
        <ele>58.830</ele>
        <time>2018-08-25T17:10:06Z</time>
      </trkpt>
      <trkpt lat="42.726959" lon="-8.659745">
        <ele>58.788</ele>
        <time>2018-08-25T17:10:08Z</time>
      </trkpt>
      <trkpt lat="42.727005" lon="-8.659764">
        <ele>58.778</ele>
        <time>2018-08-25T17:10:10Z</time>
      </trkpt>
      <trkpt lat="42.727056" lon="-8.659801">
        <ele>58.766</ele>
        <time>2018-08-25T17:10:12Z</time>
      </trkpt>
      <trkpt lat="42.727103" lon="-8.659857">
        <ele>58.829</ele>
        <time>2018-08-25T17:10:14Z</time>
      </trkpt>
      <trkpt lat="42.727155" lon="-8.659941">
        <ele>58.921</ele>
        <time>2018-08-25T17:10:15Z</time>
      </trkpt>
      <trkpt lat="42.727190" lon="-8.660030">
        <ele>58.908</ele>
        <time>2018-08-25T17:10:17Z</time>
      </trkpt>
      <trkpt lat="42.727211" lon="-8.660127">
        <ele>58.928</ele>
        <time>2018-08-25T17:10:19Z</time>
      </trkpt>
      <trkpt lat="42.727234" lon="-8.660221">
        <ele>58.964</ele>
        <time>2018-08-25T17:10:21Z</time>
      </trkpt>
      <trkpt lat="42.727248" lon="-8.660317">
        <ele>58.919</ele>
        <time>2018-08-25T17:10:23Z</time>
      </trkpt>
      <trkpt lat="42.727253" lon="-8.660420">
        <ele>58.813</ele>
        <time>2018-08-25T17:10:25Z</time>
      </trkpt>
      <trkpt lat="42.727233" lon="-8.660524">
        <ele>58.720</ele>
        <time>2018-08-25T17:10:27Z</time>
      </trkpt>
      <trkpt lat="42.727214" lon="-8.660580">
        <ele>58.588</ele>
        <time>2018-08-25T17:10:29Z</time>
      </trkpt>
      <trkpt lat="42.727180" lon="-8.660655">
        <ele>58.466</ele>
        <time>2018-08-25T17:10:30Z</time>
      </trkpt>
      <trkpt lat="42.727144" lon="-8.660716">
        <ele>58.446</ele>
        <time>2018-08-25T17:10:32Z</time>
      </trkpt>
      <trkpt lat="42.727095" lon="-8.660821">
        <ele>58.632</ele>
        <time>2018-08-25T17:10:34Z</time>
      </trkpt>
      <trkpt lat="42.727065" lon="-8.660928">
        <ele>59.092</ele>
        <time>2018-08-25T17:10:36Z</time>
      </trkpt>
      <trkpt lat="42.727057" lon="-8.661012">
        <ele>59.311</ele>
        <time>2018-08-25T17:10:38Z</time>
      </trkpt>
      <trkpt lat="42.727060" lon="-8.661083">
        <ele>59.708</ele>
        <time>2018-08-25T17:10:40Z</time>
      </trkpt>
      <trkpt lat="42.727068" lon="-8.661149">
        <ele>59.885</ele>
        <time>2018-08-25T17:10:42Z</time>
      </trkpt>
      <trkpt lat="42.727090" lon="-8.661231">
        <ele>60.111</ele>
        <time>2018-08-25T17:10:45Z</time>
      </trkpt>
      <trkpt lat="42.727123" lon="-8.661278">
        <ele>60.216</ele>
        <time>2018-08-25T17:10:48Z</time>
      </trkpt>
      <trkpt lat="42.727175" lon="-8.661283">
        <ele>60.450</ele>
        <time>2018-08-25T17:10:51Z</time>
      </trkpt>
      <trkpt lat="42.727224" lon="-8.661269">
        <ele>60.467</ele>
        <time>2018-08-25T17:10:53Z</time>
      </trkpt>
      <trkpt lat="42.727283" lon="-8.661247">
        <ele>60.425</ele>
        <time>2018-08-25T17:10:55Z</time>
      </trkpt>
      <trkpt lat="42.727363" lon="-8.661216">
        <ele>60.443</ele>
        <time>2018-08-25T17:10:56Z</time>
      </trkpt>
      <trkpt lat="42.727407" lon="-8.661200">
        <ele>60.313</ele>
        <time>2018-08-25T17:10:58Z</time>
      </trkpt>
      <trkpt lat="42.727464" lon="-8.661184">
        <ele>60.497</ele>
        <time>2018-08-25T17:11:00Z</time>
      </trkpt>
      <trkpt lat="42.727524" lon="-8.661167">
        <ele>60.423</ele>
        <time>2018-08-25T17:11:02Z</time>
      </trkpt>
      <trkpt lat="42.727639" lon="-8.661130">
        <ele>60.325</ele>
        <time>2018-08-25T17:11:04Z</time>
      </trkpt>
      <trkpt lat="42.727718" lon="-8.661112">
        <ele>60.208</ele>
        <time>2018-08-25T17:11:06Z</time>
      </trkpt>
      <trkpt lat="42.727797" lon="-8.661097">
        <ele>60.391</ele>
        <time>2018-08-25T17:11:08Z</time>
      </trkpt>
      <trkpt lat="42.727879" lon="-8.661088">
        <ele>60.347</ele>
        <time>2018-08-25T17:11:10Z</time>
      </trkpt>
      <trkpt lat="42.727963" lon="-8.661074">
        <ele>60.322</ele>
        <time>2018-08-25T17:11:12Z</time>
      </trkpt>
      <trkpt lat="42.728045" lon="-8.661059">
        <ele>60.286</ele>
        <time>2018-08-25T17:11:14Z</time>
      </trkpt>
      <trkpt lat="42.728101" lon="-8.661046">
        <ele>60.283</ele>
        <time>2018-08-25T17:11:16Z</time>
      </trkpt>
      <trkpt lat="42.728191" lon="-8.661033">
        <ele>60.381</ele>
        <time>2018-08-25T17:11:18Z</time>
      </trkpt>
      <trkpt lat="42.728252" lon="-8.661023">
        <ele>60.489</ele>
        <time>2018-08-25T17:11:20Z</time>
      </trkpt>
      <trkpt lat="42.728308" lon="-8.661011">
        <ele>60.649</ele>
        <time>2018-08-25T17:11:21Z</time>
      </trkpt>
      <trkpt lat="42.728366" lon="-8.661002">
        <ele>60.861</ele>
        <time>2018-08-25T17:11:23Z</time>
      </trkpt>
      <trkpt lat="42.728418" lon="-8.660996">
        <ele>61.121</ele>
        <time>2018-08-25T17:11:25Z</time>
      </trkpt>
      <trkpt lat="42.728480" lon="-8.660987">
        <ele>61.313</ele>
        <time>2018-08-25T17:11:27Z</time>
      </trkpt>
      <trkpt lat="42.728545" lon="-8.660979">
        <ele>61.308</ele>
        <time>2018-08-25T17:11:29Z</time>
      </trkpt>
      <trkpt lat="42.728662" lon="-8.660980">
        <ele>61.498</ele>
        <time>2018-08-25T17:11:31Z</time>
      </trkpt>
      <trkpt lat="42.728733" lon="-8.660964">
        <ele>61.854</ele>
        <time>2018-08-25T17:11:33Z</time>
      </trkpt>
      <trkpt lat="42.728787" lon="-8.660955">
        <ele>62.189</ele>
        <time>2018-08-25T17:11:35Z</time>
      </trkpt>
      <trkpt lat="42.728833" lon="-8.660950">
        <ele>62.583</ele>
        <time>2018-08-25T17:11:37Z</time>
      </trkpt>
      <trkpt lat="42.728891" lon="-8.660943">
        <ele>62.810</ele>
        <time>2018-08-25T17:11:39Z</time>
      </trkpt>
      <trkpt lat="42.728954" lon="-8.660937">
        <ele>63.028</ele>
        <time>2018-08-25T17:11:41Z</time>
      </trkpt>
      <trkpt lat="42.729019" lon="-8.660930">
        <ele>63.156</ele>
        <time>2018-08-25T17:11:43Z</time>
      </trkpt>
      <trkpt lat="42.729090" lon="-8.660928">
        <ele>63.146</ele>
        <time>2018-08-25T17:11:45Z</time>
      </trkpt>
      <trkpt lat="42.729174" lon="-8.660926">
        <ele>63.115</ele>
        <time>2018-08-25T17:11:46Z</time>
      </trkpt>
      <trkpt lat="42.729246" lon="-8.660915">
        <ele>63.065</ele>
        <time>2018-08-25T17:11:48Z</time>
      </trkpt>
      <trkpt lat="42.729299" lon="-8.660913">
        <ele>62.811</ele>
        <time>2018-08-25T17:11:50Z</time>
      </trkpt>
      <trkpt lat="42.729349" lon="-8.660906">
        <ele>62.708</ele>
        <time>2018-08-25T17:11:52Z</time>
      </trkpt>
      <trkpt lat="42.729409" lon="-8.660903">
        <ele>62.773</ele>
        <time>2018-08-25T17:11:54Z</time>
      </trkpt>
      <trkpt lat="42.729473" lon="-8.660901">
        <ele>62.789</ele>
        <time>2018-08-25T17:11:56Z</time>
      </trkpt>
      <trkpt lat="42.729553" lon="-8.660900">
        <ele>62.844</ele>
        <time>2018-08-25T17:11:57Z</time>
      </trkpt>
      <trkpt lat="42.729632" lon="-8.660891">
        <ele>62.828</ele>
        <time>2018-08-25T17:11:59Z</time>
      </trkpt>
      <trkpt lat="42.729706" lon="-8.660879">
        <ele>62.825</ele>
        <time>2018-08-25T17:12:01Z</time>
      </trkpt>
      <trkpt lat="42.729763" lon="-8.660885">
        <ele>62.963</ele>
        <time>2018-08-25T17:12:03Z</time>
      </trkpt>
      <trkpt lat="42.729812" lon="-8.660884">
        <ele>63.061</ele>
        <time>2018-08-25T17:12:05Z</time>
      </trkpt>
      <trkpt lat="42.729873" lon="-8.660885">
        <ele>63.461</ele>
        <time>2018-08-25T17:12:07Z</time>
      </trkpt>
      <trkpt lat="42.729938" lon="-8.660886">
        <ele>63.824</ele>
        <time>2018-08-25T17:12:09Z</time>
      </trkpt>
      <trkpt lat="42.730000" lon="-8.660883">
        <ele>64.204</ele>
        <time>2018-08-25T17:12:11Z</time>
      </trkpt>
      <trkpt lat="42.730063" lon="-8.660872">
        <ele>64.414</ele>
        <time>2018-08-25T17:12:13Z</time>
      </trkpt>
      <trkpt lat="42.730126" lon="-8.660872">
        <ele>64.908</ele>
        <time>2018-08-25T17:12:15Z</time>
      </trkpt>
      <trkpt lat="42.730187" lon="-8.660890">
        <ele>65.444</ele>
        <time>2018-08-25T17:12:17Z</time>
      </trkpt>
      <trkpt lat="42.730258" lon="-8.660901">
        <ele>65.830</ele>
        <time>2018-08-25T17:12:19Z</time>
      </trkpt>
      <trkpt lat="42.730348" lon="-8.660903">
        <ele>66.095</ele>
        <time>2018-08-25T17:12:20Z</time>
      </trkpt>
      <trkpt lat="42.730421" lon="-8.660906">
        <ele>66.089</ele>
        <time>2018-08-25T17:12:23Z</time>
      </trkpt>
      <trkpt lat="42.730482" lon="-8.660909">
        <ele>65.536</ele>
        <time>2018-08-25T17:12:25Z</time>
      </trkpt>
      <trkpt lat="42.730549" lon="-8.660914">
        <ele>65.114</ele>
        <time>2018-08-25T17:12:27Z</time>
      </trkpt>
      <trkpt lat="42.730638" lon="-8.660920">
        <ele>64.942</ele>
        <time>2018-08-25T17:12:28Z</time>
      </trkpt>
      <trkpt lat="42.730696" lon="-8.660916">
        <ele>64.822</ele>
        <time>2018-08-25T17:12:30Z</time>
      </trkpt>
      <trkpt lat="42.730745" lon="-8.660918">
        <ele>64.946</ele>
        <time>2018-08-25T17:12:32Z</time>
      </trkpt>
      <trkpt lat="42.730844" lon="-8.660933">
        <ele>64.688</ele>
        <time>2018-08-25T17:12:34Z</time>
      </trkpt>
      <trkpt lat="42.730911" lon="-8.660939">
        <ele>64.316</ele>
        <time>2018-08-25T17:12:36Z</time>
      </trkpt>
      <trkpt lat="42.730962" lon="-8.660947">
        <ele>64.108</ele>
        <time>2018-08-25T17:12:38Z</time>
      </trkpt>
      <trkpt lat="42.731013" lon="-8.660955">
        <ele>63.936</ele>
        <time>2018-08-25T17:12:39Z</time>
      </trkpt>
      <trkpt lat="42.731091" lon="-8.660973">
        <ele>63.642</ele>
        <time>2018-08-25T17:12:41Z</time>
      </trkpt>
      <trkpt lat="42.731135" lon="-8.660994">
        <ele>63.587</ele>
        <time>2018-08-25T17:12:42Z</time>
      </trkpt>
      <trkpt lat="42.731187" lon="-8.661010">
        <ele>63.731</ele>
        <time>2018-08-25T17:12:44Z</time>
      </trkpt>
      <trkpt lat="42.731234" lon="-8.661017">
        <ele>63.518</ele>
        <time>2018-08-25T17:12:47Z</time>
      </trkpt>
      <trkpt lat="42.731354" lon="-8.661061">
        <ele>63.976</ele>
        <time>2018-08-25T17:12:49Z</time>
      </trkpt>
      <trkpt lat="42.731402" lon="-8.661073">
        <ele>64.354</ele>
        <time>2018-08-25T17:12:50Z</time>
      </trkpt>
      <trkpt lat="42.731455" lon="-8.661088">
        <ele>64.724</ele>
        <time>2018-08-25T17:12:51Z</time>
      </trkpt>
      <trkpt lat="42.731502" lon="-8.661104">
        <ele>65.045</ele>
        <time>2018-08-25T17:12:52Z</time>
      </trkpt>
      <trkpt lat="42.731579" lon="-8.661138">
        <ele>65.147</ele>
        <time>2018-08-25T17:12:54Z</time>
      </trkpt>
      <trkpt lat="42.731657" lon="-8.661153">
        <ele>65.011</ele>
        <time>2018-08-25T17:12:56Z</time>
      </trkpt>
      <trkpt lat="42.731731" lon="-8.661174">
        <ele>64.808</ele>
        <time>2018-08-25T17:12:58Z</time>
      </trkpt>
      <trkpt lat="42.731811" lon="-8.661194">
        <ele>64.596</ele>
        <time>2018-08-25T17:13:00Z</time>
      </trkpt>
      <trkpt lat="42.731891" lon="-8.661203">
        <ele>64.162</ele>
        <time>2018-08-25T17:13:02Z</time>
      </trkpt>
      <trkpt lat="42.731966" lon="-8.661224">
        <ele>63.717</ele>
        <time>2018-08-25T17:13:04Z</time>
      </trkpt>
      <trkpt lat="42.732041" lon="-8.661250">
        <ele>63.321</ele>
        <time>2018-08-25T17:13:06Z</time>
      </trkpt>
      <trkpt lat="42.732120" lon="-8.661267">
        <ele>62.938</ele>
        <time>2018-08-25T17:13:08Z</time>
      </trkpt>
      <trkpt lat="42.732208" lon="-8.661288">
        <ele>62.446</ele>
        <time>2018-08-25T17:13:10Z</time>
      </trkpt>
      <trkpt lat="42.732252" lon="-8.661299">
        <ele>62.064</ele>
        <time>2018-08-25T17:13:11Z</time>
      </trkpt>
      <trkpt lat="42.732339" lon="-8.661317">
        <ele>61.724</ele>
        <time>2018-08-25T17:13:13Z</time>
      </trkpt>
      <trkpt lat="42.732385" lon="-8.661325">
        <ele>61.557</ele>
        <time>2018-08-25T17:13:14Z</time>
      </trkpt>
      <trkpt lat="42.732470" lon="-8.661348">
        <ele>61.300</ele>
        <time>2018-08-25T17:13:16Z</time>
      </trkpt>
      <trkpt lat="42.732556" lon="-8.661362">
        <ele>61.220</ele>
        <time>2018-08-25T17:13:18Z</time>
      </trkpt>
      <trkpt lat="42.732641" lon="-8.661373">
        <ele>61.108</ele>
        <time>2018-08-25T17:13:20Z</time>
      </trkpt>
      <trkpt lat="42.732729" lon="-8.661395">
        <ele>61.127</ele>
        <time>2018-08-25T17:13:22Z</time>
      </trkpt>
      <trkpt lat="42.732815" lon="-8.661413">
        <ele>61.023</ele>
        <time>2018-08-25T17:13:24Z</time>
      </trkpt>
      <trkpt lat="42.732901" lon="-8.661433">
        <ele>60.928</ele>
        <time>2018-08-25T17:13:26Z</time>
      </trkpt>
      <trkpt lat="42.732981" lon="-8.661450">
        <ele>60.652</ele>
        <time>2018-08-25T17:13:28Z</time>
      </trkpt>
      <trkpt lat="42.733062" lon="-8.661463">
        <ele>60.359</ele>
        <time>2018-08-25T17:13:30Z</time>
      </trkpt>
      <trkpt lat="42.733120" lon="-8.661469">
        <ele>60.027</ele>
        <time>2018-08-25T17:13:32Z</time>
      </trkpt>
      <trkpt lat="42.733174" lon="-8.661483">
        <ele>59.745</ele>
        <time>2018-08-25T17:13:33Z</time>
      </trkpt>
      <trkpt lat="42.733247" lon="-8.661501">
        <ele>59.465</ele>
        <time>2018-08-25T17:13:35Z</time>
      </trkpt>
      <trkpt lat="42.733325" lon="-8.661505">
        <ele>59.222</ele>
        <time>2018-08-25T17:13:37Z</time>
      </trkpt>
      <trkpt lat="42.733398" lon="-8.661512">
        <ele>59.162</ele>
        <time>2018-08-25T17:13:39Z</time>
      </trkpt>
      <trkpt lat="42.733469" lon="-8.661524">
        <ele>58.808</ele>
        <time>2018-08-25T17:13:42Z</time>
      </trkpt>
      <trkpt lat="42.733539" lon="-8.661532">
        <ele>58.708</ele>
        <time>2018-08-25T17:13:43Z</time>
      </trkpt>
      <trkpt lat="42.733607" lon="-8.661538">
        <ele>58.624</ele>
        <time>2018-08-25T17:13:45Z</time>
      </trkpt>
      <trkpt lat="42.733676" lon="-8.661550">
        <ele>58.490</ele>
        <time>2018-08-25T17:13:48Z</time>
      </trkpt>
      <trkpt lat="42.733735" lon="-8.661563">
        <ele>58.225</ele>
        <time>2018-08-25T17:13:50Z</time>
      </trkpt>
      <trkpt lat="42.733792" lon="-8.661577">
        <ele>57.869</ele>
        <time>2018-08-25T17:13:52Z</time>
      </trkpt>
      <trkpt lat="42.733849" lon="-8.661584">
        <ele>57.356</ele>
        <time>2018-08-25T17:13:54Z</time>
      </trkpt>
      <trkpt lat="42.733919" lon="-8.661591">
        <ele>57.434</ele>
        <time>2018-08-25T17:13:56Z</time>
      </trkpt>
      <trkpt lat="42.733986" lon="-8.661606">
        <ele>57.452</ele>
        <time>2018-08-25T17:13:58Z</time>
      </trkpt>
      <trkpt lat="42.734053" lon="-8.661630">
        <ele>57.972</ele>
        <time>2018-08-25T17:14:00Z</time>
      </trkpt>
      <trkpt lat="42.734136" lon="-8.661642">
        <ele>58.334</ele>
        <time>2018-08-25T17:14:01Z</time>
      </trkpt>
      <trkpt lat="42.734194" lon="-8.661640">
        <ele>59.255</ele>
        <time>2018-08-25T17:14:03Z</time>
      </trkpt>
      <trkpt lat="42.734243" lon="-8.661642">
        <ele>59.910</ele>
        <time>2018-08-25T17:14:05Z</time>
      </trkpt>
      <trkpt lat="42.734303" lon="-8.661632">
        <ele>60.408</ele>
        <time>2018-08-25T17:14:07Z</time>
      </trkpt>
      <trkpt lat="42.734387" lon="-8.661619">
        <ele>60.875</ele>
        <time>2018-08-25T17:14:08Z</time>
      </trkpt>
      <trkpt lat="42.734446" lon="-8.661617">
        <ele>61.461</ele>
        <time>2018-08-25T17:14:10Z</time>
      </trkpt>
      <trkpt lat="42.734501" lon="-8.661618">
        <ele>61.966</ele>
        <time>2018-08-25T17:14:11Z</time>
      </trkpt>
      <trkpt lat="42.734578" lon="-8.661624">
        <ele>62.440</ele>
        <time>2018-08-25T17:14:13Z</time>
      </trkpt>
      <trkpt lat="42.734658" lon="-8.661634">
        <ele>62.947</ele>
        <time>2018-08-25T17:14:15Z</time>
      </trkpt>
      <trkpt lat="42.734734" lon="-8.661641">
        <ele>63.455</ele>
        <time>2018-08-25T17:14:17Z</time>
      </trkpt>
      <trkpt lat="42.734814" lon="-8.661644">
        <ele>63.973</ele>
        <time>2018-08-25T17:14:19Z</time>
      </trkpt>
      <trkpt lat="42.734883" lon="-8.661647">
        <ele>64.453</ele>
        <time>2018-08-25T17:14:22Z</time>
      </trkpt>
      <trkpt lat="42.734937" lon="-8.661641">
        <ele>64.675</ele>
        <time>2018-08-25T17:14:24Z</time>
      </trkpt>
      <trkpt lat="42.734994" lon="-8.661626">
        <ele>64.528</ele>
        <time>2018-08-25T17:14:26Z</time>
      </trkpt>
      <trkpt lat="42.735057" lon="-8.661600">
        <ele>64.220</ele>
        <time>2018-08-25T17:14:28Z</time>
      </trkpt>
      <trkpt lat="42.735125" lon="-8.661573">
        <ele>63.908</ele>
        <time>2018-08-25T17:14:30Z</time>
      </trkpt>
      <trkpt lat="42.735189" lon="-8.661543">
        <ele>63.619</ele>
        <time>2018-08-25T17:14:32Z</time>
      </trkpt>
      <trkpt lat="42.735249" lon="-8.661512">
        <ele>63.585</ele>
        <time>2018-08-25T17:14:34Z</time>
      </trkpt>
      <trkpt lat="42.735306" lon="-8.661487">
        <ele>63.450</ele>
        <time>2018-08-25T17:14:36Z</time>
      </trkpt>
      <trkpt lat="42.735355" lon="-8.661483">
        <ele>63.364</ele>
        <time>2018-08-25T17:14:38Z</time>
      </trkpt>
      <trkpt lat="42.735415" lon="-8.661478">
        <ele>62.721</ele>
        <time>2018-08-25T17:14:41Z</time>
      </trkpt>
      <trkpt lat="42.735479" lon="-8.661478">
        <ele>60.689</ele>
        <time>2018-08-25T17:14:44Z</time>
      </trkpt>
      <trkpt lat="42.735532" lon="-8.661472">
        <ele>58.997</ele>
        <time>2018-08-25T17:14:46Z</time>
      </trkpt>
      <trkpt lat="42.735594" lon="-8.661460">
        <ele>57.747</ele>
        <time>2018-08-25T17:14:48Z</time>
      </trkpt>
      <trkpt lat="42.735663" lon="-8.661442">
        <ele>56.976</ele>
        <time>2018-08-25T17:14:50Z</time>
      </trkpt>
      <trkpt lat="42.735727" lon="-8.661428">
        <ele>56.290</ele>
        <time>2018-08-25T17:14:52Z</time>
      </trkpt>
      <trkpt lat="42.735791" lon="-8.661417">
        <ele>55.719</ele>
        <time>2018-08-25T17:14:54Z</time>
      </trkpt>
      <trkpt lat="42.735856" lon="-8.661405">
        <ele>55.608</ele>
        <time>2018-08-25T17:14:56Z</time>
      </trkpt>
      <trkpt lat="42.735915" lon="-8.661391">
        <ele>55.519</ele>
        <time>2018-08-25T17:14:58Z</time>
      </trkpt>
      <trkpt lat="42.735976" lon="-8.661388">
        <ele>55.285</ele>
        <time>2018-08-25T17:15:00Z</time>
      </trkpt>
      <trkpt lat="42.736041" lon="-8.661395">
        <ele>54.920</ele>
        <time>2018-08-25T17:15:02Z</time>
      </trkpt>
      <trkpt lat="42.736104" lon="-8.661403">
        <ele>54.434</ele>
        <time>2018-08-25T17:15:04Z</time>
      </trkpt>
      <trkpt lat="42.736165" lon="-8.661401">
        <ele>53.821</ele>
        <time>2018-08-25T17:15:06Z</time>
      </trkpt>
      <trkpt lat="42.736222" lon="-8.661398">
        <ele>53.259</ele>
        <time>2018-08-25T17:15:08Z</time>
      </trkpt>
      <trkpt lat="42.736273" lon="-8.661391">
        <ele>52.777</ele>
        <time>2018-08-25T17:15:10Z</time>
      </trkpt>
      <trkpt lat="42.736324" lon="-8.661379">
        <ele>52.317</ele>
        <time>2018-08-25T17:15:12Z</time>
      </trkpt>
      <trkpt lat="42.736381" lon="-8.661375">
        <ele>51.568</ele>
        <time>2018-08-25T17:15:14Z</time>
      </trkpt>
      <trkpt lat="42.736436" lon="-8.661381">
        <ele>50.442</ele>
        <time>2018-08-25T17:15:16Z</time>
      </trkpt>
      <trkpt lat="42.736487" lon="-8.661386">
        <ele>49.226</ele>
        <time>2018-08-25T17:15:18Z</time>
      </trkpt>
      <trkpt lat="42.736535" lon="-8.661388">
        <ele>48.108</ele>
        <time>2018-08-25T17:15:20Z</time>
      </trkpt>
      <trkpt lat="42.736581" lon="-8.661394">
        <ele>47.578</ele>
        <time>2018-08-25T17:15:22Z</time>
      </trkpt>
      <trkpt lat="42.736626" lon="-8.661400">
        <ele>47.154</ele>
        <time>2018-08-25T17:15:24Z</time>
      </trkpt>
      <trkpt lat="42.736678" lon="-8.661403">
        <ele>46.999</ele>
        <time>2018-08-25T17:15:26Z</time>
      </trkpt>
      <trkpt lat="42.736731" lon="-8.661412">
        <ele>46.793</ele>
        <time>2018-08-25T17:15:28Z</time>
      </trkpt>
      <trkpt lat="42.736788" lon="-8.661418">
        <ele>46.610</ele>
        <time>2018-08-25T17:15:30Z</time>
      </trkpt>
      <trkpt lat="42.736841" lon="-8.661418">
        <ele>46.568</ele>
        <time>2018-08-25T17:15:32Z</time>
      </trkpt>
      <trkpt lat="42.736890" lon="-8.661420">
        <ele>46.616</ele>
        <time>2018-08-25T17:15:34Z</time>
      </trkpt>
      <trkpt lat="42.736951" lon="-8.661426">
        <ele>46.756</ele>
        <time>2018-08-25T17:15:37Z</time>
      </trkpt>
      <trkpt lat="42.737004" lon="-8.661421">
        <ele>46.867</ele>
        <time>2018-08-25T17:15:40Z</time>
      </trkpt>
      <trkpt lat="42.737061" lon="-8.661415">
        <ele>46.481</ele>
        <time>2018-08-25T17:15:43Z</time>
      </trkpt>
      <trkpt lat="42.737125" lon="-8.661419">
        <ele>46.419</ele>
        <time>2018-08-25T17:15:46Z</time>
      </trkpt>
      <trkpt lat="42.737178" lon="-8.661468">
        <ele>47.208</ele>
        <time>2018-08-25T17:15:49Z</time>
      </trkpt>
      <trkpt lat="42.737218" lon="-8.661499">
        <ele>47.758</ele>
        <time>2018-08-25T17:15:51Z</time>
      </trkpt>
      <trkpt lat="42.737265" lon="-8.661522">
        <ele>47.984</ele>
        <time>2018-08-25T17:15:53Z</time>
      </trkpt>
      <trkpt lat="42.737316" lon="-8.661529">
        <ele>48.019</ele>
        <time>2018-08-25T17:15:55Z</time>
      </trkpt>
      <trkpt lat="42.737377" lon="-8.661536">
        <ele>47.893</ele>
        <time>2018-08-25T17:15:57Z</time>
      </trkpt>
      <trkpt lat="42.737426" lon="-8.661540">
        <ele>47.060</ele>
        <time>2018-08-25T17:15:59Z</time>
      </trkpt>
      <trkpt lat="42.737472" lon="-8.661546">
        <ele>46.078</ele>
        <time>2018-08-25T17:16:01Z</time>
      </trkpt>
      <trkpt lat="42.737521" lon="-8.661548">
        <ele>45.386</ele>
        <time>2018-08-25T17:16:03Z</time>
      </trkpt>
      <trkpt lat="42.737590" lon="-8.661555">
        <ele>45.396</ele>
        <time>2018-08-25T17:16:05Z</time>
      </trkpt>
      <trkpt lat="42.737654" lon="-8.661565">
        <ele>45.222</ele>
        <time>2018-08-25T17:16:07Z</time>
      </trkpt>
      <trkpt lat="42.737725" lon="-8.661577">
        <ele>45.262</ele>
        <time>2018-08-25T17:16:09Z</time>
      </trkpt>
      <trkpt lat="42.737794" lon="-8.661580">
        <ele>45.308</ele>
        <time>2018-08-25T17:16:11Z</time>
      </trkpt>
      <trkpt lat="42.737863" lon="-8.661574">
        <ele>46.208</ele>
        <time>2018-08-25T17:16:13Z</time>
      </trkpt>
      <trkpt lat="42.737923" lon="-8.661572">
        <ele>46.714</ele>
        <time>2018-08-25T17:16:15Z</time>
      </trkpt>
      <trkpt lat="42.737991" lon="-8.661570">
        <ele>47.670</ele>
        <time>2018-08-25T17:16:17Z</time>
      </trkpt>
      <trkpt lat="42.738059" lon="-8.661575">
        <ele>48.665</ele>
        <time>2018-08-25T17:16:19Z</time>
      </trkpt>
      <trkpt lat="42.738123" lon="-8.661583">
        <ele>49.619</ele>
        <time>2018-08-25T17:16:21Z</time>
      </trkpt>
      <trkpt lat="42.738181" lon="-8.661596">
        <ele>50.426</ele>
        <time>2018-08-25T17:16:23Z</time>
      </trkpt>
      <trkpt lat="42.738241" lon="-8.661598">
        <ele>51.324</ele>
        <time>2018-08-25T17:16:25Z</time>
      </trkpt>
      <trkpt lat="42.738304" lon="-8.661595">
        <ele>52.472</ele>
        <time>2018-08-25T17:16:27Z</time>
      </trkpt>
      <trkpt lat="42.738373" lon="-8.661598">
        <ele>53.542</ele>
        <time>2018-08-25T17:16:29Z</time>
      </trkpt>
      <trkpt lat="42.738445" lon="-8.661591">
        <ele>54.976</ele>
        <time>2018-08-25T17:16:31Z</time>
      </trkpt>
      <trkpt lat="42.738515" lon="-8.661585">
        <ele>56.490</ele>
        <time>2018-08-25T17:16:33Z</time>
      </trkpt>
      <trkpt lat="42.738579" lon="-8.661584">
        <ele>57.919</ele>
        <time>2018-08-25T17:16:35Z</time>
      </trkpt>
      <trkpt lat="42.738636" lon="-8.661589">
        <ele>59.308</ele>
        <time>2018-08-25T17:16:37Z</time>
      </trkpt>
      <trkpt lat="42.738685" lon="-8.661598">
        <ele>60.689</ele>
        <time>2018-08-25T17:16:39Z</time>
      </trkpt>
      <trkpt lat="42.738735" lon="-8.661606">
        <ele>61.825</ele>
        <time>2018-08-25T17:16:41Z</time>
      </trkpt>
      <trkpt lat="42.738786" lon="-8.661594">
        <ele>61.250</ele>
        <time>2018-08-25T17:16:43Z</time>
      </trkpt>
      <trkpt lat="42.738843" lon="-8.661549">
        <ele>59.544</ele>
        <time>2018-08-25T17:16:45Z</time>
      </trkpt>
      <trkpt lat="42.738902" lon="-8.661498">
        <ele>57.891</ele>
        <time>2018-08-25T17:16:47Z</time>
      </trkpt>
      <trkpt lat="42.738964" lon="-8.661454">
        <ele>57.489</ele>
        <time>2018-08-25T17:16:49Z</time>
      </trkpt>
      <trkpt lat="42.739030" lon="-8.661427">
        <ele>57.117</ele>
        <time>2018-08-25T17:16:51Z</time>
      </trkpt>
      <trkpt lat="42.739093" lon="-8.661412">
        <ele>57.057</ele>
        <time>2018-08-25T17:16:53Z</time>
      </trkpt>
      <trkpt lat="42.739144" lon="-8.661406">
        <ele>56.683</ele>
        <time>2018-08-25T17:16:55Z</time>
      </trkpt>
      <trkpt lat="42.739192" lon="-8.661409">
        <ele>56.825</ele>
        <time>2018-08-25T17:16:57Z</time>
      </trkpt>
      <trkpt lat="42.739237" lon="-8.661417">
        <ele>57.817</ele>
        <time>2018-08-25T17:16:59Z</time>
      </trkpt>
      <trkpt lat="42.739302" lon="-8.661423">
        <ele>59.708</ele>
        <time>2018-08-25T17:17:02Z</time>
      </trkpt>
      <trkpt lat="42.739350" lon="-8.661428">
        <ele>60.890</ele>
        <time>2018-08-25T17:17:04Z</time>
      </trkpt>
      <trkpt lat="42.739404" lon="-8.661437">
        <ele>61.416</ele>
        <time>2018-08-25T17:17:06Z</time>
      </trkpt>
      <trkpt lat="42.739456" lon="-8.661454">
        <ele>61.891</ele>
        <time>2018-08-25T17:17:08Z</time>
      </trkpt>
      <trkpt lat="42.739515" lon="-8.661464">
        <ele>61.925</ele>
        <time>2018-08-25T17:17:10Z</time>
      </trkpt>
      <trkpt lat="42.739577" lon="-8.661453">
        <ele>62.382</ele>
        <time>2018-08-25T17:17:12Z</time>
      </trkpt>
      <trkpt lat="42.739614" lon="-8.661402">
        <ele>62.910</ele>
        <time>2018-08-25T17:17:14Z</time>
      </trkpt>
      <trkpt lat="42.739633" lon="-8.661338">
        <ele>63.548</ele>
        <time>2018-08-25T17:17:16Z</time>
      </trkpt>
      <trkpt lat="42.739638" lon="-8.661270">
        <ele>63.838</ele>
        <time>2018-08-25T17:17:18Z</time>
      </trkpt>
      <trkpt lat="42.739637" lon="-8.661202">
        <ele>63.393</ele>
        <time>2018-08-25T17:17:20Z</time>
      </trkpt>
      <trkpt lat="42.739639" lon="-8.661130">
        <ele>62.465</ele>
        <time>2018-08-25T17:17:22Z</time>
      </trkpt>
      <trkpt lat="42.739648" lon="-8.661059">
        <ele>62.321</ele>
        <time>2018-08-25T17:17:24Z</time>
      </trkpt>
      <trkpt lat="42.739668" lon="-8.660990">
        <ele>62.108</ele>
        <time>2018-08-25T17:17:26Z</time>
      </trkpt>
      <trkpt lat="42.739702" lon="-8.660914">
        <ele>61.721</ele>
        <time>2018-08-25T17:17:28Z</time>
      </trkpt>
      <trkpt lat="42.739753" lon="-8.660841">
        <ele>60.537</ele>
        <time>2018-08-25T17:17:30Z</time>
      </trkpt>
      <trkpt lat="42.739798" lon="-8.660787">
        <ele>59.682</ele>
        <time>2018-08-25T17:17:32Z</time>
      </trkpt>
      <trkpt lat="42.739835" lon="-8.660749">
        <ele>58.126</ele>
        <time>2018-08-25T17:17:34Z</time>
      </trkpt>
      <trkpt lat="42.739874" lon="-8.660713">
        <ele>56.983</ele>
        <time>2018-08-25T17:17:36Z</time>
      </trkpt>
      <trkpt lat="42.739922" lon="-8.660684">
        <ele>55.761</ele>
        <time>2018-08-25T17:17:38Z</time>
      </trkpt>
      <trkpt lat="42.739978" lon="-8.660651">
        <ele>54.269</ele>
        <time>2018-08-25T17:17:40Z</time>
      </trkpt>
      <trkpt lat="42.740011" lon="-8.660598">
        <ele>52.989</ele>
        <time>2018-08-25T17:17:42Z</time>
      </trkpt>
      <trkpt lat="42.740026" lon="-8.660521">
        <ele>51.683</ele>
        <time>2018-08-25T17:17:44Z</time>
      </trkpt>
      <trkpt lat="42.740035" lon="-8.660443">
        <ele>50.325</ele>
        <time>2018-08-25T17:17:46Z</time>
      </trkpt>
      <trkpt lat="42.740035" lon="-8.660375">
        <ele>50.017</ele>
        <time>2018-08-25T17:17:48Z</time>
      </trkpt>
      <trkpt lat="42.740032" lon="-8.660298">
        <ele>50.308</ele>
        <time>2018-08-25T17:17:51Z</time>
      </trkpt>
      <trkpt lat="42.740066" lon="-8.660254">
        <ele>50.720</ele>
        <time>2018-08-25T17:17:55Z</time>
      </trkpt>
      <trkpt lat="42.740135" lon="-8.660239">
        <ele>51.276</ele>
        <time>2018-08-25T17:17:58Z</time>
      </trkpt>
      <trkpt lat="42.740195" lon="-8.660229">
        <ele>51.311</ele>
        <time>2018-08-25T17:18:00Z</time>
      </trkpt>
      <trkpt lat="42.740254" lon="-8.660207">
        <ele>51.495</ele>
        <time>2018-08-25T17:18:02Z</time>
      </trkpt>
      <trkpt lat="42.740312" lon="-8.660171">
        <ele>51.382</ele>
        <time>2018-08-25T17:18:04Z</time>
      </trkpt>
      <trkpt lat="42.740374" lon="-8.660127">
        <ele>51.880</ele>
        <time>2018-08-25T17:18:06Z</time>
      </trkpt>
      <trkpt lat="42.740438" lon="-8.660075">
        <ele>52.688</ele>
        <time>2018-08-25T17:18:08Z</time>
      </trkpt>
      <trkpt lat="42.740479" lon="-8.660024">
        <ele>54.688</ele>
        <time>2018-08-25T17:18:10Z</time>
      </trkpt>
      <trkpt lat="42.740520" lon="-8.659982">
        <ele>56.224</ele>
        <time>2018-08-25T17:18:12Z</time>
      </trkpt>
      <trkpt lat="42.740568" lon="-8.659945">
        <ele>57.304</ele>
        <time>2018-08-25T17:18:14Z</time>
      </trkpt>
      <trkpt lat="42.740633" lon="-8.659883">
        <ele>58.114</ele>
        <time>2018-08-25T17:18:16Z</time>
      </trkpt>
      <trkpt lat="42.740695" lon="-8.659819">
        <ele>58.708</ele>
        <time>2018-08-25T17:18:18Z</time>
      </trkpt>
      <trkpt lat="42.740750" lon="-8.659749">
        <ele>59.094</ele>
        <time>2018-08-25T17:18:20Z</time>
      </trkpt>
      <trkpt lat="42.740808" lon="-8.659684">
        <ele>59.250</ele>
        <time>2018-08-25T17:18:22Z</time>
      </trkpt>
      <trkpt lat="42.740862" lon="-8.659633">
        <ele>58.975</ele>
        <time>2018-08-25T17:18:24Z</time>
      </trkpt>
      <trkpt lat="42.740916" lon="-8.659594">
        <ele>58.729</ele>
        <time>2018-08-25T17:18:26Z</time>
      </trkpt>
      <trkpt lat="42.740975" lon="-8.659556">
        <ele>58.816</ele>
        <time>2018-08-25T17:18:28Z</time>
      </trkpt>
      <trkpt lat="42.741025" lon="-8.659520">
        <ele>58.924</ele>
        <time>2018-08-25T17:18:30Z</time>
      </trkpt>
      <trkpt lat="42.741070" lon="-8.659482">
        <ele>59.232</ele>
        <time>2018-08-25T17:18:32Z</time>
      </trkpt>
      <trkpt lat="42.741124" lon="-8.659450">
        <ele>59.642</ele>
        <time>2018-08-25T17:18:34Z</time>
      </trkpt>
      <trkpt lat="42.741186" lon="-8.659428">
        <ele>60.381</ele>
        <time>2018-08-25T17:18:36Z</time>
      </trkpt>
      <trkpt lat="42.741265" lon="-8.659411">
        <ele>61.061</ele>
        <time>2018-08-25T17:18:37Z</time>
      </trkpt>
      <trkpt lat="42.741325" lon="-8.659398">
        <ele>61.817</ele>
        <time>2018-08-25T17:18:39Z</time>
      </trkpt>
      <trkpt lat="42.741378" lon="-8.659390">
        <ele>62.608</ele>
        <time>2018-08-25T17:18:41Z</time>
      </trkpt>
      <trkpt lat="42.741439" lon="-8.659373">
        <ele>63.030</ele>
        <time>2018-08-25T17:18:43Z</time>
      </trkpt>
      <trkpt lat="42.741556" lon="-8.659347">
        <ele>63.376</ele>
        <time>2018-08-25T17:18:45Z</time>
      </trkpt>
      <trkpt lat="42.741633" lon="-8.659322">
        <ele>63.611</ele>
        <time>2018-08-25T17:18:47Z</time>
      </trkpt>
      <trkpt lat="42.741693" lon="-8.659288">
        <ele>63.835</ele>
        <time>2018-08-25T17:18:49Z</time>
      </trkpt>
      <trkpt lat="42.741744" lon="-8.659263">
        <ele>64.092</ele>
        <time>2018-08-25T17:18:51Z</time>
      </trkpt>
      <trkpt lat="42.741813" lon="-8.659227">
        <ele>64.180</ele>
        <time>2018-08-25T17:18:52Z</time>
      </trkpt>
      <trkpt lat="42.741863" lon="-8.659178">
        <ele>64.218</ele>
        <time>2018-08-25T17:18:54Z</time>
      </trkpt>
      <trkpt lat="42.741907" lon="-8.659128">
        <ele>64.218</ele>
        <time>2018-08-25T17:18:56Z</time>
      </trkpt>
      <trkpt lat="42.741955" lon="-8.659073">
        <ele>64.219</ele>
        <time>2018-08-25T17:18:58Z</time>
      </trkpt>
      <trkpt lat="42.742000" lon="-8.659012">
        <ele>64.109</ele>
        <time>2018-08-25T17:19:00Z</time>
      </trkpt>
      <trkpt lat="42.742050" lon="-8.658953">
        <ele>64.119</ele>
        <time>2018-08-25T17:19:02Z</time>
      </trkpt>
      <trkpt lat="42.742105" lon="-8.658897">
        <ele>64.008</ele>
        <time>2018-08-25T17:19:04Z</time>
      </trkpt>
      <trkpt lat="42.742165" lon="-8.658841">
        <ele>63.973</ele>
        <time>2018-08-25T17:19:06Z</time>
      </trkpt>
      <trkpt lat="42.742238" lon="-8.658770">
        <ele>63.959</ele>
        <time>2018-08-25T17:19:07Z</time>
      </trkpt>
      <trkpt lat="42.742307" lon="-8.658715">
        <ele>64.154</ele>
        <time>2018-08-25T17:19:09Z</time>
      </trkpt>
      <trkpt lat="42.742354" lon="-8.658674">
        <ele>64.488</ele>
        <time>2018-08-25T17:19:11Z</time>
      </trkpt>
      <trkpt lat="42.742396" lon="-8.658638">
        <ele>64.675</ele>
        <time>2018-08-25T17:19:13Z</time>
      </trkpt>
      <trkpt lat="42.742444" lon="-8.658599">
        <ele>64.763</ele>
        <time>2018-08-25T17:19:15Z</time>
      </trkpt>
      <trkpt lat="42.742495" lon="-8.658562">
        <ele>64.741</ele>
        <time>2018-08-25T17:19:17Z</time>
      </trkpt>
      <trkpt lat="42.742549" lon="-8.658525">
        <ele>64.591</ele>
        <time>2018-08-25T17:19:19Z</time>
      </trkpt>
      <trkpt lat="42.742602" lon="-8.658483">
        <ele>64.289</ele>
        <time>2018-08-25T17:19:21Z</time>
      </trkpt>
      <trkpt lat="42.742656" lon="-8.658440">
        <ele>63.806</ele>
        <time>2018-08-25T17:19:23Z</time>
      </trkpt>
      <trkpt lat="42.742712" lon="-8.658403">
        <ele>63.626</ele>
        <time>2018-08-25T17:19:25Z</time>
      </trkpt>
      <trkpt lat="42.742783" lon="-8.658359">
        <ele>63.608</ele>
        <time>2018-08-25T17:19:26Z</time>
      </trkpt>
      <trkpt lat="42.742837" lon="-8.658321">
        <ele>64.180</ele>
        <time>2018-08-25T17:19:28Z</time>
      </trkpt>
      <trkpt lat="42.742876" lon="-8.658283">
        <ele>64.656</ele>
        <time>2018-08-25T17:19:30Z</time>
      </trkpt>
      <trkpt lat="42.742924" lon="-8.658246">
        <ele>64.931</ele>
        <time>2018-08-25T17:19:32Z</time>
      </trkpt>
      <trkpt lat="42.742985" lon="-8.658185">
        <ele>65.165</ele>
        <time>2018-08-25T17:19:33Z</time>
      </trkpt>
      <trkpt lat="42.743026" lon="-8.658113">
        <ele>65.212</ele>
        <time>2018-08-25T17:19:36Z</time>
      </trkpt>
      <trkpt lat="42.743058" lon="-8.658051">
        <ele>65.330</ele>
        <time>2018-08-25T17:19:38Z</time>
      </trkpt>
      <trkpt lat="42.743089" lon="-8.657974">
        <ele>65.148</ele>
        <time>2018-08-25T17:19:40Z</time>
      </trkpt>
      <trkpt lat="42.743132" lon="-8.657885">
        <ele>64.968</ele>
        <time>2018-08-25T17:19:41Z</time>
      </trkpt>
      <trkpt lat="42.743182" lon="-8.657813">
        <ele>65.026</ele>
        <time>2018-08-25T17:19:44Z</time>
      </trkpt>
      <trkpt lat="42.743241" lon="-8.657750">
        <ele>65.247</ele>
        <time>2018-08-25T17:19:45Z</time>
      </trkpt>
      <trkpt lat="42.743290" lon="-8.657671">
        <ele>65.011</ele>
        <time>2018-08-25T17:19:47Z</time>
      </trkpt>
      <trkpt lat="42.743360" lon="-8.657603">
        <ele>64.708</ele>
        <time>2018-08-25T17:19:49Z</time>
      </trkpt>
      <trkpt lat="42.743430" lon="-8.657544">
        <ele>64.684</ele>
        <time>2018-08-25T17:19:51Z</time>
      </trkpt>
      <trkpt lat="42.743492" lon="-8.657500">
        <ele>64.240</ele>
        <time>2018-08-25T17:19:54Z</time>
      </trkpt>
      <trkpt lat="42.743541" lon="-8.657473">
        <ele>64.065</ele>
        <time>2018-08-25T17:19:56Z</time>
      </trkpt>
      <trkpt lat="42.743593" lon="-8.657455">
        <ele>63.959</ele>
        <time>2018-08-25T17:19:58Z</time>
      </trkpt>
      <trkpt lat="42.743644" lon="-8.657444">
        <ele>63.896</ele>
        <time>2018-08-25T17:20:00Z</time>
      </trkpt>
      <trkpt lat="42.743695" lon="-8.657430">
        <ele>64.194</ele>
        <time>2018-08-25T17:20:02Z</time>
      </trkpt>
      <trkpt lat="42.743745" lon="-8.657421">
        <ele>64.522</ele>
        <time>2018-08-25T17:20:04Z</time>
      </trkpt>
      <trkpt lat="42.743792" lon="-8.657436">
        <ele>65.032</ele>
        <time>2018-08-25T17:20:07Z</time>
      </trkpt>
      <trkpt lat="42.743844" lon="-8.657445">
        <ele>65.278</ele>
        <time>2018-08-25T17:20:11Z</time>
      </trkpt>
      <trkpt lat="42.743902" lon="-8.657419">
        <ele>65.833</ele>
        <time>2018-08-25T17:20:13Z</time>
      </trkpt>
      <trkpt lat="42.743979" lon="-8.657358">
        <ele>66.326</ele>
        <time>2018-08-25T17:20:15Z</time>
      </trkpt>
      <trkpt lat="42.744021" lon="-8.657322">
        <ele>66.808</ele>
        <time>2018-08-25T17:20:16Z</time>
      </trkpt>
      <trkpt lat="42.744060" lon="-8.657288">
        <ele>67.129</ele>
        <time>2018-08-25T17:20:17Z</time>
      </trkpt>
      <trkpt lat="42.744132" lon="-8.657242">
        <ele>67.375</ele>
        <time>2018-08-25T17:20:19Z</time>
      </trkpt>
      <trkpt lat="42.744198" lon="-8.657211">
        <ele>67.130</ele>
        <time>2018-08-25T17:20:21Z</time>
      </trkpt>
      <trkpt lat="42.744254" lon="-8.657160">
        <ele>66.554</ele>
        <time>2018-08-25T17:20:23Z</time>
      </trkpt>
      <trkpt lat="42.744301" lon="-8.657092">
        <ele>65.421</ele>
        <time>2018-08-25T17:20:25Z</time>
      </trkpt>
      <trkpt lat="42.744342" lon="-8.657020">
        <ele>64.549</ele>
        <time>2018-08-25T17:20:27Z</time>
      </trkpt>
      <trkpt lat="42.744383" lon="-8.656944">
        <ele>63.857</ele>
        <time>2018-08-25T17:20:29Z</time>
      </trkpt>
      <trkpt lat="42.744423" lon="-8.656866">
        <ele>63.337</ele>
        <time>2018-08-25T17:20:31Z</time>
      </trkpt>
      <trkpt lat="42.744460" lon="-8.656784">
        <ele>62.976</ele>
        <time>2018-08-25T17:20:33Z</time>
      </trkpt>
      <trkpt lat="42.744497" lon="-8.656704">
        <ele>62.590</ele>
        <time>2018-08-25T17:20:35Z</time>
      </trkpt>
      <trkpt lat="42.744532" lon="-8.656632">
        <ele>62.119</ele>
        <time>2018-08-25T17:20:37Z</time>
      </trkpt>
      <trkpt lat="42.744557" lon="-8.656567">
        <ele>61.508</ele>
        <time>2018-08-25T17:20:39Z</time>
      </trkpt>
      <trkpt lat="42.744590" lon="-8.656498">
        <ele>61.089</ele>
        <time>2018-08-25T17:20:42Z</time>
      </trkpt>
      <trkpt lat="42.744625" lon="-8.656449">
        <ele>60.725</ele>
        <time>2018-08-25T17:20:46Z</time>
      </trkpt>
      <trkpt lat="42.744672" lon="-8.656416">
        <ele>60.380</ele>
        <time>2018-08-25T17:20:55Z</time>
      </trkpt>
      <trkpt lat="42.744701" lon="-8.656355">
        <ele>60.014</ele>
        <time>2018-08-25T17:21:21Z</time>
      </trkpt>
      <trkpt lat="42.744719" lon="-8.656297">
        <ele>59.041</ele>
        <time>2018-08-25T17:21:23Z</time>
      </trkpt>
      <trkpt lat="42.744744" lon="-8.656222">
        <ele>58.149</ele>
        <time>2018-08-25T17:21:25Z</time>
      </trkpt>
      <trkpt lat="42.744779" lon="-8.656144">
        <ele>57.357</ele>
        <time>2018-08-25T17:21:27Z</time>
      </trkpt>
      <trkpt lat="42.744813" lon="-8.656064">
        <ele>56.727</ele>
        <time>2018-08-25T17:21:29Z</time>
      </trkpt>
      <trkpt lat="42.744850" lon="-8.655980">
        <ele>56.398</ele>
        <time>2018-08-25T17:21:31Z</time>
      </trkpt>
      <trkpt lat="42.744891" lon="-8.655902">
        <ele>55.915</ele>
        <time>2018-08-25T17:21:33Z</time>
      </trkpt>
      <trkpt lat="42.744937" lon="-8.655834">
        <ele>55.426</ele>
        <time>2018-08-25T17:21:35Z</time>
      </trkpt>
      <trkpt lat="42.745026" lon="-8.655725">
        <ele>55.008</ele>
        <time>2018-08-25T17:21:37Z</time>
      </trkpt>
      <trkpt lat="42.745087" lon="-8.655661">
        <ele>54.821</ele>
        <time>2018-08-25T17:21:39Z</time>
      </trkpt>
      <trkpt lat="42.745140" lon="-8.655582">
        <ele>55.087</ele>
        <time>2018-08-25T17:21:41Z</time>
      </trkpt>
      <trkpt lat="42.745166" lon="-8.655528">
        <ele>55.172</ele>
        <time>2018-08-25T17:21:43Z</time>
      </trkpt>
      <trkpt lat="42.745196" lon="-8.655451">
        <ele>55.246</ele>
        <time>2018-08-25T17:21:45Z</time>
      </trkpt>
      <trkpt lat="42.745231" lon="-8.655370">
        <ele>55.763</ele>
        <time>2018-08-25T17:21:47Z</time>
      </trkpt>
      <trkpt lat="42.745264" lon="-8.655289">
        <ele>56.281</ele>
        <time>2018-08-25T17:21:49Z</time>
      </trkpt>
      <trkpt lat="42.745302" lon="-8.655213">
        <ele>56.529</ele>
        <time>2018-08-25T17:21:51Z</time>
      </trkpt>
      <trkpt lat="42.745341" lon="-8.655143">
        <ele>56.649</ele>
        <time>2018-08-25T17:21:53Z</time>
      </trkpt>
      <trkpt lat="42.745381" lon="-8.655072">
        <ele>56.759</ele>
        <time>2018-08-25T17:21:55Z</time>
      </trkpt>
      <trkpt lat="42.745420" lon="-8.654994">
        <ele>56.703</ele>
        <time>2018-08-25T17:21:57Z</time>
      </trkpt>
      <trkpt lat="42.745449" lon="-8.654912">
        <ele>56.723</ele>
        <time>2018-08-25T17:21:59Z</time>
      </trkpt>
      <trkpt lat="42.745471" lon="-8.654836">
        <ele>56.708</ele>
        <time>2018-08-25T17:22:01Z</time>
      </trkpt>
      <trkpt lat="42.745491" lon="-8.654762">
        <ele>56.887</ele>
        <time>2018-08-25T17:22:03Z</time>
      </trkpt>
      <trkpt lat="42.745514" lon="-8.654688">
        <ele>56.973</ele>
        <time>2018-08-25T17:22:05Z</time>
      </trkpt>
      <trkpt lat="42.745538" lon="-8.654617">
        <ele>56.888</ele>
        <time>2018-08-25T17:22:07Z</time>
      </trkpt>
      <trkpt lat="42.745550" lon="-8.654547">
        <ele>56.712</ele>
        <time>2018-08-25T17:22:09Z</time>
      </trkpt>
      <trkpt lat="42.745553" lon="-8.654470">
        <ele>56.569</ele>
        <time>2018-08-25T17:22:11Z</time>
      </trkpt>
      <trkpt lat="42.745559" lon="-8.654358">
        <ele>56.387</ele>
        <time>2018-08-25T17:22:12Z</time>
      </trkpt>
      <trkpt lat="42.745566" lon="-8.654235">
        <ele>56.045</ele>
        <time>2018-08-25T17:22:14Z</time>
      </trkpt>
      <trkpt lat="42.745571" lon="-8.654161">
        <ele>55.635</ele>
        <time>2018-08-25T17:22:15Z</time>
      </trkpt>
      <trkpt lat="42.745579" lon="-8.654078">
        <ele>55.358</ele>
        <time>2018-08-25T17:22:16Z</time>
      </trkpt>
      <trkpt lat="42.745592" lon="-8.653987">
        <ele>55.152</ele>
        <time>2018-08-25T17:22:17Z</time>
      </trkpt>
      <trkpt lat="42.745613" lon="-8.653900">
        <ele>54.917</ele>
        <time>2018-08-25T17:22:18Z</time>
      </trkpt>
      <trkpt lat="42.745643" lon="-8.653821">
        <ele>55.008</ele>
        <time>2018-08-25T17:22:19Z</time>
      </trkpt>
      <trkpt lat="42.745671" lon="-8.653761">
        <ele>55.427</ele>
        <time>2018-08-25T17:22:20Z</time>
      </trkpt>
      <trkpt lat="42.745709" lon="-8.653691">
        <ele>56.183</ele>
        <time>2018-08-25T17:22:23Z</time>
      </trkpt>
      <trkpt lat="42.745744" lon="-8.653636">
        <ele>56.128</ele>
        <time>2018-08-25T17:22:27Z</time>
      </trkpt>
      <trkpt lat="42.745773" lon="-8.653583">
        <ele>56.682</ele>
        <time>2018-08-25T17:22:30Z</time>
      </trkpt>
      <trkpt lat="42.745812" lon="-8.653537">
        <ele>57.479</ele>
        <time>2018-08-25T17:22:33Z</time>
      </trkpt>
      <trkpt lat="42.745848" lon="-8.653493">
        <ele>58.517</ele>
        <time>2018-08-25T17:22:36Z</time>
      </trkpt>
      <trkpt lat="42.745889" lon="-8.653438">
        <ele>59.975</ele>
        <time>2018-08-25T17:22:40Z</time>
      </trkpt>
      <trkpt lat="42.745929" lon="-8.653395">
        <ele>61.065</ele>
        <time>2018-08-25T17:22:43Z</time>
      </trkpt>
      <trkpt lat="42.745972" lon="-8.653330">
        <ele>61.754</ele>
        <time>2018-08-25T17:22:46Z</time>
      </trkpt>
      <trkpt lat="42.746027" lon="-8.653280">
        <ele>62.456</ele>
        <time>2018-08-25T17:22:49Z</time>
      </trkpt>
      <trkpt lat="42.746076" lon="-8.653241">
        <ele>63.211</ele>
        <time>2018-08-25T17:22:52Z</time>
      </trkpt>
      <trkpt lat="42.746115" lon="-8.653208">
        <ele>63.808</ele>
        <time>2018-08-25T17:22:55Z</time>
      </trkpt>
      <trkpt lat="42.746152" lon="-8.653170">
        <ele>64.837</ele>
        <time>2018-08-25T17:23:39Z</time>
      </trkpt>
      <trkpt lat="42.746223" lon="-8.653110">
        <ele>66.173</ele>
        <time>2018-08-25T17:23:45Z</time>
      </trkpt>
      <trkpt lat="42.746223" lon="-8.653110">
        <ele>66.188</ele>
        <time>2018-08-25T17:23:45Z</time>
      </trkpt>
      <trkpt lat="42.746223" lon="-8.653110">
        <ele>66.192</ele>
        <time>2018-08-25T17:23:45Z</time>
      </trkpt>
      <trkpt lat="42.746223" lon="-8.653110">
        <ele>66.199</ele>
        <time>2018-08-25T17:23:45Z</time>
      </trkpt>
      <trkpt lat="42.746223" lon="-8.653110">
        <ele>66.187</ele>
        <time>2018-08-25T17:23:45Z</time>
      </trkpt>
      <trkpt lat="42.746277" lon="-8.653076">
        <ele>66.345</ele>
        <time>2018-08-25T17:23:48Z</time>
      </trkpt>
      <trkpt lat="42.746329" lon="-8.653044">
        <ele>66.595</ele>
        <time>2018-08-25T17:23:51Z</time>
      </trkpt>
      <trkpt lat="42.746388" lon="-8.653024">
        <ele>66.652</ele>
        <time>2018-08-25T17:23:54Z</time>
      </trkpt>
      <trkpt lat="42.746442" lon="-8.653003">
        <ele>66.553</ele>
        <time>2018-08-25T17:23:57Z</time>
      </trkpt>
      <trkpt lat="42.746484" lon="-8.652971">
        <ele>66.608</ele>
        <time>2018-08-25T17:24:00Z</time>
      </trkpt>
      <trkpt lat="42.746522" lon="-8.652930">
        <ele>66.708</ele>
        <time>2018-08-25T17:24:04Z</time>
      </trkpt>
      <trkpt lat="42.746576" lon="-8.652901">
        <ele>66.957</ele>
        <time>2018-08-25T17:24:07Z</time>
      </trkpt>
      <trkpt lat="42.746637" lon="-8.652887">
        <ele>67.583</ele>
        <time>2018-08-25T17:24:10Z</time>
      </trkpt>
      <trkpt lat="42.746691" lon="-8.652875">
        <ele>68.078</ele>
        <time>2018-08-25T17:24:13Z</time>
      </trkpt>
      <trkpt lat="42.746744" lon="-8.652839">
        <ele>68.332</ele>
        <time>2018-08-25T17:24:16Z</time>
      </trkpt>
      <trkpt lat="42.746802" lon="-8.652797">
        <ele>68.419</ele>
        <time>2018-08-25T17:24:19Z</time>
      </trkpt>
      <trkpt lat="42.746862" lon="-8.652783">
        <ele>68.437</ele>
        <time>2018-08-25T17:24:22Z</time>
      </trkpt>
      <trkpt lat="42.746907" lon="-8.652781">
        <ele>68.765</ele>
        <time>2018-08-25T17:24:24Z</time>
      </trkpt>
      <trkpt lat="42.746956" lon="-8.652782">
        <ele>69.095</ele>
        <time>2018-08-25T17:24:26Z</time>
      </trkpt>
      <trkpt lat="42.747005" lon="-8.652779">
        <ele>69.546</ele>
        <time>2018-08-25T17:24:28Z</time>
      </trkpt>
      <trkpt lat="42.747056" lon="-8.652778">
        <ele>70.088</ele>
        <time>2018-08-25T17:24:30Z</time>
      </trkpt>
      <trkpt lat="42.747112" lon="-8.652782">
        <ele>70.416</ele>
        <time>2018-08-25T17:24:32Z</time>
      </trkpt>
      <trkpt lat="42.747171" lon="-8.652793">
        <ele>70.708</ele>
        <time>2018-08-25T17:24:34Z</time>
      </trkpt>
      <trkpt lat="42.747233" lon="-8.652810">
        <ele>70.926</ele>
        <time>2018-08-25T17:24:36Z</time>
      </trkpt>
      <trkpt lat="42.747286" lon="-8.652831">
        <ele>71.352</ele>
        <time>2018-08-25T17:24:38Z</time>
      </trkpt>
      <trkpt lat="42.747340" lon="-8.652844">
        <ele>71.747</ele>
        <time>2018-08-25T17:24:40Z</time>
      </trkpt>
      <trkpt lat="42.747395" lon="-8.652845">
        <ele>72.131</ele>
        <time>2018-08-25T17:24:42Z</time>
      </trkpt>
      <trkpt lat="42.747477" lon="-8.652822">
        <ele>72.498</ele>
        <time>2018-08-25T17:24:43Z</time>
      </trkpt>
      <trkpt lat="42.747549" lon="-8.652771">
        <ele>72.746</ele>
        <time>2018-08-25T17:24:45Z</time>
      </trkpt>
      <trkpt lat="42.747644" lon="-8.652710">
        <ele>73.184</ele>
        <time>2018-08-25T17:24:48Z</time>
      </trkpt>
      <trkpt lat="42.747700" lon="-8.652684">
        <ele>73.434</ele>
        <time>2018-08-25T17:24:50Z</time>
      </trkpt>
      <trkpt lat="42.747743" lon="-8.652663">
        <ele>73.645</ele>
        <time>2018-08-25T17:24:52Z</time>
      </trkpt>
      <trkpt lat="42.747802" lon="-8.652628">
        <ele>73.847</ele>
        <time>2018-08-25T17:24:55Z</time>
      </trkpt>
      <trkpt lat="42.747863" lon="-8.652587">
        <ele>74.111</ele>
        <time>2018-08-25T17:24:58Z</time>
      </trkpt>
      <trkpt lat="42.747918" lon="-8.652549">
        <ele>74.408</ele>
        <time>2018-08-25T17:25:00Z</time>
      </trkpt>
      <trkpt lat="42.747974" lon="-8.652517">
        <ele>74.896</ele>
        <time>2018-08-25T17:25:02Z</time>
      </trkpt>
      <trkpt lat="42.748019" lon="-8.652491">
        <ele>75.392</ele>
        <time>2018-08-25T17:25:04Z</time>
      </trkpt>
      <trkpt lat="42.748074" lon="-8.652453">
        <ele>76.167</ele>
        <time>2018-08-25T17:25:07Z</time>
      </trkpt>
      <trkpt lat="42.748126" lon="-8.652410">
        <ele>77.111</ele>
        <time>2018-08-25T17:25:10Z</time>
      </trkpt>
      <trkpt lat="42.748175" lon="-8.652373">
        <ele>78.158</ele>
        <time>2018-08-25T17:25:13Z</time>
      </trkpt>
      <trkpt lat="42.748216" lon="-8.652339">
        <ele>78.756</ele>
        <time>2018-08-25T17:25:16Z</time>
      </trkpt>
      <trkpt lat="42.748258" lon="-8.652301">
        <ele>79.054</ele>
        <time>2018-08-25T17:25:19Z</time>
      </trkpt>
      <trkpt lat="42.748303" lon="-8.652259">
        <ele>79.664</ele>
        <time>2018-08-25T17:25:22Z</time>
      </trkpt>
      <trkpt lat="42.748350" lon="-8.652228">
        <ele>80.366</ele>
        <time>2018-08-25T17:25:26Z</time>
      </trkpt>
      <trkpt lat="42.748398" lon="-8.652238">
        <ele>81.129</ele>
        <time>2018-08-25T17:25:31Z</time>
      </trkpt>
      <trkpt lat="42.748460" lon="-8.652250">
        <ele>82.021</ele>
        <time>2018-08-25T17:25:35Z</time>
      </trkpt>
      <trkpt lat="42.748528" lon="-8.652255">
        <ele>82.808</ele>
        <time>2018-08-25T17:25:38Z</time>
      </trkpt>
      <trkpt lat="42.748573" lon="-8.652256">
        <ele>83.248</ele>
        <time>2018-08-25T17:25:40Z</time>
      </trkpt>
      <trkpt lat="42.748627" lon="-8.652269">
        <ele>83.954</ele>
        <time>2018-08-25T17:25:43Z</time>
      </trkpt>
      <trkpt lat="42.748673" lon="-8.652296">
        <ele>84.989</ele>
        <time>2018-08-25T17:25:47Z</time>
      </trkpt>
      <trkpt lat="42.748722" lon="-8.652318">
        <ele>85.243</ele>
        <time>2018-08-25T17:25:51Z</time>
      </trkpt>
      <trkpt lat="42.748771" lon="-8.652326">
        <ele>85.430</ele>
        <time>2018-08-25T17:25:54Z</time>
      </trkpt>
      <trkpt lat="42.748816" lon="-8.652370">
        <ele>85.768</ele>
        <time>2018-08-25T17:25:57Z</time>
      </trkpt>
      <trkpt lat="42.748836" lon="-8.652432">
        <ele>86.136</ele>
        <time>2018-08-25T17:25:59Z</time>
      </trkpt>
      <trkpt lat="42.748842" lon="-8.652507">
        <ele>86.396</ele>
        <time>2018-08-25T17:26:01Z</time>
      </trkpt>
      <trkpt lat="42.748834" lon="-8.652661">
        <ele>86.578</ele>
        <time>2018-08-25T17:26:03Z</time>
      </trkpt>
      <trkpt lat="42.748828" lon="-8.652787">
        <ele>86.533</ele>
        <time>2018-08-25T17:26:05Z</time>
      </trkpt>
      <trkpt lat="42.748818" lon="-8.652877">
        <ele>86.526</ele>
        <time>2018-08-25T17:26:06Z</time>
      </trkpt>
      <trkpt lat="42.748802" lon="-8.652979">
        <ele>86.408</ele>
        <time>2018-08-25T17:26:07Z</time>
      </trkpt>
      <trkpt lat="42.748791" lon="-8.653084">
        <ele>86.249</ele>
        <time>2018-08-25T17:26:08Z</time>
      </trkpt>
      <trkpt lat="42.748782" lon="-8.653188">
        <ele>86.035</ele>
        <time>2018-08-25T17:26:09Z</time>
      </trkpt>
      <trkpt lat="42.748773" lon="-8.653287">
        <ele>85.630</ele>
        <time>2018-08-25T17:26:10Z</time>
      </trkpt>
      <trkpt lat="42.748760" lon="-8.653378">
        <ele>85.294</ele>
        <time>2018-08-25T17:26:11Z</time>
      </trkpt>
      <trkpt lat="42.748752" lon="-8.653453">
        <ele>84.741</ele>
        <time>2018-08-25T17:26:12Z</time>
      </trkpt>
      <trkpt lat="42.748753" lon="-8.653520">
        <ele>83.779</ele>
        <time>2018-08-25T17:26:14Z</time>
      </trkpt>
      <trkpt lat="42.748775" lon="-8.653659">
        <ele>82.177</ele>
        <time>2018-08-25T17:26:16Z</time>
      </trkpt>
      <trkpt lat="42.748776" lon="-8.653771">
        <ele>80.947</ele>
        <time>2018-08-25T17:26:18Z</time>
      </trkpt>
      <trkpt lat="42.748782" lon="-8.653882">
        <ele>79.884</ele>
        <time>2018-08-25T17:26:20Z</time>
      </trkpt>
      <trkpt lat="42.748776" lon="-8.654007">
        <ele>79.007</ele>
        <time>2018-08-25T17:26:22Z</time>
      </trkpt>
      <trkpt lat="42.748772" lon="-8.654075">
        <ele>78.517</ele>
        <time>2018-08-25T17:26:23Z</time>
      </trkpt>
      <trkpt lat="42.748768" lon="-8.654142">
        <ele>78.208</ele>
        <time>2018-08-25T17:26:24Z</time>
      </trkpt>
      <trkpt lat="42.748763" lon="-8.654209">
        <ele>78.330</ele>
        <time>2018-08-25T17:26:25Z</time>
      </trkpt>
      <trkpt lat="42.748760" lon="-8.654273">
        <ele>78.576</ele>
        <time>2018-08-25T17:26:26Z</time>
      </trkpt>
      <trkpt lat="42.748766" lon="-8.654388">
        <ele>78.361</ele>
        <time>2018-08-25T17:26:28Z</time>
      </trkpt>
      <trkpt lat="42.748791" lon="-8.654476">
        <ele>76.935</ele>
        <time>2018-08-25T17:26:31Z</time>
      </trkpt>
      <trkpt lat="42.748850" lon="-8.654519">
        <ele>75.252</ele>
        <time>2018-08-25T17:26:33Z</time>
      </trkpt>
      <trkpt lat="42.748929" lon="-8.654514">
        <ele>73.080</ele>
        <time>2018-08-25T17:26:35Z</time>
      </trkpt>
      <trkpt lat="42.749001" lon="-8.654481">
        <ele>71.048</ele>
        <time>2018-08-25T17:26:37Z</time>
      </trkpt>
      <trkpt lat="42.749059" lon="-8.654451">
        <ele>69.598</ele>
        <time>2018-08-25T17:26:39Z</time>
      </trkpt>
      <trkpt lat="42.749113" lon="-8.654428">
        <ele>68.114</ele>
        <time>2018-08-25T17:26:41Z</time>
      </trkpt>
      <trkpt lat="42.749170" lon="-8.654406">
        <ele>66.954</ele>
        <time>2018-08-25T17:26:43Z</time>
      </trkpt>
      <trkpt lat="42.749227" lon="-8.654387">
        <ele>65.509</ele>
        <time>2018-08-25T17:26:45Z</time>
      </trkpt>
      <trkpt lat="42.749289" lon="-8.654371">
        <ele>64.108</ele>
        <time>2018-08-25T17:26:47Z</time>
      </trkpt>
      <trkpt lat="42.749360" lon="-8.654357">
        <ele>62.653</ele>
        <time>2018-08-25T17:26:49Z</time>
      </trkpt>
      <trkpt lat="42.749428" lon="-8.654342">
        <ele>61.319</ele>
        <time>2018-08-25T17:26:51Z</time>
      </trkpt>
      <trkpt lat="42.749493" lon="-8.654327">
        <ele>60.374</ele>
        <time>2018-08-25T17:26:53Z</time>
      </trkpt>
      <trkpt lat="42.749555" lon="-8.654313">
        <ele>59.848</ele>
        <time>2018-08-25T17:26:55Z</time>
      </trkpt>
      <trkpt lat="42.749616" lon="-8.654299">
        <ele>59.675</ele>
        <time>2018-08-25T17:26:57Z</time>
      </trkpt>
      <trkpt lat="42.749678" lon="-8.654285">
        <ele>59.543</ele>
        <time>2018-08-25T17:26:59Z</time>
      </trkpt>
      <trkpt lat="42.749735" lon="-8.654268">
        <ele>59.541</ele>
        <time>2018-08-25T17:27:01Z</time>
      </trkpt>
      <trkpt lat="42.749785" lon="-8.654242">
        <ele>59.451</ele>
        <time>2018-08-25T17:27:03Z</time>
      </trkpt>
      <trkpt lat="42.749837" lon="-8.654211">
        <ele>59.614</ele>
        <time>2018-08-25T17:27:05Z</time>
      </trkpt>
      <trkpt lat="42.749885" lon="-8.654186">
        <ele>60.054</ele>
        <time>2018-08-25T17:27:07Z</time>
      </trkpt>
      <trkpt lat="42.749943" lon="-8.654153">
        <ele>60.809</ele>
        <time>2018-08-25T17:27:10Z</time>
      </trkpt>
      <trkpt lat="42.749997" lon="-8.654113">
        <ele>61.208</ele>
        <time>2018-08-25T17:27:13Z</time>
      </trkpt>
      <trkpt lat="42.750051" lon="-8.654083">
        <ele>61.693</ele>
        <time>2018-08-25T17:27:16Z</time>
      </trkpt>
      <trkpt lat="42.750106" lon="-8.654069">
        <ele>62.159</ele>
        <time>2018-08-25T17:27:19Z</time>
      </trkpt>
      <trkpt lat="42.750174" lon="-8.654046">
        <ele>62.594</ele>
        <time>2018-08-25T17:27:22Z</time>
      </trkpt>
      <trkpt lat="42.750228" lon="-8.654021">
        <ele>62.658</ele>
        <time>2018-08-25T17:27:24Z</time>
      </trkpt>
      <trkpt lat="42.750288" lon="-8.653995">
        <ele>62.495</ele>
        <time>2018-08-25T17:27:26Z</time>
      </trkpt>
      <trkpt lat="42.750349" lon="-8.653971">
        <ele>62.013</ele>
        <time>2018-08-25T17:27:28Z</time>
      </trkpt>
      <trkpt lat="42.750416" lon="-8.653947">
        <ele>61.861</ele>
        <time>2018-08-25T17:27:30Z</time>
      </trkpt>
      <trkpt lat="42.750478" lon="-8.653923">
        <ele>61.611</ele>
        <time>2018-08-25T17:27:32Z</time>
      </trkpt>
      <trkpt lat="42.750536" lon="-8.653900">
        <ele>61.319</ele>
        <time>2018-08-25T17:27:34Z</time>
      </trkpt>
      <trkpt lat="42.750593" lon="-8.653880">
        <ele>61.309</ele>
        <time>2018-08-25T17:27:36Z</time>
      </trkpt>
      <trkpt lat="42.750648" lon="-8.653865">
        <ele>61.419</ele>
        <time>2018-08-25T17:27:38Z</time>
      </trkpt>
      <trkpt lat="42.750703" lon="-8.653852">
        <ele>61.508</ele>
        <time>2018-08-25T17:27:40Z</time>
      </trkpt>
      <trkpt lat="42.750755" lon="-8.653844">
        <ele>61.943</ele>
        <time>2018-08-25T17:27:42Z</time>
      </trkpt>
      <trkpt lat="42.750805" lon="-8.653839">
        <ele>62.549</ele>
        <time>2018-08-25T17:27:44Z</time>
      </trkpt>
      <trkpt lat="42.750856" lon="-8.653830">
        <ele>63.154</ele>
        <time>2018-08-25T17:27:46Z</time>
      </trkpt>
      <trkpt lat="42.750910" lon="-8.653811">
        <ele>63.758</ele>
        <time>2018-08-25T17:27:48Z</time>
      </trkpt>
      <trkpt lat="42.750968" lon="-8.653785">
        <ele>64.285</ele>
        <time>2018-08-25T17:27:50Z</time>
      </trkpt>
      <trkpt lat="42.751028" lon="-8.653751">
        <ele>64.613</ele>
        <time>2018-08-25T17:27:52Z</time>
      </trkpt>
      <trkpt lat="42.751083" lon="-8.653717">
        <ele>65.121</ele>
        <time>2018-08-25T17:27:54Z</time>
      </trkpt>
      <trkpt lat="42.751131" lon="-8.653690">
        <ele>65.941</ele>
        <time>2018-08-25T17:27:56Z</time>
      </trkpt>
      <trkpt lat="42.751188" lon="-8.653661">
        <ele>67.054</ele>
        <time>2018-08-25T17:27:58Z</time>
      </trkpt>
      <trkpt lat="42.751246" lon="-8.653634">
        <ele>68.256</ele>
        <time>2018-08-25T17:28:00Z</time>
      </trkpt>
      <trkpt lat="42.751298" lon="-8.653611">
        <ele>69.311</ele>
        <time>2018-08-25T17:28:02Z</time>
      </trkpt>
      <trkpt lat="42.751351" lon="-8.653590">
        <ele>70.308</ele>
        <time>2018-08-25T17:28:04Z</time>
      </trkpt>
      <trkpt lat="42.751402" lon="-8.653573">
        <ele>70.967</ele>
        <time>2018-08-25T17:28:06Z</time>
      </trkpt>
      <trkpt lat="42.751451" lon="-8.653555">
        <ele>71.573</ele>
        <time>2018-08-25T17:28:08Z</time>
      </trkpt>
      <trkpt lat="42.751500" lon="-8.653534">
        <ele>71.998</ele>
        <time>2018-08-25T17:28:10Z</time>
      </trkpt>
      <trkpt lat="42.751548" lon="-8.653514">
        <ele>72.492</ele>
        <time>2018-08-25T17:28:12Z</time>
      </trkpt>
      <trkpt lat="42.751599" lon="-8.653501">
        <ele>73.289</ele>
        <time>2018-08-25T17:28:14Z</time>
      </trkpt>
      <trkpt lat="42.751651" lon="-8.653490">
        <ele>74.037</ele>
        <time>2018-08-25T17:28:16Z</time>
      </trkpt>
      <trkpt lat="42.751699" lon="-8.653478">
        <ele>74.655</ele>
        <time>2018-08-25T17:28:18Z</time>
      </trkpt>
      <trkpt lat="42.751764" lon="-8.653465">
        <ele>75.085</ele>
        <time>2018-08-25T17:28:21Z</time>
      </trkpt>
      <trkpt lat="42.751810" lon="-8.653448">
        <ele>75.056</ele>
        <time>2018-08-25T17:28:23Z</time>
      </trkpt>
      <trkpt lat="42.751870" lon="-8.653423">
        <ele>75.159</ele>
        <time>2018-08-25T17:28:25Z</time>
      </trkpt>
      <trkpt lat="42.751942" lon="-8.653385">
        <ele>74.614</ele>
        <time>2018-08-25T17:28:27Z</time>
      </trkpt>
      <trkpt lat="42.752015" lon="-8.653342">
        <ele>74.108</ele>
        <time>2018-08-25T17:28:29Z</time>
      </trkpt>
      <trkpt lat="42.752103" lon="-8.653292">
        <ele>73.757</ele>
        <time>2018-08-25T17:28:30Z</time>
      </trkpt>
      <trkpt lat="42.752161" lon="-8.653261">
        <ele>73.423</ele>
        <time>2018-08-25T17:28:32Z</time>
      </trkpt>
      <trkpt lat="42.752217" lon="-8.653232">
        <ele>73.088</ele>
        <time>2018-08-25T17:28:33Z</time>
      </trkpt>
      <trkpt lat="42.752300" lon="-8.653193">
        <ele>72.752</ele>
        <time>2018-08-25T17:28:35Z</time>
      </trkpt>
      <trkpt lat="42.752381" lon="-8.653160">
        <ele>72.549</ele>
        <time>2018-08-25T17:28:37Z</time>
      </trkpt>
      <trkpt lat="42.752464" lon="-8.653125">
        <ele>72.337</ele>
        <time>2018-08-25T17:28:39Z</time>
      </trkpt>
      <trkpt lat="42.752540" lon="-8.653089">
        <ele>72.025</ele>
        <time>2018-08-25T17:28:41Z</time>
      </trkpt>
      <trkpt lat="42.752617" lon="-8.653063">
        <ele>71.885</ele>
        <time>2018-08-25T17:28:43Z</time>
      </trkpt>
      <trkpt lat="42.752661" lon="-8.653048">
        <ele>71.717</ele>
        <time>2018-08-25T17:28:45Z</time>
      </trkpt>
      <trkpt lat="42.752725" lon="-8.653026">
        <ele>71.687</ele>
        <time>2018-08-25T17:28:46Z</time>
      </trkpt>
      <trkpt lat="42.752782" lon="-8.653003">
        <ele>71.315</ele>
        <time>2018-08-25T17:28:48Z</time>
      </trkpt>
      <trkpt lat="42.752833" lon="-8.652980">
        <ele>71.008</ele>
        <time>2018-08-25T17:28:50Z</time>
      </trkpt>
      <trkpt lat="42.752896" lon="-8.652957">
        <ele>70.873</ele>
        <time>2018-08-25T17:28:52Z</time>
      </trkpt>
      <trkpt lat="42.753012" lon="-8.652909">
        <ele>70.699</ele>
        <time>2018-08-25T17:28:54Z</time>
      </trkpt>
      <trkpt lat="42.753090" lon="-8.652876">
        <ele>70.644</ele>
        <time>2018-08-25T17:28:56Z</time>
      </trkpt>
      <trkpt lat="42.753169" lon="-8.652846">
        <ele>70.678</ele>
        <time>2018-08-25T17:28:58Z</time>
      </trkpt>
      <trkpt lat="42.753247" lon="-8.652824">
        <ele>70.555</ele>
        <time>2018-08-25T17:29:00Z</time>
      </trkpt>
      <trkpt lat="42.753291" lon="-8.652809">
        <ele>70.473</ele>
        <time>2018-08-25T17:29:02Z</time>
      </trkpt>
      <trkpt lat="42.753388" lon="-8.652776">
        <ele>70.421</ele>
        <time>2018-08-25T17:29:04Z</time>
      </trkpt>
      <trkpt lat="42.753458" lon="-8.652748">
        <ele>70.341</ele>
        <time>2018-08-25T17:29:07Z</time>
      </trkpt>
      <trkpt lat="42.753528" lon="-8.652720">
        <ele>70.385</ele>
        <time>2018-08-25T17:29:08Z</time>
      </trkpt>
      <trkpt lat="42.753593" lon="-8.652691">
        <ele>70.289</ele>
        <time>2018-08-25T17:29:11Z</time>
      </trkpt>
      <trkpt lat="42.753643" lon="-8.652674">
        <ele>70.417</ele>
        <time>2018-08-25T17:29:13Z</time>
      </trkpt>
      <trkpt lat="42.753702" lon="-8.652655">
        <ele>70.508</ele>
        <time>2018-08-25T17:29:15Z</time>
      </trkpt>
      <trkpt lat="42.753760" lon="-8.652634">
        <ele>70.890</ele>
        <time>2018-08-25T17:29:17Z</time>
      </trkpt>
      <trkpt lat="42.753823" lon="-8.652609">
        <ele>71.226</ele>
        <time>2018-08-25T17:29:19Z</time>
      </trkpt>
      <trkpt lat="42.753892" lon="-8.652583">
        <ele>71.531</ele>
        <time>2018-08-25T17:29:21Z</time>
      </trkpt>
      <trkpt lat="42.753957" lon="-8.652560">
        <ele>71.555</ele>
        <time>2018-08-25T17:29:23Z</time>
      </trkpt>
      <trkpt lat="42.754019" lon="-8.652535">
        <ele>71.262</ele>
        <time>2018-08-25T17:29:25Z</time>
      </trkpt>
      <trkpt lat="42.754081" lon="-8.652510">
        <ele>71.230</ele>
        <time>2018-08-25T17:29:27Z</time>
      </trkpt>
      <trkpt lat="42.754145" lon="-8.652486">
        <ele>71.418</ele>
        <time>2018-08-25T17:29:29Z</time>
      </trkpt>
      <trkpt lat="42.754208" lon="-8.652460">
        <ele>71.548</ele>
        <time>2018-08-25T17:29:31Z</time>
      </trkpt>
      <trkpt lat="42.754265" lon="-8.652435">
        <ele>71.433</ele>
        <time>2018-08-25T17:29:33Z</time>
      </trkpt>
      <trkpt lat="42.754318" lon="-8.652410">
        <ele>71.423</ele>
        <time>2018-08-25T17:29:35Z</time>
      </trkpt>
      <trkpt lat="42.754372" lon="-8.652385">
        <ele>71.715</ele>
        <time>2018-08-25T17:29:37Z</time>
      </trkpt>
      <trkpt lat="42.754430" lon="-8.652361">
        <ele>72.108</ele>
        <time>2018-08-25T17:29:39Z</time>
      </trkpt>
      <trkpt lat="42.754491" lon="-8.652337">
        <ele>72.655</ele>
        <time>2018-08-25T17:29:41Z</time>
      </trkpt>
      <trkpt lat="42.754546" lon="-8.652316">
        <ele>73.191</ele>
        <time>2018-08-25T17:29:43Z</time>
      </trkpt>
      <trkpt lat="42.754599" lon="-8.652301">
        <ele>73.696</ele>
        <time>2018-08-25T17:29:45Z</time>
      </trkpt>
      <trkpt lat="42.754653" lon="-8.652284">
        <ele>74.340</ele>
        <time>2018-08-25T17:29:47Z</time>
      </trkpt>
      <trkpt lat="42.754707" lon="-8.652262">
        <ele>75.287</ele>
        <time>2018-08-25T17:29:49Z</time>
      </trkpt>
      <trkpt lat="42.754761" lon="-8.652237">
        <ele>75.975</ele>
        <time>2018-08-25T17:29:51Z</time>
      </trkpt>
      <trkpt lat="42.754816" lon="-8.652210">
        <ele>76.353</ele>
        <time>2018-08-25T17:29:53Z</time>
      </trkpt>
      <trkpt lat="42.754870" lon="-8.652186">
        <ele>76.633</ele>
        <time>2018-08-25T17:29:55Z</time>
      </trkpt>
      <trkpt lat="42.754917" lon="-8.652171">
        <ele>77.175</ele>
        <time>2018-08-25T17:29:57Z</time>
      </trkpt>
      <trkpt lat="42.754984" lon="-8.652155">
        <ele>77.928</ele>
        <time>2018-08-25T17:30:00Z</time>
      </trkpt>
      <trkpt lat="42.755040" lon="-8.652135">
        <ele>78.720</ele>
        <time>2018-08-25T17:30:02Z</time>
      </trkpt>
      <trkpt lat="42.755091" lon="-8.652115">
        <ele>79.408</ele>
        <time>2018-08-25T17:30:04Z</time>
      </trkpt>
      <trkpt lat="42.755136" lon="-8.652099">
        <ele>80.599</ele>
        <time>2018-08-25T17:30:06Z</time>
      </trkpt>
      <trkpt lat="42.755183" lon="-8.652084">
        <ele>81.645</ele>
        <time>2018-08-25T17:30:08Z</time>
      </trkpt>
      <trkpt lat="42.755239" lon="-8.652066">
        <ele>82.460</ele>
        <time>2018-08-25T17:30:10Z</time>
      </trkpt>
      <trkpt lat="42.755300" lon="-8.652044">
        <ele>82.954</ele>
        <time>2018-08-25T17:30:12Z</time>
      </trkpt>
      <trkpt lat="42.755361" lon="-8.652023">
        <ele>83.211</ele>
        <time>2018-08-25T17:30:14Z</time>
      </trkpt>
      <trkpt lat="42.755418" lon="-8.652001">
        <ele>83.289</ele>
        <time>2018-08-25T17:30:16Z</time>
      </trkpt>
      <trkpt lat="42.755474" lon="-8.651978">
        <ele>83.297</ele>
        <time>2018-08-25T17:30:18Z</time>
      </trkpt>
      <trkpt lat="42.755531" lon="-8.651954">
        <ele>83.057</ele>
        <time>2018-08-25T17:30:20Z</time>
      </trkpt>
      <trkpt lat="42.755584" lon="-8.651930">
        <ele>83.095</ele>
        <time>2018-08-25T17:30:22Z</time>
      </trkpt>
      <trkpt lat="42.755633" lon="-8.651901">
        <ele>83.149</ele>
        <time>2018-08-25T17:30:24Z</time>
      </trkpt>
      <trkpt lat="42.755679" lon="-8.651867">
        <ele>83.323</ele>
        <time>2018-08-25T17:30:26Z</time>
      </trkpt>
      <trkpt lat="42.755724" lon="-8.651827">
        <ele>83.608</ele>
        <time>2018-08-25T17:30:28Z</time>
      </trkpt>
      <trkpt lat="42.755765" lon="-8.651787">
        <ele>84.091</ele>
        <time>2018-08-25T17:30:30Z</time>
      </trkpt>
      <trkpt lat="42.755805" lon="-8.651745">
        <ele>84.437</ele>
        <time>2018-08-25T17:30:32Z</time>
      </trkpt>
      <trkpt lat="42.755852" lon="-8.651704">
        <ele>84.942</ele>
        <time>2018-08-25T17:30:34Z</time>
      </trkpt>
      <trkpt lat="42.755901" lon="-8.651669">
        <ele>85.196</ele>
        <time>2018-08-25T17:30:36Z</time>
      </trkpt>
      <trkpt lat="42.755950" lon="-8.651643">
        <ele>85.023</ele>
        <time>2018-08-25T17:30:38Z</time>
      </trkpt>
      <trkpt lat="42.756004" lon="-8.651621">
        <ele>84.961</ele>
        <time>2018-08-25T17:30:40Z</time>
      </trkpt>
      <trkpt lat="42.756063" lon="-8.651617">
        <ele>85.019</ele>
        <time>2018-08-25T17:30:42Z</time>
      </trkpt>
      <trkpt lat="42.756123" lon="-8.651629">
        <ele>85.079</ele>
        <time>2018-08-25T17:30:44Z</time>
      </trkpt>
      <trkpt lat="42.756178" lon="-8.651642">
        <ele>85.156</ele>
        <time>2018-08-25T17:30:46Z</time>
      </trkpt>
      <trkpt lat="42.756231" lon="-8.651653">
        <ele>85.259</ele>
        <time>2018-08-25T17:30:48Z</time>
      </trkpt>
      <trkpt lat="42.756283" lon="-8.651655">
        <ele>85.614</ele>
        <time>2018-08-25T17:30:50Z</time>
      </trkpt>
      <trkpt lat="42.756340" lon="-8.651643">
        <ele>86.108</ele>
        <time>2018-08-25T17:30:52Z</time>
      </trkpt>
      <trkpt lat="42.756402" lon="-8.651627">
        <ele>86.867</ele>
        <time>2018-08-25T17:30:54Z</time>
      </trkpt>
      <trkpt lat="42.756465" lon="-8.651610">
        <ele>87.173</ele>
        <time>2018-08-25T17:30:56Z</time>
      </trkpt>
      <trkpt lat="42.756526" lon="-8.651592">
        <ele>87.168</ele>
        <time>2018-08-25T17:30:58Z</time>
      </trkpt>
      <trkpt lat="42.756588" lon="-8.651573">
        <ele>87.212</ele>
        <time>2018-08-25T17:31:00Z</time>
      </trkpt>
      <trkpt lat="42.756652" lon="-8.651549">
        <ele>87.589</ele>
        <time>2018-08-25T17:31:02Z</time>
      </trkpt>
      <trkpt lat="42.756713" lon="-8.651527">
        <ele>87.967</ele>
        <time>2018-08-25T17:31:04Z</time>
      </trkpt>
      <trkpt lat="42.756780" lon="-8.651508">
        <ele>88.195</ele>
        <time>2018-08-25T17:31:06Z</time>
      </trkpt>
      <trkpt lat="42.756848" lon="-8.651489">
        <ele>88.285</ele>
        <time>2018-08-25T17:31:08Z</time>
      </trkpt>
      <trkpt lat="42.756914" lon="-8.651471">
        <ele>88.289</ele>
        <time>2018-08-25T17:31:10Z</time>
      </trkpt>
      <trkpt lat="42.756977" lon="-8.651453">
        <ele>88.206</ele>
        <time>2018-08-25T17:31:12Z</time>
      </trkpt>
      <trkpt lat="42.757042" lon="-8.651441">
        <ele>88.126</ele>
        <time>2018-08-25T17:31:14Z</time>
      </trkpt>
      <trkpt lat="42.757104" lon="-8.651428">
        <ele>88.308</ele>
        <time>2018-08-25T17:31:16Z</time>
      </trkpt>
      <trkpt lat="42.757162" lon="-8.651415">
        <ele>88.660</ele>
        <time>2018-08-25T17:31:18Z</time>
      </trkpt>
      <trkpt lat="42.757222" lon="-8.651404">
        <ele>88.956</ele>
        <time>2018-08-25T17:31:20Z</time>
      </trkpt>
      <trkpt lat="42.757286" lon="-8.651390">
        <ele>89.021</ele>
        <time>2018-08-25T17:31:22Z</time>
      </trkpt>
      <trkpt lat="42.757353" lon="-8.651377">
        <ele>89.015</ele>
        <time>2018-08-25T17:31:24Z</time>
      </trkpt>
      <trkpt lat="42.757422" lon="-8.651360">
        <ele>89.072</ele>
        <time>2018-08-25T17:31:26Z</time>
      </trkpt>
      <trkpt lat="42.757484" lon="-8.651342">
        <ele>89.010</ele>
        <time>2018-08-25T17:31:28Z</time>
      </trkpt>
      <trkpt lat="42.757543" lon="-8.651324">
        <ele>88.998</ele>
        <time>2018-08-25T17:31:30Z</time>
      </trkpt>
      <trkpt lat="42.757603" lon="-8.651309">
        <ele>88.938</ele>
        <time>2018-08-25T17:31:32Z</time>
      </trkpt>
      <trkpt lat="42.757663" lon="-8.651296">
        <ele>88.988</ele>
        <time>2018-08-25T17:31:34Z</time>
      </trkpt>
      <trkpt lat="42.757721" lon="-8.651284">
        <ele>88.924</ele>
        <time>2018-08-25T17:31:36Z</time>
      </trkpt>
      <trkpt lat="42.757777" lon="-8.651272">
        <ele>88.926</ele>
        <time>2018-08-25T17:31:38Z</time>
      </trkpt>
      <trkpt lat="42.757828" lon="-8.651262">
        <ele>89.008</ele>
        <time>2018-08-25T17:31:40Z</time>
      </trkpt>
      <trkpt lat="42.757879" lon="-8.651256">
        <ele>89.290</ele>
        <time>2018-08-25T17:31:42Z</time>
      </trkpt>
      <trkpt lat="42.757929" lon="-8.651247">
        <ele>89.496</ele>
        <time>2018-08-25T17:31:44Z</time>
      </trkpt>
      <trkpt lat="42.757978" lon="-8.651239">
        <ele>89.591</ele>
        <time>2018-08-25T17:31:46Z</time>
      </trkpt>
      <trkpt lat="42.758029" lon="-8.651234">
        <ele>89.555</ele>
        <time>2018-08-25T17:31:48Z</time>
      </trkpt>
      <trkpt lat="42.758082" lon="-8.651231">
        <ele>89.592</ele>
        <time>2018-08-25T17:31:50Z</time>
      </trkpt>
      <trkpt lat="42.758132" lon="-8.651227">
        <ele>89.650</ele>
        <time>2018-08-25T17:31:52Z</time>
      </trkpt>
      <trkpt lat="42.758180" lon="-8.651219">
        <ele>89.838</ele>
        <time>2018-08-25T17:31:54Z</time>
      </trkpt>
      <trkpt lat="42.758228" lon="-8.651211">
        <ele>89.818</ele>
        <time>2018-08-25T17:31:56Z</time>
      </trkpt>
      <trkpt lat="42.758279" lon="-8.651205">
        <ele>89.722</ele>
        <time>2018-08-25T17:31:58Z</time>
      </trkpt>
      <trkpt lat="42.758333" lon="-8.651200">
        <ele>89.962</ele>
        <time>2018-08-25T17:32:00Z</time>
      </trkpt>
      <trkpt lat="42.758391" lon="-8.651196">
        <ele>90.408</ele>
        <time>2018-08-25T17:32:02Z</time>
      </trkpt>
      <trkpt lat="42.758451" lon="-8.651192">
        <ele>90.908</ele>
        <time>2018-08-25T17:32:04Z</time>
      </trkpt>
      <trkpt lat="42.758511" lon="-8.651190">
        <ele>91.494</ele>
        <time>2018-08-25T17:32:06Z</time>
      </trkpt>
      <trkpt lat="42.758573" lon="-8.651181">
        <ele>92.090</ele>
        <time>2018-08-25T17:32:08Z</time>
      </trkpt>
      <trkpt lat="42.758635" lon="-8.651167">
        <ele>92.735</ele>
        <time>2018-08-25T17:32:10Z</time>
      </trkpt>
      <trkpt lat="42.758695" lon="-8.651155">
        <ele>93.429</ele>
        <time>2018-08-25T17:32:12Z</time>
      </trkpt>
      <trkpt lat="42.758757" lon="-8.651149">
        <ele>94.096</ele>
        <time>2018-08-25T17:32:14Z</time>
      </trkpt>
      <trkpt lat="42.758819" lon="-8.651150">
        <ele>94.484</ele>
        <time>2018-08-25T17:32:16Z</time>
      </trkpt>
      <trkpt lat="42.758880" lon="-8.651154">
        <ele>94.652</ele>
        <time>2018-08-25T17:32:18Z</time>
      </trkpt>
      <trkpt lat="42.758943" lon="-8.651150">
        <ele>94.872</ele>
        <time>2018-08-25T17:32:20Z</time>
      </trkpt>
      <trkpt lat="42.759003" lon="-8.651141">
        <ele>95.186</ele>
        <time>2018-08-25T17:32:22Z</time>
      </trkpt>
      <trkpt lat="42.759063" lon="-8.651132">
        <ele>95.560</ele>
        <time>2018-08-25T17:32:24Z</time>
      </trkpt>
      <trkpt lat="42.759121" lon="-8.651124">
        <ele>96.026</ele>
        <time>2018-08-25T17:32:26Z</time>
      </trkpt>
      <trkpt lat="42.759176" lon="-8.651122">
        <ele>96.308</ele>
        <time>2018-08-25T17:32:28Z</time>
      </trkpt>
      <trkpt lat="42.759231" lon="-8.651125">
        <ele>96.450</ele>
        <time>2018-08-25T17:32:30Z</time>
      </trkpt>
      <trkpt lat="42.759285" lon="-8.651122">
        <ele>95.756</ele>
        <time>2018-08-25T17:32:32Z</time>
      </trkpt>
      <trkpt lat="42.759348" lon="-8.651120">
        <ele>95.161</ele>
        <time>2018-08-25T17:32:34Z</time>
      </trkpt>
      <trkpt lat="42.759418" lon="-8.651118">
        <ele>94.785</ele>
        <time>2018-08-25T17:32:36Z</time>
      </trkpt>
      <trkpt lat="42.759486" lon="-8.651112">
        <ele>94.242</ele>
        <time>2018-08-25T17:32:38Z</time>
      </trkpt>
      <trkpt lat="42.759542" lon="-8.651105">
        <ele>93.920</ele>
        <time>2018-08-25T17:32:40Z</time>
      </trkpt>
      <trkpt lat="42.759590" lon="-8.651100">
        <ele>93.748</ele>
        <time>2018-08-25T17:32:42Z</time>
      </trkpt>
      <trkpt lat="42.759644" lon="-8.651098">
        <ele>93.778</ele>
        <time>2018-08-25T17:32:44Z</time>
      </trkpt>
      <trkpt lat="42.759708" lon="-8.651101">
        <ele>93.533</ele>
        <time>2018-08-25T17:32:46Z</time>
      </trkpt>
      <trkpt lat="42.759773" lon="-8.651115">
        <ele>93.623</ele>
        <time>2018-08-25T17:32:48Z</time>
      </trkpt>
      <trkpt lat="42.759833" lon="-8.651147">
        <ele>93.515</ele>
        <time>2018-08-25T17:32:50Z</time>
      </trkpt>
      <trkpt lat="42.759883" lon="-8.651200">
        <ele>92.208</ele>
        <time>2018-08-25T17:32:52Z</time>
      </trkpt>
      <trkpt lat="42.759915" lon="-8.651268">
        <ele>90.595</ele>
        <time>2018-08-25T17:32:54Z</time>
      </trkpt>
      <trkpt lat="42.759933" lon="-8.651346">
        <ele>88.931</ele>
        <time>2018-08-25T17:32:56Z</time>
      </trkpt>
      <trkpt lat="42.759940" lon="-8.651494">
        <ele>87.766</ele>
        <time>2018-08-25T17:32:58Z</time>
      </trkpt>
      <trkpt lat="42.759931" lon="-8.651614">
        <ele>87.190</ele>
        <time>2018-08-25T17:33:00Z</time>
      </trkpt>
      <trkpt lat="42.759930" lon="-8.651681">
        <ele>86.697</ele>
        <time>2018-08-25T17:33:01Z</time>
      </trkpt>
      <trkpt lat="42.759930" lon="-8.651753">
        <ele>86.385</ele>
        <time>2018-08-25T17:33:02Z</time>
      </trkpt>
      <trkpt lat="42.759933" lon="-8.651831">
        <ele>86.033</ele>
        <time>2018-08-25T17:33:03Z</time>
      </trkpt>
      <trkpt lat="42.759939" lon="-8.651917">
        <ele>85.613</ele>
        <time>2018-08-25T17:33:04Z</time>
      </trkpt>
      <trkpt lat="42.759947" lon="-8.652009">
        <ele>85.247</ele>
        <time>2018-08-25T17:33:05Z</time>
      </trkpt>
      <trkpt lat="42.759955" lon="-8.652107">
        <ele>84.729</ele>
        <time>2018-08-25T17:33:06Z</time>
      </trkpt>
      <trkpt lat="42.759961" lon="-8.652207">
        <ele>84.221</ele>
        <time>2018-08-25T17:33:07Z</time>
      </trkpt>
      <trkpt lat="42.759964" lon="-8.652309">
        <ele>83.508</ele>
        <time>2018-08-25T17:33:08Z</time>
      </trkpt>
      <trkpt lat="42.759967" lon="-8.652417">
        <ele>82.726</ele>
        <time>2018-08-25T17:33:09Z</time>
      </trkpt>
      <trkpt lat="42.759972" lon="-8.652522">
        <ele>82.112</ele>
        <time>2018-08-25T17:33:10Z</time>
      </trkpt>
      <trkpt lat="42.759977" lon="-8.652629">
        <ele>81.657</ele>
        <time>2018-08-25T17:33:11Z</time>
      </trkpt>
      <trkpt lat="42.759985" lon="-8.652737">
        <ele>81.011</ele>
        <time>2018-08-25T17:33:12Z</time>
      </trkpt>
      <trkpt lat="42.759991" lon="-8.652849">
        <ele>80.588</ele>
        <time>2018-08-25T17:33:13Z</time>
      </trkpt>
      <trkpt lat="42.760000" lon="-8.652962">
        <ele>80.086</ele>
        <time>2018-08-25T17:33:14Z</time>
      </trkpt>
      <trkpt lat="42.760009" lon="-8.653076">
        <ele>79.534</ele>
        <time>2018-08-25T17:33:15Z</time>
      </trkpt>
      <trkpt lat="42.760017" lon="-8.653189">
        <ele>79.014</ele>
        <time>2018-08-25T17:33:16Z</time>
      </trkpt>
      <trkpt lat="42.760022" lon="-8.653294">
        <ele>78.614</ele>
        <time>2018-08-25T17:33:17Z</time>
      </trkpt>
      <trkpt lat="42.760027" lon="-8.653384">
        <ele>78.254</ele>
        <time>2018-08-25T17:33:18Z</time>
      </trkpt>
      <trkpt lat="42.760035" lon="-8.653450">
        <ele>77.709</ele>
        <time>2018-08-25T17:33:19Z</time>
      </trkpt>
      <trkpt lat="42.760068" lon="-8.653517">
        <ele>77.208</ele>
        <time>2018-08-25T17:33:22Z</time>
      </trkpt>
      <trkpt lat="42.760121" lon="-8.653530">
        <ele>76.773</ele>
        <time>2018-08-25T17:33:24Z</time>
      </trkpt>
      <trkpt lat="42.760185" lon="-8.653524">
        <ele>76.599</ele>
        <time>2018-08-25T17:33:26Z</time>
      </trkpt>
      <trkpt lat="42.760234" lon="-8.653520">
        <ele>76.534</ele>
        <time>2018-08-25T17:33:28Z</time>
      </trkpt>
      <trkpt lat="42.760279" lon="-8.653514">
        <ele>76.318</ele>
        <time>2018-08-25T17:33:30Z</time>
      </trkpt>
      <trkpt lat="42.760332" lon="-8.653508">
        <ele>75.915</ele>
        <time>2018-08-25T17:33:32Z</time>
      </trkpt>
      <trkpt lat="42.760391" lon="-8.653508">
        <ele>75.353</ele>
        <time>2018-08-25T17:33:34Z</time>
      </trkpt>
      <trkpt lat="42.760445" lon="-8.653512">
        <ele>74.991</ele>
        <time>2018-08-25T17:33:36Z</time>
      </trkpt>
      <trkpt lat="42.760498" lon="-8.653518">
        <ele>74.891</ele>
        <time>2018-08-25T17:33:38Z</time>
      </trkpt>
      <trkpt lat="42.760551" lon="-8.653529">
        <ele>74.984</ele>
        <time>2018-08-25T17:33:40Z</time>
      </trkpt>
      <trkpt lat="42.760608" lon="-8.653539">
        <ele>74.907</ele>
        <time>2018-08-25T17:33:42Z</time>
      </trkpt>
      <trkpt lat="42.760672" lon="-8.653550">
        <ele>74.617</ele>
        <time>2018-08-25T17:33:44Z</time>
      </trkpt>
      <trkpt lat="42.760740" lon="-8.653565">
        <ele>73.908</ele>
        <time>2018-08-25T17:33:46Z</time>
      </trkpt>
      <trkpt lat="42.760809" lon="-8.653572">
        <ele>73.110</ele>
        <time>2018-08-25T17:33:48Z</time>
      </trkpt>
      <trkpt lat="42.760874" lon="-8.653573">
        <ele>72.426</ele>
        <time>2018-08-25T17:33:50Z</time>
      </trkpt>
      <trkpt lat="42.760933" lon="-8.653577">
        <ele>71.811</ele>
        <time>2018-08-25T17:33:52Z</time>
      </trkpt>
      <trkpt lat="42.760983" lon="-8.653580">
        <ele>71.395</ele>
        <time>2018-08-25T17:33:54Z</time>
      </trkpt>
      <trkpt lat="42.761045" lon="-8.653584">
        <ele>71.082</ele>
        <time>2018-08-25T17:33:57Z</time>
      </trkpt>
      <trkpt lat="42.761091" lon="-8.653588">
        <ele>70.880</ele>
        <time>2018-08-25T17:34:00Z</time>
      </trkpt>
      <trkpt lat="42.761137" lon="-8.653596">
        <ele>70.868</ele>
        <time>2018-08-25T17:34:03Z</time>
      </trkpt>
      <trkpt lat="42.761195" lon="-8.653607">
        <ele>70.768</ele>
        <time>2018-08-25T17:34:06Z</time>
      </trkpt>
      <trkpt lat="42.761246" lon="-8.653611">
        <ele>70.452</ele>
        <time>2018-08-25T17:34:08Z</time>
      </trkpt>
      <trkpt lat="42.761373" lon="-8.653624">
        <ele>69.653</ele>
        <time>2018-08-25T17:34:10Z</time>
      </trkpt>
      <trkpt lat="42.761420" lon="-8.653639">
        <ele>69.108</ele>
        <time>2018-08-25T17:34:11Z</time>
      </trkpt>
      <trkpt lat="42.761501" lon="-8.653658">
        <ele>68.708</ele>
        <time>2018-08-25T17:34:13Z</time>
      </trkpt>
      <trkpt lat="42.761581" lon="-8.653675">
        <ele>68.397</ele>
        <time>2018-08-25T17:34:15Z</time>
      </trkpt>
      <trkpt lat="42.761627" lon="-8.653683">
        <ele>68.023</ele>
        <time>2018-08-25T17:34:17Z</time>
      </trkpt>
      <trkpt lat="42.761687" lon="-8.653695">
        <ele>67.718</ele>
        <time>2018-08-25T17:34:19Z</time>
      </trkpt>
      <trkpt lat="42.761751" lon="-8.653713">
        <ele>67.482</ele>
        <time>2018-08-25T17:34:21Z</time>
      </trkpt>
      <trkpt lat="42.761815" lon="-8.653730">
        <ele>67.089</ele>
        <time>2018-08-25T17:34:23Z</time>
      </trkpt>
      <trkpt lat="42.761880" lon="-8.653752">
        <ele>66.277</ele>
        <time>2018-08-25T17:34:25Z</time>
      </trkpt>
      <trkpt lat="42.761948" lon="-8.653779">
        <ele>65.555</ele>
        <time>2018-08-25T17:34:27Z</time>
      </trkpt>
      <trkpt lat="42.762014" lon="-8.653802">
        <ele>64.815</ele>
        <time>2018-08-25T17:34:29Z</time>
      </trkpt>
      <trkpt lat="42.762077" lon="-8.653816">
        <ele>64.273</ele>
        <time>2018-08-25T17:34:31Z</time>
      </trkpt>
      <trkpt lat="42.762135" lon="-8.653819">
        <ele>63.785</ele>
        <time>2018-08-25T17:34:33Z</time>
      </trkpt>
      <trkpt lat="42.762194" lon="-8.653810">
        <ele>63.413</ele>
        <time>2018-08-25T17:34:35Z</time>
      </trkpt>
      <trkpt lat="42.762254" lon="-8.653796">
        <ele>63.208</ele>
        <time>2018-08-25T17:34:37Z</time>
      </trkpt>
      <trkpt lat="42.762314" lon="-8.653780">
        <ele>63.389</ele>
        <time>2018-08-25T17:34:39Z</time>
      </trkpt>
      <trkpt lat="42.762372" lon="-8.653764">
        <ele>63.645</ele>
        <time>2018-08-25T17:34:41Z</time>
      </trkpt>
      <trkpt lat="42.762427" lon="-8.653754">
        <ele>63.930</ele>
        <time>2018-08-25T17:34:43Z</time>
      </trkpt>
      <trkpt lat="42.762479" lon="-8.653746">
        <ele>64.384</ele>
        <time>2018-08-25T17:34:45Z</time>
      </trkpt>
      <trkpt lat="42.762535" lon="-8.653731">
        <ele>64.621</ele>
        <time>2018-08-25T17:34:47Z</time>
      </trkpt>
      <trkpt lat="42.762594" lon="-8.653717">
        <ele>64.849</ele>
        <time>2018-08-25T17:34:49Z</time>
      </trkpt>
      <trkpt lat="42.762653" lon="-8.653703">
        <ele>64.757</ele>
        <time>2018-08-25T17:34:51Z</time>
      </trkpt>
      <trkpt lat="42.762710" lon="-8.653683">
        <ele>64.577</ele>
        <time>2018-08-25T17:34:53Z</time>
      </trkpt>
      <trkpt lat="42.762761" lon="-8.653657">
        <ele>64.189</ele>
        <time>2018-08-25T17:34:55Z</time>
      </trkpt>
      <trkpt lat="42.762818" lon="-8.653644">
        <ele>63.106</ele>
        <time>2018-08-25T17:34:57Z</time>
      </trkpt>
      <trkpt lat="42.762871" lon="-8.653672">
        <ele>62.526</ele>
        <time>2018-08-25T17:34:59Z</time>
      </trkpt>
      <trkpt lat="42.762945" lon="-8.653789">
        <ele>62.008</ele>
        <time>2018-08-25T17:35:01Z</time>
      </trkpt>
      <trkpt lat="42.762989" lon="-8.653878">
        <ele>61.510</ele>
        <time>2018-08-25T17:35:03Z</time>
      </trkpt>
      <trkpt lat="42.763019" lon="-8.653928">
        <ele>61.066</ele>
        <time>2018-08-25T17:35:04Z</time>
      </trkpt>
      <trkpt lat="42.763050" lon="-8.653980">
        <ele>60.711</ele>
        <time>2018-08-25T17:35:05Z</time>
      </trkpt>
      <trkpt lat="42.763079" lon="-8.654036">
        <ele>60.395</ele>
        <time>2018-08-25T17:35:06Z</time>
      </trkpt>
      <trkpt lat="42.763109" lon="-8.654098">
        <ele>60.182</ele>
        <time>2018-08-25T17:35:07Z</time>
      </trkpt>
      <trkpt lat="42.763141" lon="-8.654154">
        <ele>60.140</ele>
        <time>2018-08-25T17:35:08Z</time>
      </trkpt>
      <trkpt lat="42.763180" lon="-8.654213">
        <ele>60.148</ele>
        <time>2018-08-25T17:35:11Z</time>
      </trkpt>
      <trkpt lat="42.763227" lon="-8.654235">
        <ele>59.928</ele>
        <time>2018-08-25T17:35:13Z</time>
      </trkpt>
      <trkpt lat="42.763269" lon="-8.654263">
        <ele>59.625</ele>
        <time>2018-08-25T17:35:15Z</time>
      </trkpt>
      <trkpt lat="42.763309" lon="-8.654309">
        <ele>58.826</ele>
        <time>2018-08-25T17:35:17Z</time>
      </trkpt>
      <trkpt lat="42.763354" lon="-8.654355">
        <ele>58.108</ele>
        <time>2018-08-25T17:35:19Z</time>
      </trkpt>
      <trkpt lat="42.763403" lon="-8.654377">
        <ele>57.508</ele>
        <time>2018-08-25T17:35:21Z</time>
      </trkpt>
      <trkpt lat="42.763456" lon="-8.654384">
        <ele>57.314</ele>
        <time>2018-08-25T17:35:24Z</time>
      </trkpt>
      <trkpt lat="42.763498" lon="-8.654414">
        <ele>57.470</ele>
        <time>2018-08-25T17:36:11Z</time>
      </trkpt>
      <trkpt lat="42.763550" lon="-8.654396">
        <ele>58.375</ele>
        <time>2018-08-25T17:36:15Z</time>
      </trkpt>
      <trkpt lat="42.763597" lon="-8.654392">
        <ele>59.049</ele>
        <time>2018-08-25T17:36:17Z</time>
      </trkpt>
      <trkpt lat="42.763647" lon="-8.654391">
        <ele>59.666</ele>
        <time>2018-08-25T17:36:19Z</time>
      </trkpt>
      <trkpt lat="42.763693" lon="-8.654396">
        <ele>60.054</ele>
        <time>2018-08-25T17:36:21Z</time>
      </trkpt>
      <trkpt lat="42.763752" lon="-8.654400">
        <ele>59.712</ele>
        <time>2018-08-25T17:36:24Z</time>
      </trkpt>
      <trkpt lat="42.763802" lon="-8.654418">
        <ele>59.142</ele>
        <time>2018-08-25T17:36:27Z</time>
      </trkpt>
      <trkpt lat="42.763858" lon="-8.654442">
        <ele>58.744</ele>
        <time>2018-08-25T17:36:30Z</time>
      </trkpt>
      <trkpt lat="42.763902" lon="-8.654464">
        <ele>57.905</ele>
        <time>2018-08-25T17:36:32Z</time>
      </trkpt>
      <trkpt lat="42.763944" lon="-8.654491">
        <ele>56.715</ele>
        <time>2018-08-25T17:36:34Z</time>
      </trkpt>
      <trkpt lat="42.763989" lon="-8.654512">
        <ele>55.908</ele>
        <time>2018-08-25T17:36:36Z</time>
      </trkpt>
      <trkpt lat="42.764040" lon="-8.654530">
        <ele>55.786</ele>
        <time>2018-08-25T17:36:38Z</time>
      </trkpt>
      <trkpt lat="42.764087" lon="-8.654562">
        <ele>56.042</ele>
        <time>2018-08-25T17:36:40Z</time>
      </trkpt>
      <trkpt lat="42.764119" lon="-8.654618">
        <ele>56.597</ele>
        <time>2018-08-25T17:36:42Z</time>
      </trkpt>
      <trkpt lat="42.764142" lon="-8.654680">
        <ele>57.091</ele>
        <time>2018-08-25T17:36:44Z</time>
      </trkpt>
      <trkpt lat="42.764186" lon="-8.654726">
        <ele>56.428</ele>
        <time>2018-08-25T17:36:47Z</time>
      </trkpt>
      <trkpt lat="42.764232" lon="-8.654733">
        <ele>56.296</ele>
        <time>2018-08-25T17:36:50Z</time>
      </trkpt>
      <trkpt lat="42.764284" lon="-8.654751">
        <ele>57.054</ele>
        <time>2018-08-25T17:36:53Z</time>
      </trkpt>
      <trkpt lat="42.764344" lon="-8.654792">
        <ele>58.624</ele>
        <time>2018-08-25T17:36:56Z</time>
      </trkpt>
      <trkpt lat="42.764395" lon="-8.654841">
        <ele>60.281</ele>
        <time>2018-08-25T17:36:59Z</time>
      </trkpt>
      <trkpt lat="42.764437" lon="-8.654902">
        <ele>61.961</ele>
        <time>2018-08-25T17:37:02Z</time>
      </trkpt>
      <trkpt lat="42.764481" lon="-8.654929">
        <ele>62.617</ele>
        <time>2018-08-25T17:37:11Z</time>
      </trkpt>
      <trkpt lat="42.764529" lon="-8.654984">
        <ele>62.808</ele>
        <time>2018-08-25T17:37:14Z</time>
      </trkpt>
      <trkpt lat="42.764561" lon="-8.655037">
        <ele>63.160</ele>
        <time>2018-08-25T17:37:16Z</time>
      </trkpt>
      <trkpt lat="42.764598" lon="-8.655111">
        <ele>63.536</ele>
        <time>2018-08-25T17:37:19Z</time>
      </trkpt>
      <trkpt lat="42.764615" lon="-8.655180">
        <ele>63.741</ele>
        <time>2018-08-25T17:37:21Z</time>
      </trkpt>
      <trkpt lat="42.764642" lon="-8.655259">
        <ele>64.095</ele>
        <time>2018-08-25T17:37:23Z</time>
      </trkpt>
      <trkpt lat="42.764685" lon="-8.655327">
        <ele>64.022</ele>
        <time>2018-08-25T17:37:25Z</time>
      </trkpt>
      <trkpt lat="42.764736" lon="-8.655382">
        <ele>64.290</ele>
        <time>2018-08-25T17:37:27Z</time>
      </trkpt>
      <trkpt lat="42.764793" lon="-8.655413">
        <ele>64.428</ele>
        <time>2018-08-25T17:37:29Z</time>
      </trkpt>
      <trkpt lat="42.764850" lon="-8.655418">
        <ele>64.628</ele>
        <time>2018-08-25T17:37:31Z</time>
      </trkpt>
      <trkpt lat="42.764906" lon="-8.655404">
        <ele>64.927</ele>
        <time>2018-08-25T17:37:33Z</time>
      </trkpt>
      <trkpt lat="42.764966" lon="-8.655386">
        <ele>65.168</ele>
        <time>2018-08-25T17:37:35Z</time>
      </trkpt>
      <trkpt lat="42.765021" lon="-8.655374">
        <ele>65.714</ele>
        <time>2018-08-25T17:37:37Z</time>
      </trkpt>
      <trkpt lat="42.765076" lon="-8.655366">
        <ele>66.708</ele>
        <time>2018-08-25T17:37:39Z</time>
      </trkpt>
      <trkpt lat="42.765137" lon="-8.655352">
        <ele>67.254</ele>
        <time>2018-08-25T17:37:41Z</time>
      </trkpt>
      <trkpt lat="42.765194" lon="-8.655323">
        <ele>67.210</ele>
        <time>2018-08-25T17:37:43Z</time>
      </trkpt>
      <trkpt lat="42.765222" lon="-8.655240">
        <ele>67.335</ele>
        <time>2018-08-25T17:37:46Z</time>
      </trkpt>
      <trkpt lat="42.765235" lon="-8.655175">
        <ele>67.759</ele>
        <time>2018-08-25T17:37:48Z</time>
      </trkpt>
      <trkpt lat="42.765271" lon="-8.655121">
        <ele>68.066</ele>
        <time>2018-08-25T17:37:50Z</time>
      </trkpt>
      <trkpt lat="42.765325" lon="-8.655091">
        <ele>68.444</ele>
        <time>2018-08-25T17:37:52Z</time>
      </trkpt>
      <trkpt lat="42.765375" lon="-8.655082">
        <ele>67.942</ele>
        <time>2018-08-25T17:37:54Z</time>
      </trkpt>
      <trkpt lat="42.765482" lon="-8.655054">
        <ele>67.372</ele>
        <time>2018-08-25T17:37:56Z</time>
      </trkpt>
      <trkpt lat="42.765528" lon="-8.654998">
        <ele>67.044</ele>
        <time>2018-08-25T17:37:59Z</time>
      </trkpt>
      <trkpt lat="42.765554" lon="-8.654933">
        <ele>66.605</ele>
        <time>2018-08-25T17:38:01Z</time>
      </trkpt>
      <trkpt lat="42.765570" lon="-8.654862">
        <ele>66.415</ele>
        <time>2018-08-25T17:38:03Z</time>
      </trkpt>
      <trkpt lat="42.765585" lon="-8.654794">
        <ele>66.108</ele>
        <time>2018-08-25T17:38:05Z</time>
      </trkpt>
      <trkpt lat="42.765606" lon="-8.654726">
        <ele>65.826</ele>
        <time>2018-08-25T17:38:07Z</time>
      </trkpt>
      <trkpt lat="42.765638" lon="-8.654662">
        <ele>65.392</ele>
        <time>2018-08-25T17:38:09Z</time>
      </trkpt>
      <trkpt lat="42.765670" lon="-8.654610">
        <ele>64.867</ele>
        <time>2018-08-25T17:38:11Z</time>
      </trkpt>
      <trkpt lat="42.765702" lon="-8.654559">
        <ele>64.451</ele>
        <time>2018-08-25T17:38:13Z</time>
      </trkpt>
      <trkpt lat="42.765735" lon="-8.654507">
        <ele>64.058</ele>
        <time>2018-08-25T17:38:15Z</time>
      </trkpt>
      <trkpt lat="42.765766" lon="-8.654450">
        <ele>63.746</ele>
        <time>2018-08-25T17:38:17Z</time>
      </trkpt>
      <trkpt lat="42.765790" lon="-8.654389">
        <ele>63.484</ele>
        <time>2018-08-25T17:38:19Z</time>
      </trkpt>
      <trkpt lat="42.765813" lon="-8.654327">
        <ele>63.444</ele>
        <time>2018-08-25T17:38:21Z</time>
      </trkpt>
      <trkpt lat="42.765842" lon="-8.654271">
        <ele>64.185</ele>
        <time>2018-08-25T17:38:23Z</time>
      </trkpt>
      <trkpt lat="42.765893" lon="-8.654242">
        <ele>64.989</ele>
        <time>2018-08-25T17:38:26Z</time>
      </trkpt>
      <trkpt lat="42.765949" lon="-8.654241">
        <ele>65.617</ele>
        <time>2018-08-25T17:38:29Z</time>
      </trkpt>
      <trkpt lat="42.766017" lon="-8.654222">
        <ele>66.208</ele>
        <time>2018-08-25T17:38:32Z</time>
      </trkpt>
      <trkpt lat="42.766065" lon="-8.654200">
        <ele>66.740</ele>
        <time>2018-08-25T17:38:34Z</time>
      </trkpt>
      <trkpt lat="42.766110" lon="-8.654182">
        <ele>67.076</ele>
        <time>2018-08-25T17:38:36Z</time>
      </trkpt>
      <trkpt lat="42.766169" lon="-8.654173">
        <ele>67.321</ele>
        <time>2018-08-25T17:38:39Z</time>
      </trkpt>
      <trkpt lat="42.766225" lon="-8.654177">
        <ele>67.895</ele>
        <time>2018-08-25T17:38:42Z</time>
      </trkpt>
      <trkpt lat="42.766281" lon="-8.654181">
        <ele>68.272</ele>
        <time>2018-08-25T17:38:45Z</time>
      </trkpt>
      <trkpt lat="42.766341" lon="-8.654173">
        <ele>68.270</ele>
        <time>2018-08-25T17:38:48Z</time>
      </trkpt>
      <trkpt lat="42.766398" lon="-8.654188">
        <ele>68.458</ele>
        <time>2018-08-25T17:38:51Z</time>
      </trkpt>
      <trkpt lat="42.766443" lon="-8.654220">
        <ele>68.318</ele>
        <time>2018-08-25T17:38:53Z</time>
      </trkpt>
      <trkpt lat="42.766472" lon="-8.654268">
        <ele>68.759</ele>
        <time>2018-08-25T17:38:55Z</time>
      </trkpt>
      <trkpt lat="42.766489" lon="-8.654335">
        <ele>68.603</ele>
        <time>2018-08-25T17:38:57Z</time>
      </trkpt>
      <trkpt lat="42.766485" lon="-8.654404">
        <ele>68.623</ele>
        <time>2018-08-25T17:38:59Z</time>
      </trkpt>
      <trkpt lat="42.766465" lon="-8.654464">
        <ele>68.608</ele>
        <time>2018-08-25T17:39:01Z</time>
      </trkpt>
      <trkpt lat="42.766457" lon="-8.654526">
        <ele>68.477</ele>
        <time>2018-08-25T17:39:03Z</time>
      </trkpt>
      <trkpt lat="42.766465" lon="-8.654604">
        <ele>68.323</ele>
        <time>2018-08-25T17:39:05Z</time>
      </trkpt>
      <trkpt lat="42.766483" lon="-8.654684">
        <ele>67.878</ele>
        <time>2018-08-25T17:39:07Z</time>
      </trkpt>
      <trkpt lat="42.766511" lon="-8.654756">
        <ele>67.252</ele>
        <time>2018-08-25T17:39:09Z</time>
      </trkpt>
      <trkpt lat="42.766547" lon="-8.654842">
        <ele>67.069</ele>
        <time>2018-08-25T17:39:11Z</time>
      </trkpt>
      <trkpt lat="42.766582" lon="-8.654934">
        <ele>67.137</ele>
        <time>2018-08-25T17:39:13Z</time>
      </trkpt>
      <trkpt lat="42.766619" lon="-8.655014">
        <ele>66.625</ele>
        <time>2018-08-25T17:39:15Z</time>
      </trkpt>
      <trkpt lat="42.766701" lon="-8.655154">
        <ele>65.395</ele>
        <time>2018-08-25T17:39:17Z</time>
      </trkpt>
      <trkpt lat="42.766733" lon="-8.655202">
        <ele>63.776</ele>
        <time>2018-08-25T17:39:18Z</time>
      </trkpt>
      <trkpt lat="42.766769" lon="-8.655250">
        <ele>62.190</ele>
        <time>2018-08-25T17:39:19Z</time>
      </trkpt>
      <trkpt lat="42.766820" lon="-8.655285">
        <ele>61.419</ele>
        <time>2018-08-25T17:39:20Z</time>
      </trkpt>
      <trkpt lat="42.766874" lon="-8.655330">
        <ele>61.408</ele>
        <time>2018-08-25T17:39:21Z</time>
      </trkpt>
      <trkpt lat="42.766914" lon="-8.655376">
        <ele>61.569</ele>
        <time>2018-08-25T17:39:22Z</time>
      </trkpt>
      <trkpt lat="42.766974" lon="-8.655417">
        <ele>62.335</ele>
        <time>2018-08-25T17:39:25Z</time>
      </trkpt>
      <trkpt lat="42.767020" lon="-8.655397">
        <ele>61.480</ele>
        <time>2018-08-25T17:39:27Z</time>
      </trkpt>
      <trkpt lat="42.767072" lon="-8.655345">
        <ele>59.864</ele>
        <time>2018-08-25T17:39:29Z</time>
      </trkpt>
      <trkpt lat="42.767144" lon="-8.655275">
        <ele>58.181</ele>
        <time>2018-08-25T17:39:30Z</time>
      </trkpt>
      <trkpt lat="42.767190" lon="-8.655252">
        <ele>56.399</ele>
        <time>2018-08-25T17:39:32Z</time>
      </trkpt>
      <trkpt lat="42.767246" lon="-8.655221">
        <ele>55.227</ele>
        <time>2018-08-25T17:39:34Z</time>
      </trkpt>
      <trkpt lat="42.767296" lon="-8.655190">
        <ele>54.647</ele>
        <time>2018-08-25T17:39:36Z</time>
      </trkpt>
      <trkpt lat="42.767346" lon="-8.655156">
        <ele>54.373</ele>
        <time>2018-08-25T17:39:38Z</time>
      </trkpt>
      <trkpt lat="42.767400" lon="-8.655127">
        <ele>54.285</ele>
        <time>2018-08-25T17:39:40Z</time>
      </trkpt>
      <trkpt lat="42.767456" lon="-8.655101">
        <ele>54.513</ele>
        <time>2018-08-25T17:39:42Z</time>
      </trkpt>
      <trkpt lat="42.767513" lon="-8.655078">
        <ele>55.008</ele>
        <time>2018-08-25T17:39:44Z</time>
      </trkpt>
      <trkpt lat="42.767570" lon="-8.655049">
        <ele>55.499</ele>
        <time>2018-08-25T17:39:46Z</time>
      </trkpt>
      <trkpt lat="42.767631" lon="-8.655011">
        <ele>55.395</ele>
        <time>2018-08-25T17:39:48Z</time>
      </trkpt>
      <trkpt lat="42.767692" lon="-8.654973">
        <ele>55.580</ele>
        <time>2018-08-25T17:39:50Z</time>
      </trkpt>
      <trkpt lat="42.767750" lon="-8.654936">
        <ele>56.014</ele>
        <time>2018-08-25T17:39:52Z</time>
      </trkpt>
      <trkpt lat="42.767803" lon="-8.654897">
        <ele>56.431</ele>
        <time>2018-08-25T17:39:54Z</time>
      </trkpt>
      <trkpt lat="42.767846" lon="-8.654864">
        <ele>56.859</ele>
        <time>2018-08-25T17:39:56Z</time>
      </trkpt>
      <trkpt lat="42.767887" lon="-8.654833">
        <ele>57.727</ele>
        <time>2018-08-25T17:39:58Z</time>
      </trkpt>
      <trkpt lat="42.767932" lon="-8.654799">
        <ele>58.717</ele>
        <time>2018-08-25T17:40:00Z</time>
      </trkpt>
      <trkpt lat="42.767977" lon="-8.654762">
        <ele>59.548</ele>
        <time>2018-08-25T17:40:02Z</time>
      </trkpt>
      <trkpt lat="42.768024" lon="-8.654729">
        <ele>60.261</ele>
        <time>2018-08-25T17:40:04Z</time>
      </trkpt>
      <trkpt lat="42.768070" lon="-8.654695">
        <ele>60.817</ele>
        <time>2018-08-25T17:40:06Z</time>
      </trkpt>
      <trkpt lat="42.768110" lon="-8.654666">
        <ele>61.608</ele>
        <time>2018-08-25T17:40:08Z</time>
      </trkpt>
      <trkpt lat="42.768169" lon="-8.654626">
        <ele>62.396</ele>
        <time>2018-08-25T17:40:11Z</time>
      </trkpt>
      <trkpt lat="42.768231" lon="-8.654588">
        <ele>62.712</ele>
        <time>2018-08-25T17:40:14Z</time>
      </trkpt>
      <trkpt lat="42.768276" lon="-8.654565">
        <ele>62.967</ele>
        <time>2018-08-25T17:40:16Z</time>
      </trkpt>
      <trkpt lat="42.768328" lon="-8.654539">
        <ele>63.191</ele>
        <time>2018-08-25T17:40:18Z</time>
      </trkpt>
      <trkpt lat="42.768383" lon="-8.654509">
        <ele>63.468</ele>
        <time>2018-08-25T17:40:20Z</time>
      </trkpt>
      <trkpt lat="42.768440" lon="-8.654472">
        <ele>63.316</ele>
        <time>2018-08-25T17:40:22Z</time>
      </trkpt>
      <trkpt lat="42.768494" lon="-8.654434">
        <ele>63.184</ele>
        <time>2018-08-25T17:40:24Z</time>
      </trkpt>
      <trkpt lat="42.768536" lon="-8.654402">
        <ele>62.944</ele>
        <time>2018-08-25T17:40:26Z</time>
      </trkpt>
      <trkpt lat="42.768563" lon="-8.654344">
        <ele>62.146</ele>
        <time>2018-08-25T17:41:41Z</time>
      </trkpt>
      <trkpt lat="42.768610" lon="-8.654307">
        <ele>60.988</ele>
        <time>2018-08-25T17:41:44Z</time>
      </trkpt>
      <trkpt lat="42.768659" lon="-8.654275">
        <ele>59.816</ele>
        <time>2018-08-25T17:41:46Z</time>
      </trkpt>
      <trkpt lat="42.768715" lon="-8.654237">
        <ele>58.608</ele>
        <time>2018-08-25T17:41:48Z</time>
      </trkpt>
      <trkpt lat="42.768774" lon="-8.654197">
        <ele>57.736</ele>
        <time>2018-08-25T17:41:50Z</time>
      </trkpt>
      <trkpt lat="42.768836" lon="-8.654153">
        <ele>57.192</ele>
        <time>2018-08-25T17:41:52Z</time>
      </trkpt>
      <trkpt lat="42.768898" lon="-8.654113">
        <ele>56.547</ele>
        <time>2018-08-25T17:41:54Z</time>
      </trkpt>
      <trkpt lat="42.768949" lon="-8.654078">
        <ele>56.061</ele>
        <time>2018-08-25T17:41:56Z</time>
      </trkpt>
      <trkpt lat="42.768994" lon="-8.654044">
        <ele>55.538</ele>
        <time>2018-08-25T17:41:58Z</time>
      </trkpt>
      <trkpt lat="42.769044" lon="-8.654003">
        <ele>55.286</ele>
        <time>2018-08-25T17:42:00Z</time>
      </trkpt>
      <trkpt lat="42.769100" lon="-8.653956">
        <ele>54.984</ele>
        <time>2018-08-25T17:42:02Z</time>
      </trkpt>
      <trkpt lat="42.769159" lon="-8.653906">
        <ele>55.224</ele>
        <time>2018-08-25T17:42:04Z</time>
      </trkpt>
      <trkpt lat="42.769218" lon="-8.653861">
        <ele>55.777</ele>
        <time>2018-08-25T17:42:06Z</time>
      </trkpt>
      <trkpt lat="42.769274" lon="-8.653819">
        <ele>56.461</ele>
        <time>2018-08-25T17:42:08Z</time>
      </trkpt>
      <trkpt lat="42.769334" lon="-8.653773">
        <ele>57.227</ele>
        <time>2018-08-25T17:42:10Z</time>
      </trkpt>
      <trkpt lat="42.769441" lon="-8.653689">
        <ele>58.108</ele>
        <time>2018-08-25T17:42:12Z</time>
      </trkpt>
      <trkpt lat="42.769482" lon="-8.653658">
        <ele>59.239</ele>
        <time>2018-08-25T17:42:14Z</time>
      </trkpt>
      <trkpt lat="42.769534" lon="-8.653618">
        <ele>60.375</ele>
        <time>2018-08-25T17:42:16Z</time>
      </trkpt>
      <trkpt lat="42.769591" lon="-8.653574">
        <ele>61.530</ele>
        <time>2018-08-25T17:42:18Z</time>
      </trkpt>
      <trkpt lat="42.769639" lon="-8.653529">
        <ele>62.854</ele>
        <time>2018-08-25T17:42:20Z</time>
      </trkpt>
      <trkpt lat="42.769685" lon="-8.653471">
        <ele>63.851</ele>
        <time>2018-08-25T17:42:22Z</time>
      </trkpt>
      <trkpt lat="42.769731" lon="-8.653404">
        <ele>64.589</ele>
        <time>2018-08-25T17:42:24Z</time>
      </trkpt>
      <trkpt lat="42.769776" lon="-8.653337">
        <ele>65.087</ele>
        <time>2018-08-25T17:42:26Z</time>
      </trkpt>
      <trkpt lat="42.769822" lon="-8.653272">
        <ele>65.377</ele>
        <time>2018-08-25T17:42:28Z</time>
      </trkpt>
      <trkpt lat="42.769863" lon="-8.653214">
        <ele>65.367</ele>
        <time>2018-08-25T17:42:30Z</time>
      </trkpt>
      <trkpt lat="42.769909" lon="-8.653176">
        <ele>65.381</ele>
        <time>2018-08-25T17:42:32Z</time>
      </trkpt>
      <trkpt lat="42.770014" lon="-8.653194">
        <ele>65.219</ele>
        <time>2018-08-25T17:42:34Z</time>
      </trkpt>
      <trkpt lat="42.770068" lon="-8.653260">
        <ele>65.308</ele>
        <time>2018-08-25T17:42:36Z</time>
      </trkpt>
      <trkpt lat="42.770105" lon="-8.653348">
        <ele>65.658</ele>
        <time>2018-08-25T17:42:38Z</time>
      </trkpt>
      <trkpt lat="42.770140" lon="-8.653413">
        <ele>66.014</ele>
        <time>2018-08-25T17:42:40Z</time>
      </trkpt>
      <trkpt lat="42.770170" lon="-8.653464">
        <ele>66.379</ele>
        <time>2018-08-25T17:42:42Z</time>
      </trkpt>
      <trkpt lat="42.770200" lon="-8.653517">
        <ele>66.683</ele>
        <time>2018-08-25T17:42:44Z</time>
      </trkpt>
      <trkpt lat="42.770229" lon="-8.653570">
        <ele>66.920</ele>
        <time>2018-08-25T17:42:46Z</time>
      </trkpt>
      <trkpt lat="42.770258" lon="-8.653620">
        <ele>67.128</ele>
        <time>2018-08-25T17:42:48Z</time>
      </trkpt>
      <trkpt lat="42.770298" lon="-8.653664">
        <ele>67.256</ele>
        <time>2018-08-25T17:42:51Z</time>
      </trkpt>
      <trkpt lat="42.770340" lon="-8.653687">
        <ele>67.796</ele>
        <time>2018-08-25T17:42:58Z</time>
      </trkpt>
      <trkpt lat="42.770379" lon="-8.653726">
        <ele>67.855</ele>
        <time>2018-08-25T17:43:03Z</time>
      </trkpt>
      <trkpt lat="42.770399" lon="-8.653796">
        <ele>67.907</ele>
        <time>2018-08-25T17:43:12Z</time>
      </trkpt>
      <trkpt lat="42.770378" lon="-8.653868">
        <ele>68.317</ele>
        <time>2018-08-25T17:43:15Z</time>
      </trkpt>
      <trkpt lat="42.770359" lon="-8.653924">
        <ele>68.908</ele>
        <time>2018-08-25T17:43:17Z</time>
      </trkpt>
      <trkpt lat="42.770336" lon="-8.653989">
        <ele>69.117</ele>
        <time>2018-08-25T17:43:20Z</time>
      </trkpt>
      <trkpt lat="42.770317" lon="-8.654049">
        <ele>69.483</ele>
        <time>2018-08-25T17:43:23Z</time>
      </trkpt>
      <trkpt lat="42.770313" lon="-8.654110">
        <ele>69.438</ele>
        <time>2018-08-25T17:43:26Z</time>
      </trkpt>
      <trkpt lat="42.770322" lon="-8.654186">
        <ele>70.982</ele>
        <time>2018-08-25T17:43:30Z</time>
      </trkpt>
      <trkpt lat="42.770349" lon="-8.654238">
        <ele>72.189</ele>
        <time>2018-08-25T17:43:33Z</time>
      </trkpt>
      <trkpt lat="42.770397" lon="-8.654259">
        <ele>72.217</ele>
        <time>2018-08-25T17:43:36Z</time>
      </trkpt>
      <trkpt lat="42.770444" lon="-8.654280">
        <ele>72.435</ele>
        <time>2018-08-25T17:43:39Z</time>
      </trkpt>
      <trkpt lat="42.770492" lon="-8.654304">
        <ele>72.625</ele>
        <time>2018-08-25T17:43:42Z</time>
      </trkpt>
      <trkpt lat="42.770539" lon="-8.654331">
        <ele>73.121</ele>
        <time>2018-08-25T17:43:45Z</time>
      </trkpt>
      <trkpt lat="42.770588" lon="-8.654353">
        <ele>74.341</ele>
        <time>2018-08-25T17:43:48Z</time>
      </trkpt>
      <trkpt lat="42.770637" lon="-8.654375">
        <ele>75.405</ele>
        <time>2018-08-25T17:43:51Z</time>
      </trkpt>
      <trkpt lat="42.770686" lon="-8.654400">
        <ele>76.408</ele>
        <time>2018-08-25T17:43:54Z</time>
      </trkpt>
      <trkpt lat="42.770737" lon="-8.654426">
        <ele>77.124</ele>
        <time>2018-08-25T17:43:57Z</time>
      </trkpt>
      <trkpt lat="42.770788" lon="-8.654455">
        <ele>77.360</ele>
        <time>2018-08-25T17:44:00Z</time>
      </trkpt>
      <trkpt lat="42.770838" lon="-8.654485">
        <ele>77.525</ele>
        <time>2018-08-25T17:44:03Z</time>
      </trkpt>
      <trkpt lat="42.770892" lon="-8.654516">
        <ele>77.969</ele>
        <time>2018-08-25T17:44:06Z</time>
      </trkpt>
      <trkpt lat="42.770948" lon="-8.654538">
        <ele>78.546</ele>
        <time>2018-08-25T17:44:09Z</time>
      </trkpt>
      <trkpt lat="42.770991" lon="-8.654556">
        <ele>79.074</ele>
        <time>2018-08-25T17:44:12Z</time>
      </trkpt>
      <trkpt lat="42.771049" lon="-8.654574">
        <ele>79.612</ele>
        <time>2018-08-25T17:44:16Z</time>
      </trkpt>
      <trkpt lat="42.771094" lon="-8.654584">
        <ele>79.912</ele>
        <time>2018-08-25T17:44:19Z</time>
      </trkpt>
      <trkpt lat="42.771145" lon="-8.654572">
        <ele>80.262</ele>
        <time>2018-08-25T17:44:24Z</time>
      </trkpt>
      <trkpt lat="42.771167" lon="-8.654470">
        <ele>80.583</ele>
        <time>2018-08-25T17:44:26Z</time>
      </trkpt>
      <trkpt lat="42.771158" lon="-8.654358">
        <ele>80.611</ele>
        <time>2018-08-25T17:44:28Z</time>
      </trkpt>
      <trkpt lat="42.771154" lon="-8.654295">
        <ele>80.708</ele>
        <time>2018-08-25T17:44:29Z</time>
      </trkpt>
      <trkpt lat="42.771164" lon="-8.654180">
        <ele>81.018</ele>
        <time>2018-08-25T17:44:31Z</time>
      </trkpt>
      <trkpt lat="42.771228" lon="-8.654111">
        <ele>81.544</ele>
        <time>2018-08-25T17:44:33Z</time>
      </trkpt>
      <trkpt lat="42.771273" lon="-8.654106">
        <ele>81.989</ele>
        <time>2018-08-25T17:44:35Z</time>
      </trkpt>
      <trkpt lat="42.771324" lon="-8.654111">
        <ele>82.023</ele>
        <time>2018-08-25T17:44:37Z</time>
      </trkpt>
      <trkpt lat="42.771377" lon="-8.654120">
        <ele>82.490</ele>
        <time>2018-08-25T17:44:39Z</time>
      </trkpt>
      <trkpt lat="42.771436" lon="-8.654119">
        <ele>83.058</ele>
        <time>2018-08-25T17:44:41Z</time>
      </trkpt>
      <trkpt lat="42.771501" lon="-8.654112">
        <ele>83.656</ele>
        <time>2018-08-25T17:44:43Z</time>
      </trkpt>
      <trkpt lat="42.771568" lon="-8.654107">
        <ele>84.186</ele>
        <time>2018-08-25T17:44:45Z</time>
      </trkpt>
      <trkpt lat="42.771635" lon="-8.654102">
        <ele>84.775</ele>
        <time>2018-08-25T17:44:47Z</time>
      </trkpt>
      <trkpt lat="42.771696" lon="-8.654097">
        <ele>85.328</ele>
        <time>2018-08-25T17:44:49Z</time>
      </trkpt>
      <trkpt lat="42.771758" lon="-8.654091">
        <ele>86.220</ele>
        <time>2018-08-25T17:44:51Z</time>
      </trkpt>
      <trkpt lat="42.771820" lon="-8.654086">
        <ele>87.208</ele>
        <time>2018-08-25T17:44:53Z</time>
      </trkpt>
      <trkpt lat="42.771880" lon="-8.654083">
        <ele>87.939</ele>
        <time>2018-08-25T17:44:55Z</time>
      </trkpt>
      <trkpt lat="42.771939" lon="-8.654084">
        <ele>88.355</ele>
        <time>2018-08-25T17:44:57Z</time>
      </trkpt>
      <trkpt lat="42.771990" lon="-8.654084">
        <ele>88.650</ele>
        <time>2018-08-25T17:44:59Z</time>
      </trkpt>
      <trkpt lat="42.772040" lon="-8.654079">
        <ele>88.824</ele>
        <time>2018-08-25T17:45:01Z</time>
      </trkpt>
      <trkpt lat="42.772093" lon="-8.654069">
        <ele>88.961</ele>
        <time>2018-08-25T17:45:03Z</time>
      </trkpt>
      <trkpt lat="42.772150" lon="-8.654064">
        <ele>89.299</ele>
        <time>2018-08-25T17:45:05Z</time>
      </trkpt>
      <trkpt lat="42.772213" lon="-8.654063">
        <ele>89.637</ele>
        <time>2018-08-25T17:45:07Z</time>
      </trkpt>
      <trkpt lat="42.772278" lon="-8.654062">
        <ele>90.077</ele>
        <time>2018-08-25T17:45:09Z</time>
      </trkpt>
      <trkpt lat="42.772344" lon="-8.654058">
        <ele>90.429</ele>
        <time>2018-08-25T17:45:11Z</time>
      </trkpt>
      <trkpt lat="42.772409" lon="-8.654051">
        <ele>91.000</ele>
        <time>2018-08-25T17:45:13Z</time>
      </trkpt>
      <trkpt lat="42.772470" lon="-8.654042">
        <ele>91.820</ele>
        <time>2018-08-25T17:45:15Z</time>
      </trkpt>
      <trkpt lat="42.772528" lon="-8.654030">
        <ele>92.908</ele>
        <time>2018-08-25T17:45:17Z</time>
      </trkpt>
      <trkpt lat="42.772588" lon="-8.654016">
        <ele>94.264</ele>
        <time>2018-08-25T17:45:19Z</time>
      </trkpt>
      <trkpt lat="42.772647" lon="-8.653996">
        <ele>95.480</ele>
        <time>2018-08-25T17:45:21Z</time>
      </trkpt>
      <trkpt lat="42.772702" lon="-8.653974">
        <ele>96.595</ele>
        <time>2018-08-25T17:45:23Z</time>
      </trkpt>
      <trkpt lat="42.772757" lon="-8.653956">
        <ele>97.459</ele>
        <time>2018-08-25T17:45:25Z</time>
      </trkpt>
      <trkpt lat="42.772806" lon="-8.653942">
        <ele>98.116</ele>
        <time>2018-08-25T17:45:27Z</time>
      </trkpt>
      <trkpt lat="42.772854" lon="-8.653928">
        <ele>98.564</ele>
        <time>2018-08-25T17:45:29Z</time>
      </trkpt>
      <trkpt lat="42.772903" lon="-8.653908">
        <ele>98.952</ele>
        <time>2018-08-25T17:45:31Z</time>
      </trkpt>
      <trkpt lat="42.772950" lon="-8.653889">
        <ele>99.272</ele>
        <time>2018-08-25T17:45:33Z</time>
      </trkpt>
      <trkpt lat="42.772996" lon="-8.653875">
        <ele>99.717</ele>
        <time>2018-08-25T17:45:35Z</time>
      </trkpt>
      <trkpt lat="42.773042" lon="-8.653862">
        <ele>100.187</ele>
        <time>2018-08-25T17:45:37Z</time>
      </trkpt>
      <trkpt lat="42.773106" lon="-8.653846">
        <ele>100.015</ele>
        <time>2018-08-25T17:45:40Z</time>
      </trkpt>
      <trkpt lat="42.773167" lon="-8.653834">
        <ele>99.608</ele>
        <time>2018-08-25T17:45:43Z</time>
      </trkpt>
      <trkpt lat="42.773214" lon="-8.653825">
        <ele>99.133</ele>
        <time>2018-08-25T17:45:45Z</time>
      </trkpt>
      <trkpt lat="42.773263" lon="-8.653816">
        <ele>98.649</ele>
        <time>2018-08-25T17:45:47Z</time>
      </trkpt>
      <trkpt lat="42.773318" lon="-8.653807">
        <ele>97.634</ele>
        <time>2018-08-25T17:45:50Z</time>
      </trkpt>
      <trkpt lat="42.773373" lon="-8.653790">
        <ele>96.628</ele>
        <time>2018-08-25T17:45:53Z</time>
      </trkpt>
      <trkpt lat="42.773419" lon="-8.653774">
        <ele>95.595</ele>
        <time>2018-08-25T17:45:55Z</time>
      </trkpt>
      <trkpt lat="42.773471" lon="-8.653758">
        <ele>94.913</ele>
        <time>2018-08-25T17:45:57Z</time>
      </trkpt>
      <trkpt lat="42.773523" lon="-8.653743">
        <ele>94.761</ele>
        <time>2018-08-25T17:45:59Z</time>
      </trkpt>
      <trkpt lat="42.773572" lon="-8.653727">
        <ele>94.791</ele>
        <time>2018-08-25T17:46:01Z</time>
      </trkpt>
      <trkpt lat="42.773623" lon="-8.653706">
        <ele>94.829</ele>
        <time>2018-08-25T17:46:03Z</time>
      </trkpt>
      <trkpt lat="42.773672" lon="-8.653687">
        <ele>94.900</ele>
        <time>2018-08-25T17:46:05Z</time>
      </trkpt>
      <trkpt lat="42.773721" lon="-8.653672">
        <ele>95.020</ele>
        <time>2018-08-25T17:46:07Z</time>
      </trkpt>
      <trkpt lat="42.773782" lon="-8.653681">
        <ele>94.908</ele>
        <time>2018-08-25T17:46:10Z</time>
      </trkpt>
      <trkpt lat="42.773823" lon="-8.653739">
        <ele>95.114</ele>
        <time>2018-08-25T17:46:13Z</time>
      </trkpt>
      <trkpt lat="42.773844" lon="-8.653799">
        <ele>95.220</ele>
        <time>2018-08-25T17:46:15Z</time>
      </trkpt>
      <trkpt lat="42.773858" lon="-8.653877">
        <ele>95.225</ele>
        <time>2018-08-25T17:46:17Z</time>
      </trkpt>
      <trkpt lat="42.773869" lon="-8.653956">
        <ele>95.039</ele>
        <time>2018-08-25T17:46:19Z</time>
      </trkpt>
      <trkpt lat="42.773880" lon="-8.654032">
        <ele>94.956</ele>
        <time>2018-08-25T17:46:21Z</time>
      </trkpt>
      <trkpt lat="42.773899" lon="-8.654106">
        <ele>94.914</ele>
        <time>2018-08-25T17:46:23Z</time>
      </trkpt>
      <trkpt lat="42.773932" lon="-8.654157">
        <ele>94.562</ele>
        <time>2018-08-25T17:46:25Z</time>
      </trkpt>
      <trkpt lat="42.773975" lon="-8.654183">
        <ele>94.272</ele>
        <time>2018-08-25T17:46:27Z</time>
      </trkpt>
      <trkpt lat="42.774028" lon="-8.654192">
        <ele>94.418</ele>
        <time>2018-08-25T17:46:29Z</time>
      </trkpt>
      <trkpt lat="42.774091" lon="-8.654193">
        <ele>95.098</ele>
        <time>2018-08-25T17:46:31Z</time>
      </trkpt>
      <trkpt lat="42.774158" lon="-8.654188">
        <ele>95.517</ele>
        <time>2018-08-25T17:46:33Z</time>
      </trkpt>
      <trkpt lat="42.774216" lon="-8.654181">
        <ele>95.908</ele>
        <time>2018-08-25T17:46:35Z</time>
      </trkpt>
      <trkpt lat="42.774273" lon="-8.654172">
        <ele>96.523</ele>
        <time>2018-08-25T17:46:37Z</time>
      </trkpt>
      <trkpt lat="42.774328" lon="-8.654158">
        <ele>97.259</ele>
        <time>2018-08-25T17:46:39Z</time>
      </trkpt>
      <trkpt lat="42.774382" lon="-8.654144">
        <ele>98.134</ele>
        <time>2018-08-25T17:46:41Z</time>
      </trkpt>
      <trkpt lat="42.774438" lon="-8.654133">
        <ele>99.048</ele>
        <time>2018-08-25T17:46:43Z</time>
      </trkpt>
      <trkpt lat="42.774497" lon="-8.654122">
        <ele>99.945</ele>
        <time>2018-08-25T17:46:45Z</time>
      </trkpt>
      <trkpt lat="42.774557" lon="-8.654111">
        <ele>100.813</ele>
        <time>2018-08-25T17:46:47Z</time>
      </trkpt>
      <trkpt lat="42.774613" lon="-8.654097">
        <ele>101.671</ele>
        <time>2018-08-25T17:46:49Z</time>
      </trkpt>
      <trkpt lat="42.774668" lon="-8.654079">
        <ele>102.231</ele>
        <time>2018-08-25T17:46:51Z</time>
      </trkpt>
      <trkpt lat="42.774725" lon="-8.654061">
        <ele>102.532</ele>
        <time>2018-08-25T17:46:53Z</time>
      </trkpt>
      <trkpt lat="42.774784" lon="-8.654042">
        <ele>102.892</ele>
        <time>2018-08-25T17:46:55Z</time>
      </trkpt>
      <trkpt lat="42.774846" lon="-8.654025">
        <ele>103.211</ele>
        <time>2018-08-25T17:46:57Z</time>
      </trkpt>
      <trkpt lat="42.774911" lon="-8.654012">
        <ele>103.508</ele>
        <time>2018-08-25T17:46:59Z</time>
      </trkpt>
      <trkpt lat="42.774973" lon="-8.653999">
        <ele>104.015</ele>
        <time>2018-08-25T17:47:01Z</time>
      </trkpt>
      <trkpt lat="42.775031" lon="-8.653986">
        <ele>104.571</ele>
        <time>2018-08-25T17:47:03Z</time>
      </trkpt>
      <trkpt lat="42.775087" lon="-8.653974">
        <ele>105.076</ele>
        <time>2018-08-25T17:47:05Z</time>
      </trkpt>
      <trkpt lat="42.775142" lon="-8.653961">
        <ele>104.920</ele>
        <time>2018-08-25T17:47:07Z</time>
      </trkpt>
      <trkpt lat="42.775196" lon="-8.653949">
        <ele>104.887</ele>
        <time>2018-08-25T17:47:09Z</time>
      </trkpt>
      <trkpt lat="42.775252" lon="-8.653939">
        <ele>105.025</ele>
        <time>2018-08-25T17:47:11Z</time>
      </trkpt>
      <trkpt lat="42.775309" lon="-8.653929">
        <ele>105.083</ele>
        <time>2018-08-25T17:47:13Z</time>
      </trkpt>
      <trkpt lat="42.775371" lon="-8.653923">
        <ele>105.033</ele>
        <time>2018-08-25T17:47:15Z</time>
      </trkpt>
      <trkpt lat="42.775439" lon="-8.653913">
        <ele>105.078</ele>
        <time>2018-08-25T17:47:17Z</time>
      </trkpt>
      <trkpt lat="42.775507" lon="-8.653901">
        <ele>105.133</ele>
        <time>2018-08-25T17:47:19Z</time>
      </trkpt>
      <trkpt lat="42.775572" lon="-8.653887">
        <ele>105.126</ele>
        <time>2018-08-25T17:47:21Z</time>
      </trkpt>
      <trkpt lat="42.775634" lon="-8.653873">
        <ele>105.108</ele>
        <time>2018-08-25T17:47:23Z</time>
      </trkpt>
      <trkpt lat="42.775694" lon="-8.653862">
        <ele>105.079</ele>
        <time>2018-08-25T17:47:25Z</time>
      </trkpt>
      <trkpt lat="42.775754" lon="-8.653852">
        <ele>104.925</ele>
        <time>2018-08-25T17:47:27Z</time>
      </trkpt>
      <trkpt lat="42.775818" lon="-8.653844">
        <ele>105.180</ele>
        <time>2018-08-25T17:47:29Z</time>
      </trkpt>
      <trkpt lat="42.775884" lon="-8.653834">
        <ele>105.644</ele>
        <time>2018-08-25T17:47:31Z</time>
      </trkpt>
      <trkpt lat="42.775949" lon="-8.653825">
        <ele>106.261</ele>
        <time>2018-08-25T17:47:33Z</time>
      </trkpt>
      <trkpt lat="42.776010" lon="-8.653821">
        <ele>106.979</ele>
        <time>2018-08-25T17:47:35Z</time>
      </trkpt>
      <trkpt lat="42.776068" lon="-8.653818">
        <ele>107.667</ele>
        <time>2018-08-25T17:47:37Z</time>
      </trkpt>
      <trkpt lat="42.776122" lon="-8.653816">
        <ele>108.187</ele>
        <time>2018-08-25T17:47:39Z</time>
      </trkpt>
      <trkpt lat="42.776172" lon="-8.653819">
        <ele>108.579</ele>
        <time>2018-08-25T17:47:41Z</time>
      </trkpt>
      <trkpt lat="42.776218" lon="-8.653825">
        <ele>108.905</ele>
        <time>2018-08-25T17:47:43Z</time>
      </trkpt>
      <trkpt lat="42.776269" lon="-8.653828">
        <ele>109.025</ele>
        <time>2018-08-25T17:47:45Z</time>
      </trkpt>
      <trkpt lat="42.776326" lon="-8.653822">
        <ele>109.008</ele>
        <time>2018-08-25T17:47:47Z</time>
      </trkpt>
      <trkpt lat="42.776379" lon="-8.653809">
        <ele>109.039</ele>
        <time>2018-08-25T17:47:49Z</time>
      </trkpt>
      <trkpt lat="42.776442" lon="-8.653788">
        <ele>109.015</ele>
        <time>2018-08-25T17:47:52Z</time>
      </trkpt>
      <trkpt lat="42.776497" lon="-8.653762">
        <ele>109.060</ele>
        <time>2018-08-25T17:47:55Z</time>
      </trkpt>
      <trkpt lat="42.776555" lon="-8.653737">
        <ele>109.144</ele>
        <time>2018-08-25T17:47:58Z</time>
      </trkpt>
      <trkpt lat="42.776602" lon="-8.653717">
        <ele>109.171</ele>
        <time>2018-08-25T17:48:00Z</time>
      </trkpt>
      <trkpt lat="42.776665" lon="-8.653695">
        <ele>108.919</ele>
        <time>2018-08-25T17:48:02Z</time>
      </trkpt>
      <trkpt lat="42.776758" lon="-8.653675">
        <ele>108.647</ele>
        <time>2018-08-25T17:48:03Z</time>
      </trkpt>
      <trkpt lat="42.776805" lon="-8.653671">
        <ele>108.177</ele>
        <time>2018-08-25T17:48:04Z</time>
      </trkpt>
      <trkpt lat="42.776857" lon="-8.653667">
        <ele>107.583</ele>
        <time>2018-08-25T17:48:05Z</time>
      </trkpt>
      <trkpt lat="42.776916" lon="-8.653664">
        <ele>106.425</ele>
        <time>2018-08-25T17:48:06Z</time>
      </trkpt>
      <trkpt lat="42.776973" lon="-8.653677">
        <ele>105.217</ele>
        <time>2018-08-25T17:48:07Z</time>
      </trkpt>
      <trkpt lat="42.777029" lon="-8.653702">
        <ele>104.308</ele>
        <time>2018-08-25T17:48:08Z</time>
      </trkpt>
      <trkpt lat="42.777084" lon="-8.653724">
        <ele>103.790</ele>
        <time>2018-08-25T17:48:09Z</time>
      </trkpt>
      <trkpt lat="42.777133" lon="-8.653743">
        <ele>103.426</ele>
        <time>2018-08-25T17:48:10Z</time>
      </trkpt>
      <trkpt lat="42.777194" lon="-8.653766">
        <ele>103.291</ele>
        <time>2018-08-25T17:48:13Z</time>
      </trkpt>
      <trkpt lat="42.777249" lon="-8.653752">
        <ele>102.825</ele>
        <time>2018-08-25T17:48:16Z</time>
      </trkpt>
      <trkpt lat="42.777300" lon="-8.653720">
        <ele>102.542</ele>
        <time>2018-08-25T17:48:19Z</time>
      </trkpt>
      <trkpt lat="42.777353" lon="-8.653689">
        <ele>102.260</ele>
        <time>2018-08-25T17:48:22Z</time>
      </trkpt>
      <trkpt lat="42.777407" lon="-8.653660">
        <ele>101.818</ele>
        <time>2018-08-25T17:48:25Z</time>
      </trkpt>
      <trkpt lat="42.777458" lon="-8.653658">
        <ele>100.748</ele>
        <time>2018-08-25T17:48:28Z</time>
      </trkpt>
      <trkpt lat="42.777560" lon="-8.653723">
        <ele>98.839</ele>
        <time>2018-08-25T17:48:30Z</time>
      </trkpt>
      <trkpt lat="42.777620" lon="-8.653728">
        <ele>97.101</ele>
        <time>2018-08-25T17:48:32Z</time>
      </trkpt>
      <trkpt lat="42.777698" lon="-8.653685">
        <ele>95.921</ele>
        <time>2018-08-25T17:48:34Z</time>
      </trkpt>
      <trkpt lat="42.777746" lon="-8.653660">
        <ele>94.908</ele>
        <time>2018-08-25T17:48:37Z</time>
      </trkpt>
      <trkpt lat="42.777797" lon="-8.653624">
        <ele>93.955</ele>
        <time>2018-08-25T17:48:40Z</time>
      </trkpt>
      <trkpt lat="42.777845" lon="-8.653575">
        <ele>93.531</ele>
        <time>2018-08-25T17:48:43Z</time>
      </trkpt>
      <trkpt lat="42.777898" lon="-8.653546">
        <ele>93.336</ele>
        <time>2018-08-25T17:48:46Z</time>
      </trkpt>
      <trkpt lat="42.777947" lon="-8.653532">
        <ele>93.250</ele>
        <time>2018-08-25T17:48:48Z</time>
      </trkpt>
      <trkpt lat="42.778004" lon="-8.653516">
        <ele>93.177</ele>
        <time>2018-08-25T17:48:50Z</time>
      </trkpt>
      <trkpt lat="42.778087" lon="-8.653491">
        <ele>93.125</ele>
        <time>2018-08-25T17:48:51Z</time>
      </trkpt>
      <trkpt lat="42.778166" lon="-8.653467">
        <ele>92.183</ele>
        <time>2018-08-25T17:48:53Z</time>
      </trkpt>
      <trkpt lat="42.778252" lon="-8.653490">
        <ele>90.833</ele>
        <time>2018-08-25T17:48:55Z</time>
      </trkpt>
      <trkpt lat="42.778297" lon="-8.653514">
        <ele>89.726</ele>
        <time>2018-08-25T17:48:56Z</time>
      </trkpt>
      <trkpt lat="42.778342" lon="-8.653543">
        <ele>88.947</ele>
        <time>2018-08-25T17:48:57Z</time>
      </trkpt>
      <trkpt lat="42.778388" lon="-8.653568">
        <ele>88.411</ele>
        <time>2018-08-25T17:48:58Z</time>
      </trkpt>
      <trkpt lat="42.778434" lon="-8.653584">
        <ele>88.108</ele>
        <time>2018-08-25T17:48:59Z</time>
      </trkpt>
      <trkpt lat="42.778479" lon="-8.653595">
        <ele>88.134</ele>
        <time>2018-08-25T17:49:00Z</time>
      </trkpt>
      <trkpt lat="42.778545" lon="-8.653603">
        <ele>89.320</ele>
        <time>2018-08-25T17:49:03Z</time>
      </trkpt>
      <trkpt lat="42.778597" lon="-8.653607">
        <ele>90.055</ele>
        <time>2018-08-25T17:49:06Z</time>
      </trkpt>
      <trkpt lat="42.778649" lon="-8.653599">
        <ele>90.599</ele>
        <time>2018-08-25T17:49:09Z</time>
      </trkpt>
      <trkpt lat="42.778709" lon="-8.653590">
        <ele>91.796</ele>
        <time>2018-08-25T17:49:12Z</time>
      </trkpt>
      <trkpt lat="42.778759" lon="-8.653574">
        <ele>92.684</ele>
        <time>2018-08-25T17:49:15Z</time>
      </trkpt>
      <trkpt lat="42.778805" lon="-8.653533">
        <ele>92.842</ele>
        <time>2018-08-25T17:49:18Z</time>
      </trkpt>
      <trkpt lat="42.778839" lon="-8.653492">
        <ele>93.232</ele>
        <time>2018-08-25T17:49:20Z</time>
      </trkpt>
      <trkpt lat="42.778882" lon="-8.653426">
        <ele>93.677</ele>
        <time>2018-08-25T17:49:23Z</time>
      </trkpt>
      <trkpt lat="42.778916" lon="-8.653361">
        <ele>93.661</ele>
        <time>2018-08-25T17:49:26Z</time>
      </trkpt>
      <trkpt lat="42.778948" lon="-8.653301">
        <ele>93.327</ele>
        <time>2018-08-25T17:49:29Z</time>
      </trkpt>
      <trkpt lat="42.778991" lon="-8.653236">
        <ele>92.808</ele>
        <time>2018-08-25T17:49:32Z</time>
      </trkpt>
      <trkpt lat="42.779028" lon="-8.653177">
        <ele>92.429</ele>
        <time>2018-08-25T17:49:35Z</time>
      </trkpt>
      <trkpt lat="42.779068" lon="-8.653113">
        <ele>92.135</ele>
        <time>2018-08-25T17:49:38Z</time>
      </trkpt>
      <trkpt lat="42.779111" lon="-8.653051">
        <ele>91.990</ele>
        <time>2018-08-25T17:49:41Z</time>
      </trkpt>
      <trkpt lat="42.779154" lon="-8.652985">
        <ele>91.984</ele>
        <time>2018-08-25T17:49:44Z</time>
      </trkpt>
      <trkpt lat="42.779185" lon="-8.652935">
        <ele>91.971</ele>
        <time>2018-08-25T17:49:46Z</time>
      </trkpt>
      <trkpt lat="42.779218" lon="-8.652880">
        <ele>92.139</ele>
        <time>2018-08-25T17:49:48Z</time>
      </trkpt>
      <trkpt lat="42.779253" lon="-8.652825">
        <ele>92.257</ele>
        <time>2018-08-25T17:49:50Z</time>
      </trkpt>
      <trkpt lat="42.779286" lon="-8.652776">
        <ele>92.347</ele>
        <time>2018-08-25T17:49:52Z</time>
      </trkpt>
      <trkpt lat="42.779333" lon="-8.652719">
        <ele>92.376</ele>
        <time>2018-08-25T17:49:55Z</time>
      </trkpt>
      <trkpt lat="42.779374" lon="-8.652667">
        <ele>92.390</ele>
        <time>2018-08-25T17:49:58Z</time>
      </trkpt>
      <trkpt lat="42.779408" lon="-8.652624">
        <ele>92.219</ele>
        <time>2018-08-25T17:50:00Z</time>
      </trkpt>
      <trkpt lat="42.779452" lon="-8.652564">
        <ele>92.008</ele>
        <time>2018-08-25T17:50:03Z</time>
      </trkpt>
      <trkpt lat="42.779501" lon="-8.652495">
        <ele>91.989</ele>
        <time>2018-08-25T17:50:06Z</time>
      </trkpt>
      <trkpt lat="42.779536" lon="-8.652443">
        <ele>92.085</ele>
        <time>2018-08-25T17:50:08Z</time>
      </trkpt>
      <trkpt lat="42.779573" lon="-8.652393">
        <ele>92.130</ele>
        <time>2018-08-25T17:50:10Z</time>
      </trkpt>
      <trkpt lat="42.779608" lon="-8.652349">
        <ele>92.114</ele>
        <time>2018-08-25T17:50:12Z</time>
      </trkpt>
      <trkpt lat="42.779654" lon="-8.652285">
        <ele>92.191</ele>
        <time>2018-08-25T17:50:15Z</time>
      </trkpt>
      <trkpt lat="42.779698" lon="-8.652212">
        <ele>91.799</ele>
        <time>2018-08-25T17:50:18Z</time>
      </trkpt>
      <trkpt lat="42.779737" lon="-8.652162">
        <ele>91.387</ele>
        <time>2018-08-25T17:50:20Z</time>
      </trkpt>
      <trkpt lat="42.779778" lon="-8.652119">
        <ele>91.077</ele>
        <time>2018-08-25T17:50:22Z</time>
      </trkpt>
      <trkpt lat="42.779821" lon="-8.652080">
        <ele>90.969</ele>
        <time>2018-08-25T17:50:24Z</time>
      </trkpt>
      <trkpt lat="42.779864" lon="-8.652049">
        <ele>90.904</ele>
        <time>2018-08-25T17:50:26Z</time>
      </trkpt>
      <trkpt lat="42.779920" lon="-8.652003">
        <ele>90.724</ele>
        <time>2018-08-25T17:50:29Z</time>
      </trkpt>
      <trkpt lat="42.779951" lon="-8.651959">
        <ele>90.408</ele>
        <time>2018-08-25T17:50:31Z</time>
      </trkpt>
      <trkpt lat="42.779986" lon="-8.651886">
        <ele>90.048</ele>
        <time>2018-08-25T17:50:34Z</time>
      </trkpt>
      <trkpt lat="42.780017" lon="-8.651807">
        <ele>89.654</ele>
        <time>2018-08-25T17:50:37Z</time>
      </trkpt>
      <trkpt lat="42.780029" lon="-8.651735">
        <ele>89.199</ele>
        <time>2018-08-25T17:50:40Z</time>
      </trkpt>
      <trkpt lat="42.780028" lon="-8.651648">
        <ele>88.973</ele>
        <time>2018-08-25T17:50:43Z</time>
      </trkpt>
      <trkpt lat="42.780026" lon="-8.651559">
        <ele>89.180</ele>
        <time>2018-08-25T17:50:46Z</time>
      </trkpt>
      <trkpt lat="42.780042" lon="-8.651472">
        <ele>89.878</ele>
        <time>2018-08-25T17:50:49Z</time>
      </trkpt>
      <trkpt lat="42.780062" lon="-8.651416">
        <ele>90.776</ele>
        <time>2018-08-25T17:50:51Z</time>
      </trkpt>
      <trkpt lat="42.780102" lon="-8.651344">
        <ele>91.546</ele>
        <time>2018-08-25T17:50:54Z</time>
      </trkpt>
      <trkpt lat="42.780134" lon="-8.651277">
        <ele>91.978</ele>
        <time>2018-08-25T17:50:57Z</time>
      </trkpt>
      <trkpt lat="42.780152" lon="-8.651211">
        <ele>91.833</ele>
        <time>2018-08-25T17:51:00Z</time>
      </trkpt>
      <trkpt lat="42.780169" lon="-8.651125">
        <ele>90.926</ele>
        <time>2018-08-25T17:51:12Z</time>
      </trkpt>
      <trkpt lat="42.780193" lon="-8.651070">
        <ele>92.608</ele>
        <time>2018-08-25T17:51:17Z</time>
      </trkpt>
      <trkpt lat="42.780242" lon="-8.651036">
        <ele>94.079</ele>
        <time>2018-08-25T17:51:19Z</time>
      </trkpt>
      <trkpt lat="42.780327" lon="-8.650997">
        <ele>95.095</ele>
        <time>2018-08-25T17:51:20Z</time>
      </trkpt>
      <trkpt lat="42.780407" lon="-8.650975">
        <ele>95.810</ele>
        <time>2018-08-25T17:51:22Z</time>
      </trkpt>
      <trkpt lat="42.780489" lon="-8.650949">
        <ele>96.144</ele>
        <time>2018-08-25T17:51:24Z</time>
      </trkpt>
      <trkpt lat="42.780537" lon="-8.650939">
        <ele>96.241</ele>
        <time>2018-08-25T17:51:26Z</time>
      </trkpt>
      <trkpt lat="42.780598" lon="-8.650925">
        <ele>96.929</ele>
        <time>2018-08-25T17:51:28Z</time>
      </trkpt>
      <trkpt lat="42.780667" lon="-8.650903">
        <ele>97.857</ele>
        <time>2018-08-25T17:51:30Z</time>
      </trkpt>
      <trkpt lat="42.780758" lon="-8.650874">
        <ele>98.587</ele>
        <time>2018-08-25T17:51:31Z</time>
      </trkpt>
      <trkpt lat="42.780804" lon="-8.650860">
        <ele>99.276</ele>
        <time>2018-08-25T17:51:32Z</time>
      </trkpt>
      <trkpt lat="42.780855" lon="-8.650844">
        <ele>100.190</ele>
        <time>2018-08-25T17:51:33Z</time>
      </trkpt>
      <trkpt lat="42.780904" lon="-8.650827">
        <ele>101.019</ele>
        <time>2018-08-25T17:51:34Z</time>
      </trkpt>
      <trkpt lat="42.780956" lon="-8.650811">
        <ele>101.908</ele>
        <time>2018-08-25T17:51:35Z</time>
      </trkpt>
      <trkpt lat="42.781008" lon="-8.650797">
        <ele>102.849</ele>
        <time>2018-08-25T17:51:36Z</time>
      </trkpt>
      <trkpt lat="42.781053" lon="-8.650787">
        <ele>103.545</ele>
        <time>2018-08-25T17:51:37Z</time>
      </trkpt>
      <trkpt lat="42.781138" lon="-8.650772">
        <ele>104.570</ele>
        <time>2018-08-25T17:51:39Z</time>
      </trkpt>
      <trkpt lat="42.781222" lon="-8.650764">
        <ele>105.394</ele>
        <time>2018-08-25T17:51:41Z</time>
      </trkpt>
      <trkpt lat="42.781302" lon="-8.650752">
        <ele>105.891</ele>
        <time>2018-08-25T17:51:43Z</time>
      </trkpt>
      <trkpt lat="42.781380" lon="-8.650737">
        <ele>106.219</ele>
        <time>2018-08-25T17:51:45Z</time>
      </trkpt>
      <trkpt lat="42.781440" lon="-8.650725">
        <ele>106.567</ele>
        <time>2018-08-25T17:51:47Z</time>
      </trkpt>
      <trkpt lat="42.781506" lon="-8.650715">
        <ele>106.317</ele>
        <time>2018-08-25T17:51:50Z</time>
      </trkpt>
      <trkpt lat="42.781556" lon="-8.650710">
        <ele>106.498</ele>
        <time>2018-08-25T17:51:52Z</time>
      </trkpt>
      <trkpt lat="42.781656" lon="-8.650694">
        <ele>106.115</ele>
        <time>2018-08-25T17:51:54Z</time>
      </trkpt>
      <trkpt lat="42.781729" lon="-8.650682">
        <ele>105.326</ele>
        <time>2018-08-25T17:51:56Z</time>
      </trkpt>
      <trkpt lat="42.781803" lon="-8.650666">
        <ele>104.408</ele>
        <time>2018-08-25T17:51:58Z</time>
      </trkpt>
      <trkpt lat="42.781858" lon="-8.650649">
        <ele>103.671</ele>
        <time>2018-08-25T17:52:00Z</time>
      </trkpt>
      <trkpt lat="42.781903" lon="-8.650638">
        <ele>103.047</ele>
        <time>2018-08-25T17:52:02Z</time>
      </trkpt>
      <trkpt lat="42.781952" lon="-8.650624">
        <ele>102.692</ele>
        <time>2018-08-25T17:52:04Z</time>
      </trkpt>
      <trkpt lat="42.782009" lon="-8.650606">
        <ele>102.346</ele>
        <time>2018-08-25T17:52:06Z</time>
      </trkpt>
      <trkpt lat="42.782091" lon="-8.650585">
        <ele>102.243</ele>
        <time>2018-08-25T17:52:07Z</time>
      </trkpt>
      <trkpt lat="42.782167" lon="-8.650567">
        <ele>102.231</ele>
        <time>2018-08-25T17:52:09Z</time>
      </trkpt>
      <trkpt lat="42.782227" lon="-8.650556">
        <ele>101.869</ele>
        <time>2018-08-25T17:52:12Z</time>
      </trkpt>
      <trkpt lat="42.782278" lon="-8.650543">
        <ele>101.199</ele>
        <time>2018-08-25T17:52:14Z</time>
      </trkpt>
      <trkpt lat="42.782332" lon="-8.650537">
        <ele>100.933</ele>
        <time>2018-08-25T17:52:16Z</time>
      </trkpt>
      <trkpt lat="42.782391" lon="-8.650531">
        <ele>100.623</ele>
        <time>2018-08-25T17:52:18Z</time>
      </trkpt>
      <trkpt lat="42.782451" lon="-8.650514">
        <ele>100.215</ele>
        <time>2018-08-25T17:52:20Z</time>
      </trkpt>
      <trkpt lat="42.782517" lon="-8.650494">
        <ele>100.008</ele>
        <time>2018-08-25T17:52:22Z</time>
      </trkpt>
      <trkpt lat="42.782575" lon="-8.650477">
        <ele>99.895</ele>
        <time>2018-08-25T17:52:24Z</time>
      </trkpt>
      <trkpt lat="42.782623" lon="-8.650462">
        <ele>99.411</ele>
        <time>2018-08-25T17:52:26Z</time>
      </trkpt>
      <trkpt lat="42.782679" lon="-8.650446">
        <ele>99.146</ele>
        <time>2018-08-25T17:52:28Z</time>
      </trkpt>
      <trkpt lat="42.782739" lon="-8.650430">
        <ele>98.290</ele>
        <time>2018-08-25T17:52:30Z</time>
      </trkpt>
      <trkpt lat="42.782810" lon="-8.650406">
        <ele>96.417</ele>
        <time>2018-08-25T17:52:32Z</time>
      </trkpt>
      <trkpt lat="42.782879" lon="-8.650381">
        <ele>94.935</ele>
        <time>2018-08-25T17:52:34Z</time>
      </trkpt>
      <trkpt lat="42.782937" lon="-8.650358">
        <ele>93.933</ele>
        <time>2018-08-25T17:52:36Z</time>
      </trkpt>
      <trkpt lat="42.782996" lon="-8.650339">
        <ele>93.473</ele>
        <time>2018-08-25T17:52:38Z</time>
      </trkpt>
      <trkpt lat="42.783056" lon="-8.650320">
        <ele>93.018</ele>
        <time>2018-08-25T17:52:40Z</time>
      </trkpt>
      <trkpt lat="42.783113" lon="-8.650305">
        <ele>93.098</ele>
        <time>2018-08-25T17:52:42Z</time>
      </trkpt>
      <trkpt lat="42.783168" lon="-8.650290">
        <ele>92.817</ele>
        <time>2018-08-25T17:52:44Z</time>
      </trkpt>
      <trkpt lat="42.783229" lon="-8.650276">
        <ele>92.908</ele>
        <time>2018-08-25T17:52:46Z</time>
      </trkpt>
      <trkpt lat="42.783291" lon="-8.650261">
        <ele>93.013</ele>
        <time>2018-08-25T17:52:48Z</time>
      </trkpt>
      <trkpt lat="42.783355" lon="-8.650244">
        <ele>93.029</ele>
        <time>2018-08-25T17:52:50Z</time>
      </trkpt>
      <trkpt lat="42.783415" lon="-8.650228">
        <ele>92.624</ele>
        <time>2018-08-25T17:52:52Z</time>
      </trkpt>
      <trkpt lat="42.783472" lon="-8.650219">
        <ele>91.918</ele>
        <time>2018-08-25T17:52:54Z</time>
      </trkpt>
      <trkpt lat="42.783528" lon="-8.650211">
        <ele>91.165</ele>
        <time>2018-08-25T17:52:56Z</time>
      </trkpt>
      <trkpt lat="42.783583" lon="-8.650201">
        <ele>90.623</ele>
        <time>2018-08-25T17:52:58Z</time>
      </trkpt>
      <trkpt lat="42.783635" lon="-8.650188">
        <ele>90.281</ele>
        <time>2018-08-25T17:53:00Z</time>
      </trkpt>
      <trkpt lat="42.783697" lon="-8.650179">
        <ele>90.981</ele>
        <time>2018-08-25T17:53:02Z</time>
      </trkpt>
      <trkpt lat="42.783755" lon="-8.650178">
        <ele>91.718</ele>
        <time>2018-08-25T17:53:04Z</time>
      </trkpt>
      <trkpt lat="42.783804" lon="-8.650179">
        <ele>92.198</ele>
        <time>2018-08-25T17:53:06Z</time>
      </trkpt>
      <trkpt lat="42.783852" lon="-8.650179">
        <ele>92.417</ele>
        <time>2018-08-25T17:53:08Z</time>
      </trkpt>
      <trkpt lat="42.783908" lon="-8.650171">
        <ele>92.608</ele>
        <time>2018-08-25T17:53:10Z</time>
      </trkpt>
      <trkpt lat="42.783968" lon="-8.650151">
        <ele>92.813</ele>
        <time>2018-08-25T17:53:12Z</time>
      </trkpt>
      <trkpt lat="42.784026" lon="-8.650126">
        <ele>92.969</ele>
        <time>2018-08-25T17:53:14Z</time>
      </trkpt>
      <trkpt lat="42.784080" lon="-8.650098">
        <ele>93.154</ele>
        <time>2018-08-25T17:53:16Z</time>
      </trkpt>
      <trkpt lat="42.784129" lon="-8.650071">
        <ele>93.368</ele>
        <time>2018-08-25T17:53:18Z</time>
      </trkpt>
      <trkpt lat="42.784174" lon="-8.650051">
        <ele>93.575</ele>
        <time>2018-08-25T17:53:20Z</time>
      </trkpt>
      <trkpt lat="42.784226" lon="-8.650027">
        <ele>93.813</ele>
        <time>2018-08-25T17:53:22Z</time>
      </trkpt>
      <trkpt lat="42.784276" lon="-8.649999">
        <ele>94.211</ele>
        <time>2018-08-25T17:53:24Z</time>
      </trkpt>
      <trkpt lat="42.784321" lon="-8.649973">
        <ele>94.411</ele>
        <time>2018-08-25T17:53:26Z</time>
      </trkpt>
      <trkpt lat="42.784369" lon="-8.649947">
        <ele>94.549</ele>
        <time>2018-08-25T17:53:28Z</time>
      </trkpt>
      <trkpt lat="42.784416" lon="-8.649921">
        <ele>94.102</ele>
        <time>2018-08-25T17:53:30Z</time>
      </trkpt>
      <trkpt lat="42.784464" lon="-8.649894">
        <ele>93.822</ele>
        <time>2018-08-25T17:53:32Z</time>
      </trkpt>
      <trkpt lat="42.784508" lon="-8.649873">
        <ele>93.708</ele>
        <time>2018-08-25T17:53:34Z</time>
      </trkpt>
      <trkpt lat="42.784545" lon="-8.649837">
        <ele>93.376</ele>
        <time>2018-08-25T17:53:37Z</time>
      </trkpt>
      <trkpt lat="42.784544" lon="-8.649767">
        <ele>92.542</ele>
        <time>2018-08-25T17:53:41Z</time>
      </trkpt>
      <trkpt lat="42.784530" lon="-8.649702">
        <ele>91.897</ele>
        <time>2018-08-25T17:53:45Z</time>
      </trkpt>
      <trkpt lat="42.784522" lon="-8.649625">
        <ele>91.561</ele>
        <time>2018-08-25T17:53:49Z</time>
      </trkpt>
      <trkpt lat="42.784530" lon="-8.649558">
        <ele>91.468</ele>
        <time>2018-08-25T17:53:54Z</time>
      </trkpt>
      <trkpt lat="42.784556" lon="-8.649507">
        <ele>91.316</ele>
        <time>2018-08-25T17:53:58Z</time>
      </trkpt>
      <trkpt lat="42.784591" lon="-8.649456">
        <ele>91.374</ele>
        <time>2018-08-25T17:54:02Z</time>
      </trkpt>
      <trkpt lat="42.784629" lon="-8.649402">
        <ele>91.544</ele>
        <time>2018-08-25T17:54:06Z</time>
      </trkpt>
      <trkpt lat="42.784673" lon="-8.649347">
        <ele>91.834</ele>
        <time>2018-08-25T17:54:09Z</time>
      </trkpt>
      <trkpt lat="42.784712" lon="-8.649288">
        <ele>92.055</ele>
        <time>2018-08-25T17:54:12Z</time>
      </trkpt>
      <trkpt lat="42.784740" lon="-8.649239">
        <ele>92.310</ele>
        <time>2018-08-25T17:54:14Z</time>
      </trkpt>
      <trkpt lat="42.784799" lon="-8.649144">
        <ele>93.008</ele>
        <time>2018-08-25T17:54:20Z</time>
      </trkpt>
      <trkpt lat="42.784846" lon="-8.649088">
        <ele>93.365</ele>
        <time>2018-08-25T17:54:24Z</time>
      </trkpt>
      <trkpt lat="42.784888" lon="-8.649044">
        <ele>93.641</ele>
        <time>2018-08-25T17:54:27Z</time>
      </trkpt>
      <trkpt lat="42.784931" lon="-8.649001">
        <ele>94.416</ele>
        <time>2018-08-25T17:54:30Z</time>
      </trkpt>
      <trkpt lat="42.784976" lon="-8.648956">
        <ele>95.220</ele>
        <time>2018-08-25T17:54:33Z</time>
      </trkpt>
      <trkpt lat="42.785016" lon="-8.648926">
        <ele>96.117</ele>
        <time>2018-08-25T17:54:36Z</time>
      </trkpt>
      <trkpt lat="42.785056" lon="-8.648898">
        <ele>96.995</ele>
        <time>2018-08-25T17:54:39Z</time>
      </trkpt>
      <trkpt lat="42.785111" lon="-8.648867">
        <ele>97.883</ele>
        <time>2018-08-25T17:54:42Z</time>
      </trkpt>
      <trkpt lat="42.785163" lon="-8.648837">
        <ele>98.663</ele>
        <time>2018-08-25T17:54:45Z</time>
      </trkpt>
      <trkpt lat="42.785210" lon="-8.648803">
        <ele>99.175</ele>
        <time>2018-08-25T17:54:48Z</time>
      </trkpt>
      <trkpt lat="42.785245" lon="-8.648762">
        <ele>99.528</ele>
        <time>2018-08-25T17:54:51Z</time>
      </trkpt>
      <trkpt lat="42.785292" lon="-8.648719">
        <ele>99.620</ele>
        <time>2018-08-25T17:54:55Z</time>
      </trkpt>
      <trkpt lat="42.785340" lon="-8.648683">
        <ele>99.508</ele>
        <time>2018-08-25T17:55:01Z</time>
      </trkpt>
      <trkpt lat="42.785391" lon="-8.648617">
        <ele>99.519</ele>
        <time>2018-08-25T17:55:05Z</time>
      </trkpt>
      <trkpt lat="42.785419" lon="-8.648568">
        <ele>97.135</ele>
        <time>2018-08-25T17:55:06Z</time>
      </trkpt>
      <trkpt lat="42.785468" lon="-8.648497">
        <ele>96.540</ele>
        <time>2018-08-25T17:55:08Z</time>
      </trkpt>
      <trkpt lat="42.785522" lon="-8.648417">
        <ele>95.154</ele>
        <time>2018-08-25T17:55:10Z</time>
      </trkpt>
      <trkpt lat="42.785575" lon="-8.648347">
        <ele>94.091</ele>
        <time>2018-08-25T17:55:12Z</time>
      </trkpt>
      <trkpt lat="42.785625" lon="-8.648282">
        <ele>93.739</ele>
        <time>2018-08-25T17:55:14Z</time>
      </trkpt>
      <trkpt lat="42.785671" lon="-8.648217">
        <ele>93.297</ele>
        <time>2018-08-25T17:55:16Z</time>
      </trkpt>
      <trkpt lat="42.785715" lon="-8.648146">
        <ele>92.617</ele>
        <time>2018-08-25T17:55:18Z</time>
      </trkpt>
      <trkpt lat="42.785757" lon="-8.648077">
        <ele>92.371</ele>
        <time>2018-08-25T17:55:20Z</time>
      </trkpt>
      <trkpt lat="42.785799" lon="-8.648017">
        <ele>92.341</ele>
        <time>2018-08-25T17:55:22Z</time>
      </trkpt>
      <trkpt lat="42.785844" lon="-8.647959">
        <ele>93.315</ele>
        <time>2018-08-25T17:55:24Z</time>
      </trkpt>
      <trkpt lat="42.785898" lon="-8.647901">
        <ele>95.208</ele>
        <time>2018-08-25T17:55:26Z</time>
      </trkpt>
      <trkpt lat="42.785946" lon="-8.647855">
        <ele>95.849</ele>
        <time>2018-08-25T17:55:28Z</time>
      </trkpt>
      <trkpt lat="42.785998" lon="-8.647828">
        <ele>96.485</ele>
        <time>2018-08-25T17:55:30Z</time>
      </trkpt>
      <trkpt lat="42.786053" lon="-8.647815">
        <ele>96.680</ele>
        <time>2018-08-25T17:55:32Z</time>
      </trkpt>
      <trkpt lat="42.786104" lon="-8.647814">
        <ele>96.784</ele>
        <time>2018-08-25T17:55:34Z</time>
      </trkpt>
      <trkpt lat="42.786149" lon="-8.647817">
        <ele>97.261</ele>
        <time>2018-08-25T17:55:36Z</time>
      </trkpt>
      <trkpt lat="42.786202" lon="-8.647826">
        <ele>98.199</ele>
        <time>2018-08-25T17:55:39Z</time>
      </trkpt>
      <trkpt lat="42.786263" lon="-8.647833">
        <ele>98.737</ele>
        <time>2018-08-25T17:55:43Z</time>
      </trkpt>
      <trkpt lat="42.786323" lon="-8.647842">
        <ele>99.157</ele>
        <time>2018-08-25T17:55:46Z</time>
      </trkpt>
      <trkpt lat="42.786367" lon="-8.647858">
        <ele>99.428</ele>
        <time>2018-08-25T17:55:48Z</time>
      </trkpt>
      <trkpt lat="42.786423" lon="-8.647892">
        <ele>99.889</ele>
        <time>2018-08-25T17:55:51Z</time>
      </trkpt>
      <trkpt lat="42.786466" lon="-8.647924">
        <ele>99.317</ele>
        <time>2018-08-25T17:55:54Z</time>
      </trkpt>
      <trkpt lat="42.786517" lon="-8.647953">
        <ele>98.708</ele>
        <time>2018-08-25T17:56:11Z</time>
      </trkpt>
      <trkpt lat="42.786580" lon="-8.647963">
        <ele>98.224</ele>
        <time>2018-08-25T17:56:14Z</time>
      </trkpt>
      <trkpt lat="42.786632" lon="-8.647970">
        <ele>97.910</ele>
        <time>2018-08-25T17:56:16Z</time>
      </trkpt>
      <trkpt lat="42.786684" lon="-8.647976">
        <ele>98.115</ele>
        <time>2018-08-25T17:56:18Z</time>
      </trkpt>
      <trkpt lat="42.786736" lon="-8.647980">
        <ele>98.769</ele>
        <time>2018-08-25T17:56:20Z</time>
      </trkpt>
      <trkpt lat="42.786787" lon="-8.647993">
        <ele>98.816</ele>
        <time>2018-08-25T17:56:22Z</time>
      </trkpt>
      <trkpt lat="42.786835" lon="-8.648017">
        <ele>98.164</ele>
        <time>2018-08-25T17:56:24Z</time>
      </trkpt>
      <trkpt lat="42.786883" lon="-8.648044">
        <ele>97.282</ele>
        <time>2018-08-25T17:56:26Z</time>
      </trkpt>
      <trkpt lat="42.786927" lon="-8.648059">
        <ele>97.122</ele>
        <time>2018-08-25T17:56:28Z</time>
      </trkpt>
      <trkpt lat="42.786992" lon="-8.648028">
        <ele>97.645</ele>
        <time>2018-08-25T17:56:31Z</time>
      </trkpt>
      <trkpt lat="42.787041" lon="-8.647992">
        <ele>98.547</ele>
        <time>2018-08-25T17:56:33Z</time>
      </trkpt>
      <trkpt lat="42.787087" lon="-8.647961">
        <ele>99.811</ele>
        <time>2018-08-25T17:56:35Z</time>
      </trkpt>
      <trkpt lat="42.787133" lon="-8.647933">
        <ele>101.208</ele>
        <time>2018-08-25T17:56:37Z</time>
      </trkpt>
      <trkpt lat="42.787178" lon="-8.647906">
        <ele>102.446</ele>
        <time>2018-08-25T17:56:39Z</time>
      </trkpt>
      <trkpt lat="42.787223" lon="-8.647883">
        <ele>103.572</ele>
        <time>2018-08-25T17:56:41Z</time>
      </trkpt>
      <trkpt lat="42.787265" lon="-8.647860">
        <ele>104.357</ele>
        <time>2018-08-25T17:56:43Z</time>
      </trkpt>
      <trkpt lat="42.787309" lon="-8.647834">
        <ele>104.751</ele>
        <time>2018-08-25T17:56:45Z</time>
      </trkpt>
      <trkpt lat="42.787357" lon="-8.647809">
        <ele>104.828</ele>
        <time>2018-08-25T17:56:47Z</time>
      </trkpt>
      <trkpt lat="42.787404" lon="-8.647779">
        <ele>104.716</ele>
        <time>2018-08-25T17:56:49Z</time>
      </trkpt>
      <trkpt lat="42.787462" lon="-8.647746">
        <ele>104.934</ele>
        <time>2018-08-25T17:56:51Z</time>
      </trkpt>
      <trkpt lat="42.787525" lon="-8.647729">
        <ele>105.284</ele>
        <time>2018-08-25T17:56:53Z</time>
      </trkpt>
      <trkpt lat="42.787584" lon="-8.647725">
        <ele>105.582</ele>
        <time>2018-08-25T17:56:55Z</time>
      </trkpt>
      <trkpt lat="42.787640" lon="-8.647724">
        <ele>105.943</ele>
        <time>2018-08-25T17:56:57Z</time>
      </trkpt>
      <trkpt lat="42.787695" lon="-8.647718">
        <ele>106.517</ele>
        <time>2018-08-25T17:56:59Z</time>
      </trkpt>
      <trkpt lat="42.787752" lon="-8.647718">
        <ele>107.308</ele>
        <time>2018-08-25T17:57:01Z</time>
      </trkpt>
      <trkpt lat="42.787808" lon="-8.647721">
        <ele>108.440</ele>
        <time>2018-08-25T17:57:03Z</time>
      </trkpt>
      <trkpt lat="42.787863" lon="-8.647719">
        <ele>109.616</ele>
        <time>2018-08-25T17:57:05Z</time>
      </trkpt>
      <trkpt lat="42.787917" lon="-8.647719">
        <ele>110.631</ele>
        <time>2018-08-25T17:57:07Z</time>
      </trkpt>
      <trkpt lat="42.787972" lon="-8.647711">
        <ele>111.415</ele>
        <time>2018-08-25T17:57:09Z</time>
      </trkpt>
      <trkpt lat="42.788024" lon="-8.647700">
        <ele>111.942</ele>
        <time>2018-08-25T17:57:11Z</time>
      </trkpt>
      <trkpt lat="42.788070" lon="-8.647634">
        <ele>112.140</ele>
        <time>2018-08-25T17:57:14Z</time>
      </trkpt>
      <trkpt lat="42.788068" lon="-8.647558">
        <ele>112.338</ele>
        <time>2018-08-25T17:57:16Z</time>
      </trkpt>
      <trkpt lat="42.788055" lon="-8.647481">
        <ele>112.418</ele>
        <time>2018-08-25T17:57:18Z</time>
      </trkpt>
      <trkpt lat="42.788043" lon="-8.647412">
        <ele>112.692</ele>
        <time>2018-08-25T17:57:20Z</time>
      </trkpt>
      <trkpt lat="42.788031" lon="-8.647338">
        <ele>112.973</ele>
        <time>2018-08-25T17:57:22Z</time>
      </trkpt>
      <trkpt lat="42.788029" lon="-8.647265">
        <ele>113.320</ele>
        <time>2018-08-25T17:57:24Z</time>
      </trkpt>
      <trkpt lat="42.788055" lon="-8.647207">
        <ele>113.508</ele>
        <time>2018-08-25T17:57:26Z</time>
      </trkpt>
      <trkpt lat="42.788101" lon="-8.647173">
        <ele>113.751</ele>
        <time>2018-08-25T17:57:28Z</time>
      </trkpt>
      <trkpt lat="42.788157" lon="-8.647146">
        <ele>113.717</ele>
        <time>2018-08-25T17:57:30Z</time>
      </trkpt>
      <trkpt lat="42.788218" lon="-8.647132">
        <ele>113.882</ele>
        <time>2018-08-25T17:57:32Z</time>
      </trkpt>
      <trkpt lat="42.788283" lon="-8.647118">
        <ele>113.816</ele>
        <time>2018-08-25T17:57:34Z</time>
      </trkpt>
      <trkpt lat="42.788344" lon="-8.647099">
        <ele>113.753</ele>
        <time>2018-08-25T17:57:36Z</time>
      </trkpt>
      <trkpt lat="42.788403" lon="-8.647081">
        <ele>113.631</ele>
        <time>2018-08-25T17:57:38Z</time>
      </trkpt>
      <trkpt lat="42.788468" lon="-8.647061">
        <ele>113.369</ele>
        <time>2018-08-25T17:57:40Z</time>
      </trkpt>
      <trkpt lat="42.788582" lon="-8.647024">
        <ele>113.169</ele>
        <time>2018-08-25T17:57:42Z</time>
      </trkpt>
      <trkpt lat="42.788654" lon="-8.647004">
        <ele>112.844</ele>
        <time>2018-08-25T17:57:44Z</time>
      </trkpt>
      <trkpt lat="42.788728" lon="-8.646985">
        <ele>112.505</ele>
        <time>2018-08-25T17:57:46Z</time>
      </trkpt>
      <trkpt lat="42.788798" lon="-8.646959">
        <ele>112.115</ele>
        <time>2018-08-25T17:57:48Z</time>
      </trkpt>
      <trkpt lat="42.788863" lon="-8.646935">
        <ele>111.808</ele>
        <time>2018-08-25T17:57:51Z</time>
      </trkpt>
      <trkpt lat="42.788962" lon="-8.646906">
        <ele>111.896</ele>
        <time>2018-08-25T17:57:53Z</time>
      </trkpt>
      <trkpt lat="42.789029" lon="-8.646880">
        <ele>112.092</ele>
        <time>2018-08-25T17:57:55Z</time>
      </trkpt>
      <trkpt lat="42.789092" lon="-8.646858">
        <ele>112.617</ele>
        <time>2018-08-25T17:57:58Z</time>
      </trkpt>
      <trkpt lat="42.789145" lon="-8.646840">
        <ele>113.231</ele>
        <time>2018-08-25T17:58:00Z</time>
      </trkpt>
      <trkpt lat="42.789253" lon="-8.646807">
        <ele>113.698</ele>
        <time>2018-08-25T17:58:02Z</time>
      </trkpt>
      <trkpt lat="42.789312" lon="-8.646792">
        <ele>113.946</ele>
        <time>2018-08-25T17:58:04Z</time>
      </trkpt>
      <trkpt lat="42.789366" lon="-8.646781">
        <ele>114.134</ele>
        <time>2018-08-25T17:58:05Z</time>
      </trkpt>
      <trkpt lat="42.789442" lon="-8.646753">
        <ele>114.034</ele>
        <time>2018-08-25T17:58:07Z</time>
      </trkpt>
      <trkpt lat="42.789517" lon="-8.646733">
        <ele>113.828</ele>
        <time>2018-08-25T17:58:09Z</time>
      </trkpt>
      <trkpt lat="42.789591" lon="-8.646703">
        <ele>113.889</ele>
        <time>2018-08-25T17:58:11Z</time>
      </trkpt>
      <trkpt lat="42.789672" lon="-8.646682">
        <ele>113.617</ele>
        <time>2018-08-25T17:58:13Z</time>
      </trkpt>
      <trkpt lat="42.789757" lon="-8.646665">
        <ele>113.108</ele>
        <time>2018-08-25T17:58:15Z</time>
      </trkpt>
      <trkpt lat="42.789803" lon="-8.646649">
        <ele>112.624</ele>
        <time>2018-08-25T17:58:16Z</time>
      </trkpt>
      <trkpt lat="42.789848" lon="-8.646613">
        <ele>112.050</ele>
        <time>2018-08-25T17:58:17Z</time>
      </trkpt>
      <trkpt lat="42.789886" lon="-8.646559">
        <ele>111.475</ele>
        <time>2018-08-25T17:58:18Z</time>
      </trkpt>
      <trkpt lat="42.789903" lon="-8.646493">
        <ele>111.059</ele>
        <time>2018-08-25T17:58:19Z</time>
      </trkpt>
      <trkpt lat="42.789901" lon="-8.646409">
        <ele>110.716</ele>
        <time>2018-08-25T17:58:21Z</time>
      </trkpt>
      <trkpt lat="42.789878" lon="-8.646346">
        <ele>110.594</ele>
        <time>2018-08-25T17:58:24Z</time>
      </trkpt>
      <trkpt lat="42.789859" lon="-8.646273">
        <ele>110.242</ele>
        <time>2018-08-25T17:58:28Z</time>
      </trkpt>
      <trkpt lat="42.789825" lon="-8.646166">
        <ele>110.342</ele>
        <time>2018-08-25T17:59:26Z</time>
      </trkpt>
      <trkpt lat="42.789821" lon="-8.646102">
        <ele>110.838</ele>
        <time>2018-08-25T17:59:39Z</time>
      </trkpt>
      <trkpt lat="42.789826" lon="-8.646024">
        <ele>110.870</ele>
        <time>2018-08-25T17:59:49Z</time>
      </trkpt>
      <trkpt lat="42.789836" lon="-8.645962">
        <ele>110.817</ele>
        <time>2018-08-25T18:00:07Z</time>
      </trkpt>
      <trkpt lat="42.789865" lon="-8.645915">
        <ele>110.608</ele>
        <time>2018-08-25T18:00:12Z</time>
      </trkpt>
      <trkpt lat="42.789891" lon="-8.645853">
        <ele>110.625</ele>
        <time>2018-08-25T18:00:21Z</time>
      </trkpt>
      <trkpt lat="42.789910" lon="-8.645796">
        <ele>110.631</ele>
        <time>2018-08-25T18:00:25Z</time>
      </trkpt>
      <trkpt lat="42.789929" lon="-8.645719">
        <ele>110.576</ele>
        <time>2018-08-25T18:00:28Z</time>
      </trkpt>
      <trkpt lat="42.789941" lon="-8.645645">
        <ele>110.490</ele>
        <time>2018-08-25T18:00:31Z</time>
      </trkpt>
      <trkpt lat="42.789956" lon="-8.645568">
        <ele>110.397</ele>
        <time>2018-08-25T18:00:35Z</time>
      </trkpt>
      <trkpt lat="42.789982" lon="-8.645504">
        <ele>110.065</ele>
        <time>2018-08-25T18:00:39Z</time>
      </trkpt>
      <trkpt lat="42.790010" lon="-8.645444">
        <ele>109.653</ele>
        <time>2018-08-25T18:00:43Z</time>
      </trkpt>
      <trkpt lat="42.790031" lon="-8.645370">
        <ele>109.373</ele>
        <time>2018-08-25T18:00:47Z</time>
      </trkpt>
      <trkpt lat="42.790048" lon="-8.645311">
        <ele>108.298</ele>
        <time>2018-08-25T18:00:50Z</time>
      </trkpt>
      <trkpt lat="42.790062" lon="-8.645253">
        <ele>107.115</ele>
        <time>2018-08-25T18:00:53Z</time>
      </trkpt>
      <trkpt lat="42.790073" lon="-8.645190">
        <ele>106.526</ele>
        <time>2018-08-25T18:00:56Z</time>
      </trkpt>
      <trkpt lat="42.790074" lon="-8.645123">
        <ele>106.108</ele>
        <time>2018-08-25T18:00:59Z</time>
      </trkpt>
      <trkpt lat="42.790069" lon="-8.645058">
        <ele>105.921</ele>
        <time>2018-08-25T18:01:02Z</time>
      </trkpt>
      <trkpt lat="42.790065" lon="-8.644996">
        <ele>105.947</ele>
        <time>2018-08-25T18:01:05Z</time>
      </trkpt>
      <trkpt lat="42.790067" lon="-8.644918">
        <ele>106.112</ele>
        <time>2018-08-25T18:01:09Z</time>
      </trkpt>
      <trkpt lat="42.790115" lon="-8.644888">
        <ele>105.466</ele>
        <time>2018-08-25T18:01:14Z</time>
      </trkpt>
      <trkpt lat="42.790169" lon="-8.644894">
        <ele>106.073</ele>
        <time>2018-08-25T18:01:19Z</time>
      </trkpt>
      <trkpt lat="42.790222" lon="-8.644901">
        <ele>106.921</ele>
        <time>2018-08-25T18:01:24Z</time>
      </trkpt>
      <trkpt lat="42.790271" lon="-8.644911">
        <ele>107.339</ele>
        <time>2018-08-25T18:01:27Z</time>
      </trkpt>
      <trkpt lat="42.790322" lon="-8.644915">
        <ele>107.589</ele>
        <time>2018-08-25T18:01:30Z</time>
      </trkpt>
      <trkpt lat="42.790375" lon="-8.644899">
        <ele>107.662</ele>
        <time>2018-08-25T18:01:33Z</time>
      </trkpt>
      <trkpt lat="42.790420" lon="-8.644878">
        <ele>107.783</ele>
        <time>2018-08-25T18:01:36Z</time>
      </trkpt>
      <trkpt lat="42.790469" lon="-8.644857">
        <ele>107.711</ele>
        <time>2018-08-25T18:01:39Z</time>
      </trkpt>
      <trkpt lat="42.790529" lon="-8.644844">
        <ele>107.808</ele>
        <time>2018-08-25T18:01:42Z</time>
      </trkpt>
      <trkpt lat="42.790591" lon="-8.644833">
        <ele>107.988</ele>
        <time>2018-08-25T18:01:45Z</time>
      </trkpt>
      <trkpt lat="42.790642" lon="-8.644825">
        <ele>107.774</ele>
        <time>2018-08-25T18:01:49Z</time>
      </trkpt>
      <trkpt lat="42.790695" lon="-8.644807">
        <ele>107.529</ele>
        <time>2018-08-25T18:01:52Z</time>
      </trkpt>
      <trkpt lat="42.790755" lon="-8.644800">
        <ele>107.193</ele>
        <time>2018-08-25T18:01:55Z</time>
      </trkpt>
      <trkpt lat="42.790823" lon="-8.644793">
        <ele>106.570</ele>
        <time>2018-08-25T18:01:58Z</time>
      </trkpt>
      <trkpt lat="42.790871" lon="-8.644792">
        <ele>105.598</ele>
        <time>2018-08-25T18:02:00Z</time>
      </trkpt>
      <trkpt lat="42.790916" lon="-8.644798">
        <ele>104.616</ele>
        <time>2018-08-25T18:02:02Z</time>
      </trkpt>
      <trkpt lat="42.790961" lon="-8.644809">
        <ele>103.776</ele>
        <time>2018-08-25T18:02:04Z</time>
      </trkpt>
      <trkpt lat="42.791024" lon="-8.644822">
        <ele>102.845</ele>
        <time>2018-08-25T18:02:07Z</time>
      </trkpt>
      <trkpt lat="42.791069" lon="-8.644819">
        <ele>101.847</ele>
        <time>2018-08-25T18:02:09Z</time>
      </trkpt>
      <trkpt lat="42.791115" lon="-8.644807">
        <ele>100.611</ele>
        <time>2018-08-25T18:02:11Z</time>
      </trkpt>
      <trkpt lat="42.791182" lon="-8.644795">
        <ele>99.308</ele>
        <time>2018-08-25T18:02:14Z</time>
      </trkpt>
      <trkpt lat="42.791231" lon="-8.644792">
        <ele>98.376</ele>
        <time>2018-08-25T18:02:16Z</time>
      </trkpt>
      <trkpt lat="42.791289" lon="-8.644794">
        <ele>98.022</ele>
        <time>2018-08-25T18:02:18Z</time>
      </trkpt>
      <trkpt lat="42.791364" lon="-8.644792">
        <ele>98.257</ele>
        <time>2018-08-25T18:02:20Z</time>
      </trkpt>
      <trkpt lat="42.791439" lon="-8.644783">
        <ele>98.551</ele>
        <time>2018-08-25T18:02:22Z</time>
      </trkpt>
      <trkpt lat="42.791505" lon="-8.644769">
        <ele>99.238</ele>
        <time>2018-08-25T18:02:24Z</time>
      </trkpt>
      <trkpt lat="42.791567" lon="-8.644751">
        <ele>99.766</ele>
        <time>2018-08-25T18:02:26Z</time>
      </trkpt>
      <trkpt lat="42.791619" lon="-8.644735">
        <ele>100.234</ele>
        <time>2018-08-25T18:02:28Z</time>
      </trkpt>
      <trkpt lat="42.791668" lon="-8.644721">
        <ele>101.114</ele>
        <time>2018-08-25T18:02:30Z</time>
      </trkpt>
      <trkpt lat="42.791717" lon="-8.644700">
        <ele>101.824</ele>
        <time>2018-08-25T18:02:32Z</time>
      </trkpt>
      <trkpt lat="42.791767" lon="-8.644669">
        <ele>102.504</ele>
        <time>2018-08-25T18:02:34Z</time>
      </trkpt>
      <trkpt lat="42.791815" lon="-8.644632">
        <ele>103.414</ele>
        <time>2018-08-25T18:02:36Z</time>
      </trkpt>
      <trkpt lat="42.791868" lon="-8.644593">
        <ele>104.108</ele>
        <time>2018-08-25T18:02:38Z</time>
      </trkpt>
      <trkpt lat="42.791923" lon="-8.644559">
        <ele>104.484</ele>
        <time>2018-08-25T18:02:40Z</time>
      </trkpt>
      <trkpt lat="42.791973" lon="-8.644523">
        <ele>104.760</ele>
        <time>2018-08-25T18:02:42Z</time>
      </trkpt>
      <trkpt lat="42.792016" lon="-8.644473">
        <ele>104.935</ele>
        <time>2018-08-25T18:02:44Z</time>
      </trkpt>
      <trkpt lat="42.792060" lon="-8.644405">
        <ele>105.199</ele>
        <time>2018-08-25T18:02:46Z</time>
      </trkpt>
      <trkpt lat="42.792107" lon="-8.644321">
        <ele>105.126</ele>
        <time>2018-08-25T18:02:48Z</time>
      </trkpt>
      <trkpt lat="42.792154" lon="-8.644236">
        <ele>104.894</ele>
        <time>2018-08-25T18:02:50Z</time>
      </trkpt>
      <trkpt lat="42.792199" lon="-8.644159">
        <ele>104.342</ele>
        <time>2018-08-25T18:02:52Z</time>
      </trkpt>
      <trkpt lat="42.792266" lon="-8.644070">
        <ele>104.022</ele>
        <time>2018-08-25T18:02:53Z</time>
      </trkpt>
      <trkpt lat="42.792304" lon="-8.644028">
        <ele>103.862</ele>
        <time>2018-08-25T18:02:55Z</time>
      </trkpt>
      <trkpt lat="42.792346" lon="-8.643971">
        <ele>103.783</ele>
        <time>2018-08-25T18:02:57Z</time>
      </trkpt>
      <trkpt lat="42.792391" lon="-8.643909">
        <ele>103.611</ele>
        <time>2018-08-25T18:02:59Z</time>
      </trkpt>
      <trkpt lat="42.792445" lon="-8.643839">
        <ele>103.508</ele>
        <time>2018-08-25T18:03:01Z</time>
      </trkpt>
      <trkpt lat="42.792496" lon="-8.643782">
        <ele>103.898</ele>
        <time>2018-08-25T18:03:03Z</time>
      </trkpt>
      <trkpt lat="42.792543" lon="-8.643733">
        <ele>104.124</ele>
        <time>2018-08-25T18:03:05Z</time>
      </trkpt>
      <trkpt lat="42.792591" lon="-8.643682">
        <ele>104.489</ele>
        <time>2018-08-25T18:03:07Z</time>
      </trkpt>
      <trkpt lat="42.792638" lon="-8.643633">
        <ele>104.973</ele>
        <time>2018-08-25T18:03:09Z</time>
      </trkpt>
      <trkpt lat="42.792681" lon="-8.643584">
        <ele>105.590</ele>
        <time>2018-08-25T18:03:11Z</time>
      </trkpt>
      <trkpt lat="42.792732" lon="-8.643529">
        <ele>105.988</ele>
        <time>2018-08-25T18:03:14Z</time>
      </trkpt>
      <trkpt lat="42.792780" lon="-8.643472">
        <ele>106.126</ele>
        <time>2018-08-25T18:03:17Z</time>
      </trkpt>
      <trkpt lat="42.792830" lon="-8.643415">
        <ele>106.316</ele>
        <time>2018-08-25T18:03:20Z</time>
      </trkpt>
      <trkpt lat="42.792875" lon="-8.643361">
        <ele>106.383</ele>
        <time>2018-08-25T18:03:23Z</time>
      </trkpt>
      <trkpt lat="42.792921" lon="-8.643308">
        <ele>106.425</ele>
        <time>2018-08-25T18:03:27Z</time>
      </trkpt>
      <trkpt lat="42.792968" lon="-8.643262">
        <ele>106.717</ele>
        <time>2018-08-25T18:03:30Z</time>
      </trkpt>
      <trkpt lat="42.793009" lon="-8.643214">
        <ele>107.108</ele>
        <time>2018-08-25T18:03:33Z</time>
      </trkpt>
      <trkpt lat="42.793042" lon="-8.643169">
        <ele>107.710</ele>
        <time>2018-08-25T18:03:35Z</time>
      </trkpt>
      <trkpt lat="42.793077" lon="-8.643121">
        <ele>108.436</ele>
        <time>2018-08-25T18:03:37Z</time>
      </trkpt>
      <trkpt lat="42.793112" lon="-8.643070">
        <ele>109.051</ele>
        <time>2018-08-25T18:03:39Z</time>
      </trkpt>
      <trkpt lat="42.793143" lon="-8.643016">
        <ele>109.385</ele>
        <time>2018-08-25T18:03:41Z</time>
      </trkpt>
      <trkpt lat="42.793193" lon="-8.642948">
        <ele>110.432</ele>
        <time>2018-08-25T18:03:44Z</time>
      </trkpt>
      <trkpt lat="42.793237" lon="-8.642904">
        <ele>111.650</ele>
        <time>2018-08-25T18:03:46Z</time>
      </trkpt>
      <trkpt lat="42.793278" lon="-8.642859">
        <ele>112.648</ele>
        <time>2018-08-25T18:03:48Z</time>
      </trkpt>
      <trkpt lat="42.793317" lon="-8.642818">
        <ele>112.618</ele>
        <time>2018-08-25T18:03:50Z</time>
      </trkpt>
      <trkpt lat="42.793361" lon="-8.642771">
        <ele>112.241</ele>
        <time>2018-08-25T18:03:52Z</time>
      </trkpt>
      <trkpt lat="42.793407" lon="-8.642728">
        <ele>111.881</ele>
        <time>2018-08-25T18:03:54Z</time>
      </trkpt>
      <trkpt lat="42.793453" lon="-8.642695">
        <ele>111.309</ele>
        <time>2018-08-25T18:03:56Z</time>
      </trkpt>
      <trkpt lat="42.793516" lon="-8.642646">
        <ele>110.708</ele>
        <time>2018-08-25T18:03:57Z</time>
      </trkpt>
      <trkpt lat="42.793581" lon="-8.642574">
        <ele>110.166</ele>
        <time>2018-08-25T18:03:59Z</time>
      </trkpt>
      <trkpt lat="42.793615" lon="-8.642531">
        <ele>109.882</ele>
        <time>2018-08-25T18:04:00Z</time>
      </trkpt>
      <trkpt lat="42.793650" lon="-8.642489">
        <ele>109.587</ele>
        <time>2018-08-25T18:04:01Z</time>
      </trkpt>
      <trkpt lat="42.793690" lon="-8.642452">
        <ele>109.171</ele>
        <time>2018-08-25T18:04:02Z</time>
      </trkpt>
      <trkpt lat="42.793733" lon="-8.642415">
        <ele>108.748</ele>
        <time>2018-08-25T18:04:03Z</time>
      </trkpt>
      <trkpt lat="42.793779" lon="-8.642382">
        <ele>108.386</ele>
        <time>2018-08-25T18:04:04Z</time>
      </trkpt>
      <trkpt lat="42.793821" lon="-8.642349">
        <ele>107.644</ele>
        <time>2018-08-25T18:04:05Z</time>
      </trkpt>
      <trkpt lat="42.793865" lon="-8.642312">
        <ele>106.634</ele>
        <time>2018-08-25T18:04:06Z</time>
      </trkpt>
      <trkpt lat="42.793908" lon="-8.642263">
        <ele>105.549</ele>
        <time>2018-08-25T18:04:07Z</time>
      </trkpt>
      <trkpt lat="42.793952" lon="-8.642206">
        <ele>104.402</ele>
        <time>2018-08-25T18:04:08Z</time>
      </trkpt>
      <trkpt lat="42.793996" lon="-8.642151">
        <ele>103.522</ele>
        <time>2018-08-25T18:04:09Z</time>
      </trkpt>
      <trkpt lat="42.794044" lon="-8.642097">
        <ele>102.708</ele>
        <time>2018-08-25T18:04:10Z</time>
      </trkpt>
      <trkpt lat="42.794096" lon="-8.642039">
        <ele>102.086</ele>
        <time>2018-08-25T18:04:11Z</time>
      </trkpt>
      <trkpt lat="42.794149" lon="-8.641981">
        <ele>101.462</ele>
        <time>2018-08-25T18:04:12Z</time>
      </trkpt>
      <trkpt lat="42.794197" lon="-8.641924">
        <ele>100.897</ele>
        <time>2018-08-25T18:04:13Z</time>
      </trkpt>
      <trkpt lat="42.794242" lon="-8.641873">
        <ele>100.211</ele>
        <time>2018-08-25T18:04:14Z</time>
      </trkpt>
      <trkpt lat="42.794283" lon="-8.641823">
        <ele>99.568</ele>
        <time>2018-08-25T18:04:15Z</time>
      </trkpt>
      <trkpt lat="42.794325" lon="-8.641773">
        <ele>98.856</ele>
        <time>2018-08-25T18:04:16Z</time>
      </trkpt>
      <trkpt lat="42.794369" lon="-8.641729">
        <ele>98.234</ele>
        <time>2018-08-25T18:04:17Z</time>
      </trkpt>
      <trkpt lat="42.794416" lon="-8.641691">
        <ele>97.634</ele>
        <time>2018-08-25T18:04:18Z</time>
      </trkpt>
      <trkpt lat="42.794462" lon="-8.641671">
        <ele>97.133</ele>
        <time>2018-08-25T18:04:19Z</time>
      </trkpt>
      <trkpt lat="42.794555" lon="-8.641669">
        <ele>96.423</ele>
        <time>2018-08-25T18:04:21Z</time>
      </trkpt>
      <trkpt lat="42.794639" lon="-8.641703">
        <ele>95.415</ele>
        <time>2018-08-25T18:04:23Z</time>
      </trkpt>
      <trkpt lat="42.794687" lon="-8.641739">
        <ele>94.608</ele>
        <time>2018-08-25T18:04:24Z</time>
      </trkpt>
      <trkpt lat="42.794744" lon="-8.641779">
        <ele>93.815</ele>
        <time>2018-08-25T18:04:25Z</time>
      </trkpt>
      <trkpt lat="42.794802" lon="-8.641822">
        <ele>93.181</ele>
        <time>2018-08-25T18:04:26Z</time>
      </trkpt>
      <trkpt lat="42.794863" lon="-8.641867">
        <ele>92.486</ele>
        <time>2018-08-25T18:04:27Z</time>
      </trkpt>
      <trkpt lat="42.794943" lon="-8.641886">
        <ele>91.860</ele>
        <time>2018-08-25T18:04:28Z</time>
      </trkpt>
      <trkpt lat="42.794999" lon="-8.641934">
        <ele>91.367</ele>
        <time>2018-08-25T18:04:29Z</time>
      </trkpt>
      <trkpt lat="42.795053" lon="-8.641955">
        <ele>91.155</ele>
        <time>2018-08-25T18:04:30Z</time>
      </trkpt>
      <trkpt lat="42.795094" lon="-8.642005">
        <ele>91.283</ele>
        <time>2018-08-25T18:04:31Z</time>
      </trkpt>
      <trkpt lat="42.795136" lon="-8.642040">
        <ele>91.573</ele>
        <time>2018-08-25T18:04:32Z</time>
      </trkpt>
      <trkpt lat="42.795207" lon="-8.642091">
        <ele>90.526</ele>
        <time>2018-08-25T18:04:34Z</time>
      </trkpt>
      <trkpt lat="42.795248" lon="-8.642135">
        <ele>91.047</ele>
        <time>2018-08-25T18:04:35Z</time>
      </trkpt>
      <trkpt lat="42.795291" lon="-8.642179">
        <ele>92.611</ele>
        <time>2018-08-25T18:04:36Z</time>
      </trkpt>
      <trkpt lat="42.795324" lon="-8.642223">
        <ele>94.408</ele>
        <time>2018-08-25T18:04:37Z</time>
      </trkpt>
      <trkpt lat="42.795396" lon="-8.642289">
        <ele>96.154</ele>
        <time>2018-08-25T18:04:39Z</time>
      </trkpt>
      <trkpt lat="42.795469" lon="-8.642327">
        <ele>97.370</ele>
        <time>2018-08-25T18:04:41Z</time>
      </trkpt>
      <trkpt lat="42.795544" lon="-8.642332">
        <ele>97.945</ele>
        <time>2018-08-25T18:04:43Z</time>
      </trkpt>
      <trkpt lat="42.795616" lon="-8.642309">
        <ele>97.439</ele>
        <time>2018-08-25T18:04:45Z</time>
      </trkpt>
      <trkpt lat="42.795671" lon="-8.642244">
        <ele>96.336</ele>
        <time>2018-08-25T18:04:47Z</time>
      </trkpt>
      <trkpt lat="42.795701" lon="-8.642139">
        <ele>95.354</ele>
        <time>2018-08-25T18:04:49Z</time>
      </trkpt>
      <trkpt lat="42.795724" lon="-8.642076">
        <ele>94.662</ele>
        <time>2018-08-25T18:05:07Z</time>
      </trkpt>
      <trkpt lat="42.795751" lon="-8.642003">
        <ele>94.272</ele>
        <time>2018-08-25T18:05:11Z</time>
      </trkpt>
      <trkpt lat="42.795782" lon="-8.641938">
        <ele>93.835</ele>
        <time>2018-08-25T18:05:13Z</time>
      </trkpt>
      <trkpt lat="42.795821" lon="-8.641868">
        <ele>93.686</ele>
        <time>2018-08-25T18:05:15Z</time>
      </trkpt>
      <trkpt lat="42.795866" lon="-8.641803">
        <ele>93.414</ele>
        <time>2018-08-25T18:05:17Z</time>
      </trkpt>
      <trkpt lat="42.795924" lon="-8.641721">
        <ele>93.308</ele>
        <time>2018-08-25T18:05:18Z</time>
      </trkpt>
      <trkpt lat="42.795975" lon="-8.641649">
        <ele>93.295</ele>
        <time>2018-08-25T18:05:20Z</time>
      </trkpt>
      <trkpt lat="42.796027" lon="-8.641577">
        <ele>93.191</ele>
        <time>2018-08-25T18:05:22Z</time>
      </trkpt>
      <trkpt lat="42.796076" lon="-8.641499">
        <ele>92.936</ele>
        <time>2018-08-25T18:05:24Z</time>
      </trkpt>
      <trkpt lat="42.796123" lon="-8.641417">
        <ele>92.710</ele>
        <time>2018-08-25T18:05:26Z</time>
      </trkpt>
      <trkpt lat="42.796148" lon="-8.641323">
        <ele>92.537</ele>
        <time>2018-08-25T18:05:28Z</time>
      </trkpt>
      <trkpt lat="42.796156" lon="-8.641249">
        <ele>92.675</ele>
        <time>2018-08-25T18:05:30Z</time>
      </trkpt>
      <trkpt lat="42.796158" lon="-8.641176">
        <ele>92.683</ele>
        <time>2018-08-25T18:05:32Z</time>
      </trkpt>
      <trkpt lat="42.796158" lon="-8.641091">
        <ele>92.523</ele>
        <time>2018-08-25T18:05:34Z</time>
      </trkpt>
      <trkpt lat="42.796172" lon="-8.641008">
        <ele>92.469</ele>
        <time>2018-08-25T18:05:36Z</time>
      </trkpt>
      <trkpt lat="42.796192" lon="-8.640921">
        <ele>92.004</ele>
        <time>2018-08-25T18:05:38Z</time>
      </trkpt>
      <trkpt lat="42.796217" lon="-8.640830">
        <ele>91.724</ele>
        <time>2018-08-25T18:05:40Z</time>
      </trkpt>
      <trkpt lat="42.796243" lon="-8.640743">
        <ele>91.508</ele>
        <time>2018-08-25T18:05:42Z</time>
      </trkpt>
      <trkpt lat="42.796266" lon="-8.640657">
        <ele>91.218</ele>
        <time>2018-08-25T18:05:44Z</time>
      </trkpt>
      <trkpt lat="42.796289" lon="-8.640572">
        <ele>91.114</ele>
        <time>2018-08-25T18:05:46Z</time>
      </trkpt>
      <trkpt lat="42.796311" lon="-8.640495">
        <ele>91.279</ele>
        <time>2018-08-25T18:05:48Z</time>
      </trkpt>
      <trkpt lat="42.796336" lon="-8.640429">
        <ele>91.023</ele>
        <time>2018-08-25T18:05:50Z</time>
      </trkpt>
      <trkpt lat="42.796366" lon="-8.640360">
        <ele>90.920</ele>
        <time>2018-08-25T18:05:52Z</time>
      </trkpt>
      <trkpt lat="42.796396" lon="-8.640295">
        <ele>90.798</ele>
        <time>2018-08-25T18:05:54Z</time>
      </trkpt>
      <trkpt lat="42.796430" lon="-8.640240">
        <ele>90.626</ele>
        <time>2018-08-25T18:05:56Z</time>
      </trkpt>
      <trkpt lat="42.796465" lon="-8.640180">
        <ele>90.366</ele>
        <time>2018-08-25T18:05:58Z</time>
      </trkpt>
      <trkpt lat="42.796478" lon="-8.640119">
        <ele>89.897</ele>
        <time>2018-08-25T18:06:00Z</time>
      </trkpt>
      <trkpt lat="42.796469" lon="-8.640032">
        <ele>89.223</ele>
        <time>2018-08-25T18:06:03Z</time>
      </trkpt>
      <trkpt lat="42.796450" lon="-8.639964">
        <ele>88.825</ele>
        <time>2018-08-25T18:06:05Z</time>
      </trkpt>
      <trkpt lat="42.796425" lon="-8.639896">
        <ele>88.508</ele>
        <time>2018-08-25T18:06:07Z</time>
      </trkpt>
      <trkpt lat="42.796401" lon="-8.639838">
        <ele>88.491</ele>
        <time>2018-08-25T18:06:09Z</time>
      </trkpt>
      <trkpt lat="42.796380" lon="-8.639780">
        <ele>88.277</ele>
        <time>2018-08-25T18:06:11Z</time>
      </trkpt>
      <trkpt lat="42.796364" lon="-8.639716">
        <ele>87.972</ele>
        <time>2018-08-25T18:06:13Z</time>
      </trkpt>
      <trkpt lat="42.796344" lon="-8.639639">
        <ele>86.666</ele>
        <time>2018-08-25T18:06:16Z</time>
      </trkpt>
      <trkpt lat="42.796337" lon="-8.639551">
        <ele>85.813</ele>
        <time>2018-08-25T18:06:19Z</time>
      </trkpt>
      <trkpt lat="42.796345" lon="-8.639472">
        <ele>85.381</ele>
        <time>2018-08-25T18:06:21Z</time>
      </trkpt>
      <trkpt lat="42.796358" lon="-8.639392">
        <ele>84.889</ele>
        <time>2018-08-25T18:06:23Z</time>
      </trkpt>
      <trkpt lat="42.796366" lon="-8.639321">
        <ele>84.359</ele>
        <time>2018-08-25T18:06:25Z</time>
      </trkpt>
      <trkpt lat="42.796374" lon="-8.639259">
        <ele>83.883</ele>
        <time>2018-08-25T18:06:27Z</time>
      </trkpt>
      <trkpt lat="42.796397" lon="-8.639182">
        <ele>83.125</ele>
        <time>2018-08-25T18:06:30Z</time>
      </trkpt>
      <trkpt lat="42.796429" lon="-8.639138">
        <ele>82.517</ele>
        <time>2018-08-25T18:06:32Z</time>
      </trkpt>
      <trkpt lat="42.796539" lon="-8.639089">
        <ele>81.908</ele>
        <time>2018-08-25T18:06:34Z</time>
      </trkpt>
      <trkpt lat="42.796598" lon="-8.639106">
        <ele>81.270</ele>
        <time>2018-08-25T18:06:36Z</time>
      </trkpt>
      <trkpt lat="42.796647" lon="-8.639120">
        <ele>80.566</ele>
        <time>2018-08-25T18:06:38Z</time>
      </trkpt>
      <trkpt lat="42.796742" lon="-8.639088">
        <ele>79.961</ele>
        <time>2018-08-25T18:06:40Z</time>
      </trkpt>
      <trkpt lat="42.796790" lon="-8.639042">
        <ele>79.465</ele>
        <time>2018-08-25T18:06:42Z</time>
      </trkpt>
      <trkpt lat="42.796825" lon="-8.639003">
        <ele>78.882</ele>
        <time>2018-08-25T18:06:44Z</time>
      </trkpt>
      <trkpt lat="42.796871" lon="-8.638943">
        <ele>78.010</ele>
        <time>2018-08-25T18:06:47Z</time>
      </trkpt>
      <trkpt lat="42.796908" lon="-8.638886">
        <ele>76.968</ele>
        <time>2018-08-25T18:06:50Z</time>
      </trkpt>
      <trkpt lat="42.796962" lon="-8.638849">
        <ele>75.418</ele>
        <time>2018-08-25T18:06:53Z</time>
      </trkpt>
      <trkpt lat="42.797017" lon="-8.638837">
        <ele>74.298</ele>
        <time>2018-08-25T18:06:55Z</time>
      </trkpt>
      <trkpt lat="42.797067" lon="-8.638830">
        <ele>73.515</ele>
        <time>2018-08-25T18:06:57Z</time>
      </trkpt>
      <trkpt lat="42.797131" lon="-8.638829">
        <ele>73.526</ele>
        <time>2018-08-25T18:07:00Z</time>
      </trkpt>
      <trkpt lat="42.797183" lon="-8.638821">
        <ele>73.808</ele>
        <time>2018-08-25T18:07:02Z</time>
      </trkpt>
      <trkpt lat="42.797224" lon="-8.638794">
        <ele>73.411</ele>
        <time>2018-08-25T18:07:04Z</time>
      </trkpt>
      <trkpt lat="42.797264" lon="-8.638729">
        <ele>74.487</ele>
        <time>2018-08-25T18:07:07Z</time>
      </trkpt>
      <trkpt lat="42.797298" lon="-8.638687">
        <ele>75.942</ele>
        <time>2018-08-25T18:07:09Z</time>
      </trkpt>
      <trkpt lat="42.797335" lon="-8.638650">
        <ele>77.046</ele>
        <time>2018-08-25T18:07:11Z</time>
      </trkpt>
      <trkpt lat="42.797379" lon="-8.638614">
        <ele>77.983</ele>
        <time>2018-08-25T18:07:13Z</time>
      </trkpt>
      <trkpt lat="42.797423" lon="-8.638580">
        <ele>78.441</ele>
        <time>2018-08-25T18:07:15Z</time>
      </trkpt>
      <trkpt lat="42.797463" lon="-8.638542">
        <ele>78.999</ele>
        <time>2018-08-25T18:07:17Z</time>
      </trkpt>
      <trkpt lat="42.797500" lon="-8.638497">
        <ele>79.359</ele>
        <time>2018-08-25T18:07:19Z</time>
      </trkpt>
      <trkpt lat="42.797537" lon="-8.638448">
        <ele>79.797</ele>
        <time>2018-08-25T18:07:21Z</time>
      </trkpt>
      <trkpt lat="42.797572" lon="-8.638397">
        <ele>80.223</ele>
        <time>2018-08-25T18:07:23Z</time>
      </trkpt>
      <trkpt lat="42.797604" lon="-8.638352">
        <ele>80.625</ele>
        <time>2018-08-25T18:07:25Z</time>
      </trkpt>
      <trkpt lat="42.797637" lon="-8.638310">
        <ele>81.108</ele>
        <time>2018-08-25T18:07:27Z</time>
      </trkpt>
      <trkpt lat="42.797675" lon="-8.638257">
        <ele>81.681</ele>
        <time>2018-08-25T18:07:29Z</time>
      </trkpt>
      <trkpt lat="42.797710" lon="-8.638201">
        <ele>82.447</ele>
        <time>2018-08-25T18:07:31Z</time>
      </trkpt>
      <trkpt lat="42.797740" lon="-8.638148">
        <ele>82.562</ele>
        <time>2018-08-25T18:07:33Z</time>
      </trkpt>
      <trkpt lat="42.797782" lon="-8.638084">
        <ele>83.266</ele>
        <time>2018-08-25T18:07:36Z</time>
      </trkpt>
      <trkpt lat="42.797817" lon="-8.638039">
        <ele>84.193</ele>
        <time>2018-08-25T18:07:39Z</time>
      </trkpt>
      <trkpt lat="42.797870" lon="-8.638047">
        <ele>85.011</ele>
        <time>2018-08-25T18:07:43Z</time>
      </trkpt>
      <trkpt lat="42.797918" lon="-8.638053">
        <ele>86.069</ele>
        <time>2018-08-25T18:07:45Z</time>
      </trkpt>
      <trkpt lat="42.797963" lon="-8.638031">
        <ele>86.549</ele>
        <time>2018-08-25T18:07:47Z</time>
      </trkpt>
      <trkpt lat="42.798004" lon="-8.637987">
        <ele>86.625</ele>
        <time>2018-08-25T18:07:49Z</time>
      </trkpt>
      <trkpt lat="42.798043" lon="-8.637927">
        <ele>86.626</ele>
        <time>2018-08-25T18:07:51Z</time>
      </trkpt>
      <trkpt lat="42.798071" lon="-8.637872">
        <ele>86.608</ele>
        <time>2018-08-25T18:07:53Z</time>
      </trkpt>
      <trkpt lat="42.798094" lon="-8.637816">
        <ele>86.608</ele>
        <time>2018-08-25T18:07:55Z</time>
      </trkpt>
      <trkpt lat="42.798115" lon="-8.637751">
        <ele>86.784</ele>
        <time>2018-08-25T18:07:57Z</time>
      </trkpt>
      <trkpt lat="42.798137" lon="-8.637679">
        <ele>86.770</ele>
        <time>2018-08-25T18:07:59Z</time>
      </trkpt>
      <trkpt lat="42.798157" lon="-8.637603">
        <ele>86.975</ele>
        <time>2018-08-25T18:08:01Z</time>
      </trkpt>
      <trkpt lat="42.798179" lon="-8.637531">
        <ele>87.449</ele>
        <time>2018-08-25T18:08:03Z</time>
      </trkpt>
      <trkpt lat="42.798200" lon="-8.637468">
        <ele>87.856</ele>
        <time>2018-08-25T18:08:05Z</time>
      </trkpt>
      <trkpt lat="42.798222" lon="-8.637404">
        <ele>88.154</ele>
        <time>2018-08-25T18:08:07Z</time>
      </trkpt>
      <trkpt lat="42.798248" lon="-8.637340">
        <ele>88.212</ele>
        <time>2018-08-25T18:08:09Z</time>
      </trkpt>
      <trkpt lat="42.798274" lon="-8.637282">
        <ele>88.272</ele>
        <time>2018-08-25T18:08:11Z</time>
      </trkpt>
      <trkpt lat="42.798299" lon="-8.637222">
        <ele>88.193</ele>
        <time>2018-08-25T18:08:13Z</time>
      </trkpt>
      <trkpt lat="42.798322" lon="-8.637163">
        <ele>88.265</ele>
        <time>2018-08-25T18:08:15Z</time>
      </trkpt>
      <trkpt lat="42.798343" lon="-8.637107">
        <ele>88.321</ele>
        <time>2018-08-25T18:08:17Z</time>
      </trkpt>
      <trkpt lat="42.798382" lon="-8.637041">
        <ele>88.508</ele>
        <time>2018-08-25T18:08:20Z</time>
      </trkpt>
      <trkpt lat="42.798425" lon="-8.637005">
        <ele>88.981</ele>
        <time>2018-08-25T18:08:23Z</time>
      </trkpt>
      <trkpt lat="42.798472" lon="-8.636975">
        <ele>88.567</ele>
        <time>2018-08-25T18:08:26Z</time>
      </trkpt>
      <trkpt lat="42.798517" lon="-8.636950">
        <ele>88.152</ele>
        <time>2018-08-25T18:08:28Z</time>
      </trkpt>
      <trkpt lat="42.798562" lon="-8.636914">
        <ele>88.096</ele>
        <time>2018-08-25T18:08:30Z</time>
      </trkpt>
      <trkpt lat="42.798607" lon="-8.636876">
        <ele>88.143</ele>
        <time>2018-08-25T18:08:32Z</time>
      </trkpt>
      <trkpt lat="42.798656" lon="-8.636836">
        <ele>87.751</ele>
        <time>2018-08-25T18:08:34Z</time>
      </trkpt>
      <trkpt lat="42.798704" lon="-8.636805">
        <ele>87.979</ele>
        <time>2018-08-25T18:08:36Z</time>
      </trkpt>
      <trkpt lat="42.798747" lon="-8.636773">
        <ele>89.339</ele>
        <time>2018-08-25T18:08:38Z</time>
      </trkpt>
      <trkpt lat="42.798793" lon="-8.636732">
        <ele>90.233</ele>
        <time>2018-08-25T18:08:40Z</time>
      </trkpt>
      <trkpt lat="42.798840" lon="-8.636694">
        <ele>91.123</ele>
        <time>2018-08-25T18:08:42Z</time>
      </trkpt>
      <trkpt lat="42.798889" lon="-8.636655">
        <ele>92.015</ele>
        <time>2018-08-25T18:08:44Z</time>
      </trkpt>
      <trkpt lat="42.798937" lon="-8.636617">
        <ele>92.908</ele>
        <time>2018-08-25T18:08:46Z</time>
      </trkpt>
      <trkpt lat="42.798983" lon="-8.636583">
        <ele>93.865</ele>
        <time>2018-08-25T18:08:48Z</time>
      </trkpt>
      <trkpt lat="42.799027" lon="-8.636547">
        <ele>94.791</ele>
        <time>2018-08-25T18:08:50Z</time>
      </trkpt>
      <trkpt lat="42.799070" lon="-8.636514">
        <ele>95.556</ele>
        <time>2018-08-25T18:08:52Z</time>
      </trkpt>
      <trkpt lat="42.799127" lon="-8.636472">
        <ele>96.190</ele>
        <time>2018-08-25T18:08:55Z</time>
      </trkpt>
      <trkpt lat="42.799173" lon="-8.636422">
        <ele>96.427</ele>
        <time>2018-08-25T18:08:58Z</time>
      </trkpt>
      <trkpt lat="42.799193" lon="-8.636354">
        <ele>96.725</ele>
        <time>2018-08-25T18:09:02Z</time>
      </trkpt>
      <trkpt lat="42.799179" lon="-8.636289">
        <ele>96.983</ele>
        <time>2018-08-25T18:09:05Z</time>
      </trkpt>
      <trkpt lat="42.799152" lon="-8.636225">
        <ele>96.973</ele>
        <time>2018-08-25T18:09:08Z</time>
      </trkpt>
      <trkpt lat="42.799119" lon="-8.636158">
        <ele>96.881</ele>
        <time>2018-08-25T18:09:11Z</time>
      </trkpt>
      <trkpt lat="42.799091" lon="-8.636085">
        <ele>96.561</ele>
        <time>2018-08-25T18:09:14Z</time>
      </trkpt>
      <trkpt lat="42.799059" lon="-8.636018">
        <ele>96.217</ele>
        <time>2018-08-25T18:09:17Z</time>
      </trkpt>
      <trkpt lat="42.799022" lon="-8.635952">
        <ele>96.208</ele>
        <time>2018-08-25T18:09:20Z</time>
      </trkpt>
      <trkpt lat="42.798990" lon="-8.635879">
        <ele>96.250</ele>
        <time>2018-08-25T18:09:23Z</time>
      </trkpt>
      <trkpt lat="42.798953" lon="-8.635810">
        <ele>96.196</ele>
        <time>2018-08-25T18:09:26Z</time>
      </trkpt>
      <trkpt lat="42.798924" lon="-8.635739">
        <ele>95.861</ele>
        <time>2018-08-25T18:09:29Z</time>
      </trkpt>
      <trkpt lat="42.798899" lon="-8.635657">
        <ele>95.575</ele>
        <time>2018-08-25T18:09:32Z</time>
      </trkpt>
      <trkpt lat="42.798893" lon="-8.635592">
        <ele>95.372</ele>
        <time>2018-08-25T18:09:34Z</time>
      </trkpt>
      <trkpt lat="42.798905" lon="-8.635528">
        <ele>95.190</ele>
        <time>2018-08-25T18:09:36Z</time>
      </trkpt>
      <trkpt lat="42.798931" lon="-8.635469">
        <ele>95.118</ele>
        <time>2018-08-25T18:09:38Z</time>
      </trkpt>
      <trkpt lat="42.798964" lon="-8.635419">
        <ele>95.198</ele>
        <time>2018-08-25T18:09:40Z</time>
      </trkpt>
      <trkpt lat="42.799011" lon="-8.635355">
        <ele>95.525</ele>
        <time>2018-08-25T18:09:43Z</time>
      </trkpt>
      <trkpt lat="42.799043" lon="-8.635307">
        <ele>96.226</ele>
        <time>2018-08-25T18:09:45Z</time>
      </trkpt>
      <trkpt lat="42.799077" lon="-8.635254">
        <ele>96.608</ele>
        <time>2018-08-25T18:09:47Z</time>
      </trkpt>
      <trkpt lat="42.799108" lon="-8.635203">
        <ele>96.608</ele>
        <time>2018-08-25T18:09:49Z</time>
      </trkpt>
      <trkpt lat="42.799143" lon="-8.635126">
        <ele>95.744</ele>
        <time>2018-08-25T18:09:52Z</time>
      </trkpt>
      <trkpt lat="42.799177" lon="-8.635074">
        <ele>95.590</ele>
        <time>2018-08-25T18:09:54Z</time>
      </trkpt>
      <trkpt lat="42.799220" lon="-8.635025">
        <ele>95.875</ele>
        <time>2018-08-25T18:09:56Z</time>
      </trkpt>
      <trkpt lat="42.799264" lon="-8.634972">
        <ele>96.219</ele>
        <time>2018-08-25T18:09:58Z</time>
      </trkpt>
      <trkpt lat="42.799300" lon="-8.634918">
        <ele>96.546</ele>
        <time>2018-08-25T18:10:00Z</time>
      </trkpt>
      <trkpt lat="42.799329" lon="-8.634869">
        <ele>96.554</ele>
        <time>2018-08-25T18:10:02Z</time>
      </trkpt>
      <trkpt lat="42.799366" lon="-8.634797">
        <ele>96.442</ele>
        <time>2018-08-25T18:10:05Z</time>
      </trkpt>
      <trkpt lat="42.799387" lon="-8.634738">
        <ele>96.272</ele>
        <time>2018-08-25T18:10:07Z</time>
      </trkpt>
      <trkpt lat="42.799404" lon="-8.634680">
        <ele>96.548</ele>
        <time>2018-08-25T18:10:09Z</time>
      </trkpt>
      <trkpt lat="42.799443" lon="-8.634608">
        <ele>97.461</ele>
        <time>2018-08-25T18:10:12Z</time>
      </trkpt>
      <trkpt lat="42.799481" lon="-8.634567">
        <ele>98.217</ele>
        <time>2018-08-25T18:10:14Z</time>
      </trkpt>
      <trkpt lat="42.799535" lon="-8.634533">
        <ele>98.308</ele>
        <time>2018-08-25T18:10:17Z</time>
      </trkpt>
      <trkpt lat="42.799595" lon="-8.634507">
        <ele>98.046</ele>
        <time>2018-08-25T18:10:20Z</time>
      </trkpt>
      <trkpt lat="42.799649" lon="-8.634499">
        <ele>96.812</ele>
        <time>2018-08-25T18:10:23Z</time>
      </trkpt>
      <trkpt lat="42.799663" lon="-8.634564">
        <ele>96.177</ele>
        <time>2018-08-25T18:10:28Z</time>
      </trkpt>
      <trkpt lat="42.799638" lon="-8.634627">
        <ele>96.071</ele>
        <time>2018-08-25T18:11:00Z</time>
      </trkpt>
      <trkpt lat="42.799653" lon="-8.634696">
        <ele>96.158</ele>
        <time>2018-08-25T18:11:06Z</time>
      </trkpt>
      <trkpt lat="42.799704" lon="-8.634734">
        <ele>96.416</ele>
        <time>2018-08-25T18:11:08Z</time>
      </trkpt>
      <trkpt lat="42.799754" lon="-8.634773">
        <ele>97.064</ele>
        <time>2018-08-25T18:11:10Z</time>
      </trkpt>
      <trkpt lat="42.799794" lon="-8.634824">
        <ele>96.854</ele>
        <time>2018-08-25T18:11:12Z</time>
      </trkpt>
      <trkpt lat="42.799823" lon="-8.634883">
        <ele>96.828</ele>
        <time>2018-08-25T18:11:14Z</time>
      </trkpt>
      <trkpt lat="42.799849" lon="-8.634942">
        <ele>96.489</ele>
        <time>2018-08-25T18:11:16Z</time>
      </trkpt>
      <trkpt lat="42.799875" lon="-8.634997">
        <ele>95.817</ele>
        <time>2018-08-25T18:11:18Z</time>
      </trkpt>
      <trkpt lat="42.799903" lon="-8.635056">
        <ele>94.808</ele>
        <time>2018-08-25T18:11:20Z</time>
      </trkpt>
      <trkpt lat="42.799934" lon="-8.635114">
        <ele>94.574</ele>
        <time>2018-08-25T18:11:22Z</time>
      </trkpt>
      <trkpt lat="42.799969" lon="-8.635170">
        <ele>94.670</ele>
        <time>2018-08-25T18:11:24Z</time>
      </trkpt>
      <trkpt lat="42.800002" lon="-8.635221">
        <ele>94.535</ele>
        <time>2018-08-25T18:11:26Z</time>
      </trkpt>
      <trkpt lat="42.800031" lon="-8.635274">
        <ele>94.259</ele>
        <time>2018-08-25T18:11:28Z</time>
      </trkpt>
      <trkpt lat="42.800058" lon="-8.635333">
        <ele>93.866</ele>
        <time>2018-08-25T18:11:30Z</time>
      </trkpt>
      <trkpt lat="42.800089" lon="-8.635398">
        <ele>93.024</ele>
        <time>2018-08-25T18:11:32Z</time>
      </trkpt>
      <trkpt lat="42.800117" lon="-8.635478">
        <ele>92.972</ele>
        <time>2018-08-25T18:11:34Z</time>
      </trkpt>
      <trkpt lat="42.800135" lon="-8.635553">
        <ele>93.292</ele>
        <time>2018-08-25T18:11:36Z</time>
      </trkpt>
      <trkpt lat="42.800153" lon="-8.635619">
        <ele>94.053</ele>
        <time>2018-08-25T18:11:38Z</time>
      </trkpt>
      <trkpt lat="42.800172" lon="-8.635687">
        <ele>95.304</ele>
        <time>2018-08-25T18:11:40Z</time>
      </trkpt>
      <trkpt lat="42.800194" lon="-8.635755">
        <ele>96.314</ele>
        <time>2018-08-25T18:11:42Z</time>
      </trkpt>
      <trkpt lat="42.800216" lon="-8.635826">
        <ele>97.008</ele>
        <time>2018-08-25T18:11:44Z</time>
      </trkpt>
      <trkpt lat="42.800243" lon="-8.635898">
        <ele>97.497</ele>
        <time>2018-08-25T18:11:46Z</time>
      </trkpt>
      <trkpt lat="42.800277" lon="-8.635968">
        <ele>97.343</ele>
        <time>2018-08-25T18:11:48Z</time>
      </trkpt>
      <trkpt lat="42.800322" lon="-8.636036">
        <ele>97.018</ele>
        <time>2018-08-25T18:11:50Z</time>
      </trkpt>
      <trkpt lat="42.800369" lon="-8.636090">
        <ele>96.592</ele>
        <time>2018-08-25T18:11:52Z</time>
      </trkpt>
      <trkpt lat="42.800422" lon="-8.636143">
        <ele>95.969</ele>
        <time>2018-08-25T18:11:54Z</time>
      </trkpt>
      <trkpt lat="42.800475" lon="-8.636195">
        <ele>95.597</ele>
        <time>2018-08-25T18:11:56Z</time>
      </trkpt>
      <trkpt lat="42.800530" lon="-8.636243">
        <ele>95.365</ele>
        <time>2018-08-25T18:11:58Z</time>
      </trkpt>
      <trkpt lat="42.800601" lon="-8.636296">
        <ele>95.065</ele>
        <time>2018-08-25T18:11:59Z</time>
      </trkpt>
      <trkpt lat="42.800672" lon="-8.636339">
        <ele>95.039</ele>
        <time>2018-08-25T18:12:01Z</time>
      </trkpt>
      <trkpt lat="42.800748" lon="-8.636384">
        <ele>95.001</ele>
        <time>2018-08-25T18:12:03Z</time>
      </trkpt>
      <trkpt lat="42.800795" lon="-8.636408">
        <ele>94.921</ele>
        <time>2018-08-25T18:12:04Z</time>
      </trkpt>
      <trkpt lat="42.800841" lon="-8.636443">
        <ele>94.708</ele>
        <time>2018-08-25T18:12:05Z</time>
      </trkpt>
      <trkpt lat="42.800881" lon="-8.636485">
        <ele>94.575</ele>
        <time>2018-08-25T18:12:06Z</time>
      </trkpt>
      <trkpt lat="42.800915" lon="-8.636535">
        <ele>94.341</ele>
        <time>2018-08-25T18:12:07Z</time>
      </trkpt>
      <trkpt lat="42.800940" lon="-8.636599">
        <ele>93.826</ele>
        <time>2018-08-25T18:12:08Z</time>
      </trkpt>
      <trkpt lat="42.800962" lon="-8.636666">
        <ele>93.110</ele>
        <time>2018-08-25T18:12:09Z</time>
      </trkpt>
      <trkpt lat="42.800978" lon="-8.636732">
        <ele>92.657</ele>
        <time>2018-08-25T18:12:10Z</time>
      </trkpt>
      <trkpt lat="42.800993" lon="-8.636801">
        <ele>92.415</ele>
        <time>2018-08-25T18:12:11Z</time>
      </trkpt>
      <trkpt lat="42.801010" lon="-8.636870">
        <ele>92.323</ele>
        <time>2018-08-25T18:12:12Z</time>
      </trkpt>
      <trkpt lat="42.801026" lon="-8.636943">
        <ele>92.243</ele>
        <time>2018-08-25T18:12:13Z</time>
      </trkpt>
      <trkpt lat="42.801045" lon="-8.637013">
        <ele>92.198</ele>
        <time>2018-08-25T18:12:14Z</time>
      </trkpt>
      <trkpt lat="42.801070" lon="-8.637074">
        <ele>92.015</ele>
        <time>2018-08-25T18:12:15Z</time>
      </trkpt>
      <trkpt lat="42.801100" lon="-8.637133">
        <ele>91.926</ele>
        <time>2018-08-25T18:12:16Z</time>
      </trkpt>
      <trkpt lat="42.801135" lon="-8.637189">
        <ele>91.708</ele>
        <time>2018-08-25T18:12:17Z</time>
      </trkpt>
      <trkpt lat="42.801174" lon="-8.637244">
        <ele>91.681</ele>
        <time>2018-08-25T18:12:18Z</time>
      </trkpt>
      <trkpt lat="42.801219" lon="-8.637295">
        <ele>91.667</ele>
        <time>2018-08-25T18:12:19Z</time>
      </trkpt>
      <trkpt lat="42.801268" lon="-8.637340">
        <ele>91.662</ele>
        <time>2018-08-25T18:12:20Z</time>
      </trkpt>
      <trkpt lat="42.801316" lon="-8.637377">
        <ele>91.766</ele>
        <time>2018-08-25T18:12:21Z</time>
      </trkpt>
      <trkpt lat="42.801367" lon="-8.637407">
        <ele>91.753</ele>
        <time>2018-08-25T18:12:22Z</time>
      </trkpt>
      <trkpt lat="42.801419" lon="-8.637435">
        <ele>91.541</ele>
        <time>2018-08-25T18:12:23Z</time>
      </trkpt>
      <trkpt lat="42.801470" lon="-8.637455">
        <ele>91.369</ele>
        <time>2018-08-25T18:12:24Z</time>
      </trkpt>
      <trkpt lat="42.801520" lon="-8.637478">
        <ele>91.139</ele>
        <time>2018-08-25T18:12:25Z</time>
      </trkpt>
      <trkpt lat="42.801567" lon="-8.637511">
        <ele>91.178</ele>
        <time>2018-08-25T18:12:26Z</time>
      </trkpt>
      <trkpt lat="42.801607" lon="-8.637555">
        <ele>90.933</ele>
        <time>2018-08-25T18:12:27Z</time>
      </trkpt>
      <trkpt lat="42.801648" lon="-8.637597">
        <ele>90.926</ele>
        <time>2018-08-25T18:12:28Z</time>
      </trkpt>
      <trkpt lat="42.801687" lon="-8.637633">
        <ele>91.108</ele>
        <time>2018-08-25T18:12:29Z</time>
      </trkpt>
      <trkpt lat="42.801726" lon="-8.637663">
        <ele>91.229</ele>
        <time>2018-08-25T18:12:30Z</time>
      </trkpt>
      <trkpt lat="42.801767" lon="-8.637698">
        <ele>91.675</ele>
        <time>2018-08-25T18:12:31Z</time>
      </trkpt>
      <trkpt lat="42.801808" lon="-8.637739">
        <ele>92.330</ele>
        <time>2018-08-25T18:12:32Z</time>
      </trkpt>
      <trkpt lat="42.801843" lon="-8.637783">
        <ele>92.964</ele>
        <time>2018-08-25T18:12:33Z</time>
      </trkpt>
      <trkpt lat="42.801878" lon="-8.637827">
        <ele>93.881</ele>
        <time>2018-08-25T18:12:34Z</time>
      </trkpt>
      <trkpt lat="42.801943" lon="-8.637891">
        <ele>94.799</ele>
        <time>2018-08-25T18:12:36Z</time>
      </trkpt>
      <trkpt lat="42.801992" lon="-8.637923">
        <ele>95.717</ele>
        <time>2018-08-25T18:12:39Z</time>
      </trkpt>
      <trkpt lat="42.802041" lon="-8.637929">
        <ele>96.047</ele>
        <time>2018-08-25T18:12:42Z</time>
      </trkpt>
      <trkpt lat="42.802100" lon="-8.637907">
        <ele>97.088</ele>
        <time>2018-08-25T18:12:45Z</time>
      </trkpt>
      <trkpt lat="42.802142" lon="-8.637870">
        <ele>98.024</ele>
        <time>2018-08-25T18:12:47Z</time>
      </trkpt>
      <trkpt lat="42.802185" lon="-8.637828">
        <ele>98.926</ele>
        <time>2018-08-25T18:12:49Z</time>
      </trkpt>
      <trkpt lat="42.802233" lon="-8.637788">
        <ele>99.608</ele>
        <time>2018-08-25T18:12:51Z</time>
      </trkpt>
      <trkpt lat="42.802283" lon="-8.637746">
        <ele>100.150</ele>
        <time>2018-08-25T18:12:53Z</time>
      </trkpt>
      <trkpt lat="42.802334" lon="-8.637707">
        <ele>100.656</ele>
        <time>2018-08-25T18:12:55Z</time>
      </trkpt>
      <trkpt lat="42.802385" lon="-8.637670">
        <ele>100.861</ele>
        <time>2018-08-25T18:12:57Z</time>
      </trkpt>
      <trkpt lat="42.802433" lon="-8.637633">
        <ele>101.025</ele>
        <time>2018-08-25T18:12:59Z</time>
      </trkpt>
      <trkpt lat="42.802479" lon="-8.637590">
        <ele>101.212</ele>
        <time>2018-08-25T18:13:01Z</time>
      </trkpt>
      <trkpt lat="42.802531" lon="-8.637540">
        <ele>101.440</ele>
        <time>2018-08-25T18:13:03Z</time>
      </trkpt>
      <trkpt lat="42.802583" lon="-8.637490">
        <ele>101.178</ele>
        <time>2018-08-25T18:13:05Z</time>
      </trkpt>
      <trkpt lat="42.802634" lon="-8.637443">
        <ele>100.818</ele>
        <time>2018-08-25T18:13:07Z</time>
      </trkpt>
      <trkpt lat="42.802690" lon="-8.637398">
        <ele>100.432</ele>
        <time>2018-08-25T18:13:09Z</time>
      </trkpt>
      <trkpt lat="42.802746" lon="-8.637352">
        <ele>100.192</ele>
        <time>2018-08-25T18:13:11Z</time>
      </trkpt>
      <trkpt lat="42.802800" lon="-8.637305">
        <ele>99.911</ele>
        <time>2018-08-25T18:13:13Z</time>
      </trkpt>
      <trkpt lat="42.802858" lon="-8.637255">
        <ele>99.808</ele>
        <time>2018-08-25T18:13:15Z</time>
      </trkpt>
      <trkpt lat="42.802914" lon="-8.637201">
        <ele>99.745</ele>
        <time>2018-08-25T18:13:17Z</time>
      </trkpt>
      <trkpt lat="42.802970" lon="-8.637157">
        <ele>99.661</ele>
        <time>2018-08-25T18:13:19Z</time>
      </trkpt>
      <trkpt lat="42.803023" lon="-8.637110">
        <ele>99.536</ele>
        <time>2018-08-25T18:13:21Z</time>
      </trkpt>
      <trkpt lat="42.803073" lon="-8.637056">
        <ele>99.420</ele>
        <time>2018-08-25T18:13:23Z</time>
      </trkpt>
      <trkpt lat="42.803119" lon="-8.637007">
        <ele>99.597</ele>
        <time>2018-08-25T18:13:25Z</time>
      </trkpt>
      <trkpt lat="42.803165" lon="-8.636968">
        <ele>99.565</ele>
        <time>2018-08-25T18:13:27Z</time>
      </trkpt>
      <trkpt lat="42.803216" lon="-8.636931">
        <ele>99.373</ele>
        <time>2018-08-25T18:13:29Z</time>
      </trkpt>
      <trkpt lat="42.803274" lon="-8.636887">
        <ele>99.173</ele>
        <time>2018-08-25T18:13:31Z</time>
      </trkpt>
      <trkpt lat="42.803334" lon="-8.636844">
        <ele>98.934</ele>
        <time>2018-08-25T18:13:33Z</time>
      </trkpt>
      <trkpt lat="42.803393" lon="-8.636800">
        <ele>98.755</ele>
        <time>2018-08-25T18:13:35Z</time>
      </trkpt>
      <trkpt lat="42.803463" lon="-8.636737">
        <ele>98.610</ele>
        <time>2018-08-25T18:13:36Z</time>
      </trkpt>
      <trkpt lat="42.803508" lon="-8.636691">
        <ele>98.508</ele>
        <time>2018-08-25T18:13:38Z</time>
      </trkpt>
      <trkpt lat="42.803547" lon="-8.636653">
        <ele>98.495</ele>
        <time>2018-08-25T18:13:40Z</time>
      </trkpt>
      <trkpt lat="42.803593" lon="-8.636609">
        <ele>98.341</ele>
        <time>2018-08-25T18:13:42Z</time>
      </trkpt>
      <trkpt lat="42.803642" lon="-8.636570">
        <ele>98.216</ele>
        <time>2018-08-25T18:13:44Z</time>
      </trkpt>
      <trkpt lat="42.803690" lon="-8.636525">
        <ele>98.130</ele>
        <time>2018-08-25T18:13:46Z</time>
      </trkpt>
      <trkpt lat="42.803774" lon="-8.636432">
        <ele>98.067</ele>
        <time>2018-08-25T18:13:48Z</time>
      </trkpt>
      <trkpt lat="42.803834" lon="-8.636374">
        <ele>97.795</ele>
        <time>2018-08-25T18:13:50Z</time>
      </trkpt>
      <trkpt lat="42.803892" lon="-8.636323">
        <ele>97.483</ele>
        <time>2018-08-25T18:13:53Z</time>
      </trkpt>
      <trkpt lat="42.803937" lon="-8.636279">
        <ele>97.293</ele>
        <time>2018-08-25T18:13:55Z</time>
      </trkpt>
      <trkpt lat="42.803992" lon="-8.636231">
        <ele>97.369</ele>
        <time>2018-08-25T18:13:57Z</time>
      </trkpt>
      <trkpt lat="42.804051" lon="-8.636178">
        <ele>97.404</ele>
        <time>2018-08-25T18:13:59Z</time>
      </trkpt>
      <trkpt lat="42.804106" lon="-8.636123">
        <ele>97.324</ele>
        <time>2018-08-25T18:14:01Z</time>
      </trkpt>
      <trkpt lat="42.804157" lon="-8.636079">
        <ele>97.308</ele>
        <time>2018-08-25T18:14:03Z</time>
      </trkpt>
      <trkpt lat="42.804206" lon="-8.636037">
        <ele>97.138</ele>
        <time>2018-08-25T18:14:05Z</time>
      </trkpt>
      <trkpt lat="42.804252" lon="-8.635998">
        <ele>97.044</ele>
        <time>2018-08-25T18:14:07Z</time>
      </trkpt>
      <trkpt lat="42.804295" lon="-8.635957">
        <ele>97.179</ele>
        <time>2018-08-25T18:14:09Z</time>
      </trkpt>
      <trkpt lat="42.804340" lon="-8.635917">
        <ele>97.253</ele>
        <time>2018-08-25T18:14:11Z</time>
      </trkpt>
      <trkpt lat="42.804385" lon="-8.635877">
        <ele>97.350</ele>
        <time>2018-08-25T18:14:13Z</time>
      </trkpt>
      <trkpt lat="42.804427" lon="-8.635835">
        <ele>97.458</ele>
        <time>2018-08-25T18:14:15Z</time>
      </trkpt>
      <trkpt lat="42.804469" lon="-8.635797">
        <ele>97.546</ele>
        <time>2018-08-25T18:14:17Z</time>
      </trkpt>
      <trkpt lat="42.804513" lon="-8.635758">
        <ele>97.796</ele>
        <time>2018-08-25T18:14:19Z</time>
      </trkpt>
      <trkpt lat="42.804556" lon="-8.635720">
        <ele>98.099</ele>
        <time>2018-08-25T18:14:21Z</time>
      </trkpt>
      <trkpt lat="42.804597" lon="-8.635679">
        <ele>98.207</ele>
        <time>2018-08-25T18:14:23Z</time>
      </trkpt>
      <trkpt lat="42.804639" lon="-8.635635">
        <ele>98.327</ele>
        <time>2018-08-25T18:14:25Z</time>
      </trkpt>
      <trkpt lat="42.804681" lon="-8.635593">
        <ele>98.408</ele>
        <time>2018-08-25T18:14:27Z</time>
      </trkpt>
      <trkpt lat="42.804725" lon="-8.635552">
        <ele>98.521</ele>
        <time>2018-08-25T18:14:29Z</time>
      </trkpt>
      <trkpt lat="42.804770" lon="-8.635511">
        <ele>98.677</ele>
        <time>2018-08-25T18:14:31Z</time>
      </trkpt>
      <trkpt lat="42.804813" lon="-8.635470">
        <ele>98.532</ele>
        <time>2018-08-25T18:14:33Z</time>
      </trkpt>
      <trkpt lat="42.804852" lon="-8.635427">
        <ele>98.576</ele>
        <time>2018-08-25T18:14:35Z</time>
      </trkpt>
      <trkpt lat="42.804894" lon="-8.635385">
        <ele>98.673</ele>
        <time>2018-08-25T18:14:37Z</time>
      </trkpt>
      <trkpt lat="42.804939" lon="-8.635345">
        <ele>98.971</ele>
        <time>2018-08-25T18:14:39Z</time>
      </trkpt>
      <trkpt lat="42.804985" lon="-8.635307">
        <ele>99.159</ele>
        <time>2018-08-25T18:14:41Z</time>
      </trkpt>
      <trkpt lat="42.805032" lon="-8.635265">
        <ele>99.489</ele>
        <time>2018-08-25T18:14:43Z</time>
      </trkpt>
      <trkpt lat="42.805078" lon="-8.635225">
        <ele>99.666</ele>
        <time>2018-08-25T18:14:45Z</time>
      </trkpt>
      <trkpt lat="42.805122" lon="-8.635186">
        <ele>99.929</ele>
        <time>2018-08-25T18:14:47Z</time>
      </trkpt>
      <trkpt lat="42.805164" lon="-8.635148">
        <ele>100.121</ele>
        <time>2018-08-25T18:14:49Z</time>
      </trkpt>
      <trkpt lat="42.805206" lon="-8.635114">
        <ele>100.308</ele>
        <time>2018-08-25T18:14:51Z</time>
      </trkpt>
      <trkpt lat="42.805250" lon="-8.635079">
        <ele>100.528</ele>
        <time>2018-08-25T18:14:53Z</time>
      </trkpt>
      <trkpt lat="42.805296" lon="-8.635043">
        <ele>100.954</ele>
        <time>2018-08-25T18:14:55Z</time>
      </trkpt>
      <trkpt lat="42.805342" lon="-8.635001">
        <ele>101.259</ele>
        <time>2018-08-25T18:14:57Z</time>
      </trkpt>
      <trkpt lat="42.805386" lon="-8.634957">
        <ele>101.463</ele>
        <time>2018-08-25T18:14:59Z</time>
      </trkpt>
      <trkpt lat="42.805430" lon="-8.634915">
        <ele>101.650</ele>
        <time>2018-08-25T18:15:01Z</time>
      </trkpt>
      <trkpt lat="42.805472" lon="-8.634876">
        <ele>101.998</ele>
        <time>2018-08-25T18:15:03Z</time>
      </trkpt>
      <trkpt lat="42.805512" lon="-8.634836">
        <ele>102.256</ele>
        <time>2018-08-25T18:15:05Z</time>
      </trkpt>
      <trkpt lat="42.805554" lon="-8.634797">
        <ele>102.636</ele>
        <time>2018-08-25T18:15:07Z</time>
      </trkpt>
      <trkpt lat="42.805598" lon="-8.634759">
        <ele>103.087</ele>
        <time>2018-08-25T18:15:09Z</time>
      </trkpt>
      <trkpt lat="42.805641" lon="-8.634718">
        <ele>103.442</ele>
        <time>2018-08-25T18:15:11Z</time>
      </trkpt>
      <trkpt lat="42.805685" lon="-8.634678">
        <ele>103.826</ele>
        <time>2018-08-25T18:15:13Z</time>
      </trkpt>
      <trkpt lat="42.805727" lon="-8.634638">
        <ele>104.108</ele>
        <time>2018-08-25T18:15:15Z</time>
      </trkpt>
      <trkpt lat="42.805766" lon="-8.634598">
        <ele>104.480</ele>
        <time>2018-08-25T18:15:17Z</time>
      </trkpt>
      <trkpt lat="42.805810" lon="-8.634564">
        <ele>104.486</ele>
        <time>2018-08-25T18:15:19Z</time>
      </trkpt>
      <trkpt lat="42.805854" lon="-8.634527">
        <ele>104.511</ele>
        <time>2018-08-25T18:15:21Z</time>
      </trkpt>
      <trkpt lat="42.805899" lon="-8.634488">
        <ele>104.885</ele>
        <time>2018-08-25T18:15:23Z</time>
      </trkpt>
      <trkpt lat="42.805942" lon="-8.634450">
        <ele>104.822</ele>
        <time>2018-08-25T18:15:25Z</time>
      </trkpt>
      <trkpt lat="42.805985" lon="-8.634411">
        <ele>104.720</ele>
        <time>2018-08-25T18:15:27Z</time>
      </trkpt>
      <trkpt lat="42.806026" lon="-8.634370">
        <ele>104.528</ele>
        <time>2018-08-25T18:15:29Z</time>
      </trkpt>
      <trkpt lat="42.806067" lon="-8.634331">
        <ele>104.258</ele>
        <time>2018-08-25T18:15:31Z</time>
      </trkpt>
      <trkpt lat="42.806109" lon="-8.634291">
        <ele>104.063</ele>
        <time>2018-08-25T18:15:33Z</time>
      </trkpt>
      <trkpt lat="42.806149" lon="-8.634254">
        <ele>103.844</ele>
        <time>2018-08-25T18:15:35Z</time>
      </trkpt>
      <trkpt lat="42.806188" lon="-8.634219">
        <ele>103.618</ele>
        <time>2018-08-25T18:15:37Z</time>
      </trkpt>
      <trkpt lat="42.806241" lon="-8.634170">
        <ele>103.308</ele>
        <time>2018-08-25T18:15:40Z</time>
      </trkpt>
      <trkpt lat="42.806290" lon="-8.634124">
        <ele>103.088</ele>
        <time>2018-08-25T18:15:43Z</time>
      </trkpt>
      <trkpt lat="42.806341" lon="-8.634087">
        <ele>102.964</ele>
        <time>2018-08-25T18:15:46Z</time>
      </trkpt>
      <trkpt lat="42.806393" lon="-8.634038">
        <ele>103.089</ele>
        <time>2018-08-25T18:15:49Z</time>
      </trkpt>
      <trkpt lat="42.806446" lon="-8.633981">
        <ele>102.753</ele>
        <time>2018-08-25T18:15:52Z</time>
      </trkpt>
      <trkpt lat="42.806497" lon="-8.633932">
        <ele>103.190</ele>
        <time>2018-08-25T18:15:55Z</time>
      </trkpt>
      <trkpt lat="42.806540" lon="-8.633889">
        <ele>103.318</ele>
        <time>2018-08-25T18:15:58Z</time>
      </trkpt>
      <trkpt lat="42.806588" lon="-8.633852">
        <ele>103.236</ele>
        <time>2018-08-25T18:16:01Z</time>
      </trkpt>
      <trkpt lat="42.806637" lon="-8.633811">
        <ele>102.966</ele>
        <time>2018-08-25T18:16:04Z</time>
      </trkpt>
      <trkpt lat="42.806687" lon="-8.633770">
        <ele>103.145</ele>
        <time>2018-08-25T18:16:07Z</time>
      </trkpt>
      <trkpt lat="42.806730" lon="-8.633726">
        <ele>103.447</ele>
        <time>2018-08-25T18:16:10Z</time>
      </trkpt>
      <trkpt lat="42.806767" lon="-8.633692">
        <ele>103.711</ele>
        <time>2018-08-25T18:16:13Z</time>
      </trkpt>
      <trkpt lat="42.806809" lon="-8.633656">
        <ele>104.808</ele>
        <time>2018-08-25T18:16:16Z</time>
      </trkpt>
      <trkpt lat="42.806859" lon="-8.633615">
        <ele>106.136</ele>
        <time>2018-08-25T18:16:19Z</time>
      </trkpt>
      <trkpt lat="42.806910" lon="-8.633561">
        <ele>107.862</ele>
        <time>2018-08-25T18:16:22Z</time>
      </trkpt>
      <trkpt lat="42.806947" lon="-8.633519">
        <ele>109.157</ele>
        <time>2018-08-25T18:16:24Z</time>
      </trkpt>
      <trkpt lat="42.806998" lon="-8.633469">
        <ele>111.061</ele>
        <time>2018-08-25T18:16:27Z</time>
      </trkpt>
      <trkpt lat="42.807042" lon="-8.633434">
        <ele>112.848</ele>
        <time>2018-08-25T18:16:30Z</time>
      </trkpt>
      <trkpt lat="42.807089" lon="-8.633394">
        <ele>114.266</ele>
        <time>2018-08-25T18:16:33Z</time>
      </trkpt>
      <trkpt lat="42.807139" lon="-8.633342">
        <ele>115.454</ele>
        <time>2018-08-25T18:16:36Z</time>
      </trkpt>
      <trkpt lat="42.807187" lon="-8.633285">
        <ele>115.844</ele>
        <time>2018-08-25T18:16:39Z</time>
      </trkpt>
      <trkpt lat="42.807232" lon="-8.633239">
        <ele>116.387</ele>
        <time>2018-08-25T18:16:42Z</time>
      </trkpt>
      <trkpt lat="42.807277" lon="-8.633197">
        <ele>116.742</ele>
        <time>2018-08-25T18:16:45Z</time>
      </trkpt>
      <trkpt lat="42.807323" lon="-8.633150">
        <ele>117.126</ele>
        <time>2018-08-25T18:16:48Z</time>
      </trkpt>
      <trkpt lat="42.807373" lon="-8.633102">
        <ele>117.308</ele>
        <time>2018-08-25T18:16:51Z</time>
      </trkpt>
      <trkpt lat="42.807417" lon="-8.633060">
        <ele>117.590</ele>
        <time>2018-08-25T18:16:54Z</time>
      </trkpt>
      <trkpt lat="42.807463" lon="-8.633011">
        <ele>117.836</ele>
        <time>2018-08-25T18:16:57Z</time>
      </trkpt>
      <trkpt lat="42.807514" lon="-8.632956">
        <ele>118.271</ele>
        <time>2018-08-25T18:17:00Z</time>
      </trkpt>
      <trkpt lat="42.807562" lon="-8.632899">
        <ele>118.445</ele>
        <time>2018-08-25T18:17:03Z</time>
      </trkpt>
      <trkpt lat="42.807605" lon="-8.632846">
        <ele>118.292</ele>
        <time>2018-08-25T18:17:06Z</time>
      </trkpt>
      <trkpt lat="42.807649" lon="-8.632799">
        <ele>117.880</ele>
        <time>2018-08-25T18:17:09Z</time>
      </trkpt>
      <trkpt lat="42.807694" lon="-8.632752">
        <ele>117.598</ele>
        <time>2018-08-25T18:17:12Z</time>
      </trkpt>
      <trkpt lat="42.807739" lon="-8.632701">
        <ele>117.538</ele>
        <time>2018-08-25T18:17:15Z</time>
      </trkpt>
      <trkpt lat="42.807787" lon="-8.632648">
        <ele>117.537</ele>
        <time>2018-08-25T18:17:18Z</time>
      </trkpt>
      <trkpt lat="42.807830" lon="-8.632592">
        <ele>117.649</ele>
        <time>2018-08-25T18:17:21Z</time>
      </trkpt>
      <trkpt lat="42.807877" lon="-8.632541">
        <ele>117.613</ele>
        <time>2018-08-25T18:17:24Z</time>
      </trkpt>
      <trkpt lat="42.807922" lon="-8.632488">
        <ele>117.608</ele>
        <time>2018-08-25T18:17:27Z</time>
      </trkpt>
      <trkpt lat="42.807967" lon="-8.632436">
        <ele>117.685</ele>
        <time>2018-08-25T18:17:30Z</time>
      </trkpt>
      <trkpt lat="42.808005" lon="-8.632379">
        <ele>117.661</ele>
        <time>2018-08-25T18:17:33Z</time>
      </trkpt>
      <trkpt lat="42.808037" lon="-8.632323">
        <ele>117.696</ele>
        <time>2018-08-25T18:17:36Z</time>
      </trkpt>
      <trkpt lat="42.808058" lon="-8.632260">
        <ele>117.520</ele>
        <time>2018-08-25T18:17:39Z</time>
      </trkpt>
      <trkpt lat="42.808087" lon="-8.632206">
        <ele>117.337</ele>
        <time>2018-08-25T18:17:42Z</time>
      </trkpt>
      <trkpt lat="42.808127" lon="-8.632161">
        <ele>117.155</ele>
        <time>2018-08-25T18:17:45Z</time>
      </trkpt>
      <trkpt lat="42.808171" lon="-8.632117">
        <ele>116.933</ele>
        <time>2018-08-25T18:17:48Z</time>
      </trkpt>
      <trkpt lat="42.808211" lon="-8.632069">
        <ele>116.723</ele>
        <time>2018-08-25T18:17:51Z</time>
      </trkpt>
      <trkpt lat="42.808248" lon="-8.632013">
        <ele>116.724</ele>
        <time>2018-08-25T18:17:54Z</time>
      </trkpt>
      <trkpt lat="42.808283" lon="-8.631954">
        <ele>116.704</ele>
        <time>2018-08-25T18:17:57Z</time>
      </trkpt>
      <trkpt lat="42.808323" lon="-8.631897">
        <ele>116.614</ele>
        <time>2018-08-25T18:18:00Z</time>
      </trkpt>
      <trkpt lat="42.808357" lon="-8.631838">
        <ele>116.508</ele>
        <time>2018-08-25T18:18:03Z</time>
      </trkpt>
      <trkpt lat="42.808381" lon="-8.631777">
        <ele>116.414</ele>
        <time>2018-08-25T18:18:06Z</time>
      </trkpt>
      <trkpt lat="42.808406" lon="-8.631709">
        <ele>116.610</ele>
        <time>2018-08-25T18:18:09Z</time>
      </trkpt>
      <trkpt lat="42.808433" lon="-8.631642">
        <ele>116.885</ele>
        <time>2018-08-25T18:18:12Z</time>
      </trkpt>
      <trkpt lat="42.808459" lon="-8.631575">
        <ele>117.539</ele>
        <time>2018-08-25T18:18:15Z</time>
      </trkpt>
      <trkpt lat="42.808491" lon="-8.631512">
        <ele>118.176</ele>
        <time>2018-08-25T18:18:18Z</time>
      </trkpt>
      <trkpt lat="42.808524" lon="-8.631460">
        <ele>118.114</ele>
        <time>2018-08-25T18:18:21Z</time>
      </trkpt>
      <trkpt lat="42.808564" lon="-8.631422">
        <ele>118.442</ele>
        <time>2018-08-25T18:18:25Z</time>
      </trkpt>
      <trkpt lat="42.808617" lon="-8.631439">
        <ele>119.192</ele>
        <time>2018-08-25T18:18:29Z</time>
      </trkpt>
      <trkpt lat="42.808673" lon="-8.631429">
        <ele>119.922</ele>
        <time>2018-08-25T18:18:32Z</time>
      </trkpt>
      <trkpt lat="42.808721" lon="-8.631394">
        <ele>120.762</ele>
        <time>2018-08-25T18:18:35Z</time>
      </trkpt>
      <trkpt lat="42.808784" lon="-8.631358">
        <ele>121.308</ele>
        <time>2018-08-25T18:18:38Z</time>
      </trkpt>
      <trkpt lat="42.808833" lon="-8.631322">
        <ele>121.808</ele>
        <time>2018-08-25T18:18:40Z</time>
      </trkpt>
      <trkpt lat="42.808885" lon="-8.631280">
        <ele>122.124</ele>
        <time>2018-08-25T18:18:42Z</time>
      </trkpt>
      <trkpt lat="42.808941" lon="-8.631223">
        <ele>122.630</ele>
        <time>2018-08-25T18:18:44Z</time>
      </trkpt>
      <trkpt lat="42.809011" lon="-8.631141">
        <ele>123.085</ele>
        <time>2018-08-25T18:18:45Z</time>
      </trkpt>
      <trkpt lat="42.809045" lon="-8.631099">
        <ele>123.299</ele>
        <time>2018-08-25T18:18:46Z</time>
      </trkpt>
      <trkpt lat="42.809082" lon="-8.631052">
        <ele>123.136</ele>
        <time>2018-08-25T18:18:47Z</time>
      </trkpt>
      <trkpt lat="42.809121" lon="-8.631004">
        <ele>122.774</ele>
        <time>2018-08-25T18:18:48Z</time>
      </trkpt>
      <trkpt lat="42.809154" lon="-8.630955">
        <ele>122.822</ele>
        <time>2018-08-25T18:18:49Z</time>
      </trkpt>
      <trkpt lat="42.809197" lon="-8.630899">
        <ele>123.232</ele>
        <time>2018-08-25T18:18:51Z</time>
      </trkpt>
      <trkpt lat="42.809222" lon="-8.630847">
        <ele>123.421</ele>
        <time>2018-08-25T18:18:53Z</time>
      </trkpt>
      <trkpt lat="42.809250" lon="-8.630799">
        <ele>123.441</ele>
        <time>2018-08-25T18:18:55Z</time>
      </trkpt>
      <trkpt lat="42.809287" lon="-8.630727">
        <ele>123.505</ele>
        <time>2018-08-25T18:18:58Z</time>
      </trkpt>
      <trkpt lat="42.809316" lon="-8.630678">
        <ele>123.608</ele>
        <time>2018-08-25T18:19:00Z</time>
      </trkpt>
      <trkpt lat="42.809344" lon="-8.630629">
        <ele>123.824</ele>
        <time>2018-08-25T18:19:02Z</time>
      </trkpt>
      <trkpt lat="42.809378" lon="-8.630558">
        <ele>124.110</ele>
        <time>2018-08-25T18:19:05Z</time>
      </trkpt>
      <trkpt lat="42.809403" lon="-8.630502">
        <ele>124.765</ele>
        <time>2018-08-25T18:19:07Z</time>
      </trkpt>
      <trkpt lat="42.809426" lon="-8.630443">
        <ele>125.189</ele>
        <time>2018-08-25T18:19:09Z</time>
      </trkpt>
      <trkpt lat="42.809446" lon="-8.630372">
        <ele>125.466</ele>
        <time>2018-08-25T18:19:11Z</time>
      </trkpt>
      <trkpt lat="42.809466" lon="-8.630294">
        <ele>125.714</ele>
        <time>2018-08-25T18:19:13Z</time>
      </trkpt>
      <trkpt lat="42.809486" lon="-8.630212">
        <ele>125.932</ele>
        <time>2018-08-25T18:19:15Z</time>
      </trkpt>
      <trkpt lat="42.809507" lon="-8.630127">
        <ele>126.252</ele>
        <time>2018-08-25T18:19:17Z</time>
      </trkpt>
      <trkpt lat="42.809526" lon="-8.630045">
        <ele>126.475</ele>
        <time>2018-08-25T18:19:19Z</time>
      </trkpt>
      <trkpt lat="42.809547" lon="-8.629970">
        <ele>126.828</ele>
        <time>2018-08-25T18:19:21Z</time>
      </trkpt>
      <trkpt lat="42.809565" lon="-8.629904">
        <ele>127.220</ele>
        <time>2018-08-25T18:19:23Z</time>
      </trkpt>
      <trkpt lat="42.809582" lon="-8.629843">
        <ele>127.408</ele>
        <time>2018-08-25T18:19:25Z</time>
      </trkpt>
      <trkpt lat="42.809617" lon="-8.629706">
        <ele>127.119</ele>
        <time>2018-08-25T18:19:27Z</time>
      </trkpt>
      <trkpt lat="42.809629" lon="-8.629632">
        <ele>127.255</ele>
        <time>2018-08-25T18:19:30Z</time>
      </trkpt>
      <trkpt lat="42.809641" lon="-8.629561">
        <ele>127.070</ele>
        <time>2018-08-25T18:19:33Z</time>
      </trkpt>
      <trkpt lat="42.809657" lon="-8.629501">
        <ele>126.894</ele>
        <time>2018-08-25T18:19:35Z</time>
      </trkpt>
      <trkpt lat="42.809676" lon="-8.629429">
        <ele>127.061</ele>
        <time>2018-08-25T18:19:37Z</time>
      </trkpt>
      <trkpt lat="42.809696" lon="-8.629343">
        <ele>127.229</ele>
        <time>2018-08-25T18:19:39Z</time>
      </trkpt>
      <trkpt lat="42.809712" lon="-8.629252">
        <ele>127.437</ele>
        <time>2018-08-25T18:19:41Z</time>
      </trkpt>
      <trkpt lat="42.809730" lon="-8.629158">
        <ele>127.547</ele>
        <time>2018-08-25T18:19:43Z</time>
      </trkpt>
      <trkpt lat="42.809748" lon="-8.629066">
        <ele>127.695</ele>
        <time>2018-08-25T18:19:45Z</time>
      </trkpt>
      <trkpt lat="42.809763" lon="-8.628986">
        <ele>127.149</ele>
        <time>2018-08-25T18:19:47Z</time>
      </trkpt>
      <trkpt lat="42.809774" lon="-8.628911">
        <ele>126.723</ele>
        <time>2018-08-25T18:19:49Z</time>
      </trkpt>
      <trkpt lat="42.809786" lon="-8.628833">
        <ele>126.508</ele>
        <time>2018-08-25T18:19:51Z</time>
      </trkpt>
      <trkpt lat="42.809793" lon="-8.628743">
        <ele>126.371</ele>
        <time>2018-08-25T18:19:53Z</time>
      </trkpt>
      <trkpt lat="42.809794" lon="-8.628648">
        <ele>126.067</ele>
        <time>2018-08-25T18:19:55Z</time>
      </trkpt>
      <trkpt lat="42.809795" lon="-8.628571">
        <ele>125.162</ele>
        <time>2018-08-25T18:19:57Z</time>
      </trkpt>
      <trkpt lat="42.809795" lon="-8.628492">
        <ele>123.436</ele>
        <time>2018-08-25T18:19:59Z</time>
      </trkpt>
      <trkpt lat="42.809795" lon="-8.628402">
        <ele>122.273</ele>
        <time>2018-08-25T18:20:01Z</time>
      </trkpt>
      <trkpt lat="42.809794" lon="-8.628308">
        <ele>121.341</ele>
        <time>2018-08-25T18:20:03Z</time>
      </trkpt>
      <trkpt lat="42.809781" lon="-8.628129">
        <ele>120.349</ele>
        <time>2018-08-25T18:20:05Z</time>
      </trkpt>
      <trkpt lat="42.809762" lon="-8.628013">
        <ele>119.729</ele>
        <time>2018-08-25T18:20:07Z</time>
      </trkpt>
      <trkpt lat="42.809750" lon="-8.627946">
        <ele>119.861</ele>
        <time>2018-08-25T18:20:08Z</time>
      </trkpt>
      <trkpt lat="42.809736" lon="-8.627879">
        <ele>119.821</ele>
        <time>2018-08-25T18:20:09Z</time>
      </trkpt>
      <trkpt lat="42.809716" lon="-8.627811">
        <ele>119.013</ele>
        <time>2018-08-25T18:20:10Z</time>
      </trkpt>
      <trkpt lat="42.809693" lon="-8.627737">
        <ele>118.308</ele>
        <time>2018-08-25T18:20:11Z</time>
      </trkpt>
      <trkpt lat="42.809667" lon="-8.627657">
        <ele>117.998</ele>
        <time>2018-08-25T18:20:12Z</time>
      </trkpt>
      <trkpt lat="42.809636" lon="-8.627574">
        <ele>117.294</ele>
        <time>2018-08-25T18:20:13Z</time>
      </trkpt>
      <trkpt lat="42.809602" lon="-8.627488">
        <ele>116.439</ele>
        <time>2018-08-25T18:20:14Z</time>
      </trkpt>
      <trkpt lat="42.809570" lon="-8.627396">
        <ele>115.923</ele>
        <time>2018-08-25T18:20:15Z</time>
      </trkpt>
      <trkpt lat="42.809533" lon="-8.627301">
        <ele>116.050</ele>
        <time>2018-08-25T18:20:16Z</time>
      </trkpt>
      <trkpt lat="42.809502" lon="-8.627198">
        <ele>116.168</ele>
        <time>2018-08-25T18:20:17Z</time>
      </trkpt>
      <trkpt lat="42.809473" lon="-8.627093">
        <ele>116.326</ele>
        <time>2018-08-25T18:20:18Z</time>
      </trkpt>
      <trkpt lat="42.809448" lon="-8.626988">
        <ele>116.566</ele>
        <time>2018-08-25T18:20:19Z</time>
      </trkpt>
      <trkpt lat="42.809424" lon="-8.626887">
        <ele>116.857</ele>
        <time>2018-08-25T18:20:20Z</time>
      </trkpt>
      <trkpt lat="42.809406" lon="-8.626785">
        <ele>117.200</ele>
        <time>2018-08-25T18:20:21Z</time>
      </trkpt>
      <trkpt lat="42.809389" lon="-8.626687">
        <ele>117.720</ele>
        <time>2018-08-25T18:20:22Z</time>
      </trkpt>
      <trkpt lat="42.809377" lon="-8.626592">
        <ele>118.208</ele>
        <time>2018-08-25T18:20:23Z</time>
      </trkpt>
      <trkpt lat="42.809371" lon="-8.626502">
        <ele>118.637</ele>
        <time>2018-08-25T18:20:24Z</time>
      </trkpt>
      <trkpt lat="42.809370" lon="-8.626417">
        <ele>118.993</ele>
        <time>2018-08-25T18:20:25Z</time>
      </trkpt>
      <trkpt lat="42.809373" lon="-8.626338">
        <ele>119.198</ele>
        <time>2018-08-25T18:20:26Z</time>
      </trkpt>
      <trkpt lat="42.809377" lon="-8.626264">
        <ele>119.172</ele>
        <time>2018-08-25T18:20:27Z</time>
      </trkpt>
      <trkpt lat="42.809384" lon="-8.626189">
        <ele>119.199</ele>
        <time>2018-08-25T18:20:28Z</time>
      </trkpt>
      <trkpt lat="42.809395" lon="-8.626117">
        <ele>119.137</ele>
        <time>2018-08-25T18:20:29Z</time>
      </trkpt>
      <trkpt lat="42.809408" lon="-8.626047">
        <ele>119.255</ele>
        <time>2018-08-25T18:20:30Z</time>
      </trkpt>
      <trkpt lat="42.809420" lon="-8.625975">
        <ele>119.255</ele>
        <time>2018-08-25T18:20:31Z</time>
      </trkpt>
      <trkpt lat="42.809437" lon="-8.625908">
        <ele>119.126</ele>
        <time>2018-08-25T18:20:32Z</time>
      </trkpt>
      <trkpt lat="42.809458" lon="-8.625845">
        <ele>119.147</ele>
        <time>2018-08-25T18:20:33Z</time>
      </trkpt>
      <trkpt lat="42.809481" lon="-8.625787">
        <ele>119.211</ele>
        <time>2018-08-25T18:20:34Z</time>
      </trkpt>
      <trkpt lat="42.809504" lon="-8.625732">
        <ele>119.308</ele>
        <time>2018-08-25T18:20:35Z</time>
      </trkpt>
      <trkpt lat="42.809523" lon="-8.625676">
        <ele>119.554</ele>
        <time>2018-08-25T18:20:36Z</time>
      </trkpt>
      <trkpt lat="42.809564" lon="-8.625571">
        <ele>119.640</ele>
        <time>2018-08-25T18:20:38Z</time>
      </trkpt>
      <trkpt lat="42.809608" lon="-8.625475">
        <ele>119.645</ele>
        <time>2018-08-25T18:20:40Z</time>
      </trkpt>
      <trkpt lat="42.809639" lon="-8.625403">
        <ele>119.649</ele>
        <time>2018-08-25T18:20:42Z</time>
      </trkpt>
      <trkpt lat="42.809659" lon="-8.625342">
        <ele>119.786</ele>
        <time>2018-08-25T18:20:44Z</time>
      </trkpt>
      <trkpt lat="42.809681" lon="-8.625282">
        <ele>119.714</ele>
        <time>2018-08-25T18:20:46Z</time>
      </trkpt>
      <trkpt lat="42.809702" lon="-8.625216">
        <ele>119.622</ele>
        <time>2018-08-25T18:20:48Z</time>
      </trkpt>
      <trkpt lat="42.809726" lon="-8.625136">
        <ele>119.922</ele>
        <time>2018-08-25T18:20:50Z</time>
      </trkpt>
      <trkpt lat="42.809755" lon="-8.625063">
        <ele>120.158</ele>
        <time>2018-08-25T18:20:52Z</time>
      </trkpt>
      <trkpt lat="42.809781" lon="-8.624993">
        <ele>120.152</ele>
        <time>2018-08-25T18:20:54Z</time>
      </trkpt>
      <trkpt lat="42.809799" lon="-8.624933">
        <ele>119.917</ele>
        <time>2018-08-25T18:20:56Z</time>
      </trkpt>
      <trkpt lat="42.809827" lon="-8.624859">
        <ele>119.708</ele>
        <time>2018-08-25T18:20:59Z</time>
      </trkpt>
      <trkpt lat="42.809853" lon="-8.624799">
        <ele>119.217</ele>
        <time>2018-08-25T18:21:02Z</time>
      </trkpt>
      <trkpt lat="42.809886" lon="-8.624737">
        <ele>118.993</ele>
        <time>2018-08-25T18:21:05Z</time>
      </trkpt>
      <trkpt lat="42.809924" lon="-8.624665">
        <ele>118.678</ele>
        <time>2018-08-25T18:21:08Z</time>
      </trkpt>
      <trkpt lat="42.809957" lon="-8.624606">
        <ele>118.282</ele>
        <time>2018-08-25T18:21:11Z</time>
      </trkpt>
      <trkpt lat="42.809995" lon="-8.624549">
        <ele>118.179</ele>
        <time>2018-08-25T18:21:14Z</time>
      </trkpt>
      <trkpt lat="42.810029" lon="-8.624495">
        <ele>118.337</ele>
        <time>2018-08-25T18:21:17Z</time>
      </trkpt>
      <trkpt lat="42.810058" lon="-8.624439">
        <ele>118.615</ele>
        <time>2018-08-25T18:21:20Z</time>
      </trkpt>
      <trkpt lat="42.810085" lon="-8.624382">
        <ele>118.855</ele>
        <time>2018-08-25T18:21:23Z</time>
      </trkpt>
      <trkpt lat="42.810126" lon="-8.624336">
        <ele>118.728</ele>
        <time>2018-08-25T18:21:27Z</time>
      </trkpt>
      <trkpt lat="42.810196" lon="-8.624342">
        <ele>118.789</ele>
        <time>2018-08-25T18:21:31Z</time>
      </trkpt>
      <trkpt lat="42.810332" lon="-8.624322">
        <ele>118.417</ele>
        <time>2018-08-25T18:21:33Z</time>
      </trkpt>
      <trkpt lat="42.810383" lon="-8.624300">
        <ele>118.308</ele>
        <time>2018-08-25T18:21:34Z</time>
      </trkpt>
      <trkpt lat="42.810437" lon="-8.624265">
        <ele>118.214</ele>
        <time>2018-08-25T18:21:35Z</time>
      </trkpt>
      <trkpt lat="42.810495" lon="-8.624228">
        <ele>118.030</ele>
        <time>2018-08-25T18:21:36Z</time>
      </trkpt>
      <trkpt lat="42.810556" lon="-8.624186">
        <ele>117.385</ele>
        <time>2018-08-25T18:21:37Z</time>
      </trkpt>
      <trkpt lat="42.810617" lon="-8.624138">
        <ele>116.529</ele>
        <time>2018-08-25T18:21:38Z</time>
      </trkpt>
      <trkpt lat="42.810678" lon="-8.624089">
        <ele>115.946</ele>
        <time>2018-08-25T18:21:39Z</time>
      </trkpt>
      <trkpt lat="42.810740" lon="-8.624036">
        <ele>115.564</ele>
        <time>2018-08-25T18:21:40Z</time>
      </trkpt>
      <trkpt lat="42.810796" lon="-8.623987">
        <ele>115.272</ele>
        <time>2018-08-25T18:21:41Z</time>
      </trkpt>
      <trkpt lat="42.810850" lon="-8.623943">
        <ele>115.012</ele>
        <time>2018-08-25T18:21:42Z</time>
      </trkpt>
      <trkpt lat="42.810903" lon="-8.623904">
        <ele>114.872</ele>
        <time>2018-08-25T18:21:43Z</time>
      </trkpt>
      <trkpt lat="42.810952" lon="-8.623871">
        <ele>114.713</ele>
        <time>2018-08-25T18:21:44Z</time>
      </trkpt>
      <trkpt lat="42.811023" lon="-8.623815">
        <ele>114.514</ele>
        <time>2018-08-25T18:21:46Z</time>
      </trkpt>
      <trkpt lat="42.811065" lon="-8.623783">
        <ele>115.108</ele>
        <time>2018-08-25T18:21:47Z</time>
      </trkpt>
      <trkpt lat="42.811108" lon="-8.623758">
        <ele>115.619</ele>
        <time>2018-08-25T18:21:49Z</time>
      </trkpt>
      <trkpt lat="42.811153" lon="-8.623742">
        <ele>116.075</ele>
        <time>2018-08-25T18:21:51Z</time>
      </trkpt>
      <trkpt lat="42.811215" lon="-8.623719">
        <ele>116.470</ele>
        <time>2018-08-25T18:21:54Z</time>
      </trkpt>
      <trkpt lat="42.811263" lon="-8.623685">
        <ele>117.214</ele>
        <time>2018-08-25T18:21:57Z</time>
      </trkpt>
      <trkpt lat="42.811300" lon="-8.623643">
        <ele>117.891</ele>
        <time>2018-08-25T18:22:00Z</time>
      </trkpt>
      <trkpt lat="42.811345" lon="-8.623600">
        <ele>118.239</ele>
        <time>2018-08-25T18:22:04Z</time>
      </trkpt>
      <trkpt lat="42.811394" lon="-8.623550">
        <ele>119.727</ele>
        <time>2018-08-25T18:22:08Z</time>
      </trkpt>
      <trkpt lat="42.811433" lon="-8.623510">
        <ele>121.627</ele>
        <time>2018-08-25T18:22:11Z</time>
      </trkpt>
      <trkpt lat="42.811468" lon="-8.623469">
        <ele>123.589</ele>
        <time>2018-08-25T18:22:14Z</time>
      </trkpt>
      <trkpt lat="42.811502" lon="-8.623413">
        <ele>124.606</ele>
        <time>2018-08-25T18:22:18Z</time>
      </trkpt>
      <trkpt lat="42.811517" lon="-8.623355">
        <ele>125.426</ele>
        <time>2018-08-25T18:22:22Z</time>
      </trkpt>
      <trkpt lat="42.811521" lon="-8.623287">
        <ele>126.208</ele>
        <time>2018-08-25T18:22:26Z</time>
      </trkpt>
      <trkpt lat="42.811527" lon="-8.623224">
        <ele>126.840</ele>
        <time>2018-08-25T18:22:30Z</time>
      </trkpt>
      <trkpt lat="42.811529" lon="-8.623161">
        <ele>127.236</ele>
        <time>2018-08-25T18:22:34Z</time>
      </trkpt>
      <trkpt lat="42.811537" lon="-8.623089">
        <ele>127.341</ele>
        <time>2018-08-25T18:22:39Z</time>
      </trkpt>
      <trkpt lat="42.811565" lon="-8.623016">
        <ele>127.015</ele>
        <time>2018-08-25T18:22:44Z</time>
      </trkpt>
      <trkpt lat="42.811596" lon="-8.622956">
        <ele>127.152</ele>
        <time>2018-08-25T18:22:48Z</time>
      </trkpt>
      <trkpt lat="42.811634" lon="-8.622912">
        <ele>127.450</ele>
        <time>2018-08-25T18:22:52Z</time>
      </trkpt>
      <trkpt lat="42.811673" lon="-8.622881">
        <ele>128.128</ele>
        <time>2018-08-25T18:22:56Z</time>
      </trkpt>
      <trkpt lat="42.811700" lon="-8.622827">
        <ele>128.438</ele>
        <time>2018-08-25T18:23:01Z</time>
      </trkpt>
      <trkpt lat="42.811732" lon="-8.622772">
        <ele>128.931</ele>
        <time>2018-08-25T18:23:05Z</time>
      </trkpt>
      <trkpt lat="42.811779" lon="-8.622723">
        <ele>129.461</ele>
        <time>2018-08-25T18:23:09Z</time>
      </trkpt>
      <trkpt lat="42.811817" lon="-8.622673">
        <ele>129.807</ele>
        <time>2018-08-25T18:23:13Z</time>
      </trkpt>
      <trkpt lat="42.811854" lon="-8.622636">
        <ele>130.208</ele>
        <time>2018-08-25T18:23:17Z</time>
      </trkpt>
      <trkpt lat="42.811900" lon="-8.622605">
        <ele>130.715</ele>
        <time>2018-08-25T18:23:21Z</time>
      </trkpt>
      <trkpt lat="42.811949" lon="-8.622569">
        <ele>131.531</ele>
        <time>2018-08-25T18:23:25Z</time>
      </trkpt>
      <trkpt lat="42.812000" lon="-8.622544">
        <ele>132.376</ele>
        <time>2018-08-25T18:23:29Z</time>
      </trkpt>
      <trkpt lat="42.812053" lon="-8.622538">
        <ele>133.490</ele>
        <time>2018-08-25T18:23:33Z</time>
      </trkpt>
      <trkpt lat="42.812100" lon="-8.622531">
        <ele>134.747</ele>
        <time>2018-08-25T18:23:36Z</time>
      </trkpt>
      <trkpt lat="42.812153" lon="-8.622509">
        <ele>135.775</ele>
        <time>2018-08-25T18:23:40Z</time>
      </trkpt>
      <trkpt lat="42.812206" lon="-8.622477">
        <ele>136.643</ele>
        <time>2018-08-25T18:23:44Z</time>
      </trkpt>
      <trkpt lat="42.812252" lon="-8.622459">
        <ele>137.263</ele>
        <time>2018-08-25T18:23:47Z</time>
      </trkpt>
      <trkpt lat="42.812300" lon="-8.622456">
        <ele>137.735</ele>
        <time>2018-08-25T18:23:50Z</time>
      </trkpt>
      <trkpt lat="42.812352" lon="-8.622449">
        <ele>138.186</ele>
        <time>2018-08-25T18:23:53Z</time>
      </trkpt>
      <trkpt lat="42.812402" lon="-8.622436">
        <ele>138.414</ele>
        <time>2018-08-25T18:23:56Z</time>
      </trkpt>
      <trkpt lat="42.812447" lon="-8.622415">
        <ele>138.808</ele>
        <time>2018-08-25T18:23:59Z</time>
      </trkpt>
      <trkpt lat="42.812494" lon="-8.622387">
        <ele>139.485</ele>
        <time>2018-08-25T18:24:02Z</time>
      </trkpt>
      <trkpt lat="42.812541" lon="-8.622353">
        <ele>140.251</ele>
        <time>2018-08-25T18:24:05Z</time>
      </trkpt>
      <trkpt lat="42.812588" lon="-8.622329">
        <ele>140.826</ele>
        <time>2018-08-25T18:24:08Z</time>
      </trkpt>
      <trkpt lat="42.812650" lon="-8.622291">
        <ele>141.350</ele>
        <time>2018-08-25T18:24:11Z</time>
      </trkpt>
      <trkpt lat="42.812697" lon="-8.622256">
        <ele>141.797</ele>
        <time>2018-08-25T18:24:13Z</time>
      </trkpt>
      <trkpt lat="42.812736" lon="-8.622222">
        <ele>142.015</ele>
        <time>2018-08-25T18:24:15Z</time>
      </trkpt>
      <trkpt lat="42.812793" lon="-8.622189">
        <ele>142.153</ele>
        <time>2018-08-25T18:24:18Z</time>
      </trkpt>
      <trkpt lat="42.812836" lon="-8.622162">
        <ele>142.213</ele>
        <time>2018-08-25T18:24:20Z</time>
      </trkpt>
      <trkpt lat="42.812876" lon="-8.622133">
        <ele>142.445</ele>
        <time>2018-08-25T18:24:22Z</time>
      </trkpt>
      <trkpt lat="42.812922" lon="-8.622105">
        <ele>142.247</ele>
        <time>2018-08-25T18:24:25Z</time>
      </trkpt>
      <trkpt lat="42.812974" lon="-8.622097">
        <ele>141.511</ele>
        <time>2018-08-25T18:24:29Z</time>
      </trkpt>
      <trkpt lat="42.813020" lon="-8.622063">
        <ele>141.308</ele>
        <time>2018-08-25T18:24:32Z</time>
      </trkpt>
      <trkpt lat="42.813070" lon="-8.622012">
        <ele>141.176</ele>
        <time>2018-08-25T18:24:35Z</time>
      </trkpt>
      <trkpt lat="42.813107" lon="-8.621976">
        <ele>141.022</ele>
        <time>2018-08-25T18:24:37Z</time>
      </trkpt>
      <trkpt lat="42.813163" lon="-8.621926">
        <ele>141.487</ele>
        <time>2018-08-25T18:24:40Z</time>
      </trkpt>
      <trkpt lat="42.813200" lon="-8.621887">
        <ele>141.971</ele>
        <time>2018-08-25T18:24:42Z</time>
      </trkpt>
      <trkpt lat="42.813249" lon="-8.621833">
        <ele>142.288</ele>
        <time>2018-08-25T18:24:45Z</time>
      </trkpt>
      <trkpt lat="42.813289" lon="-8.621799">
        <ele>142.836</ele>
        <time>2018-08-25T18:24:48Z</time>
      </trkpt>
      <trkpt lat="42.813333" lon="-8.621750">
        <ele>143.264</ele>
        <time>2018-08-25T18:24:52Z</time>
      </trkpt>
      <trkpt lat="42.813372" lon="-8.621717">
        <ele>143.974</ele>
        <time>2018-08-25T18:24:55Z</time>
      </trkpt>
      <trkpt lat="42.813409" lon="-8.621674">
        <ele>144.575</ele>
        <time>2018-08-25T18:24:58Z</time>
      </trkpt>
      <trkpt lat="42.813437" lon="-8.621620">
        <ele>145.228</ele>
        <time>2018-08-25T18:25:01Z</time>
      </trkpt>
      <trkpt lat="42.813453" lon="-8.621559">
        <ele>145.120</ele>
        <time>2018-08-25T18:25:04Z</time>
      </trkpt>
      <trkpt lat="42.813480" lon="-8.621495">
        <ele>145.008</ele>
        <time>2018-08-25T18:25:07Z</time>
      </trkpt>
      <trkpt lat="42.813513" lon="-8.621440">
        <ele>145.189</ele>
        <time>2018-08-25T18:25:10Z</time>
      </trkpt>
      <trkpt lat="42.813551" lon="-8.621388">
        <ele>145.345</ele>
        <time>2018-08-25T18:25:14Z</time>
      </trkpt>
      <trkpt lat="42.813568" lon="-8.621323">
        <ele>145.140</ele>
        <time>2018-08-25T18:25:17Z</time>
      </trkpt>
      <trkpt lat="42.813588" lon="-8.621250">
        <ele>144.754</ele>
        <time>2018-08-25T18:25:20Z</time>
      </trkpt>
      <trkpt lat="42.813613" lon="-8.621179">
        <ele>144.431</ele>
        <time>2018-08-25T18:25:23Z</time>
      </trkpt>
      <trkpt lat="42.813634" lon="-8.621123">
        <ele>144.299</ele>
        <time>2018-08-25T18:25:26Z</time>
      </trkpt>
      <trkpt lat="42.813651" lon="-8.621057">
        <ele>144.427</ele>
        <time>2018-08-25T18:25:30Z</time>
      </trkpt>
      <trkpt lat="42.813675" lon="-8.620984">
        <ele>144.977</ele>
        <time>2018-08-25T18:25:34Z</time>
      </trkpt>
      <trkpt lat="42.813692" lon="-8.620927">
        <ele>145.793</ele>
        <time>2018-08-25T18:25:37Z</time>
      </trkpt>
      <trkpt lat="42.813717" lon="-8.620875">
        <ele>146.565</ele>
        <time>2018-08-25T18:25:40Z</time>
      </trkpt>
      <trkpt lat="42.813743" lon="-8.620822">
        <ele>147.221</ele>
        <time>2018-08-25T18:25:43Z</time>
      </trkpt>
      <trkpt lat="42.813762" lon="-8.620765">
        <ele>147.608</ele>
        <time>2018-08-25T18:25:46Z</time>
      </trkpt>
      <trkpt lat="42.813781" lon="-8.620708">
        <ele>147.941</ele>
        <time>2018-08-25T18:25:49Z</time>
      </trkpt>
      <trkpt lat="42.813807" lon="-8.620655">
        <ele>148.367</ele>
        <time>2018-08-25T18:25:52Z</time>
      </trkpt>
      <trkpt lat="42.813833" lon="-8.620593">
        <ele>149.022</ele>
        <time>2018-08-25T18:25:55Z</time>
      </trkpt>
      <trkpt lat="42.813858" lon="-8.620528">
        <ele>149.736</ele>
        <time>2018-08-25T18:25:58Z</time>
      </trkpt>
      <trkpt lat="42.813886" lon="-8.620462">
        <ele>150.433</ele>
        <time>2018-08-25T18:26:01Z</time>
      </trkpt>
      <trkpt lat="42.813919" lon="-8.620395">
        <ele>151.111</ele>
        <time>2018-08-25T18:26:04Z</time>
      </trkpt>
      <trkpt lat="42.813949" lon="-8.620324">
        <ele>151.839</ele>
        <time>2018-08-25T18:26:07Z</time>
      </trkpt>
      <trkpt lat="42.813987" lon="-8.620271">
        <ele>152.559</ele>
        <time>2018-08-25T18:26:10Z</time>
      </trkpt>
      <trkpt lat="42.814034" lon="-8.620263">
        <ele>153.025</ele>
        <time>2018-08-25T18:26:13Z</time>
      </trkpt>
      <trkpt lat="42.814086" lon="-8.620299">
        <ele>153.526</ele>
        <time>2018-08-25T18:26:17Z</time>
      </trkpt>
      <trkpt lat="42.814137" lon="-8.620312">
        <ele>154.108</ele>
        <time>2018-08-25T18:26:50Z</time>
      </trkpt>
      <trkpt lat="42.814187" lon="-8.620326">
        <ele>154.808</ele>
        <time>2018-08-25T18:26:56Z</time>
      </trkpt>
      <trkpt lat="42.814236" lon="-8.620308">
        <ele>155.374</ele>
        <time>2018-08-25T18:26:59Z</time>
      </trkpt>
      <trkpt lat="42.814288" lon="-8.620285">
        <ele>155.770</ele>
        <time>2018-08-25T18:27:02Z</time>
      </trkpt>
      <trkpt lat="42.814337" lon="-8.620253">
        <ele>156.295</ele>
        <time>2018-08-25T18:27:05Z</time>
      </trkpt>
      <trkpt lat="42.814385" lon="-8.620197">
        <ele>156.849</ele>
        <time>2018-08-25T18:27:08Z</time>
      </trkpt>
      <trkpt lat="42.814433" lon="-8.620139">
        <ele>157.216</ele>
        <time>2018-08-25T18:27:11Z</time>
      </trkpt>
      <trkpt lat="42.814472" lon="-8.620084">
        <ele>157.894</ele>
        <time>2018-08-25T18:27:14Z</time>
      </trkpt>
      <trkpt lat="42.814520" lon="-8.620022">
        <ele>158.992</ele>
        <time>2018-08-25T18:27:17Z</time>
      </trkpt>
      <trkpt lat="42.814562" lon="-8.619992">
        <ele>159.762</ele>
        <time>2018-08-25T18:27:19Z</time>
      </trkpt>
      <trkpt lat="42.814615" lon="-8.620005">
        <ele>160.128</ele>
        <time>2018-08-25T18:27:22Z</time>
      </trkpt>
      <trkpt lat="42.814632" lon="-8.620065">
        <ele>160.689</ele>
        <time>2018-08-25T18:27:25Z</time>
      </trkpt>
      <trkpt lat="42.814638" lon="-8.620136">
        <ele>161.217</ele>
        <time>2018-08-25T18:27:28Z</time>
      </trkpt>
      <trkpt lat="42.814642" lon="-8.620212">
        <ele>161.708</ele>
        <time>2018-08-25T18:27:31Z</time>
      </trkpt>
      <trkpt lat="42.814648" lon="-8.620273">
        <ele>161.784</ele>
        <time>2018-08-25T18:27:33Z</time>
      </trkpt>
      <trkpt lat="42.814655" lon="-8.620353">
        <ele>161.380</ele>
        <time>2018-08-25T18:27:35Z</time>
      </trkpt>
      <trkpt lat="42.814666" lon="-8.620473">
        <ele>161.055</ele>
        <time>2018-08-25T18:27:36Z</time>
      </trkpt>
      <trkpt lat="42.814676" lon="-8.620535">
        <ele>160.719</ele>
        <time>2018-08-25T18:27:37Z</time>
      </trkpt>
      <trkpt lat="42.814689" lon="-8.620607">
        <ele>160.436</ele>
        <time>2018-08-25T18:27:38Z</time>
      </trkpt>
      <trkpt lat="42.814697" lon="-8.620686">
        <ele>159.754</ele>
        <time>2018-08-25T18:27:39Z</time>
      </trkpt>
      <trkpt lat="42.814701" lon="-8.620771">
        <ele>158.912</ele>
        <time>2018-08-25T18:27:40Z</time>
      </trkpt>
      <trkpt lat="42.814708" lon="-8.620862">
        <ele>158.282</ele>
        <time>2018-08-25T18:27:41Z</time>
      </trkpt>
      <trkpt lat="42.814717" lon="-8.620957">
        <ele>157.618</ele>
        <time>2018-08-25T18:27:42Z</time>
      </trkpt>
      <trkpt lat="42.814726" lon="-8.621052">
        <ele>157.198</ele>
        <time>2018-08-25T18:27:43Z</time>
      </trkpt>
      <trkpt lat="42.814733" lon="-8.621144">
        <ele>156.717</ele>
        <time>2018-08-25T18:27:44Z</time>
      </trkpt>
      <trkpt lat="42.814745" lon="-8.621224">
        <ele>156.508</ele>
        <time>2018-08-25T18:27:45Z</time>
      </trkpt>
      <trkpt lat="42.814767" lon="-8.621287">
        <ele>156.553</ele>
        <time>2018-08-25T18:27:46Z</time>
      </trkpt>
      <trkpt lat="42.814796" lon="-8.621336">
        <ele>156.549</ele>
        <time>2018-08-25T18:27:47Z</time>
      </trkpt>
      <trkpt lat="42.814860" lon="-8.621425">
        <ele>155.984</ele>
        <time>2018-08-25T18:27:49Z</time>
      </trkpt>
      <trkpt lat="42.814895" lon="-8.621478">
        <ele>155.088</ele>
        <time>2018-08-25T18:27:50Z</time>
      </trkpt>
      <trkpt lat="42.814932" lon="-8.621539">
        <ele>153.945</ele>
        <time>2018-08-25T18:27:51Z</time>
      </trkpt>
      <trkpt lat="42.814970" lon="-8.621598">
        <ele>152.923</ele>
        <time>2018-08-25T18:27:52Z</time>
      </trkpt>
      <trkpt lat="42.815012" lon="-8.621650">
        <ele>151.941</ele>
        <time>2018-08-25T18:27:53Z</time>
      </trkpt>
      <trkpt lat="42.815057" lon="-8.621687">
        <ele>151.271</ele>
        <time>2018-08-25T18:27:54Z</time>
      </trkpt>
      <trkpt lat="42.815102" lon="-8.621722">
        <ele>150.892</ele>
        <time>2018-08-25T18:27:55Z</time>
      </trkpt>
      <trkpt lat="42.815147" lon="-8.621751">
        <ele>150.473</ele>
        <time>2018-08-25T18:27:56Z</time>
      </trkpt>
      <trkpt lat="42.815204" lon="-8.621785">
        <ele>149.920</ele>
        <time>2018-08-25T18:27:58Z</time>
      </trkpt>
      <trkpt lat="42.815249" lon="-8.621818">
        <ele>149.208</ele>
        <time>2018-08-25T18:28:00Z</time>
      </trkpt>
      <trkpt lat="42.815303" lon="-8.621857">
        <ele>148.461</ele>
        <time>2018-08-25T18:28:02Z</time>
      </trkpt>
      <trkpt lat="42.815356" lon="-8.621901">
        <ele>146.827</ele>
        <time>2018-08-25T18:28:04Z</time>
      </trkpt>
      <trkpt lat="42.815402" lon="-8.621955">
        <ele>145.942</ele>
        <time>2018-08-25T18:28:06Z</time>
      </trkpt>
      <trkpt lat="42.815443" lon="-8.622006">
        <ele>146.566</ele>
        <time>2018-08-25T18:28:08Z</time>
      </trkpt>
      <trkpt lat="42.815486" lon="-8.622068">
        <ele>146.093</ele>
        <time>2018-08-25T18:28:11Z</time>
      </trkpt>
      <trkpt lat="42.815523" lon="-8.622115">
        <ele>145.031</ele>
        <time>2018-08-25T18:28:14Z</time>
      </trkpt>
      <trkpt lat="42.815584" lon="-8.622127">
        <ele>144.089</ele>
        <time>2018-08-25T18:28:17Z</time>
      </trkpt>
      <trkpt lat="42.815650" lon="-8.622109">
        <ele>143.449</ele>
        <time>2018-08-25T18:28:20Z</time>
      </trkpt>
      <trkpt lat="42.815700" lon="-8.622107">
        <ele>143.348</ele>
        <time>2018-08-25T18:28:22Z</time>
      </trkpt>
      <trkpt lat="42.815763" lon="-8.622114">
        <ele>143.161</ele>
        <time>2018-08-25T18:28:25Z</time>
      </trkpt>
      <trkpt lat="42.815813" lon="-8.622121">
        <ele>142.717</ele>
        <time>2018-08-25T18:28:27Z</time>
      </trkpt>
      <trkpt lat="42.815862" lon="-8.622121">
        <ele>142.108</ele>
        <time>2018-08-25T18:28:29Z</time>
      </trkpt>
      <trkpt lat="42.815916" lon="-8.622117">
        <ele>141.546</ele>
        <time>2018-08-25T18:28:31Z</time>
      </trkpt>
      <trkpt lat="42.815962" lon="-8.622114">
        <ele>140.662</ele>
        <time>2018-08-25T18:28:33Z</time>
      </trkpt>
      <trkpt lat="42.816007" lon="-8.622101">
        <ele>139.757</ele>
        <time>2018-08-25T18:28:35Z</time>
      </trkpt>
      <trkpt lat="42.816052" lon="-8.622069">
        <ele>138.911</ele>
        <time>2018-08-25T18:28:37Z</time>
      </trkpt>
      <trkpt lat="42.816121" lon="-8.621945">
        <ele>138.038</ele>
        <time>2018-08-25T18:28:39Z</time>
      </trkpt>
      <trkpt lat="42.816153" lon="-8.621853">
        <ele>137.426</ele>
        <time>2018-08-25T18:28:41Z</time>
      </trkpt>
      <trkpt lat="42.816205" lon="-8.621768">
        <ele>135.114</ele>
        <time>2018-08-25T18:28:43Z</time>
      </trkpt>
      <trkpt lat="42.816240" lon="-8.621727">
        <ele>133.444</ele>
        <time>2018-08-25T18:28:44Z</time>
      </trkpt>
      <trkpt lat="42.816308" lon="-8.621657">
        <ele>131.941</ele>
        <time>2018-08-25T18:28:46Z</time>
      </trkpt>
      <trkpt lat="42.816348" lon="-8.621627">
        <ele>131.081</ele>
        <time>2018-08-25T18:28:47Z</time>
      </trkpt>
      <trkpt lat="42.816390" lon="-8.621595">
        <ele>131.209</ele>
        <time>2018-08-25T18:28:49Z</time>
      </trkpt>
      <trkpt lat="42.816433" lon="-8.621547">
        <ele>132.108</ele>
        <time>2018-08-25T18:28:51Z</time>
      </trkpt>
      <trkpt lat="42.816483" lon="-8.621503">
        <ele>132.516</ele>
        <time>2018-08-25T18:28:53Z</time>
      </trkpt>
      <trkpt lat="42.816530" lon="-8.621466">
        <ele>132.982</ele>
        <time>2018-08-25T18:28:55Z</time>
      </trkpt>
      <trkpt lat="42.816574" lon="-8.621440">
        <ele>133.647</ele>
        <time>2018-08-25T18:28:57Z</time>
      </trkpt>
      <trkpt lat="42.816625" lon="-8.621421">
        <ele>134.191</ele>
        <time>2018-08-25T18:29:00Z</time>
      </trkpt>
      <trkpt lat="42.816676" lon="-8.621381">
        <ele>134.628</ele>
        <time>2018-08-25T18:29:03Z</time>
      </trkpt>
      <trkpt lat="42.816714" lon="-8.621338">
        <ele>135.116</ele>
        <time>2018-08-25T18:29:05Z</time>
      </trkpt>
      <trkpt lat="42.816760" lon="-8.621304">
        <ele>135.364</ele>
        <time>2018-08-25T18:29:07Z</time>
      </trkpt>
      <trkpt lat="42.816809" lon="-8.621278">
        <ele>135.774</ele>
        <time>2018-08-25T18:29:09Z</time>
      </trkpt>
      <trkpt lat="42.816862" lon="-8.621261">
        <ele>136.439</ele>
        <time>2018-08-25T18:29:11Z</time>
      </trkpt>
      <trkpt lat="42.816914" lon="-8.621252">
        <ele>137.101</ele>
        <time>2018-08-25T18:29:13Z</time>
      </trkpt>
      <trkpt lat="42.816963" lon="-8.621249">
        <ele>137.821</ele>
        <time>2018-08-25T18:29:15Z</time>
      </trkpt>
      <trkpt lat="42.817019" lon="-8.621258">
        <ele>138.608</ele>
        <time>2018-08-25T18:29:18Z</time>
      </trkpt>
      <trkpt lat="42.817064" lon="-8.621276">
        <ele>139.365</ele>
        <time>2018-08-25T18:29:21Z</time>
      </trkpt>
      <trkpt lat="42.817123" lon="-8.621267">
        <ele>139.991</ele>
        <time>2018-08-25T18:29:25Z</time>
      </trkpt>
      <trkpt lat="42.817169" lon="-8.621220">
        <ele>140.566</ele>
        <time>2018-08-25T18:29:28Z</time>
      </trkpt>
      <trkpt lat="42.817227" lon="-8.621189">
        <ele>140.990</ele>
        <time>2018-08-25T18:29:31Z</time>
      </trkpt>
      <trkpt lat="42.817289" lon="-8.621175">
        <ele>141.387</ele>
        <time>2018-08-25T18:29:34Z</time>
      </trkpt>
      <trkpt lat="42.817350" lon="-8.621169">
        <ele>141.795</ele>
        <time>2018-08-25T18:29:37Z</time>
      </trkpt>
      <trkpt lat="42.817416" lon="-8.621153">
        <ele>142.313</ele>
        <time>2018-08-25T18:29:40Z</time>
      </trkpt>
      <trkpt lat="42.817481" lon="-8.621152">
        <ele>142.643</ele>
        <time>2018-08-25T18:29:43Z</time>
      </trkpt>
      <trkpt lat="42.817541" lon="-8.621145">
        <ele>143.245</ele>
        <time>2018-08-25T18:29:46Z</time>
      </trkpt>
      <trkpt lat="42.817600" lon="-8.621136">
        <ele>143.447</ele>
        <time>2018-08-25T18:29:49Z</time>
      </trkpt>
      <trkpt lat="42.817655" lon="-8.621130">
        <ele>143.411</ele>
        <time>2018-08-25T18:29:52Z</time>
      </trkpt>
      <trkpt lat="42.817706" lon="-8.621126">
        <ele>143.808</ele>
        <time>2018-08-25T18:29:55Z</time>
      </trkpt>
      <trkpt lat="42.817756" lon="-8.621112">
        <ele>144.476</ele>
        <time>2018-08-25T18:29:58Z</time>
      </trkpt>
      <trkpt lat="42.817805" lon="-8.621084">
        <ele>144.832</ele>
        <time>2018-08-25T18:30:01Z</time>
      </trkpt>
      <trkpt lat="42.817859" lon="-8.621046">
        <ele>145.127</ele>
        <time>2018-08-25T18:30:04Z</time>
      </trkpt>
      <trkpt lat="42.817898" lon="-8.621014">
        <ele>145.811</ele>
        <time>2018-08-25T18:30:07Z</time>
      </trkpt>
      <trkpt lat="42.817949" lon="-8.620997">
        <ele>146.988</ele>
        <time>2018-08-25T18:30:11Z</time>
      </trkpt>
      <trkpt lat="42.817999" lon="-8.620969">
        <ele>148.776</ele>
        <time>2018-08-25T18:30:15Z</time>
      </trkpt>
      <trkpt lat="42.818040" lon="-8.620924">
        <ele>151.074</ele>
        <time>2018-08-25T18:30:19Z</time>
      </trkpt>
      <trkpt lat="42.818068" lon="-8.620874">
        <ele>153.294</ele>
        <time>2018-08-25T18:30:23Z</time>
      </trkpt>
      <trkpt lat="42.818095" lon="-8.620817">
        <ele>155.047</ele>
        <time>2018-08-25T18:30:27Z</time>
      </trkpt>
      <trkpt lat="42.818130" lon="-8.620757">
        <ele>156.629</ele>
        <time>2018-08-25T18:30:31Z</time>
      </trkpt>
      <trkpt lat="42.818165" lon="-8.620717">
        <ele>158.021</ele>
        <time>2018-08-25T18:30:34Z</time>
      </trkpt>
      <trkpt lat="42.818202" lon="-8.620678">
        <ele>159.108</ele>
        <time>2018-08-25T18:30:37Z</time>
      </trkpt>
      <trkpt lat="42.818233" lon="-8.620634">
        <ele>160.296</ele>
        <time>2018-08-25T18:30:40Z</time>
      </trkpt>
      <trkpt lat="42.818279" lon="-8.620585">
        <ele>161.242</ele>
        <time>2018-08-25T18:30:44Z</time>
      </trkpt>
      <trkpt lat="42.818321" lon="-8.620542">
        <ele>162.287</ele>
        <time>2018-08-25T18:30:48Z</time>
      </trkpt>
      <trkpt lat="42.818361" lon="-8.620512">
        <ele>163.321</ele>
        <time>2018-08-25T18:30:51Z</time>
      </trkpt>
      <trkpt lat="42.818412" lon="-8.620474">
        <ele>164.558</ele>
        <time>2018-08-25T18:30:54Z</time>
      </trkpt>
      <trkpt lat="42.818463" lon="-8.620429">
        <ele>166.126</ele>
        <time>2018-08-25T18:30:57Z</time>
      </trkpt>
      <trkpt lat="42.818514" lon="-8.620383">
        <ele>167.674</ele>
        <time>2018-08-25T18:31:00Z</time>
      </trkpt>
      <trkpt lat="42.818556" lon="-8.620339">
        <ele>168.944</ele>
        <time>2018-08-25T18:31:03Z</time>
      </trkpt>
      <trkpt lat="42.818596" lon="-8.620301">
        <ele>170.366</ele>
        <time>2018-08-25T18:31:06Z</time>
      </trkpt>
      <trkpt lat="42.818637" lon="-8.620264">
        <ele>171.729</ele>
        <time>2018-08-25T18:31:09Z</time>
      </trkpt>
      <trkpt lat="42.818668" lon="-8.620216">
        <ele>172.621</ele>
        <time>2018-08-25T18:31:12Z</time>
      </trkpt>
      <trkpt lat="42.818706" lon="-8.620172">
        <ele>173.008</ele>
        <time>2018-08-25T18:31:15Z</time>
      </trkpt>
      <trkpt lat="42.818748" lon="-8.620113">
        <ele>173.268</ele>
        <time>2018-08-25T18:31:19Z</time>
      </trkpt>
      <trkpt lat="42.818789" lon="-8.620066">
        <ele>173.684</ele>
        <time>2018-08-25T18:31:22Z</time>
      </trkpt>
      <trkpt lat="42.818831" lon="-8.620029">
        <ele>174.129</ele>
        <time>2018-08-25T18:31:25Z</time>
      </trkpt>
      <trkpt lat="42.818869" lon="-8.619994">
        <ele>174.263</ele>
        <time>2018-08-25T18:31:28Z</time>
      </trkpt>
      <trkpt lat="42.818920" lon="-8.619950">
        <ele>174.570</ele>
        <time>2018-08-25T18:31:32Z</time>
      </trkpt>
      <trkpt lat="42.818964" lon="-8.619910">
        <ele>175.398</ele>
        <time>2018-08-25T18:31:36Z</time>
      </trkpt>
      <trkpt lat="42.819011" lon="-8.619867">
        <ele>176.246</ele>
        <time>2018-08-25T18:31:40Z</time>
      </trkpt>
      <trkpt lat="42.819055" lon="-8.619815">
        <ele>177.066</ele>
        <time>2018-08-25T18:31:44Z</time>
      </trkpt>
      <trkpt lat="42.819093" lon="-8.619769">
        <ele>177.588</ele>
        <time>2018-08-25T18:31:47Z</time>
      </trkpt>
      <trkpt lat="42.819135" lon="-8.619720">
        <ele>178.124</ele>
        <time>2018-08-25T18:31:50Z</time>
      </trkpt>
      <trkpt lat="42.819166" lon="-8.619660">
        <ele>178.926</ele>
        <time>2018-08-25T18:31:53Z</time>
      </trkpt>
      <trkpt lat="42.819200" lon="-8.619585">
        <ele>179.408</ele>
        <time>2018-08-25T18:31:56Z</time>
      </trkpt>
      <trkpt lat="42.819240" lon="-8.619510">
        <ele>180.180</ele>
        <time>2018-08-25T18:31:59Z</time>
      </trkpt>
      <trkpt lat="42.819280" lon="-8.619446">
        <ele>180.766</ele>
        <time>2018-08-25T18:32:02Z</time>
      </trkpt>
      <trkpt lat="42.819331" lon="-8.619353">
        <ele>181.551</ele>
        <time>2018-08-25T18:32:35Z</time>
      </trkpt>
      <trkpt lat="42.819329" lon="-8.619279">
        <ele>181.585</ele>
        <time>2018-08-25T18:32:39Z</time>
      </trkpt>
      <trkpt lat="42.819341" lon="-8.619209">
        <ele>181.512</ele>
        <time>2018-08-25T18:32:42Z</time>
      </trkpt>
      <trkpt lat="42.819360" lon="-8.619145">
        <ele>181.470</ele>
        <time>2018-08-25T18:32:45Z</time>
      </trkpt>
      <trkpt lat="42.819387" lon="-8.619078">
        <ele>181.348</ele>
        <time>2018-08-25T18:32:48Z</time>
      </trkpt>
      <trkpt lat="42.819426" lon="-8.619011">
        <ele>181.398</ele>
        <time>2018-08-25T18:32:51Z</time>
      </trkpt>
      <trkpt lat="42.819464" lon="-8.618957">
        <ele>181.348</ele>
        <time>2018-08-25T18:32:54Z</time>
      </trkpt>
      <trkpt lat="42.819500" lon="-8.618918">
        <ele>181.361</ele>
        <time>2018-08-25T18:32:57Z</time>
      </trkpt>
      <trkpt lat="42.819535" lon="-8.618877">
        <ele>181.217</ele>
        <time>2018-08-25T18:33:00Z</time>
      </trkpt>
      <trkpt lat="42.819576" lon="-8.618821">
        <ele>181.108</ele>
        <time>2018-08-25T18:33:04Z</time>
      </trkpt>
      <trkpt lat="42.819610" lon="-8.618768">
        <ele>181.156</ele>
        <time>2018-08-25T18:33:07Z</time>
      </trkpt>
      <trkpt lat="42.819650" lon="-8.618720">
        <ele>181.382</ele>
        <time>2018-08-25T18:33:10Z</time>
      </trkpt>
      <trkpt lat="42.819691" lon="-8.618672">
        <ele>181.627</ele>
        <time>2018-08-25T18:33:13Z</time>
      </trkpt>
      <trkpt lat="42.819734" lon="-8.618633">
        <ele>181.911</ele>
        <time>2018-08-25T18:33:16Z</time>
      </trkpt>
      <trkpt lat="42.819779" lon="-8.618599">
        <ele>181.878</ele>
        <time>2018-08-25T18:33:19Z</time>
      </trkpt>
      <trkpt lat="42.819826" lon="-8.618548">
        <ele>182.136</ele>
        <time>2018-08-25T18:33:23Z</time>
      </trkpt>
      <trkpt lat="42.819866" lon="-8.618500">
        <ele>182.844</ele>
        <time>2018-08-25T18:33:26Z</time>
      </trkpt>
      <trkpt lat="42.819911" lon="-8.618469">
        <ele>183.214</ele>
        <time>2018-08-25T18:33:29Z</time>
      </trkpt>
      <trkpt lat="42.819956" lon="-8.618443">
        <ele>184.166</ele>
        <time>2018-08-25T18:33:32Z</time>
      </trkpt>
      <trkpt lat="42.820001" lon="-8.618426">
        <ele>185.229</ele>
        <time>2018-08-25T18:33:35Z</time>
      </trkpt>
      <trkpt lat="42.820042" lon="-8.618398">
        <ele>186.521</ele>
        <time>2018-08-25T18:33:38Z</time>
      </trkpt>
      <trkpt lat="42.820085" lon="-8.618370">
        <ele>187.908</ele>
        <time>2018-08-25T18:33:41Z</time>
      </trkpt>
      <trkpt lat="42.820137" lon="-8.618331">
        <ele>189.888</ele>
        <time>2018-08-25T18:33:44Z</time>
      </trkpt>
      <trkpt lat="42.820177" lon="-8.618297">
        <ele>191.824</ele>
        <time>2018-08-25T18:33:46Z</time>
      </trkpt>
      <trkpt lat="42.820217" lon="-8.618264">
        <ele>193.729</ele>
        <time>2018-08-25T18:33:48Z</time>
      </trkpt>
      <trkpt lat="42.820274" lon="-8.618224">
        <ele>195.363</ele>
        <time>2018-08-25T18:33:51Z</time>
      </trkpt>
      <trkpt lat="42.820325" lon="-8.618190">
        <ele>196.350</ele>
        <time>2018-08-25T18:33:54Z</time>
      </trkpt>
      <trkpt lat="42.820376" lon="-8.618153">
        <ele>196.398</ele>
        <time>2018-08-25T18:33:57Z</time>
      </trkpt>
      <trkpt lat="42.820430" lon="-8.618112">
        <ele>195.346</ele>
        <time>2018-08-25T18:34:00Z</time>
      </trkpt>
      <trkpt lat="42.820487" lon="-8.618075">
        <ele>194.766</ele>
        <time>2018-08-25T18:34:03Z</time>
      </trkpt>
      <trkpt lat="42.820544" lon="-8.618030">
        <ele>194.467</ele>
        <time>2018-08-25T18:34:06Z</time>
      </trkpt>
      <trkpt lat="42.820593" lon="-8.617991">
        <ele>194.781</ele>
        <time>2018-08-25T18:34:09Z</time>
      </trkpt>
      <trkpt lat="42.820629" lon="-8.617924">
        <ele>194.719</ele>
        <time>2018-08-25T18:34:12Z</time>
      </trkpt>
      <trkpt lat="42.820653" lon="-8.617838">
        <ele>194.508</ele>
        <time>2018-08-25T18:34:15Z</time>
      </trkpt>
      <trkpt lat="42.820665" lon="-8.617778">
        <ele>194.678</ele>
        <time>2018-08-25T18:34:17Z</time>
      </trkpt>
      <trkpt lat="42.820677" lon="-8.617694">
        <ele>194.834</ele>
        <time>2018-08-25T18:34:20Z</time>
      </trkpt>
      <trkpt lat="42.820685" lon="-8.617621">
        <ele>194.779</ele>
        <time>2018-08-25T18:34:23Z</time>
      </trkpt>
      <trkpt lat="42.820696" lon="-8.617556">
        <ele>194.563</ele>
        <time>2018-08-25T18:34:26Z</time>
      </trkpt>
      <trkpt lat="42.820703" lon="-8.617484">
        <ele>194.560</ele>
        <time>2018-08-25T18:34:29Z</time>
      </trkpt>
      <trkpt lat="42.820707" lon="-8.617415">
        <ele>194.678</ele>
        <time>2018-08-25T18:34:32Z</time>
      </trkpt>
      <trkpt lat="42.820708" lon="-8.617342">
        <ele>194.876</ele>
        <time>2018-08-25T18:34:35Z</time>
      </trkpt>
      <trkpt lat="42.820710" lon="-8.617269">
        <ele>195.096</ele>
        <time>2018-08-25T18:34:38Z</time>
      </trkpt>
      <trkpt lat="42.820721" lon="-8.617181">
        <ele>195.166</ele>
        <time>2018-08-25T18:34:41Z</time>
      </trkpt>
      <trkpt lat="42.820728" lon="-8.617120">
        <ele>194.929</ele>
        <time>2018-08-25T18:34:43Z</time>
      </trkpt>
      <trkpt lat="42.820738" lon="-8.617032">
        <ele>194.221</ele>
        <time>2018-08-25T18:34:46Z</time>
      </trkpt>
      <trkpt lat="42.820772" lon="-8.616959">
        <ele>193.908</ele>
        <time>2018-08-25T18:34:49Z</time>
      </trkpt>
      <trkpt lat="42.820826" lon="-8.616925">
        <ele>193.838</ele>
        <time>2018-08-25T18:34:52Z</time>
      </trkpt>
      <trkpt lat="42.820872" lon="-8.616910">
        <ele>193.614</ele>
        <time>2018-08-25T18:34:54Z</time>
      </trkpt>
      <trkpt lat="42.820924" lon="-8.616899">
        <ele>193.359</ele>
        <time>2018-08-25T18:34:56Z</time>
      </trkpt>
      <trkpt lat="42.820983" lon="-8.616891">
        <ele>193.083</ele>
        <time>2018-08-25T18:34:58Z</time>
      </trkpt>
      <trkpt lat="42.821045" lon="-8.616888">
        <ele>192.520</ele>
        <time>2018-08-25T18:35:00Z</time>
      </trkpt>
      <trkpt lat="42.821161" lon="-8.616898">
        <ele>191.678</ele>
        <time>2018-08-25T18:35:02Z</time>
      </trkpt>
      <trkpt lat="42.821220" lon="-8.616909">
        <ele>190.686</ele>
        <time>2018-08-25T18:35:04Z</time>
      </trkpt>
      <trkpt lat="42.821278" lon="-8.616928">
        <ele>190.276</ele>
        <time>2018-08-25T18:35:07Z</time>
      </trkpt>
      <trkpt lat="42.821328" lon="-8.616936">
        <ele>190.078</ele>
        <time>2018-08-25T18:35:10Z</time>
      </trkpt>
      <trkpt lat="42.821372" lon="-8.616893">
        <ele>190.233</ele>
        <time>2018-08-25T18:35:13Z</time>
      </trkpt>
      <trkpt lat="42.821359" lon="-8.616819">
        <ele>190.726</ele>
        <time>2018-08-25T18:35:16Z</time>
      </trkpt>
      <trkpt lat="42.821332" lon="-8.616754">
        <ele>191.108</ele>
        <time>2018-08-25T18:35:19Z</time>
      </trkpt>
      <trkpt lat="42.821315" lon="-8.616696">
        <ele>191.349</ele>
        <time>2018-08-25T18:35:22Z</time>
      </trkpt>
      <trkpt lat="42.821301" lon="-8.616632">
        <ele>190.915</ele>
        <time>2018-08-25T18:35:25Z</time>
      </trkpt>
      <trkpt lat="42.821291" lon="-8.616564">
        <ele>190.430</ele>
        <time>2018-08-25T18:35:28Z</time>
      </trkpt>
      <trkpt lat="42.821281" lon="-8.616470">
        <ele>189.954</ele>
        <time>2018-08-25T18:35:31Z</time>
      </trkpt>
      <trkpt lat="42.821274" lon="-8.616403">
        <ele>189.471</ele>
        <time>2018-08-25T18:35:33Z</time>
      </trkpt>
      <trkpt lat="42.821266" lon="-8.616340">
        <ele>189.059</ele>
        <time>2018-08-25T18:35:35Z</time>
      </trkpt>
      <trkpt lat="42.821257" lon="-8.616279">
        <ele>188.697</ele>
        <time>2018-08-25T18:35:37Z</time>
      </trkpt>
      <trkpt lat="42.821250" lon="-8.616215">
        <ele>188.167</ele>
        <time>2018-08-25T18:35:39Z</time>
      </trkpt>
      <trkpt lat="42.821245" lon="-8.616147">
        <ele>187.677</ele>
        <time>2018-08-25T18:35:41Z</time>
      </trkpt>
      <trkpt lat="42.821241" lon="-8.616073">
        <ele>187.161</ele>
        <time>2018-08-25T18:35:43Z</time>
      </trkpt>
      <trkpt lat="42.821212" lon="-8.615928">
        <ele>186.627</ele>
        <time>2018-08-25T18:35:45Z</time>
      </trkpt>
      <trkpt lat="42.821197" lon="-8.615826">
        <ele>186.208</ele>
        <time>2018-08-25T18:35:47Z</time>
      </trkpt>
      <trkpt lat="42.821161" lon="-8.615724">
        <ele>185.959</ele>
        <time>2018-08-25T18:35:49Z</time>
      </trkpt>
      <trkpt lat="42.821149" lon="-8.615652">
        <ele>185.825</ele>
        <time>2018-08-25T18:35:52Z</time>
      </trkpt>
      <trkpt lat="42.821160" lon="-8.615581">
        <ele>185.820</ele>
        <time>2018-08-25T18:35:55Z</time>
      </trkpt>
      <trkpt lat="42.821174" lon="-8.615519">
        <ele>185.924</ele>
        <time>2018-08-25T18:35:57Z</time>
      </trkpt>
      <trkpt lat="42.821193" lon="-8.615457">
        <ele>185.981</ele>
        <time>2018-08-25T18:35:59Z</time>
      </trkpt>
      <trkpt lat="42.821213" lon="-8.615400">
        <ele>186.059</ele>
        <time>2018-08-25T18:36:01Z</time>
      </trkpt>
      <trkpt lat="42.821243" lon="-8.615328">
        <ele>186.047</ele>
        <time>2018-08-25T18:36:04Z</time>
      </trkpt>
      <trkpt lat="42.821282" lon="-8.615256">
        <ele>185.977</ele>
        <time>2018-08-25T18:36:07Z</time>
      </trkpt>
      <trkpt lat="42.821315" lon="-8.615189">
        <ele>186.021</ele>
        <time>2018-08-25T18:36:10Z</time>
      </trkpt>
      <trkpt lat="42.821342" lon="-8.615123">
        <ele>186.441</ele>
        <time>2018-08-25T18:36:13Z</time>
      </trkpt>
      <trkpt lat="42.821365" lon="-8.615058">
        <ele>186.505</ele>
        <time>2018-08-25T18:36:16Z</time>
      </trkpt>
      <trkpt lat="42.821389" lon="-8.614984">
        <ele>187.008</ele>
        <time>2018-08-25T18:36:19Z</time>
      </trkpt>
      <trkpt lat="42.821413" lon="-8.614907">
        <ele>187.454</ele>
        <time>2018-08-25T18:36:22Z</time>
      </trkpt>
      <trkpt lat="42.821438" lon="-8.614833">
        <ele>187.770</ele>
        <time>2018-08-25T18:36:25Z</time>
      </trkpt>
      <trkpt lat="42.821463" lon="-8.614764">
        <ele>188.245</ele>
        <time>2018-08-25T18:36:28Z</time>
      </trkpt>
      <trkpt lat="42.821483" lon="-8.614691">
        <ele>188.739</ele>
        <time>2018-08-25T18:36:31Z</time>
      </trkpt>
      <trkpt lat="42.821505" lon="-8.614605">
        <ele>189.356</ele>
        <time>2018-08-25T18:36:34Z</time>
      </trkpt>
      <trkpt lat="42.821524" lon="-8.614522">
        <ele>189.754</ele>
        <time>2018-08-25T18:36:37Z</time>
      </trkpt>
      <trkpt lat="42.821536" lon="-8.614442">
        <ele>189.942</ele>
        <time>2018-08-25T18:36:40Z</time>
      </trkpt>
      <trkpt lat="42.821534" lon="-8.614353">
        <ele>190.232</ele>
        <time>2018-08-25T18:36:43Z</time>
      </trkpt>
      <trkpt lat="42.821521" lon="-8.614275">
        <ele>190.427</ele>
        <time>2018-08-25T18:36:46Z</time>
      </trkpt>
      <trkpt lat="42.821513" lon="-8.614193">
        <ele>191.168</ele>
        <time>2018-08-25T18:36:49Z</time>
      </trkpt>
      <trkpt lat="42.821504" lon="-8.614102">
        <ele>192.214</ele>
        <time>2018-08-25T18:36:52Z</time>
      </trkpt>
      <trkpt lat="42.821497" lon="-8.614013">
        <ele>193.108</ele>
        <time>2018-08-25T18:36:55Z</time>
      </trkpt>
      <trkpt lat="42.821493" lon="-8.613935">
        <ele>193.494</ele>
        <time>2018-08-25T18:36:58Z</time>
      </trkpt>
      <trkpt lat="42.821487" lon="-8.613848">
        <ele>193.760</ele>
        <time>2018-08-25T18:37:01Z</time>
      </trkpt>
      <trkpt lat="42.821471" lon="-8.613762">
        <ele>194.045</ele>
        <time>2018-08-25T18:37:04Z</time>
      </trkpt>
      <trkpt lat="42.821460" lon="-8.613677">
        <ele>194.879</ele>
        <time>2018-08-25T18:37:07Z</time>
      </trkpt>
      <trkpt lat="42.821479" lon="-8.613593">
        <ele>195.046</ele>
        <time>2018-08-25T18:37:10Z</time>
      </trkpt>
      <trkpt lat="42.821509" lon="-8.613538">
        <ele>194.874</ele>
        <time>2018-08-25T18:37:13Z</time>
      </trkpt>
      <trkpt lat="42.821546" lon="-8.613491">
        <ele>194.462</ele>
        <time>2018-08-25T18:37:16Z</time>
      </trkpt>
      <trkpt lat="42.821597" lon="-8.613425">
        <ele>194.292</ele>
        <time>2018-08-25T18:37:19Z</time>
      </trkpt>
      <trkpt lat="42.821643" lon="-8.613372">
        <ele>194.357</ele>
        <time>2018-08-25T18:37:21Z</time>
      </trkpt>
      <trkpt lat="42.821693" lon="-8.613313">
        <ele>194.900</ele>
        <time>2018-08-25T18:37:23Z</time>
      </trkpt>
      <trkpt lat="42.821736" lon="-8.613246">
        <ele>195.620</ele>
        <time>2018-08-25T18:37:25Z</time>
      </trkpt>
      <trkpt lat="42.821773" lon="-8.613196">
        <ele>196.108</ele>
        <time>2018-08-25T18:37:27Z</time>
      </trkpt>
      <trkpt lat="42.821809" lon="-8.613156">
        <ele>196.697</ele>
        <time>2018-08-25T18:37:29Z</time>
      </trkpt>
      <trkpt lat="42.821845" lon="-8.613111">
        <ele>196.913</ele>
        <time>2018-08-25T18:37:31Z</time>
      </trkpt>
      <trkpt lat="42.821883" lon="-8.613058">
        <ele>197.368</ele>
        <time>2018-08-25T18:37:33Z</time>
      </trkpt>
      <trkpt lat="42.821920" lon="-8.613000">
        <ele>197.962</ele>
        <time>2018-08-25T18:37:35Z</time>
      </trkpt>
      <trkpt lat="42.821961" lon="-8.612946">
        <ele>198.699</ele>
        <time>2018-08-25T18:37:37Z</time>
      </trkpt>
      <trkpt lat="42.822008" lon="-8.612894">
        <ele>199.127</ele>
        <time>2018-08-25T18:37:39Z</time>
      </trkpt>
      <trkpt lat="42.822051" lon="-8.612857">
        <ele>199.515</ele>
        <time>2018-08-25T18:37:41Z</time>
      </trkpt>
      <trkpt lat="42.822093" lon="-8.612826">
        <ele>199.585</ele>
        <time>2018-08-25T18:37:43Z</time>
      </trkpt>
      <trkpt lat="42.822135" lon="-8.612793">
        <ele>199.783</ele>
        <time>2018-08-25T18:37:45Z</time>
      </trkpt>
      <trkpt lat="42.822176" lon="-8.612755">
        <ele>200.025</ele>
        <time>2018-08-25T18:37:47Z</time>
      </trkpt>
      <trkpt lat="42.822220" lon="-8.612709">
        <ele>200.617</ele>
        <time>2018-08-25T18:37:49Z</time>
      </trkpt>
      <trkpt lat="42.822271" lon="-8.612657">
        <ele>201.108</ele>
        <time>2018-08-25T18:37:51Z</time>
      </trkpt>
      <trkpt lat="42.822330" lon="-8.612606">
        <ele>200.840</ele>
        <time>2018-08-25T18:37:53Z</time>
      </trkpt>
      <trkpt lat="42.822375" lon="-8.612569">
        <ele>200.686</ele>
        <time>2018-08-25T18:37:55Z</time>
      </trkpt>
      <trkpt lat="42.822425" lon="-8.612502">
        <ele>200.111</ele>
        <time>2018-08-25T18:37:58Z</time>
      </trkpt>
      <trkpt lat="42.822472" lon="-8.612456">
        <ele>199.595</ele>
        <time>2018-08-25T18:38:00Z</time>
      </trkpt>
      <trkpt lat="42.822573" lon="-8.612367">
        <ele>199.472</ele>
        <time>2018-08-25T18:38:02Z</time>
      </trkpt>
      <trkpt lat="42.822627" lon="-8.612306">
        <ele>199.030</ele>
        <time>2018-08-25T18:38:05Z</time>
      </trkpt>
      <trkpt lat="42.822661" lon="-8.612253">
        <ele>198.698</ele>
        <time>2018-08-25T18:38:07Z</time>
      </trkpt>
      <trkpt lat="42.822694" lon="-8.612196">
        <ele>198.288</ele>
        <time>2018-08-25T18:38:09Z</time>
      </trkpt>
      <trkpt lat="42.822729" lon="-8.612136">
        <ele>198.344</ele>
        <time>2018-08-25T18:38:11Z</time>
      </trkpt>
      <trkpt lat="42.822765" lon="-8.612074">
        <ele>198.905</ele>
        <time>2018-08-25T18:38:13Z</time>
      </trkpt>
      <trkpt lat="42.822802" lon="-8.612028">
        <ele>199.115</ele>
        <time>2018-08-25T18:38:15Z</time>
      </trkpt>
      <trkpt lat="42.822850" lon="-8.611972">
        <ele>199.308</ele>
        <time>2018-08-25T18:38:18Z</time>
      </trkpt>
      <trkpt lat="42.822897" lon="-8.611930">
        <ele>199.176</ele>
        <time>2018-08-25T18:38:21Z</time>
      </trkpt>
      <trkpt lat="42.822934" lon="-8.611886">
        <ele>198.812</ele>
        <time>2018-08-25T18:38:23Z</time>
      </trkpt>
      <trkpt lat="42.822974" lon="-8.611840">
        <ele>198.657</ele>
        <time>2018-08-25T18:38:25Z</time>
      </trkpt>
      <trkpt lat="42.823019" lon="-8.611794">
        <ele>198.571</ele>
        <time>2018-08-25T18:38:27Z</time>
      </trkpt>
      <trkpt lat="42.823070" lon="-8.611749">
        <ele>198.518</ele>
        <time>2018-08-25T18:38:29Z</time>
      </trkpt>
      <trkpt lat="42.823118" lon="-8.611709">
        <ele>198.656</ele>
        <time>2018-08-25T18:38:31Z</time>
      </trkpt>
      <trkpt lat="42.823168" lon="-8.611667">
        <ele>198.984</ele>
        <time>2018-08-25T18:38:33Z</time>
      </trkpt>
      <trkpt lat="42.823218" lon="-8.611618">
        <ele>199.074</ele>
        <time>2018-08-25T18:38:35Z</time>
      </trkpt>
      <trkpt lat="42.823262" lon="-8.611573">
        <ele>199.043</ele>
        <time>2018-08-25T18:38:37Z</time>
      </trkpt>
      <trkpt lat="42.823303" lon="-8.611542">
        <ele>198.664</ele>
        <time>2018-08-25T18:38:39Z</time>
      </trkpt>
      <trkpt lat="42.823358" lon="-8.611514">
        <ele>198.210</ele>
        <time>2018-08-25T18:38:42Z</time>
      </trkpt>
      <trkpt lat="42.823423" lon="-8.611484">
        <ele>198.408</ele>
        <time>2018-08-25T18:38:45Z</time>
      </trkpt>
      <trkpt lat="42.823531" lon="-8.611434">
        <ele>199.396</ele>
        <time>2018-08-25T18:38:47Z</time>
      </trkpt>
      <trkpt lat="42.823614" lon="-8.611406">
        <ele>200.542</ele>
        <time>2018-08-25T18:38:49Z</time>
      </trkpt>
      <trkpt lat="42.823662" lon="-8.611390">
        <ele>201.327</ele>
        <time>2018-08-25T18:38:50Z</time>
      </trkpt>
      <trkpt lat="42.823708" lon="-8.611367">
        <ele>201.721</ele>
        <time>2018-08-25T18:38:51Z</time>
      </trkpt>
      <trkpt lat="42.823757" lon="-8.611347">
        <ele>201.848</ele>
        <time>2018-08-25T18:38:52Z</time>
      </trkpt>
      <trkpt lat="42.823801" lon="-8.611325">
        <ele>201.666</ele>
        <time>2018-08-25T18:38:53Z</time>
      </trkpt>
      <trkpt lat="42.823877" lon="-8.611260">
        <ele>201.564</ele>
        <time>2018-08-25T18:38:55Z</time>
      </trkpt>
      <trkpt lat="42.823951" lon="-8.611190">
        <ele>201.184</ele>
        <time>2018-08-25T18:38:57Z</time>
      </trkpt>
      <trkpt lat="42.823991" lon="-8.611159">
        <ele>200.746</ele>
        <time>2018-08-25T18:38:58Z</time>
      </trkpt>
      <trkpt lat="42.824062" lon="-8.611102">
        <ele>200.488</ele>
        <time>2018-08-25T18:39:00Z</time>
      </trkpt>
      <trkpt lat="42.824128" lon="-8.611067">
        <ele>200.616</ele>
        <time>2018-08-25T18:39:02Z</time>
      </trkpt>
      <trkpt lat="42.824193" lon="-8.611033">
        <ele>201.108</ele>
        <time>2018-08-25T18:39:04Z</time>
      </trkpt>
      <trkpt lat="42.824258" lon="-8.611002">
        <ele>201.716</ele>
        <time>2018-08-25T18:39:07Z</time>
      </trkpt>
      <trkpt lat="42.824315" lon="-8.610967">
        <ele>201.812</ele>
        <time>2018-08-25T18:39:09Z</time>
      </trkpt>
      <trkpt lat="42.824386" lon="-8.610917">
        <ele>201.857</ele>
        <time>2018-08-25T18:39:10Z</time>
      </trkpt>
      <trkpt lat="42.824460" lon="-8.610872">
        <ele>201.721</ele>
        <time>2018-08-25T18:39:12Z</time>
      </trkpt>
      <trkpt lat="42.824529" lon="-8.610860">
        <ele>200.528</ele>
        <time>2018-08-25T18:39:15Z</time>
      </trkpt>
      <trkpt lat="42.824591" lon="-8.610847">
        <ele>199.876</ele>
        <time>2018-08-25T18:39:17Z</time>
      </trkpt>
      <trkpt lat="42.824656" lon="-8.610838">
        <ele>199.324</ele>
        <time>2018-08-25T18:39:19Z</time>
      </trkpt>
      <trkpt lat="42.824718" lon="-8.610834">
        <ele>198.624</ele>
        <time>2018-08-25T18:39:21Z</time>
      </trkpt>
      <trkpt lat="42.824780" lon="-8.610830">
        <ele>198.215</ele>
        <time>2018-08-25T18:39:23Z</time>
      </trkpt>
      <trkpt lat="42.824847" lon="-8.610822">
        <ele>197.965</ele>
        <time>2018-08-25T18:39:25Z</time>
      </trkpt>
      <trkpt lat="42.824919" lon="-8.610833">
        <ele>197.611</ele>
        <time>2018-08-25T18:39:27Z</time>
      </trkpt>
      <trkpt lat="42.824989" lon="-8.610844">
        <ele>197.908</ele>
        <time>2018-08-25T18:39:29Z</time>
      </trkpt>
      <trkpt lat="42.825063" lon="-8.610848">
        <ele>198.773</ele>
        <time>2018-08-25T18:39:31Z</time>
      </trkpt>
      <trkpt lat="42.825153" lon="-8.610838">
        <ele>199.159</ele>
        <time>2018-08-25T18:39:32Z</time>
      </trkpt>
      <trkpt lat="42.825232" lon="-8.610834">
        <ele>199.164</ele>
        <time>2018-08-25T18:39:34Z</time>
      </trkpt>
      <trkpt lat="42.825307" lon="-8.610859">
        <ele>198.948</ele>
        <time>2018-08-25T18:39:36Z</time>
      </trkpt>
      <trkpt lat="42.825383" lon="-8.610885">
        <ele>198.595</ele>
        <time>2018-08-25T18:39:38Z</time>
      </trkpt>
      <trkpt lat="42.825463" lon="-8.610914">
        <ele>198.073</ele>
        <time>2018-08-25T18:39:40Z</time>
      </trkpt>
      <trkpt lat="42.825542" lon="-8.610935">
        <ele>197.471</ele>
        <time>2018-08-25T18:39:42Z</time>
      </trkpt>
      <trkpt lat="42.825599" lon="-8.610954">
        <ele>196.781</ele>
        <time>2018-08-25T18:39:44Z</time>
      </trkpt>
      <trkpt lat="42.825651" lon="-8.610971">
        <ele>196.064</ele>
        <time>2018-08-25T18:39:46Z</time>
      </trkpt>
      <trkpt lat="42.825713" lon="-8.610995">
        <ele>195.006</ele>
        <time>2018-08-25T18:39:48Z</time>
      </trkpt>
      <trkpt lat="42.825779" lon="-8.611018">
        <ele>194.016</ele>
        <time>2018-08-25T18:39:50Z</time>
      </trkpt>
      <trkpt lat="42.825846" lon="-8.611047">
        <ele>193.008</ele>
        <time>2018-08-25T18:39:52Z</time>
      </trkpt>
      <trkpt lat="42.825910" lon="-8.611076">
        <ele>192.038</ele>
        <time>2018-08-25T18:39:54Z</time>
      </trkpt>
      <trkpt lat="42.825971" lon="-8.611098">
        <ele>191.244</ele>
        <time>2018-08-25T18:39:56Z</time>
      </trkpt>
      <trkpt lat="42.826028" lon="-8.611095">
        <ele>190.759</ele>
        <time>2018-08-25T18:39:58Z</time>
      </trkpt>
      <trkpt lat="42.826070" lon="-8.611058">
        <ele>190.113</ele>
        <time>2018-08-25T18:40:00Z</time>
      </trkpt>
      <trkpt lat="42.826104" lon="-8.611000">
        <ele>189.230</ele>
        <time>2018-08-25T18:40:02Z</time>
      </trkpt>
      <trkpt lat="42.826150" lon="-8.610945">
        <ele>188.548</ele>
        <time>2018-08-25T18:40:04Z</time>
      </trkpt>
      <trkpt lat="42.826205" lon="-8.610905">
        <ele>187.966</ele>
        <time>2018-08-25T18:40:06Z</time>
      </trkpt>
      <trkpt lat="42.826256" lon="-8.610876">
        <ele>187.896</ele>
        <time>2018-08-25T18:40:08Z</time>
      </trkpt>
      <trkpt lat="42.826309" lon="-8.610856">
        <ele>187.773</ele>
        <time>2018-08-25T18:40:10Z</time>
      </trkpt>
      <trkpt lat="42.826362" lon="-8.610845">
        <ele>187.585</ele>
        <time>2018-08-25T18:40:12Z</time>
      </trkpt>
      <trkpt lat="42.826415" lon="-8.610838">
        <ele>187.313</ele>
        <time>2018-08-25T18:40:14Z</time>
      </trkpt>
      <trkpt lat="42.826468" lon="-8.610832">
        <ele>187.008</ele>
        <time>2018-08-25T18:40:16Z</time>
      </trkpt>
      <trkpt lat="42.826516" lon="-8.610835">
        <ele>186.769</ele>
        <time>2018-08-25T18:40:18Z</time>
      </trkpt>
      <trkpt lat="42.826577" lon="-8.610848">
        <ele>186.725</ele>
        <time>2018-08-25T18:40:21Z</time>
      </trkpt>
      <trkpt lat="42.826626" lon="-8.610870">
        <ele>187.330</ele>
        <time>2018-08-25T18:40:24Z</time>
      </trkpt>
      <trkpt lat="42.826675" lon="-8.610876">
        <ele>187.834</ele>
        <time>2018-08-25T18:40:27Z</time>
      </trkpt>
      <trkpt lat="42.826730" lon="-8.610864">
        <ele>188.711</ele>
        <time>2018-08-25T18:40:30Z</time>
      </trkpt>
      <trkpt lat="42.826775" lon="-8.610841">
        <ele>189.189</ele>
        <time>2018-08-25T18:40:33Z</time>
      </trkpt>
      <trkpt lat="42.826822" lon="-8.610797">
        <ele>189.997</ele>
        <time>2018-08-25T18:40:37Z</time>
      </trkpt>
      <trkpt lat="42.826856" lon="-8.610756">
        <ele>190.667</ele>
        <time>2018-08-25T18:40:40Z</time>
      </trkpt>
      <trkpt lat="42.826908" lon="-8.610722">
        <ele>191.385</ele>
        <time>2018-08-25T18:40:44Z</time>
      </trkpt>
      <trkpt lat="42.826957" lon="-8.610714">
        <ele>191.689</ele>
        <time>2018-08-25T18:40:47Z</time>
      </trkpt>
      <trkpt lat="42.827008" lon="-8.610699">
        <ele>192.417</ele>
        <time>2018-08-25T18:40:50Z</time>
      </trkpt>
      <trkpt lat="42.827060" lon="-8.610682">
        <ele>193.608</ele>
        <time>2018-08-25T18:40:53Z</time>
      </trkpt>
      <trkpt lat="42.827106" lon="-8.610645">
        <ele>194.430</ele>
        <time>2018-08-25T18:40:56Z</time>
      </trkpt>
      <trkpt lat="42.827151" lon="-8.610598">
        <ele>194.616</ele>
        <time>2018-08-25T18:40:59Z</time>
      </trkpt>
      <trkpt lat="42.827190" lon="-8.610547">
        <ele>195.151</ele>
        <time>2018-08-25T18:41:02Z</time>
      </trkpt>
      <trkpt lat="42.827233" lon="-8.610488">
        <ele>195.035</ele>
        <time>2018-08-25T18:41:05Z</time>
      </trkpt>
      <trkpt lat="42.827276" lon="-8.610442">
        <ele>194.952</ele>
        <time>2018-08-25T18:41:08Z</time>
      </trkpt>
      <trkpt lat="42.827329" lon="-8.610413">
        <ele>194.690</ele>
        <time>2018-08-25T18:41:11Z</time>
      </trkpt>
      <trkpt lat="42.827391" lon="-8.610395">
        <ele>193.878</ele>
        <time>2018-08-25T18:41:14Z</time>
      </trkpt>
      <trkpt lat="42.827444" lon="-8.610377">
        <ele>193.058</ele>
        <time>2018-08-25T18:41:17Z</time>
      </trkpt>
      <trkpt lat="42.827497" lon="-8.610355">
        <ele>192.434</ele>
        <time>2018-08-25T18:41:20Z</time>
      </trkpt>
      <trkpt lat="42.827553" lon="-8.610328">
        <ele>192.055</ele>
        <time>2018-08-25T18:41:23Z</time>
      </trkpt>
      <trkpt lat="42.827614" lon="-8.610309">
        <ele>191.610</ele>
        <time>2018-08-25T18:41:26Z</time>
      </trkpt>
      <trkpt lat="42.827674" lon="-8.610292">
        <ele>191.108</ele>
        <time>2018-08-25T18:41:29Z</time>
      </trkpt>
      <trkpt lat="42.827732" lon="-8.610280">
        <ele>190.825</ele>
        <time>2018-08-25T18:41:32Z</time>
      </trkpt>
      <trkpt lat="42.827791" lon="-8.610264">
        <ele>190.751</ele>
        <time>2018-08-25T18:41:35Z</time>
      </trkpt>
      <trkpt lat="42.827849" lon="-8.610247">
        <ele>191.016</ele>
        <time>2018-08-25T18:41:38Z</time>
      </trkpt>
      <trkpt lat="42.827911" lon="-8.610212">
        <ele>190.760</ele>
        <time>2018-08-25T18:41:41Z</time>
      </trkpt>
      <trkpt lat="42.827961" lon="-8.610172">
        <ele>190.017</ele>
        <time>2018-08-25T18:41:43Z</time>
      </trkpt>
      <trkpt lat="42.828005" lon="-8.610125">
        <ele>189.155</ele>
        <time>2018-08-25T18:41:45Z</time>
      </trkpt>
      <trkpt lat="42.828041" lon="-8.610076">
        <ele>188.623</ele>
        <time>2018-08-25T18:41:47Z</time>
      </trkpt>
      <trkpt lat="42.828073" lon="-8.610017">
        <ele>188.513</ele>
        <time>2018-08-25T18:41:49Z</time>
      </trkpt>
      <trkpt lat="42.828105" lon="-8.609951">
        <ele>188.496</ele>
        <time>2018-08-25T18:41:51Z</time>
      </trkpt>
      <trkpt lat="42.828133" lon="-8.609884">
        <ele>188.431</ele>
        <time>2018-08-25T18:41:53Z</time>
      </trkpt>
      <trkpt lat="42.828153" lon="-8.609823">
        <ele>188.324</ele>
        <time>2018-08-25T18:41:55Z</time>
      </trkpt>
      <trkpt lat="42.828172" lon="-8.609767">
        <ele>188.308</ele>
        <time>2018-08-25T18:41:57Z</time>
      </trkpt>
      <trkpt lat="42.828203" lon="-8.609719">
        <ele>188.681</ele>
        <time>2018-08-25T18:41:59Z</time>
      </trkpt>
      <trkpt lat="42.828251" lon="-8.609710">
        <ele>188.687</ele>
        <time>2018-08-25T18:42:02Z</time>
      </trkpt>
      <trkpt lat="42.828217" lon="-8.609650">
        <ele>188.662</ele>
        <time>2018-08-25T18:42:09Z</time>
      </trkpt>
      <trkpt lat="42.828217" lon="-8.609584">
        <ele>189.196</ele>
        <time>2018-08-25T18:42:11Z</time>
      </trkpt>
      <trkpt lat="42.828227" lon="-8.609519">
        <ele>188.963</ele>
        <time>2018-08-25T18:42:13Z</time>
      </trkpt>
      <trkpt lat="42.828237" lon="-8.609447">
        <ele>189.261</ele>
        <time>2018-08-25T18:42:15Z</time>
      </trkpt>
      <trkpt lat="42.828246" lon="-8.609374">
        <ele>189.529</ele>
        <time>2018-08-25T18:42:17Z</time>
      </trkpt>
      <trkpt lat="42.828248" lon="-8.609296">
        <ele>190.079</ele>
        <time>2018-08-25T18:42:19Z</time>
      </trkpt>
      <trkpt lat="42.828244" lon="-8.609219">
        <ele>190.595</ele>
        <time>2018-08-25T18:42:21Z</time>
      </trkpt>
      <trkpt lat="42.828232" lon="-8.609146">
        <ele>191.249</ele>
        <time>2018-08-25T18:42:23Z</time>
      </trkpt>
      <trkpt lat="42.828211" lon="-8.609077">
        <ele>191.923</ele>
        <time>2018-08-25T18:42:25Z</time>
      </trkpt>
      <trkpt lat="42.828191" lon="-8.609008">
        <ele>192.408</ele>
        <time>2018-08-25T18:42:27Z</time>
      </trkpt>
      <trkpt lat="42.828176" lon="-8.608938">
        <ele>192.841</ele>
        <time>2018-08-25T18:42:29Z</time>
      </trkpt>
      <trkpt lat="42.828163" lon="-8.608867">
        <ele>193.297</ele>
        <time>2018-08-25T18:42:31Z</time>
      </trkpt>
      <trkpt lat="42.828160" lon="-8.608794">
        <ele>193.362</ele>
        <time>2018-08-25T18:42:33Z</time>
      </trkpt>
      <trkpt lat="42.828168" lon="-8.608719">
        <ele>193.496</ele>
        <time>2018-08-25T18:42:35Z</time>
      </trkpt>
      <trkpt lat="42.828183" lon="-8.608653">
        <ele>193.583</ele>
        <time>2018-08-25T18:42:37Z</time>
      </trkpt>
      <trkpt lat="42.828220" lon="-8.608583">
        <ele>193.891</ele>
        <time>2018-08-25T18:42:40Z</time>
      </trkpt>
      <trkpt lat="42.828262" lon="-8.608534">
        <ele>194.399</ele>
        <time>2018-08-25T18:42:43Z</time>
      </trkpt>
      <trkpt lat="42.828302" lon="-8.608498">
        <ele>195.069</ele>
        <time>2018-08-25T18:42:46Z</time>
      </trkpt>
      <trkpt lat="42.828342" lon="-8.608455">
        <ele>195.947</ele>
        <time>2018-08-25T18:42:49Z</time>
      </trkpt>
      <trkpt lat="42.828392" lon="-8.608405">
        <ele>197.229</ele>
        <time>2018-08-25T18:42:52Z</time>
      </trkpt>
      <trkpt lat="42.828432" lon="-8.608366">
        <ele>198.021</ele>
        <time>2018-08-25T18:42:54Z</time>
      </trkpt>
      <trkpt lat="42.828471" lon="-8.608327">
        <ele>199.108</ele>
        <time>2018-08-25T18:42:56Z</time>
      </trkpt>
      <trkpt lat="42.828509" lon="-8.608289">
        <ele>199.926</ele>
        <time>2018-08-25T18:42:58Z</time>
      </trkpt>
      <trkpt lat="42.828559" lon="-8.608241">
        <ele>201.062</ele>
        <time>2018-08-25T18:43:01Z</time>
      </trkpt>
      <trkpt lat="42.828604" lon="-8.608207">
        <ele>202.297</ele>
        <time>2018-08-25T18:43:04Z</time>
      </trkpt>
      <trkpt lat="42.828650" lon="-8.608171">
        <ele>203.411</ele>
        <time>2018-08-25T18:43:07Z</time>
      </trkpt>
      <trkpt lat="42.828692" lon="-8.608132">
        <ele>204.388</ele>
        <time>2018-08-25T18:43:10Z</time>
      </trkpt>
      <trkpt lat="42.828727" lon="-8.608085">
        <ele>205.226</ele>
        <time>2018-08-25T18:43:13Z</time>
      </trkpt>
      <trkpt lat="42.828754" lon="-8.608027">
        <ele>205.564</ele>
        <time>2018-08-25T18:43:17Z</time>
      </trkpt>
      <trkpt lat="42.828776" lon="-8.607971">
        <ele>206.144</ele>
        <time>2018-08-25T18:43:20Z</time>
      </trkpt>
      <trkpt lat="42.828793" lon="-8.607912">
        <ele>206.755</ele>
        <time>2018-08-25T18:43:23Z</time>
      </trkpt>
      <trkpt lat="42.828807" lon="-8.607842">
        <ele>207.207</ele>
        <time>2018-08-25T18:43:27Z</time>
      </trkpt>
      <trkpt lat="42.828826" lon="-8.607770">
        <ele>208.017</ele>
        <time>2018-08-25T18:43:31Z</time>
      </trkpt>
      <trkpt lat="42.828829" lon="-8.607703">
        <ele>208.308</ele>
        <time>2018-08-25T18:43:34Z</time>
      </trkpt>
      <trkpt lat="42.828820" lon="-8.607632">
        <ele>208.627</ele>
        <time>2018-08-25T18:43:37Z</time>
      </trkpt>
      <trkpt lat="42.828810" lon="-8.607559">
        <ele>208.873</ele>
        <time>2018-08-25T18:43:40Z</time>
      </trkpt>
      <trkpt lat="42.828806" lon="-8.607492">
        <ele>209.138</ele>
        <time>2018-08-25T18:43:43Z</time>
      </trkpt>
      <trkpt lat="42.828809" lon="-8.607413">
        <ele>209.092</ele>
        <time>2018-08-25T18:43:47Z</time>
      </trkpt>
      <trkpt lat="42.828815" lon="-8.607350">
        <ele>208.859</ele>
        <time>2018-08-25T18:43:50Z</time>
      </trkpt>
      <trkpt lat="42.828831" lon="-8.607288">
        <ele>208.537</ele>
        <time>2018-08-25T18:43:53Z</time>
      </trkpt>
      <trkpt lat="42.828844" lon="-8.607224">
        <ele>208.485</ele>
        <time>2018-08-25T18:43:56Z</time>
      </trkpt>
      <trkpt lat="42.828861" lon="-8.607159">
        <ele>208.385</ele>
        <time>2018-08-25T18:43:59Z</time>
      </trkpt>
      <trkpt lat="42.828881" lon="-8.607100">
        <ele>208.547</ele>
        <time>2018-08-25T18:44:02Z</time>
      </trkpt>
      <trkpt lat="42.828909" lon="-8.607031">
        <ele>208.929</ele>
        <time>2018-08-25T18:44:05Z</time>
      </trkpt>
      <trkpt lat="42.828924" lon="-8.606951">
        <ele>209.321</ele>
        <time>2018-08-25T18:44:08Z</time>
      </trkpt>
      <trkpt lat="42.828933" lon="-8.606876">
        <ele>209.708</ele>
        <time>2018-08-25T18:44:11Z</time>
      </trkpt>
      <trkpt lat="42.828940" lon="-8.606801">
        <ele>210.156</ele>
        <time>2018-08-25T18:44:14Z</time>
      </trkpt>
      <trkpt lat="42.828951" lon="-8.606736">
        <ele>210.372</ele>
        <time>2018-08-25T18:44:17Z</time>
      </trkpt>
      <trkpt lat="42.828965" lon="-8.606661">
        <ele>210.637</ele>
        <time>2018-08-25T18:44:21Z</time>
      </trkpt>
      <trkpt lat="42.828975" lon="-8.606589">
        <ele>210.411</ele>
        <time>2018-08-25T18:45:10Z</time>
      </trkpt>
      <trkpt lat="42.828977" lon="-8.606520">
        <ele>210.168</ele>
        <time>2018-08-25T18:45:16Z</time>
      </trkpt>
      <trkpt lat="42.828981" lon="-8.606458">
        <ele>209.786</ele>
        <time>2018-08-25T18:45:18Z</time>
      </trkpt>
      <trkpt lat="42.828987" lon="-8.606390">
        <ele>209.444</ele>
        <time>2018-08-25T18:45:20Z</time>
      </trkpt>
      <trkpt lat="42.828994" lon="-8.606326">
        <ele>209.334</ele>
        <time>2018-08-25T18:45:22Z</time>
      </trkpt>
      <trkpt lat="42.829003" lon="-8.606265">
        <ele>209.066</ele>
        <time>2018-08-25T18:45:24Z</time>
      </trkpt>
      <trkpt lat="42.829017" lon="-8.606194">
        <ele>208.729</ele>
        <time>2018-08-25T18:45:26Z</time>
      </trkpt>
      <trkpt lat="42.829049" lon="-8.606138">
        <ele>208.421</ele>
        <time>2018-08-25T18:45:28Z</time>
      </trkpt>
      <trkpt lat="42.829093" lon="-8.606104">
        <ele>208.108</ele>
        <time>2018-08-25T18:45:31Z</time>
      </trkpt>
      <trkpt lat="42.829120" lon="-8.606053">
        <ele>208.058</ele>
        <time>2018-08-25T18:45:34Z</time>
      </trkpt>
      <trkpt lat="42.829160" lon="-8.606003">
        <ele>208.134</ele>
        <time>2018-08-25T18:45:37Z</time>
      </trkpt>
      <trkpt lat="42.829217" lon="-8.605949">
        <ele>208.489</ele>
        <time>2018-08-25T18:45:40Z</time>
      </trkpt>
      <trkpt lat="42.829260" lon="-8.605904">
        <ele>208.743</ele>
        <time>2018-08-25T18:45:42Z</time>
      </trkpt>
      <trkpt lat="42.829307" lon="-8.605861">
        <ele>208.940</ele>
        <time>2018-08-25T18:45:44Z</time>
      </trkpt>
      <trkpt lat="42.829356" lon="-8.605823">
        <ele>209.258</ele>
        <time>2018-08-25T18:45:46Z</time>
      </trkpt>
      <trkpt lat="42.829404" lon="-8.605792">
        <ele>209.236</ele>
        <time>2018-08-25T18:45:48Z</time>
      </trkpt>
      <trkpt lat="42.829451" lon="-8.605765">
        <ele>209.116</ele>
        <time>2018-08-25T18:45:50Z</time>
      </trkpt>
      <trkpt lat="42.829499" lon="-8.605744">
        <ele>208.848</ele>
        <time>2018-08-25T18:45:52Z</time>
      </trkpt>
      <trkpt lat="42.829546" lon="-8.605732">
        <ele>208.761</ele>
        <time>2018-08-25T18:45:54Z</time>
      </trkpt>
      <trkpt lat="42.829597" lon="-8.605727">
        <ele>208.717</ele>
        <time>2018-08-25T18:45:56Z</time>
      </trkpt>
      <trkpt lat="42.829653" lon="-8.605718">
        <ele>208.708</ele>
        <time>2018-08-25T18:45:58Z</time>
      </trkpt>
      <trkpt lat="42.829701" lon="-8.605703">
        <ele>208.716</ele>
        <time>2018-08-25T18:46:00Z</time>
      </trkpt>
      <trkpt lat="42.829749" lon="-8.605682">
        <ele>208.972</ele>
        <time>2018-08-25T18:46:02Z</time>
      </trkpt>
      <trkpt lat="42.829800" lon="-8.605671">
        <ele>209.057</ele>
        <time>2018-08-25T18:46:04Z</time>
      </trkpt>
      <trkpt lat="42.829847" lon="-8.605661">
        <ele>209.281</ele>
        <time>2018-08-25T18:46:06Z</time>
      </trkpt>
      <trkpt lat="42.829904" lon="-8.605651">
        <ele>209.278</ele>
        <time>2018-08-25T18:46:09Z</time>
      </trkpt>
      <trkpt lat="42.829970" lon="-8.605631">
        <ele>209.266</ele>
        <time>2018-08-25T18:46:12Z</time>
      </trkpt>
      <trkpt lat="42.830021" lon="-8.605615">
        <ele>209.324</ele>
        <time>2018-08-25T18:46:14Z</time>
      </trkpt>
      <trkpt lat="42.830083" lon="-8.605602">
        <ele>209.514</ele>
        <time>2018-08-25T18:46:17Z</time>
      </trkpt>
      <trkpt lat="42.830145" lon="-8.605582">
        <ele>209.326</ele>
        <time>2018-08-25T18:46:20Z</time>
      </trkpt>
      <trkpt lat="42.830209" lon="-8.605565">
        <ele>209.047</ele>
        <time>2018-08-25T18:46:23Z</time>
      </trkpt>
      <trkpt lat="42.830254" lon="-8.605552">
        <ele>209.011</ele>
        <time>2018-08-25T18:46:25Z</time>
      </trkpt>
      <trkpt lat="42.830299" lon="-8.605539">
        <ele>209.008</ele>
        <time>2018-08-25T18:46:27Z</time>
      </trkpt>
      <trkpt lat="42.830364" lon="-8.605525">
        <ele>209.064</ele>
        <time>2018-08-25T18:46:30Z</time>
      </trkpt>
      <trkpt lat="42.830411" lon="-8.605510">
        <ele>209.040</ele>
        <time>2018-08-25T18:46:32Z</time>
      </trkpt>
      <trkpt lat="42.830467" lon="-8.605486">
        <ele>209.045</ele>
        <time>2018-08-25T18:46:35Z</time>
      </trkpt>
      <trkpt lat="42.830522" lon="-8.605478">
        <ele>208.919</ele>
        <time>2018-08-25T18:46:38Z</time>
      </trkpt>
      <trkpt lat="42.830585" lon="-8.605461">
        <ele>209.046</ele>
        <time>2018-08-25T18:46:41Z</time>
      </trkpt>
      <trkpt lat="42.830629" lon="-8.605445">
        <ele>209.164</ele>
        <time>2018-08-25T18:46:43Z</time>
      </trkpt>
      <trkpt lat="42.830689" lon="-8.605421">
        <ele>209.082</ele>
        <time>2018-08-25T18:46:46Z</time>
      </trkpt>
      <trkpt lat="42.830745" lon="-8.605399">
        <ele>209.212</ele>
        <time>2018-08-25T18:46:49Z</time>
      </trkpt>
      <trkpt lat="42.830796" lon="-8.605374">
        <ele>209.311</ele>
        <time>2018-08-25T18:46:52Z</time>
      </trkpt>
      <trkpt lat="42.830856" lon="-8.605343">
        <ele>209.521</ele>
        <time>2018-08-25T18:46:55Z</time>
      </trkpt>
      <trkpt lat="42.830900" lon="-8.605317">
        <ele>210.003</ele>
        <time>2018-08-25T18:46:57Z</time>
      </trkpt>
      <trkpt lat="42.830940" lon="-8.605286">
        <ele>210.408</ele>
        <time>2018-08-25T18:46:59Z</time>
      </trkpt>
      <trkpt lat="42.830989" lon="-8.605258">
        <ele>210.443</ele>
        <time>2018-08-25T18:47:02Z</time>
      </trkpt>
      <trkpt lat="42.831038" lon="-8.605239">
        <ele>210.619</ele>
        <time>2018-08-25T18:47:05Z</time>
      </trkpt>
      <trkpt lat="42.831102" lon="-8.605214">
        <ele>210.984</ele>
        <time>2018-08-25T18:47:08Z</time>
      </trkpt>
      <trkpt lat="42.831158" lon="-8.605187">
        <ele>211.028</ele>
        <time>2018-08-25T18:47:11Z</time>
      </trkpt>
      <trkpt lat="42.831206" lon="-8.605155">
        <ele>211.375</ele>
        <time>2018-08-25T18:47:14Z</time>
      </trkpt>
      <trkpt lat="42.831259" lon="-8.605121">
        <ele>211.523</ele>
        <time>2018-08-25T18:47:18Z</time>
      </trkpt>
      <trkpt lat="42.831316" lon="-8.605076">
        <ele>211.891</ele>
        <time>2018-08-25T18:47:21Z</time>
      </trkpt>
      <trkpt lat="42.831359" lon="-8.605031">
        <ele>211.911</ele>
        <time>2018-08-25T18:47:23Z</time>
      </trkpt>
      <trkpt lat="42.831395" lon="-8.604988">
        <ele>211.681</ele>
        <time>2018-08-25T18:47:25Z</time>
      </trkpt>
      <trkpt lat="42.831425" lon="-8.604939">
        <ele>211.561</ele>
        <time>2018-08-25T18:47:27Z</time>
      </trkpt>
      <trkpt lat="42.831457" lon="-8.604890">
        <ele>211.317</ele>
        <time>2018-08-25T18:47:29Z</time>
      </trkpt>
      <trkpt lat="42.831498" lon="-8.604826">
        <ele>211.008</ele>
        <time>2018-08-25T18:47:32Z</time>
      </trkpt>
      <trkpt lat="42.831537" lon="-8.604756">
        <ele>210.630</ele>
        <time>2018-08-25T18:47:35Z</time>
      </trkpt>
      <trkpt lat="42.831564" lon="-8.604705">
        <ele>210.326</ele>
        <time>2018-08-25T18:47:37Z</time>
      </trkpt>
      <trkpt lat="42.831594" lon="-8.604652">
        <ele>210.191</ele>
        <time>2018-08-25T18:47:39Z</time>
      </trkpt>
      <trkpt lat="42.831619" lon="-8.604598">
        <ele>210.015</ele>
        <time>2018-08-25T18:47:41Z</time>
      </trkpt>
      <trkpt lat="42.831644" lon="-8.604525">
        <ele>209.672</ele>
        <time>2018-08-25T18:47:44Z</time>
      </trkpt>
      <trkpt lat="42.831667" lon="-8.604463">
        <ele>209.450</ele>
        <time>2018-08-25T18:47:47Z</time>
      </trkpt>
      <trkpt lat="42.831696" lon="-8.604400">
        <ele>209.368</ele>
        <time>2018-08-25T18:47:50Z</time>
      </trkpt>
      <trkpt lat="42.831733" lon="-8.604338">
        <ele>208.718</ele>
        <time>2018-08-25T18:47:53Z</time>
      </trkpt>
      <trkpt lat="42.831768" lon="-8.604281">
        <ele>207.948</ele>
        <time>2018-08-25T18:47:56Z</time>
      </trkpt>
      <trkpt lat="42.831802" lon="-8.604227">
        <ele>207.661</ele>
        <time>2018-08-25T18:47:59Z</time>
      </trkpt>
      <trkpt lat="42.831829" lon="-8.604172">
        <ele>207.417</ele>
        <time>2018-08-25T18:48:02Z</time>
      </trkpt>
      <trkpt lat="42.831858" lon="-8.604098">
        <ele>208.208</ele>
        <time>2018-08-25T18:48:06Z</time>
      </trkpt>
      <trkpt lat="42.831884" lon="-8.604019">
        <ele>208.876</ele>
        <time>2018-08-25T18:48:09Z</time>
      </trkpt>
      <trkpt lat="42.831907" lon="-8.603965">
        <ele>209.132</ele>
        <time>2018-08-25T18:48:11Z</time>
      </trkpt>
      <trkpt lat="42.831947" lon="-8.603900">
        <ele>208.457</ele>
        <time>2018-08-25T18:48:14Z</time>
      </trkpt>
      <trkpt lat="42.831991" lon="-8.603841">
        <ele>207.911</ele>
        <time>2018-08-25T18:48:17Z</time>
      </trkpt>
      <trkpt lat="42.832036" lon="-8.603786">
        <ele>207.598</ele>
        <time>2018-08-25T18:48:20Z</time>
      </trkpt>
      <trkpt lat="42.832084" lon="-8.603731">
        <ele>206.876</ele>
        <time>2018-08-25T18:48:23Z</time>
      </trkpt>
      <trkpt lat="42.832118" lon="-8.603689">
        <ele>206.794</ele>
        <time>2018-08-25T18:48:25Z</time>
      </trkpt>
      <trkpt lat="42.832163" lon="-8.603633">
        <ele>206.694</ele>
        <time>2018-08-25T18:48:28Z</time>
      </trkpt>
      <trkpt lat="42.832205" lon="-8.603589">
        <ele>206.443</ele>
        <time>2018-08-25T18:48:31Z</time>
      </trkpt>
      <trkpt lat="42.832248" lon="-8.603546">
        <ele>206.964</ele>
        <time>2018-08-25T18:48:34Z</time>
      </trkpt>
      <trkpt lat="42.832291" lon="-8.603491">
        <ele>207.710</ele>
        <time>2018-08-25T18:48:37Z</time>
      </trkpt>
      <trkpt lat="42.832322" lon="-8.603435">
        <ele>208.408</ele>
        <time>2018-08-25T18:48:40Z</time>
      </trkpt>
      <trkpt lat="42.832354" lon="-8.603364">
        <ele>208.646</ele>
        <time>2018-08-25T18:48:44Z</time>
      </trkpt>
      <trkpt lat="42.832370" lon="-8.603301">
        <ele>208.892</ele>
        <time>2018-08-25T18:48:47Z</time>
      </trkpt>
      <trkpt lat="42.868778" lon="-8.545718">
        <ele>280.327</ele>
        <time>2018-08-25T21:21:55Z</time>
      </trkpt>
      <trkpt lat="42.868752" lon="-8.545408">
        <ele>288.941</ele>
        <time>2018-08-25T21:22:13Z</time>
      </trkpt>
      <trkpt lat="42.868723" lon="-8.545469">
        <ele>297.528</ele>
        <time>2018-08-25T21:22:14Z</time>
      </trkpt>
      <trkpt lat="42.868762" lon="-8.545413">
        <ele>298.936</ele>
        <time>2018-08-25T21:22:18Z</time>
      </trkpt>
    </trkseg>
  </trk>
</gpx>
